<?xml version="1.0" encoding="UTF-8"?>
<gpx version="1.1" creator="https://www.youtrack.es" xsi:schemaLocation="http://www.topografix.com/GPX/1/1 http://www.topografix.com/GPX/1/1/gpx.xsd http://www.garmin.com/xmlschemas/GpxExtensions/v3 http://www.garmin.com/xmlschemas/GpxExtensionsv3.xsd http://www.garmin.com/xmlschemas/TrackPointExtension/v1 http://www.garmin.com/xmlschemas/TrackPointExtensionv1.xsd" xmlns:gpxtpx="http://www.garmin.com/xmlschemas/TrackPointExtension/v1" xmlns:gpxx="http://www.garmin.com/xmlschemas/GpxExtensions/v3" xmlns:xsi="http://www.w3.org/2001/XMLSchema-instance">
  <metadata>
    <link href="https://www.youtrack.es">
      <text>YouTrack.es</text>
    </link>
    <time>2026-05-10T12:08:03Z</time>
  </metadata>
  <trk>
    <src>https://www.youtrack.es</src>
    <link href="https://www.youtrack.es/ruta/23936-tracks-de-cerdanya">
      <text>YouTrack.es</text>
    </link>
    <trkseg>
      <trkpt lat="42.463087" lon="1.978542">
        <ele>1188.072</ele>
        <time>2019-05-29T06:54:07Z</time>
      </trkpt>
      <trkpt lat="42.463088" lon="1.978621">
        <ele>1188.013</ele>
        <time>2019-05-29T06:54:10Z</time>
      </trkpt>
      <trkpt lat="42.463096" lon="1.978699">
        <ele>1188.814</ele>
        <time>2019-05-29T06:54:12Z</time>
      </trkpt>
      <trkpt lat="42.463104" lon="1.978833">
        <ele>1189.008</ele>
        <time>2019-05-29T06:54:15Z</time>
      </trkpt>
      <trkpt lat="42.463101" lon="1.978975">
        <ele>1188.860</ele>
        <time>2019-05-29T06:54:18Z</time>
      </trkpt>
      <trkpt lat="42.463106" lon="1.979058">
        <ele>1187.424</ele>
        <time>2019-05-29T06:54:20Z</time>
      </trkpt>
      <trkpt lat="42.463105" lon="1.979096">
        <ele>1189.040</ele>
        <time>2019-05-29T06:54:21Z</time>
      </trkpt>
      <trkpt lat="42.463112" lon="1.979167">
        <ele>1191.688</ele>
        <time>2019-05-29T06:54:23Z</time>
      </trkpt>
      <trkpt lat="42.463122" lon="1.979211">
        <ele>1190.011</ele>
        <time>2019-05-29T06:54:24Z</time>
      </trkpt>
      <trkpt lat="42.463169" lon="1.979527">
        <ele>1189.651</ele>
        <time>2019-05-29T06:54:31Z</time>
      </trkpt>
      <trkpt lat="42.463169" lon="1.979608">
        <ele>1190.013</ele>
        <time>2019-05-29T06:54:33Z</time>
      </trkpt>
      <trkpt lat="42.463109" lon="1.979651">
        <ele>1189.858</ele>
        <time>2019-05-29T06:54:35Z</time>
      </trkpt>
      <trkpt lat="42.463034" lon="1.979773">
        <ele>1190.095</ele>
        <time>2019-05-29T06:54:38Z</time>
      </trkpt>
      <trkpt lat="42.463038" lon="1.979829">
        <ele>1190.049</ele>
        <time>2019-05-29T06:54:39Z</time>
      </trkpt>
      <trkpt lat="42.463079" lon="1.980002">
        <ele>1189.823</ele>
        <time>2019-05-29T06:54:42Z</time>
      </trkpt>
      <trkpt lat="42.463092" lon="1.980062">
        <ele>1189.808</ele>
        <time>2019-05-29T06:54:43Z</time>
      </trkpt>
      <trkpt lat="42.463100" lon="1.980124">
        <ele>1189.872</ele>
        <time>2019-05-29T06:54:44Z</time>
      </trkpt>
      <trkpt lat="42.463160" lon="1.980524">
        <ele>1189.626</ele>
        <time>2019-05-29T06:54:50Z</time>
      </trkpt>
      <trkpt lat="42.463230" lon="1.981063">
        <ele>1190.672</ele>
        <time>2019-05-29T06:54:58Z</time>
      </trkpt>
      <trkpt lat="42.463271" lon="1.981471">
        <ele>1190.820</ele>
        <time>2019-05-29T06:55:04Z</time>
      </trkpt>
      <trkpt lat="42.463258" lon="1.981824">
        <ele>1191.243</ele>
        <time>2019-05-29T06:55:09Z</time>
      </trkpt>
      <trkpt lat="42.463234" lon="1.981961">
        <ele>1191.413</ele>
        <time>2019-05-29T06:55:11Z</time>
      </trkpt>
      <trkpt lat="42.463147" lon="1.982365">
        <ele>1192.235</ele>
        <time>2019-05-29T06:55:17Z</time>
      </trkpt>
      <trkpt lat="42.463112" lon="1.982499">
        <ele>1191.880</ele>
        <time>2019-05-29T06:55:19Z</time>
      </trkpt>
      <trkpt lat="42.462926" lon="1.983238">
        <ele>1192.217</ele>
        <time>2019-05-29T06:55:30Z</time>
      </trkpt>
      <trkpt lat="42.462785" lon="1.983838">
        <ele>1193.287</ele>
        <time>2019-05-29T06:55:39Z</time>
      </trkpt>
      <trkpt lat="42.462770" lon="1.983905">
        <ele>1193.415</ele>
        <time>2019-05-29T06:55:40Z</time>
      </trkpt>
      <trkpt lat="42.462674" lon="1.984297">
        <ele>1194.408</ele>
        <time>2019-05-29T06:55:46Z</time>
      </trkpt>
      <trkpt lat="42.462645" lon="1.984428">
        <ele>1193.854</ele>
        <time>2019-05-29T06:55:48Z</time>
      </trkpt>
      <trkpt lat="42.462553" lon="1.984964">
        <ele>1194.828</ele>
        <time>2019-05-29T06:55:56Z</time>
      </trkpt>
      <trkpt lat="42.462515" lon="1.985112">
        <ele>1195.044</ele>
        <time>2019-05-29T06:55:59Z</time>
      </trkpt>
      <trkpt lat="42.462482" lon="1.985118">
        <ele>1195.032</ele>
        <time>2019-05-29T06:56:00Z</time>
      </trkpt>
      <trkpt lat="42.462366" lon="1.985108">
        <ele>1194.685</ele>
        <time>2019-05-29T06:56:03Z</time>
      </trkpt>
      <trkpt lat="42.462321" lon="1.985107">
        <ele>1194.435</ele>
        <time>2019-05-29T06:56:04Z</time>
      </trkpt>
      <trkpt lat="42.462086" lon="1.985072">
        <ele>1193.817</ele>
        <time>2019-05-29T06:56:09Z</time>
      </trkpt>
      <trkpt lat="42.462035" lon="1.985068">
        <ele>1193.872</ele>
        <time>2019-05-29T06:56:10Z</time>
      </trkpt>
      <trkpt lat="42.461932" lon="1.985061">
        <ele>1193.454</ele>
        <time>2019-05-29T06:56:12Z</time>
      </trkpt>
      <trkpt lat="42.461780" lon="1.985051">
        <ele>1192.656</ele>
        <time>2019-05-29T06:56:15Z</time>
      </trkpt>
      <trkpt lat="42.461726" lon="1.985041">
        <ele>1193.411</ele>
        <time>2019-05-29T06:56:16Z</time>
      </trkpt>
      <trkpt lat="42.461405" lon="1.984979">
        <ele>1192.608</ele>
        <time>2019-05-29T06:56:22Z</time>
      </trkpt>
      <trkpt lat="42.461243" lon="1.985040">
        <ele>1192.298</ele>
        <time>2019-05-29T06:56:25Z</time>
      </trkpt>
      <trkpt lat="42.461194" lon="1.985058">
        <ele>1192.472</ele>
        <time>2019-05-29T06:56:26Z</time>
      </trkpt>
      <trkpt lat="42.461102" lon="1.985104">
        <ele>1192.638</ele>
        <time>2019-05-29T06:56:28Z</time>
      </trkpt>
      <trkpt lat="42.460934" lon="1.985232">
        <ele>1193.466</ele>
        <time>2019-05-29T06:56:32Z</time>
      </trkpt>
      <trkpt lat="42.460735" lon="1.985386">
        <ele>1194.299</ele>
        <time>2019-05-29T06:56:37Z</time>
      </trkpt>
      <trkpt lat="42.460647" lon="1.985418">
        <ele>1194.289</ele>
        <time>2019-05-29T06:56:39Z</time>
      </trkpt>
      <trkpt lat="42.460555" lon="1.985438">
        <ele>1194.491</ele>
        <time>2019-05-29T06:56:41Z</time>
      </trkpt>
      <trkpt lat="42.460511" lon="1.985449">
        <ele>1194.676</ele>
        <time>2019-05-29T06:56:42Z</time>
      </trkpt>
      <trkpt lat="42.460339" lon="1.985496">
        <ele>1195.243</ele>
        <time>2019-05-29T06:56:46Z</time>
      </trkpt>
      <trkpt lat="42.460261" lon="1.985542">
        <ele>1195.664</ele>
        <time>2019-05-29T06:56:48Z</time>
      </trkpt>
      <trkpt lat="42.460149" lon="1.985632">
        <ele>1195.810</ele>
        <time>2019-05-29T06:56:51Z</time>
      </trkpt>
      <trkpt lat="42.460114" lon="1.985666">
        <ele>1196.008</ele>
        <time>2019-05-29T06:56:52Z</time>
      </trkpt>
      <trkpt lat="42.459890" lon="1.985901">
        <ele>1196.837</ele>
        <time>2019-05-29T06:56:59Z</time>
      </trkpt>
      <trkpt lat="42.459861" lon="1.985935">
        <ele>1197.071</ele>
        <time>2019-05-29T06:57:00Z</time>
      </trkpt>
      <trkpt lat="42.459786" lon="1.986035">
        <ele>1198.037</ele>
        <time>2019-05-29T06:57:03Z</time>
      </trkpt>
      <trkpt lat="42.459684" lon="1.986155">
        <ele>1199.215</ele>
        <time>2019-05-29T06:57:07Z</time>
      </trkpt>
      <trkpt lat="42.459547" lon="1.986366">
        <ele>1200.278</ele>
        <time>2019-05-29T06:57:13Z</time>
      </trkpt>
      <trkpt lat="42.459433" lon="1.986520">
        <ele>1201.438</ele>
        <time>2019-05-29T06:57:18Z</time>
      </trkpt>
      <trkpt lat="42.459347" lon="1.986624">
        <ele>1202.260</ele>
        <time>2019-05-29T06:57:22Z</time>
      </trkpt>
      <trkpt lat="42.459328" lon="1.986651">
        <ele>1202.645</ele>
        <time>2019-05-29T06:57:23Z</time>
      </trkpt>
      <trkpt lat="42.459241" lon="1.986763">
        <ele>1203.839</ele>
        <time>2019-05-29T06:57:27Z</time>
      </trkpt>
      <trkpt lat="42.459177" lon="1.986852">
        <ele>1204.601</ele>
        <time>2019-05-29T06:57:30Z</time>
      </trkpt>
      <trkpt lat="42.459154" lon="1.986876">
        <ele>1205.021</ele>
        <time>2019-05-29T06:57:31Z</time>
      </trkpt>
      <trkpt lat="42.459070" lon="1.986995">
        <ele>1206.008</ele>
        <time>2019-05-29T06:57:35Z</time>
      </trkpt>
      <trkpt lat="42.459027" lon="1.987049">
        <ele>1206.626</ele>
        <time>2019-05-29T06:57:37Z</time>
      </trkpt>
      <trkpt lat="42.458981" lon="1.987106">
        <ele>1207.010</ele>
        <time>2019-05-29T06:57:39Z</time>
      </trkpt>
      <trkpt lat="42.458803" lon="1.987348">
        <ele>1208.046</ele>
        <time>2019-05-29T06:57:47Z</time>
      </trkpt>
      <trkpt lat="42.458636" lon="1.987572">
        <ele>1208.894</ele>
        <time>2019-05-29T06:57:54Z</time>
      </trkpt>
      <trkpt lat="42.458485" lon="1.987783">
        <ele>1209.037</ele>
        <time>2019-05-29T06:58:00Z</time>
      </trkpt>
      <trkpt lat="42.458351" lon="1.987963">
        <ele>1209.837</ele>
        <time>2019-05-29T06:58:05Z</time>
      </trkpt>
      <trkpt lat="42.458298" lon="1.988031">
        <ele>1210.099</ele>
        <time>2019-05-29T06:58:07Z</time>
      </trkpt>
      <trkpt lat="42.458147" lon="1.988253">
        <ele>1211.064</ele>
        <time>2019-05-29T06:58:13Z</time>
      </trkpt>
      <trkpt lat="42.458066" lon="1.988362">
        <ele>1211.249</ele>
        <time>2019-05-29T06:58:16Z</time>
      </trkpt>
      <trkpt lat="42.457905" lon="1.988572">
        <ele>1211.802</ele>
        <time>2019-05-29T06:58:22Z</time>
      </trkpt>
      <trkpt lat="42.457820" lon="1.988666">
        <ele>1212.222</ele>
        <time>2019-05-29T06:58:25Z</time>
      </trkpt>
      <trkpt lat="42.457712" lon="1.988783">
        <ele>1212.808</ele>
        <time>2019-05-29T06:58:29Z</time>
      </trkpt>
      <trkpt lat="42.457628" lon="1.988866">
        <ele>1213.217</ele>
        <time>2019-05-29T06:58:32Z</time>
      </trkpt>
      <trkpt lat="42.457447" lon="1.989070">
        <ele>1214.251</ele>
        <time>2019-05-29T06:58:39Z</time>
      </trkpt>
      <trkpt lat="42.457424" lon="1.989098">
        <ele>1214.447</ele>
        <time>2019-05-29T06:58:40Z</time>
      </trkpt>
      <trkpt lat="42.457276" lon="1.989294">
        <ele>1215.675</ele>
        <time>2019-05-29T06:58:46Z</time>
      </trkpt>
      <trkpt lat="42.457226" lon="1.989356">
        <ele>1216.058</ele>
        <time>2019-05-29T06:58:48Z</time>
      </trkpt>
      <trkpt lat="42.457113" lon="1.989533">
        <ele>1216.628</ele>
        <time>2019-05-29T06:58:53Z</time>
      </trkpt>
      <trkpt lat="42.457045" lon="1.989640">
        <ele>1216.690</ele>
        <time>2019-05-29T06:58:56Z</time>
      </trkpt>
      <trkpt lat="42.456918" lon="1.989854">
        <ele>1217.655</ele>
        <time>2019-05-29T06:59:02Z</time>
      </trkpt>
      <trkpt lat="42.456851" lon="1.989959">
        <ele>1218.082</ele>
        <time>2019-05-29T06:59:05Z</time>
      </trkpt>
      <trkpt lat="42.456730" lon="1.990187">
        <ele>1218.843</ele>
        <time>2019-05-29T06:59:11Z</time>
      </trkpt>
      <trkpt lat="42.456695" lon="1.990266">
        <ele>1219.017</ele>
        <time>2019-05-29T06:59:13Z</time>
      </trkpt>
      <trkpt lat="42.456610" lon="1.990469">
        <ele>1219.808</ele>
        <time>2019-05-29T06:59:18Z</time>
      </trkpt>
      <trkpt lat="42.456508" lon="1.990766">
        <ele>1220.611</ele>
        <time>2019-05-29T06:59:25Z</time>
      </trkpt>
      <trkpt lat="42.456497" lon="1.990813">
        <ele>1220.855</ele>
        <time>2019-05-29T06:59:26Z</time>
      </trkpt>
      <trkpt lat="42.456376" lon="1.991198">
        <ele>1221.881</ele>
        <time>2019-05-29T06:59:35Z</time>
      </trkpt>
      <trkpt lat="42.456357" lon="1.991241">
        <ele>1222.089</ele>
        <time>2019-05-29T06:59:36Z</time>
      </trkpt>
      <trkpt lat="42.456251" lon="1.991521">
        <ele>1222.662</ele>
        <time>2019-05-29T06:59:43Z</time>
      </trkpt>
      <trkpt lat="42.456197" lon="1.991638">
        <ele>1223.032</ele>
        <time>2019-05-29T06:59:46Z</time>
      </trkpt>
      <trkpt lat="42.456091" lon="1.991882">
        <ele>1224.054</ele>
        <time>2019-05-29T06:59:52Z</time>
      </trkpt>
      <trkpt lat="42.455922" lon="1.992283">
        <ele>1224.679</ele>
        <time>2019-05-29T07:00:01Z</time>
      </trkpt>
      <trkpt lat="42.455816" lon="1.992563">
        <ele>1225.271</ele>
        <time>2019-05-29T07:00:07Z</time>
      </trkpt>
      <trkpt lat="42.455765" lon="1.992705">
        <ele>1225.641</ele>
        <time>2019-05-29T07:00:10Z</time>
      </trkpt>
      <trkpt lat="42.455632" lon="1.993082">
        <ele>1226.215</ele>
        <time>2019-05-29T07:00:18Z</time>
      </trkpt>
      <trkpt lat="42.455583" lon="1.993222">
        <ele>1226.808</ele>
        <time>2019-05-29T07:00:21Z</time>
      </trkpt>
      <trkpt lat="42.455489" lon="1.993505">
        <ele>1227.480</ele>
        <time>2019-05-29T07:00:27Z</time>
      </trkpt>
      <trkpt lat="42.455428" lon="1.993697">
        <ele>1227.864</ele>
        <time>2019-05-29T07:00:31Z</time>
      </trkpt>
      <trkpt lat="42.455313" lon="1.994057">
        <ele>1228.620</ele>
        <time>2019-05-29T07:00:39Z</time>
      </trkpt>
      <trkpt lat="42.455201" lon="1.994411">
        <ele>1229.268</ele>
        <time>2019-05-29T07:00:47Z</time>
      </trkpt>
      <trkpt lat="42.455155" lon="1.994543">
        <ele>1229.621</ele>
        <time>2019-05-29T07:00:50Z</time>
      </trkpt>
      <trkpt lat="42.455081" lon="1.994760">
        <ele>1229.871</ele>
        <time>2019-05-29T07:00:55Z</time>
      </trkpt>
      <trkpt lat="42.454988" lon="1.995022">
        <ele>1230.673</ele>
        <time>2019-05-29T07:01:01Z</time>
      </trkpt>
      <trkpt lat="42.454973" lon="1.995065">
        <ele>1230.858</ele>
        <time>2019-05-29T07:01:02Z</time>
      </trkpt>
      <trkpt lat="42.454846" lon="1.995405">
        <ele>1231.629</ele>
        <time>2019-05-29T07:01:10Z</time>
      </trkpt>
      <trkpt lat="42.454829" lon="1.995448">
        <ele>1231.800</ele>
        <time>2019-05-29T07:01:11Z</time>
      </trkpt>
      <trkpt lat="42.454716" lon="1.995799">
        <ele>1233.020</ele>
        <time>2019-05-29T07:01:19Z</time>
      </trkpt>
      <trkpt lat="42.454689" lon="1.995892">
        <ele>1233.208</ele>
        <time>2019-05-29T07:01:21Z</time>
      </trkpt>
      <trkpt lat="42.454673" lon="1.996135">
        <ele>1233.675</ele>
        <time>2019-05-29T07:01:27Z</time>
      </trkpt>
      <trkpt lat="42.454760" lon="1.996250">
        <ele>1233.639</ele>
        <time>2019-05-29T07:01:30Z</time>
      </trkpt>
      <trkpt lat="42.454797" lon="1.996294">
        <ele>1233.655</ele>
        <time>2019-05-29T07:01:31Z</time>
      </trkpt>
      <trkpt lat="42.454822" lon="1.996351">
        <ele>1233.653</ele>
        <time>2019-05-29T07:01:32Z</time>
      </trkpt>
      <trkpt lat="42.454858" lon="1.996544">
        <ele>1232.836</ele>
        <time>2019-05-29T07:01:35Z</time>
      </trkpt>
      <trkpt lat="42.454828" lon="1.996787">
        <ele>1232.466</ele>
        <time>2019-05-29T07:01:39Z</time>
      </trkpt>
      <trkpt lat="42.454794" lon="1.996917">
        <ele>1232.298</ele>
        <time>2019-05-29T07:01:41Z</time>
      </trkpt>
      <trkpt lat="42.454711" lon="1.997079">
        <ele>1232.433</ele>
        <time>2019-05-29T07:01:44Z</time>
      </trkpt>
      <trkpt lat="42.454670" lon="1.997226">
        <ele>1232.493</ele>
        <time>2019-05-29T07:01:47Z</time>
      </trkpt>
      <trkpt lat="42.454729" lon="1.997318">
        <ele>1231.665</ele>
        <time>2019-05-29T07:01:49Z</time>
      </trkpt>
      <trkpt lat="42.454775" lon="1.997354">
        <ele>1230.821</ele>
        <time>2019-05-29T07:01:50Z</time>
      </trkpt>
      <trkpt lat="42.454826" lon="1.997396">
        <ele>1229.808</ele>
        <time>2019-05-29T07:01:51Z</time>
      </trkpt>
      <trkpt lat="42.454917" lon="1.997483">
        <ele>1229.082</ele>
        <time>2019-05-29T07:01:53Z</time>
      </trkpt>
      <trkpt lat="42.455010" lon="1.997554">
        <ele>1228.866</ele>
        <time>2019-05-29T07:01:55Z</time>
      </trkpt>
      <trkpt lat="42.455098" lon="1.997636">
        <ele>1228.222</ele>
        <time>2019-05-29T07:01:57Z</time>
      </trkpt>
      <trkpt lat="42.455190" lon="1.997829">
        <ele>1227.870</ele>
        <time>2019-05-29T07:02:00Z</time>
      </trkpt>
      <trkpt lat="42.455234" lon="1.997968">
        <ele>1228.243</ele>
        <time>2019-05-29T07:02:02Z</time>
      </trkpt>
      <trkpt lat="42.455267" lon="1.998092">
        <ele>1228.243</ele>
        <time>2019-05-29T07:02:04Z</time>
      </trkpt>
      <trkpt lat="42.455289" lon="1.998162">
        <ele>1228.295</ele>
        <time>2019-05-29T07:02:05Z</time>
      </trkpt>
      <trkpt lat="42.455358" lon="1.998421">
        <ele>1228.430</ele>
        <time>2019-05-29T07:02:09Z</time>
      </trkpt>
      <trkpt lat="42.455377" lon="1.998489">
        <ele>1228.411</ele>
        <time>2019-05-29T07:02:10Z</time>
      </trkpt>
      <trkpt lat="42.455447" lon="1.998838">
        <ele>1228.621</ele>
        <time>2019-05-29T07:02:15Z</time>
      </trkpt>
      <trkpt lat="42.455408" lon="1.999111">
        <ele>1228.803</ele>
        <time>2019-05-29T07:02:19Z</time>
      </trkpt>
      <trkpt lat="42.455414" lon="1.999177">
        <ele>1228.808</ele>
        <time>2019-05-29T07:02:20Z</time>
      </trkpt>
      <trkpt lat="42.455495" lon="1.999337">
        <ele>1229.284</ele>
        <time>2019-05-29T07:02:24Z</time>
      </trkpt>
      <trkpt lat="42.455532" lon="1.999371">
        <ele>1229.248</ele>
        <time>2019-05-29T07:02:25Z</time>
      </trkpt>
      <trkpt lat="42.455656" lon="1.999521">
        <ele>1229.424</ele>
        <time>2019-05-29T07:02:29Z</time>
      </trkpt>
      <trkpt lat="42.455708" lon="1.999606">
        <ele>1229.842</ele>
        <time>2019-05-29T07:02:31Z</time>
      </trkpt>
      <trkpt lat="42.455784" lon="1.999739">
        <ele>1230.225</ele>
        <time>2019-05-29T07:02:34Z</time>
      </trkpt>
      <trkpt lat="42.455894" lon="1.999925">
        <ele>1231.285</ele>
        <time>2019-05-29T07:02:38Z</time>
      </trkpt>
      <trkpt lat="42.455942" lon="2.000020">
        <ele>1231.457</ele>
        <time>2019-05-29T07:02:40Z</time>
      </trkpt>
      <trkpt lat="42.456087" lon="2.000309">
        <ele>1231.672</ele>
        <time>2019-05-29T07:02:46Z</time>
      </trkpt>
      <trkpt lat="42.456128" lon="2.000415">
        <ele>1232.025</ele>
        <time>2019-05-29T07:02:48Z</time>
      </trkpt>
      <trkpt lat="42.456154" lon="2.000510">
        <ele>1232.626</ele>
        <time>2019-05-29T07:02:50Z</time>
      </trkpt>
      <trkpt lat="42.456230" lon="2.000626">
        <ele>1232.808</ele>
        <time>2019-05-29T07:02:53Z</time>
      </trkpt>
      <trkpt lat="42.456318" lon="2.000623">
        <ele>1233.408</ele>
        <time>2019-05-29T07:02:56Z</time>
      </trkpt>
      <trkpt lat="42.456354" lon="2.000611">
        <ele>1233.635</ele>
        <time>2019-05-29T07:02:57Z</time>
      </trkpt>
      <trkpt lat="42.456385" lon="2.000593">
        <ele>1233.839</ele>
        <time>2019-05-29T07:02:58Z</time>
      </trkpt>
      <trkpt lat="42.456456" lon="2.000562">
        <ele>1233.845</ele>
        <time>2019-05-29T07:03:00Z</time>
      </trkpt>
      <trkpt lat="42.456519" lon="2.000507">
        <ele>1233.683</ele>
        <time>2019-05-29T07:03:02Z</time>
      </trkpt>
      <trkpt lat="42.456542" lon="2.000512">
        <ele>1233.866</ele>
        <time>2019-05-29T07:03:03Z</time>
      </trkpt>
      <trkpt lat="42.456561" lon="2.000500">
        <ele>1233.826</ele>
        <time>2019-05-29T07:03:05Z</time>
      </trkpt>
      <trkpt lat="42.456565" lon="2.000486">
        <ele>1233.898</ele>
        <time>2019-05-29T07:03:06Z</time>
      </trkpt>
      <trkpt lat="42.456526" lon="2.000469">
        <ele>1233.453</ele>
        <time>2019-05-29T07:03:09Z</time>
      </trkpt>
      <trkpt lat="42.456503" lon="2.000526">
        <ele>1233.483</ele>
        <time>2019-05-29T07:03:11Z</time>
      </trkpt>
      <trkpt lat="42.456491" lon="2.000557">
        <ele>1233.425</ele>
        <time>2019-05-29T07:03:12Z</time>
      </trkpt>
      <trkpt lat="42.456517" lon="2.000685">
        <ele>1233.417</ele>
        <time>2019-05-29T07:03:16Z</time>
      </trkpt>
      <trkpt lat="42.456662" lon="2.000810">
        <ele>1234.408</ele>
        <time>2019-05-29T07:03:22Z</time>
      </trkpt>
      <trkpt lat="42.456690" lon="2.000829">
        <ele>1234.861</ele>
        <time>2019-05-29T07:03:23Z</time>
      </trkpt>
      <trkpt lat="42.456883" lon="2.001005">
        <ele>1235.695</ele>
        <time>2019-05-29T07:03:30Z</time>
      </trkpt>
      <trkpt lat="42.456939" lon="2.001092">
        <ele>1236.081</ele>
        <time>2019-05-29T07:03:33Z</time>
      </trkpt>
      <trkpt lat="42.456974" lon="2.001139">
        <ele>1236.649</ele>
        <time>2019-05-29T07:03:35Z</time>
      </trkpt>
      <trkpt lat="42.456979" lon="2.001176">
        <ele>1237.022</ele>
        <time>2019-05-29T07:03:36Z</time>
      </trkpt>
      <trkpt lat="42.456965" lon="2.001285">
        <ele>1238.012</ele>
        <time>2019-05-29T07:03:39Z</time>
      </trkpt>
      <trkpt lat="42.456951" lon="2.001351">
        <ele>1238.074</ele>
        <time>2019-05-29T07:03:41Z</time>
      </trkpt>
      <trkpt lat="42.456917" lon="2.001553">
        <ele>1239.259</ele>
        <time>2019-05-29T07:03:47Z</time>
      </trkpt>
      <trkpt lat="42.456902" lon="2.001622">
        <ele>1240.036</ele>
        <time>2019-05-29T07:03:49Z</time>
      </trkpt>
      <trkpt lat="42.456818" lon="2.001771">
        <ele>1240.417</ele>
        <time>2019-05-29T07:03:54Z</time>
      </trkpt>
      <trkpt lat="42.456768" lon="2.001823">
        <ele>1240.618</ele>
        <time>2019-05-29T07:03:56Z</time>
      </trkpt>
      <trkpt lat="42.456669" lon="2.001997">
        <ele>1241.008</ele>
        <time>2019-05-29T07:04:01Z</time>
      </trkpt>
      <trkpt lat="42.456489" lon="2.002320">
        <ele>1240.456</ele>
        <time>2019-05-29T07:04:09Z</time>
      </trkpt>
      <trkpt lat="42.456426" lon="2.002584">
        <ele>1241.280</ele>
        <time>2019-05-29T07:04:15Z</time>
      </trkpt>
      <trkpt lat="42.456431" lon="2.002623">
        <ele>1241.446</ele>
        <time>2019-05-29T07:04:16Z</time>
      </trkpt>
      <trkpt lat="42.456481" lon="2.002779">
        <ele>1242.494</ele>
        <time>2019-05-29T07:04:21Z</time>
      </trkpt>
      <trkpt lat="42.456492" lon="2.002808">
        <ele>1242.877</ele>
        <time>2019-05-29T07:04:22Z</time>
      </trkpt>
      <trkpt lat="42.456539" lon="2.002894">
        <ele>1243.687</ele>
        <time>2019-05-29T07:04:25Z</time>
      </trkpt>
      <trkpt lat="42.456580" lon="2.002975">
        <ele>1244.859</ele>
        <time>2019-05-29T07:04:28Z</time>
      </trkpt>
      <trkpt lat="42.456605" lon="2.003034">
        <ele>1245.234</ele>
        <time>2019-05-29T07:04:30Z</time>
      </trkpt>
      <trkpt lat="42.456620" lon="2.003103">
        <ele>1246.096</ele>
        <time>2019-05-29T07:04:32Z</time>
      </trkpt>
      <trkpt lat="42.456624" lon="2.003255">
        <ele>1246.831</ele>
        <time>2019-05-29T07:04:36Z</time>
      </trkpt>
      <trkpt lat="42.456625" lon="2.003329">
        <ele>1247.024</ele>
        <time>2019-05-29T07:04:38Z</time>
      </trkpt>
      <trkpt lat="42.456629" lon="2.003564">
        <ele>1248.008</ele>
        <time>2019-05-29T07:04:44Z</time>
      </trkpt>
      <trkpt lat="42.456636" lon="2.003842">
        <ele>1249.242</ele>
        <time>2019-05-29T07:04:51Z</time>
      </trkpt>
      <trkpt lat="42.456637" lon="2.003880">
        <ele>1249.446</ele>
        <time>2019-05-29T07:04:52Z</time>
      </trkpt>
      <trkpt lat="42.456602" lon="2.003976">
        <ele>1250.292</ele>
        <time>2019-05-29T07:04:55Z</time>
      </trkpt>
      <trkpt lat="42.456561" lon="2.004034">
        <ele>1250.650</ele>
        <time>2019-05-29T07:04:57Z</time>
      </trkpt>
      <trkpt lat="42.456421" lon="2.004289">
        <ele>1251.213</ele>
        <time>2019-05-29T07:05:05Z</time>
      </trkpt>
      <trkpt lat="42.456358" lon="2.004418">
        <ele>1251.413</ele>
        <time>2019-05-29T07:05:09Z</time>
      </trkpt>
      <trkpt lat="42.456308" lon="2.004509">
        <ele>1251.665</ele>
        <time>2019-05-29T07:05:12Z</time>
      </trkpt>
      <trkpt lat="42.456251" lon="2.004645">
        <ele>1252.460</ele>
        <time>2019-05-29T07:05:16Z</time>
      </trkpt>
      <trkpt lat="42.456203" lon="2.004743">
        <ele>1252.689</ele>
        <time>2019-05-29T07:05:19Z</time>
      </trkpt>
      <trkpt lat="42.456117" lon="2.004929">
        <ele>1253.406</ele>
        <time>2019-05-29T07:05:25Z</time>
      </trkpt>
      <trkpt lat="42.456060" lon="2.005055">
        <ele>1253.626</ele>
        <time>2019-05-29T07:05:29Z</time>
      </trkpt>
      <trkpt lat="42.455957" lon="2.005276">
        <ele>1254.608</ele>
        <time>2019-05-29T07:05:36Z</time>
      </trkpt>
      <trkpt lat="42.455831" lon="2.005533">
        <ele>1255.651</ele>
        <time>2019-05-29T07:05:44Z</time>
      </trkpt>
      <trkpt lat="42.455815" lon="2.005565">
        <ele>1255.665</ele>
        <time>2019-05-29T07:05:45Z</time>
      </trkpt>
      <trkpt lat="42.455731" lon="2.005755">
        <ele>1256.021</ele>
        <time>2019-05-29T07:05:51Z</time>
      </trkpt>
      <trkpt lat="42.455656" lon="2.005951">
        <ele>1256.829</ele>
        <time>2019-05-29T07:05:57Z</time>
      </trkpt>
      <trkpt lat="42.455539" lon="2.006187">
        <ele>1258.092</ele>
        <time>2019-05-29T07:06:05Z</time>
      </trkpt>
      <trkpt lat="42.455524" lon="2.006217">
        <ele>1258.042</ele>
        <time>2019-05-29T07:06:06Z</time>
      </trkpt>
      <trkpt lat="42.455405" lon="2.006464">
        <ele>1259.054</ele>
        <time>2019-05-29T07:06:14Z</time>
      </trkpt>
      <trkpt lat="42.455316" lon="2.006659">
        <ele>1259.459</ele>
        <time>2019-05-29T07:06:20Z</time>
      </trkpt>
      <trkpt lat="42.455200" lon="2.006908">
        <ele>1260.687</ele>
        <time>2019-05-29T07:06:28Z</time>
      </trkpt>
      <trkpt lat="42.455099" lon="2.007133">
        <ele>1261.042</ele>
        <time>2019-05-29T07:06:35Z</time>
      </trkpt>
      <trkpt lat="42.454952" lon="2.007445">
        <ele>1261.626</ele>
        <time>2019-05-29T07:06:45Z</time>
      </trkpt>
      <trkpt lat="42.454850" lon="2.007618">
        <ele>1262.408</ele>
        <time>2019-05-29T07:06:51Z</time>
      </trkpt>
      <trkpt lat="42.454731" lon="2.007895">
        <ele>1262.041</ele>
        <time>2019-05-29T07:06:59Z</time>
      </trkpt>
      <trkpt lat="42.454645" lon="2.008165">
        <ele>1262.415</ele>
        <time>2019-05-29T07:07:06Z</time>
      </trkpt>
      <trkpt lat="42.454589" lon="2.008301">
        <ele>1262.661</ele>
        <time>2019-05-29T07:07:10Z</time>
      </trkpt>
      <trkpt lat="42.454545" lon="2.008445">
        <ele>1263.049</ele>
        <time>2019-05-29T07:07:14Z</time>
      </trkpt>
      <trkpt lat="42.454444" lon="2.008655">
        <ele>1263.832</ele>
        <time>2019-05-29T07:07:20Z</time>
      </trkpt>
      <trkpt lat="42.454405" lon="2.008723">
        <ele>1264.032</ele>
        <time>2019-05-29T07:07:22Z</time>
      </trkpt>
      <trkpt lat="42.454292" lon="2.008927">
        <ele>1264.254</ele>
        <time>2019-05-29T07:07:28Z</time>
      </trkpt>
      <trkpt lat="42.454235" lon="2.009061">
        <ele>1264.829</ele>
        <time>2019-05-29T07:07:32Z</time>
      </trkpt>
      <trkpt lat="42.454201" lon="2.009160">
        <ele>1265.425</ele>
        <time>2019-05-29T07:07:35Z</time>
      </trkpt>
      <trkpt lat="42.454169" lon="2.009267">
        <ele>1266.226</ele>
        <time>2019-05-29T07:07:38Z</time>
      </trkpt>
      <trkpt lat="42.454110" lon="2.009432">
        <ele>1266.808</ele>
        <time>2019-05-29T07:07:43Z</time>
      </trkpt>
      <trkpt lat="42.454037" lon="2.009633">
        <ele>1267.408</ele>
        <time>2019-05-29T07:07:49Z</time>
      </trkpt>
      <trkpt lat="42.453928" lon="2.009888">
        <ele>1268.615</ele>
        <time>2019-05-29T07:07:57Z</time>
      </trkpt>
      <trkpt lat="42.453842" lon="2.010112">
        <ele>1268.829</ele>
        <time>2019-05-29T07:08:04Z</time>
      </trkpt>
      <trkpt lat="42.453772" lon="2.010347">
        <ele>1269.675</ele>
        <time>2019-05-29T07:08:11Z</time>
      </trkpt>
      <trkpt lat="42.453686" lon="2.010572">
        <ele>1270.263</ele>
        <time>2019-05-29T07:08:18Z</time>
      </trkpt>
      <trkpt lat="42.453629" lon="2.010695">
        <ele>1270.626</ele>
        <time>2019-05-29T07:08:22Z</time>
      </trkpt>
      <trkpt lat="42.453568" lon="2.010817">
        <ele>1271.056</ele>
        <time>2019-05-29T07:08:26Z</time>
      </trkpt>
      <trkpt lat="42.453502" lon="2.010931">
        <ele>1271.858</ele>
        <time>2019-05-29T07:08:30Z</time>
      </trkpt>
      <trkpt lat="42.453401" lon="2.011112">
        <ele>1272.623</ele>
        <time>2019-05-29T07:08:36Z</time>
      </trkpt>
      <trkpt lat="42.453350" lon="2.011198">
        <ele>1272.853</ele>
        <time>2019-05-29T07:08:39Z</time>
      </trkpt>
      <trkpt lat="42.453255" lon="2.011382">
        <ele>1273.404</ele>
        <time>2019-05-29T07:08:45Z</time>
      </trkpt>
      <trkpt lat="42.453116" lon="2.011690">
        <ele>1273.814</ele>
        <time>2019-05-29T07:08:55Z</time>
      </trkpt>
      <trkpt lat="42.453091" lon="2.011753">
        <ele>1274.008</ele>
        <time>2019-05-29T07:08:57Z</time>
      </trkpt>
      <trkpt lat="42.453003" lon="2.011941">
        <ele>1274.888</ele>
        <time>2019-05-29T07:09:03Z</time>
      </trkpt>
      <trkpt lat="42.452978" lon="2.012004">
        <ele>1275.082</ele>
        <time>2019-05-29T07:09:05Z</time>
      </trkpt>
      <trkpt lat="42.452919" lon="2.012120">
        <ele>1275.868</ele>
        <time>2019-05-29T07:09:09Z</time>
      </trkpt>
      <trkpt lat="42.452862" lon="2.012240">
        <ele>1276.216</ele>
        <time>2019-05-29T07:09:13Z</time>
      </trkpt>
      <trkpt lat="42.452824" lon="2.012329">
        <ele>1277.029</ele>
        <time>2019-05-29T07:09:16Z</time>
      </trkpt>
      <trkpt lat="42.452800" lon="2.012388">
        <ele>1277.499</ele>
        <time>2019-05-29T07:09:18Z</time>
      </trkpt>
      <trkpt lat="42.452721" lon="2.012537">
        <ele>1277.851</ele>
        <time>2019-05-29T07:09:23Z</time>
      </trkpt>
      <trkpt lat="42.452629" lon="2.012718">
        <ele>1278.626</ele>
        <time>2019-05-29T07:09:29Z</time>
      </trkpt>
      <trkpt lat="42.452614" lon="2.012751">
        <ele>1278.896</ele>
        <time>2019-05-29T07:09:30Z</time>
      </trkpt>
      <trkpt lat="42.452522" lon="2.012939">
        <ele>1280.031</ele>
        <time>2019-05-29T07:09:36Z</time>
      </trkpt>
      <trkpt lat="42.452506" lon="2.012971">
        <ele>1280.224</ele>
        <time>2019-05-29T07:09:37Z</time>
      </trkpt>
      <trkpt lat="42.452396" lon="2.013198">
        <ele>1281.008</ele>
        <time>2019-05-29T07:09:44Z</time>
      </trkpt>
      <trkpt lat="42.452291" lon="2.013419">
        <ele>1281.882</ele>
        <time>2019-05-29T07:09:51Z</time>
      </trkpt>
      <trkpt lat="42.452186" lon="2.013626">
        <ele>1282.036</ele>
        <time>2019-05-29T07:09:58Z</time>
      </trkpt>
      <trkpt lat="42.452172" lon="2.013653">
        <ele>1282.252</ele>
        <time>2019-05-29T07:09:59Z</time>
      </trkpt>
      <trkpt lat="42.452046" lon="2.013883">
        <ele>1283.030</ele>
        <time>2019-05-29T07:10:07Z</time>
      </trkpt>
      <trkpt lat="42.452018" lon="2.013944">
        <ele>1283.273</ele>
        <time>2019-05-29T07:10:09Z</time>
      </trkpt>
      <trkpt lat="42.451922" lon="2.014127">
        <ele>1284.213</ele>
        <time>2019-05-29T07:10:15Z</time>
      </trkpt>
      <trkpt lat="42.451813" lon="2.014328">
        <ele>1284.645</ele>
        <time>2019-05-29T07:10:22Z</time>
      </trkpt>
      <trkpt lat="42.451764" lon="2.014423">
        <ele>1285.230</ele>
        <time>2019-05-29T07:10:25Z</time>
      </trkpt>
      <trkpt lat="42.451721" lon="2.014517">
        <ele>1286.273</ele>
        <time>2019-05-29T07:10:28Z</time>
      </trkpt>
      <trkpt lat="42.451709" lon="2.014550">
        <ele>1286.285</ele>
        <time>2019-05-29T07:10:29Z</time>
      </trkpt>
      <trkpt lat="42.451635" lon="2.014747">
        <ele>1286.013</ele>
        <time>2019-05-29T07:10:35Z</time>
      </trkpt>
      <trkpt lat="42.451543" lon="2.015012">
        <ele>1286.808</ele>
        <time>2019-05-29T07:10:43Z</time>
      </trkpt>
      <trkpt lat="42.451512" lon="2.015119">
        <ele>1287.470</ele>
        <time>2019-05-29T07:10:46Z</time>
      </trkpt>
      <trkpt lat="42.451467" lon="2.015257">
        <ele>1287.894</ele>
        <time>2019-05-29T07:10:50Z</time>
      </trkpt>
      <trkpt lat="42.451395" lon="2.015449">
        <ele>1288.430</ele>
        <time>2019-05-29T07:10:56Z</time>
      </trkpt>
      <trkpt lat="42.451298" lon="2.015672">
        <ele>1289.218</ele>
        <time>2019-05-29T07:11:03Z</time>
      </trkpt>
      <trkpt lat="42.451190" lon="2.015844">
        <ele>1289.241</ele>
        <time>2019-05-29T07:11:09Z</time>
      </trkpt>
      <trkpt lat="42.451177" lon="2.015874">
        <ele>1289.651</ele>
        <time>2019-05-29T07:11:10Z</time>
      </trkpt>
      <trkpt lat="42.451132" lon="2.015996">
        <ele>1290.063</ele>
        <time>2019-05-29T07:11:14Z</time>
      </trkpt>
      <trkpt lat="42.451077" lon="2.016161">
        <ele>1290.618</ele>
        <time>2019-05-29T07:11:19Z</time>
      </trkpt>
      <trkpt lat="42.451047" lon="2.016260">
        <ele>1291.225</ele>
        <time>2019-05-29T07:11:22Z</time>
      </trkpt>
      <trkpt lat="42.450961" lon="2.016473">
        <ele>1291.826</ele>
        <time>2019-05-29T07:11:29Z</time>
      </trkpt>
      <trkpt lat="42.450947" lon="2.016503">
        <ele>1292.008</ele>
        <time>2019-05-29T07:11:30Z</time>
      </trkpt>
      <trkpt lat="42.450870" lon="2.016709">
        <ele>1292.408</ele>
        <time>2019-05-29T07:11:37Z</time>
      </trkpt>
      <trkpt lat="42.450856" lon="2.016739">
        <ele>1292.865</ele>
        <time>2019-05-29T07:11:38Z</time>
      </trkpt>
      <trkpt lat="42.450750" lon="2.016973">
        <ele>1294.059</ele>
        <time>2019-05-29T07:11:46Z</time>
      </trkpt>
      <trkpt lat="42.450626" lon="2.017196">
        <ele>1295.025</ele>
        <time>2019-05-29T07:11:54Z</time>
      </trkpt>
      <trkpt lat="42.450563" lon="2.017311">
        <ele>1295.043</ele>
        <time>2019-05-29T07:11:58Z</time>
      </trkpt>
      <trkpt lat="42.450500" lon="2.017383">
        <ele>1295.866</ele>
        <time>2019-05-29T07:12:01Z</time>
      </trkpt>
      <trkpt lat="42.450457" lon="2.017423">
        <ele>1296.026</ele>
        <time>2019-05-29T07:12:03Z</time>
      </trkpt>
      <trkpt lat="42.450379" lon="2.017522">
        <ele>1296.278</ele>
        <time>2019-05-29T07:12:07Z</time>
      </trkpt>
      <trkpt lat="42.450232" lon="2.017729">
        <ele>1297.083</ele>
        <time>2019-05-29T07:12:15Z</time>
      </trkpt>
      <trkpt lat="42.450132" lon="2.017891">
        <ele>1297.634</ele>
        <time>2019-05-29T07:12:21Z</time>
      </trkpt>
      <trkpt lat="42.450035" lon="2.018060">
        <ele>1298.255</ele>
        <time>2019-05-29T07:12:27Z</time>
      </trkpt>
      <trkpt lat="42.449964" lon="2.018179">
        <ele>1298.810</ele>
        <time>2019-05-29T07:12:31Z</time>
      </trkpt>
      <trkpt lat="42.449890" lon="2.018307">
        <ele>1298.808</ele>
        <time>2019-05-29T07:12:35Z</time>
      </trkpt>
      <trkpt lat="42.449819" lon="2.018459">
        <ele>1299.276</ele>
        <time>2019-05-29T07:12:40Z</time>
      </trkpt>
      <trkpt lat="42.449764" lon="2.018544">
        <ele>1300.080</ele>
        <time>2019-05-29T07:12:43Z</time>
      </trkpt>
      <trkpt lat="42.449710" lon="2.018623">
        <ele>1300.426</ele>
        <time>2019-05-29T07:12:46Z</time>
      </trkpt>
      <trkpt lat="42.449643" lon="2.018732">
        <ele>1301.034</ele>
        <time>2019-05-29T07:12:50Z</time>
      </trkpt>
      <trkpt lat="42.449570" lon="2.018871">
        <ele>1301.467</ele>
        <time>2019-05-29T07:12:55Z</time>
      </trkpt>
      <trkpt lat="42.449529" lon="2.018957">
        <ele>1301.457</ele>
        <time>2019-05-29T07:12:58Z</time>
      </trkpt>
      <trkpt lat="42.449425" lon="2.019148">
        <ele>1302.259</ele>
        <time>2019-05-29T07:13:05Z</time>
      </trkpt>
      <trkpt lat="42.449364" lon="2.019281">
        <ele>1302.674</ele>
        <time>2019-05-29T07:13:10Z</time>
      </trkpt>
      <trkpt lat="42.449308" lon="2.019384">
        <ele>1303.684</ele>
        <time>2019-05-29T07:13:14Z</time>
      </trkpt>
      <trkpt lat="42.449214" lon="2.019569">
        <ele>1304.407</ele>
        <time>2019-05-29T07:13:21Z</time>
      </trkpt>
      <trkpt lat="42.449165" lon="2.019643">
        <ele>1305.017</ele>
        <time>2019-05-29T07:13:24Z</time>
      </trkpt>
      <trkpt lat="42.449057" lon="2.019812">
        <ele>1305.808</ele>
        <time>2019-05-29T07:13:31Z</time>
      </trkpt>
      <trkpt lat="42.449023" lon="2.019860">
        <ele>1306.221</ele>
        <time>2019-05-29T07:13:33Z</time>
      </trkpt>
      <trkpt lat="42.448927" lon="2.020003">
        <ele>1306.485</ele>
        <time>2019-05-29T07:13:39Z</time>
      </trkpt>
      <trkpt lat="42.448803" lon="2.020173">
        <ele>1307.471</ele>
        <time>2019-05-29T07:13:46Z</time>
      </trkpt>
      <trkpt lat="42.448711" lon="2.020318">
        <ele>1308.249</ele>
        <time>2019-05-29T07:13:52Z</time>
      </trkpt>
      <trkpt lat="42.448673" lon="2.020367">
        <ele>1308.432</ele>
        <time>2019-05-29T07:13:54Z</time>
      </trkpt>
      <trkpt lat="42.448622" lon="2.020471">
        <ele>1309.452</ele>
        <time>2019-05-29T07:13:58Z</time>
      </trkpt>
      <trkpt lat="42.448547" lon="2.020591">
        <ele>1309.444</ele>
        <time>2019-05-29T07:14:03Z</time>
      </trkpt>
      <trkpt lat="42.448517" lon="2.020640">
        <ele>1309.839</ele>
        <time>2019-05-29T07:14:05Z</time>
      </trkpt>
      <trkpt lat="42.448397" lon="2.020837">
        <ele>1310.063</ele>
        <time>2019-05-29T07:14:13Z</time>
      </trkpt>
      <trkpt lat="42.448368" lon="2.020888">
        <ele>1310.644</ele>
        <time>2019-05-29T07:14:15Z</time>
      </trkpt>
      <trkpt lat="42.448300" lon="2.021019">
        <ele>1310.818</ele>
        <time>2019-05-29T07:14:20Z</time>
      </trkpt>
      <trkpt lat="42.448184" lon="2.021220">
        <ele>1311.808</ele>
        <time>2019-05-29T07:14:28Z</time>
      </trkpt>
      <trkpt lat="42.448080" lon="2.021398">
        <ele>1312.849</ele>
        <time>2019-05-29T07:14:35Z</time>
      </trkpt>
      <trkpt lat="42.448032" lon="2.021473">
        <ele>1312.883</ele>
        <time>2019-05-29T07:14:38Z</time>
      </trkpt>
      <trkpt lat="42.447949" lon="2.021622">
        <ele>1313.849</ele>
        <time>2019-05-29T07:14:44Z</time>
      </trkpt>
      <trkpt lat="42.447936" lon="2.021652">
        <ele>1313.867</ele>
        <time>2019-05-29T07:14:45Z</time>
      </trkpt>
      <trkpt lat="42.447839" lon="2.021845">
        <ele>1314.490</ele>
        <time>2019-05-29T07:14:52Z</time>
      </trkpt>
      <trkpt lat="42.447740" lon="2.022041">
        <ele>1315.040</ele>
        <time>2019-05-29T07:14:59Z</time>
      </trkpt>
      <trkpt lat="42.447633" lon="2.022258">
        <ele>1315.892</ele>
        <time>2019-05-29T07:15:07Z</time>
      </trkpt>
      <trkpt lat="42.447618" lon="2.022285">
        <ele>1316.217</ele>
        <time>2019-05-29T07:15:08Z</time>
      </trkpt>
      <trkpt lat="42.447502" lon="2.022494">
        <ele>1317.078</ele>
        <time>2019-05-29T07:15:16Z</time>
      </trkpt>
      <trkpt lat="42.447485" lon="2.022517">
        <ele>1317.233</ele>
        <time>2019-05-29T07:15:17Z</time>
      </trkpt>
      <trkpt lat="42.447406" lon="2.022642">
        <ele>1318.026</ele>
        <time>2019-05-29T07:15:22Z</time>
      </trkpt>
      <trkpt lat="42.447377" lon="2.022695">
        <ele>1318.408</ele>
        <time>2019-05-29T07:15:24Z</time>
      </trkpt>
      <trkpt lat="42.447294" lon="2.022828">
        <ele>1318.450</ele>
        <time>2019-05-29T07:15:29Z</time>
      </trkpt>
      <trkpt lat="42.447277" lon="2.022855">
        <ele>1318.694</ele>
        <time>2019-05-29T07:15:30Z</time>
      </trkpt>
      <trkpt lat="42.447223" lon="2.022936">
        <ele>1318.860</ele>
        <time>2019-05-29T07:15:33Z</time>
      </trkpt>
      <trkpt lat="42.447169" lon="2.023027">
        <ele>1319.458</ele>
        <time>2019-05-29T07:15:36Z</time>
      </trkpt>
      <trkpt lat="42.447150" lon="2.023057">
        <ele>1319.681</ele>
        <time>2019-05-29T07:15:37Z</time>
      </trkpt>
      <trkpt lat="42.447031" lon="2.023250">
        <ele>1319.851</ele>
        <time>2019-05-29T07:15:44Z</time>
      </trkpt>
      <trkpt lat="42.446910" lon="2.023439">
        <ele>1320.053</ele>
        <time>2019-05-29T07:15:51Z</time>
      </trkpt>
      <trkpt lat="42.446865" lon="2.023598">
        <ele>1319.028</ele>
        <time>2019-05-29T07:15:55Z</time>
      </trkpt>
      <trkpt lat="42.446870" lon="2.023666">
        <ele>1318.447</ele>
        <time>2019-05-29T07:15:57Z</time>
      </trkpt>
      <trkpt lat="42.446879" lon="2.023699">
        <ele>1318.229</ele>
        <time>2019-05-29T07:15:59Z</time>
      </trkpt>
      <trkpt lat="42.446884" lon="2.023732">
        <ele>1318.621</ele>
        <time>2019-05-29T07:16:02Z</time>
      </trkpt>
      <trkpt lat="42.446901" lon="2.023774">
        <ele>1318.608</ele>
        <time>2019-05-29T07:16:05Z</time>
      </trkpt>
      <trkpt lat="42.446917" lon="2.023867">
        <ele>1319.467</ele>
        <time>2019-05-29T07:16:08Z</time>
      </trkpt>
      <trkpt lat="42.446930" lon="2.023896">
        <ele>1319.461</ele>
        <time>2019-05-29T07:16:09Z</time>
      </trkpt>
      <trkpt lat="42.447012" lon="2.023968">
        <ele>1319.657</ele>
        <time>2019-05-29T07:16:13Z</time>
      </trkpt>
      <trkpt lat="42.447113" lon="2.024063">
        <ele>1319.855</ele>
        <time>2019-05-29T07:16:18Z</time>
      </trkpt>
      <trkpt lat="42.447180" lon="2.024127">
        <ele>1320.668</ele>
        <time>2019-05-29T07:16:21Z</time>
      </trkpt>
      <trkpt lat="42.447271" lon="2.024214">
        <ele>1321.048</ele>
        <time>2019-05-29T07:16:25Z</time>
      </trkpt>
      <trkpt lat="42.447309" lon="2.024263">
        <ele>1320.660</ele>
        <time>2019-05-29T07:16:27Z</time>
      </trkpt>
      <trkpt lat="42.447301" lon="2.024297">
        <ele>1321.815</ele>
        <time>2019-05-29T07:16:29Z</time>
      </trkpt>
      <trkpt lat="42.447257" lon="2.024282">
        <ele>1323.099</ele>
        <time>2019-05-29T07:16:31Z</time>
      </trkpt>
      <trkpt lat="42.447215" lon="2.024246">
        <ele>1323.007</ele>
        <time>2019-05-29T07:16:33Z</time>
      </trkpt>
      <trkpt lat="42.447169" lon="2.024208">
        <ele>1323.627</ele>
        <time>2019-05-29T07:16:35Z</time>
      </trkpt>
      <trkpt lat="42.447039" lon="2.024108">
        <ele>1323.608</ele>
        <time>2019-05-29T07:16:40Z</time>
      </trkpt>
      <trkpt lat="42.446830" lon="2.023976">
        <ele>1323.832</ele>
        <time>2019-05-29T07:16:47Z</time>
      </trkpt>
      <trkpt lat="42.446618" lon="2.023944">
        <ele>1323.656</ele>
        <time>2019-05-29T07:16:53Z</time>
      </trkpt>
      <trkpt lat="42.446411" lon="2.024042">
        <ele>1323.422</ele>
        <time>2019-05-29T07:16:59Z</time>
      </trkpt>
      <trkpt lat="42.446231" lon="2.024180">
        <ele>1324.290</ele>
        <time>2019-05-29T07:17:05Z</time>
      </trkpt>
      <trkpt lat="42.446208" lon="2.024206">
        <ele>1324.493</ele>
        <time>2019-05-29T07:17:06Z</time>
      </trkpt>
      <trkpt lat="42.446083" lon="2.024363">
        <ele>1325.433</ele>
        <time>2019-05-29T07:17:12Z</time>
      </trkpt>
      <trkpt lat="42.446029" lon="2.024450">
        <ele>1325.855</ele>
        <time>2019-05-29T07:17:15Z</time>
      </trkpt>
      <trkpt lat="42.445975" lon="2.024531">
        <ele>1326.470</ele>
        <time>2019-05-29T07:17:18Z</time>
      </trkpt>
      <trkpt lat="42.445866" lon="2.024695">
        <ele>1327.232</ele>
        <time>2019-05-29T07:17:24Z</time>
      </trkpt>
      <trkpt lat="42.445851" lon="2.024725">
        <ele>1327.892</ele>
        <time>2019-05-29T07:17:25Z</time>
      </trkpt>
      <trkpt lat="42.445744" lon="2.024896">
        <ele>1328.611</ele>
        <time>2019-05-29T07:17:31Z</time>
      </trkpt>
      <trkpt lat="42.445661" lon="2.025040">
        <ele>1328.808</ele>
        <time>2019-05-29T07:17:36Z</time>
      </trkpt>
      <trkpt lat="42.445616" lon="2.025128">
        <ele>1329.226</ele>
        <time>2019-05-29T07:17:39Z</time>
      </trkpt>
      <trkpt lat="42.445550" lon="2.025245">
        <ele>1330.010</ele>
        <time>2019-05-29T07:17:43Z</time>
      </trkpt>
      <trkpt lat="42.445506" lon="2.025341">
        <ele>1330.646</ele>
        <time>2019-05-29T07:17:46Z</time>
      </trkpt>
      <trkpt lat="42.445378" lon="2.025579">
        <ele>1331.014</ele>
        <time>2019-05-29T07:17:54Z</time>
      </trkpt>
      <trkpt lat="42.445362" lon="2.025608">
        <ele>1331.467</ele>
        <time>2019-05-29T07:17:55Z</time>
      </trkpt>
      <trkpt lat="42.445248" lon="2.025811">
        <ele>1331.827</ele>
        <time>2019-05-29T07:18:02Z</time>
      </trkpt>
      <trkpt lat="42.445169" lon="2.025953">
        <ele>1332.489</ele>
        <time>2019-05-29T07:18:07Z</time>
      </trkpt>
      <trkpt lat="42.445135" lon="2.026009">
        <ele>1333.024</ele>
        <time>2019-05-29T07:18:09Z</time>
      </trkpt>
      <trkpt lat="42.445039" lon="2.026185">
        <ele>1333.648</ele>
        <time>2019-05-29T07:18:15Z</time>
      </trkpt>
      <trkpt lat="42.444993" lon="2.026276">
        <ele>1334.061</ele>
        <time>2019-05-29T07:18:18Z</time>
      </trkpt>
      <trkpt lat="42.444950" lon="2.026370">
        <ele>1334.617</ele>
        <time>2019-05-29T07:18:21Z</time>
      </trkpt>
      <trkpt lat="42.444894" lon="2.026498">
        <ele>1335.208</ele>
        <time>2019-05-29T07:18:25Z</time>
      </trkpt>
      <trkpt lat="42.444879" lon="2.026528">
        <ele>1335.647</ele>
        <time>2019-05-29T07:18:26Z</time>
      </trkpt>
      <trkpt lat="42.444788" lon="2.026757">
        <ele>1336.871</ele>
        <time>2019-05-29T07:18:33Z</time>
      </trkpt>
      <trkpt lat="42.444777" lon="2.026788">
        <ele>1336.627</ele>
        <time>2019-05-29T07:18:34Z</time>
      </trkpt>
      <trkpt lat="42.444736" lon="2.027030">
        <ele>1337.495</ele>
        <time>2019-05-29T07:18:41Z</time>
      </trkpt>
      <trkpt lat="42.444741" lon="2.027270">
        <ele>1337.488</ele>
        <time>2019-05-29T07:18:48Z</time>
      </trkpt>
      <trkpt lat="42.444727" lon="2.027343">
        <ele>1337.818</ele>
        <time>2019-05-29T07:18:50Z</time>
      </trkpt>
      <trkpt lat="42.444689" lon="2.027398">
        <ele>1337.880</ele>
        <time>2019-05-29T07:18:52Z</time>
      </trkpt>
      <trkpt lat="42.444532" lon="2.027495">
        <ele>1339.035</ele>
        <time>2019-05-29T07:18:58Z</time>
      </trkpt>
      <trkpt lat="42.444330" lon="2.027607">
        <ele>1339.849</ele>
        <time>2019-05-29T07:19:05Z</time>
      </trkpt>
      <trkpt lat="42.444283" lon="2.027665">
        <ele>1340.002</ele>
        <time>2019-05-29T07:19:07Z</time>
      </trkpt>
      <trkpt lat="42.444201" lon="2.027790">
        <ele>1340.422</ele>
        <time>2019-05-29T07:19:11Z</time>
      </trkpt>
      <trkpt lat="42.444078" lon="2.028017">
        <ele>1340.408</ele>
        <time>2019-05-29T07:19:18Z</time>
      </trkpt>
      <trkpt lat="42.444026" lon="2.028153">
        <ele>1341.217</ele>
        <time>2019-05-29T07:19:22Z</time>
      </trkpt>
      <trkpt lat="42.443976" lon="2.028295">
        <ele>1341.451</ele>
        <time>2019-05-29T07:19:26Z</time>
      </trkpt>
      <trkpt lat="42.443855" lon="2.028550">
        <ele>1342.647</ele>
        <time>2019-05-29T07:19:34Z</time>
      </trkpt>
      <trkpt lat="42.443724" lon="2.028833">
        <ele>1343.485</ele>
        <time>2019-05-29T07:19:43Z</time>
      </trkpt>
      <trkpt lat="42.443710" lon="2.028866">
        <ele>1343.628</ele>
        <time>2019-05-29T07:19:44Z</time>
      </trkpt>
      <trkpt lat="42.443642" lon="2.029028">
        <ele>1344.858</ele>
        <time>2019-05-29T07:19:49Z</time>
      </trkpt>
      <trkpt lat="42.443593" lon="2.029121">
        <ele>1344.840</ele>
        <time>2019-05-29T07:19:52Z</time>
      </trkpt>
      <trkpt lat="42.443507" lon="2.029263">
        <ele>1345.875</ele>
        <time>2019-05-29T07:19:57Z</time>
      </trkpt>
      <trkpt lat="42.443451" lon="2.029355">
        <ele>1345.417</ele>
        <time>2019-05-29T07:20:00Z</time>
      </trkpt>
      <trkpt lat="42.443373" lon="2.029468">
        <ele>1347.087</ele>
        <time>2019-05-29T07:20:04Z</time>
      </trkpt>
      <trkpt lat="42.443293" lon="2.029571">
        <ele>1347.015</ele>
        <time>2019-05-29T07:20:08Z</time>
      </trkpt>
      <trkpt lat="42.443090" lon="2.029834">
        <ele>1347.008</ele>
        <time>2019-05-29T07:20:18Z</time>
      </trkpt>
      <trkpt lat="42.443053" lon="2.029892">
        <ele>1348.014</ele>
        <time>2019-05-29T07:20:20Z</time>
      </trkpt>
      <trkpt lat="42.442923" lon="2.030096">
        <ele>1348.078</ele>
        <time>2019-05-29T07:20:27Z</time>
      </trkpt>
      <trkpt lat="42.442801" lon="2.030314">
        <ele>1349.064</ele>
        <time>2019-05-29T07:20:34Z</time>
      </trkpt>
      <trkpt lat="42.442659" lon="2.030572">
        <ele>1349.492</ele>
        <time>2019-05-29T07:20:42Z</time>
      </trkpt>
      <trkpt lat="42.442588" lon="2.030690">
        <ele>1350.015</ele>
        <time>2019-05-29T07:20:46Z</time>
      </trkpt>
      <trkpt lat="42.442555" lon="2.030747">
        <ele>1350.255</ele>
        <time>2019-05-29T07:20:48Z</time>
      </trkpt>
      <trkpt lat="42.442498" lon="2.030835">
        <ele>1351.477</ele>
        <time>2019-05-29T07:20:51Z</time>
      </trkpt>
      <trkpt lat="42.442416" lon="2.030920">
        <ele>1351.412</ele>
        <time>2019-05-29T07:20:54Z</time>
      </trkpt>
      <trkpt lat="42.442336" lon="2.030994">
        <ele>1352.477</ele>
        <time>2019-05-29T07:20:58Z</time>
      </trkpt>
      <trkpt lat="42.442298" lon="2.031026">
        <ele>1352.461</ele>
        <time>2019-05-29T07:21:00Z</time>
      </trkpt>
      <trkpt lat="42.442186" lon="2.031157">
        <ele>1353.827</ele>
        <time>2019-05-29T07:21:06Z</time>
      </trkpt>
      <trkpt lat="42.442149" lon="2.031206">
        <ele>1353.808</ele>
        <time>2019-05-29T07:21:08Z</time>
      </trkpt>
      <trkpt lat="42.442031" lon="2.031362">
        <ele>1355.080</ele>
        <time>2019-05-29T07:21:15Z</time>
      </trkpt>
      <trkpt lat="42.442014" lon="2.031386">
        <ele>1355.494</ele>
        <time>2019-05-29T07:21:16Z</time>
      </trkpt>
      <trkpt lat="42.441964" lon="2.031453">
        <ele>1356.210</ele>
        <time>2019-05-29T07:21:19Z</time>
      </trkpt>
      <trkpt lat="42.441903" lon="2.031545">
        <ele>1356.838</ele>
        <time>2019-05-29T07:21:23Z</time>
      </trkpt>
      <trkpt lat="42.441873" lon="2.031590">
        <ele>1357.481</ele>
        <time>2019-05-29T07:21:25Z</time>
      </trkpt>
      <trkpt lat="42.441790" lon="2.031707">
        <ele>1358.061</ele>
        <time>2019-05-29T07:21:30Z</time>
      </trkpt>
      <trkpt lat="42.441740" lon="2.031773">
        <ele>1358.463</ele>
        <time>2019-05-29T07:21:33Z</time>
      </trkpt>
      <trkpt lat="42.441652" lon="2.031885">
        <ele>1359.488</ele>
        <time>2019-05-29T07:21:38Z</time>
      </trkpt>
      <trkpt lat="42.441504" lon="2.032110">
        <ele>1360.663</ele>
        <time>2019-05-29T07:21:47Z</time>
      </trkpt>
      <trkpt lat="42.441454" lon="2.032186">
        <ele>1361.244</ele>
        <time>2019-05-29T07:21:50Z</time>
      </trkpt>
      <trkpt lat="42.441403" lon="2.032257">
        <ele>1361.818</ele>
        <time>2019-05-29T07:21:53Z</time>
      </trkpt>
      <trkpt lat="42.441368" lon="2.032306">
        <ele>1362.008</ele>
        <time>2019-05-29T07:21:57Z</time>
      </trkpt>
      <trkpt lat="42.441296" lon="2.032453">
        <ele>1362.229</ele>
        <time>2019-05-29T07:24:33Z</time>
      </trkpt>
      <trkpt lat="42.441262" lon="2.032487">
        <ele>1362.053</ele>
        <time>2019-05-29T07:24:35Z</time>
      </trkpt>
      <trkpt lat="42.441230" lon="2.032534">
        <ele>1362.059</ele>
        <time>2019-05-29T07:24:37Z</time>
      </trkpt>
      <trkpt lat="42.441170" lon="2.032595">
        <ele>1362.657</ele>
        <time>2019-05-29T07:24:40Z</time>
      </trkpt>
      <trkpt lat="42.441075" lon="2.032720">
        <ele>1362.830</ele>
        <time>2019-05-29T07:24:45Z</time>
      </trkpt>
      <trkpt lat="42.441019" lon="2.032781">
        <ele>1363.460</ele>
        <time>2019-05-29T07:24:48Z</time>
      </trkpt>
      <trkpt lat="42.440891" lon="2.032932">
        <ele>1364.262</ele>
        <time>2019-05-29T07:24:55Z</time>
      </trkpt>
      <trkpt lat="42.440772" lon="2.033056">
        <ele>1363.657</ele>
        <time>2019-05-29T07:25:01Z</time>
      </trkpt>
      <trkpt lat="42.440612" lon="2.033194">
        <ele>1363.044</ele>
        <time>2019-05-29T07:25:07Z</time>
      </trkpt>
      <trkpt lat="42.440555" lon="2.033248">
        <ele>1362.005</ele>
        <time>2019-05-29T07:25:09Z</time>
      </trkpt>
      <trkpt lat="42.440529" lon="2.033273">
        <ele>1361.815</ele>
        <time>2019-05-29T07:25:10Z</time>
      </trkpt>
      <trkpt lat="42.440493" lon="2.033326">
        <ele>1361.008</ele>
        <time>2019-05-29T07:25:13Z</time>
      </trkpt>
      <trkpt lat="42.440509" lon="2.033354">
        <ele>1361.077</ele>
        <time>2019-05-29T07:25:15Z</time>
      </trkpt>
      <trkpt lat="42.440535" lon="2.033372">
        <ele>1361.671</ele>
        <time>2019-05-29T07:25:17Z</time>
      </trkpt>
      <trkpt lat="42.440564" lon="2.033372">
        <ele>1362.877</ele>
        <time>2019-05-29T07:25:21Z</time>
      </trkpt>
      <trkpt lat="42.440620" lon="2.033383">
        <ele>1363.865</ele>
        <time>2019-05-29T07:25:24Z</time>
      </trkpt>
      <trkpt lat="42.440639" lon="2.033393">
        <ele>1364.218</ele>
        <time>2019-05-29T07:25:25Z</time>
      </trkpt>
      <trkpt lat="42.440702" lon="2.033431">
        <ele>1365.478</ele>
        <time>2019-05-29T07:25:28Z</time>
      </trkpt>
      <trkpt lat="42.440761" lon="2.033466">
        <ele>1366.090</ele>
        <time>2019-05-29T07:25:31Z</time>
      </trkpt>
      <trkpt lat="42.440873" lon="2.033556">
        <ele>1366.495</ele>
        <time>2019-05-29T07:25:37Z</time>
      </trkpt>
      <trkpt lat="42.440902" lon="2.033561">
        <ele>1366.697</ele>
        <time>2019-05-29T07:25:38Z</time>
      </trkpt>
      <trkpt lat="42.440972" lon="2.033580">
        <ele>1366.823</ele>
        <time>2019-05-29T07:25:41Z</time>
      </trkpt>
      <trkpt lat="42.441036" lon="2.033624">
        <ele>1366.825</ele>
        <time>2019-05-29T07:25:44Z</time>
      </trkpt>
      <trkpt lat="42.441136" lon="2.033701">
        <ele>1366.208</ele>
        <time>2019-05-29T07:25:48Z</time>
      </trkpt>
      <trkpt lat="42.441318" lon="2.033827">
        <ele>1367.292</ele>
        <time>2019-05-29T07:25:55Z</time>
      </trkpt>
      <trkpt lat="42.441450" lon="2.033730">
        <ele>1366.896</ele>
        <time>2019-05-29T07:25:59Z</time>
      </trkpt>
      <trkpt lat="42.441635" lon="2.033556">
        <ele>1365.232</ele>
        <time>2019-05-29T07:26:04Z</time>
      </trkpt>
      <trkpt lat="42.441673" lon="2.033512">
        <ele>1364.440</ele>
        <time>2019-05-29T07:26:05Z</time>
      </trkpt>
      <trkpt lat="42.441712" lon="2.033471">
        <ele>1363.833</ele>
        <time>2019-05-29T07:26:06Z</time>
      </trkpt>
      <trkpt lat="42.441830" lon="2.033348">
        <ele>1363.243</ele>
        <time>2019-05-29T07:26:09Z</time>
      </trkpt>
      <trkpt lat="42.441873" lon="2.033340">
        <ele>1363.035</ele>
        <time>2019-05-29T07:26:10Z</time>
      </trkpt>
      <trkpt lat="42.441988" lon="2.033421">
        <ele>1362.610</ele>
        <time>2019-05-29T07:26:13Z</time>
      </trkpt>
      <trkpt lat="42.442039" lon="2.033512">
        <ele>1362.033</ele>
        <time>2019-05-29T07:26:15Z</time>
      </trkpt>
      <trkpt lat="42.442151" lon="2.033687">
        <ele>1361.823</ele>
        <time>2019-05-29T07:26:19Z</time>
      </trkpt>
      <trkpt lat="42.442178" lon="2.033732">
        <ele>1361.415</ele>
        <time>2019-05-29T07:26:20Z</time>
      </trkpt>
      <trkpt lat="42.442344" lon="2.033987">
        <ele>1360.808</ele>
        <time>2019-05-29T07:26:26Z</time>
      </trkpt>
      <trkpt lat="42.442373" lon="2.034028">
        <ele>1360.886</ele>
        <time>2019-05-29T07:26:27Z</time>
      </trkpt>
      <trkpt lat="42.442564" lon="2.034324">
        <ele>1362.050</ele>
        <time>2019-05-29T07:26:34Z</time>
      </trkpt>
      <trkpt lat="42.442674" lon="2.034488">
        <ele>1361.686</ele>
        <time>2019-05-29T07:26:38Z</time>
      </trkpt>
      <trkpt lat="42.442728" lon="2.034570">
        <ele>1360.454</ele>
        <time>2019-05-29T07:26:40Z</time>
      </trkpt>
      <trkpt lat="42.442756" lon="2.034610">
        <ele>1360.267</ele>
        <time>2019-05-29T07:26:41Z</time>
      </trkpt>
      <trkpt lat="42.442903" lon="2.034833">
        <ele>1361.827</ele>
        <time>2019-05-29T07:26:47Z</time>
      </trkpt>
      <trkpt lat="42.442974" lon="2.034948">
        <ele>1361.619</ele>
        <time>2019-05-29T07:26:50Z</time>
      </trkpt>
      <trkpt lat="42.443201" lon="2.035281">
        <ele>1360.644</ele>
        <time>2019-05-29T07:26:59Z</time>
      </trkpt>
      <trkpt lat="42.443369" lon="2.035504">
        <ele>1360.457</ele>
        <time>2019-05-29T07:27:05Z</time>
      </trkpt>
      <trkpt lat="42.443429" lon="2.035564">
        <ele>1359.000</ele>
        <time>2019-05-29T07:27:07Z</time>
      </trkpt>
      <trkpt lat="42.443530" lon="2.035640">
        <ele>1360.020</ele>
        <time>2019-05-29T07:27:10Z</time>
      </trkpt>
      <trkpt lat="42.443564" lon="2.035667">
        <ele>1359.408</ele>
        <time>2019-05-29T07:27:11Z</time>
      </trkpt>
      <trkpt lat="42.443598" lon="2.035695">
        <ele>1358.828</ele>
        <time>2019-05-29T07:27:12Z</time>
      </trkpt>
      <trkpt lat="42.443793" lon="2.035891">
        <ele>1359.452</ele>
        <time>2019-05-29T07:27:18Z</time>
      </trkpt>
      <trkpt lat="42.443878" lon="2.035995">
        <ele>1360.028</ele>
        <time>2019-05-29T07:27:21Z</time>
      </trkpt>
      <trkpt lat="42.444012" lon="2.036150">
        <ele>1361.026</ele>
        <time>2019-05-29T07:27:26Z</time>
      </trkpt>
      <trkpt lat="42.444196" lon="2.036391">
        <ele>1361.229</ele>
        <time>2019-05-29T07:27:34Z</time>
      </trkpt>
      <trkpt lat="42.444344" lon="2.036611">
        <ele>1362.299</ele>
        <time>2019-05-29T07:27:41Z</time>
      </trkpt>
      <trkpt lat="42.444365" lon="2.036643">
        <ele>1362.451</ele>
        <time>2019-05-29T07:27:42Z</time>
      </trkpt>
      <trkpt lat="42.444434" lon="2.036732">
        <ele>1363.436</ele>
        <time>2019-05-29T07:27:45Z</time>
      </trkpt>
      <trkpt lat="42.444561" lon="2.036860">
        <ele>1363.271</ele>
        <time>2019-05-29T07:27:50Z</time>
      </trkpt>
      <trkpt lat="42.444666" lon="2.036951">
        <ele>1364.841</ele>
        <time>2019-05-29T07:27:54Z</time>
      </trkpt>
      <trkpt lat="42.444740" lon="2.037025">
        <ele>1366.015</ele>
        <time>2019-05-29T07:27:57Z</time>
      </trkpt>
      <trkpt lat="42.444793" lon="2.037064">
        <ele>1366.008</ele>
        <time>2019-05-29T07:27:59Z</time>
      </trkpt>
      <trkpt lat="42.444990" lon="2.037201">
        <ele>1366.650</ele>
        <time>2019-05-29T07:28:06Z</time>
      </trkpt>
      <trkpt lat="42.445049" lon="2.037235">
        <ele>1367.064</ele>
        <time>2019-05-29T07:28:08Z</time>
      </trkpt>
      <trkpt lat="42.445212" lon="2.037267">
        <ele>1367.480</ele>
        <time>2019-05-29T07:28:13Z</time>
      </trkpt>
      <trkpt lat="42.445338" lon="2.037257">
        <ele>1368.448</ele>
        <time>2019-05-29T07:28:17Z</time>
      </trkpt>
      <trkpt lat="42.445430" lon="2.037253">
        <ele>1368.441</ele>
        <time>2019-05-29T07:28:20Z</time>
      </trkpt>
      <trkpt lat="42.445543" lon="2.037247">
        <ele>1369.661</ele>
        <time>2019-05-29T07:28:24Z</time>
      </trkpt>
      <trkpt lat="42.445592" lon="2.037257">
        <ele>1370.223</ele>
        <time>2019-05-29T07:28:26Z</time>
      </trkpt>
      <trkpt lat="42.445725" lon="2.037288">
        <ele>1370.668</ele>
        <time>2019-05-29T07:28:31Z</time>
      </trkpt>
      <trkpt lat="42.445813" lon="2.037288">
        <ele>1371.227</ele>
        <time>2019-05-29T07:28:34Z</time>
      </trkpt>
      <trkpt lat="42.445866" lon="2.037293">
        <ele>1371.668</ele>
        <time>2019-05-29T07:28:36Z</time>
      </trkpt>
      <trkpt lat="42.445964" lon="2.037297">
        <ele>1372.614</ele>
        <time>2019-05-29T07:28:41Z</time>
      </trkpt>
      <trkpt lat="42.445984" lon="2.037298">
        <ele>1373.008</ele>
        <time>2019-05-29T07:28:42Z</time>
      </trkpt>
      <trkpt lat="42.446081" lon="2.037303">
        <ele>1374.055</ele>
        <time>2019-05-29T07:28:47Z</time>
      </trkpt>
      <trkpt lat="42.446098" lon="2.037302">
        <ele>1374.449</ele>
        <time>2019-05-29T07:28:48Z</time>
      </trkpt>
      <trkpt lat="42.446132" lon="2.037304">
        <ele>1375.245</ele>
        <time>2019-05-29T07:28:50Z</time>
      </trkpt>
      <trkpt lat="42.446215" lon="2.037319">
        <ele>1376.023</ele>
        <time>2019-05-29T07:28:55Z</time>
      </trkpt>
      <trkpt lat="42.446254" lon="2.037321">
        <ele>1376.226</ele>
        <time>2019-05-29T07:28:57Z</time>
      </trkpt>
      <trkpt lat="42.446343" lon="2.037340">
        <ele>1376.646</ele>
        <time>2019-05-29T07:29:02Z</time>
      </trkpt>
      <trkpt lat="42.446412" lon="2.037357">
        <ele>1377.228</ele>
        <time>2019-05-29T07:29:06Z</time>
      </trkpt>
      <trkpt lat="42.446446" lon="2.037375">
        <ele>1377.423</ele>
        <time>2019-05-29T07:29:08Z</time>
      </trkpt>
      <trkpt lat="42.446547" lon="2.037419">
        <ele>1378.221</ele>
        <time>2019-05-29T07:29:14Z</time>
      </trkpt>
      <trkpt lat="42.446563" lon="2.037428">
        <ele>1378.441</ele>
        <time>2019-05-29T07:29:15Z</time>
      </trkpt>
      <trkpt lat="42.446593" lon="2.037443">
        <ele>1379.605</ele>
        <time>2019-05-29T07:29:17Z</time>
      </trkpt>
      <trkpt lat="42.446666" lon="2.037472">
        <ele>1380.408</ele>
        <time>2019-05-29T07:29:22Z</time>
      </trkpt>
      <trkpt lat="42.446685" lon="2.037482">
        <ele>1380.675</ele>
        <time>2019-05-29T07:29:24Z</time>
      </trkpt>
      <trkpt lat="42.446696" lon="2.037492">
        <ele>1380.619</ele>
        <time>2019-05-29T07:29:25Z</time>
      </trkpt>
      <trkpt lat="42.446736" lon="2.037522">
        <ele>1381.285</ele>
        <time>2019-05-29T07:29:28Z</time>
      </trkpt>
      <trkpt lat="42.446752" lon="2.037532">
        <ele>1381.253</ele>
        <time>2019-05-29T07:29:29Z</time>
      </trkpt>
      <trkpt lat="42.446817" lon="2.037573">
        <ele>1381.416</ele>
        <time>2019-05-29T07:29:33Z</time>
      </trkpt>
      <trkpt lat="42.446832" lon="2.037580">
        <ele>1381.646</ele>
        <time>2019-05-29T07:29:34Z</time>
      </trkpt>
      <trkpt lat="42.446918" lon="2.037621">
        <ele>1382.898</ele>
        <time>2019-05-29T07:29:39Z</time>
      </trkpt>
      <trkpt lat="42.446934" lon="2.037641">
        <ele>1383.473</ele>
        <time>2019-05-29T07:29:40Z</time>
      </trkpt>
      <trkpt lat="42.447064" lon="2.037737">
        <ele>1383.681</ele>
        <time>2019-05-29T07:29:47Z</time>
      </trkpt>
      <trkpt lat="42.447107" lon="2.037764">
        <ele>1383.861</ele>
        <time>2019-05-29T07:29:49Z</time>
      </trkpt>
      <trkpt lat="42.447217" lon="2.037861">
        <ele>1384.617</ele>
        <time>2019-05-29T07:29:54Z</time>
      </trkpt>
      <trkpt lat="42.447239" lon="2.037883">
        <ele>1385.008</ele>
        <time>2019-05-29T07:29:55Z</time>
      </trkpt>
      <trkpt lat="42.447374" lon="2.038033">
        <ele>1385.041</ele>
        <time>2019-05-29T07:30:02Z</time>
      </trkpt>
      <trkpt lat="42.447497" lon="2.038164">
        <ele>1385.225</ele>
        <time>2019-05-29T07:30:08Z</time>
      </trkpt>
      <trkpt lat="42.447661" lon="2.038290">
        <ele>1386.081</ele>
        <time>2019-05-29T07:30:15Z</time>
      </trkpt>
      <trkpt lat="42.447751" lon="2.038430">
        <ele>1387.089</ele>
        <time>2019-05-29T07:30:21Z</time>
      </trkpt>
      <trkpt lat="42.447761" lon="2.038453">
        <ele>1387.492</ele>
        <time>2019-05-29T07:30:22Z</time>
      </trkpt>
      <trkpt lat="42.447842" lon="2.038557">
        <ele>1388.852</ele>
        <time>2019-05-29T07:30:28Z</time>
      </trkpt>
      <trkpt lat="42.447860" lon="2.038568">
        <ele>1388.814</ele>
        <time>2019-05-29T07:30:29Z</time>
      </trkpt>
      <trkpt lat="42.447951" lon="2.038631">
        <ele>1389.849</ele>
        <time>2019-05-29T07:30:34Z</time>
      </trkpt>
      <trkpt lat="42.448035" lon="2.038695">
        <ele>1391.256</ele>
        <time>2019-05-29T07:30:39Z</time>
      </trkpt>
      <trkpt lat="42.448135" lon="2.038789">
        <ele>1392.259</ele>
        <time>2019-05-29T07:30:45Z</time>
      </trkpt>
      <trkpt lat="42.448150" lon="2.038806">
        <ele>1392.414</ele>
        <time>2019-05-29T07:30:46Z</time>
      </trkpt>
      <trkpt lat="42.448246" lon="2.038890">
        <ele>1394.408</ele>
        <time>2019-05-29T07:30:52Z</time>
      </trkpt>
      <trkpt lat="42.448262" lon="2.038905">
        <ele>1394.688</ele>
        <time>2019-05-29T07:30:53Z</time>
      </trkpt>
      <trkpt lat="42.448376" lon="2.038959">
        <ele>1395.452</ele>
        <time>2019-05-29T07:30:59Z</time>
      </trkpt>
      <trkpt lat="42.448395" lon="2.038960">
        <ele>1395.648</ele>
        <time>2019-05-29T07:31:00Z</time>
      </trkpt>
      <trkpt lat="42.448497" lon="2.039000">
        <ele>1396.096</ele>
        <time>2019-05-29T07:31:05Z</time>
      </trkpt>
      <trkpt lat="42.448575" lon="2.039019">
        <ele>1396.619</ele>
        <time>2019-05-29T07:31:09Z</time>
      </trkpt>
      <trkpt lat="42.448633" lon="2.039031">
        <ele>1397.659</ele>
        <time>2019-05-29T07:31:12Z</time>
      </trkpt>
      <trkpt lat="42.448673" lon="2.039043">
        <ele>1397.221</ele>
        <time>2019-05-29T07:31:14Z</time>
      </trkpt>
      <trkpt lat="42.448814" lon="2.039088">
        <ele>1398.016</ele>
        <time>2019-05-29T07:31:21Z</time>
      </trkpt>
      <trkpt lat="42.448891" lon="2.039123">
        <ele>1398.887</ele>
        <time>2019-05-29T07:31:25Z</time>
      </trkpt>
      <trkpt lat="42.448949" lon="2.039169">
        <ele>1398.642</ele>
        <time>2019-05-29T07:31:28Z</time>
      </trkpt>
      <trkpt lat="42.449088" lon="2.039300">
        <ele>1397.826</ele>
        <time>2019-05-29T07:31:36Z</time>
      </trkpt>
      <trkpt lat="42.449107" lon="2.039317">
        <ele>1397.408</ele>
        <time>2019-05-29T07:31:37Z</time>
      </trkpt>
      <trkpt lat="42.449194" lon="2.039325">
        <ele>1398.281</ele>
        <time>2019-05-29T07:31:40Z</time>
      </trkpt>
      <trkpt lat="42.449226" lon="2.039303">
        <ele>1398.685</ele>
        <time>2019-05-29T07:31:41Z</time>
      </trkpt>
      <trkpt lat="42.449475" lon="2.039128">
        <ele>1398.241</ele>
        <time>2019-05-29T07:31:48Z</time>
      </trkpt>
      <trkpt lat="42.449577" lon="2.039142">
        <ele>1397.669</ele>
        <time>2019-05-29T07:31:51Z</time>
      </trkpt>
      <trkpt lat="42.449601" lon="2.039172">
        <ele>1396.452</ele>
        <time>2019-05-29T07:31:52Z</time>
      </trkpt>
      <trkpt lat="42.449650" lon="2.039337">
        <ele>1395.612</ele>
        <time>2019-05-29T07:31:56Z</time>
      </trkpt>
      <trkpt lat="42.449658" lon="2.039387">
        <ele>1395.474</ele>
        <time>2019-05-29T07:31:57Z</time>
      </trkpt>
      <trkpt lat="42.449660" lon="2.039619">
        <ele>1394.859</ele>
        <time>2019-05-29T07:32:01Z</time>
      </trkpt>
      <trkpt lat="42.449625" lon="2.039688">
        <ele>1393.664</ele>
        <time>2019-05-29T07:32:02Z</time>
      </trkpt>
      <trkpt lat="42.449547" lon="2.039800">
        <ele>1391.806</ele>
        <time>2019-05-29T07:32:04Z</time>
      </trkpt>
      <trkpt lat="42.449508" lon="2.039853">
        <ele>1391.416</ele>
        <time>2019-05-29T07:32:05Z</time>
      </trkpt>
      <trkpt lat="42.449463" lon="2.039898">
        <ele>1390.808</ele>
        <time>2019-05-29T07:32:06Z</time>
      </trkpt>
      <trkpt lat="42.449414" lon="2.039939">
        <ele>1390.299</ele>
        <time>2019-05-29T07:32:07Z</time>
      </trkpt>
      <trkpt lat="42.449338" lon="2.040028">
        <ele>1389.263</ele>
        <time>2019-05-29T07:32:09Z</time>
      </trkpt>
      <trkpt lat="42.449267" lon="2.040146">
        <ele>1387.849</ele>
        <time>2019-05-29T07:32:11Z</time>
      </trkpt>
      <trkpt lat="42.449234" lon="2.040208">
        <ele>1386.687</ele>
        <time>2019-05-29T07:32:12Z</time>
      </trkpt>
      <trkpt lat="42.449202" lon="2.040265">
        <ele>1385.460</ele>
        <time>2019-05-29T07:32:13Z</time>
      </trkpt>
      <trkpt lat="42.449175" lon="2.040336">
        <ele>1384.440</ele>
        <time>2019-05-29T07:32:14Z</time>
      </trkpt>
      <trkpt lat="42.449117" lon="2.040487">
        <ele>1382.492</ele>
        <time>2019-05-29T07:32:16Z</time>
      </trkpt>
      <trkpt lat="42.449072" lon="2.040634">
        <ele>1381.027</ele>
        <time>2019-05-29T07:32:18Z</time>
      </trkpt>
      <trkpt lat="42.449025" lon="2.040783">
        <ele>1379.412</ele>
        <time>2019-05-29T07:32:20Z</time>
      </trkpt>
      <trkpt lat="42.448980" lon="2.040929">
        <ele>1377.832</ele>
        <time>2019-05-29T07:32:22Z</time>
      </trkpt>
      <trkpt lat="42.448964" lon="2.040996">
        <ele>1376.805</ele>
        <time>2019-05-29T07:32:23Z</time>
      </trkpt>
      <trkpt lat="42.448911" lon="2.041181">
        <ele>1375.408</ele>
        <time>2019-05-29T07:32:26Z</time>
      </trkpt>
      <trkpt lat="42.448861" lon="2.041310">
        <ele>1373.024</ele>
        <time>2019-05-29T07:32:28Z</time>
      </trkpt>
      <trkpt lat="42.448794" lon="2.041423">
        <ele>1371.468</ele>
        <time>2019-05-29T07:32:30Z</time>
      </trkpt>
      <trkpt lat="42.448708" lon="2.041585">
        <ele>1370.254</ele>
        <time>2019-05-29T07:32:33Z</time>
      </trkpt>
      <trkpt lat="42.448703" lon="2.041611">
        <ele>1370.452</ele>
        <time>2019-05-29T07:32:34Z</time>
      </trkpt>
      <trkpt lat="42.448650" lon="2.041744">
        <ele>1370.085</ele>
        <time>2019-05-29T07:32:39Z</time>
      </trkpt>
      <trkpt lat="42.448640" lon="2.041877">
        <ele>1369.275</ele>
        <time>2019-05-29T07:32:59Z</time>
      </trkpt>
      <trkpt lat="42.448661" lon="2.041944">
        <ele>1369.697</ele>
        <time>2019-05-29T07:33:01Z</time>
      </trkpt>
      <trkpt lat="42.448707" lon="2.042077">
        <ele>1370.482</ele>
        <time>2019-05-29T07:33:05Z</time>
      </trkpt>
      <trkpt lat="42.448726" lon="2.042136">
        <ele>1370.851</ele>
        <time>2019-05-29T07:33:07Z</time>
      </trkpt>
      <trkpt lat="42.448734" lon="2.042167">
        <ele>1370.401</ele>
        <time>2019-05-29T07:33:08Z</time>
      </trkpt>
      <trkpt lat="42.448755" lon="2.042258">
        <ele>1371.611</ele>
        <time>2019-05-29T07:33:11Z</time>
      </trkpt>
      <trkpt lat="42.448778" lon="2.042314">
        <ele>1371.808</ele>
        <time>2019-05-29T07:33:13Z</time>
      </trkpt>
      <trkpt lat="42.448822" lon="2.042391">
        <ele>1373.028</ele>
        <time>2019-05-29T07:33:16Z</time>
      </trkpt>
      <trkpt lat="42.448921" lon="2.042491">
        <ele>1373.662</ele>
        <time>2019-05-29T07:33:21Z</time>
      </trkpt>
      <trkpt lat="42.448963" lon="2.042530">
        <ele>1374.248</ele>
        <time>2019-05-29T07:33:23Z</time>
      </trkpt>
      <trkpt lat="42.449049" lon="2.042604">
        <ele>1375.446</ele>
        <time>2019-05-29T07:33:27Z</time>
      </trkpt>
      <trkpt lat="42.449186" lon="2.042653">
        <ele>1376.029</ele>
        <time>2019-05-29T07:33:33Z</time>
      </trkpt>
      <trkpt lat="42.449302" lon="2.042706">
        <ele>1376.669</ele>
        <time>2019-05-29T07:33:38Z</time>
      </trkpt>
      <trkpt lat="42.449498" lon="2.042771">
        <ele>1377.451</ele>
        <time>2019-05-29T07:33:45Z</time>
      </trkpt>
      <trkpt lat="42.449611" lon="2.042819">
        <ele>1377.636</ele>
        <time>2019-05-29T07:33:49Z</time>
      </trkpt>
      <trkpt lat="42.449637" lon="2.042827">
        <ele>1377.876</ele>
        <time>2019-05-29T07:33:50Z</time>
      </trkpt>
      <trkpt lat="42.449730" lon="2.042866">
        <ele>1379.090</ele>
        <time>2019-05-29T07:33:54Z</time>
      </trkpt>
      <trkpt lat="42.449857" lon="2.042883">
        <ele>1379.819</ele>
        <time>2019-05-29T07:33:59Z</time>
      </trkpt>
      <trkpt lat="42.449903" lon="2.042894">
        <ele>1380.208</ele>
        <time>2019-05-29T07:34:01Z</time>
      </trkpt>
      <trkpt lat="42.449988" lon="2.042931">
        <ele>1380.850</ele>
        <time>2019-05-29T07:34:05Z</time>
      </trkpt>
      <trkpt lat="42.450027" lon="2.042957">
        <ele>1381.484</ele>
        <time>2019-05-29T07:34:07Z</time>
      </trkpt>
      <trkpt lat="42.450130" lon="2.043045">
        <ele>1382.480</ele>
        <time>2019-05-29T07:34:13Z</time>
      </trkpt>
      <trkpt lat="42.450144" lon="2.043056">
        <ele>1382.898</ele>
        <time>2019-05-29T07:34:14Z</time>
      </trkpt>
      <trkpt lat="42.450188" lon="2.043105">
        <ele>1383.621</ele>
        <time>2019-05-29T07:34:17Z</time>
      </trkpt>
      <trkpt lat="42.450247" lon="2.043137">
        <ele>1384.651</ele>
        <time>2019-05-29T07:34:20Z</time>
      </trkpt>
      <trkpt lat="42.450266" lon="2.043148">
        <ele>1385.033</ele>
        <time>2019-05-29T07:34:21Z</time>
      </trkpt>
      <trkpt lat="42.450396" lon="2.043193">
        <ele>1385.278</ele>
        <time>2019-05-29T07:34:27Z</time>
      </trkpt>
      <trkpt lat="42.450419" lon="2.043199">
        <ele>1386.085</ele>
        <time>2019-05-29T07:34:28Z</time>
      </trkpt>
      <trkpt lat="42.450535" lon="2.043227">
        <ele>1386.289</ele>
        <time>2019-05-29T07:34:33Z</time>
      </trkpt>
      <trkpt lat="42.450638" lon="2.043132">
        <ele>1385.817</ele>
        <time>2019-05-29T07:34:37Z</time>
      </trkpt>
      <trkpt lat="42.450869" lon="2.042990">
        <ele>1386.408</ele>
        <time>2019-05-29T07:34:45Z</time>
      </trkpt>
      <trkpt lat="42.451052" lon="2.043015">
        <ele>1385.421</ele>
        <time>2019-05-29T07:34:51Z</time>
      </trkpt>
      <trkpt lat="42.451238" lon="2.042941">
        <ele>1386.295</ele>
        <time>2019-05-29T07:34:58Z</time>
      </trkpt>
      <trkpt lat="42.451306" lon="2.042911">
        <ele>1387.071</ele>
        <time>2019-05-29T07:35:01Z</time>
      </trkpt>
      <trkpt lat="42.451378" lon="2.042888">
        <ele>1387.659</ele>
        <time>2019-05-29T07:35:04Z</time>
      </trkpt>
      <trkpt lat="42.451402" lon="2.042900">
        <ele>1387.612</ele>
        <time>2019-05-29T07:35:05Z</time>
      </trkpt>
      <trkpt lat="42.451438" lon="2.042955">
        <ele>1388.032</ele>
        <time>2019-05-29T07:35:08Z</time>
      </trkpt>
      <trkpt lat="42.451528" lon="2.043067">
        <ele>1389.244</ele>
        <time>2019-05-29T07:35:14Z</time>
      </trkpt>
      <trkpt lat="42.451564" lon="2.043096">
        <ele>1390.239</ele>
        <time>2019-05-29T07:35:16Z</time>
      </trkpt>
      <trkpt lat="42.451593" lon="2.043166">
        <ele>1391.069</ele>
        <time>2019-05-29T07:35:19Z</time>
      </trkpt>
      <trkpt lat="42.451655" lon="2.043263">
        <ele>1391.004</ele>
        <time>2019-05-29T07:35:23Z</time>
      </trkpt>
      <trkpt lat="42.451665" lon="2.043297">
        <ele>1391.024</ele>
        <time>2019-05-29T07:35:24Z</time>
      </trkpt>
      <trkpt lat="42.451695" lon="2.043475">
        <ele>1389.008</ele>
        <time>2019-05-29T07:35:29Z</time>
      </trkpt>
      <trkpt lat="42.451694" lon="2.043511">
        <ele>1388.669</ele>
        <time>2019-05-29T07:35:30Z</time>
      </trkpt>
      <trkpt lat="42.451688" lon="2.043601">
        <ele>1387.673</ele>
        <time>2019-05-29T07:35:32Z</time>
      </trkpt>
      <trkpt lat="42.451680" lon="2.043685">
        <ele>1386.039</ele>
        <time>2019-05-29T07:35:34Z</time>
      </trkpt>
      <trkpt lat="42.451675" lon="2.043735">
        <ele>1385.497</ele>
        <time>2019-05-29T07:35:35Z</time>
      </trkpt>
      <trkpt lat="42.451667" lon="2.043786">
        <ele>1384.830</ele>
        <time>2019-05-29T07:35:36Z</time>
      </trkpt>
      <trkpt lat="42.451652" lon="2.043886">
        <ele>1383.230</ele>
        <time>2019-05-29T07:35:38Z</time>
      </trkpt>
      <trkpt lat="42.451649" lon="2.043946">
        <ele>1382.492</ele>
        <time>2019-05-29T07:35:39Z</time>
      </trkpt>
      <trkpt lat="42.451647" lon="2.044012">
        <ele>1380.847</ele>
        <time>2019-05-29T07:35:40Z</time>
      </trkpt>
      <trkpt lat="42.451647" lon="2.044147">
        <ele>1379.877</ele>
        <time>2019-05-29T07:35:42Z</time>
      </trkpt>
      <trkpt lat="42.451647" lon="2.044274">
        <ele>1378.861</ele>
        <time>2019-05-29T07:35:44Z</time>
      </trkpt>
      <trkpt lat="42.451642" lon="2.044402">
        <ele>1377.427</ele>
        <time>2019-05-29T07:35:46Z</time>
      </trkpt>
      <trkpt lat="42.451627" lon="2.044463">
        <ele>1376.608</ele>
        <time>2019-05-29T07:35:47Z</time>
      </trkpt>
      <trkpt lat="42.451618" lon="2.044527">
        <ele>1375.820</ele>
        <time>2019-05-29T07:35:48Z</time>
      </trkpt>
      <trkpt lat="42.451611" lon="2.044593">
        <ele>1374.834</ele>
        <time>2019-05-29T07:35:49Z</time>
      </trkpt>
      <trkpt lat="42.451607" lon="2.044659">
        <ele>1373.670</ele>
        <time>2019-05-29T07:35:50Z</time>
      </trkpt>
      <trkpt lat="42.451608" lon="2.044725">
        <ele>1372.848</ele>
        <time>2019-05-29T07:35:51Z</time>
      </trkpt>
      <trkpt lat="42.451608" lon="2.044788">
        <ele>1372.411</ele>
        <time>2019-05-29T07:35:52Z</time>
      </trkpt>
      <trkpt lat="42.451609" lon="2.044848">
        <ele>1372.211</ele>
        <time>2019-05-29T07:35:53Z</time>
      </trkpt>
      <trkpt lat="42.451604" lon="2.044916">
        <ele>1371.253</ele>
        <time>2019-05-29T07:35:54Z</time>
      </trkpt>
      <trkpt lat="42.451594" lon="2.044981">
        <ele>1370.238</ele>
        <time>2019-05-29T07:35:55Z</time>
      </trkpt>
      <trkpt lat="42.451558" lon="2.045126">
        <ele>1368.691</ele>
        <time>2019-05-29T07:35:57Z</time>
      </trkpt>
      <trkpt lat="42.451530" lon="2.045195">
        <ele>1368.081</ele>
        <time>2019-05-29T07:35:58Z</time>
      </trkpt>
      <trkpt lat="42.451505" lon="2.045258">
        <ele>1367.219</ele>
        <time>2019-05-29T07:35:59Z</time>
      </trkpt>
      <trkpt lat="42.451456" lon="2.045450">
        <ele>1366.408</ele>
        <time>2019-05-29T07:36:02Z</time>
      </trkpt>
      <trkpt lat="42.451451" lon="2.045509">
        <ele>1366.432</ele>
        <time>2019-05-29T07:36:03Z</time>
      </trkpt>
      <trkpt lat="42.451459" lon="2.045572">
        <ele>1365.626</ele>
        <time>2019-05-29T07:36:04Z</time>
      </trkpt>
      <trkpt lat="42.451518" lon="2.045677">
        <ele>1364.682</ele>
        <time>2019-05-29T07:36:06Z</time>
      </trkpt>
      <trkpt lat="42.451552" lon="2.045728">
        <ele>1363.890</ele>
        <time>2019-05-29T07:36:07Z</time>
      </trkpt>
      <trkpt lat="42.451615" lon="2.045846">
        <ele>1363.613</ele>
        <time>2019-05-29T07:36:09Z</time>
      </trkpt>
      <trkpt lat="42.451660" lon="2.045982">
        <ele>1363.473</ele>
        <time>2019-05-29T07:36:11Z</time>
      </trkpt>
      <trkpt lat="42.451675" lon="2.046055">
        <ele>1363.265</ele>
        <time>2019-05-29T07:36:12Z</time>
      </trkpt>
      <trkpt lat="42.451697" lon="2.046202">
        <ele>1363.840</ele>
        <time>2019-05-29T07:36:14Z</time>
      </trkpt>
      <trkpt lat="42.451728" lon="2.046329">
        <ele>1364.682</ele>
        <time>2019-05-29T07:36:16Z</time>
      </trkpt>
      <trkpt lat="42.451743" lon="2.046382">
        <ele>1364.843</ele>
        <time>2019-05-29T07:36:17Z</time>
      </trkpt>
      <trkpt lat="42.451753" lon="2.046438">
        <ele>1364.817</ele>
        <time>2019-05-29T07:36:18Z</time>
      </trkpt>
      <trkpt lat="42.451807" lon="2.046629">
        <ele>1365.808</ele>
        <time>2019-05-29T07:36:22Z</time>
      </trkpt>
      <trkpt lat="42.451852" lon="2.046816">
        <ele>1364.641</ele>
        <time>2019-05-29T07:36:25Z</time>
      </trkpt>
      <trkpt lat="42.451872" lon="2.046974">
        <ele>1363.895</ele>
        <time>2019-05-29T07:36:27Z</time>
      </trkpt>
      <trkpt lat="42.451868" lon="2.047047">
        <ele>1361.821</ele>
        <time>2019-05-29T07:36:28Z</time>
      </trkpt>
      <trkpt lat="42.451846" lon="2.047204">
        <ele>1360.849</ele>
        <time>2019-05-29T07:36:30Z</time>
      </trkpt>
      <trkpt lat="42.451829" lon="2.047283">
        <ele>1359.862</ele>
        <time>2019-05-29T07:36:31Z</time>
      </trkpt>
      <trkpt lat="42.451813" lon="2.047366">
        <ele>1359.032</ele>
        <time>2019-05-29T07:36:32Z</time>
      </trkpt>
      <trkpt lat="42.451798" lon="2.047451">
        <ele>1357.684</ele>
        <time>2019-05-29T07:36:33Z</time>
      </trkpt>
      <trkpt lat="42.451759" lon="2.047615">
        <ele>1356.439</ele>
        <time>2019-05-29T07:36:35Z</time>
      </trkpt>
      <trkpt lat="42.451709" lon="2.047788">
        <ele>1356.056</ele>
        <time>2019-05-29T07:36:37Z</time>
      </trkpt>
      <trkpt lat="42.451649" lon="2.048039">
        <ele>1356.059</ele>
        <time>2019-05-29T07:36:40Z</time>
      </trkpt>
      <trkpt lat="42.451590" lon="2.048266">
        <ele>1356.014</ele>
        <time>2019-05-29T07:36:43Z</time>
      </trkpt>
      <trkpt lat="42.451581" lon="2.048536">
        <ele>1357.208</ele>
        <time>2019-05-29T07:36:47Z</time>
      </trkpt>
      <trkpt lat="42.451592" lon="2.048593">
        <ele>1357.478</ele>
        <time>2019-05-29T07:36:48Z</time>
      </trkpt>
      <trkpt lat="42.451612" lon="2.048790">
        <ele>1355.432</ele>
        <time>2019-05-29T07:36:51Z</time>
      </trkpt>
      <trkpt lat="42.451621" lon="2.048854">
        <ele>1355.278</ele>
        <time>2019-05-29T07:36:52Z</time>
      </trkpt>
      <trkpt lat="42.451643" lon="2.048979">
        <ele>1355.496</ele>
        <time>2019-05-29T07:36:54Z</time>
      </trkpt>
      <trkpt lat="42.451672" lon="2.049187">
        <ele>1355.229</ele>
        <time>2019-05-29T07:36:57Z</time>
      </trkpt>
      <trkpt lat="42.451687" lon="2.049446">
        <ele>1354.659</ele>
        <time>2019-05-29T07:37:01Z</time>
      </trkpt>
      <trkpt lat="42.451688" lon="2.049570">
        <ele>1354.671</ele>
        <time>2019-05-29T07:37:03Z</time>
      </trkpt>
      <trkpt lat="42.451701" lon="2.049747">
        <ele>1355.656</ele>
        <time>2019-05-29T07:37:06Z</time>
      </trkpt>
      <trkpt lat="42.451725" lon="2.049925">
        <ele>1355.253</ele>
        <time>2019-05-29T07:37:09Z</time>
      </trkpt>
      <trkpt lat="42.451731" lon="2.049985">
        <ele>1355.004</ele>
        <time>2019-05-29T07:37:10Z</time>
      </trkpt>
      <trkpt lat="42.451769" lon="2.050156">
        <ele>1355.614</ele>
        <time>2019-05-29T07:37:13Z</time>
      </trkpt>
      <trkpt lat="42.451808" lon="2.050335">
        <ele>1354.408</ele>
        <time>2019-05-29T07:37:16Z</time>
      </trkpt>
      <trkpt lat="42.451824" lon="2.050397">
        <ele>1354.288</ele>
        <time>2019-05-29T07:37:17Z</time>
      </trkpt>
      <trkpt lat="42.451850" lon="2.050517">
        <ele>1353.622</ele>
        <time>2019-05-29T07:37:19Z</time>
      </trkpt>
      <trkpt lat="42.451863" lon="2.050573">
        <ele>1353.088</ele>
        <time>2019-05-29T07:37:20Z</time>
      </trkpt>
      <trkpt lat="42.451902" lon="2.050749">
        <ele>1352.486</ele>
        <time>2019-05-29T07:37:23Z</time>
      </trkpt>
      <trkpt lat="42.451970" lon="2.051104">
        <ele>1353.849</ele>
        <time>2019-05-29T07:37:29Z</time>
      </trkpt>
      <trkpt lat="42.452051" lon="2.051440">
        <ele>1353.619</ele>
        <time>2019-05-29T07:37:35Z</time>
      </trkpt>
      <trkpt lat="42.452062" lon="2.051493">
        <ele>1354.271</ele>
        <time>2019-05-29T07:37:36Z</time>
      </trkpt>
      <trkpt lat="42.452113" lon="2.051692">
        <ele>1355.286</ele>
        <time>2019-05-29T07:37:40Z</time>
      </trkpt>
      <trkpt lat="42.452121" lon="2.051739">
        <ele>1355.471</ele>
        <time>2019-05-29T07:37:41Z</time>
      </trkpt>
      <trkpt lat="42.452200" lon="2.052138">
        <ele>1355.841</ele>
        <time>2019-05-29T07:37:49Z</time>
      </trkpt>
      <trkpt lat="42.452208" lon="2.052501">
        <ele>1355.415</ele>
        <time>2019-05-29T07:37:56Z</time>
      </trkpt>
      <trkpt lat="42.452193" lon="2.052615">
        <ele>1355.208</ele>
        <time>2019-05-29T07:37:58Z</time>
      </trkpt>
      <trkpt lat="42.452136" lon="2.052849">
        <ele>1354.880</ele>
        <time>2019-05-29T07:38:02Z</time>
      </trkpt>
      <trkpt lat="42.452080" lon="2.053094">
        <ele>1354.264</ele>
        <time>2019-05-29T07:38:06Z</time>
      </trkpt>
      <trkpt lat="42.452047" lon="2.053211">
        <ele>1354.240</ele>
        <time>2019-05-29T07:38:08Z</time>
      </trkpt>
      <trkpt lat="42.452013" lon="2.053380">
        <ele>1354.248</ele>
        <time>2019-05-29T07:38:11Z</time>
      </trkpt>
      <trkpt lat="42.451976" lon="2.053530">
        <ele>1354.211</ele>
        <time>2019-05-29T07:38:14Z</time>
      </trkpt>
      <trkpt lat="42.451923" lon="2.053859">
        <ele>1353.431</ele>
        <time>2019-05-29T07:38:20Z</time>
      </trkpt>
      <trkpt lat="42.451877" lon="2.054078">
        <ele>1353.073</ele>
        <time>2019-05-29T07:38:24Z</time>
      </trkpt>
      <trkpt lat="42.451853" lon="2.054240">
        <ele>1353.628</ele>
        <time>2019-05-29T07:38:27Z</time>
      </trkpt>
      <trkpt lat="42.451853" lon="2.054452">
        <ele>1353.849</ele>
        <time>2019-05-29T07:38:31Z</time>
      </trkpt>
      <trkpt lat="42.451849" lon="2.054495">
        <ele>1354.002</ele>
        <time>2019-05-29T07:38:32Z</time>
      </trkpt>
      <trkpt lat="42.451829" lon="2.054583">
        <ele>1354.022</ele>
        <time>2019-05-29T07:38:34Z</time>
      </trkpt>
      <trkpt lat="42.451790" lon="2.054807">
        <ele>1354.608</ele>
        <time>2019-05-29T07:38:39Z</time>
      </trkpt>
      <trkpt lat="42.451744" lon="2.055116">
        <ele>1354.667</ele>
        <time>2019-05-29T07:38:46Z</time>
      </trkpt>
      <trkpt lat="42.451705" lon="2.055407">
        <ele>1355.291</ele>
        <time>2019-05-29T07:38:52Z</time>
      </trkpt>
      <trkpt lat="42.451693" lon="2.055506">
        <ele>1355.247</ele>
        <time>2019-05-29T07:38:54Z</time>
      </trkpt>
      <trkpt lat="42.451679" lon="2.055711">
        <ele>1356.295</ele>
        <time>2019-05-29T07:38:58Z</time>
      </trkpt>
      <trkpt lat="42.451673" lon="2.055814">
        <ele>1356.688</ele>
        <time>2019-05-29T07:39:00Z</time>
      </trkpt>
      <trkpt lat="42.451686" lon="2.056076">
        <ele>1356.828</ele>
        <time>2019-05-29T07:39:06Z</time>
      </trkpt>
      <trkpt lat="42.451705" lon="2.056325">
        <ele>1357.220</ele>
        <time>2019-05-29T07:39:12Z</time>
      </trkpt>
      <trkpt lat="42.451649" lon="2.056523">
        <ele>1358.255</ele>
        <time>2019-05-29T07:39:17Z</time>
      </trkpt>
      <trkpt lat="42.451605" lon="2.056692">
        <ele>1359.293</ele>
        <time>2019-05-29T07:39:22Z</time>
      </trkpt>
      <trkpt lat="42.451605" lon="2.056725">
        <ele>1359.665</ele>
        <time>2019-05-29T07:39:23Z</time>
      </trkpt>
      <trkpt lat="42.451592" lon="2.056895">
        <ele>1360.221</ele>
        <time>2019-05-29T07:39:28Z</time>
      </trkpt>
      <trkpt lat="42.451588" lon="2.056937">
        <ele>1360.608</ele>
        <time>2019-05-29T07:39:29Z</time>
      </trkpt>
      <trkpt lat="42.451582" lon="2.057108">
        <ele>1361.262</ele>
        <time>2019-05-29T07:39:34Z</time>
      </trkpt>
      <trkpt lat="42.451572" lon="2.057319">
        <ele>1361.666</ele>
        <time>2019-05-29T07:39:40Z</time>
      </trkpt>
      <trkpt lat="42.451570" lon="2.057362">
        <ele>1361.832</ele>
        <time>2019-05-29T07:39:41Z</time>
      </trkpt>
      <trkpt lat="42.451533" lon="2.057571">
        <ele>1360.810</ele>
        <time>2019-05-29T07:39:47Z</time>
      </trkpt>
      <trkpt lat="42.451525" lon="2.057615">
        <ele>1360.483</ele>
        <time>2019-05-29T07:39:48Z</time>
      </trkpt>
      <trkpt lat="42.451504" lon="2.057706">
        <ele>1360.233</ele>
        <time>2019-05-29T07:39:51Z</time>
      </trkpt>
      <trkpt lat="42.451490" lon="2.057788">
        <ele>1360.085</ele>
        <time>2019-05-29T07:39:53Z</time>
      </trkpt>
      <trkpt lat="42.451513" lon="2.057882">
        <ele>1359.460</ele>
        <time>2019-05-29T07:39:55Z</time>
      </trkpt>
      <trkpt lat="42.451530" lon="2.058046">
        <ele>1358.479</ele>
        <time>2019-05-29T07:39:58Z</time>
      </trkpt>
      <trkpt lat="42.451530" lon="2.058104">
        <ele>1358.605</ele>
        <time>2019-05-29T07:39:59Z</time>
      </trkpt>
      <trkpt lat="42.451533" lon="2.058154">
        <ele>1358.625</ele>
        <time>2019-05-29T07:40:00Z</time>
      </trkpt>
      <trkpt lat="42.451543" lon="2.058306">
        <ele>1359.408</ele>
        <time>2019-05-29T07:40:03Z</time>
      </trkpt>
      <trkpt lat="42.451558" lon="2.058387">
        <ele>1360.250</ele>
        <time>2019-05-29T07:40:05Z</time>
      </trkpt>
      <trkpt lat="42.451586" lon="2.058450">
        <ele>1360.454</ele>
        <time>2019-05-29T07:40:07Z</time>
      </trkpt>
      <trkpt lat="42.451597" lon="2.058531">
        <ele>1360.860</ele>
        <time>2019-05-29T07:40:09Z</time>
      </trkpt>
      <trkpt lat="42.451639" lon="2.058630">
        <ele>1361.248</ele>
        <time>2019-05-29T07:40:12Z</time>
      </trkpt>
      <trkpt lat="42.451652" lon="2.058660">
        <ele>1361.491</ele>
        <time>2019-05-29T07:40:13Z</time>
      </trkpt>
      <trkpt lat="42.451683" lon="2.058717">
        <ele>1362.471</ele>
        <time>2019-05-29T07:40:16Z</time>
      </trkpt>
      <trkpt lat="42.451694" lon="2.058733">
        <ele>1362.873</ele>
        <time>2019-05-29T07:40:17Z</time>
      </trkpt>
      <trkpt lat="42.451714" lon="2.058749">
        <ele>1363.038</ele>
        <time>2019-05-29T07:40:18Z</time>
      </trkpt>
      <trkpt lat="42.451795" lon="2.058824">
        <ele>1363.832</ele>
        <time>2019-05-29T07:40:22Z</time>
      </trkpt>
      <trkpt lat="42.451858" lon="2.058901">
        <ele>1364.892</ele>
        <time>2019-05-29T07:40:27Z</time>
      </trkpt>
      <trkpt lat="42.451873" lon="2.058920">
        <ele>1365.011</ele>
        <time>2019-05-29T07:40:28Z</time>
      </trkpt>
      <trkpt lat="42.451928" lon="2.058968">
        <ele>1366.008</ele>
        <time>2019-05-29T07:40:31Z</time>
      </trkpt>
      <trkpt lat="42.452029" lon="2.059075">
        <ele>1367.846</ele>
        <time>2019-05-29T07:40:39Z</time>
      </trkpt>
      <trkpt lat="42.452040" lon="2.059109">
        <ele>1368.050</ele>
        <time>2019-05-29T07:40:41Z</time>
      </trkpt>
      <trkpt lat="42.452067" lon="2.059188">
        <ele>1368.676</ele>
        <time>2019-05-29T07:40:45Z</time>
      </trkpt>
      <trkpt lat="42.452082" lon="2.059201">
        <ele>1368.624</ele>
        <time>2019-05-29T07:40:46Z</time>
      </trkpt>
      <trkpt lat="42.452096" lon="2.059234">
        <ele>1368.887</ele>
        <time>2019-05-29T07:40:48Z</time>
      </trkpt>
      <trkpt lat="42.452109" lon="2.059256">
        <ele>1369.057</ele>
        <time>2019-05-29T07:40:49Z</time>
      </trkpt>
      <trkpt lat="42.452118" lon="2.059274">
        <ele>1369.049</ele>
        <time>2019-05-29T07:40:50Z</time>
      </trkpt>
      <trkpt lat="42.452168" lon="2.059353">
        <ele>1370.014</ele>
        <time>2019-05-29T07:40:55Z</time>
      </trkpt>
      <trkpt lat="42.452201" lon="2.059390">
        <ele>1370.481</ele>
        <time>2019-05-29T07:40:57Z</time>
      </trkpt>
      <trkpt lat="42.452197" lon="2.059417">
        <ele>1370.661</ele>
        <time>2019-05-29T07:40:58Z</time>
      </trkpt>
      <trkpt lat="42.452220" lon="2.059461">
        <ele>1371.017</ele>
        <time>2019-05-29T07:41:00Z</time>
      </trkpt>
      <trkpt lat="42.452250" lon="2.059490">
        <ele>1371.408</ele>
        <time>2019-05-29T07:41:02Z</time>
      </trkpt>
      <trkpt lat="42.452329" lon="2.059557">
        <ele>1372.271</ele>
        <time>2019-05-29T07:41:07Z</time>
      </trkpt>
      <trkpt lat="42.452336" lon="2.059574">
        <ele>1372.225</ele>
        <time>2019-05-29T07:41:08Z</time>
      </trkpt>
      <trkpt lat="42.452344" lon="2.059661">
        <ele>1372.671</ele>
        <time>2019-05-29T07:41:12Z</time>
      </trkpt>
      <trkpt lat="42.452342" lon="2.059720">
        <ele>1373.049</ele>
        <time>2019-05-29T07:41:14Z</time>
      </trkpt>
      <trkpt lat="42.452344" lon="2.059746">
        <ele>1373.212</ele>
        <time>2019-05-29T07:41:15Z</time>
      </trkpt>
      <trkpt lat="42.452354" lon="2.059806">
        <ele>1374.482</ele>
        <time>2019-05-29T07:41:18Z</time>
      </trkpt>
      <trkpt lat="42.452370" lon="2.059846">
        <ele>1375.294</ele>
        <time>2019-05-29T07:41:20Z</time>
      </trkpt>
      <trkpt lat="42.452387" lon="2.059848">
        <ele>1375.619</ele>
        <time>2019-05-29T07:41:21Z</time>
      </trkpt>
      <trkpt lat="42.452431" lon="2.059828">
        <ele>1375.897</ele>
        <time>2019-05-29T07:41:24Z</time>
      </trkpt>
      <trkpt lat="42.452475" lon="2.059785">
        <ele>1376.223</ele>
        <time>2019-05-29T07:41:27Z</time>
      </trkpt>
      <trkpt lat="42.452491" lon="2.059767">
        <ele>1376.225</ele>
        <time>2019-05-29T07:41:28Z</time>
      </trkpt>
      <trkpt lat="42.452516" lon="2.059734">
        <ele>1376.408</ele>
        <time>2019-05-29T07:41:30Z</time>
      </trkpt>
      <trkpt lat="42.452523" lon="2.059714">
        <ele>1376.652</ele>
        <time>2019-05-29T07:41:31Z</time>
      </trkpt>
      <trkpt lat="42.452583" lon="2.059572">
        <ele>1377.466</ele>
        <time>2019-05-29T07:41:37Z</time>
      </trkpt>
      <trkpt lat="42.452633" lon="2.059474">
        <ele>1377.892</ele>
        <time>2019-05-29T07:41:41Z</time>
      </trkpt>
      <trkpt lat="42.452642" lon="2.059430">
        <ele>1378.050</ele>
        <time>2019-05-29T07:41:43Z</time>
      </trkpt>
      <trkpt lat="42.452658" lon="2.059345">
        <ele>1378.823</ele>
        <time>2019-05-29T07:41:47Z</time>
      </trkpt>
      <trkpt lat="42.452648" lon="2.059322">
        <ele>1379.023</ele>
        <time>2019-05-29T07:41:48Z</time>
      </trkpt>
      <trkpt lat="42.452627" lon="2.059325">
        <ele>1379.215</ele>
        <time>2019-05-29T07:41:49Z</time>
      </trkpt>
      <trkpt lat="42.452616" lon="2.059394">
        <ele>1378.230</ele>
        <time>2019-05-29T07:41:52Z</time>
      </trkpt>
      <trkpt lat="42.452617" lon="2.059454">
        <ele>1377.667</ele>
        <time>2019-05-29T07:41:53Z</time>
      </trkpt>
      <trkpt lat="42.452613" lon="2.059521">
        <ele>1377.081</ele>
        <time>2019-05-29T07:41:54Z</time>
      </trkpt>
      <trkpt lat="42.452631" lon="2.059591">
        <ele>1376.819</ele>
        <time>2019-05-29T07:41:56Z</time>
      </trkpt>
      <trkpt lat="42.452686" lon="2.059678">
        <ele>1378.008</ele>
        <time>2019-05-29T07:42:01Z</time>
      </trkpt>
      <trkpt lat="42.452725" lon="2.059715">
        <ele>1378.659</ele>
        <time>2019-05-29T07:42:04Z</time>
      </trkpt>
      <trkpt lat="42.452765" lon="2.059763">
        <ele>1379.653</ele>
        <time>2019-05-29T07:42:07Z</time>
      </trkpt>
      <trkpt lat="42.452776" lon="2.059778">
        <ele>1380.049</ele>
        <time>2019-05-29T07:42:08Z</time>
      </trkpt>
      <trkpt lat="42.452808" lon="2.059824">
        <ele>1380.887</ele>
        <time>2019-05-29T07:42:11Z</time>
      </trkpt>
      <trkpt lat="42.452837" lon="2.059849">
        <ele>1382.440</ele>
        <time>2019-05-29T07:42:13Z</time>
      </trkpt>
      <trkpt lat="42.452849" lon="2.059864">
        <ele>1383.450</ele>
        <time>2019-05-29T07:42:14Z</time>
      </trkpt>
      <trkpt lat="42.452975" lon="2.059957">
        <ele>1383.232</ele>
        <time>2019-05-29T07:42:22Z</time>
      </trkpt>
      <trkpt lat="42.453071" lon="2.060041">
        <ele>1383.897</ele>
        <time>2019-05-29T07:42:28Z</time>
      </trkpt>
      <trkpt lat="42.453120" lon="2.060100">
        <ele>1384.641</ele>
        <time>2019-05-29T07:42:32Z</time>
      </trkpt>
      <trkpt lat="42.453167" lon="2.060133">
        <ele>1385.281</ele>
        <time>2019-05-29T07:42:35Z</time>
      </trkpt>
      <trkpt lat="42.453197" lon="2.060155">
        <ele>1385.809</ele>
        <time>2019-05-29T07:42:37Z</time>
      </trkpt>
      <trkpt lat="42.453270" lon="2.060220">
        <ele>1386.208</ele>
        <time>2019-05-29T07:42:42Z</time>
      </trkpt>
      <trkpt lat="42.453298" lon="2.060249">
        <ele>1387.027</ele>
        <time>2019-05-29T07:42:44Z</time>
      </trkpt>
      <trkpt lat="42.453325" lon="2.060275">
        <ele>1387.831</ele>
        <time>2019-05-29T07:42:46Z</time>
      </trkpt>
      <trkpt lat="42.453348" lon="2.060305">
        <ele>1388.217</ele>
        <time>2019-05-29T07:42:48Z</time>
      </trkpt>
      <trkpt lat="42.453399" lon="2.060365">
        <ele>1389.095</ele>
        <time>2019-05-29T07:42:52Z</time>
      </trkpt>
      <trkpt lat="42.453409" lon="2.060383">
        <ele>1389.478</ele>
        <time>2019-05-29T07:42:53Z</time>
      </trkpt>
      <trkpt lat="42.453427" lon="2.060392">
        <ele>1389.668</ele>
        <time>2019-05-29T07:42:54Z</time>
      </trkpt>
      <trkpt lat="42.453468" lon="2.060423">
        <ele>1390.230</ele>
        <time>2019-05-29T07:42:57Z</time>
      </trkpt>
      <trkpt lat="42.453493" lon="2.060448">
        <ele>1390.615</ele>
        <time>2019-05-29T07:42:59Z</time>
      </trkpt>
      <trkpt lat="42.453580" lon="2.060516">
        <ele>1391.836</ele>
        <time>2019-05-29T07:43:05Z</time>
      </trkpt>
      <trkpt lat="42.453592" lon="2.060530">
        <ele>1392.017</ele>
        <time>2019-05-29T07:43:06Z</time>
      </trkpt>
      <trkpt lat="42.453682" lon="2.060620">
        <ele>1393.018</ele>
        <time>2019-05-29T07:43:12Z</time>
      </trkpt>
      <trkpt lat="42.453715" lon="2.060653">
        <ele>1393.008</ele>
        <time>2019-05-29T07:43:14Z</time>
      </trkpt>
      <trkpt lat="42.453778" lon="2.060816">
        <ele>1393.096</ele>
        <time>2019-05-29T07:43:22Z</time>
      </trkpt>
      <trkpt lat="42.453796" lon="2.060893">
        <ele>1394.060</ele>
        <time>2019-05-29T07:43:25Z</time>
      </trkpt>
      <trkpt lat="42.453827" lon="2.060979">
        <ele>1394.866</ele>
        <time>2019-05-29T07:43:29Z</time>
      </trkpt>
      <trkpt lat="42.453845" lon="2.061025">
        <ele>1395.214</ele>
        <time>2019-05-29T07:43:31Z</time>
      </trkpt>
      <trkpt lat="42.453918" lon="2.061157">
        <ele>1395.467</ele>
        <time>2019-05-29T07:43:37Z</time>
      </trkpt>
      <trkpt lat="42.454027" lon="2.061191">
        <ele>1396.477</ele>
        <time>2019-05-29T07:43:43Z</time>
      </trkpt>
      <trkpt lat="42.454099" lon="2.061180">
        <ele>1397.659</ele>
        <time>2019-05-29T07:43:47Z</time>
      </trkpt>
      <trkpt lat="42.454158" lon="2.061183">
        <ele>1399.044</ele>
        <time>2019-05-29T07:43:50Z</time>
      </trkpt>
      <trkpt lat="42.454173" lon="2.061189">
        <ele>1399.634</ele>
        <time>2019-05-29T07:43:51Z</time>
      </trkpt>
      <trkpt lat="42.454207" lon="2.061216">
        <ele>1400.455</ele>
        <time>2019-05-29T07:43:53Z</time>
      </trkpt>
      <trkpt lat="42.454272" lon="2.061276">
        <ele>1401.410</ele>
        <time>2019-05-29T07:43:57Z</time>
      </trkpt>
      <trkpt lat="42.454376" lon="2.061473">
        <ele>1402.208</ele>
        <time>2019-05-29T07:44:07Z</time>
      </trkpt>
      <trkpt lat="42.454383" lon="2.061545">
        <ele>1402.296</ele>
        <time>2019-05-29T07:44:10Z</time>
      </trkpt>
      <trkpt lat="42.454384" lon="2.061586">
        <ele>1402.430</ele>
        <time>2019-05-29T07:44:12Z</time>
      </trkpt>
      <trkpt lat="42.454387" lon="2.061609">
        <ele>1402.686</ele>
        <time>2019-05-29T07:44:13Z</time>
      </trkpt>
      <trkpt lat="42.454387" lon="2.061627">
        <ele>1402.884</ele>
        <time>2019-05-29T07:44:14Z</time>
      </trkpt>
      <trkpt lat="42.454389" lon="2.061673">
        <ele>1403.617</ele>
        <time>2019-05-29T07:44:17Z</time>
      </trkpt>
      <trkpt lat="42.454396" lon="2.061684">
        <ele>1403.877</ele>
        <time>2019-05-29T07:44:20Z</time>
      </trkpt>
      <trkpt lat="42.454455" lon="2.061814">
        <ele>1403.649</ele>
        <time>2019-05-29T07:44:36Z</time>
      </trkpt>
      <trkpt lat="42.454472" lon="2.061862">
        <ele>1404.014</ele>
        <time>2019-05-29T07:44:39Z</time>
      </trkpt>
      <trkpt lat="42.454515" lon="2.061944">
        <ele>1404.679</ele>
        <time>2019-05-29T07:44:45Z</time>
      </trkpt>
      <trkpt lat="42.454531" lon="2.061952">
        <ele>1404.805</ele>
        <time>2019-05-29T07:44:46Z</time>
      </trkpt>
      <trkpt lat="42.454547" lon="2.062039">
        <ele>1405.625</ele>
        <time>2019-05-29T07:44:50Z</time>
      </trkpt>
      <trkpt lat="42.454547" lon="2.062064">
        <ele>1405.608</ele>
        <time>2019-05-29T07:44:51Z</time>
      </trkpt>
      <trkpt lat="42.454565" lon="2.062186">
        <ele>1406.670</ele>
        <time>2019-05-29T07:44:56Z</time>
      </trkpt>
      <trkpt lat="42.454567" lon="2.062213">
        <ele>1406.884</ele>
        <time>2019-05-29T07:44:57Z</time>
      </trkpt>
      <trkpt lat="42.454618" lon="2.062344">
        <ele>1407.080</ele>
        <time>2019-05-29T07:45:03Z</time>
      </trkpt>
      <trkpt lat="42.454618" lon="2.062396">
        <ele>1407.818</ele>
        <time>2019-05-29T07:45:05Z</time>
      </trkpt>
      <trkpt lat="42.454611" lon="2.062533">
        <ele>1407.881</ele>
        <time>2019-05-29T07:45:09Z</time>
      </trkpt>
      <trkpt lat="42.454591" lon="2.062670">
        <ele>1408.451</ele>
        <time>2019-05-29T07:45:14Z</time>
      </trkpt>
      <trkpt lat="42.454602" lon="2.062693">
        <ele>1408.633</ele>
        <time>2019-05-29T07:45:15Z</time>
      </trkpt>
      <trkpt lat="42.454597" lon="2.062751">
        <ele>1409.018</ele>
        <time>2019-05-29T07:45:17Z</time>
      </trkpt>
      <trkpt lat="42.454590" lon="2.062784">
        <ele>1409.246</ele>
        <time>2019-05-29T07:45:18Z</time>
      </trkpt>
      <trkpt lat="42.454568" lon="2.062885">
        <ele>1410.088</ele>
        <time>2019-05-29T07:45:22Z</time>
      </trkpt>
      <trkpt lat="42.454550" lon="2.062935">
        <ele>1410.616</ele>
        <time>2019-05-29T07:45:24Z</time>
      </trkpt>
      <trkpt lat="42.454537" lon="2.063000">
        <ele>1411.008</ele>
        <time>2019-05-29T07:45:27Z</time>
      </trkpt>
      <trkpt lat="42.454535" lon="2.063019">
        <ele>1411.267</ele>
        <time>2019-05-29T07:45:28Z</time>
      </trkpt>
      <trkpt lat="42.454542" lon="2.063111">
        <ele>1411.651</ele>
        <time>2019-05-29T07:45:32Z</time>
      </trkpt>
      <trkpt lat="42.454547" lon="2.063163">
        <ele>1412.237</ele>
        <time>2019-05-29T07:45:34Z</time>
      </trkpt>
      <trkpt lat="42.454589" lon="2.063281">
        <ele>1412.625</ele>
        <time>2019-05-29T07:45:39Z</time>
      </trkpt>
      <trkpt lat="42.454627" lon="2.063454">
        <ele>1413.038</ele>
        <time>2019-05-29T07:45:45Z</time>
      </trkpt>
      <trkpt lat="42.454640" lon="2.063505">
        <ele>1413.218</ele>
        <time>2019-05-29T07:45:47Z</time>
      </trkpt>
      <trkpt lat="42.454648" lon="2.063602">
        <ele>1413.820</ele>
        <time>2019-05-29T07:45:51Z</time>
      </trkpt>
      <trkpt lat="42.454651" lon="2.063645">
        <ele>1414.485</ele>
        <time>2019-05-29T07:45:53Z</time>
      </trkpt>
      <trkpt lat="42.454663" lon="2.063660">
        <ele>1414.628</ele>
        <time>2019-05-29T07:45:54Z</time>
      </trkpt>
      <trkpt lat="42.454683" lon="2.063715">
        <ele>1415.089</ele>
        <time>2019-05-29T07:45:57Z</time>
      </trkpt>
      <trkpt lat="42.454693" lon="2.063751">
        <ele>1415.417</ele>
        <time>2019-05-29T07:45:59Z</time>
      </trkpt>
      <trkpt lat="42.454720" lon="2.063799">
        <ele>1416.408</ele>
        <time>2019-05-29T07:46:02Z</time>
      </trkpt>
      <trkpt lat="42.454723" lon="2.063817">
        <ele>1416.655</ele>
        <time>2019-05-29T07:46:03Z</time>
      </trkpt>
      <trkpt lat="42.454756" lon="2.063858">
        <ele>1417.849</ele>
        <time>2019-05-29T07:46:06Z</time>
      </trkpt>
      <trkpt lat="42.454775" lon="2.063888">
        <ele>1418.245</ele>
        <time>2019-05-29T07:46:08Z</time>
      </trkpt>
      <trkpt lat="42.454780" lon="2.063921">
        <ele>1419.033</ele>
        <time>2019-05-29T07:46:10Z</time>
      </trkpt>
      <trkpt lat="42.454787" lon="2.063973">
        <ele>1419.686</ele>
        <time>2019-05-29T07:46:13Z</time>
      </trkpt>
      <trkpt lat="42.454795" lon="2.063992">
        <ele>1419.856</ele>
        <time>2019-05-29T07:46:14Z</time>
      </trkpt>
      <trkpt lat="42.454800" lon="2.064006">
        <ele>1420.068</ele>
        <time>2019-05-29T07:46:15Z</time>
      </trkpt>
      <trkpt lat="42.454823" lon="2.064089">
        <ele>1421.023</ele>
        <time>2019-05-29T07:46:20Z</time>
      </trkpt>
      <trkpt lat="42.454861" lon="2.064135">
        <ele>1422.099</ele>
        <time>2019-05-29T07:46:24Z</time>
      </trkpt>
      <trkpt lat="42.454871" lon="2.064145">
        <ele>1422.607</ele>
        <time>2019-05-29T07:46:25Z</time>
      </trkpt>
      <trkpt lat="42.454883" lon="2.064162">
        <ele>1423.027</ele>
        <time>2019-05-29T07:46:26Z</time>
      </trkpt>
      <trkpt lat="42.454901" lon="2.064166">
        <ele>1423.208</ele>
        <time>2019-05-29T07:46:27Z</time>
      </trkpt>
      <trkpt lat="42.454922" lon="2.064172">
        <ele>1424.472</ele>
        <time>2019-05-29T07:46:30Z</time>
      </trkpt>
      <trkpt lat="42.454997" lon="2.064184">
        <ele>1425.056</ele>
        <time>2019-05-29T07:46:32Z</time>
      </trkpt>
      <trkpt lat="42.455016" lon="2.064186">
        <ele>1425.412</ele>
        <time>2019-05-29T07:46:33Z</time>
      </trkpt>
      <trkpt lat="42.455062" lon="2.064189">
        <ele>1426.410</ele>
        <time>2019-05-29T07:46:35Z</time>
      </trkpt>
      <trkpt lat="42.455080" lon="2.064196">
        <ele>1426.683</ele>
        <time>2019-05-29T07:46:36Z</time>
      </trkpt>
      <trkpt lat="42.455120" lon="2.064215">
        <ele>1427.693</ele>
        <time>2019-05-29T07:46:39Z</time>
      </trkpt>
      <trkpt lat="42.455131" lon="2.064226">
        <ele>1427.695</ele>
        <time>2019-05-29T07:46:40Z</time>
      </trkpt>
      <trkpt lat="42.455154" lon="2.064298">
        <ele>1428.610</ele>
        <time>2019-05-29T07:46:45Z</time>
      </trkpt>
      <trkpt lat="42.455176" lon="2.064307">
        <ele>1428.843</ele>
        <time>2019-05-29T07:46:46Z</time>
      </trkpt>
      <trkpt lat="42.455179" lon="2.064363">
        <ele>1428.864</ele>
        <time>2019-05-29T07:46:49Z</time>
      </trkpt>
      <trkpt lat="42.455171" lon="2.064413">
        <ele>1429.010</ele>
        <time>2019-05-29T07:46:52Z</time>
      </trkpt>
      <trkpt lat="42.455182" lon="2.064524">
        <ele>1430.008</ele>
        <time>2019-05-29T07:46:58Z</time>
      </trkpt>
      <trkpt lat="42.455184" lon="2.064542">
        <ele>1430.457</ele>
        <time>2019-05-29T07:46:59Z</time>
      </trkpt>
      <trkpt lat="42.455179" lon="2.064556">
        <ele>1430.821</ele>
        <time>2019-05-29T07:47:00Z</time>
      </trkpt>
      <trkpt lat="42.455175" lon="2.064569">
        <ele>1431.077</ele>
        <time>2019-05-29T07:47:01Z</time>
      </trkpt>
      <trkpt lat="42.455161" lon="2.064589">
        <ele>1431.435</ele>
        <time>2019-05-29T07:47:03Z</time>
      </trkpt>
      <trkpt lat="42.455133" lon="2.064607">
        <ele>1431.878</ele>
        <time>2019-05-29T07:47:06Z</time>
      </trkpt>
      <trkpt lat="42.455106" lon="2.064614">
        <ele>1432.248</ele>
        <time>2019-05-29T07:47:09Z</time>
      </trkpt>
      <trkpt lat="42.455079" lon="2.064632">
        <ele>1433.220</ele>
        <time>2019-05-29T07:47:12Z</time>
      </trkpt>
      <trkpt lat="42.455069" lon="2.064632">
        <ele>1433.485</ele>
        <time>2019-05-29T07:47:13Z</time>
      </trkpt>
      <trkpt lat="42.455054" lon="2.064655">
        <ele>1434.017</ele>
        <time>2019-05-29T07:47:15Z</time>
      </trkpt>
      <trkpt lat="42.455050" lon="2.064667">
        <ele>1434.687</ele>
        <time>2019-05-29T07:47:16Z</time>
      </trkpt>
      <trkpt lat="42.455038" lon="2.064701">
        <ele>1435.815</ele>
        <time>2019-05-29T07:47:18Z</time>
      </trkpt>
      <trkpt lat="42.455039" lon="2.064780">
        <ele>1436.808</ele>
        <time>2019-05-29T07:47:23Z</time>
      </trkpt>
      <trkpt lat="42.455040" lon="2.064813">
        <ele>1436.454</ele>
        <time>2019-05-29T07:47:25Z</time>
      </trkpt>
      <trkpt lat="42.455047" lon="2.064837">
        <ele>1436.688</ele>
        <time>2019-05-29T07:47:27Z</time>
      </trkpt>
      <trkpt lat="42.455060" lon="2.064882">
        <ele>1437.024</ele>
        <time>2019-05-29T07:47:30Z</time>
      </trkpt>
      <trkpt lat="42.455066" lon="2.064912">
        <ele>1437.212</ele>
        <time>2019-05-29T07:47:32Z</time>
      </trkpt>
      <trkpt lat="42.455097" lon="2.065018">
        <ele>1437.815</ele>
        <time>2019-05-29T07:47:40Z</time>
      </trkpt>
      <trkpt lat="42.455099" lon="2.065032">
        <ele>1438.095</ele>
        <time>2019-05-29T07:47:41Z</time>
      </trkpt>
      <trkpt lat="42.455126" lon="2.065132">
        <ele>1438.877</ele>
        <time>2019-05-29T07:47:48Z</time>
      </trkpt>
      <trkpt lat="42.455128" lon="2.065139">
        <ele>1439.052</ele>
        <time>2019-05-29T07:47:49Z</time>
      </trkpt>
      <trkpt lat="42.455165" lon="2.065197">
        <ele>1440.099</ele>
        <time>2019-05-29T07:47:53Z</time>
      </trkpt>
      <trkpt lat="42.455177" lon="2.065207">
        <ele>1440.007</ele>
        <time>2019-05-29T07:47:54Z</time>
      </trkpt>
      <trkpt lat="42.455234" lon="2.065255">
        <ele>1441.227</ele>
        <time>2019-05-29T07:47:58Z</time>
      </trkpt>
      <trkpt lat="42.455281" lon="2.065282">
        <ele>1441.808</ele>
        <time>2019-05-29T07:48:01Z</time>
      </trkpt>
      <trkpt lat="42.455305" lon="2.065308">
        <ele>1442.452</ele>
        <time>2019-05-29T07:48:03Z</time>
      </trkpt>
      <trkpt lat="42.455495" lon="2.065170">
        <ele>1446.646</ele>
        <time>2019-05-29T07:48:22Z</time>
      </trkpt>
      <trkpt lat="42.455506" lon="2.065069">
        <ele>1447.842</ele>
        <time>2019-05-29T07:48:28Z</time>
      </trkpt>
      <trkpt lat="42.455501" lon="2.065055">
        <ele>1448.050</ele>
        <time>2019-05-29T07:48:29Z</time>
      </trkpt>
      <trkpt lat="42.455476" lon="2.065010">
        <ele>1448.683</ele>
        <time>2019-05-29T07:48:32Z</time>
      </trkpt>
      <trkpt lat="42.455470" lon="2.064991">
        <ele>1448.893</ele>
        <time>2019-05-29T07:48:33Z</time>
      </trkpt>
      <trkpt lat="42.455466" lon="2.064934">
        <ele>1448.425</ele>
        <time>2019-05-29T07:48:36Z</time>
      </trkpt>
      <trkpt lat="42.455464" lon="2.064904">
        <ele>1450.080</ele>
        <time>2019-05-29T07:48:38Z</time>
      </trkpt>
      <trkpt lat="42.455457" lon="2.064836">
        <ele>1450.499</ele>
        <time>2019-05-29T07:48:42Z</time>
      </trkpt>
      <trkpt lat="42.455463" lon="2.064819">
        <ele>1450.607</ele>
        <time>2019-05-29T07:48:43Z</time>
      </trkpt>
      <trkpt lat="42.455478" lon="2.064811">
        <ele>1450.427</ele>
        <time>2019-05-29T07:48:47Z</time>
      </trkpt>
      <trkpt lat="42.455482" lon="2.064824">
        <ele>1450.408</ele>
        <time>2019-05-29T07:48:48Z</time>
      </trkpt>
      <trkpt lat="42.455496" lon="2.064863">
        <ele>1451.022</ele>
        <time>2019-05-29T07:48:52Z</time>
      </trkpt>
      <trkpt lat="42.455502" lon="2.064866">
        <ele>1451.676</ele>
        <time>2019-05-29T07:48:53Z</time>
      </trkpt>
      <trkpt lat="42.455505" lon="2.064896">
        <ele>1452.282</ele>
        <time>2019-05-29T07:48:55Z</time>
      </trkpt>
      <trkpt lat="42.455511" lon="2.064906">
        <ele>1452.680</ele>
        <time>2019-05-29T07:48:56Z</time>
      </trkpt>
      <trkpt lat="42.455515" lon="2.064959">
        <ele>1453.623</ele>
        <time>2019-05-29T07:48:59Z</time>
      </trkpt>
      <trkpt lat="42.455525" lon="2.064967">
        <ele>1453.813</ele>
        <time>2019-05-29T07:49:00Z</time>
      </trkpt>
      <trkpt lat="42.455545" lon="2.065001">
        <ele>1454.635</ele>
        <time>2019-05-29T07:49:03Z</time>
      </trkpt>
      <trkpt lat="42.455565" lon="2.065110">
        <ele>1455.670</ele>
        <time>2019-05-29T07:49:11Z</time>
      </trkpt>
      <trkpt lat="42.455595" lon="2.065174">
        <ele>1456.828</ele>
        <time>2019-05-29T07:49:16Z</time>
      </trkpt>
      <trkpt lat="42.455612" lon="2.065195">
        <ele>1457.689</ele>
        <time>2019-05-29T07:49:18Z</time>
      </trkpt>
      <trkpt lat="42.455624" lon="2.065207">
        <ele>1457.817</ele>
        <time>2019-05-29T07:49:19Z</time>
      </trkpt>
      <trkpt lat="42.455673" lon="2.065247">
        <ele>1459.208</ele>
        <time>2019-05-29T07:49:24Z</time>
      </trkpt>
      <trkpt lat="42.456140" lon="2.064872">
        <ele>1472.095</ele>
        <time>2019-05-29T07:52:21Z</time>
      </trkpt>
      <trkpt lat="42.456105" lon="2.064963">
        <ele>1472.629</ele>
        <time>2019-05-29T07:52:26Z</time>
      </trkpt>
      <trkpt lat="42.456084" lon="2.065005">
        <ele>1473.215</ele>
        <time>2019-05-29T07:52:29Z</time>
      </trkpt>
      <trkpt lat="42.456034" lon="2.065078">
        <ele>1474.093</ele>
        <time>2019-05-29T07:52:33Z</time>
      </trkpt>
      <trkpt lat="42.456013" lon="2.065120">
        <ele>1474.496</ele>
        <time>2019-05-29T07:52:35Z</time>
      </trkpt>
      <trkpt lat="42.455960" lon="2.065240">
        <ele>1475.296</ele>
        <time>2019-05-29T07:52:41Z</time>
      </trkpt>
      <trkpt lat="42.455945" lon="2.065310">
        <ele>1475.478</ele>
        <time>2019-05-29T07:52:44Z</time>
      </trkpt>
      <trkpt lat="42.455944" lon="2.065380">
        <ele>1475.683</ele>
        <time>2019-05-29T07:52:47Z</time>
      </trkpt>
      <trkpt lat="42.455954" lon="2.065511">
        <ele>1476.438</ele>
        <time>2019-05-29T07:52:53Z</time>
      </trkpt>
      <trkpt lat="42.455957" lon="2.065555">
        <ele>1476.470</ele>
        <time>2019-05-29T07:52:55Z</time>
      </trkpt>
      <trkpt lat="42.455966" lon="2.065717">
        <ele>1477.617</ele>
        <time>2019-05-29T07:53:02Z</time>
      </trkpt>
      <trkpt lat="42.455959" lon="2.065789">
        <ele>1477.808</ele>
        <time>2019-05-29T07:53:05Z</time>
      </trkpt>
      <trkpt lat="42.455951" lon="2.065929">
        <ele>1478.676</ele>
        <time>2019-05-29T07:53:12Z</time>
      </trkpt>
      <trkpt lat="42.455950" lon="2.065972">
        <ele>1478.810</ele>
        <time>2019-05-29T07:53:14Z</time>
      </trkpt>
      <trkpt lat="42.455947" lon="2.066102">
        <ele>1479.656</ele>
        <time>2019-05-29T07:53:20Z</time>
      </trkpt>
      <trkpt lat="42.455944" lon="2.066124">
        <ele>1479.834</ele>
        <time>2019-05-29T07:53:21Z</time>
      </trkpt>
      <trkpt lat="42.455937" lon="2.066211">
        <ele>1480.837</ele>
        <time>2019-05-29T07:53:25Z</time>
      </trkpt>
      <trkpt lat="42.455937" lon="2.066316">
        <ele>1481.617</ele>
        <time>2019-05-29T07:53:30Z</time>
      </trkpt>
      <trkpt lat="42.455926" lon="2.066486">
        <ele>1481.869</ele>
        <time>2019-05-29T07:53:38Z</time>
      </trkpt>
      <trkpt lat="42.455924" lon="2.066508">
        <ele>1482.074</ele>
        <time>2019-05-29T07:53:39Z</time>
      </trkpt>
      <trkpt lat="42.455902" lon="2.066628">
        <ele>1482.897</ele>
        <time>2019-05-29T07:53:44Z</time>
      </trkpt>
      <trkpt lat="42.455892" lon="2.066689">
        <ele>1483.023</ele>
        <time>2019-05-29T07:53:47Z</time>
      </trkpt>
      <trkpt lat="42.455871" lon="2.066819">
        <ele>1483.225</ele>
        <time>2019-05-29T07:53:53Z</time>
      </trkpt>
      <trkpt lat="42.455858" lon="2.066865">
        <ele>1483.808</ele>
        <time>2019-05-29T07:53:55Z</time>
      </trkpt>
      <trkpt lat="42.455840" lon="2.067003">
        <ele>1484.672</ele>
        <time>2019-05-29T07:54:01Z</time>
      </trkpt>
      <trkpt lat="42.455853" lon="2.067069">
        <ele>1485.076</ele>
        <time>2019-05-29T07:54:04Z</time>
      </trkpt>
      <trkpt lat="42.455883" lon="2.067102">
        <ele>1485.442</ele>
        <time>2019-05-29T07:54:06Z</time>
      </trkpt>
      <trkpt lat="42.455985" lon="2.067085">
        <ele>1486.050</ele>
        <time>2019-05-29T07:54:11Z</time>
      </trkpt>
      <trkpt lat="42.456002" lon="2.067062">
        <ele>1486.223</ele>
        <time>2019-05-29T07:54:12Z</time>
      </trkpt>
      <trkpt lat="42.456036" lon="2.066970">
        <ele>1486.863</ele>
        <time>2019-05-29T07:54:16Z</time>
      </trkpt>
      <trkpt lat="42.456052" lon="2.066919">
        <ele>1487.075</ele>
        <time>2019-05-29T07:54:18Z</time>
      </trkpt>
      <trkpt lat="42.456086" lon="2.066791">
        <ele>1487.670</ele>
        <time>2019-05-29T07:54:23Z</time>
      </trkpt>
      <trkpt lat="42.456111" lon="2.066665">
        <ele>1488.034</ele>
        <time>2019-05-29T07:54:28Z</time>
      </trkpt>
      <trkpt lat="42.456142" lon="2.066509">
        <ele>1489.255</ele>
        <time>2019-05-29T07:54:34Z</time>
      </trkpt>
      <trkpt lat="42.456181" lon="2.066322">
        <ele>1489.810</ele>
        <time>2019-05-29T07:54:41Z</time>
      </trkpt>
      <trkpt lat="42.456191" lon="2.066246">
        <ele>1490.408</ele>
        <time>2019-05-29T07:54:44Z</time>
      </trkpt>
      <trkpt lat="42.456231" lon="2.066125">
        <ele>1491.216</ele>
        <time>2019-05-29T07:54:49Z</time>
      </trkpt>
      <trkpt lat="42.456240" lon="2.066072">
        <ele>1491.490</ele>
        <time>2019-05-29T07:54:51Z</time>
      </trkpt>
      <trkpt lat="42.456285" lon="2.065924">
        <ele>1492.016</ele>
        <time>2019-05-29T07:54:57Z</time>
      </trkpt>
      <trkpt lat="42.456345" lon="2.065826">
        <ele>1492.494</ele>
        <time>2019-05-29T07:55:02Z</time>
      </trkpt>
      <trkpt lat="42.456375" lon="2.065793">
        <ele>1492.827</ele>
        <time>2019-05-29T07:55:04Z</time>
      </trkpt>
      <trkpt lat="42.456470" lon="2.065706">
        <ele>1493.657</ele>
        <time>2019-05-29T07:55:10Z</time>
      </trkpt>
      <trkpt lat="42.456485" lon="2.065696">
        <ele>1493.869</ele>
        <time>2019-05-29T07:55:11Z</time>
      </trkpt>
      <trkpt lat="42.456575" lon="2.065624">
        <ele>1494.814</ele>
        <time>2019-05-29T07:55:17Z</time>
      </trkpt>
      <trkpt lat="42.456588" lon="2.065612">
        <ele>1495.073</ele>
        <time>2019-05-29T07:55:18Z</time>
      </trkpt>
      <trkpt lat="42.456642" lon="2.065559">
        <ele>1495.885</ele>
        <time>2019-05-29T07:55:22Z</time>
      </trkpt>
      <trkpt lat="42.456683" lon="2.065517">
        <ele>1496.613</ele>
        <time>2019-05-29T07:55:25Z</time>
      </trkpt>
      <trkpt lat="42.456713" lon="2.065492">
        <ele>1497.008</ele>
        <time>2019-05-29T07:55:27Z</time>
      </trkpt>
      <trkpt lat="42.456778" lon="2.065428">
        <ele>1498.290</ele>
        <time>2019-05-29T07:55:32Z</time>
      </trkpt>
      <trkpt lat="42.456869" lon="2.065333">
        <ele>1499.234</ele>
        <time>2019-05-29T07:55:38Z</time>
      </trkpt>
      <trkpt lat="42.456880" lon="2.065311">
        <ele>1499.210</ele>
        <time>2019-05-29T07:55:39Z</time>
      </trkpt>
      <trkpt lat="42.456911" lon="2.065165">
        <ele>1499.848</ele>
        <time>2019-05-29T07:55:45Z</time>
      </trkpt>
      <trkpt lat="42.456901" lon="2.065095">
        <ele>1500.261</ele>
        <time>2019-05-29T07:55:48Z</time>
      </trkpt>
      <trkpt lat="42.456898" lon="2.064981">
        <ele>1500.611</ele>
        <time>2019-05-29T07:55:52Z</time>
      </trkpt>
      <trkpt lat="42.456931" lon="2.064744">
        <ele>1501.283</ele>
        <time>2019-05-29T07:56:01Z</time>
      </trkpt>
      <trkpt lat="42.457020" lon="2.064613">
        <ele>1501.628</ele>
        <time>2019-05-29T07:56:08Z</time>
      </trkpt>
      <trkpt lat="42.457098" lon="2.064550">
        <ele>1502.482</ele>
        <time>2019-05-29T07:56:13Z</time>
      </trkpt>
      <trkpt lat="42.457146" lon="2.064509">
        <ele>1503.443</ele>
        <time>2019-05-29T07:56:16Z</time>
      </trkpt>
      <trkpt lat="42.457197" lon="2.064482">
        <ele>1504.017</ele>
        <time>2019-05-29T07:56:19Z</time>
      </trkpt>
      <trkpt lat="42.457301" lon="2.064432">
        <ele>1504.608</ele>
        <time>2019-05-29T07:56:25Z</time>
      </trkpt>
      <trkpt lat="42.457318" lon="2.064423">
        <ele>1504.861</ele>
        <time>2019-05-29T07:56:26Z</time>
      </trkpt>
      <trkpt lat="42.457403" lon="2.064375">
        <ele>1505.695</ele>
        <time>2019-05-29T07:56:31Z</time>
      </trkpt>
      <trkpt lat="42.457454" lon="2.064353">
        <ele>1506.251</ele>
        <time>2019-05-29T07:56:34Z</time>
      </trkpt>
      <trkpt lat="42.457523" lon="2.064312">
        <ele>1506.899</ele>
        <time>2019-05-29T07:56:38Z</time>
      </trkpt>
      <trkpt lat="42.457573" lon="2.064288">
        <ele>1507.252</ele>
        <time>2019-05-29T07:56:41Z</time>
      </trkpt>
      <trkpt lat="42.457714" lon="2.064221">
        <ele>1507.612</ele>
        <time>2019-05-29T07:56:49Z</time>
      </trkpt>
      <trkpt lat="42.457767" lon="2.064191">
        <ele>1508.224</ele>
        <time>2019-05-29T07:56:52Z</time>
      </trkpt>
      <trkpt lat="42.457838" lon="2.064153">
        <ele>1509.479</ele>
        <time>2019-05-29T07:56:56Z</time>
      </trkpt>
      <trkpt lat="42.457855" lon="2.064146">
        <ele>1509.682</ele>
        <time>2019-05-29T07:56:57Z</time>
      </trkpt>
      <trkpt lat="42.457972" lon="2.064090">
        <ele>1510.243</ele>
        <time>2019-05-29T07:57:04Z</time>
      </trkpt>
      <trkpt lat="42.458010" lon="2.064065">
        <ele>1510.417</ele>
        <time>2019-05-29T07:57:06Z</time>
      </trkpt>
      <trkpt lat="42.458122" lon="2.064002">
        <ele>1511.408</ele>
        <time>2019-05-29T07:57:12Z</time>
      </trkpt>
      <trkpt lat="42.458207" lon="2.063956">
        <ele>1512.681</ele>
        <time>2019-05-29T07:57:17Z</time>
      </trkpt>
      <trkpt lat="42.458245" lon="2.063935">
        <ele>1513.075</ele>
        <time>2019-05-29T07:57:19Z</time>
      </trkpt>
      <trkpt lat="42.458314" lon="2.063920">
        <ele>1513.621</ele>
        <time>2019-05-29T07:57:23Z</time>
      </trkpt>
      <trkpt lat="42.458351" lon="2.063906">
        <ele>1513.889</ele>
        <time>2019-05-29T07:57:25Z</time>
      </trkpt>
      <trkpt lat="42.458439" lon="2.063860">
        <ele>1514.682</ele>
        <time>2019-05-29T07:57:30Z</time>
      </trkpt>
      <trkpt lat="42.458495" lon="2.063840">
        <ele>1514.662</ele>
        <time>2019-05-29T07:57:33Z</time>
      </trkpt>
      <trkpt lat="42.458582" lon="2.063789">
        <ele>1515.824</ele>
        <time>2019-05-29T07:57:38Z</time>
      </trkpt>
      <trkpt lat="42.458598" lon="2.063779">
        <ele>1515.699</ele>
        <time>2019-05-29T07:57:39Z</time>
      </trkpt>
      <trkpt lat="42.458709" lon="2.063677">
        <ele>1516.825</ele>
        <time>2019-05-29T07:57:46Z</time>
      </trkpt>
      <trkpt lat="42.458721" lon="2.063656">
        <ele>1517.026</ele>
        <time>2019-05-29T07:57:47Z</time>
      </trkpt>
      <trkpt lat="42.458775" lon="2.063556">
        <ele>1518.008</ele>
        <time>2019-05-29T07:57:52Z</time>
      </trkpt>
      <trkpt lat="42.458800" lon="2.063517">
        <ele>1518.408</ele>
        <time>2019-05-29T07:57:54Z</time>
      </trkpt>
      <trkpt lat="42.458906" lon="2.063302">
        <ele>1519.075</ele>
        <time>2019-05-29T07:58:04Z</time>
      </trkpt>
      <trkpt lat="42.458921" lon="2.063282">
        <ele>1519.279</ele>
        <time>2019-05-29T07:58:05Z</time>
      </trkpt>
      <trkpt lat="42.459007" lon="2.063144">
        <ele>1520.485</ele>
        <time>2019-05-29T07:58:12Z</time>
      </trkpt>
      <trkpt lat="42.459019" lon="2.063125">
        <ele>1520.623</ele>
        <time>2019-05-29T07:58:13Z</time>
      </trkpt>
      <trkpt lat="42.459108" lon="2.063020">
        <ele>1521.426</ele>
        <time>2019-05-29T07:58:19Z</time>
      </trkpt>
      <trkpt lat="42.459122" lon="2.063005">
        <ele>1521.656</ele>
        <time>2019-05-29T07:58:20Z</time>
      </trkpt>
      <trkpt lat="42.459248" lon="2.062875">
        <ele>1522.668</ele>
        <time>2019-05-29T07:58:28Z</time>
      </trkpt>
      <trkpt lat="42.459265" lon="2.062861">
        <ele>1522.833</ele>
        <time>2019-05-29T07:58:29Z</time>
      </trkpt>
      <trkpt lat="42.459397" lon="2.062754">
        <ele>1523.446</ele>
        <time>2019-05-29T07:58:37Z</time>
      </trkpt>
      <trkpt lat="42.459472" lon="2.062703">
        <ele>1523.688</ele>
        <time>2019-05-29T07:58:41Z</time>
      </trkpt>
      <trkpt lat="42.459598" lon="2.062655">
        <ele>1523.616</ele>
        <time>2019-05-29T07:58:47Z</time>
      </trkpt>
      <trkpt lat="42.459740" lon="2.062675">
        <ele>1524.608</ele>
        <time>2019-05-29T07:58:54Z</time>
      </trkpt>
      <trkpt lat="42.459775" lon="2.062705">
        <ele>1525.067</ele>
        <time>2019-05-29T07:58:56Z</time>
      </trkpt>
      <trkpt lat="42.459817" lon="2.062763">
        <ele>1526.061</ele>
        <time>2019-05-29T07:58:59Z</time>
      </trkpt>
      <trkpt lat="42.459828" lon="2.062784">
        <ele>1526.477</ele>
        <time>2019-05-29T07:59:00Z</time>
      </trkpt>
      <trkpt lat="42.459889" lon="2.062967">
        <ele>1527.285</ele>
        <time>2019-05-29T07:59:08Z</time>
      </trkpt>
      <trkpt lat="42.459896" lon="2.062990">
        <ele>1527.448</ele>
        <time>2019-05-29T07:59:09Z</time>
      </trkpt>
      <trkpt lat="42.459911" lon="2.063061">
        <ele>1528.238</ele>
        <time>2019-05-29T07:59:12Z</time>
      </trkpt>
      <trkpt lat="42.459924" lon="2.063152">
        <ele>1528.290</ele>
        <time>2019-05-29T07:59:16Z</time>
      </trkpt>
      <trkpt lat="42.459951" lon="2.063376">
        <ele>1529.275</ele>
        <time>2019-05-29T07:59:25Z</time>
      </trkpt>
      <trkpt lat="42.459989" lon="2.063624">
        <ele>1530.019</ele>
        <time>2019-05-29T07:59:35Z</time>
      </trkpt>
      <trkpt lat="42.459998" lon="2.063669">
        <ele>1530.409</ele>
        <time>2019-05-29T07:59:37Z</time>
      </trkpt>
      <trkpt lat="42.460034" lon="2.063811">
        <ele>1530.219</ele>
        <time>2019-05-29T07:59:43Z</time>
      </trkpt>
      <trkpt lat="42.460103" lon="2.063991">
        <ele>1530.608</ele>
        <time>2019-05-29T07:59:51Z</time>
      </trkpt>
      <trkpt lat="42.460146" lon="2.064097">
        <ele>1531.664</ele>
        <time>2019-05-29T07:59:56Z</time>
      </trkpt>
      <trkpt lat="42.460166" lon="2.064136">
        <ele>1532.068</ele>
        <time>2019-05-29T07:59:58Z</time>
      </trkpt>
      <trkpt lat="42.460230" lon="2.064301">
        <ele>1532.824</ele>
        <time>2019-05-29T08:00:05Z</time>
      </trkpt>
      <trkpt lat="42.460328" lon="2.064509">
        <ele>1533.672</ele>
        <time>2019-05-29T08:00:14Z</time>
      </trkpt>
      <trkpt lat="42.460351" lon="2.064559">
        <ele>1533.865</ele>
        <time>2019-05-29T08:00:16Z</time>
      </trkpt>
      <trkpt lat="42.460439" lon="2.064733">
        <ele>1534.855</ele>
        <time>2019-05-29T08:00:23Z</time>
      </trkpt>
      <trkpt lat="42.460452" lon="2.064758">
        <ele>1535.047</ele>
        <time>2019-05-29T08:00:24Z</time>
      </trkpt>
      <trkpt lat="42.460525" lon="2.064908">
        <ele>1536.282</ele>
        <time>2019-05-29T08:00:30Z</time>
      </trkpt>
      <trkpt lat="42.460548" lon="2.064964">
        <ele>1536.639</ele>
        <time>2019-05-29T08:00:32Z</time>
      </trkpt>
      <trkpt lat="42.460669" lon="2.065221">
        <ele>1536.201</ele>
        <time>2019-05-29T08:00:42Z</time>
      </trkpt>
      <trkpt lat="42.460703" lon="2.065295">
        <ele>1537.221</ele>
        <time>2019-05-29T08:00:45Z</time>
      </trkpt>
      <trkpt lat="42.460778" lon="2.065463">
        <ele>1538.408</ele>
        <time>2019-05-29T08:00:52Z</time>
      </trkpt>
      <trkpt lat="42.460789" lon="2.065488">
        <ele>1538.486</ele>
        <time>2019-05-29T08:00:53Z</time>
      </trkpt>
      <trkpt lat="42.460861" lon="2.065690">
        <ele>1539.870</ele>
        <time>2019-05-29T08:01:01Z</time>
      </trkpt>
      <trkpt lat="42.460869" lon="2.065716">
        <ele>1540.026</ele>
        <time>2019-05-29T08:01:02Z</time>
      </trkpt>
      <trkpt lat="42.460892" lon="2.065849">
        <ele>1540.854</ele>
        <time>2019-05-29T08:01:07Z</time>
      </trkpt>
      <trkpt lat="42.460896" lon="2.065924">
        <ele>1540.827</ele>
        <time>2019-05-29T08:01:10Z</time>
      </trkpt>
      <trkpt lat="42.460899" lon="2.066051">
        <ele>1541.847</ele>
        <time>2019-05-29T08:01:15Z</time>
      </trkpt>
      <trkpt lat="42.460898" lon="2.066099">
        <ele>1542.269</ele>
        <time>2019-05-29T08:01:17Z</time>
      </trkpt>
      <trkpt lat="42.460875" lon="2.066227">
        <ele>1543.054</ele>
        <time>2019-05-29T08:01:22Z</time>
      </trkpt>
      <trkpt lat="42.460869" lon="2.066278">
        <ele>1543.428</ele>
        <time>2019-05-29T08:01:24Z</time>
      </trkpt>
      <trkpt lat="42.460826" lon="2.066478">
        <ele>1544.089</ele>
        <time>2019-05-29T08:01:32Z</time>
      </trkpt>
      <trkpt lat="42.460811" lon="2.066525">
        <ele>1544.217</ele>
        <time>2019-05-29T08:01:34Z</time>
      </trkpt>
      <trkpt lat="42.460760" lon="2.066692">
        <ele>1544.808</ele>
        <time>2019-05-29T08:01:40Z</time>
      </trkpt>
      <trkpt lat="42.460732" lon="2.066805">
        <ele>1545.635</ele>
        <time>2019-05-29T08:01:44Z</time>
      </trkpt>
      <trkpt lat="42.460704" lon="2.066923">
        <ele>1546.469</ele>
        <time>2019-05-29T08:01:48Z</time>
      </trkpt>
      <trkpt lat="42.460697" lon="2.066952">
        <ele>1546.665</ele>
        <time>2019-05-29T08:01:49Z</time>
      </trkpt>
      <trkpt lat="42.460671" lon="2.067173">
        <ele>1547.463</ele>
        <time>2019-05-29T08:01:56Z</time>
      </trkpt>
      <trkpt lat="42.460665" lon="2.067356">
        <ele>1547.626</ele>
        <time>2019-05-29T08:02:02Z</time>
      </trkpt>
      <trkpt lat="42.460666" lon="2.067386">
        <ele>1547.816</ele>
        <time>2019-05-29T08:02:03Z</time>
      </trkpt>
      <trkpt lat="42.460690" lon="2.067599">
        <ele>1548.278</ele>
        <time>2019-05-29T08:02:10Z</time>
      </trkpt>
      <trkpt lat="42.460707" lon="2.067739">
        <ele>1549.283</ele>
        <time>2019-05-29T08:02:15Z</time>
      </trkpt>
      <trkpt lat="42.460710" lon="2.067805">
        <ele>1549.635</ele>
        <time>2019-05-29T08:02:17Z</time>
      </trkpt>
      <trkpt lat="42.460715" lon="2.067868">
        <ele>1550.286</ele>
        <time>2019-05-29T08:02:19Z</time>
      </trkpt>
      <trkpt lat="42.460730" lon="2.068076">
        <ele>1550.614</ele>
        <time>2019-05-29T08:02:26Z</time>
      </trkpt>
      <trkpt lat="42.460743" lon="2.068202">
        <ele>1551.408</ele>
        <time>2019-05-29T08:02:30Z</time>
      </trkpt>
      <trkpt lat="42.460769" lon="2.068349">
        <ele>1552.226</ele>
        <time>2019-05-29T08:02:35Z</time>
      </trkpt>
      <trkpt lat="42.460776" lon="2.068377">
        <ele>1552.680</ele>
        <time>2019-05-29T08:02:36Z</time>
      </trkpt>
      <trkpt lat="42.460833" lon="2.068506">
        <ele>1553.836</ele>
        <time>2019-05-29T08:02:41Z</time>
      </trkpt>
      <trkpt lat="42.460849" lon="2.068524">
        <ele>1554.054</ele>
        <time>2019-05-29T08:02:42Z</time>
      </trkpt>
      <trkpt lat="42.461025" lon="2.068673">
        <ele>1554.687</ele>
        <time>2019-05-29T08:02:51Z</time>
      </trkpt>
      <trkpt lat="42.461089" lon="2.068715">
        <ele>1555.077</ele>
        <time>2019-05-29T08:02:54Z</time>
      </trkpt>
      <trkpt lat="42.461147" lon="2.068760">
        <ele>1556.039</ele>
        <time>2019-05-29T08:02:57Z</time>
      </trkpt>
      <trkpt lat="42.461193" lon="2.068784">
        <ele>1556.664</ele>
        <time>2019-05-29T08:02:59Z</time>
      </trkpt>
      <trkpt lat="42.461331" lon="2.068873">
        <ele>1556.696</ele>
        <time>2019-05-29T08:03:06Z</time>
      </trkpt>
      <trkpt lat="42.461450" lon="2.068982">
        <ele>1557.431</ele>
        <time>2019-05-29T08:03:13Z</time>
      </trkpt>
      <trkpt lat="42.461493" lon="2.069044">
        <ele>1558.424</ele>
        <time>2019-05-29T08:03:16Z</time>
      </trkpt>
      <trkpt lat="42.461556" lon="2.069142">
        <ele>1558.608</ele>
        <time>2019-05-29T08:03:21Z</time>
      </trkpt>
      <trkpt lat="42.461608" lon="2.069263">
        <ele>1559.852</ele>
        <time>2019-05-29T08:03:27Z</time>
      </trkpt>
      <trkpt lat="42.461617" lon="2.069284">
        <ele>1560.286</ele>
        <time>2019-05-29T08:03:28Z</time>
      </trkpt>
      <trkpt lat="42.461694" lon="2.069436">
        <ele>1560.232</ele>
        <time>2019-05-29T08:03:35Z</time>
      </trkpt>
      <trkpt lat="42.461778" lon="2.069533">
        <ele>1560.870</ele>
        <time>2019-05-29T08:03:41Z</time>
      </trkpt>
      <trkpt lat="42.461815" lon="2.069548">
        <ele>1561.653</ele>
        <time>2019-05-29T08:03:43Z</time>
      </trkpt>
      <trkpt lat="42.461852" lon="2.069562">
        <ele>1562.053</ele>
        <time>2019-05-29T08:03:45Z</time>
      </trkpt>
      <trkpt lat="42.461908" lon="2.069566">
        <ele>1563.235</ele>
        <time>2019-05-29T08:03:48Z</time>
      </trkpt>
      <trkpt lat="42.461946" lon="2.069565">
        <ele>1563.660</ele>
        <time>2019-05-29T08:03:50Z</time>
      </trkpt>
      <trkpt lat="42.462074" lon="2.069537">
        <ele>1564.029</ele>
        <time>2019-05-29T08:03:56Z</time>
      </trkpt>
      <trkpt lat="42.462116" lon="2.069519">
        <ele>1564.400</ele>
        <time>2019-05-29T08:03:58Z</time>
      </trkpt>
      <trkpt lat="42.462240" lon="2.069470">
        <ele>1565.420</ele>
        <time>2019-05-29T08:04:04Z</time>
      </trkpt>
      <trkpt lat="42.462377" lon="2.069368">
        <ele>1566.208</ele>
        <time>2019-05-29T08:04:11Z</time>
      </trkpt>
      <trkpt lat="42.462395" lon="2.069352">
        <ele>1566.415</ele>
        <time>2019-05-29T08:04:12Z</time>
      </trkpt>
      <trkpt lat="42.462486" lon="2.069291">
        <ele>1567.419</ele>
        <time>2019-05-29T08:04:17Z</time>
      </trkpt>
      <trkpt lat="42.462502" lon="2.069275">
        <ele>1567.635</ele>
        <time>2019-05-29T08:04:18Z</time>
      </trkpt>
      <trkpt lat="42.462638" lon="2.069171">
        <ele>1567.873</ele>
        <time>2019-05-29T08:04:25Z</time>
      </trkpt>
      <trkpt lat="42.462710" lon="2.069108">
        <ele>1568.816</ele>
        <time>2019-05-29T08:04:29Z</time>
      </trkpt>
      <trkpt lat="42.462808" lon="2.069045">
        <ele>1569.696</ele>
        <time>2019-05-29T08:04:34Z</time>
      </trkpt>
      <trkpt lat="42.462932" lon="2.069025">
        <ele>1570.068</ele>
        <time>2019-05-29T08:04:40Z</time>
      </trkpt>
      <trkpt lat="42.462973" lon="2.069034">
        <ele>1570.453</ele>
        <time>2019-05-29T08:04:42Z</time>
      </trkpt>
      <trkpt lat="42.463122" lon="2.069105">
        <ele>1571.234</ele>
        <time>2019-05-29T08:04:49Z</time>
      </trkpt>
      <trkpt lat="42.463182" lon="2.069143">
        <ele>1571.855</ele>
        <time>2019-05-29T08:04:52Z</time>
      </trkpt>
      <trkpt lat="42.463333" lon="2.069240">
        <ele>1572.210</ele>
        <time>2019-05-29T08:04:59Z</time>
      </trkpt>
      <trkpt lat="42.463355" lon="2.069255">
        <ele>1572.408</ele>
        <time>2019-05-29T08:05:00Z</time>
      </trkpt>
      <trkpt lat="42.463509" lon="2.069380">
        <ele>1571.096</ele>
        <time>2019-05-29T08:05:06Z</time>
      </trkpt>
      <trkpt lat="42.463618" lon="2.069525">
        <ele>1570.210</ele>
        <time>2019-05-29T08:05:10Z</time>
      </trkpt>
      <trkpt lat="42.463643" lon="2.069573">
        <ele>1570.066</ele>
        <time>2019-05-29T08:05:11Z</time>
      </trkpt>
      <trkpt lat="42.463667" lon="2.069623">
        <ele>1569.854</ele>
        <time>2019-05-29T08:05:12Z</time>
      </trkpt>
      <trkpt lat="42.463765" lon="2.069936">
        <ele>1568.657</ele>
        <time>2019-05-29T08:05:17Z</time>
      </trkpt>
      <trkpt lat="42.463780" lon="2.070004">
        <ele>1568.247</ele>
        <time>2019-05-29T08:05:18Z</time>
      </trkpt>
      <trkpt lat="42.463793" lon="2.070075">
        <ele>1567.419</ele>
        <time>2019-05-29T08:05:19Z</time>
      </trkpt>
      <trkpt lat="42.463829" lon="2.070292">
        <ele>1566.424</ele>
        <time>2019-05-29T08:05:22Z</time>
      </trkpt>
      <trkpt lat="42.463873" lon="2.070529">
        <ele>1565.895</ele>
        <time>2019-05-29T08:05:25Z</time>
      </trkpt>
      <trkpt lat="42.463888" lon="2.070613">
        <ele>1565.449</ele>
        <time>2019-05-29T08:05:26Z</time>
      </trkpt>
      <trkpt lat="42.463975" lon="2.070951">
        <ele>1563.823</ele>
        <time>2019-05-29T08:05:30Z</time>
      </trkpt>
      <trkpt lat="42.464005" lon="2.071028">
        <ele>1563.008</ele>
        <time>2019-05-29T08:05:31Z</time>
      </trkpt>
      <trkpt lat="42.464041" lon="2.071101">
        <ele>1562.462</ele>
        <time>2019-05-29T08:05:32Z</time>
      </trkpt>
      <trkpt lat="42.464118" lon="2.071236">
        <ele>1562.476</ele>
        <time>2019-05-29T08:05:34Z</time>
      </trkpt>
      <trkpt lat="42.464216" lon="2.071354">
        <ele>1561.872</ele>
        <time>2019-05-29T08:05:36Z</time>
      </trkpt>
      <trkpt lat="42.464270" lon="2.071406">
        <ele>1561.270</ele>
        <time>2019-05-29T08:05:37Z</time>
      </trkpt>
      <trkpt lat="42.464492" lon="2.071551">
        <ele>1560.283</ele>
        <time>2019-05-29T08:05:41Z</time>
      </trkpt>
      <trkpt lat="42.464546" lon="2.071573">
        <ele>1560.493</ele>
        <time>2019-05-29T08:05:42Z</time>
      </trkpt>
      <trkpt lat="42.464700" lon="2.071608">
        <ele>1562.245</ele>
        <time>2019-05-29T08:05:45Z</time>
      </trkpt>
      <trkpt lat="42.464746" lon="2.071612">
        <ele>1563.420</ele>
        <time>2019-05-29T08:05:46Z</time>
      </trkpt>
      <trkpt lat="42.464790" lon="2.071619">
        <ele>1564.069</ele>
        <time>2019-05-29T08:05:47Z</time>
      </trkpt>
      <trkpt lat="42.464932" lon="2.071654">
        <ele>1564.004</ele>
        <time>2019-05-29T08:05:51Z</time>
      </trkpt>
      <trkpt lat="42.464995" lon="2.071662">
        <ele>1564.424</ele>
        <time>2019-05-29T08:05:53Z</time>
      </trkpt>
      <trkpt lat="42.465176" lon="2.071689">
        <ele>1565.408</ele>
        <time>2019-05-29T08:05:59Z</time>
      </trkpt>
      <trkpt lat="42.465203" lon="2.071694">
        <ele>1565.619</ele>
        <time>2019-05-29T08:06:00Z</time>
      </trkpt>
      <trkpt lat="42.465304" lon="2.071707">
        <ele>1566.823</ele>
        <time>2019-05-29T08:06:04Z</time>
      </trkpt>
      <trkpt lat="42.465356" lon="2.071713">
        <ele>1566.839</ele>
        <time>2019-05-29T08:06:06Z</time>
      </trkpt>
      <trkpt lat="42.465461" lon="2.071730">
        <ele>1567.867</ele>
        <time>2019-05-29T08:06:10Z</time>
      </trkpt>
      <trkpt lat="42.465533" lon="2.071749">
        <ele>1568.280</ele>
        <time>2019-05-29T08:06:13Z</time>
      </trkpt>
      <trkpt lat="42.465734" lon="2.071781">
        <ele>1569.050</ele>
        <time>2019-05-29T08:06:21Z</time>
      </trkpt>
      <trkpt lat="42.465978" lon="2.071819">
        <ele>1570.432</ele>
        <time>2019-05-29T08:06:31Z</time>
      </trkpt>
      <trkpt lat="42.466171" lon="2.071853">
        <ele>1571.437</ele>
        <time>2019-05-29T08:06:39Z</time>
      </trkpt>
      <trkpt lat="42.466363" lon="2.071883">
        <ele>1572.691</ele>
        <time>2019-05-29T08:06:47Z</time>
      </trkpt>
      <trkpt lat="42.466579" lon="2.071916">
        <ele>1573.681</ele>
        <time>2019-05-29T08:06:56Z</time>
      </trkpt>
      <trkpt lat="42.466603" lon="2.071921">
        <ele>1573.819</ele>
        <time>2019-05-29T08:06:57Z</time>
      </trkpt>
      <trkpt lat="42.466770" lon="2.071949">
        <ele>1574.208</ele>
        <time>2019-05-29T08:07:04Z</time>
      </trkpt>
      <trkpt lat="42.466865" lon="2.071970">
        <ele>1574.862</ele>
        <time>2019-05-29T08:07:08Z</time>
      </trkpt>
      <trkpt lat="42.467008" lon="2.071991">
        <ele>1575.836</ele>
        <time>2019-05-29T08:07:14Z</time>
      </trkpt>
      <trkpt lat="42.467031" lon="2.071995">
        <ele>1576.092</ele>
        <time>2019-05-29T08:07:15Z</time>
      </trkpt>
      <trkpt lat="42.467232" lon="2.072035">
        <ele>1577.090</ele>
        <time>2019-05-29T08:07:24Z</time>
      </trkpt>
      <trkpt lat="42.467379" lon="2.072051">
        <ele>1578.023</ele>
        <time>2019-05-29T08:07:31Z</time>
      </trkpt>
      <trkpt lat="42.467403" lon="2.072052">
        <ele>1578.283</ele>
        <time>2019-05-29T08:07:32Z</time>
      </trkpt>
      <trkpt lat="42.467526" lon="2.072035">
        <ele>1579.245</ele>
        <time>2019-05-29T08:07:38Z</time>
      </trkpt>
      <trkpt lat="42.467546" lon="2.072033">
        <ele>1579.440</ele>
        <time>2019-05-29T08:07:39Z</time>
      </trkpt>
      <trkpt lat="42.467690" lon="2.071977">
        <ele>1580.254</ele>
        <time>2019-05-29T08:07:46Z</time>
      </trkpt>
      <trkpt lat="42.467711" lon="2.071972">
        <ele>1580.656</ele>
        <time>2019-05-29T08:07:47Z</time>
      </trkpt>
      <trkpt lat="42.467809" lon="2.071931">
        <ele>1581.411</ele>
        <time>2019-05-29T08:07:52Z</time>
      </trkpt>
      <trkpt lat="42.467871" lon="2.071907">
        <ele>1581.808</ele>
        <time>2019-05-29T08:07:55Z</time>
      </trkpt>
      <trkpt lat="42.467912" lon="2.071897">
        <ele>1582.468</ele>
        <time>2019-05-29T08:07:57Z</time>
      </trkpt>
      <trkpt lat="42.468037" lon="2.071847">
        <ele>1583.092</ele>
        <time>2019-05-29T08:08:03Z</time>
      </trkpt>
      <trkpt lat="42.468118" lon="2.071812">
        <ele>1583.438</ele>
        <time>2019-05-29T08:08:07Z</time>
      </trkpt>
      <trkpt lat="42.468217" lon="2.071773">
        <ele>1584.236</ele>
        <time>2019-05-29T08:08:12Z</time>
      </trkpt>
      <trkpt lat="42.468259" lon="2.071758">
        <ele>1584.679</ele>
        <time>2019-05-29T08:08:14Z</time>
      </trkpt>
      <trkpt lat="42.468402" lon="2.071708">
        <ele>1585.039</ele>
        <time>2019-05-29T08:08:21Z</time>
      </trkpt>
      <trkpt lat="42.468505" lon="2.071684">
        <ele>1585.661</ele>
        <time>2019-05-29T08:08:26Z</time>
      </trkpt>
      <trkpt lat="42.468591" lon="2.071661">
        <ele>1586.216</ele>
        <time>2019-05-29T08:08:30Z</time>
      </trkpt>
      <trkpt lat="42.468613" lon="2.071656">
        <ele>1587.013</ele>
        <time>2019-05-29T08:08:31Z</time>
      </trkpt>
      <trkpt lat="42.468762" lon="2.071644">
        <ele>1587.643</ele>
        <time>2019-05-29T08:08:38Z</time>
      </trkpt>
      <trkpt lat="42.468807" lon="2.071644">
        <ele>1588.207</ele>
        <time>2019-05-29T08:08:40Z</time>
      </trkpt>
      <trkpt lat="42.468916" lon="2.071670">
        <ele>1589.808</ele>
        <time>2019-05-29T08:08:45Z</time>
      </trkpt>
      <trkpt lat="42.469028" lon="2.071756">
        <ele>1590.894</ele>
        <time>2019-05-29T08:08:51Z</time>
      </trkpt>
      <trkpt lat="42.469079" lon="2.071810">
        <ele>1591.458</ele>
        <time>2019-05-29T08:08:54Z</time>
      </trkpt>
      <trkpt lat="42.469127" lon="2.071871">
        <ele>1592.254</ele>
        <time>2019-05-29T08:08:57Z</time>
      </trkpt>
      <trkpt lat="42.469184" lon="2.071958">
        <ele>1592.632</ele>
        <time>2019-05-29T08:09:01Z</time>
      </trkpt>
      <trkpt lat="42.469272" lon="2.072123">
        <ele>1593.415</ele>
        <time>2019-05-29T08:09:08Z</time>
      </trkpt>
      <trkpt lat="42.469304" lon="2.072204">
        <ele>1593.475</ele>
        <time>2019-05-29T08:09:11Z</time>
      </trkpt>
      <trkpt lat="42.469356" lon="2.072376">
        <ele>1594.697</ele>
        <time>2019-05-29T08:09:17Z</time>
      </trkpt>
      <trkpt lat="42.469382" lon="2.072488">
        <ele>1594.872</ele>
        <time>2019-05-29T08:09:21Z</time>
      </trkpt>
      <trkpt lat="42.469395" lon="2.072543">
        <ele>1595.838</ele>
        <time>2019-05-29T08:09:23Z</time>
      </trkpt>
      <trkpt lat="42.469418" lon="2.072688">
        <ele>1596.070</ele>
        <time>2019-05-29T08:09:28Z</time>
      </trkpt>
      <trkpt lat="42.469450" lon="2.072899">
        <ele>1596.417</ele>
        <time>2019-05-29T08:09:35Z</time>
      </trkpt>
      <trkpt lat="42.469465" lon="2.072988">
        <ele>1596.808</ele>
        <time>2019-05-29T08:09:38Z</time>
      </trkpt>
      <trkpt lat="42.469506" lon="2.073184">
        <ele>1597.496</ele>
        <time>2019-05-29T08:09:44Z</time>
      </trkpt>
      <trkpt lat="42.469532" lon="2.073315">
        <ele>1598.030</ele>
        <time>2019-05-29T08:09:48Z</time>
      </trkpt>
      <trkpt lat="42.469567" lon="2.073442">
        <ele>1598.436</ele>
        <time>2019-05-29T08:09:52Z</time>
      </trkpt>
      <trkpt lat="42.469680" lon="2.073685">
        <ele>1598.244</ele>
        <time>2019-05-29T08:10:01Z</time>
      </trkpt>
      <trkpt lat="42.469769" lon="2.073864">
        <ele>1598.417</ele>
        <time>2019-05-29T08:10:08Z</time>
      </trkpt>
      <trkpt lat="42.469897" lon="2.074096">
        <ele>1599.037</ele>
        <time>2019-05-29T08:10:17Z</time>
      </trkpt>
      <trkpt lat="42.469927" lon="2.074147">
        <ele>1599.079</ele>
        <time>2019-05-29T08:10:19Z</time>
      </trkpt>
      <trkpt lat="42.470008" lon="2.074307">
        <ele>1599.024</ele>
        <time>2019-05-29T08:10:25Z</time>
      </trkpt>
      <trkpt lat="42.470118" lon="2.074514">
        <ele>1599.482</ele>
        <time>2019-05-29T08:10:33Z</time>
      </trkpt>
      <trkpt lat="42.470218" lon="2.074700">
        <ele>1599.843</ele>
        <time>2019-05-29T08:10:40Z</time>
      </trkpt>
      <trkpt lat="42.470232" lon="2.074729">
        <ele>1600.217</ele>
        <time>2019-05-29T08:10:41Z</time>
      </trkpt>
      <trkpt lat="42.470315" lon="2.074888">
        <ele>1601.208</ele>
        <time>2019-05-29T08:10:47Z</time>
      </trkpt>
      <trkpt lat="42.470331" lon="2.074913">
        <ele>1601.411</ele>
        <time>2019-05-29T08:10:48Z</time>
      </trkpt>
      <trkpt lat="42.470399" lon="2.075046">
        <ele>1602.445</ele>
        <time>2019-05-29T08:10:53Z</time>
      </trkpt>
      <trkpt lat="42.470428" lon="2.075099">
        <ele>1602.461</ele>
        <time>2019-05-29T08:10:55Z</time>
      </trkpt>
      <trkpt lat="42.470578" lon="2.075279">
        <ele>1603.069</ele>
        <time>2019-05-29T08:11:03Z</time>
      </trkpt>
      <trkpt lat="42.470725" lon="2.075337">
        <ele>1603.852</ele>
        <time>2019-05-29T08:11:09Z</time>
      </trkpt>
      <trkpt lat="42.470750" lon="2.075336">
        <ele>1604.062</ele>
        <time>2019-05-29T08:11:10Z</time>
      </trkpt>
      <trkpt lat="42.470877" lon="2.075333">
        <ele>1604.844</ele>
        <time>2019-05-29T08:11:15Z</time>
      </trkpt>
      <trkpt lat="42.470951" lon="2.075321">
        <ele>1605.429</ele>
        <time>2019-05-29T08:11:18Z</time>
      </trkpt>
      <trkpt lat="42.471127" lon="2.075303">
        <ele>1605.835</ele>
        <time>2019-05-29T08:11:25Z</time>
      </trkpt>
      <trkpt lat="42.471201" lon="2.075301">
        <ele>1606.286</ele>
        <time>2019-05-29T08:11:28Z</time>
      </trkpt>
      <trkpt lat="42.471303" lon="2.075310">
        <ele>1606.814</ele>
        <time>2019-05-29T08:11:32Z</time>
      </trkpt>
      <trkpt lat="42.471426" lon="2.075355">
        <ele>1607.608</ele>
        <time>2019-05-29T08:11:37Z</time>
      </trkpt>
      <trkpt lat="42.471499" lon="2.075389">
        <ele>1607.896</ele>
        <time>2019-05-29T08:11:40Z</time>
      </trkpt>
      <trkpt lat="42.471619" lon="2.075447">
        <ele>1608.210</ele>
        <time>2019-05-29T08:11:45Z</time>
      </trkpt>
      <trkpt lat="42.471788" lon="2.075535">
        <ele>1609.076</ele>
        <time>2019-05-29T08:11:52Z</time>
      </trkpt>
      <trkpt lat="42.471860" lon="2.075574">
        <ele>1609.694</ele>
        <time>2019-05-29T08:11:55Z</time>
      </trkpt>
      <trkpt lat="42.472053" lon="2.075687">
        <ele>1609.077</ele>
        <time>2019-05-29T08:12:02Z</time>
      </trkpt>
      <trkpt lat="42.472235" lon="2.075890">
        <ele>1608.827</ele>
        <time>2019-05-29T08:12:09Z</time>
      </trkpt>
      <trkpt lat="42.472336" lon="2.076157">
        <ele>1609.479</ele>
        <time>2019-05-29T08:12:16Z</time>
      </trkpt>
      <trkpt lat="42.472409" lon="2.076424">
        <ele>1609.424</ele>
        <time>2019-05-29T08:12:23Z</time>
      </trkpt>
      <trkpt lat="42.472480" lon="2.076683">
        <ele>1610.059</ele>
        <time>2019-05-29T08:12:30Z</time>
      </trkpt>
      <trkpt lat="42.472515" lon="2.076799">
        <ele>1610.003</ele>
        <time>2019-05-29T08:12:33Z</time>
      </trkpt>
      <trkpt lat="42.472600" lon="2.077104">
        <ele>1609.623</ele>
        <time>2019-05-29T08:12:41Z</time>
      </trkpt>
      <trkpt lat="42.472592" lon="2.077429">
        <ele>1610.008</ele>
        <time>2019-05-29T08:12:48Z</time>
      </trkpt>
      <trkpt lat="42.472512" lon="2.077641">
        <ele>1609.838</ele>
        <time>2019-05-29T08:12:52Z</time>
      </trkpt>
      <trkpt lat="42.472480" lon="2.077692">
        <ele>1609.842</ele>
        <time>2019-05-29T08:12:53Z</time>
      </trkpt>
      <trkpt lat="42.472354" lon="2.077817">
        <ele>1609.038</ele>
        <time>2019-05-29T08:12:56Z</time>
      </trkpt>
      <trkpt lat="42.472306" lon="2.077853">
        <ele>1608.866</ele>
        <time>2019-05-29T08:12:57Z</time>
      </trkpt>
      <trkpt lat="42.472257" lon="2.077890">
        <ele>1608.479</ele>
        <time>2019-05-29T08:12:58Z</time>
      </trkpt>
      <trkpt lat="42.472106" lon="2.078005">
        <ele>1607.879</ele>
        <time>2019-05-29T08:13:01Z</time>
      </trkpt>
      <trkpt lat="42.471953" lon="2.078138">
        <ele>1606.611</ele>
        <time>2019-05-29T08:13:04Z</time>
      </trkpt>
      <trkpt lat="42.471901" lon="2.078181">
        <ele>1606.656</ele>
        <time>2019-05-29T08:13:05Z</time>
      </trkpt>
      <trkpt lat="42.471678" lon="2.078361">
        <ele>1605.234</ele>
        <time>2019-05-29T08:13:09Z</time>
      </trkpt>
      <trkpt lat="42.471624" lon="2.078417">
        <ele>1604.855</ele>
        <time>2019-05-29T08:13:10Z</time>
      </trkpt>
      <trkpt lat="42.471527" lon="2.078547">
        <ele>1604.410</ele>
        <time>2019-05-29T08:13:12Z</time>
      </trkpt>
      <trkpt lat="42.471483" lon="2.078620">
        <ele>1604.208</ele>
        <time>2019-05-29T08:13:13Z</time>
      </trkpt>
      <trkpt lat="42.471404" lon="2.078770">
        <ele>1603.676</ele>
        <time>2019-05-29T08:13:15Z</time>
      </trkpt>
      <trkpt lat="42.471332" lon="2.078934">
        <ele>1602.670</ele>
        <time>2019-05-29T08:13:17Z</time>
      </trkpt>
      <trkpt lat="42.471294" lon="2.079020">
        <ele>1602.066</ele>
        <time>2019-05-29T08:13:18Z</time>
      </trkpt>
      <trkpt lat="42.471252" lon="2.079104">
        <ele>1601.234</ele>
        <time>2019-05-29T08:13:19Z</time>
      </trkpt>
      <trkpt lat="42.471147" lon="2.079245">
        <ele>1600.227</ele>
        <time>2019-05-29T08:13:21Z</time>
      </trkpt>
      <trkpt lat="42.471086" lon="2.079305">
        <ele>1599.637</ele>
        <time>2019-05-29T08:13:22Z</time>
      </trkpt>
      <trkpt lat="42.470949" lon="2.079417">
        <ele>1599.299</ele>
        <time>2019-05-29T08:13:24Z</time>
      </trkpt>
      <trkpt lat="42.470872" lon="2.079467">
        <ele>1599.084</ele>
        <time>2019-05-29T08:13:25Z</time>
      </trkpt>
      <trkpt lat="42.470714" lon="2.079548">
        <ele>1597.838</ele>
        <time>2019-05-29T08:13:27Z</time>
      </trkpt>
      <trkpt lat="42.470370" lon="2.079656">
        <ele>1596.470</ele>
        <time>2019-05-29T08:13:31Z</time>
      </trkpt>
      <trkpt lat="42.470203" lon="2.079725">
        <ele>1595.617</ele>
        <time>2019-05-29T08:13:33Z</time>
      </trkpt>
      <trkpt lat="42.470128" lon="2.079787">
        <ele>1595.208</ele>
        <time>2019-05-29T08:13:34Z</time>
      </trkpt>
      <trkpt lat="42.470021" lon="2.079964">
        <ele>1594.496</ele>
        <time>2019-05-29T08:13:36Z</time>
      </trkpt>
      <trkpt lat="42.470000" lon="2.080076">
        <ele>1594.280</ele>
        <time>2019-05-29T08:13:37Z</time>
      </trkpt>
      <trkpt lat="42.470004" lon="2.080190">
        <ele>1593.446</ele>
        <time>2019-05-29T08:13:38Z</time>
      </trkpt>
      <trkpt lat="42.470002" lon="2.080302">
        <ele>1592.424</ele>
        <time>2019-05-29T08:13:39Z</time>
      </trkpt>
      <trkpt lat="42.469948" lon="2.080485">
        <ele>1591.217</ele>
        <time>2019-05-29T08:13:41Z</time>
      </trkpt>
      <trkpt lat="42.469866" lon="2.080645">
        <ele>1590.477</ele>
        <time>2019-05-29T08:13:43Z</time>
      </trkpt>
      <trkpt lat="42.469827" lon="2.080727">
        <ele>1590.019</ele>
        <time>2019-05-29T08:13:44Z</time>
      </trkpt>
      <trkpt lat="42.469774" lon="2.080890">
        <ele>1590.064</ele>
        <time>2019-05-29T08:13:46Z</time>
      </trkpt>
      <trkpt lat="42.469783" lon="2.081040">
        <ele>1589.029</ele>
        <time>2019-05-29T08:13:48Z</time>
      </trkpt>
      <trkpt lat="42.469799" lon="2.081103">
        <ele>1588.400</ele>
        <time>2019-05-29T08:13:49Z</time>
      </trkpt>
      <trkpt lat="42.469855" lon="2.081216">
        <ele>1587.620</ele>
        <time>2019-05-29T08:13:51Z</time>
      </trkpt>
      <trkpt lat="42.469934" lon="2.081324">
        <ele>1586.608</ele>
        <time>2019-05-29T08:13:53Z</time>
      </trkpt>
      <trkpt lat="42.469973" lon="2.081375">
        <ele>1586.445</ele>
        <time>2019-05-29T08:13:54Z</time>
      </trkpt>
      <trkpt lat="42.470047" lon="2.081484">
        <ele>1584.829</ele>
        <time>2019-05-29T08:13:56Z</time>
      </trkpt>
      <trkpt lat="42.470078" lon="2.081540">
        <ele>1585.085</ele>
        <time>2019-05-29T08:13:57Z</time>
      </trkpt>
      <trkpt lat="42.470126" lon="2.081665">
        <ele>1586.673</ele>
        <time>2019-05-29T08:13:59Z</time>
      </trkpt>
      <trkpt lat="42.470119" lon="2.081939">
        <ele>1586.466</ele>
        <time>2019-05-29T08:14:03Z</time>
      </trkpt>
      <trkpt lat="42.469989" lon="2.082165">
        <ele>1586.876</ele>
        <time>2019-05-29T08:14:07Z</time>
      </trkpt>
      <trkpt lat="42.469946" lon="2.082218">
        <ele>1586.698</ele>
        <time>2019-05-29T08:14:08Z</time>
      </trkpt>
      <trkpt lat="42.469862" lon="2.082328">
        <ele>1586.463</ele>
        <time>2019-05-29T08:14:10Z</time>
      </trkpt>
      <trkpt lat="42.469816" lon="2.082475">
        <ele>1586.263</ele>
        <time>2019-05-29T08:14:12Z</time>
      </trkpt>
      <trkpt lat="42.469831" lon="2.082649">
        <ele>1585.044</ele>
        <time>2019-05-29T08:14:14Z</time>
      </trkpt>
      <trkpt lat="42.469863" lon="2.082730">
        <ele>1583.618</ele>
        <time>2019-05-29T08:14:15Z</time>
      </trkpt>
      <trkpt lat="42.469908" lon="2.082808">
        <ele>1582.208</ele>
        <time>2019-05-29T08:14:16Z</time>
      </trkpt>
      <trkpt lat="42.470008" lon="2.082958">
        <ele>1581.239</ele>
        <time>2019-05-29T08:14:18Z</time>
      </trkpt>
      <trkpt lat="42.470060" lon="2.083035">
        <ele>1580.623</ele>
        <time>2019-05-29T08:14:19Z</time>
      </trkpt>
      <trkpt lat="42.470110" lon="2.083113">
        <ele>1580.019</ele>
        <time>2019-05-29T08:14:20Z</time>
      </trkpt>
      <trkpt lat="42.470169" lon="2.083175">
        <ele>1579.667</ele>
        <time>2019-05-29T08:14:21Z</time>
      </trkpt>
      <trkpt lat="42.470319" lon="2.083238">
        <ele>1578.640</ele>
        <time>2019-05-29T08:14:23Z</time>
      </trkpt>
      <trkpt lat="42.470487" lon="2.083260">
        <ele>1577.030</ele>
        <time>2019-05-29T08:14:25Z</time>
      </trkpt>
      <trkpt lat="42.470663" lon="2.083279">
        <ele>1576.032</ele>
        <time>2019-05-29T08:14:27Z</time>
      </trkpt>
      <trkpt lat="42.470751" lon="2.083283">
        <ele>1575.017</ele>
        <time>2019-05-29T08:14:28Z</time>
      </trkpt>
      <trkpt lat="42.470842" lon="2.083290">
        <ele>1574.262</ele>
        <time>2019-05-29T08:14:29Z</time>
      </trkpt>
      <trkpt lat="42.471027" lon="2.083308">
        <ele>1572.883</ele>
        <time>2019-05-29T08:14:31Z</time>
      </trkpt>
      <trkpt lat="42.471196" lon="2.083315">
        <ele>1572.411</ele>
        <time>2019-05-29T08:14:33Z</time>
      </trkpt>
      <trkpt lat="42.471263" lon="2.083305">
        <ele>1572.408</ele>
        <time>2019-05-29T08:14:34Z</time>
      </trkpt>
      <trkpt lat="42.471399" lon="2.083255">
        <ele>1572.299</ele>
        <time>2019-05-29T08:14:36Z</time>
      </trkpt>
      <trkpt lat="42.471542" lon="2.083176">
        <ele>1571.483</ele>
        <time>2019-05-29T08:14:38Z</time>
      </trkpt>
      <trkpt lat="42.471603" lon="2.083126">
        <ele>1570.839</ele>
        <time>2019-05-29T08:14:39Z</time>
      </trkpt>
      <trkpt lat="42.471659" lon="2.083074">
        <ele>1570.447</ele>
        <time>2019-05-29T08:14:40Z</time>
      </trkpt>
      <trkpt lat="42.471829" lon="2.082913">
        <ele>1569.040</ele>
        <time>2019-05-29T08:14:43Z</time>
      </trkpt>
      <trkpt lat="42.471940" lon="2.082797">
        <ele>1567.890</ele>
        <time>2019-05-29T08:14:45Z</time>
      </trkpt>
      <trkpt lat="42.472046" lon="2.082693">
        <ele>1567.672</ele>
        <time>2019-05-29T08:14:47Z</time>
      </trkpt>
      <trkpt lat="42.472308" lon="2.082466">
        <ele>1566.437</ele>
        <time>2019-05-29T08:14:52Z</time>
      </trkpt>
      <trkpt lat="42.472359" lon="2.082420">
        <ele>1566.264</ele>
        <time>2019-05-29T08:14:53Z</time>
      </trkpt>
      <trkpt lat="42.472453" lon="2.082321">
        <ele>1565.006</ele>
        <time>2019-05-29T08:14:55Z</time>
      </trkpt>
      <trkpt lat="42.472546" lon="2.082218">
        <ele>1563.816</ele>
        <time>2019-05-29T08:14:57Z</time>
      </trkpt>
      <trkpt lat="42.472630" lon="2.082122">
        <ele>1563.208</ele>
        <time>2019-05-29T08:14:59Z</time>
      </trkpt>
      <trkpt lat="42.472709" lon="2.082015">
        <ele>1562.019</ele>
        <time>2019-05-29T08:15:01Z</time>
      </trkpt>
      <trkpt lat="42.472744" lon="2.081966">
        <ele>1560.863</ele>
        <time>2019-05-29T08:15:03Z</time>
      </trkpt>
      <trkpt lat="42.472754" lon="2.081999">
        <ele>1561.659</ele>
        <time>2019-05-29T08:15:06Z</time>
      </trkpt>
      <trkpt lat="42.472747" lon="2.082007">
        <ele>1562.017</ele>
        <time>2019-05-29T08:15:07Z</time>
      </trkpt>
      <trkpt lat="42.472716" lon="2.082015">
        <ele>1562.610</ele>
        <time>2019-05-29T08:15:12Z</time>
      </trkpt>
      <trkpt lat="42.472652" lon="2.082069">
        <ele>1562.660</ele>
        <time>2019-05-29T08:15:17Z</time>
      </trkpt>
      <trkpt lat="42.472657" lon="2.082129">
        <ele>1563.082</ele>
        <time>2019-05-29T08:15:19Z</time>
      </trkpt>
      <trkpt lat="42.472680" lon="2.082187">
        <ele>1563.657</ele>
        <time>2019-05-29T08:15:21Z</time>
      </trkpt>
      <trkpt lat="42.472789" lon="2.082304">
        <ele>1564.252</ele>
        <time>2019-05-29T08:15:26Z</time>
      </trkpt>
      <trkpt lat="42.472815" lon="2.082324">
        <ele>1564.653</ele>
        <time>2019-05-29T08:15:27Z</time>
      </trkpt>
      <trkpt lat="42.472871" lon="2.082348">
        <ele>1565.208</ele>
        <time>2019-05-29T08:15:29Z</time>
      </trkpt>
      <trkpt lat="42.472987" lon="2.082349">
        <ele>1565.608</ele>
        <time>2019-05-29T08:15:33Z</time>
      </trkpt>
      <trkpt lat="42.473097" lon="2.082298">
        <ele>1566.268</ele>
        <time>2019-05-29T08:15:37Z</time>
      </trkpt>
      <trkpt lat="42.473153" lon="2.082259">
        <ele>1566.272</ele>
        <time>2019-05-29T08:15:39Z</time>
      </trkpt>
      <trkpt lat="42.473362" lon="2.082108">
        <ele>1566.468</ele>
        <time>2019-05-29T08:15:46Z</time>
      </trkpt>
      <trkpt lat="42.473545" lon="2.081971">
        <ele>1566.876</ele>
        <time>2019-05-29T08:15:52Z</time>
      </trkpt>
      <trkpt lat="42.473603" lon="2.081935">
        <ele>1567.499</ele>
        <time>2019-05-29T08:15:54Z</time>
      </trkpt>
      <trkpt lat="42.473717" lon="2.081905">
        <ele>1567.849</ele>
        <time>2019-05-29T08:15:58Z</time>
      </trkpt>
      <trkpt lat="42.473789" lon="2.081880">
        <ele>1568.481</ele>
        <time>2019-05-29T08:16:01Z</time>
      </trkpt>
      <trkpt lat="42.473833" lon="2.081880">
        <ele>1569.446</ele>
        <time>2019-05-29T08:16:03Z</time>
      </trkpt>
      <trkpt lat="42.473854" lon="2.081875">
        <ele>1570.015</ele>
        <time>2019-05-29T08:16:04Z</time>
      </trkpt>
      <trkpt lat="42.473958" lon="2.081850">
        <ele>1570.665</ele>
        <time>2019-05-29T08:16:09Z</time>
      </trkpt>
      <trkpt lat="42.474031" lon="2.081842">
        <ele>1570.411</ele>
        <time>2019-05-29T08:16:13Z</time>
      </trkpt>
      <trkpt lat="42.474131" lon="2.081871">
        <ele>1571.608</ele>
        <time>2019-05-29T08:16:19Z</time>
      </trkpt>
      <trkpt lat="42.474179" lon="2.081919">
        <ele>1572.484</ele>
        <time>2019-05-29T08:16:22Z</time>
      </trkpt>
      <trkpt lat="42.474191" lon="2.081942">
        <ele>1572.898</ele>
        <time>2019-05-29T08:16:23Z</time>
      </trkpt>
      <trkpt lat="42.474228" lon="2.082115">
        <ele>1573.674</ele>
        <time>2019-05-29T08:16:29Z</time>
      </trkpt>
      <trkpt lat="42.474244" lon="2.082216">
        <ele>1573.872</ele>
        <time>2019-05-29T08:16:32Z</time>
      </trkpt>
      <trkpt lat="42.474278" lon="2.082364">
        <ele>1574.035</ele>
        <time>2019-05-29T08:16:36Z</time>
      </trkpt>
      <trkpt lat="42.474401" lon="2.082629">
        <ele>1573.615</ele>
        <time>2019-05-29T08:16:44Z</time>
      </trkpt>
      <trkpt lat="42.474546" lon="2.082724">
        <ele>1573.897</ele>
        <time>2019-05-29T08:16:50Z</time>
      </trkpt>
      <trkpt lat="42.474690" lon="2.082723">
        <ele>1575.012</ele>
        <time>2019-05-29T08:16:56Z</time>
      </trkpt>
      <trkpt lat="42.474838" lon="2.082686">
        <ele>1576.032</ele>
        <time>2019-05-29T08:17:02Z</time>
      </trkpt>
      <trkpt lat="42.474907" lon="2.082664">
        <ele>1576.692</ele>
        <time>2019-05-29T08:17:05Z</time>
      </trkpt>
      <trkpt lat="42.474953" lon="2.082648">
        <ele>1577.011</ele>
        <time>2019-05-29T08:17:07Z</time>
      </trkpt>
      <trkpt lat="42.475125" lon="2.082590">
        <ele>1577.808</ele>
        <time>2019-05-29T08:17:14Z</time>
      </trkpt>
      <trkpt lat="42.475228" lon="2.082571">
        <ele>1578.216</ele>
        <time>2019-05-29T08:17:18Z</time>
      </trkpt>
      <trkpt lat="42.475303" lon="2.082557">
        <ele>1579.430</ele>
        <time>2019-05-29T08:17:21Z</time>
      </trkpt>
      <trkpt lat="42.475353" lon="2.082555">
        <ele>1579.256</ele>
        <time>2019-05-29T08:17:23Z</time>
      </trkpt>
      <trkpt lat="42.475580" lon="2.082589">
        <ele>1579.224</ele>
        <time>2019-05-29T08:17:32Z</time>
      </trkpt>
      <trkpt lat="42.475729" lon="2.082676">
        <ele>1579.667</ele>
        <time>2019-05-29T08:17:37Z</time>
      </trkpt>
      <trkpt lat="42.475863" lon="2.082801">
        <ele>1578.427</ele>
        <time>2019-05-29T08:17:41Z</time>
      </trkpt>
      <trkpt lat="42.475931" lon="2.082885">
        <ele>1578.029</ele>
        <time>2019-05-29T08:17:43Z</time>
      </trkpt>
      <trkpt lat="42.476075" lon="2.083075">
        <ele>1577.214</ele>
        <time>2019-05-29T08:17:47Z</time>
      </trkpt>
      <trkpt lat="42.476218" lon="2.083206">
        <ele>1576.046</ele>
        <time>2019-05-29T08:17:50Z</time>
      </trkpt>
      <trkpt lat="42.476273" lon="2.083237">
        <ele>1575.688</ele>
        <time>2019-05-29T08:17:51Z</time>
      </trkpt>
      <trkpt lat="42.476453" lon="2.083272">
        <ele>1574.816</ele>
        <time>2019-05-29T08:17:54Z</time>
      </trkpt>
      <trkpt lat="42.476620" lon="2.083222">
        <ele>1574.808</ele>
        <time>2019-05-29T08:17:57Z</time>
      </trkpt>
      <trkpt lat="42.476668" lon="2.083196">
        <ele>1575.097</ele>
        <time>2019-05-29T08:17:58Z</time>
      </trkpt>
      <trkpt lat="42.476786" lon="2.083087">
        <ele>1576.291</ele>
        <time>2019-05-29T08:18:01Z</time>
      </trkpt>
      <trkpt lat="42.476817" lon="2.083047">
        <ele>1576.467</ele>
        <time>2019-05-29T08:18:02Z</time>
      </trkpt>
      <trkpt lat="42.476883" lon="2.082927">
        <ele>1577.665</ele>
        <time>2019-05-29T08:18:05Z</time>
      </trkpt>
      <trkpt lat="42.476947" lon="2.082811">
        <ele>1578.058</ele>
        <time>2019-05-29T08:18:08Z</time>
      </trkpt>
      <trkpt lat="42.477014" lon="2.082721">
        <ele>1578.628</ele>
        <time>2019-05-29T08:18:11Z</time>
      </trkpt>
      <trkpt lat="42.477113" lon="2.082621">
        <ele>1579.250</ele>
        <time>2019-05-29T08:18:15Z</time>
      </trkpt>
      <trkpt lat="42.477258" lon="2.082525">
        <ele>1579.815</ele>
        <time>2019-05-29T08:18:20Z</time>
      </trkpt>
      <trkpt lat="42.477285" lon="2.082514">
        <ele>1580.015</ele>
        <time>2019-05-29T08:18:21Z</time>
      </trkpt>
      <trkpt lat="42.477392" lon="2.082484">
        <ele>1580.865</ele>
        <time>2019-05-29T08:18:25Z</time>
      </trkpt>
      <trkpt lat="42.477471" lon="2.082472">
        <ele>1580.611</ele>
        <time>2019-05-29T08:18:28Z</time>
      </trkpt>
      <trkpt lat="42.477652" lon="2.082467">
        <ele>1581.808</ele>
        <time>2019-05-29T08:18:35Z</time>
      </trkpt>
      <trkpt lat="42.477701" lon="2.082485">
        <ele>1582.284</ele>
        <time>2019-05-29T08:18:37Z</time>
      </trkpt>
      <trkpt lat="42.477805" lon="2.082547">
        <ele>1583.088</ele>
        <time>2019-05-29T08:18:41Z</time>
      </trkpt>
      <trkpt lat="42.477946" lon="2.082654">
        <ele>1583.894</ele>
        <time>2019-05-29T08:18:47Z</time>
      </trkpt>
      <trkpt lat="42.477991" lon="2.082699">
        <ele>1584.082</ele>
        <time>2019-05-29T08:18:49Z</time>
      </trkpt>
      <trkpt lat="42.478086" lon="2.082783">
        <ele>1585.215</ele>
        <time>2019-05-29T08:18:53Z</time>
      </trkpt>
      <trkpt lat="42.478179" lon="2.082863">
        <ele>1585.685</ele>
        <time>2019-05-29T08:18:57Z</time>
      </trkpt>
      <trkpt lat="42.478245" lon="2.082923">
        <ele>1586.297</ele>
        <time>2019-05-29T08:19:00Z</time>
      </trkpt>
      <trkpt lat="42.478416" lon="2.083097">
        <ele>1586.042</ele>
        <time>2019-05-29T08:19:08Z</time>
      </trkpt>
      <trkpt lat="42.478575" lon="2.083346">
        <ele>1587.271</ele>
        <time>2019-05-29T08:19:17Z</time>
      </trkpt>
      <trkpt lat="42.478720" lon="2.083586">
        <ele>1587.641</ele>
        <time>2019-05-29T08:19:25Z</time>
      </trkpt>
      <trkpt lat="42.478836" lon="2.083768">
        <ele>1588.415</ele>
        <time>2019-05-29T08:19:31Z</time>
      </trkpt>
      <trkpt lat="42.478855" lon="2.083802">
        <ele>1588.608</ele>
        <time>2019-05-29T08:19:32Z</time>
      </trkpt>
      <trkpt lat="42.479038" lon="2.084107">
        <ele>1589.010</ele>
        <time>2019-05-29T08:19:42Z</time>
      </trkpt>
      <trkpt lat="42.479254" lon="2.084478">
        <ele>1589.014</ele>
        <time>2019-05-29T08:19:53Z</time>
      </trkpt>
      <trkpt lat="42.479445" lon="2.084789">
        <ele>1589.020</ele>
        <time>2019-05-29T08:20:01Z</time>
      </trkpt>
      <trkpt lat="42.479669" lon="2.085126">
        <ele>1589.438</ele>
        <time>2019-05-29T08:20:10Z</time>
      </trkpt>
      <trkpt lat="42.479866" lon="2.085415">
        <ele>1589.491</ele>
        <time>2019-05-29T08:20:18Z</time>
      </trkpt>
      <trkpt lat="42.479918" lon="2.085487">
        <ele>1589.671</ele>
        <time>2019-05-29T08:20:20Z</time>
      </trkpt>
      <trkpt lat="42.480154" lon="2.085800">
        <ele>1590.093</ele>
        <time>2019-05-29T08:20:29Z</time>
      </trkpt>
      <trkpt lat="42.480241" lon="2.085893">
        <ele>1590.698</ele>
        <time>2019-05-29T08:20:32Z</time>
      </trkpt>
      <trkpt lat="42.480394" lon="2.086034">
        <ele>1590.283</ele>
        <time>2019-05-29T08:20:37Z</time>
      </trkpt>
      <trkpt lat="42.480649" lon="2.086219">
        <ele>1591.425</ele>
        <time>2019-05-29T08:20:45Z</time>
      </trkpt>
      <trkpt lat="42.480770" lon="2.086321">
        <ele>1591.617</ele>
        <time>2019-05-29T08:20:49Z</time>
      </trkpt>
      <trkpt lat="42.480867" lon="2.086390">
        <ele>1592.208</ele>
        <time>2019-05-29T08:20:52Z</time>
      </trkpt>
      <trkpt lat="42.481150" lon="2.086622">
        <ele>1592.211</ele>
        <time>2019-05-29T08:21:01Z</time>
      </trkpt>
      <trkpt lat="42.481438" lon="2.086834">
        <ele>1592.055</ele>
        <time>2019-05-29T08:21:10Z</time>
      </trkpt>
      <trkpt lat="42.481690" lon="2.086973">
        <ele>1592.871</ele>
        <time>2019-05-29T08:21:18Z</time>
      </trkpt>
      <trkpt lat="42.481783" lon="2.087025">
        <ele>1593.059</ele>
        <time>2019-05-29T08:21:21Z</time>
      </trkpt>
      <trkpt lat="42.482115" lon="2.087209">
        <ele>1593.852</ele>
        <time>2019-05-29T08:21:31Z</time>
      </trkpt>
      <trkpt lat="42.482144" lon="2.087228">
        <ele>1594.012</ele>
        <time>2019-05-29T08:21:32Z</time>
      </trkpt>
      <trkpt lat="42.482346" lon="2.087340">
        <ele>1594.814</ele>
        <time>2019-05-29T08:21:39Z</time>
      </trkpt>
      <trkpt lat="42.482401" lon="2.087369">
        <ele>1595.229</ele>
        <time>2019-05-29T08:21:41Z</time>
      </trkpt>
      <trkpt lat="42.482508" lon="2.087434">
        <ele>1596.299</ele>
        <time>2019-05-29T08:21:45Z</time>
      </trkpt>
      <trkpt lat="42.482648" lon="2.087508">
        <ele>1596.807</ele>
        <time>2019-05-29T08:21:50Z</time>
      </trkpt>
      <trkpt lat="42.482733" lon="2.087556">
        <ele>1597.427</ele>
        <time>2019-05-29T08:21:53Z</time>
      </trkpt>
      <trkpt lat="42.482903" lon="2.087656">
        <ele>1598.208</ele>
        <time>2019-05-29T08:21:59Z</time>
      </trkpt>
      <trkpt lat="42.482929" lon="2.087669">
        <ele>1598.462</ele>
        <time>2019-05-29T08:22:00Z</time>
      </trkpt>
      <trkpt lat="42.483154" lon="2.087798">
        <ele>1599.076</ele>
        <time>2019-05-29T08:22:08Z</time>
      </trkpt>
      <trkpt lat="42.483206" lon="2.087833">
        <ele>1599.482</ele>
        <time>2019-05-29T08:22:10Z</time>
      </trkpt>
      <trkpt lat="42.483434" lon="2.087957">
        <ele>1600.270</ele>
        <time>2019-05-29T08:22:18Z</time>
      </trkpt>
      <trkpt lat="42.483519" lon="2.088007">
        <ele>1600.643</ele>
        <time>2019-05-29T08:22:21Z</time>
      </trkpt>
      <trkpt lat="42.483697" lon="2.088103">
        <ele>1600.853</ele>
        <time>2019-05-29T08:22:27Z</time>
      </trkpt>
      <trkpt lat="42.483861" lon="2.088181">
        <ele>1601.825</ele>
        <time>2019-05-29T08:22:33Z</time>
      </trkpt>
      <trkpt lat="42.483915" lon="2.088196">
        <ele>1602.020</ele>
        <time>2019-05-29T08:22:35Z</time>
      </trkpt>
      <trkpt lat="42.484080" lon="2.088230">
        <ele>1602.863</ele>
        <time>2019-05-29T08:22:41Z</time>
      </trkpt>
      <trkpt lat="42.484174" lon="2.088237">
        <ele>1603.244</ele>
        <time>2019-05-29T08:22:45Z</time>
      </trkpt>
      <trkpt lat="42.484298" lon="2.088222">
        <ele>1603.818</ele>
        <time>2019-05-29T08:22:50Z</time>
      </trkpt>
      <trkpt lat="42.484426" lon="2.088209">
        <ele>1604.608</ele>
        <time>2019-05-29T08:22:55Z</time>
      </trkpt>
      <trkpt lat="42.484476" lon="2.088199">
        <ele>1605.229</ele>
        <time>2019-05-29T08:22:57Z</time>
      </trkpt>
      <trkpt lat="42.484664" lon="2.088167">
        <ele>1606.213</ele>
        <time>2019-05-29T08:23:04Z</time>
      </trkpt>
      <trkpt lat="42.484872" lon="2.088120">
        <ele>1607.269</ele>
        <time>2019-05-29T08:23:12Z</time>
      </trkpt>
      <trkpt lat="42.484904" lon="2.088116">
        <ele>1607.637</ele>
        <time>2019-05-29T08:23:13Z</time>
      </trkpt>
      <trkpt lat="42.485007" lon="2.088095">
        <ele>1607.860</ele>
        <time>2019-05-29T08:23:17Z</time>
      </trkpt>
      <trkpt lat="42.485145" lon="2.088073">
        <ele>1608.640</ele>
        <time>2019-05-29T08:23:22Z</time>
      </trkpt>
      <trkpt lat="42.485227" lon="2.088062">
        <ele>1608.262</ele>
        <time>2019-05-29T08:23:25Z</time>
      </trkpt>
      <trkpt lat="42.485453" lon="2.088061">
        <ele>1607.477</ele>
        <time>2019-05-29T08:23:32Z</time>
      </trkpt>
      <trkpt lat="42.485494" lon="2.088065">
        <ele>1607.237</ele>
        <time>2019-05-29T08:23:33Z</time>
      </trkpt>
      <trkpt lat="42.485537" lon="2.088076">
        <ele>1607.049</ele>
        <time>2019-05-29T08:23:34Z</time>
      </trkpt>
      <trkpt lat="42.485671" lon="2.088133">
        <ele>1606.213</ele>
        <time>2019-05-29T08:23:37Z</time>
      </trkpt>
      <trkpt lat="42.485719" lon="2.088159">
        <ele>1606.008</ele>
        <time>2019-05-29T08:23:38Z</time>
      </trkpt>
      <trkpt lat="42.485815" lon="2.088228">
        <ele>1605.096</ele>
        <time>2019-05-29T08:23:40Z</time>
      </trkpt>
      <trkpt lat="42.486013" lon="2.088389">
        <ele>1604.230</ele>
        <time>2019-05-29T08:23:44Z</time>
      </trkpt>
      <trkpt lat="42.486061" lon="2.088433">
        <ele>1603.426</ele>
        <time>2019-05-29T08:23:45Z</time>
      </trkpt>
      <trkpt lat="42.486160" lon="2.088521">
        <ele>1602.424</ele>
        <time>2019-05-29T08:23:47Z</time>
      </trkpt>
      <trkpt lat="42.486360" lon="2.088697">
        <ele>1601.817</ele>
        <time>2019-05-29T08:23:51Z</time>
      </trkpt>
      <trkpt lat="42.486461" lon="2.088786">
        <ele>1601.297</ele>
        <time>2019-05-29T08:23:53Z</time>
      </trkpt>
      <trkpt lat="42.486721" lon="2.089010">
        <ele>1600.029</ele>
        <time>2019-05-29T08:23:58Z</time>
      </trkpt>
      <trkpt lat="42.486831" lon="2.089110">
        <ele>1599.294</ele>
        <time>2019-05-29T08:24:00Z</time>
      </trkpt>
      <trkpt lat="42.487059" lon="2.089310">
        <ele>1599.037</ele>
        <time>2019-05-29T08:24:04Z</time>
      </trkpt>
      <trkpt lat="42.487328" lon="2.089549">
        <ele>1599.049</ele>
        <time>2019-05-29T08:24:09Z</time>
      </trkpt>
      <trkpt lat="42.487779" lon="2.089975">
        <ele>1598.813</ele>
        <time>2019-05-29T08:24:18Z</time>
      </trkpt>
      <trkpt lat="42.487980" lon="2.090216">
        <ele>1597.608</ele>
        <time>2019-05-29T08:24:22Z</time>
      </trkpt>
      <trkpt lat="42.488072" lon="2.090355">
        <ele>1596.426</ele>
        <time>2019-05-29T08:24:24Z</time>
      </trkpt>
      <trkpt lat="42.488195" lon="2.090594">
        <ele>1595.490</ele>
        <time>2019-05-29T08:24:27Z</time>
      </trkpt>
      <trkpt lat="42.488309" lon="2.090854">
        <ele>1594.266</ele>
        <time>2019-05-29T08:24:30Z</time>
      </trkpt>
      <trkpt lat="42.488374" lon="2.091032">
        <ele>1592.834</ele>
        <time>2019-05-29T08:24:32Z</time>
      </trkpt>
      <trkpt lat="42.488528" lon="2.091456">
        <ele>1592.047</ele>
        <time>2019-05-29T08:24:37Z</time>
      </trkpt>
      <trkpt lat="42.488560" lon="2.091541">
        <ele>1591.637</ele>
        <time>2019-05-29T08:24:38Z</time>
      </trkpt>
      <trkpt lat="42.488806" lon="2.092226">
        <ele>1590.459</ele>
        <time>2019-05-29T08:24:46Z</time>
      </trkpt>
      <trkpt lat="42.488880" lon="2.092381">
        <ele>1589.894</ele>
        <time>2019-05-29T08:24:48Z</time>
      </trkpt>
      <trkpt lat="42.488970" lon="2.092510">
        <ele>1589.466</ele>
        <time>2019-05-29T08:24:50Z</time>
      </trkpt>
      <trkpt lat="42.489022" lon="2.092564">
        <ele>1589.629</ele>
        <time>2019-05-29T08:24:51Z</time>
      </trkpt>
      <trkpt lat="42.489074" lon="2.092617">
        <ele>1589.621</ele>
        <time>2019-05-29T08:24:52Z</time>
      </trkpt>
      <trkpt lat="42.489300" lon="2.092760">
        <ele>1590.008</ele>
        <time>2019-05-29T08:24:56Z</time>
      </trkpt>
      <trkpt lat="42.489640" lon="2.092878">
        <ele>1589.879</ele>
        <time>2019-05-29T08:25:02Z</time>
      </trkpt>
      <trkpt lat="42.489901" lon="2.092974">
        <ele>1588.413</ele>
        <time>2019-05-29T08:25:07Z</time>
      </trkpt>
      <trkpt lat="42.489979" lon="2.093062">
        <ele>1589.069</ele>
        <time>2019-05-29T08:25:09Z</time>
      </trkpt>
      <trkpt lat="42.490155" lon="2.093316">
        <ele>1590.247</ele>
        <time>2019-05-29T08:25:15Z</time>
      </trkpt>
      <trkpt lat="42.490300" lon="2.093536">
        <ele>1590.640</ele>
        <time>2019-05-29T08:25:21Z</time>
      </trkpt>
      <trkpt lat="42.490323" lon="2.093571">
        <ele>1591.070</ele>
        <time>2019-05-29T08:25:22Z</time>
      </trkpt>
      <trkpt lat="42.490511" lon="2.093848">
        <ele>1591.662</ele>
        <time>2019-05-29T08:25:30Z</time>
      </trkpt>
      <trkpt lat="42.490532" lon="2.093884">
        <ele>1593.277</ele>
        <time>2019-05-29T08:25:31Z</time>
      </trkpt>
      <trkpt lat="42.490607" lon="2.093989">
        <ele>1591.694</ele>
        <time>2019-05-29T08:25:34Z</time>
      </trkpt>
      <trkpt lat="42.490683" lon="2.094098">
        <ele>1590.857</ele>
        <time>2019-05-29T08:25:37Z</time>
      </trkpt>
      <trkpt lat="42.490736" lon="2.094176">
        <ele>1592.822</ele>
        <time>2019-05-29T08:25:39Z</time>
      </trkpt>
      <trkpt lat="42.490883" lon="2.094374">
        <ele>1592.208</ele>
        <time>2019-05-29T08:25:44Z</time>
      </trkpt>
      <trkpt lat="42.490915" lon="2.094414">
        <ele>1592.232</ele>
        <time>2019-05-29T08:25:45Z</time>
      </trkpt>
      <trkpt lat="42.491004" lon="2.094539">
        <ele>1591.626</ele>
        <time>2019-05-29T08:25:48Z</time>
      </trkpt>
      <trkpt lat="42.491060" lon="2.094623">
        <ele>1591.412</ele>
        <time>2019-05-29T08:25:50Z</time>
      </trkpt>
      <trkpt lat="42.491111" lon="2.094714">
        <ele>1591.460</ele>
        <time>2019-05-29T08:25:52Z</time>
      </trkpt>
      <trkpt lat="42.491303" lon="2.095114">
        <ele>1591.423</ele>
        <time>2019-05-29T08:26:00Z</time>
      </trkpt>
      <trkpt lat="42.491382" lon="2.095450">
        <ele>1591.443</ele>
        <time>2019-05-29T08:26:06Z</time>
      </trkpt>
      <trkpt lat="42.491399" lon="2.095508">
        <ele>1591.455</ele>
        <time>2019-05-29T08:26:07Z</time>
      </trkpt>
      <trkpt lat="42.491515" lon="2.095891">
        <ele>1591.620</ele>
        <time>2019-05-29T08:26:14Z</time>
      </trkpt>
      <trkpt lat="42.491599" lon="2.096191">
        <ele>1592.272</ele>
        <time>2019-05-29T08:26:20Z</time>
      </trkpt>
      <trkpt lat="42.491688" lon="2.096478">
        <ele>1592.613</ele>
        <time>2019-05-29T08:26:26Z</time>
      </trkpt>
      <trkpt lat="42.491773" lon="2.096802">
        <ele>1592.014</ele>
        <time>2019-05-29T08:26:33Z</time>
      </trkpt>
      <trkpt lat="42.491869" lon="2.097133">
        <ele>1591.808</ele>
        <time>2019-05-29T08:26:40Z</time>
      </trkpt>
      <trkpt lat="42.491954" lon="2.097470">
        <ele>1592.610</ele>
        <time>2019-05-29T08:26:47Z</time>
      </trkpt>
      <trkpt lat="42.491969" lon="2.097519">
        <ele>1592.614</ele>
        <time>2019-05-29T08:26:48Z</time>
      </trkpt>
      <trkpt lat="42.492071" lon="2.097866">
        <ele>1592.070</ele>
        <time>2019-05-29T08:26:55Z</time>
      </trkpt>
      <trkpt lat="42.492169" lon="2.098128">
        <ele>1591.678</ele>
        <time>2019-05-29T08:27:00Z</time>
      </trkpt>
      <trkpt lat="42.492234" lon="2.098293">
        <ele>1591.091</ele>
        <time>2019-05-29T08:27:03Z</time>
      </trkpt>
      <trkpt lat="42.492347" lon="2.098588">
        <ele>1590.641</ele>
        <time>2019-05-29T08:27:08Z</time>
      </trkpt>
      <trkpt lat="42.492408" lon="2.098780">
        <ele>1590.423</ele>
        <time>2019-05-29T08:27:11Z</time>
      </trkpt>
      <trkpt lat="42.492434" lon="2.098920">
        <ele>1589.888</ele>
        <time>2019-05-29T08:27:13Z</time>
      </trkpt>
      <trkpt lat="42.492437" lon="2.098994">
        <ele>1589.673</ele>
        <time>2019-05-29T08:27:14Z</time>
      </trkpt>
      <trkpt lat="42.492426" lon="2.099146">
        <ele>1589.485</ele>
        <time>2019-05-29T08:27:16Z</time>
      </trkpt>
      <trkpt lat="42.492417" lon="2.099293">
        <ele>1589.613</ele>
        <time>2019-05-29T08:27:18Z</time>
      </trkpt>
      <trkpt lat="42.492411" lon="2.099498">
        <ele>1588.608</ele>
        <time>2019-05-29T08:27:21Z</time>
      </trkpt>
      <trkpt lat="42.492413" lon="2.099559">
        <ele>1588.480</ele>
        <time>2019-05-29T08:27:22Z</time>
      </trkpt>
      <trkpt lat="42.492408" lon="2.099622">
        <ele>1588.434</ele>
        <time>2019-05-29T08:27:23Z</time>
      </trkpt>
      <trkpt lat="42.492390" lon="2.099739">
        <ele>1589.060</ele>
        <time>2019-05-29T08:27:25Z</time>
      </trkpt>
      <trkpt lat="42.492372" lon="2.099794">
        <ele>1589.068</ele>
        <time>2019-05-29T08:27:26Z</time>
      </trkpt>
      <trkpt lat="42.492267" lon="2.099996">
        <ele>1589.211</ele>
        <time>2019-05-29T08:27:30Z</time>
      </trkpt>
      <trkpt lat="42.492209" lon="2.100077">
        <ele>1589.411</ele>
        <time>2019-05-29T08:27:32Z</time>
      </trkpt>
      <trkpt lat="42.492101" lon="2.100250">
        <ele>1589.673</ele>
        <time>2019-05-29T08:27:36Z</time>
      </trkpt>
      <trkpt lat="42.492075" lon="2.100302">
        <ele>1589.698</ele>
        <time>2019-05-29T08:27:37Z</time>
      </trkpt>
      <trkpt lat="42.491968" lon="2.100444">
        <ele>1589.479</ele>
        <time>2019-05-29T08:27:40Z</time>
      </trkpt>
      <trkpt lat="42.491886" lon="2.100535">
        <ele>1589.605</ele>
        <time>2019-05-29T08:27:42Z</time>
      </trkpt>
      <trkpt lat="42.491806" lon="2.100625">
        <ele>1589.225</ele>
        <time>2019-05-29T08:27:44Z</time>
      </trkpt>
      <trkpt lat="42.491691" lon="2.100749">
        <ele>1589.608</ele>
        <time>2019-05-29T08:27:47Z</time>
      </trkpt>
      <trkpt lat="42.491489" lon="2.100916">
        <ele>1590.280</ele>
        <time>2019-05-29T08:27:52Z</time>
      </trkpt>
      <trkpt lat="42.491449" lon="2.100941">
        <ele>1590.244</ele>
        <time>2019-05-29T08:27:53Z</time>
      </trkpt>
      <trkpt lat="42.491410" lon="2.100977">
        <ele>1590.070</ele>
        <time>2019-05-29T08:27:54Z</time>
      </trkpt>
      <trkpt lat="42.491318" lon="2.101113">
        <ele>1589.238</ele>
        <time>2019-05-29T08:27:57Z</time>
      </trkpt>
      <trkpt lat="42.491264" lon="2.101216">
        <ele>1589.461</ele>
        <time>2019-05-29T08:27:59Z</time>
      </trkpt>
      <trkpt lat="42.491201" lon="2.101385">
        <ele>1589.651</ele>
        <time>2019-05-29T08:28:02Z</time>
      </trkpt>
      <trkpt lat="42.491176" lon="2.101500">
        <ele>1589.883</ele>
        <time>2019-05-29T08:28:04Z</time>
      </trkpt>
      <trkpt lat="42.491159" lon="2.101686">
        <ele>1588.828</ele>
        <time>2019-05-29T08:28:07Z</time>
      </trkpt>
      <trkpt lat="42.491156" lon="2.101747">
        <ele>1588.478</ele>
        <time>2019-05-29T08:28:08Z</time>
      </trkpt>
      <trkpt lat="42.491161" lon="2.101807">
        <ele>1588.233</ele>
        <time>2019-05-29T08:28:09Z</time>
      </trkpt>
      <trkpt lat="42.491196" lon="2.101981">
        <ele>1587.626</ele>
        <time>2019-05-29T08:28:12Z</time>
      </trkpt>
      <trkpt lat="42.491196" lon="2.102038">
        <ele>1587.608</ele>
        <time>2019-05-29T08:28:13Z</time>
      </trkpt>
      <trkpt lat="42.491189" lon="2.102217">
        <ele>1588.050</ele>
        <time>2019-05-29T08:28:16Z</time>
      </trkpt>
      <trkpt lat="42.491183" lon="2.102277">
        <ele>1588.044</ele>
        <time>2019-05-29T08:28:17Z</time>
      </trkpt>
      <trkpt lat="42.491171" lon="2.102332">
        <ele>1587.890</ele>
        <time>2019-05-29T08:28:18Z</time>
      </trkpt>
      <trkpt lat="42.491137" lon="2.102635">
        <ele>1587.298</ele>
        <time>2019-05-29T08:28:23Z</time>
      </trkpt>
      <trkpt lat="42.491114" lon="2.102753">
        <ele>1587.251</ele>
        <time>2019-05-29T08:28:25Z</time>
      </trkpt>
      <trkpt lat="42.491090" lon="2.102873">
        <ele>1587.471</ele>
        <time>2019-05-29T08:28:27Z</time>
      </trkpt>
      <trkpt lat="42.491066" lon="2.102992">
        <ele>1587.443</ele>
        <time>2019-05-29T08:28:29Z</time>
      </trkpt>
      <trkpt lat="42.491038" lon="2.103176">
        <ele>1587.228</ele>
        <time>2019-05-29T08:28:32Z</time>
      </trkpt>
      <trkpt lat="42.491055" lon="2.103361">
        <ele>1587.235</ele>
        <time>2019-05-29T08:28:35Z</time>
      </trkpt>
      <trkpt lat="42.491063" lon="2.103422">
        <ele>1587.486</ele>
        <time>2019-05-29T08:28:36Z</time>
      </trkpt>
      <trkpt lat="42.491089" lon="2.103673">
        <ele>1587.614</ele>
        <time>2019-05-29T08:28:40Z</time>
      </trkpt>
      <trkpt lat="42.491104" lon="2.103799">
        <ele>1587.408</ele>
        <time>2019-05-29T08:28:42Z</time>
      </trkpt>
      <trkpt lat="42.491106" lon="2.103866">
        <ele>1587.226</ele>
        <time>2019-05-29T08:28:43Z</time>
      </trkpt>
      <trkpt lat="42.491123" lon="2.103998">
        <ele>1587.280</ele>
        <time>2019-05-29T08:28:45Z</time>
      </trkpt>
      <trkpt lat="42.491171" lon="2.104110">
        <ele>1587.456</ele>
        <time>2019-05-29T08:28:47Z</time>
      </trkpt>
      <trkpt lat="42.491367" lon="2.104472">
        <ele>1586.634</ele>
        <time>2019-05-29T08:28:54Z</time>
      </trkpt>
      <trkpt lat="42.491395" lon="2.104526">
        <ele>1586.637</ele>
        <time>2019-05-29T08:28:55Z</time>
      </trkpt>
      <trkpt lat="42.491513" lon="2.104799">
        <ele>1587.467</ele>
        <time>2019-05-29T08:29:00Z</time>
      </trkpt>
      <trkpt lat="42.491529" lon="2.104856">
        <ele>1587.239</ele>
        <time>2019-05-29T08:29:01Z</time>
      </trkpt>
      <trkpt lat="42.491610" lon="2.105161">
        <ele>1587.214</ele>
        <time>2019-05-29T08:29:06Z</time>
      </trkpt>
      <trkpt lat="42.491647" lon="2.105439">
        <ele>1586.419</ele>
        <time>2019-05-29T08:29:10Z</time>
      </trkpt>
      <trkpt lat="42.491644" lon="2.105582">
        <ele>1586.209</ele>
        <time>2019-05-29T08:29:12Z</time>
      </trkpt>
      <trkpt lat="42.491638" lon="2.105652">
        <ele>1586.019</ele>
        <time>2019-05-29T08:29:13Z</time>
      </trkpt>
      <trkpt lat="42.491623" lon="2.105962">
        <ele>1585.408</ele>
        <time>2019-05-29T08:29:18Z</time>
      </trkpt>
      <trkpt lat="42.491592" lon="2.106139">
        <ele>1586.854</ele>
        <time>2019-05-29T08:29:23Z</time>
      </trkpt>
      <trkpt lat="42.491586" lon="2.106152">
        <ele>1587.258</ele>
        <time>2019-05-29T08:29:25Z</time>
      </trkpt>
      <trkpt lat="42.491617" lon="2.106254">
        <ele>1587.044</ele>
        <time>2019-05-29T08:31:42Z</time>
      </trkpt>
      <trkpt lat="42.491613" lon="2.106341">
        <ele>1586.832</ele>
        <time>2019-05-29T08:31:44Z</time>
      </trkpt>
      <trkpt lat="42.491587" lon="2.106605">
        <ele>1586.225</ele>
        <time>2019-05-29T08:31:49Z</time>
      </trkpt>
      <trkpt lat="42.491504" lon="2.106802">
        <ele>1586.435</ele>
        <time>2019-05-29T08:31:53Z</time>
      </trkpt>
      <trkpt lat="42.491351" lon="2.106912">
        <ele>1587.237</ele>
        <time>2019-05-29T08:31:57Z</time>
      </trkpt>
      <trkpt lat="42.491172" lon="2.107082">
        <ele>1587.292</ele>
        <time>2019-05-29T08:32:02Z</time>
      </trkpt>
      <trkpt lat="42.491147" lon="2.107123">
        <ele>1587.237</ele>
        <time>2019-05-29T08:32:03Z</time>
      </trkpt>
      <trkpt lat="42.491126" lon="2.107172">
        <ele>1587.249</ele>
        <time>2019-05-29T08:32:04Z</time>
      </trkpt>
      <trkpt lat="42.491055" lon="2.107323">
        <ele>1586.813</ele>
        <time>2019-05-29T08:32:07Z</time>
      </trkpt>
      <trkpt lat="42.490867" lon="2.107729">
        <ele>1588.008</ele>
        <time>2019-05-29T08:32:15Z</time>
      </trkpt>
      <trkpt lat="42.490844" lon="2.107782">
        <ele>1588.236</ele>
        <time>2019-05-29T08:32:16Z</time>
      </trkpt>
      <trkpt lat="42.490760" lon="2.108046">
        <ele>1588.460</ele>
        <time>2019-05-29T08:32:21Z</time>
      </trkpt>
      <trkpt lat="42.490754" lon="2.108107">
        <ele>1588.486</ele>
        <time>2019-05-29T08:32:22Z</time>
      </trkpt>
      <trkpt lat="42.490824" lon="2.108310">
        <ele>1587.844</ele>
        <time>2019-05-29T08:32:26Z</time>
      </trkpt>
      <trkpt lat="42.490949" lon="2.108370">
        <ele>1587.087</ele>
        <time>2019-05-29T08:32:29Z</time>
      </trkpt>
      <trkpt lat="42.490989" lon="2.108382">
        <ele>1587.027</ele>
        <time>2019-05-29T08:32:30Z</time>
      </trkpt>
      <trkpt lat="42.491321" lon="2.108495">
        <ele>1587.219</ele>
        <time>2019-05-29T08:32:38Z</time>
      </trkpt>
      <trkpt lat="42.491363" lon="2.108505">
        <ele>1587.094</ele>
        <time>2019-05-29T08:32:39Z</time>
      </trkpt>
      <trkpt lat="42.491446" lon="2.108540">
        <ele>1587.241</ele>
        <time>2019-05-29T08:32:41Z</time>
      </trkpt>
      <trkpt lat="42.491544" lon="2.108647">
        <ele>1587.281</ele>
        <time>2019-05-29T08:32:44Z</time>
      </trkpt>
      <trkpt lat="42.491664" lon="2.108849">
        <ele>1587.209</ele>
        <time>2019-05-29T08:32:49Z</time>
      </trkpt>
      <trkpt lat="42.491688" lon="2.108886">
        <ele>1587.408</ele>
        <time>2019-05-29T08:32:50Z</time>
      </trkpt>
      <trkpt lat="42.491761" lon="2.108995">
        <ele>1588.227</ele>
        <time>2019-05-29T08:32:53Z</time>
      </trkpt>
      <trkpt lat="42.491855" lon="2.109227">
        <ele>1588.651</ele>
        <time>2019-05-29T08:32:58Z</time>
      </trkpt>
      <trkpt lat="42.491880" lon="2.109440">
        <ele>1589.487</ele>
        <time>2019-05-29T08:33:02Z</time>
      </trkpt>
      <trkpt lat="42.491895" lon="2.109542">
        <ele>1589.695</ele>
        <time>2019-05-29T08:33:04Z</time>
      </trkpt>
      <trkpt lat="42.491957" lon="2.109864">
        <ele>1589.468</ele>
        <time>2019-05-29T08:33:10Z</time>
      </trkpt>
      <trkpt lat="42.491990" lon="2.110279">
        <ele>1589.058</ele>
        <time>2019-05-29T08:33:17Z</time>
      </trkpt>
      <trkpt lat="42.491975" lon="2.110340">
        <ele>1589.260</ele>
        <time>2019-05-29T08:33:18Z</time>
      </trkpt>
      <trkpt lat="42.491893" lon="2.110715">
        <ele>1590.265</ele>
        <time>2019-05-29T08:33:25Z</time>
      </trkpt>
      <trkpt lat="42.491827" lon="2.110946">
        <ele>1589.486</ele>
        <time>2019-05-29T08:33:29Z</time>
      </trkpt>
      <trkpt lat="42.491785" lon="2.111084">
        <ele>1588.660</ele>
        <time>2019-05-29T08:33:31Z</time>
      </trkpt>
      <trkpt lat="42.491758" lon="2.111160">
        <ele>1588.026</ele>
        <time>2019-05-29T08:33:32Z</time>
      </trkpt>
      <trkpt lat="42.491709" lon="2.111320">
        <ele>1586.608</ele>
        <time>2019-05-29T08:33:34Z</time>
      </trkpt>
      <trkpt lat="42.491664" lon="2.111487">
        <ele>1586.091</ele>
        <time>2019-05-29T08:33:36Z</time>
      </trkpt>
      <trkpt lat="42.491638" lon="2.111725">
        <ele>1586.655</ele>
        <time>2019-05-29T08:33:39Z</time>
      </trkpt>
      <trkpt lat="42.491650" lon="2.111803">
        <ele>1586.821</ele>
        <time>2019-05-29T08:33:40Z</time>
      </trkpt>
      <trkpt lat="42.491739" lon="2.112032">
        <ele>1587.029</ele>
        <time>2019-05-29T08:33:44Z</time>
      </trkpt>
      <trkpt lat="42.491768" lon="2.112068">
        <ele>1587.842</ele>
        <time>2019-05-29T08:33:45Z</time>
      </trkpt>
      <trkpt lat="42.491783" lon="2.112109">
        <ele>1589.012</ele>
        <time>2019-05-29T08:33:46Z</time>
      </trkpt>
      <trkpt lat="42.491816" lon="2.112195">
        <ele>1589.034</ele>
        <time>2019-05-29T08:33:48Z</time>
      </trkpt>
      <trkpt lat="42.491861" lon="2.112364">
        <ele>1590.069</ele>
        <time>2019-05-29T08:33:52Z</time>
      </trkpt>
      <trkpt lat="42.491899" lon="2.112483">
        <ele>1590.615</ele>
        <time>2019-05-29T08:33:55Z</time>
      </trkpt>
      <trkpt lat="42.491970" lon="2.112680">
        <ele>1591.065</ele>
        <time>2019-05-29T08:34:00Z</time>
      </trkpt>
      <trkpt lat="42.492000" lon="2.112800">
        <ele>1591.611</ele>
        <time>2019-05-29T08:34:03Z</time>
      </trkpt>
      <trkpt lat="42.492031" lon="2.112912">
        <ele>1592.008</ele>
        <time>2019-05-29T08:34:06Z</time>
      </trkpt>
      <trkpt lat="42.492057" lon="2.112989">
        <ele>1592.474</ele>
        <time>2019-05-29T08:34:08Z</time>
      </trkpt>
      <trkpt lat="42.492076" lon="2.113143">
        <ele>1593.268</ele>
        <time>2019-05-29T08:34:12Z</time>
      </trkpt>
      <trkpt lat="42.492079" lon="2.113181">
        <ele>1593.894</ele>
        <time>2019-05-29T08:34:13Z</time>
      </trkpt>
      <trkpt lat="42.492091" lon="2.113253">
        <ele>1594.272</ele>
        <time>2019-05-29T08:34:15Z</time>
      </trkpt>
      <trkpt lat="42.492119" lon="2.113433">
        <ele>1594.685</ele>
        <time>2019-05-29T08:34:20Z</time>
      </trkpt>
      <trkpt lat="42.492121" lon="2.113764">
        <ele>1595.685</ele>
        <time>2019-05-29T08:34:28Z</time>
      </trkpt>
      <trkpt lat="42.492007" lon="2.114159">
        <ele>1596.677</ele>
        <time>2019-05-29T08:34:38Z</time>
      </trkpt>
      <trkpt lat="42.491908" lon="2.114449">
        <ele>1595.452</ele>
        <time>2019-05-29T08:34:44Z</time>
      </trkpt>
      <trkpt lat="42.491885" lon="2.114501">
        <ele>1595.451</ele>
        <time>2019-05-29T08:34:45Z</time>
      </trkpt>
      <trkpt lat="42.491842" lon="2.114597">
        <ele>1595.401</ele>
        <time>2019-05-29T08:34:47Z</time>
      </trkpt>
      <trkpt lat="42.491784" lon="2.114803">
        <ele>1595.411</ele>
        <time>2019-05-29T08:34:51Z</time>
      </trkpt>
      <trkpt lat="42.491659" lon="2.115153">
        <ele>1594.408</ele>
        <time>2019-05-29T08:34:58Z</time>
      </trkpt>
      <trkpt lat="42.491542" lon="2.115472">
        <ele>1594.238</ele>
        <time>2019-05-29T08:35:03Z</time>
      </trkpt>
      <trkpt lat="42.491515" lon="2.115545">
        <ele>1593.492</ele>
        <time>2019-05-29T08:35:04Z</time>
      </trkpt>
      <trkpt lat="42.491480" lon="2.115622">
        <ele>1592.628</ele>
        <time>2019-05-29T08:35:05Z</time>
      </trkpt>
      <trkpt lat="42.491422" lon="2.115778">
        <ele>1591.636</ele>
        <time>2019-05-29T08:35:07Z</time>
      </trkpt>
      <trkpt lat="42.491398" lon="2.115943">
        <ele>1590.899</ele>
        <time>2019-05-29T08:35:09Z</time>
      </trkpt>
      <trkpt lat="42.491449" lon="2.116177">
        <ele>1591.099</ele>
        <time>2019-05-29T08:35:12Z</time>
      </trkpt>
      <trkpt lat="42.491480" lon="2.116246">
        <ele>1590.011</ele>
        <time>2019-05-29T08:35:13Z</time>
      </trkpt>
      <trkpt lat="42.491542" lon="2.116378">
        <ele>1589.876</ele>
        <time>2019-05-29T08:35:15Z</time>
      </trkpt>
      <trkpt lat="42.491615" lon="2.116513">
        <ele>1590.253</ele>
        <time>2019-05-29T08:35:17Z</time>
      </trkpt>
      <trkpt lat="42.491676" lon="2.116662">
        <ele>1588.804</ele>
        <time>2019-05-29T08:35:19Z</time>
      </trkpt>
      <trkpt lat="42.491721" lon="2.116855">
        <ele>1587.214</ele>
        <time>2019-05-29T08:35:21Z</time>
      </trkpt>
      <trkpt lat="42.491735" lon="2.116954">
        <ele>1585.608</ele>
        <time>2019-05-29T08:35:22Z</time>
      </trkpt>
      <trkpt lat="42.491756" lon="2.117175">
        <ele>1584.688</ele>
        <time>2019-05-29T08:35:24Z</time>
      </trkpt>
      <trkpt lat="42.491779" lon="2.117404">
        <ele>1583.072</ele>
        <time>2019-05-29T08:35:26Z</time>
      </trkpt>
      <trkpt lat="42.491839" lon="2.117733">
        <ele>1581.688</ele>
        <time>2019-05-29T08:35:29Z</time>
      </trkpt>
      <trkpt lat="42.491890" lon="2.117826">
        <ele>1580.656</ele>
        <time>2019-05-29T08:35:30Z</time>
      </trkpt>
      <trkpt lat="42.491954" lon="2.117910">
        <ele>1579.479</ele>
        <time>2019-05-29T08:35:31Z</time>
      </trkpt>
      <trkpt lat="42.492014" lon="2.117988">
        <ele>1578.239</ele>
        <time>2019-05-29T08:35:32Z</time>
      </trkpt>
      <trkpt lat="42.492075" lon="2.118069">
        <ele>1577.431</ele>
        <time>2019-05-29T08:35:33Z</time>
      </trkpt>
      <trkpt lat="42.492139" lon="2.118154">
        <ele>1576.616</ele>
        <time>2019-05-29T08:35:34Z</time>
      </trkpt>
      <trkpt lat="42.492379" lon="2.118527">
        <ele>1574.827</ele>
        <time>2019-05-29T08:35:38Z</time>
      </trkpt>
      <trkpt lat="42.492431" lon="2.118618">
        <ele>1575.068</ele>
        <time>2019-05-29T08:35:39Z</time>
      </trkpt>
      <trkpt lat="42.492635" lon="2.119059">
        <ele>1575.614</ele>
        <time>2019-05-29T08:35:44Z</time>
      </trkpt>
      <trkpt lat="42.492721" lon="2.119198">
        <ele>1575.608</ele>
        <time>2019-05-29T08:35:46Z</time>
      </trkpt>
      <trkpt lat="42.492821" lon="2.119277">
        <ele>1575.295</ele>
        <time>2019-05-29T08:35:48Z</time>
      </trkpt>
      <trkpt lat="42.493025" lon="2.119300">
        <ele>1574.279</ele>
        <time>2019-05-29T08:35:52Z</time>
      </trkpt>
      <trkpt lat="42.493072" lon="2.119260">
        <ele>1573.855</ele>
        <time>2019-05-29T08:35:53Z</time>
      </trkpt>
      <trkpt lat="42.493177" lon="2.119162">
        <ele>1573.073</ele>
        <time>2019-05-29T08:35:55Z</time>
      </trkpt>
      <trkpt lat="42.493237" lon="2.119112">
        <ele>1572.296</ele>
        <time>2019-05-29T08:35:56Z</time>
      </trkpt>
      <trkpt lat="42.493364" lon="2.119021">
        <ele>1570.496</ele>
        <time>2019-05-29T08:35:58Z</time>
      </trkpt>
      <trkpt lat="42.493492" lon="2.118937">
        <ele>1569.278</ele>
        <time>2019-05-29T08:36:00Z</time>
      </trkpt>
      <trkpt lat="42.493714" lon="2.118801">
        <ele>1569.443</ele>
        <time>2019-05-29T08:36:04Z</time>
      </trkpt>
      <trkpt lat="42.493814" lon="2.118750">
        <ele>1568.828</ele>
        <time>2019-05-29T08:36:06Z</time>
      </trkpt>
      <trkpt lat="42.493880" lon="2.118730">
        <ele>1567.889</ele>
        <time>2019-05-29T08:36:07Z</time>
      </trkpt>
      <trkpt lat="42.493942" lon="2.118721">
        <ele>1566.817</ele>
        <time>2019-05-29T08:36:08Z</time>
      </trkpt>
      <trkpt lat="42.494005" lon="2.118710">
        <ele>1565.808</ele>
        <time>2019-05-29T08:36:09Z</time>
      </trkpt>
      <trkpt lat="42.494066" lon="2.118703">
        <ele>1565.035</ele>
        <time>2019-05-29T08:36:10Z</time>
      </trkpt>
      <trkpt lat="42.494189" lon="2.118689">
        <ele>1564.059</ele>
        <time>2019-05-29T08:36:12Z</time>
      </trkpt>
      <trkpt lat="42.494302" lon="2.118722">
        <ele>1563.035</ele>
        <time>2019-05-29T08:36:14Z</time>
      </trkpt>
      <trkpt lat="42.494349" lon="2.118767">
        <ele>1562.633</ele>
        <time>2019-05-29T08:36:15Z</time>
      </trkpt>
      <trkpt lat="42.494436" lon="2.118855">
        <ele>1561.886</ele>
        <time>2019-05-29T08:36:17Z</time>
      </trkpt>
      <trkpt lat="42.494492" lon="2.118889">
        <ele>1561.076</ele>
        <time>2019-05-29T08:36:18Z</time>
      </trkpt>
      <trkpt lat="42.494564" lon="2.118915">
        <ele>1560.048</ele>
        <time>2019-05-29T08:36:19Z</time>
      </trkpt>
      <trkpt lat="42.494642" lon="2.118931">
        <ele>1559.083</ele>
        <time>2019-05-29T08:36:20Z</time>
      </trkpt>
      <trkpt lat="42.494711" lon="2.118950">
        <ele>1558.061</ele>
        <time>2019-05-29T08:36:21Z</time>
      </trkpt>
      <trkpt lat="42.494778" lon="2.118970">
        <ele>1557.421</ele>
        <time>2019-05-29T08:36:22Z</time>
      </trkpt>
      <trkpt lat="42.494893" lon="2.119023">
        <ele>1556.613</ele>
        <time>2019-05-29T08:36:24Z</time>
      </trkpt>
      <trkpt lat="42.494964" lon="2.119046">
        <ele>1555.808</ele>
        <time>2019-05-29T08:36:25Z</time>
      </trkpt>
      <trkpt lat="42.495032" lon="2.119072">
        <ele>1555.289</ele>
        <time>2019-05-29T08:36:26Z</time>
      </trkpt>
      <trkpt lat="42.495099" lon="2.119085">
        <ele>1554.613</ele>
        <time>2019-05-29T08:36:27Z</time>
      </trkpt>
      <trkpt lat="42.495164" lon="2.119083">
        <ele>1554.279</ele>
        <time>2019-05-29T08:36:28Z</time>
      </trkpt>
      <trkpt lat="42.495293" lon="2.119060">
        <ele>1553.487</ele>
        <time>2019-05-29T08:36:30Z</time>
      </trkpt>
      <trkpt lat="42.495399" lon="2.119040">
        <ele>1552.030</ele>
        <time>2019-05-29T08:36:32Z</time>
      </trkpt>
      <trkpt lat="42.495451" lon="2.119000">
        <ele>1551.640</ele>
        <time>2019-05-29T08:36:33Z</time>
      </trkpt>
      <trkpt lat="42.495479" lon="2.118928">
        <ele>1551.072</ele>
        <time>2019-05-29T08:36:34Z</time>
      </trkpt>
      <trkpt lat="42.495494" lon="2.118840">
        <ele>1550.627</ele>
        <time>2019-05-29T08:36:35Z</time>
      </trkpt>
      <trkpt lat="42.495535" lon="2.118637">
        <ele>1548.864</ele>
        <time>2019-05-29T08:36:37Z</time>
      </trkpt>
      <trkpt lat="42.495581" lon="2.118552">
        <ele>1547.806</ele>
        <time>2019-05-29T08:36:38Z</time>
      </trkpt>
      <trkpt lat="42.495630" lon="2.118477">
        <ele>1546.616</ele>
        <time>2019-05-29T08:36:39Z</time>
      </trkpt>
      <trkpt lat="42.495693" lon="2.118407">
        <ele>1545.608</ele>
        <time>2019-05-29T08:36:40Z</time>
      </trkpt>
      <trkpt lat="42.495762" lon="2.118340">
        <ele>1544.469</ele>
        <time>2019-05-29T08:36:41Z</time>
      </trkpt>
      <trkpt lat="42.495836" lon="2.118271">
        <ele>1543.653</ele>
        <time>2019-05-29T08:36:42Z</time>
      </trkpt>
      <trkpt lat="42.495908" lon="2.118206">
        <ele>1542.639</ele>
        <time>2019-05-29T08:36:43Z</time>
      </trkpt>
      <trkpt lat="42.495986" lon="2.118135">
        <ele>1541.887</ele>
        <time>2019-05-29T08:36:44Z</time>
      </trkpt>
      <trkpt lat="42.496051" lon="2.118055">
        <ele>1540.840</ele>
        <time>2019-05-29T08:36:45Z</time>
      </trkpt>
      <trkpt lat="42.496108" lon="2.117970">
        <ele>1539.650</ele>
        <time>2019-05-29T08:36:46Z</time>
      </trkpt>
      <trkpt lat="42.496207" lon="2.117793">
        <ele>1538.422</ele>
        <time>2019-05-29T08:36:48Z</time>
      </trkpt>
      <trkpt lat="42.496257" lon="2.117696">
        <ele>1537.827</ele>
        <time>2019-05-29T08:36:49Z</time>
      </trkpt>
      <trkpt lat="42.496312" lon="2.117599">
        <ele>1536.859</ele>
        <time>2019-05-29T08:36:50Z</time>
      </trkpt>
      <trkpt lat="42.496377" lon="2.117507">
        <ele>1535.603</ele>
        <time>2019-05-29T08:36:51Z</time>
      </trkpt>
      <trkpt lat="42.496511" lon="2.117336">
        <ele>1533.823</ele>
        <time>2019-05-29T08:36:53Z</time>
      </trkpt>
      <trkpt lat="42.496614" lon="2.117129">
        <ele>1532.808</ele>
        <time>2019-05-29T08:36:55Z</time>
      </trkpt>
      <trkpt lat="42.496637" lon="2.117013">
        <ele>1532.288</ele>
        <time>2019-05-29T08:36:56Z</time>
      </trkpt>
      <trkpt lat="42.496633" lon="2.116764">
        <ele>1530.682</ele>
        <time>2019-05-29T08:36:58Z</time>
      </trkpt>
      <trkpt lat="42.496613" lon="2.116653">
        <ele>1529.878</ele>
        <time>2019-05-29T08:36:59Z</time>
      </trkpt>
      <trkpt lat="42.496579" lon="2.116552">
        <ele>1529.486</ele>
        <time>2019-05-29T08:37:00Z</time>
      </trkpt>
      <trkpt lat="42.496442" lon="2.116386">
        <ele>1528.639</ele>
        <time>2019-05-29T08:37:02Z</time>
      </trkpt>
      <trkpt lat="42.496367" lon="2.116309">
        <ele>1527.859</ele>
        <time>2019-05-29T08:37:03Z</time>
      </trkpt>
      <trkpt lat="42.496301" lon="2.116236">
        <ele>1527.281</ele>
        <time>2019-05-29T08:37:04Z</time>
      </trkpt>
      <trkpt lat="42.496244" lon="2.116174">
        <ele>1526.656</ele>
        <time>2019-05-29T08:37:05Z</time>
      </trkpt>
      <trkpt lat="42.496198" lon="2.116100">
        <ele>1526.472</ele>
        <time>2019-05-29T08:37:06Z</time>
      </trkpt>
      <trkpt lat="42.496181" lon="2.115898">
        <ele>1525.013</ele>
        <time>2019-05-29T08:37:08Z</time>
      </trkpt>
      <trkpt lat="42.496228" lon="2.115792">
        <ele>1523.814</ele>
        <time>2019-05-29T08:37:09Z</time>
      </trkpt>
      <trkpt lat="42.496297" lon="2.115713">
        <ele>1522.608</ele>
        <time>2019-05-29T08:37:10Z</time>
      </trkpt>
      <trkpt lat="42.496367" lon="2.115641">
        <ele>1521.480</ele>
        <time>2019-05-29T08:37:11Z</time>
      </trkpt>
      <trkpt lat="42.496436" lon="2.115561">
        <ele>1520.614</ele>
        <time>2019-05-29T08:37:12Z</time>
      </trkpt>
      <trkpt lat="42.496500" lon="2.115469">
        <ele>1519.890</ele>
        <time>2019-05-29T08:37:13Z</time>
      </trkpt>
      <trkpt lat="42.496555" lon="2.115359">
        <ele>1519.278</ele>
        <time>2019-05-29T08:37:14Z</time>
      </trkpt>
      <trkpt lat="42.496592" lon="2.115230">
        <ele>1518.691</ele>
        <time>2019-05-29T08:37:15Z</time>
      </trkpt>
      <trkpt lat="42.496602" lon="2.114951">
        <ele>1516.881</ele>
        <time>2019-05-29T08:37:17Z</time>
      </trkpt>
      <trkpt lat="42.496600" lon="2.114656">
        <ele>1515.233</ele>
        <time>2019-05-29T08:37:19Z</time>
      </trkpt>
      <trkpt lat="42.496658" lon="2.114357">
        <ele>1513.498</ele>
        <time>2019-05-29T08:37:21Z</time>
      </trkpt>
      <trkpt lat="42.496697" lon="2.114209">
        <ele>1510.886</ele>
        <time>2019-05-29T08:37:22Z</time>
      </trkpt>
      <trkpt lat="42.496734" lon="2.114058">
        <ele>1509.660</ele>
        <time>2019-05-29T08:37:23Z</time>
      </trkpt>
      <trkpt lat="42.496788" lon="2.113742">
        <ele>1508.226</ele>
        <time>2019-05-29T08:37:25Z</time>
      </trkpt>
      <trkpt lat="42.496790" lon="2.113586">
        <ele>1507.808</ele>
        <time>2019-05-29T08:37:26Z</time>
      </trkpt>
      <trkpt lat="42.496771" lon="2.113280">
        <ele>1507.051</ele>
        <time>2019-05-29T08:37:28Z</time>
      </trkpt>
      <trkpt lat="42.496763" lon="2.113135">
        <ele>1506.255</ele>
        <time>2019-05-29T08:37:29Z</time>
      </trkpt>
      <trkpt lat="42.496773" lon="2.112998">
        <ele>1505.431</ele>
        <time>2019-05-29T08:37:30Z</time>
      </trkpt>
      <trkpt lat="42.496811" lon="2.112862">
        <ele>1504.469</ele>
        <time>2019-05-29T08:37:31Z</time>
      </trkpt>
      <trkpt lat="42.496868" lon="2.112737">
        <ele>1503.222</ele>
        <time>2019-05-29T08:37:32Z</time>
      </trkpt>
      <trkpt lat="42.496944" lon="2.112632">
        <ele>1501.892</ele>
        <time>2019-05-29T08:37:33Z</time>
      </trkpt>
      <trkpt lat="42.497035" lon="2.112567">
        <ele>1501.034</ele>
        <time>2019-05-29T08:37:34Z</time>
      </trkpt>
      <trkpt lat="42.497133" lon="2.112530">
        <ele>1500.479</ele>
        <time>2019-05-29T08:37:35Z</time>
      </trkpt>
      <trkpt lat="42.497236" lon="2.112520">
        <ele>1500.037</ele>
        <time>2019-05-29T08:37:36Z</time>
      </trkpt>
      <trkpt lat="42.497423" lon="2.112632">
        <ele>1499.449</ele>
        <time>2019-05-29T08:37:38Z</time>
      </trkpt>
      <trkpt lat="42.497494" lon="2.112723">
        <ele>1499.213</ele>
        <time>2019-05-29T08:37:39Z</time>
      </trkpt>
      <trkpt lat="42.497632" lon="2.112891">
        <ele>1499.008</ele>
        <time>2019-05-29T08:37:41Z</time>
      </trkpt>
      <trkpt lat="42.497778" lon="2.113004">
        <ele>1498.676</ele>
        <time>2019-05-29T08:37:43Z</time>
      </trkpt>
      <trkpt lat="42.497855" lon="2.113012">
        <ele>1498.450</ele>
        <time>2019-05-29T08:37:44Z</time>
      </trkpt>
      <trkpt lat="42.497996" lon="2.112935">
        <ele>1498.496</ele>
        <time>2019-05-29T08:37:46Z</time>
      </trkpt>
      <trkpt lat="42.498143" lon="2.112716">
        <ele>1498.484</ele>
        <time>2019-05-29T08:37:49Z</time>
      </trkpt>
      <trkpt lat="42.498191" lon="2.112641">
        <ele>1498.237</ele>
        <time>2019-05-29T08:37:50Z</time>
      </trkpt>
      <trkpt lat="42.498382" lon="2.112317">
        <ele>1497.077</ele>
        <time>2019-05-29T08:37:54Z</time>
      </trkpt>
      <trkpt lat="42.498469" lon="2.112148">
        <ele>1496.449</ele>
        <time>2019-05-29T08:37:56Z</time>
      </trkpt>
      <trkpt lat="42.498787" lon="2.111458">
        <ele>1495.824</ele>
        <time>2019-05-29T08:38:04Z</time>
      </trkpt>
      <trkpt lat="42.498974" lon="2.110880">
        <ele>1494.651</ele>
        <time>2019-05-29T08:38:10Z</time>
      </trkpt>
      <trkpt lat="42.499001" lon="2.110789">
        <ele>1494.601</ele>
        <time>2019-05-29T08:38:11Z</time>
      </trkpt>
      <trkpt lat="42.499062" lon="2.110650">
        <ele>1494.611</ele>
        <time>2019-05-29T08:38:13Z</time>
      </trkpt>
      <trkpt lat="42.499173" lon="2.110565">
        <ele>1494.208</ele>
        <time>2019-05-29T08:38:15Z</time>
      </trkpt>
      <trkpt lat="42.499309" lon="2.110613">
        <ele>1493.278</ele>
        <time>2019-05-29T08:38:17Z</time>
      </trkpt>
      <trkpt lat="42.499417" lon="2.110770">
        <ele>1491.872</ele>
        <time>2019-05-29T08:38:19Z</time>
      </trkpt>
      <trkpt lat="42.499461" lon="2.110861">
        <ele>1491.048</ele>
        <time>2019-05-29T08:38:20Z</time>
      </trkpt>
      <trkpt lat="42.499501" lon="2.110952">
        <ele>1490.616</ele>
        <time>2019-05-29T08:38:21Z</time>
      </trkpt>
      <trkpt lat="42.499586" lon="2.111132">
        <ele>1489.699</ele>
        <time>2019-05-29T08:38:23Z</time>
      </trkpt>
      <trkpt lat="42.499675" lon="2.111313">
        <ele>1488.419</ele>
        <time>2019-05-29T08:38:25Z</time>
      </trkpt>
      <trkpt lat="42.499714" lon="2.111394">
        <ele>1487.671</ele>
        <time>2019-05-29T08:38:26Z</time>
      </trkpt>
      <trkpt lat="42.499763" lon="2.111474">
        <ele>1487.486</ele>
        <time>2019-05-29T08:38:27Z</time>
      </trkpt>
      <trkpt lat="42.499815" lon="2.111534">
        <ele>1487.098</ele>
        <time>2019-05-29T08:38:28Z</time>
      </trkpt>
      <trkpt lat="42.499938" lon="2.111644">
        <ele>1486.615</ele>
        <time>2019-05-29T08:38:30Z</time>
      </trkpt>
      <trkpt lat="42.500001" lon="2.111696">
        <ele>1486.026</ele>
        <time>2019-05-29T08:38:31Z</time>
      </trkpt>
      <trkpt lat="42.500114" lon="2.111833">
        <ele>1484.408</ele>
        <time>2019-05-29T08:38:33Z</time>
      </trkpt>
      <trkpt lat="42.500157" lon="2.111913">
        <ele>1482.872</ele>
        <time>2019-05-29T08:38:34Z</time>
      </trkpt>
      <trkpt lat="42.500194" lon="2.111983">
        <ele>1482.676</ele>
        <time>2019-05-29T08:38:35Z</time>
      </trkpt>
      <trkpt lat="42.500267" lon="2.112196">
        <ele>1482.072</ele>
        <time>2019-05-29T08:38:38Z</time>
      </trkpt>
      <trkpt lat="42.500276" lon="2.112259">
        <ele>1482.080</ele>
        <time>2019-05-29T08:38:39Z</time>
      </trkpt>
      <trkpt lat="42.500311" lon="2.112397">
        <ele>1482.283</ele>
        <time>2019-05-29T08:38:41Z</time>
      </trkpt>
      <trkpt lat="42.500336" lon="2.112455">
        <ele>1481.883</ele>
        <time>2019-05-29T08:38:42Z</time>
      </trkpt>
      <trkpt lat="42.500356" lon="2.112555">
        <ele>1481.255</ele>
        <time>2019-05-29T08:38:44Z</time>
      </trkpt>
      <trkpt lat="42.500357" lon="2.112617">
        <ele>1481.250</ele>
        <time>2019-05-29T08:38:45Z</time>
      </trkpt>
      <trkpt lat="42.500333" lon="2.112751">
        <ele>1480.686</ele>
        <time>2019-05-29T08:38:47Z</time>
      </trkpt>
      <trkpt lat="42.500337" lon="2.112829">
        <ele>1480.260</ele>
        <time>2019-05-29T08:38:48Z</time>
      </trkpt>
      <trkpt lat="42.500332" lon="2.112917">
        <ele>1479.626</ele>
        <time>2019-05-29T08:38:49Z</time>
      </trkpt>
      <trkpt lat="42.500337" lon="2.113199">
        <ele>1479.408</ele>
        <time>2019-05-29T08:38:53Z</time>
      </trkpt>
      <trkpt lat="42.500354" lon="2.113327">
        <ele>1480.011</ele>
        <time>2019-05-29T08:38:55Z</time>
      </trkpt>
      <trkpt lat="42.500397" lon="2.113582">
        <ele>1480.685</ele>
        <time>2019-05-29T08:38:59Z</time>
      </trkpt>
      <trkpt lat="42.500403" lon="2.113642">
        <ele>1480.681</ele>
        <time>2019-05-29T08:39:00Z</time>
      </trkpt>
      <trkpt lat="42.500447" lon="2.113886">
        <ele>1480.679</ele>
        <time>2019-05-29T08:39:04Z</time>
      </trkpt>
      <trkpt lat="42.500464" lon="2.113940">
        <ele>1481.052</ele>
        <time>2019-05-29T08:39:05Z</time>
      </trkpt>
      <trkpt lat="42.500487" lon="2.114048">
        <ele>1481.422</ele>
        <time>2019-05-29T08:39:07Z</time>
      </trkpt>
      <trkpt lat="42.500501" lon="2.114097">
        <ele>1481.894</ele>
        <time>2019-05-29T08:39:08Z</time>
      </trkpt>
      <trkpt lat="42.500554" lon="2.114289">
        <ele>1482.049</ele>
        <time>2019-05-29T08:39:12Z</time>
      </trkpt>
      <trkpt lat="42.500576" lon="2.114379">
        <ele>1483.023</ele>
        <time>2019-05-29T08:39:14Z</time>
      </trkpt>
      <trkpt lat="42.500578" lon="2.114550">
        <ele>1484.083</ele>
        <time>2019-05-29T08:39:18Z</time>
      </trkpt>
      <trkpt lat="42.500557" lon="2.114887">
        <ele>1484.011</ele>
        <time>2019-05-29T08:39:25Z</time>
      </trkpt>
      <trkpt lat="42.500581" lon="2.115013">
        <ele>1484.208</ele>
        <time>2019-05-29T08:39:29Z</time>
      </trkpt>
      <trkpt lat="42.500668" lon="2.115059">
        <ele>1484.875</ele>
        <time>2019-05-29T08:39:32Z</time>
      </trkpt>
      <trkpt lat="42.500720" lon="2.115170">
        <ele>1485.059</ele>
        <time>2019-05-29T08:39:35Z</time>
      </trkpt>
      <trkpt lat="42.500742" lon="2.115209">
        <ele>1485.275</ele>
        <time>2019-05-29T08:39:36Z</time>
      </trkpt>
      <trkpt lat="42.500865" lon="2.115421">
        <ele>1484.863</ele>
        <time>2019-05-29T08:39:42Z</time>
      </trkpt>
      <trkpt lat="42.501046" lon="2.115742">
        <ele>1485.466</ele>
        <time>2019-05-29T08:39:50Z</time>
      </trkpt>
      <trkpt lat="42.501134" lon="2.115824">
        <ele>1486.666</ele>
        <time>2019-05-29T08:39:53Z</time>
      </trkpt>
      <trkpt lat="42.501199" lon="2.115849">
        <ele>1487.258</ele>
        <time>2019-05-29T08:39:55Z</time>
      </trkpt>
      <trkpt lat="42.501355" lon="2.115816">
        <ele>1486.883</ele>
        <time>2019-05-29T08:40:00Z</time>
      </trkpt>
      <trkpt lat="42.501436" lon="2.115798">
        <ele>1487.877</ele>
        <time>2019-05-29T08:40:03Z</time>
      </trkpt>
      <trkpt lat="42.501497" lon="2.115780">
        <ele>1488.661</ele>
        <time>2019-05-29T08:40:06Z</time>
      </trkpt>
      <trkpt lat="42.501514" lon="2.115775">
        <ele>1488.827</ele>
        <time>2019-05-29T08:40:07Z</time>
      </trkpt>
      <trkpt lat="42.501641" lon="2.115715">
        <ele>1489.808</ele>
        <time>2019-05-29T08:40:14Z</time>
      </trkpt>
      <trkpt lat="42.501695" lon="2.115682">
        <ele>1491.290</ele>
        <time>2019-05-29T08:40:17Z</time>
      </trkpt>
      <trkpt lat="42.501772" lon="2.115587">
        <ele>1492.094</ele>
        <time>2019-05-29T08:40:22Z</time>
      </trkpt>
      <trkpt lat="42.501821" lon="2.115490">
        <ele>1492.260</ele>
        <time>2019-05-29T08:40:26Z</time>
      </trkpt>
      <trkpt lat="42.501876" lon="2.115362">
        <ele>1492.688</ele>
        <time>2019-05-29T08:40:31Z</time>
      </trkpt>
      <trkpt lat="42.501933" lon="2.115273">
        <ele>1493.481</ele>
        <time>2019-05-29T08:40:35Z</time>
      </trkpt>
      <trkpt lat="42.501998" lon="2.115205">
        <ele>1494.041</ele>
        <time>2019-05-29T08:40:39Z</time>
      </trkpt>
      <trkpt lat="42.502108" lon="2.115208">
        <ele>1494.463</ele>
        <time>2019-05-29T08:40:44Z</time>
      </trkpt>
      <trkpt lat="42.502156" lon="2.115265">
        <ele>1494.418</ele>
        <time>2019-05-29T08:40:47Z</time>
      </trkpt>
      <trkpt lat="42.502169" lon="2.115313">
        <ele>1495.427</ele>
        <time>2019-05-29T08:40:49Z</time>
      </trkpt>
      <trkpt lat="42.502215" lon="2.115484">
        <ele>1496.868</ele>
        <time>2019-05-29T08:40:56Z</time>
      </trkpt>
      <trkpt lat="42.502229" lon="2.115516">
        <ele>1497.414</ele>
        <time>2019-05-29T08:40:58Z</time>
      </trkpt>
      <trkpt lat="42.502240" lon="2.115556">
        <ele>1497.808</ele>
        <time>2019-05-29T08:41:00Z</time>
      </trkpt>
      <trkpt lat="42.502276" lon="2.115660">
        <ele>1498.465</ele>
        <time>2019-05-29T08:41:05Z</time>
      </trkpt>
      <trkpt lat="42.502346" lon="2.115787">
        <ele>1499.239</ele>
        <time>2019-05-29T08:41:12Z</time>
      </trkpt>
      <trkpt lat="42.502377" lon="2.115822">
        <ele>1499.075</ele>
        <time>2019-05-29T08:41:14Z</time>
      </trkpt>
      <trkpt lat="42.502482" lon="2.115950">
        <ele>1499.823</ele>
        <time>2019-05-29T08:41:22Z</time>
      </trkpt>
      <trkpt lat="42.502514" lon="2.115977">
        <ele>1500.466</ele>
        <time>2019-05-29T08:41:24Z</time>
      </trkpt>
      <trkpt lat="42.502599" lon="2.116048">
        <ele>1501.446</ele>
        <time>2019-05-29T08:41:29Z</time>
      </trkpt>
      <trkpt lat="42.502630" lon="2.116078">
        <ele>1501.848</ele>
        <time>2019-05-29T08:41:31Z</time>
      </trkpt>
      <trkpt lat="42.502745" lon="2.116151">
        <ele>1502.483</ele>
        <time>2019-05-29T08:41:38Z</time>
      </trkpt>
      <trkpt lat="42.502871" lon="2.116246">
        <ele>1503.616</ele>
        <time>2019-05-29T08:41:46Z</time>
      </trkpt>
      <trkpt lat="42.502904" lon="2.116267">
        <ele>1504.076</ele>
        <time>2019-05-29T08:41:48Z</time>
      </trkpt>
      <trkpt lat="42.502980" lon="2.116331">
        <ele>1504.613</ele>
        <time>2019-05-29T08:41:53Z</time>
      </trkpt>
      <trkpt lat="42.503017" lon="2.116355">
        <ele>1505.008</ele>
        <time>2019-05-29T08:41:55Z</time>
      </trkpt>
      <trkpt lat="42.503120" lon="2.116425">
        <ele>1505.684</ele>
        <time>2019-05-29T08:42:01Z</time>
      </trkpt>
      <trkpt lat="42.503150" lon="2.116448">
        <ele>1505.878</ele>
        <time>2019-05-29T08:42:03Z</time>
      </trkpt>
      <trkpt lat="42.503275" lon="2.116530">
        <ele>1506.884</ele>
        <time>2019-05-29T08:42:10Z</time>
      </trkpt>
      <trkpt lat="42.503364" lon="2.116577">
        <ele>1507.882</ele>
        <time>2019-05-29T08:42:15Z</time>
      </trkpt>
      <trkpt lat="42.503431" lon="2.116593">
        <ele>1508.095</ele>
        <time>2019-05-29T08:42:18Z</time>
      </trkpt>
      <trkpt lat="42.503640" lon="2.116672">
        <ele>1508.645</ele>
        <time>2019-05-29T08:42:27Z</time>
      </trkpt>
      <trkpt lat="42.503738" lon="2.116692">
        <ele>1509.067</ele>
        <time>2019-05-29T08:42:31Z</time>
      </trkpt>
      <trkpt lat="42.503881" lon="2.116735">
        <ele>1509.632</ele>
        <time>2019-05-29T08:42:37Z</time>
      </trkpt>
      <trkpt lat="42.503977" lon="2.116758">
        <ele>1510.096</ele>
        <time>2019-05-29T08:42:41Z</time>
      </trkpt>
      <trkpt lat="42.504082" lon="2.116799">
        <ele>1510.431</ele>
        <time>2019-05-29T08:42:46Z</time>
      </trkpt>
      <trkpt lat="42.504148" lon="2.116830">
        <ele>1511.224</ele>
        <time>2019-05-29T08:42:49Z</time>
      </trkpt>
      <trkpt lat="42.504258" lon="2.116880">
        <ele>1511.608</ele>
        <time>2019-05-29T08:42:54Z</time>
      </trkpt>
      <trkpt lat="42.504342" lon="2.116930">
        <ele>1512.262</ele>
        <time>2019-05-29T08:42:58Z</time>
      </trkpt>
      <trkpt lat="42.504410" lon="2.116998">
        <ele>1512.616</ele>
        <time>2019-05-29T08:43:02Z</time>
      </trkpt>
      <trkpt lat="42.504477" lon="2.117077">
        <ele>1513.412</ele>
        <time>2019-05-29T08:43:06Z</time>
      </trkpt>
      <trkpt lat="42.504524" lon="2.117150">
        <ele>1514.670</ele>
        <time>2019-05-29T08:43:09Z</time>
      </trkpt>
      <trkpt lat="42.504536" lon="2.117176">
        <ele>1514.813</ele>
        <time>2019-05-29T08:43:10Z</time>
      </trkpt>
      <trkpt lat="42.504624" lon="2.117385">
        <ele>1515.653</ele>
        <time>2019-05-29T08:43:18Z</time>
      </trkpt>
      <trkpt lat="42.504635" lon="2.117413">
        <ele>1515.815</ele>
        <time>2019-05-29T08:43:19Z</time>
      </trkpt>
      <trkpt lat="42.504677" lon="2.117517">
        <ele>1517.010</ele>
        <time>2019-05-29T08:43:23Z</time>
      </trkpt>
      <trkpt lat="42.504693" lon="2.117569">
        <ele>1517.442</ele>
        <time>2019-05-29T08:43:25Z</time>
      </trkpt>
      <trkpt lat="42.504729" lon="2.117663">
        <ele>1518.222</ele>
        <time>2019-05-29T08:43:29Z</time>
      </trkpt>
      <trkpt lat="42.504748" lon="2.117710">
        <ele>1518.814</ele>
        <time>2019-05-29T08:43:31Z</time>
      </trkpt>
      <trkpt lat="42.504791" lon="2.117829">
        <ele>1519.408</ele>
        <time>2019-05-29T08:43:36Z</time>
      </trkpt>
      <trkpt lat="42.504836" lon="2.117948">
        <ele>1519.847</ele>
        <time>2019-05-29T08:43:41Z</time>
      </trkpt>
      <trkpt lat="42.504884" lon="2.118093">
        <ele>1520.471</ele>
        <time>2019-05-29T08:43:47Z</time>
      </trkpt>
      <trkpt lat="42.504909" lon="2.118167">
        <ele>1520.677</ele>
        <time>2019-05-29T08:43:50Z</time>
      </trkpt>
      <trkpt lat="42.504950" lon="2.118283">
        <ele>1521.695</ele>
        <time>2019-05-29T08:43:55Z</time>
      </trkpt>
      <trkpt lat="42.504988" lon="2.118386">
        <ele>1521.468</ele>
        <time>2019-05-29T08:43:59Z</time>
      </trkpt>
      <trkpt lat="42.505062" lon="2.118583">
        <ele>1521.628</ele>
        <time>2019-05-29T08:44:07Z</time>
      </trkpt>
      <trkpt lat="42.505144" lon="2.118795">
        <ele>1522.250</ele>
        <time>2019-05-29T08:44:15Z</time>
      </trkpt>
      <trkpt lat="42.505240" lon="2.119027">
        <ele>1522.475</ele>
        <time>2019-05-29T08:44:23Z</time>
      </trkpt>
      <trkpt lat="42.505282" lon="2.119135">
        <ele>1522.646</ele>
        <time>2019-05-29T08:44:27Z</time>
      </trkpt>
      <trkpt lat="42.505346" lon="2.119261">
        <ele>1523.888</ele>
        <time>2019-05-29T08:44:32Z</time>
      </trkpt>
      <trkpt lat="42.505360" lon="2.119283">
        <ele>1524.016</ele>
        <time>2019-05-29T08:44:33Z</time>
      </trkpt>
      <trkpt lat="42.505445" lon="2.119374">
        <ele>1524.808</ele>
        <time>2019-05-29T08:44:38Z</time>
      </trkpt>
      <trkpt lat="42.505474" lon="2.119405">
        <ele>1525.237</ele>
        <time>2019-05-29T08:44:40Z</time>
      </trkpt>
      <trkpt lat="42.505530" lon="2.119433">
        <ele>1526.081</ele>
        <time>2019-05-29T08:44:43Z</time>
      </trkpt>
      <trkpt lat="42.505588" lon="2.119446">
        <ele>1526.657</ele>
        <time>2019-05-29T08:44:46Z</time>
      </trkpt>
      <trkpt lat="42.505625" lon="2.119448">
        <ele>1527.295</ele>
        <time>2019-05-29T08:44:48Z</time>
      </trkpt>
      <trkpt lat="42.505765" lon="2.119435">
        <ele>1527.648</ele>
        <time>2019-05-29T08:44:55Z</time>
      </trkpt>
      <trkpt lat="42.505844" lon="2.119408">
        <ele>1528.258</ele>
        <time>2019-05-29T08:44:59Z</time>
      </trkpt>
      <trkpt lat="42.505938" lon="2.119377">
        <ele>1529.490</ele>
        <time>2019-05-29T08:45:04Z</time>
      </trkpt>
      <trkpt lat="42.505958" lon="2.119372">
        <ele>1529.495</ele>
        <time>2019-05-29T08:45:05Z</time>
      </trkpt>
      <trkpt lat="42.506089" lon="2.119304">
        <ele>1528.843</ele>
        <time>2019-05-29T08:45:12Z</time>
      </trkpt>
      <trkpt lat="42.506248" lon="2.119103">
        <ele>1530.864</ele>
        <time>2019-05-29T08:45:23Z</time>
      </trkpt>
      <trkpt lat="42.506343" lon="2.118983">
        <ele>1531.810</ele>
        <time>2019-05-29T08:45:30Z</time>
      </trkpt>
      <trkpt lat="42.506371" lon="2.118947">
        <ele>1532.008</ele>
        <time>2019-05-29T08:45:32Z</time>
      </trkpt>
      <trkpt lat="42.506443" lon="2.118908">
        <ele>1532.847</ele>
        <time>2019-05-29T08:45:36Z</time>
      </trkpt>
      <trkpt lat="42.506480" lon="2.118897">
        <ele>1533.251</ele>
        <time>2019-05-29T08:45:38Z</time>
      </trkpt>
      <trkpt lat="42.506518" lon="2.118899">
        <ele>1534.097</ele>
        <time>2019-05-29T08:45:40Z</time>
      </trkpt>
      <trkpt lat="42.506590" lon="2.118916">
        <ele>1534.295</ele>
        <time>2019-05-29T08:45:44Z</time>
      </trkpt>
      <trkpt lat="42.506652" lon="2.118981">
        <ele>1535.418</ele>
        <time>2019-05-29T08:45:48Z</time>
      </trkpt>
      <trkpt lat="42.506665" lon="2.119002">
        <ele>1535.668</ele>
        <time>2019-05-29T08:45:49Z</time>
      </trkpt>
      <trkpt lat="42.506726" lon="2.119135">
        <ele>1536.420</ele>
        <time>2019-05-29T08:45:55Z</time>
      </trkpt>
      <trkpt lat="42.506727" lon="2.119159">
        <ele>1536.695</ele>
        <time>2019-05-29T08:45:56Z</time>
      </trkpt>
      <trkpt lat="42.506752" lon="2.119278">
        <ele>1537.044</ele>
        <time>2019-05-29T08:46:01Z</time>
      </trkpt>
      <trkpt lat="42.506744" lon="2.119397">
        <ele>1537.805</ele>
        <time>2019-05-29T08:46:06Z</time>
      </trkpt>
      <trkpt lat="42.506745" lon="2.119421">
        <ele>1538.015</ele>
        <time>2019-05-29T08:46:07Z</time>
      </trkpt>
      <trkpt lat="42.506749" lon="2.119520">
        <ele>1539.208</ele>
        <time>2019-05-29T08:46:11Z</time>
      </trkpt>
      <trkpt lat="42.506752" lon="2.119566">
        <ele>1539.677</ele>
        <time>2019-05-29T08:46:13Z</time>
      </trkpt>
      <trkpt lat="42.506752" lon="2.119661">
        <ele>1540.251</ele>
        <time>2019-05-29T08:46:17Z</time>
      </trkpt>
      <trkpt lat="42.506753" lon="2.119711">
        <ele>1540.417</ele>
        <time>2019-05-29T08:46:19Z</time>
      </trkpt>
      <trkpt lat="42.506758" lon="2.119836">
        <ele>1541.425</ele>
        <time>2019-05-29T08:46:24Z</time>
      </trkpt>
      <trkpt lat="42.506761" lon="2.119913">
        <ele>1541.698</ele>
        <time>2019-05-29T08:46:27Z</time>
      </trkpt>
      <trkpt lat="42.506756" lon="2.120045">
        <ele>1542.498</ele>
        <time>2019-05-29T08:46:32Z</time>
      </trkpt>
      <trkpt lat="42.506754" lon="2.120070">
        <ele>1542.410</ele>
        <time>2019-05-29T08:46:33Z</time>
      </trkpt>
      <trkpt lat="42.506719" lon="2.120246">
        <ele>1543.655</ele>
        <time>2019-05-29T08:46:40Z</time>
      </trkpt>
      <trkpt lat="42.506715" lon="2.120271">
        <ele>1543.863</ele>
        <time>2019-05-29T08:46:41Z</time>
      </trkpt>
      <trkpt lat="42.506671" lon="2.120383">
        <ele>1544.644</ele>
        <time>2019-05-29T08:46:46Z</time>
      </trkpt>
      <trkpt lat="42.506624" lon="2.120466">
        <ele>1545.218</ele>
        <time>2019-05-29T08:46:50Z</time>
      </trkpt>
      <trkpt lat="42.506570" lon="2.120559">
        <ele>1545.608</ele>
        <time>2019-05-29T08:46:55Z</time>
      </trkpt>
      <trkpt lat="42.506516" lon="2.120661">
        <ele>1546.419</ele>
        <time>2019-05-29T08:47:00Z</time>
      </trkpt>
      <trkpt lat="42.506495" lon="2.120705">
        <ele>1546.873</ele>
        <time>2019-05-29T08:47:02Z</time>
      </trkpt>
      <trkpt lat="42.506462" lon="2.120816">
        <ele>1547.459</ele>
        <time>2019-05-29T08:47:07Z</time>
      </trkpt>
      <trkpt lat="42.506451" lon="2.120860">
        <ele>1547.877</ele>
        <time>2019-05-29T08:47:09Z</time>
      </trkpt>
      <trkpt lat="42.506452" lon="2.121031">
        <ele>1548.820</ele>
        <time>2019-05-29T08:47:16Z</time>
      </trkpt>
      <trkpt lat="42.506460" lon="2.121054">
        <ele>1549.040</ele>
        <time>2019-05-29T08:47:17Z</time>
      </trkpt>
      <trkpt lat="42.506499" lon="2.121198">
        <ele>1549.622</ele>
        <time>2019-05-29T08:47:23Z</time>
      </trkpt>
      <trkpt lat="42.506545" lon="2.121243">
        <ele>1550.087</ele>
        <time>2019-05-29T08:47:26Z</time>
      </trkpt>
      <trkpt lat="42.506569" lon="2.121248">
        <ele>1550.248</ele>
        <time>2019-05-29T08:47:27Z</time>
      </trkpt>
      <trkpt lat="42.506594" lon="2.121244">
        <ele>1550.661</ele>
        <time>2019-05-29T08:47:28Z</time>
      </trkpt>
      <trkpt lat="42.506665" lon="2.121144">
        <ele>1550.817</ele>
        <time>2019-05-29T08:47:32Z</time>
      </trkpt>
      <trkpt lat="42.506673" lon="2.121109">
        <ele>1551.008</ele>
        <time>2019-05-29T08:47:33Z</time>
      </trkpt>
      <trkpt lat="42.506719" lon="2.120903">
        <ele>1550.257</ele>
        <time>2019-05-29T08:47:39Z</time>
      </trkpt>
      <trkpt lat="42.506790" lon="2.120750">
        <ele>1550.281</ele>
        <time>2019-05-29T08:47:44Z</time>
      </trkpt>
      <trkpt lat="42.506933" lon="2.120560">
        <ele>1550.897</ele>
        <time>2019-05-29T08:47:51Z</time>
      </trkpt>
      <trkpt lat="42.507149" lon="2.120295">
        <ele>1550.635</ele>
        <time>2019-05-29T08:48:00Z</time>
      </trkpt>
      <trkpt lat="42.507263" lon="2.120145">
        <ele>1551.068</ele>
        <time>2019-05-29T08:48:05Z</time>
      </trkpt>
      <trkpt lat="42.507322" lon="2.120053">
        <ele>1551.228</ele>
        <time>2019-05-29T08:48:08Z</time>
      </trkpt>
      <trkpt lat="42.507473" lon="2.119781">
        <ele>1552.020</ele>
        <time>2019-05-29T08:48:16Z</time>
      </trkpt>
      <trkpt lat="42.507488" lon="2.119742">
        <ele>1552.045</ele>
        <time>2019-05-29T08:48:17Z</time>
      </trkpt>
      <trkpt lat="42.507572" lon="2.119465">
        <ele>1552.653</ele>
        <time>2019-05-29T08:48:24Z</time>
      </trkpt>
      <trkpt lat="42.507591" lon="2.119380">
        <ele>1553.004</ele>
        <time>2019-05-29T08:48:26Z</time>
      </trkpt>
      <trkpt lat="42.507658" lon="2.119071">
        <ele>1553.414</ele>
        <time>2019-05-29T08:48:33Z</time>
      </trkpt>
      <trkpt lat="42.507791" lon="2.118798">
        <ele>1553.408</ele>
        <time>2019-05-29T08:48:40Z</time>
      </trkpt>
      <trkpt lat="42.507892" lon="2.118689">
        <ele>1554.098</ele>
        <time>2019-05-29T08:48:44Z</time>
      </trkpt>
      <trkpt lat="42.507993" lon="2.118584">
        <ele>1554.242</ele>
        <time>2019-05-29T08:48:48Z</time>
      </trkpt>
      <trkpt lat="42.508186" lon="2.118377">
        <ele>1555.088</ele>
        <time>2019-05-29T08:48:56Z</time>
      </trkpt>
      <trkpt lat="42.508208" lon="2.118348">
        <ele>1555.296</ele>
        <time>2019-05-29T08:48:57Z</time>
      </trkpt>
      <trkpt lat="42.508348" lon="2.118130">
        <ele>1555.669</ele>
        <time>2019-05-29T08:49:04Z</time>
      </trkpt>
      <trkpt lat="42.508398" lon="2.118032">
        <ele>1556.229</ele>
        <time>2019-05-29T08:49:07Z</time>
      </trkpt>
      <trkpt lat="42.508463" lon="2.117893">
        <ele>1556.251</ele>
        <time>2019-05-29T08:49:11Z</time>
      </trkpt>
      <trkpt lat="42.508576" lon="2.117733">
        <ele>1556.656</ele>
        <time>2019-05-29T08:49:17Z</time>
      </trkpt>
      <trkpt lat="42.508612" lon="2.117685">
        <ele>1557.237</ele>
        <time>2019-05-29T08:49:19Z</time>
      </trkpt>
      <trkpt lat="42.508675" lon="2.117553">
        <ele>1558.049</ele>
        <time>2019-05-29T08:49:23Z</time>
      </trkpt>
      <trkpt lat="42.508690" lon="2.117521">
        <ele>1558.213</ele>
        <time>2019-05-29T08:49:24Z</time>
      </trkpt>
      <trkpt lat="42.508748" lon="2.117375">
        <ele>1558.608</ele>
        <time>2019-05-29T08:49:29Z</time>
      </trkpt>
      <trkpt lat="42.508810" lon="2.117217">
        <ele>1559.456</ele>
        <time>2019-05-29T08:49:34Z</time>
      </trkpt>
      <trkpt lat="42.508833" lon="2.117159">
        <ele>1560.080</ele>
        <time>2019-05-29T08:49:36Z</time>
      </trkpt>
      <trkpt lat="42.508860" lon="2.117072">
        <ele>1560.426</ele>
        <time>2019-05-29T08:49:39Z</time>
      </trkpt>
      <trkpt lat="42.508883" lon="2.116946">
        <ele>1561.074</ele>
        <time>2019-05-29T08:49:43Z</time>
      </trkpt>
      <trkpt lat="42.508919" lon="2.116811">
        <ele>1561.877</ele>
        <time>2019-05-29T08:49:48Z</time>
      </trkpt>
      <trkpt lat="42.508925" lon="2.116788">
        <ele>1562.297</ele>
        <time>2019-05-29T08:49:49Z</time>
      </trkpt>
      <trkpt lat="42.508983" lon="2.116670">
        <ele>1562.899</ele>
        <time>2019-05-29T08:49:55Z</time>
      </trkpt>
      <trkpt lat="42.509004" lon="2.116638">
        <ele>1563.224</ele>
        <time>2019-05-29T08:49:57Z</time>
      </trkpt>
      <trkpt lat="42.509036" lon="2.116598">
        <ele>1564.053</ele>
        <time>2019-05-29T08:50:00Z</time>
      </trkpt>
      <trkpt lat="42.509084" lon="2.116534">
        <ele>1564.804</ele>
        <time>2019-05-29T08:50:05Z</time>
      </trkpt>
      <trkpt lat="42.509094" lon="2.116518">
        <ele>1565.014</ele>
        <time>2019-05-29T08:50:06Z</time>
      </trkpt>
      <trkpt lat="42.509129" lon="2.116474">
        <ele>1566.408</ele>
        <time>2019-05-29T08:50:09Z</time>
      </trkpt>
      <trkpt lat="42.509160" lon="2.116426">
        <ele>1567.298</ele>
        <time>2019-05-29T08:50:12Z</time>
      </trkpt>
      <trkpt lat="42.509172" lon="2.116409">
        <ele>1567.422</ele>
        <time>2019-05-29T08:50:13Z</time>
      </trkpt>
      <trkpt lat="42.509248" lon="2.116329">
        <ele>1568.448</ele>
        <time>2019-05-29T08:50:19Z</time>
      </trkpt>
      <trkpt lat="42.509260" lon="2.116313">
        <ele>1568.636</ele>
        <time>2019-05-29T08:50:20Z</time>
      </trkpt>
      <trkpt lat="42.509324" lon="2.116217">
        <ele>1569.819</ele>
        <time>2019-05-29T08:50:26Z</time>
      </trkpt>
      <trkpt lat="42.509361" lon="2.116172">
        <ele>1570.299</ele>
        <time>2019-05-29T08:50:29Z</time>
      </trkpt>
      <trkpt lat="42.509424" lon="2.116106">
        <ele>1570.841</ele>
        <time>2019-05-29T08:50:34Z</time>
      </trkpt>
      <trkpt lat="42.509440" lon="2.116072">
        <ele>1571.676</ele>
        <time>2019-05-29T08:50:36Z</time>
      </trkpt>
      <trkpt lat="42.509450" lon="2.116057">
        <ele>1571.843</ele>
        <time>2019-05-29T08:50:37Z</time>
      </trkpt>
      <trkpt lat="42.509535" lon="2.115924">
        <ele>1572.464</ele>
        <time>2019-05-29T08:50:46Z</time>
      </trkpt>
      <trkpt lat="42.509588" lon="2.115807">
        <ele>1572.810</ele>
        <time>2019-05-29T08:50:52Z</time>
      </trkpt>
      <trkpt lat="42.509598" lon="2.115790">
        <ele>1573.208</ele>
        <time>2019-05-29T08:50:53Z</time>
      </trkpt>
      <trkpt lat="42.509667" lon="2.115680">
        <ele>1573.677</ele>
        <time>2019-05-29T08:50:59Z</time>
      </trkpt>
      <trkpt lat="42.509695" lon="2.115646">
        <ele>1573.821</ele>
        <time>2019-05-29T08:51:01Z</time>
      </trkpt>
      <trkpt lat="42.509706" lon="2.115633">
        <ele>1574.067</ele>
        <time>2019-05-29T08:51:02Z</time>
      </trkpt>
      <trkpt lat="42.509745" lon="2.115587">
        <ele>1574.475</ele>
        <time>2019-05-29T08:51:05Z</time>
      </trkpt>
      <trkpt lat="42.509813" lon="2.115498">
        <ele>1575.048</ele>
        <time>2019-05-29T08:51:11Z</time>
      </trkpt>
      <trkpt lat="42.509822" lon="2.115482">
        <ele>1575.088</ele>
        <time>2019-05-29T08:51:12Z</time>
      </trkpt>
      <trkpt lat="42.509912" lon="2.115388">
        <ele>1576.060</ele>
        <time>2019-05-29T08:51:19Z</time>
      </trkpt>
      <trkpt lat="42.509924" lon="2.115373">
        <ele>1576.285</ele>
        <time>2019-05-29T08:51:20Z</time>
      </trkpt>
      <trkpt lat="42.510003" lon="2.115256">
        <ele>1576.642</ele>
        <time>2019-05-29T08:51:27Z</time>
      </trkpt>
      <trkpt lat="42.510036" lon="2.115214">
        <ele>1577.222</ele>
        <time>2019-05-29T08:51:30Z</time>
      </trkpt>
      <trkpt lat="42.510069" lon="2.115168">
        <ele>1577.414</ele>
        <time>2019-05-29T08:51:33Z</time>
      </trkpt>
      <trkpt lat="42.510134" lon="2.115050">
        <ele>1578.008</ele>
        <time>2019-05-29T08:51:40Z</time>
      </trkpt>
      <trkpt lat="42.510145" lon="2.115029">
        <ele>1578.477</ele>
        <time>2019-05-29T08:51:41Z</time>
      </trkpt>
      <trkpt lat="42.510198" lon="2.114931">
        <ele>1578.831</ele>
        <time>2019-05-29T08:51:47Z</time>
      </trkpt>
      <trkpt lat="42.510220" lon="2.114898">
        <ele>1579.427</ele>
        <time>2019-05-29T08:51:49Z</time>
      </trkpt>
      <trkpt lat="42.510270" lon="2.114829">
        <ele>1579.865</ele>
        <time>2019-05-29T08:51:54Z</time>
      </trkpt>
      <trkpt lat="42.510344" lon="2.114756">
        <ele>1580.488</ele>
        <time>2019-05-29T08:51:59Z</time>
      </trkpt>
      <trkpt lat="42.510352" lon="2.114735">
        <ele>1580.448</ele>
        <time>2019-05-29T08:52:00Z</time>
      </trkpt>
      <trkpt lat="42.510413" lon="2.114644">
        <ele>1581.220</ele>
        <time>2019-05-29T08:52:06Z</time>
      </trkpt>
      <trkpt lat="42.510443" lon="2.114625">
        <ele>1581.435</ele>
        <time>2019-05-29T08:52:08Z</time>
      </trkpt>
      <trkpt lat="42.510462" lon="2.114616">
        <ele>1581.482</ele>
        <time>2019-05-29T08:52:09Z</time>
      </trkpt>
      <trkpt lat="42.510494" lon="2.114598">
        <ele>1581.843</ele>
        <time>2019-05-29T08:52:11Z</time>
      </trkpt>
      <trkpt lat="42.510551" lon="2.114560">
        <ele>1581.817</ele>
        <time>2019-05-29T08:52:15Z</time>
      </trkpt>
      <trkpt lat="42.510571" lon="2.114552">
        <ele>1582.008</ele>
        <time>2019-05-29T08:52:16Z</time>
      </trkpt>
      <trkpt lat="42.510721" lon="2.114544">
        <ele>1581.831</ele>
        <time>2019-05-29T08:52:23Z</time>
      </trkpt>
      <trkpt lat="42.510838" lon="2.114581">
        <ele>1581.815</ele>
        <time>2019-05-29T08:52:28Z</time>
      </trkpt>
      <trkpt lat="42.510973" lon="2.114605">
        <ele>1582.091</ele>
        <time>2019-05-29T08:52:34Z</time>
      </trkpt>
      <trkpt lat="42.511153" lon="2.114586">
        <ele>1581.669</ele>
        <time>2019-05-29T08:52:41Z</time>
      </trkpt>
      <trkpt lat="42.511450" lon="2.114702">
        <ele>1581.482</ele>
        <time>2019-05-29T08:52:51Z</time>
      </trkpt>
      <trkpt lat="42.511760" lon="2.114794">
        <ele>1581.442</ele>
        <time>2019-05-29T08:53:00Z</time>
      </trkpt>
      <trkpt lat="42.511965" lon="2.114752">
        <ele>1581.684</ele>
        <time>2019-05-29T08:53:06Z</time>
      </trkpt>
      <trkpt lat="42.512081" lon="2.114650">
        <ele>1582.869</ele>
        <time>2019-05-29T08:53:10Z</time>
      </trkpt>
      <trkpt lat="42.512122" lon="2.114575">
        <ele>1583.481</ele>
        <time>2019-05-29T08:53:12Z</time>
      </trkpt>
      <trkpt lat="42.512181" lon="2.114405">
        <ele>1584.261</ele>
        <time>2019-05-29T08:53:16Z</time>
      </trkpt>
      <trkpt lat="42.512204" lon="2.114262">
        <ele>1584.617</ele>
        <time>2019-05-29T08:53:19Z</time>
      </trkpt>
      <trkpt lat="42.512249" lon="2.113774">
        <ele>1583.808</ele>
        <time>2019-05-29T08:53:28Z</time>
      </trkpt>
      <trkpt lat="42.512276" lon="2.113440">
        <ele>1585.211</ele>
        <time>2019-05-29T08:53:34Z</time>
      </trkpt>
      <trkpt lat="42.512290" lon="2.113270">
        <ele>1585.035</ele>
        <time>2019-05-29T08:53:37Z</time>
      </trkpt>
      <trkpt lat="42.512331" lon="2.113101">
        <ele>1583.611</ele>
        <time>2019-05-29T08:53:40Z</time>
      </trkpt>
      <trkpt lat="42.512388" lon="2.112935">
        <ele>1582.879</ele>
        <time>2019-05-29T08:53:43Z</time>
      </trkpt>
      <trkpt lat="42.512412" lon="2.112883">
        <ele>1582.432</ele>
        <time>2019-05-29T08:53:44Z</time>
      </trkpt>
      <trkpt lat="42.512484" lon="2.112737">
        <ele>1581.892</ele>
        <time>2019-05-29T08:53:47Z</time>
      </trkpt>
      <trkpt lat="42.512737" lon="2.112281">
        <ele>1583.474</ele>
        <time>2019-05-29T08:53:57Z</time>
      </trkpt>
      <trkpt lat="42.512763" lon="2.112233">
        <ele>1583.899</ele>
        <time>2019-05-29T08:53:58Z</time>
      </trkpt>
      <trkpt lat="42.512957" lon="2.111932">
        <ele>1584.066</ele>
        <time>2019-05-29T08:54:05Z</time>
      </trkpt>
      <trkpt lat="42.512986" lon="2.111892">
        <ele>1583.629</ele>
        <time>2019-05-29T08:54:06Z</time>
      </trkpt>
      <trkpt lat="42.513271" lon="2.111491">
        <ele>1582.621</ele>
        <time>2019-05-29T08:54:16Z</time>
      </trkpt>
      <trkpt lat="42.513300" lon="2.111451">
        <ele>1582.408</ele>
        <time>2019-05-29T08:54:17Z</time>
      </trkpt>
      <trkpt lat="42.513382" lon="2.111327">
        <ele>1583.699</ele>
        <time>2019-05-29T08:54:20Z</time>
      </trkpt>
      <trkpt lat="42.513493" lon="2.111101">
        <ele>1584.223</ele>
        <time>2019-05-29T08:54:25Z</time>
      </trkpt>
      <trkpt lat="42.513604" lon="2.110800">
        <ele>1583.099</ele>
        <time>2019-05-29T08:54:31Z</time>
      </trkpt>
      <trkpt lat="42.513627" lon="2.110752">
        <ele>1583.247</ele>
        <time>2019-05-29T08:54:32Z</time>
      </trkpt>
      <trkpt lat="42.513744" lon="2.110591">
        <ele>1584.290</ele>
        <time>2019-05-29T08:54:36Z</time>
      </trkpt>
      <trkpt lat="42.513779" lon="2.110555">
        <ele>1584.240</ele>
        <time>2019-05-29T08:54:37Z</time>
      </trkpt>
      <trkpt lat="42.513858" lon="2.110502">
        <ele>1584.292</ele>
        <time>2019-05-29T08:54:39Z</time>
      </trkpt>
      <trkpt lat="42.513949" lon="2.110502">
        <ele>1584.697</ele>
        <time>2019-05-29T08:54:41Z</time>
      </trkpt>
      <trkpt lat="42.514033" lon="2.110517">
        <ele>1585.267</ele>
        <time>2019-05-29T08:54:43Z</time>
      </trkpt>
      <trkpt lat="42.514109" lon="2.110534">
        <ele>1586.081</ele>
        <time>2019-05-29T08:54:45Z</time>
      </trkpt>
      <trkpt lat="42.514211" lon="2.110554">
        <ele>1586.419</ele>
        <time>2019-05-29T08:54:48Z</time>
      </trkpt>
      <trkpt lat="42.514343" lon="2.110581">
        <ele>1587.008</ele>
        <time>2019-05-29T08:54:52Z</time>
      </trkpt>
      <trkpt lat="42.514462" lon="2.110608">
        <ele>1587.229</ele>
        <time>2019-05-29T08:54:56Z</time>
      </trkpt>
      <trkpt lat="42.514677" lon="2.110650">
        <ele>1588.073</ele>
        <time>2019-05-29T08:55:04Z</time>
      </trkpt>
      <trkpt lat="42.514703" lon="2.110659">
        <ele>1588.469</ele>
        <time>2019-05-29T08:55:05Z</time>
      </trkpt>
      <trkpt lat="42.514793" lon="2.110724">
        <ele>1589.237</ele>
        <time>2019-05-29T08:55:09Z</time>
      </trkpt>
      <trkpt lat="42.514861" lon="2.110796">
        <ele>1590.070</ele>
        <time>2019-05-29T08:55:12Z</time>
      </trkpt>
      <trkpt lat="42.514880" lon="2.110823">
        <ele>1590.290</ele>
        <time>2019-05-29T08:55:13Z</time>
      </trkpt>
      <trkpt lat="42.514946" lon="2.110972">
        <ele>1591.482</ele>
        <time>2019-05-29T08:55:18Z</time>
      </trkpt>
      <trkpt lat="42.514952" lon="2.111001">
        <ele>1591.487</ele>
        <time>2019-05-29T08:55:19Z</time>
      </trkpt>
      <trkpt lat="42.514981" lon="2.111208">
        <ele>1592.096</ele>
        <time>2019-05-29T08:55:26Z</time>
      </trkpt>
      <trkpt lat="42.514965" lon="2.111354">
        <ele>1592.431</ele>
        <time>2019-05-29T08:55:31Z</time>
      </trkpt>
      <trkpt lat="42.514942" lon="2.111465">
        <ele>1593.224</ele>
        <time>2019-05-29T08:55:35Z</time>
      </trkpt>
      <trkpt lat="42.514919" lon="2.111552">
        <ele>1593.608</ele>
        <time>2019-05-29T08:55:38Z</time>
      </trkpt>
      <trkpt lat="42.514874" lon="2.111729">
        <ele>1593.822</ele>
        <time>2019-05-29T08:55:44Z</time>
      </trkpt>
      <trkpt lat="42.514830" lon="2.111914">
        <ele>1594.816</ele>
        <time>2019-05-29T08:55:50Z</time>
      </trkpt>
      <trkpt lat="42.514820" lon="2.111947">
        <ele>1595.032</ele>
        <time>2019-05-29T08:55:51Z</time>
      </trkpt>
      <trkpt lat="42.514794" lon="2.112065">
        <ele>1595.830</ele>
        <time>2019-05-29T08:55:55Z</time>
      </trkpt>
      <trkpt lat="42.514794" lon="2.112164">
        <ele>1596.283</ele>
        <time>2019-05-29T08:55:58Z</time>
      </trkpt>
      <trkpt lat="42.514849" lon="2.112403">
        <ele>1596.023</ele>
        <time>2019-05-29T08:56:06Z</time>
      </trkpt>
      <trkpt lat="42.514881" lon="2.112479">
        <ele>1597.085</ele>
        <time>2019-05-29T08:56:09Z</time>
      </trkpt>
      <trkpt lat="42.514944" lon="2.112614">
        <ele>1597.850</ele>
        <time>2019-05-29T08:56:14Z</time>
      </trkpt>
      <trkpt lat="42.514959" lon="2.112638">
        <ele>1598.075</ele>
        <time>2019-05-29T08:56:15Z</time>
      </trkpt>
      <trkpt lat="42.515024" lon="2.112790">
        <ele>1597.828</ele>
        <time>2019-05-29T08:56:21Z</time>
      </trkpt>
      <trkpt lat="42.515089" lon="2.112914">
        <ele>1599.420</ele>
        <time>2019-05-29T08:56:26Z</time>
      </trkpt>
      <trkpt lat="42.515128" lon="2.112988">
        <ele>1599.808</ele>
        <time>2019-05-29T08:56:29Z</time>
      </trkpt>
      <trkpt lat="42.515186" lon="2.113120">
        <ele>1600.630</ele>
        <time>2019-05-29T08:56:34Z</time>
      </trkpt>
      <trkpt lat="42.515239" lon="2.113226">
        <ele>1600.614</ele>
        <time>2019-05-29T08:56:38Z</time>
      </trkpt>
      <trkpt lat="42.515336" lon="2.113459">
        <ele>1601.680</ele>
        <time>2019-05-29T08:56:47Z</time>
      </trkpt>
      <trkpt lat="42.515430" lon="2.113687">
        <ele>1602.448</ele>
        <time>2019-05-29T08:56:56Z</time>
      </trkpt>
      <trkpt lat="42.515474" lon="2.113787">
        <ele>1602.621</ele>
        <time>2019-05-29T08:57:00Z</time>
      </trkpt>
      <trkpt lat="42.515530" lon="2.113920">
        <ele>1603.271</ele>
        <time>2019-05-29T08:57:05Z</time>
      </trkpt>
      <trkpt lat="42.515542" lon="2.113947">
        <ele>1603.623</ele>
        <time>2019-05-29T08:57:06Z</time>
      </trkpt>
      <trkpt lat="42.515605" lon="2.114072">
        <ele>1604.878</ele>
        <time>2019-05-29T08:57:11Z</time>
      </trkpt>
      <trkpt lat="42.515620" lon="2.114095">
        <ele>1604.842</ele>
        <time>2019-05-29T08:57:12Z</time>
      </trkpt>
      <trkpt lat="42.515806" lon="2.114381">
        <ele>1605.022</ele>
        <time>2019-05-29T08:57:23Z</time>
      </trkpt>
      <trkpt lat="42.516005" lon="2.114586">
        <ele>1605.014</ele>
        <time>2019-05-29T08:57:32Z</time>
      </trkpt>
      <trkpt lat="42.516294" lon="2.114794">
        <ele>1603.808</ele>
        <time>2019-05-29T08:57:43Z</time>
      </trkpt>
      <trkpt lat="42.516401" lon="2.114868">
        <ele>1603.617</ele>
        <time>2019-05-29T08:57:47Z</time>
      </trkpt>
      <trkpt lat="42.516502" lon="2.114942">
        <ele>1604.891</ele>
        <time>2019-05-29T08:57:51Z</time>
      </trkpt>
      <trkpt lat="42.516550" lon="2.114979">
        <ele>1604.837</ele>
        <time>2019-05-29T08:57:53Z</time>
      </trkpt>
      <trkpt lat="42.516767" lon="2.115120">
        <ele>1605.415</ele>
        <time>2019-05-29T08:58:01Z</time>
      </trkpt>
      <trkpt lat="42.516955" lon="2.115258">
        <ele>1605.888</ele>
        <time>2019-05-29T08:58:08Z</time>
      </trkpt>
      <trkpt lat="42.517039" lon="2.115315">
        <ele>1605.668</ele>
        <time>2019-05-29T08:58:11Z</time>
      </trkpt>
      <trkpt lat="42.517396" lon="2.115561">
        <ele>1605.870</ele>
        <time>2019-05-29T08:58:23Z</time>
      </trkpt>
      <trkpt lat="42.517638" lon="2.115742">
        <ele>1605.435</ele>
        <time>2019-05-29T08:58:31Z</time>
      </trkpt>
      <trkpt lat="42.517932" lon="2.115954">
        <ele>1605.419</ele>
        <time>2019-05-29T08:58:41Z</time>
      </trkpt>
      <trkpt lat="42.518150" lon="2.116101">
        <ele>1605.809</ele>
        <time>2019-05-29T08:58:48Z</time>
      </trkpt>
      <trkpt lat="42.518340" lon="2.116234">
        <ele>1604.619</ele>
        <time>2019-05-29T08:58:54Z</time>
      </trkpt>
      <trkpt lat="42.518429" lon="2.116293">
        <ele>1605.608</ele>
        <time>2019-05-29T08:58:57Z</time>
      </trkpt>
      <trkpt lat="42.518692" lon="2.116483">
        <ele>1604.494</ele>
        <time>2019-05-29T08:59:06Z</time>
      </trkpt>
      <trkpt lat="42.518902" lon="2.116636">
        <ele>1605.488</ele>
        <time>2019-05-29T08:59:14Z</time>
      </trkpt>
      <trkpt lat="42.518927" lon="2.116656">
        <ele>1605.834</ele>
        <time>2019-05-29T08:59:15Z</time>
      </trkpt>
      <trkpt lat="42.519128" lon="2.116797">
        <ele>1605.212</ele>
        <time>2019-05-29T08:59:23Z</time>
      </trkpt>
      <trkpt lat="42.519152" lon="2.116816">
        <ele>1604.655</ele>
        <time>2019-05-29T08:59:24Z</time>
      </trkpt>
      <trkpt lat="42.519329" lon="2.116932">
        <ele>1605.675</ele>
        <time>2019-05-29T08:59:31Z</time>
      </trkpt>
      <trkpt lat="42.519354" lon="2.116950">
        <ele>1606.027</ele>
        <time>2019-05-29T08:59:32Z</time>
      </trkpt>
      <trkpt lat="42.519520" lon="2.117068">
        <ele>1606.832</ele>
        <time>2019-05-29T08:59:39Z</time>
      </trkpt>
      <trkpt lat="42.519541" lon="2.117085">
        <ele>1607.418</ele>
        <time>2019-05-29T08:59:40Z</time>
      </trkpt>
      <trkpt lat="42.519669" lon="2.117175">
        <ele>1608.498</ele>
        <time>2019-05-29T08:59:46Z</time>
      </trkpt>
      <trkpt lat="42.519713" lon="2.117206">
        <ele>1609.617</ele>
        <time>2019-05-29T08:59:48Z</time>
      </trkpt>
      <trkpt lat="42.519883" lon="2.117324">
        <ele>1609.608</ele>
        <time>2019-05-29T08:59:56Z</time>
      </trkpt>
      <trkpt lat="42.520072" lon="2.117456">
        <ele>1609.884</ele>
        <time>2019-05-29T09:00:05Z</time>
      </trkpt>
      <trkpt lat="42.520221" lon="2.117556">
        <ele>1611.028</ele>
        <time>2019-05-29T09:00:12Z</time>
      </trkpt>
      <trkpt lat="42.520263" lon="2.117582">
        <ele>1610.814</ele>
        <time>2019-05-29T09:00:14Z</time>
      </trkpt>
      <trkpt lat="42.520493" lon="2.117752">
        <ele>1612.242</ele>
        <time>2019-05-29T09:00:25Z</time>
      </trkpt>
      <trkpt lat="42.520709" lon="2.117959">
        <ele>1613.665</ele>
        <time>2019-05-29T09:00:36Z</time>
      </trkpt>
      <trkpt lat="42.520917" lon="2.118263">
        <ele>1614.445</ele>
        <time>2019-05-29T09:00:49Z</time>
      </trkpt>
      <trkpt lat="42.520933" lon="2.118290">
        <ele>1614.857</ele>
        <time>2019-05-29T09:00:50Z</time>
      </trkpt>
      <trkpt lat="42.521112" lon="2.118578">
        <ele>1616.022</ele>
        <time>2019-05-29T09:01:01Z</time>
      </trkpt>
      <trkpt lat="42.521222" lon="2.118760">
        <ele>1617.096</ele>
        <time>2019-05-29T09:01:08Z</time>
      </trkpt>
      <trkpt lat="42.521279" lon="2.118860">
        <ele>1617.031</ele>
        <time>2019-05-29T09:01:12Z</time>
      </trkpt>
      <trkpt lat="42.521363" lon="2.118990">
        <ele>1618.224</ele>
        <time>2019-05-29T09:01:17Z</time>
      </trkpt>
      <trkpt lat="42.521430" lon="2.119090">
        <ele>1618.608</ele>
        <time>2019-05-29T09:01:21Z</time>
      </trkpt>
      <trkpt lat="42.521519" lon="2.119217">
        <ele>1619.422</ele>
        <time>2019-05-29T09:01:26Z</time>
      </trkpt>
      <trkpt lat="42.521580" lon="2.119316">
        <ele>1620.026</ele>
        <time>2019-05-29T09:01:30Z</time>
      </trkpt>
      <trkpt lat="42.521615" lon="2.119365">
        <ele>1620.832</ele>
        <time>2019-05-29T09:01:32Z</time>
      </trkpt>
      <trkpt lat="42.521732" lon="2.119534">
        <ele>1620.820</ele>
        <time>2019-05-29T09:01:39Z</time>
      </trkpt>
      <trkpt lat="42.521782" lon="2.119608">
        <ele>1621.883</ele>
        <time>2019-05-29T09:01:42Z</time>
      </trkpt>
      <trkpt lat="42.521898" lon="2.119779">
        <ele>1621.643</ele>
        <time>2019-05-29T09:01:49Z</time>
      </trkpt>
      <trkpt lat="42.522070" lon="2.120027">
        <ele>1623.055</ele>
        <time>2019-05-29T09:01:59Z</time>
      </trkpt>
      <trkpt lat="42.522099" lon="2.120076">
        <ele>1623.240</ele>
        <time>2019-05-29T09:02:01Z</time>
      </trkpt>
      <trkpt lat="42.522184" lon="2.120192">
        <ele>1624.033</ele>
        <time>2019-05-29T09:02:06Z</time>
      </trkpt>
      <trkpt lat="42.522274" lon="2.120321">
        <ele>1624.823</ele>
        <time>2019-05-29T09:02:11Z</time>
      </trkpt>
      <trkpt lat="42.522405" lon="2.120506">
        <ele>1625.215</ele>
        <time>2019-05-29T09:02:18Z</time>
      </trkpt>
      <trkpt lat="42.522451" lon="2.120579">
        <ele>1625.808</ele>
        <time>2019-05-29T09:02:21Z</time>
      </trkpt>
      <trkpt lat="42.522549" lon="2.120720">
        <ele>1626.256</ele>
        <time>2019-05-29T09:02:27Z</time>
      </trkpt>
      <trkpt lat="42.522596" lon="2.120791">
        <ele>1626.280</ele>
        <time>2019-05-29T09:02:30Z</time>
      </trkpt>
      <trkpt lat="42.522700" lon="2.120942">
        <ele>1626.826</ele>
        <time>2019-05-29T09:02:37Z</time>
      </trkpt>
      <trkpt lat="42.522732" lon="2.120990">
        <ele>1627.064</ele>
        <time>2019-05-29T09:02:39Z</time>
      </trkpt>
      <trkpt lat="42.522763" lon="2.121035">
        <ele>1627.447</ele>
        <time>2019-05-29T09:02:41Z</time>
      </trkpt>
      <trkpt lat="42.522852" lon="2.121159">
        <ele>1628.037</ele>
        <time>2019-05-29T09:02:47Z</time>
      </trkpt>
      <trkpt lat="42.522950" lon="2.121292">
        <ele>1628.469</ele>
        <time>2019-05-29T09:02:53Z</time>
      </trkpt>
      <trkpt lat="42.522966" lon="2.121310">
        <ele>1628.614</ele>
        <time>2019-05-29T09:02:54Z</time>
      </trkpt>
      <trkpt lat="42.523058" lon="2.121399">
        <ele>1629.651</ele>
        <time>2019-05-29T09:02:59Z</time>
      </trkpt>
      <trkpt lat="42.523116" lon="2.121450">
        <ele>1629.601</ele>
        <time>2019-05-29T09:03:02Z</time>
      </trkpt>
      <trkpt lat="42.523290" lon="2.121569">
        <ele>1630.011</ele>
        <time>2019-05-29T09:03:10Z</time>
      </trkpt>
      <trkpt lat="42.523373" lon="2.121688">
        <ele>1630.608</ele>
        <time>2019-05-29T09:03:15Z</time>
      </trkpt>
      <trkpt lat="42.523516" lon="2.121801">
        <ele>1631.478</ele>
        <time>2019-05-29T09:03:23Z</time>
      </trkpt>
      <trkpt lat="42.523537" lon="2.121817">
        <ele>1631.832</ele>
        <time>2019-05-29T09:03:24Z</time>
      </trkpt>
      <trkpt lat="42.523671" lon="2.121926">
        <ele>1632.478</ele>
        <time>2019-05-29T09:03:31Z</time>
      </trkpt>
      <trkpt lat="42.523709" lon="2.121953">
        <ele>1632.876</ele>
        <time>2019-05-29T09:03:33Z</time>
      </trkpt>
      <trkpt lat="42.523814" lon="2.122000">
        <ele>1633.059</ele>
        <time>2019-05-29T09:03:38Z</time>
      </trkpt>
      <trkpt lat="42.523942" lon="2.122076">
        <ele>1633.669</ele>
        <time>2019-05-29T09:03:44Z</time>
      </trkpt>
      <trkpt lat="42.523963" lon="2.122090">
        <ele>1633.821</ele>
        <time>2019-05-29T09:03:45Z</time>
      </trkpt>
      <trkpt lat="42.524086" lon="2.122178">
        <ele>1634.896</ele>
        <time>2019-05-29T09:03:51Z</time>
      </trkpt>
      <trkpt lat="42.524104" lon="2.122192">
        <ele>1634.898</ele>
        <time>2019-05-29T09:03:52Z</time>
      </trkpt>
      <trkpt lat="42.524240" lon="2.122303">
        <ele>1635.815</ele>
        <time>2019-05-29T09:03:59Z</time>
      </trkpt>
      <trkpt lat="42.524260" lon="2.122318">
        <ele>1635.826</ele>
        <time>2019-05-29T09:04:00Z</time>
      </trkpt>
      <trkpt lat="42.524394" lon="2.122424">
        <ele>1636.408</ele>
        <time>2019-05-29T09:04:07Z</time>
      </trkpt>
      <trkpt lat="42.524546" lon="2.122543">
        <ele>1637.262</ele>
        <time>2019-05-29T09:04:15Z</time>
      </trkpt>
      <trkpt lat="42.524565" lon="2.122559">
        <ele>1637.676</ele>
        <time>2019-05-29T09:04:16Z</time>
      </trkpt>
      <trkpt lat="42.524699" lon="2.122663">
        <ele>1638.462</ele>
        <time>2019-05-29T09:04:23Z</time>
      </trkpt>
      <trkpt lat="42.524873" lon="2.122763">
        <ele>1638.880</ele>
        <time>2019-05-29T09:04:31Z</time>
      </trkpt>
      <trkpt lat="42.524964" lon="2.122792">
        <ele>1639.443</ele>
        <time>2019-05-29T09:04:35Z</time>
      </trkpt>
      <trkpt lat="42.525033" lon="2.122811">
        <ele>1640.243</ele>
        <time>2019-05-29T09:04:38Z</time>
      </trkpt>
      <trkpt lat="42.525230" lon="2.122828">
        <ele>1640.855</ele>
        <time>2019-05-29T09:04:46Z</time>
      </trkpt>
      <trkpt lat="42.525287" lon="2.122823">
        <ele>1641.880</ele>
        <time>2019-05-29T09:04:48Z</time>
      </trkpt>
      <trkpt lat="42.525461" lon="2.122810">
        <ele>1641.827</ele>
        <time>2019-05-29T09:04:55Z</time>
      </trkpt>
      <trkpt lat="42.525632" lon="2.122844">
        <ele>1642.468</ele>
        <time>2019-05-29T09:05:02Z</time>
      </trkpt>
      <trkpt lat="42.525781" lon="2.122879">
        <ele>1643.014</ele>
        <time>2019-05-29T09:05:08Z</time>
      </trkpt>
      <trkpt lat="42.525809" lon="2.122880">
        <ele>1642.808</ele>
        <time>2019-05-29T09:05:09Z</time>
      </trkpt>
      <trkpt lat="42.525899" lon="2.122908">
        <ele>1644.255</ele>
        <time>2019-05-29T09:05:13Z</time>
      </trkpt>
      <trkpt lat="42.525942" lon="2.122921">
        <ele>1644.079</ele>
        <time>2019-05-29T09:05:15Z</time>
      </trkpt>
      <trkpt lat="42.526128" lon="2.122998">
        <ele>1644.625</ele>
        <time>2019-05-29T09:05:24Z</time>
      </trkpt>
      <trkpt lat="42.526315" lon="2.123060">
        <ele>1644.063</ele>
        <time>2019-05-29T09:05:32Z</time>
      </trkpt>
      <trkpt lat="42.526483" lon="2.123084">
        <ele>1645.226</ele>
        <time>2019-05-29T09:05:39Z</time>
      </trkpt>
      <trkpt lat="42.526531" lon="2.123083">
        <ele>1645.486</ele>
        <time>2019-05-29T09:05:41Z</time>
      </trkpt>
      <trkpt lat="42.526693" lon="2.123012">
        <ele>1646.268</ele>
        <time>2019-05-29T09:05:48Z</time>
      </trkpt>
      <trkpt lat="42.526890" lon="2.122946">
        <ele>1646.643</ele>
        <time>2019-05-29T09:05:56Z</time>
      </trkpt>
      <trkpt lat="42.527073" lon="2.122869">
        <ele>1646.456</ele>
        <time>2019-05-29T09:06:04Z</time>
      </trkpt>
      <trkpt lat="42.527197" lon="2.122820">
        <ele>1647.659</ele>
        <time>2019-05-29T09:06:09Z</time>
      </trkpt>
      <trkpt lat="42.527269" lon="2.122783">
        <ele>1648.814</ele>
        <time>2019-05-29T09:06:12Z</time>
      </trkpt>
      <trkpt lat="42.527293" lon="2.122772">
        <ele>1648.408</ele>
        <time>2019-05-29T09:06:13Z</time>
      </trkpt>
      <trkpt lat="42.527536" lon="2.122689">
        <ele>1649.298</ele>
        <time>2019-05-29T09:06:23Z</time>
      </trkpt>
      <trkpt lat="42.527653" lon="2.122687">
        <ele>1649.832</ele>
        <time>2019-05-29T09:06:28Z</time>
      </trkpt>
      <trkpt lat="42.527701" lon="2.122696">
        <ele>1650.038</ele>
        <time>2019-05-29T09:06:30Z</time>
      </trkpt>
      <trkpt lat="42.527795" lon="2.122725">
        <ele>1650.616</ele>
        <time>2019-05-29T09:06:34Z</time>
      </trkpt>
      <trkpt lat="42.527861" lon="2.122763">
        <ele>1650.659</ele>
        <time>2019-05-29T09:06:37Z</time>
      </trkpt>
      <trkpt lat="42.527883" lon="2.122778">
        <ele>1650.839</ele>
        <time>2019-05-29T09:06:38Z</time>
      </trkpt>
      <trkpt lat="42.527984" lon="2.122858">
        <ele>1652.011</ele>
        <time>2019-05-29T09:06:43Z</time>
      </trkpt>
      <trkpt lat="42.528032" lon="2.122893">
        <ele>1652.666</ele>
        <time>2019-05-29T09:06:46Z</time>
      </trkpt>
      <trkpt lat="42.528097" lon="2.122957">
        <ele>1653.247</ele>
        <time>2019-05-29T09:06:50Z</time>
      </trkpt>
      <trkpt lat="42.528129" lon="2.122991">
        <ele>1653.229</ele>
        <time>2019-05-29T09:06:52Z</time>
      </trkpt>
      <trkpt lat="42.528266" lon="2.123115">
        <ele>1653.821</ele>
        <time>2019-05-29T09:07:00Z</time>
      </trkpt>
      <trkpt lat="42.528387" lon="2.123225">
        <ele>1654.008</ele>
        <time>2019-05-29T09:07:07Z</time>
      </trkpt>
      <trkpt lat="42.528422" lon="2.123257">
        <ele>1654.237</ele>
        <time>2019-05-29T09:07:09Z</time>
      </trkpt>
      <trkpt lat="42.528533" lon="2.123358">
        <ele>1654.671</ele>
        <time>2019-05-29T09:07:15Z</time>
      </trkpt>
      <trkpt lat="42.528612" lon="2.123409">
        <ele>1655.257</ele>
        <time>2019-05-29T09:07:19Z</time>
      </trkpt>
      <trkpt lat="42.528712" lon="2.123448">
        <ele>1656.085</ele>
        <time>2019-05-29T09:07:24Z</time>
      </trkpt>
      <trkpt lat="42.528748" lon="2.123466">
        <ele>1656.458</ele>
        <time>2019-05-29T09:07:26Z</time>
      </trkpt>
      <trkpt lat="42.528812" lon="2.123491">
        <ele>1657.478</ele>
        <time>2019-05-29T09:07:30Z</time>
      </trkpt>
      <trkpt lat="42.528832" lon="2.123493">
        <ele>1657.660</ele>
        <time>2019-05-29T09:07:31Z</time>
      </trkpt>
      <trkpt lat="42.528955" lon="2.123558">
        <ele>1658.675</ele>
        <time>2019-05-29T09:07:38Z</time>
      </trkpt>
      <trkpt lat="42.528970" lon="2.123570">
        <ele>1658.664</ele>
        <time>2019-05-29T09:07:39Z</time>
      </trkpt>
      <trkpt lat="42.529061" lon="2.123733">
        <ele>1659.806</ele>
        <time>2019-05-29T09:07:47Z</time>
      </trkpt>
      <trkpt lat="42.529070" lon="2.123809">
        <ele>1661.016</ele>
        <time>2019-05-29T09:07:50Z</time>
      </trkpt>
      <trkpt lat="42.529063" lon="2.123930">
        <ele>1662.008</ele>
        <time>2019-05-29T09:07:55Z</time>
      </trkpt>
      <trkpt lat="42.529048" lon="2.123978">
        <ele>1662.249</ele>
        <time>2019-05-29T09:07:57Z</time>
      </trkpt>
      <trkpt lat="42.528993" lon="2.124065">
        <ele>1663.673</ele>
        <time>2019-05-29T09:08:01Z</time>
      </trkpt>
      <trkpt lat="42.528968" lon="2.124106">
        <ele>1663.699</ele>
        <time>2019-05-29T09:08:03Z</time>
      </trkpt>
      <trkpt lat="42.528875" lon="2.124245">
        <ele>1663.667</ele>
        <time>2019-05-29T09:08:10Z</time>
      </trkpt>
      <trkpt lat="42.528799" lon="2.124387">
        <ele>1664.210</ele>
        <time>2019-05-29T09:08:17Z</time>
      </trkpt>
      <trkpt lat="42.528770" lon="2.124458">
        <ele>1664.640</ele>
        <time>2019-05-29T09:08:20Z</time>
      </trkpt>
      <trkpt lat="42.528719" lon="2.124574">
        <ele>1664.852</ele>
        <time>2019-05-29T09:08:25Z</time>
      </trkpt>
      <trkpt lat="42.528671" lon="2.124859">
        <ele>1665.417</ele>
        <time>2019-05-29T09:08:36Z</time>
      </trkpt>
      <trkpt lat="42.528672" lon="2.124912">
        <ele>1665.875</ele>
        <time>2019-05-29T09:08:38Z</time>
      </trkpt>
      <trkpt lat="42.528691" lon="2.125097">
        <ele>1666.828</ele>
        <time>2019-05-29T09:08:45Z</time>
      </trkpt>
      <trkpt lat="42.528761" lon="2.125372">
        <ele>1667.420</ele>
        <time>2019-05-29T09:08:56Z</time>
      </trkpt>
      <trkpt lat="42.528824" lon="2.125502">
        <ele>1667.808</ele>
        <time>2019-05-29T09:09:02Z</time>
      </trkpt>
      <trkpt lat="42.528860" lon="2.125568">
        <ele>1668.070</ele>
        <time>2019-05-29T09:09:05Z</time>
      </trkpt>
      <trkpt lat="42.528977" lon="2.125709">
        <ele>1668.464</ele>
        <time>2019-05-29T09:09:13Z</time>
      </trkpt>
      <trkpt lat="42.529026" lon="2.125760">
        <ele>1668.810</ele>
        <time>2019-05-29T09:09:16Z</time>
      </trkpt>
      <trkpt lat="42.529145" lon="2.125900">
        <ele>1669.858</ele>
        <time>2019-05-29T09:09:24Z</time>
      </trkpt>
      <trkpt lat="42.529161" lon="2.125918">
        <ele>1670.041</ele>
        <time>2019-05-29T09:09:25Z</time>
      </trkpt>
      <trkpt lat="42.529252" lon="2.126089">
        <ele>1671.071</ele>
        <time>2019-05-29T09:09:33Z</time>
      </trkpt>
      <trkpt lat="42.529263" lon="2.126108">
        <ele>1671.223</ele>
        <time>2019-05-29T09:09:34Z</time>
      </trkpt>
      <trkpt lat="42.529322" lon="2.126221">
        <ele>1672.228</ele>
        <time>2019-05-29T09:09:39Z</time>
      </trkpt>
      <trkpt lat="42.529362" lon="2.126344">
        <ele>1672.819</ele>
        <time>2019-05-29T09:09:44Z</time>
      </trkpt>
      <trkpt lat="42.529380" lon="2.126390">
        <ele>1673.209</ele>
        <time>2019-05-29T09:09:46Z</time>
      </trkpt>
      <trkpt lat="42.529436" lon="2.126536">
        <ele>1673.419</ele>
        <time>2019-05-29T09:09:52Z</time>
      </trkpt>
      <trkpt lat="42.529472" lon="2.126659">
        <ele>1674.208</ele>
        <time>2019-05-29T09:09:57Z</time>
      </trkpt>
      <trkpt lat="42.529492" lon="2.126705">
        <ele>1674.424</ele>
        <time>2019-05-29T09:09:59Z</time>
      </trkpt>
      <trkpt lat="42.529538" lon="2.126844">
        <ele>1675.678</ele>
        <time>2019-05-29T09:10:05Z</time>
      </trkpt>
      <trkpt lat="42.529552" lon="2.126897">
        <ele>1675.614</ele>
        <time>2019-05-29T09:10:07Z</time>
      </trkpt>
      <trkpt lat="42.529636" lon="2.127087">
        <ele>1675.672</ele>
        <time>2019-05-29T09:10:15Z</time>
      </trkpt>
      <trkpt lat="42.529686" lon="2.127173">
        <ele>1676.625</ele>
        <time>2019-05-29T09:10:19Z</time>
      </trkpt>
      <trkpt lat="42.529715" lon="2.127246">
        <ele>1677.435</ele>
        <time>2019-05-29T09:10:22Z</time>
      </trkpt>
      <trkpt lat="42.529773" lon="2.127424">
        <ele>1677.427</ele>
        <time>2019-05-29T09:10:29Z</time>
      </trkpt>
      <trkpt lat="42.529835" lon="2.127561">
        <ele>1676.672</ele>
        <time>2019-05-29T09:10:34Z</time>
      </trkpt>
      <trkpt lat="42.529937" lon="2.127694">
        <ele>1676.043</ele>
        <time>2019-05-29T09:10:39Z</time>
      </trkpt>
      <trkpt lat="42.529991" lon="2.127738">
        <ele>1675.664</ele>
        <time>2019-05-29T09:10:41Z</time>
      </trkpt>
      <trkpt lat="42.530140" lon="2.127769">
        <ele>1675.010</ele>
        <time>2019-05-29T09:10:45Z</time>
      </trkpt>
      <trkpt lat="42.530230" lon="2.127747">
        <ele>1674.808</ele>
        <time>2019-05-29T09:10:47Z</time>
      </trkpt>
      <trkpt lat="42.530270" lon="2.127721">
        <ele>1674.647</ele>
        <time>2019-05-29T09:10:48Z</time>
      </trkpt>
      <trkpt lat="42.530316" lon="2.127693">
        <ele>1673.811</ele>
        <time>2019-05-29T09:10:49Z</time>
      </trkpt>
      <trkpt lat="42.530364" lon="2.127662">
        <ele>1672.897</ele>
        <time>2019-05-29T09:10:50Z</time>
      </trkpt>
      <trkpt lat="42.530561" lon="2.127533">
        <ele>1671.835</ele>
        <time>2019-05-29T09:10:54Z</time>
      </trkpt>
      <trkpt lat="42.530664" lon="2.127464">
        <ele>1671.248</ele>
        <time>2019-05-29T09:10:56Z</time>
      </trkpt>
      <trkpt lat="42.530828" lon="2.127383">
        <ele>1670.098</ele>
        <time>2019-05-29T09:10:59Z</time>
      </trkpt>
      <trkpt lat="42.530958" lon="2.127348">
        <ele>1668.810</ele>
        <time>2019-05-29T09:11:01Z</time>
      </trkpt>
      <trkpt lat="42.531023" lon="2.127342">
        <ele>1668.045</ele>
        <time>2019-05-29T09:11:02Z</time>
      </trkpt>
      <trkpt lat="42.531093" lon="2.127343">
        <ele>1667.649</ele>
        <time>2019-05-29T09:11:03Z</time>
      </trkpt>
      <trkpt lat="42.531218" lon="2.127355">
        <ele>1666.802</ele>
        <time>2019-05-29T09:11:05Z</time>
      </trkpt>
      <trkpt lat="42.531524" lon="2.127367">
        <ele>1666.422</ele>
        <time>2019-05-29T09:11:10Z</time>
      </trkpt>
      <trkpt lat="42.531587" lon="2.127378">
        <ele>1666.208</ele>
        <time>2019-05-29T09:11:11Z</time>
      </trkpt>
      <trkpt lat="42.531647" lon="2.127406">
        <ele>1666.027</ele>
        <time>2019-05-29T09:11:12Z</time>
      </trkpt>
      <trkpt lat="42.531769" lon="2.127591">
        <ele>1665.631</ele>
        <time>2019-05-29T09:11:15Z</time>
      </trkpt>
      <trkpt lat="42.531761" lon="2.127805">
        <ele>1666.097</ele>
        <time>2019-05-29T09:11:18Z</time>
      </trkpt>
      <trkpt lat="42.531748" lon="2.127867">
        <ele>1666.835</ele>
        <time>2019-05-29T09:11:19Z</time>
      </trkpt>
      <trkpt lat="42.531697" lon="2.128104">
        <ele>1666.628</ele>
        <time>2019-05-29T09:11:23Z</time>
      </trkpt>
      <trkpt lat="42.531677" lon="2.128159">
        <ele>1666.688</ele>
        <time>2019-05-29T09:11:24Z</time>
      </trkpt>
      <trkpt lat="42.531598" lon="2.128359">
        <ele>1667.670</ele>
        <time>2019-05-29T09:11:28Z</time>
      </trkpt>
      <trkpt lat="42.531531" lon="2.128484">
        <ele>1668.245</ele>
        <time>2019-05-29T09:11:31Z</time>
      </trkpt>
      <trkpt lat="42.531478" lon="2.128555">
        <ele>1668.669</ele>
        <time>2019-05-29T09:11:33Z</time>
      </trkpt>
      <trkpt lat="42.531336" lon="2.128770">
        <ele>1669.404</ele>
        <time>2019-05-29T09:11:39Z</time>
      </trkpt>
      <trkpt lat="42.531240" lon="2.128912">
        <ele>1669.824</ele>
        <time>2019-05-29T09:11:43Z</time>
      </trkpt>
      <trkpt lat="42.531197" lon="2.128995">
        <ele>1669.608</ele>
        <time>2019-05-29T09:11:45Z</time>
      </trkpt>
      <trkpt lat="42.531116" lon="2.129243">
        <ele>1670.459</ele>
        <time>2019-05-29T09:11:51Z</time>
      </trkpt>
      <trkpt lat="42.531056" lon="2.129515">
        <ele>1670.853</ele>
        <time>2019-05-29T09:11:58Z</time>
      </trkpt>
      <trkpt lat="42.531011" lon="2.129837">
        <ele>1671.869</ele>
        <time>2019-05-29T09:12:06Z</time>
      </trkpt>
      <trkpt lat="42.531005" lon="2.129911">
        <ele>1672.087</ele>
        <time>2019-05-29T09:12:08Z</time>
      </trkpt>
      <trkpt lat="42.531041" lon="2.130204">
        <ele>1672.650</ele>
        <time>2019-05-29T09:12:16Z</time>
      </trkpt>
      <trkpt lat="42.531072" lon="2.130265">
        <ele>1672.890</ele>
        <time>2019-05-29T09:12:18Z</time>
      </trkpt>
      <trkpt lat="42.531165" lon="2.130351">
        <ele>1673.222</ele>
        <time>2019-05-29T09:12:22Z</time>
      </trkpt>
      <trkpt lat="42.531346" lon="2.130408">
        <ele>1673.837</ele>
        <time>2019-05-29T09:12:29Z</time>
      </trkpt>
      <trkpt lat="42.531370" lon="2.130415">
        <ele>1674.099</ele>
        <time>2019-05-29T09:12:30Z</time>
      </trkpt>
      <trkpt lat="42.531531" lon="2.130429">
        <ele>1673.807</ele>
        <time>2019-05-29T09:12:36Z</time>
      </trkpt>
      <trkpt lat="42.531645" lon="2.130345">
        <ele>1674.427</ele>
        <time>2019-05-29T09:12:41Z</time>
      </trkpt>
      <trkpt lat="42.531717" lon="2.130252">
        <ele>1673.608</ele>
        <time>2019-05-29T09:12:46Z</time>
      </trkpt>
      <trkpt lat="42.531826" lon="2.130129">
        <ele>1675.252</ele>
        <time>2019-05-29T09:12:51Z</time>
      </trkpt>
      <trkpt lat="42.531882" lon="2.130090">
        <ele>1675.636</ele>
        <time>2019-05-29T09:12:53Z</time>
      </trkpt>
      <trkpt lat="42.532068" lon="2.129961">
        <ele>1676.022</ele>
        <time>2019-05-29T09:13:00Z</time>
      </trkpt>
      <trkpt lat="42.532192" lon="2.129865">
        <ele>1675.670</ele>
        <time>2019-05-29T09:13:06Z</time>
      </trkpt>
      <trkpt lat="42.532237" lon="2.129834">
        <ele>1676.263</ele>
        <time>2019-05-29T09:13:08Z</time>
      </trkpt>
      <trkpt lat="42.532397" lon="2.129763">
        <ele>1677.043</ele>
        <time>2019-05-29T09:13:14Z</time>
      </trkpt>
      <trkpt lat="42.532476" lon="2.129746">
        <ele>1677.285</ele>
        <time>2019-05-29T09:13:17Z</time>
      </trkpt>
      <trkpt lat="42.532580" lon="2.129757">
        <ele>1678.010</ele>
        <time>2019-05-29T09:13:21Z</time>
      </trkpt>
      <trkpt lat="42.532603" lon="2.129766">
        <ele>1678.424</ele>
        <time>2019-05-29T09:13:22Z</time>
      </trkpt>
      <trkpt lat="42.532761" lon="2.129863">
        <ele>1679.204</ele>
        <time>2019-05-29T09:13:29Z</time>
      </trkpt>
      <trkpt lat="42.532784" lon="2.129879">
        <ele>1679.614</ele>
        <time>2019-05-29T09:13:30Z</time>
      </trkpt>
      <trkpt lat="42.532937" lon="2.129960">
        <ele>1679.008</ele>
        <time>2019-05-29T09:13:37Z</time>
      </trkpt>
      <trkpt lat="42.533112" lon="2.129968">
        <ele>1679.495</ele>
        <time>2019-05-29T09:13:45Z</time>
      </trkpt>
      <trkpt lat="42.533307" lon="2.129938">
        <ele>1679.819</ele>
        <time>2019-05-29T09:13:53Z</time>
      </trkpt>
      <trkpt lat="42.533414" lon="2.129961">
        <ele>1680.435</ele>
        <time>2019-05-29T09:13:58Z</time>
      </trkpt>
      <trkpt lat="42.533435" lon="2.129977">
        <ele>1680.633</ele>
        <time>2019-05-29T09:13:59Z</time>
      </trkpt>
      <trkpt lat="42.533492" lon="2.130032">
        <ele>1681.856</ele>
        <time>2019-05-29T09:14:02Z</time>
      </trkpt>
      <trkpt lat="42.533573" lon="2.130121">
        <ele>1682.286</ele>
        <time>2019-05-29T09:14:07Z</time>
      </trkpt>
      <trkpt lat="42.533650" lon="2.130229">
        <ele>1683.088</ele>
        <time>2019-05-29T09:14:12Z</time>
      </trkpt>
      <trkpt lat="42.533695" lon="2.130298">
        <ele>1683.673</ele>
        <time>2019-05-29T09:14:15Z</time>
      </trkpt>
      <trkpt lat="42.533718" lon="2.130350">
        <ele>1684.059</ele>
        <time>2019-05-29T09:14:17Z</time>
      </trkpt>
      <trkpt lat="42.533798" lon="2.130503">
        <ele>1685.203</ele>
        <time>2019-05-29T09:14:23Z</time>
      </trkpt>
      <trkpt lat="42.533807" lon="2.130530">
        <ele>1685.623</ele>
        <time>2019-05-29T09:14:24Z</time>
      </trkpt>
      <trkpt lat="42.533839" lon="2.130640">
        <ele>1686.208</ele>
        <time>2019-05-29T09:14:28Z</time>
      </trkpt>
      <trkpt lat="42.533882" lon="2.130816">
        <ele>1686.658</ele>
        <time>2019-05-29T09:14:34Z</time>
      </trkpt>
      <trkpt lat="42.533910" lon="2.131015">
        <ele>1687.472</ele>
        <time>2019-05-29T09:14:41Z</time>
      </trkpt>
      <trkpt lat="42.533923" lon="2.131101">
        <ele>1687.898</ele>
        <time>2019-05-29T09:14:44Z</time>
      </trkpt>
      <trkpt lat="42.533929" lon="2.131193">
        <ele>1688.476</ele>
        <time>2019-05-29T09:14:47Z</time>
      </trkpt>
      <trkpt lat="42.533934" lon="2.131279">
        <ele>1689.679</ele>
        <time>2019-05-29T09:14:50Z</time>
      </trkpt>
      <trkpt lat="42.533943" lon="2.131337">
        <ele>1689.859</ele>
        <time>2019-05-29T09:14:52Z</time>
      </trkpt>
      <trkpt lat="42.533955" lon="2.131427">
        <ele>1690.671</ele>
        <time>2019-05-29T09:14:55Z</time>
      </trkpt>
      <trkpt lat="42.533967" lon="2.131583">
        <ele>1690.466</ele>
        <time>2019-05-29T09:15:00Z</time>
      </trkpt>
      <trkpt lat="42.533985" lon="2.131825">
        <ele>1690.472</ele>
        <time>2019-05-29T09:15:08Z</time>
      </trkpt>
      <trkpt lat="42.533996" lon="2.132065">
        <ele>1691.613</ele>
        <time>2019-05-29T09:15:16Z</time>
      </trkpt>
      <trkpt lat="42.533998" lon="2.132251">
        <ele>1693.014</ele>
        <time>2019-05-29T09:15:22Z</time>
      </trkpt>
      <trkpt lat="42.533994" lon="2.132310">
        <ele>1693.008</ele>
        <time>2019-05-29T09:15:24Z</time>
      </trkpt>
      <trkpt lat="42.533979" lon="2.132587">
        <ele>1692.670</ele>
        <time>2019-05-29T09:15:33Z</time>
      </trkpt>
      <trkpt lat="42.533967" lon="2.132811">
        <ele>1693.054</ele>
        <time>2019-05-29T09:15:41Z</time>
      </trkpt>
      <trkpt lat="42.533952" lon="2.133066">
        <ele>1694.210</ele>
        <time>2019-05-29T09:15:50Z</time>
      </trkpt>
      <trkpt lat="42.533936" lon="2.133213">
        <ele>1695.298</ele>
        <time>2019-05-29T09:15:55Z</time>
      </trkpt>
      <trkpt lat="42.533933" lon="2.133297">
        <ele>1695.851</ele>
        <time>2019-05-29T09:15:58Z</time>
      </trkpt>
      <trkpt lat="42.533912" lon="2.133541">
        <ele>1695.811</ele>
        <time>2019-05-29T09:16:07Z</time>
      </trkpt>
      <trkpt lat="42.533908" lon="2.133617">
        <ele>1696.253</ele>
        <time>2019-05-29T09:16:10Z</time>
      </trkpt>
      <trkpt lat="42.533905" lon="2.133716">
        <ele>1697.068</ele>
        <time>2019-05-29T09:16:14Z</time>
      </trkpt>
      <trkpt lat="42.533900" lon="2.133743">
        <ele>1697.418</ele>
        <time>2019-05-29T09:16:15Z</time>
      </trkpt>
      <trkpt lat="42.533876" lon="2.133961">
        <ele>1698.698</ele>
        <time>2019-05-29T09:16:24Z</time>
      </trkpt>
      <trkpt lat="42.533878" lon="2.133985">
        <ele>1698.817</ele>
        <time>2019-05-29T09:16:25Z</time>
      </trkpt>
      <trkpt lat="42.533871" lon="2.134031">
        <ele>1699.208</ele>
        <time>2019-05-29T09:16:27Z</time>
      </trkpt>
      <trkpt lat="42.533848" lon="2.134124">
        <ele>1699.234</ele>
        <time>2019-05-29T09:16:31Z</time>
      </trkpt>
      <trkpt lat="42.533839" lon="2.134173">
        <ele>1699.698</ele>
        <time>2019-05-29T09:16:33Z</time>
      </trkpt>
      <trkpt lat="42.533807" lon="2.134304">
        <ele>1700.684</ele>
        <time>2019-05-29T09:16:39Z</time>
      </trkpt>
      <trkpt lat="42.533800" lon="2.134327">
        <ele>1700.872</ele>
        <time>2019-05-29T09:16:40Z</time>
      </trkpt>
      <trkpt lat="42.533722" lon="2.134524">
        <ele>1701.665</ele>
        <time>2019-05-29T09:16:49Z</time>
      </trkpt>
      <trkpt lat="42.533713" lon="2.134546">
        <ele>1701.665</ele>
        <time>2019-05-29T09:16:50Z</time>
      </trkpt>
      <trkpt lat="42.533631" lon="2.134739">
        <ele>1702.847</ele>
        <time>2019-05-29T09:16:59Z</time>
      </trkpt>
      <trkpt lat="42.533577" lon="2.134842">
        <ele>1703.842</ele>
        <time>2019-05-29T09:17:04Z</time>
      </trkpt>
      <trkpt lat="42.533544" lon="2.134905">
        <ele>1704.444</ele>
        <time>2019-05-29T09:17:07Z</time>
      </trkpt>
      <trkpt lat="42.533481" lon="2.134984">
        <ele>1704.605</ele>
        <time>2019-05-29T09:17:12Z</time>
      </trkpt>
      <trkpt lat="42.533466" lon="2.134997">
        <ele>1704.815</ele>
        <time>2019-05-29T09:17:13Z</time>
      </trkpt>
      <trkpt lat="42.533387" lon="2.135100">
        <ele>1706.008</ele>
        <time>2019-05-29T09:17:19Z</time>
      </trkpt>
      <trkpt lat="42.533364" lon="2.135133">
        <ele>1706.497</ele>
        <time>2019-05-29T09:17:21Z</time>
      </trkpt>
      <trkpt lat="42.533257" lon="2.135262">
        <ele>1707.271</ele>
        <time>2019-05-29T09:17:29Z</time>
      </trkpt>
      <trkpt lat="42.533246" lon="2.135278">
        <ele>1707.227</ele>
        <time>2019-05-29T09:17:30Z</time>
      </trkpt>
      <trkpt lat="42.533148" lon="2.135379">
        <ele>1708.225</ele>
        <time>2019-05-29T09:17:37Z</time>
      </trkpt>
      <trkpt lat="42.533099" lon="2.135442">
        <ele>1708.848</ele>
        <time>2019-05-29T09:17:41Z</time>
      </trkpt>
      <trkpt lat="42.533056" lon="2.135487">
        <ele>1709.278</ele>
        <time>2019-05-29T09:17:45Z</time>
      </trkpt>
      <trkpt lat="42.533025" lon="2.135523">
        <ele>1709.440</ele>
        <time>2019-05-29T09:17:48Z</time>
      </trkpt>
      <trkpt lat="42.532942" lon="2.135607">
        <ele>1710.015</ele>
        <time>2019-05-29T09:17:55Z</time>
      </trkpt>
      <trkpt lat="42.532907" lon="2.135641">
        <ele>1710.469</ele>
        <time>2019-05-29T09:17:58Z</time>
      </trkpt>
      <trkpt lat="42.532852" lon="2.135690">
        <ele>1710.804</ele>
        <time>2019-05-29T09:18:02Z</time>
      </trkpt>
      <trkpt lat="42.532770" lon="2.135730">
        <ele>1711.424</ele>
        <time>2019-05-29T09:18:08Z</time>
      </trkpt>
      <trkpt lat="42.532660" lon="2.135795">
        <ele>1712.208</ele>
        <time>2019-05-29T09:18:16Z</time>
      </trkpt>
      <trkpt lat="42.532604" lon="2.135824">
        <ele>1712.679</ele>
        <time>2019-05-29T09:18:20Z</time>
      </trkpt>
      <trkpt lat="42.532546" lon="2.135853">
        <ele>1712.813</ele>
        <time>2019-05-29T09:18:24Z</time>
      </trkpt>
      <trkpt lat="42.532456" lon="2.135881">
        <ele>1713.679</ele>
        <time>2019-05-29T09:18:30Z</time>
      </trkpt>
      <trkpt lat="42.532442" lon="2.135889">
        <ele>1713.877</ele>
        <time>2019-05-29T09:18:31Z</time>
      </trkpt>
      <trkpt lat="42.532322" lon="2.135914">
        <ele>1714.860</ele>
        <time>2019-05-29T09:18:39Z</time>
      </trkpt>
      <trkpt lat="42.532277" lon="2.135921">
        <ele>1715.030</ele>
        <time>2019-05-29T09:18:42Z</time>
      </trkpt>
      <trkpt lat="42.532171" lon="2.135958">
        <ele>1715.812</ele>
        <time>2019-05-29T09:18:49Z</time>
      </trkpt>
      <trkpt lat="42.532030" lon="2.136015">
        <ele>1716.877</ele>
        <time>2019-05-29T09:18:58Z</time>
      </trkpt>
      <trkpt lat="42.531904" lon="2.136089">
        <ele>1717.836</ele>
        <time>2019-05-29T09:19:06Z</time>
      </trkpt>
      <trkpt lat="42.531845" lon="2.136127">
        <ele>1718.417</ele>
        <time>2019-05-29T09:19:10Z</time>
      </trkpt>
      <trkpt lat="42.531768" lon="2.136160">
        <ele>1719.018</ele>
        <time>2019-05-29T09:19:15Z</time>
      </trkpt>
      <trkpt lat="42.531702" lon="2.136200">
        <ele>1719.408</ele>
        <time>2019-05-29T09:19:19Z</time>
      </trkpt>
      <trkpt lat="42.531611" lon="2.136260">
        <ele>1720.026</ele>
        <time>2019-05-29T09:19:24Z</time>
      </trkpt>
      <trkpt lat="42.531521" lon="2.136312">
        <ele>1720.860</ele>
        <time>2019-05-29T09:19:29Z</time>
      </trkpt>
      <trkpt lat="42.531471" lon="2.136348">
        <ele>1721.256</ele>
        <time>2019-05-29T09:19:32Z</time>
      </trkpt>
      <trkpt lat="42.531362" lon="2.136400">
        <ele>1722.014</ele>
        <time>2019-05-29T09:19:38Z</time>
      </trkpt>
      <trkpt lat="42.531343" lon="2.136407">
        <ele>1722.287</ele>
        <time>2019-05-29T09:19:39Z</time>
      </trkpt>
      <trkpt lat="42.531222" lon="2.136468">
        <ele>1723.257</ele>
        <time>2019-05-29T09:19:46Z</time>
      </trkpt>
      <trkpt lat="42.531203" lon="2.136475">
        <ele>1723.219</ele>
        <time>2019-05-29T09:19:47Z</time>
      </trkpt>
      <trkpt lat="42.531146" lon="2.136495">
        <ele>1723.664</ele>
        <time>2019-05-29T09:19:50Z</time>
      </trkpt>
      <trkpt lat="42.531072" lon="2.136523">
        <ele>1724.427</ele>
        <time>2019-05-29T09:19:54Z</time>
      </trkpt>
      <trkpt lat="42.530980" lon="2.136560">
        <ele>1725.068</ele>
        <time>2019-05-29T09:19:59Z</time>
      </trkpt>
      <trkpt lat="42.530900" lon="2.136587">
        <ele>1725.414</ele>
        <time>2019-05-29T09:20:03Z</time>
      </trkpt>
      <trkpt lat="42.530827" lon="2.136609">
        <ele>1726.008</ele>
        <time>2019-05-29T09:20:07Z</time>
      </trkpt>
      <trkpt lat="42.530750" lon="2.136614">
        <ele>1726.455</ele>
        <time>2019-05-29T09:20:11Z</time>
      </trkpt>
      <trkpt lat="42.530684" lon="2.136593">
        <ele>1727.029</ele>
        <time>2019-05-29T09:20:15Z</time>
      </trkpt>
      <trkpt lat="42.530600" lon="2.136619">
        <ele>1726.625</ele>
        <time>2019-05-29T09:23:37Z</time>
      </trkpt>
      <trkpt lat="42.530584" lon="2.136630">
        <ele>1726.433</ele>
        <time>2019-05-29T09:23:38Z</time>
      </trkpt>
      <trkpt lat="42.530425" lon="2.136677">
        <ele>1726.896</ele>
        <time>2019-05-29T09:23:45Z</time>
      </trkpt>
      <trkpt lat="42.530335" lon="2.136691">
        <ele>1727.676</ele>
        <time>2019-05-29T09:23:49Z</time>
      </trkpt>
      <trkpt lat="42.530269" lon="2.136715">
        <ele>1727.828</ele>
        <time>2019-05-29T09:23:52Z</time>
      </trkpt>
      <trkpt lat="42.530180" lon="2.136728">
        <ele>1728.683</ele>
        <time>2019-05-29T09:23:56Z</time>
      </trkpt>
      <trkpt lat="42.530020" lon="2.136767">
        <ele>1729.223</ele>
        <time>2019-05-29T09:24:03Z</time>
      </trkpt>
      <trkpt lat="42.529954" lon="2.136797">
        <ele>1729.883</ele>
        <time>2019-05-29T09:24:06Z</time>
      </trkpt>
      <trkpt lat="42.529877" lon="2.136848">
        <ele>1730.611</ele>
        <time>2019-05-29T09:24:10Z</time>
      </trkpt>
      <trkpt lat="42.529838" lon="2.136882">
        <ele>1731.008</ele>
        <time>2019-05-29T09:24:12Z</time>
      </trkpt>
      <trkpt lat="42.529718" lon="2.137017">
        <ele>1732.225</ele>
        <time>2019-05-29T09:24:19Z</time>
      </trkpt>
      <trkpt lat="42.529569" lon="2.137198">
        <ele>1733.499</ele>
        <time>2019-05-29T09:24:28Z</time>
      </trkpt>
      <trkpt lat="42.529521" lon="2.137259">
        <ele>1733.825</ele>
        <time>2019-05-29T09:24:31Z</time>
      </trkpt>
      <trkpt lat="42.529470" lon="2.137312">
        <ele>1734.663</ele>
        <time>2019-05-29T09:24:34Z</time>
      </trkpt>
      <trkpt lat="42.529415" lon="2.137386">
        <ele>1735.416</ele>
        <time>2019-05-29T09:24:38Z</time>
      </trkpt>
      <trkpt lat="42.529403" lon="2.137404">
        <ele>1735.836</ele>
        <time>2019-05-29T09:24:39Z</time>
      </trkpt>
      <trkpt lat="42.529392" lon="2.137424">
        <ele>1734.868</ele>
        <time>2019-05-29T09:24:40Z</time>
      </trkpt>
      <trkpt lat="42.529343" lon="2.137474">
        <ele>1736.243</ele>
        <time>2019-05-29T09:24:43Z</time>
      </trkpt>
      <trkpt lat="42.529331" lon="2.137493">
        <ele>1733.446</ele>
        <time>2019-05-29T09:24:44Z</time>
      </trkpt>
      <trkpt lat="42.529316" lon="2.137506">
        <ele>1734.688</ele>
        <time>2019-05-29T09:24:45Z</time>
      </trkpt>
      <trkpt lat="42.529300" lon="2.137519">
        <ele>1735.016</ele>
        <time>2019-05-29T09:24:46Z</time>
      </trkpt>
      <trkpt lat="42.529286" lon="2.137535">
        <ele>1738.608</ele>
        <time>2019-05-29T09:24:47Z</time>
      </trkpt>
      <trkpt lat="42.529160" lon="2.137683">
        <ele>1738.457</ele>
        <time>2019-05-29T09:24:56Z</time>
      </trkpt>
      <trkpt lat="42.529059" lon="2.137795">
        <ele>1740.651</ele>
        <time>2019-05-29T09:25:03Z</time>
      </trkpt>
      <trkpt lat="42.529016" lon="2.137844">
        <ele>1741.827</ele>
        <time>2019-05-29T09:25:06Z</time>
      </trkpt>
      <trkpt lat="42.528880" lon="2.137969">
        <ele>1741.855</ele>
        <time>2019-05-29T09:25:15Z</time>
      </trkpt>
      <trkpt lat="42.528754" lon="2.138077">
        <ele>1742.448</ele>
        <time>2019-05-29T09:25:23Z</time>
      </trkpt>
      <trkpt lat="42.528710" lon="2.138123">
        <ele>1742.858</ele>
        <time>2019-05-29T09:25:26Z</time>
      </trkpt>
      <trkpt lat="42.528598" lon="2.138220">
        <ele>1744.030</ele>
        <time>2019-05-29T09:25:33Z</time>
      </trkpt>
      <trkpt lat="42.528479" lon="2.138345">
        <ele>1745.075</ele>
        <time>2019-05-29T09:25:41Z</time>
      </trkpt>
      <trkpt lat="42.528465" lon="2.138362">
        <ele>1745.284</ele>
        <time>2019-05-29T09:25:42Z</time>
      </trkpt>
      <trkpt lat="42.528389" lon="2.138476">
        <ele>1746.207</ele>
        <time>2019-05-29T09:25:48Z</time>
      </trkpt>
      <trkpt lat="42.528365" lon="2.138518">
        <ele>1746.417</ele>
        <time>2019-05-29T09:25:50Z</time>
      </trkpt>
      <trkpt lat="42.528316" lon="2.138656">
        <ele>1747.408</ele>
        <time>2019-05-29T09:25:56Z</time>
      </trkpt>
      <trkpt lat="42.528303" lon="2.138727">
        <ele>1748.261</ele>
        <time>2019-05-29T09:25:59Z</time>
      </trkpt>
      <trkpt lat="42.528298" lon="2.138754">
        <ele>1748.475</ele>
        <time>2019-05-29T09:26:00Z</time>
      </trkpt>
      <trkpt lat="42.528293" lon="2.138957">
        <ele>1749.611</ele>
        <time>2019-05-29T09:26:08Z</time>
      </trkpt>
      <trkpt lat="42.528299" lon="2.139210">
        <ele>1750.619</ele>
        <time>2019-05-29T09:26:18Z</time>
      </trkpt>
      <trkpt lat="42.528287" lon="2.139387">
        <ele>1750.662</ele>
        <time>2019-05-29T09:26:25Z</time>
      </trkpt>
      <trkpt lat="42.528254" lon="2.139558">
        <ele>1751.832</ele>
        <time>2019-05-29T09:26:32Z</time>
      </trkpt>
      <trkpt lat="42.528236" lon="2.139600">
        <ele>1752.614</ele>
        <time>2019-05-29T09:26:34Z</time>
      </trkpt>
      <trkpt lat="42.528230" lon="2.139623">
        <ele>1752.849</ele>
        <time>2019-05-29T09:26:35Z</time>
      </trkpt>
      <trkpt lat="42.528199" lon="2.139717">
        <ele>1753.815</ele>
        <time>2019-05-29T09:26:39Z</time>
      </trkpt>
      <trkpt lat="42.528169" lon="2.139786">
        <ele>1755.065</ele>
        <time>2019-05-29T09:26:42Z</time>
      </trkpt>
      <trkpt lat="42.528151" lon="2.139826">
        <ele>1755.811</ele>
        <time>2019-05-29T09:26:44Z</time>
      </trkpt>
      <trkpt lat="42.528140" lon="2.139846">
        <ele>1756.208</ele>
        <time>2019-05-29T09:26:45Z</time>
      </trkpt>
      <trkpt lat="42.528031" lon="2.140027">
        <ele>1756.684</ele>
        <time>2019-05-29T09:26:54Z</time>
      </trkpt>
      <trkpt lat="42.527967" lon="2.140140">
        <ele>1757.258</ele>
        <time>2019-05-29T09:27:00Z</time>
      </trkpt>
      <trkpt lat="42.527953" lon="2.140161">
        <ele>1757.834</ele>
        <time>2019-05-29T09:27:01Z</time>
      </trkpt>
      <trkpt lat="42.527943" lon="2.140183">
        <ele>1758.412</ele>
        <time>2019-05-29T09:27:02Z</time>
      </trkpt>
      <trkpt lat="42.527884" lon="2.140299">
        <ele>1758.015</ele>
        <time>2019-05-29T09:27:08Z</time>
      </trkpt>
      <trkpt lat="42.527819" lon="2.140516">
        <ele>1759.675</ele>
        <time>2019-05-29T09:27:18Z</time>
      </trkpt>
      <trkpt lat="42.527816" lon="2.140536">
        <ele>1760.057</ele>
        <time>2019-05-29T09:27:19Z</time>
      </trkpt>
      <trkpt lat="42.527785" lon="2.140701">
        <ele>1760.622</ele>
        <time>2019-05-29T09:27:26Z</time>
      </trkpt>
      <trkpt lat="42.527780" lon="2.140724">
        <ele>1761.027</ele>
        <time>2019-05-29T09:27:27Z</time>
      </trkpt>
      <trkpt lat="42.527749" lon="2.140860">
        <ele>1762.268</ele>
        <time>2019-05-29T09:27:33Z</time>
      </trkpt>
      <trkpt lat="42.527741" lon="2.140932">
        <ele>1762.414</ele>
        <time>2019-05-29T09:27:36Z</time>
      </trkpt>
      <trkpt lat="42.527708" lon="2.141114">
        <ele>1763.208</ele>
        <time>2019-05-29T09:27:44Z</time>
      </trkpt>
      <trkpt lat="42.527693" lon="2.141183">
        <ele>1763.655</ele>
        <time>2019-05-29T09:27:47Z</time>
      </trkpt>
      <trkpt lat="42.527681" lon="2.141249">
        <ele>1764.489</ele>
        <time>2019-05-29T09:27:50Z</time>
      </trkpt>
      <trkpt lat="42.527650" lon="2.141413">
        <ele>1765.025</ele>
        <time>2019-05-29T09:27:57Z</time>
      </trkpt>
      <trkpt lat="42.527632" lon="2.141483">
        <ele>1765.693</ele>
        <time>2019-05-29T09:28:00Z</time>
      </trkpt>
      <trkpt lat="42.527589" lon="2.141650">
        <ele>1766.826</ele>
        <time>2019-05-29T09:28:07Z</time>
      </trkpt>
      <trkpt lat="42.527526" lon="2.141827">
        <ele>1767.876</ele>
        <time>2019-05-29T09:28:15Z</time>
      </trkpt>
      <trkpt lat="42.527517" lon="2.141850">
        <ele>1767.878</ele>
        <time>2019-05-29T09:28:16Z</time>
      </trkpt>
      <trkpt lat="42.527460" lon="2.141944">
        <ele>1769.013</ele>
        <time>2019-05-29T09:28:21Z</time>
      </trkpt>
      <trkpt lat="42.527423" lon="2.142001">
        <ele>1769.699</ele>
        <time>2019-05-29T09:28:24Z</time>
      </trkpt>
      <trkpt lat="42.527379" lon="2.142055">
        <ele>1770.007</ele>
        <time>2019-05-29T09:28:27Z</time>
      </trkpt>
      <trkpt lat="42.527322" lon="2.142151">
        <ele>1770.827</ele>
        <time>2019-05-29T09:28:32Z</time>
      </trkpt>
      <trkpt lat="42.527285" lon="2.142212">
        <ele>1771.008</ele>
        <time>2019-05-29T09:28:35Z</time>
      </trkpt>
      <trkpt lat="42.527244" lon="2.142325">
        <ele>1772.042</ele>
        <time>2019-05-29T09:28:40Z</time>
      </trkpt>
      <trkpt lat="42.527233" lon="2.142372">
        <ele>1772.426</ele>
        <time>2019-05-29T09:28:42Z</time>
      </trkpt>
      <trkpt lat="42.527260" lon="2.142515">
        <ele>1772.892</ele>
        <time>2019-05-29T09:28:48Z</time>
      </trkpt>
      <trkpt lat="42.527300" lon="2.142574">
        <ele>1773.280</ele>
        <time>2019-05-29T09:28:51Z</time>
      </trkpt>
      <trkpt lat="42.527392" lon="2.142609">
        <ele>1773.613</ele>
        <time>2019-05-29T09:28:56Z</time>
      </trkpt>
      <trkpt lat="42.527510" lon="2.142551">
        <ele>1773.853</ele>
        <time>2019-05-29T09:29:02Z</time>
      </trkpt>
      <trkpt lat="42.527606" lon="2.142418">
        <ele>1774.245</ele>
        <time>2019-05-29T09:29:08Z</time>
      </trkpt>
      <trkpt lat="42.527656" lon="2.142351">
        <ele>1774.260</ele>
        <time>2019-05-29T09:29:11Z</time>
      </trkpt>
      <trkpt lat="42.527746" lon="2.142155">
        <ele>1775.231</ele>
        <time>2019-05-29T09:29:19Z</time>
      </trkpt>
      <trkpt lat="42.527810" lon="2.141966">
        <ele>1776.461</ele>
        <time>2019-05-29T09:29:27Z</time>
      </trkpt>
      <trkpt lat="42.527816" lon="2.141945">
        <ele>1776.607</ele>
        <time>2019-05-29T09:29:28Z</time>
      </trkpt>
      <trkpt lat="42.527886" lon="2.141761">
        <ele>1777.408</ele>
        <time>2019-05-29T09:29:36Z</time>
      </trkpt>
      <trkpt lat="42.527904" lon="2.141713">
        <ele>1777.456</ele>
        <time>2019-05-29T09:29:38Z</time>
      </trkpt>
      <trkpt lat="42.527980" lon="2.141588">
        <ele>1778.210</ele>
        <time>2019-05-29T09:29:44Z</time>
      </trkpt>
      <trkpt lat="42.528011" lon="2.141557">
        <ele>1778.676</ele>
        <time>2019-05-29T09:29:46Z</time>
      </trkpt>
      <trkpt lat="42.528118" lon="2.141531">
        <ele>1779.634</ele>
        <time>2019-05-29T09:29:52Z</time>
      </trkpt>
      <trkpt lat="42.528256" lon="2.141558">
        <ele>1780.697</ele>
        <time>2019-05-29T09:29:59Z</time>
      </trkpt>
      <trkpt lat="42.528275" lon="2.141562">
        <ele>1781.087</ele>
        <time>2019-05-29T09:30:00Z</time>
      </trkpt>
      <trkpt lat="42.528372" lon="2.141569">
        <ele>1781.619</ele>
        <time>2019-05-29T09:30:05Z</time>
      </trkpt>
      <trkpt lat="42.528482" lon="2.141565">
        <ele>1783.054</ele>
        <time>2019-05-29T09:30:11Z</time>
      </trkpt>
      <trkpt lat="42.528580" lon="2.141541">
        <ele>1784.298</ele>
        <time>2019-05-29T09:30:16Z</time>
      </trkpt>
      <trkpt lat="42.528631" lon="2.141511">
        <ele>1785.215</ele>
        <time>2019-05-29T09:30:19Z</time>
      </trkpt>
      <trkpt lat="42.528702" lon="2.141465">
        <ele>1786.426</ele>
        <time>2019-05-29T09:30:23Z</time>
      </trkpt>
      <trkpt lat="42.528791" lon="2.141394">
        <ele>1786.608</ele>
        <time>2019-05-29T09:30:29Z</time>
      </trkpt>
      <trkpt lat="42.528916" lon="2.141280">
        <ele>1787.652</ele>
        <time>2019-05-29T09:30:37Z</time>
      </trkpt>
      <trkpt lat="42.528971" lon="2.141218">
        <ele>1788.666</ele>
        <time>2019-05-29T09:30:41Z</time>
      </trkpt>
      <trkpt lat="42.529038" lon="2.141158">
        <ele>1789.452</ele>
        <time>2019-05-29T09:30:45Z</time>
      </trkpt>
      <trkpt lat="42.529053" lon="2.141140">
        <ele>1789.690</ele>
        <time>2019-05-29T09:30:46Z</time>
      </trkpt>
      <trkpt lat="42.529068" lon="2.141125">
        <ele>1789.813</ele>
        <time>2019-05-29T09:30:47Z</time>
      </trkpt>
      <trkpt lat="42.529110" lon="2.141081">
        <ele>1790.273</ele>
        <time>2019-05-29T09:30:50Z</time>
      </trkpt>
      <trkpt lat="42.529225" lon="2.140992">
        <ele>1790.665</ele>
        <time>2019-05-29T09:30:57Z</time>
      </trkpt>
      <trkpt lat="42.529243" lon="2.140980">
        <ele>1790.670</ele>
        <time>2019-05-29T09:30:58Z</time>
      </trkpt>
      <trkpt lat="42.529364" lon="2.140902">
        <ele>1791.637</ele>
        <time>2019-05-29T09:31:05Z</time>
      </trkpt>
      <trkpt lat="42.529382" lon="2.140891">
        <ele>1792.049</ele>
        <time>2019-05-29T09:31:06Z</time>
      </trkpt>
      <trkpt lat="42.529483" lon="2.140828">
        <ele>1793.013</ele>
        <time>2019-05-29T09:31:12Z</time>
      </trkpt>
      <trkpt lat="42.529641" lon="2.140748">
        <ele>1793.408</ele>
        <time>2019-05-29T09:31:21Z</time>
      </trkpt>
      <trkpt lat="42.529675" lon="2.140737">
        <ele>1794.296</ele>
        <time>2019-05-29T09:31:23Z</time>
      </trkpt>
      <trkpt lat="42.529724" lon="2.140733">
        <ele>1795.490</ele>
        <time>2019-05-29T09:31:26Z</time>
      </trkpt>
      <trkpt lat="42.529773" lon="2.140728">
        <ele>1796.226</ele>
        <time>2019-05-29T09:31:29Z</time>
      </trkpt>
      <trkpt lat="42.529824" lon="2.140724">
        <ele>1796.474</ele>
        <time>2019-05-29T09:31:32Z</time>
      </trkpt>
      <trkpt lat="42.529930" lon="2.140723">
        <ele>1796.017</ele>
        <time>2019-05-29T09:31:38Z</time>
      </trkpt>
      <trkpt lat="42.530034" lon="2.140719">
        <ele>1796.837</ele>
        <time>2019-05-29T09:31:44Z</time>
      </trkpt>
      <trkpt lat="42.530070" lon="2.140714">
        <ele>1797.479</ele>
        <time>2019-05-29T09:31:46Z</time>
      </trkpt>
      <trkpt lat="42.530128" lon="2.140707">
        <ele>1798.824</ele>
        <time>2019-05-29T09:31:49Z</time>
      </trkpt>
      <trkpt lat="42.530176" lon="2.140712">
        <ele>1799.438</ele>
        <time>2019-05-29T09:31:52Z</time>
      </trkpt>
      <trkpt lat="42.530278" lon="2.140707">
        <ele>1799.270</ele>
        <time>2019-05-29T09:31:58Z</time>
      </trkpt>
      <trkpt lat="42.530318" lon="2.140704">
        <ele>1799.817</ele>
        <time>2019-05-29T09:32:00Z</time>
      </trkpt>
      <trkpt lat="42.530394" lon="2.140704">
        <ele>1801.008</ele>
        <time>2019-05-29T09:32:04Z</time>
      </trkpt>
      <trkpt lat="42.530450" lon="2.140688">
        <ele>1801.416</ele>
        <time>2019-05-29T09:32:07Z</time>
      </trkpt>
      <trkpt lat="42.530508" lon="2.140678">
        <ele>1802.030</ele>
        <time>2019-05-29T09:32:10Z</time>
      </trkpt>
      <trkpt lat="42.530582" lon="2.140656">
        <ele>1802.856</ele>
        <time>2019-05-29T09:32:14Z</time>
      </trkpt>
      <trkpt lat="42.530598" lon="2.140645">
        <ele>1803.244</ele>
        <time>2019-05-29T09:32:15Z</time>
      </trkpt>
      <trkpt lat="42.530681" lon="2.140597">
        <ele>1804.217</ele>
        <time>2019-05-29T09:32:20Z</time>
      </trkpt>
      <trkpt lat="42.530696" lon="2.140589">
        <ele>1804.267</ele>
        <time>2019-05-29T09:32:21Z</time>
      </trkpt>
      <trkpt lat="42.530806" lon="2.140491">
        <ele>1805.479</ele>
        <time>2019-05-29T09:32:28Z</time>
      </trkpt>
      <trkpt lat="42.530822" lon="2.140478">
        <ele>1805.654</ele>
        <time>2019-05-29T09:32:29Z</time>
      </trkpt>
      <trkpt lat="42.530924" lon="2.140348">
        <ele>1806.292</ele>
        <time>2019-05-29T09:32:37Z</time>
      </trkpt>
      <trkpt lat="42.530935" lon="2.140327">
        <ele>1806.473</ele>
        <time>2019-05-29T09:32:38Z</time>
      </trkpt>
      <trkpt lat="42.531024" lon="2.140182">
        <ele>1807.020</ele>
        <time>2019-05-29T09:32:46Z</time>
      </trkpt>
      <trkpt lat="42.531077" lon="2.140087">
        <ele>1807.608</ele>
        <time>2019-05-29T09:32:51Z</time>
      </trkpt>
      <trkpt lat="42.531102" lon="2.140058">
        <ele>1807.812</ele>
        <time>2019-05-29T09:32:53Z</time>
      </trkpt>
      <trkpt lat="42.531209" lon="2.139979">
        <ele>1808.826</ele>
        <time>2019-05-29T09:33:00Z</time>
      </trkpt>
      <trkpt lat="42.531325" lon="2.139942">
        <ele>1809.862</ele>
        <time>2019-05-29T09:33:06Z</time>
      </trkpt>
      <trkpt lat="42.531347" lon="2.139945">
        <ele>1809.810</ele>
        <time>2019-05-29T09:33:07Z</time>
      </trkpt>
      <trkpt lat="42.531417" lon="2.139956">
        <ele>1810.463</ele>
        <time>2019-05-29T09:33:11Z</time>
      </trkpt>
      <trkpt lat="42.531503" lon="2.139964">
        <ele>1810.883</ele>
        <time>2019-05-29T09:33:16Z</time>
      </trkpt>
      <trkpt lat="42.531540" lon="2.139964">
        <ele>1811.225</ele>
        <time>2019-05-29T09:33:18Z</time>
      </trkpt>
      <trkpt lat="42.531637" lon="2.139948">
        <ele>1811.810</ele>
        <time>2019-05-29T09:33:24Z</time>
      </trkpt>
      <trkpt lat="42.531655" lon="2.139947">
        <ele>1812.041</ele>
        <time>2019-05-29T09:33:25Z</time>
      </trkpt>
      <trkpt lat="42.531768" lon="2.139915">
        <ele>1812.481</ele>
        <time>2019-05-29T09:33:32Z</time>
      </trkpt>
      <trkpt lat="42.531816" lon="2.139903">
        <ele>1813.009</ele>
        <time>2019-05-29T09:33:35Z</time>
      </trkpt>
      <trkpt lat="42.531863" lon="2.139896">
        <ele>1814.008</ele>
        <time>2019-05-29T09:33:38Z</time>
      </trkpt>
      <trkpt lat="42.531972" lon="2.139877">
        <ele>1814.237</ele>
        <time>2019-05-29T09:33:45Z</time>
      </trkpt>
      <trkpt lat="42.532023" lon="2.139874">
        <ele>1815.431</ele>
        <time>2019-05-29T09:33:48Z</time>
      </trkpt>
      <trkpt lat="42.532077" lon="2.139878">
        <ele>1815.887</ele>
        <time>2019-05-29T09:33:51Z</time>
      </trkpt>
      <trkpt lat="42.532195" lon="2.139888">
        <ele>1816.695</ele>
        <time>2019-05-29T09:33:58Z</time>
      </trkpt>
      <trkpt lat="42.532212" lon="2.139893">
        <ele>1816.628</ele>
        <time>2019-05-29T09:33:59Z</time>
      </trkpt>
      <trkpt lat="42.532319" lon="2.139928">
        <ele>1817.848</ele>
        <time>2019-05-29T09:34:06Z</time>
      </trkpt>
      <trkpt lat="42.532416" lon="2.139976">
        <ele>1818.460</ele>
        <time>2019-05-29T09:34:12Z</time>
      </trkpt>
      <trkpt lat="42.532467" lon="2.140004">
        <ele>1818.825</ele>
        <time>2019-05-29T09:34:15Z</time>
      </trkpt>
      <trkpt lat="42.532560" lon="2.140075">
        <ele>1819.427</ele>
        <time>2019-05-29T09:34:21Z</time>
      </trkpt>
      <trkpt lat="42.532625" lon="2.140115">
        <ele>1820.068</ele>
        <time>2019-05-29T09:34:25Z</time>
      </trkpt>
      <trkpt lat="42.532698" lon="2.140181">
        <ele>1820.814</ele>
        <time>2019-05-29T09:34:30Z</time>
      </trkpt>
      <trkpt lat="42.532717" lon="2.140191">
        <ele>1821.008</ele>
        <time>2019-05-29T09:34:31Z</time>
      </trkpt>
      <trkpt lat="42.532807" lon="2.140227">
        <ele>1822.095</ele>
        <time>2019-05-29T09:34:36Z</time>
      </trkpt>
      <trkpt lat="42.532860" lon="2.140240">
        <ele>1822.469</ele>
        <time>2019-05-29T09:34:39Z</time>
      </trkpt>
      <trkpt lat="42.532953" lon="2.140233">
        <ele>1823.275</ele>
        <time>2019-05-29T09:34:44Z</time>
      </trkpt>
      <trkpt lat="42.532987" lon="2.140219">
        <ele>1824.093</ele>
        <time>2019-05-29T09:34:46Z</time>
      </trkpt>
      <trkpt lat="42.533005" lon="2.140212">
        <ele>1824.476</ele>
        <time>2019-05-29T09:34:47Z</time>
      </trkpt>
      <trkpt lat="42.533105" lon="2.140176">
        <ele>1824.646</ele>
        <time>2019-05-29T09:34:53Z</time>
      </trkpt>
      <trkpt lat="42.533220" lon="2.140131">
        <ele>1825.248</ele>
        <time>2019-05-29T09:35:00Z</time>
      </trkpt>
      <trkpt lat="42.533236" lon="2.140126">
        <ele>1825.453</ele>
        <time>2019-05-29T09:35:01Z</time>
      </trkpt>
      <trkpt lat="42.533319" lon="2.140112">
        <ele>1826.679</ele>
        <time>2019-05-29T09:35:06Z</time>
      </trkpt>
      <trkpt lat="42.533352" lon="2.140107">
        <ele>1826.805</ele>
        <time>2019-05-29T09:35:08Z</time>
      </trkpt>
      <trkpt lat="42.533482" lon="2.140109">
        <ele>1827.625</ele>
        <time>2019-05-29T09:35:15Z</time>
      </trkpt>
      <trkpt lat="42.533521" lon="2.140106">
        <ele>1828.008</ele>
        <time>2019-05-29T09:35:17Z</time>
      </trkpt>
      <trkpt lat="42.533704" lon="2.140120">
        <ele>1828.240</ele>
        <time>2019-05-29T09:35:27Z</time>
      </trkpt>
      <trkpt lat="42.533739" lon="2.140120">
        <ele>1828.854</ele>
        <time>2019-05-29T09:35:29Z</time>
      </trkpt>
      <trkpt lat="42.533821" lon="2.140142">
        <ele>1830.210</ele>
        <time>2019-05-29T09:35:34Z</time>
      </trkpt>
      <trkpt lat="42.533894" lon="2.140157">
        <ele>1831.288</ele>
        <time>2019-05-29T09:35:38Z</time>
      </trkpt>
      <trkpt lat="42.533932" lon="2.140165">
        <ele>1831.651</ele>
        <time>2019-05-29T09:35:40Z</time>
      </trkpt>
      <trkpt lat="42.533947" lon="2.140172">
        <ele>1831.611</ele>
        <time>2019-05-29T09:35:41Z</time>
      </trkpt>
      <trkpt lat="42.534007" lon="2.140209">
        <ele>1832.463</ele>
        <time>2019-05-29T09:35:45Z</time>
      </trkpt>
      <trkpt lat="42.534056" lon="2.140237">
        <ele>1832.628</ele>
        <time>2019-05-29T09:35:48Z</time>
      </trkpt>
      <trkpt lat="42.534179" lon="2.140311">
        <ele>1832.618</ele>
        <time>2019-05-29T09:35:56Z</time>
      </trkpt>
      <trkpt lat="42.534284" lon="2.140375">
        <ele>1833.498</ele>
        <time>2019-05-29T09:36:03Z</time>
      </trkpt>
      <trkpt lat="42.534298" lon="2.140385">
        <ele>1833.617</ele>
        <time>2019-05-29T09:36:04Z</time>
      </trkpt>
      <trkpt lat="42.534382" lon="2.140441">
        <ele>1834.608</ele>
        <time>2019-05-29T09:36:10Z</time>
      </trkpt>
      <trkpt lat="42.534394" lon="2.140452">
        <ele>1834.834</ele>
        <time>2019-05-29T09:36:11Z</time>
      </trkpt>
      <trkpt lat="42.534427" lon="2.140481">
        <ele>1835.838</ele>
        <time>2019-05-29T09:36:14Z</time>
      </trkpt>
      <trkpt lat="42.534462" lon="2.140511">
        <ele>1836.274</ele>
        <time>2019-05-29T09:36:17Z</time>
      </trkpt>
      <trkpt lat="42.534485" lon="2.140534">
        <ele>1836.862</ele>
        <time>2019-05-29T09:36:19Z</time>
      </trkpt>
      <trkpt lat="42.534549" lon="2.140575">
        <ele>1837.815</ele>
        <time>2019-05-29T09:36:24Z</time>
      </trkpt>
      <trkpt lat="42.534565" lon="2.140583">
        <ele>1838.065</ele>
        <time>2019-05-29T09:36:25Z</time>
      </trkpt>
      <trkpt lat="42.534664" lon="2.140655">
        <ele>1839.077</ele>
        <time>2019-05-29T09:36:32Z</time>
      </trkpt>
      <trkpt lat="42.534681" lon="2.140664">
        <ele>1839.092</ele>
        <time>2019-05-29T09:36:33Z</time>
      </trkpt>
      <trkpt lat="42.534773" lon="2.140740">
        <ele>1839.815</ele>
        <time>2019-05-29T09:36:40Z</time>
      </trkpt>
      <trkpt lat="42.534785" lon="2.140750">
        <ele>1840.065</ele>
        <time>2019-05-29T09:36:41Z</time>
      </trkpt>
      <trkpt lat="42.534892" lon="2.140815">
        <ele>1841.611</ele>
        <time>2019-05-29T09:36:48Z</time>
      </trkpt>
      <trkpt lat="42.534917" lon="2.140841">
        <ele>1842.608</ele>
        <time>2019-05-29T09:36:50Z</time>
      </trkpt>
      <trkpt lat="42.535002" lon="2.140925">
        <ele>1841.074</ele>
        <time>2019-05-29T09:36:57Z</time>
      </trkpt>
      <trkpt lat="42.535076" lon="2.141020">
        <ele>1842.618</ele>
        <time>2019-05-29T09:37:04Z</time>
      </trkpt>
      <trkpt lat="42.535086" lon="2.141037">
        <ele>1842.854</ele>
        <time>2019-05-29T09:37:05Z</time>
      </trkpt>
      <trkpt lat="42.535144" lon="2.141112">
        <ele>1843.832</ele>
        <time>2019-05-29T09:37:10Z</time>
      </trkpt>
      <trkpt lat="42.535175" lon="2.141162">
        <ele>1844.465</ele>
        <time>2019-05-29T09:37:13Z</time>
      </trkpt>
      <trkpt lat="42.535240" lon="2.141282">
        <ele>1845.025</ele>
        <time>2019-05-29T09:37:20Z</time>
      </trkpt>
      <trkpt lat="42.535247" lon="2.141299">
        <ele>1845.467</ele>
        <time>2019-05-29T09:37:21Z</time>
      </trkpt>
      <trkpt lat="42.535307" lon="2.141419">
        <ele>1845.642</ele>
        <time>2019-05-29T09:37:28Z</time>
      </trkpt>
      <trkpt lat="42.535359" lon="2.141526">
        <ele>1845.836</ele>
        <time>2019-05-29T09:37:33Z</time>
      </trkpt>
      <trkpt lat="42.535402" lon="2.141631">
        <ele>1846.017</ele>
        <time>2019-05-29T09:37:38Z</time>
      </trkpt>
      <trkpt lat="42.535415" lon="2.141654">
        <ele>1846.218</ele>
        <time>2019-05-29T09:37:39Z</time>
      </trkpt>
      <trkpt lat="42.535477" lon="2.141836">
        <ele>1846.008</ele>
        <time>2019-05-29T09:37:47Z</time>
      </trkpt>
      <trkpt lat="42.535570" lon="2.142005">
        <ele>1845.056</ele>
        <time>2019-05-29T09:37:54Z</time>
      </trkpt>
      <trkpt lat="42.535677" lon="2.142160">
        <ele>1845.680</ele>
        <time>2019-05-29T09:38:00Z</time>
      </trkpt>
      <trkpt lat="42.535770" lon="2.142195">
        <ele>1845.486</ele>
        <time>2019-05-29T09:38:04Z</time>
      </trkpt>
      <trkpt lat="42.535882" lon="2.142135">
        <ele>1844.814</ele>
        <time>2019-05-29T09:38:08Z</time>
      </trkpt>
      <trkpt lat="42.535913" lon="2.142130">
        <ele>1844.657</ele>
        <time>2019-05-29T09:38:09Z</time>
      </trkpt>
      <trkpt lat="42.536041" lon="2.142149">
        <ele>1845.237</ele>
        <time>2019-05-29T09:38:14Z</time>
      </trkpt>
      <trkpt lat="42.536102" lon="2.142168">
        <ele>1842.699</ele>
        <time>2019-05-29T09:38:16Z</time>
      </trkpt>
      <trkpt lat="42.536136" lon="2.142179">
        <ele>1843.854</ele>
        <time>2019-05-29T09:38:17Z</time>
      </trkpt>
      <trkpt lat="42.536206" lon="2.142212">
        <ele>1846.463</ele>
        <time>2019-05-29T09:38:19Z</time>
      </trkpt>
      <trkpt lat="42.536247" lon="2.142223">
        <ele>1845.444</ele>
        <time>2019-05-29T09:38:20Z</time>
      </trkpt>
      <trkpt lat="42.536289" lon="2.142228">
        <ele>1844.818</ele>
        <time>2019-05-29T09:38:21Z</time>
      </trkpt>
      <trkpt lat="42.536378" lon="2.142242">
        <ele>1844.208</ele>
        <time>2019-05-29T09:38:23Z</time>
      </trkpt>
      <trkpt lat="42.536458" lon="2.142253">
        <ele>1843.499</ele>
        <time>2019-05-29T09:38:25Z</time>
      </trkpt>
      <trkpt lat="42.536583" lon="2.142232">
        <ele>1842.873</ele>
        <time>2019-05-29T09:38:29Z</time>
      </trkpt>
      <trkpt lat="42.536652" lon="2.142215">
        <ele>1842.639</ele>
        <time>2019-05-29T09:38:31Z</time>
      </trkpt>
      <trkpt lat="42.536721" lon="2.142191">
        <ele>1842.467</ele>
        <time>2019-05-29T09:38:33Z</time>
      </trkpt>
      <trkpt lat="42.536835" lon="2.142130">
        <ele>1841.690</ele>
        <time>2019-05-29T09:38:36Z</time>
      </trkpt>
      <trkpt lat="42.536878" lon="2.142110">
        <ele>1841.420</ele>
        <time>2019-05-29T09:38:37Z</time>
      </trkpt>
      <trkpt lat="42.537058" lon="2.142054">
        <ele>1840.422</ele>
        <time>2019-05-29T09:38:41Z</time>
      </trkpt>
      <trkpt lat="42.537098" lon="2.142052">
        <ele>1840.447</ele>
        <time>2019-05-29T09:38:42Z</time>
      </trkpt>
      <trkpt lat="42.537219" lon="2.142057">
        <ele>1841.636</ele>
        <time>2019-05-29T09:38:45Z</time>
      </trkpt>
      <trkpt lat="42.537332" lon="2.142080">
        <ele>1841.817</ele>
        <time>2019-05-29T09:38:48Z</time>
      </trkpt>
      <trkpt lat="42.537575" lon="2.142152">
        <ele>1842.418</ele>
        <time>2019-05-29T09:38:55Z</time>
      </trkpt>
      <trkpt lat="42.537704" lon="2.142222">
        <ele>1842.008</ele>
        <time>2019-05-29T09:38:59Z</time>
      </trkpt>
      <trkpt lat="42.537734" lon="2.142242">
        <ele>1841.646</ele>
        <time>2019-05-29T09:39:00Z</time>
      </trkpt>
      <trkpt lat="42.537891" lon="2.142327">
        <ele>1842.650</ele>
        <time>2019-05-29T09:39:05Z</time>
      </trkpt>
      <trkpt lat="42.537948" lon="2.142358">
        <ele>1842.866</ele>
        <time>2019-05-29T09:39:07Z</time>
      </trkpt>
      <trkpt lat="42.538136" lon="2.142473">
        <ele>1843.684</ele>
        <time>2019-05-29T09:39:14Z</time>
      </trkpt>
      <trkpt lat="42.538159" lon="2.142495">
        <ele>1844.047</ele>
        <time>2019-05-29T09:39:15Z</time>
      </trkpt>
      <trkpt lat="42.538254" lon="2.142557">
        <ele>1844.837</ele>
        <time>2019-05-29T09:39:19Z</time>
      </trkpt>
      <trkpt lat="42.538296" lon="2.142588">
        <ele>1845.039</ele>
        <time>2019-05-29T09:39:21Z</time>
      </trkpt>
      <trkpt lat="42.538466" lon="2.142701">
        <ele>1845.684</ele>
        <time>2019-05-29T09:39:28Z</time>
      </trkpt>
      <trkpt lat="42.538565" lon="2.142742">
        <ele>1846.062</ele>
        <time>2019-05-29T09:39:32Z</time>
      </trkpt>
      <trkpt lat="42.538642" lon="2.142755">
        <ele>1846.283</ele>
        <time>2019-05-29T09:39:35Z</time>
      </trkpt>
      <trkpt lat="42.538777" lon="2.142765">
        <ele>1846.211</ele>
        <time>2019-05-29T09:39:40Z</time>
      </trkpt>
      <trkpt lat="42.538953" lon="2.142765">
        <ele>1843.808</ele>
        <time>2019-05-29T09:39:45Z</time>
      </trkpt>
      <trkpt lat="42.538995" lon="2.142763">
        <ele>1844.279</ele>
        <time>2019-05-29T09:39:46Z</time>
      </trkpt>
      <trkpt lat="42.539066" lon="2.142769">
        <ele>1845.063</ele>
        <time>2019-05-29T09:39:48Z</time>
      </trkpt>
      <trkpt lat="42.539165" lon="2.142784">
        <ele>1844.229</ele>
        <time>2019-05-29T09:39:51Z</time>
      </trkpt>
      <trkpt lat="42.539405" lon="2.142812">
        <ele>1845.897</ele>
        <time>2019-05-29T09:39:59Z</time>
      </trkpt>
      <trkpt lat="42.539447" lon="2.142826">
        <ele>1846.260</ele>
        <time>2019-05-29T09:40:01Z</time>
      </trkpt>
      <trkpt lat="42.539520" lon="2.142830">
        <ele>1847.630</ele>
        <time>2019-05-29T09:40:05Z</time>
      </trkpt>
      <trkpt lat="42.539642" lon="2.142807">
        <ele>1848.642</ele>
        <time>2019-05-29T09:40:12Z</time>
      </trkpt>
      <trkpt lat="42.539736" lon="2.142767">
        <ele>1849.297</ele>
        <time>2019-05-29T09:40:18Z</time>
      </trkpt>
      <trkpt lat="42.539777" lon="2.142750">
        <ele>1849.836</ele>
        <time>2019-05-29T09:40:20Z</time>
      </trkpt>
      <trkpt lat="42.539869" lon="2.142718">
        <ele>1850.617</ele>
        <time>2019-05-29T09:40:25Z</time>
      </trkpt>
      <trkpt lat="42.539924" lon="2.142691">
        <ele>1851.018</ele>
        <time>2019-05-29T09:40:28Z</time>
      </trkpt>
      <trkpt lat="42.540008" lon="2.142650">
        <ele>1851.408</ele>
        <time>2019-05-29T09:40:33Z</time>
      </trkpt>
      <trkpt lat="42.540114" lon="2.142592">
        <ele>1851.836</ele>
        <time>2019-05-29T09:40:39Z</time>
      </trkpt>
      <trkpt lat="42.540153" lon="2.142567">
        <ele>1852.270</ele>
        <time>2019-05-29T09:40:41Z</time>
      </trkpt>
      <trkpt lat="42.540228" lon="2.142503">
        <ele>1853.476</ele>
        <time>2019-05-29T09:40:46Z</time>
      </trkpt>
      <trkpt lat="42.540327" lon="2.142379">
        <ele>1854.494</ele>
        <time>2019-05-29T09:40:53Z</time>
      </trkpt>
      <trkpt lat="42.540448" lon="2.142188">
        <ele>1853.447</ele>
        <time>2019-05-29T09:40:59Z</time>
      </trkpt>
      <trkpt lat="42.540476" lon="2.142145">
        <ele>1853.087</ele>
        <time>2019-05-29T09:41:00Z</time>
      </trkpt>
      <trkpt lat="42.540572" lon="2.141967">
        <ele>1851.819</ele>
        <time>2019-05-29T09:41:03Z</time>
      </trkpt>
      <trkpt lat="42.540603" lon="2.141890">
        <ele>1850.034</ele>
        <time>2019-05-29T09:41:04Z</time>
      </trkpt>
      <trkpt lat="42.540654" lon="2.141732">
        <ele>1848.644</ele>
        <time>2019-05-29T09:41:06Z</time>
      </trkpt>
      <trkpt lat="42.540684" lon="2.141579">
        <ele>1849.005</ele>
        <time>2019-05-29T09:41:08Z</time>
      </trkpt>
      <trkpt lat="42.540730" lon="2.141372">
        <ele>1849.615</ele>
        <time>2019-05-29T09:41:11Z</time>
      </trkpt>
      <trkpt lat="42.540763" lon="2.141257">
        <ele>1850.008</ele>
        <time>2019-05-29T09:41:13Z</time>
      </trkpt>
      <trkpt lat="42.540907" lon="2.140967">
        <ele>1849.837</ele>
        <time>2019-05-29T09:41:19Z</time>
      </trkpt>
      <trkpt lat="42.541080" lon="2.140741">
        <ele>1848.631</ele>
        <time>2019-05-29T09:41:24Z</time>
      </trkpt>
      <trkpt lat="42.541158" lon="2.140653">
        <ele>1847.887</ele>
        <time>2019-05-29T09:41:26Z</time>
      </trkpt>
      <trkpt lat="42.541198" lon="2.140609">
        <ele>1847.435</ele>
        <time>2019-05-29T09:41:27Z</time>
      </trkpt>
      <trkpt lat="42.541240" lon="2.140570">
        <ele>1848.618</ele>
        <time>2019-05-29T09:41:28Z</time>
      </trkpt>
      <trkpt lat="42.541317" lon="2.140491">
        <ele>1849.058</ele>
        <time>2019-05-29T09:41:30Z</time>
      </trkpt>
      <trkpt lat="42.541347" lon="2.140449">
        <ele>1849.020</ele>
        <time>2019-05-29T09:41:31Z</time>
      </trkpt>
      <trkpt lat="42.541446" lon="2.140336">
        <ele>1849.055</ele>
        <time>2019-05-29T09:41:34Z</time>
      </trkpt>
      <trkpt lat="42.541550" lon="2.140243">
        <ele>1849.042</ele>
        <time>2019-05-29T09:41:37Z</time>
      </trkpt>
      <trkpt lat="42.541658" lon="2.140157">
        <ele>1850.022</ele>
        <time>2019-05-29T09:41:41Z</time>
      </trkpt>
      <trkpt lat="42.541871" lon="2.139973">
        <ele>1851.014</ele>
        <time>2019-05-29T09:41:48Z</time>
      </trkpt>
      <trkpt lat="42.542066" lon="2.139798">
        <ele>1852.008</ele>
        <time>2019-05-29T09:41:54Z</time>
      </trkpt>
      <trkpt lat="42.542234" lon="2.139604">
        <ele>1851.247</ele>
        <time>2019-05-29T09:41:59Z</time>
      </trkpt>
      <trkpt lat="42.542486" lon="2.139242">
        <ele>1850.471</ele>
        <time>2019-05-29T09:42:07Z</time>
      </trkpt>
      <trkpt lat="42.542607" lon="2.138996">
        <ele>1851.237</ele>
        <time>2019-05-29T09:42:13Z</time>
      </trkpt>
      <trkpt lat="42.542713" lon="2.138769">
        <ele>1850.895</ele>
        <time>2019-05-29T09:42:19Z</time>
      </trkpt>
      <trkpt lat="42.542723" lon="2.138735">
        <ele>1850.868</ele>
        <time>2019-05-29T09:42:20Z</time>
      </trkpt>
      <trkpt lat="42.542790" lon="2.138590">
        <ele>1851.498</ele>
        <time>2019-05-29T09:42:25Z</time>
      </trkpt>
      <trkpt lat="42.542840" lon="2.138444">
        <ele>1852.490</ele>
        <time>2019-05-29T09:42:30Z</time>
      </trkpt>
      <trkpt lat="42.542872" lon="2.138358">
        <ele>1853.025</ele>
        <time>2019-05-29T09:42:33Z</time>
      </trkpt>
      <trkpt lat="42.542903" lon="2.138298">
        <ele>1853.641</ele>
        <time>2019-05-29T09:42:35Z</time>
      </trkpt>
      <trkpt lat="42.542965" lon="2.138218">
        <ele>1854.081</ele>
        <time>2019-05-29T09:42:38Z</time>
      </trkpt>
      <trkpt lat="42.543052" lon="2.138153">
        <ele>1854.609</ele>
        <time>2019-05-29T09:42:41Z</time>
      </trkpt>
      <trkpt lat="42.543124" lon="2.138116">
        <ele>1853.808</ele>
        <time>2019-05-29T09:42:43Z</time>
      </trkpt>
      <trkpt lat="42.543164" lon="2.138097">
        <ele>1853.667</ele>
        <time>2019-05-29T09:42:44Z</time>
      </trkpt>
      <trkpt lat="42.543241" lon="2.138083">
        <ele>1853.081</ele>
        <time>2019-05-29T09:42:46Z</time>
      </trkpt>
      <trkpt lat="42.543276" lon="2.138088">
        <ele>1853.017</ele>
        <time>2019-05-29T09:42:47Z</time>
      </trkpt>
      <trkpt lat="42.543367" lon="2.138079">
        <ele>1853.415</ele>
        <time>2019-05-29T09:42:50Z</time>
      </trkpt>
      <trkpt lat="42.543421" lon="2.138071">
        <ele>1853.268</ele>
        <time>2019-05-29T09:42:52Z</time>
      </trkpt>
      <trkpt lat="42.543591" lon="2.138033">
        <ele>1854.278</ele>
        <time>2019-05-29T09:42:59Z</time>
      </trkpt>
      <trkpt lat="42.543618" lon="2.138022">
        <ele>1854.040</ele>
        <time>2019-05-29T09:43:00Z</time>
      </trkpt>
      <trkpt lat="42.543792" lon="2.137898">
        <ele>1853.425</ele>
        <time>2019-05-29T09:43:05Z</time>
      </trkpt>
      <trkpt lat="42.543856" lon="2.137809">
        <ele>1853.288</ele>
        <time>2019-05-29T09:43:07Z</time>
      </trkpt>
      <trkpt lat="42.543939" lon="2.137671">
        <ele>1853.024</ele>
        <time>2019-05-29T09:43:10Z</time>
      </trkpt>
      <trkpt lat="42.544033" lon="2.137549">
        <ele>1852.626</ele>
        <time>2019-05-29T09:43:14Z</time>
      </trkpt>
      <trkpt lat="42.544061" lon="2.137523">
        <ele>1852.408</ele>
        <time>2019-05-29T09:43:15Z</time>
      </trkpt>
      <trkpt lat="42.544196" lon="2.137410">
        <ele>1854.031</ele>
        <time>2019-05-29T09:43:20Z</time>
      </trkpt>
      <trkpt lat="42.544368" lon="2.137419">
        <ele>1854.455</ele>
        <time>2019-05-29T09:43:25Z</time>
      </trkpt>
      <trkpt lat="42.544467" lon="2.137463">
        <ele>1855.031</ele>
        <time>2019-05-29T09:43:28Z</time>
      </trkpt>
      <trkpt lat="42.544584" lon="2.137550">
        <ele>1855.079</ele>
        <time>2019-05-29T09:43:32Z</time>
      </trkpt>
      <trkpt lat="42.544751" lon="2.137733">
        <ele>1854.072</ele>
        <time>2019-05-29T09:43:39Z</time>
      </trkpt>
      <trkpt lat="42.544859" lon="2.137838">
        <ele>1854.842</ele>
        <time>2019-05-29T09:43:44Z</time>
      </trkpt>
      <trkpt lat="42.544907" lon="2.137874">
        <ele>1855.014</ele>
        <time>2019-05-29T09:43:46Z</time>
      </trkpt>
      <trkpt lat="42.545014" lon="2.137936">
        <ele>1855.849</ele>
        <time>2019-05-29T09:43:51Z</time>
      </trkpt>
      <trkpt lat="42.545035" lon="2.137948">
        <ele>1856.451</ele>
        <time>2019-05-29T09:43:52Z</time>
      </trkpt>
      <trkpt lat="42.545133" lon="2.138013">
        <ele>1856.601</ele>
        <time>2019-05-29T09:43:57Z</time>
      </trkpt>
      <trkpt lat="42.545284" lon="2.138118">
        <ele>1857.411</ele>
        <time>2019-05-29T09:44:04Z</time>
      </trkpt>
      <trkpt lat="42.545384" lon="2.138211">
        <ele>1858.208</ele>
        <time>2019-05-29T09:44:09Z</time>
      </trkpt>
      <trkpt lat="42.545428" lon="2.138251">
        <ele>1858.478</ele>
        <time>2019-05-29T09:44:11Z</time>
      </trkpt>
      <trkpt lat="42.545501" lon="2.138356">
        <ele>1859.012</ele>
        <time>2019-05-29T09:44:15Z</time>
      </trkpt>
      <trkpt lat="42.545585" lon="2.138531">
        <ele>1859.218</ele>
        <time>2019-05-29T09:44:22Z</time>
      </trkpt>
      <trkpt lat="42.545601" lon="2.138583">
        <ele>1859.476</ele>
        <time>2019-05-29T09:44:24Z</time>
      </trkpt>
      <trkpt lat="42.545608" lon="2.138612">
        <ele>1859.649</ele>
        <time>2019-05-29T09:44:25Z</time>
      </trkpt>
      <trkpt lat="42.545636" lon="2.138715">
        <ele>1859.879</ele>
        <time>2019-05-29T09:44:29Z</time>
      </trkpt>
      <trkpt lat="42.545639" lon="2.138739">
        <ele>1859.871</ele>
        <time>2019-05-29T09:44:30Z</time>
      </trkpt>
      <trkpt lat="42.545656" lon="2.138858">
        <ele>1860.066</ele>
        <time>2019-05-29T09:44:35Z</time>
      </trkpt>
      <trkpt lat="42.545651" lon="2.138930">
        <ele>1860.243</ele>
        <time>2019-05-29T09:44:38Z</time>
      </trkpt>
      <trkpt lat="42.545661" lon="2.138974">
        <ele>1860.464</ele>
        <time>2019-05-29T09:44:40Z</time>
      </trkpt>
      <trkpt lat="42.545669" lon="2.139028">
        <ele>1860.610</ele>
        <time>2019-05-29T09:44:42Z</time>
      </trkpt>
      <trkpt lat="42.545682" lon="2.139079">
        <ele>1860.808</ele>
        <time>2019-05-29T09:44:44Z</time>
      </trkpt>
      <trkpt lat="42.545699" lon="2.139126">
        <ele>1861.237</ele>
        <time>2019-05-29T09:44:46Z</time>
      </trkpt>
      <trkpt lat="42.545717" lon="2.139173">
        <ele>1861.811</ele>
        <time>2019-05-29T09:44:48Z</time>
      </trkpt>
      <trkpt lat="42.545754" lon="2.139266">
        <ele>1862.217</ele>
        <time>2019-05-29T09:44:52Z</time>
      </trkpt>
      <trkpt lat="42.545795" lon="2.139367">
        <ele>1862.845</ele>
        <time>2019-05-29T09:44:57Z</time>
      </trkpt>
      <trkpt lat="42.545834" lon="2.139447">
        <ele>1863.878</ele>
        <time>2019-05-29T09:45:01Z</time>
      </trkpt>
      <trkpt lat="42.545860" lon="2.139498">
        <ele>1864.288</ele>
        <time>2019-05-29T09:45:04Z</time>
      </trkpt>
      <trkpt lat="42.545891" lon="2.139551">
        <ele>1864.830</ele>
        <time>2019-05-29T09:45:07Z</time>
      </trkpt>
      <trkpt lat="42.545923" lon="2.139593">
        <ele>1865.295</ele>
        <time>2019-05-29T09:45:10Z</time>
      </trkpt>
      <trkpt lat="42.545956" lon="2.139638">
        <ele>1865.886</ele>
        <time>2019-05-29T09:45:13Z</time>
      </trkpt>
      <trkpt lat="42.545964" lon="2.139649">
        <ele>1866.060</ele>
        <time>2019-05-29T09:45:14Z</time>
      </trkpt>
      <trkpt lat="42.545981" lon="2.139674">
        <ele>1866.226</ele>
        <time>2019-05-29T09:45:16Z</time>
      </trkpt>
      <trkpt lat="42.546010" lon="2.139713">
        <ele>1867.008</ele>
        <time>2019-05-29T09:45:19Z</time>
      </trkpt>
      <trkpt lat="42.546043" lon="2.139746">
        <ele>1867.461</ele>
        <time>2019-05-29T09:45:22Z</time>
      </trkpt>
      <trkpt lat="42.546116" lon="2.139823">
        <ele>1868.225</ele>
        <time>2019-05-29T09:45:28Z</time>
      </trkpt>
      <trkpt lat="42.546200" lon="2.139883">
        <ele>1869.271</ele>
        <time>2019-05-29T09:45:34Z</time>
      </trkpt>
      <trkpt lat="42.546212" lon="2.139885">
        <ele>1869.289</ele>
        <time>2019-05-29T09:45:35Z</time>
      </trkpt>
      <trkpt lat="42.546302" lon="2.139887">
        <ele>1869.622</ele>
        <time>2019-05-29T09:45:42Z</time>
      </trkpt>
      <trkpt lat="42.546381" lon="2.139861">
        <ele>1869.852</ele>
        <time>2019-05-29T09:45:48Z</time>
      </trkpt>
      <trkpt lat="42.546408" lon="2.139845">
        <ele>1870.054</ele>
        <time>2019-05-29T09:45:50Z</time>
      </trkpt>
      <trkpt lat="42.546421" lon="2.139843">
        <ele>1870.499</ele>
        <time>2019-05-29T09:45:51Z</time>
      </trkpt>
      <trkpt lat="42.546444" lon="2.139830">
        <ele>1871.821</ele>
        <time>2019-05-29T09:45:53Z</time>
      </trkpt>
      <trkpt lat="42.546477" lon="2.139818">
        <ele>1872.441</ele>
        <time>2019-05-29T09:45:55Z</time>
      </trkpt>
      <trkpt lat="42.546503" lon="2.139804">
        <ele>1873.005</ele>
        <time>2019-05-29T09:45:57Z</time>
      </trkpt>
      <trkpt lat="42.546572" lon="2.139746">
        <ele>1873.408</ele>
        <time>2019-05-29T09:46:03Z</time>
      </trkpt>
      <trkpt lat="42.546647" lon="2.139637">
        <ele>1873.855</ele>
        <time>2019-05-29T09:46:11Z</time>
      </trkpt>
      <trkpt lat="42.546661" lon="2.139603">
        <ele>1874.089</ele>
        <time>2019-05-29T09:46:13Z</time>
      </trkpt>
      <trkpt lat="42.546714" lon="2.139523">
        <ele>1875.055</ele>
        <time>2019-05-29T09:46:19Z</time>
      </trkpt>
      <trkpt lat="42.546722" lon="2.139509">
        <ele>1875.263</ele>
        <time>2019-05-29T09:46:20Z</time>
      </trkpt>
      <trkpt lat="42.546767" lon="2.139405">
        <ele>1876.446</ele>
        <time>2019-05-29T09:46:26Z</time>
      </trkpt>
      <trkpt lat="42.546795" lon="2.139288">
        <ele>1877.226</ele>
        <time>2019-05-29T09:46:32Z</time>
      </trkpt>
      <trkpt lat="42.546799" lon="2.139270">
        <ele>1877.478</ele>
        <time>2019-05-29T09:46:33Z</time>
      </trkpt>
      <trkpt lat="42.546809" lon="2.139206">
        <ele>1877.823</ele>
        <time>2019-05-29T09:46:36Z</time>
      </trkpt>
      <trkpt lat="42.546798" lon="2.139109">
        <ele>1878.094</ele>
        <time>2019-05-29T09:46:40Z</time>
      </trkpt>
      <trkpt lat="42.546790" lon="2.139087">
        <ele>1878.257</ele>
        <time>2019-05-29T09:46:41Z</time>
      </trkpt>
      <trkpt lat="42.546777" lon="2.138990">
        <ele>1878.422</ele>
        <time>2019-05-29T09:46:45Z</time>
      </trkpt>
      <trkpt lat="42.546776" lon="2.138900">
        <ele>1878.408</ele>
        <time>2019-05-29T09:46:49Z</time>
      </trkpt>
      <trkpt lat="42.546775" lon="2.138820">
        <ele>1878.412</ele>
        <time>2019-05-29T09:46:52Z</time>
      </trkpt>
      <trkpt lat="42.546773" lon="2.138605">
        <ele>1877.456</ele>
        <time>2019-05-29T09:46:58Z</time>
      </trkpt>
      <trkpt lat="42.546773" lon="2.138568">
        <ele>1877.062</ele>
        <time>2019-05-29T09:46:59Z</time>
      </trkpt>
      <trkpt lat="42.546775" lon="2.138479">
        <ele>1876.260</ele>
        <time>2019-05-29T09:47:01Z</time>
      </trkpt>
      <trkpt lat="42.546774" lon="2.138379">
        <ele>1875.683</ele>
        <time>2019-05-29T09:47:04Z</time>
      </trkpt>
      <trkpt lat="42.546772" lon="2.138308">
        <ele>1875.253</ele>
        <time>2019-05-29T09:47:07Z</time>
      </trkpt>
      <trkpt lat="42.546749" lon="2.138261">
        <ele>1875.235</ele>
        <time>2019-05-29T09:47:09Z</time>
      </trkpt>
      <trkpt lat="42.546739" lon="2.138194">
        <ele>1875.060</ele>
        <time>2019-05-29T09:47:11Z</time>
      </trkpt>
      <trkpt lat="42.546739" lon="2.138066">
        <ele>1875.093</ele>
        <time>2019-05-29T09:47:14Z</time>
      </trkpt>
      <trkpt lat="42.546811" lon="2.137853">
        <ele>1874.465</ele>
        <time>2019-05-29T09:47:19Z</time>
      </trkpt>
      <trkpt lat="42.546830" lon="2.137814">
        <ele>1874.021</ele>
        <time>2019-05-29T09:47:20Z</time>
      </trkpt>
      <trkpt lat="42.546914" lon="2.137666">
        <ele>1875.808</ele>
        <time>2019-05-29T09:47:24Z</time>
      </trkpt>
      <trkpt lat="42.546932" lon="2.137625">
        <ele>1874.292</ele>
        <time>2019-05-29T09:47:25Z</time>
      </trkpt>
      <trkpt lat="42.546952" lon="2.137588">
        <ele>1874.246</ele>
        <time>2019-05-29T09:47:26Z</time>
      </trkpt>
      <trkpt lat="42.546995" lon="2.137514">
        <ele>1876.462</ele>
        <time>2019-05-29T09:47:28Z</time>
      </trkpt>
      <trkpt lat="42.547015" lon="2.137472">
        <ele>1873.260</ele>
        <time>2019-05-29T09:47:29Z</time>
      </trkpt>
      <trkpt lat="42.547076" lon="2.137278">
        <ele>1872.833</ele>
        <time>2019-05-29T09:47:33Z</time>
      </trkpt>
      <trkpt lat="42.547128" lon="2.137110">
        <ele>1872.023</ele>
        <time>2019-05-29T09:47:36Z</time>
      </trkpt>
      <trkpt lat="42.547155" lon="2.137058">
        <ele>1872.215</ele>
        <time>2019-05-29T09:47:37Z</time>
      </trkpt>
      <trkpt lat="42.547186" lon="2.137008">
        <ele>1872.050</ele>
        <time>2019-05-29T09:47:38Z</time>
      </trkpt>
      <trkpt lat="42.547312" lon="2.136885">
        <ele>1871.893</ele>
        <time>2019-05-29T09:47:41Z</time>
      </trkpt>
      <trkpt lat="42.547356" lon="2.136850">
        <ele>1872.065</ele>
        <time>2019-05-29T09:47:42Z</time>
      </trkpt>
      <trkpt lat="42.547403" lon="2.136820">
        <ele>1872.021</ele>
        <time>2019-05-29T09:47:43Z</time>
      </trkpt>
      <trkpt lat="42.547644" lon="2.136706">
        <ele>1872.208</ele>
        <time>2019-05-29T09:47:48Z</time>
      </trkpt>
      <trkpt lat="42.547840" lon="2.136627">
        <ele>1871.482</ele>
        <time>2019-05-29T09:47:52Z</time>
      </trkpt>
      <trkpt lat="42.547892" lon="2.136605">
        <ele>1870.636</ele>
        <time>2019-05-29T09:47:53Z</time>
      </trkpt>
      <trkpt lat="42.547941" lon="2.136585">
        <ele>1870.072</ele>
        <time>2019-05-29T09:47:54Z</time>
      </trkpt>
      <trkpt lat="42.548195" lon="2.136480">
        <ele>1870.430</ele>
        <time>2019-05-29T09:47:59Z</time>
      </trkpt>
      <trkpt lat="42.548499" lon="2.136381">
        <ele>1870.493</ele>
        <time>2019-05-29T09:48:05Z</time>
      </trkpt>
      <trkpt lat="42.548550" lon="2.136371">
        <ele>1869.493</ele>
        <time>2019-05-29T09:48:06Z</time>
      </trkpt>
      <trkpt lat="42.548746" lon="2.136348">
        <ele>1869.095</ele>
        <time>2019-05-29T09:48:10Z</time>
      </trkpt>
      <trkpt lat="42.548795" lon="2.136342">
        <ele>1868.480</ele>
        <time>2019-05-29T09:48:11Z</time>
      </trkpt>
      <trkpt lat="42.549004" lon="2.136307">
        <ele>1867.455</ele>
        <time>2019-05-29T09:48:15Z</time>
      </trkpt>
      <trkpt lat="42.549208" lon="2.136288">
        <ele>1867.407</ele>
        <time>2019-05-29T09:48:19Z</time>
      </trkpt>
      <trkpt lat="42.549369" lon="2.136281">
        <ele>1868.417</ele>
        <time>2019-05-29T09:48:22Z</time>
      </trkpt>
      <trkpt lat="42.549539" lon="2.136273">
        <ele>1867.008</ele>
        <time>2019-05-29T09:48:25Z</time>
      </trkpt>
      <trkpt lat="42.549656" lon="2.136273">
        <ele>1865.618</ele>
        <time>2019-05-29T09:48:27Z</time>
      </trkpt>
      <trkpt lat="42.549839" lon="2.136268">
        <ele>1864.492</ele>
        <time>2019-05-29T09:48:30Z</time>
      </trkpt>
      <trkpt lat="42.549961" lon="2.136261">
        <ele>1863.448</ele>
        <time>2019-05-29T09:48:32Z</time>
      </trkpt>
      <trkpt lat="42.550024" lon="2.136250">
        <ele>1863.276</ele>
        <time>2019-05-29T09:48:33Z</time>
      </trkpt>
      <trkpt lat="42.550262" lon="2.136164">
        <ele>1862.649</ele>
        <time>2019-05-29T09:48:37Z</time>
      </trkpt>
      <trkpt lat="42.550593" lon="2.136016">
        <ele>1861.839</ele>
        <time>2019-05-29T09:48:42Z</time>
      </trkpt>
      <trkpt lat="42.550725" lon="2.135989">
        <ele>1861.861</ele>
        <time>2019-05-29T09:48:44Z</time>
      </trkpt>
      <trkpt lat="42.550851" lon="2.135995">
        <ele>1861.866</ele>
        <time>2019-05-29T09:48:46Z</time>
      </trkpt>
      <trkpt lat="42.551108" lon="2.136001">
        <ele>1862.677</ele>
        <time>2019-05-29T09:48:51Z</time>
      </trkpt>
      <trkpt lat="42.551156" lon="2.136003">
        <ele>1863.061</ele>
        <time>2019-05-29T09:48:52Z</time>
      </trkpt>
      <trkpt lat="42.551246" lon="2.136019">
        <ele>1863.227</ele>
        <time>2019-05-29T09:48:54Z</time>
      </trkpt>
      <trkpt lat="42.551368" lon="2.136096">
        <ele>1863.208</ele>
        <time>2019-05-29T09:48:57Z</time>
      </trkpt>
      <trkpt lat="42.551455" lon="2.136163">
        <ele>1861.680</ele>
        <time>2019-05-29T09:48:59Z</time>
      </trkpt>
      <trkpt lat="42.551498" lon="2.136206">
        <ele>1861.054</ele>
        <time>2019-05-29T09:49:00Z</time>
      </trkpt>
      <trkpt lat="42.551590" lon="2.136298">
        <ele>1861.630</ele>
        <time>2019-05-29T09:49:02Z</time>
      </trkpt>
      <trkpt lat="42.551688" lon="2.136402">
        <ele>1860.628</ele>
        <time>2019-05-29T09:49:04Z</time>
      </trkpt>
      <trkpt lat="42.551903" lon="2.136680">
        <ele>1859.641</ele>
        <time>2019-05-29T09:49:09Z</time>
      </trkpt>
      <trkpt lat="42.551945" lon="2.136735">
        <ele>1859.651</ele>
        <time>2019-05-29T09:49:10Z</time>
      </trkpt>
      <trkpt lat="42.551987" lon="2.136778">
        <ele>1859.453</ele>
        <time>2019-05-29T09:49:11Z</time>
      </trkpt>
      <trkpt lat="42.552084" lon="2.136849">
        <ele>1859.858</ele>
        <time>2019-05-29T09:49:13Z</time>
      </trkpt>
      <trkpt lat="42.552190" lon="2.136919">
        <ele>1859.638</ele>
        <time>2019-05-29T09:49:15Z</time>
      </trkpt>
      <trkpt lat="42.552297" lon="2.136998">
        <ele>1859.270</ele>
        <time>2019-05-29T09:49:17Z</time>
      </trkpt>
      <trkpt lat="42.552400" lon="2.137087">
        <ele>1858.417</ele>
        <time>2019-05-29T09:49:19Z</time>
      </trkpt>
      <trkpt lat="42.552601" lon="2.137264">
        <ele>1859.208</ele>
        <time>2019-05-29T09:49:24Z</time>
      </trkpt>
      <trkpt lat="42.552641" lon="2.137283">
        <ele>1859.666</ele>
        <time>2019-05-29T09:49:25Z</time>
      </trkpt>
      <trkpt lat="42.552794" lon="2.137319">
        <ele>1860.480</ele>
        <time>2019-05-29T09:49:29Z</time>
      </trkpt>
      <trkpt lat="42.552990" lon="2.137284">
        <ele>1858.486</ele>
        <time>2019-05-29T09:49:34Z</time>
      </trkpt>
      <trkpt lat="42.553025" lon="2.137269">
        <ele>1858.654</ele>
        <time>2019-05-29T09:49:35Z</time>
      </trkpt>
      <trkpt lat="42.553102" lon="2.137221">
        <ele>1858.247</ele>
        <time>2019-05-29T09:49:37Z</time>
      </trkpt>
      <trkpt lat="42.553218" lon="2.137124">
        <ele>1857.497</ele>
        <time>2019-05-29T09:49:40Z</time>
      </trkpt>
      <trkpt lat="42.553249" lon="2.137078">
        <ele>1856.629</ele>
        <time>2019-05-29T09:49:41Z</time>
      </trkpt>
      <trkpt lat="42.553275" lon="2.137032">
        <ele>1856.094</ele>
        <time>2019-05-29T09:49:42Z</time>
      </trkpt>
      <trkpt lat="42.553352" lon="2.136877">
        <ele>1856.885</ele>
        <time>2019-05-29T09:49:45Z</time>
      </trkpt>
      <trkpt lat="42.553396" lon="2.136742">
        <ele>1856.289</ele>
        <time>2019-05-29T09:49:47Z</time>
      </trkpt>
      <trkpt lat="42.553483" lon="2.136455">
        <ele>1856.817</ele>
        <time>2019-05-29T09:49:51Z</time>
      </trkpt>
      <trkpt lat="42.553531" lon="2.136309">
        <ele>1856.208</ele>
        <time>2019-05-29T09:49:53Z</time>
      </trkpt>
      <trkpt lat="42.553615" lon="2.135995">
        <ele>1855.041</ele>
        <time>2019-05-29T09:49:57Z</time>
      </trkpt>
      <trkpt lat="42.553642" lon="2.135823">
        <ele>1855.235</ele>
        <time>2019-05-29T09:49:59Z</time>
      </trkpt>
      <trkpt lat="42.553654" lon="2.135642">
        <ele>1854.671</ele>
        <time>2019-05-29T09:50:01Z</time>
      </trkpt>
      <trkpt lat="42.553653" lon="2.135551">
        <ele>1854.259</ele>
        <time>2019-05-29T09:50:02Z</time>
      </trkpt>
      <trkpt lat="42.553644" lon="2.135364">
        <ele>1854.082</ele>
        <time>2019-05-29T09:50:04Z</time>
      </trkpt>
      <trkpt lat="42.553620" lon="2.135063">
        <ele>1853.412</ele>
        <time>2019-05-29T09:50:07Z</time>
      </trkpt>
      <trkpt lat="42.553619" lon="2.134860">
        <ele>1852.414</ele>
        <time>2019-05-29T09:50:09Z</time>
      </trkpt>
      <trkpt lat="42.553625" lon="2.134758">
        <ele>1852.289</ele>
        <time>2019-05-29T09:50:10Z</time>
      </trkpt>
      <trkpt lat="42.553641" lon="2.134463">
        <ele>1852.491</ele>
        <time>2019-05-29T09:50:13Z</time>
      </trkpt>
      <trkpt lat="42.553613" lon="2.134188">
        <ele>1851.881</ele>
        <time>2019-05-29T09:50:16Z</time>
      </trkpt>
      <trkpt lat="42.553580" lon="2.134003">
        <ele>1850.819</ele>
        <time>2019-05-29T09:50:18Z</time>
      </trkpt>
      <trkpt lat="42.553527" lon="2.133679">
        <ele>1851.608</ele>
        <time>2019-05-29T09:50:22Z</time>
      </trkpt>
      <trkpt lat="42.553505" lon="2.133538">
        <ele>1852.042</ele>
        <time>2019-05-29T09:50:24Z</time>
      </trkpt>
      <trkpt lat="42.553482" lon="2.133362">
        <ele>1853.276</ele>
        <time>2019-05-29T09:50:27Z</time>
      </trkpt>
      <trkpt lat="42.553454" lon="2.133239">
        <ele>1854.242</ele>
        <time>2019-05-29T09:50:30Z</time>
      </trkpt>
      <trkpt lat="42.553452" lon="2.133208">
        <ele>1854.470</ele>
        <time>2019-05-29T09:50:31Z</time>
      </trkpt>
      <trkpt lat="42.553443" lon="2.133149">
        <ele>1855.223</ele>
        <time>2019-05-29T09:50:33Z</time>
      </trkpt>
      <trkpt lat="42.553439" lon="2.133127">
        <ele>1855.473</ele>
        <time>2019-05-29T09:50:34Z</time>
      </trkpt>
      <trkpt lat="42.553433" lon="2.133101">
        <ele>1855.615</ele>
        <time>2019-05-29T09:50:35Z</time>
      </trkpt>
      <trkpt lat="42.553393" lon="2.132914">
        <ele>1856.480</ele>
        <time>2019-05-29T09:50:41Z</time>
      </trkpt>
      <trkpt lat="42.553377" lon="2.132858">
        <ele>1856.643</ele>
        <time>2019-05-29T09:50:43Z</time>
      </trkpt>
      <trkpt lat="42.553325" lon="2.132714">
        <ele>1857.464</ele>
        <time>2019-05-29T09:50:49Z</time>
      </trkpt>
      <trkpt lat="42.553306" lon="2.132684">
        <ele>1857.610</ele>
        <time>2019-05-29T09:50:51Z</time>
      </trkpt>
      <trkpt lat="42.553247" lon="2.132573">
        <ele>1858.008</ele>
        <time>2019-05-29T09:50:57Z</time>
      </trkpt>
      <trkpt lat="42.553200" lon="2.132485">
        <ele>1858.617</ele>
        <time>2019-05-29T09:51:01Z</time>
      </trkpt>
      <trkpt lat="42.553175" lon="2.132447">
        <ele>1859.281</ele>
        <time>2019-05-29T09:51:03Z</time>
      </trkpt>
      <trkpt lat="42.553161" lon="2.132427">
        <ele>1859.427</ele>
        <time>2019-05-29T09:51:04Z</time>
      </trkpt>
      <trkpt lat="42.553100" lon="2.132360">
        <ele>1859.685</ele>
        <time>2019-05-29T09:51:08Z</time>
      </trkpt>
      <trkpt lat="42.553042" lon="2.132307">
        <ele>1860.468</ele>
        <time>2019-05-29T09:51:12Z</time>
      </trkpt>
      <trkpt lat="42.553001" lon="2.132253">
        <ele>1860.838</ele>
        <time>2019-05-29T09:51:15Z</time>
      </trkpt>
      <trkpt lat="42.552974" lon="2.132219">
        <ele>1861.060</ele>
        <time>2019-05-29T09:51:18Z</time>
      </trkpt>
      <trkpt lat="42.552896" lon="2.132097">
        <ele>1861.275</ele>
        <time>2019-05-29T09:51:24Z</time>
      </trkpt>
      <trkpt lat="42.552793" lon="2.131955">
        <ele>1861.458</ele>
        <time>2019-05-29T09:51:31Z</time>
      </trkpt>
      <trkpt lat="42.552751" lon="2.131876">
        <ele>1861.852</ele>
        <time>2019-05-29T09:51:34Z</time>
      </trkpt>
      <trkpt lat="42.552697" lon="2.131760">
        <ele>1863.017</ele>
        <time>2019-05-29T09:51:38Z</time>
      </trkpt>
      <trkpt lat="42.552685" lon="2.131731">
        <ele>1862.408</ele>
        <time>2019-05-29T09:51:39Z</time>
      </trkpt>
      <trkpt lat="42.552675" lon="2.131705">
        <ele>1864.278</ele>
        <time>2019-05-29T09:51:40Z</time>
      </trkpt>
      <trkpt lat="42.552603" lon="2.131539">
        <ele>1863.812</ele>
        <time>2019-05-29T09:51:46Z</time>
      </trkpt>
      <trkpt lat="42.552538" lon="2.131340">
        <ele>1864.228</ele>
        <time>2019-05-29T09:51:53Z</time>
      </trkpt>
      <trkpt lat="42.552518" lon="2.131288">
        <ele>1864.056</ele>
        <time>2019-05-29T09:51:55Z</time>
      </trkpt>
      <trkpt lat="42.552489" lon="2.131220">
        <ele>1864.059</ele>
        <time>2019-05-29T09:51:58Z</time>
      </trkpt>
      <trkpt lat="42.552471" lon="2.131168">
        <ele>1864.439</ele>
        <time>2019-05-29T09:52:00Z</time>
      </trkpt>
      <trkpt lat="42.552434" lon="2.131056">
        <ele>1864.871</ele>
        <time>2019-05-29T09:52:05Z</time>
      </trkpt>
      <trkpt lat="42.552408" lon="2.130990">
        <ele>1865.236</ele>
        <time>2019-05-29T09:52:08Z</time>
      </trkpt>
      <trkpt lat="42.552366" lon="2.130867">
        <ele>1865.876</ele>
        <time>2019-05-29T09:52:13Z</time>
      </trkpt>
      <trkpt lat="42.552325" lon="2.130795">
        <ele>1866.290</ele>
        <time>2019-05-29T09:52:16Z</time>
      </trkpt>
      <trkpt lat="42.552276" lon="2.130713">
        <ele>1866.819</ele>
        <time>2019-05-29T09:52:19Z</time>
      </trkpt>
      <trkpt lat="42.552206" lon="2.130641">
        <ele>1867.208</ele>
        <time>2019-05-29T09:52:23Z</time>
      </trkpt>
      <trkpt lat="42.552153" lon="2.130585">
        <ele>1867.620</ele>
        <time>2019-05-29T09:52:26Z</time>
      </trkpt>
      <trkpt lat="42.552043" lon="2.130458">
        <ele>1868.054</ele>
        <time>2019-05-29T09:52:32Z</time>
      </trkpt>
      <trkpt lat="42.552006" lon="2.130411">
        <ele>1868.450</ele>
        <time>2019-05-29T09:52:34Z</time>
      </trkpt>
      <trkpt lat="42.551956" lon="2.130285">
        <ele>1868.888</ele>
        <time>2019-05-29T09:52:38Z</time>
      </trkpt>
      <trkpt lat="42.551958" lon="2.130082">
        <ele>1868.211</ele>
        <time>2019-05-29T09:52:44Z</time>
      </trkpt>
      <trkpt lat="42.552025" lon="2.130000">
        <ele>1867.671</ele>
        <time>2019-05-29T09:52:48Z</time>
      </trkpt>
      <trkpt lat="42.552110" lon="2.129923">
        <ele>1869.623</ele>
        <time>2019-05-29T09:52:53Z</time>
      </trkpt>
      <trkpt lat="42.552140" lon="2.129899">
        <ele>1870.228</ele>
        <time>2019-05-29T09:52:55Z</time>
      </trkpt>
      <trkpt lat="42.552259" lon="2.129856">
        <ele>1869.668</ele>
        <time>2019-05-29T09:53:02Z</time>
      </trkpt>
      <trkpt lat="42.552329" lon="2.129829">
        <ele>1871.242</ele>
        <time>2019-05-29T09:53:06Z</time>
      </trkpt>
      <trkpt lat="42.552392" lon="2.129811">
        <ele>1870.026</ele>
        <time>2019-05-29T09:53:09Z</time>
      </trkpt>
      <trkpt lat="42.552417" lon="2.129808">
        <ele>1867.608</ele>
        <time>2019-05-29T09:53:10Z</time>
      </trkpt>
      <trkpt lat="42.552460" lon="2.129800">
        <ele>1869.889</ele>
        <time>2019-05-29T09:53:12Z</time>
      </trkpt>
      <trkpt lat="42.552478" lon="2.129797">
        <ele>1871.893</ele>
        <time>2019-05-29T09:53:13Z</time>
      </trkpt>
      <trkpt lat="42.552521" lon="2.129785">
        <ele>1870.019</ele>
        <time>2019-05-29T09:53:15Z</time>
      </trkpt>
      <trkpt lat="42.552536" lon="2.129782">
        <ele>1870.217</ele>
        <time>2019-05-29T09:53:16Z</time>
      </trkpt>
      <trkpt lat="42.552647" lon="2.129753">
        <ele>1870.620</ele>
        <time>2019-05-29T09:53:21Z</time>
      </trkpt>
      <trkpt lat="42.552700" lon="2.129734">
        <ele>1871.240</ele>
        <time>2019-05-29T09:53:23Z</time>
      </trkpt>
      <trkpt lat="42.552792" lon="2.129704">
        <ele>1871.442</ele>
        <time>2019-05-29T09:53:27Z</time>
      </trkpt>
      <trkpt lat="42.552909" lon="2.129669">
        <ele>1872.477</ele>
        <time>2019-05-29T09:53:32Z</time>
      </trkpt>
      <trkpt lat="42.552932" lon="2.129662">
        <ele>1873.242</ele>
        <time>2019-05-29T09:53:33Z</time>
      </trkpt>
      <trkpt lat="42.552956" lon="2.129655">
        <ele>1873.822</ele>
        <time>2019-05-29T09:53:34Z</time>
      </trkpt>
      <trkpt lat="42.553084" lon="2.129623">
        <ele>1873.214</ele>
        <time>2019-05-29T09:53:40Z</time>
      </trkpt>
      <trkpt lat="42.553218" lon="2.129596">
        <ele>1874.408</ele>
        <time>2019-05-29T09:53:47Z</time>
      </trkpt>
      <trkpt lat="42.553338" lon="2.129552">
        <ele>1874.227</ele>
        <time>2019-05-29T09:53:53Z</time>
      </trkpt>
      <trkpt lat="42.553378" lon="2.129540">
        <ele>1875.651</ele>
        <time>2019-05-29T09:53:55Z</time>
      </trkpt>
      <trkpt lat="42.553474" lon="2.129494">
        <ele>1876.097</ele>
        <time>2019-05-29T09:54:00Z</time>
      </trkpt>
      <trkpt lat="42.553606" lon="2.129439">
        <ele>1876.085</ele>
        <time>2019-05-29T09:54:06Z</time>
      </trkpt>
      <trkpt lat="42.553741" lon="2.129386">
        <ele>1876.628</ele>
        <time>2019-05-29T09:54:12Z</time>
      </trkpt>
      <trkpt lat="42.553767" lon="2.129380">
        <ele>1877.078</ele>
        <time>2019-05-29T09:54:13Z</time>
      </trkpt>
      <trkpt lat="42.553901" lon="2.129346">
        <ele>1877.250</ele>
        <time>2019-05-29T09:54:20Z</time>
      </trkpt>
      <trkpt lat="42.553943" lon="2.129344">
        <ele>1878.035</ele>
        <time>2019-05-29T09:54:23Z</time>
      </trkpt>
      <trkpt lat="42.554039" lon="2.129321">
        <ele>1878.282</ele>
        <time>2019-05-29T09:54:27Z</time>
      </trkpt>
      <trkpt lat="42.554103" lon="2.129296">
        <ele>1879.043</ele>
        <time>2019-05-29T09:54:30Z</time>
      </trkpt>
      <trkpt lat="42.554168" lon="2.129286">
        <ele>1880.217</ele>
        <time>2019-05-29T09:54:33Z</time>
      </trkpt>
      <trkpt lat="42.554225" lon="2.129278">
        <ele>1879.808</ele>
        <time>2019-05-29T09:54:36Z</time>
      </trkpt>
      <trkpt lat="42.554278" lon="2.129263">
        <ele>1879.021</ele>
        <time>2019-05-29T09:54:39Z</time>
      </trkpt>
      <trkpt lat="42.554349" lon="2.129255">
        <ele>1879.665</ele>
        <time>2019-05-29T09:54:43Z</time>
      </trkpt>
      <trkpt lat="42.554370" lon="2.129251">
        <ele>1880.241</ele>
        <time>2019-05-29T09:54:44Z</time>
      </trkpt>
      <trkpt lat="42.554410" lon="2.129247">
        <ele>1881.019</ele>
        <time>2019-05-29T09:54:46Z</time>
      </trkpt>
      <trkpt lat="42.554455" lon="2.129248">
        <ele>1881.012</ele>
        <time>2019-05-29T09:54:48Z</time>
      </trkpt>
      <trkpt lat="42.554496" lon="2.129243">
        <ele>1881.682</ele>
        <time>2019-05-29T09:54:50Z</time>
      </trkpt>
      <trkpt lat="42.554558" lon="2.129242">
        <ele>1882.674</ele>
        <time>2019-05-29T09:54:53Z</time>
      </trkpt>
      <trkpt lat="42.554599" lon="2.129239">
        <ele>1883.089</ele>
        <time>2019-05-29T09:54:55Z</time>
      </trkpt>
      <trkpt lat="42.554755" lon="2.129268">
        <ele>1882.847</ele>
        <time>2019-05-29T09:55:03Z</time>
      </trkpt>
      <trkpt lat="42.554811" lon="2.129289">
        <ele>1883.829</ele>
        <time>2019-05-29T09:55:06Z</time>
      </trkpt>
      <trkpt lat="42.554859" lon="2.129324">
        <ele>1884.421</ele>
        <time>2019-05-29T09:55:09Z</time>
      </trkpt>
      <trkpt lat="42.554874" lon="2.129335">
        <ele>1884.808</ele>
        <time>2019-05-29T09:55:10Z</time>
      </trkpt>
      <trkpt lat="42.554960" lon="2.129421">
        <ele>1885.667</ele>
        <time>2019-05-29T09:55:17Z</time>
      </trkpt>
      <trkpt lat="42.554987" lon="2.129445">
        <ele>1886.011</ele>
        <time>2019-05-29T09:55:19Z</time>
      </trkpt>
      <trkpt lat="42.555056" lon="2.129499">
        <ele>1886.247</ele>
        <time>2019-05-29T09:55:24Z</time>
      </trkpt>
      <trkpt lat="42.555108" lon="2.129547">
        <ele>1887.015</ele>
        <time>2019-05-29T09:55:28Z</time>
      </trkpt>
      <trkpt lat="42.555144" lon="2.129599">
        <ele>1886.218</ele>
        <time>2019-05-29T09:55:31Z</time>
      </trkpt>
      <trkpt lat="42.555204" lon="2.129643">
        <ele>1886.088</ele>
        <time>2019-05-29T09:55:35Z</time>
      </trkpt>
      <trkpt lat="42.555228" lon="2.129669">
        <ele>1885.860</ele>
        <time>2019-05-29T09:55:37Z</time>
      </trkpt>
      <trkpt lat="42.555301" lon="2.129745">
        <ele>1886.655</ele>
        <time>2019-05-29T09:55:43Z</time>
      </trkpt>
      <trkpt lat="42.555315" lon="2.129755">
        <ele>1886.859</ele>
        <time>2019-05-29T09:55:44Z</time>
      </trkpt>
      <trkpt lat="42.555341" lon="2.129779">
        <ele>1887.203</ele>
        <time>2019-05-29T09:55:46Z</time>
      </trkpt>
      <trkpt lat="42.555379" lon="2.129810">
        <ele>1887.223</ele>
        <time>2019-05-29T09:55:49Z</time>
      </trkpt>
      <trkpt lat="42.555407" lon="2.129835">
        <ele>1887.808</ele>
        <time>2019-05-29T09:55:51Z</time>
      </trkpt>
      <trkpt lat="42.555435" lon="2.129865">
        <ele>1888.228</ele>
        <time>2019-05-29T09:55:53Z</time>
      </trkpt>
      <trkpt lat="42.555465" lon="2.129881">
        <ele>1889.052</ele>
        <time>2019-05-29T09:55:55Z</time>
      </trkpt>
      <trkpt lat="42.555476" lon="2.129895">
        <ele>1889.628</ele>
        <time>2019-05-29T09:55:56Z</time>
      </trkpt>
      <trkpt lat="42.555534" lon="2.129976">
        <ele>1889.886</ele>
        <time>2019-05-29T09:56:01Z</time>
      </trkpt>
      <trkpt lat="42.555638" lon="2.130084">
        <ele>1889.449</ele>
        <time>2019-05-29T09:56:08Z</time>
      </trkpt>
      <trkpt lat="42.555751" lon="2.130198">
        <ele>1890.069</ele>
        <time>2019-05-29T09:56:14Z</time>
      </trkpt>
      <trkpt lat="42.555768" lon="2.130211">
        <ele>1890.871</ele>
        <time>2019-05-29T09:56:15Z</time>
      </trkpt>
      <trkpt lat="42.555830" lon="2.130260">
        <ele>1891.296</ele>
        <time>2019-05-29T09:56:19Z</time>
      </trkpt>
      <trkpt lat="42.555905" lon="2.130314">
        <ele>1891.855</ele>
        <time>2019-05-29T09:56:25Z</time>
      </trkpt>
      <trkpt lat="42.555954" lon="2.130326">
        <ele>1893.007</ele>
        <time>2019-05-29T09:56:28Z</time>
      </trkpt>
      <trkpt lat="42.556019" lon="2.130370">
        <ele>1893.817</ele>
        <time>2019-05-29T09:56:32Z</time>
      </trkpt>
      <trkpt lat="42.556157" lon="2.130448">
        <ele>1893.208</ele>
        <time>2019-05-29T09:56:41Z</time>
      </trkpt>
      <trkpt lat="42.556185" lon="2.130464">
        <ele>1894.498</ele>
        <time>2019-05-29T09:56:43Z</time>
      </trkpt>
      <trkpt lat="42.556287" lon="2.130524">
        <ele>1894.682</ele>
        <time>2019-05-29T09:56:50Z</time>
      </trkpt>
      <trkpt lat="42.556385" lon="2.130571">
        <ele>1895.418</ele>
        <time>2019-05-29T09:56:57Z</time>
      </trkpt>
      <trkpt lat="42.556397" lon="2.130577">
        <ele>1895.246</ele>
        <time>2019-05-29T09:56:58Z</time>
      </trkpt>
      <trkpt lat="42.556485" lon="2.130642">
        <ele>1896.239</ele>
        <time>2019-05-29T09:57:05Z</time>
      </trkpt>
      <trkpt lat="42.556577" lon="2.130715">
        <ele>1896.269</ele>
        <time>2019-05-29T09:57:12Z</time>
      </trkpt>
      <trkpt lat="42.556604" lon="2.130733">
        <ele>1896.271</ele>
        <time>2019-05-29T09:57:14Z</time>
      </trkpt>
      <trkpt lat="42.556649" lon="2.130764">
        <ele>1896.876</ele>
        <time>2019-05-29T09:57:17Z</time>
      </trkpt>
      <trkpt lat="42.556662" lon="2.130774">
        <ele>1897.812</ele>
        <time>2019-05-29T09:57:18Z</time>
      </trkpt>
      <trkpt lat="42.556688" lon="2.130785">
        <ele>1899.232</ele>
        <time>2019-05-29T09:57:20Z</time>
      </trkpt>
      <trkpt lat="42.556758" lon="2.130836">
        <ele>1898.805</ele>
        <time>2019-05-29T09:57:25Z</time>
      </trkpt>
      <trkpt lat="42.556792" lon="2.130848">
        <ele>1898.008</ele>
        <time>2019-05-29T09:57:27Z</time>
      </trkpt>
      <trkpt lat="42.556850" lon="2.130889">
        <ele>1897.024</ele>
        <time>2019-05-29T09:57:31Z</time>
      </trkpt>
      <trkpt lat="42.557012" lon="2.130970">
        <ele>1898.238</ele>
        <time>2019-05-29T09:57:40Z</time>
      </trkpt>
      <trkpt lat="42.557129" lon="2.131012">
        <ele>1898.474</ele>
        <time>2019-05-29T09:57:47Z</time>
      </trkpt>
      <trkpt lat="42.557175" lon="2.131026">
        <ele>1899.062</ele>
        <time>2019-05-29T09:57:50Z</time>
      </trkpt>
      <trkpt lat="42.557218" lon="2.131038">
        <ele>1900.055</ele>
        <time>2019-05-29T09:57:53Z</time>
      </trkpt>
      <trkpt lat="42.557309" lon="2.131060">
        <ele>1898.485</ele>
        <time>2019-05-29T09:57:59Z</time>
      </trkpt>
      <trkpt lat="42.557359" lon="2.131072">
        <ele>1898.657</ele>
        <time>2019-05-29T09:58:02Z</time>
      </trkpt>
      <trkpt lat="42.557463" lon="2.131091">
        <ele>1898.882</ele>
        <time>2019-05-29T09:58:09Z</time>
      </trkpt>
      <trkpt lat="42.557494" lon="2.131101">
        <ele>1899.859</ele>
        <time>2019-05-29T09:58:11Z</time>
      </trkpt>
      <trkpt lat="42.557536" lon="2.131109">
        <ele>1901.203</ele>
        <time>2019-05-29T09:58:14Z</time>
      </trkpt>
      <trkpt lat="42.557550" lon="2.131113">
        <ele>1901.623</ele>
        <time>2019-05-29T09:58:15Z</time>
      </trkpt>
      <trkpt lat="42.557564" lon="2.131110">
        <ele>1902.208</ele>
        <time>2019-05-29T09:58:16Z</time>
      </trkpt>
      <trkpt lat="42.557578" lon="2.131116">
        <ele>1902.478</ele>
        <time>2019-05-29T09:58:17Z</time>
      </trkpt>
      <trkpt lat="42.557624" lon="2.131117">
        <ele>1901.632</ele>
        <time>2019-05-29T09:58:20Z</time>
      </trkpt>
      <trkpt lat="42.557670" lon="2.131126">
        <ele>1902.628</ele>
        <time>2019-05-29T09:58:23Z</time>
      </trkpt>
      <trkpt lat="42.557684" lon="2.131129">
        <ele>1903.296</ele>
        <time>2019-05-29T09:58:24Z</time>
      </trkpt>
      <trkpt lat="42.557728" lon="2.131122">
        <ele>1903.639</ele>
        <time>2019-05-29T09:58:27Z</time>
      </trkpt>
      <trkpt lat="42.557826" lon="2.131135">
        <ele>1902.099</ele>
        <time>2019-05-29T09:58:33Z</time>
      </trkpt>
      <trkpt lat="42.557846" lon="2.131135">
        <ele>1901.651</ele>
        <time>2019-05-29T09:58:34Z</time>
      </trkpt>
      <trkpt lat="42.557984" lon="2.131154">
        <ele>1903.026</ele>
        <time>2019-05-29T09:58:42Z</time>
      </trkpt>
      <trkpt lat="42.558000" lon="2.131153">
        <ele>1904.048</ele>
        <time>2019-05-29T09:58:43Z</time>
      </trkpt>
      <trkpt lat="42.558133" lon="2.131157">
        <ele>1904.861</ele>
        <time>2019-05-29T09:58:51Z</time>
      </trkpt>
      <trkpt lat="42.558164" lon="2.131166">
        <ele>1905.017</ele>
        <time>2019-05-29T09:58:53Z</time>
      </trkpt>
      <trkpt lat="42.558245" lon="2.131169">
        <ele>1905.008</ele>
        <time>2019-05-29T09:58:58Z</time>
      </trkpt>
      <trkpt lat="42.558325" lon="2.131174">
        <ele>1905.697</ele>
        <time>2019-05-29T09:59:03Z</time>
      </trkpt>
      <trkpt lat="42.558365" lon="2.131178">
        <ele>1906.281</ele>
        <time>2019-05-29T09:59:06Z</time>
      </trkpt>
      <trkpt lat="42.558411" lon="2.131188">
        <ele>1906.657</ele>
        <time>2019-05-29T09:59:09Z</time>
      </trkpt>
      <trkpt lat="42.558440" lon="2.131190">
        <ele>1906.895</ele>
        <time>2019-05-29T09:59:11Z</time>
      </trkpt>
      <trkpt lat="42.558481" lon="2.131185">
        <ele>1906.448</ele>
        <time>2019-05-29T09:59:14Z</time>
      </trkpt>
      <trkpt lat="42.558564" lon="2.131165">
        <ele>1907.618</ele>
        <time>2019-05-29T09:59:20Z</time>
      </trkpt>
      <trkpt lat="42.558610" lon="2.131158">
        <ele>1908.450</ele>
        <time>2019-05-29T09:59:23Z</time>
      </trkpt>
      <trkpt lat="42.558770" lon="2.131124">
        <ele>1908.455</ele>
        <time>2019-05-29T09:59:32Z</time>
      </trkpt>
      <trkpt lat="42.558790" lon="2.131122">
        <ele>1908.667</ele>
        <time>2019-05-29T09:59:33Z</time>
      </trkpt>
      <trkpt lat="42.558919" lon="2.131088">
        <ele>1909.081</ele>
        <time>2019-05-29T09:59:40Z</time>
      </trkpt>
      <trkpt lat="42.559066" lon="2.131036">
        <ele>1908.419</ele>
        <time>2019-05-29T09:59:49Z</time>
      </trkpt>
      <trkpt lat="42.559186" lon="2.130992">
        <ele>1909.608</ele>
        <time>2019-05-29T09:59:56Z</time>
      </trkpt>
      <trkpt lat="42.559222" lon="2.130982">
        <ele>1910.059</ele>
        <time>2019-05-29T09:59:58Z</time>
      </trkpt>
      <trkpt lat="42.559335" lon="2.130952">
        <ele>1910.633</ele>
        <time>2019-05-29T10:00:04Z</time>
      </trkpt>
      <trkpt lat="42.559352" lon="2.130948">
        <ele>1910.849</ele>
        <time>2019-05-29T10:00:05Z</time>
      </trkpt>
      <trkpt lat="42.559475" lon="2.130933">
        <ele>1911.457</ele>
        <time>2019-05-29T10:00:12Z</time>
      </trkpt>
      <trkpt lat="42.559504" lon="2.130936">
        <ele>1911.810</ele>
        <time>2019-05-29T10:00:14Z</time>
      </trkpt>
      <trkpt lat="42.559563" lon="2.130948">
        <ele>1912.440</ele>
        <time>2019-05-29T10:00:18Z</time>
      </trkpt>
      <trkpt lat="42.559620" lon="2.130960">
        <ele>1912.082</ele>
        <time>2019-05-29T10:00:22Z</time>
      </trkpt>
      <trkpt lat="42.559669" lon="2.130972">
        <ele>1913.087</ele>
        <time>2019-05-29T10:00:25Z</time>
      </trkpt>
      <trkpt lat="42.559697" lon="2.130988">
        <ele>1914.294</ele>
        <time>2019-05-29T10:00:27Z</time>
      </trkpt>
      <trkpt lat="42.559755" lon="2.131038">
        <ele>1913.257</ele>
        <time>2019-05-29T10:00:31Z</time>
      </trkpt>
      <trkpt lat="42.559852" lon="2.131104">
        <ele>1914.222</ele>
        <time>2019-05-29T10:00:38Z</time>
      </trkpt>
      <trkpt lat="42.559920" lon="2.131150">
        <ele>1915.208</ele>
        <time>2019-05-29T10:00:43Z</time>
      </trkpt>
      <trkpt lat="42.559977" lon="2.131182">
        <ele>1916.292</ele>
        <time>2019-05-29T10:00:47Z</time>
      </trkpt>
      <trkpt lat="42.559999" lon="2.131200">
        <ele>1916.456</ele>
        <time>2019-05-29T10:00:49Z</time>
      </trkpt>
      <trkpt lat="42.560064" lon="2.131241">
        <ele>1917.052</ele>
        <time>2019-05-29T10:00:54Z</time>
      </trkpt>
      <trkpt lat="42.560092" lon="2.131260">
        <ele>1917.490</ele>
        <time>2019-05-29T10:00:56Z</time>
      </trkpt>
      <trkpt lat="42.560165" lon="2.131314">
        <ele>1917.043</ele>
        <time>2019-05-29T10:01:02Z</time>
      </trkpt>
      <trkpt lat="42.560251" lon="2.131381">
        <ele>1917.633</ele>
        <time>2019-05-29T10:01:09Z</time>
      </trkpt>
      <trkpt lat="42.560334" lon="2.131462">
        <ele>1918.615</ele>
        <time>2019-05-29T10:01:16Z</time>
      </trkpt>
      <trkpt lat="42.560349" lon="2.131473">
        <ele>1918.830</ele>
        <time>2019-05-29T10:01:17Z</time>
      </trkpt>
      <trkpt lat="42.560374" lon="2.131499">
        <ele>1919.682</ele>
        <time>2019-05-29T10:01:19Z</time>
      </trkpt>
      <trkpt lat="42.560448" lon="2.131561">
        <ele>1920.043</ele>
        <time>2019-05-29T10:01:25Z</time>
      </trkpt>
      <trkpt lat="42.560538" lon="2.131652">
        <ele>1920.217</ele>
        <time>2019-05-29T10:01:32Z</time>
      </trkpt>
      <trkpt lat="42.560561" lon="2.131668">
        <ele>1920.608</ele>
        <time>2019-05-29T10:01:34Z</time>
      </trkpt>
      <trkpt lat="42.560573" lon="2.131671">
        <ele>1921.041</ele>
        <time>2019-05-29T10:01:35Z</time>
      </trkpt>
      <trkpt lat="42.560610" lon="2.131703">
        <ele>1920.465</ele>
        <time>2019-05-29T10:01:38Z</time>
      </trkpt>
      <trkpt lat="42.560638" lon="2.131724">
        <ele>1919.861</ele>
        <time>2019-05-29T10:01:40Z</time>
      </trkpt>
      <trkpt lat="42.560709" lon="2.131803">
        <ele>1920.879</ele>
        <time>2019-05-29T10:01:46Z</time>
      </trkpt>
      <trkpt lat="42.560785" lon="2.131881">
        <ele>1921.282</ele>
        <time>2019-05-29T10:01:51Z</time>
      </trkpt>
      <trkpt lat="42.560794" lon="2.131897">
        <ele>1921.212</ele>
        <time>2019-05-29T10:01:52Z</time>
      </trkpt>
      <trkpt lat="42.560814" lon="2.131930">
        <ele>1921.894</ele>
        <time>2019-05-29T10:01:54Z</time>
      </trkpt>
      <trkpt lat="42.560838" lon="2.131966">
        <ele>1922.659</ele>
        <time>2019-05-29T10:01:56Z</time>
      </trkpt>
      <trkpt lat="42.560848" lon="2.131981">
        <ele>1923.027</ele>
        <time>2019-05-29T10:01:57Z</time>
      </trkpt>
      <trkpt lat="42.560857" lon="2.131993">
        <ele>1923.268</ele>
        <time>2019-05-29T10:01:58Z</time>
      </trkpt>
      <trkpt lat="42.560910" lon="2.132077">
        <ele>1923.414</ele>
        <time>2019-05-29T10:02:02Z</time>
      </trkpt>
      <trkpt lat="42.560983" lon="2.132201">
        <ele>1924.008</ele>
        <time>2019-05-29T10:02:08Z</time>
      </trkpt>
      <trkpt lat="42.561043" lon="2.132345">
        <ele>1924.045</ele>
        <time>2019-05-29T10:02:15Z</time>
      </trkpt>
      <trkpt lat="42.561058" lon="2.132388">
        <ele>1924.429</ele>
        <time>2019-05-29T10:02:17Z</time>
      </trkpt>
      <trkpt lat="42.561134" lon="2.132537">
        <ele>1924.615</ele>
        <time>2019-05-29T10:02:25Z</time>
      </trkpt>
      <trkpt lat="42.561173" lon="2.132613">
        <ele>1924.213</ele>
        <time>2019-05-29T10:02:29Z</time>
      </trkpt>
      <trkpt lat="42.561223" lon="2.132681">
        <ele>1925.046</ele>
        <time>2019-05-29T10:02:33Z</time>
      </trkpt>
      <trkpt lat="42.561234" lon="2.132698">
        <ele>1925.216</ele>
        <time>2019-05-29T10:02:34Z</time>
      </trkpt>
      <trkpt lat="42.561312" lon="2.132785">
        <ele>1926.078</ele>
        <time>2019-05-29T10:02:40Z</time>
      </trkpt>
      <trkpt lat="42.561338" lon="2.132807">
        <ele>1926.223</ele>
        <time>2019-05-29T10:02:42Z</time>
      </trkpt>
      <trkpt lat="42.561399" lon="2.132870">
        <ele>1927.069</ele>
        <time>2019-05-29T10:02:47Z</time>
      </trkpt>
      <trkpt lat="42.561428" lon="2.132887">
        <ele>1927.404</ele>
        <time>2019-05-29T10:02:49Z</time>
      </trkpt>
      <trkpt lat="42.561437" lon="2.132901">
        <ele>1927.624</ele>
        <time>2019-05-29T10:02:50Z</time>
      </trkpt>
      <trkpt lat="42.561480" lon="2.132926">
        <ele>1926.208</ele>
        <time>2019-05-29T10:02:53Z</time>
      </trkpt>
      <trkpt lat="42.561494" lon="2.132937">
        <ele>1926.899</ele>
        <time>2019-05-29T10:02:54Z</time>
      </trkpt>
      <trkpt lat="42.561508" lon="2.132948">
        <ele>1927.623</ele>
        <time>2019-05-29T10:02:55Z</time>
      </trkpt>
      <trkpt lat="42.561585" lon="2.132975">
        <ele>1928.289</ele>
        <time>2019-05-29T10:03:00Z</time>
      </trkpt>
      <trkpt lat="42.561692" lon="2.133000">
        <ele>1928.067</ele>
        <time>2019-05-29T10:03:07Z</time>
      </trkpt>
      <trkpt lat="42.561723" lon="2.132996">
        <ele>1928.010</ele>
        <time>2019-05-29T10:03:09Z</time>
      </trkpt>
      <trkpt lat="42.561789" lon="2.133000">
        <ele>1927.870</ele>
        <time>2019-05-29T10:03:13Z</time>
      </trkpt>
      <trkpt lat="42.561887" lon="2.132994">
        <ele>1929.032</ele>
        <time>2019-05-29T10:03:19Z</time>
      </trkpt>
      <trkpt lat="42.561904" lon="2.132993">
        <ele>1929.217</ele>
        <time>2019-05-29T10:03:20Z</time>
      </trkpt>
      <trkpt lat="42.562018" lon="2.132963">
        <ele>1928.467</ele>
        <time>2019-05-29T10:03:27Z</time>
      </trkpt>
      <trkpt lat="42.562049" lon="2.132957">
        <ele>1928.681</ele>
        <time>2019-05-29T10:03:29Z</time>
      </trkpt>
      <trkpt lat="42.562112" lon="2.132938">
        <ele>1928.819</ele>
        <time>2019-05-29T10:03:33Z</time>
      </trkpt>
      <trkpt lat="42.562182" lon="2.132899">
        <ele>1930.208</ele>
        <time>2019-05-29T10:03:38Z</time>
      </trkpt>
      <trkpt lat="42.562219" lon="2.132858">
        <ele>1930.039</ele>
        <time>2019-05-29T10:03:41Z</time>
      </trkpt>
      <trkpt lat="42.562278" lon="2.132803">
        <ele>1931.283</ele>
        <time>2019-05-29T10:03:46Z</time>
      </trkpt>
      <trkpt lat="42.562325" lon="2.132755">
        <ele>1931.889</ele>
        <time>2019-05-29T10:03:50Z</time>
      </trkpt>
      <trkpt lat="42.562404" lon="2.132653">
        <ele>1932.467</ele>
        <time>2019-05-29T10:03:57Z</time>
      </trkpt>
      <trkpt lat="42.562415" lon="2.132642">
        <ele>1933.020</ele>
        <time>2019-05-29T10:03:58Z</time>
      </trkpt>
      <trkpt lat="42.562529" lon="2.132558">
        <ele>1932.660</ele>
        <time>2019-05-29T10:04:06Z</time>
      </trkpt>
      <trkpt lat="42.562582" lon="2.132520">
        <ele>1931.272</ele>
        <time>2019-05-29T10:04:10Z</time>
      </trkpt>
      <trkpt lat="42.562655" lon="2.132472">
        <ele>1932.227</ele>
        <time>2019-05-29T10:04:15Z</time>
      </trkpt>
      <trkpt lat="42.562744" lon="2.132425">
        <ele>1933.027</ele>
        <time>2019-05-29T10:04:21Z</time>
      </trkpt>
      <trkpt lat="42.562776" lon="2.132414">
        <ele>1934.468</ele>
        <time>2019-05-29T10:04:23Z</time>
      </trkpt>
      <trkpt lat="42.562868" lon="2.132365">
        <ele>1935.614</ele>
        <time>2019-05-29T10:04:29Z</time>
      </trkpt>
      <trkpt lat="42.562885" lon="2.132353">
        <ele>1935.208</ele>
        <time>2019-05-29T10:04:30Z</time>
      </trkpt>
      <trkpt lat="42.562899" lon="2.132345">
        <ele>1934.645</ele>
        <time>2019-05-29T10:04:31Z</time>
      </trkpt>
      <trkpt lat="42.563024" lon="2.132287">
        <ele>1934.649</ele>
        <time>2019-05-29T10:04:39Z</time>
      </trkpt>
      <trkpt lat="42.563095" lon="2.132233">
        <ele>1935.685</ele>
        <time>2019-05-29T10:04:44Z</time>
      </trkpt>
      <trkpt lat="42.563138" lon="2.132174">
        <ele>1935.293</ele>
        <time>2019-05-29T10:04:48Z</time>
      </trkpt>
      <trkpt lat="42.563206" lon="2.132058">
        <ele>1937.226</ele>
        <time>2019-05-29T10:04:54Z</time>
      </trkpt>
      <trkpt lat="42.563216" lon="2.132035">
        <ele>1937.246</ele>
        <time>2019-05-29T10:04:55Z</time>
      </trkpt>
      <trkpt lat="42.563222" lon="2.131979">
        <ele>1936.278</ele>
        <time>2019-05-29T10:04:57Z</time>
      </trkpt>
      <trkpt lat="42.563229" lon="2.131865">
        <ele>1935.623</ele>
        <time>2019-05-29T10:05:01Z</time>
      </trkpt>
      <trkpt lat="42.563231" lon="2.131784">
        <ele>1935.447</ele>
        <time>2019-05-29T10:05:04Z</time>
      </trkpt>
      <trkpt lat="42.563229" lon="2.131741">
        <ele>1936.029</ele>
        <time>2019-05-29T10:05:06Z</time>
      </trkpt>
      <trkpt lat="42.563214" lon="2.131650">
        <ele>1936.021</ele>
        <time>2019-05-29T10:05:12Z</time>
      </trkpt>
      <trkpt lat="42.563166" lon="2.131504">
        <ele>1936.408</ele>
        <time>2019-05-29T10:05:18Z</time>
      </trkpt>
      <trkpt lat="42.563129" lon="2.131399">
        <ele>1934.897</ele>
        <time>2019-05-29T10:05:22Z</time>
      </trkpt>
      <trkpt lat="42.563124" lon="2.131370">
        <ele>1934.841</ele>
        <time>2019-05-29T10:05:23Z</time>
      </trkpt>
      <trkpt lat="42.563083" lon="2.131221">
        <ele>1934.637</ele>
        <time>2019-05-29T10:05:28Z</time>
      </trkpt>
      <trkpt lat="42.563053" lon="2.130971">
        <ele>1935.435</ele>
        <time>2019-05-29T10:05:36Z</time>
      </trkpt>
      <trkpt lat="42.563040" lon="2.130765">
        <ele>1934.048</ele>
        <time>2019-05-29T10:05:42Z</time>
      </trkpt>
      <trkpt lat="42.563040" lon="2.130728">
        <ele>1933.848</ele>
        <time>2019-05-29T10:05:43Z</time>
      </trkpt>
      <trkpt lat="42.563039" lon="2.130602">
        <ele>1934.090</ele>
        <time>2019-05-29T10:05:47Z</time>
      </trkpt>
      <trkpt lat="42.563068" lon="2.130373">
        <ele>1934.095</ele>
        <time>2019-05-29T10:05:53Z</time>
      </trkpt>
      <trkpt lat="42.563122" lon="2.130216">
        <ele>1934.041</ele>
        <time>2019-05-29T10:05:58Z</time>
      </trkpt>
      <trkpt lat="42.563194" lon="2.130028">
        <ele>1934.681</ele>
        <time>2019-05-29T10:06:04Z</time>
      </trkpt>
      <trkpt lat="42.563255" lon="2.129887">
        <ele>1934.409</ele>
        <time>2019-05-29T10:06:10Z</time>
      </trkpt>
      <trkpt lat="42.563295" lon="2.129728">
        <ele>1934.608</ele>
        <time>2019-05-29T10:06:15Z</time>
      </trkpt>
      <trkpt lat="42.563370" lon="2.129508">
        <ele>1933.417</ele>
        <time>2019-05-29T10:06:22Z</time>
      </trkpt>
      <trkpt lat="42.563474" lon="2.129287">
        <ele>1933.611</ele>
        <time>2019-05-29T10:06:29Z</time>
      </trkpt>
      <trkpt lat="42.563586" lon="2.129138">
        <ele>1932.217</ele>
        <time>2019-05-29T10:06:34Z</time>
      </trkpt>
      <trkpt lat="42.563642" lon="2.129098">
        <ele>1931.085</ele>
        <time>2019-05-29T10:06:36Z</time>
      </trkpt>
      <trkpt lat="42.563844" lon="2.129022">
        <ele>1930.448</ele>
        <time>2019-05-29T10:06:42Z</time>
      </trkpt>
      <trkpt lat="42.563918" lon="2.129052">
        <ele>1928.838</ele>
        <time>2019-05-29T10:06:44Z</time>
      </trkpt>
      <trkpt lat="42.563992" lon="2.129101">
        <ele>1928.050</ele>
        <time>2019-05-29T10:06:46Z</time>
      </trkpt>
      <trkpt lat="42.564035" lon="2.129126">
        <ele>1927.865</ele>
        <time>2019-05-29T10:06:47Z</time>
      </trkpt>
      <trkpt lat="42.564200" lon="2.129262">
        <ele>1927.039</ele>
        <time>2019-05-29T10:06:51Z</time>
      </trkpt>
      <trkpt lat="42.564403" lon="2.129444">
        <ele>1926.401</ele>
        <time>2019-05-29T10:06:56Z</time>
      </trkpt>
      <trkpt lat="42.564443" lon="2.129483">
        <ele>1925.821</ele>
        <time>2019-05-29T10:06:57Z</time>
      </trkpt>
      <trkpt lat="42.564526" lon="2.129554">
        <ele>1925.608</ele>
        <time>2019-05-29T10:06:59Z</time>
      </trkpt>
      <trkpt lat="42.564563" lon="2.129591">
        <ele>1925.286</ele>
        <time>2019-05-29T10:07:00Z</time>
      </trkpt>
      <trkpt lat="42.564673" lon="2.129691">
        <ele>1924.810</ele>
        <time>2019-05-29T10:07:03Z</time>
      </trkpt>
      <trkpt lat="42.564916" lon="2.129929">
        <ele>1924.836</ele>
        <time>2019-05-29T10:07:10Z</time>
      </trkpt>
      <trkpt lat="42.565020" lon="2.130004">
        <ele>1924.034</ele>
        <time>2019-05-29T10:07:13Z</time>
      </trkpt>
      <trkpt lat="42.565140" lon="2.130046">
        <ele>1923.887</ele>
        <time>2019-05-29T10:07:16Z</time>
      </trkpt>
      <trkpt lat="42.565180" lon="2.130063">
        <ele>1923.627</ele>
        <time>2019-05-29T10:07:17Z</time>
      </trkpt>
      <trkpt lat="42.565261" lon="2.130076">
        <ele>1923.659</ele>
        <time>2019-05-29T10:07:19Z</time>
      </trkpt>
      <trkpt lat="42.565380" lon="2.130082">
        <ele>1923.264</ele>
        <time>2019-05-29T10:07:22Z</time>
      </trkpt>
      <trkpt lat="42.565563" lon="2.130083">
        <ele>1923.858</ele>
        <time>2019-05-29T10:07:27Z</time>
      </trkpt>
      <trkpt lat="42.565633" lon="2.130081">
        <ele>1923.852</ele>
        <time>2019-05-29T10:07:29Z</time>
      </trkpt>
      <trkpt lat="42.565789" lon="2.130105">
        <ele>1923.217</ele>
        <time>2019-05-29T10:07:33Z</time>
      </trkpt>
      <trkpt lat="42.566060" lon="2.130158">
        <ele>1923.208</ele>
        <time>2019-05-29T10:07:40Z</time>
      </trkpt>
      <trkpt lat="42.566281" lon="2.130195">
        <ele>1923.648</ele>
        <time>2019-05-29T10:07:46Z</time>
      </trkpt>
      <trkpt lat="42.566438" lon="2.130205">
        <ele>1923.642</ele>
        <time>2019-05-29T10:07:50Z</time>
      </trkpt>
      <trkpt lat="42.566520" lon="2.130209">
        <ele>1923.498</ele>
        <time>2019-05-29T10:07:52Z</time>
      </trkpt>
      <trkpt lat="42.566677" lon="2.130252">
        <ele>1922.816</ele>
        <time>2019-05-29T10:07:56Z</time>
      </trkpt>
      <trkpt lat="42.566762" lon="2.130288">
        <ele>1922.849</ele>
        <time>2019-05-29T10:07:58Z</time>
      </trkpt>
      <trkpt lat="42.567013" lon="2.130416">
        <ele>1922.439</ele>
        <time>2019-05-29T10:08:04Z</time>
      </trkpt>
      <trkpt lat="42.567239" lon="2.130588">
        <ele>1922.261</ele>
        <time>2019-05-29T10:08:10Z</time>
      </trkpt>
      <trkpt lat="42.567271" lon="2.130636">
        <ele>1922.076</ele>
        <time>2019-05-29T10:08:11Z</time>
      </trkpt>
      <trkpt lat="42.567302" lon="2.130683">
        <ele>1921.659</ele>
        <time>2019-05-29T10:08:12Z</time>
      </trkpt>
      <trkpt lat="42.567376" lon="2.130861">
        <ele>1921.803</ele>
        <time>2019-05-29T10:08:16Z</time>
      </trkpt>
      <trkpt lat="42.567519" lon="2.131098">
        <ele>1921.023</ele>
        <time>2019-05-29T10:08:23Z</time>
      </trkpt>
      <trkpt lat="42.567596" lon="2.131208">
        <ele>1920.408</ele>
        <time>2019-05-29T10:08:26Z</time>
      </trkpt>
      <trkpt lat="42.567665" lon="2.131270">
        <ele>1920.028</ele>
        <time>2019-05-29T10:08:28Z</time>
      </trkpt>
      <trkpt lat="42.567745" lon="2.131327">
        <ele>1919.222</ele>
        <time>2019-05-29T10:08:30Z</time>
      </trkpt>
      <trkpt lat="42.567829" lon="2.131397">
        <ele>1918.878</ele>
        <time>2019-05-29T10:08:32Z</time>
      </trkpt>
      <trkpt lat="42.567873" lon="2.131434">
        <ele>1918.696</ele>
        <time>2019-05-29T10:08:33Z</time>
      </trkpt>
      <trkpt lat="42.567912" lon="2.131471">
        <ele>1918.229</ele>
        <time>2019-05-29T10:08:34Z</time>
      </trkpt>
      <trkpt lat="42.567989" lon="2.131534">
        <ele>1917.089</ele>
        <time>2019-05-29T10:08:36Z</time>
      </trkpt>
      <trkpt lat="42.568072" lon="2.131603">
        <ele>1915.891</ele>
        <time>2019-05-29T10:08:38Z</time>
      </trkpt>
      <trkpt lat="42.568153" lon="2.131680">
        <ele>1915.076</ele>
        <time>2019-05-29T10:08:40Z</time>
      </trkpt>
      <trkpt lat="42.568227" lon="2.131758">
        <ele>1914.857</ele>
        <time>2019-05-29T10:08:42Z</time>
      </trkpt>
      <trkpt lat="42.568268" lon="2.131790">
        <ele>1914.600</ele>
        <time>2019-05-29T10:08:43Z</time>
      </trkpt>
      <trkpt lat="42.568357" lon="2.131864">
        <ele>1913.620</ele>
        <time>2019-05-29T10:08:45Z</time>
      </trkpt>
      <trkpt lat="42.568399" lon="2.131906">
        <ele>1913.208</ele>
        <time>2019-05-29T10:08:46Z</time>
      </trkpt>
      <trkpt lat="42.568619" lon="2.132079">
        <ele>1912.618</ele>
        <time>2019-05-29T10:08:51Z</time>
      </trkpt>
      <trkpt lat="42.568664" lon="2.132118">
        <ele>1912.282</ele>
        <time>2019-05-29T10:08:52Z</time>
      </trkpt>
      <trkpt lat="42.568712" lon="2.132143">
        <ele>1912.058</ele>
        <time>2019-05-29T10:08:53Z</time>
      </trkpt>
      <trkpt lat="42.568811" lon="2.132223">
        <ele>1911.456</ele>
        <time>2019-05-29T10:08:55Z</time>
      </trkpt>
      <trkpt lat="42.568862" lon="2.132257">
        <ele>1911.019</ele>
        <time>2019-05-29T10:08:56Z</time>
      </trkpt>
      <trkpt lat="42.568967" lon="2.132334">
        <ele>1910.299</ele>
        <time>2019-05-29T10:08:58Z</time>
      </trkpt>
      <trkpt lat="42.569123" lon="2.132428">
        <ele>1908.891</ele>
        <time>2019-05-29T10:09:01Z</time>
      </trkpt>
      <trkpt lat="42.569173" lon="2.132464">
        <ele>1908.036</ele>
        <time>2019-05-29T10:09:02Z</time>
      </trkpt>
      <trkpt lat="42.569222" lon="2.132493">
        <ele>1906.451</ele>
        <time>2019-05-29T10:09:03Z</time>
      </trkpt>
      <trkpt lat="42.569321" lon="2.132551">
        <ele>1905.401</ele>
        <time>2019-05-29T10:09:05Z</time>
      </trkpt>
      <trkpt lat="42.569417" lon="2.132615">
        <ele>1906.811</ele>
        <time>2019-05-29T10:09:07Z</time>
      </trkpt>
      <trkpt lat="42.569514" lon="2.132685">
        <ele>1905.808</ele>
        <time>2019-05-29T10:09:09Z</time>
      </trkpt>
      <trkpt lat="42.569684" lon="2.132863">
        <ele>1904.898</ele>
        <time>2019-05-29T10:09:13Z</time>
      </trkpt>
      <trkpt lat="42.569754" lon="2.132968">
        <ele>1905.252</ele>
        <time>2019-05-29T10:09:15Z</time>
      </trkpt>
      <trkpt lat="42.569874" lon="2.133155">
        <ele>1903.488</ele>
        <time>2019-05-29T10:09:19Z</time>
      </trkpt>
      <trkpt lat="42.569942" lon="2.133238">
        <ele>1902.846</ele>
        <time>2019-05-29T10:09:21Z</time>
      </trkpt>
      <trkpt lat="42.569981" lon="2.133273">
        <ele>1902.699</ele>
        <time>2019-05-29T10:09:22Z</time>
      </trkpt>
      <trkpt lat="42.570064" lon="2.133336">
        <ele>1902.249</ele>
        <time>2019-05-29T10:09:24Z</time>
      </trkpt>
      <trkpt lat="42.570144" lon="2.133375">
        <ele>1900.431</ele>
        <time>2019-05-29T10:09:26Z</time>
      </trkpt>
      <trkpt lat="42.570314" lon="2.133471">
        <ele>1900.026</ele>
        <time>2019-05-29T10:09:30Z</time>
      </trkpt>
      <trkpt lat="42.570416" lon="2.133481">
        <ele>1899.414</ele>
        <time>2019-05-29T10:09:32Z</time>
      </trkpt>
      <trkpt lat="42.570469" lon="2.133480">
        <ele>1898.054</ele>
        <time>2019-05-29T10:09:33Z</time>
      </trkpt>
      <trkpt lat="42.570520" lon="2.133485">
        <ele>1896.809</ele>
        <time>2019-05-29T10:09:34Z</time>
      </trkpt>
      <trkpt lat="42.570575" lon="2.133478">
        <ele>1896.008</ele>
        <time>2019-05-29T10:09:35Z</time>
      </trkpt>
      <trkpt lat="42.570632" lon="2.133474">
        <ele>1895.444</ele>
        <time>2019-05-29T10:09:36Z</time>
      </trkpt>
      <trkpt lat="42.570740" lon="2.133459">
        <ele>1894.488</ele>
        <time>2019-05-29T10:09:38Z</time>
      </trkpt>
      <trkpt lat="42.570907" lon="2.133428">
        <ele>1894.034</ele>
        <time>2019-05-29T10:09:41Z</time>
      </trkpt>
      <trkpt lat="42.570962" lon="2.133418">
        <ele>1893.492</ele>
        <time>2019-05-29T10:09:42Z</time>
      </trkpt>
      <trkpt lat="42.571070" lon="2.133393">
        <ele>1892.255</ele>
        <time>2019-05-29T10:09:44Z</time>
      </trkpt>
      <trkpt lat="42.571188" lon="2.133390">
        <ele>1891.225</ele>
        <time>2019-05-29T10:09:46Z</time>
      </trkpt>
      <trkpt lat="42.571244" lon="2.133397">
        <ele>1890.827</ele>
        <time>2019-05-29T10:09:47Z</time>
      </trkpt>
      <trkpt lat="42.571355" lon="2.133387">
        <ele>1890.462</ele>
        <time>2019-05-29T10:09:49Z</time>
      </trkpt>
      <trkpt lat="42.571408" lon="2.133379">
        <ele>1889.838</ele>
        <time>2019-05-29T10:09:50Z</time>
      </trkpt>
      <trkpt lat="42.571466" lon="2.133377">
        <ele>1889.670</ele>
        <time>2019-05-29T10:09:51Z</time>
      </trkpt>
      <trkpt lat="42.571581" lon="2.133361">
        <ele>1888.417</ele>
        <time>2019-05-29T10:09:53Z</time>
      </trkpt>
      <trkpt lat="42.571691" lon="2.133339">
        <ele>1886.808</ele>
        <time>2019-05-29T10:09:55Z</time>
      </trkpt>
      <trkpt lat="42.571806" lon="2.133323">
        <ele>1886.496</ele>
        <time>2019-05-29T10:09:57Z</time>
      </trkpt>
      <trkpt lat="42.572161" lon="2.133310">
        <ele>1886.020</ele>
        <time>2019-05-29T10:10:03Z</time>
      </trkpt>
      <trkpt lat="42.572218" lon="2.133328">
        <ele>1885.856</ele>
        <time>2019-05-29T10:10:04Z</time>
      </trkpt>
      <trkpt lat="42.572339" lon="2.133340">
        <ele>1885.884</ele>
        <time>2019-05-29T10:10:06Z</time>
      </trkpt>
      <trkpt lat="42.572399" lon="2.133342">
        <ele>1886.097</ele>
        <time>2019-05-29T10:10:07Z</time>
      </trkpt>
      <trkpt lat="42.572620" lon="2.133359">
        <ele>1884.237</ele>
        <time>2019-05-29T10:10:11Z</time>
      </trkpt>
      <trkpt lat="42.572728" lon="2.133356">
        <ele>1882.889</ele>
        <time>2019-05-29T10:10:13Z</time>
      </trkpt>
      <trkpt lat="42.572904" lon="2.133349">
        <ele>1881.834</ele>
        <time>2019-05-29T10:10:16Z</time>
      </trkpt>
      <trkpt lat="42.573037" lon="2.133324">
        <ele>1880.655</ele>
        <time>2019-05-29T10:10:18Z</time>
      </trkpt>
      <trkpt lat="42.573233" lon="2.133281">
        <ele>1879.607</ele>
        <time>2019-05-29T10:10:21Z</time>
      </trkpt>
      <trkpt lat="42.573361" lon="2.133233">
        <ele>1878.417</ele>
        <time>2019-05-29T10:10:23Z</time>
      </trkpt>
      <trkpt lat="42.573424" lon="2.133200">
        <ele>1876.208</ele>
        <time>2019-05-29T10:10:24Z</time>
      </trkpt>
      <trkpt lat="42.573486" lon="2.133175">
        <ele>1875.028</ele>
        <time>2019-05-29T10:10:25Z</time>
      </trkpt>
      <trkpt lat="42.573814" lon="2.133027">
        <ele>1874.042</ele>
        <time>2019-05-29T10:10:30Z</time>
      </trkpt>
      <trkpt lat="42.574163" lon="2.132864">
        <ele>1872.078</ele>
        <time>2019-05-29T10:10:35Z</time>
      </trkpt>
      <trkpt lat="42.574295" lon="2.132793">
        <ele>1870.826</ele>
        <time>2019-05-29T10:10:37Z</time>
      </trkpt>
      <trkpt lat="42.574493" lon="2.132615">
        <ele>1870.679</ele>
        <time>2019-05-29T10:10:41Z</time>
      </trkpt>
      <trkpt lat="42.574578" lon="2.132534">
        <ele>1870.439</ele>
        <time>2019-05-29T10:10:43Z</time>
      </trkpt>
      <trkpt lat="42.574662" lon="2.132499">
        <ele>1870.261</ele>
        <time>2019-05-29T10:10:45Z</time>
      </trkpt>
      <trkpt lat="42.574819" lon="2.132551">
        <ele>1870.056</ele>
        <time>2019-05-29T10:10:49Z</time>
      </trkpt>
      <trkpt lat="42.574865" lon="2.132572">
        <ele>1869.698</ele>
        <time>2019-05-29T10:10:50Z</time>
      </trkpt>
      <trkpt lat="42.575015" lon="2.132617">
        <ele>1868.415</ele>
        <time>2019-05-29T10:10:53Z</time>
      </trkpt>
      <trkpt lat="42.575119" lon="2.132620">
        <ele>1867.426</ele>
        <time>2019-05-29T10:10:55Z</time>
      </trkpt>
      <trkpt lat="42.575170" lon="2.132610">
        <ele>1867.208</ele>
        <time>2019-05-29T10:10:56Z</time>
      </trkpt>
      <trkpt lat="42.575367" lon="2.132538">
        <ele>1866.462</ele>
        <time>2019-05-29T10:11:00Z</time>
      </trkpt>
      <trkpt lat="42.575468" lon="2.132503">
        <ele>1866.276</ele>
        <time>2019-05-29T10:11:02Z</time>
      </trkpt>
      <trkpt lat="42.575695" lon="2.132412">
        <ele>1864.842</ele>
        <time>2019-05-29T10:11:07Z</time>
      </trkpt>
      <trkpt lat="42.575738" lon="2.132411">
        <ele>1864.670</ele>
        <time>2019-05-29T10:11:08Z</time>
      </trkpt>
      <trkpt lat="42.575831" lon="2.132366">
        <ele>1863.443</ele>
        <time>2019-05-29T10:11:10Z</time>
      </trkpt>
      <trkpt lat="42.575880" lon="2.132347">
        <ele>1863.053</ele>
        <time>2019-05-29T10:11:11Z</time>
      </trkpt>
      <trkpt lat="42.575917" lon="2.132312">
        <ele>1862.485</ele>
        <time>2019-05-29T10:11:12Z</time>
      </trkpt>
      <trkpt lat="42.575955" lon="2.132281">
        <ele>1862.210</ele>
        <time>2019-05-29T10:11:13Z</time>
      </trkpt>
      <trkpt lat="42.575987" lon="2.132241">
        <ele>1861.642</ele>
        <time>2019-05-29T10:11:14Z</time>
      </trkpt>
      <trkpt lat="42.576012" lon="2.132208">
        <ele>1861.622</ele>
        <time>2019-05-29T10:11:15Z</time>
      </trkpt>
      <trkpt lat="42.576083" lon="2.132103">
        <ele>1861.014</ele>
        <time>2019-05-29T10:11:18Z</time>
      </trkpt>
      <trkpt lat="42.576153" lon="2.131986">
        <ele>1861.608</ele>
        <time>2019-05-29T10:11:21Z</time>
      </trkpt>
      <trkpt lat="42.576209" lon="2.131926">
        <ele>1862.237</ele>
        <time>2019-05-29T10:11:23Z</time>
      </trkpt>
      <trkpt lat="42.576301" lon="2.131892">
        <ele>1860.861</ele>
        <time>2019-05-29T10:11:26Z</time>
      </trkpt>
      <trkpt lat="42.576383" lon="2.131831">
        <ele>1859.037</ele>
        <time>2019-05-29T10:11:29Z</time>
      </trkpt>
      <trkpt lat="42.576391" lon="2.131801">
        <ele>1858.425</ele>
        <time>2019-05-29T10:11:30Z</time>
      </trkpt>
      <trkpt lat="42.576391" lon="2.131766">
        <ele>1858.238</ele>
        <time>2019-05-29T10:11:31Z</time>
      </trkpt>
      <trkpt lat="42.576384" lon="2.131731">
        <ele>1857.898</ele>
        <time>2019-05-29T10:11:32Z</time>
      </trkpt>
      <trkpt lat="42.576325" lon="2.131648">
        <ele>1856.620</ele>
        <time>2019-05-29T10:11:35Z</time>
      </trkpt>
      <trkpt lat="42.576258" lon="2.131627">
        <ele>1856.245</ele>
        <time>2019-05-29T10:11:37Z</time>
      </trkpt>
      <trkpt lat="42.576186" lon="2.131625">
        <ele>1856.299</ele>
        <time>2019-05-29T10:11:39Z</time>
      </trkpt>
      <trkpt lat="42.576105" lon="2.131645">
        <ele>1855.607</ele>
        <time>2019-05-29T10:11:42Z</time>
      </trkpt>
      <trkpt lat="42.576077" lon="2.131660">
        <ele>1855.227</ele>
        <time>2019-05-29T10:11:43Z</time>
      </trkpt>
      <trkpt lat="42.576022" lon="2.131694">
        <ele>1854.208</ele>
        <time>2019-05-29T10:11:45Z</time>
      </trkpt>
      <trkpt lat="42.575945" lon="2.131748">
        <ele>1853.422</ele>
        <time>2019-05-29T10:11:48Z</time>
      </trkpt>
      <trkpt lat="42.575912" lon="2.131764">
        <ele>1853.096</ele>
        <time>2019-05-29T10:11:49Z</time>
      </trkpt>
      <trkpt lat="42.575721" lon="2.131805">
        <ele>1851.812</ele>
        <time>2019-05-29T10:11:54Z</time>
      </trkpt>
      <trkpt lat="42.575641" lon="2.131777">
        <ele>1850.450</ele>
        <time>2019-05-29T10:11:56Z</time>
      </trkpt>
      <trkpt lat="42.575492" lon="2.131739">
        <ele>1850.013</ele>
        <time>2019-05-29T10:12:00Z</time>
      </trkpt>
      <trkpt lat="42.575333" lon="2.131758">
        <ele>1849.833</ele>
        <time>2019-05-29T10:12:04Z</time>
      </trkpt>
      <trkpt lat="42.575257" lon="2.131749">
        <ele>1850.055</ele>
        <time>2019-05-29T10:12:06Z</time>
      </trkpt>
      <trkpt lat="42.575151" lon="2.131716">
        <ele>1849.430</ele>
        <time>2019-05-29T10:12:09Z</time>
      </trkpt>
      <trkpt lat="42.575101" lon="2.131669">
        <ele>1849.038</ele>
        <time>2019-05-29T10:12:11Z</time>
      </trkpt>
      <trkpt lat="42.575095" lon="2.131629">
        <ele>1848.670</ele>
        <time>2019-05-29T10:12:12Z</time>
      </trkpt>
      <trkpt lat="42.575099" lon="2.131584">
        <ele>1848.217</ele>
        <time>2019-05-29T10:12:13Z</time>
      </trkpt>
      <trkpt lat="42.575133" lon="2.131503">
        <ele>1847.208</ele>
        <time>2019-05-29T10:12:15Z</time>
      </trkpt>
      <trkpt lat="42.575203" lon="2.131451">
        <ele>1845.616</ele>
        <time>2019-05-29T10:12:17Z</time>
      </trkpt>
      <trkpt lat="42.575238" lon="2.131420">
        <ele>1845.410</ele>
        <time>2019-05-29T10:12:18Z</time>
      </trkpt>
      <trkpt lat="42.575276" lon="2.131394">
        <ele>1845.056</ele>
        <time>2019-05-29T10:12:19Z</time>
      </trkpt>
      <trkpt lat="42.575301" lon="2.131350">
        <ele>1843.644</ele>
        <time>2019-05-29T10:12:20Z</time>
      </trkpt>
      <trkpt lat="42.575338" lon="2.131324">
        <ele>1842.257</ele>
        <time>2019-05-29T10:12:21Z</time>
      </trkpt>
      <trkpt lat="42.575403" lon="2.131272">
        <ele>1841.447</ele>
        <time>2019-05-29T10:12:23Z</time>
      </trkpt>
      <trkpt lat="42.575525" lon="2.131162">
        <ele>1841.269</ele>
        <time>2019-05-29T10:12:27Z</time>
      </trkpt>
      <trkpt lat="42.575583" lon="2.131107">
        <ele>1841.274</ele>
        <time>2019-05-29T10:12:29Z</time>
      </trkpt>
      <trkpt lat="42.575720" lon="2.131014">
        <ele>1840.247</ele>
        <time>2019-05-29T10:12:33Z</time>
      </trkpt>
      <trkpt lat="42.575753" lon="2.130993">
        <ele>1839.829</ele>
        <time>2019-05-29T10:12:34Z</time>
      </trkpt>
      <trkpt lat="42.575875" lon="2.130877">
        <ele>1838.221</ele>
        <time>2019-05-29T10:12:38Z</time>
      </trkpt>
      <trkpt lat="42.575902" lon="2.130840">
        <ele>1837.808</ele>
        <time>2019-05-29T10:12:39Z</time>
      </trkpt>
      <trkpt lat="42.576024" lon="2.130700">
        <ele>1837.057</ele>
        <time>2019-05-29T10:12:43Z</time>
      </trkpt>
      <trkpt lat="42.576088" lon="2.130634">
        <ele>1835.041</ele>
        <time>2019-05-29T10:12:45Z</time>
      </trkpt>
      <trkpt lat="42.576178" lon="2.130523">
        <ele>1833.877</ele>
        <time>2019-05-29T10:12:48Z</time>
      </trkpt>
      <trkpt lat="42.576241" lon="2.130449">
        <ele>1833.285</ele>
        <time>2019-05-29T10:12:50Z</time>
      </trkpt>
      <trkpt lat="42.576274" lon="2.130419">
        <ele>1832.878</ele>
        <time>2019-05-29T10:12:51Z</time>
      </trkpt>
      <trkpt lat="42.576309" lon="2.130394">
        <ele>1832.688</ele>
        <time>2019-05-29T10:12:52Z</time>
      </trkpt>
      <trkpt lat="42.576451" lon="2.130358">
        <ele>1832.460</ele>
        <time>2019-05-29T10:12:55Z</time>
      </trkpt>
      <trkpt lat="42.576543" lon="2.130371">
        <ele>1832.085</ele>
        <time>2019-05-29T10:12:57Z</time>
      </trkpt>
      <trkpt lat="42.576630" lon="2.130374">
        <ele>1831.079</ele>
        <time>2019-05-29T10:12:59Z</time>
      </trkpt>
      <trkpt lat="42.576675" lon="2.130386">
        <ele>1830.605</ele>
        <time>2019-05-29T10:13:00Z</time>
      </trkpt>
      <trkpt lat="42.576808" lon="2.130403">
        <ele>1830.025</ele>
        <time>2019-05-29T10:13:03Z</time>
      </trkpt>
      <trkpt lat="42.576940" lon="2.130399">
        <ele>1829.608</ele>
        <time>2019-05-29T10:13:06Z</time>
      </trkpt>
      <trkpt lat="42.577087" lon="2.130373">
        <ele>1828.670</ele>
        <time>2019-05-29T10:13:09Z</time>
      </trkpt>
      <trkpt lat="42.577131" lon="2.130377">
        <ele>1828.234</ele>
        <time>2019-05-29T10:13:10Z</time>
      </trkpt>
      <trkpt lat="42.577228" lon="2.130368">
        <ele>1827.660</ele>
        <time>2019-05-29T10:13:12Z</time>
      </trkpt>
      <trkpt lat="42.577274" lon="2.130361">
        <ele>1827.258</ele>
        <time>2019-05-29T10:13:13Z</time>
      </trkpt>
      <trkpt lat="42.577318" lon="2.130344">
        <ele>1827.071</ele>
        <time>2019-05-29T10:13:14Z</time>
      </trkpt>
      <trkpt lat="42.577469" lon="2.130268">
        <ele>1825.811</ele>
        <time>2019-05-29T10:13:17Z</time>
      </trkpt>
      <trkpt lat="42.577568" lon="2.130239">
        <ele>1825.063</ele>
        <time>2019-05-29T10:13:19Z</time>
      </trkpt>
      <trkpt lat="42.577703" lon="2.130184">
        <ele>1824.848</ele>
        <time>2019-05-29T10:13:22Z</time>
      </trkpt>
      <trkpt lat="42.577802" lon="2.130180">
        <ele>1823.897</ele>
        <time>2019-05-29T10:13:24Z</time>
      </trkpt>
      <trkpt lat="42.577853" lon="2.130187">
        <ele>1823.423</ele>
        <time>2019-05-29T10:13:25Z</time>
      </trkpt>
      <trkpt lat="42.577908" lon="2.130187">
        <ele>1823.025</ele>
        <time>2019-05-29T10:13:26Z</time>
      </trkpt>
      <trkpt lat="42.577960" lon="2.130187">
        <ele>1822.408</ele>
        <time>2019-05-29T10:13:27Z</time>
      </trkpt>
      <trkpt lat="42.578215" lon="2.130253">
        <ele>1823.012</ele>
        <time>2019-05-29T10:13:32Z</time>
      </trkpt>
      <trkpt lat="42.578270" lon="2.130260">
        <ele>1823.096</ele>
        <time>2019-05-29T10:13:33Z</time>
      </trkpt>
      <trkpt lat="42.578432" lon="2.130280">
        <ele>1823.072</ele>
        <time>2019-05-29T10:13:36Z</time>
      </trkpt>
      <trkpt lat="42.578537" lon="2.130256">
        <ele>1822.820</ele>
        <time>2019-05-29T10:13:38Z</time>
      </trkpt>
      <trkpt lat="42.578632" lon="2.130204">
        <ele>1822.243</ele>
        <time>2019-05-29T10:13:40Z</time>
      </trkpt>
      <trkpt lat="42.578826" lon="2.130096">
        <ele>1821.213</ele>
        <time>2019-05-29T10:13:44Z</time>
      </trkpt>
      <trkpt lat="42.578915" lon="2.130029">
        <ele>1820.475</ele>
        <time>2019-05-29T10:13:46Z</time>
      </trkpt>
      <trkpt lat="42.578983" lon="2.129970">
        <ele>1820.640</ele>
        <time>2019-05-29T10:13:48Z</time>
      </trkpt>
      <trkpt lat="42.579055" lon="2.129905">
        <ele>1820.871</ele>
        <time>2019-05-29T10:13:51Z</time>
      </trkpt>
      <trkpt lat="42.579147" lon="2.129813">
        <ele>1820.841</ele>
        <time>2019-05-29T10:13:55Z</time>
      </trkpt>
      <trkpt lat="42.579265" lon="2.129726">
        <ele>1820.015</ele>
        <time>2019-05-29T10:13:59Z</time>
      </trkpt>
      <trkpt lat="42.579336" lon="2.129694">
        <ele>1819.608</ele>
        <time>2019-05-29T10:14:01Z</time>
      </trkpt>
      <trkpt lat="42.579537" lon="2.129670">
        <ele>1819.290</ele>
        <time>2019-05-29T10:14:06Z</time>
      </trkpt>
      <trkpt lat="42.579730" lon="2.129696">
        <ele>1818.844</ele>
        <time>2019-05-29T10:14:11Z</time>
      </trkpt>
      <trkpt lat="42.579767" lon="2.129715">
        <ele>1819.040</ele>
        <time>2019-05-29T10:14:12Z</time>
      </trkpt>
      <trkpt lat="42.580053" lon="2.129788">
        <ele>1818.888</ele>
        <time>2019-05-29T10:14:20Z</time>
      </trkpt>
      <trkpt lat="42.580082" lon="2.129800">
        <ele>1820.011</ele>
        <time>2019-05-29T10:14:21Z</time>
      </trkpt>
      <trkpt lat="42.580159" lon="2.129822">
        <ele>1821.031</ele>
        <time>2019-05-29T10:14:24Z</time>
      </trkpt>
      <trkpt lat="42.580259" lon="2.129838">
        <ele>1821.053</ele>
        <time>2019-05-29T10:14:28Z</time>
      </trkpt>
      <trkpt lat="42.580355" lon="2.129869">
        <ele>1822.078</ele>
        <time>2019-05-29T10:14:32Z</time>
      </trkpt>
      <trkpt lat="42.580379" lon="2.129878">
        <ele>1822.277</ele>
        <time>2019-05-29T10:14:33Z</time>
      </trkpt>
      <trkpt lat="42.580558" lon="2.129888">
        <ele>1822.461</ele>
        <time>2019-05-29T10:14:40Z</time>
      </trkpt>
      <trkpt lat="42.580738" lon="2.129920">
        <ele>1823.027</ele>
        <time>2019-05-29T10:14:47Z</time>
      </trkpt>
      <trkpt lat="42.580971" lon="2.130048">
        <ele>1823.408</ele>
        <time>2019-05-29T10:14:56Z</time>
      </trkpt>
      <trkpt lat="42.581062" lon="2.130096">
        <ele>1824.290</ele>
        <time>2019-05-29T10:15:00Z</time>
      </trkpt>
      <trkpt lat="42.581159" lon="2.130148">
        <ele>1823.494</ele>
        <time>2019-05-29T10:15:04Z</time>
      </trkpt>
      <trkpt lat="42.581328" lon="2.130266">
        <ele>1825.040</ele>
        <time>2019-05-29T10:15:12Z</time>
      </trkpt>
      <trkpt lat="42.581507" lon="2.130394">
        <ele>1825.078</ele>
        <time>2019-05-29T10:15:20Z</time>
      </trkpt>
      <trkpt lat="42.581527" lon="2.130410">
        <ele>1825.241</ele>
        <time>2019-05-29T10:15:21Z</time>
      </trkpt>
      <trkpt lat="42.581587" lon="2.130469">
        <ele>1826.231</ele>
        <time>2019-05-29T10:15:24Z</time>
      </trkpt>
      <trkpt lat="42.581655" lon="2.130534">
        <ele>1825.673</ele>
        <time>2019-05-29T10:15:27Z</time>
      </trkpt>
      <trkpt lat="42.581725" lon="2.130600">
        <ele>1825.248</ele>
        <time>2019-05-29T10:15:30Z</time>
      </trkpt>
      <trkpt lat="42.581824" lon="2.130662">
        <ele>1826.684</ele>
        <time>2019-05-29T10:15:34Z</time>
      </trkpt>
      <trkpt lat="42.581878" lon="2.130678">
        <ele>1826.807</ele>
        <time>2019-05-29T10:15:36Z</time>
      </trkpt>
      <trkpt lat="42.582042" lon="2.130759">
        <ele>1825.417</ele>
        <time>2019-05-29T10:15:42Z</time>
      </trkpt>
      <trkpt lat="42.582065" lon="2.130777">
        <ele>1825.408</ele>
        <time>2019-05-29T10:15:43Z</time>
      </trkpt>
      <trkpt lat="42.582247" lon="2.130923">
        <ele>1825.691</ele>
        <time>2019-05-29T10:15:50Z</time>
      </trkpt>
      <trkpt lat="42.582430" lon="2.131059">
        <ele>1824.835</ele>
        <time>2019-05-29T10:15:56Z</time>
      </trkpt>
      <trkpt lat="42.582595" lon="2.131184">
        <ele>1825.451</ele>
        <time>2019-05-29T10:16:02Z</time>
      </trkpt>
      <trkpt lat="42.582745" lon="2.131239">
        <ele>1825.619</ele>
        <time>2019-05-29T10:16:07Z</time>
      </trkpt>
      <trkpt lat="42.582916" lon="2.131277">
        <ele>1825.832</ele>
        <time>2019-05-29T10:16:13Z</time>
      </trkpt>
      <trkpt lat="42.583073" lon="2.131364">
        <ele>1825.282</ele>
        <time>2019-05-29T10:16:19Z</time>
      </trkpt>
      <trkpt lat="42.583288" lon="2.131497">
        <ele>1824.224</ele>
        <time>2019-05-29T10:16:25Z</time>
      </trkpt>
      <trkpt lat="42.583487" lon="2.131593">
        <ele>1824.019</ele>
        <time>2019-05-29T10:16:31Z</time>
      </trkpt>
      <trkpt lat="42.583557" lon="2.131667">
        <ele>1822.899</ele>
        <time>2019-05-29T10:16:34Z</time>
      </trkpt>
      <trkpt lat="42.583573" lon="2.131692">
        <ele>1821.807</ele>
        <time>2019-05-29T10:16:36Z</time>
      </trkpt>
      <trkpt lat="42.583617" lon="2.131739">
        <ele>1820.827</ele>
        <time>2019-05-29T10:20:32Z</time>
      </trkpt>
      <trkpt lat="42.583638" lon="2.131746">
        <ele>1820.808</ele>
        <time>2019-05-29T10:20:33Z</time>
      </trkpt>
      <trkpt lat="42.583660" lon="2.131754">
        <ele>1821.492</ele>
        <time>2019-05-29T10:20:34Z</time>
      </trkpt>
      <trkpt lat="42.583720" lon="2.131792">
        <ele>1818.646</ele>
        <time>2019-05-29T10:20:37Z</time>
      </trkpt>
      <trkpt lat="42.583775" lon="2.131814">
        <ele>1820.822</ele>
        <time>2019-05-29T10:20:39Z</time>
      </trkpt>
      <trkpt lat="42.583805" lon="2.131825">
        <ele>1820.860</ele>
        <time>2019-05-29T10:20:40Z</time>
      </trkpt>
      <trkpt lat="42.583880" lon="2.131836">
        <ele>1819.693</ele>
        <time>2019-05-29T10:20:42Z</time>
      </trkpt>
      <trkpt lat="42.583924" lon="2.131848">
        <ele>1819.423</ele>
        <time>2019-05-29T10:20:43Z</time>
      </trkpt>
      <trkpt lat="42.584016" lon="2.131864">
        <ele>1818.695</ele>
        <time>2019-05-29T10:20:45Z</time>
      </trkpt>
      <trkpt lat="42.584064" lon="2.131877">
        <ele>1818.260</ele>
        <time>2019-05-29T10:20:46Z</time>
      </trkpt>
      <trkpt lat="42.584318" lon="2.131967">
        <ele>1818.851</ele>
        <time>2019-05-29T10:20:52Z</time>
      </trkpt>
      <trkpt lat="42.584440" lon="2.132028">
        <ele>1818.601</ele>
        <time>2019-05-29T10:20:55Z</time>
      </trkpt>
      <trkpt lat="42.584527" lon="2.132084">
        <ele>1818.411</ele>
        <time>2019-05-29T10:20:57Z</time>
      </trkpt>
      <trkpt lat="42.584653" lon="2.132167">
        <ele>1818.608</ele>
        <time>2019-05-29T10:21:00Z</time>
      </trkpt>
      <trkpt lat="42.584775" lon="2.132254">
        <ele>1818.638</ele>
        <time>2019-05-29T10:21:03Z</time>
      </trkpt>
      <trkpt lat="42.585106" lon="2.132488">
        <ele>1817.852</ele>
        <time>2019-05-29T10:21:11Z</time>
      </trkpt>
      <trkpt lat="42.585185" lon="2.132558">
        <ele>1817.248</ele>
        <time>2019-05-29T10:21:13Z</time>
      </trkpt>
      <trkpt lat="42.585381" lon="2.132742">
        <ele>1816.446</ele>
        <time>2019-05-29T10:21:18Z</time>
      </trkpt>
      <trkpt lat="42.585420" lon="2.132775">
        <ele>1815.879</ele>
        <time>2019-05-29T10:21:19Z</time>
      </trkpt>
      <trkpt lat="42.585537" lon="2.132846">
        <ele>1817.299</ele>
        <time>2019-05-29T10:21:22Z</time>
      </trkpt>
      <trkpt lat="42.585577" lon="2.132860">
        <ele>1817.681</ele>
        <time>2019-05-29T10:21:23Z</time>
      </trkpt>
      <trkpt lat="42.585654" lon="2.132894">
        <ele>1817.246</ele>
        <time>2019-05-29T10:21:25Z</time>
      </trkpt>
      <trkpt lat="42.585783" lon="2.132943">
        <ele>1817.446</ele>
        <time>2019-05-29T10:21:28Z</time>
      </trkpt>
      <trkpt lat="42.586010" lon="2.132996">
        <ele>1815.888</ele>
        <time>2019-05-29T10:21:33Z</time>
      </trkpt>
      <trkpt lat="42.586100" lon="2.133012">
        <ele>1815.416</ele>
        <time>2019-05-29T10:21:35Z</time>
      </trkpt>
      <trkpt lat="42.586147" lon="2.133016">
        <ele>1815.008</ele>
        <time>2019-05-29T10:21:36Z</time>
      </trkpt>
      <trkpt lat="42.586196" lon="2.133021">
        <ele>1814.477</ele>
        <time>2019-05-29T10:21:37Z</time>
      </trkpt>
      <trkpt lat="42.586304" lon="2.133042">
        <ele>1813.481</ele>
        <time>2019-05-29T10:21:39Z</time>
      </trkpt>
      <trkpt lat="42.586417" lon="2.133081">
        <ele>1812.697</ele>
        <time>2019-05-29T10:21:41Z</time>
      </trkpt>
      <trkpt lat="42.586473" lon="2.133104">
        <ele>1811.665</ele>
        <time>2019-05-29T10:21:42Z</time>
      </trkpt>
      <trkpt lat="42.586691" lon="2.133198">
        <ele>1811.428</ele>
        <time>2019-05-29T10:21:46Z</time>
      </trkpt>
      <trkpt lat="42.586737" lon="2.133228">
        <ele>1811.218</ele>
        <time>2019-05-29T10:21:47Z</time>
      </trkpt>
      <trkpt lat="42.586782" lon="2.133253">
        <ele>1811.490</ele>
        <time>2019-05-29T10:21:48Z</time>
      </trkpt>
      <trkpt lat="42.586973" lon="2.133318">
        <ele>1811.835</ele>
        <time>2019-05-29T10:21:52Z</time>
      </trkpt>
      <trkpt lat="42.587018" lon="2.133341">
        <ele>1811.875</ele>
        <time>2019-05-29T10:21:53Z</time>
      </trkpt>
      <trkpt lat="42.587238" lon="2.133484">
        <ele>1812.028</ele>
        <time>2019-05-29T10:21:58Z</time>
      </trkpt>
      <trkpt lat="42.587370" lon="2.133626">
        <ele>1811.420</ele>
        <time>2019-05-29T10:22:01Z</time>
      </trkpt>
      <trkpt lat="42.587455" lon="2.133735">
        <ele>1810.808</ele>
        <time>2019-05-29T10:22:03Z</time>
      </trkpt>
      <trkpt lat="42.587499" lon="2.133785">
        <ele>1810.660</ele>
        <time>2019-05-29T10:22:04Z</time>
      </trkpt>
      <trkpt lat="42.587546" lon="2.133825">
        <ele>1810.294</ele>
        <time>2019-05-29T10:22:05Z</time>
      </trkpt>
      <trkpt lat="42.587642" lon="2.133875">
        <ele>1810.230</ele>
        <time>2019-05-29T10:22:07Z</time>
      </trkpt>
      <trkpt lat="42.587732" lon="2.133912">
        <ele>1809.458</ele>
        <time>2019-05-29T10:22:09Z</time>
      </trkpt>
      <trkpt lat="42.587854" lon="2.134007">
        <ele>1810.611</ele>
        <time>2019-05-29T10:22:12Z</time>
      </trkpt>
      <trkpt lat="42.587983" lon="2.134098">
        <ele>1809.611</ele>
        <time>2019-05-29T10:22:15Z</time>
      </trkpt>
      <trkpt lat="42.588105" lon="2.134199">
        <ele>1810.613</ele>
        <time>2019-05-29T10:22:18Z</time>
      </trkpt>
      <trkpt lat="42.588214" lon="2.134333">
        <ele>1810.678</ele>
        <time>2019-05-29T10:22:21Z</time>
      </trkpt>
      <trkpt lat="42.588246" lon="2.134386">
        <ele>1810.867</ele>
        <time>2019-05-29T10:22:22Z</time>
      </trkpt>
      <trkpt lat="42.588313" lon="2.134482">
        <ele>1811.081</ele>
        <time>2019-05-29T10:22:24Z</time>
      </trkpt>
      <trkpt lat="42.588493" lon="2.134561">
        <ele>1811.019</ele>
        <time>2019-05-29T10:22:28Z</time>
      </trkpt>
      <trkpt lat="42.588540" lon="2.134569">
        <ele>1811.008</ele>
        <time>2019-05-29T10:22:29Z</time>
      </trkpt>
      <trkpt lat="42.588731" lon="2.134606">
        <ele>1809.699</ele>
        <time>2019-05-29T10:22:33Z</time>
      </trkpt>
      <trkpt lat="42.588816" lon="2.134650">
        <ele>1809.233</ele>
        <time>2019-05-29T10:22:35Z</time>
      </trkpt>
      <trkpt lat="42.589009" lon="2.134800">
        <ele>1809.889</ele>
        <time>2019-05-29T10:22:40Z</time>
      </trkpt>
      <trkpt lat="42.589042" lon="2.134838">
        <ele>1810.217</ele>
        <time>2019-05-29T10:22:41Z</time>
      </trkpt>
      <trkpt lat="42.589259" lon="2.135083">
        <ele>1809.820</ele>
        <time>2019-05-29T10:22:47Z</time>
      </trkpt>
      <trkpt lat="42.589390" lon="2.135248">
        <ele>1810.230</ele>
        <time>2019-05-29T10:22:51Z</time>
      </trkpt>
      <trkpt lat="42.589457" lon="2.135321">
        <ele>1810.242</ele>
        <time>2019-05-29T10:22:53Z</time>
      </trkpt>
      <trkpt lat="42.589522" lon="2.135394">
        <ele>1810.077</ele>
        <time>2019-05-29T10:22:55Z</time>
      </trkpt>
      <trkpt lat="42.589619" lon="2.135511">
        <ele>1809.424</ele>
        <time>2019-05-29T10:22:58Z</time>
      </trkpt>
      <trkpt lat="42.589824" lon="2.135862">
        <ele>1809.604</ele>
        <time>2019-05-29T10:23:06Z</time>
      </trkpt>
      <trkpt lat="42.589965" lon="2.136123">
        <ele>1809.414</ele>
        <time>2019-05-29T10:23:12Z</time>
      </trkpt>
      <trkpt lat="42.590024" lon="2.136207">
        <ele>1809.008</ele>
        <time>2019-05-29T10:23:14Z</time>
      </trkpt>
      <trkpt lat="42.590126" lon="2.136337">
        <ele>1808.695</ele>
        <time>2019-05-29T10:23:17Z</time>
      </trkpt>
      <trkpt lat="42.590202" lon="2.136421">
        <ele>1808.489</ele>
        <time>2019-05-29T10:23:19Z</time>
      </trkpt>
      <trkpt lat="42.590325" lon="2.136552">
        <ele>1808.095</ele>
        <time>2019-05-29T10:23:22Z</time>
      </trkpt>
      <trkpt lat="42.590365" lon="2.136596">
        <ele>1807.673</ele>
        <time>2019-05-29T10:23:23Z</time>
      </trkpt>
      <trkpt lat="42.590545" lon="2.136749">
        <ele>1806.646</ele>
        <time>2019-05-29T10:23:27Z</time>
      </trkpt>
      <trkpt lat="42.590594" lon="2.136789">
        <ele>1806.436</ele>
        <time>2019-05-29T10:23:28Z</time>
      </trkpt>
      <trkpt lat="42.590698" lon="2.136868">
        <ele>1805.838</ele>
        <time>2019-05-29T10:23:30Z</time>
      </trkpt>
      <trkpt lat="42.590748" lon="2.136911">
        <ele>1805.283</ele>
        <time>2019-05-29T10:23:31Z</time>
      </trkpt>
      <trkpt lat="42.590856" lon="2.136993">
        <ele>1804.251</ele>
        <time>2019-05-29T10:23:33Z</time>
      </trkpt>
      <trkpt lat="42.590914" lon="2.137036">
        <ele>1804.001</ele>
        <time>2019-05-29T10:23:34Z</time>
      </trkpt>
      <trkpt lat="42.591094" lon="2.137192">
        <ele>1802.211</ele>
        <time>2019-05-29T10:23:37Z</time>
      </trkpt>
      <trkpt lat="42.591158" lon="2.137246">
        <ele>1801.008</ele>
        <time>2019-05-29T10:23:38Z</time>
      </trkpt>
      <trkpt lat="42.591295" lon="2.137336">
        <ele>1800.028</ele>
        <time>2019-05-29T10:23:40Z</time>
      </trkpt>
      <trkpt lat="42.591427" lon="2.137448">
        <ele>1799.682</ele>
        <time>2019-05-29T10:23:42Z</time>
      </trkpt>
      <trkpt lat="42.591608" lon="2.137630">
        <ele>1798.868</ele>
        <time>2019-05-29T10:23:45Z</time>
      </trkpt>
      <trkpt lat="42.591777" lon="2.137790">
        <ele>1797.476</ele>
        <time>2019-05-29T10:23:48Z</time>
      </trkpt>
      <trkpt lat="42.592018" lon="2.137980">
        <ele>1797.439</ele>
        <time>2019-05-29T10:23:52Z</time>
      </trkpt>
      <trkpt lat="42.592124" lon="2.138106">
        <ele>1795.849</ele>
        <time>2019-05-29T10:23:54Z</time>
      </trkpt>
      <trkpt lat="42.592261" lon="2.138292">
        <ele>1794.631</ele>
        <time>2019-05-29T10:23:57Z</time>
      </trkpt>
      <trkpt lat="42.592392" lon="2.138467">
        <ele>1794.016</ele>
        <time>2019-05-29T10:24:00Z</time>
      </trkpt>
      <trkpt lat="42.592613" lon="2.138741">
        <ele>1793.695</ele>
        <time>2019-05-29T10:24:05Z</time>
      </trkpt>
      <trkpt lat="42.592692" lon="2.138861">
        <ele>1792.049</ele>
        <time>2019-05-29T10:24:07Z</time>
      </trkpt>
      <trkpt lat="42.592870" lon="2.139104">
        <ele>1790.823</ele>
        <time>2019-05-29T10:24:11Z</time>
      </trkpt>
      <trkpt lat="42.592913" lon="2.139172">
        <ele>1790.208</ele>
        <time>2019-05-29T10:24:12Z</time>
      </trkpt>
      <trkpt lat="42.592993" lon="2.139319">
        <ele>1789.642</ele>
        <time>2019-05-29T10:24:14Z</time>
      </trkpt>
      <trkpt lat="42.593073" lon="2.139468">
        <ele>1789.066</ele>
        <time>2019-05-29T10:24:16Z</time>
      </trkpt>
      <trkpt lat="42.593117" lon="2.139538">
        <ele>1788.842</ele>
        <time>2019-05-29T10:24:17Z</time>
      </trkpt>
      <trkpt lat="42.593282" lon="2.139713">
        <ele>1789.020</ele>
        <time>2019-05-29T10:24:20Z</time>
      </trkpt>
      <trkpt lat="42.593409" lon="2.139801">
        <ele>1788.623</ele>
        <time>2019-05-29T10:24:22Z</time>
      </trkpt>
      <trkpt lat="42.593479" lon="2.139833">
        <ele>1788.653</ele>
        <time>2019-05-29T10:24:23Z</time>
      </trkpt>
      <trkpt lat="42.593624" lon="2.139893">
        <ele>1788.035</ele>
        <time>2019-05-29T10:24:25Z</time>
      </trkpt>
      <trkpt lat="42.593695" lon="2.139914">
        <ele>1787.630</ele>
        <time>2019-05-29T10:24:26Z</time>
      </trkpt>
      <trkpt lat="42.593826" lon="2.139941">
        <ele>1786.037</ele>
        <time>2019-05-29T10:24:28Z</time>
      </trkpt>
      <trkpt lat="42.593887" lon="2.139959">
        <ele>1786.049</ele>
        <time>2019-05-29T10:24:29Z</time>
      </trkpt>
      <trkpt lat="42.594053" lon="2.140042">
        <ele>1787.013</ele>
        <time>2019-05-29T10:24:32Z</time>
      </trkpt>
      <trkpt lat="42.594154" lon="2.140082">
        <ele>1788.208</ele>
        <time>2019-05-29T10:24:34Z</time>
      </trkpt>
      <trkpt lat="42.594293" lon="2.140138">
        <ele>1789.616</ele>
        <time>2019-05-29T10:24:37Z</time>
      </trkpt>
      <trkpt lat="42.594378" lon="2.140163">
        <ele>1790.620</ele>
        <time>2019-05-29T10:24:39Z</time>
      </trkpt>
      <trkpt lat="42.594450" lon="2.140185">
        <ele>1791.436</ele>
        <time>2019-05-29T10:24:41Z</time>
      </trkpt>
      <trkpt lat="42.594479" lon="2.140192">
        <ele>1791.884</ele>
        <time>2019-05-29T10:24:42Z</time>
      </trkpt>
      <trkpt lat="42.594587" lon="2.140217">
        <ele>1792.677</ele>
        <time>2019-05-29T10:24:47Z</time>
      </trkpt>
      <trkpt lat="42.594609" lon="2.140217">
        <ele>1792.867</ele>
        <time>2019-05-29T10:24:49Z</time>
      </trkpt>
      <trkpt lat="42.594664" lon="2.140221">
        <ele>1794.099</ele>
        <time>2019-05-29T10:24:53Z</time>
      </trkpt>
      <trkpt lat="42.594712" lon="2.140222">
        <ele>1794.224</ele>
        <time>2019-05-29T10:24:56Z</time>
      </trkpt>
      <trkpt lat="42.594762" lon="2.140225">
        <ele>1794.635</ele>
        <time>2019-05-29T10:24:59Z</time>
      </trkpt>
      <trkpt lat="42.594833" lon="2.140214">
        <ele>1795.086</ele>
        <time>2019-05-29T10:25:04Z</time>
      </trkpt>
      <trkpt lat="42.594857" lon="2.140206">
        <ele>1795.414</ele>
        <time>2019-05-29T10:25:06Z</time>
      </trkpt>
      <trkpt lat="42.594957" lon="2.140168">
        <ele>1795.808</ele>
        <time>2019-05-29T10:25:11Z</time>
      </trkpt>
      <trkpt lat="42.595010" lon="2.140136">
        <ele>1796.236</ele>
        <time>2019-05-29T10:25:14Z</time>
      </trkpt>
      <trkpt lat="42.595058" lon="2.140092">
        <ele>1797.080</ele>
        <time>2019-05-29T10:25:17Z</time>
      </trkpt>
      <trkpt lat="42.595090" lon="2.140051">
        <ele>1797.466</ele>
        <time>2019-05-29T10:25:19Z</time>
      </trkpt>
      <trkpt lat="42.595168" lon="2.139945">
        <ele>1797.644</ele>
        <time>2019-05-29T10:25:24Z</time>
      </trkpt>
      <trkpt lat="42.595222" lon="2.139806">
        <ele>1796.027</ele>
        <time>2019-05-29T10:25:29Z</time>
      </trkpt>
      <trkpt lat="42.595239" lon="2.139776">
        <ele>1795.697</ele>
        <time>2019-05-29T10:25:30Z</time>
      </trkpt>
      <trkpt lat="42.595319" lon="2.139614">
        <ele>1795.499</ele>
        <time>2019-05-29T10:25:35Z</time>
      </trkpt>
      <trkpt lat="42.595471" lon="2.139421">
        <ele>1795.664</ele>
        <time>2019-05-29T10:25:41Z</time>
      </trkpt>
      <trkpt lat="42.595564" lon="2.139332">
        <ele>1794.685</ele>
        <time>2019-05-29T10:25:44Z</time>
      </trkpt>
      <trkpt lat="42.595595" lon="2.139295">
        <ele>1793.889</ele>
        <time>2019-05-29T10:25:45Z</time>
      </trkpt>
      <trkpt lat="42.595623" lon="2.139253">
        <ele>1792.817</ele>
        <time>2019-05-29T10:25:46Z</time>
      </trkpt>
      <trkpt lat="42.595682" lon="2.139163">
        <ele>1791.808</ele>
        <time>2019-05-29T10:25:48Z</time>
      </trkpt>
      <trkpt lat="42.595775" lon="2.139028">
        <ele>1790.671</ele>
        <time>2019-05-29T10:25:51Z</time>
      </trkpt>
      <trkpt lat="42.595899" lon="2.138916">
        <ele>1789.225</ele>
        <time>2019-05-29T10:25:54Z</time>
      </trkpt>
      <trkpt lat="42.595997" lon="2.138874">
        <ele>1788.471</ele>
        <time>2019-05-29T10:25:56Z</time>
      </trkpt>
      <trkpt lat="42.596044" lon="2.138862">
        <ele>1788.089</ele>
        <time>2019-05-29T10:25:57Z</time>
      </trkpt>
      <trkpt lat="42.596231" lon="2.138856">
        <ele>1787.242</ele>
        <time>2019-05-29T10:26:01Z</time>
      </trkpt>
      <trkpt lat="42.596274" lon="2.138852">
        <ele>1786.472</ele>
        <time>2019-05-29T10:26:02Z</time>
      </trkpt>
      <trkpt lat="42.596317" lon="2.138847">
        <ele>1785.264</ele>
        <time>2019-05-29T10:26:03Z</time>
      </trkpt>
      <trkpt lat="42.596364" lon="2.138847">
        <ele>1784.639</ele>
        <time>2019-05-29T10:26:04Z</time>
      </trkpt>
      <trkpt lat="42.596413" lon="2.138847">
        <ele>1784.026</ele>
        <time>2019-05-29T10:26:05Z</time>
      </trkpt>
      <trkpt lat="42.596508" lon="2.138829">
        <ele>1784.447</ele>
        <time>2019-05-29T10:26:07Z</time>
      </trkpt>
      <trkpt lat="42.596653" lon="2.138792">
        <ele>1783.011</ele>
        <time>2019-05-29T10:26:10Z</time>
      </trkpt>
      <trkpt lat="42.596755" lon="2.138770">
        <ele>1781.608</ele>
        <time>2019-05-29T10:26:12Z</time>
      </trkpt>
      <trkpt lat="42.596807" lon="2.138746">
        <ele>1781.285</ele>
        <time>2019-05-29T10:26:13Z</time>
      </trkpt>
      <trkpt lat="42.596858" lon="2.138721">
        <ele>1780.659</ele>
        <time>2019-05-29T10:26:14Z</time>
      </trkpt>
      <trkpt lat="42.596906" lon="2.138701">
        <ele>1780.085</ele>
        <time>2019-05-29T10:26:15Z</time>
      </trkpt>
      <trkpt lat="42.596956" lon="2.138690">
        <ele>1779.423</ele>
        <time>2019-05-29T10:26:16Z</time>
      </trkpt>
      <trkpt lat="42.597003" lon="2.138686">
        <ele>1778.696</ele>
        <time>2019-05-29T10:26:17Z</time>
      </trkpt>
      <trkpt lat="42.597045" lon="2.138695">
        <ele>1777.836</ele>
        <time>2019-05-29T10:26:18Z</time>
      </trkpt>
      <trkpt lat="42.597101" lon="2.138766">
        <ele>1777.228</ele>
        <time>2019-05-29T10:26:20Z</time>
      </trkpt>
      <trkpt lat="42.597142" lon="2.138940">
        <ele>1776.863</ele>
        <time>2019-05-29T10:26:23Z</time>
      </trkpt>
      <trkpt lat="42.597158" lon="2.138995">
        <ele>1776.462</ele>
        <time>2019-05-29T10:26:24Z</time>
      </trkpt>
      <trkpt lat="42.597180" lon="2.139046">
        <ele>1776.283</ele>
        <time>2019-05-29T10:26:25Z</time>
      </trkpt>
      <trkpt lat="42.597236" lon="2.139106">
        <ele>1775.411</ele>
        <time>2019-05-29T10:26:27Z</time>
      </trkpt>
      <trkpt lat="42.597300" lon="2.139085">
        <ele>1774.208</ele>
        <time>2019-05-29T10:26:29Z</time>
      </trkpt>
      <trkpt lat="42.597324" lon="2.139044">
        <ele>1774.249</ele>
        <time>2019-05-29T10:26:30Z</time>
      </trkpt>
      <trkpt lat="42.597354" lon="2.138924">
        <ele>1773.073</ele>
        <time>2019-05-29T10:26:32Z</time>
      </trkpt>
      <trkpt lat="42.597392" lon="2.138795">
        <ele>1773.099</ele>
        <time>2019-05-29T10:26:34Z</time>
      </trkpt>
      <trkpt lat="42.597494" lon="2.138453">
        <ele>1772.057</ele>
        <time>2019-05-29T10:26:39Z</time>
      </trkpt>
      <trkpt lat="42.597526" lon="2.138317">
        <ele>1770.270</ele>
        <time>2019-05-29T10:26:41Z</time>
      </trkpt>
      <trkpt lat="42.597558" lon="2.138189">
        <ele>1768.650</ele>
        <time>2019-05-29T10:26:43Z</time>
      </trkpt>
      <trkpt lat="42.597570" lon="2.138128">
        <ele>1768.012</ele>
        <time>2019-05-29T10:26:44Z</time>
      </trkpt>
      <trkpt lat="42.597582" lon="2.138064">
        <ele>1767.677</ele>
        <time>2019-05-29T10:26:45Z</time>
      </trkpt>
      <trkpt lat="42.597601" lon="2.137939">
        <ele>1767.276</ele>
        <time>2019-05-29T10:26:47Z</time>
      </trkpt>
      <trkpt lat="42.597536" lon="2.137724">
        <ele>1768.090</ele>
        <time>2019-05-29T10:26:51Z</time>
      </trkpt>
      <trkpt lat="42.597446" lon="2.137559">
        <ele>1765.819</ele>
        <time>2019-05-29T10:26:54Z</time>
      </trkpt>
      <trkpt lat="42.597415" lon="2.137504">
        <ele>1765.008</ele>
        <time>2019-05-29T10:26:55Z</time>
      </trkpt>
      <trkpt lat="42.597389" lon="2.137442">
        <ele>1764.210</ele>
        <time>2019-05-29T10:26:56Z</time>
      </trkpt>
      <trkpt lat="42.597366" lon="2.137382">
        <ele>1763.624</ele>
        <time>2019-05-29T10:26:57Z</time>
      </trkpt>
      <trkpt lat="42.597341" lon="2.137321">
        <ele>1763.050</ele>
        <time>2019-05-29T10:26:58Z</time>
      </trkpt>
      <trkpt lat="42.597320" lon="2.137262">
        <ele>1762.438</ele>
        <time>2019-05-29T10:26:59Z</time>
      </trkpt>
      <trkpt lat="42.597300" lon="2.137205">
        <ele>1761.651</ele>
        <time>2019-05-29T10:27:00Z</time>
      </trkpt>
      <trkpt lat="42.597267" lon="2.137101">
        <ele>1760.441</ele>
        <time>2019-05-29T10:27:02Z</time>
      </trkpt>
      <trkpt lat="42.597265" lon="2.137050">
        <ele>1760.013</ele>
        <time>2019-05-29T10:27:03Z</time>
      </trkpt>
      <trkpt lat="42.597291" lon="2.136950">
        <ele>1759.018</ele>
        <time>2019-05-29T10:27:05Z</time>
      </trkpt>
      <trkpt lat="42.597349" lon="2.136874">
        <ele>1758.078</ele>
        <time>2019-05-29T10:27:07Z</time>
      </trkpt>
      <trkpt lat="42.597468" lon="2.136816">
        <ele>1756.833</ele>
        <time>2019-05-29T10:27:10Z</time>
      </trkpt>
      <trkpt lat="42.597511" lon="2.136812">
        <ele>1756.626</ele>
        <time>2019-05-29T10:27:11Z</time>
      </trkpt>
      <trkpt lat="42.597629" lon="2.136868">
        <ele>1755.608</ele>
        <time>2019-05-29T10:27:14Z</time>
      </trkpt>
      <trkpt lat="42.597665" lon="2.136900">
        <ele>1755.280</ele>
        <time>2019-05-29T10:27:15Z</time>
      </trkpt>
      <trkpt lat="42.597701" lon="2.136934">
        <ele>1754.614</ele>
        <time>2019-05-29T10:27:16Z</time>
      </trkpt>
      <trkpt lat="42.597771" lon="2.137005">
        <ele>1753.050</ele>
        <time>2019-05-29T10:27:18Z</time>
      </trkpt>
      <trkpt lat="42.597843" lon="2.137094">
        <ele>1751.238</ele>
        <time>2019-05-29T10:27:20Z</time>
      </trkpt>
      <trkpt lat="42.597879" lon="2.137140">
        <ele>1751.071</ele>
        <time>2019-05-29T10:27:21Z</time>
      </trkpt>
      <trkpt lat="42.597950" lon="2.137228">
        <ele>1750.611</ele>
        <time>2019-05-29T10:27:23Z</time>
      </trkpt>
      <trkpt lat="42.598117" lon="2.137388">
        <ele>1750.033</ele>
        <time>2019-05-29T10:27:27Z</time>
      </trkpt>
      <trkpt lat="42.598161" lon="2.137419">
        <ele>1749.698</ele>
        <time>2019-05-29T10:27:28Z</time>
      </trkpt>
      <trkpt lat="42.598301" lon="2.137497">
        <ele>1749.071</ele>
        <time>2019-05-29T10:27:31Z</time>
      </trkpt>
      <trkpt lat="42.598354" lon="2.137519">
        <ele>1748.241</ele>
        <time>2019-05-29T10:27:32Z</time>
      </trkpt>
      <trkpt lat="42.598409" lon="2.137541">
        <ele>1747.415</ele>
        <time>2019-05-29T10:27:33Z</time>
      </trkpt>
      <trkpt lat="42.598465" lon="2.137560">
        <ele>1745.008</ele>
        <time>2019-05-29T10:27:34Z</time>
      </trkpt>
      <trkpt lat="42.598687" lon="2.137630">
        <ele>1745.430</ele>
        <time>2019-05-29T10:27:38Z</time>
      </trkpt>
      <trkpt lat="42.598831" lon="2.137672">
        <ele>1744.024</ele>
        <time>2019-05-29T10:27:41Z</time>
      </trkpt>
      <trkpt lat="42.598921" lon="2.137658">
        <ele>1743.610</ele>
        <time>2019-05-29T10:27:43Z</time>
      </trkpt>
      <trkpt lat="42.599047" lon="2.137513">
        <ele>1743.068</ele>
        <time>2019-05-29T10:27:47Z</time>
      </trkpt>
      <trkpt lat="42.599075" lon="2.137404">
        <ele>1741.241</ele>
        <time>2019-05-29T10:27:49Z</time>
      </trkpt>
      <trkpt lat="42.599089" lon="2.137280">
        <ele>1740.011</ele>
        <time>2019-05-29T10:27:51Z</time>
      </trkpt>
      <trkpt lat="42.599088" lon="2.137219">
        <ele>1740.263</ele>
        <time>2019-05-29T10:27:52Z</time>
      </trkpt>
      <trkpt lat="42.599050" lon="2.137032">
        <ele>1739.238</ele>
        <time>2019-05-29T10:27:55Z</time>
      </trkpt>
      <trkpt lat="42.599033" lon="2.136975">
        <ele>1738.493</ele>
        <time>2019-05-29T10:27:56Z</time>
      </trkpt>
      <trkpt lat="42.599022" lon="2.136916">
        <ele>1737.665</ele>
        <time>2019-05-29T10:27:57Z</time>
      </trkpt>
      <trkpt lat="42.599008" lon="2.136856">
        <ele>1736.621</ele>
        <time>2019-05-29T10:27:58Z</time>
      </trkpt>
      <trkpt lat="42.599011" lon="2.136748">
        <ele>1735.208</ele>
        <time>2019-05-29T10:28:00Z</time>
      </trkpt>
      <trkpt lat="42.599106" lon="2.136677">
        <ele>1735.232</ele>
        <time>2019-05-29T10:28:03Z</time>
      </trkpt>
      <trkpt lat="42.599229" lon="2.136738">
        <ele>1735.626</ele>
        <time>2019-05-29T10:28:06Z</time>
      </trkpt>
      <trkpt lat="42.599267" lon="2.136769">
        <ele>1734.882</ele>
        <time>2019-05-29T10:28:07Z</time>
      </trkpt>
      <trkpt lat="42.599337" lon="2.136832">
        <ele>1733.810</ele>
        <time>2019-05-29T10:28:09Z</time>
      </trkpt>
      <trkpt lat="42.599430" lon="2.136965">
        <ele>1734.433</ele>
        <time>2019-05-29T10:28:12Z</time>
      </trkpt>
      <trkpt lat="42.599457" lon="2.137017">
        <ele>1734.283</ele>
        <time>2019-05-29T10:28:13Z</time>
      </trkpt>
      <trkpt lat="42.599534" lon="2.137180">
        <ele>1732.625</ele>
        <time>2019-05-29T10:28:16Z</time>
      </trkpt>
      <trkpt lat="42.599553" lon="2.137238">
        <ele>1732.410</ele>
        <time>2019-05-29T10:28:17Z</time>
      </trkpt>
      <trkpt lat="42.599593" lon="2.137358">
        <ele>1732.036</ele>
        <time>2019-05-29T10:28:19Z</time>
      </trkpt>
      <trkpt lat="42.599611" lon="2.137418">
        <ele>1731.417</ele>
        <time>2019-05-29T10:28:20Z</time>
      </trkpt>
      <trkpt lat="42.599652" lon="2.137537">
        <ele>1729.618</ele>
        <time>2019-05-29T10:28:22Z</time>
      </trkpt>
      <trkpt lat="42.599671" lon="2.137602">
        <ele>1729.008</ele>
        <time>2019-05-29T10:28:23Z</time>
      </trkpt>
      <trkpt lat="42.599687" lon="2.137671">
        <ele>1728.486</ele>
        <time>2019-05-29T10:28:24Z</time>
      </trkpt>
      <trkpt lat="42.599708" lon="2.137815">
        <ele>1727.470</ele>
        <time>2019-05-29T10:28:26Z</time>
      </trkpt>
      <trkpt lat="42.599714" lon="2.137889">
        <ele>1727.036</ele>
        <time>2019-05-29T10:28:27Z</time>
      </trkpt>
      <trkpt lat="42.599712" lon="2.138034">
        <ele>1726.224</ele>
        <time>2019-05-29T10:28:29Z</time>
      </trkpt>
      <trkpt lat="42.599673" lon="2.138249">
        <ele>1724.857</ele>
        <time>2019-05-29T10:28:32Z</time>
      </trkpt>
      <trkpt lat="42.599602" lon="2.138462">
        <ele>1723.637</ele>
        <time>2019-05-29T10:28:35Z</time>
      </trkpt>
      <trkpt lat="42.599548" lon="2.138600">
        <ele>1722.459</ele>
        <time>2019-05-29T10:28:37Z</time>
      </trkpt>
      <trkpt lat="42.599523" lon="2.138671">
        <ele>1721.644</ele>
        <time>2019-05-29T10:28:38Z</time>
      </trkpt>
      <trkpt lat="42.599495" lon="2.138742">
        <ele>1720.839</ele>
        <time>2019-05-29T10:28:39Z</time>
      </trkpt>
      <trkpt lat="42.599469" lon="2.138812">
        <ele>1719.801</ele>
        <time>2019-05-29T10:28:40Z</time>
      </trkpt>
      <trkpt lat="42.599421" lon="2.138948">
        <ele>1718.021</ele>
        <time>2019-05-29T10:28:42Z</time>
      </trkpt>
      <trkpt lat="42.599383" lon="2.139088">
        <ele>1716.608</ele>
        <time>2019-05-29T10:28:44Z</time>
      </trkpt>
      <trkpt lat="42.599355" lon="2.139232">
        <ele>1714.416</ele>
        <time>2019-05-29T10:28:46Z</time>
      </trkpt>
      <trkpt lat="42.599329" lon="2.139371">
        <ele>1713.450</ele>
        <time>2019-05-29T10:28:48Z</time>
      </trkpt>
      <trkpt lat="42.599292" lon="2.139568">
        <ele>1713.426</ele>
        <time>2019-05-29T10:28:51Z</time>
      </trkpt>
      <trkpt lat="42.599253" lon="2.139692">
        <ele>1712.444</ele>
        <time>2019-05-29T10:28:53Z</time>
      </trkpt>
      <trkpt lat="42.599234" lon="2.139752">
        <ele>1711.897</ele>
        <time>2019-05-29T10:28:54Z</time>
      </trkpt>
      <trkpt lat="42.599192" lon="2.139870">
        <ele>1710.417</ele>
        <time>2019-05-29T10:28:56Z</time>
      </trkpt>
      <trkpt lat="42.599177" lon="2.139930">
        <ele>1709.899</ele>
        <time>2019-05-29T10:28:57Z</time>
      </trkpt>
      <trkpt lat="42.599165" lon="2.139989">
        <ele>1709.454</ele>
        <time>2019-05-29T10:28:58Z</time>
      </trkpt>
      <trkpt lat="42.599201" lon="2.140116">
        <ele>1709.284</ele>
        <time>2019-05-29T10:29:01Z</time>
      </trkpt>
      <trkpt lat="42.599312" lon="2.140136">
        <ele>1708.807</ele>
        <time>2019-05-29T10:29:04Z</time>
      </trkpt>
      <trkpt lat="42.599380" lon="2.140058">
        <ele>1707.617</ele>
        <time>2019-05-29T10:29:06Z</time>
      </trkpt>
      <trkpt lat="42.599397" lon="2.140000">
        <ele>1707.008</ele>
        <time>2019-05-29T10:29:07Z</time>
      </trkpt>
      <trkpt lat="42.599418" lon="2.139942">
        <ele>1706.031</ele>
        <time>2019-05-29T10:29:08Z</time>
      </trkpt>
      <trkpt lat="42.599483" lon="2.139847">
        <ele>1705.215</ele>
        <time>2019-05-29T10:29:10Z</time>
      </trkpt>
      <trkpt lat="42.599522" lon="2.139805">
        <ele>1705.471</ele>
        <time>2019-05-29T10:29:11Z</time>
      </trkpt>
      <trkpt lat="42.599598" lon="2.139732">
        <ele>1704.859</ele>
        <time>2019-05-29T10:29:13Z</time>
      </trkpt>
      <trkpt lat="42.599683" lon="2.139654">
        <ele>1703.432</ele>
        <time>2019-05-29T10:29:15Z</time>
      </trkpt>
      <trkpt lat="42.599769" lon="2.139573">
        <ele>1702.292</ele>
        <time>2019-05-29T10:29:17Z</time>
      </trkpt>
      <trkpt lat="42.599944" lon="2.139443">
        <ele>1701.234</ele>
        <time>2019-05-29T10:29:21Z</time>
      </trkpt>
      <trkpt lat="42.599995" lon="2.139416">
        <ele>1701.089</ele>
        <time>2019-05-29T10:29:22Z</time>
      </trkpt>
      <trkpt lat="42.600044" lon="2.139394">
        <ele>1700.631</ele>
        <time>2019-05-29T10:29:23Z</time>
      </trkpt>
      <trkpt lat="42.600141" lon="2.139347">
        <ele>1699.661</ele>
        <time>2019-05-29T10:29:25Z</time>
      </trkpt>
      <trkpt lat="42.600239" lon="2.139290">
        <ele>1699.007</ele>
        <time>2019-05-29T10:29:27Z</time>
      </trkpt>
      <trkpt lat="42.600517" lon="2.139119">
        <ele>1698.208</ele>
        <time>2019-05-29T10:29:33Z</time>
      </trkpt>
      <trkpt lat="42.600569" lon="2.139096">
        <ele>1697.066</ele>
        <time>2019-05-29T10:29:34Z</time>
      </trkpt>
      <trkpt lat="42.600675" lon="2.139053">
        <ele>1695.840</ele>
        <time>2019-05-29T10:29:36Z</time>
      </trkpt>
      <trkpt lat="42.600731" lon="2.139039">
        <ele>1694.846</ele>
        <time>2019-05-29T10:29:37Z</time>
      </trkpt>
      <trkpt lat="42.600785" lon="2.139020">
        <ele>1693.874</ele>
        <time>2019-05-29T10:29:38Z</time>
      </trkpt>
      <trkpt lat="42.600839" lon="2.138997">
        <ele>1693.447</ele>
        <time>2019-05-29T10:29:39Z</time>
      </trkpt>
      <trkpt lat="42.601092" lon="2.138851">
        <ele>1694.427</ele>
        <time>2019-05-29T10:29:44Z</time>
      </trkpt>
      <trkpt lat="42.601136" lon="2.138813">
        <ele>1694.659</ele>
        <time>2019-05-29T10:29:45Z</time>
      </trkpt>
      <trkpt lat="42.601344" lon="2.138625">
        <ele>1694.844</ele>
        <time>2019-05-29T10:29:50Z</time>
      </trkpt>
      <trkpt lat="42.601490" lon="2.138561">
        <ele>1695.896</ele>
        <time>2019-05-29T10:29:53Z</time>
      </trkpt>
      <trkpt lat="42.601593" lon="2.138520">
        <ele>1695.831</ele>
        <time>2019-05-29T10:29:55Z</time>
      </trkpt>
      <trkpt lat="42.601727" lon="2.138447">
        <ele>1695.824</ele>
        <time>2019-05-29T10:29:58Z</time>
      </trkpt>
      <trkpt lat="42.601814" lon="2.138400">
        <ele>1695.008</ele>
        <time>2019-05-29T10:30:00Z</time>
      </trkpt>
      <trkpt lat="42.601897" lon="2.138340">
        <ele>1694.652</ele>
        <time>2019-05-29T10:30:02Z</time>
      </trkpt>
      <trkpt lat="42.602018" lon="2.138259">
        <ele>1695.426</ele>
        <time>2019-05-29T10:30:05Z</time>
      </trkpt>
      <trkpt lat="42.602056" lon="2.138231">
        <ele>1695.892</ele>
        <time>2019-05-29T10:30:06Z</time>
      </trkpt>
      <trkpt lat="42.602207" lon="2.138135">
        <ele>1695.420</ele>
        <time>2019-05-29T10:30:10Z</time>
      </trkpt>
      <trkpt lat="42.602282" lon="2.138105">
        <ele>1695.443</ele>
        <time>2019-05-29T10:30:12Z</time>
      </trkpt>
      <trkpt lat="42.602360" lon="2.138076">
        <ele>1694.643</ele>
        <time>2019-05-29T10:30:14Z</time>
      </trkpt>
      <trkpt lat="42.602450" lon="2.138058">
        <ele>1694.045</ele>
        <time>2019-05-29T10:30:18Z</time>
      </trkpt>
      <trkpt lat="42.602445" lon="2.138107">
        <ele>1695.880</ele>
        <time>2019-05-29T10:30:22Z</time>
      </trkpt>
      <trkpt lat="42.602496" lon="2.138102">
        <ele>1697.226</ele>
        <time>2019-05-29T10:31:06Z</time>
      </trkpt>
      <trkpt lat="42.602576" lon="2.138040">
        <ele>1696.447</ele>
        <time>2019-05-29T10:31:10Z</time>
      </trkpt>
      <trkpt lat="42.602601" lon="2.138029">
        <ele>1696.011</ele>
        <time>2019-05-29T10:31:11Z</time>
      </trkpt>
      <trkpt lat="42.602705" lon="2.137993">
        <ele>1695.008</ele>
        <time>2019-05-29T10:31:15Z</time>
      </trkpt>
      <trkpt lat="42.602748" lon="2.137952">
        <ele>1694.215</ele>
        <time>2019-05-29T10:31:17Z</time>
      </trkpt>
      <trkpt lat="42.602778" lon="2.137809">
        <ele>1696.029</ele>
        <time>2019-05-29T10:31:21Z</time>
      </trkpt>
      <trkpt lat="42.602789" lon="2.137700">
        <ele>1694.895</ele>
        <time>2019-05-29T10:31:23Z</time>
      </trkpt>
      <trkpt lat="42.602795" lon="2.137644">
        <ele>1693.283</ele>
        <time>2019-05-29T10:31:24Z</time>
      </trkpt>
      <trkpt lat="42.602800" lon="2.137584">
        <ele>1691.876</ele>
        <time>2019-05-29T10:31:25Z</time>
      </trkpt>
      <trkpt lat="42.602809" lon="2.137522">
        <ele>1691.076</ele>
        <time>2019-05-29T10:31:26Z</time>
      </trkpt>
      <trkpt lat="42.602840" lon="2.137319">
        <ele>1691.048</ele>
        <time>2019-05-29T10:31:29Z</time>
      </trkpt>
      <trkpt lat="42.602862" lon="2.137176">
        <ele>1690.263</ele>
        <time>2019-05-29T10:31:31Z</time>
      </trkpt>
      <trkpt lat="42.602876" lon="2.137107">
        <ele>1688.862</ele>
        <time>2019-05-29T10:31:32Z</time>
      </trkpt>
      <trkpt lat="42.602894" lon="2.137036">
        <ele>1687.483</ele>
        <time>2019-05-29T10:31:33Z</time>
      </trkpt>
      <trkpt lat="42.602916" lon="2.136963">
        <ele>1686.011</ele>
        <time>2019-05-29T10:31:34Z</time>
      </trkpt>
      <trkpt lat="42.602971" lon="2.136808">
        <ele>1686.008</ele>
        <time>2019-05-29T10:31:36Z</time>
      </trkpt>
      <trkpt lat="42.603040" lon="2.136657">
        <ele>1683.849</ele>
        <time>2019-05-29T10:31:38Z</time>
      </trkpt>
      <trkpt lat="42.603152" lon="2.136416">
        <ele>1682.263</ele>
        <time>2019-05-29T10:31:41Z</time>
      </trkpt>
      <trkpt lat="42.603190" lon="2.136335">
        <ele>1680.879</ele>
        <time>2019-05-29T10:31:42Z</time>
      </trkpt>
      <trkpt lat="42.603360" lon="2.135928">
        <ele>1679.267</ele>
        <time>2019-05-29T10:31:47Z</time>
      </trkpt>
      <trkpt lat="42.603377" lon="2.135838">
        <ele>1679.020</ele>
        <time>2019-05-29T10:31:48Z</time>
      </trkpt>
      <trkpt lat="42.603389" lon="2.135564">
        <ele>1677.820</ele>
        <time>2019-05-29T10:31:51Z</time>
      </trkpt>
      <trkpt lat="42.603395" lon="2.135480">
        <ele>1676.442</ele>
        <time>2019-05-29T10:31:52Z</time>
      </trkpt>
      <trkpt lat="42.603413" lon="2.135395">
        <ele>1675.077</ele>
        <time>2019-05-29T10:31:53Z</time>
      </trkpt>
      <trkpt lat="42.603481" lon="2.135244">
        <ele>1674.819</ele>
        <time>2019-05-29T10:31:55Z</time>
      </trkpt>
      <trkpt lat="42.603569" lon="2.135127">
        <ele>1673.809</ele>
        <time>2019-05-29T10:31:57Z</time>
      </trkpt>
      <trkpt lat="42.603609" lon="2.135062">
        <ele>1674.419</ele>
        <time>2019-05-29T10:31:58Z</time>
      </trkpt>
      <trkpt lat="42.603635" lon="2.134990">
        <ele>1674.808</ele>
        <time>2019-05-29T10:31:59Z</time>
      </trkpt>
      <trkpt lat="42.603623" lon="2.134836">
        <ele>1674.214</ele>
        <time>2019-05-29T10:32:01Z</time>
      </trkpt>
      <trkpt lat="42.603593" lon="2.134766">
        <ele>1673.278</ele>
        <time>2019-05-29T10:32:02Z</time>
      </trkpt>
      <trkpt lat="42.603497" lon="2.134644">
        <ele>1672.074</ele>
        <time>2019-05-29T10:32:04Z</time>
      </trkpt>
      <trkpt lat="42.603390" lon="2.134560">
        <ele>1671.042</ele>
        <time>2019-05-29T10:32:06Z</time>
      </trkpt>
      <trkpt lat="42.603336" lon="2.134523">
        <ele>1670.455</ele>
        <time>2019-05-29T10:32:07Z</time>
      </trkpt>
      <trkpt lat="42.603277" lon="2.134479">
        <ele>1669.435</ele>
        <time>2019-05-29T10:32:08Z</time>
      </trkpt>
      <trkpt lat="42.603219" lon="2.134427">
        <ele>1668.897</ele>
        <time>2019-05-29T10:32:09Z</time>
      </trkpt>
      <trkpt lat="42.603168" lon="2.134370">
        <ele>1668.642</ele>
        <time>2019-05-29T10:32:10Z</time>
      </trkpt>
      <trkpt lat="42.603119" lon="2.134310">
        <ele>1667.822</ele>
        <time>2019-05-29T10:32:11Z</time>
      </trkpt>
      <trkpt lat="42.603028" lon="2.134171">
        <ele>1666.262</ele>
        <time>2019-05-29T10:32:13Z</time>
      </trkpt>
      <trkpt lat="42.602921" lon="2.134047">
        <ele>1665.408</ele>
        <time>2019-05-29T10:32:15Z</time>
      </trkpt>
      <trkpt lat="42.602853" lon="2.133996">
        <ele>1664.608</ele>
        <time>2019-05-29T10:32:16Z</time>
      </trkpt>
      <trkpt lat="42.602697" lon="2.133908">
        <ele>1663.025</ele>
        <time>2019-05-29T10:32:18Z</time>
      </trkpt>
      <trkpt lat="42.602615" lon="2.133865">
        <ele>1662.429</ele>
        <time>2019-05-29T10:32:19Z</time>
      </trkpt>
      <trkpt lat="42.602532" lon="2.133821">
        <ele>1661.855</ele>
        <time>2019-05-29T10:32:20Z</time>
      </trkpt>
      <trkpt lat="42.602362" lon="2.133720">
        <ele>1659.893</ele>
        <time>2019-05-29T10:32:22Z</time>
      </trkpt>
      <trkpt lat="42.602197" lon="2.133598">
        <ele>1658.426</ele>
        <time>2019-05-29T10:32:24Z</time>
      </trkpt>
      <trkpt lat="42.602117" lon="2.133530">
        <ele>1657.676</ele>
        <time>2019-05-29T10:32:25Z</time>
      </trkpt>
      <trkpt lat="42.602040" lon="2.133461">
        <ele>1656.628</ele>
        <time>2019-05-29T10:32:26Z</time>
      </trkpt>
      <trkpt lat="42.601885" lon="2.133320">
        <ele>1655.463</ele>
        <time>2019-05-29T10:32:28Z</time>
      </trkpt>
      <trkpt lat="42.601648" lon="2.133103">
        <ele>1654.255</ele>
        <time>2019-05-29T10:32:31Z</time>
      </trkpt>
      <trkpt lat="42.601492" lon="2.132960">
        <ele>1653.007</ele>
        <time>2019-05-29T10:32:33Z</time>
      </trkpt>
      <trkpt lat="42.601250" lon="2.132788">
        <ele>1652.417</ele>
        <time>2019-05-29T10:32:36Z</time>
      </trkpt>
      <trkpt lat="42.601161" lon="2.132747">
        <ele>1651.608</ele>
        <time>2019-05-29T10:32:37Z</time>
      </trkpt>
      <trkpt lat="42.601067" lon="2.132719">
        <ele>1650.818</ele>
        <time>2019-05-29T10:32:38Z</time>
      </trkpt>
      <trkpt lat="42.600971" lon="2.132692">
        <ele>1649.642</ele>
        <time>2019-05-29T10:32:39Z</time>
      </trkpt>
      <trkpt lat="42.600778" lon="2.132626">
        <ele>1647.438</ele>
        <time>2019-05-29T10:32:41Z</time>
      </trkpt>
      <trkpt lat="42.600579" lon="2.132560">
        <ele>1645.636</ele>
        <time>2019-05-29T10:32:43Z</time>
      </trkpt>
      <trkpt lat="42.600380" lon="2.132519">
        <ele>1643.679</ele>
        <time>2019-05-29T10:32:45Z</time>
      </trkpt>
      <trkpt lat="42.600284" lon="2.132504">
        <ele>1641.419</ele>
        <time>2019-05-29T10:32:46Z</time>
      </trkpt>
      <trkpt lat="42.600187" lon="2.132488">
        <ele>1640.821</ele>
        <time>2019-05-29T10:32:47Z</time>
      </trkpt>
      <trkpt lat="42.600090" lon="2.132469">
        <ele>1640.066</ele>
        <time>2019-05-29T10:32:48Z</time>
      </trkpt>
      <trkpt lat="42.599995" lon="2.132448">
        <ele>1638.888</ele>
        <time>2019-05-29T10:32:49Z</time>
      </trkpt>
      <trkpt lat="42.599803" lon="2.132394">
        <ele>1637.224</ele>
        <time>2019-05-29T10:32:51Z</time>
      </trkpt>
      <trkpt lat="42.599612" lon="2.132334">
        <ele>1636.226</ele>
        <time>2019-05-29T10:32:53Z</time>
      </trkpt>
      <trkpt lat="42.599520" lon="2.132303">
        <ele>1635.808</ele>
        <time>2019-05-29T10:32:54Z</time>
      </trkpt>
      <trkpt lat="42.599339" lon="2.132231">
        <ele>1634.471</ele>
        <time>2019-05-29T10:32:56Z</time>
      </trkpt>
      <trkpt lat="42.599173" lon="2.132135">
        <ele>1632.435</ele>
        <time>2019-05-29T10:32:58Z</time>
      </trkpt>
      <trkpt lat="42.599095" lon="2.132073">
        <ele>1631.461</ele>
        <time>2019-05-29T10:32:59Z</time>
      </trkpt>
      <trkpt lat="42.599014" lon="2.132017">
        <ele>1630.849</ele>
        <time>2019-05-29T10:33:00Z</time>
      </trkpt>
      <trkpt lat="42.598854" lon="2.131923">
        <ele>1630.632</ele>
        <time>2019-05-29T10:33:02Z</time>
      </trkpt>
      <trkpt lat="42.598769" lon="2.131888">
        <ele>1630.622</ele>
        <time>2019-05-29T10:33:03Z</time>
      </trkpt>
      <trkpt lat="42.598601" lon="2.131803">
        <ele>1630.464</ele>
        <time>2019-05-29T10:33:05Z</time>
      </trkpt>
      <trkpt lat="42.598439" lon="2.131703">
        <ele>1629.649</ele>
        <time>2019-05-29T10:33:07Z</time>
      </trkpt>
      <trkpt lat="42.598220" lon="2.131554">
        <ele>1626.687</ele>
        <time>2019-05-29T10:33:10Z</time>
      </trkpt>
      <trkpt lat="42.598150" lon="2.131521">
        <ele>1625.442</ele>
        <time>2019-05-29T10:33:11Z</time>
      </trkpt>
      <trkpt lat="42.598081" lon="2.131502">
        <ele>1624.226</ele>
        <time>2019-05-29T10:33:12Z</time>
      </trkpt>
      <trkpt lat="42.597885" lon="2.131486">
        <ele>1623.008</ele>
        <time>2019-05-29T10:33:15Z</time>
      </trkpt>
      <trkpt lat="42.597758" lon="2.131483">
        <ele>1622.041</ele>
        <time>2019-05-29T10:33:17Z</time>
      </trkpt>
      <trkpt lat="42.597620" lon="2.131507">
        <ele>1620.655</ele>
        <time>2019-05-29T10:33:19Z</time>
      </trkpt>
      <trkpt lat="42.597533" lon="2.131546">
        <ele>1619.831</ele>
        <time>2019-05-29T10:33:20Z</time>
      </trkpt>
      <trkpt lat="42.597441" lon="2.131582">
        <ele>1618.879</ele>
        <time>2019-05-29T10:33:21Z</time>
      </trkpt>
      <trkpt lat="42.597350" lon="2.131614">
        <ele>1617.662</ele>
        <time>2019-05-29T10:33:22Z</time>
      </trkpt>
      <trkpt lat="42.597259" lon="2.131639">
        <ele>1616.432</ele>
        <time>2019-05-29T10:33:23Z</time>
      </trkpt>
      <trkpt lat="42.597075" lon="2.131672">
        <ele>1615.244</ele>
        <time>2019-05-29T10:33:25Z</time>
      </trkpt>
      <trkpt lat="42.596873" lon="2.131689">
        <ele>1614.639</ele>
        <time>2019-05-29T10:33:27Z</time>
      </trkpt>
      <trkpt lat="42.596770" lon="2.131679">
        <ele>1614.056</ele>
        <time>2019-05-29T10:33:28Z</time>
      </trkpt>
      <trkpt lat="42.596586" lon="2.131626">
        <ele>1612.259</ele>
        <time>2019-05-29T10:33:30Z</time>
      </trkpt>
      <trkpt lat="42.596498" lon="2.131594">
        <ele>1611.214</ele>
        <time>2019-05-29T10:33:31Z</time>
      </trkpt>
      <trkpt lat="42.596409" lon="2.131563">
        <ele>1610.408</ele>
        <time>2019-05-29T10:33:32Z</time>
      </trkpt>
      <trkpt lat="42.596226" lon="2.131511">
        <ele>1608.048</ele>
        <time>2019-05-29T10:33:34Z</time>
      </trkpt>
      <trkpt lat="42.596046" lon="2.131439">
        <ele>1606.832</ele>
        <time>2019-05-29T10:33:36Z</time>
      </trkpt>
      <trkpt lat="42.595873" lon="2.131346">
        <ele>1605.418</ele>
        <time>2019-05-29T10:33:38Z</time>
      </trkpt>
      <trkpt lat="42.595706" lon="2.131243">
        <ele>1604.276</ele>
        <time>2019-05-29T10:33:40Z</time>
      </trkpt>
      <trkpt lat="42.595541" lon="2.131142">
        <ele>1603.289</ele>
        <time>2019-05-29T10:33:42Z</time>
      </trkpt>
      <trkpt lat="42.595379" lon="2.131039">
        <ele>1601.869</ele>
        <time>2019-05-29T10:33:44Z</time>
      </trkpt>
      <trkpt lat="42.595298" lon="2.130995">
        <ele>1601.291</ele>
        <time>2019-05-29T10:33:45Z</time>
      </trkpt>
      <trkpt lat="42.595140" lon="2.130920">
        <ele>1600.816</ele>
        <time>2019-05-29T10:33:47Z</time>
      </trkpt>
      <trkpt lat="42.595060" lon="2.130873">
        <ele>1600.474</ele>
        <time>2019-05-29T10:33:48Z</time>
      </trkpt>
      <trkpt lat="42.594913" lon="2.130734">
        <ele>1599.256</ele>
        <time>2019-05-29T10:33:50Z</time>
      </trkpt>
      <trkpt lat="42.594789" lon="2.130551">
        <ele>1597.421</ele>
        <time>2019-05-29T10:33:52Z</time>
      </trkpt>
      <trkpt lat="42.594734" lon="2.130448">
        <ele>1596.208</ele>
        <time>2019-05-29T10:33:53Z</time>
      </trkpt>
      <trkpt lat="42.594677" lon="2.130342">
        <ele>1595.220</ele>
        <time>2019-05-29T10:33:54Z</time>
      </trkpt>
      <trkpt lat="42.594572" lon="2.130122">
        <ele>1593.854</ele>
        <time>2019-05-29T10:33:56Z</time>
      </trkpt>
      <trkpt lat="42.594466" lon="2.129898">
        <ele>1592.430</ele>
        <time>2019-05-29T10:33:58Z</time>
      </trkpt>
      <trkpt lat="42.594411" lon="2.129791">
        <ele>1592.038</ele>
        <time>2019-05-29T10:33:59Z</time>
      </trkpt>
      <trkpt lat="42.594358" lon="2.129685">
        <ele>1591.211</ele>
        <time>2019-05-29T10:34:00Z</time>
      </trkpt>
      <trkpt lat="42.594300" lon="2.129583">
        <ele>1590.061</ele>
        <time>2019-05-29T10:34:01Z</time>
      </trkpt>
      <trkpt lat="42.594240" lon="2.129490">
        <ele>1589.033</ele>
        <time>2019-05-29T10:34:02Z</time>
      </trkpt>
      <trkpt lat="42.594177" lon="2.129404">
        <ele>1588.038</ele>
        <time>2019-05-29T10:34:03Z</time>
      </trkpt>
      <trkpt lat="42.594108" lon="2.129324">
        <ele>1587.675</ele>
        <time>2019-05-29T10:34:04Z</time>
      </trkpt>
      <trkpt lat="42.593888" lon="2.129117">
        <ele>1586.628</ele>
        <time>2019-05-29T10:34:07Z</time>
      </trkpt>
      <trkpt lat="42.593806" lon="2.129078">
        <ele>1586.220</ele>
        <time>2019-05-29T10:34:08Z</time>
      </trkpt>
      <trkpt lat="42.593718" lon="2.129049">
        <ele>1585.408</ele>
        <time>2019-05-29T10:34:09Z</time>
      </trkpt>
      <trkpt lat="42.593541" lon="2.129011">
        <ele>1583.840</ele>
        <time>2019-05-29T10:34:11Z</time>
      </trkpt>
      <trkpt lat="42.593458" lon="2.128992">
        <ele>1583.264</ele>
        <time>2019-05-29T10:34:12Z</time>
      </trkpt>
      <trkpt lat="42.593383" lon="2.128968">
        <ele>1582.440</ele>
        <time>2019-05-29T10:34:13Z</time>
      </trkpt>
      <trkpt lat="42.593230" lon="2.128917">
        <ele>1581.038</ele>
        <time>2019-05-29T10:34:15Z</time>
      </trkpt>
      <trkpt lat="42.593078" lon="2.128847">
        <ele>1579.211</ele>
        <time>2019-05-29T10:34:17Z</time>
      </trkpt>
      <trkpt lat="42.593009" lon="2.128789">
        <ele>1578.651</ele>
        <time>2019-05-29T10:34:18Z</time>
      </trkpt>
      <trkpt lat="42.592944" lon="2.128720">
        <ele>1577.843</ele>
        <time>2019-05-29T10:34:19Z</time>
      </trkpt>
      <trkpt lat="42.592872" lon="2.128656">
        <ele>1577.228</ele>
        <time>2019-05-29T10:34:20Z</time>
      </trkpt>
      <trkpt lat="42.592804" lon="2.128577">
        <ele>1576.228</ele>
        <time>2019-05-29T10:34:21Z</time>
      </trkpt>
      <trkpt lat="42.592740" lon="2.128488">
        <ele>1573.889</ele>
        <time>2019-05-29T10:34:22Z</time>
      </trkpt>
      <trkpt lat="42.592664" lon="2.128410">
        <ele>1572.617</ele>
        <time>2019-05-29T10:34:23Z</time>
      </trkpt>
      <trkpt lat="42.592521" lon="2.128253">
        <ele>1571.208</ele>
        <time>2019-05-29T10:34:25Z</time>
      </trkpt>
      <trkpt lat="42.592395" lon="2.128096">
        <ele>1569.865</ele>
        <time>2019-05-29T10:34:27Z</time>
      </trkpt>
      <trkpt lat="42.592248" lon="2.127951">
        <ele>1567.639</ele>
        <time>2019-05-29T10:34:29Z</time>
      </trkpt>
      <trkpt lat="42.592186" lon="2.127855">
        <ele>1566.645</ele>
        <time>2019-05-29T10:34:30Z</time>
      </trkpt>
      <trkpt lat="42.592139" lon="2.127740">
        <ele>1565.853</ele>
        <time>2019-05-29T10:34:31Z</time>
      </trkpt>
      <trkpt lat="42.592036" lon="2.127518">
        <ele>1564.876</ele>
        <time>2019-05-29T10:34:33Z</time>
      </trkpt>
      <trkpt lat="42.591980" lon="2.127412">
        <ele>1564.286</ele>
        <time>2019-05-29T10:34:34Z</time>
      </trkpt>
      <trkpt lat="42.591917" lon="2.127316">
        <ele>1563.868</ele>
        <time>2019-05-29T10:34:35Z</time>
      </trkpt>
      <trkpt lat="42.591762" lon="2.127149">
        <ele>1562.643</ele>
        <time>2019-05-29T10:34:37Z</time>
      </trkpt>
      <trkpt lat="42.591691" lon="2.127074">
        <ele>1561.863</ele>
        <time>2019-05-29T10:34:38Z</time>
      </trkpt>
      <trkpt lat="42.591617" lon="2.127004">
        <ele>1560.844</ele>
        <time>2019-05-29T10:34:39Z</time>
      </trkpt>
      <trkpt lat="42.591538" lon="2.126934">
        <ele>1559.818</ele>
        <time>2019-05-29T10:34:40Z</time>
      </trkpt>
      <trkpt lat="42.591456" lon="2.126874">
        <ele>1558.408</ele>
        <time>2019-05-29T10:34:41Z</time>
      </trkpt>
      <trkpt lat="42.591368" lon="2.126832">
        <ele>1557.469</ele>
        <time>2019-05-29T10:34:42Z</time>
      </trkpt>
      <trkpt lat="42.591286" lon="2.126791">
        <ele>1556.633</ele>
        <time>2019-05-29T10:34:43Z</time>
      </trkpt>
      <trkpt lat="42.591115" lon="2.126708">
        <ele>1555.279</ele>
        <time>2019-05-29T10:34:45Z</time>
      </trkpt>
      <trkpt lat="42.591025" lon="2.126660">
        <ele>1553.447</ele>
        <time>2019-05-29T10:34:46Z</time>
      </trkpt>
      <trkpt lat="42.590942" lon="2.126603">
        <ele>1552.820</ele>
        <time>2019-05-29T10:34:47Z</time>
      </trkpt>
      <trkpt lat="42.590863" lon="2.126529">
        <ele>1552.260</ele>
        <time>2019-05-29T10:34:48Z</time>
      </trkpt>
      <trkpt lat="42.590704" lon="2.126357">
        <ele>1550.682</ele>
        <time>2019-05-29T10:34:50Z</time>
      </trkpt>
      <trkpt lat="42.590626" lon="2.126268">
        <ele>1549.677</ele>
        <time>2019-05-29T10:34:51Z</time>
      </trkpt>
      <trkpt lat="42.590547" lon="2.126177">
        <ele>1548.874</ele>
        <time>2019-05-29T10:34:52Z</time>
      </trkpt>
      <trkpt lat="42.590477" lon="2.126091">
        <ele>1548.056</ele>
        <time>2019-05-29T10:34:53Z</time>
      </trkpt>
      <trkpt lat="42.590365" lon="2.125937">
        <ele>1547.621</ele>
        <time>2019-05-29T10:34:55Z</time>
      </trkpt>
      <trkpt lat="42.590239" lon="2.125791">
        <ele>1546.608</ele>
        <time>2019-05-29T10:34:57Z</time>
      </trkpt>
      <trkpt lat="42.590168" lon="2.125725">
        <ele>1546.040</ele>
        <time>2019-05-29T10:34:58Z</time>
      </trkpt>
      <trkpt lat="42.590090" lon="2.125664">
        <ele>1545.084</ele>
        <time>2019-05-29T10:34:59Z</time>
      </trkpt>
      <trkpt lat="42.590000" lon="2.125611">
        <ele>1543.820</ele>
        <time>2019-05-29T10:35:00Z</time>
      </trkpt>
      <trkpt lat="42.589907" lon="2.125559">
        <ele>1542.688</ele>
        <time>2019-05-29T10:35:01Z</time>
      </trkpt>
      <trkpt lat="42.589723" lon="2.125451">
        <ele>1541.481</ele>
        <time>2019-05-29T10:35:03Z</time>
      </trkpt>
      <trkpt lat="42.589636" lon="2.125403">
        <ele>1541.221</ele>
        <time>2019-05-29T10:35:04Z</time>
      </trkpt>
      <trkpt lat="42.589550" lon="2.125353">
        <ele>1540.043</ele>
        <time>2019-05-29T10:35:05Z</time>
      </trkpt>
      <trkpt lat="42.589384" lon="2.125274">
        <ele>1538.478</ele>
        <time>2019-05-29T10:35:07Z</time>
      </trkpt>
      <trkpt lat="42.589212" lon="2.125209">
        <ele>1537.278</ele>
        <time>2019-05-29T10:35:09Z</time>
      </trkpt>
      <trkpt lat="42.589127" lon="2.125160">
        <ele>1536.233</ele>
        <time>2019-05-29T10:35:10Z</time>
      </trkpt>
      <trkpt lat="42.588945" lon="2.125052">
        <ele>1533.626</ele>
        <time>2019-05-29T10:35:12Z</time>
      </trkpt>
      <trkpt lat="42.588873" lon="2.124973">
        <ele>1532.608</ele>
        <time>2019-05-29T10:35:13Z</time>
      </trkpt>
      <trkpt lat="42.588738" lon="2.124793">
        <ele>1531.880</ele>
        <time>2019-05-29T10:35:15Z</time>
      </trkpt>
      <trkpt lat="42.588613" lon="2.124619">
        <ele>1531.294</ele>
        <time>2019-05-29T10:35:17Z</time>
      </trkpt>
      <trkpt lat="42.588551" lon="2.124532">
        <ele>1530.860</ele>
        <time>2019-05-29T10:35:18Z</time>
      </trkpt>
      <trkpt lat="42.588417" lon="2.124365">
        <ele>1529.668</ele>
        <time>2019-05-29T10:35:20Z</time>
      </trkpt>
      <trkpt lat="42.588257" lon="2.124220">
        <ele>1527.271</ele>
        <time>2019-05-29T10:35:22Z</time>
      </trkpt>
      <trkpt lat="42.588176" lon="2.124154">
        <ele>1526.031</ele>
        <time>2019-05-29T10:35:23Z</time>
      </trkpt>
      <trkpt lat="42.588101" lon="2.124089">
        <ele>1525.053</ele>
        <time>2019-05-29T10:35:24Z</time>
      </trkpt>
      <trkpt lat="42.588022" lon="2.124034">
        <ele>1524.658</ele>
        <time>2019-05-29T10:35:25Z</time>
      </trkpt>
      <trkpt lat="42.587861" lon="2.123926">
        <ele>1523.262</ele>
        <time>2019-05-29T10:35:27Z</time>
      </trkpt>
      <trkpt lat="42.587779" lon="2.123879">
        <ele>1522.883</ele>
        <time>2019-05-29T10:35:28Z</time>
      </trkpt>
      <trkpt lat="42.587626" lon="2.123755">
        <ele>1522.211</ele>
        <time>2019-05-29T10:35:30Z</time>
      </trkpt>
      <trkpt lat="42.587517" lon="2.123594">
        <ele>1520.008</ele>
        <time>2019-05-29T10:35:32Z</time>
      </trkpt>
      <trkpt lat="42.587487" lon="2.123504">
        <ele>1518.839</ele>
        <time>2019-05-29T10:35:33Z</time>
      </trkpt>
      <trkpt lat="42.587463" lon="2.123413">
        <ele>1516.423</ele>
        <time>2019-05-29T10:35:34Z</time>
      </trkpt>
      <trkpt lat="42.587460" lon="2.123310">
        <ele>1516.039</ele>
        <time>2019-05-29T10:35:35Z</time>
      </trkpt>
      <trkpt lat="42.587464" lon="2.123211">
        <ele>1515.497</ele>
        <time>2019-05-29T10:35:36Z</time>
      </trkpt>
      <trkpt lat="42.587452" lon="2.123003">
        <ele>1514.040</ele>
        <time>2019-05-29T10:35:38Z</time>
      </trkpt>
      <trkpt lat="42.587428" lon="2.122896">
        <ele>1513.640</ele>
        <time>2019-05-29T10:35:39Z</time>
      </trkpt>
      <trkpt lat="42.587299" lon="2.122609">
        <ele>1512.652</ele>
        <time>2019-05-29T10:35:42Z</time>
      </trkpt>
      <trkpt lat="42.587247" lon="2.122524">
        <ele>1512.217</ele>
        <time>2019-05-29T10:35:43Z</time>
      </trkpt>
      <trkpt lat="42.587202" lon="2.122446">
        <ele>1511.676</ele>
        <time>2019-05-29T10:35:44Z</time>
      </trkpt>
      <trkpt lat="42.587037" lon="2.122155">
        <ele>1510.090</ele>
        <time>2019-05-29T10:35:48Z</time>
      </trkpt>
      <trkpt lat="42.586876" lon="2.121880">
        <ele>1509.019</ele>
        <time>2019-05-29T10:35:52Z</time>
      </trkpt>
      <trkpt lat="42.586797" lon="2.121742">
        <ele>1507.608</ele>
        <time>2019-05-29T10:35:54Z</time>
      </trkpt>
      <trkpt lat="42.586717" lon="2.121601">
        <ele>1506.820</ele>
        <time>2019-05-29T10:35:56Z</time>
      </trkpt>
      <trkpt lat="42.586676" lon="2.121528">
        <ele>1506.064</ele>
        <time>2019-05-29T10:35:57Z</time>
      </trkpt>
      <trkpt lat="42.586632" lon="2.121456">
        <ele>1504.810</ele>
        <time>2019-05-29T10:35:58Z</time>
      </trkpt>
      <trkpt lat="42.586502" lon="2.121244">
        <ele>1503.278</ele>
        <time>2019-05-29T10:36:01Z</time>
      </trkpt>
      <trkpt lat="42.586418" lon="2.121124">
        <ele>1502.431</ele>
        <time>2019-05-29T10:36:03Z</time>
      </trkpt>
      <trkpt lat="42.586376" lon="2.121072">
        <ele>1502.041</ele>
        <time>2019-05-29T10:36:04Z</time>
      </trkpt>
      <trkpt lat="42.586329" lon="2.121024">
        <ele>1501.683</ele>
        <time>2019-05-29T10:36:05Z</time>
      </trkpt>
      <trkpt lat="42.586211" lon="2.120939">
        <ele>1500.418</ele>
        <time>2019-05-29T10:36:07Z</time>
      </trkpt>
      <trkpt lat="42.586082" lon="2.120872">
        <ele>1499.061</ele>
        <time>2019-05-29T10:36:09Z</time>
      </trkpt>
      <trkpt lat="42.585951" lon="2.120810">
        <ele>1497.621</ele>
        <time>2019-05-29T10:36:11Z</time>
      </trkpt>
      <trkpt lat="42.585885" lon="2.120771">
        <ele>1496.813</ele>
        <time>2019-05-29T10:36:12Z</time>
      </trkpt>
      <trkpt lat="42.585821" lon="2.120730">
        <ele>1496.208</ele>
        <time>2019-05-29T10:36:13Z</time>
      </trkpt>
      <trkpt lat="42.585574" lon="2.120518">
        <ele>1494.449</ele>
        <time>2019-05-29T10:36:17Z</time>
      </trkpt>
      <trkpt lat="42.585519" lon="2.120445">
        <ele>1493.843</ele>
        <time>2019-05-29T10:36:18Z</time>
      </trkpt>
      <trkpt lat="42.585474" lon="2.120362">
        <ele>1492.429</ele>
        <time>2019-05-29T10:36:19Z</time>
      </trkpt>
      <trkpt lat="42.585430" lon="2.120273">
        <ele>1491.297</ele>
        <time>2019-05-29T10:36:20Z</time>
      </trkpt>
      <trkpt lat="42.585382" lon="2.120183">
        <ele>1490.220</ele>
        <time>2019-05-29T10:36:21Z</time>
      </trkpt>
      <trkpt lat="42.585282" lon="2.120011">
        <ele>1488.420</ele>
        <time>2019-05-29T10:36:23Z</time>
      </trkpt>
      <trkpt lat="42.585227" lon="2.119924">
        <ele>1487.442</ele>
        <time>2019-05-29T10:36:24Z</time>
      </trkpt>
      <trkpt lat="42.585165" lon="2.119835">
        <ele>1486.437</ele>
        <time>2019-05-29T10:36:25Z</time>
      </trkpt>
      <trkpt lat="42.584983" lon="2.119605">
        <ele>1485.258</ele>
        <time>2019-05-29T10:36:28Z</time>
      </trkpt>
      <trkpt lat="42.584865" lon="2.119448">
        <ele>1484.052</ele>
        <time>2019-05-29T10:36:30Z</time>
      </trkpt>
      <trkpt lat="42.584804" lon="2.119370">
        <ele>1483.017</ele>
        <time>2019-05-29T10:36:31Z</time>
      </trkpt>
      <trkpt lat="42.584747" lon="2.119297">
        <ele>1481.608</ele>
        <time>2019-05-29T10:36:32Z</time>
      </trkpt>
      <trkpt lat="42.584691" lon="2.119219">
        <ele>1480.658</ele>
        <time>2019-05-29T10:36:33Z</time>
      </trkpt>
      <trkpt lat="42.584631" lon="2.119143">
        <ele>1480.282</ele>
        <time>2019-05-29T10:36:34Z</time>
      </trkpt>
      <trkpt lat="42.584531" lon="2.118984">
        <ele>1480.248</ele>
        <time>2019-05-29T10:36:36Z</time>
      </trkpt>
      <trkpt lat="42.584463" lon="2.118803">
        <ele>1479.296</ele>
        <time>2019-05-29T10:36:38Z</time>
      </trkpt>
      <trkpt lat="42.584423" lon="2.118622">
        <ele>1478.239</ele>
        <time>2019-05-29T10:36:40Z</time>
      </trkpt>
      <trkpt lat="42.584378" lon="2.118363">
        <ele>1477.259</ele>
        <time>2019-05-29T10:36:43Z</time>
      </trkpt>
      <trkpt lat="42.584368" lon="2.118291">
        <ele>1477.221</ele>
        <time>2019-05-29T10:36:44Z</time>
      </trkpt>
      <trkpt lat="42.584336" lon="2.118127">
        <ele>1476.416</ele>
        <time>2019-05-29T10:36:47Z</time>
      </trkpt>
      <trkpt lat="42.584339" lon="2.118083">
        <ele>1476.274</ele>
        <time>2019-05-29T10:36:48Z</time>
      </trkpt>
      <trkpt lat="42.584374" lon="2.118035">
        <ele>1476.056</ele>
        <time>2019-05-29T10:36:50Z</time>
      </trkpt>
      <trkpt lat="42.584439" lon="2.118075">
        <ele>1474.621</ele>
        <time>2019-05-29T10:36:52Z</time>
      </trkpt>
      <trkpt lat="42.584468" lon="2.118118">
        <ele>1473.808</ele>
        <time>2019-05-29T10:36:53Z</time>
      </trkpt>
      <trkpt lat="42.584496" lon="2.118162">
        <ele>1473.240</ele>
        <time>2019-05-29T10:36:54Z</time>
      </trkpt>
      <trkpt lat="42.584522" lon="2.118216">
        <ele>1473.234</ele>
        <time>2019-05-29T10:36:55Z</time>
      </trkpt>
      <trkpt lat="42.584582" lon="2.118328">
        <ele>1472.020</ele>
        <time>2019-05-29T10:36:57Z</time>
      </trkpt>
      <trkpt lat="42.584620" lon="2.118379">
        <ele>1471.478</ele>
        <time>2019-05-29T10:36:58Z</time>
      </trkpt>
      <trkpt lat="42.584748" lon="2.118527">
        <ele>1472.421</ele>
        <time>2019-05-29T10:37:01Z</time>
      </trkpt>
      <trkpt lat="42.584899" lon="2.118636">
        <ele>1471.451</ele>
        <time>2019-05-29T10:37:04Z</time>
      </trkpt>
      <trkpt lat="42.584999" lon="2.118700">
        <ele>1470.893</ele>
        <time>2019-05-29T10:37:06Z</time>
      </trkpt>
      <trkpt lat="42.585228" lon="2.118821">
        <ele>1470.658</ele>
        <time>2019-05-29T10:37:11Z</time>
      </trkpt>
      <trkpt lat="42.585321" lon="2.118835">
        <ele>1471.277</ele>
        <time>2019-05-29T10:37:13Z</time>
      </trkpt>
      <trkpt lat="42.585454" lon="2.118790">
        <ele>1471.861</ele>
        <time>2019-05-29T10:37:16Z</time>
      </trkpt>
      <trkpt lat="42.585648" lon="2.118747">
        <ele>1470.627</ele>
        <time>2019-05-29T10:37:20Z</time>
      </trkpt>
      <trkpt lat="42.585704" lon="2.118743">
        <ele>1469.608</ele>
        <time>2019-05-29T10:37:21Z</time>
      </trkpt>
      <trkpt lat="42.586075" lon="2.118740">
        <ele>1468.610</ele>
        <time>2019-05-29T10:37:28Z</time>
      </trkpt>
      <trkpt lat="42.586260" lon="2.118789">
        <ele>1469.684</ele>
        <time>2019-05-29T10:37:32Z</time>
      </trkpt>
      <trkpt lat="42.586321" lon="2.118831">
        <ele>1470.860</ele>
        <time>2019-05-29T10:37:34Z</time>
      </trkpt>
      <trkpt lat="42.586363" lon="2.118872">
        <ele>1469.278</ele>
        <time>2019-05-29T10:37:36Z</time>
      </trkpt>
      <trkpt lat="42.586403" lon="2.118900">
        <ele>1472.231</ele>
        <time>2019-05-29T10:37:38Z</time>
      </trkpt>
      <trkpt lat="42.586421" lon="2.118910">
        <ele>1473.491</ele>
        <time>2019-05-29T10:37:39Z</time>
      </trkpt>
      <trkpt lat="42.586439" lon="2.118926">
        <ele>1473.073</ele>
        <time>2019-05-29T10:37:40Z</time>
      </trkpt>
      <trkpt lat="42.586527" lon="2.119003">
        <ele>1473.478</ele>
        <time>2019-05-29T10:37:44Z</time>
      </trkpt>
      <trkpt lat="42.586580" lon="2.119050">
        <ele>1473.288</ele>
        <time>2019-05-29T10:37:46Z</time>
      </trkpt>
      <trkpt lat="42.586651" lon="2.119071">
        <ele>1472.224</ele>
        <time>2019-05-29T10:37:48Z</time>
      </trkpt>
      <trkpt lat="42.586690" lon="2.119066">
        <ele>1471.626</ele>
        <time>2019-05-29T10:37:49Z</time>
      </trkpt>
      <trkpt lat="42.586729" lon="2.119061">
        <ele>1471.608</ele>
        <time>2019-05-29T10:37:50Z</time>
      </trkpt>
      <trkpt lat="42.586770" lon="2.119039">
        <ele>1471.861</ele>
        <time>2019-05-29T10:37:51Z</time>
      </trkpt>
      <trkpt lat="42.586835" lon="2.118985">
        <ele>1472.025</ele>
        <time>2019-05-29T10:37:53Z</time>
      </trkpt>
      <trkpt lat="42.586884" lon="2.118929">
        <ele>1472.011</ele>
        <time>2019-05-29T10:37:55Z</time>
      </trkpt>
      <trkpt lat="42.586985" lon="2.118768">
        <ele>1473.059</ele>
        <time>2019-05-29T10:38:00Z</time>
      </trkpt>
      <trkpt lat="42.587014" lon="2.118702">
        <ele>1473.652</ele>
        <time>2019-05-29T10:38:02Z</time>
      </trkpt>
      <trkpt lat="42.587029" lon="2.118631">
        <ele>1474.882</ele>
        <time>2019-05-29T10:38:04Z</time>
      </trkpt>
      <trkpt lat="42.587026" lon="2.118561">
        <ele>1475.684</ele>
        <time>2019-05-29T10:38:06Z</time>
      </trkpt>
      <trkpt lat="42.586999" lon="2.118377">
        <ele>1476.039</ele>
        <time>2019-05-29T10:38:12Z</time>
      </trkpt>
      <trkpt lat="42.586991" lon="2.118215">
        <ele>1477.233</ele>
        <time>2019-05-29T10:38:19Z</time>
      </trkpt>
      <trkpt lat="42.586987" lon="2.118188">
        <ele>1477.623</ele>
        <time>2019-05-29T10:38:20Z</time>
      </trkpt>
      <trkpt lat="42.586985" lon="2.118140">
        <ele>1478.815</ele>
        <time>2019-05-29T10:38:22Z</time>
      </trkpt>
      <trkpt lat="42.586986" lon="2.118004">
        <ele>1479.408</ele>
        <time>2019-05-29T10:38:28Z</time>
      </trkpt>
      <trkpt lat="42.586981" lon="2.117930">
        <ele>1479.866</ele>
        <time>2019-05-29T10:38:31Z</time>
      </trkpt>
      <trkpt lat="42.586980" lon="2.117765">
        <ele>1481.080</ele>
        <time>2019-05-29T10:38:37Z</time>
      </trkpt>
      <trkpt lat="42.586976" lon="2.117738">
        <ele>1481.236</ele>
        <time>2019-05-29T10:38:38Z</time>
      </trkpt>
      <trkpt lat="42.586936" lon="2.117611">
        <ele>1482.084</ele>
        <time>2019-05-29T10:38:43Z</time>
      </trkpt>
      <trkpt lat="42.586926" lon="2.117566">
        <ele>1482.267</ele>
        <time>2019-05-29T10:38:45Z</time>
      </trkpt>
      <trkpt lat="42.586925" lon="2.117546">
        <ele>1482.417</ele>
        <time>2019-05-29T10:38:46Z</time>
      </trkpt>
      <trkpt lat="42.586908" lon="2.117493">
        <ele>1483.029</ele>
        <time>2019-05-29T10:38:49Z</time>
      </trkpt>
      <trkpt lat="42.586879" lon="2.117414">
        <ele>1483.474</ele>
        <time>2019-05-29T10:38:53Z</time>
      </trkpt>
      <trkpt lat="42.586856" lon="2.117296">
        <ele>1484.233</ele>
        <time>2019-05-29T10:38:59Z</time>
      </trkpt>
      <trkpt lat="42.586837" lon="2.117189">
        <ele>1484.823</ele>
        <time>2019-05-29T10:39:04Z</time>
      </trkpt>
      <trkpt lat="42.586823" lon="2.117126">
        <ele>1485.415</ele>
        <time>2019-05-29T10:39:07Z</time>
      </trkpt>
      <trkpt lat="42.586800" lon="2.117031">
        <ele>1486.208</ele>
        <time>2019-05-29T10:39:12Z</time>
      </trkpt>
      <trkpt lat="42.586774" lon="2.116914">
        <ele>1486.486</ele>
        <time>2019-05-29T10:39:18Z</time>
      </trkpt>
      <trkpt lat="42.586771" lon="2.116896">
        <ele>1486.840</ele>
        <time>2019-05-29T10:39:19Z</time>
      </trkpt>
      <trkpt lat="42.586751" lon="2.116738">
        <ele>1487.296</ele>
        <time>2019-05-29T10:39:26Z</time>
      </trkpt>
      <trkpt lat="42.586739" lon="2.116692">
        <ele>1487.674</ele>
        <time>2019-05-29T10:39:28Z</time>
      </trkpt>
      <trkpt lat="42.586721" lon="2.116600">
        <ele>1488.677</ele>
        <time>2019-05-29T10:39:32Z</time>
      </trkpt>
      <trkpt lat="42.586713" lon="2.116551">
        <ele>1488.817</ele>
        <time>2019-05-29T10:39:34Z</time>
      </trkpt>
      <trkpt lat="42.586676" lon="2.116328">
        <ele>1488.459</ele>
        <time>2019-05-29T10:39:45Z</time>
      </trkpt>
      <trkpt lat="42.586645" lon="2.116166">
        <ele>1489.094</ele>
        <time>2019-05-29T10:39:52Z</time>
      </trkpt>
      <trkpt lat="42.586620" lon="2.116002">
        <ele>1489.876</ele>
        <time>2019-05-29T10:39:59Z</time>
      </trkpt>
      <trkpt lat="42.586616" lon="2.115979">
        <ele>1490.490</ele>
        <time>2019-05-29T10:40:00Z</time>
      </trkpt>
      <trkpt lat="42.586607" lon="2.115931">
        <ele>1491.419</ele>
        <time>2019-05-29T10:40:02Z</time>
      </trkpt>
      <trkpt lat="42.586601" lon="2.115884">
        <ele>1493.008</ele>
        <time>2019-05-29T10:40:04Z</time>
      </trkpt>
      <trkpt lat="42.586581" lon="2.115764">
        <ele>1493.060</ele>
        <time>2019-05-29T10:40:09Z</time>
      </trkpt>
      <trkpt lat="42.586574" lon="2.115623">
        <ele>1494.214</ele>
        <time>2019-05-29T10:40:15Z</time>
      </trkpt>
      <trkpt lat="42.586561" lon="2.115552">
        <ele>1494.260</ele>
        <time>2019-05-29T10:40:18Z</time>
      </trkpt>
      <trkpt lat="42.586548" lon="2.115410">
        <ele>1493.498</ele>
        <time>2019-05-29T10:40:24Z</time>
      </trkpt>
      <trkpt lat="42.586537" lon="2.115266">
        <ele>1495.671</ele>
        <time>2019-05-29T10:40:30Z</time>
      </trkpt>
      <trkpt lat="42.586533" lon="2.115192">
        <ele>1496.221</ele>
        <time>2019-05-29T10:40:33Z</time>
      </trkpt>
      <trkpt lat="42.586540" lon="2.115068">
        <ele>1496.873</ele>
        <time>2019-05-29T10:40:39Z</time>
      </trkpt>
      <trkpt lat="42.586534" lon="2.115052">
        <ele>1497.088</ele>
        <time>2019-05-29T10:40:40Z</time>
      </trkpt>
      <trkpt lat="42.586515" lon="2.115089">
        <ele>1496.654</ele>
        <time>2019-05-29T10:40:44Z</time>
      </trkpt>
      <trkpt lat="42.586513" lon="2.115153">
        <ele>1496.656</ele>
        <time>2019-05-29T10:40:46Z</time>
      </trkpt>
      <trkpt lat="42.586511" lon="2.115235">
        <ele>1495.611</ele>
        <time>2019-05-29T10:40:48Z</time>
      </trkpt>
      <trkpt lat="42.586505" lon="2.115278">
        <ele>1495.208</ele>
        <time>2019-05-29T10:40:49Z</time>
      </trkpt>
      <trkpt lat="42.586526" lon="2.115390">
        <ele>1494.868</ele>
        <time>2019-05-29T10:40:53Z</time>
      </trkpt>
      <trkpt lat="42.586552" lon="2.115393">
        <ele>1494.012</ele>
        <time>2019-05-29T10:40:55Z</time>
      </trkpt>
      <trkpt lat="42.586571" lon="2.115374">
        <ele>1493.618</ele>
        <time>2019-05-29T10:40:57Z</time>
      </trkpt>
      <trkpt lat="42.586584" lon="2.115322">
        <ele>1493.276</ele>
        <time>2019-05-29T10:40:59Z</time>
      </trkpt>
      <trkpt lat="42.586593" lon="2.115277">
        <ele>1492.639</ele>
        <time>2019-05-29T10:41:00Z</time>
      </trkpt>
      <trkpt lat="42.586602" lon="2.115231">
        <ele>1491.619</ele>
        <time>2019-05-29T10:41:01Z</time>
      </trkpt>
      <trkpt lat="42.586613" lon="2.115180">
        <ele>1491.031</ele>
        <time>2019-05-29T10:41:02Z</time>
      </trkpt>
      <trkpt lat="42.586638" lon="2.114990">
        <ele>1490.046</ele>
        <time>2019-05-29T10:41:06Z</time>
      </trkpt>
      <trkpt lat="42.586663" lon="2.114845">
        <ele>1491.486</ele>
        <time>2019-05-29T10:41:11Z</time>
      </trkpt>
      <trkpt lat="42.586688" lon="2.114592">
        <ele>1492.060</ele>
        <time>2019-05-29T10:41:19Z</time>
      </trkpt>
      <trkpt lat="42.586743" lon="2.114431">
        <ele>1493.026</ele>
        <time>2019-05-29T10:41:25Z</time>
      </trkpt>
      <trkpt lat="42.586780" lon="2.114385">
        <ele>1493.208</ele>
        <time>2019-05-29T10:41:27Z</time>
      </trkpt>
      <trkpt lat="42.586850" lon="2.114283">
        <ele>1492.881</ele>
        <time>2019-05-29T10:41:31Z</time>
      </trkpt>
      <trkpt lat="42.586881" lon="2.114136">
        <ele>1492.875</ele>
        <time>2019-05-29T10:41:36Z</time>
      </trkpt>
      <trkpt lat="42.586869" lon="2.113920">
        <ele>1493.281</ele>
        <time>2019-05-29T10:41:43Z</time>
      </trkpt>
      <trkpt lat="42.586911" lon="2.113779">
        <ele>1493.869</ele>
        <time>2019-05-29T10:41:48Z</time>
      </trkpt>
      <trkpt lat="42.586930" lon="2.113767">
        <ele>1493.882</ele>
        <time>2019-05-29T10:41:49Z</time>
      </trkpt>
      <trkpt lat="42.587014" lon="2.113693">
        <ele>1493.872</ele>
        <time>2019-05-29T10:41:53Z</time>
      </trkpt>
      <trkpt lat="42.587043" lon="2.113587">
        <ele>1493.494</ele>
        <time>2019-05-29T10:41:57Z</time>
      </trkpt>
      <trkpt lat="42.587051" lon="2.113458">
        <ele>1493.859</ele>
        <time>2019-05-29T10:42:02Z</time>
      </trkpt>
      <trkpt lat="42.587028" lon="2.113412">
        <ele>1494.031</ele>
        <time>2019-05-29T10:42:04Z</time>
      </trkpt>
      <trkpt lat="42.587001" lon="2.113330">
        <ele>1494.261</ele>
        <time>2019-05-29T10:42:08Z</time>
      </trkpt>
      <trkpt lat="42.586992" lon="2.113283">
        <ele>1494.207</ele>
        <time>2019-05-29T10:42:10Z</time>
      </trkpt>
      <trkpt lat="42.586998" lon="2.113094">
        <ele>1495.608</ele>
        <time>2019-05-29T10:42:18Z</time>
      </trkpt>
      <trkpt lat="42.587017" lon="2.112936">
        <ele>1495.446</ele>
        <time>2019-05-29T10:42:24Z</time>
      </trkpt>
      <trkpt lat="42.587054" lon="2.112753">
        <ele>1495.470</ele>
        <time>2019-05-29T10:42:32Z</time>
      </trkpt>
      <trkpt lat="42.587069" lon="2.112673">
        <ele>1496.886</ele>
        <time>2019-05-29T10:42:36Z</time>
      </trkpt>
      <trkpt lat="42.587078" lon="2.112615">
        <ele>1497.264</ele>
        <time>2019-05-29T10:42:39Z</time>
      </trkpt>
      <trkpt lat="42.587082" lon="2.112490">
        <ele>1498.057</ele>
        <time>2019-05-29T10:42:45Z</time>
      </trkpt>
      <trkpt lat="42.587081" lon="2.112470">
        <ele>1498.227</ele>
        <time>2019-05-29T10:42:46Z</time>
      </trkpt>
      <trkpt lat="42.587091" lon="2.112372">
        <ele>1498.239</ele>
        <time>2019-05-29T10:42:51Z</time>
      </trkpt>
      <trkpt lat="42.587103" lon="2.112319">
        <ele>1498.014</ele>
        <time>2019-05-29T10:42:53Z</time>
      </trkpt>
      <trkpt lat="42.587143" lon="2.112169">
        <ele>1498.025</ele>
        <time>2019-05-29T10:43:00Z</time>
      </trkpt>
      <trkpt lat="42.587188" lon="2.111972">
        <ele>1498.226</ele>
        <time>2019-05-29T10:43:08Z</time>
      </trkpt>
      <trkpt lat="42.587215" lon="2.111857">
        <ele>1498.608</ele>
        <time>2019-05-29T10:43:14Z</time>
      </trkpt>
      <trkpt lat="42.587226" lon="2.111817">
        <ele>1498.608</ele>
        <time>2019-05-29T10:43:16Z</time>
      </trkpt>
      <trkpt lat="42.587250" lon="2.111751">
        <ele>1498.885</ele>
        <time>2019-05-29T10:43:20Z</time>
      </trkpt>
      <trkpt lat="42.587251" lon="2.111736">
        <ele>1499.219</ele>
        <time>2019-05-29T10:43:21Z</time>
      </trkpt>
      <trkpt lat="42.587284" lon="2.111643">
        <ele>1499.635</ele>
        <time>2019-05-29T10:43:26Z</time>
      </trkpt>
      <trkpt lat="42.587347" lon="2.111468">
        <ele>1499.893</ele>
        <time>2019-05-29T10:43:35Z</time>
      </trkpt>
      <trkpt lat="42.587389" lon="2.111345">
        <ele>1500.266</ele>
        <time>2019-05-29T10:43:41Z</time>
      </trkpt>
      <trkpt lat="42.587433" lon="2.111183">
        <ele>1501.026</ele>
        <time>2019-05-29T10:43:48Z</time>
      </trkpt>
      <trkpt lat="42.587458" lon="2.111086">
        <ele>1501.418</ele>
        <time>2019-05-29T10:43:53Z</time>
      </trkpt>
      <trkpt lat="42.587464" lon="2.111033">
        <ele>1501.253</ele>
        <time>2019-05-29T10:43:56Z</time>
      </trkpt>
      <trkpt lat="42.587506" lon="2.110916">
        <ele>1501.639</ele>
        <time>2019-05-29T10:44:02Z</time>
      </trkpt>
      <trkpt lat="42.587549" lon="2.110791">
        <ele>1501.401</ele>
        <time>2019-05-29T10:44:09Z</time>
      </trkpt>
      <trkpt lat="42.587579" lon="2.110695">
        <ele>1502.221</ele>
        <time>2019-05-29T10:44:14Z</time>
      </trkpt>
      <trkpt lat="42.587618" lon="2.110582">
        <ele>1502.608</ele>
        <time>2019-05-29T10:44:20Z</time>
      </trkpt>
      <trkpt lat="42.587628" lon="2.110543">
        <ele>1502.676</ele>
        <time>2019-05-29T10:44:22Z</time>
      </trkpt>
      <trkpt lat="42.587653" lon="2.110357">
        <ele>1503.680</ele>
        <time>2019-05-29T10:44:31Z</time>
      </trkpt>
      <trkpt lat="42.587646" lon="2.110282">
        <ele>1503.876</ele>
        <time>2019-05-29T10:44:35Z</time>
      </trkpt>
      <trkpt lat="42.587647" lon="2.110246">
        <ele>1504.254</ele>
        <time>2019-05-29T10:44:37Z</time>
      </trkpt>
      <trkpt lat="42.587641" lon="2.110205">
        <ele>1504.627</ele>
        <time>2019-05-29T10:44:39Z</time>
      </trkpt>
      <trkpt lat="42.587634" lon="2.110138">
        <ele>1503.877</ele>
        <time>2019-05-29T10:44:42Z</time>
      </trkpt>
      <trkpt lat="42.587628" lon="2.110121">
        <ele>1503.699</ele>
        <time>2019-05-29T10:44:43Z</time>
      </trkpt>
      <trkpt lat="42.587625" lon="2.110086">
        <ele>1503.854</ele>
        <time>2019-05-29T10:44:45Z</time>
      </trkpt>
      <trkpt lat="42.587623" lon="2.110066">
        <ele>1503.845</ele>
        <time>2019-05-29T10:44:46Z</time>
      </trkpt>
      <trkpt lat="42.587625" lon="2.110024">
        <ele>1504.847</ele>
        <time>2019-05-29T10:44:48Z</time>
      </trkpt>
      <trkpt lat="42.587616" lon="2.109933">
        <ele>1505.611</ele>
        <time>2019-05-29T10:44:53Z</time>
      </trkpt>
      <trkpt lat="42.587612" lon="2.109899">
        <ele>1506.008</ele>
        <time>2019-05-29T10:44:55Z</time>
      </trkpt>
      <trkpt lat="42.587610" lon="2.109812">
        <ele>1506.687</ele>
        <time>2019-05-29T10:45:00Z</time>
      </trkpt>
      <trkpt lat="42.587599" lon="2.109700">
        <ele>1507.041</ele>
        <time>2019-05-29T10:45:06Z</time>
      </trkpt>
      <trkpt lat="42.587597" lon="2.109681">
        <ele>1507.257</ele>
        <time>2019-05-29T10:45:07Z</time>
      </trkpt>
      <trkpt lat="42.587596" lon="2.109594">
        <ele>1508.415</ele>
        <time>2019-05-29T10:45:12Z</time>
      </trkpt>
      <trkpt lat="42.587596" lon="2.109575">
        <ele>1508.628</ele>
        <time>2019-05-29T10:45:13Z</time>
      </trkpt>
      <trkpt lat="42.587587" lon="2.109542">
        <ele>1509.288</ele>
        <time>2019-05-29T10:45:15Z</time>
      </trkpt>
      <trkpt lat="42.587586" lon="2.109527">
        <ele>1509.450</ele>
        <time>2019-05-29T10:45:16Z</time>
      </trkpt>
      <trkpt lat="42.587580" lon="2.109498">
        <ele>1509.695</ele>
        <time>2019-05-29T10:45:18Z</time>
      </trkpt>
      <trkpt lat="42.587579" lon="2.109468">
        <ele>1509.844</ele>
        <time>2019-05-29T10:45:20Z</time>
      </trkpt>
      <trkpt lat="42.587579" lon="2.109447">
        <ele>1510.005</ele>
        <time>2019-05-29T10:45:21Z</time>
      </trkpt>
      <trkpt lat="42.587576" lon="2.109369">
        <ele>1510.415</ele>
        <time>2019-05-29T10:45:25Z</time>
      </trkpt>
      <trkpt lat="42.587571" lon="2.109306">
        <ele>1510.408</ele>
        <time>2019-05-29T10:45:29Z</time>
      </trkpt>
      <trkpt lat="42.587562" lon="2.109193">
        <ele>1510.437</ele>
        <time>2019-05-29T10:45:35Z</time>
      </trkpt>
      <trkpt lat="42.587557" lon="2.109151">
        <ele>1510.651</ele>
        <time>2019-05-29T10:45:37Z</time>
      </trkpt>
      <trkpt lat="42.587551" lon="2.109115">
        <ele>1511.267</ele>
        <time>2019-05-29T10:45:39Z</time>
      </trkpt>
      <trkpt lat="42.587553" lon="2.109101">
        <ele>1511.445</ele>
        <time>2019-05-29T10:45:40Z</time>
      </trkpt>
      <trkpt lat="42.587546" lon="2.109071">
        <ele>1512.058</ele>
        <time>2019-05-29T10:45:42Z</time>
      </trkpt>
      <trkpt lat="42.587548" lon="2.109033">
        <ele>1512.678</ele>
        <time>2019-05-29T10:45:44Z</time>
      </trkpt>
      <trkpt lat="42.587532" lon="2.108969">
        <ele>1513.440</ele>
        <time>2019-05-29T10:45:48Z</time>
      </trkpt>
      <trkpt lat="42.587527" lon="2.108953">
        <ele>1513.635</ele>
        <time>2019-05-29T10:45:49Z</time>
      </trkpt>
      <trkpt lat="42.587507" lon="2.108860">
        <ele>1514.042</ele>
        <time>2019-05-29T10:45:54Z</time>
      </trkpt>
      <trkpt lat="42.587493" lon="2.108801">
        <ele>1514.022</ele>
        <time>2019-05-29T10:45:57Z</time>
      </trkpt>
      <trkpt lat="42.587496" lon="2.108781">
        <ele>1514.214</ele>
        <time>2019-05-29T10:45:58Z</time>
      </trkpt>
      <trkpt lat="42.587503" lon="2.108723">
        <ele>1514.608</ele>
        <time>2019-05-29T10:46:01Z</time>
      </trkpt>
      <trkpt lat="42.587513" lon="2.108670">
        <ele>1515.027</ele>
        <time>2019-05-29T10:46:04Z</time>
      </trkpt>
      <trkpt lat="42.587509" lon="2.108594">
        <ele>1515.641</ele>
        <time>2019-05-29T10:46:08Z</time>
      </trkpt>
      <trkpt lat="42.587512" lon="2.108574">
        <ele>1515.697</ele>
        <time>2019-05-29T10:46:09Z</time>
      </trkpt>
      <trkpt lat="42.587518" lon="2.108482">
        <ele>1515.885</ele>
        <time>2019-05-29T10:46:14Z</time>
      </trkpt>
      <trkpt lat="42.587518" lon="2.108464">
        <ele>1515.878</ele>
        <time>2019-05-29T10:46:15Z</time>
      </trkpt>
      <trkpt lat="42.587523" lon="2.108357">
        <ele>1516.868</ele>
        <time>2019-05-29T10:46:20Z</time>
      </trkpt>
      <trkpt lat="42.587523" lon="2.108340">
        <ele>1517.060</ele>
        <time>2019-05-29T10:46:21Z</time>
      </trkpt>
      <trkpt lat="42.587522" lon="2.108255">
        <ele>1518.245</ele>
        <time>2019-05-29T10:46:26Z</time>
      </trkpt>
      <trkpt lat="42.587528" lon="2.108195">
        <ele>1518.646</ele>
        <time>2019-05-29T10:46:29Z</time>
      </trkpt>
      <trkpt lat="42.587526" lon="2.108093">
        <ele>1518.688</ele>
        <time>2019-05-29T10:46:34Z</time>
      </trkpt>
      <trkpt lat="42.587523" lon="2.108083">
        <ele>1518.616</ele>
        <time>2019-05-29T10:46:35Z</time>
      </trkpt>
      <trkpt lat="42.587524" lon="2.108067">
        <ele>1518.608</ele>
        <time>2019-05-29T10:46:36Z</time>
      </trkpt>
      <trkpt lat="42.587520" lon="2.107978">
        <ele>1518.847</ele>
        <time>2019-05-29T10:46:41Z</time>
      </trkpt>
      <trkpt lat="42.587496" lon="2.107870">
        <ele>1519.441</ele>
        <time>2019-05-29T10:46:46Z</time>
      </trkpt>
      <trkpt lat="42.587481" lon="2.107816">
        <ele>1519.457</ele>
        <time>2019-05-29T10:46:49Z</time>
      </trkpt>
      <trkpt lat="42.587466" lon="2.107726">
        <ele>1520.265</ele>
        <time>2019-05-29T10:46:54Z</time>
      </trkpt>
      <trkpt lat="42.587465" lon="2.107709">
        <ele>1520.498</ele>
        <time>2019-05-29T10:46:55Z</time>
      </trkpt>
      <trkpt lat="42.587467" lon="2.107686">
        <ele>1520.668</ele>
        <time>2019-05-29T10:46:56Z</time>
      </trkpt>
      <trkpt lat="42.587472" lon="2.107602">
        <ele>1520.640</ele>
        <time>2019-05-29T10:47:00Z</time>
      </trkpt>
      <trkpt lat="42.587483" lon="2.107541">
        <ele>1521.225</ele>
        <time>2019-05-29T10:47:03Z</time>
      </trkpt>
      <trkpt lat="42.587480" lon="2.107490">
        <ele>1521.241</ele>
        <time>2019-05-29T10:47:06Z</time>
      </trkpt>
      <trkpt lat="42.587476" lon="2.107474">
        <ele>1521.281</ele>
        <time>2019-05-29T10:47:07Z</time>
      </trkpt>
      <trkpt lat="42.587465" lon="2.107466">
        <ele>1521.009</ele>
        <time>2019-05-29T10:47:08Z</time>
      </trkpt>
      <trkpt lat="42.587443" lon="2.107486">
        <ele>1521.008</ele>
        <time>2019-05-29T10:47:11Z</time>
      </trkpt>
      <trkpt lat="42.587436" lon="2.107506">
        <ele>1520.847</ele>
        <time>2019-05-29T10:47:12Z</time>
      </trkpt>
      <trkpt lat="42.587450" lon="2.107614">
        <ele>1520.241</ele>
        <time>2019-05-29T10:47:17Z</time>
      </trkpt>
      <trkpt lat="42.587413" lon="2.107731">
        <ele>1519.617</ele>
        <time>2019-05-29T10:47:22Z</time>
      </trkpt>
      <trkpt lat="42.587374" lon="2.107777">
        <ele>1520.085</ele>
        <time>2019-05-29T10:47:25Z</time>
      </trkpt>
      <trkpt lat="42.587354" lon="2.107814">
        <ele>1520.228</ele>
        <time>2019-05-29T10:47:27Z</time>
      </trkpt>
      <trkpt lat="42.587265" lon="2.107947">
        <ele>1520.238</ele>
        <time>2019-05-29T10:47:33Z</time>
      </trkpt>
      <trkpt lat="42.587186" lon="2.108056">
        <ele>1519.420</ele>
        <time>2019-05-29T10:47:38Z</time>
      </trkpt>
      <trkpt lat="42.587167" lon="2.108071">
        <ele>1519.255</ele>
        <time>2019-05-29T10:47:39Z</time>
      </trkpt>
      <trkpt lat="42.587088" lon="2.108151">
        <ele>1519.447</ele>
        <time>2019-05-29T10:47:44Z</time>
      </trkpt>
      <trkpt lat="42.587075" lon="2.108144">
        <ele>1519.629</ele>
        <time>2019-05-29T10:47:45Z</time>
      </trkpt>
      <trkpt lat="42.587074" lon="2.108048">
        <ele>1519.821</ele>
        <time>2019-05-29T10:47:49Z</time>
      </trkpt>
      <trkpt lat="42.587074" lon="2.108023">
        <ele>1519.608</ele>
        <time>2019-05-29T10:47:50Z</time>
      </trkpt>
      <trkpt lat="42.587092" lon="2.107891">
        <ele>1520.617</ele>
        <time>2019-05-29T10:47:55Z</time>
      </trkpt>
      <trkpt lat="42.587104" lon="2.107831">
        <ele>1521.221</ele>
        <time>2019-05-29T10:47:57Z</time>
      </trkpt>
      <trkpt lat="42.587135" lon="2.107564">
        <ele>1520.647</ele>
        <time>2019-05-29T10:48:06Z</time>
      </trkpt>
      <trkpt lat="42.587144" lon="2.107424">
        <ele>1521.675</ele>
        <time>2019-05-29T10:48:10Z</time>
      </trkpt>
      <trkpt lat="42.587151" lon="2.107358">
        <ele>1521.868</ele>
        <time>2019-05-29T10:48:12Z</time>
      </trkpt>
      <trkpt lat="42.587163" lon="2.107124">
        <ele>1522.888</ele>
        <time>2019-05-29T10:48:19Z</time>
      </trkpt>
      <trkpt lat="42.587166" lon="2.107094">
        <ele>1522.840</ele>
        <time>2019-05-29T10:48:20Z</time>
      </trkpt>
      <trkpt lat="42.587153" lon="2.106966">
        <ele>1524.015</ele>
        <time>2019-05-29T10:48:24Z</time>
      </trkpt>
      <trkpt lat="42.587141" lon="2.106908">
        <ele>1525.091</ele>
        <time>2019-05-29T10:48:26Z</time>
      </trkpt>
      <trkpt lat="42.587109" lon="2.106803">
        <ele>1525.681</ele>
        <time>2019-05-29T10:48:29Z</time>
      </trkpt>
      <trkpt lat="42.587059" lon="2.106725">
        <ele>1525.419</ele>
        <time>2019-05-29T10:48:32Z</time>
      </trkpt>
      <trkpt lat="42.586990" lon="2.106666">
        <ele>1525.608</ele>
        <time>2019-05-29T10:48:36Z</time>
      </trkpt>
      <trkpt lat="42.586970" lon="2.106652">
        <ele>1525.822</ele>
        <time>2019-05-29T10:48:37Z</time>
      </trkpt>
      <trkpt lat="42.586902" lon="2.106568">
        <ele>1525.436</ele>
        <time>2019-05-29T10:48:42Z</time>
      </trkpt>
      <trkpt lat="42.586840" lon="2.106517">
        <ele>1525.052</ele>
        <time>2019-05-29T10:48:46Z</time>
      </trkpt>
      <trkpt lat="42.586822" lon="2.106495">
        <ele>1525.080</ele>
        <time>2019-05-29T10:48:47Z</time>
      </trkpt>
      <trkpt lat="42.586708" lon="2.106436">
        <ele>1525.413</ele>
        <time>2019-05-29T10:48:53Z</time>
      </trkpt>
      <trkpt lat="42.586670" lon="2.106398">
        <ele>1525.423</ele>
        <time>2019-05-29T10:48:55Z</time>
      </trkpt>
      <trkpt lat="42.586616" lon="2.106388">
        <ele>1525.695</ele>
        <time>2019-05-29T10:48:57Z</time>
      </trkpt>
      <trkpt lat="42.586547" lon="2.106346">
        <ele>1525.660</ele>
        <time>2019-05-29T10:49:00Z</time>
      </trkpt>
      <trkpt lat="42.586480" lon="2.106301">
        <ele>1525.653</ele>
        <time>2019-05-29T10:49:03Z</time>
      </trkpt>
      <trkpt lat="42.586367" lon="2.106274">
        <ele>1526.004</ele>
        <time>2019-05-29T10:49:07Z</time>
      </trkpt>
      <trkpt lat="42.586336" lon="2.106268">
        <ele>1526.014</ele>
        <time>2019-05-29T10:49:08Z</time>
      </trkpt>
      <trkpt lat="42.586213" lon="2.106213">
        <ele>1526.008</ele>
        <time>2019-05-29T10:49:13Z</time>
      </trkpt>
      <trkpt lat="42.586067" lon="2.106204">
        <ele>1525.888</ele>
        <time>2019-05-29T10:49:18Z</time>
      </trkpt>
      <trkpt lat="42.585962" lon="2.106169">
        <ele>1526.042</ele>
        <time>2019-05-29T10:49:22Z</time>
      </trkpt>
      <trkpt lat="42.585736" lon="2.106139">
        <ele>1526.028</ele>
        <time>2019-05-29T10:49:35Z</time>
      </trkpt>
      <trkpt lat="42.585635" lon="2.106116">
        <ele>1524.816</ele>
        <time>2019-05-29T10:49:38Z</time>
      </trkpt>
      <trkpt lat="42.585542" lon="2.106103">
        <ele>1524.899</ele>
        <time>2019-05-29T10:49:42Z</time>
      </trkpt>
      <trkpt lat="42.585522" lon="2.106092">
        <ele>1524.699</ele>
        <time>2019-05-29T10:49:43Z</time>
      </trkpt>
      <trkpt lat="42.585429" lon="2.106072">
        <ele>1524.091</ele>
        <time>2019-05-29T10:49:47Z</time>
      </trkpt>
      <trkpt lat="42.585413" lon="2.106061">
        <ele>1523.646</ele>
        <time>2019-05-29T10:49:48Z</time>
      </trkpt>
      <trkpt lat="42.585325" lon="2.106058">
        <ele>1523.425</ele>
        <time>2019-05-29T10:49:51Z</time>
      </trkpt>
      <trkpt lat="42.585272" lon="2.106054">
        <ele>1523.426</ele>
        <time>2019-05-29T10:49:53Z</time>
      </trkpt>
      <trkpt lat="42.585234" lon="2.106052">
        <ele>1523.408</ele>
        <time>2019-05-29T10:49:54Z</time>
      </trkpt>
      <trkpt lat="42.585201" lon="2.106049">
        <ele>1523.408</ele>
        <time>2019-05-29T10:49:55Z</time>
      </trkpt>
      <trkpt lat="42.585115" lon="2.106057">
        <ele>1523.455</ele>
        <time>2019-05-29T10:49:58Z</time>
      </trkpt>
      <trkpt lat="42.585083" lon="2.106047">
        <ele>1523.419</ele>
        <time>2019-05-29T10:49:59Z</time>
      </trkpt>
      <trkpt lat="42.584961" lon="2.106059">
        <ele>1523.855</ele>
        <time>2019-05-29T10:50:03Z</time>
      </trkpt>
      <trkpt lat="42.584823" lon="2.106024">
        <ele>1524.493</ele>
        <time>2019-05-29T10:50:08Z</time>
      </trkpt>
      <trkpt lat="42.584790" lon="2.106022">
        <ele>1524.456</ele>
        <time>2019-05-29T10:50:09Z</time>
      </trkpt>
      <trkpt lat="42.584639" lon="2.106033">
        <ele>1524.256</ele>
        <time>2019-05-29T10:50:14Z</time>
      </trkpt>
      <trkpt lat="42.584520" lon="2.106031">
        <ele>1524.018</ele>
        <time>2019-05-29T10:50:18Z</time>
      </trkpt>
      <trkpt lat="42.584499" lon="2.106028">
        <ele>1524.283</ele>
        <time>2019-05-29T10:50:19Z</time>
      </trkpt>
      <trkpt lat="42.584397" lon="2.106010">
        <ele>1524.019</ele>
        <time>2019-05-29T10:50:23Z</time>
      </trkpt>
      <trkpt lat="42.584315" lon="2.106009">
        <ele>1524.009</ele>
        <time>2019-05-29T10:50:26Z</time>
      </trkpt>
      <trkpt lat="42.584280" lon="2.105999">
        <ele>1524.019</ele>
        <time>2019-05-29T10:50:27Z</time>
      </trkpt>
      <trkpt lat="42.584114" lon="2.106008">
        <ele>1524.008</ele>
        <time>2019-05-29T10:50:34Z</time>
      </trkpt>
      <trkpt lat="42.583780" lon="2.105965">
        <ele>1524.294</ele>
        <time>2019-05-29T10:50:47Z</time>
      </trkpt>
      <trkpt lat="42.583742" lon="2.105940">
        <ele>1523.638</ele>
        <time>2019-05-29T10:50:49Z</time>
      </trkpt>
      <trkpt lat="42.583523" lon="2.105944">
        <ele>1523.884</ele>
        <time>2019-05-29T10:50:56Z</time>
      </trkpt>
      <trkpt lat="42.583490" lon="2.105944">
        <ele>1523.862</ele>
        <time>2019-05-29T10:50:57Z</time>
      </trkpt>
      <trkpt lat="42.583364" lon="2.105954">
        <ele>1523.815</ele>
        <time>2019-05-29T10:51:00Z</time>
      </trkpt>
      <trkpt lat="42.583280" lon="2.105984">
        <ele>1523.815</ele>
        <time>2019-05-29T10:51:03Z</time>
      </trkpt>
      <trkpt lat="42.583191" lon="2.105976">
        <ele>1523.677</ele>
        <time>2019-05-29T10:51:06Z</time>
      </trkpt>
      <trkpt lat="42.583069" lon="2.105911">
        <ele>1523.632</ele>
        <time>2019-05-29T10:51:10Z</time>
      </trkpt>
      <trkpt lat="42.583047" lon="2.105896">
        <ele>1523.426</ele>
        <time>2019-05-29T10:51:11Z</time>
      </trkpt>
      <trkpt lat="42.582973" lon="2.105857">
        <ele>1523.247</ele>
        <time>2019-05-29T10:51:15Z</time>
      </trkpt>
      <trkpt lat="42.582935" lon="2.105848">
        <ele>1523.211</ele>
        <time>2019-05-29T10:51:17Z</time>
      </trkpt>
      <trkpt lat="42.582919" lon="2.105837">
        <ele>1523.208</ele>
        <time>2019-05-29T10:51:18Z</time>
      </trkpt>
      <trkpt lat="42.582905" lon="2.105835">
        <ele>1522.845</ele>
        <time>2019-05-29T10:51:19Z</time>
      </trkpt>
      <trkpt lat="42.582854" lon="2.105828">
        <ele>1522.699</ele>
        <time>2019-05-29T10:51:21Z</time>
      </trkpt>
      <trkpt lat="42.582779" lon="2.105828">
        <ele>1522.465</ele>
        <time>2019-05-29T10:51:23Z</time>
      </trkpt>
      <trkpt lat="42.582719" lon="2.105810">
        <ele>1522.433</ele>
        <time>2019-05-29T10:51:25Z</time>
      </trkpt>
      <trkpt lat="42.582647" lon="2.105793">
        <ele>1522.876</ele>
        <time>2019-05-29T10:51:28Z</time>
      </trkpt>
      <trkpt lat="42.582628" lon="2.105789">
        <ele>1522.896</ele>
        <time>2019-05-29T10:51:29Z</time>
      </trkpt>
      <trkpt lat="42.582530" lon="2.105784">
        <ele>1522.678</ele>
        <time>2019-05-29T10:51:32Z</time>
      </trkpt>
      <trkpt lat="42.582326" lon="2.105796">
        <ele>1522.863</ele>
        <time>2019-05-29T10:51:37Z</time>
      </trkpt>
      <trkpt lat="42.582297" lon="2.105790">
        <ele>1523.444</ele>
        <time>2019-05-29T10:51:38Z</time>
      </trkpt>
      <trkpt lat="42.582265" lon="2.105786">
        <ele>1524.005</ele>
        <time>2019-05-29T10:51:39Z</time>
      </trkpt>
      <trkpt lat="42.582186" lon="2.105779">
        <ele>1524.215</ele>
        <time>2019-05-29T10:51:41Z</time>
      </trkpt>
      <trkpt lat="42.581978" lon="2.105781">
        <ele>1523.408</ele>
        <time>2019-05-29T10:51:47Z</time>
      </trkpt>
      <trkpt lat="42.581880" lon="2.105666">
        <ele>1523.247</ele>
        <time>2019-05-29T10:51:52Z</time>
      </trkpt>
      <trkpt lat="42.581791" lon="2.105553">
        <ele>1522.881</ele>
        <time>2019-05-29T10:51:56Z</time>
      </trkpt>
      <trkpt lat="42.581766" lon="2.105526">
        <ele>1522.837</ele>
        <time>2019-05-29T10:51:57Z</time>
      </trkpt>
      <trkpt lat="42.581662" lon="2.105348">
        <ele>1523.095</ele>
        <time>2019-05-29T10:52:02Z</time>
      </trkpt>
      <trkpt lat="42.581529" lon="2.104980">
        <ele>1523.018</ele>
        <time>2019-05-29T10:52:10Z</time>
      </trkpt>
      <trkpt lat="42.581421" lon="2.104731">
        <ele>1523.268</ele>
        <time>2019-05-29T10:52:16Z</time>
      </trkpt>
      <trkpt lat="42.581250" lon="2.104607">
        <ele>1523.440</ele>
        <time>2019-05-29T10:52:22Z</time>
      </trkpt>
      <trkpt lat="42.581171" lon="2.104645">
        <ele>1523.495</ele>
        <time>2019-05-29T10:52:26Z</time>
      </trkpt>
      <trkpt lat="42.581145" lon="2.104642">
        <ele>1523.443</ele>
        <time>2019-05-29T10:52:27Z</time>
      </trkpt>
      <trkpt lat="42.581043" lon="2.104599">
        <ele>1523.464</ele>
        <time>2019-05-29T10:52:31Z</time>
      </trkpt>
      <trkpt lat="42.580915" lon="2.104609">
        <ele>1523.210</ele>
        <time>2019-05-29T10:52:36Z</time>
      </trkpt>
      <trkpt lat="42.580865" lon="2.104645">
        <ele>1522.608</ele>
        <time>2019-05-29T10:52:52Z</time>
      </trkpt>
      <trkpt lat="42.580895" lon="2.104583">
        <ele>1523.447</ele>
        <time>2019-05-29T10:52:57Z</time>
      </trkpt>
      <trkpt lat="42.580305" lon="2.104459">
        <ele>1522.221</ele>
        <time>2019-05-29T10:53:33Z</time>
      </trkpt>
      <trkpt lat="42.580247" lon="2.104472">
        <ele>1522.237</ele>
        <time>2019-05-29T10:53:35Z</time>
      </trkpt>
      <trkpt lat="42.580187" lon="2.104510">
        <ele>1522.055</ele>
        <time>2019-05-29T10:53:48Z</time>
      </trkpt>
      <trkpt lat="42.580193" lon="2.104506">
        <ele>1522.218</ele>
        <time>2019-05-29T10:53:49Z</time>
      </trkpt>
      <trkpt lat="42.580239" lon="2.104497">
        <ele>1522.268</ele>
        <time>2019-05-29T10:53:52Z</time>
      </trkpt>
      <trkpt lat="42.580250" lon="2.104485">
        <ele>1522.270</ele>
        <time>2019-05-29T10:53:53Z</time>
      </trkpt>
      <trkpt lat="42.580334" lon="2.104440">
        <ele>1522.685</ele>
        <time>2019-05-29T10:53:58Z</time>
      </trkpt>
      <trkpt lat="42.580354" lon="2.104406">
        <ele>1522.843</ele>
        <time>2019-05-29T10:54:00Z</time>
      </trkpt>
      <trkpt lat="42.580381" lon="2.104362">
        <ele>1522.864</ele>
        <time>2019-05-29T10:54:03Z</time>
      </trkpt>
      <trkpt lat="42.580428" lon="2.104286">
        <ele>1523.410</ele>
        <time>2019-05-29T10:54:08Z</time>
      </trkpt>
      <trkpt lat="42.580446" lon="2.104248">
        <ele>1523.408</ele>
        <time>2019-05-29T10:54:10Z</time>
      </trkpt>
      <trkpt lat="42.580499" lon="2.104202">
        <ele>1524.077</ele>
        <time>2019-05-29T10:54:13Z</time>
      </trkpt>
      <trkpt lat="42.580508" lon="2.104178">
        <ele>1524.281</ele>
        <time>2019-05-29T10:54:15Z</time>
      </trkpt>
      <trkpt lat="42.580506" lon="2.104157">
        <ele>1524.237</ele>
        <time>2019-05-29T10:54:16Z</time>
      </trkpt>
      <trkpt lat="42.580461" lon="2.104077">
        <ele>1524.625</ele>
        <time>2019-05-29T10:54:20Z</time>
      </trkpt>
      <trkpt lat="42.580452" lon="2.104046">
        <ele>1524.418</ele>
        <time>2019-05-29T10:54:21Z</time>
      </trkpt>
      <trkpt lat="42.580400" lon="2.103981">
        <ele>1524.468</ele>
        <time>2019-05-29T10:54:24Z</time>
      </trkpt>
      <trkpt lat="42.580315" lon="2.103811">
        <ele>1524.820</ele>
        <time>2019-05-29T10:54:30Z</time>
      </trkpt>
      <trkpt lat="42.580310" lon="2.103786">
        <ele>1524.895</ele>
        <time>2019-05-29T10:54:31Z</time>
      </trkpt>
      <trkpt lat="42.580288" lon="2.103656">
        <ele>1524.441</ele>
        <time>2019-05-29T10:54:35Z</time>
      </trkpt>
      <trkpt lat="42.580205" lon="2.103571">
        <ele>1524.481</ele>
        <time>2019-05-29T10:54:39Z</time>
      </trkpt>
      <trkpt lat="42.580162" lon="2.103455">
        <ele>1524.609</ele>
        <time>2019-05-29T10:54:43Z</time>
      </trkpt>
      <trkpt lat="42.580049" lon="2.103212">
        <ele>1524.808</ele>
        <time>2019-05-29T10:54:50Z</time>
      </trkpt>
      <trkpt lat="42.579945" lon="2.103037">
        <ele>1524.647</ele>
        <time>2019-05-29T10:54:55Z</time>
      </trkpt>
      <trkpt lat="42.579793" lon="2.102821">
        <ele>1524.841</ele>
        <time>2019-05-29T10:55:01Z</time>
      </trkpt>
      <trkpt lat="42.579736" lon="2.102713">
        <ele>1525.027</ele>
        <time>2019-05-29T10:55:04Z</time>
      </trkpt>
      <trkpt lat="42.579701" lon="2.102647">
        <ele>1525.265</ele>
        <time>2019-05-29T10:55:06Z</time>
      </trkpt>
      <trkpt lat="42.579665" lon="2.102469">
        <ele>1525.258</ele>
        <time>2019-05-29T10:55:11Z</time>
      </trkpt>
      <trkpt lat="42.579681" lon="2.102408">
        <ele>1526.038</ele>
        <time>2019-05-29T10:55:13Z</time>
      </trkpt>
      <trkpt lat="42.579683" lon="2.102382">
        <ele>1526.210</ele>
        <time>2019-05-29T10:55:14Z</time>
      </trkpt>
      <trkpt lat="42.579687" lon="2.102361">
        <ele>1526.245</ele>
        <time>2019-05-29T10:55:15Z</time>
      </trkpt>
      <trkpt lat="42.579694" lon="2.102326">
        <ele>1526.211</ele>
        <time>2019-05-29T10:55:17Z</time>
      </trkpt>
      <trkpt lat="42.579684" lon="2.102304">
        <ele>1525.821</ele>
        <time>2019-05-29T10:55:20Z</time>
      </trkpt>
      <trkpt lat="42.579609" lon="2.102302">
        <ele>1525.603</ele>
        <time>2019-05-29T10:55:51Z</time>
      </trkpt>
      <trkpt lat="42.579589" lon="2.102339">
        <ele>1525.208</ele>
        <time>2019-05-29T10:55:53Z</time>
      </trkpt>
      <trkpt lat="42.579575" lon="2.102356">
        <ele>1525.074</ele>
        <time>2019-05-29T10:55:54Z</time>
      </trkpt>
      <trkpt lat="42.579505" lon="2.102452">
        <ele>1524.488</ele>
        <time>2019-05-29T10:56:02Z</time>
      </trkpt>
      <trkpt lat="42.579440" lon="2.102513">
        <ele>1523.874</ele>
        <time>2019-05-29T10:56:05Z</time>
      </trkpt>
      <trkpt lat="42.579281" lon="2.102656">
        <ele>1523.032</ele>
        <time>2019-05-29T10:56:10Z</time>
      </trkpt>
      <trkpt lat="42.579235" lon="2.102718">
        <ele>1522.645</ele>
        <time>2019-05-29T10:56:12Z</time>
      </trkpt>
      <trkpt lat="42.579140" lon="2.102817">
        <ele>1522.435</ele>
        <time>2019-05-29T10:56:16Z</time>
      </trkpt>
      <trkpt lat="42.579022" lon="2.102862">
        <ele>1522.887</ele>
        <time>2019-05-29T10:56:24Z</time>
      </trkpt>
      <trkpt lat="42.579040" lon="2.102821">
        <ele>1522.662</ele>
        <time>2019-05-29T10:56:26Z</time>
      </trkpt>
      <trkpt lat="42.579064" lon="2.102700">
        <ele>1523.213</ele>
        <time>2019-05-29T10:56:31Z</time>
      </trkpt>
      <trkpt lat="42.579060" lon="2.102668">
        <ele>1523.243</ele>
        <time>2019-05-29T10:56:32Z</time>
      </trkpt>
      <trkpt lat="42.579013" lon="2.102606">
        <ele>1522.807</ele>
        <time>2019-05-29T10:56:35Z</time>
      </trkpt>
      <trkpt lat="42.578841" lon="2.102530">
        <ele>1522.608</ele>
        <time>2019-05-29T10:56:41Z</time>
      </trkpt>
      <trkpt lat="42.578734" lon="2.102519">
        <ele>1522.624</ele>
        <time>2019-05-29T10:56:46Z</time>
      </trkpt>
      <trkpt lat="42.578604" lon="2.102549">
        <ele>1521.668</ele>
        <time>2019-05-29T10:56:50Z</time>
      </trkpt>
      <trkpt lat="42.578479" lon="2.102605">
        <ele>1521.414</ele>
        <time>2019-05-29T10:56:54Z</time>
      </trkpt>
      <trkpt lat="42.578475" lon="2.102599">
        <ele>1521.472</ele>
        <time>2019-05-29T10:56:55Z</time>
      </trkpt>
      <trkpt lat="42.578327" lon="2.102721">
        <ele>1521.685</ele>
        <time>2019-05-29T10:57:03Z</time>
      </trkpt>
      <trkpt lat="42.578336" lon="2.102710">
        <ele>1521.815</ele>
        <time>2019-05-29T10:57:04Z</time>
      </trkpt>
      <trkpt lat="42.578209" lon="2.102834">
        <ele>1521.647</ele>
        <time>2019-05-29T10:57:08Z</time>
      </trkpt>
      <trkpt lat="42.578200" lon="2.102889">
        <ele>1521.262</ele>
        <time>2019-05-29T10:57:10Z</time>
      </trkpt>
      <trkpt lat="42.578185" lon="2.102917">
        <ele>1521.026</ele>
        <time>2019-05-29T10:57:12Z</time>
      </trkpt>
      <trkpt lat="42.578091" lon="2.102932">
        <ele>1520.847</ele>
        <time>2019-05-29T10:57:15Z</time>
      </trkpt>
      <trkpt lat="42.577927" lon="2.102941">
        <ele>1521.211</ele>
        <time>2019-05-29T10:57:19Z</time>
      </trkpt>
      <trkpt lat="42.577741" lon="2.102973">
        <ele>1521.208</ele>
        <time>2019-05-29T10:57:24Z</time>
      </trkpt>
      <trkpt lat="42.577681" lon="2.103042">
        <ele>1521.675</ele>
        <time>2019-05-29T10:57:28Z</time>
      </trkpt>
      <trkpt lat="42.577616" lon="2.103051">
        <ele>1521.049</ele>
        <time>2019-05-29T10:57:32Z</time>
      </trkpt>
      <trkpt lat="42.577593" lon="2.103044">
        <ele>1521.265</ele>
        <time>2019-05-29T10:57:33Z</time>
      </trkpt>
      <trkpt lat="42.577471" lon="2.103068">
        <ele>1521.093</ele>
        <time>2019-05-29T10:57:48Z</time>
      </trkpt>
      <trkpt lat="42.577490" lon="2.103076">
        <ele>1521.016</ele>
        <time>2019-05-29T10:57:49Z</time>
      </trkpt>
      <trkpt lat="42.577501" lon="2.103091">
        <ele>1520.686</ele>
        <time>2019-05-29T10:57:50Z</time>
      </trkpt>
      <trkpt lat="42.577518" lon="2.103107">
        <ele>1520.428</ele>
        <time>2019-05-29T10:57:51Z</time>
      </trkpt>
      <trkpt lat="42.577625" lon="2.103117">
        <ele>1520.253</ele>
        <time>2019-05-29T10:57:55Z</time>
      </trkpt>
      <trkpt lat="42.577793" lon="2.103110">
        <ele>1519.815</ele>
        <time>2019-05-29T10:58:01Z</time>
      </trkpt>
      <trkpt lat="42.577887" lon="2.103073">
        <ele>1520.265</ele>
        <time>2019-05-29T10:58:05Z</time>
      </trkpt>
      <trkpt lat="42.577917" lon="2.103045">
        <ele>1520.211</ele>
        <time>2019-05-29T10:58:06Z</time>
      </trkpt>
      <trkpt lat="42.578000" lon="2.102925">
        <ele>1521.408</ele>
        <time>2019-05-29T10:58:11Z</time>
      </trkpt>
      <trkpt lat="42.578007" lon="2.102857">
        <ele>1522.044</ele>
        <time>2019-05-29T10:58:15Z</time>
      </trkpt>
      <trkpt lat="42.577999" lon="2.102853">
        <ele>1522.068</ele>
        <time>2019-05-29T10:58:16Z</time>
      </trkpt>
      <trkpt lat="42.577901" lon="2.102758">
        <ele>1522.224</ele>
        <time>2019-05-29T10:58:21Z</time>
      </trkpt>
      <trkpt lat="42.577779" lon="2.102683">
        <ele>1522.252</ele>
        <time>2019-05-29T10:58:27Z</time>
      </trkpt>
      <trkpt lat="42.577732" lon="2.102651">
        <ele>1522.415</ele>
        <time>2019-05-29T10:58:29Z</time>
      </trkpt>
      <trkpt lat="42.577673" lon="2.102614">
        <ele>1522.445</ele>
        <time>2019-05-29T10:58:32Z</time>
      </trkpt>
      <trkpt lat="42.577566" lon="2.102553">
        <ele>1522.237</ele>
        <time>2019-05-29T10:58:37Z</time>
      </trkpt>
      <trkpt lat="42.577534" lon="2.102536">
        <ele>1522.272</ele>
        <time>2019-05-29T10:58:38Z</time>
      </trkpt>
      <trkpt lat="42.577378" lon="2.102476">
        <ele>1522.224</ele>
        <time>2019-05-29T10:58:43Z</time>
      </trkpt>
      <trkpt lat="42.577255" lon="2.102346">
        <ele>1522.404</ele>
        <time>2019-05-29T10:58:48Z</time>
      </trkpt>
      <trkpt lat="42.577141" lon="2.102247">
        <ele>1522.414</ele>
        <time>2019-05-29T10:58:53Z</time>
      </trkpt>
      <trkpt lat="42.577085" lon="2.102182">
        <ele>1522.408</ele>
        <time>2019-05-29T10:58:56Z</time>
      </trkpt>
      <trkpt lat="42.577051" lon="2.102120">
        <ele>1522.445</ele>
        <time>2019-05-29T10:58:58Z</time>
      </trkpt>
      <trkpt lat="42.576960" lon="2.102065">
        <ele>1522.269</ele>
        <time>2019-05-29T10:59:01Z</time>
      </trkpt>
      <trkpt lat="42.576933" lon="2.102036">
        <ele>1522.045</ele>
        <time>2019-05-29T10:59:02Z</time>
      </trkpt>
      <trkpt lat="42.576795" lon="2.101856">
        <ele>1522.253</ele>
        <time>2019-05-29T10:59:07Z</time>
      </trkpt>
      <trkpt lat="42.576583" lon="2.101710">
        <ele>1521.876</ele>
        <time>2019-05-29T10:59:14Z</time>
      </trkpt>
      <trkpt lat="42.576532" lon="2.101705">
        <ele>1521.426</ele>
        <time>2019-05-29T10:59:15Z</time>
      </trkpt>
      <trkpt lat="42.576462" lon="2.101661">
        <ele>1521.078</ele>
        <time>2019-05-29T10:59:17Z</time>
      </trkpt>
      <trkpt lat="42.576380" lon="2.101560">
        <ele>1520.813</ele>
        <time>2019-05-29T10:59:20Z</time>
      </trkpt>
      <trkpt lat="42.576331" lon="2.101506">
        <ele>1520.869</ele>
        <time>2019-05-29T10:59:22Z</time>
      </trkpt>
      <trkpt lat="42.576212" lon="2.101375">
        <ele>1522.004</ele>
        <time>2019-05-29T10:59:27Z</time>
      </trkpt>
      <trkpt lat="42.576109" lon="2.101309">
        <ele>1522.024</ele>
        <time>2019-05-29T10:59:32Z</time>
      </trkpt>
      <trkpt lat="42.576069" lon="2.101327">
        <ele>1521.408</ele>
        <time>2019-05-29T10:59:35Z</time>
      </trkpt>
      <trkpt lat="42.576059" lon="2.101366">
        <ele>1521.089</ele>
        <time>2019-05-29T10:59:37Z</time>
      </trkpt>
      <trkpt lat="42.576044" lon="2.101375">
        <ele>1521.243</ele>
        <time>2019-05-29T10:59:38Z</time>
      </trkpt>
      <trkpt lat="42.575947" lon="2.101356">
        <ele>1522.039</ele>
        <time>2019-05-29T10:59:41Z</time>
      </trkpt>
      <trkpt lat="42.575927" lon="2.101335">
        <ele>1521.897</ele>
        <time>2019-05-29T10:59:42Z</time>
      </trkpt>
      <trkpt lat="42.575798" lon="2.101330">
        <ele>1522.280</ele>
        <time>2019-05-29T10:59:45Z</time>
      </trkpt>
      <trkpt lat="42.575678" lon="2.101336">
        <ele>1521.610</ele>
        <time>2019-05-29T11:00:08Z</time>
      </trkpt>
      <trkpt lat="42.575559" lon="2.101341">
        <ele>1522.822</ele>
        <time>2019-05-29T11:00:09Z</time>
      </trkpt>
      <trkpt lat="42.575479" lon="2.101334">
        <ele>1521.887</ele>
        <time>2019-05-29T11:00:13Z</time>
      </trkpt>
      <trkpt lat="42.575384" lon="2.101269">
        <ele>1521.226</ele>
        <time>2019-05-29T11:00:21Z</time>
      </trkpt>
      <trkpt lat="42.575335" lon="2.101246">
        <ele>1521.247</ele>
        <time>2019-05-29T11:00:23Z</time>
      </trkpt>
      <trkpt lat="42.575249" lon="2.101226">
        <ele>1521.411</ele>
        <time>2019-05-29T11:00:25Z</time>
      </trkpt>
      <trkpt lat="42.575190" lon="2.101203">
        <ele>1522.008</ele>
        <time>2019-05-29T11:00:27Z</time>
      </trkpt>
      <trkpt lat="42.575077" lon="2.101099">
        <ele>1521.825</ele>
        <time>2019-05-29T11:00:32Z</time>
      </trkpt>
      <trkpt lat="42.574941" lon="2.100928">
        <ele>1521.659</ele>
        <time>2019-05-29T11:00:38Z</time>
      </trkpt>
      <trkpt lat="42.574873" lon="2.100861">
        <ele>1521.665</ele>
        <time>2019-05-29T11:00:41Z</time>
      </trkpt>
      <trkpt lat="42.574827" lon="2.100830">
        <ele>1521.843</ele>
        <time>2019-05-29T11:00:43Z</time>
      </trkpt>
      <trkpt lat="42.574686" lon="2.100711">
        <ele>1521.636</ele>
        <time>2019-05-29T11:00:48Z</time>
      </trkpt>
      <trkpt lat="42.574566" lon="2.100581">
        <ele>1521.446</ele>
        <time>2019-05-29T11:00:53Z</time>
      </trkpt>
      <trkpt lat="42.574502" lon="2.100394">
        <ele>1520.858</ele>
        <time>2019-05-29T11:00:58Z</time>
      </trkpt>
      <trkpt lat="42.574496" lon="2.100258">
        <ele>1521.263</ele>
        <time>2019-05-29T11:01:03Z</time>
      </trkpt>
      <trkpt lat="42.574518" lon="2.100057">
        <ele>1521.026</ele>
        <time>2019-05-29T11:01:09Z</time>
      </trkpt>
      <trkpt lat="42.574541" lon="2.099737">
        <ele>1521.647</ele>
        <time>2019-05-29T11:01:17Z</time>
      </trkpt>
      <trkpt lat="42.574572" lon="2.099492">
        <ele>1521.411</ele>
        <time>2019-05-29T11:01:24Z</time>
      </trkpt>
      <trkpt lat="42.574591" lon="2.099219">
        <ele>1521.208</ele>
        <time>2019-05-29T11:01:31Z</time>
      </trkpt>
      <trkpt lat="42.574577" lon="2.099023">
        <ele>1522.675</ele>
        <time>2019-05-29T11:01:36Z</time>
      </trkpt>
      <trkpt lat="42.574574" lon="2.098978">
        <ele>1522.849</ele>
        <time>2019-05-29T11:01:37Z</time>
      </trkpt>
      <trkpt lat="42.574588" lon="2.098768">
        <ele>1522.635</ele>
        <time>2019-05-29T11:01:43Z</time>
      </trkpt>
      <trkpt lat="42.574547" lon="2.098694">
        <ele>1523.093</ele>
        <time>2019-05-29T11:01:46Z</time>
      </trkpt>
      <trkpt lat="42.574495" lon="2.098662">
        <ele>1522.666</ele>
        <time>2019-05-29T11:01:48Z</time>
      </trkpt>
      <trkpt lat="42.574333" lon="2.098613">
        <ele>1522.266</ele>
        <time>2019-05-29T11:01:54Z</time>
      </trkpt>
      <trkpt lat="42.574200" lon="2.098603">
        <ele>1521.868</ele>
        <time>2019-05-29T11:02:00Z</time>
      </trkpt>
      <trkpt lat="42.574181" lon="2.098595">
        <ele>1521.473</ele>
        <time>2019-05-29T11:02:01Z</time>
      </trkpt>
      <trkpt lat="42.574099" lon="2.098576">
        <ele>1520.416</ele>
        <time>2019-05-29T11:02:05Z</time>
      </trkpt>
      <trkpt lat="42.574069" lon="2.098566">
        <ele>1520.076</ele>
        <time>2019-05-29T11:02:06Z</time>
      </trkpt>
      <trkpt lat="42.574035" lon="2.098553">
        <ele>1519.413</ele>
        <time>2019-05-29T11:02:07Z</time>
      </trkpt>
      <trkpt lat="42.573918" lon="2.098522">
        <ele>1518.408</ele>
        <time>2019-05-29T11:02:10Z</time>
      </trkpt>
      <trkpt lat="42.573850" lon="2.098499">
        <ele>1518.284</ele>
        <time>2019-05-29T11:02:12Z</time>
      </trkpt>
      <trkpt lat="42.573645" lon="2.098444">
        <ele>1519.238</ele>
        <time>2019-05-29T11:02:19Z</time>
      </trkpt>
      <trkpt lat="42.573626" lon="2.098438">
        <ele>1519.894</ele>
        <time>2019-05-29T11:02:20Z</time>
      </trkpt>
      <trkpt lat="42.573553" lon="2.098437">
        <ele>1520.832</ele>
        <time>2019-05-29T11:02:24Z</time>
      </trkpt>
      <trkpt lat="42.573538" lon="2.098422">
        <ele>1520.835</ele>
        <time>2019-05-29T11:02:25Z</time>
      </trkpt>
      <trkpt lat="42.573524" lon="2.098396">
        <ele>1521.245</ele>
        <time>2019-05-29T11:02:26Z</time>
      </trkpt>
      <trkpt lat="42.573541" lon="2.098324">
        <ele>1520.667</ele>
        <time>2019-05-29T11:02:29Z</time>
      </trkpt>
      <trkpt lat="42.573623" lon="2.098243">
        <ele>1521.012</ele>
        <time>2019-05-29T11:02:33Z</time>
      </trkpt>
      <trkpt lat="42.573653" lon="2.098134">
        <ele>1521.831</ele>
        <time>2019-05-29T11:02:37Z</time>
      </trkpt>
      <trkpt lat="42.573720" lon="2.097971">
        <ele>1522.061</ele>
        <time>2019-05-29T11:02:43Z</time>
      </trkpt>
      <trkpt lat="42.573772" lon="2.097837">
        <ele>1521.807</ele>
        <time>2019-05-29T11:02:48Z</time>
      </trkpt>
      <trkpt lat="42.573840" lon="2.097664">
        <ele>1522.408</ele>
        <time>2019-05-29T11:02:54Z</time>
      </trkpt>
      <trkpt lat="42.573856" lon="2.097636">
        <ele>1522.846</ele>
        <time>2019-05-29T11:02:55Z</time>
      </trkpt>
      <trkpt lat="42.573926" lon="2.097526">
        <ele>1522.860</ele>
        <time>2019-05-29T11:02:59Z</time>
      </trkpt>
      <trkpt lat="42.573929" lon="2.097465">
        <ele>1522.836</ele>
        <time>2019-05-29T11:03:01Z</time>
      </trkpt>
      <trkpt lat="42.573915" lon="2.097420">
        <ele>1523.034</ele>
        <time>2019-05-29T11:03:03Z</time>
      </trkpt>
      <trkpt lat="42.573890" lon="2.097394">
        <ele>1523.417</ele>
        <time>2019-05-29T11:03:05Z</time>
      </trkpt>
      <trkpt lat="42.573827" lon="2.097347">
        <ele>1523.897</ele>
        <time>2019-05-29T11:03:09Z</time>
      </trkpt>
      <trkpt lat="42.573809" lon="2.097331">
        <ele>1523.869</ele>
        <time>2019-05-29T11:03:10Z</time>
      </trkpt>
      <trkpt lat="42.573707" lon="2.097247">
        <ele>1524.484</ele>
        <time>2019-05-29T11:03:15Z</time>
      </trkpt>
      <trkpt lat="42.573646" lon="2.097145">
        <ele>1524.692</ele>
        <time>2019-05-29T11:03:19Z</time>
      </trkpt>
      <trkpt lat="42.573644" lon="2.097105">
        <ele>1524.673</ele>
        <time>2019-05-29T11:03:20Z</time>
      </trkpt>
      <trkpt lat="42.573645" lon="2.096925">
        <ele>1525.220</ele>
        <time>2019-05-29T11:03:25Z</time>
      </trkpt>
      <trkpt lat="42.573634" lon="2.096896">
        <ele>1525.208</ele>
        <time>2019-05-29T11:03:26Z</time>
      </trkpt>
      <trkpt lat="42.573538" lon="2.096798">
        <ele>1524.672</ele>
        <time>2019-05-29T11:03:31Z</time>
      </trkpt>
      <trkpt lat="42.573472" lon="2.096905">
        <ele>1524.646</ele>
        <time>2019-05-29T11:03:35Z</time>
      </trkpt>
      <trkpt lat="42.573454" lon="2.096958">
        <ele>1524.442</ele>
        <time>2019-05-29T11:03:37Z</time>
      </trkpt>
      <trkpt lat="42.573441" lon="2.096985">
        <ele>1524.020</ele>
        <time>2019-05-29T11:03:38Z</time>
      </trkpt>
      <trkpt lat="42.573399" lon="2.097013">
        <ele>1524.073</ele>
        <time>2019-05-29T11:03:40Z</time>
      </trkpt>
      <trkpt lat="42.573313" lon="2.097000">
        <ele>1523.673</ele>
        <time>2019-05-29T11:03:45Z</time>
      </trkpt>
      <trkpt lat="42.573284" lon="2.096985">
        <ele>1523.475</ele>
        <time>2019-05-29T11:03:48Z</time>
      </trkpt>
      <trkpt lat="42.573253" lon="2.096967">
        <ele>1523.080</ele>
        <time>2019-05-29T11:03:51Z</time>
      </trkpt>
      <trkpt lat="42.573225" lon="2.096957">
        <ele>1522.283</ele>
        <time>2019-05-29T11:04:10Z</time>
      </trkpt>
      <trkpt lat="42.573236" lon="2.096968">
        <ele>1522.025</ele>
        <time>2019-05-29T11:04:11Z</time>
      </trkpt>
      <trkpt lat="42.573294" lon="2.097009">
        <ele>1523.217</ele>
        <time>2019-05-29T11:04:15Z</time>
      </trkpt>
      <trkpt lat="42.573325" lon="2.097001">
        <ele>1523.408</ele>
        <time>2019-05-29T11:04:17Z</time>
      </trkpt>
      <trkpt lat="42.573403" lon="2.096953">
        <ele>1523.821</ele>
        <time>2019-05-29T11:04:21Z</time>
      </trkpt>
      <trkpt lat="42.573396" lon="2.096859">
        <ele>1524.455</ele>
        <time>2019-05-29T11:04:26Z</time>
      </trkpt>
      <trkpt lat="42.573365" lon="2.096856">
        <ele>1524.291</ele>
        <time>2019-05-29T11:04:29Z</time>
      </trkpt>
      <trkpt lat="42.573346" lon="2.096851">
        <ele>1524.079</ele>
        <time>2019-05-29T11:04:30Z</time>
      </trkpt>
      <trkpt lat="42.573266" lon="2.096814">
        <ele>1523.242</ele>
        <time>2019-05-29T11:04:33Z</time>
      </trkpt>
      <trkpt lat="42.573242" lon="2.096809">
        <ele>1523.262</ele>
        <time>2019-05-29T11:04:34Z</time>
      </trkpt>
      <trkpt lat="42.573089" lon="2.096744">
        <ele>1522.674</ele>
        <time>2019-05-29T11:04:40Z</time>
      </trkpt>
      <trkpt lat="42.573055" lon="2.096720">
        <ele>1522.219</ele>
        <time>2019-05-29T11:04:41Z</time>
      </trkpt>
      <trkpt lat="42.573025" lon="2.096706">
        <ele>1522.031</ele>
        <time>2019-05-29T11:04:42Z</time>
      </trkpt>
      <trkpt lat="42.572904" lon="2.096670">
        <ele>1521.461</ele>
        <time>2019-05-29T11:04:46Z</time>
      </trkpt>
      <trkpt lat="42.572694" lon="2.096664">
        <ele>1521.207</ele>
        <time>2019-05-29T11:04:53Z</time>
      </trkpt>
      <trkpt lat="42.572635" lon="2.096673">
        <ele>1520.808</ele>
        <time>2019-05-29T11:04:55Z</time>
      </trkpt>
      <trkpt lat="42.572475" lon="2.096678">
        <ele>1520.436</ele>
        <time>2019-05-29T11:05:01Z</time>
      </trkpt>
      <trkpt lat="42.572346" lon="2.096621">
        <ele>1521.030</ele>
        <time>2019-05-29T11:05:06Z</time>
      </trkpt>
      <trkpt lat="42.572247" lon="2.096519">
        <ele>1521.676</ele>
        <time>2019-05-29T11:05:10Z</time>
      </trkpt>
      <trkpt lat="42.572233" lon="2.096478">
        <ele>1521.684</ele>
        <time>2019-05-29T11:05:11Z</time>
      </trkpt>
      <trkpt lat="42.572257" lon="2.096310">
        <ele>1521.827</ele>
        <time>2019-05-29T11:05:15Z</time>
      </trkpt>
      <trkpt lat="42.572266" lon="2.096266">
        <ele>1522.027</ele>
        <time>2019-05-29T11:05:16Z</time>
      </trkpt>
      <trkpt lat="42.572323" lon="2.096073">
        <ele>1521.069</ele>
        <time>2019-05-29T11:05:20Z</time>
      </trkpt>
      <trkpt lat="42.572362" lon="2.095984">
        <ele>1520.694</ele>
        <time>2019-05-29T11:05:22Z</time>
      </trkpt>
      <trkpt lat="42.572451" lon="2.095711">
        <ele>1520.468</ele>
        <time>2019-05-29T11:05:28Z</time>
      </trkpt>
      <trkpt lat="42.572439" lon="2.095654">
        <ele>1520.242</ele>
        <time>2019-05-29T11:05:29Z</time>
      </trkpt>
      <trkpt lat="42.572371" lon="2.095596">
        <ele>1520.226</ele>
        <time>2019-05-29T11:05:31Z</time>
      </trkpt>
      <trkpt lat="42.572267" lon="2.095591">
        <ele>1520.208</ele>
        <time>2019-05-29T11:05:34Z</time>
      </trkpt>
      <trkpt lat="42.572235" lon="2.095597">
        <ele>1520.439</ele>
        <time>2019-05-29T11:05:35Z</time>
      </trkpt>
      <trkpt lat="42.572043" lon="2.095643">
        <ele>1521.283</ele>
        <time>2019-05-29T11:05:41Z</time>
      </trkpt>
      <trkpt lat="42.572012" lon="2.095617">
        <ele>1521.239</ele>
        <time>2019-05-29T11:05:42Z</time>
      </trkpt>
      <trkpt lat="42.571972" lon="2.095549">
        <ele>1522.017</ele>
        <time>2019-05-29T11:05:44Z</time>
      </trkpt>
      <trkpt lat="42.571955" lon="2.095385">
        <ele>1522.610</ele>
        <time>2019-05-29T11:05:48Z</time>
      </trkpt>
      <trkpt lat="42.571955" lon="2.095343">
        <ele>1522.680</ele>
        <time>2019-05-29T11:05:49Z</time>
      </trkpt>
      <trkpt lat="42.571958" lon="2.094954">
        <ele>1522.432</ele>
        <time>2019-05-29T11:05:57Z</time>
      </trkpt>
      <trkpt lat="42.571996" lon="2.094868">
        <ele>1522.427</ele>
        <time>2019-05-29T11:05:59Z</time>
      </trkpt>
      <trkpt lat="42.572024" lon="2.094835">
        <ele>1522.648</ele>
        <time>2019-05-29T11:06:00Z</time>
      </trkpt>
      <trkpt lat="42.572055" lon="2.094808">
        <ele>1522.661</ele>
        <time>2019-05-29T11:06:01Z</time>
      </trkpt>
      <trkpt lat="42.572176" lon="2.094765">
        <ele>1523.817</ele>
        <time>2019-05-29T11:06:05Z</time>
      </trkpt>
      <trkpt lat="42.572254" lon="2.094719">
        <ele>1522.008</ele>
        <time>2019-05-29T11:06:08Z</time>
      </trkpt>
      <trkpt lat="42.572287" lon="2.094683">
        <ele>1522.017</ele>
        <time>2019-05-29T11:06:10Z</time>
      </trkpt>
      <trkpt lat="42.572318" lon="2.094659">
        <ele>1523.091</ele>
        <time>2019-05-29T11:06:12Z</time>
      </trkpt>
      <trkpt lat="42.572405" lon="2.094575">
        <ele>1523.087</ele>
        <time>2019-05-29T11:06:16Z</time>
      </trkpt>
      <trkpt lat="42.572633" lon="2.094410">
        <ele>1523.445</ele>
        <time>2019-05-29T11:06:24Z</time>
      </trkpt>
      <trkpt lat="42.572764" lon="2.094305">
        <ele>1523.848</ele>
        <time>2019-05-29T11:06:29Z</time>
      </trkpt>
      <trkpt lat="42.572855" lon="2.094244">
        <ele>1524.058</ele>
        <time>2019-05-29T11:06:32Z</time>
      </trkpt>
      <trkpt lat="42.572905" lon="2.094214">
        <ele>1524.430</ele>
        <time>2019-05-29T11:06:34Z</time>
      </trkpt>
      <trkpt lat="42.573051" lon="2.094156">
        <ele>1523.645</ele>
        <time>2019-05-29T11:06:38Z</time>
      </trkpt>
      <trkpt lat="42.573093" lon="2.094144">
        <ele>1523.675</ele>
        <time>2019-05-29T11:06:39Z</time>
      </trkpt>
      <trkpt lat="42.573179" lon="2.094100">
        <ele>1522.828</ele>
        <time>2019-05-29T11:06:41Z</time>
      </trkpt>
      <trkpt lat="42.573282" lon="2.093976">
        <ele>1523.420</ele>
        <time>2019-05-29T11:06:45Z</time>
      </trkpt>
      <trkpt lat="42.573293" lon="2.093952">
        <ele>1524.208</ele>
        <time>2019-05-29T11:06:46Z</time>
      </trkpt>
      <trkpt lat="42.573319" lon="2.093907">
        <ele>1525.240</ele>
        <time>2019-05-29T11:06:48Z</time>
      </trkpt>
      <trkpt lat="42.573347" lon="2.093858">
        <ele>1525.494</ele>
        <time>2019-05-29T11:06:50Z</time>
      </trkpt>
      <trkpt lat="42.573460" lon="2.093676">
        <ele>1525.240</ele>
        <time>2019-05-29T11:06:57Z</time>
      </trkpt>
      <trkpt lat="42.573534" lon="2.093589">
        <ele>1526.488</ele>
        <time>2019-05-29T11:07:01Z</time>
      </trkpt>
      <trkpt lat="42.573590" lon="2.093533">
        <ele>1526.221</ele>
        <time>2019-05-29T11:07:04Z</time>
      </trkpt>
      <trkpt lat="42.573735" lon="2.093367">
        <ele>1525.461</ele>
        <time>2019-05-29T11:07:12Z</time>
      </trkpt>
      <trkpt lat="42.573767" lon="2.093341">
        <ele>1525.073</ele>
        <time>2019-05-29T11:07:13Z</time>
      </trkpt>
      <trkpt lat="42.573834" lon="2.093284">
        <ele>1526.828</ele>
        <time>2019-05-29T11:07:16Z</time>
      </trkpt>
      <trkpt lat="42.573876" lon="2.093248">
        <ele>1527.077</ele>
        <time>2019-05-29T11:07:18Z</time>
      </trkpt>
      <trkpt lat="42.573978" lon="2.093161">
        <ele>1526.661</ele>
        <time>2019-05-29T11:07:23Z</time>
      </trkpt>
      <trkpt lat="42.574088" lon="2.093055">
        <ele>1526.827</ele>
        <time>2019-05-29T11:07:29Z</time>
      </trkpt>
      <trkpt lat="42.574226" lon="2.092921">
        <ele>1527.408</ele>
        <time>2019-05-29T11:07:35Z</time>
      </trkpt>
      <trkpt lat="42.574301" lon="2.092860">
        <ele>1528.080</ele>
        <time>2019-05-29T11:07:38Z</time>
      </trkpt>
      <trkpt lat="42.574375" lon="2.092796">
        <ele>1528.054</ele>
        <time>2019-05-29T11:07:41Z</time>
      </trkpt>
      <trkpt lat="42.574537" lon="2.092682">
        <ele>1528.230</ele>
        <time>2019-05-29T11:07:48Z</time>
      </trkpt>
      <trkpt lat="42.574659" lon="2.092588">
        <ele>1528.818</ele>
        <time>2019-05-29T11:07:53Z</time>
      </trkpt>
      <trkpt lat="42.574737" lon="2.092529">
        <ele>1529.471</ele>
        <time>2019-05-29T11:07:56Z</time>
      </trkpt>
      <trkpt lat="42.574760" lon="2.092505">
        <ele>1529.651</ele>
        <time>2019-05-29T11:07:57Z</time>
      </trkpt>
      <trkpt lat="42.574808" lon="2.092449">
        <ele>1529.483</ele>
        <time>2019-05-29T11:07:59Z</time>
      </trkpt>
      <trkpt lat="42.574822" lon="2.092415">
        <ele>1529.628</ele>
        <time>2019-05-29T11:08:00Z</time>
      </trkpt>
      <trkpt lat="42.574827" lon="2.092299">
        <ele>1529.213</ele>
        <time>2019-05-29T11:08:03Z</time>
      </trkpt>
      <trkpt lat="42.574815" lon="2.092162">
        <ele>1528.043</ele>
        <time>2019-05-29T11:08:06Z</time>
      </trkpt>
      <trkpt lat="42.574760" lon="2.092068">
        <ele>1527.007</ele>
        <time>2019-05-29T11:08:08Z</time>
      </trkpt>
      <trkpt lat="42.574722" lon="2.092027">
        <ele>1526.808</ele>
        <time>2019-05-29T11:08:09Z</time>
      </trkpt>
      <trkpt lat="42.574597" lon="2.091917">
        <ele>1526.054</ele>
        <time>2019-05-29T11:08:12Z</time>
      </trkpt>
      <trkpt lat="42.574505" lon="2.091885">
        <ele>1526.078</ele>
        <time>2019-05-29T11:08:14Z</time>
      </trkpt>
      <trkpt lat="42.574383" lon="2.091847">
        <ele>1526.664</ele>
        <time>2019-05-29T11:08:17Z</time>
      </trkpt>
      <trkpt lat="42.574276" lon="2.091810">
        <ele>1527.252</ele>
        <time>2019-05-29T11:08:20Z</time>
      </trkpt>
      <trkpt lat="42.574178" lon="2.091775">
        <ele>1527.815</ele>
        <time>2019-05-29T11:08:23Z</time>
      </trkpt>
      <trkpt lat="42.574099" lon="2.091730">
        <ele>1529.055</ele>
        <time>2019-05-29T11:08:26Z</time>
      </trkpt>
      <trkpt lat="42.573968" lon="2.091555">
        <ele>1529.627</ele>
        <time>2019-05-29T11:08:32Z</time>
      </trkpt>
      <trkpt lat="42.573830" lon="2.091338">
        <ele>1530.282</ele>
        <time>2019-05-29T11:08:38Z</time>
      </trkpt>
      <trkpt lat="42.573777" lon="2.091226">
        <ele>1529.091</ele>
        <time>2019-05-29T11:08:41Z</time>
      </trkpt>
      <trkpt lat="42.573761" lon="2.091184">
        <ele>1530.081</ele>
        <time>2019-05-29T11:08:42Z</time>
      </trkpt>
      <trkpt lat="42.573665" lon="2.090989">
        <ele>1529.619</ele>
        <time>2019-05-29T11:08:47Z</time>
      </trkpt>
      <trkpt lat="42.573646" lon="2.090950">
        <ele>1528.408</ele>
        <time>2019-05-29T11:08:48Z</time>
      </trkpt>
      <trkpt lat="42.573609" lon="2.090872">
        <ele>1530.812</ele>
        <time>2019-05-29T11:08:50Z</time>
      </trkpt>
      <trkpt lat="42.573543" lon="2.090704">
        <ele>1530.286</ele>
        <time>2019-05-29T11:08:54Z</time>
      </trkpt>
      <trkpt lat="42.573526" lon="2.090661">
        <ele>1529.442</ele>
        <time>2019-05-29T11:08:55Z</time>
      </trkpt>
      <trkpt lat="42.573460" lon="2.090492">
        <ele>1531.030</ele>
        <time>2019-05-29T11:08:59Z</time>
      </trkpt>
      <trkpt lat="42.573404" lon="2.090356">
        <ele>1530.653</ele>
        <time>2019-05-29T11:09:02Z</time>
      </trkpt>
      <trkpt lat="42.573323" lon="2.090137">
        <ele>1530.033</ele>
        <time>2019-05-29T11:09:06Z</time>
      </trkpt>
      <trkpt lat="42.573268" lon="2.090014">
        <ele>1529.645</ele>
        <time>2019-05-29T11:09:08Z</time>
      </trkpt>
      <trkpt lat="42.573205" lon="2.089873">
        <ele>1528.620</ele>
        <time>2019-05-29T11:09:10Z</time>
      </trkpt>
      <trkpt lat="42.573151" lon="2.089710">
        <ele>1527.664</ele>
        <time>2019-05-29T11:09:12Z</time>
      </trkpt>
      <trkpt lat="42.573115" lon="2.089539">
        <ele>1527.406</ele>
        <time>2019-05-29T11:09:14Z</time>
      </trkpt>
      <trkpt lat="42.573103" lon="2.089454">
        <ele>1527.616</ele>
        <time>2019-05-29T11:09:15Z</time>
      </trkpt>
      <trkpt lat="42.573102" lon="2.089288">
        <ele>1528.608</ele>
        <time>2019-05-29T11:09:17Z</time>
      </trkpt>
      <trkpt lat="42.573110" lon="2.089028">
        <ele>1528.479</ele>
        <time>2019-05-29T11:09:21Z</time>
      </trkpt>
      <trkpt lat="42.573119" lon="2.088789">
        <ele>1529.813</ele>
        <time>2019-05-29T11:09:26Z</time>
      </trkpt>
      <trkpt lat="42.573119" lon="2.088738">
        <ele>1530.089</ele>
        <time>2019-05-29T11:09:27Z</time>
      </trkpt>
      <trkpt lat="42.573149" lon="2.088367">
        <ele>1529.817</ele>
        <time>2019-05-29T11:09:34Z</time>
      </trkpt>
      <trkpt lat="42.573157" lon="2.088243">
        <ele>1529.050</ele>
        <time>2019-05-29T11:09:36Z</time>
      </trkpt>
      <trkpt lat="42.573155" lon="2.088177">
        <ele>1528.650</ele>
        <time>2019-05-29T11:09:37Z</time>
      </trkpt>
      <trkpt lat="42.573147" lon="2.088108">
        <ele>1528.232</ele>
        <time>2019-05-29T11:09:38Z</time>
      </trkpt>
      <trkpt lat="42.573129" lon="2.088037">
        <ele>1527.687</ele>
        <time>2019-05-29T11:09:39Z</time>
      </trkpt>
      <trkpt lat="42.573098" lon="2.087966">
        <ele>1527.469</ele>
        <time>2019-05-29T11:09:40Z</time>
      </trkpt>
      <trkpt lat="42.573010" lon="2.087836">
        <ele>1527.404</ele>
        <time>2019-05-29T11:09:42Z</time>
      </trkpt>
      <trkpt lat="42.572867" lon="2.087618">
        <ele>1526.024</ele>
        <time>2019-05-29T11:09:45Z</time>
      </trkpt>
      <trkpt lat="42.572761" lon="2.087476">
        <ele>1525.408</ele>
        <time>2019-05-29T11:09:47Z</time>
      </trkpt>
      <trkpt lat="42.572706" lon="2.087409">
        <ele>1525.069</ele>
        <time>2019-05-29T11:09:48Z</time>
      </trkpt>
      <trkpt lat="42.572544" lon="2.087205">
        <ele>1524.683</ele>
        <time>2019-05-29T11:09:51Z</time>
      </trkpt>
      <trkpt lat="42.572409" lon="2.086989">
        <ele>1524.499</ele>
        <time>2019-05-29T11:09:54Z</time>
      </trkpt>
      <trkpt lat="42.572316" lon="2.086873">
        <ele>1524.097</ele>
        <time>2019-05-29T11:09:56Z</time>
      </trkpt>
      <trkpt lat="42.572236" lon="2.086770">
        <ele>1524.620</ele>
        <time>2019-05-29T11:09:58Z</time>
      </trkpt>
      <trkpt lat="42.572203" lon="2.086719">
        <ele>1525.470</ele>
        <time>2019-05-29T11:09:59Z</time>
      </trkpt>
      <trkpt lat="42.572141" lon="2.086620">
        <ele>1526.292</ele>
        <time>2019-05-29T11:10:01Z</time>
      </trkpt>
      <trkpt lat="42.572110" lon="2.086576">
        <ele>1526.217</ele>
        <time>2019-05-29T11:10:02Z</time>
      </trkpt>
      <trkpt lat="42.572014" lon="2.086448">
        <ele>1527.093</ele>
        <time>2019-05-29T11:10:05Z</time>
      </trkpt>
      <trkpt lat="42.571979" lon="2.086415">
        <ele>1527.065</ele>
        <time>2019-05-29T11:10:06Z</time>
      </trkpt>
      <trkpt lat="42.571854" lon="2.086381">
        <ele>1526.821</ele>
        <time>2019-05-29T11:10:09Z</time>
      </trkpt>
      <trkpt lat="42.571663" lon="2.086471">
        <ele>1527.008</ele>
        <time>2019-05-29T11:10:13Z</time>
      </trkpt>
      <trkpt lat="42.571615" lon="2.086496">
        <ele>1526.882</ele>
        <time>2019-05-29T11:10:14Z</time>
      </trkpt>
      <trkpt lat="42.571570" lon="2.086528">
        <ele>1526.886</ele>
        <time>2019-05-29T11:10:15Z</time>
      </trkpt>
      <trkpt lat="42.571454" lon="2.086661">
        <ele>1526.432</ele>
        <time>2019-05-29T11:10:18Z</time>
      </trkpt>
      <trkpt lat="42.571413" lon="2.086703">
        <ele>1526.480</ele>
        <time>2019-05-29T11:10:19Z</time>
      </trkpt>
      <trkpt lat="42.571331" lon="2.086783">
        <ele>1527.813</ele>
        <time>2019-05-29T11:10:21Z</time>
      </trkpt>
      <trkpt lat="42.571219" lon="2.086898">
        <ele>1526.853</ele>
        <time>2019-05-29T11:10:24Z</time>
      </trkpt>
      <trkpt lat="42.571094" lon="2.086986">
        <ele>1527.835</ele>
        <time>2019-05-29T11:10:28Z</time>
      </trkpt>
      <trkpt lat="42.570969" lon="2.086986">
        <ele>1526.880</ele>
        <time>2019-05-29T11:10:33Z</time>
      </trkpt>
      <trkpt lat="42.570765" lon="2.086898">
        <ele>1527.041</ele>
        <time>2019-05-29T11:10:39Z</time>
      </trkpt>
      <trkpt lat="42.570520" lon="2.086775">
        <ele>1526.481</ele>
        <time>2019-05-29T11:10:46Z</time>
      </trkpt>
      <trkpt lat="42.570291" lon="2.086694">
        <ele>1527.209</ele>
        <time>2019-05-29T11:10:52Z</time>
      </trkpt>
      <trkpt lat="42.570116" lon="2.086572">
        <ele>1527.208</ele>
        <time>2019-05-29T11:10:57Z</time>
      </trkpt>
      <trkpt lat="42.570078" lon="2.086558">
        <ele>1527.267</ele>
        <time>2019-05-29T11:10:58Z</time>
      </trkpt>
      <trkpt lat="42.569963" lon="2.086536">
        <ele>1527.441</ele>
        <time>2019-05-29T11:11:01Z</time>
      </trkpt>
      <trkpt lat="42.569784" lon="2.086421">
        <ele>1527.087</ele>
        <time>2019-05-29T11:11:06Z</time>
      </trkpt>
      <trkpt lat="42.569625" lon="2.086386">
        <ele>1527.255</ele>
        <time>2019-05-29T11:11:10Z</time>
      </trkpt>
      <trkpt lat="42.569404" lon="2.086288">
        <ele>1526.898</ele>
        <time>2019-05-29T11:11:16Z</time>
      </trkpt>
      <trkpt lat="42.569295" lon="2.086163">
        <ele>1526.828</ele>
        <time>2019-05-29T11:11:20Z</time>
      </trkpt>
      <trkpt lat="42.569156" lon="2.086005">
        <ele>1527.830</ele>
        <time>2019-05-29T11:11:25Z</time>
      </trkpt>
      <trkpt lat="42.569128" lon="2.085975">
        <ele>1528.085</ele>
        <time>2019-05-29T11:11:26Z</time>
      </trkpt>
      <trkpt lat="42.569063" lon="2.085918">
        <ele>1528.442</ele>
        <time>2019-05-29T11:11:28Z</time>
      </trkpt>
      <trkpt lat="42.568956" lon="2.085840">
        <ele>1528.222</ele>
        <time>2019-05-29T11:11:31Z</time>
      </trkpt>
      <trkpt lat="42.568890" lon="2.085782">
        <ele>1528.414</ele>
        <time>2019-05-29T11:11:35Z</time>
      </trkpt>
      <trkpt lat="42.568880" lon="2.085683">
        <ele>1527.808</ele>
        <time>2019-05-29T11:11:49Z</time>
      </trkpt>
      <trkpt lat="42.568893" lon="2.085637">
        <ele>1527.817</ele>
        <time>2019-05-29T11:11:51Z</time>
      </trkpt>
      <trkpt lat="42.568909" lon="2.085570">
        <ele>1528.061</ele>
        <time>2019-05-29T11:11:54Z</time>
      </trkpt>
      <trkpt lat="42.568926" lon="2.085454">
        <ele>1529.297</ele>
        <time>2019-05-29T11:11:59Z</time>
      </trkpt>
      <trkpt lat="42.568928" lon="2.085375">
        <ele>1530.465</ele>
        <time>2019-05-29T11:12:02Z</time>
      </trkpt>
      <trkpt lat="42.568930" lon="2.085348">
        <ele>1532.018</ele>
        <time>2019-05-29T11:12:03Z</time>
      </trkpt>
      <trkpt lat="42.568941" lon="2.085274">
        <ele>1532.298</ele>
        <time>2019-05-29T11:12:06Z</time>
      </trkpt>
      <trkpt lat="42.568952" lon="2.085225">
        <ele>1533.280</ele>
        <time>2019-05-29T11:12:08Z</time>
      </trkpt>
      <trkpt lat="42.568974" lon="2.085122">
        <ele>1534.845</ele>
        <time>2019-05-29T11:12:12Z</time>
      </trkpt>
      <trkpt lat="42.568980" lon="2.085092">
        <ele>1534.885</ele>
        <time>2019-05-29T11:12:13Z</time>
      </trkpt>
      <trkpt lat="42.569040" lon="2.084878">
        <ele>1534.889</ele>
        <time>2019-05-29T11:12:21Z</time>
      </trkpt>
      <trkpt lat="42.569057" lon="2.084828">
        <ele>1533.617</ele>
        <time>2019-05-29T11:12:23Z</time>
      </trkpt>
      <trkpt lat="42.569148" lon="2.084653">
        <ele>1532.808</ele>
        <time>2019-05-29T11:12:31Z</time>
      </trkpt>
      <trkpt lat="42.569152" lon="2.084652">
        <ele>1532.671</ele>
        <time>2019-05-29T11:12:32Z</time>
      </trkpt>
      <trkpt lat="42.569160" lon="2.084581">
        <ele>1532.615</ele>
        <time>2019-05-29T11:42:31Z</time>
      </trkpt>
      <trkpt lat="42.569188" lon="2.084525">
        <ele>1532.021</ele>
        <time>2019-05-29T11:42:34Z</time>
      </trkpt>
      <trkpt lat="42.569261" lon="2.084374">
        <ele>1533.439</ele>
        <time>2019-05-29T11:42:42Z</time>
      </trkpt>
      <trkpt lat="42.569324" lon="2.084233">
        <ele>1533.452</ele>
        <time>2019-05-29T11:42:48Z</time>
      </trkpt>
      <trkpt lat="42.569402" lon="2.084039">
        <ele>1533.642</ele>
        <time>2019-05-29T11:42:56Z</time>
      </trkpt>
      <trkpt lat="42.569495" lon="2.083860">
        <ele>1533.894</ele>
        <time>2019-05-29T11:43:04Z</time>
      </trkpt>
      <trkpt lat="42.569589" lon="2.083715">
        <ele>1534.829</ele>
        <time>2019-05-29T11:43:11Z</time>
      </trkpt>
      <trkpt lat="42.569685" lon="2.083543">
        <ele>1535.456</ele>
        <time>2019-05-29T11:43:19Z</time>
      </trkpt>
      <trkpt lat="42.569778" lon="2.083396">
        <ele>1535.859</ele>
        <time>2019-05-29T11:43:25Z</time>
      </trkpt>
      <trkpt lat="42.569806" lon="2.083347">
        <ele>1535.814</ele>
        <time>2019-05-29T11:43:27Z</time>
      </trkpt>
      <trkpt lat="42.569831" lon="2.083301">
        <ele>1534.408</ele>
        <time>2019-05-29T11:43:29Z</time>
      </trkpt>
      <trkpt lat="42.569871" lon="2.083227">
        <ele>1535.888</ele>
        <time>2019-05-29T11:43:32Z</time>
      </trkpt>
      <trkpt lat="42.569905" lon="2.083185">
        <ele>1536.452</ele>
        <time>2019-05-29T11:43:34Z</time>
      </trkpt>
      <trkpt lat="42.569916" lon="2.083161">
        <ele>1537.268</ele>
        <time>2019-05-29T11:43:35Z</time>
      </trkpt>
      <trkpt lat="42.569997" lon="2.083016">
        <ele>1537.026</ele>
        <time>2019-05-29T11:43:41Z</time>
      </trkpt>
      <trkpt lat="42.570109" lon="2.082825">
        <ele>1537.839</ele>
        <time>2019-05-29T11:43:49Z</time>
      </trkpt>
      <trkpt lat="42.570207" lon="2.082697">
        <ele>1538.239</ele>
        <time>2019-05-29T11:43:55Z</time>
      </trkpt>
      <trkpt lat="42.570242" lon="2.082657">
        <ele>1538.641</ele>
        <time>2019-05-29T11:43:57Z</time>
      </trkpt>
      <trkpt lat="42.570403" lon="2.082539">
        <ele>1538.496</ele>
        <time>2019-05-29T11:44:05Z</time>
      </trkpt>
      <trkpt lat="42.570578" lon="2.082464">
        <ele>1538.831</ele>
        <time>2019-05-29T11:44:12Z</time>
      </trkpt>
      <trkpt lat="42.570802" lon="2.082363">
        <ele>1538.861</ele>
        <time>2019-05-29T11:44:21Z</time>
      </trkpt>
      <trkpt lat="42.570897" lon="2.082313">
        <ele>1539.207</ele>
        <time>2019-05-29T11:44:25Z</time>
      </trkpt>
      <trkpt lat="42.570967" lon="2.082277">
        <ele>1540.008</ele>
        <time>2019-05-29T11:44:28Z</time>
      </trkpt>
      <trkpt lat="42.571115" lon="2.082206">
        <ele>1540.286</ele>
        <time>2019-05-29T11:44:34Z</time>
      </trkpt>
      <trkpt lat="42.571186" lon="2.082182">
        <ele>1540.230</ele>
        <time>2019-05-29T11:44:37Z</time>
      </trkpt>
      <trkpt lat="42.571375" lon="2.082125">
        <ele>1540.616</ele>
        <time>2019-05-29T11:44:45Z</time>
      </trkpt>
      <trkpt lat="42.571572" lon="2.082091">
        <ele>1541.054</ele>
        <time>2019-05-29T11:44:53Z</time>
      </trkpt>
      <trkpt lat="42.571627" lon="2.082081">
        <ele>1541.247</ele>
        <time>2019-05-29T11:44:55Z</time>
      </trkpt>
      <trkpt lat="42.571784" lon="2.082045">
        <ele>1541.217</ele>
        <time>2019-05-29T11:45:01Z</time>
      </trkpt>
      <trkpt lat="42.571943" lon="2.081976">
        <ele>1541.289</ele>
        <time>2019-05-29T11:45:08Z</time>
      </trkpt>
      <trkpt lat="42.572043" lon="2.081825">
        <ele>1542.244</ele>
        <time>2019-05-29T11:45:14Z</time>
      </trkpt>
      <trkpt lat="42.572057" lon="2.081797">
        <ele>1542.646</ele>
        <time>2019-05-29T11:45:15Z</time>
      </trkpt>
      <trkpt lat="42.572171" lon="2.081616">
        <ele>1542.688</ele>
        <time>2019-05-29T11:45:22Z</time>
      </trkpt>
      <trkpt lat="42.572293" lon="2.081457">
        <ele>1543.416</ele>
        <time>2019-05-29T11:45:29Z</time>
      </trkpt>
      <trkpt lat="42.572410" lon="2.081399">
        <ele>1543.408</ele>
        <time>2019-05-29T11:45:34Z</time>
      </trkpt>
      <trkpt lat="42.572527" lon="2.081492">
        <ele>1542.267</ele>
        <time>2019-05-29T11:45:38Z</time>
      </trkpt>
      <trkpt lat="42.572578" lon="2.081572">
        <ele>1541.481</ele>
        <time>2019-05-29T11:45:40Z</time>
      </trkpt>
      <trkpt lat="42.572709" lon="2.081784">
        <ele>1540.847</ele>
        <time>2019-05-29T11:45:45Z</time>
      </trkpt>
      <trkpt lat="42.572736" lon="2.081829">
        <ele>1540.435</ele>
        <time>2019-05-29T11:45:46Z</time>
      </trkpt>
      <trkpt lat="42.572831" lon="2.081942">
        <ele>1539.878</ele>
        <time>2019-05-29T11:45:49Z</time>
      </trkpt>
      <trkpt lat="42.572910" lon="2.081947">
        <ele>1539.618</ele>
        <time>2019-05-29T11:45:51Z</time>
      </trkpt>
      <trkpt lat="42.573006" lon="2.081911">
        <ele>1540.660</ele>
        <time>2019-05-29T11:45:54Z</time>
      </trkpt>
      <trkpt lat="42.573029" lon="2.081896">
        <ele>1541.095</ele>
        <time>2019-05-29T11:45:55Z</time>
      </trkpt>
      <trkpt lat="42.573091" lon="2.081888">
        <ele>1542.282</ele>
        <time>2019-05-29T11:45:57Z</time>
      </trkpt>
      <trkpt lat="42.573174" lon="2.081899">
        <ele>1542.243</ele>
        <time>2019-05-29T11:46:00Z</time>
      </trkpt>
      <trkpt lat="42.573247" lon="2.081918">
        <ele>1543.817</ele>
        <time>2019-05-29T11:46:03Z</time>
      </trkpt>
      <trkpt lat="42.573317" lon="2.081989">
        <ele>1544.208</ele>
        <time>2019-05-29T11:46:06Z</time>
      </trkpt>
      <trkpt lat="42.573475" lon="2.082198">
        <ele>1544.061</ele>
        <time>2019-05-29T11:46:13Z</time>
      </trkpt>
      <trkpt lat="42.573666" lon="2.082421">
        <ele>1543.215</ele>
        <time>2019-05-29T11:46:20Z</time>
      </trkpt>
      <trkpt lat="42.573717" lon="2.082486">
        <ele>1542.281</ele>
        <time>2019-05-29T11:46:22Z</time>
      </trkpt>
      <trkpt lat="42.573845" lon="2.082520">
        <ele>1541.839</ele>
        <time>2019-05-29T11:46:26Z</time>
      </trkpt>
      <trkpt lat="42.574025" lon="2.082467">
        <ele>1542.212</ele>
        <time>2019-05-29T11:46:32Z</time>
      </trkpt>
      <trkpt lat="42.574211" lon="2.082413">
        <ele>1542.252</ele>
        <time>2019-05-29T11:46:39Z</time>
      </trkpt>
      <trkpt lat="42.574332" lon="2.082339">
        <ele>1543.294</ele>
        <time>2019-05-29T11:46:45Z</time>
      </trkpt>
      <trkpt lat="42.574397" lon="2.082224">
        <ele>1544.449</ele>
        <time>2019-05-29T11:46:50Z</time>
      </trkpt>
      <trkpt lat="42.574400" lon="2.082195">
        <ele>1544.647</ele>
        <time>2019-05-29T11:46:51Z</time>
      </trkpt>
      <trkpt lat="42.574422" lon="2.082143">
        <ele>1545.429</ele>
        <time>2019-05-29T11:46:53Z</time>
      </trkpt>
      <trkpt lat="42.574442" lon="2.082059">
        <ele>1546.621</ele>
        <time>2019-05-29T11:46:56Z</time>
      </trkpt>
      <trkpt lat="42.574459" lon="2.082009">
        <ele>1546.808</ele>
        <time>2019-05-29T11:46:58Z</time>
      </trkpt>
      <trkpt lat="42.574513" lon="2.081828">
        <ele>1546.887</ele>
        <time>2019-05-29T11:47:05Z</time>
      </trkpt>
      <trkpt lat="42.574579" lon="2.081621">
        <ele>1547.021</ele>
        <time>2019-05-29T11:47:13Z</time>
      </trkpt>
      <trkpt lat="42.574616" lon="2.081518">
        <ele>1547.627</ele>
        <time>2019-05-29T11:47:17Z</time>
      </trkpt>
      <trkpt lat="42.574638" lon="2.081433">
        <ele>1548.865</ele>
        <time>2019-05-29T11:47:20Z</time>
      </trkpt>
      <trkpt lat="42.574696" lon="2.081362">
        <ele>1549.828</ele>
        <time>2019-05-29T11:47:24Z</time>
      </trkpt>
      <trkpt lat="42.574719" lon="2.081371">
        <ele>1549.618</ele>
        <time>2019-05-29T11:47:25Z</time>
      </trkpt>
      <trkpt lat="42.574882" lon="2.081394">
        <ele>1549.230</ele>
        <time>2019-05-29T11:47:32Z</time>
      </trkpt>
      <trkpt lat="42.575059" lon="2.081472">
        <ele>1549.015</ele>
        <time>2019-05-29T11:47:39Z</time>
      </trkpt>
      <trkpt lat="42.575242" lon="2.081584">
        <ele>1547.877</ele>
        <time>2019-05-29T11:47:46Z</time>
      </trkpt>
      <trkpt lat="42.575271" lon="2.081586">
        <ele>1547.261</ele>
        <time>2019-05-29T11:47:47Z</time>
      </trkpt>
      <trkpt lat="42.575295" lon="2.081586">
        <ele>1546.627</ele>
        <time>2019-05-29T11:47:48Z</time>
      </trkpt>
      <trkpt lat="42.575418" lon="2.081559">
        <ele>1547.008</ele>
        <time>2019-05-29T11:47:53Z</time>
      </trkpt>
      <trkpt lat="42.575462" lon="2.081548">
        <ele>1548.010</ele>
        <time>2019-05-29T11:47:55Z</time>
      </trkpt>
      <trkpt lat="42.575641" lon="2.081537">
        <ele>1548.474</ele>
        <time>2019-05-29T11:48:02Z</time>
      </trkpt>
      <trkpt lat="42.575718" lon="2.081543">
        <ele>1549.280</ele>
        <time>2019-05-29T11:48:05Z</time>
      </trkpt>
      <trkpt lat="42.575863" lon="2.081591">
        <ele>1549.618</ele>
        <time>2019-05-29T11:48:11Z</time>
      </trkpt>
      <trkpt lat="42.575983" lon="2.081652">
        <ele>1550.251</ele>
        <time>2019-05-29T11:48:16Z</time>
      </trkpt>
      <trkpt lat="42.576053" lon="2.081693">
        <ele>1550.471</ele>
        <time>2019-05-29T11:48:19Z</time>
      </trkpt>
      <trkpt lat="42.576212" lon="2.081796">
        <ele>1551.233</ele>
        <time>2019-05-29T11:48:26Z</time>
      </trkpt>
      <trkpt lat="42.576233" lon="2.081812">
        <ele>1551.218</ele>
        <time>2019-05-29T11:48:27Z</time>
      </trkpt>
      <trkpt lat="42.576411" lon="2.081939">
        <ele>1551.894</ele>
        <time>2019-05-29T11:48:35Z</time>
      </trkpt>
      <trkpt lat="42.576499" lon="2.081997">
        <ele>1552.257</ele>
        <time>2019-05-29T11:48:39Z</time>
      </trkpt>
      <trkpt lat="42.576616" lon="2.082057">
        <ele>1552.622</ele>
        <time>2019-05-29T11:48:44Z</time>
      </trkpt>
      <trkpt lat="42.576706" lon="2.082104">
        <ele>1553.408</ele>
        <time>2019-05-29T11:48:48Z</time>
      </trkpt>
      <trkpt lat="42.576788" lon="2.082146">
        <ele>1554.092</ele>
        <time>2019-05-29T11:48:52Z</time>
      </trkpt>
      <trkpt lat="42.576853" lon="2.082171">
        <ele>1554.626</ele>
        <time>2019-05-29T11:48:55Z</time>
      </trkpt>
      <trkpt lat="42.576936" lon="2.082177">
        <ele>1555.232</ele>
        <time>2019-05-29T11:48:59Z</time>
      </trkpt>
      <trkpt lat="42.577025" lon="2.082171">
        <ele>1555.850</ele>
        <time>2019-05-29T11:49:03Z</time>
      </trkpt>
      <trkpt lat="42.577106" lon="2.082169">
        <ele>1555.673</ele>
        <time>2019-05-29T11:49:07Z</time>
      </trkpt>
      <trkpt lat="42.577264" lon="2.082157">
        <ele>1556.463</ele>
        <time>2019-05-29T11:49:15Z</time>
      </trkpt>
      <trkpt lat="42.577376" lon="2.082157">
        <ele>1556.815</ele>
        <time>2019-05-29T11:49:21Z</time>
      </trkpt>
      <trkpt lat="42.577394" lon="2.082147">
        <ele>1557.030</ele>
        <time>2019-05-29T11:49:22Z</time>
      </trkpt>
      <trkpt lat="42.577494" lon="2.082098">
        <ele>1558.086</ele>
        <time>2019-05-29T11:49:27Z</time>
      </trkpt>
      <trkpt lat="42.577510" lon="2.082081">
        <ele>1558.260</ele>
        <time>2019-05-29T11:49:28Z</time>
      </trkpt>
      <trkpt lat="42.577531" lon="2.082040">
        <ele>1559.226</ele>
        <time>2019-05-29T11:49:30Z</time>
      </trkpt>
      <trkpt lat="42.577538" lon="2.081928">
        <ele>1559.608</ele>
        <time>2019-05-29T11:49:34Z</time>
      </trkpt>
      <trkpt lat="42.577548" lon="2.081854">
        <ele>1560.241</ele>
        <time>2019-05-29T11:49:37Z</time>
      </trkpt>
      <trkpt lat="42.577572" lon="2.081812">
        <ele>1560.225</ele>
        <time>2019-05-29T11:49:39Z</time>
      </trkpt>
      <trkpt lat="42.577584" lon="2.081795">
        <ele>1559.861</ele>
        <time>2019-05-29T11:49:40Z</time>
      </trkpt>
      <trkpt lat="42.577713" lon="2.081681">
        <ele>1560.049</ele>
        <time>2019-05-29T11:49:48Z</time>
      </trkpt>
      <trkpt lat="42.577836" lon="2.081579">
        <ele>1561.022</ele>
        <time>2019-05-29T11:49:57Z</time>
      </trkpt>
      <trkpt lat="42.577866" lon="2.081553">
        <ele>1561.432</ele>
        <time>2019-05-29T11:49:59Z</time>
      </trkpt>
      <trkpt lat="42.577907" lon="2.081516">
        <ele>1561.854</ele>
        <time>2019-05-29T11:50:02Z</time>
      </trkpt>
      <trkpt lat="42.577979" lon="2.081449">
        <ele>1562.679</ele>
        <time>2019-05-29T11:50:08Z</time>
      </trkpt>
      <trkpt lat="42.578023" lon="2.081430">
        <ele>1563.057</ele>
        <time>2019-05-29T11:50:11Z</time>
      </trkpt>
      <trkpt lat="42.578048" lon="2.081419">
        <ele>1563.600</ele>
        <time>2019-05-29T11:50:13Z</time>
      </trkpt>
      <trkpt lat="42.578099" lon="2.081356">
        <ele>1564.420</ele>
        <time>2019-05-29T11:50:18Z</time>
      </trkpt>
      <trkpt lat="42.578160" lon="2.081293">
        <ele>1564.608</ele>
        <time>2019-05-29T11:50:23Z</time>
      </trkpt>
      <trkpt lat="42.578205" lon="2.081240">
        <ele>1565.688</ele>
        <time>2019-05-29T11:50:27Z</time>
      </trkpt>
      <trkpt lat="42.578213" lon="2.081225">
        <ele>1565.872</ele>
        <time>2019-05-29T11:50:28Z</time>
      </trkpt>
      <trkpt lat="42.578283" lon="2.081152">
        <ele>1566.838</ele>
        <time>2019-05-29T11:50:34Z</time>
      </trkpt>
      <trkpt lat="42.578291" lon="2.081136">
        <ele>1567.066</ele>
        <time>2019-05-29T11:50:35Z</time>
      </trkpt>
      <trkpt lat="42.578345" lon="2.081051">
        <ele>1567.689</ele>
        <time>2019-05-29T11:50:41Z</time>
      </trkpt>
      <trkpt lat="42.578356" lon="2.081035">
        <ele>1568.099</ele>
        <time>2019-05-29T11:50:42Z</time>
      </trkpt>
      <trkpt lat="42.578425" lon="2.080963">
        <ele>1568.651</ele>
        <time>2019-05-29T11:50:48Z</time>
      </trkpt>
      <trkpt lat="42.578458" lon="2.080935">
        <ele>1569.266</ele>
        <time>2019-05-29T11:50:51Z</time>
      </trkpt>
      <trkpt lat="42.578483" lon="2.080921">
        <ele>1569.661</ele>
        <time>2019-05-29T11:50:53Z</time>
      </trkpt>
      <trkpt lat="42.578507" lon="2.080898">
        <ele>1569.821</ele>
        <time>2019-05-29T11:50:55Z</time>
      </trkpt>
      <trkpt lat="42.578519" lon="2.080888">
        <ele>1570.413</ele>
        <time>2019-05-29T11:50:56Z</time>
      </trkpt>
      <trkpt lat="42.578528" lon="2.080870">
        <ele>1571.208</ele>
        <time>2019-05-29T11:50:57Z</time>
      </trkpt>
      <trkpt lat="42.578536" lon="2.080853">
        <ele>1571.879</ele>
        <time>2019-05-29T11:50:58Z</time>
      </trkpt>
      <trkpt lat="42.578573" lon="2.080800">
        <ele>1572.253</ele>
        <time>2019-05-29T11:51:02Z</time>
      </trkpt>
      <trkpt lat="42.578571" lon="2.080723">
        <ele>1572.879</ele>
        <time>2019-05-29T11:51:06Z</time>
      </trkpt>
      <trkpt lat="42.578564" lon="2.080684">
        <ele>1573.467</ele>
        <time>2019-05-29T11:51:08Z</time>
      </trkpt>
      <trkpt lat="42.578561" lon="2.080662">
        <ele>1573.880</ele>
        <time>2019-05-29T11:51:09Z</time>
      </trkpt>
      <trkpt lat="42.578526" lon="2.080509">
        <ele>1574.690</ele>
        <time>2019-05-29T11:51:17Z</time>
      </trkpt>
      <trkpt lat="42.578519" lon="2.080468">
        <ele>1574.822</ele>
        <time>2019-05-29T11:51:19Z</time>
      </trkpt>
      <trkpt lat="42.578511" lon="2.080355">
        <ele>1575.817</ele>
        <time>2019-05-29T11:51:25Z</time>
      </trkpt>
      <trkpt lat="42.578497" lon="2.080224">
        <ele>1576.217</ele>
        <time>2019-05-29T11:51:31Z</time>
      </trkpt>
      <trkpt lat="42.578497" lon="2.080179">
        <ele>1576.687</ele>
        <time>2019-05-29T11:51:33Z</time>
      </trkpt>
      <trkpt lat="42.578495" lon="2.080135">
        <ele>1577.215</ele>
        <time>2019-05-29T11:51:35Z</time>
      </trkpt>
      <trkpt lat="42.578500" lon="2.080115">
        <ele>1577.008</ele>
        <time>2019-05-29T11:51:36Z</time>
      </trkpt>
      <trkpt lat="42.578506" lon="2.080053">
        <ele>1576.894</ele>
        <time>2019-05-29T11:51:39Z</time>
      </trkpt>
      <trkpt lat="42.578537" lon="2.080003">
        <ele>1575.658</ele>
        <time>2019-05-29T11:51:42Z</time>
      </trkpt>
      <trkpt lat="42.578546" lon="2.079990">
        <ele>1574.084</ele>
        <time>2019-05-29T11:51:43Z</time>
      </trkpt>
      <trkpt lat="42.578569" lon="2.079961">
        <ele>1574.022</ele>
        <time>2019-05-29T11:51:45Z</time>
      </trkpt>
      <trkpt lat="42.578604" lon="2.079928">
        <ele>1575.215</ele>
        <time>2019-05-29T11:51:48Z</time>
      </trkpt>
      <trkpt lat="42.578642" lon="2.079906">
        <ele>1576.225</ele>
        <time>2019-05-29T11:51:51Z</time>
      </trkpt>
      <trkpt lat="42.578670" lon="2.079895">
        <ele>1577.037</ele>
        <time>2019-05-29T11:51:53Z</time>
      </trkpt>
      <trkpt lat="42.578726" lon="2.079881">
        <ele>1576.252</ele>
        <time>2019-05-29T11:51:57Z</time>
      </trkpt>
      <trkpt lat="42.578747" lon="2.079856">
        <ele>1577.034</ele>
        <time>2019-05-29T11:51:59Z</time>
      </trkpt>
      <trkpt lat="42.578761" lon="2.079849">
        <ele>1577.455</ele>
        <time>2019-05-29T11:52:00Z</time>
      </trkpt>
      <trkpt lat="42.578811" lon="2.079819">
        <ele>1577.610</ele>
        <time>2019-05-29T11:52:04Z</time>
      </trkpt>
      <trkpt lat="42.578845" lon="2.079783">
        <ele>1578.808</ele>
        <time>2019-05-29T11:52:07Z</time>
      </trkpt>
      <trkpt lat="42.578888" lon="2.079743">
        <ele>1578.276</ele>
        <time>2019-05-29T11:52:11Z</time>
      </trkpt>
      <trkpt lat="42.578916" lon="2.079739">
        <ele>1578.080</ele>
        <time>2019-05-29T11:52:13Z</time>
      </trkpt>
      <trkpt lat="42.578981" lon="2.079725">
        <ele>1579.026</ele>
        <time>2019-05-29T11:52:18Z</time>
      </trkpt>
      <trkpt lat="42.579010" lon="2.079713">
        <ele>1579.284</ele>
        <time>2019-05-29T11:52:20Z</time>
      </trkpt>
      <trkpt lat="42.579126" lon="2.079694">
        <ele>1580.017</ele>
        <time>2019-05-29T11:52:28Z</time>
      </trkpt>
      <trkpt lat="42.579154" lon="2.079689">
        <ele>1580.617</ele>
        <time>2019-05-29T11:52:30Z</time>
      </trkpt>
      <trkpt lat="42.579169" lon="2.079685">
        <ele>1581.619</ele>
        <time>2019-05-29T11:52:31Z</time>
      </trkpt>
      <trkpt lat="42.579265" lon="2.079708">
        <ele>1581.814</ele>
        <time>2019-05-29T11:52:37Z</time>
      </trkpt>
      <trkpt lat="42.579377" lon="2.079720">
        <ele>1582.296</ele>
        <time>2019-05-29T11:52:45Z</time>
      </trkpt>
      <trkpt lat="42.579393" lon="2.079721">
        <ele>1582.631</ele>
        <time>2019-05-29T11:52:46Z</time>
      </trkpt>
      <trkpt lat="42.579454" lon="2.079657">
        <ele>1583.624</ele>
        <time>2019-05-29T11:52:52Z</time>
      </trkpt>
      <trkpt lat="42.579457" lon="2.079598">
        <ele>1584.808</ele>
        <time>2019-05-29T11:52:55Z</time>
      </trkpt>
      <trkpt lat="42.579429" lon="2.079527">
        <ele>1585.092</ele>
        <time>2019-05-29T11:52:59Z</time>
      </trkpt>
      <trkpt lat="42.579379" lon="2.079425">
        <ele>1585.816</ele>
        <time>2019-05-29T11:53:05Z</time>
      </trkpt>
      <trkpt lat="42.579373" lon="2.079410">
        <ele>1585.852</ele>
        <time>2019-05-29T11:53:06Z</time>
      </trkpt>
      <trkpt lat="42.579316" lon="2.079295">
        <ele>1586.670</ele>
        <time>2019-05-29T11:53:13Z</time>
      </trkpt>
      <trkpt lat="42.579291" lon="2.079222">
        <ele>1587.083</ele>
        <time>2019-05-29T11:53:17Z</time>
      </trkpt>
      <trkpt lat="42.579270" lon="2.079140">
        <ele>1587.213</ele>
        <time>2019-05-29T11:53:21Z</time>
      </trkpt>
      <trkpt lat="42.579240" lon="2.079039">
        <ele>1588.085</ele>
        <time>2019-05-29T11:53:26Z</time>
      </trkpt>
      <trkpt lat="42.579228" lon="2.078989">
        <ele>1588.230</ele>
        <time>2019-05-29T11:53:29Z</time>
      </trkpt>
      <trkpt lat="42.579216" lon="2.078890">
        <ele>1589.285</ele>
        <time>2019-05-29T11:53:35Z</time>
      </trkpt>
      <trkpt lat="42.579202" lon="2.078872">
        <ele>1589.689</ele>
        <time>2019-05-29T11:53:36Z</time>
      </trkpt>
      <trkpt lat="42.579191" lon="2.078855">
        <ele>1590.017</ele>
        <time>2019-05-29T11:53:37Z</time>
      </trkpt>
      <trkpt lat="42.579178" lon="2.078820">
        <ele>1590.608</ele>
        <time>2019-05-29T11:53:39Z</time>
      </trkpt>
      <trkpt lat="42.579158" lon="2.078787">
        <ele>1591.411</ele>
        <time>2019-05-29T11:53:41Z</time>
      </trkpt>
      <trkpt lat="42.579096" lon="2.078726">
        <ele>1591.245</ele>
        <time>2019-05-29T11:53:45Z</time>
      </trkpt>
      <trkpt lat="42.578929" lon="2.078590">
        <ele>1590.881</ele>
        <time>2019-05-29T11:53:53Z</time>
      </trkpt>
      <trkpt lat="42.578801" lon="2.078473">
        <ele>1590.259</ele>
        <time>2019-05-29T11:54:00Z</time>
      </trkpt>
      <trkpt lat="42.578781" lon="2.078444">
        <ele>1589.662</ele>
        <time>2019-05-29T11:55:25Z</time>
      </trkpt>
      <trkpt lat="42.578764" lon="2.078424">
        <ele>1589.422</ele>
        <time>2019-05-29T11:55:26Z</time>
      </trkpt>
      <trkpt lat="42.578615" lon="2.078301">
        <ele>1588.824</ele>
        <time>2019-05-29T11:55:33Z</time>
      </trkpt>
      <trkpt lat="42.578445" lon="2.078149">
        <ele>1588.839</ele>
        <time>2019-05-29T11:55:40Z</time>
      </trkpt>
      <trkpt lat="42.578375" lon="2.078105">
        <ele>1588.265</ele>
        <time>2019-05-29T11:55:42Z</time>
      </trkpt>
      <trkpt lat="42.578334" lon="2.078092">
        <ele>1587.668</ele>
        <time>2019-05-29T11:55:43Z</time>
      </trkpt>
      <trkpt lat="42.578238" lon="2.078084">
        <ele>1587.214</ele>
        <time>2019-05-29T11:55:45Z</time>
      </trkpt>
      <trkpt lat="42.578135" lon="2.078093">
        <ele>1587.008</ele>
        <time>2019-05-29T11:55:47Z</time>
      </trkpt>
      <trkpt lat="42.578082" lon="2.078093">
        <ele>1587.039</ele>
        <time>2019-05-29T11:55:48Z</time>
      </trkpt>
      <trkpt lat="42.577984" lon="2.078072">
        <ele>1586.643</ele>
        <time>2019-05-29T11:55:50Z</time>
      </trkpt>
      <trkpt lat="42.577846" lon="2.078009">
        <ele>1586.279</ele>
        <time>2019-05-29T11:55:53Z</time>
      </trkpt>
      <trkpt lat="42.577803" lon="2.077984">
        <ele>1586.237</ele>
        <time>2019-05-29T11:55:54Z</time>
      </trkpt>
      <trkpt lat="42.577715" lon="2.077945">
        <ele>1586.260</ele>
        <time>2019-05-29T11:55:56Z</time>
      </trkpt>
      <trkpt lat="42.577574" lon="2.077840">
        <ele>1586.070</ele>
        <time>2019-05-29T11:56:00Z</time>
      </trkpt>
      <trkpt lat="42.577498" lon="2.077811">
        <ele>1586.082</ele>
        <time>2019-05-29T11:56:02Z</time>
      </trkpt>
      <trkpt lat="42.577350" lon="2.077774">
        <ele>1585.267</ele>
        <time>2019-05-29T11:56:05Z</time>
      </trkpt>
      <trkpt lat="42.577300" lon="2.077761">
        <ele>1585.247</ele>
        <time>2019-05-29T11:56:06Z</time>
      </trkpt>
      <trkpt lat="42.577252" lon="2.077752">
        <ele>1584.829</ele>
        <time>2019-05-29T11:56:07Z</time>
      </trkpt>
      <trkpt lat="42.577162" lon="2.077770">
        <ele>1584.821</ele>
        <time>2019-05-29T11:56:09Z</time>
      </trkpt>
      <trkpt lat="42.577030" lon="2.077817">
        <ele>1584.208</ele>
        <time>2019-05-29T11:56:12Z</time>
      </trkpt>
      <trkpt lat="42.576984" lon="2.077823">
        <ele>1584.097</ele>
        <time>2019-05-29T11:56:13Z</time>
      </trkpt>
      <trkpt lat="42.576935" lon="2.077825">
        <ele>1583.461</ele>
        <time>2019-05-29T11:56:14Z</time>
      </trkpt>
      <trkpt lat="42.576829" lon="2.077824">
        <ele>1582.667</ele>
        <time>2019-05-29T11:56:16Z</time>
      </trkpt>
      <trkpt lat="42.576716" lon="2.077817">
        <ele>1582.285</ele>
        <time>2019-05-29T11:56:18Z</time>
      </trkpt>
      <trkpt lat="42.576595" lon="2.077788">
        <ele>1581.658</ele>
        <time>2019-05-29T11:56:20Z</time>
      </trkpt>
      <trkpt lat="42.576534" lon="2.077767">
        <ele>1581.488</ele>
        <time>2019-05-29T11:56:21Z</time>
      </trkpt>
      <trkpt lat="42.576303" lon="2.077688">
        <ele>1580.450</ele>
        <time>2019-05-29T11:56:25Z</time>
      </trkpt>
      <trkpt lat="42.576244" lon="2.077679">
        <ele>1580.075</ele>
        <time>2019-05-29T11:56:26Z</time>
      </trkpt>
      <trkpt lat="42.576135" lon="2.077651">
        <ele>1580.082</ele>
        <time>2019-05-29T11:56:28Z</time>
      </trkpt>
      <trkpt lat="42.576031" lon="2.077612">
        <ele>1579.443</ele>
        <time>2019-05-29T11:56:30Z</time>
      </trkpt>
      <trkpt lat="42.575916" lon="2.077577">
        <ele>1579.417</ele>
        <time>2019-05-29T11:56:32Z</time>
      </trkpt>
      <trkpt lat="42.575863" lon="2.077560">
        <ele>1578.408</ele>
        <time>2019-05-29T11:56:33Z</time>
      </trkpt>
      <trkpt lat="42.575759" lon="2.077528">
        <ele>1578.231</ele>
        <time>2019-05-29T11:56:35Z</time>
      </trkpt>
      <trkpt lat="42.575596" lon="2.077469">
        <ele>1577.495</ele>
        <time>2019-05-29T11:56:38Z</time>
      </trkpt>
      <trkpt lat="42.575477" lon="2.077426">
        <ele>1576.061</ele>
        <time>2019-05-29T11:56:40Z</time>
      </trkpt>
      <trkpt lat="42.575351" lon="2.077384">
        <ele>1575.819</ele>
        <time>2019-05-29T11:56:42Z</time>
      </trkpt>
      <trkpt lat="42.575054" lon="2.077338">
        <ele>1575.862</ele>
        <time>2019-05-29T11:56:47Z</time>
      </trkpt>
      <trkpt lat="42.574921" lon="2.077271">
        <ele>1575.852</ele>
        <time>2019-05-29T11:56:51Z</time>
      </trkpt>
      <trkpt lat="42.574896" lon="2.077249">
        <ele>1575.614</ele>
        <time>2019-05-29T11:56:52Z</time>
      </trkpt>
      <trkpt lat="42.574720" lon="2.077153">
        <ele>1575.639</ele>
        <time>2019-05-29T11:56:58Z</time>
      </trkpt>
      <trkpt lat="42.574648" lon="2.077091">
        <ele>1576.248</ele>
        <time>2019-05-29T11:57:01Z</time>
      </trkpt>
      <trkpt lat="42.574629" lon="2.077039">
        <ele>1577.061</ele>
        <time>2019-05-29T11:57:03Z</time>
      </trkpt>
      <trkpt lat="42.574634" lon="2.076997">
        <ele>1577.417</ele>
        <time>2019-05-29T11:57:05Z</time>
      </trkpt>
      <trkpt lat="42.574652" lon="2.076962">
        <ele>1578.208</ele>
        <time>2019-05-29T11:57:07Z</time>
      </trkpt>
      <trkpt lat="42.574662" lon="2.076947">
        <ele>1578.237</ele>
        <time>2019-05-29T11:57:08Z</time>
      </trkpt>
      <trkpt lat="42.574742" lon="2.076828">
        <ele>1579.461</ele>
        <time>2019-05-29T11:57:16Z</time>
      </trkpt>
      <trkpt lat="42.574800" lon="2.076735">
        <ele>1580.837</ele>
        <time>2019-05-29T11:57:22Z</time>
      </trkpt>
      <trkpt lat="42.574811" lon="2.076718">
        <ele>1581.015</ele>
        <time>2019-05-29T11:57:23Z</time>
      </trkpt>
      <trkpt lat="42.574861" lon="2.076614">
        <ele>1581.828</ele>
        <time>2019-05-29T11:57:29Z</time>
      </trkpt>
      <trkpt lat="42.574867" lon="2.076490">
        <ele>1582.838</ele>
        <time>2019-05-29T11:57:35Z</time>
      </trkpt>
      <trkpt lat="42.574865" lon="2.076446">
        <ele>1583.070</ele>
        <time>2019-05-29T11:57:37Z</time>
      </trkpt>
      <trkpt lat="42.574841" lon="2.076357">
        <ele>1584.035</ele>
        <time>2019-05-29T11:57:42Z</time>
      </trkpt>
      <trkpt lat="42.574836" lon="2.076320">
        <ele>1584.633</ele>
        <time>2019-05-29T11:57:44Z</time>
      </trkpt>
      <trkpt lat="42.574818" lon="2.076257">
        <ele>1585.223</ele>
        <time>2019-05-29T11:57:48Z</time>
      </trkpt>
      <trkpt lat="42.574807" lon="2.076224">
        <ele>1585.615</ele>
        <time>2019-05-29T11:57:50Z</time>
      </trkpt>
      <trkpt lat="42.574799" lon="2.076207">
        <ele>1585.808</ele>
        <time>2019-05-29T11:57:51Z</time>
      </trkpt>
      <trkpt lat="42.574784" lon="2.076162">
        <ele>1586.256</ele>
        <time>2019-05-29T11:57:54Z</time>
      </trkpt>
      <trkpt lat="42.574775" lon="2.076130">
        <ele>1586.620</ele>
        <time>2019-05-29T11:57:56Z</time>
      </trkpt>
      <trkpt lat="42.574764" lon="2.076095">
        <ele>1587.016</ele>
        <time>2019-05-29T11:57:58Z</time>
      </trkpt>
      <trkpt lat="42.574750" lon="2.076065">
        <ele>1587.484</ele>
        <time>2019-05-29T11:58:00Z</time>
      </trkpt>
      <trkpt lat="42.574722" lon="2.075996">
        <ele>1587.817</ele>
        <time>2019-05-29T11:58:04Z</time>
      </trkpt>
      <trkpt lat="42.574716" lon="2.075944">
        <ele>1588.497</ele>
        <time>2019-05-29T11:58:07Z</time>
      </trkpt>
      <trkpt lat="42.574700" lon="2.075893">
        <ele>1589.079</ele>
        <time>2019-05-29T11:58:10Z</time>
      </trkpt>
      <trkpt lat="42.574663" lon="2.075805">
        <ele>1589.674</ele>
        <time>2019-05-29T11:58:15Z</time>
      </trkpt>
      <trkpt lat="42.574644" lon="2.075774">
        <ele>1589.872</ele>
        <time>2019-05-29T11:58:17Z</time>
      </trkpt>
      <trkpt lat="42.574586" lon="2.075646">
        <ele>1590.613</ele>
        <time>2019-05-29T11:58:24Z</time>
      </trkpt>
      <trkpt lat="42.574576" lon="2.075628">
        <ele>1590.814</ele>
        <time>2019-05-29T11:58:25Z</time>
      </trkpt>
      <trkpt lat="42.574506" lon="2.075455">
        <ele>1590.608</ele>
        <time>2019-05-29T11:58:33Z</time>
      </trkpt>
      <trkpt lat="42.574440" lon="2.075280">
        <ele>1591.250</ele>
        <time>2019-05-29T11:58:41Z</time>
      </trkpt>
      <trkpt lat="42.574386" lon="2.075087">
        <ele>1591.674</ele>
        <time>2019-05-29T11:58:49Z</time>
      </trkpt>
      <trkpt lat="42.574354" lon="2.074906">
        <ele>1591.280</ele>
        <time>2019-05-29T11:58:55Z</time>
      </trkpt>
      <trkpt lat="42.574331" lon="2.074723">
        <ele>1590.658</ele>
        <time>2019-05-29T11:59:01Z</time>
      </trkpt>
      <trkpt lat="42.574304" lon="2.074584">
        <ele>1591.631</ele>
        <time>2019-05-29T11:59:06Z</time>
      </trkpt>
      <trkpt lat="42.574302" lon="2.074523">
        <ele>1592.421</ele>
        <time>2019-05-29T11:59:08Z</time>
      </trkpt>
      <trkpt lat="42.574307" lon="2.074344">
        <ele>1592.423</ele>
        <time>2019-05-29T11:59:14Z</time>
      </trkpt>
      <trkpt lat="42.574289" lon="2.074154">
        <ele>1592.298</ele>
        <time>2019-05-29T11:59:20Z</time>
      </trkpt>
      <trkpt lat="42.574298" lon="2.073971">
        <ele>1592.261</ele>
        <time>2019-05-29T11:59:26Z</time>
      </trkpt>
      <trkpt lat="42.574311" lon="2.073817">
        <ele>1592.621</ele>
        <time>2019-05-29T11:59:31Z</time>
      </trkpt>
      <trkpt lat="42.574312" lon="2.073791">
        <ele>1592.813</ele>
        <time>2019-05-29T11:59:32Z</time>
      </trkpt>
      <trkpt lat="42.574324" lon="2.073606">
        <ele>1593.208</ele>
        <time>2019-05-29T11:59:39Z</time>
      </trkpt>
      <trkpt lat="42.574339" lon="2.073496">
        <ele>1594.079</ele>
        <time>2019-05-29T11:59:43Z</time>
      </trkpt>
      <trkpt lat="42.574351" lon="2.073420">
        <ele>1594.473</ele>
        <time>2019-05-29T11:59:46Z</time>
      </trkpt>
      <trkpt lat="42.574409" lon="2.073249">
        <ele>1595.069</ele>
        <time>2019-05-29T11:59:54Z</time>
      </trkpt>
      <trkpt lat="42.574455" lon="2.073208">
        <ele>1596.257</ele>
        <time>2019-05-29T11:59:58Z</time>
      </trkpt>
      <trkpt lat="42.574501" lon="2.073202">
        <ele>1597.090</ele>
        <time>2019-05-29T12:00:01Z</time>
      </trkpt>
      <trkpt lat="42.574547" lon="2.073194">
        <ele>1597.480</ele>
        <time>2019-05-29T12:00:04Z</time>
      </trkpt>
      <trkpt lat="42.574594" lon="2.073183">
        <ele>1598.812</ele>
        <time>2019-05-29T12:00:07Z</time>
      </trkpt>
      <trkpt lat="42.574627" lon="2.073165">
        <ele>1600.277</ele>
        <time>2019-05-29T12:00:10Z</time>
      </trkpt>
      <trkpt lat="42.574704" lon="2.073120">
        <ele>1601.251</ele>
        <time>2019-05-29T12:00:16Z</time>
      </trkpt>
      <trkpt lat="42.574723" lon="2.073092">
        <ele>1600.401</ele>
        <time>2019-05-29T12:00:18Z</time>
      </trkpt>
      <trkpt lat="42.574784" lon="2.073002">
        <ele>1601.611</ele>
        <time>2019-05-29T12:00:25Z</time>
      </trkpt>
      <trkpt lat="42.574808" lon="2.072956">
        <ele>1602.208</ele>
        <time>2019-05-29T12:00:28Z</time>
      </trkpt>
      <trkpt lat="42.574819" lon="2.072925">
        <ele>1603.288</ele>
        <time>2019-05-29T12:00:30Z</time>
      </trkpt>
      <trkpt lat="42.574834" lon="2.072880">
        <ele>1603.882</ele>
        <time>2019-05-29T12:00:33Z</time>
      </trkpt>
      <trkpt lat="42.574851" lon="2.072834">
        <ele>1604.468</ele>
        <time>2019-05-29T12:00:36Z</time>
      </trkpt>
      <trkpt lat="42.574855" lon="2.072819">
        <ele>1604.466</ele>
        <time>2019-05-29T12:00:37Z</time>
      </trkpt>
      <trkpt lat="42.574860" lon="2.072741">
        <ele>1604.689</ele>
        <time>2019-05-29T12:00:41Z</time>
      </trkpt>
      <trkpt lat="42.574858" lon="2.072705">
        <ele>1605.289</ele>
        <time>2019-05-29T12:00:43Z</time>
      </trkpt>
      <trkpt lat="42.574854" lon="2.072677">
        <ele>1605.481</ele>
        <time>2019-05-29T12:00:45Z</time>
      </trkpt>
      <trkpt lat="42.574848" lon="2.072614">
        <ele>1606.216</ele>
        <time>2019-05-29T12:00:49Z</time>
      </trkpt>
      <trkpt lat="42.574818" lon="2.072527">
        <ele>1606.695</ele>
        <time>2019-05-29T12:00:54Z</time>
      </trkpt>
      <trkpt lat="42.574805" lon="2.072486">
        <ele>1607.649</ele>
        <time>2019-05-29T12:00:57Z</time>
      </trkpt>
      <trkpt lat="42.574795" lon="2.072439">
        <ele>1607.623</ele>
        <time>2019-05-29T12:01:00Z</time>
      </trkpt>
      <trkpt lat="42.574780" lon="2.072406">
        <ele>1608.208</ele>
        <time>2019-05-29T12:01:02Z</time>
      </trkpt>
      <trkpt lat="42.574760" lon="2.072362">
        <ele>1608.832</ele>
        <time>2019-05-29T12:01:05Z</time>
      </trkpt>
      <trkpt lat="42.574717" lon="2.072275">
        <ele>1609.896</ele>
        <time>2019-05-29T12:01:11Z</time>
      </trkpt>
      <trkpt lat="42.574711" lon="2.072256">
        <ele>1610.042</ele>
        <time>2019-05-29T12:01:12Z</time>
      </trkpt>
      <trkpt lat="42.574678" lon="2.072180">
        <ele>1610.670</ele>
        <time>2019-05-29T12:01:17Z</time>
      </trkpt>
      <trkpt lat="42.574660" lon="2.072149">
        <ele>1611.063</ele>
        <time>2019-05-29T12:01:19Z</time>
      </trkpt>
      <trkpt lat="42.574621" lon="2.072067">
        <ele>1611.883</ele>
        <time>2019-05-29T12:01:24Z</time>
      </trkpt>
      <trkpt lat="42.574613" lon="2.072050">
        <ele>1612.075</ele>
        <time>2019-05-29T12:01:25Z</time>
      </trkpt>
      <trkpt lat="42.574532" lon="2.071920">
        <ele>1612.840</ele>
        <time>2019-05-29T12:01:33Z</time>
      </trkpt>
      <trkpt lat="42.574446" lon="2.071879">
        <ele>1613.051</ele>
        <time>2019-05-29T12:01:39Z</time>
      </trkpt>
      <trkpt lat="42.574337" lon="2.071816">
        <ele>1613.801</ele>
        <time>2019-05-29T12:01:47Z</time>
      </trkpt>
      <trkpt lat="42.574284" lon="2.071793">
        <ele>1614.211</ele>
        <time>2019-05-29T12:01:51Z</time>
      </trkpt>
      <trkpt lat="42.574213" lon="2.071774">
        <ele>1614.608</ele>
        <time>2019-05-29T12:01:56Z</time>
      </trkpt>
      <trkpt lat="42.574102" lon="2.071740">
        <ele>1615.028</ele>
        <time>2019-05-29T12:02:04Z</time>
      </trkpt>
      <trkpt lat="42.574053" lon="2.071740">
        <ele>1615.212</ele>
        <time>2019-05-29T12:02:07Z</time>
      </trkpt>
      <trkpt lat="42.573983" lon="2.071725">
        <ele>1615.658</ele>
        <time>2019-05-29T12:02:12Z</time>
      </trkpt>
      <trkpt lat="42.573860" lon="2.071729">
        <ele>1616.286</ele>
        <time>2019-05-29T12:02:20Z</time>
      </trkpt>
      <trkpt lat="42.573728" lon="2.071761">
        <ele>1617.239</ele>
        <time>2019-05-29T12:02:28Z</time>
      </trkpt>
      <trkpt lat="42.573681" lon="2.071771">
        <ele>1617.449</ele>
        <time>2019-05-29T12:02:31Z</time>
      </trkpt>
      <trkpt lat="42.573607" lon="2.071802">
        <ele>1618.031</ele>
        <time>2019-05-29T12:02:36Z</time>
      </trkpt>
      <trkpt lat="42.573558" lon="2.071806">
        <ele>1618.686</ele>
        <time>2019-05-29T12:02:39Z</time>
      </trkpt>
      <trkpt lat="42.573482" lon="2.071813">
        <ele>1619.054</ele>
        <time>2019-05-29T12:02:44Z</time>
      </trkpt>
      <trkpt lat="42.573439" lon="2.071818">
        <ele>1619.256</ele>
        <time>2019-05-29T12:02:47Z</time>
      </trkpt>
      <trkpt lat="42.573396" lon="2.071818">
        <ele>1619.611</ele>
        <time>2019-05-29T12:02:50Z</time>
      </trkpt>
      <trkpt lat="42.573321" lon="2.071814">
        <ele>1620.608</ele>
        <time>2019-05-29T12:02:55Z</time>
      </trkpt>
      <trkpt lat="42.573294" lon="2.071816">
        <ele>1621.018</ele>
        <time>2019-05-29T12:02:57Z</time>
      </trkpt>
      <trkpt lat="42.573236" lon="2.071819">
        <ele>1621.842</ele>
        <time>2019-05-29T12:03:01Z</time>
      </trkpt>
      <trkpt lat="42.573169" lon="2.071807">
        <ele>1622.628</ele>
        <time>2019-05-29T12:03:06Z</time>
      </trkpt>
      <trkpt lat="42.573140" lon="2.071819">
        <ele>1622.876</ele>
        <time>2019-05-29T12:03:08Z</time>
      </trkpt>
      <trkpt lat="42.573060" lon="2.071819">
        <ele>1624.249</ele>
        <time>2019-05-29T12:03:14Z</time>
      </trkpt>
      <trkpt lat="42.573013" lon="2.071818">
        <ele>1625.019</ele>
        <time>2019-05-29T12:03:18Z</time>
      </trkpt>
      <trkpt lat="42.572997" lon="2.071822">
        <ele>1625.481</ele>
        <time>2019-05-29T12:03:19Z</time>
      </trkpt>
      <trkpt lat="42.572983" lon="2.071823">
        <ele>1625.676</ele>
        <time>2019-05-29T12:03:20Z</time>
      </trkpt>
      <trkpt lat="42.572938" lon="2.071834">
        <ele>1626.498</ele>
        <time>2019-05-29T12:03:24Z</time>
      </trkpt>
      <trkpt lat="42.572895" lon="2.071839">
        <ele>1627.015</ele>
        <time>2019-05-29T12:03:27Z</time>
      </trkpt>
      <trkpt lat="42.572874" lon="2.071850">
        <ele>1627.026</ele>
        <time>2019-05-29T12:03:28Z</time>
      </trkpt>
      <trkpt lat="42.572844" lon="2.071852">
        <ele>1627.408</ele>
        <time>2019-05-29T12:03:30Z</time>
      </trkpt>
      <trkpt lat="42.572789" lon="2.071882">
        <ele>1628.072</ele>
        <time>2019-05-29T12:03:34Z</time>
      </trkpt>
      <trkpt lat="42.572746" lon="2.071885">
        <ele>1628.616</ele>
        <time>2019-05-29T12:03:37Z</time>
      </trkpt>
      <trkpt lat="42.572718" lon="2.071891">
        <ele>1628.862</ele>
        <time>2019-05-29T12:03:39Z</time>
      </trkpt>
      <trkpt lat="42.572688" lon="2.071913">
        <ele>1628.840</ele>
        <time>2019-05-29T12:03:41Z</time>
      </trkpt>
      <trkpt lat="42.572643" lon="2.071933">
        <ele>1629.643</ele>
        <time>2019-05-29T12:03:45Z</time>
      </trkpt>
      <trkpt lat="42.572590" lon="2.071973">
        <ele>1630.283</ele>
        <time>2019-05-29T12:03:50Z</time>
      </trkpt>
      <trkpt lat="42.572545" lon="2.072012">
        <ele>1630.235</ele>
        <time>2019-05-29T12:03:54Z</time>
      </trkpt>
      <trkpt lat="42.572524" lon="2.072032">
        <ele>1630.220</ele>
        <time>2019-05-29T12:03:56Z</time>
      </trkpt>
      <trkpt lat="42.572495" lon="2.072056">
        <ele>1630.817</ele>
        <time>2019-05-29T12:03:59Z</time>
      </trkpt>
      <trkpt lat="42.572461" lon="2.072090">
        <ele>1630.887</ele>
        <time>2019-05-29T12:04:02Z</time>
      </trkpt>
      <trkpt lat="42.572421" lon="2.072130">
        <ele>1632.215</ele>
        <time>2019-05-29T12:04:06Z</time>
      </trkpt>
      <trkpt lat="42.572371" lon="2.072167">
        <ele>1633.608</ele>
        <time>2019-05-29T12:04:11Z</time>
      </trkpt>
      <trkpt lat="42.572329" lon="2.072196">
        <ele>1634.894</ele>
        <time>2019-05-29T12:04:15Z</time>
      </trkpt>
      <trkpt lat="42.572297" lon="2.072208">
        <ele>1635.648</ele>
        <time>2019-05-29T12:04:18Z</time>
      </trkpt>
      <trkpt lat="42.572285" lon="2.072206">
        <ele>1635.894</ele>
        <time>2019-05-29T12:04:19Z</time>
      </trkpt>
      <trkpt lat="42.572237" lon="2.072202">
        <ele>1636.632</ele>
        <time>2019-05-29T12:04:23Z</time>
      </trkpt>
      <trkpt lat="42.572224" lon="2.072199">
        <ele>1636.845</ele>
        <time>2019-05-29T12:04:24Z</time>
      </trkpt>
      <trkpt lat="42.572201" lon="2.072188">
        <ele>1637.415</ele>
        <time>2019-05-29T12:04:26Z</time>
      </trkpt>
      <trkpt lat="42.572192" lon="2.072178">
        <ele>1637.637</ele>
        <time>2019-05-29T12:04:27Z</time>
      </trkpt>
      <trkpt lat="42.572185" lon="2.072148">
        <ele>1638.042</ele>
        <time>2019-05-29T12:04:29Z</time>
      </trkpt>
      <trkpt lat="42.572190" lon="2.072126">
        <ele>1638.636</ele>
        <time>2019-05-29T12:04:31Z</time>
      </trkpt>
      <trkpt lat="42.572199" lon="2.072112">
        <ele>1639.017</ele>
        <time>2019-05-29T12:04:33Z</time>
      </trkpt>
      <trkpt lat="42.572230" lon="2.072055">
        <ele>1639.418</ele>
        <time>2019-05-29T12:04:38Z</time>
      </trkpt>
      <trkpt lat="42.572273" lon="2.071989">
        <ele>1640.008</ele>
        <time>2019-05-29T12:04:43Z</time>
      </trkpt>
      <trkpt lat="42.572291" lon="2.071962">
        <ele>1639.826</ele>
        <time>2019-05-29T12:04:45Z</time>
      </trkpt>
      <trkpt lat="42.572311" lon="2.071938">
        <ele>1640.220</ele>
        <time>2019-05-29T12:04:47Z</time>
      </trkpt>
      <trkpt lat="42.572358" lon="2.071835">
        <ele>1640.626</ele>
        <time>2019-05-29T12:04:53Z</time>
      </trkpt>
      <trkpt lat="42.572367" lon="2.071779">
        <ele>1640.294</ele>
        <time>2019-05-29T12:04:56Z</time>
      </trkpt>
      <trkpt lat="42.572352" lon="2.071731">
        <ele>1640.617</ele>
        <time>2019-05-29T12:04:59Z</time>
      </trkpt>
      <trkpt lat="42.572342" lon="2.071716">
        <ele>1640.627</ele>
        <time>2019-05-29T12:05:00Z</time>
      </trkpt>
      <trkpt lat="42.572329" lon="2.071707">
        <ele>1640.679</ele>
        <time>2019-05-29T12:05:01Z</time>
      </trkpt>
      <trkpt lat="42.572289" lon="2.071715">
        <ele>1640.634</ele>
        <time>2019-05-29T12:05:04Z</time>
      </trkpt>
      <trkpt lat="42.572212" lon="2.071781">
        <ele>1640.869</ele>
        <time>2019-05-29T12:05:10Z</time>
      </trkpt>
      <trkpt lat="42.572186" lon="2.071814">
        <ele>1641.204</ele>
        <time>2019-05-29T12:05:12Z</time>
      </trkpt>
      <trkpt lat="42.572110" lon="2.071918">
        <ele>1642.024</ele>
        <time>2019-05-29T12:05:18Z</time>
      </trkpt>
      <trkpt lat="42.572016" lon="2.072047">
        <ele>1642.408</ele>
        <time>2019-05-29T12:05:25Z</time>
      </trkpt>
      <trkpt lat="42.571971" lon="2.072106">
        <ele>1642.629</ele>
        <time>2019-05-29T12:05:28Z</time>
      </trkpt>
      <trkpt lat="42.571863" lon="2.072252">
        <ele>1643.443</ele>
        <time>2019-05-29T12:05:36Z</time>
      </trkpt>
      <trkpt lat="42.571846" lon="2.072267">
        <ele>1643.619</ele>
        <time>2019-05-29T12:05:37Z</time>
      </trkpt>
      <trkpt lat="42.571749" lon="2.072390">
        <ele>1643.047</ele>
        <time>2019-05-29T12:05:43Z</time>
      </trkpt>
      <trkpt lat="42.571692" lon="2.072445">
        <ele>1644.650</ele>
        <time>2019-05-29T12:05:46Z</time>
      </trkpt>
      <trkpt lat="42.571625" lon="2.072525">
        <ele>1644.620</ele>
        <time>2019-05-29T12:05:49Z</time>
      </trkpt>
      <trkpt lat="42.571455" lon="2.072721">
        <ele>1645.012</ele>
        <time>2019-05-29T12:05:58Z</time>
      </trkpt>
      <trkpt lat="42.571317" lon="2.072884">
        <ele>1645.427</ele>
        <time>2019-05-29T12:06:06Z</time>
      </trkpt>
      <trkpt lat="42.571282" lon="2.072922">
        <ele>1645.651</ele>
        <time>2019-05-29T12:06:08Z</time>
      </trkpt>
      <trkpt lat="42.571192" lon="2.073023">
        <ele>1646.801</ele>
        <time>2019-05-29T12:06:13Z</time>
      </trkpt>
      <trkpt lat="42.571176" lon="2.073044">
        <ele>1647.011</ele>
        <time>2019-05-29T12:06:14Z</time>
      </trkpt>
      <trkpt lat="42.571072" lon="2.073159">
        <ele>1646.808</ele>
        <time>2019-05-29T12:06:20Z</time>
      </trkpt>
      <trkpt lat="42.570932" lon="2.073325">
        <ele>1647.648</ele>
        <time>2019-05-29T12:06:28Z</time>
      </trkpt>
      <trkpt lat="42.570860" lon="2.073408">
        <ele>1647.812</ele>
        <time>2019-05-29T12:06:32Z</time>
      </trkpt>
      <trkpt lat="42.570787" lon="2.073486">
        <ele>1648.078</ele>
        <time>2019-05-29T12:06:36Z</time>
      </trkpt>
      <trkpt lat="42.570644" lon="2.073650">
        <ele>1648.836</ele>
        <time>2019-05-29T12:06:44Z</time>
      </trkpt>
      <trkpt lat="42.570605" lon="2.073690">
        <ele>1649.269</ele>
        <time>2019-05-29T12:06:46Z</time>
      </trkpt>
      <trkpt lat="42.570491" lon="2.073786">
        <ele>1650.019</ele>
        <time>2019-05-29T12:06:52Z</time>
      </trkpt>
      <trkpt lat="42.570445" lon="2.073807">
        <ele>1650.441</ele>
        <time>2019-05-29T12:06:54Z</time>
      </trkpt>
      <trkpt lat="42.570307" lon="2.073867">
        <ele>1651.256</ele>
        <time>2019-05-29T12:07:00Z</time>
      </trkpt>
      <trkpt lat="42.570260" lon="2.073886">
        <ele>1651.418</ele>
        <time>2019-05-29T12:07:02Z</time>
      </trkpt>
      <trkpt lat="42.570088" lon="2.073941">
        <ele>1652.298</ele>
        <time>2019-05-29T12:07:09Z</time>
      </trkpt>
      <trkpt lat="42.570063" lon="2.073941">
        <ele>1653.017</ele>
        <time>2019-05-29T12:07:10Z</time>
      </trkpt>
      <trkpt lat="42.569922" lon="2.073950">
        <ele>1652.808</ele>
        <time>2019-05-29T12:07:16Z</time>
      </trkpt>
      <trkpt lat="42.569725" lon="2.073940">
        <ele>1653.424</ele>
        <time>2019-05-29T12:07:24Z</time>
      </trkpt>
      <trkpt lat="42.569586" lon="2.073893">
        <ele>1654.088</ele>
        <time>2019-05-29T12:07:30Z</time>
      </trkpt>
      <trkpt lat="42.569543" lon="2.073868">
        <ele>1654.454</ele>
        <time>2019-05-29T12:07:32Z</time>
      </trkpt>
      <trkpt lat="42.569401" lon="2.073744">
        <ele>1655.242</ele>
        <time>2019-05-29T12:07:39Z</time>
      </trkpt>
      <trkpt lat="42.569266" lon="2.073609">
        <ele>1656.275</ele>
        <time>2019-05-29T12:07:46Z</time>
      </trkpt>
      <trkpt lat="42.569197" lon="2.073519">
        <ele>1656.815</ele>
        <time>2019-05-29T12:07:50Z</time>
      </trkpt>
      <trkpt lat="42.569143" lon="2.073457">
        <ele>1657.477</ele>
        <time>2019-05-29T12:07:53Z</time>
      </trkpt>
      <trkpt lat="42.569091" lon="2.073390">
        <ele>1657.662</ele>
        <time>2019-05-29T12:07:56Z</time>
      </trkpt>
      <trkpt lat="42.568941" lon="2.073220">
        <ele>1657.858</ele>
        <time>2019-05-29T12:08:04Z</time>
      </trkpt>
      <trkpt lat="42.568737" lon="2.073068">
        <ele>1658.452</ele>
        <time>2019-05-29T12:08:13Z</time>
      </trkpt>
      <trkpt lat="42.568529" lon="2.072994">
        <ele>1659.417</ele>
        <time>2019-05-29T12:08:21Z</time>
      </trkpt>
      <trkpt lat="42.568504" lon="2.072986">
        <ele>1659.408</ele>
        <time>2019-05-29T12:08:22Z</time>
      </trkpt>
      <trkpt lat="42.568359" lon="2.072941">
        <ele>1660.038</ele>
        <time>2019-05-29T12:08:28Z</time>
      </trkpt>
      <trkpt lat="42.568251" lon="2.072931">
        <ele>1660.882</ele>
        <time>2019-05-29T12:08:32Z</time>
      </trkpt>
      <trkpt lat="42.568193" lon="2.072917">
        <ele>1661.268</ele>
        <time>2019-05-29T12:08:34Z</time>
      </trkpt>
      <trkpt lat="42.568018" lon="2.072855">
        <ele>1661.866</ele>
        <time>2019-05-29T12:08:40Z</time>
      </trkpt>
      <trkpt lat="42.567988" lon="2.072845">
        <ele>1662.039</ele>
        <time>2019-05-29T12:08:41Z</time>
      </trkpt>
      <trkpt lat="42.567791" lon="2.072761">
        <ele>1662.629</ele>
        <time>2019-05-29T12:08:49Z</time>
      </trkpt>
      <trkpt lat="42.567746" lon="2.072733">
        <ele>1663.031</ele>
        <time>2019-05-29T12:08:51Z</time>
      </trkpt>
      <trkpt lat="42.567618" lon="2.072649">
        <ele>1663.656</ele>
        <time>2019-05-29T12:08:57Z</time>
      </trkpt>
      <trkpt lat="42.567509" lon="2.072580">
        <ele>1664.232</ele>
        <time>2019-05-29T12:09:02Z</time>
      </trkpt>
      <trkpt lat="42.567395" lon="2.072525">
        <ele>1664.092</ele>
        <time>2019-05-29T12:09:07Z</time>
      </trkpt>
      <trkpt lat="42.567229" lon="2.072446">
        <ele>1665.211</ele>
        <time>2019-05-29T12:09:14Z</time>
      </trkpt>
      <trkpt lat="42.567204" lon="2.072437">
        <ele>1665.408</ele>
        <time>2019-05-29T12:09:15Z</time>
      </trkpt>
      <trkpt lat="42.567008" lon="2.072382">
        <ele>1666.476</ele>
        <time>2019-05-29T12:09:23Z</time>
      </trkpt>
      <trkpt lat="42.566981" lon="2.072374">
        <ele>1666.490</ele>
        <time>2019-05-29T12:09:24Z</time>
      </trkpt>
      <trkpt lat="42.566757" lon="2.072340">
        <ele>1667.246</ele>
        <time>2019-05-29T12:09:32Z</time>
      </trkpt>
      <trkpt lat="42.566699" lon="2.072327">
        <ele>1667.464</ele>
        <time>2019-05-29T12:09:34Z</time>
      </trkpt>
      <trkpt lat="42.566533" lon="2.072304">
        <ele>1667.827</ele>
        <time>2019-05-29T12:09:40Z</time>
      </trkpt>
      <trkpt lat="42.566331" lon="2.072263">
        <ele>1668.427</ele>
        <time>2019-05-29T12:09:47Z</time>
      </trkpt>
      <trkpt lat="42.566271" lon="2.072258">
        <ele>1668.669</ele>
        <time>2019-05-29T12:09:49Z</time>
      </trkpt>
      <trkpt lat="42.566126" lon="2.072226">
        <ele>1668.834</ele>
        <time>2019-05-29T12:09:54Z</time>
      </trkpt>
      <trkpt lat="42.566063" lon="2.072218">
        <ele>1669.091</ele>
        <time>2019-05-29T12:09:56Z</time>
      </trkpt>
      <trkpt lat="42.565820" lon="2.072193">
        <ele>1669.681</ele>
        <time>2019-05-29T12:10:04Z</time>
      </trkpt>
      <trkpt lat="42.565760" lon="2.072190">
        <ele>1669.819</ele>
        <time>2019-05-29T12:10:06Z</time>
      </trkpt>
      <trkpt lat="42.565482" lon="2.072235">
        <ele>1670.608</ele>
        <time>2019-05-29T12:10:15Z</time>
      </trkpt>
      <trkpt lat="42.565231" lon="2.072335">
        <ele>1671.082</ele>
        <time>2019-05-29T12:10:23Z</time>
      </trkpt>
      <trkpt lat="42.565006" lon="2.072487">
        <ele>1671.066</ele>
        <time>2019-05-29T12:10:30Z</time>
      </trkpt>
      <trkpt lat="42.564797" lon="2.072664">
        <ele>1670.282</ele>
        <time>2019-05-29T12:10:36Z</time>
      </trkpt>
      <trkpt lat="42.564720" lon="2.072733">
        <ele>1669.410</ele>
        <time>2019-05-29T12:10:38Z</time>
      </trkpt>
      <trkpt lat="42.564509" lon="2.072944">
        <ele>1668.623</ele>
        <time>2019-05-29T12:10:43Z</time>
      </trkpt>
      <trkpt lat="42.564463" lon="2.072987">
        <ele>1668.433</ele>
        <time>2019-05-29T12:10:44Z</time>
      </trkpt>
      <trkpt lat="42.564275" lon="2.073154">
        <ele>1667.465</ele>
        <time>2019-05-29T12:10:48Z</time>
      </trkpt>
      <trkpt lat="42.564229" lon="2.073201">
        <ele>1667.430</ele>
        <time>2019-05-29T12:10:49Z</time>
      </trkpt>
      <trkpt lat="42.564184" lon="2.073249">
        <ele>1666.816</ele>
        <time>2019-05-29T12:10:50Z</time>
      </trkpt>
      <trkpt lat="42.563924" lon="2.073561">
        <ele>1666.276</ele>
        <time>2019-05-29T12:10:56Z</time>
      </trkpt>
      <trkpt lat="42.563880" lon="2.073619">
        <ele>1666.213</ele>
        <time>2019-05-29T12:10:57Z</time>
      </trkpt>
      <trkpt lat="42.563572" lon="2.073965">
        <ele>1665.608</ele>
        <time>2019-05-29T12:11:03Z</time>
      </trkpt>
      <trkpt lat="42.563323" lon="2.074165">
        <ele>1664.884</ele>
        <time>2019-05-29T12:11:07Z</time>
      </trkpt>
      <trkpt lat="42.563192" lon="2.074265">
        <ele>1663.658</ele>
        <time>2019-05-29T12:11:09Z</time>
      </trkpt>
      <trkpt lat="42.563122" lon="2.074305">
        <ele>1662.694</ele>
        <time>2019-05-29T12:11:10Z</time>
      </trkpt>
      <trkpt lat="42.563050" lon="2.074344">
        <ele>1663.282</ele>
        <time>2019-05-29T12:11:11Z</time>
      </trkpt>
      <trkpt lat="42.562905" lon="2.074414">
        <ele>1664.885</ele>
        <time>2019-05-29T12:11:13Z</time>
      </trkpt>
      <trkpt lat="42.562618" lon="2.074522">
        <ele>1664.285</ele>
        <time>2019-05-29T12:11:17Z</time>
      </trkpt>
      <trkpt lat="42.562548" lon="2.074536">
        <ele>1663.427</ele>
        <time>2019-05-29T12:11:18Z</time>
      </trkpt>
      <trkpt lat="42.562413" lon="2.074558">
        <ele>1664.062</ele>
        <time>2019-05-29T12:11:20Z</time>
      </trkpt>
      <trkpt lat="42.562346" lon="2.074559">
        <ele>1665.087</ele>
        <time>2019-05-29T12:11:21Z</time>
      </trkpt>
      <trkpt lat="42.562216" lon="2.074569">
        <ele>1664.842</ele>
        <time>2019-05-29T12:11:23Z</time>
      </trkpt>
      <trkpt lat="42.561901" lon="2.074687">
        <ele>1664.826</ele>
        <time>2019-05-29T12:11:28Z</time>
      </trkpt>
      <trkpt lat="42.561782" lon="2.074767">
        <ele>1664.808</ele>
        <time>2019-05-29T12:11:30Z</time>
      </trkpt>
      <trkpt lat="42.561626" lon="2.074925">
        <ele>1664.891</ele>
        <time>2019-05-29T12:11:33Z</time>
      </trkpt>
      <trkpt lat="42.561335" lon="2.075236">
        <ele>1665.665</ele>
        <time>2019-05-29T12:11:39Z</time>
      </trkpt>
      <trkpt lat="42.560999" lon="2.075609">
        <ele>1665.821</ele>
        <time>2019-05-29T12:11:47Z</time>
      </trkpt>
      <trkpt lat="42.560634" lon="2.076002">
        <ele>1665.839</ele>
        <time>2019-05-29T12:11:56Z</time>
      </trkpt>
      <trkpt lat="42.560273" lon="2.076382">
        <ele>1664.492</ele>
        <time>2019-05-29T12:12:05Z</time>
      </trkpt>
      <trkpt lat="42.559958" lon="2.076707">
        <ele>1664.442</ele>
        <time>2019-05-29T12:12:12Z</time>
      </trkpt>
      <trkpt lat="42.559905" lon="2.076760">
        <ele>1664.064</ele>
        <time>2019-05-29T12:12:13Z</time>
      </trkpt>
      <trkpt lat="42.559687" lon="2.076983">
        <ele>1663.029</ele>
        <time>2019-05-29T12:12:17Z</time>
      </trkpt>
      <trkpt lat="42.559564" lon="2.077088">
        <ele>1662.414</ele>
        <time>2019-05-29T12:12:19Z</time>
      </trkpt>
      <trkpt lat="42.559425" lon="2.077179">
        <ele>1662.054</ele>
        <time>2019-05-29T12:12:21Z</time>
      </trkpt>
      <trkpt lat="42.559273" lon="2.077235">
        <ele>1661.409</ele>
        <time>2019-05-29T12:12:23Z</time>
      </trkpt>
      <trkpt lat="42.559032" lon="2.077268">
        <ele>1660.608</ele>
        <time>2019-05-29T12:12:26Z</time>
      </trkpt>
      <trkpt lat="42.558951" lon="2.077270">
        <ele>1660.474</ele>
        <time>2019-05-29T12:12:27Z</time>
      </trkpt>
      <trkpt lat="42.558868" lon="2.077275">
        <ele>1659.818</ele>
        <time>2019-05-29T12:12:28Z</time>
      </trkpt>
      <trkpt lat="42.558785" lon="2.077280">
        <ele>1659.494</ele>
        <time>2019-05-29T12:12:29Z</time>
      </trkpt>
      <trkpt lat="42.558522" lon="2.077294">
        <ele>1658.022</ele>
        <time>2019-05-29T12:12:32Z</time>
      </trkpt>
      <trkpt lat="42.558342" lon="2.077297">
        <ele>1656.645</ele>
        <time>2019-05-29T12:12:34Z</time>
      </trkpt>
      <trkpt lat="42.558251" lon="2.077301">
        <ele>1656.025</ele>
        <time>2019-05-29T12:12:35Z</time>
      </trkpt>
      <trkpt lat="42.558071" lon="2.077324">
        <ele>1655.417</ele>
        <time>2019-05-29T12:12:37Z</time>
      </trkpt>
      <trkpt lat="42.557735" lon="2.077356">
        <ele>1655.022</ele>
        <time>2019-05-29T12:12:41Z</time>
      </trkpt>
      <trkpt lat="42.557441" lon="2.077397">
        <ele>1656.612</ele>
        <time>2019-05-29T12:12:45Z</time>
      </trkpt>
      <trkpt lat="42.557308" lon="2.077421">
        <ele>1657.232</ele>
        <time>2019-05-29T12:12:47Z</time>
      </trkpt>
      <trkpt lat="42.557187" lon="2.077440">
        <ele>1657.605</ele>
        <time>2019-05-29T12:12:49Z</time>
      </trkpt>
      <trkpt lat="42.556947" lon="2.077481">
        <ele>1657.608</ele>
        <time>2019-05-29T12:12:53Z</time>
      </trkpt>
      <trkpt lat="42.556735" lon="2.077527">
        <ele>1658.664</ele>
        <time>2019-05-29T12:12:57Z</time>
      </trkpt>
      <trkpt lat="42.556584" lon="2.077555">
        <ele>1659.078</ele>
        <time>2019-05-29T12:13:00Z</time>
      </trkpt>
      <trkpt lat="42.556532" lon="2.077573">
        <ele>1659.034</ele>
        <time>2019-05-29T12:13:01Z</time>
      </trkpt>
      <trkpt lat="42.556341" lon="2.077716">
        <ele>1658.682</ele>
        <time>2019-05-29T12:13:05Z</time>
      </trkpt>
      <trkpt lat="42.556225" lon="2.077872">
        <ele>1657.485</ele>
        <time>2019-05-29T12:13:08Z</time>
      </trkpt>
      <trkpt lat="42.556173" lon="2.077984">
        <ele>1657.295</ele>
        <time>2019-05-29T12:13:10Z</time>
      </trkpt>
      <trkpt lat="42.556073" lon="2.078281">
        <ele>1658.227</ele>
        <time>2019-05-29T12:13:16Z</time>
      </trkpt>
      <trkpt lat="42.556061" lon="2.078321">
        <ele>1658.862</ele>
        <time>2019-05-29T12:13:17Z</time>
      </trkpt>
      <trkpt lat="42.556026" lon="2.078526">
        <ele>1659.042</ele>
        <time>2019-05-29T12:13:23Z</time>
      </trkpt>
      <trkpt lat="42.556005" lon="2.078586">
        <ele>1660.022</ele>
        <time>2019-05-29T12:13:25Z</time>
      </trkpt>
      <trkpt lat="42.555978" lon="2.078709">
        <ele>1661.214</ele>
        <time>2019-05-29T12:13:29Z</time>
      </trkpt>
      <trkpt lat="42.555964" lon="2.078769">
        <ele>1661.608</ele>
        <time>2019-05-29T12:13:31Z</time>
      </trkpt>
      <trkpt lat="42.555877" lon="2.079046">
        <ele>1661.877</ele>
        <time>2019-05-29T12:13:41Z</time>
      </trkpt>
      <trkpt lat="42.555859" lon="2.079095">
        <ele>1662.451</ele>
        <time>2019-05-29T12:13:43Z</time>
      </trkpt>
      <trkpt lat="42.555770" lon="2.079275">
        <ele>1663.427</ele>
        <time>2019-05-29T12:13:50Z</time>
      </trkpt>
      <trkpt lat="42.555755" lon="2.079298">
        <ele>1663.865</ele>
        <time>2019-05-29T12:13:51Z</time>
      </trkpt>
      <trkpt lat="42.555682" lon="2.079400">
        <ele>1664.698</ele>
        <time>2019-05-29T12:13:56Z</time>
      </trkpt>
      <trkpt lat="42.555613" lon="2.079490">
        <ele>1665.498</ele>
        <time>2019-05-29T12:14:00Z</time>
      </trkpt>
      <trkpt lat="42.555575" lon="2.079533">
        <ele>1665.830</ele>
        <time>2019-05-29T12:14:02Z</time>
      </trkpt>
      <trkpt lat="42.555472" lon="2.079647">
        <ele>1666.825</ele>
        <time>2019-05-29T12:14:08Z</time>
      </trkpt>
      <trkpt lat="42.555415" lon="2.079707">
        <ele>1667.052</ele>
        <time>2019-05-29T12:14:11Z</time>
      </trkpt>
      <trkpt lat="42.555258" lon="2.079869">
        <ele>1667.253</ele>
        <time>2019-05-29T12:14:19Z</time>
      </trkpt>
      <trkpt lat="42.555046" lon="2.080025">
        <ele>1667.808</ele>
        <time>2019-05-29T12:14:29Z</time>
      </trkpt>
      <trkpt lat="42.554833" lon="2.080129">
        <ele>1667.608</ele>
        <time>2019-05-29T12:14:38Z</time>
      </trkpt>
      <trkpt lat="42.554757" lon="2.080162">
        <ele>1668.068</ele>
        <time>2019-05-29T12:14:41Z</time>
      </trkpt>
      <trkpt lat="42.554577" lon="2.080182">
        <ele>1668.672</ele>
        <time>2019-05-29T12:14:48Z</time>
      </trkpt>
      <trkpt lat="42.554476" lon="2.080188">
        <ele>1669.018</ele>
        <time>2019-05-29T12:14:52Z</time>
      </trkpt>
      <trkpt lat="42.554374" lon="2.080191">
        <ele>1669.466</ele>
        <time>2019-05-29T12:14:56Z</time>
      </trkpt>
      <trkpt lat="42.554141" lon="2.080250">
        <ele>1670.089</ele>
        <time>2019-05-29T12:15:05Z</time>
      </trkpt>
      <trkpt lat="42.553930" lon="2.080404">
        <ele>1670.059</ele>
        <time>2019-05-29T12:15:13Z</time>
      </trkpt>
      <trkpt lat="42.553907" lon="2.080435">
        <ele>1670.221</ele>
        <time>2019-05-29T12:15:14Z</time>
      </trkpt>
      <trkpt lat="42.553776" lon="2.080623">
        <ele>1669.816</ele>
        <time>2019-05-29T12:15:20Z</time>
      </trkpt>
      <trkpt lat="42.553646" lon="2.080951">
        <ele>1670.677</ele>
        <time>2019-05-29T12:15:29Z</time>
      </trkpt>
      <trkpt lat="42.553583" lon="2.081115">
        <ele>1671.261</ele>
        <time>2019-05-29T12:15:34Z</time>
      </trkpt>
      <trkpt lat="42.553539" lon="2.081217">
        <ele>1671.427</ele>
        <time>2019-05-29T12:15:37Z</time>
      </trkpt>
      <trkpt lat="42.553373" lon="2.081445">
        <ele>1671.608</ele>
        <time>2019-05-29T12:15:45Z</time>
      </trkpt>
      <trkpt lat="42.553232" lon="2.081639">
        <ele>1672.490</ele>
        <time>2019-05-29T12:15:52Z</time>
      </trkpt>
      <trkpt lat="42.553076" lon="2.081973">
        <ele>1673.484</ele>
        <time>2019-05-29T12:16:02Z</time>
      </trkpt>
      <trkpt lat="42.553002" lon="2.082157">
        <ele>1673.450</ele>
        <time>2019-05-29T12:16:08Z</time>
      </trkpt>
      <trkpt lat="42.552925" lon="2.082371">
        <ele>1673.248</ele>
        <time>2019-05-29T12:16:14Z</time>
      </trkpt>
      <trkpt lat="42.552801" lon="2.082690">
        <ele>1673.271</ele>
        <time>2019-05-29T12:16:23Z</time>
      </trkpt>
      <trkpt lat="42.552635" lon="2.082969">
        <ele>1673.481</ele>
        <time>2019-05-29T12:16:32Z</time>
      </trkpt>
      <trkpt lat="42.552466" lon="2.083175">
        <ele>1674.463</ele>
        <time>2019-05-29T12:16:40Z</time>
      </trkpt>
      <trkpt lat="42.552446" lon="2.083196">
        <ele>1674.438</ele>
        <time>2019-05-29T12:16:41Z</time>
      </trkpt>
      <trkpt lat="42.552350" lon="2.083305">
        <ele>1675.653</ele>
        <time>2019-05-29T12:16:46Z</time>
      </trkpt>
      <trkpt lat="42.552297" lon="2.083372">
        <ele>1675.804</ele>
        <time>2019-05-29T12:16:49Z</time>
      </trkpt>
      <trkpt lat="42.552216" lon="2.083482">
        <ele>1676.614</ele>
        <time>2019-05-29T12:16:54Z</time>
      </trkpt>
      <trkpt lat="42.552176" lon="2.083522">
        <ele>1676.808</ele>
        <time>2019-05-29T12:16:56Z</time>
      </trkpt>
      <trkpt lat="42.552048" lon="2.083695">
        <ele>1676.818</ele>
        <time>2019-05-29T12:17:03Z</time>
      </trkpt>
      <trkpt lat="42.551973" lon="2.083799">
        <ele>1677.862</ele>
        <time>2019-05-29T12:17:07Z</time>
      </trkpt>
      <trkpt lat="42.551950" lon="2.083831">
        <ele>1678.098</ele>
        <time>2019-05-29T12:17:08Z</time>
      </trkpt>
      <trkpt lat="42.551817" lon="2.084014">
        <ele>1677.446</ele>
        <time>2019-05-29T12:17:14Z</time>
      </trkpt>
      <trkpt lat="42.551611" lon="2.084319">
        <ele>1678.029</ele>
        <time>2019-05-29T12:17:23Z</time>
      </trkpt>
      <trkpt lat="42.551455" lon="2.084597">
        <ele>1677.889</ele>
        <time>2019-05-29T12:17:30Z</time>
      </trkpt>
      <trkpt lat="42.551248" lon="2.085004">
        <ele>1678.871</ele>
        <time>2019-05-29T12:17:40Z</time>
      </trkpt>
      <trkpt lat="42.551223" lon="2.085045">
        <ele>1679.056</ele>
        <time>2019-05-29T12:17:41Z</time>
      </trkpt>
      <trkpt lat="42.551014" lon="2.085322">
        <ele>1679.652</ele>
        <time>2019-05-29T12:17:49Z</time>
      </trkpt>
      <trkpt lat="42.550790" lon="2.085541">
        <ele>1680.053</ele>
        <time>2019-05-29T12:17:57Z</time>
      </trkpt>
      <trkpt lat="42.550519" lon="2.085763">
        <ele>1681.208</ele>
        <time>2019-05-29T12:18:06Z</time>
      </trkpt>
      <trkpt lat="42.550488" lon="2.085787">
        <ele>1681.208</ele>
        <time>2019-05-29T12:18:07Z</time>
      </trkpt>
      <trkpt lat="42.550255" lon="2.085933">
        <ele>1681.668</ele>
        <time>2019-05-29T12:18:14Z</time>
      </trkpt>
      <trkpt lat="42.550155" lon="2.085985">
        <ele>1681.672</ele>
        <time>2019-05-29T12:18:17Z</time>
      </trkpt>
      <trkpt lat="42.549987" lon="2.086072">
        <ele>1682.288</ele>
        <time>2019-05-29T12:18:22Z</time>
      </trkpt>
      <trkpt lat="42.549743" lon="2.086193">
        <ele>1682.286</ele>
        <time>2019-05-29T12:18:29Z</time>
      </trkpt>
      <trkpt lat="42.549454" lon="2.086323">
        <ele>1683.019</ele>
        <time>2019-05-29T12:18:37Z</time>
      </trkpt>
      <trkpt lat="42.549383" lon="2.086360">
        <ele>1683.299</ele>
        <time>2019-05-29T12:18:39Z</time>
      </trkpt>
      <trkpt lat="42.549132" lon="2.086504">
        <ele>1684.281</ele>
        <time>2019-05-29T12:18:46Z</time>
      </trkpt>
      <trkpt lat="42.549100" lon="2.086532">
        <ele>1684.486</ele>
        <time>2019-05-29T12:18:47Z</time>
      </trkpt>
      <trkpt lat="42.548823" lon="2.086753">
        <ele>1684.833</ele>
        <time>2019-05-29T12:18:55Z</time>
      </trkpt>
      <trkpt lat="42.548721" lon="2.086831">
        <ele>1685.423</ele>
        <time>2019-05-29T12:18:58Z</time>
      </trkpt>
      <trkpt lat="42.548507" lon="2.086989">
        <ele>1685.815</ele>
        <time>2019-05-29T12:19:04Z</time>
      </trkpt>
      <trkpt lat="42.548290" lon="2.087157">
        <ele>1686.608</ele>
        <time>2019-05-29T12:19:11Z</time>
      </trkpt>
      <trkpt lat="42.548020" lon="2.087374">
        <ele>1687.466</ele>
        <time>2019-05-29T12:19:20Z</time>
      </trkpt>
      <trkpt lat="42.547960" lon="2.087427">
        <ele>1687.850</ele>
        <time>2019-05-29T12:19:22Z</time>
      </trkpt>
      <trkpt lat="42.547737" lon="2.087617">
        <ele>1688.456</ele>
        <time>2019-05-29T12:19:29Z</time>
      </trkpt>
      <trkpt lat="42.547599" lon="2.087771">
        <ele>1688.824</ele>
        <time>2019-05-29T12:19:34Z</time>
      </trkpt>
      <trkpt lat="42.547518" lon="2.087870">
        <ele>1689.097</ele>
        <time>2019-05-29T12:19:37Z</time>
      </trkpt>
      <trkpt lat="42.547333" lon="2.088094">
        <ele>1689.837</ele>
        <time>2019-05-29T12:19:44Z</time>
      </trkpt>
      <trkpt lat="42.547244" lon="2.088188">
        <ele>1690.429</ele>
        <time>2019-05-29T12:19:47Z</time>
      </trkpt>
      <trkpt lat="42.547186" lon="2.088245">
        <ele>1690.864</ele>
        <time>2019-05-29T12:19:49Z</time>
      </trkpt>
      <trkpt lat="42.547057" lon="2.088390">
        <ele>1691.477</ele>
        <time>2019-05-29T12:19:54Z</time>
      </trkpt>
      <trkpt lat="42.546881" lon="2.088583">
        <ele>1692.061</ele>
        <time>2019-05-29T12:20:00Z</time>
      </trkpt>
      <trkpt lat="42.546855" lon="2.088612">
        <ele>1692.227</ele>
        <time>2019-05-29T12:20:01Z</time>
      </trkpt>
      <trkpt lat="42.546727" lon="2.088817">
        <ele>1693.208</ele>
        <time>2019-05-29T12:20:07Z</time>
      </trkpt>
      <trkpt lat="42.546581" lon="2.089058">
        <ele>1694.240</ele>
        <time>2019-05-29T12:20:13Z</time>
      </trkpt>
      <trkpt lat="42.546484" lon="2.089211">
        <ele>1694.234</ele>
        <time>2019-05-29T12:20:17Z</time>
      </trkpt>
      <trkpt lat="42.546365" lon="2.089364">
        <ele>1695.290</ele>
        <time>2019-05-29T12:20:22Z</time>
      </trkpt>
      <trkpt lat="42.546343" lon="2.089393">
        <ele>1695.418</ele>
        <time>2019-05-29T12:20:23Z</time>
      </trkpt>
      <trkpt lat="42.546173" lon="2.089558">
        <ele>1696.411</ele>
        <time>2019-05-29T12:20:30Z</time>
      </trkpt>
      <trkpt lat="42.545929" lon="2.089730">
        <ele>1697.221</ele>
        <time>2019-05-29T12:20:39Z</time>
      </trkpt>
      <trkpt lat="42.545870" lon="2.089768">
        <ele>1697.473</ele>
        <time>2019-05-29T12:20:41Z</time>
      </trkpt>
      <trkpt lat="42.545623" lon="2.089946">
        <ele>1697.628</ele>
        <time>2019-05-29T12:20:49Z</time>
      </trkpt>
      <trkpt lat="42.545364" lon="2.090213">
        <ele>1698.631</ele>
        <time>2019-05-29T12:20:58Z</time>
      </trkpt>
      <trkpt lat="42.545231" lon="2.090454">
        <ele>1698.861</ele>
        <time>2019-05-29T12:21:05Z</time>
      </trkpt>
      <trkpt lat="42.545168" lon="2.090550">
        <ele>1699.207</ele>
        <time>2019-05-29T12:21:09Z</time>
      </trkpt>
      <trkpt lat="42.545134" lon="2.090544">
        <ele>1699.208</ele>
        <time>2019-05-29T12:21:10Z</time>
      </trkpt>
      <trkpt lat="42.545071" lon="2.090465">
        <ele>1698.616</ele>
        <time>2019-05-29T12:21:13Z</time>
      </trkpt>
      <trkpt lat="42.545055" lon="2.090438">
        <ele>1698.630</ele>
        <time>2019-05-29T12:21:14Z</time>
      </trkpt>
      <trkpt lat="42.545011" lon="2.090341">
        <ele>1697.226</ele>
        <time>2019-05-29T12:21:17Z</time>
      </trkpt>
      <trkpt lat="42.544971" lon="2.090243">
        <ele>1698.814</ele>
        <time>2019-05-29T12:21:20Z</time>
      </trkpt>
      <trkpt lat="42.544942" lon="2.090066">
        <ele>1699.837</ele>
        <time>2019-05-29T12:21:26Z</time>
      </trkpt>
      <trkpt lat="42.544935" lon="2.090042">
        <ele>1700.037</ele>
        <time>2019-05-29T12:21:27Z</time>
      </trkpt>
      <trkpt lat="42.544906" lon="2.089949">
        <ele>1700.849</ele>
        <time>2019-05-29T12:21:31Z</time>
      </trkpt>
      <trkpt lat="42.544892" lon="2.089931">
        <ele>1701.024</ele>
        <time>2019-05-29T12:21:32Z</time>
      </trkpt>
      <trkpt lat="42.544805" lon="2.089800">
        <ele>1701.211</ele>
        <time>2019-05-29T12:21:38Z</time>
      </trkpt>
      <trkpt lat="42.544753" lon="2.089700">
        <ele>1701.421</ele>
        <time>2019-05-29T12:21:42Z</time>
      </trkpt>
      <trkpt lat="42.544717" lon="2.089619">
        <ele>1701.603</ele>
        <time>2019-05-29T12:21:45Z</time>
      </trkpt>
      <trkpt lat="42.544652" lon="2.089512">
        <ele>1702.008</ele>
        <time>2019-05-29T12:21:50Z</time>
      </trkpt>
      <trkpt lat="42.544638" lon="2.089491">
        <ele>1702.254</ele>
        <time>2019-05-29T12:21:51Z</time>
      </trkpt>
      <trkpt lat="42.544615" lon="2.089442">
        <ele>1702.288</ele>
        <time>2019-05-29T12:21:53Z</time>
      </trkpt>
      <trkpt lat="42.544597" lon="2.089363">
        <ele>1702.674</ele>
        <time>2019-05-29T12:21:56Z</time>
      </trkpt>
      <trkpt lat="42.544596" lon="2.089317">
        <ele>1703.062</ele>
        <time>2019-05-29T12:21:58Z</time>
      </trkpt>
      <trkpt lat="42.544598" lon="2.089297">
        <ele>1703.235</ele>
        <time>2019-05-29T12:21:59Z</time>
      </trkpt>
      <trkpt lat="42.544602" lon="2.089278">
        <ele>1703.425</ele>
        <time>2019-05-29T12:22:00Z</time>
      </trkpt>
      <trkpt lat="42.544635" lon="2.089170">
        <ele>1704.077</ele>
        <time>2019-05-29T12:22:06Z</time>
      </trkpt>
      <trkpt lat="42.544641" lon="2.089110">
        <ele>1703.632</ele>
        <time>2019-05-29T12:24:50Z</time>
      </trkpt>
      <trkpt lat="42.544641" lon="2.089067">
        <ele>1702.288</ele>
        <time>2019-05-29T12:24:52Z</time>
      </trkpt>
      <trkpt lat="42.544639" lon="2.089045">
        <ele>1704.224</ele>
        <time>2019-05-29T12:24:53Z</time>
      </trkpt>
      <trkpt lat="42.544630" lon="2.089006">
        <ele>1705.826</ele>
        <time>2019-05-29T12:24:55Z</time>
      </trkpt>
      <trkpt lat="42.544623" lon="2.088980">
        <ele>1704.008</ele>
        <time>2019-05-29T12:24:56Z</time>
      </trkpt>
      <trkpt lat="42.544611" lon="2.088952">
        <ele>1703.411</ele>
        <time>2019-05-29T12:24:57Z</time>
      </trkpt>
      <trkpt lat="42.544488" lon="2.088712">
        <ele>1704.625</ele>
        <time>2019-05-29T12:25:04Z</time>
      </trkpt>
      <trkpt lat="42.544339" lon="2.088602">
        <ele>1704.671</ele>
        <time>2019-05-29T12:25:09Z</time>
      </trkpt>
      <trkpt lat="42.544141" lon="2.088549">
        <ele>1704.289</ele>
        <time>2019-05-29T12:25:16Z</time>
      </trkpt>
      <trkpt lat="42.544009" lon="2.088558">
        <ele>1705.272</ele>
        <time>2019-05-29T12:25:22Z</time>
      </trkpt>
      <trkpt lat="42.543925" lon="2.088543">
        <ele>1706.442</ele>
        <time>2019-05-29T12:25:27Z</time>
      </trkpt>
      <trkpt lat="42.543900" lon="2.088536">
        <ele>1706.644</ele>
        <time>2019-05-29T12:25:29Z</time>
      </trkpt>
      <trkpt lat="42.543811" lon="2.088514">
        <ele>1707.689</ele>
        <time>2019-05-29T12:25:34Z</time>
      </trkpt>
      <trkpt lat="42.543793" lon="2.088514">
        <ele>1707.693</ele>
        <time>2019-05-29T12:25:35Z</time>
      </trkpt>
      <trkpt lat="42.543675" lon="2.088463">
        <ele>1708.465</ele>
        <time>2019-05-29T12:25:42Z</time>
      </trkpt>
      <trkpt lat="42.543648" lon="2.088428">
        <ele>1708.621</ele>
        <time>2019-05-29T12:25:44Z</time>
      </trkpt>
      <trkpt lat="42.543611" lon="2.088377">
        <ele>1709.008</ele>
        <time>2019-05-29T12:25:47Z</time>
      </trkpt>
      <trkpt lat="42.543526" lon="2.088243">
        <ele>1709.242</ele>
        <time>2019-05-29T12:25:54Z</time>
      </trkpt>
      <trkpt lat="42.543505" lon="2.088176">
        <ele>1709.856</ele>
        <time>2019-05-29T12:25:57Z</time>
      </trkpt>
      <trkpt lat="42.543475" lon="2.088092">
        <ele>1710.482</ele>
        <time>2019-05-29T12:26:01Z</time>
      </trkpt>
      <trkpt lat="42.543463" lon="2.088028">
        <ele>1710.850</ele>
        <time>2019-05-29T12:26:04Z</time>
      </trkpt>
      <trkpt lat="42.543461" lon="2.087986">
        <ele>1711.263</ele>
        <time>2019-05-29T12:26:06Z</time>
      </trkpt>
      <trkpt lat="42.543454" lon="2.087968">
        <ele>1711.453</ele>
        <time>2019-05-29T12:26:07Z</time>
      </trkpt>
      <trkpt lat="42.543437" lon="2.087912">
        <ele>1712.085</ele>
        <time>2019-05-29T12:26:10Z</time>
      </trkpt>
      <trkpt lat="42.543424" lon="2.087897">
        <ele>1712.230</ele>
        <time>2019-05-29T12:26:11Z</time>
      </trkpt>
      <trkpt lat="42.543413" lon="2.087863">
        <ele>1712.887</ele>
        <time>2019-05-29T12:26:13Z</time>
      </trkpt>
      <trkpt lat="42.543397" lon="2.087827">
        <ele>1713.242</ele>
        <time>2019-05-29T12:26:15Z</time>
      </trkpt>
      <trkpt lat="42.543352" lon="2.087757">
        <ele>1713.626</ele>
        <time>2019-05-29T12:26:19Z</time>
      </trkpt>
      <trkpt lat="42.543279" lon="2.087674">
        <ele>1714.008</ele>
        <time>2019-05-29T12:26:25Z</time>
      </trkpt>
      <trkpt lat="42.543214" lon="2.087629">
        <ele>1714.281</ele>
        <time>2019-05-29T12:26:29Z</time>
      </trkpt>
      <trkpt lat="42.543161" lon="2.087586">
        <ele>1714.475</ele>
        <time>2019-05-29T12:26:32Z</time>
      </trkpt>
      <trkpt lat="42.543038" lon="2.087473">
        <ele>1714.881</ele>
        <time>2019-05-29T12:26:39Z</time>
      </trkpt>
      <trkpt lat="42.543018" lon="2.087433">
        <ele>1715.289</ele>
        <time>2019-05-29T12:26:41Z</time>
      </trkpt>
      <trkpt lat="42.542977" lon="2.087377">
        <ele>1715.452</ele>
        <time>2019-05-29T12:26:44Z</time>
      </trkpt>
      <trkpt lat="42.542963" lon="2.087353">
        <ele>1715.282</ele>
        <time>2019-05-29T12:26:45Z</time>
      </trkpt>
      <trkpt lat="42.542914" lon="2.087287">
        <ele>1715.694</ele>
        <time>2019-05-29T12:26:48Z</time>
      </trkpt>
      <trkpt lat="42.542874" lon="2.087233">
        <ele>1715.629</ele>
        <time>2019-05-29T12:26:51Z</time>
      </trkpt>
      <trkpt lat="42.542827" lon="2.087146">
        <ele>1715.687</ele>
        <time>2019-05-29T12:26:55Z</time>
      </trkpt>
      <trkpt lat="42.542815" lon="2.087122">
        <ele>1715.642</ele>
        <time>2019-05-29T12:26:56Z</time>
      </trkpt>
      <trkpt lat="42.542787" lon="2.087042">
        <ele>1716.226</ele>
        <time>2019-05-29T12:26:59Z</time>
      </trkpt>
      <trkpt lat="42.542764" lon="2.086992">
        <ele>1716.408</ele>
        <time>2019-05-29T12:27:01Z</time>
      </trkpt>
      <trkpt lat="42.542752" lon="2.086970">
        <ele>1716.651</ele>
        <time>2019-05-29T12:27:02Z</time>
      </trkpt>
      <trkpt lat="42.542712" lon="2.086886">
        <ele>1717.475</ele>
        <time>2019-05-29T12:27:06Z</time>
      </trkpt>
      <trkpt lat="42.542690" lon="2.086840">
        <ele>1717.861</ele>
        <time>2019-05-29T12:27:09Z</time>
      </trkpt>
      <trkpt lat="42.542612" lon="2.086746">
        <ele>1718.489</ele>
        <time>2019-05-29T12:27:15Z</time>
      </trkpt>
      <trkpt lat="42.542599" lon="2.086729">
        <ele>1718.672</ele>
        <time>2019-05-29T12:27:16Z</time>
      </trkpt>
      <trkpt lat="42.542542" lon="2.086635">
        <ele>1719.292</ele>
        <time>2019-05-29T12:27:22Z</time>
      </trkpt>
      <trkpt lat="42.542486" lon="2.086591">
        <ele>1719.684</ele>
        <time>2019-05-29T12:27:26Z</time>
      </trkpt>
      <trkpt lat="42.542447" lon="2.086563">
        <ele>1719.689</ele>
        <time>2019-05-29T12:27:29Z</time>
      </trkpt>
      <trkpt lat="42.542339" lon="2.086561">
        <ele>1720.268</ele>
        <time>2019-05-29T12:27:35Z</time>
      </trkpt>
      <trkpt lat="42.542250" lon="2.086626">
        <ele>1720.842</ele>
        <time>2019-05-29T12:27:41Z</time>
      </trkpt>
      <trkpt lat="42.542165" lon="2.086711">
        <ele>1721.026</ele>
        <time>2019-05-29T12:27:47Z</time>
      </trkpt>
      <trkpt lat="42.542082" lon="2.086798">
        <ele>1721.608</ele>
        <time>2019-05-29T12:27:52Z</time>
      </trkpt>
      <trkpt lat="42.542067" lon="2.086809">
        <ele>1721.869</ele>
        <time>2019-05-29T12:27:53Z</time>
      </trkpt>
      <trkpt lat="42.541978" lon="2.086860">
        <ele>1723.013</ele>
        <time>2019-05-29T12:27:59Z</time>
      </trkpt>
      <trkpt lat="42.541906" lon="2.086855">
        <ele>1723.829</ele>
        <time>2019-05-29T12:28:04Z</time>
      </trkpt>
      <trkpt lat="42.541860" lon="2.086847">
        <ele>1723.847</ele>
        <time>2019-05-29T12:28:06Z</time>
      </trkpt>
      <trkpt lat="42.541799" lon="2.086819">
        <ele>1723.230</ele>
        <time>2019-05-29T12:28:08Z</time>
      </trkpt>
      <trkpt lat="42.541712" lon="2.086789">
        <ele>1722.410</ele>
        <time>2019-05-29T12:28:11Z</time>
      </trkpt>
      <trkpt lat="42.541533" lon="2.086764">
        <ele>1723.452</ele>
        <time>2019-05-29T12:28:17Z</time>
      </trkpt>
      <trkpt lat="42.541385" lon="2.086780">
        <ele>1723.037</ele>
        <time>2019-05-29T12:28:21Z</time>
      </trkpt>
      <trkpt lat="42.541233" lon="2.086944">
        <ele>1723.257</ele>
        <time>2019-05-29T12:28:27Z</time>
      </trkpt>
      <trkpt lat="42.541099" lon="2.087178">
        <ele>1722.200</ele>
        <time>2019-05-29T12:28:33Z</time>
      </trkpt>
      <trkpt lat="42.541082" lon="2.087233">
        <ele>1721.420</ele>
        <time>2019-05-29T12:28:34Z</time>
      </trkpt>
      <trkpt lat="42.541082" lon="2.087386">
        <ele>1721.008</ele>
        <time>2019-05-29T12:28:37Z</time>
      </trkpt>
      <trkpt lat="42.541098" lon="2.087434">
        <ele>1720.058</ele>
        <time>2019-05-29T12:28:38Z</time>
      </trkpt>
      <trkpt lat="42.541126" lon="2.087567">
        <ele>1719.012</ele>
        <time>2019-05-29T12:28:40Z</time>
      </trkpt>
      <trkpt lat="42.541134" lon="2.087640">
        <ele>1719.018</ele>
        <time>2019-05-29T12:28:41Z</time>
      </trkpt>
      <trkpt lat="42.541102" lon="2.087826">
        <ele>1720.046</ele>
        <time>2019-05-29T12:28:44Z</time>
      </trkpt>
      <trkpt lat="42.541059" lon="2.088100">
        <ele>1718.859</ele>
        <time>2019-05-29T12:28:49Z</time>
      </trkpt>
      <trkpt lat="42.541045" lon="2.088180">
        <ele>1718.039</ele>
        <time>2019-05-29T12:28:50Z</time>
      </trkpt>
      <trkpt lat="42.541027" lon="2.088262">
        <ele>1717.021</ele>
        <time>2019-05-29T12:28:51Z</time>
      </trkpt>
      <trkpt lat="42.541001" lon="2.088341">
        <ele>1716.676</ele>
        <time>2019-05-29T12:28:52Z</time>
      </trkpt>
      <trkpt lat="42.540971" lon="2.088422">
        <ele>1716.032</ele>
        <time>2019-05-29T12:28:53Z</time>
      </trkpt>
      <trkpt lat="42.540897" lon="2.088557">
        <ele>1715.492</ele>
        <time>2019-05-29T12:28:55Z</time>
      </trkpt>
      <trkpt lat="42.540751" lon="2.088638">
        <ele>1716.011</ele>
        <time>2019-05-29T12:28:58Z</time>
      </trkpt>
      <trkpt lat="42.540703" lon="2.088646">
        <ele>1716.208</ele>
        <time>2019-05-29T12:28:59Z</time>
      </trkpt>
      <trkpt lat="42.540656" lon="2.088665">
        <ele>1716.436</ele>
        <time>2019-05-29T12:29:00Z</time>
      </trkpt>
      <trkpt lat="42.540584" lon="2.088736">
        <ele>1716.280</ele>
        <time>2019-05-29T12:29:02Z</time>
      </trkpt>
      <trkpt lat="42.540538" lon="2.088843">
        <ele>1714.846</ele>
        <time>2019-05-29T12:29:04Z</time>
      </trkpt>
      <trkpt lat="42.540527" lon="2.088909">
        <ele>1713.834</ele>
        <time>2019-05-29T12:29:05Z</time>
      </trkpt>
      <trkpt lat="42.540531" lon="2.089066">
        <ele>1712.447</ele>
        <time>2019-05-29T12:29:07Z</time>
      </trkpt>
      <trkpt lat="42.540537" lon="2.089135">
        <ele>1712.487</ele>
        <time>2019-05-29T12:29:08Z</time>
      </trkpt>
      <trkpt lat="42.540490" lon="2.089316">
        <ele>1713.429</ele>
        <time>2019-05-29T12:29:11Z</time>
      </trkpt>
      <trkpt lat="42.540466" lon="2.089366">
        <ele>1713.454</ele>
        <time>2019-05-29T12:29:12Z</time>
      </trkpt>
      <trkpt lat="42.540364" lon="2.089450">
        <ele>1712.078</ele>
        <time>2019-05-29T12:29:14Z</time>
      </trkpt>
      <trkpt lat="42.540318" lon="2.089496">
        <ele>1711.433</ele>
        <time>2019-05-29T12:29:15Z</time>
      </trkpt>
      <trkpt lat="42.540270" lon="2.089544">
        <ele>1711.226</ele>
        <time>2019-05-29T12:29:16Z</time>
      </trkpt>
      <trkpt lat="42.540223" lon="2.089594">
        <ele>1711.008</ele>
        <time>2019-05-29T12:29:17Z</time>
      </trkpt>
      <trkpt lat="42.540059" lon="2.089767">
        <ele>1711.830</ele>
        <time>2019-05-29T12:29:21Z</time>
      </trkpt>
      <trkpt lat="42.540011" lon="2.089803">
        <ele>1711.044</ele>
        <time>2019-05-29T12:29:22Z</time>
      </trkpt>
      <trkpt lat="42.539878" lon="2.089894">
        <ele>1710.820</ele>
        <time>2019-05-29T12:29:25Z</time>
      </trkpt>
      <trkpt lat="42.539824" lon="2.089913">
        <ele>1710.088</ele>
        <time>2019-05-29T12:29:26Z</time>
      </trkpt>
      <trkpt lat="42.539699" lon="2.089973">
        <ele>1708.261</ele>
        <time>2019-05-29T12:29:28Z</time>
      </trkpt>
      <trkpt lat="42.539632" lon="2.090017">
        <ele>1707.871</ele>
        <time>2019-05-29T12:29:29Z</time>
      </trkpt>
      <trkpt lat="42.539510" lon="2.090110">
        <ele>1706.863</ele>
        <time>2019-05-29T12:29:31Z</time>
      </trkpt>
      <trkpt lat="42.539391" lon="2.090158">
        <ele>1707.238</ele>
        <time>2019-05-29T12:29:33Z</time>
      </trkpt>
      <trkpt lat="42.539277" lon="2.090190">
        <ele>1707.659</ele>
        <time>2019-05-29T12:29:35Z</time>
      </trkpt>
      <trkpt lat="42.539171" lon="2.090252">
        <ele>1707.403</ele>
        <time>2019-05-29T12:29:37Z</time>
      </trkpt>
      <trkpt lat="42.539119" lon="2.090297">
        <ele>1707.823</ele>
        <time>2019-05-29T12:29:38Z</time>
      </trkpt>
      <trkpt lat="42.539072" lon="2.090349">
        <ele>1708.008</ele>
        <time>2019-05-29T12:29:39Z</time>
      </trkpt>
      <trkpt lat="42.538995" lon="2.090463">
        <ele>1708.048</ele>
        <time>2019-05-29T12:29:41Z</time>
      </trkpt>
      <trkpt lat="42.538910" lon="2.090571">
        <ele>1707.852</ele>
        <time>2019-05-29T12:29:43Z</time>
      </trkpt>
      <trkpt lat="42.538717" lon="2.090837">
        <ele>1707.098</ele>
        <time>2019-05-29T12:29:48Z</time>
      </trkpt>
      <trkpt lat="42.538669" lon="2.090892">
        <ele>1707.236</ele>
        <time>2019-05-29T12:29:49Z</time>
      </trkpt>
      <trkpt lat="42.538544" lon="2.091041">
        <ele>1706.439</ele>
        <time>2019-05-29T12:29:52Z</time>
      </trkpt>
      <trkpt lat="42.538467" lon="2.091131">
        <ele>1705.639</ele>
        <time>2019-05-29T12:29:54Z</time>
      </trkpt>
      <trkpt lat="42.538348" lon="2.091246">
        <ele>1707.221</ele>
        <time>2019-05-29T12:29:58Z</time>
      </trkpt>
      <trkpt lat="42.538183" lon="2.091410">
        <ele>1707.226</ele>
        <time>2019-05-29T12:30:03Z</time>
      </trkpt>
      <trkpt lat="42.537998" lon="2.091624">
        <ele>1706.854</ele>
        <time>2019-05-29T12:30:09Z</time>
      </trkpt>
      <trkpt lat="42.537845" lon="2.091839">
        <ele>1707.256</ele>
        <time>2019-05-29T12:30:14Z</time>
      </trkpt>
      <trkpt lat="42.537704" lon="2.091996">
        <ele>1707.211</ele>
        <time>2019-05-29T12:30:19Z</time>
      </trkpt>
      <trkpt lat="42.537599" lon="2.092163">
        <ele>1707.208</ele>
        <time>2019-05-29T12:30:23Z</time>
      </trkpt>
      <trkpt lat="42.537550" lon="2.092237">
        <ele>1707.438</ele>
        <time>2019-05-29T12:30:25Z</time>
      </trkpt>
      <trkpt lat="42.537467" lon="2.092347">
        <ele>1707.252</ele>
        <time>2019-05-29T12:30:28Z</time>
      </trkpt>
      <trkpt lat="42.537367" lon="2.092515">
        <ele>1706.018</ele>
        <time>2019-05-29T12:30:32Z</time>
      </trkpt>
      <trkpt lat="42.537293" lon="2.092629">
        <ele>1705.086</ele>
        <time>2019-05-29T12:30:34Z</time>
      </trkpt>
      <trkpt lat="42.537263" lon="2.092692">
        <ele>1704.879</ele>
        <time>2019-05-29T12:30:35Z</time>
      </trkpt>
      <trkpt lat="42.537243" lon="2.092740">
        <ele>1704.689</ele>
        <time>2019-05-29T12:30:36Z</time>
      </trkpt>
      <trkpt lat="42.537191" lon="2.092790">
        <ele>1706.071</ele>
        <time>2019-05-29T12:30:39Z</time>
      </trkpt>
      <trkpt lat="42.537129" lon="2.092931">
        <ele>1705.896</ele>
        <time>2019-05-29T12:32:39Z</time>
      </trkpt>
      <trkpt lat="42.537120" lon="2.092954">
        <ele>1705.657</ele>
        <time>2019-05-29T12:32:40Z</time>
      </trkpt>
      <trkpt lat="42.537030" lon="2.093081">
        <ele>1705.400</ele>
        <time>2019-05-29T12:32:44Z</time>
      </trkpt>
      <trkpt lat="42.536922" lon="2.093313">
        <ele>1705.420</ele>
        <time>2019-05-29T12:32:50Z</time>
      </trkpt>
      <trkpt lat="42.536806" lon="2.093457">
        <ele>1706.008</ele>
        <time>2019-05-29T12:32:55Z</time>
      </trkpt>
      <trkpt lat="42.536638" lon="2.093654">
        <ele>1705.828</ele>
        <time>2019-05-29T12:33:01Z</time>
      </trkpt>
      <trkpt lat="42.536536" lon="2.093841">
        <ele>1705.652</ele>
        <time>2019-05-29T12:33:06Z</time>
      </trkpt>
      <trkpt lat="42.536382" lon="2.094057">
        <ele>1706.638</ele>
        <time>2019-05-29T12:33:13Z</time>
      </trkpt>
      <trkpt lat="42.536247" lon="2.094210">
        <ele>1707.076</ele>
        <time>2019-05-29T12:33:19Z</time>
      </trkpt>
      <trkpt lat="42.536224" lon="2.094228">
        <ele>1707.019</ele>
        <time>2019-05-29T12:33:20Z</time>
      </trkpt>
      <trkpt lat="42.536130" lon="2.094311">
        <ele>1707.439</ele>
        <time>2019-05-29T12:33:24Z</time>
      </trkpt>
      <trkpt lat="42.536040" lon="2.094410">
        <ele>1707.491</ele>
        <time>2019-05-29T12:33:28Z</time>
      </trkpt>
      <trkpt lat="42.535910" lon="2.094613">
        <ele>1707.646</ele>
        <time>2019-05-29T12:33:33Z</time>
      </trkpt>
      <trkpt lat="42.535872" lon="2.094640">
        <ele>1707.883</ele>
        <time>2019-05-29T12:33:35Z</time>
      </trkpt>
      <trkpt lat="42.535840" lon="2.094628">
        <ele>1707.825</ele>
        <time>2019-05-29T12:33:36Z</time>
      </trkpt>
      <trkpt lat="42.535752" lon="2.094492">
        <ele>1706.617</ele>
        <time>2019-05-29T12:33:40Z</time>
      </trkpt>
      <trkpt lat="42.535730" lon="2.094409">
        <ele>1706.208</ele>
        <time>2019-05-29T12:33:42Z</time>
      </trkpt>
      <trkpt lat="42.535700" lon="2.094328">
        <ele>1706.421</ele>
        <time>2019-05-29T12:33:44Z</time>
      </trkpt>
      <trkpt lat="42.535672" lon="2.094305">
        <ele>1706.425</ele>
        <time>2019-05-29T12:33:45Z</time>
      </trkpt>
      <trkpt lat="42.535589" lon="2.094226">
        <ele>1706.021</ele>
        <time>2019-05-29T12:33:48Z</time>
      </trkpt>
      <trkpt lat="42.535448" lon="2.094119">
        <ele>1706.449</ele>
        <time>2019-05-29T12:33:53Z</time>
      </trkpt>
      <trkpt lat="42.535301" lon="2.093958">
        <ele>1706.452</ele>
        <time>2019-05-29T12:33:58Z</time>
      </trkpt>
      <trkpt lat="42.535160" lon="2.093790">
        <ele>1706.472</ele>
        <time>2019-05-29T12:34:02Z</time>
      </trkpt>
      <trkpt lat="42.534985" lon="2.093619">
        <ele>1705.844</ele>
        <time>2019-05-29T12:34:07Z</time>
      </trkpt>
      <trkpt lat="42.534876" lon="2.093463">
        <ele>1706.219</ele>
        <time>2019-05-29T12:34:11Z</time>
      </trkpt>
      <trkpt lat="42.534775" lon="2.093225">
        <ele>1705.433</ele>
        <time>2019-05-29T12:34:16Z</time>
      </trkpt>
      <trkpt lat="42.534647" lon="2.093082">
        <ele>1705.623</ele>
        <time>2019-05-29T12:34:20Z</time>
      </trkpt>
      <trkpt lat="42.534546" lon="2.092884">
        <ele>1705.415</ele>
        <time>2019-05-29T12:34:24Z</time>
      </trkpt>
      <trkpt lat="42.534502" lon="2.092760">
        <ele>1705.008</ele>
        <time>2019-05-29T12:34:26Z</time>
      </trkpt>
      <trkpt lat="42.534492" lon="2.092688">
        <ele>1704.276</ele>
        <time>2019-05-29T12:34:27Z</time>
      </trkpt>
      <trkpt lat="42.534480" lon="2.092612">
        <ele>1703.690</ele>
        <time>2019-05-29T12:34:28Z</time>
      </trkpt>
      <trkpt lat="42.534471" lon="2.092522">
        <ele>1703.266</ele>
        <time>2019-05-29T12:34:29Z</time>
      </trkpt>
      <trkpt lat="42.534455" lon="2.092446">
        <ele>1703.034</ele>
        <time>2019-05-29T12:34:30Z</time>
      </trkpt>
      <trkpt lat="42.534386" lon="2.092290">
        <ele>1703.097</ele>
        <time>2019-05-29T12:34:33Z</time>
      </trkpt>
      <trkpt lat="42.534361" lon="2.092245">
        <ele>1703.227</ele>
        <time>2019-05-29T12:34:34Z</time>
      </trkpt>
      <trkpt lat="42.534296" lon="2.092120">
        <ele>1704.889</ele>
        <time>2019-05-29T12:34:37Z</time>
      </trkpt>
      <trkpt lat="42.534244" lon="2.092052">
        <ele>1705.474</ele>
        <time>2019-05-29T12:34:39Z</time>
      </trkpt>
      <trkpt lat="42.534197" lon="2.091992">
        <ele>1705.891</ele>
        <time>2019-05-29T12:34:41Z</time>
      </trkpt>
      <trkpt lat="42.534138" lon="2.091917">
        <ele>1706.481</ele>
        <time>2019-05-29T12:34:44Z</time>
      </trkpt>
      <trkpt lat="42.534119" lon="2.091860">
        <ele>1706.019</ele>
        <time>2019-05-29T12:34:46Z</time>
      </trkpt>
      <trkpt lat="42.534104" lon="2.091773">
        <ele>1705.408</ele>
        <time>2019-05-29T12:34:48Z</time>
      </trkpt>
      <trkpt lat="42.534078" lon="2.091668">
        <ele>1704.892</ele>
        <time>2019-05-29T12:34:50Z</time>
      </trkpt>
      <trkpt lat="42.534046" lon="2.091532">
        <ele>1704.266</ele>
        <time>2019-05-29T12:34:52Z</time>
      </trkpt>
      <trkpt lat="42.533967" lon="2.091314">
        <ele>1703.622</ele>
        <time>2019-05-29T12:34:55Z</time>
      </trkpt>
      <trkpt lat="42.533905" lon="2.091196">
        <ele>1703.290</ele>
        <time>2019-05-29T12:34:57Z</time>
      </trkpt>
      <trkpt lat="42.533816" lon="2.091077">
        <ele>1702.443</ele>
        <time>2019-05-29T12:34:59Z</time>
      </trkpt>
      <trkpt lat="42.533675" lon="2.090931">
        <ele>1701.833</ele>
        <time>2019-05-29T12:35:02Z</time>
      </trkpt>
      <trkpt lat="42.533626" lon="2.090876">
        <ele>1701.245</ele>
        <time>2019-05-29T12:35:03Z</time>
      </trkpt>
      <trkpt lat="42.533339" lon="2.090606">
        <ele>1701.280</ele>
        <time>2019-05-29T12:35:08Z</time>
      </trkpt>
      <trkpt lat="42.533107" lon="2.090485">
        <ele>1700.426</ele>
        <time>2019-05-29T12:35:12Z</time>
      </trkpt>
      <trkpt lat="42.533050" lon="2.090466">
        <ele>1699.847</ele>
        <time>2019-05-29T12:35:13Z</time>
      </trkpt>
      <trkpt lat="42.532787" lon="2.090420">
        <ele>1699.811</ele>
        <time>2019-05-29T12:35:17Z</time>
      </trkpt>
      <trkpt lat="42.532672" lon="2.090429">
        <ele>1700.208</ele>
        <time>2019-05-29T12:35:19Z</time>
      </trkpt>
      <trkpt lat="42.532543" lon="2.090528">
        <ele>1699.875</ele>
        <time>2019-05-29T12:35:22Z</time>
      </trkpt>
      <trkpt lat="42.532434" lon="2.090668">
        <ele>1699.259</ele>
        <time>2019-05-29T12:35:25Z</time>
      </trkpt>
      <trkpt lat="42.532356" lon="2.090776">
        <ele>1699.295</ele>
        <time>2019-05-29T12:35:27Z</time>
      </trkpt>
      <trkpt lat="42.532316" lon="2.090845">
        <ele>1698.833</ele>
        <time>2019-05-29T12:35:28Z</time>
      </trkpt>
      <trkpt lat="42.532222" lon="2.090993">
        <ele>1697.816</ele>
        <time>2019-05-29T12:35:30Z</time>
      </trkpt>
      <trkpt lat="42.532167" lon="2.091055">
        <ele>1697.456</ele>
        <time>2019-05-29T12:35:31Z</time>
      </trkpt>
      <trkpt lat="42.532036" lon="2.091166">
        <ele>1696.648</ele>
        <time>2019-05-29T12:35:33Z</time>
      </trkpt>
      <trkpt lat="42.531904" lon="2.091278">
        <ele>1696.073</ele>
        <time>2019-05-29T12:35:35Z</time>
      </trkpt>
      <trkpt lat="42.531832" lon="2.091321">
        <ele>1695.875</ele>
        <time>2019-05-29T12:35:36Z</time>
      </trkpt>
      <trkpt lat="42.531636" lon="2.091429">
        <ele>1695.628</ele>
        <time>2019-05-29T12:35:39Z</time>
      </trkpt>
      <trkpt lat="42.531352" lon="2.091588">
        <ele>1696.420</ele>
        <time>2019-05-29T12:35:44Z</time>
      </trkpt>
      <trkpt lat="42.531107" lon="2.091695">
        <ele>1695.208</ele>
        <time>2019-05-29T12:35:49Z</time>
      </trkpt>
      <trkpt lat="42.531058" lon="2.091731">
        <ele>1695.010</ele>
        <time>2019-05-29T12:35:50Z</time>
      </trkpt>
      <trkpt lat="42.530959" lon="2.091805">
        <ele>1694.224</ele>
        <time>2019-05-29T12:35:52Z</time>
      </trkpt>
      <trkpt lat="42.530849" lon="2.091862">
        <ele>1694.040</ele>
        <time>2019-05-29T12:35:54Z</time>
      </trkpt>
      <trkpt lat="42.530733" lon="2.091925">
        <ele>1693.018</ele>
        <time>2019-05-29T12:35:56Z</time>
      </trkpt>
      <trkpt lat="42.530551" lon="2.092021">
        <ele>1692.431</ele>
        <time>2019-05-29T12:36:00Z</time>
      </trkpt>
      <trkpt lat="42.530480" lon="2.092045">
        <ele>1692.871</ele>
        <time>2019-05-29T12:36:03Z</time>
      </trkpt>
      <trkpt lat="42.530136" lon="2.092228">
        <ele>1691.873</ele>
        <time>2019-05-29T12:37:19Z</time>
      </trkpt>
      <trkpt lat="42.530023" lon="2.092284">
        <ele>1690.898</ele>
        <time>2019-05-29T12:37:22Z</time>
      </trkpt>
      <trkpt lat="42.529984" lon="2.092309">
        <ele>1690.219</ele>
        <time>2019-05-29T12:37:23Z</time>
      </trkpt>
      <trkpt lat="42.529850" lon="2.092492">
        <ele>1689.409</ele>
        <time>2019-05-29T12:37:27Z</time>
      </trkpt>
      <trkpt lat="42.529728" lon="2.092675">
        <ele>1689.619</ele>
        <time>2019-05-29T12:37:30Z</time>
      </trkpt>
      <trkpt lat="42.529637" lon="2.092830">
        <ele>1690.008</ele>
        <time>2019-05-29T12:37:33Z</time>
      </trkpt>
      <trkpt lat="42.529534" lon="2.093062">
        <ele>1691.494</ele>
        <time>2019-05-29T12:37:38Z</time>
      </trkpt>
      <trkpt lat="42.529517" lon="2.093110">
        <ele>1691.248</ele>
        <time>2019-05-29T12:37:39Z</time>
      </trkpt>
      <trkpt lat="42.529393" lon="2.093337">
        <ele>1692.634</ele>
        <time>2019-05-29T12:37:45Z</time>
      </trkpt>
      <trkpt lat="42.529256" lon="2.093559">
        <ele>1692.672</ele>
        <time>2019-05-29T12:37:51Z</time>
      </trkpt>
      <trkpt lat="42.529154" lon="2.093786">
        <ele>1692.865</ele>
        <time>2019-05-29T12:37:57Z</time>
      </trkpt>
      <trkpt lat="42.529096" lon="2.093877">
        <ele>1693.695</ele>
        <time>2019-05-29T12:38:00Z</time>
      </trkpt>
      <trkpt lat="42.529036" lon="2.093983">
        <ele>1694.277</ele>
        <time>2019-05-29T12:38:03Z</time>
      </trkpt>
      <trkpt lat="42.528993" lon="2.094080">
        <ele>1694.632</ele>
        <time>2019-05-29T12:38:06Z</time>
      </trkpt>
      <trkpt lat="42.528962" lon="2.094143">
        <ele>1694.823</ele>
        <time>2019-05-29T12:38:08Z</time>
      </trkpt>
      <trkpt lat="42.528832" lon="2.094379">
        <ele>1695.083</ele>
        <time>2019-05-29T12:38:15Z</time>
      </trkpt>
      <trkpt lat="42.528782" lon="2.094422">
        <ele>1694.611</ele>
        <time>2019-05-29T12:38:17Z</time>
      </trkpt>
      <trkpt lat="42.528721" lon="2.094457">
        <ele>1694.008</ele>
        <time>2019-05-29T12:38:19Z</time>
      </trkpt>
      <trkpt lat="42.528671" lon="2.094504">
        <ele>1693.475</ele>
        <time>2019-05-29T12:38:21Z</time>
      </trkpt>
      <trkpt lat="42.528588" lon="2.094574">
        <ele>1692.869</ele>
        <time>2019-05-29T12:38:24Z</time>
      </trkpt>
      <trkpt lat="42.528535" lon="2.094640">
        <ele>1692.495</ele>
        <time>2019-05-29T12:38:26Z</time>
      </trkpt>
      <trkpt lat="42.528414" lon="2.094751">
        <ele>1691.283</ele>
        <time>2019-05-29T12:38:30Z</time>
      </trkpt>
      <trkpt lat="42.528251" lon="2.094865">
        <ele>1690.476</ele>
        <time>2019-05-29T12:38:35Z</time>
      </trkpt>
      <trkpt lat="42.528225" lon="2.094864">
        <ele>1690.036</ele>
        <time>2019-05-29T12:38:36Z</time>
      </trkpt>
      <trkpt lat="42.528145" lon="2.094909">
        <ele>1688.898</ele>
        <time>2019-05-29T12:38:39Z</time>
      </trkpt>
      <trkpt lat="42.527987" lon="2.094974">
        <ele>1687.413</ele>
        <time>2019-05-29T12:38:44Z</time>
      </trkpt>
      <trkpt lat="42.527881" lon="2.095043">
        <ele>1686.063</ele>
        <time>2019-05-29T12:38:47Z</time>
      </trkpt>
      <trkpt lat="42.527843" lon="2.095056">
        <ele>1684.844</ele>
        <time>2019-05-29T12:38:48Z</time>
      </trkpt>
      <trkpt lat="42.527811" lon="2.095084">
        <ele>1684.618</ele>
        <time>2019-05-29T12:38:49Z</time>
      </trkpt>
      <trkpt lat="42.527671" lon="2.095140">
        <ele>1683.408</ele>
        <time>2019-05-29T12:38:52Z</time>
      </trkpt>
      <trkpt lat="42.527626" lon="2.095166">
        <ele>1683.059</ele>
        <time>2019-05-29T12:38:53Z</time>
      </trkpt>
      <trkpt lat="42.527468" lon="2.095236">
        <ele>1682.443</ele>
        <time>2019-05-29T12:38:57Z</time>
      </trkpt>
      <trkpt lat="42.527424" lon="2.095245">
        <ele>1681.879</ele>
        <time>2019-05-29T12:38:58Z</time>
      </trkpt>
      <trkpt lat="42.527392" lon="2.095260">
        <ele>1681.087</ele>
        <time>2019-05-29T12:38:59Z</time>
      </trkpt>
      <trkpt lat="42.527296" lon="2.095300">
        <ele>1680.880</ele>
        <time>2019-05-29T12:39:02Z</time>
      </trkpt>
      <trkpt lat="42.527217" lon="2.095307">
        <ele>1679.810</ele>
        <time>2019-05-29T12:39:05Z</time>
      </trkpt>
      <trkpt lat="42.527185" lon="2.095315">
        <ele>1679.422</ele>
        <time>2019-05-29T12:39:06Z</time>
      </trkpt>
      <trkpt lat="42.527128" lon="2.095353">
        <ele>1678.277</ele>
        <time>2019-05-29T12:39:08Z</time>
      </trkpt>
      <trkpt lat="42.527099" lon="2.095370">
        <ele>1677.682</ele>
        <time>2019-05-29T12:39:09Z</time>
      </trkpt>
      <trkpt lat="42.527075" lon="2.095395">
        <ele>1677.043</ele>
        <time>2019-05-29T12:39:10Z</time>
      </trkpt>
      <trkpt lat="42.527054" lon="2.095417">
        <ele>1677.417</ele>
        <time>2019-05-29T12:39:11Z</time>
      </trkpt>
      <trkpt lat="42.526980" lon="2.095464">
        <ele>1676.408</ele>
        <time>2019-05-29T12:39:14Z</time>
      </trkpt>
      <trkpt lat="42.526946" lon="2.095477">
        <ele>1676.011</ele>
        <time>2019-05-29T12:39:15Z</time>
      </trkpt>
      <trkpt lat="42.526936" lon="2.095500">
        <ele>1675.055</ele>
        <time>2019-05-29T12:39:16Z</time>
      </trkpt>
      <trkpt lat="42.526908" lon="2.095523">
        <ele>1674.641</ele>
        <time>2019-05-29T12:39:17Z</time>
      </trkpt>
      <trkpt lat="42.526866" lon="2.095579">
        <ele>1674.489</ele>
        <time>2019-05-29T12:39:19Z</time>
      </trkpt>
      <trkpt lat="42.526814" lon="2.095626">
        <ele>1674.242</ele>
        <time>2019-05-29T12:39:21Z</time>
      </trkpt>
      <trkpt lat="42.526765" lon="2.095635">
        <ele>1674.422</ele>
        <time>2019-05-29T12:39:22Z</time>
      </trkpt>
      <trkpt lat="42.526738" lon="2.095709">
        <ele>1673.664</ele>
        <time>2019-05-29T12:39:24Z</time>
      </trkpt>
      <trkpt lat="42.526733" lon="2.095765">
        <ele>1673.019</ele>
        <time>2019-05-29T12:39:26Z</time>
      </trkpt>
      <trkpt lat="42.526646" lon="2.095651">
        <ele>1674.856</ele>
        <time>2019-05-29T12:39:55Z</time>
      </trkpt>
      <trkpt lat="42.526698" lon="2.095597">
        <ele>1675.059</ele>
        <time>2019-05-29T12:40:01Z</time>
      </trkpt>
      <trkpt lat="42.526722" lon="2.095587">
        <ele>1675.014</ele>
        <time>2019-05-29T12:40:03Z</time>
      </trkpt>
      <trkpt lat="42.526744" lon="2.095584">
        <ele>1675.008</ele>
        <time>2019-05-29T12:40:05Z</time>
      </trkpt>
      <trkpt lat="42.526786" lon="2.095564">
        <ele>1674.648</ele>
        <time>2019-05-29T12:40:09Z</time>
      </trkpt>
      <trkpt lat="42.526864" lon="2.095527">
        <ele>1675.632</ele>
        <time>2019-05-29T12:40:17Z</time>
      </trkpt>
      <trkpt lat="42.526856" lon="2.095531">
        <ele>1676.218</ele>
        <time>2019-05-29T12:40:18Z</time>
      </trkpt>
      <trkpt lat="42.526816" lon="2.095513">
        <ele>1677.286</ele>
        <time>2019-05-29T12:41:39Z</time>
      </trkpt>
      <trkpt lat="42.526799" lon="2.095528">
        <ele>1676.859</ele>
        <time>2019-05-29T12:41:40Z</time>
      </trkpt>
      <trkpt lat="42.526751" lon="2.095539">
        <ele>1675.869</ele>
        <time>2019-05-29T12:41:42Z</time>
      </trkpt>
      <trkpt lat="42.526678" lon="2.095592">
        <ele>1675.211</ele>
        <time>2019-05-29T12:41:45Z</time>
      </trkpt>
      <trkpt lat="42.526583" lon="2.095691">
        <ele>1674.066</ele>
        <time>2019-05-29T12:41:50Z</time>
      </trkpt>
      <trkpt lat="42.526563" lon="2.095716">
        <ele>1674.063</ele>
        <time>2019-05-29T12:41:51Z</time>
      </trkpt>
      <trkpt lat="42.526486" lon="2.095876">
        <ele>1672.644</ele>
        <time>2019-05-29T12:41:56Z</time>
      </trkpt>
      <trkpt lat="42.526346" lon="2.096028">
        <ele>1672.218</ele>
        <time>2019-05-29T12:42:01Z</time>
      </trkpt>
      <trkpt lat="42.526326" lon="2.096049">
        <ele>1671.208</ele>
        <time>2019-05-29T12:42:02Z</time>
      </trkpt>
      <trkpt lat="42.526254" lon="2.096133">
        <ele>1670.049</ele>
        <time>2019-05-29T12:42:05Z</time>
      </trkpt>
      <trkpt lat="42.526222" lon="2.096199">
        <ele>1669.493</ele>
        <time>2019-05-29T12:42:07Z</time>
      </trkpt>
      <trkpt lat="42.526190" lon="2.096304">
        <ele>1669.249</ele>
        <time>2019-05-29T12:42:10Z</time>
      </trkpt>
      <trkpt lat="42.526184" lon="2.096343">
        <ele>1669.077</ele>
        <time>2019-05-29T12:42:11Z</time>
      </trkpt>
      <trkpt lat="42.526184" lon="2.096364">
        <ele>1669.080</ele>
        <time>2019-05-29T12:42:12Z</time>
      </trkpt>
      <trkpt lat="42.526195" lon="2.096473">
        <ele>1667.620</ele>
        <time>2019-05-29T12:42:15Z</time>
      </trkpt>
      <trkpt lat="42.526156" lon="2.096570">
        <ele>1666.832</ele>
        <time>2019-05-29T12:42:17Z</time>
      </trkpt>
      <trkpt lat="42.526125" lon="2.096612">
        <ele>1666.247</ele>
        <time>2019-05-29T12:42:18Z</time>
      </trkpt>
      <trkpt lat="42.526065" lon="2.096628">
        <ele>1664.684</ele>
        <time>2019-05-29T12:42:20Z</time>
      </trkpt>
      <trkpt lat="42.526019" lon="2.096606">
        <ele>1664.007</ele>
        <time>2019-05-29T12:42:21Z</time>
      </trkpt>
      <trkpt lat="42.525855" lon="2.096476">
        <ele>1664.217</ele>
        <time>2019-05-29T12:42:25Z</time>
      </trkpt>
      <trkpt lat="42.525756" lon="2.096307">
        <ele>1664.408</ele>
        <time>2019-05-29T12:42:30Z</time>
      </trkpt>
      <trkpt lat="42.525724" lon="2.096162">
        <ele>1663.621</ele>
        <time>2019-05-29T12:42:33Z</time>
      </trkpt>
      <trkpt lat="42.525708" lon="2.096096">
        <ele>1663.445</ele>
        <time>2019-05-29T12:42:34Z</time>
      </trkpt>
      <trkpt lat="42.525699" lon="2.096057">
        <ele>1663.491</ele>
        <time>2019-05-29T12:42:35Z</time>
      </trkpt>
      <trkpt lat="42.525688" lon="2.095805">
        <ele>1663.099</ele>
        <time>2019-05-29T12:42:40Z</time>
      </trkpt>
      <trkpt lat="42.525719" lon="2.095661">
        <ele>1662.882</ele>
        <time>2019-05-29T12:42:43Z</time>
      </trkpt>
      <trkpt lat="42.525730" lon="2.095605">
        <ele>1662.832</ele>
        <time>2019-05-29T12:42:44Z</time>
      </trkpt>
      <trkpt lat="42.525744" lon="2.095554">
        <ele>1661.644</ele>
        <time>2019-05-29T12:42:45Z</time>
      </trkpt>
      <trkpt lat="42.525772" lon="2.095442">
        <ele>1659.889</ele>
        <time>2019-05-29T12:42:47Z</time>
      </trkpt>
      <trkpt lat="42.525783" lon="2.095376">
        <ele>1660.018</ele>
        <time>2019-05-29T12:42:48Z</time>
      </trkpt>
      <trkpt lat="42.525781" lon="2.095238">
        <ele>1659.898</ele>
        <time>2019-05-29T12:42:50Z</time>
      </trkpt>
      <trkpt lat="42.525798" lon="2.095079">
        <ele>1658.217</ele>
        <time>2019-05-29T12:42:53Z</time>
      </trkpt>
      <trkpt lat="42.525801" lon="2.095021">
        <ele>1657.808</ele>
        <time>2019-05-29T12:42:54Z</time>
      </trkpt>
      <trkpt lat="42.525806" lon="2.094965">
        <ele>1657.464</ele>
        <time>2019-05-29T12:42:55Z</time>
      </trkpt>
      <trkpt lat="42.525853" lon="2.094753">
        <ele>1657.698</ele>
        <time>2019-05-29T12:42:59Z</time>
      </trkpt>
      <trkpt lat="42.525860" lon="2.094688">
        <ele>1656.254</ele>
        <time>2019-05-29T12:43:00Z</time>
      </trkpt>
      <trkpt lat="42.525861" lon="2.094541">
        <ele>1655.432</ele>
        <time>2019-05-29T12:43:02Z</time>
      </trkpt>
      <trkpt lat="42.525847" lon="2.094472">
        <ele>1655.835</ele>
        <time>2019-05-29T12:43:03Z</time>
      </trkpt>
      <trkpt lat="42.525815" lon="2.094335">
        <ele>1655.695</ele>
        <time>2019-05-29T12:43:06Z</time>
      </trkpt>
      <trkpt lat="42.525838" lon="2.094140">
        <ele>1655.657</ele>
        <time>2019-05-29T12:43:10Z</time>
      </trkpt>
      <trkpt lat="42.525918" lon="2.094039">
        <ele>1654.862</ele>
        <time>2019-05-29T12:43:13Z</time>
      </trkpt>
      <trkpt lat="42.525947" lon="2.094012">
        <ele>1654.055</ele>
        <time>2019-05-29T12:43:14Z</time>
      </trkpt>
      <trkpt lat="42.526014" lon="2.093958">
        <ele>1653.207</ele>
        <time>2019-05-29T12:43:16Z</time>
      </trkpt>
      <trkpt lat="42.526082" lon="2.093907">
        <ele>1652.617</ele>
        <time>2019-05-29T12:43:18Z</time>
      </trkpt>
      <trkpt lat="42.526184" lon="2.093827">
        <ele>1652.008</ele>
        <time>2019-05-29T12:43:21Z</time>
      </trkpt>
      <trkpt lat="42.526216" lon="2.093789">
        <ele>1652.218</ele>
        <time>2019-05-29T12:43:22Z</time>
      </trkpt>
      <trkpt lat="42.526276" lon="2.093721">
        <ele>1651.832</ele>
        <time>2019-05-29T12:43:24Z</time>
      </trkpt>
      <trkpt lat="42.526330" lon="2.093656">
        <ele>1651.638</ele>
        <time>2019-05-29T12:43:26Z</time>
      </trkpt>
      <trkpt lat="42.526454" lon="2.093483">
        <ele>1650.816</ele>
        <time>2019-05-29T12:43:31Z</time>
      </trkpt>
      <trkpt lat="42.526467" lon="2.093380">
        <ele>1651.019</ele>
        <time>2019-05-29T12:43:33Z</time>
      </trkpt>
      <trkpt lat="42.526472" lon="2.093277">
        <ele>1650.639</ele>
        <time>2019-05-29T12:43:35Z</time>
      </trkpt>
      <trkpt lat="42.526480" lon="2.093231">
        <ele>1650.071</ele>
        <time>2019-05-29T12:43:36Z</time>
      </trkpt>
      <trkpt lat="42.526496" lon="2.093194">
        <ele>1649.816</ele>
        <time>2019-05-29T12:43:37Z</time>
      </trkpt>
      <trkpt lat="42.526518" lon="2.093169">
        <ele>1649.861</ele>
        <time>2019-05-29T12:43:38Z</time>
      </trkpt>
      <trkpt lat="42.526569" lon="2.093134">
        <ele>1651.821</ele>
        <time>2019-05-29T12:43:40Z</time>
      </trkpt>
      <trkpt lat="42.526651" lon="2.093082">
        <ele>1650.613</ele>
        <time>2019-05-29T12:43:43Z</time>
      </trkpt>
      <trkpt lat="42.526678" lon="2.093067">
        <ele>1650.408</ele>
        <time>2019-05-29T12:43:44Z</time>
      </trkpt>
      <trkpt lat="42.526860" lon="2.092965">
        <ele>1650.039</ele>
        <time>2019-05-29T12:43:50Z</time>
      </trkpt>
      <trkpt lat="42.526952" lon="2.092924">
        <ele>1651.883</ele>
        <time>2019-05-29T12:43:53Z</time>
      </trkpt>
      <trkpt lat="42.527046" lon="2.092888">
        <ele>1652.479</ele>
        <time>2019-05-29T12:43:56Z</time>
      </trkpt>
      <trkpt lat="42.527258" lon="2.092780">
        <ele>1651.897</ele>
        <time>2019-05-29T12:44:03Z</time>
      </trkpt>
      <trkpt lat="42.527411" lon="2.092626">
        <ele>1652.670</ele>
        <time>2019-05-29T12:44:09Z</time>
      </trkpt>
      <trkpt lat="42.527521" lon="2.092446">
        <ele>1653.610</ele>
        <time>2019-05-29T12:44:14Z</time>
      </trkpt>
      <trkpt lat="42.527542" lon="2.092409">
        <ele>1653.252</ele>
        <time>2019-05-29T12:44:15Z</time>
      </trkpt>
      <trkpt lat="42.527606" lon="2.092301">
        <ele>1652.237</ele>
        <time>2019-05-29T12:44:18Z</time>
      </trkpt>
      <trkpt lat="42.527628" lon="2.092266">
        <ele>1654.065</ele>
        <time>2019-05-29T12:44:19Z</time>
      </trkpt>
      <trkpt lat="42.527697" lon="2.092149">
        <ele>1650.668</ele>
        <time>2019-05-29T12:44:22Z</time>
      </trkpt>
      <trkpt lat="42.527720" lon="2.092108">
        <ele>1654.214</ele>
        <time>2019-05-29T12:44:23Z</time>
      </trkpt>
      <trkpt lat="42.527745" lon="2.092066">
        <ele>1656.008</ele>
        <time>2019-05-29T12:44:24Z</time>
      </trkpt>
      <trkpt lat="42.527798" lon="2.091989">
        <ele>1654.219</ele>
        <time>2019-05-29T12:44:26Z</time>
      </trkpt>
      <trkpt lat="42.527910" lon="2.091843">
        <ele>1653.843</ele>
        <time>2019-05-29T12:44:30Z</time>
      </trkpt>
      <trkpt lat="42.528111" lon="2.091599">
        <ele>1654.289</ele>
        <time>2019-05-29T12:44:37Z</time>
      </trkpt>
      <trkpt lat="42.528267" lon="2.091361">
        <ele>1654.837</ele>
        <time>2019-05-29T12:44:43Z</time>
      </trkpt>
      <trkpt lat="42.528473" lon="2.091079">
        <ele>1654.650</ele>
        <time>2019-05-29T12:44:50Z</time>
      </trkpt>
      <trkpt lat="42.528496" lon="2.091031">
        <ele>1654.670</ele>
        <time>2019-05-29T12:44:51Z</time>
      </trkpt>
      <trkpt lat="42.528610" lon="2.090879">
        <ele>1654.872</ele>
        <time>2019-05-29T12:44:55Z</time>
      </trkpt>
      <trkpt lat="42.528662" lon="2.090811">
        <ele>1655.437</ele>
        <time>2019-05-29T12:44:57Z</time>
      </trkpt>
      <trkpt lat="42.528739" lon="2.090706">
        <ele>1656.027</ele>
        <time>2019-05-29T12:45:00Z</time>
      </trkpt>
      <trkpt lat="42.528856" lon="2.090557">
        <ele>1656.468</ele>
        <time>2019-05-29T12:45:05Z</time>
      </trkpt>
      <trkpt lat="42.528950" lon="2.090451">
        <ele>1656.814</ele>
        <time>2019-05-29T12:45:09Z</time>
      </trkpt>
      <trkpt lat="42.529035" lon="2.090340">
        <ele>1657.608</ele>
        <time>2019-05-29T12:45:13Z</time>
      </trkpt>
      <trkpt lat="42.529069" lon="2.090273">
        <ele>1658.075</ele>
        <time>2019-05-29T12:45:15Z</time>
      </trkpt>
      <trkpt lat="42.529108" lon="2.090212">
        <ele>1658.679</ele>
        <time>2019-05-29T12:45:17Z</time>
      </trkpt>
      <trkpt lat="42.529129" lon="2.090180">
        <ele>1658.855</ele>
        <time>2019-05-29T12:45:18Z</time>
      </trkpt>
      <trkpt lat="42.529189" lon="2.090082">
        <ele>1659.273</ele>
        <time>2019-05-29T12:45:21Z</time>
      </trkpt>
      <trkpt lat="42.529319" lon="2.089825">
        <ele>1659.636</ele>
        <time>2019-05-29T12:45:28Z</time>
      </trkpt>
      <trkpt lat="42.529450" lon="2.089604">
        <ele>1659.476</ele>
        <time>2019-05-29T12:45:34Z</time>
      </trkpt>
      <trkpt lat="42.529593" lon="2.089332">
        <ele>1659.048</ele>
        <time>2019-05-29T12:45:41Z</time>
      </trkpt>
      <trkpt lat="42.529731" lon="2.088931">
        <ele>1659.873</ele>
        <time>2019-05-29T12:45:50Z</time>
      </trkpt>
      <trkpt lat="42.529745" lon="2.088888">
        <ele>1659.876</ele>
        <time>2019-05-29T12:45:51Z</time>
      </trkpt>
      <trkpt lat="42.529770" lon="2.088798">
        <ele>1659.890</ele>
        <time>2019-05-29T12:45:53Z</time>
      </trkpt>
      <trkpt lat="42.529823" lon="2.088538">
        <ele>1659.219</ele>
        <time>2019-05-29T12:45:58Z</time>
      </trkpt>
      <trkpt lat="42.529847" lon="2.088424">
        <ele>1658.608</ele>
        <time>2019-05-29T12:46:00Z</time>
      </trkpt>
      <trkpt lat="42.529889" lon="2.088119">
        <ele>1657.830</ele>
        <time>2019-05-29T12:46:05Z</time>
      </trkpt>
      <trkpt lat="42.529904" lon="2.087983">
        <ele>1657.474</ele>
        <time>2019-05-29T12:46:07Z</time>
      </trkpt>
      <trkpt lat="42.529960" lon="2.087628">
        <ele>1656.220</ele>
        <time>2019-05-29T12:46:12Z</time>
      </trkpt>
      <trkpt lat="42.529967" lon="2.087548">
        <ele>1655.888</ele>
        <time>2019-05-29T12:46:13Z</time>
      </trkpt>
      <trkpt lat="42.529976" lon="2.087470">
        <ele>1655.221</ele>
        <time>2019-05-29T12:46:14Z</time>
      </trkpt>
      <trkpt lat="42.529991" lon="2.087398">
        <ele>1655.041</ele>
        <time>2019-05-29T12:46:15Z</time>
      </trkpt>
      <trkpt lat="42.530099" lon="2.086838">
        <ele>1654.893</ele>
        <time>2019-05-29T12:46:23Z</time>
      </trkpt>
      <trkpt lat="42.530122" lon="2.086701">
        <ele>1654.298</ele>
        <time>2019-05-29T12:46:25Z</time>
      </trkpt>
      <trkpt lat="42.530173" lon="2.086444">
        <ele>1654.447</ele>
        <time>2019-05-29T12:46:29Z</time>
      </trkpt>
      <trkpt lat="42.530346" lon="2.085835">
        <ele>1653.829</ele>
        <time>2019-05-29T12:46:38Z</time>
      </trkpt>
      <trkpt lat="42.530437" lon="2.085646">
        <ele>1654.021</ele>
        <time>2019-05-29T12:46:41Z</time>
      </trkpt>
      <trkpt lat="42.530541" lon="2.085454">
        <ele>1654.008</ele>
        <time>2019-05-29T12:46:44Z</time>
      </trkpt>
      <trkpt lat="42.530639" lon="2.085253">
        <ele>1653.237</ele>
        <time>2019-05-29T12:46:47Z</time>
      </trkpt>
      <trkpt lat="42.530791" lon="2.084928">
        <ele>1652.871</ele>
        <time>2019-05-29T12:46:52Z</time>
      </trkpt>
      <trkpt lat="42.530846" lon="2.084620">
        <ele>1652.467</ele>
        <time>2019-05-29T12:46:56Z</time>
      </trkpt>
      <trkpt lat="42.530855" lon="2.084541">
        <ele>1652.465</ele>
        <time>2019-05-29T12:46:57Z</time>
      </trkpt>
      <trkpt lat="42.530872" lon="2.084383">
        <ele>1652.078</ele>
        <time>2019-05-29T12:46:59Z</time>
      </trkpt>
      <trkpt lat="42.530897" lon="2.084238">
        <ele>1651.238</ele>
        <time>2019-05-29T12:47:01Z</time>
      </trkpt>
      <trkpt lat="42.530933" lon="2.084097">
        <ele>1651.410</ele>
        <time>2019-05-29T12:47:03Z</time>
      </trkpt>
      <trkpt lat="42.530975" lon="2.083954">
        <ele>1651.225</ele>
        <time>2019-05-29T12:47:05Z</time>
      </trkpt>
      <trkpt lat="42.531007" lon="2.083889">
        <ele>1650.859</ele>
        <time>2019-05-29T12:47:06Z</time>
      </trkpt>
      <trkpt lat="42.531044" lon="2.083834">
        <ele>1650.803</ele>
        <time>2019-05-29T12:47:07Z</time>
      </trkpt>
      <trkpt lat="42.531331" lon="2.083452">
        <ele>1651.423</ele>
        <time>2019-05-29T12:47:14Z</time>
      </trkpt>
      <trkpt lat="42.531525" lon="2.083025">
        <ele>1650.008</ele>
        <time>2019-05-29T12:47:20Z</time>
      </trkpt>
      <trkpt lat="42.531691" lon="2.082558">
        <ele>1650.878</ele>
        <time>2019-05-29T12:47:27Z</time>
      </trkpt>
      <trkpt lat="42.531805" lon="2.082061">
        <ele>1652.022</ele>
        <time>2019-05-29T12:47:35Z</time>
      </trkpt>
      <trkpt lat="42.531823" lon="2.081934">
        <ele>1652.618</ele>
        <time>2019-05-29T12:47:37Z</time>
      </trkpt>
      <trkpt lat="42.531841" lon="2.081811">
        <ele>1652.276</ele>
        <time>2019-05-29T12:47:39Z</time>
      </trkpt>
      <trkpt lat="42.531883" lon="2.081695">
        <ele>1652.019</ele>
        <time>2019-05-29T12:47:41Z</time>
      </trkpt>
      <trkpt lat="42.531963" lon="2.081461">
        <ele>1653.079</ele>
        <time>2019-05-29T12:47:45Z</time>
      </trkpt>
      <trkpt lat="42.531981" lon="2.081401">
        <ele>1653.441</ele>
        <time>2019-05-29T12:47:46Z</time>
      </trkpt>
      <trkpt lat="42.532045" lon="2.081177">
        <ele>1653.036</ele>
        <time>2019-05-29T12:47:50Z</time>
      </trkpt>
      <trkpt lat="42.532051" lon="2.081119">
        <ele>1653.016</ele>
        <time>2019-05-29T12:47:51Z</time>
      </trkpt>
      <trkpt lat="42.532066" lon="2.080776">
        <ele>1653.676</ele>
        <time>2019-05-29T12:47:57Z</time>
      </trkpt>
      <trkpt lat="42.532072" lon="2.080721">
        <ele>1653.613</ele>
        <time>2019-05-29T12:47:58Z</time>
      </trkpt>
      <trkpt lat="42.532125" lon="2.080452">
        <ele>1654.408</ele>
        <time>2019-05-29T12:48:03Z</time>
      </trkpt>
      <trkpt lat="42.532145" lon="2.080404">
        <ele>1654.694</ele>
        <time>2019-05-29T12:48:04Z</time>
      </trkpt>
      <trkpt lat="42.532257" lon="2.080095">
        <ele>1653.078</ele>
        <time>2019-05-29T12:48:10Z</time>
      </trkpt>
      <trkpt lat="42.532271" lon="2.080039">
        <ele>1653.074</ele>
        <time>2019-05-29T12:48:11Z</time>
      </trkpt>
      <trkpt lat="42.532284" lon="2.079980">
        <ele>1654.472</ele>
        <time>2019-05-29T12:48:12Z</time>
      </trkpt>
      <trkpt lat="42.532303" lon="2.079856">
        <ele>1655.455</ele>
        <time>2019-05-29T12:48:14Z</time>
      </trkpt>
      <trkpt lat="42.532316" lon="2.079727">
        <ele>1654.635</ele>
        <time>2019-05-29T12:48:16Z</time>
      </trkpt>
      <trkpt lat="42.532317" lon="2.079662">
        <ele>1654.487</ele>
        <time>2019-05-29T12:48:17Z</time>
      </trkpt>
      <trkpt lat="42.532318" lon="2.079601">
        <ele>1654.452</ele>
        <time>2019-05-29T12:48:18Z</time>
      </trkpt>
      <trkpt lat="42.532319" lon="2.079414">
        <ele>1654.682</ele>
        <time>2019-05-29T12:48:21Z</time>
      </trkpt>
      <trkpt lat="42.532324" lon="2.079355">
        <ele>1654.843</ele>
        <time>2019-05-29T12:48:22Z</time>
      </trkpt>
      <trkpt lat="42.532334" lon="2.079296">
        <ele>1654.817</ele>
        <time>2019-05-29T12:48:23Z</time>
      </trkpt>
      <trkpt lat="42.532405" lon="2.079064">
        <ele>1655.208</ele>
        <time>2019-05-29T12:48:27Z</time>
      </trkpt>
      <trkpt lat="42.532533" lon="2.078668">
        <ele>1655.051</ele>
        <time>2019-05-29T12:48:34Z</time>
      </trkpt>
      <trkpt lat="42.532589" lon="2.078449">
        <ele>1655.065</ele>
        <time>2019-05-29T12:48:38Z</time>
      </trkpt>
      <trkpt lat="42.532602" lon="2.078291">
        <ele>1655.021</ele>
        <time>2019-05-29T12:48:41Z</time>
      </trkpt>
      <trkpt lat="42.532603" lon="2.078236">
        <ele>1655.069</ele>
        <time>2019-05-29T12:48:42Z</time>
      </trkpt>
      <trkpt lat="42.532593" lon="2.077956">
        <ele>1655.272</ele>
        <time>2019-05-29T12:48:47Z</time>
      </trkpt>
      <trkpt lat="42.532540" lon="2.077469">
        <ele>1655.022</ele>
        <time>2019-05-29T12:48:55Z</time>
      </trkpt>
      <trkpt lat="42.532467" lon="2.077153">
        <ele>1655.494</ele>
        <time>2019-05-29T12:49:00Z</time>
      </trkpt>
      <trkpt lat="42.532441" lon="2.077087">
        <ele>1655.069</ele>
        <time>2019-05-29T12:49:01Z</time>
      </trkpt>
      <trkpt lat="42.532241" lon="2.076685">
        <ele>1653.686</ele>
        <time>2019-05-29T12:49:07Z</time>
      </trkpt>
      <trkpt lat="42.532199" lon="2.076623">
        <ele>1653.260</ele>
        <time>2019-05-29T12:49:08Z</time>
      </trkpt>
      <trkpt lat="42.532075" lon="2.076437">
        <ele>1652.226</ele>
        <time>2019-05-29T12:49:11Z</time>
      </trkpt>
      <trkpt lat="42.532038" lon="2.076368">
        <ele>1651.408</ele>
        <time>2019-05-29T12:49:12Z</time>
      </trkpt>
      <trkpt lat="42.532008" lon="2.076293">
        <ele>1651.021</ele>
        <time>2019-05-29T12:49:13Z</time>
      </trkpt>
      <trkpt lat="42.531928" lon="2.075970">
        <ele>1650.035</ele>
        <time>2019-05-29T12:49:17Z</time>
      </trkpt>
      <trkpt lat="42.531898" lon="2.075895">
        <ele>1650.271</ele>
        <time>2019-05-29T12:49:18Z</time>
      </trkpt>
      <trkpt lat="42.531785" lon="2.075694">
        <ele>1650.419</ele>
        <time>2019-05-29T12:49:21Z</time>
      </trkpt>
      <trkpt lat="42.531708" lon="2.075583">
        <ele>1650.412</ele>
        <time>2019-05-29T12:49:23Z</time>
      </trkpt>
      <trkpt lat="42.531677" lon="2.075522">
        <ele>1648.062</ele>
        <time>2019-05-29T12:49:24Z</time>
      </trkpt>
      <trkpt lat="42.531624" lon="2.075391">
        <ele>1646.884</ele>
        <time>2019-05-29T12:49:26Z</time>
      </trkpt>
      <trkpt lat="42.531586" lon="2.075249">
        <ele>1646.869</ele>
        <time>2019-05-29T12:49:28Z</time>
      </trkpt>
      <trkpt lat="42.531572" lon="2.075108">
        <ele>1646.084</ele>
        <time>2019-05-29T12:49:30Z</time>
      </trkpt>
      <trkpt lat="42.531575" lon="2.075003">
        <ele>1646.607</ele>
        <time>2019-05-29T12:49:32Z</time>
      </trkpt>
      <trkpt lat="42.531587" lon="2.074899">
        <ele>1647.017</ele>
        <time>2019-05-29T12:49:35Z</time>
      </trkpt>
      <trkpt lat="42.531589" lon="2.074874">
        <ele>1647.008</ele>
        <time>2019-05-29T12:49:36Z</time>
      </trkpt>
      <trkpt lat="42.531581" lon="2.074758">
        <ele>1646.421</ele>
        <time>2019-05-29T12:50:24Z</time>
      </trkpt>
      <trkpt lat="42.531604" lon="2.074599">
        <ele>1645.415</ele>
        <time>2019-05-29T12:50:27Z</time>
      </trkpt>
      <trkpt lat="42.531615" lon="2.074539">
        <ele>1644.831</ele>
        <time>2019-05-29T12:50:28Z</time>
      </trkpt>
      <trkpt lat="42.531660" lon="2.074303">
        <ele>1644.289</ele>
        <time>2019-05-29T12:50:32Z</time>
      </trkpt>
      <trkpt lat="42.531658" lon="2.074192">
        <ele>1643.832</ele>
        <time>2019-05-29T12:50:34Z</time>
      </trkpt>
      <trkpt lat="42.531626" lon="2.073990">
        <ele>1645.452</ele>
        <time>2019-05-29T12:50:37Z</time>
      </trkpt>
      <trkpt lat="42.531613" lon="2.073837">
        <ele>1644.084</ele>
        <time>2019-05-29T12:50:39Z</time>
      </trkpt>
      <trkpt lat="42.531608" lon="2.073758">
        <ele>1643.049</ele>
        <time>2019-05-29T12:50:40Z</time>
      </trkpt>
      <trkpt lat="42.531596" lon="2.073595">
        <ele>1641.483</ele>
        <time>2019-05-29T12:50:42Z</time>
      </trkpt>
      <trkpt lat="42.531588" lon="2.073291">
        <ele>1642.025</ele>
        <time>2019-05-29T12:50:46Z</time>
      </trkpt>
      <trkpt lat="42.531585" lon="2.073219">
        <ele>1642.417</ele>
        <time>2019-05-29T12:50:47Z</time>
      </trkpt>
      <trkpt lat="42.531571" lon="2.072678">
        <ele>1643.608</ele>
        <time>2019-05-29T12:50:55Z</time>
      </trkpt>
      <trkpt lat="42.531564" lon="2.072549">
        <ele>1645.221</ele>
        <time>2019-05-29T12:50:57Z</time>
      </trkpt>
      <trkpt lat="42.531548" lon="2.072372">
        <ele>1643.445</ele>
        <time>2019-05-29T12:51:00Z</time>
      </trkpt>
      <trkpt lat="42.531545" lon="2.072256">
        <ele>1643.021</ele>
        <time>2019-05-29T12:51:02Z</time>
      </trkpt>
      <trkpt lat="42.531548" lon="2.072082">
        <ele>1644.439</ele>
        <time>2019-05-29T12:51:05Z</time>
      </trkpt>
      <trkpt lat="42.531542" lon="2.071920">
        <ele>1646.022</ele>
        <time>2019-05-29T12:51:08Z</time>
      </trkpt>
      <trkpt lat="42.531542" lon="2.071863">
        <ele>1646.252</ele>
        <time>2019-05-29T12:51:09Z</time>
      </trkpt>
      <trkpt lat="42.531550" lon="2.071632">
        <ele>1644.854</ele>
        <time>2019-05-29T12:51:13Z</time>
      </trkpt>
      <trkpt lat="42.531565" lon="2.071519">
        <ele>1644.839</ele>
        <time>2019-05-29T12:51:15Z</time>
      </trkpt>
      <trkpt lat="42.531574" lon="2.071463">
        <ele>1644.861</ele>
        <time>2019-05-29T12:51:16Z</time>
      </trkpt>
      <trkpt lat="42.531617" lon="2.071238">
        <ele>1645.221</ele>
        <time>2019-05-29T12:51:20Z</time>
      </trkpt>
      <trkpt lat="42.531652" lon="2.071073">
        <ele>1645.813</ele>
        <time>2019-05-29T12:51:23Z</time>
      </trkpt>
      <trkpt lat="42.531665" lon="2.071020">
        <ele>1646.008</ele>
        <time>2019-05-29T12:51:24Z</time>
      </trkpt>
      <trkpt lat="42.531688" lon="2.070915">
        <ele>1646.479</ele>
        <time>2019-05-29T12:51:26Z</time>
      </trkpt>
      <trkpt lat="42.531722" lon="2.070758">
        <ele>1646.013</ele>
        <time>2019-05-29T12:51:29Z</time>
      </trkpt>
      <trkpt lat="42.531755" lon="2.070606">
        <ele>1644.489</ele>
        <time>2019-05-29T12:51:32Z</time>
      </trkpt>
      <trkpt lat="42.531778" lon="2.070448">
        <ele>1646.017</ele>
        <time>2019-05-29T12:51:35Z</time>
      </trkpt>
      <trkpt lat="42.531826" lon="2.070148">
        <ele>1645.680</ele>
        <time>2019-05-29T12:51:41Z</time>
      </trkpt>
      <trkpt lat="42.531844" lon="2.070049">
        <ele>1645.050</ele>
        <time>2019-05-29T12:51:43Z</time>
      </trkpt>
      <trkpt lat="42.531927" lon="2.069825">
        <ele>1646.882</ele>
        <time>2019-05-29T12:51:48Z</time>
      </trkpt>
      <trkpt lat="42.532002" lon="2.069583">
        <ele>1646.417</ele>
        <time>2019-05-29T12:51:53Z</time>
      </trkpt>
      <trkpt lat="42.532029" lon="2.069482">
        <ele>1645.693</ele>
        <time>2019-05-29T12:51:55Z</time>
      </trkpt>
      <trkpt lat="42.532091" lon="2.069343">
        <ele>1646.265</ele>
        <time>2019-05-29T12:51:58Z</time>
      </trkpt>
      <trkpt lat="42.532153" lon="2.069210">
        <ele>1646.021</ele>
        <time>2019-05-29T12:52:01Z</time>
      </trkpt>
      <trkpt lat="42.532236" lon="2.069039">
        <ele>1644.208</ele>
        <time>2019-05-29T12:52:05Z</time>
      </trkpt>
      <trkpt lat="42.532305" lon="2.068928">
        <ele>1646.032</ele>
        <time>2019-05-29T12:52:08Z</time>
      </trkpt>
      <trkpt lat="42.532359" lon="2.068854">
        <ele>1647.476</ele>
        <time>2019-05-29T12:52:10Z</time>
      </trkpt>
      <trkpt lat="42.532564" lon="2.068567">
        <ele>1645.632</ele>
        <time>2019-05-29T12:52:18Z</time>
      </trkpt>
      <trkpt lat="42.532589" lon="2.068533">
        <ele>1645.040</ele>
        <time>2019-05-29T12:52:19Z</time>
      </trkpt>
      <trkpt lat="42.532805" lon="2.068230">
        <ele>1646.693</ele>
        <time>2019-05-29T12:52:28Z</time>
      </trkpt>
      <trkpt lat="42.532831" lon="2.068197">
        <ele>1646.833</ele>
        <time>2019-05-29T12:52:29Z</time>
      </trkpt>
      <trkpt lat="42.532977" lon="2.067977">
        <ele>1647.465</ele>
        <time>2019-05-29T12:52:35Z</time>
      </trkpt>
      <trkpt lat="42.533185" lon="2.067697">
        <ele>1647.020</ele>
        <time>2019-05-29T12:52:44Z</time>
      </trkpt>
      <trkpt lat="42.533209" lon="2.067673">
        <ele>1647.656</ele>
        <time>2019-05-29T12:52:45Z</time>
      </trkpt>
      <trkpt lat="42.533355" lon="2.067518">
        <ele>1646.459</ele>
        <time>2019-05-29T12:52:51Z</time>
      </trkpt>
      <trkpt lat="42.533376" lon="2.067489">
        <ele>1647.214</ele>
        <time>2019-05-29T12:52:52Z</time>
      </trkpt>
      <trkpt lat="42.533397" lon="2.067463">
        <ele>1647.808</ele>
        <time>2019-05-29T12:52:53Z</time>
      </trkpt>
      <trkpt lat="42.533522" lon="2.067293">
        <ele>1648.818</ele>
        <time>2019-05-29T12:52:59Z</time>
      </trkpt>
      <trkpt lat="42.533571" lon="2.067235">
        <ele>1649.012</ele>
        <time>2019-05-29T12:53:01Z</time>
      </trkpt>
      <trkpt lat="42.533765" lon="2.066943">
        <ele>1647.668</ele>
        <time>2019-05-29T12:53:10Z</time>
      </trkpt>
      <trkpt lat="42.533790" lon="2.066912">
        <ele>1647.416</ele>
        <time>2019-05-29T12:53:11Z</time>
      </trkpt>
      <trkpt lat="42.533989" lon="2.066606">
        <ele>1647.019</ele>
        <time>2019-05-29T12:53:20Z</time>
      </trkpt>
      <trkpt lat="42.534101" lon="2.066454">
        <ele>1647.439</ele>
        <time>2019-05-29T12:53:25Z</time>
      </trkpt>
      <trkpt lat="42.534265" lon="2.066185">
        <ele>1647.881</ele>
        <time>2019-05-29T12:53:33Z</time>
      </trkpt>
      <trkpt lat="42.534410" lon="2.065878">
        <ele>1648.246</ele>
        <time>2019-05-29T12:53:41Z</time>
      </trkpt>
      <trkpt lat="42.534596" lon="2.065498">
        <ele>1648.097</ele>
        <time>2019-05-29T12:53:51Z</time>
      </trkpt>
      <trkpt lat="42.534730" lon="2.065215">
        <ele>1648.023</ele>
        <time>2019-05-29T12:53:59Z</time>
      </trkpt>
      <trkpt lat="42.534776" lon="2.065111">
        <ele>1648.825</ele>
        <time>2019-05-29T12:54:02Z</time>
      </trkpt>
      <trkpt lat="42.534849" lon="2.064943">
        <ele>1649.808</ele>
        <time>2019-05-29T12:54:07Z</time>
      </trkpt>
      <trkpt lat="42.534989" lon="2.064632">
        <ele>1650.232</ele>
        <time>2019-05-29T12:54:16Z</time>
      </trkpt>
      <trkpt lat="42.535004" lon="2.064591">
        <ele>1650.676</ele>
        <time>2019-05-29T12:54:17Z</time>
      </trkpt>
      <trkpt lat="42.535166" lon="2.064241">
        <ele>1649.812</ele>
        <time>2019-05-29T12:54:26Z</time>
      </trkpt>
      <trkpt lat="42.535183" lon="2.064205">
        <ele>1649.210</ele>
        <time>2019-05-29T12:54:27Z</time>
      </trkpt>
      <trkpt lat="42.535263" lon="2.063964">
        <ele>1650.663</ele>
        <time>2019-05-29T12:54:33Z</time>
      </trkpt>
      <trkpt lat="42.535287" lon="2.063884">
        <ele>1650.423</ele>
        <time>2019-05-29T12:54:35Z</time>
      </trkpt>
      <trkpt lat="42.535297" lon="2.063842">
        <ele>1652.455</ele>
        <time>2019-05-29T12:54:36Z</time>
      </trkpt>
      <trkpt lat="42.535345" lon="2.063685">
        <ele>1651.430</ele>
        <time>2019-05-29T12:54:40Z</time>
      </trkpt>
      <trkpt lat="42.535367" lon="2.063602">
        <ele>1650.868</ele>
        <time>2019-05-29T12:54:42Z</time>
      </trkpt>
      <trkpt lat="42.535385" lon="2.063519">
        <ele>1650.442</ele>
        <time>2019-05-29T12:54:44Z</time>
      </trkpt>
      <trkpt lat="42.535409" lon="2.063434">
        <ele>1651.626</ele>
        <time>2019-05-29T12:54:46Z</time>
      </trkpt>
      <trkpt lat="42.535423" lon="2.063388">
        <ele>1652.608</ele>
        <time>2019-05-29T12:54:47Z</time>
      </trkpt>
      <trkpt lat="42.535448" lon="2.063301">
        <ele>1652.869</ele>
        <time>2019-05-29T12:54:49Z</time>
      </trkpt>
      <trkpt lat="42.535515" lon="2.062990">
        <ele>1652.653</ele>
        <time>2019-05-29T12:54:56Z</time>
      </trkpt>
      <trkpt lat="42.535550" lon="2.062783">
        <ele>1653.299</ele>
        <time>2019-05-29T12:55:01Z</time>
      </trkpt>
      <trkpt lat="42.535559" lon="2.062738">
        <ele>1653.677</ele>
        <time>2019-05-29T12:55:02Z</time>
      </trkpt>
      <trkpt lat="42.535631" lon="2.062510">
        <ele>1652.620</ele>
        <time>2019-05-29T12:55:08Z</time>
      </trkpt>
      <trkpt lat="42.535671" lon="2.062412">
        <ele>1653.660</ele>
        <time>2019-05-29T12:55:11Z</time>
      </trkpt>
      <trkpt lat="42.535720" lon="2.062327">
        <ele>1654.622</ele>
        <time>2019-05-29T12:55:14Z</time>
      </trkpt>
      <trkpt lat="42.535755" lon="2.062272">
        <ele>1655.227</ele>
        <time>2019-05-29T12:55:16Z</time>
      </trkpt>
      <trkpt lat="42.535809" lon="2.062180">
        <ele>1655.843</ele>
        <time>2019-05-29T12:55:19Z</time>
      </trkpt>
      <trkpt lat="42.535902" lon="2.062023">
        <ele>1655.664</ele>
        <time>2019-05-29T12:55:25Z</time>
      </trkpt>
      <trkpt lat="42.535975" lon="2.061903">
        <ele>1657.210</ele>
        <time>2019-05-29T12:55:30Z</time>
      </trkpt>
      <trkpt lat="42.536032" lon="2.061804">
        <ele>1656.608</ele>
        <time>2019-05-29T12:55:34Z</time>
      </trkpt>
      <trkpt lat="42.536127" lon="2.061642">
        <ele>1657.617</ele>
        <time>2019-05-29T12:55:42Z</time>
      </trkpt>
      <trkpt lat="42.536145" lon="2.061602">
        <ele>1658.481</ele>
        <time>2019-05-29T12:55:44Z</time>
      </trkpt>
      <trkpt lat="42.536165" lon="2.061565">
        <ele>1659.067</ele>
        <time>2019-05-29T12:55:46Z</time>
      </trkpt>
      <trkpt lat="42.536197" lon="2.061517">
        <ele>1659.075</ele>
        <time>2019-05-29T12:55:49Z</time>
      </trkpt>
      <trkpt lat="42.536230" lon="2.061463">
        <ele>1659.468</ele>
        <time>2019-05-29T12:55:52Z</time>
      </trkpt>
      <trkpt lat="42.536259" lon="2.061399">
        <ele>1659.688</ele>
        <time>2019-05-29T12:55:55Z</time>
      </trkpt>
      <trkpt lat="42.536266" lon="2.061374">
        <ele>1659.430</ele>
        <time>2019-05-29T12:55:56Z</time>
      </trkpt>
      <trkpt lat="42.536348" lon="2.061255">
        <ele>1659.675</ele>
        <time>2019-05-29T12:56:03Z</time>
      </trkpt>
      <trkpt lat="42.536407" lon="2.061166">
        <ele>1660.448</ele>
        <time>2019-05-29T12:56:08Z</time>
      </trkpt>
      <trkpt lat="42.536422" lon="2.061151">
        <ele>1660.461</ele>
        <time>2019-05-29T12:56:09Z</time>
      </trkpt>
      <trkpt lat="42.536560" lon="2.061003">
        <ele>1661.417</ele>
        <time>2019-05-29T12:56:19Z</time>
      </trkpt>
      <trkpt lat="42.536631" lon="2.060939">
        <ele>1661.808</ele>
        <time>2019-05-29T12:56:24Z</time>
      </trkpt>
      <trkpt lat="42.536660" lon="2.060908">
        <ele>1662.497</ele>
        <time>2019-05-29T12:56:26Z</time>
      </trkpt>
      <trkpt lat="42.536725" lon="2.060830">
        <ele>1662.461</ele>
        <time>2019-05-29T12:56:31Z</time>
      </trkpt>
      <trkpt lat="42.536804" lon="2.060731">
        <ele>1662.887</ele>
        <time>2019-05-29T12:56:37Z</time>
      </trkpt>
      <trkpt lat="42.536818" lon="2.060713">
        <ele>1663.055</ele>
        <time>2019-05-29T12:56:38Z</time>
      </trkpt>
      <trkpt lat="42.536924" lon="2.060566">
        <ele>1662.088</ele>
        <time>2019-05-29T12:56:46Z</time>
      </trkpt>
      <trkpt lat="42.537027" lon="2.060428">
        <ele>1662.848</ele>
        <time>2019-05-29T12:56:54Z</time>
      </trkpt>
      <trkpt lat="42.537108" lon="2.060297">
        <ele>1663.290</ele>
        <time>2019-05-29T12:57:01Z</time>
      </trkpt>
      <trkpt lat="42.537153" lon="2.060228">
        <ele>1664.425</ele>
        <time>2019-05-29T12:57:04Z</time>
      </trkpt>
      <trkpt lat="42.537165" lon="2.060206">
        <ele>1664.849</ele>
        <time>2019-05-29T12:57:05Z</time>
      </trkpt>
      <trkpt lat="42.537229" lon="2.060122">
        <ele>1665.002</ele>
        <time>2019-05-29T12:57:09Z</time>
      </trkpt>
      <trkpt lat="42.537362" lon="2.059908">
        <ele>1664.022</ele>
        <time>2019-05-29T12:57:17Z</time>
      </trkpt>
      <trkpt lat="42.537413" lon="2.059807">
        <ele>1665.608</ele>
        <time>2019-05-29T12:57:21Z</time>
      </trkpt>
      <trkpt lat="42.537453" lon="2.059729">
        <ele>1665.877</ele>
        <time>2019-05-29T12:57:24Z</time>
      </trkpt>
      <trkpt lat="42.537488" lon="2.059666">
        <ele>1664.221</ele>
        <time>2019-05-29T12:57:27Z</time>
      </trkpt>
      <trkpt lat="42.537519" lon="2.059596">
        <ele>1665.497</ele>
        <time>2019-05-29T12:57:30Z</time>
      </trkpt>
      <trkpt lat="42.537537" lon="2.059552">
        <ele>1666.845</ele>
        <time>2019-05-29T12:57:32Z</time>
      </trkpt>
      <trkpt lat="42.537549" lon="2.059534">
        <ele>1667.018</ele>
        <time>2019-05-29T12:57:33Z</time>
      </trkpt>
      <trkpt lat="42.537612" lon="2.059384">
        <ele>1666.078</ele>
        <time>2019-05-29T12:57:40Z</time>
      </trkpt>
      <trkpt lat="42.537710" lon="2.059184">
        <ele>1667.890</ele>
        <time>2019-05-29T12:57:50Z</time>
      </trkpt>
      <trkpt lat="42.537773" lon="2.059032">
        <ele>1668.855</ele>
        <time>2019-05-29T12:57:57Z</time>
      </trkpt>
      <trkpt lat="42.537791" lon="2.058989">
        <ele>1668.828</ele>
        <time>2019-05-29T12:57:59Z</time>
      </trkpt>
      <trkpt lat="42.537833" lon="2.058885">
        <ele>1669.689</ele>
        <time>2019-05-29T12:58:04Z</time>
      </trkpt>
      <trkpt lat="42.537901" lon="2.058732">
        <ele>1669.617</ele>
        <time>2019-05-29T12:58:11Z</time>
      </trkpt>
      <trkpt lat="42.537910" lon="2.058713">
        <ele>1669.808</ele>
        <time>2019-05-29T12:58:12Z</time>
      </trkpt>
      <trkpt lat="42.537986" lon="2.058562">
        <ele>1670.075</ele>
        <time>2019-05-29T12:58:19Z</time>
      </trkpt>
      <trkpt lat="42.538074" lon="2.058434">
        <ele>1670.259</ele>
        <time>2019-05-29T12:58:26Z</time>
      </trkpt>
      <trkpt lat="42.538119" lon="2.058386">
        <ele>1671.225</ele>
        <time>2019-05-29T12:58:29Z</time>
      </trkpt>
      <trkpt lat="42.538175" lon="2.058316">
        <ele>1671.613</ele>
        <time>2019-05-29T12:58:33Z</time>
      </trkpt>
      <trkpt lat="42.538246" lon="2.058184">
        <ele>1671.666</ele>
        <time>2019-05-29T12:58:40Z</time>
      </trkpt>
      <trkpt lat="42.538305" lon="2.058032">
        <ele>1672.496</ele>
        <time>2019-05-29T12:58:47Z</time>
      </trkpt>
      <trkpt lat="42.538363" lon="2.057895">
        <ele>1671.068</ele>
        <time>2019-05-29T12:58:53Z</time>
      </trkpt>
      <trkpt lat="42.538382" lon="2.057847">
        <ele>1669.883</ele>
        <time>2019-05-29T12:58:55Z</time>
      </trkpt>
      <trkpt lat="42.538429" lon="2.057733">
        <ele>1671.067</ele>
        <time>2019-05-29T12:59:00Z</time>
      </trkpt>
      <trkpt lat="42.538451" lon="2.057682">
        <ele>1672.081</ele>
        <time>2019-05-29T12:59:02Z</time>
      </trkpt>
      <trkpt lat="42.538464" lon="2.057656">
        <ele>1671.819</ele>
        <time>2019-05-29T12:59:03Z</time>
      </trkpt>
      <trkpt lat="42.538575" lon="2.057436">
        <ele>1672.408</ele>
        <time>2019-05-29T12:59:12Z</time>
      </trkpt>
      <trkpt lat="42.538661" lon="2.057257">
        <ele>1673.089</ele>
        <time>2019-05-29T12:59:19Z</time>
      </trkpt>
      <trkpt lat="42.538673" lon="2.057235">
        <ele>1673.623</ele>
        <time>2019-05-29T12:59:20Z</time>
      </trkpt>
      <trkpt lat="42.538809" lon="2.057035">
        <ele>1673.819</ele>
        <time>2019-05-29T12:59:29Z</time>
      </trkpt>
      <trkpt lat="42.538852" lon="2.056972">
        <ele>1674.267</ele>
        <time>2019-05-29T12:59:32Z</time>
      </trkpt>
      <trkpt lat="42.538896" lon="2.056899">
        <ele>1674.290</ele>
        <time>2019-05-29T12:59:35Z</time>
      </trkpt>
      <trkpt lat="42.539003" lon="2.056714">
        <ele>1673.410</ele>
        <time>2019-05-29T12:59:43Z</time>
      </trkpt>
      <trkpt lat="42.539073" lon="2.056612">
        <ele>1675.452</ele>
        <time>2019-05-29T12:59:48Z</time>
      </trkpt>
      <trkpt lat="42.539126" lon="2.056554">
        <ele>1674.447</ele>
        <time>2019-05-29T12:59:51Z</time>
      </trkpt>
      <trkpt lat="42.539145" lon="2.056536">
        <ele>1674.261</ele>
        <time>2019-05-29T12:59:52Z</time>
      </trkpt>
      <trkpt lat="42.539220" lon="2.056471">
        <ele>1675.421</ele>
        <time>2019-05-29T12:59:56Z</time>
      </trkpt>
      <trkpt lat="42.539280" lon="2.056425">
        <ele>1675.213</ele>
        <time>2019-05-29T12:59:59Z</time>
      </trkpt>
      <trkpt lat="42.539413" lon="2.056291">
        <ele>1676.608</ele>
        <time>2019-05-29T13:00:05Z</time>
      </trkpt>
      <trkpt lat="42.539577" lon="2.056137">
        <ele>1676.279</ele>
        <time>2019-05-29T13:00:12Z</time>
      </trkpt>
      <trkpt lat="42.539727" lon="2.055958">
        <ele>1677.293</ele>
        <time>2019-05-29T13:00:20Z</time>
      </trkpt>
      <trkpt lat="42.539793" lon="2.055856">
        <ele>1677.689</ele>
        <time>2019-05-29T13:00:24Z</time>
      </trkpt>
      <trkpt lat="42.539840" lon="2.055772">
        <ele>1677.657</ele>
        <time>2019-05-29T13:00:27Z</time>
      </trkpt>
      <trkpt lat="42.539943" lon="2.055584">
        <ele>1678.030</ele>
        <time>2019-05-29T13:00:34Z</time>
      </trkpt>
      <trkpt lat="42.540073" lon="2.055298">
        <ele>1678.440</ele>
        <time>2019-05-29T13:00:44Z</time>
      </trkpt>
      <trkpt lat="42.540083" lon="2.055268">
        <ele>1678.822</ele>
        <time>2019-05-29T13:00:45Z</time>
      </trkpt>
      <trkpt lat="42.540121" lon="2.055120">
        <ele>1679.837</ele>
        <time>2019-05-29T13:00:50Z</time>
      </trkpt>
      <trkpt lat="42.540145" lon="2.054959">
        <ele>1681.046</ele>
        <time>2019-05-29T13:00:55Z</time>
      </trkpt>
      <trkpt lat="42.540166" lon="2.054837">
        <ele>1681.088</ele>
        <time>2019-05-29T13:00:59Z</time>
      </trkpt>
      <trkpt lat="42.540235" lon="2.054662">
        <ele>1681.416</ele>
        <time>2019-05-29T13:01:05Z</time>
      </trkpt>
      <trkpt lat="42.540317" lon="2.054582">
        <ele>1680.008</ele>
        <time>2019-05-29T13:01:09Z</time>
      </trkpt>
      <trkpt lat="42.540360" lon="2.054554">
        <ele>1680.867</ele>
        <time>2019-05-29T13:01:11Z</time>
      </trkpt>
      <trkpt lat="42.540386" lon="2.054547">
        <ele>1682.021</ele>
        <time>2019-05-29T13:01:12Z</time>
      </trkpt>
      <trkpt lat="42.540471" lon="2.054536">
        <ele>1680.897</ele>
        <time>2019-05-29T13:01:15Z</time>
      </trkpt>
      <trkpt lat="42.540534" lon="2.054541">
        <ele>1681.275</ele>
        <time>2019-05-29T13:01:17Z</time>
      </trkpt>
      <trkpt lat="42.540755" lon="2.054595">
        <ele>1682.038</ele>
        <time>2019-05-29T13:01:25Z</time>
      </trkpt>
      <trkpt lat="42.540963" lon="2.054637">
        <ele>1682.258</ele>
        <time>2019-05-29T13:01:32Z</time>
      </trkpt>
      <trkpt lat="42.541184" lon="2.054569">
        <ele>1681.840</ele>
        <time>2019-05-29T13:01:38Z</time>
      </trkpt>
      <trkpt lat="42.541401" lon="2.054495">
        <ele>1681.645</ele>
        <time>2019-05-29T13:01:44Z</time>
      </trkpt>
      <trkpt lat="42.541656" lon="2.054400">
        <ele>1682.663</ele>
        <time>2019-05-29T13:01:52Z</time>
      </trkpt>
      <trkpt lat="42.541776" lon="2.054341">
        <ele>1683.044</ele>
        <time>2019-05-29T13:01:56Z</time>
      </trkpt>
      <trkpt lat="42.541870" lon="2.054284">
        <ele>1683.418</ele>
        <time>2019-05-29T13:01:59Z</time>
      </trkpt>
      <trkpt lat="42.542063" lon="2.054094">
        <ele>1683.408</ele>
        <time>2019-05-29T13:02:06Z</time>
      </trkpt>
      <trkpt lat="42.542169" lon="2.053852">
        <ele>1683.279</ele>
        <time>2019-05-29T13:02:12Z</time>
      </trkpt>
      <trkpt lat="42.542253" lon="2.053579">
        <ele>1683.293</ele>
        <time>2019-05-29T13:02:19Z</time>
      </trkpt>
      <trkpt lat="42.542302" lon="2.053284">
        <ele>1683.679</ele>
        <time>2019-05-29T13:02:26Z</time>
      </trkpt>
      <trkpt lat="42.542334" lon="2.053127">
        <ele>1684.277</ele>
        <time>2019-05-29T13:02:30Z</time>
      </trkpt>
      <trkpt lat="42.542357" lon="2.052967">
        <ele>1684.830</ele>
        <time>2019-05-29T13:02:34Z</time>
      </trkpt>
      <trkpt lat="42.542410" lon="2.052724">
        <ele>1685.220</ele>
        <time>2019-05-29T13:02:40Z</time>
      </trkpt>
      <trkpt lat="42.542441" lon="2.052595">
        <ele>1685.682</ele>
        <time>2019-05-29T13:02:43Z</time>
      </trkpt>
      <trkpt lat="42.542502" lon="2.052399">
        <ele>1684.437</ele>
        <time>2019-05-29T13:02:48Z</time>
      </trkpt>
      <trkpt lat="42.542534" lon="2.052259">
        <ele>1684.236</ele>
        <time>2019-05-29T13:02:51Z</time>
      </trkpt>
      <trkpt lat="42.542557" lon="2.052180">
        <ele>1683.617</ele>
        <time>2019-05-29T13:02:53Z</time>
      </trkpt>
      <trkpt lat="42.542648" lon="2.051906">
        <ele>1683.418</ele>
        <time>2019-05-29T13:03:00Z</time>
      </trkpt>
      <trkpt lat="42.542740" lon="2.051566">
        <ele>1684.008</ele>
        <time>2019-05-29T13:03:08Z</time>
      </trkpt>
      <trkpt lat="42.542794" lon="2.051138">
        <ele>1684.476</ele>
        <time>2019-05-29T13:03:17Z</time>
      </trkpt>
      <trkpt lat="42.542881" lon="2.050873">
        <ele>1683.840</ele>
        <time>2019-05-29T13:03:23Z</time>
      </trkpt>
      <trkpt lat="42.543031" lon="2.050463">
        <ele>1683.886</ele>
        <time>2019-05-29T13:03:32Z</time>
      </trkpt>
      <trkpt lat="42.543176" lon="2.050058">
        <ele>1684.654</ele>
        <time>2019-05-29T13:03:40Z</time>
      </trkpt>
      <trkpt lat="42.543329" lon="2.049598">
        <ele>1683.627</ele>
        <time>2019-05-29T13:03:49Z</time>
      </trkpt>
      <trkpt lat="42.543412" lon="2.049119">
        <ele>1684.227</ele>
        <time>2019-05-29T13:03:58Z</time>
      </trkpt>
      <trkpt lat="42.543506" lon="2.048815">
        <ele>1684.279</ele>
        <time>2019-05-29T13:04:05Z</time>
      </trkpt>
      <trkpt lat="42.543664" lon="2.048418">
        <ele>1684.634</ele>
        <time>2019-05-29T13:04:15Z</time>
      </trkpt>
      <trkpt lat="42.543797" lon="2.048077">
        <ele>1684.437</ele>
        <time>2019-05-29T13:04:24Z</time>
      </trkpt>
      <trkpt lat="42.543864" lon="2.047900">
        <ele>1685.249</ele>
        <time>2019-05-29T13:04:29Z</time>
      </trkpt>
      <trkpt lat="42.543915" lon="2.047764">
        <ele>1686.213</ele>
        <time>2019-05-29T13:04:33Z</time>
      </trkpt>
      <trkpt lat="42.543936" lon="2.047697">
        <ele>1686.808</ele>
        <time>2019-05-29T13:04:35Z</time>
      </trkpt>
      <trkpt lat="42.543960" lon="2.047501">
        <ele>1687.476</ele>
        <time>2019-05-29T13:04:42Z</time>
      </trkpt>
      <trkpt lat="42.543967" lon="2.047437">
        <ele>1687.210</ele>
        <time>2019-05-29T13:04:44Z</time>
      </trkpt>
      <trkpt lat="42.544011" lon="2.047237">
        <ele>1688.646</ele>
        <time>2019-05-29T13:04:51Z</time>
      </trkpt>
      <trkpt lat="42.544034" lon="2.047165">
        <ele>1689.054</ele>
        <time>2019-05-29T13:04:54Z</time>
      </trkpt>
      <trkpt lat="42.544099" lon="2.047005">
        <ele>1689.867</ele>
        <time>2019-05-29T13:05:00Z</time>
      </trkpt>
      <trkpt lat="42.544129" lon="2.046915">
        <ele>1690.457</ele>
        <time>2019-05-29T13:05:03Z</time>
      </trkpt>
      <trkpt lat="42.544185" lon="2.046780">
        <ele>1691.049</ele>
        <time>2019-05-29T13:05:08Z</time>
      </trkpt>
      <trkpt lat="42.544230" lon="2.046666">
        <ele>1692.444</ele>
        <time>2019-05-29T13:05:12Z</time>
      </trkpt>
      <trkpt lat="42.544321" lon="2.046438">
        <ele>1693.441</ele>
        <time>2019-05-29T13:05:20Z</time>
      </trkpt>
      <trkpt lat="42.544343" lon="2.046378">
        <ele>1694.281</ele>
        <time>2019-05-29T13:05:22Z</time>
      </trkpt>
      <trkpt lat="42.544362" lon="2.046320">
        <ele>1694.409</ele>
        <time>2019-05-29T13:05:24Z</time>
      </trkpt>
      <trkpt lat="42.544432" lon="2.046147">
        <ele>1695.408</ele>
        <time>2019-05-29T13:05:31Z</time>
      </trkpt>
      <trkpt lat="42.544499" lon="2.045969">
        <ele>1696.467</ele>
        <time>2019-05-29T13:05:38Z</time>
      </trkpt>
      <trkpt lat="42.544509" lon="2.045945">
        <ele>1696.661</ele>
        <time>2019-05-29T13:05:39Z</time>
      </trkpt>
      <trkpt lat="42.544581" lon="2.045769">
        <ele>1697.697</ele>
        <time>2019-05-29T13:05:46Z</time>
      </trkpt>
      <trkpt lat="42.544612" lon="2.045662">
        <ele>1698.615</ele>
        <time>2019-05-29T13:05:50Z</time>
      </trkpt>
      <trkpt lat="42.544639" lon="2.045587">
        <ele>1698.468</ele>
        <time>2019-05-29T13:05:53Z</time>
      </trkpt>
      <trkpt lat="42.544682" lon="2.045418">
        <ele>1699.438</ele>
        <time>2019-05-29T13:05:59Z</time>
      </trkpt>
      <trkpt lat="42.544758" lon="2.045214">
        <ele>1699.280</ele>
        <time>2019-05-29T13:06:05Z</time>
      </trkpt>
      <trkpt lat="42.544882" lon="2.044952">
        <ele>1698.085</ele>
        <time>2019-05-29T13:06:11Z</time>
      </trkpt>
      <trkpt lat="42.544934" lon="2.044867">
        <ele>1697.674</ele>
        <time>2019-05-29T13:06:13Z</time>
      </trkpt>
      <trkpt lat="42.545010" lon="2.044729">
        <ele>1697.256</ele>
        <time>2019-05-29T13:06:16Z</time>
      </trkpt>
      <trkpt lat="42.545036" lon="2.044681">
        <ele>1697.221</ele>
        <time>2019-05-29T13:06:17Z</time>
      </trkpt>
      <trkpt lat="42.545162" lon="2.044490">
        <ele>1696.408</ele>
        <time>2019-05-29T13:06:21Z</time>
      </trkpt>
      <trkpt lat="42.545226" lon="2.044397">
        <ele>1695.690</ele>
        <time>2019-05-29T13:06:23Z</time>
      </trkpt>
      <trkpt lat="42.545261" lon="2.044356">
        <ele>1695.224</ele>
        <time>2019-05-29T13:06:24Z</time>
      </trkpt>
      <trkpt lat="42.545357" lon="2.044223">
        <ele>1694.660</ele>
        <time>2019-05-29T13:06:27Z</time>
      </trkpt>
      <trkpt lat="42.545409" lon="2.044110">
        <ele>1694.488</ele>
        <time>2019-05-29T13:06:29Z</time>
      </trkpt>
      <trkpt lat="42.545442" lon="2.044060">
        <ele>1694.211</ele>
        <time>2019-05-29T13:06:30Z</time>
      </trkpt>
      <trkpt lat="42.545552" lon="2.043911">
        <ele>1693.231</ele>
        <time>2019-05-29T13:06:33Z</time>
      </trkpt>
      <trkpt lat="42.545756" lon="2.043580">
        <ele>1692.013</ele>
        <time>2019-05-29T13:06:39Z</time>
      </trkpt>
      <trkpt lat="42.545819" lon="2.043476">
        <ele>1691.448</ele>
        <time>2019-05-29T13:06:41Z</time>
      </trkpt>
      <trkpt lat="42.545851" lon="2.043425">
        <ele>1690.832</ele>
        <time>2019-05-29T13:06:42Z</time>
      </trkpt>
      <trkpt lat="42.546010" lon="2.043063">
        <ele>1691.692</ele>
        <time>2019-05-29T13:06:48Z</time>
      </trkpt>
      <trkpt lat="42.546183" lon="2.042591">
        <ele>1690.211</ele>
        <time>2019-05-29T13:06:54Z</time>
      </trkpt>
      <trkpt lat="42.546317" lon="2.042205">
        <ele>1689.808</ele>
        <time>2019-05-29T13:06:59Z</time>
      </trkpt>
      <trkpt lat="42.546328" lon="2.042129">
        <ele>1690.066</ele>
        <time>2019-05-29T13:07:00Z</time>
      </trkpt>
      <trkpt lat="42.546367" lon="2.041706">
        <ele>1691.030</ele>
        <time>2019-05-29T13:07:06Z</time>
      </trkpt>
      <trkpt lat="42.546346" lon="2.041463">
        <ele>1691.686</ele>
        <time>2019-05-29T13:07:11Z</time>
      </trkpt>
      <trkpt lat="42.546344" lon="2.041390">
        <ele>1691.874</ele>
        <time>2019-05-29T13:07:13Z</time>
      </trkpt>
      <trkpt lat="42.546352" lon="2.041217">
        <ele>1692.037</ele>
        <time>2019-05-29T13:07:18Z</time>
      </trkpt>
      <trkpt lat="42.546366" lon="2.041059">
        <ele>1693.067</ele>
        <time>2019-05-29T13:07:23Z</time>
      </trkpt>
      <trkpt lat="42.546375" lon="2.040968">
        <ele>1693.629</ele>
        <time>2019-05-29T13:07:26Z</time>
      </trkpt>
      <trkpt lat="42.546390" lon="2.040734">
        <ele>1693.884</ele>
        <time>2019-05-29T13:07:34Z</time>
      </trkpt>
      <trkpt lat="42.546393" lon="2.040622">
        <ele>1694.285</ele>
        <time>2019-05-29T13:07:38Z</time>
      </trkpt>
      <trkpt lat="42.546395" lon="2.040540">
        <ele>1695.889</ele>
        <time>2019-05-29T13:07:41Z</time>
      </trkpt>
      <trkpt lat="42.546394" lon="2.040512">
        <ele>1696.417</ele>
        <time>2019-05-29T13:07:42Z</time>
      </trkpt>
      <trkpt lat="42.546382" lon="2.040457">
        <ele>1697.008</ele>
        <time>2019-05-29T13:07:44Z</time>
      </trkpt>
      <trkpt lat="42.546345" lon="2.040359">
        <ele>1697.691</ele>
        <time>2019-05-29T13:07:49Z</time>
      </trkpt>
      <trkpt lat="42.546408" lon="2.040308">
        <ele>1698.075</ele>
        <time>2019-05-29T13:13:45Z</time>
      </trkpt>
      <trkpt lat="42.546502" lon="2.040252">
        <ele>1698.041</ele>
        <time>2019-05-29T13:13:50Z</time>
      </trkpt>
      <trkpt lat="42.546566" lon="2.040156">
        <ele>1696.659</ele>
        <time>2019-05-29T13:13:55Z</time>
      </trkpt>
      <trkpt lat="42.546604" lon="2.040095">
        <ele>1698.042</ele>
        <time>2019-05-29T13:13:58Z</time>
      </trkpt>
      <trkpt lat="42.546680" lon="2.039994">
        <ele>1695.882</ele>
        <time>2019-05-29T13:14:03Z</time>
      </trkpt>
      <trkpt lat="42.546691" lon="2.039969">
        <ele>1697.214</ele>
        <time>2019-05-29T13:14:04Z</time>
      </trkpt>
      <trkpt lat="42.546712" lon="2.039910">
        <ele>1699.489</ele>
        <time>2019-05-29T13:14:06Z</time>
      </trkpt>
      <trkpt lat="42.546761" lon="2.039837">
        <ele>1699.414</ele>
        <time>2019-05-29T13:14:09Z</time>
      </trkpt>
      <trkpt lat="42.546793" lon="2.039793">
        <ele>1699.654</ele>
        <time>2019-05-29T13:14:11Z</time>
      </trkpt>
      <trkpt lat="42.546876" lon="2.039698">
        <ele>1700.209</ele>
        <time>2019-05-29T13:14:16Z</time>
      </trkpt>
      <trkpt lat="42.546975" lon="2.039592">
        <ele>1699.408</ele>
        <time>2019-05-29T13:14:22Z</time>
      </trkpt>
      <trkpt lat="42.547033" lon="2.039542">
        <ele>1701.284</ele>
        <time>2019-05-29T13:14:25Z</time>
      </trkpt>
      <trkpt lat="42.547071" lon="2.039507">
        <ele>1703.858</ele>
        <time>2019-05-29T13:14:27Z</time>
      </trkpt>
      <trkpt lat="42.547110" lon="2.039479">
        <ele>1702.674</ele>
        <time>2019-05-29T13:14:29Z</time>
      </trkpt>
      <trkpt lat="42.547144" lon="2.039438">
        <ele>1700.652</ele>
        <time>2019-05-29T13:14:31Z</time>
      </trkpt>
      <trkpt lat="42.547197" lon="2.039398">
        <ele>1702.835</ele>
        <time>2019-05-29T13:14:34Z</time>
      </trkpt>
      <trkpt lat="42.547222" lon="2.039385">
        <ele>1703.645</ele>
        <time>2019-05-29T13:14:35Z</time>
      </trkpt>
      <trkpt lat="42.547248" lon="2.039370">
        <ele>1704.477</ele>
        <time>2019-05-29T13:14:36Z</time>
      </trkpt>
      <trkpt lat="42.547312" lon="2.039322">
        <ele>1703.022</ele>
        <time>2019-05-29T13:14:39Z</time>
      </trkpt>
      <trkpt lat="42.547365" lon="2.039267">
        <ele>1703.228</ele>
        <time>2019-05-29T13:14:42Z</time>
      </trkpt>
      <trkpt lat="42.547484" lon="2.039193">
        <ele>1703.889</ele>
        <time>2019-05-29T13:14:48Z</time>
      </trkpt>
      <trkpt lat="42.547503" lon="2.039179">
        <ele>1704.217</ele>
        <time>2019-05-29T13:14:49Z</time>
      </trkpt>
      <trkpt lat="42.547556" lon="2.039130">
        <ele>1705.608</ele>
        <time>2019-05-29T13:14:52Z</time>
      </trkpt>
      <trkpt lat="42.547602" lon="2.039081">
        <ele>1705.225</ele>
        <time>2019-05-29T13:14:55Z</time>
      </trkpt>
      <trkpt lat="42.547705" lon="2.038994">
        <ele>1706.419</ele>
        <time>2019-05-29T13:15:02Z</time>
      </trkpt>
      <trkpt lat="42.547716" lon="2.038981">
        <ele>1706.855</ele>
        <time>2019-05-29T13:15:03Z</time>
      </trkpt>
      <trkpt lat="42.547755" lon="2.038887">
        <ele>1707.273</ele>
        <time>2019-05-29T13:15:08Z</time>
      </trkpt>
      <trkpt lat="42.547787" lon="2.038782">
        <ele>1707.886</ele>
        <time>2019-05-29T13:15:13Z</time>
      </trkpt>
      <trkpt lat="42.547783" lon="2.038749">
        <ele>1708.086</ele>
        <time>2019-05-29T13:15:14Z</time>
      </trkpt>
      <trkpt lat="42.547782" lon="2.038720">
        <ele>1708.218</ele>
        <time>2019-05-29T13:15:15Z</time>
      </trkpt>
      <trkpt lat="42.547789" lon="2.038655">
        <ele>1708.833</ele>
        <time>2019-05-29T13:15:18Z</time>
      </trkpt>
      <trkpt lat="42.547796" lon="2.038638">
        <ele>1709.059</ele>
        <time>2019-05-29T13:15:19Z</time>
      </trkpt>
      <trkpt lat="42.547813" lon="2.038568">
        <ele>1709.203</ele>
        <time>2019-05-29T13:15:23Z</time>
      </trkpt>
      <trkpt lat="42.547832" lon="2.038434">
        <ele>1709.623</ele>
        <time>2019-05-29T13:15:30Z</time>
      </trkpt>
      <trkpt lat="42.547868" lon="2.038304">
        <ele>1709.608</ele>
        <time>2019-05-29T13:15:37Z</time>
      </trkpt>
      <trkpt lat="42.547870" lon="2.038286">
        <ele>1710.018</ele>
        <time>2019-05-29T13:15:38Z</time>
      </trkpt>
      <trkpt lat="42.547906" lon="2.038148">
        <ele>1710.482</ele>
        <time>2019-05-29T13:15:45Z</time>
      </trkpt>
      <trkpt lat="42.547918" lon="2.038099">
        <ele>1711.238</ele>
        <time>2019-05-29T13:15:47Z</time>
      </trkpt>
      <trkpt lat="42.547939" lon="2.038048">
        <ele>1712.416</ele>
        <time>2019-05-29T13:15:50Z</time>
      </trkpt>
      <trkpt lat="42.547960" lon="2.038018">
        <ele>1713.629</ele>
        <time>2019-05-29T13:15:52Z</time>
      </trkpt>
      <trkpt lat="42.547984" lon="2.037985">
        <ele>1713.889</ele>
        <time>2019-05-29T13:15:54Z</time>
      </trkpt>
      <trkpt lat="42.548024" lon="2.037929">
        <ele>1712.431</ele>
        <time>2019-05-29T13:15:58Z</time>
      </trkpt>
      <trkpt lat="42.548056" lon="2.037893">
        <ele>1714.656</ele>
        <time>2019-05-29T13:16:01Z</time>
      </trkpt>
      <trkpt lat="42.548101" lon="2.037886">
        <ele>1712.413</ele>
        <time>2019-05-29T13:16:04Z</time>
      </trkpt>
      <trkpt lat="42.548126" lon="2.037869">
        <ele>1714.443</ele>
        <time>2019-05-29T13:16:06Z</time>
      </trkpt>
      <trkpt lat="42.548137" lon="2.037863">
        <ele>1715.607</ele>
        <time>2019-05-29T13:16:07Z</time>
      </trkpt>
      <trkpt lat="42.548146" lon="2.037853">
        <ele>1717.408</ele>
        <time>2019-05-29T13:16:08Z</time>
      </trkpt>
      <trkpt lat="42.548184" lon="2.037833">
        <ele>1716.234</ele>
        <time>2019-05-29T13:16:11Z</time>
      </trkpt>
      <trkpt lat="42.548226" lon="2.037811">
        <ele>1716.248</ele>
        <time>2019-05-29T13:16:14Z</time>
      </trkpt>
      <trkpt lat="42.548253" lon="2.037792">
        <ele>1716.264</ele>
        <time>2019-05-29T13:16:16Z</time>
      </trkpt>
      <trkpt lat="42.548301" lon="2.037759">
        <ele>1716.892</ele>
        <time>2019-05-29T13:16:19Z</time>
      </trkpt>
      <trkpt lat="42.548339" lon="2.037724">
        <ele>1717.235</ele>
        <time>2019-05-29T13:16:22Z</time>
      </trkpt>
      <trkpt lat="42.548394" lon="2.037666">
        <ele>1717.695</ele>
        <time>2019-05-29T13:16:27Z</time>
      </trkpt>
      <trkpt lat="42.548433" lon="2.037625">
        <ele>1718.467</ele>
        <time>2019-05-29T13:16:31Z</time>
      </trkpt>
      <trkpt lat="42.548467" lon="2.037589">
        <ele>1718.692</ele>
        <time>2019-05-29T13:16:34Z</time>
      </trkpt>
      <trkpt lat="42.548495" lon="2.037550">
        <ele>1719.669</ele>
        <time>2019-05-29T13:16:37Z</time>
      </trkpt>
      <trkpt lat="42.548517" lon="2.037532">
        <ele>1720.804</ele>
        <time>2019-05-29T13:16:39Z</time>
      </trkpt>
      <trkpt lat="42.548551" lon="2.037505">
        <ele>1721.624</ele>
        <time>2019-05-29T13:16:42Z</time>
      </trkpt>
      <trkpt lat="42.548573" lon="2.037491">
        <ele>1721.808</ele>
        <time>2019-05-29T13:16:44Z</time>
      </trkpt>
      <trkpt lat="42.548597" lon="2.037470">
        <ele>1721.889</ele>
        <time>2019-05-29T13:16:46Z</time>
      </trkpt>
      <trkpt lat="42.548619" lon="2.037448">
        <ele>1722.033</ele>
        <time>2019-05-29T13:16:48Z</time>
      </trkpt>
      <trkpt lat="42.548662" lon="2.037417">
        <ele>1722.089</ele>
        <time>2019-05-29T13:16:51Z</time>
      </trkpt>
      <trkpt lat="42.548703" lon="2.037381">
        <ele>1722.297</ele>
        <time>2019-05-29T13:16:55Z</time>
      </trkpt>
      <trkpt lat="42.548775" lon="2.037338">
        <ele>1722.830</ele>
        <time>2019-05-29T13:17:01Z</time>
      </trkpt>
      <trkpt lat="42.548786" lon="2.037333">
        <ele>1723.220</ele>
        <time>2019-05-29T13:17:02Z</time>
      </trkpt>
      <trkpt lat="42.548813" lon="2.037327">
        <ele>1723.832</ele>
        <time>2019-05-29T13:17:04Z</time>
      </trkpt>
      <trkpt lat="42.548829" lon="2.037324">
        <ele>1724.097</ele>
        <time>2019-05-29T13:17:05Z</time>
      </trkpt>
      <trkpt lat="42.548864" lon="2.037315">
        <ele>1724.444</ele>
        <time>2019-05-29T13:17:08Z</time>
      </trkpt>
      <trkpt lat="42.548871" lon="2.037309">
        <ele>1724.405</ele>
        <time>2019-05-29T13:17:09Z</time>
      </trkpt>
      <trkpt lat="42.548922" lon="2.037288">
        <ele>1725.015</ele>
        <time>2019-05-29T13:17:13Z</time>
      </trkpt>
      <trkpt lat="42.548938" lon="2.037281">
        <ele>1725.208</ele>
        <time>2019-05-29T13:17:14Z</time>
      </trkpt>
      <trkpt lat="42.548981" lon="2.037261">
        <ele>1725.817</ele>
        <time>2019-05-29T13:17:17Z</time>
      </trkpt>
      <trkpt lat="42.549005" lon="2.037244">
        <ele>1726.251</ele>
        <time>2019-05-29T13:17:19Z</time>
      </trkpt>
      <trkpt lat="42.549018" lon="2.037236">
        <ele>1726.417</ele>
        <time>2019-05-29T13:17:20Z</time>
      </trkpt>
      <trkpt lat="42.549028" lon="2.037230">
        <ele>1726.655</ele>
        <time>2019-05-29T13:17:21Z</time>
      </trkpt>
      <trkpt lat="42.549092" lon="2.037174">
        <ele>1727.288</ele>
        <time>2019-05-29T13:17:26Z</time>
      </trkpt>
      <trkpt lat="42.549124" lon="2.037123">
        <ele>1727.868</ele>
        <time>2019-05-29T13:17:30Z</time>
      </trkpt>
      <trkpt lat="42.549124" lon="2.037007">
        <ele>1728.430</ele>
        <time>2019-05-29T13:17:36Z</time>
      </trkpt>
      <trkpt lat="42.549120" lon="2.036992">
        <ele>1728.695</ele>
        <time>2019-05-29T13:17:37Z</time>
      </trkpt>
      <trkpt lat="42.549092" lon="2.036871">
        <ele>1729.678</ele>
        <time>2019-05-29T13:17:45Z</time>
      </trkpt>
      <trkpt lat="42.549047" lon="2.036782">
        <ele>1730.833</ele>
        <time>2019-05-29T13:17:50Z</time>
      </trkpt>
      <trkpt lat="42.549038" lon="2.036770">
        <ele>1730.826</ele>
        <time>2019-05-29T13:17:51Z</time>
      </trkpt>
      <trkpt lat="42.548962" lon="2.036662">
        <ele>1730.808</ele>
        <time>2019-05-29T13:17:59Z</time>
      </trkpt>
      <trkpt lat="42.548936" lon="2.036557">
        <ele>1729.630</ele>
        <time>2019-05-29T13:18:05Z</time>
      </trkpt>
      <trkpt lat="42.548928" lon="2.036518">
        <ele>1729.884</ele>
        <time>2019-05-29T13:18:07Z</time>
      </trkpt>
      <trkpt lat="42.548925" lon="2.036480">
        <ele>1731.690</ele>
        <time>2019-05-29T13:18:09Z</time>
      </trkpt>
      <trkpt lat="42.548928" lon="2.036401">
        <ele>1732.678</ele>
        <time>2019-05-29T13:18:14Z</time>
      </trkpt>
      <trkpt lat="42.548931" lon="2.036385">
        <ele>1732.861</ele>
        <time>2019-05-29T13:18:15Z</time>
      </trkpt>
      <trkpt lat="42.548946" lon="2.036198">
        <ele>1733.681</ele>
        <time>2019-05-29T13:18:25Z</time>
      </trkpt>
      <trkpt lat="42.548947" lon="2.036140">
        <ele>1733.693</ele>
        <time>2019-05-29T13:18:28Z</time>
      </trkpt>
      <trkpt lat="42.548957" lon="2.036026">
        <ele>1734.878</ele>
        <time>2019-05-29T13:18:34Z</time>
      </trkpt>
      <trkpt lat="42.548965" lon="2.035995">
        <ele>1735.095</ele>
        <time>2019-05-29T13:18:36Z</time>
      </trkpt>
      <trkpt lat="42.548999" lon="2.035892">
        <ele>1734.649</ele>
        <time>2019-05-29T13:18:42Z</time>
      </trkpt>
      <trkpt lat="42.549026" lon="2.035824">
        <ele>1734.823</ele>
        <time>2019-05-29T13:18:46Z</time>
      </trkpt>
      <trkpt lat="42.549035" lon="2.035780">
        <ele>1736.008</ele>
        <time>2019-05-29T13:18:48Z</time>
      </trkpt>
      <trkpt lat="42.549046" lon="2.035743">
        <ele>1738.072</ele>
        <time>2019-05-29T13:18:50Z</time>
      </trkpt>
      <trkpt lat="42.549075" lon="2.035655">
        <ele>1737.036</ele>
        <time>2019-05-29T13:18:55Z</time>
      </trkpt>
      <trkpt lat="42.549076" lon="2.035634">
        <ele>1736.642</ele>
        <time>2019-05-29T13:18:56Z</time>
      </trkpt>
      <trkpt lat="42.549099" lon="2.035559">
        <ele>1735.890</ele>
        <time>2019-05-29T13:19:00Z</time>
      </trkpt>
      <trkpt lat="42.549117" lon="2.035500">
        <ele>1736.893</ele>
        <time>2019-05-29T13:19:04Z</time>
      </trkpt>
      <trkpt lat="42.549120" lon="2.035484">
        <ele>1737.243</ele>
        <time>2019-05-29T13:19:05Z</time>
      </trkpt>
      <trkpt lat="42.549136" lon="2.035416">
        <ele>1738.085</ele>
        <time>2019-05-29T13:19:09Z</time>
      </trkpt>
      <trkpt lat="42.549166" lon="2.035348">
        <ele>1738.850</ele>
        <time>2019-05-29T13:19:13Z</time>
      </trkpt>
      <trkpt lat="42.549183" lon="2.035270">
        <ele>1739.293</ele>
        <time>2019-05-29T13:19:17Z</time>
      </trkpt>
      <trkpt lat="42.549206" lon="2.035224">
        <ele>1739.665</ele>
        <time>2019-05-29T13:19:20Z</time>
      </trkpt>
      <trkpt lat="42.549233" lon="2.035161">
        <ele>1740.421</ele>
        <time>2019-05-29T13:19:24Z</time>
      </trkpt>
      <trkpt lat="42.549241" lon="2.035126">
        <ele>1741.408</ele>
        <time>2019-05-29T13:19:26Z</time>
      </trkpt>
      <trkpt lat="42.549254" lon="2.035095">
        <ele>1741.242</ele>
        <time>2019-05-29T13:19:28Z</time>
      </trkpt>
      <trkpt lat="42.549272" lon="2.035065">
        <ele>1739.896</ele>
        <time>2019-05-29T13:19:30Z</time>
      </trkpt>
      <trkpt lat="42.549332" lon="2.034968">
        <ele>1740.482</ele>
        <time>2019-05-29T13:19:36Z</time>
      </trkpt>
      <trkpt lat="42.549345" lon="2.034937">
        <ele>1741.080</ele>
        <time>2019-05-29T13:19:38Z</time>
      </trkpt>
      <trkpt lat="42.549363" lon="2.034907">
        <ele>1742.293</ele>
        <time>2019-05-29T13:19:40Z</time>
      </trkpt>
      <trkpt lat="42.549391" lon="2.034873">
        <ele>1743.433</ele>
        <time>2019-05-29T13:19:43Z</time>
      </trkpt>
      <trkpt lat="42.549439" lon="2.034837">
        <ele>1743.895</ele>
        <time>2019-05-29T13:19:47Z</time>
      </trkpt>
      <trkpt lat="42.549469" lon="2.034841">
        <ele>1743.830</ele>
        <time>2019-05-29T13:19:49Z</time>
      </trkpt>
      <trkpt lat="42.549563" lon="2.034888">
        <ele>1744.215</ele>
        <time>2019-05-29T13:19:56Z</time>
      </trkpt>
      <trkpt lat="42.549573" lon="2.034891">
        <ele>1744.465</ele>
        <time>2019-05-29T13:19:57Z</time>
      </trkpt>
      <trkpt lat="42.549639" lon="2.034973">
        <ele>1745.011</ele>
        <time>2019-05-29T13:20:03Z</time>
      </trkpt>
      <trkpt lat="42.549656" lon="2.035002">
        <ele>1745.408</ele>
        <time>2019-05-29T13:20:05Z</time>
      </trkpt>
      <trkpt lat="42.549673" lon="2.035031">
        <ele>1747.034</ele>
        <time>2019-05-29T13:20:07Z</time>
      </trkpt>
      <trkpt lat="42.549685" lon="2.035084">
        <ele>1747.648</ele>
        <time>2019-05-29T13:20:10Z</time>
      </trkpt>
      <trkpt lat="42.549678" lon="2.035196">
        <ele>1747.294</ele>
        <time>2019-05-29T13:20:16Z</time>
      </trkpt>
      <trkpt lat="42.549674" lon="2.035246">
        <ele>1747.692</ele>
        <time>2019-05-29T13:20:19Z</time>
      </trkpt>
      <trkpt lat="42.549677" lon="2.035270">
        <ele>1747.815</ele>
        <time>2019-05-29T13:20:20Z</time>
      </trkpt>
      <trkpt lat="42.549680" lon="2.035290">
        <ele>1748.055</ele>
        <time>2019-05-29T13:20:21Z</time>
      </trkpt>
      <trkpt lat="42.549683" lon="2.035392">
        <ele>1749.287</ele>
        <time>2019-05-29T13:20:26Z</time>
      </trkpt>
      <trkpt lat="42.549687" lon="2.035408">
        <ele>1749.472</ele>
        <time>2019-05-29T13:20:27Z</time>
      </trkpt>
      <trkpt lat="42.549736" lon="2.035518">
        <ele>1750.086</ele>
        <time>2019-05-29T13:20:35Z</time>
      </trkpt>
      <trkpt lat="42.549755" lon="2.035546">
        <ele>1750.260</ele>
        <time>2019-05-29T13:20:38Z</time>
      </trkpt>
      <trkpt lat="42.550039" lon="2.035738">
        <ele>1753.626</ele>
        <time>2019-05-29T13:21:02Z</time>
      </trkpt>
      <trkpt lat="42.550069" lon="2.035718">
        <ele>1754.008</ele>
        <time>2019-05-29T13:21:05Z</time>
      </trkpt>
      <trkpt lat="42.550095" lon="2.035687">
        <ele>1754.481</ele>
        <time>2019-05-29T13:21:08Z</time>
      </trkpt>
      <trkpt lat="42.550103" lon="2.035678">
        <ele>1754.875</ele>
        <time>2019-05-29T13:21:09Z</time>
      </trkpt>
      <trkpt lat="42.550115" lon="2.035668">
        <ele>1755.071</ele>
        <time>2019-05-29T13:21:10Z</time>
      </trkpt>
      <trkpt lat="42.550119" lon="2.035659">
        <ele>1755.419</ele>
        <time>2019-05-29T13:21:11Z</time>
      </trkpt>
      <trkpt lat="42.550123" lon="2.035626">
        <ele>1755.812</ele>
        <time>2019-05-29T13:21:13Z</time>
      </trkpt>
      <trkpt lat="42.550127" lon="2.035557">
        <ele>1756.032</ele>
        <time>2019-05-29T13:21:17Z</time>
      </trkpt>
      <trkpt lat="42.550144" lon="2.035462">
        <ele>1756.884</ele>
        <time>2019-05-29T13:21:23Z</time>
      </trkpt>
      <trkpt lat="42.550159" lon="2.035412">
        <ele>1757.229</ele>
        <time>2019-05-29T13:21:26Z</time>
      </trkpt>
      <trkpt lat="42.550158" lon="2.035389">
        <ele>1757.693</ele>
        <time>2019-05-29T13:21:27Z</time>
      </trkpt>
      <trkpt lat="42.550159" lon="2.035370">
        <ele>1757.865</ele>
        <time>2019-05-29T13:21:28Z</time>
      </trkpt>
      <trkpt lat="42.550214" lon="2.035265">
        <ele>1758.421</ele>
        <time>2019-05-29T13:21:35Z</time>
      </trkpt>
      <trkpt lat="42.550236" lon="2.035247">
        <ele>1758.608</ele>
        <time>2019-05-29T13:21:37Z</time>
      </trkpt>
      <trkpt lat="42.550275" lon="2.035241">
        <ele>1758.882</ele>
        <time>2019-05-29T13:21:40Z</time>
      </trkpt>
      <trkpt lat="42.550288" lon="2.035244">
        <ele>1759.016</ele>
        <time>2019-05-29T13:21:41Z</time>
      </trkpt>
      <trkpt lat="42.550321" lon="2.035286">
        <ele>1760.292</ele>
        <time>2019-05-29T13:21:45Z</time>
      </trkpt>
      <trkpt lat="42.550335" lon="2.035295">
        <ele>1760.690</ele>
        <time>2019-05-29T13:21:46Z</time>
      </trkpt>
      <trkpt lat="42.550353" lon="2.035318">
        <ele>1761.473</ele>
        <time>2019-05-29T13:21:48Z</time>
      </trkpt>
      <trkpt lat="42.550381" lon="2.035362">
        <ele>1762.453</ele>
        <time>2019-05-29T13:21:52Z</time>
      </trkpt>
      <trkpt lat="42.550387" lon="2.035373">
        <ele>1762.695</ele>
        <time>2019-05-29T13:21:53Z</time>
      </trkpt>
      <trkpt lat="42.550416" lon="2.035431">
        <ele>1762.650</ele>
        <time>2019-05-29T13:21:57Z</time>
      </trkpt>
      <trkpt lat="42.550433" lon="2.035489">
        <ele>1762.811</ele>
        <time>2019-05-29T13:22:01Z</time>
      </trkpt>
      <trkpt lat="42.550439" lon="2.035504">
        <ele>1762.821</ele>
        <time>2019-05-29T13:22:02Z</time>
      </trkpt>
      <trkpt lat="42.550481" lon="2.035624">
        <ele>1763.203</ele>
        <time>2019-05-29T13:22:10Z</time>
      </trkpt>
      <trkpt lat="42.550485" lon="2.035638">
        <ele>1763.408</ele>
        <time>2019-05-29T13:22:11Z</time>
      </trkpt>
      <trkpt lat="42.550493" lon="2.035650">
        <ele>1763.644</ele>
        <time>2019-05-29T13:22:12Z</time>
      </trkpt>
      <trkpt lat="42.550500" lon="2.035697">
        <ele>1763.888</ele>
        <time>2019-05-29T13:22:15Z</time>
      </trkpt>
      <trkpt lat="42.550518" lon="2.035759">
        <ele>1764.664</ele>
        <time>2019-05-29T13:22:19Z</time>
      </trkpt>
      <trkpt lat="42.550532" lon="2.035787">
        <ele>1764.822</ele>
        <time>2019-05-29T13:22:21Z</time>
      </trkpt>
      <trkpt lat="42.550544" lon="2.035849">
        <ele>1764.855</ele>
        <time>2019-05-29T13:22:25Z</time>
      </trkpt>
      <trkpt lat="42.550549" lon="2.035858">
        <ele>1764.815</ele>
        <time>2019-05-29T13:22:26Z</time>
      </trkpt>
      <trkpt lat="42.550576" lon="2.035927">
        <ele>1765.827</ele>
        <time>2019-05-29T13:22:33Z</time>
      </trkpt>
      <trkpt lat="42.550837" lon="2.036039">
        <ele>1768.492</ele>
        <time>2019-05-29T13:22:54Z</time>
      </trkpt>
      <trkpt lat="42.550856" lon="2.036025">
        <ele>1770.217</ele>
        <time>2019-05-29T13:22:56Z</time>
      </trkpt>
      <trkpt lat="42.550867" lon="2.036024">
        <ele>1771.087</ele>
        <time>2019-05-29T13:22:57Z</time>
      </trkpt>
      <trkpt lat="42.550933" lon="2.035952">
        <ele>1769.615</ele>
        <time>2019-05-29T13:23:04Z</time>
      </trkpt>
      <trkpt lat="42.550944" lon="2.035928">
        <ele>1770.208</ele>
        <time>2019-05-29T13:23:06Z</time>
      </trkpt>
      <trkpt lat="42.550961" lon="2.035905">
        <ele>1771.464</ele>
        <time>2019-05-29T13:23:08Z</time>
      </trkpt>
      <trkpt lat="42.550987" lon="2.035872">
        <ele>1772.418</ele>
        <time>2019-05-29T13:23:11Z</time>
      </trkpt>
      <trkpt lat="42.551013" lon="2.035839">
        <ele>1773.674</ele>
        <time>2019-05-29T13:23:14Z</time>
      </trkpt>
      <trkpt lat="42.551055" lon="2.035764">
        <ele>1774.212</ele>
        <time>2019-05-29T13:23:20Z</time>
      </trkpt>
      <trkpt lat="42.551109" lon="2.035671">
        <ele>1774.855</ele>
        <time>2019-05-29T13:23:27Z</time>
      </trkpt>
      <trkpt lat="42.551129" lon="2.035644">
        <ele>1775.255</ele>
        <time>2019-05-29T13:23:29Z</time>
      </trkpt>
      <trkpt lat="42.551162" lon="2.035577">
        <ele>1775.827</ele>
        <time>2019-05-29T13:23:34Z</time>
      </trkpt>
      <trkpt lat="42.551185" lon="2.035555">
        <ele>1776.252</ele>
        <time>2019-05-29T13:23:36Z</time>
      </trkpt>
      <trkpt lat="42.551217" lon="2.035499">
        <ele>1777.034</ele>
        <time>2019-05-29T13:23:40Z</time>
      </trkpt>
      <trkpt lat="42.551239" lon="2.035448">
        <ele>1777.455</ele>
        <time>2019-05-29T13:23:43Z</time>
      </trkpt>
      <trkpt lat="42.551256" lon="2.035423">
        <ele>1778.010</ele>
        <time>2019-05-29T13:23:45Z</time>
      </trkpt>
      <trkpt lat="42.551307" lon="2.035336">
        <ele>1779.208</ele>
        <time>2019-05-29T13:23:51Z</time>
      </trkpt>
      <trkpt lat="42.551345" lon="2.035269">
        <ele>1779.616</ele>
        <time>2019-05-29T13:23:56Z</time>
      </trkpt>
      <trkpt lat="42.551366" lon="2.035204">
        <ele>1780.240</ele>
        <time>2019-05-29T13:24:00Z</time>
      </trkpt>
      <trkpt lat="42.551392" lon="2.035159">
        <ele>1780.666</ele>
        <time>2019-05-29T13:24:03Z</time>
      </trkpt>
      <trkpt lat="42.551421" lon="2.035093">
        <ele>1781.244</ele>
        <time>2019-05-29T13:24:07Z</time>
      </trkpt>
      <trkpt lat="42.551445" lon="2.035029">
        <ele>1781.827</ele>
        <time>2019-05-29T13:24:11Z</time>
      </trkpt>
      <trkpt lat="42.551458" lon="2.035000">
        <ele>1782.437</ele>
        <time>2019-05-29T13:24:13Z</time>
      </trkpt>
      <trkpt lat="42.551477" lon="2.034973">
        <ele>1782.819</ele>
        <time>2019-05-29T13:24:15Z</time>
      </trkpt>
      <trkpt lat="42.551498" lon="2.034938">
        <ele>1783.014</ele>
        <time>2019-05-29T13:24:18Z</time>
      </trkpt>
      <trkpt lat="42.551507" lon="2.034927">
        <ele>1783.464</ele>
        <time>2019-05-29T13:24:19Z</time>
      </trkpt>
      <trkpt lat="42.551555" lon="2.034891">
        <ele>1784.006</ele>
        <time>2019-05-29T13:24:24Z</time>
      </trkpt>
      <trkpt lat="42.551589" lon="2.034870">
        <ele>1784.416</ele>
        <time>2019-05-29T13:24:27Z</time>
      </trkpt>
      <trkpt lat="42.551772" lon="2.034855">
        <ele>1786.408</ele>
        <time>2019-05-29T13:24:41Z</time>
      </trkpt>
      <trkpt lat="42.551899" lon="2.034832">
        <ele>1787.689</ele>
        <time>2019-05-29T13:24:49Z</time>
      </trkpt>
      <trkpt lat="42.551988" lon="2.034727">
        <ele>1788.483</ele>
        <time>2019-05-29T13:24:57Z</time>
      </trkpt>
      <trkpt lat="42.551995" lon="2.034712">
        <ele>1788.699</ele>
        <time>2019-05-29T13:24:58Z</time>
      </trkpt>
      <trkpt lat="42.552013" lon="2.034691">
        <ele>1788.877</ele>
        <time>2019-05-29T13:25:00Z</time>
      </trkpt>
      <trkpt lat="42.552026" lon="2.034615">
        <ele>1788.650</ele>
        <time>2019-05-29T13:25:04Z</time>
      </trkpt>
      <trkpt lat="42.552028" lon="2.034583">
        <ele>1789.010</ele>
        <time>2019-05-29T13:25:06Z</time>
      </trkpt>
      <trkpt lat="42.552032" lon="2.034488">
        <ele>1789.652</ele>
        <time>2019-05-29T13:25:12Z</time>
      </trkpt>
      <trkpt lat="42.552027" lon="2.034400">
        <ele>1790.827</ele>
        <time>2019-05-29T13:25:18Z</time>
      </trkpt>
      <trkpt lat="42.552028" lon="2.034349">
        <ele>1791.096</ele>
        <time>2019-05-29T13:25:21Z</time>
      </trkpt>
      <trkpt lat="42.552028" lon="2.034288">
        <ele>1791.231</ele>
        <time>2019-05-29T13:25:24Z</time>
      </trkpt>
      <trkpt lat="42.552031" lon="2.034274">
        <ele>1791.224</ele>
        <time>2019-05-29T13:25:25Z</time>
      </trkpt>
      <trkpt lat="42.552041" lon="2.034241">
        <ele>1792.208</ele>
        <time>2019-05-29T13:25:27Z</time>
      </trkpt>
      <trkpt lat="42.552059" lon="2.034162">
        <ele>1793.462</ele>
        <time>2019-05-29T13:25:31Z</time>
      </trkpt>
      <trkpt lat="42.552056" lon="2.034140">
        <ele>1793.626</ele>
        <time>2019-05-29T13:25:32Z</time>
      </trkpt>
      <trkpt lat="42.552056" lon="2.034119">
        <ele>1793.862</ele>
        <time>2019-05-29T13:25:33Z</time>
      </trkpt>
      <trkpt lat="42.552051" lon="2.034106">
        <ele>1794.210</ele>
        <time>2019-05-29T13:25:34Z</time>
      </trkpt>
      <trkpt lat="42.552066" lon="2.034045">
        <ele>1794.293</ele>
        <time>2019-05-29T13:25:38Z</time>
      </trkpt>
      <trkpt lat="42.552071" lon="2.034025">
        <ele>1794.433</ele>
        <time>2019-05-29T13:25:39Z</time>
      </trkpt>
      <trkpt lat="42.552071" lon="2.034007">
        <ele>1794.475</ele>
        <time>2019-05-29T13:25:40Z</time>
      </trkpt>
      <trkpt lat="42.552090" lon="2.033882">
        <ele>1795.410</ele>
        <time>2019-05-29T13:25:47Z</time>
      </trkpt>
      <trkpt lat="42.552097" lon="2.033864">
        <ele>1795.425</ele>
        <time>2019-05-29T13:25:48Z</time>
      </trkpt>
      <trkpt lat="42.552096" lon="2.033764">
        <ele>1795.626</ele>
        <time>2019-05-29T13:25:54Z</time>
      </trkpt>
      <trkpt lat="42.552088" lon="2.033695">
        <ele>1796.408</ele>
        <time>2019-05-29T13:25:58Z</time>
      </trkpt>
      <trkpt lat="42.552079" lon="2.033619">
        <ele>1797.208</ele>
        <time>2019-05-29T13:26:03Z</time>
      </trkpt>
      <trkpt lat="42.552075" lon="2.033554">
        <ele>1797.685</ele>
        <time>2019-05-29T13:26:07Z</time>
      </trkpt>
      <trkpt lat="42.552069" lon="2.033504">
        <ele>1798.069</ele>
        <time>2019-05-29T13:26:10Z</time>
      </trkpt>
      <trkpt lat="42.552055" lon="2.033457">
        <ele>1798.625</ele>
        <time>2019-05-29T13:26:13Z</time>
      </trkpt>
      <trkpt lat="42.552061" lon="2.033417">
        <ele>1799.223</ele>
        <time>2019-05-29T13:26:16Z</time>
      </trkpt>
      <trkpt lat="42.552063" lon="2.033397">
        <ele>1799.216</ele>
        <time>2019-05-29T13:26:17Z</time>
      </trkpt>
      <trkpt lat="42.552072" lon="2.033336">
        <ele>1799.876</ele>
        <time>2019-05-29T13:26:21Z</time>
      </trkpt>
      <trkpt lat="42.552094" lon="2.033283">
        <ele>1800.818</ele>
        <time>2019-05-29T13:26:25Z</time>
      </trkpt>
      <trkpt lat="42.552101" lon="2.033271">
        <ele>1800.833</ele>
        <time>2019-05-29T13:26:26Z</time>
      </trkpt>
      <trkpt lat="42.552113" lon="2.033221">
        <ele>1801.612</ele>
        <time>2019-05-29T13:26:30Z</time>
      </trkpt>
      <trkpt lat="42.552121" lon="2.033204">
        <ele>1801.832</ele>
        <time>2019-05-29T13:26:32Z</time>
      </trkpt>
      <trkpt lat="42.552119" lon="2.033211">
        <ele>1802.005</ele>
        <time>2019-05-29T13:26:33Z</time>
      </trkpt>
      <trkpt lat="42.552762" lon="2.031552">
        <ele>1818.008</ele>
        <time>2019-05-29T13:28:32Z</time>
      </trkpt>
      <trkpt lat="42.552781" lon="2.031527">
        <ele>1818.294</ele>
        <time>2019-05-29T13:28:34Z</time>
      </trkpt>
      <trkpt lat="42.552835" lon="2.031428">
        <ele>1819.038</ele>
        <time>2019-05-29T13:28:42Z</time>
      </trkpt>
      <trkpt lat="42.552890" lon="2.031310">
        <ele>1818.454</ele>
        <time>2019-05-29T13:28:50Z</time>
      </trkpt>
      <trkpt lat="42.552905" lon="2.031286">
        <ele>1819.292</ele>
        <time>2019-05-29T13:28:52Z</time>
      </trkpt>
      <trkpt lat="42.552909" lon="2.031270">
        <ele>1820.295</ele>
        <time>2019-05-29T13:28:53Z</time>
      </trkpt>
      <trkpt lat="42.552925" lon="2.031224">
        <ele>1820.455</ele>
        <time>2019-05-29T13:28:56Z</time>
      </trkpt>
      <trkpt lat="42.552928" lon="2.031206">
        <ele>1820.877</ele>
        <time>2019-05-29T13:28:57Z</time>
      </trkpt>
      <trkpt lat="42.552951" lon="2.031157">
        <ele>1821.622</ele>
        <time>2019-05-29T13:29:01Z</time>
      </trkpt>
      <trkpt lat="42.552970" lon="2.031120">
        <ele>1822.212</ele>
        <time>2019-05-29T13:29:04Z</time>
      </trkpt>
      <trkpt lat="42.552995" lon="2.031080">
        <ele>1822.632</ele>
        <time>2019-05-29T13:29:07Z</time>
      </trkpt>
      <trkpt lat="42.553043" lon="2.030981">
        <ele>1823.005</ele>
        <time>2019-05-29T13:29:14Z</time>
      </trkpt>
      <trkpt lat="42.553048" lon="2.030967">
        <ele>1823.408</ele>
        <time>2019-05-29T13:29:15Z</time>
      </trkpt>
      <trkpt lat="42.553061" lon="2.030935">
        <ele>1823.614</ele>
        <time>2019-05-29T13:29:17Z</time>
      </trkpt>
      <trkpt lat="42.553073" lon="2.030881">
        <ele>1823.488</ele>
        <time>2019-05-29T13:29:21Z</time>
      </trkpt>
      <trkpt lat="42.553074" lon="2.030862">
        <ele>1823.614</ele>
        <time>2019-05-29T13:29:22Z</time>
      </trkpt>
      <trkpt lat="42.553105" lon="2.030782">
        <ele>1824.682</ele>
        <time>2019-05-29T13:29:28Z</time>
      </trkpt>
      <trkpt lat="42.553764" lon="2.030010">
        <ele>1833.475</ele>
        <time>2019-05-29T13:30:41Z</time>
      </trkpt>
      <trkpt lat="42.553803" lon="2.029971">
        <ele>1833.635</ele>
        <time>2019-05-29T13:30:45Z</time>
      </trkpt>
      <trkpt lat="42.553867" lon="2.029897">
        <ele>1834.657</ele>
        <time>2019-05-29T13:30:52Z</time>
      </trkpt>
      <trkpt lat="42.553874" lon="2.029874">
        <ele>1834.612</ele>
        <time>2019-05-29T13:30:53Z</time>
      </trkpt>
      <trkpt lat="42.553897" lon="2.029836">
        <ele>1834.667</ele>
        <time>2019-05-29T13:30:56Z</time>
      </trkpt>
      <trkpt lat="42.553929" lon="2.029790">
        <ele>1834.881</ele>
        <time>2019-05-29T13:30:59Z</time>
      </trkpt>
      <trkpt lat="42.553958" lon="2.029758">
        <ele>1835.819</ele>
        <time>2019-05-29T13:31:02Z</time>
      </trkpt>
      <trkpt lat="42.553967" lon="2.029753">
        <ele>1836.608</ele>
        <time>2019-05-29T13:31:03Z</time>
      </trkpt>
      <trkpt lat="42.553973" lon="2.029742">
        <ele>1837.229</ele>
        <time>2019-05-29T13:31:04Z</time>
      </trkpt>
      <trkpt lat="42.554006" lon="2.029707">
        <ele>1837.093</ele>
        <time>2019-05-29T13:31:07Z</time>
      </trkpt>
      <trkpt lat="42.554044" lon="2.029673">
        <ele>1836.279</ele>
        <time>2019-05-29T13:31:10Z</time>
      </trkpt>
      <trkpt lat="42.554075" lon="2.029644">
        <ele>1836.497</ele>
        <time>2019-05-29T13:31:13Z</time>
      </trkpt>
      <trkpt lat="42.554109" lon="2.029603">
        <ele>1837.470</ele>
        <time>2019-05-29T13:31:17Z</time>
      </trkpt>
      <trkpt lat="42.554136" lon="2.029584">
        <ele>1838.090</ele>
        <time>2019-05-29T13:31:20Z</time>
      </trkpt>
      <trkpt lat="42.554187" lon="2.029559">
        <ele>1838.692</ele>
        <time>2019-05-29T13:31:24Z</time>
      </trkpt>
      <trkpt lat="42.554211" lon="2.029554">
        <ele>1839.227</ele>
        <time>2019-05-29T13:31:26Z</time>
      </trkpt>
      <trkpt lat="42.554263" lon="2.029533">
        <ele>1838.696</ele>
        <time>2019-05-29T13:31:31Z</time>
      </trkpt>
      <trkpt lat="42.554276" lon="2.029530">
        <ele>1838.631</ele>
        <time>2019-05-29T13:31:32Z</time>
      </trkpt>
      <trkpt lat="42.554313" lon="2.029514">
        <ele>1838.424</ele>
        <time>2019-05-29T13:31:35Z</time>
      </trkpt>
      <trkpt lat="42.554399" lon="2.029471">
        <ele>1839.008</ele>
        <time>2019-05-29T13:31:41Z</time>
      </trkpt>
      <trkpt lat="42.554466" lon="2.029437">
        <ele>1839.692</ele>
        <time>2019-05-29T13:31:46Z</time>
      </trkpt>
      <trkpt lat="42.554494" lon="2.029421">
        <ele>1840.016</ele>
        <time>2019-05-29T13:31:48Z</time>
      </trkpt>
      <trkpt lat="42.554534" lon="2.029405">
        <ele>1839.822</ele>
        <time>2019-05-29T13:31:51Z</time>
      </trkpt>
      <trkpt lat="42.554575" lon="2.029380">
        <ele>1839.240</ele>
        <time>2019-05-29T13:31:54Z</time>
      </trkpt>
      <trkpt lat="42.554592" lon="2.029357">
        <ele>1839.673</ele>
        <time>2019-05-29T13:31:56Z</time>
      </trkpt>
      <trkpt lat="42.554638" lon="2.029309">
        <ele>1839.633</ele>
        <time>2019-05-29T13:31:59Z</time>
      </trkpt>
      <trkpt lat="42.554717" lon="2.029227">
        <ele>1840.085</ele>
        <time>2019-05-29T13:32:05Z</time>
      </trkpt>
      <trkpt lat="42.554749" lon="2.029177">
        <ele>1840.890</ele>
        <time>2019-05-29T13:32:09Z</time>
      </trkpt>
      <trkpt lat="42.554769" lon="2.029140">
        <ele>1841.629</ele>
        <time>2019-05-29T13:32:12Z</time>
      </trkpt>
      <trkpt lat="42.554775" lon="2.029128">
        <ele>1841.800</ele>
        <time>2019-05-29T13:32:13Z</time>
      </trkpt>
      <trkpt lat="42.554805" lon="2.029017">
        <ele>1843.220</ele>
        <time>2019-05-29T13:32:20Z</time>
      </trkpt>
      <trkpt lat="42.554841" lon="2.028887">
        <ele>1843.608</ele>
        <time>2019-05-29T13:32:29Z</time>
      </trkpt>
      <trkpt lat="42.554898" lon="2.028742">
        <ele>1843.425</ele>
        <time>2019-05-29T13:32:39Z</time>
      </trkpt>
      <trkpt lat="42.554923" lon="2.028661">
        <ele>1844.419</ele>
        <time>2019-05-29T13:32:44Z</time>
      </trkpt>
      <trkpt lat="42.554946" lon="2.028614">
        <ele>1845.225</ele>
        <time>2019-05-29T13:32:47Z</time>
      </trkpt>
      <trkpt lat="42.554950" lon="2.028597">
        <ele>1845.483</ele>
        <time>2019-05-29T13:32:48Z</time>
      </trkpt>
      <trkpt lat="42.555007" lon="2.028483">
        <ele>1845.096</ele>
        <time>2019-05-29T13:32:55Z</time>
      </trkpt>
      <trkpt lat="42.555052" lon="2.028415">
        <ele>1846.426</ele>
        <time>2019-05-29T13:33:00Z</time>
      </trkpt>
      <trkpt lat="42.555074" lon="2.028365">
        <ele>1845.448</ele>
        <time>2019-05-29T13:33:03Z</time>
      </trkpt>
      <trkpt lat="42.555081" lon="2.028347">
        <ele>1845.443</ele>
        <time>2019-05-29T13:33:04Z</time>
      </trkpt>
      <trkpt lat="42.555105" lon="2.028300">
        <ele>1846.843</ele>
        <time>2019-05-29T13:33:07Z</time>
      </trkpt>
      <trkpt lat="42.555149" lon="2.028242">
        <ele>1846.264</ele>
        <time>2019-05-29T13:33:12Z</time>
      </trkpt>
      <trkpt lat="42.555168" lon="2.028216">
        <ele>1847.810</ele>
        <time>2019-05-29T13:33:14Z</time>
      </trkpt>
      <trkpt lat="42.555216" lon="2.028148">
        <ele>1848.208</ele>
        <time>2019-05-29T13:33:19Z</time>
      </trkpt>
      <trkpt lat="42.555302" lon="2.028021">
        <ele>1848.457</ele>
        <time>2019-05-29T13:33:27Z</time>
      </trkpt>
      <trkpt lat="42.555312" lon="2.027998">
        <ele>1849.291</ele>
        <time>2019-05-29T13:33:28Z</time>
      </trkpt>
      <trkpt lat="42.555329" lon="2.027952">
        <ele>1847.897</ele>
        <time>2019-05-29T13:33:30Z</time>
      </trkpt>
      <trkpt lat="42.555361" lon="2.027890">
        <ele>1847.885</ele>
        <time>2019-05-29T13:33:33Z</time>
      </trkpt>
      <trkpt lat="42.555409" lon="2.027776">
        <ele>1849.448</ele>
        <time>2019-05-29T13:33:38Z</time>
      </trkpt>
      <trkpt lat="42.555438" lon="2.027700">
        <ele>1849.628</ele>
        <time>2019-05-29T13:33:41Z</time>
      </trkpt>
      <trkpt lat="42.555454" lon="2.027651">
        <ele>1848.410</ele>
        <time>2019-05-29T13:33:43Z</time>
      </trkpt>
      <trkpt lat="42.555483" lon="2.027522">
        <ele>1848.885</ele>
        <time>2019-05-29T13:33:48Z</time>
      </trkpt>
      <trkpt lat="42.555513" lon="2.027455">
        <ele>1849.673</ele>
        <time>2019-05-29T13:33:51Z</time>
      </trkpt>
      <trkpt lat="42.555572" lon="2.027300">
        <ele>1850.485</ele>
        <time>2019-05-29T13:33:58Z</time>
      </trkpt>
      <trkpt lat="42.555589" lon="2.027248">
        <ele>1850.613</ele>
        <time>2019-05-29T13:34:00Z</time>
      </trkpt>
      <trkpt lat="42.555637" lon="2.027100">
        <ele>1851.808</ele>
        <time>2019-05-29T13:34:05Z</time>
      </trkpt>
      <trkpt lat="42.555689" lon="2.026916">
        <ele>1850.430</ele>
        <time>2019-05-29T13:34:12Z</time>
      </trkpt>
      <trkpt lat="42.555733" lon="2.026721">
        <ele>1849.444</ele>
        <time>2019-05-29T13:34:18Z</time>
      </trkpt>
      <trkpt lat="42.555745" lon="2.026686">
        <ele>1849.490</ele>
        <time>2019-05-29T13:34:19Z</time>
      </trkpt>
      <trkpt lat="42.555774" lon="2.026582">
        <ele>1850.618</ele>
        <time>2019-05-29T13:34:22Z</time>
      </trkpt>
      <trkpt lat="42.555792" lon="2.026529">
        <ele>1851.031</ele>
        <time>2019-05-29T13:34:24Z</time>
      </trkpt>
      <trkpt lat="42.555812" lon="2.026468">
        <ele>1851.861</ele>
        <time>2019-05-29T13:34:26Z</time>
      </trkpt>
      <trkpt lat="42.555854" lon="2.026340">
        <ele>1852.663</ele>
        <time>2019-05-29T13:34:30Z</time>
      </trkpt>
      <trkpt lat="42.555903" lon="2.026135">
        <ele>1851.228</ele>
        <time>2019-05-29T13:34:36Z</time>
      </trkpt>
      <trkpt lat="42.555914" lon="2.026105">
        <ele>1850.263</ele>
        <time>2019-05-29T13:34:37Z</time>
      </trkpt>
      <trkpt lat="42.555956" lon="2.025988">
        <ele>1849.244</ele>
        <time>2019-05-29T13:34:41Z</time>
      </trkpt>
      <trkpt lat="42.555965" lon="2.025958">
        <ele>1849.218</ele>
        <time>2019-05-29T13:34:42Z</time>
      </trkpt>
      <trkpt lat="42.555980" lon="2.025898">
        <ele>1850.408</ele>
        <time>2019-05-29T13:34:44Z</time>
      </trkpt>
      <trkpt lat="42.556005" lon="2.025815">
        <ele>1850.289</ele>
        <time>2019-05-29T13:34:47Z</time>
      </trkpt>
      <trkpt lat="42.556079" lon="2.025654">
        <ele>1851.233</ele>
        <time>2019-05-29T13:34:53Z</time>
      </trkpt>
      <trkpt lat="42.556092" lon="2.025625">
        <ele>1851.629</ele>
        <time>2019-05-29T13:34:54Z</time>
      </trkpt>
      <trkpt lat="42.556107" lon="2.025598">
        <ele>1851.817</ele>
        <time>2019-05-29T13:34:55Z</time>
      </trkpt>
      <trkpt lat="42.556200" lon="2.025415">
        <ele>1851.870</ele>
        <time>2019-05-29T13:35:02Z</time>
      </trkpt>
      <trkpt lat="42.556249" lon="2.025281">
        <ele>1852.880</ele>
        <time>2019-05-29T13:35:07Z</time>
      </trkpt>
      <trkpt lat="42.556268" lon="2.025233">
        <ele>1854.072</ele>
        <time>2019-05-29T13:35:09Z</time>
      </trkpt>
      <trkpt lat="42.556278" lon="2.025213">
        <ele>1854.467</ele>
        <time>2019-05-29T13:35:10Z</time>
      </trkpt>
      <trkpt lat="42.556323" lon="2.025073">
        <ele>1854.286</ele>
        <time>2019-05-29T13:35:16Z</time>
      </trkpt>
      <trkpt lat="42.556373" lon="2.024962">
        <ele>1852.660</ele>
        <time>2019-05-29T13:35:22Z</time>
      </trkpt>
      <trkpt lat="42.556403" lon="2.024879">
        <ele>1853.226</ele>
        <time>2019-05-29T13:35:26Z</time>
      </trkpt>
      <trkpt lat="42.556410" lon="2.024857">
        <ele>1853.808</ele>
        <time>2019-05-29T13:35:27Z</time>
      </trkpt>
      <trkpt lat="42.556440" lon="2.024781">
        <ele>1855.221</ele>
        <time>2019-05-29T13:35:31Z</time>
      </trkpt>
      <trkpt lat="42.556463" lon="2.024724">
        <ele>1854.815</ele>
        <time>2019-05-29T13:35:34Z</time>
      </trkpt>
      <trkpt lat="42.556532" lon="2.024539">
        <ele>1854.291</ele>
        <time>2019-05-29T13:35:43Z</time>
      </trkpt>
      <trkpt lat="42.556542" lon="2.024520">
        <ele>1854.259</ele>
        <time>2019-05-29T13:35:44Z</time>
      </trkpt>
      <trkpt lat="42.556599" lon="2.024378">
        <ele>1854.212</ele>
        <time>2019-05-29T13:35:51Z</time>
      </trkpt>
      <trkpt lat="42.556648" lon="2.024234">
        <ele>1855.052</ele>
        <time>2019-05-29T13:35:58Z</time>
      </trkpt>
      <trkpt lat="42.556662" lon="2.024193">
        <ele>1855.244</ele>
        <time>2019-05-29T13:36:00Z</time>
      </trkpt>
      <trkpt lat="42.556700" lon="2.024062">
        <ele>1856.629</ele>
        <time>2019-05-29T13:36:07Z</time>
      </trkpt>
      <trkpt lat="42.556746" lon="2.023943">
        <ele>1857.097</ele>
        <time>2019-05-29T13:36:14Z</time>
      </trkpt>
      <trkpt lat="42.556777" lon="2.023869">
        <ele>1858.223</ele>
        <time>2019-05-29T13:36:19Z</time>
      </trkpt>
      <trkpt lat="42.556799" lon="2.023837">
        <ele>1858.225</ele>
        <time>2019-05-29T13:36:22Z</time>
      </trkpt>
      <trkpt lat="42.556864" lon="2.023733">
        <ele>1859.008</ele>
        <time>2019-05-29T13:36:30Z</time>
      </trkpt>
      <trkpt lat="42.556877" lon="2.023708">
        <ele>1859.432</ele>
        <time>2019-05-29T13:36:32Z</time>
      </trkpt>
      <trkpt lat="42.556910" lon="2.023642">
        <ele>1860.446</ele>
        <time>2019-05-29T13:36:37Z</time>
      </trkpt>
      <trkpt lat="42.556932" lon="2.023603">
        <ele>1860.422</ele>
        <time>2019-05-29T13:36:40Z</time>
      </trkpt>
      <trkpt lat="42.556939" lon="2.023590">
        <ele>1860.670</ele>
        <time>2019-05-29T13:36:41Z</time>
      </trkpt>
      <trkpt lat="42.556968" lon="2.023516">
        <ele>1860.843</ele>
        <time>2019-05-29T13:36:46Z</time>
      </trkpt>
      <trkpt lat="42.557018" lon="2.023414">
        <ele>1861.463</ele>
        <time>2019-05-29T13:36:53Z</time>
      </trkpt>
      <trkpt lat="42.557025" lon="2.023400">
        <ele>1861.645</ele>
        <time>2019-05-29T13:36:54Z</time>
      </trkpt>
      <trkpt lat="42.557043" lon="2.023356">
        <ele>1862.650</ele>
        <time>2019-05-29T13:36:57Z</time>
      </trkpt>
      <trkpt lat="42.557080" lon="2.023305">
        <ele>1863.816</ele>
        <time>2019-05-29T13:37:01Z</time>
      </trkpt>
      <trkpt lat="42.557143" lon="2.023198">
        <ele>1864.076</ele>
        <time>2019-05-29T13:37:09Z</time>
      </trkpt>
      <trkpt lat="42.557225" lon="2.023097">
        <ele>1864.413</ele>
        <time>2019-05-29T13:37:17Z</time>
      </trkpt>
      <trkpt lat="42.557248" lon="2.023072">
        <ele>1865.208</ele>
        <time>2019-05-29T13:37:19Z</time>
      </trkpt>
      <trkpt lat="42.557271" lon="2.023046">
        <ele>1866.434</ele>
        <time>2019-05-29T13:37:21Z</time>
      </trkpt>
      <trkpt lat="42.557329" lon="2.022958">
        <ele>1867.288</ele>
        <time>2019-05-29T13:37:27Z</time>
      </trkpt>
      <trkpt lat="42.557405" lon="2.022838">
        <ele>1866.834</ele>
        <time>2019-05-29T13:37:35Z</time>
      </trkpt>
      <trkpt lat="42.557441" lon="2.022750">
        <ele>1867.672</ele>
        <time>2019-05-29T13:37:40Z</time>
      </trkpt>
      <trkpt lat="42.557481" lon="2.022674">
        <ele>1868.415</ele>
        <time>2019-05-29T13:37:45Z</time>
      </trkpt>
      <trkpt lat="42.557519" lon="2.022599">
        <ele>1868.675</ele>
        <time>2019-05-29T13:37:50Z</time>
      </trkpt>
      <trkpt lat="42.557541" lon="2.022555">
        <ele>1868.227</ele>
        <time>2019-05-29T13:37:53Z</time>
      </trkpt>
      <trkpt lat="42.557590" lon="2.022461">
        <ele>1869.852</ele>
        <time>2019-05-29T13:37:59Z</time>
      </trkpt>
      <trkpt lat="42.557605" lon="2.022425">
        <ele>1870.055</ele>
        <time>2019-05-29T13:38:01Z</time>
      </trkpt>
      <trkpt lat="42.557697" lon="2.022298">
        <ele>1869.407</ele>
        <time>2019-05-29T13:38:10Z</time>
      </trkpt>
      <trkpt lat="42.557776" lon="2.022182">
        <ele>1870.817</ele>
        <time>2019-05-29T13:38:18Z</time>
      </trkpt>
      <trkpt lat="42.557804" lon="2.022135">
        <ele>1871.408</ele>
        <time>2019-05-29T13:38:21Z</time>
      </trkpt>
      <trkpt lat="42.557833" lon="2.022090">
        <ele>1871.828</ele>
        <time>2019-05-29T13:38:24Z</time>
      </trkpt>
      <trkpt lat="42.557887" lon="2.022002">
        <ele>1871.832</ele>
        <time>2019-05-29T13:38:29Z</time>
      </trkpt>
      <trkpt lat="42.557923" lon="2.021951">
        <ele>1871.858</ele>
        <time>2019-05-29T13:38:32Z</time>
      </trkpt>
      <trkpt lat="42.558008" lon="2.021802">
        <ele>1871.676</ele>
        <time>2019-05-29T13:38:40Z</time>
      </trkpt>
      <trkpt lat="42.558088" lon="2.021653">
        <ele>1872.239</ele>
        <time>2019-05-29T13:38:47Z</time>
      </trkpt>
      <trkpt lat="42.558183" lon="2.021484">
        <ele>1871.839</ele>
        <time>2019-05-29T13:38:55Z</time>
      </trkpt>
      <trkpt lat="42.558257" lon="2.021332">
        <ele>1872.081</ele>
        <time>2019-05-29T13:39:02Z</time>
      </trkpt>
      <trkpt lat="42.558333" lon="2.021193">
        <ele>1872.086</ele>
        <time>2019-05-29T13:39:09Z</time>
      </trkpt>
      <trkpt lat="42.558361" lon="2.021136">
        <ele>1873.024</ele>
        <time>2019-05-29T13:39:12Z</time>
      </trkpt>
      <trkpt lat="42.558415" lon="2.021053">
        <ele>1873.404</ele>
        <time>2019-05-29T13:39:17Z</time>
      </trkpt>
      <trkpt lat="42.558451" lon="2.020976">
        <ele>1874.214</ele>
        <time>2019-05-29T13:39:22Z</time>
      </trkpt>
      <trkpt lat="42.558476" lon="2.020926">
        <ele>1874.208</ele>
        <time>2019-05-29T13:39:25Z</time>
      </trkpt>
      <trkpt lat="42.558486" lon="2.020913">
        <ele>1874.275</ele>
        <time>2019-05-29T13:39:26Z</time>
      </trkpt>
      <trkpt lat="42.558523" lon="2.020842">
        <ele>1874.629</ele>
        <time>2019-05-29T13:39:31Z</time>
      </trkpt>
      <trkpt lat="42.558537" lon="2.020812">
        <ele>1874.465</ele>
        <time>2019-05-29T13:39:33Z</time>
      </trkpt>
      <trkpt lat="42.558589" lon="2.020718">
        <ele>1875.293</ele>
        <time>2019-05-29T13:39:39Z</time>
      </trkpt>
      <trkpt lat="42.558629" lon="2.020636">
        <ele>1876.256</ele>
        <time>2019-05-29T13:39:44Z</time>
      </trkpt>
      <trkpt lat="42.558650" lon="2.020607">
        <ele>1876.296</ele>
        <time>2019-05-29T13:39:46Z</time>
      </trkpt>
      <trkpt lat="42.558693" lon="2.020506">
        <ele>1876.878</ele>
        <time>2019-05-29T13:39:52Z</time>
      </trkpt>
      <trkpt lat="42.558706" lon="2.020476">
        <ele>1877.213</ele>
        <time>2019-05-29T13:39:54Z</time>
      </trkpt>
      <trkpt lat="42.558723" lon="2.020443">
        <ele>1877.456</ele>
        <time>2019-05-29T13:39:56Z</time>
      </trkpt>
      <trkpt lat="42.558763" lon="2.020343">
        <ele>1877.859</ele>
        <time>2019-05-29T13:40:02Z</time>
      </trkpt>
      <trkpt lat="42.558799" lon="2.020284">
        <ele>1878.414</ele>
        <time>2019-05-29T13:40:06Z</time>
      </trkpt>
      <trkpt lat="42.558814" lon="2.020227">
        <ele>1877.808</ele>
        <time>2019-05-29T13:40:09Z</time>
      </trkpt>
      <trkpt lat="42.558819" lon="2.020207">
        <ele>1877.698</ele>
        <time>2019-05-29T13:40:10Z</time>
      </trkpt>
      <trkpt lat="42.558866" lon="2.020089">
        <ele>1879.442</ele>
        <time>2019-05-29T13:40:17Z</time>
      </trkpt>
      <trkpt lat="42.558878" lon="2.020054">
        <ele>1879.438</ele>
        <time>2019-05-29T13:40:19Z</time>
      </trkpt>
      <trkpt lat="42.558912" lon="2.020005">
        <ele>1880.696</ele>
        <time>2019-05-29T13:40:23Z</time>
      </trkpt>
      <trkpt lat="42.558911" lon="2.020005">
        <ele>1881.069</ele>
        <time>2019-05-29T13:40:24Z</time>
      </trkpt>
      <trkpt lat="42.559510" lon="2.017597">
        <ele>1898.039</ele>
        <time>2019-05-29T13:45:42Z</time>
      </trkpt>
      <trkpt lat="42.559528" lon="2.017550">
        <ele>1898.421</ele>
        <time>2019-05-29T13:45:45Z</time>
      </trkpt>
      <trkpt lat="42.559560" lon="2.017474">
        <ele>1899.226</ele>
        <time>2019-05-29T13:45:50Z</time>
      </trkpt>
      <trkpt lat="42.559575" lon="2.017429">
        <ele>1899.625</ele>
        <time>2019-05-29T13:45:53Z</time>
      </trkpt>
      <trkpt lat="42.559597" lon="2.017383">
        <ele>1900.226</ele>
        <time>2019-05-29T13:45:56Z</time>
      </trkpt>
      <trkpt lat="42.559623" lon="2.017275">
        <ele>1901.208</ele>
        <time>2019-05-29T13:46:02Z</time>
      </trkpt>
      <trkpt lat="42.559629" lon="2.017240">
        <ele>1901.408</ele>
        <time>2019-05-29T13:46:04Z</time>
      </trkpt>
      <trkpt lat="42.559635" lon="2.017162">
        <ele>1901.465</ele>
        <time>2019-05-29T13:46:08Z</time>
      </trkpt>
      <trkpt lat="42.559632" lon="2.017018">
        <ele>1901.659</ele>
        <time>2019-05-29T13:46:16Z</time>
      </trkpt>
      <trkpt lat="42.559624" lon="2.016876">
        <ele>1902.425</ele>
        <time>2019-05-29T13:46:23Z</time>
      </trkpt>
      <trkpt lat="42.559620" lon="2.016835">
        <ele>1902.473</ele>
        <time>2019-05-29T13:46:25Z</time>
      </trkpt>
      <trkpt lat="42.559584" lon="2.016689">
        <ele>1902.816</ele>
        <time>2019-05-29T13:46:33Z</time>
      </trkpt>
      <trkpt lat="42.559551" lon="2.016604">
        <ele>1903.666</ele>
        <time>2019-05-29T13:46:38Z</time>
      </trkpt>
      <trkpt lat="42.559511" lon="2.016515">
        <ele>1904.418</ele>
        <time>2019-05-29T13:46:43Z</time>
      </trkpt>
      <trkpt lat="42.559485" lon="2.016467">
        <ele>1904.693</ele>
        <time>2019-05-29T13:46:46Z</time>
      </trkpt>
      <trkpt lat="42.559416" lon="2.016360">
        <ele>1905.675</ele>
        <time>2019-05-29T13:46:53Z</time>
      </trkpt>
      <trkpt lat="42.559404" lon="2.016347">
        <ele>1905.628</ele>
        <time>2019-05-29T13:46:54Z</time>
      </trkpt>
      <trkpt lat="42.559319" lon="2.016256">
        <ele>1906.420</ele>
        <time>2019-05-29T13:47:02Z</time>
      </trkpt>
      <trkpt lat="42.559286" lon="2.016217">
        <ele>1907.208</ele>
        <time>2019-05-29T13:47:05Z</time>
      </trkpt>
      <trkpt lat="42.559265" lon="2.016193">
        <ele>1907.460</ele>
        <time>2019-05-29T13:47:07Z</time>
      </trkpt>
      <trkpt lat="42.559255" lon="2.016180">
        <ele>1907.274</ele>
        <time>2019-05-29T13:47:08Z</time>
      </trkpt>
      <trkpt lat="42.559207" lon="2.016132">
        <ele>1907.470</ele>
        <time>2019-05-29T13:47:12Z</time>
      </trkpt>
      <trkpt lat="42.559152" lon="2.016089">
        <ele>1907.628</ele>
        <time>2019-05-29T13:47:16Z</time>
      </trkpt>
      <trkpt lat="42.559022" lon="2.016036">
        <ele>1907.841</ele>
        <time>2019-05-29T13:47:24Z</time>
      </trkpt>
      <trkpt lat="42.558884" lon="2.016086">
        <ele>1907.271</ele>
        <time>2019-05-29T13:47:31Z</time>
      </trkpt>
      <trkpt lat="42.558677" lon="2.016214">
        <ele>1907.633</ele>
        <time>2019-05-29T13:47:41Z</time>
      </trkpt>
      <trkpt lat="42.558473" lon="2.016327">
        <ele>1907.028</ele>
        <time>2019-05-29T13:47:50Z</time>
      </trkpt>
      <trkpt lat="42.558279" lon="2.016397">
        <ele>1906.653</ele>
        <time>2019-05-29T13:47:58Z</time>
      </trkpt>
      <trkpt lat="42.558167" lon="2.016388">
        <ele>1907.604</ele>
        <time>2019-05-29T13:48:04Z</time>
      </trkpt>
      <trkpt lat="42.558063" lon="2.016348">
        <ele>1907.814</ele>
        <time>2019-05-29T13:48:11Z</time>
      </trkpt>
      <trkpt lat="42.558035" lon="2.016332">
        <ele>1908.408</ele>
        <time>2019-05-29T13:48:13Z</time>
      </trkpt>
      <trkpt lat="42.557968" lon="2.016307">
        <ele>1909.028</ele>
        <time>2019-05-29T13:48:18Z</time>
      </trkpt>
      <trkpt lat="42.557948" lon="2.016303">
        <ele>1909.442</ele>
        <time>2019-05-29T13:48:20Z</time>
      </trkpt>
      <trkpt lat="42.557915" lon="2.016295">
        <ele>1910.298</ele>
        <time>2019-05-29T13:48:23Z</time>
      </trkpt>
      <trkpt lat="42.557887" lon="2.016287">
        <ele>1910.676</ele>
        <time>2019-05-29T13:48:25Z</time>
      </trkpt>
      <trkpt lat="42.557829" lon="2.016278">
        <ele>1911.619</ele>
        <time>2019-05-29T13:48:29Z</time>
      </trkpt>
      <trkpt lat="42.557801" lon="2.016273">
        <ele>1911.879</ele>
        <time>2019-05-29T13:48:31Z</time>
      </trkpt>
      <trkpt lat="42.557776" lon="2.016260">
        <ele>1912.011</ele>
        <time>2019-05-29T13:48:33Z</time>
      </trkpt>
      <trkpt lat="42.557725" lon="2.016254">
        <ele>1912.246</ele>
        <time>2019-05-29T13:48:37Z</time>
      </trkpt>
      <trkpt lat="42.557641" lon="2.016253">
        <ele>1912.636</ele>
        <time>2019-05-29T13:48:43Z</time>
      </trkpt>
      <trkpt lat="42.557609" lon="2.016251">
        <ele>1913.017</ele>
        <time>2019-05-29T13:48:45Z</time>
      </trkpt>
      <trkpt lat="42.557545" lon="2.016239">
        <ele>1913.818</ele>
        <time>2019-05-29T13:48:49Z</time>
      </trkpt>
      <trkpt lat="42.557485" lon="2.016230">
        <ele>1914.208</ele>
        <time>2019-05-29T13:48:53Z</time>
      </trkpt>
      <trkpt lat="42.557416" lon="2.016186">
        <ele>1915.076</ele>
        <time>2019-05-29T13:48:58Z</time>
      </trkpt>
      <trkpt lat="42.557400" lon="2.016161">
        <ele>1915.690</ele>
        <time>2019-05-29T13:49:00Z</time>
      </trkpt>
      <trkpt lat="42.557363" lon="2.016102">
        <ele>1916.256</ele>
        <time>2019-05-29T13:49:05Z</time>
      </trkpt>
      <trkpt lat="42.557358" lon="2.016088">
        <ele>1916.844</ele>
        <time>2019-05-29T13:49:06Z</time>
      </trkpt>
      <trkpt lat="42.557344" lon="2.016060">
        <ele>1917.697</ele>
        <time>2019-05-29T13:49:08Z</time>
      </trkpt>
      <trkpt lat="42.557339" lon="2.016048">
        <ele>1918.087</ele>
        <time>2019-05-29T13:49:09Z</time>
      </trkpt>
      <trkpt lat="42.557330" lon="2.016020">
        <ele>1918.689</ele>
        <time>2019-05-29T13:49:11Z</time>
      </trkpt>
      <trkpt lat="42.557295" lon="2.015935">
        <ele>1919.474</ele>
        <time>2019-05-29T13:49:17Z</time>
      </trkpt>
      <trkpt lat="42.557271" lon="2.015897">
        <ele>1919.621</ele>
        <time>2019-05-29T13:49:20Z</time>
      </trkpt>
      <trkpt lat="42.557241" lon="2.015839">
        <ele>1920.441</ele>
        <time>2019-05-29T13:49:25Z</time>
      </trkpt>
      <trkpt lat="42.557193" lon="2.015797">
        <ele>1920.805</ele>
        <time>2019-05-29T13:49:29Z</time>
      </trkpt>
      <trkpt lat="42.557160" lon="2.015759">
        <ele>1921.208</ele>
        <time>2019-05-29T13:49:33Z</time>
      </trkpt>
      <trkpt lat="42.557100" lon="2.015685">
        <ele>1921.675</ele>
        <time>2019-05-29T13:49:40Z</time>
      </trkpt>
      <trkpt lat="42.557042" lon="2.015634">
        <ele>1921.829</ele>
        <time>2019-05-29T13:49:46Z</time>
      </trkpt>
      <trkpt lat="42.557033" lon="2.015622">
        <ele>1922.275</ele>
        <time>2019-05-29T13:49:47Z</time>
      </trkpt>
      <trkpt lat="42.556974" lon="2.015574">
        <ele>1922.893</ele>
        <time>2019-05-29T13:49:52Z</time>
      </trkpt>
      <trkpt lat="42.556944" lon="2.015546">
        <ele>1923.886</ele>
        <time>2019-05-29T13:49:55Z</time>
      </trkpt>
      <trkpt lat="42.556932" lon="2.015537">
        <ele>1924.236</ele>
        <time>2019-05-29T13:49:56Z</time>
      </trkpt>
      <trkpt lat="42.556862" lon="2.015485">
        <ele>1925.228</ele>
        <time>2019-05-29T13:50:02Z</time>
      </trkpt>
      <trkpt lat="42.556830" lon="2.015465">
        <ele>1925.423</ele>
        <time>2019-05-29T13:50:05Z</time>
      </trkpt>
      <trkpt lat="42.556786" lon="2.015430">
        <ele>1925.679</ele>
        <time>2019-05-29T13:50:09Z</time>
      </trkpt>
      <trkpt lat="42.556733" lon="2.015391">
        <ele>1926.005</ele>
        <time>2019-05-29T13:50:14Z</time>
      </trkpt>
      <trkpt lat="42.556700" lon="2.015367">
        <ele>1926.025</ele>
        <time>2019-05-29T13:50:17Z</time>
      </trkpt>
      <trkpt lat="42.556682" lon="2.015344">
        <ele>1926.408</ele>
        <time>2019-05-29T13:50:19Z</time>
      </trkpt>
      <trkpt lat="42.556665" lon="2.015319">
        <ele>1926.660</ele>
        <time>2019-05-29T13:50:21Z</time>
      </trkpt>
      <trkpt lat="42.556642" lon="2.015284">
        <ele>1927.614</ele>
        <time>2019-05-29T13:50:24Z</time>
      </trkpt>
      <trkpt lat="42.556619" lon="2.015238">
        <ele>1928.040</ele>
        <time>2019-05-29T13:50:27Z</time>
      </trkpt>
      <trkpt lat="42.556612" lon="2.015221">
        <ele>1928.248</ele>
        <time>2019-05-29T13:50:28Z</time>
      </trkpt>
      <trkpt lat="42.556549" lon="2.015103">
        <ele>1927.841</ele>
        <time>2019-05-29T13:50:36Z</time>
      </trkpt>
      <trkpt lat="42.556522" lon="2.014997">
        <ele>1928.641</ele>
        <time>2019-05-29T13:50:42Z</time>
      </trkpt>
      <trkpt lat="42.556512" lon="2.014956">
        <ele>1928.653</ele>
        <time>2019-05-29T13:50:44Z</time>
      </trkpt>
      <trkpt lat="42.556493" lon="2.014857">
        <ele>1929.888</ele>
        <time>2019-05-29T13:50:49Z</time>
      </trkpt>
      <trkpt lat="42.556484" lon="2.014695">
        <ele>1931.076</ele>
        <time>2019-05-29T13:50:56Z</time>
      </trkpt>
      <trkpt lat="42.556481" lon="2.014635">
        <ele>1932.090</ele>
        <time>2019-05-29T13:50:59Z</time>
      </trkpt>
      <trkpt lat="42.556485" lon="2.014599">
        <ele>1932.019</ele>
        <time>2019-05-29T13:51:01Z</time>
      </trkpt>
      <trkpt lat="42.556483" lon="2.014575">
        <ele>1932.008</ele>
        <time>2019-05-29T13:51:02Z</time>
      </trkpt>
      <trkpt lat="42.556481" lon="2.014526">
        <ele>1932.290</ele>
        <time>2019-05-29T13:51:05Z</time>
      </trkpt>
      <trkpt lat="42.556475" lon="2.014408">
        <ele>1932.474</ele>
        <time>2019-05-29T13:51:11Z</time>
      </trkpt>
      <trkpt lat="42.556480" lon="2.014328">
        <ele>1933.260</ele>
        <time>2019-05-29T13:51:15Z</time>
      </trkpt>
      <trkpt lat="42.556491" lon="2.014260">
        <ele>1934.038</ele>
        <time>2019-05-29T13:51:19Z</time>
      </trkpt>
      <trkpt lat="42.556505" lon="2.014200">
        <ele>1934.251</ele>
        <time>2019-05-29T13:51:22Z</time>
      </trkpt>
      <trkpt lat="42.556527" lon="2.014071">
        <ele>1935.051</ele>
        <time>2019-05-29T13:51:28Z</time>
      </trkpt>
      <trkpt lat="42.556570" lon="2.013845">
        <ele>1934.693</ele>
        <time>2019-05-29T13:51:37Z</time>
      </trkpt>
      <trkpt lat="42.556594" lon="2.013697">
        <ele>1935.238</ele>
        <time>2019-05-29T13:51:43Z</time>
      </trkpt>
      <trkpt lat="42.556598" lon="2.013670">
        <ele>1936.018</ele>
        <time>2019-05-29T13:51:44Z</time>
      </trkpt>
      <trkpt lat="42.556627" lon="2.013471">
        <ele>1935.098</ele>
        <time>2019-05-29T13:51:51Z</time>
      </trkpt>
      <trkpt lat="42.556638" lon="2.013414">
        <ele>1934.817</ele>
        <time>2019-05-29T13:51:53Z</time>
      </trkpt>
      <trkpt lat="42.556700" lon="2.013239">
        <ele>1935.208</ele>
        <time>2019-05-29T13:51:59Z</time>
      </trkpt>
      <trkpt lat="42.556736" lon="2.013089">
        <ele>1936.034</ele>
        <time>2019-05-29T13:52:04Z</time>
      </trkpt>
      <trkpt lat="42.556745" lon="2.013028">
        <ele>1936.448</ele>
        <time>2019-05-29T13:52:06Z</time>
      </trkpt>
      <trkpt lat="42.556773" lon="2.012806">
        <ele>1936.664</ele>
        <time>2019-05-29T13:52:14Z</time>
      </trkpt>
      <trkpt lat="42.556822" lon="2.012637">
        <ele>1936.282</ele>
        <time>2019-05-29T13:52:21Z</time>
      </trkpt>
      <trkpt lat="42.556835" lon="2.012558">
        <ele>1937.035</ele>
        <time>2019-05-29T13:52:24Z</time>
      </trkpt>
      <trkpt lat="42.556867" lon="2.012463">
        <ele>1937.075</ele>
        <time>2019-05-29T13:52:28Z</time>
      </trkpt>
      <trkpt lat="42.556929" lon="2.012261">
        <ele>1936.237</ele>
        <time>2019-05-29T13:52:36Z</time>
      </trkpt>
      <trkpt lat="42.556951" lon="2.012074">
        <ele>1938.032</ele>
        <time>2019-05-29T13:52:44Z</time>
      </trkpt>
      <trkpt lat="42.556945" lon="2.011959">
        <ele>1939.037</ele>
        <time>2019-05-29T13:52:48Z</time>
      </trkpt>
      <trkpt lat="42.556938" lon="2.011878">
        <ele>1939.649</ele>
        <time>2019-05-29T13:52:51Z</time>
      </trkpt>
      <trkpt lat="42.556925" lon="2.011771">
        <ele>1939.413</ele>
        <time>2019-05-29T13:52:55Z</time>
      </trkpt>
      <trkpt lat="42.556906" lon="2.011663">
        <ele>1939.208</ele>
        <time>2019-05-29T13:52:59Z</time>
      </trkpt>
      <trkpt lat="42.556880" lon="2.011477">
        <ele>1939.846</ele>
        <time>2019-05-29T13:53:06Z</time>
      </trkpt>
      <trkpt lat="42.556876" lon="2.011445">
        <ele>1940.250</ele>
        <time>2019-05-29T13:53:07Z</time>
      </trkpt>
      <trkpt lat="42.556874" lon="2.011235">
        <ele>1939.816</ele>
        <time>2019-05-29T13:53:14Z</time>
      </trkpt>
      <trkpt lat="42.556877" lon="2.011058">
        <ele>1941.684</ele>
        <time>2019-05-29T13:53:20Z</time>
      </trkpt>
      <trkpt lat="42.556878" lon="2.011030">
        <ele>1941.837</ele>
        <time>2019-05-29T13:53:21Z</time>
      </trkpt>
      <trkpt lat="42.556879" lon="2.010973">
        <ele>1940.657</ele>
        <time>2019-05-29T13:53:23Z</time>
      </trkpt>
      <trkpt lat="42.556895" lon="2.010869">
        <ele>1941.659</ele>
        <time>2019-05-29T13:53:27Z</time>
      </trkpt>
      <trkpt lat="42.556927" lon="2.010635">
        <ele>1941.074</ele>
        <time>2019-05-29T13:53:36Z</time>
      </trkpt>
      <trkpt lat="42.556932" lon="2.010577">
        <ele>1942.684</ele>
        <time>2019-05-29T13:53:39Z</time>
      </trkpt>
      <trkpt lat="42.556946" lon="2.010501">
        <ele>1942.807</ele>
        <time>2019-05-29T13:53:43Z</time>
      </trkpt>
      <trkpt lat="42.556979" lon="2.010332">
        <ele>1942.417</ele>
        <time>2019-05-29T13:53:51Z</time>
      </trkpt>
      <trkpt lat="42.557023" lon="2.010213">
        <ele>1942.808</ele>
        <time>2019-05-29T13:53:57Z</time>
      </trkpt>
      <trkpt lat="42.557044" lon="2.010168">
        <ele>1944.021</ele>
        <time>2019-05-29T13:53:59Z</time>
      </trkpt>
      <trkpt lat="42.557089" lon="2.010099">
        <ele>1944.645</ele>
        <time>2019-05-29T13:54:03Z</time>
      </trkpt>
      <trkpt lat="42.557167" lon="2.009965">
        <ele>1945.091</ele>
        <time>2019-05-29T13:54:12Z</time>
      </trkpt>
      <trkpt lat="42.557174" lon="2.009951">
        <ele>1945.219</ele>
        <time>2019-05-29T13:54:13Z</time>
      </trkpt>
      <trkpt lat="42.557228" lon="2.009877">
        <ele>1946.812</ele>
        <time>2019-05-29T13:54:19Z</time>
      </trkpt>
      <trkpt lat="42.557237" lon="2.009865">
        <ele>1947.092</ele>
        <time>2019-05-29T13:54:20Z</time>
      </trkpt>
      <trkpt lat="42.557267" lon="2.009825">
        <ele>1947.664</ele>
        <time>2019-05-29T13:54:23Z</time>
      </trkpt>
      <trkpt lat="42.557296" lon="2.009789">
        <ele>1947.279</ele>
        <time>2019-05-29T13:54:26Z</time>
      </trkpt>
      <trkpt lat="42.557335" lon="2.009731">
        <ele>1947.411</ele>
        <time>2019-05-29T13:54:30Z</time>
      </trkpt>
      <trkpt lat="42.557358" lon="2.009670">
        <ele>1946.821</ele>
        <time>2019-05-29T13:54:33Z</time>
      </trkpt>
      <trkpt lat="42.557377" lon="2.009562">
        <ele>1949.003</ele>
        <time>2019-05-29T13:54:38Z</time>
      </trkpt>
      <trkpt lat="42.557369" lon="2.009517">
        <ele>1949.808</ele>
        <time>2019-05-29T13:54:40Z</time>
      </trkpt>
      <trkpt lat="42.557304" lon="2.009326">
        <ele>1949.474</ele>
        <time>2019-05-29T13:54:49Z</time>
      </trkpt>
      <trkpt lat="42.557238" lon="2.009215">
        <ele>1949.878</ele>
        <time>2019-05-29T13:54:55Z</time>
      </trkpt>
      <trkpt lat="42.557231" lon="2.009196">
        <ele>1950.064</ele>
        <time>2019-05-29T13:54:56Z</time>
      </trkpt>
      <trkpt lat="42.557185" lon="2.009093">
        <ele>1949.492</ele>
        <time>2019-05-29T13:55:01Z</time>
      </trkpt>
      <trkpt lat="42.557127" lon="2.008966">
        <ele>1948.865</ele>
        <time>2019-05-29T13:55:07Z</time>
      </trkpt>
      <trkpt lat="42.557105" lon="2.008926">
        <ele>1948.885</ele>
        <time>2019-05-29T13:55:09Z</time>
      </trkpt>
      <trkpt lat="42.557070" lon="2.008875">
        <ele>1950.487</ele>
        <time>2019-05-29T13:55:12Z</time>
      </trkpt>
      <trkpt lat="42.557048" lon="2.008840">
        <ele>1951.462</ele>
        <time>2019-05-29T13:55:14Z</time>
      </trkpt>
      <trkpt lat="42.557015" lon="2.008785">
        <ele>1952.272</ele>
        <time>2019-05-29T13:55:17Z</time>
      </trkpt>
      <trkpt lat="42.556929" lon="2.008620">
        <ele>1952.413</ele>
        <time>2019-05-29T13:55:26Z</time>
      </trkpt>
      <trkpt lat="42.556886" lon="2.008423">
        <ele>1953.014</ele>
        <time>2019-05-29T13:55:34Z</time>
      </trkpt>
      <trkpt lat="42.556901" lon="2.008282">
        <ele>1953.608</ele>
        <time>2019-05-29T13:55:40Z</time>
      </trkpt>
      <trkpt lat="42.556905" lon="2.008237">
        <ele>1953.630</ele>
        <time>2019-05-29T13:55:42Z</time>
      </trkpt>
      <trkpt lat="42.556939" lon="2.008035">
        <ele>1953.824</ele>
        <time>2019-05-29T13:55:50Z</time>
      </trkpt>
      <trkpt lat="42.556982" lon="2.007819">
        <ele>1953.820</ele>
        <time>2019-05-29T13:55:58Z</time>
      </trkpt>
      <trkpt lat="42.557021" lon="2.007714">
        <ele>1955.068</ele>
        <time>2019-05-29T13:56:02Z</time>
      </trkpt>
      <trkpt lat="42.557057" lon="2.007633">
        <ele>1955.611</ele>
        <time>2019-05-29T13:56:05Z</time>
      </trkpt>
      <trkpt lat="42.557120" lon="2.007466">
        <ele>1956.021</ele>
        <time>2019-05-29T13:56:10Z</time>
      </trkpt>
      <trkpt lat="42.557117" lon="2.007227">
        <ele>1955.893</ele>
        <time>2019-05-29T13:56:16Z</time>
      </trkpt>
      <trkpt lat="42.557113" lon="2.007195">
        <ele>1956.098</ele>
        <time>2019-05-29T13:56:17Z</time>
      </trkpt>
      <trkpt lat="42.557068" lon="2.007002">
        <ele>1955.886</ele>
        <time>2019-05-29T13:56:22Z</time>
      </trkpt>
      <trkpt lat="42.557073" lon="2.006684">
        <ele>1956.660</ele>
        <time>2019-05-29T13:56:30Z</time>
      </trkpt>
      <trkpt lat="42.557096" lon="2.006614">
        <ele>1957.026</ele>
        <time>2019-05-29T13:56:32Z</time>
      </trkpt>
      <trkpt lat="42.557159" lon="2.006435">
        <ele>1956.608</ele>
        <time>2019-05-29T13:56:38Z</time>
      </trkpt>
      <trkpt lat="42.557230" lon="2.006235">
        <ele>1958.031</ele>
        <time>2019-05-29T13:56:45Z</time>
      </trkpt>
      <trkpt lat="42.557242" lon="2.006206">
        <ele>1958.215</ele>
        <time>2019-05-29T13:56:46Z</time>
      </trkpt>
      <trkpt lat="42.557297" lon="2.006071">
        <ele>1957.631</ele>
        <time>2019-05-29T13:56:51Z</time>
      </trkpt>
      <trkpt lat="42.557348" lon="2.005917">
        <ele>1959.449</ele>
        <time>2019-05-29T13:56:56Z</time>
      </trkpt>
      <trkpt lat="42.557380" lon="2.005830">
        <ele>1960.642</ele>
        <time>2019-05-29T13:56:59Z</time>
      </trkpt>
      <trkpt lat="42.557390" lon="2.005805">
        <ele>1960.412</ele>
        <time>2019-05-29T13:57:00Z</time>
      </trkpt>
      <trkpt lat="42.557480" lon="2.005639">
        <ele>1962.444</ele>
        <time>2019-05-29T13:57:08Z</time>
      </trkpt>
      <trkpt lat="42.557531" lon="2.005579">
        <ele>1961.499</ele>
        <time>2019-05-29T13:57:12Z</time>
      </trkpt>
      <trkpt lat="42.557567" lon="2.005532">
        <ele>1960.849</ele>
        <time>2019-05-29T13:57:15Z</time>
      </trkpt>
      <trkpt lat="42.557679" lon="2.005404">
        <ele>1961.802</ele>
        <time>2019-05-29T13:57:23Z</time>
      </trkpt>
      <trkpt lat="42.557691" lon="2.005386">
        <ele>1963.222</ele>
        <time>2019-05-29T13:57:24Z</time>
      </trkpt>
      <trkpt lat="42.557739" lon="2.005257">
        <ele>1964.008</ele>
        <time>2019-05-29T13:57:30Z</time>
      </trkpt>
      <trkpt lat="42.557746" lon="2.005234">
        <ele>1965.217</ele>
        <time>2019-05-29T13:57:31Z</time>
      </trkpt>
      <trkpt lat="42.557763" lon="2.005100">
        <ele>1964.851</ele>
        <time>2019-05-29T13:57:37Z</time>
      </trkpt>
      <trkpt lat="42.557774" lon="2.005052">
        <ele>1965.017</ele>
        <time>2019-05-29T13:57:39Z</time>
      </trkpt>
      <trkpt lat="42.557834" lon="2.004934">
        <ele>1965.455</ele>
        <time>2019-05-29T13:57:45Z</time>
      </trkpt>
      <trkpt lat="42.557942" lon="2.004831">
        <ele>1965.628</ele>
        <time>2019-05-29T13:57:53Z</time>
      </trkpt>
      <trkpt lat="42.557971" lon="2.004809">
        <ele>1966.848</ele>
        <time>2019-05-29T13:57:55Z</time>
      </trkpt>
      <trkpt lat="42.558015" lon="2.004768">
        <ele>1968.250</ele>
        <time>2019-05-29T13:57:58Z</time>
      </trkpt>
      <trkpt lat="42.558059" lon="2.004720">
        <ele>1970.075</ele>
        <time>2019-05-29T13:58:01Z</time>
      </trkpt>
      <trkpt lat="42.558111" lon="2.004643">
        <ele>1968.456</ele>
        <time>2019-05-29T13:58:05Z</time>
      </trkpt>
      <trkpt lat="42.558160" lon="2.004583">
        <ele>1968.459</ele>
        <time>2019-05-29T13:58:09Z</time>
      </trkpt>
      <trkpt lat="42.558184" lon="2.004551">
        <ele>1969.414</ele>
        <time>2019-05-29T13:58:11Z</time>
      </trkpt>
      <trkpt lat="42.558273" lon="2.004447">
        <ele>1970.008</ele>
        <time>2019-05-29T13:58:18Z</time>
      </trkpt>
      <trkpt lat="42.558299" lon="2.004430">
        <ele>1971.058</ele>
        <time>2019-05-29T13:58:20Z</time>
      </trkpt>
      <trkpt lat="42.558378" lon="2.004361">
        <ele>1971.622</ele>
        <time>2019-05-29T13:58:26Z</time>
      </trkpt>
      <trkpt lat="42.558436" lon="2.004301">
        <ele>1972.258</ele>
        <time>2019-05-29T13:58:31Z</time>
      </trkpt>
      <trkpt lat="42.558461" lon="2.004275">
        <ele>1972.886</ele>
        <time>2019-05-29T13:58:33Z</time>
      </trkpt>
      <trkpt lat="42.558488" lon="2.004248">
        <ele>1973.239</ele>
        <time>2019-05-29T13:58:35Z</time>
      </trkpt>
      <trkpt lat="42.558519" lon="2.004167">
        <ele>1972.829</ele>
        <time>2019-05-29T13:58:39Z</time>
      </trkpt>
      <trkpt lat="42.558548" lon="2.004049">
        <ele>1972.871</ele>
        <time>2019-05-29T13:58:45Z</time>
      </trkpt>
      <trkpt lat="42.558588" lon="2.003929">
        <ele>1973.236</ele>
        <time>2019-05-29T13:58:51Z</time>
      </trkpt>
      <trkpt lat="42.558627" lon="2.003853">
        <ele>1974.875</ele>
        <time>2019-05-29T13:58:56Z</time>
      </trkpt>
      <trkpt lat="42.558647" lon="2.003825">
        <ele>1975.228</ele>
        <time>2019-05-29T13:58:58Z</time>
      </trkpt>
      <trkpt lat="42.558740" lon="2.003755">
        <ele>1974.420</ele>
        <time>2019-05-29T13:59:04Z</time>
      </trkpt>
      <trkpt lat="42.558812" lon="2.003644">
        <ele>1976.008</ele>
        <time>2019-05-29T13:59:10Z</time>
      </trkpt>
      <trkpt lat="42.558816" lon="2.003454">
        <ele>1977.250</ele>
        <time>2019-05-29T13:59:17Z</time>
      </trkpt>
      <trkpt lat="42.558829" lon="2.003292">
        <ele>1976.244</ele>
        <time>2019-05-29T13:59:23Z</time>
      </trkpt>
      <trkpt lat="42.558842" lon="2.003279">
        <ele>1976.680</ele>
        <time>2019-05-29T13:59:24Z</time>
      </trkpt>
      <trkpt lat="42.558849" lon="2.003255">
        <ele>1977.438</ele>
        <time>2019-05-29T13:59:25Z</time>
      </trkpt>
      <trkpt lat="42.558882" lon="2.003172">
        <ele>1977.631</ele>
        <time>2019-05-29T13:59:29Z</time>
      </trkpt>
      <trkpt lat="42.558908" lon="2.003151">
        <ele>1976.241</ele>
        <time>2019-05-29T13:59:31Z</time>
      </trkpt>
      <trkpt lat="42.558923" lon="2.003149">
        <ele>1977.093</ele>
        <time>2019-05-29T13:59:32Z</time>
      </trkpt>
      <trkpt lat="42.558936" lon="2.003146">
        <ele>1977.828</ele>
        <time>2019-05-29T13:59:33Z</time>
      </trkpt>
      <trkpt lat="42.558962" lon="2.003136">
        <ele>1978.213</ele>
        <time>2019-05-29T13:59:35Z</time>
      </trkpt>
      <trkpt lat="42.559018" lon="2.003119">
        <ele>1979.043</ele>
        <time>2019-05-29T13:59:39Z</time>
      </trkpt>
      <trkpt lat="42.559033" lon="2.003120">
        <ele>1979.607</ele>
        <time>2019-05-29T13:59:40Z</time>
      </trkpt>
      <trkpt lat="42.559064" lon="2.003128">
        <ele>1980.408</ele>
        <time>2019-05-29T13:59:42Z</time>
      </trkpt>
      <trkpt lat="42.559099" lon="2.003122">
        <ele>1980.454</ele>
        <time>2019-05-29T13:59:45Z</time>
      </trkpt>
      <trkpt lat="42.559140" lon="2.003138">
        <ele>1980.268</ele>
        <time>2019-05-29T13:59:48Z</time>
      </trkpt>
      <trkpt lat="42.559174" lon="2.003154">
        <ele>1980.634</ele>
        <time>2019-05-29T13:59:50Z</time>
      </trkpt>
      <trkpt lat="42.559253" lon="2.003175">
        <ele>1980.652</ele>
        <time>2019-05-29T13:59:55Z</time>
      </trkpt>
      <trkpt lat="42.559284" lon="2.003193">
        <ele>1980.865</ele>
        <time>2019-05-29T13:59:57Z</time>
      </trkpt>
      <trkpt lat="42.559295" lon="2.003211">
        <ele>1981.685</ele>
        <time>2019-05-29T13:59:58Z</time>
      </trkpt>
      <trkpt lat="42.559313" lon="2.003241">
        <ele>1982.887</ele>
        <time>2019-05-29T14:00:00Z</time>
      </trkpt>
      <trkpt lat="42.559327" lon="2.003257">
        <ele>1982.682</ele>
        <time>2019-05-29T14:00:01Z</time>
      </trkpt>
      <trkpt lat="42.559336" lon="2.003284">
        <ele>1982.268</ele>
        <time>2019-05-29T14:00:02Z</time>
      </trkpt>
      <trkpt lat="42.559349" lon="2.003301">
        <ele>1981.642</ele>
        <time>2019-05-29T14:00:03Z</time>
      </trkpt>
      <trkpt lat="42.559384" lon="2.003353">
        <ele>1982.026</ele>
        <time>2019-05-29T14:00:06Z</time>
      </trkpt>
      <trkpt lat="42.559439" lon="2.003423">
        <ele>1983.008</ele>
        <time>2019-05-29T14:00:10Z</time>
      </trkpt>
      <trkpt lat="42.559485" lon="2.003491">
        <ele>1982.879</ele>
        <time>2019-05-29T14:00:14Z</time>
      </trkpt>
      <trkpt lat="42.559505" lon="2.003523">
        <ele>1984.023</ele>
        <time>2019-05-29T14:00:16Z</time>
      </trkpt>
      <trkpt lat="42.559546" lon="2.003592">
        <ele>1985.419</ele>
        <time>2019-05-29T14:00:20Z</time>
      </trkpt>
      <trkpt lat="42.559568" lon="2.003612">
        <ele>1985.627</ele>
        <time>2019-05-29T14:00:22Z</time>
      </trkpt>
      <trkpt lat="42.559589" lon="2.003637">
        <ele>1984.470</ele>
        <time>2019-05-29T14:00:24Z</time>
      </trkpt>
      <trkpt lat="42.559654" lon="2.003711">
        <ele>1984.040</ele>
        <time>2019-05-29T14:00:30Z</time>
      </trkpt>
      <trkpt lat="42.559717" lon="2.003754">
        <ele>1985.462</ele>
        <time>2019-05-29T14:00:35Z</time>
      </trkpt>
      <trkpt lat="42.559762" lon="2.003774">
        <ele>1986.457</ele>
        <time>2019-05-29T14:00:38Z</time>
      </trkpt>
      <trkpt lat="42.559819" lon="2.003777">
        <ele>1986.811</ele>
        <time>2019-05-29T14:00:42Z</time>
      </trkpt>
      <trkpt lat="42.559850" lon="2.003778">
        <ele>1985.421</ele>
        <time>2019-05-29T14:00:44Z</time>
      </trkpt>
      <trkpt lat="42.559866" lon="2.003776">
        <ele>1983.603</ele>
        <time>2019-05-29T14:00:45Z</time>
      </trkpt>
      <trkpt lat="42.559926" lon="2.003767">
        <ele>1984.808</ele>
        <time>2019-05-29T14:00:49Z</time>
      </trkpt>
      <trkpt lat="42.559956" lon="2.003768">
        <ele>1986.044</ele>
        <time>2019-05-29T14:00:51Z</time>
      </trkpt>
      <trkpt lat="42.560016" lon="2.003771">
        <ele>1987.498</ele>
        <time>2019-05-29T14:00:55Z</time>
      </trkpt>
      <trkpt lat="42.560084" lon="2.003776">
        <ele>1986.684</ele>
        <time>2019-05-29T14:00:59Z</time>
      </trkpt>
      <trkpt lat="42.560120" lon="2.003736">
        <ele>1986.212</ele>
        <time>2019-05-29T14:01:02Z</time>
      </trkpt>
      <trkpt lat="42.560125" lon="2.003698">
        <ele>1987.415</ele>
        <time>2019-05-29T14:01:04Z</time>
      </trkpt>
      <trkpt lat="42.560124" lon="2.003675">
        <ele>1989.035</ele>
        <time>2019-05-29T14:01:05Z</time>
      </trkpt>
      <trkpt lat="42.560123" lon="2.003652">
        <ele>1990.297</ele>
        <time>2019-05-29T14:01:06Z</time>
      </trkpt>
      <trkpt lat="42.560120" lon="2.003629">
        <ele>1991.262</ele>
        <time>2019-05-29T14:01:07Z</time>
      </trkpt>
      <trkpt lat="42.560128" lon="2.003523">
        <ele>1989.642</ele>
        <time>2019-05-29T14:01:11Z</time>
      </trkpt>
      <trkpt lat="42.560132" lon="2.003498">
        <ele>1988.622</ele>
        <time>2019-05-29T14:01:12Z</time>
      </trkpt>
      <trkpt lat="42.560157" lon="2.003406">
        <ele>1989.814</ele>
        <time>2019-05-29T14:01:16Z</time>
      </trkpt>
      <trkpt lat="42.560187" lon="2.003392">
        <ele>1990.608</ele>
        <time>2019-05-29T14:01:18Z</time>
      </trkpt>
      <trkpt lat="42.560296" lon="2.003376">
        <ele>1990.657</ele>
        <time>2019-05-29T14:01:24Z</time>
      </trkpt>
      <trkpt lat="42.560316" lon="2.003370">
        <ele>1991.071</ele>
        <time>2019-05-29T14:01:25Z</time>
      </trkpt>
      <trkpt lat="42.560430" lon="2.003300">
        <ele>1991.037</ele>
        <time>2019-05-29T14:01:31Z</time>
      </trkpt>
      <trkpt lat="42.560438" lon="2.003278">
        <ele>1990.845</ele>
        <time>2019-05-29T14:01:32Z</time>
      </trkpt>
      <trkpt lat="42.560445" lon="2.003188">
        <ele>1991.618</ele>
        <time>2019-05-29T14:01:36Z</time>
      </trkpt>
      <trkpt lat="42.560434" lon="2.003147">
        <ele>1992.228</ele>
        <time>2019-05-29T14:01:38Z</time>
      </trkpt>
      <trkpt lat="42.560408" lon="2.003041">
        <ele>1992.620</ele>
        <time>2019-05-29T14:01:42Z</time>
      </trkpt>
      <trkpt lat="42.560385" lon="2.002809">
        <ele>1992.425</ele>
        <time>2019-05-29T14:01:48Z</time>
      </trkpt>
      <trkpt lat="42.560336" lon="2.002558">
        <ele>1992.249</ele>
        <time>2019-05-29T14:01:55Z</time>
      </trkpt>
      <trkpt lat="42.560289" lon="2.002295">
        <ele>1991.602</ele>
        <time>2019-05-29T14:02:02Z</time>
      </trkpt>
      <trkpt lat="42.560231" lon="2.001951">
        <ele>1991.622</ele>
        <time>2019-05-29T14:02:10Z</time>
      </trkpt>
      <trkpt lat="42.560166" lon="2.001582">
        <ele>1991.808</ele>
        <time>2019-05-29T14:02:18Z</time>
      </trkpt>
      <trkpt lat="42.560141" lon="2.001465">
        <ele>1992.287</ele>
        <time>2019-05-29T14:02:21Z</time>
      </trkpt>
      <trkpt lat="42.560126" lon="2.001341">
        <ele>1992.091</ele>
        <time>2019-05-29T14:02:24Z</time>
      </trkpt>
      <trkpt lat="42.560085" lon="2.001047">
        <ele>1992.427</ele>
        <time>2019-05-29T14:02:30Z</time>
      </trkpt>
      <trkpt lat="42.560031" lon="2.000698">
        <ele>1992.845</ele>
        <time>2019-05-29T14:02:38Z</time>
      </trkpt>
      <trkpt lat="42.560018" lon="2.000627">
        <ele>1993.228</ele>
        <time>2019-05-29T14:02:40Z</time>
      </trkpt>
      <trkpt lat="42.560018" lon="2.000549">
        <ele>1994.228</ele>
        <time>2019-05-29T14:02:43Z</time>
      </trkpt>
      <trkpt lat="42.560023" lon="2.000547">
        <ele>1994.450</ele>
        <time>2019-05-29T14:02:44Z</time>
      </trkpt>
      <trkpt lat="42.559986" lon="2.000452">
        <ele>1993.455</ele>
        <time>2019-05-29T14:06:32Z</time>
      </trkpt>
      <trkpt lat="42.559962" lon="2.000303">
        <ele>1994.064</ele>
        <time>2019-05-29T14:06:37Z</time>
      </trkpt>
      <trkpt lat="42.559905" lon="2.000011">
        <ele>1994.406</ele>
        <time>2019-05-29T14:06:45Z</time>
      </trkpt>
      <trkpt lat="42.559855" lon="1.999661">
        <ele>1994.816</ele>
        <time>2019-05-29T14:06:53Z</time>
      </trkpt>
      <trkpt lat="42.559821" lon="1.999451">
        <ele>1996.608</ele>
        <time>2019-05-29T14:06:58Z</time>
      </trkpt>
      <trkpt lat="42.559803" lon="1.999363">
        <ele>1998.689</ele>
        <time>2019-05-29T14:07:00Z</time>
      </trkpt>
      <trkpt lat="42.559782" lon="1.999238">
        <ele>1999.643</ele>
        <time>2019-05-29T14:07:03Z</time>
      </trkpt>
      <trkpt lat="42.559762" lon="1.999113">
        <ele>1998.849</ele>
        <time>2019-05-29T14:07:06Z</time>
      </trkpt>
      <trkpt lat="42.559754" lon="1.999032">
        <ele>1998.057</ele>
        <time>2019-05-29T14:07:08Z</time>
      </trkpt>
      <trkpt lat="42.559740" lon="1.998957">
        <ele>1996.890</ele>
        <time>2019-05-29T14:07:10Z</time>
      </trkpt>
      <trkpt lat="42.559730" lon="1.998883">
        <ele>1995.460</ele>
        <time>2019-05-29T14:07:12Z</time>
      </trkpt>
      <trkpt lat="42.559725" lon="1.998848">
        <ele>1993.882</ele>
        <time>2019-05-29T14:07:13Z</time>
      </trkpt>
      <trkpt lat="42.559718" lon="1.998816">
        <ele>1993.217</ele>
        <time>2019-05-29T14:07:14Z</time>
      </trkpt>
      <trkpt lat="42.559668" lon="1.998749">
        <ele>1993.465</ele>
        <time>2019-05-29T14:07:17Z</time>
      </trkpt>
      <trkpt lat="42.559645" lon="1.998753">
        <ele>1993.668</ele>
        <time>2019-05-29T14:07:18Z</time>
      </trkpt>
      <trkpt lat="42.559541" lon="1.998825">
        <ele>1992.814</ele>
        <time>2019-05-29T14:07:22Z</time>
      </trkpt>
      <trkpt lat="42.559513" lon="1.998856">
        <ele>1992.408</ele>
        <time>2019-05-29T14:07:23Z</time>
      </trkpt>
      <trkpt lat="42.559487" lon="1.998896">
        <ele>1992.279</ele>
        <time>2019-05-29T14:07:24Z</time>
      </trkpt>
      <trkpt lat="42.559428" lon="1.998972">
        <ele>1991.883</ele>
        <time>2019-05-29T14:07:26Z</time>
      </trkpt>
      <trkpt lat="42.559342" lon="1.999094">
        <ele>1991.639</ele>
        <time>2019-05-29T14:07:29Z</time>
      </trkpt>
      <trkpt lat="42.559277" lon="1.999167">
        <ele>1990.657</ele>
        <time>2019-05-29T14:07:31Z</time>
      </trkpt>
      <trkpt lat="42.559210" lon="1.999237">
        <ele>1989.810</ele>
        <time>2019-05-29T14:07:33Z</time>
      </trkpt>
      <trkpt lat="42.559173" lon="1.999272">
        <ele>1989.480</ele>
        <time>2019-05-29T14:07:34Z</time>
      </trkpt>
      <trkpt lat="42.559137" lon="1.999295">
        <ele>1989.482</ele>
        <time>2019-05-29T14:07:35Z</time>
      </trkpt>
      <trkpt lat="42.558964" lon="1.999435">
        <ele>1988.287</ele>
        <time>2019-05-29T14:07:39Z</time>
      </trkpt>
      <trkpt lat="42.558922" lon="1.999467">
        <ele>1987.295</ele>
        <time>2019-05-29T14:07:40Z</time>
      </trkpt>
      <trkpt lat="42.558870" lon="1.999491">
        <ele>1987.049</ele>
        <time>2019-05-29T14:07:41Z</time>
      </trkpt>
      <trkpt lat="42.558737" lon="1.999588">
        <ele>1986.023</ele>
        <time>2019-05-29T14:07:44Z</time>
      </trkpt>
      <trkpt lat="42.558710" lon="1.999627">
        <ele>1986.008</ele>
        <time>2019-05-29T14:07:45Z</time>
      </trkpt>
      <trkpt lat="42.558652" lon="1.999772">
        <ele>1985.442</ele>
        <time>2019-05-29T14:07:48Z</time>
      </trkpt>
      <trkpt lat="42.558677" lon="1.999938">
        <ele>1985.036</ele>
        <time>2019-05-29T14:07:51Z</time>
      </trkpt>
      <trkpt lat="42.558735" lon="2.000041">
        <ele>1984.612</ele>
        <time>2019-05-29T14:07:53Z</time>
      </trkpt>
      <trkpt lat="42.558771" lon="2.000088">
        <ele>1983.660</ele>
        <time>2019-05-29T14:07:54Z</time>
      </trkpt>
      <trkpt lat="42.558816" lon="2.000117">
        <ele>1983.013</ele>
        <time>2019-05-29T14:07:55Z</time>
      </trkpt>
      <trkpt lat="42.558868" lon="2.000139">
        <ele>1981.823</ele>
        <time>2019-05-29T14:07:56Z</time>
      </trkpt>
      <trkpt lat="42.558920" lon="2.000152">
        <ele>1980.625</ele>
        <time>2019-05-29T14:07:57Z</time>
      </trkpt>
      <trkpt lat="42.558980" lon="2.000158">
        <ele>1978.830</ele>
        <time>2019-05-29T14:07:58Z</time>
      </trkpt>
      <trkpt lat="42.559037" lon="2.000155">
        <ele>1977.674</ele>
        <time>2019-05-29T14:07:59Z</time>
      </trkpt>
      <trkpt lat="42.559095" lon="2.000150">
        <ele>1976.856</ele>
        <time>2019-05-29T14:08:00Z</time>
      </trkpt>
      <trkpt lat="42.559147" lon="2.000147">
        <ele>1976.621</ele>
        <time>2019-05-29T14:08:01Z</time>
      </trkpt>
      <trkpt lat="42.559309" lon="2.000129">
        <ele>1977.608</ele>
        <time>2019-05-29T14:08:04Z</time>
      </trkpt>
      <trkpt lat="42.559365" lon="2.000124">
        <ele>1977.260</ele>
        <time>2019-05-29T14:08:05Z</time>
      </trkpt>
      <trkpt lat="42.559497" lon="2.000119">
        <ele>1978.644</ele>
        <time>2019-05-29T14:08:07Z</time>
      </trkpt>
      <trkpt lat="42.559619" lon="2.000159">
        <ele>1980.460</ele>
        <time>2019-05-29T14:08:09Z</time>
      </trkpt>
      <trkpt lat="42.559757" lon="2.000362">
        <ele>1981.678</ele>
        <time>2019-05-29T14:08:12Z</time>
      </trkpt>
      <trkpt lat="42.559785" lon="2.000626">
        <ele>1979.221</ele>
        <time>2019-05-29T14:08:15Z</time>
      </trkpt>
      <trkpt lat="42.559778" lon="2.000711">
        <ele>1978.291</ele>
        <time>2019-05-29T14:08:16Z</time>
      </trkpt>
      <trkpt lat="42.559738" lon="2.000971">
        <ele>1977.433</ele>
        <time>2019-05-29T14:08:19Z</time>
      </trkpt>
      <trkpt lat="42.559720" lon="2.001056">
        <ele>1977.018</ele>
        <time>2019-05-29T14:08:20Z</time>
      </trkpt>
      <trkpt lat="42.559662" lon="2.001309">
        <ele>1976.036</ele>
        <time>2019-05-29T14:08:23Z</time>
      </trkpt>
      <trkpt lat="42.559569" lon="2.001522">
        <ele>1975.617</ele>
        <time>2019-05-29T14:08:26Z</time>
      </trkpt>
      <trkpt lat="42.559406" lon="2.001587">
        <ele>1975.618</ele>
        <time>2019-05-29T14:08:29Z</time>
      </trkpt>
      <trkpt lat="42.559306" lon="2.001635">
        <ele>1974.208</ele>
        <time>2019-05-29T14:08:31Z</time>
      </trkpt>
      <trkpt lat="42.559202" lon="2.001751">
        <ele>1974.256</ele>
        <time>2019-05-29T14:08:34Z</time>
      </trkpt>
      <trkpt lat="42.559178" lon="2.001851">
        <ele>1975.680</ele>
        <time>2019-05-29T14:08:36Z</time>
      </trkpt>
      <trkpt lat="42.559182" lon="2.001945">
        <ele>1976.656</ele>
        <time>2019-05-29T14:08:38Z</time>
      </trkpt>
      <trkpt lat="42.559187" lon="2.001989">
        <ele>1977.094</ele>
        <time>2019-05-29T14:08:39Z</time>
      </trkpt>
      <trkpt lat="42.559207" lon="2.002076">
        <ele>1978.427</ele>
        <time>2019-05-29T14:08:41Z</time>
      </trkpt>
      <trkpt lat="42.559231" lon="2.002165">
        <ele>1979.667</ele>
        <time>2019-05-29T14:08:43Z</time>
      </trkpt>
      <trkpt lat="42.559239" lon="2.002209">
        <ele>1980.449</ele>
        <time>2019-05-29T14:08:44Z</time>
      </trkpt>
      <trkpt lat="42.559247" lon="2.002255">
        <ele>1980.824</ele>
        <time>2019-05-29T14:08:45Z</time>
      </trkpt>
      <trkpt lat="42.559300" lon="2.002470">
        <ele>1979.691</ele>
        <time>2019-05-29T14:08:50Z</time>
      </trkpt>
      <trkpt lat="42.559327" lon="2.002606">
        <ele>1978.681</ele>
        <time>2019-05-29T14:08:53Z</time>
      </trkpt>
      <trkpt lat="42.559369" lon="2.002810">
        <ele>1980.819</ele>
        <time>2019-05-29T14:08:58Z</time>
      </trkpt>
      <trkpt lat="42.559382" lon="2.002892">
        <ele>1980.608</ele>
        <time>2019-05-29T14:09:00Z</time>
      </trkpt>
      <trkpt lat="42.559334" lon="2.003090">
        <ele>1981.022</ele>
        <time>2019-05-29T14:09:05Z</time>
      </trkpt>
      <trkpt lat="42.559313" lon="2.003170">
        <ele>1981.896</ele>
        <time>2019-05-29T14:09:07Z</time>
      </trkpt>
      <trkpt lat="42.559325" lon="2.003243">
        <ele>1983.292</ele>
        <time>2019-05-29T14:09:09Z</time>
      </trkpt>
      <trkpt lat="42.559338" lon="2.003271">
        <ele>1983.440</ele>
        <time>2019-05-29T14:09:10Z</time>
      </trkpt>
      <trkpt lat="42.559444" lon="2.003435">
        <ele>1982.863</ele>
        <time>2019-05-29T14:09:16Z</time>
      </trkpt>
      <trkpt lat="42.559571" lon="2.003609">
        <ele>1983.073</ele>
        <time>2019-05-29T14:09:23Z</time>
      </trkpt>
      <trkpt lat="42.559688" lon="2.003734">
        <ele>1983.815</ele>
        <time>2019-05-29T14:09:29Z</time>
      </trkpt>
      <trkpt lat="42.559773" lon="2.003783">
        <ele>1982.680</ele>
        <time>2019-05-29T14:09:33Z</time>
      </trkpt>
      <trkpt lat="42.559833" lon="2.003793">
        <ele>1983.684</ele>
        <time>2019-05-29T14:09:36Z</time>
      </trkpt>
      <trkpt lat="42.559949" lon="2.003798">
        <ele>1984.207</ele>
        <time>2019-05-29T14:09:42Z</time>
      </trkpt>
      <trkpt lat="42.559957" lon="2.003811">
        <ele>1985.217</ele>
        <time>2019-05-29T14:09:43Z</time>
      </trkpt>
      <trkpt lat="42.559965" lon="2.003829">
        <ele>1986.608</ele>
        <time>2019-05-29T14:09:44Z</time>
      </trkpt>
      <trkpt lat="42.559968" lon="2.003836">
        <ele>1988.011</ele>
        <time>2019-05-29T14:09:45Z</time>
      </trkpt>
      <trkpt lat="42.559999" lon="2.003775">
        <ele>1984.265</ele>
        <time>2019-05-29T14:27:56Z</time>
      </trkpt>
      <trkpt lat="42.559971" lon="2.003758">
        <ele>1983.071</ele>
        <time>2019-05-29T14:27:57Z</time>
      </trkpt>
      <trkpt lat="42.559891" lon="2.003756">
        <ele>1982.069</ele>
        <time>2019-05-29T14:27:59Z</time>
      </trkpt>
      <trkpt lat="42.559847" lon="2.003758">
        <ele>1981.482</ele>
        <time>2019-05-29T14:28:00Z</time>
      </trkpt>
      <trkpt lat="42.559806" lon="2.003758">
        <ele>1981.062</ele>
        <time>2019-05-29T14:28:01Z</time>
      </trkpt>
      <trkpt lat="42.559760" lon="2.003751">
        <ele>1980.284</ele>
        <time>2019-05-29T14:28:02Z</time>
      </trkpt>
      <trkpt lat="42.559663" lon="2.003706">
        <ele>1979.279</ele>
        <time>2019-05-29T14:28:04Z</time>
      </trkpt>
      <trkpt lat="42.559529" lon="2.003542">
        <ele>1979.019</ele>
        <time>2019-05-29T14:28:07Z</time>
      </trkpt>
      <trkpt lat="42.559489" lon="2.003482">
        <ele>1979.009</ele>
        <time>2019-05-29T14:28:08Z</time>
      </trkpt>
      <trkpt lat="42.559409" lon="2.003370">
        <ele>1978.219</ele>
        <time>2019-05-29T14:28:10Z</time>
      </trkpt>
      <trkpt lat="42.559335" lon="2.003280">
        <ele>1977.408</ele>
        <time>2019-05-29T14:28:12Z</time>
      </trkpt>
      <trkpt lat="42.559269" lon="2.003216">
        <ele>1977.034</ele>
        <time>2019-05-29T14:28:14Z</time>
      </trkpt>
      <trkpt lat="42.559163" lon="2.003148">
        <ele>1976.438</ele>
        <time>2019-05-29T14:28:18Z</time>
      </trkpt>
      <trkpt lat="42.559006" lon="2.003085">
        <ele>1975.874</ele>
        <time>2019-05-29T14:28:23Z</time>
      </trkpt>
      <trkpt lat="42.558851" lon="2.003179">
        <ele>1974.672</ele>
        <time>2019-05-29T14:28:26Z</time>
      </trkpt>
      <trkpt lat="42.558795" lon="2.003340">
        <ele>1973.825</ele>
        <time>2019-05-29T14:28:28Z</time>
      </trkpt>
      <trkpt lat="42.558774" lon="2.003558">
        <ele>1972.875</ele>
        <time>2019-05-29T14:28:30Z</time>
      </trkpt>
      <trkpt lat="42.558738" lon="2.003667">
        <ele>1971.477</ele>
        <time>2019-05-29T14:28:31Z</time>
      </trkpt>
      <trkpt lat="42.558686" lon="2.003757">
        <ele>1969.812</ele>
        <time>2019-05-29T14:28:32Z</time>
      </trkpt>
      <trkpt lat="42.558631" lon="2.003841">
        <ele>1969.279</ele>
        <time>2019-05-29T14:28:33Z</time>
      </trkpt>
      <trkpt lat="42.558583" lon="2.003933">
        <ele>1969.205</ele>
        <time>2019-05-29T14:28:34Z</time>
      </trkpt>
      <trkpt lat="42.558440" lon="2.004217">
        <ele>1969.025</ele>
        <time>2019-05-29T14:28:37Z</time>
      </trkpt>
      <trkpt lat="42.558378" lon="2.004298">
        <ele>1968.008</ele>
        <time>2019-05-29T14:28:38Z</time>
      </trkpt>
      <trkpt lat="42.558309" lon="2.004368">
        <ele>1966.850</ele>
        <time>2019-05-29T14:28:39Z</time>
      </trkpt>
      <trkpt lat="42.558164" lon="2.004521">
        <ele>1965.644</ele>
        <time>2019-05-29T14:28:41Z</time>
      </trkpt>
      <trkpt lat="42.558097" lon="2.004602">
        <ele>1965.230</ele>
        <time>2019-05-29T14:28:42Z</time>
      </trkpt>
      <trkpt lat="42.557962" lon="2.004753">
        <ele>1963.658</ele>
        <time>2019-05-29T14:28:44Z</time>
      </trkpt>
      <trkpt lat="42.557896" lon="2.004816">
        <ele>1961.821</ele>
        <time>2019-05-29T14:28:45Z</time>
      </trkpt>
      <trkpt lat="42.557838" lon="2.004879">
        <ele>1961.831</ele>
        <time>2019-05-29T14:28:46Z</time>
      </trkpt>
      <trkpt lat="42.557791" lon="2.004957">
        <ele>1962.013</ele>
        <time>2019-05-29T14:28:47Z</time>
      </trkpt>
      <trkpt lat="42.557699" lon="2.005263">
        <ele>1960.218</ele>
        <time>2019-05-29T14:28:50Z</time>
      </trkpt>
      <trkpt lat="42.557663" lon="2.005361">
        <ele>1959.232</ele>
        <time>2019-05-29T14:28:51Z</time>
      </trkpt>
      <trkpt lat="42.557610" lon="2.005443">
        <ele>1958.492</ele>
        <time>2019-05-29T14:28:52Z</time>
      </trkpt>
      <trkpt lat="42.557549" lon="2.005518">
        <ele>1957.611</ele>
        <time>2019-05-29T14:28:53Z</time>
      </trkpt>
      <trkpt lat="42.557488" lon="2.005599">
        <ele>1956.808</ele>
        <time>2019-05-29T14:28:54Z</time>
      </trkpt>
      <trkpt lat="42.557379" lon="2.005790">
        <ele>1955.866</ele>
        <time>2019-05-29T14:28:56Z</time>
      </trkpt>
      <trkpt lat="42.557333" lon="2.005900">
        <ele>1955.410</ele>
        <time>2019-05-29T14:28:57Z</time>
      </trkpt>
      <trkpt lat="42.557290" lon="2.006017">
        <ele>1954.876</ele>
        <time>2019-05-29T14:28:58Z</time>
      </trkpt>
      <trkpt lat="42.557245" lon="2.006134">
        <ele>1953.434</ele>
        <time>2019-05-29T14:28:59Z</time>
      </trkpt>
      <trkpt lat="42.557154" lon="2.006373">
        <ele>1952.097</ele>
        <time>2019-05-29T14:29:01Z</time>
      </trkpt>
      <trkpt lat="42.557075" lon="2.006593">
        <ele>1951.427</ele>
        <time>2019-05-29T14:29:03Z</time>
      </trkpt>
      <trkpt lat="42.557051" lon="2.006697">
        <ele>1951.479</ele>
        <time>2019-05-29T14:29:04Z</time>
      </trkpt>
      <trkpt lat="42.557051" lon="2.006915">
        <ele>1951.054</ele>
        <time>2019-05-29T14:29:06Z</time>
      </trkpt>
      <trkpt lat="42.557067" lon="2.007024">
        <ele>1950.884</ele>
        <time>2019-05-29T14:29:07Z</time>
      </trkpt>
      <trkpt lat="42.557086" lon="2.007129">
        <ele>1950.807</ele>
        <time>2019-05-29T14:29:08Z</time>
      </trkpt>
      <trkpt lat="42.557105" lon="2.007345">
        <ele>1949.417</ele>
        <time>2019-05-29T14:29:10Z</time>
      </trkpt>
      <trkpt lat="42.557093" lon="2.007447">
        <ele>1948.408</ele>
        <time>2019-05-29T14:29:11Z</time>
      </trkpt>
      <trkpt lat="42.556991" lon="2.007705">
        <ele>1950.081</ele>
        <time>2019-05-29T14:29:14Z</time>
      </trkpt>
      <trkpt lat="42.556956" lon="2.007790">
        <ele>1949.815</ele>
        <time>2019-05-29T14:29:15Z</time>
      </trkpt>
      <trkpt lat="42.556888" lon="2.008074">
        <ele>1948.411</ele>
        <time>2019-05-29T14:29:18Z</time>
      </trkpt>
      <trkpt lat="42.556871" lon="2.008174">
        <ele>1948.499</ele>
        <time>2019-05-29T14:29:19Z</time>
      </trkpt>
      <trkpt lat="42.556854" lon="2.008476">
        <ele>1949.082</ele>
        <time>2019-05-29T14:29:22Z</time>
      </trkpt>
      <trkpt lat="42.556875" lon="2.008575">
        <ele>1948.822</ele>
        <time>2019-05-29T14:29:23Z</time>
      </trkpt>
      <trkpt lat="42.557007" lon="2.008845">
        <ele>1947.284</ele>
        <time>2019-05-29T14:29:26Z</time>
      </trkpt>
      <trkpt lat="42.557107" lon="2.009020">
        <ele>1946.019</ele>
        <time>2019-05-29T14:29:28Z</time>
      </trkpt>
      <trkpt lat="42.557256" lon="2.009299">
        <ele>1944.679</ele>
        <time>2019-05-29T14:29:31Z</time>
      </trkpt>
      <trkpt lat="42.557302" lon="2.009389">
        <ele>1944.005</ele>
        <time>2019-05-29T14:29:32Z</time>
      </trkpt>
      <trkpt lat="42.557334" lon="2.009483">
        <ele>1943.225</ele>
        <time>2019-05-29T14:29:33Z</time>
      </trkpt>
      <trkpt lat="42.557335" lon="2.009677">
        <ele>1942.608</ele>
        <time>2019-05-29T14:29:35Z</time>
      </trkpt>
      <trkpt lat="42.557199" lon="2.009925">
        <ele>1943.220</ele>
        <time>2019-05-29T14:29:38Z</time>
      </trkpt>
      <trkpt lat="42.557034" lon="2.010179">
        <ele>1941.614</ele>
        <time>2019-05-29T14:29:41Z</time>
      </trkpt>
      <trkpt lat="42.556952" lon="2.010361">
        <ele>1941.030</ele>
        <time>2019-05-29T14:29:43Z</time>
      </trkpt>
      <trkpt lat="42.556922" lon="2.010463">
        <ele>1940.698</ele>
        <time>2019-05-29T14:29:44Z</time>
      </trkpt>
      <trkpt lat="42.556877" lon="2.010784">
        <ele>1939.421</ele>
        <time>2019-05-29T14:29:47Z</time>
      </trkpt>
      <trkpt lat="42.556855" lon="2.011019">
        <ele>1937.671</ele>
        <time>2019-05-29T14:29:49Z</time>
      </trkpt>
      <trkpt lat="42.556843" lon="2.011263">
        <ele>1935.813</ele>
        <time>2019-05-29T14:29:51Z</time>
      </trkpt>
      <trkpt lat="42.556845" lon="2.011385">
        <ele>1935.088</ele>
        <time>2019-05-29T14:29:52Z</time>
      </trkpt>
      <trkpt lat="42.556851" lon="2.011506">
        <ele>1934.668</ele>
        <time>2019-05-29T14:29:53Z</time>
      </trkpt>
      <trkpt lat="42.556903" lon="2.012001">
        <ele>1933.642</ele>
        <time>2019-05-29T14:29:57Z</time>
      </trkpt>
      <trkpt lat="42.556875" lon="2.012238">
        <ele>1932.426</ele>
        <time>2019-05-29T14:29:59Z</time>
      </trkpt>
      <trkpt lat="42.556848" lon="2.012354">
        <ele>1931.808</ele>
        <time>2019-05-29T14:30:00Z</time>
      </trkpt>
      <trkpt lat="42.556818" lon="2.012466">
        <ele>1931.479</ele>
        <time>2019-05-29T14:30:01Z</time>
      </trkpt>
      <trkpt lat="42.556750" lon="2.012803">
        <ele>1930.283</ele>
        <time>2019-05-29T14:30:04Z</time>
      </trkpt>
      <trkpt lat="42.556747" lon="2.012914">
        <ele>1930.039</ele>
        <time>2019-05-29T14:30:05Z</time>
      </trkpt>
      <trkpt lat="42.556677" lon="2.013274">
        <ele>1930.457</ele>
        <time>2019-05-29T14:30:09Z</time>
      </trkpt>
      <trkpt lat="42.556646" lon="2.013350">
        <ele>1930.090</ele>
        <time>2019-05-29T14:30:10Z</time>
      </trkpt>
      <trkpt lat="42.556616" lon="2.013424">
        <ele>1930.040</ele>
        <time>2019-05-29T14:30:11Z</time>
      </trkpt>
      <trkpt lat="42.556578" lon="2.013582">
        <ele>1930.462</ele>
        <time>2019-05-29T14:30:13Z</time>
      </trkpt>
      <trkpt lat="42.556565" lon="2.013665">
        <ele>1930.497</ele>
        <time>2019-05-29T14:30:14Z</time>
      </trkpt>
      <trkpt lat="42.556497" lon="2.014090">
        <ele>1928.893</ele>
        <time>2019-05-29T14:30:19Z</time>
      </trkpt>
      <trkpt lat="42.556464" lon="2.014258">
        <ele>1929.665</ele>
        <time>2019-05-29T14:30:21Z</time>
      </trkpt>
      <trkpt lat="42.556437" lon="2.014438">
        <ele>1929.621</ele>
        <time>2019-05-29T14:30:23Z</time>
      </trkpt>
      <trkpt lat="42.556436" lon="2.014646">
        <ele>1928.408</ele>
        <time>2019-05-29T14:30:25Z</time>
      </trkpt>
      <trkpt lat="42.556441" lon="2.014759">
        <ele>1927.872</ele>
        <time>2019-05-29T14:30:26Z</time>
      </trkpt>
      <trkpt lat="42.556468" lon="2.014977">
        <ele>1927.666</ele>
        <time>2019-05-29T14:30:28Z</time>
      </trkpt>
      <trkpt lat="42.556492" lon="2.015082">
        <ele>1927.472</ele>
        <time>2019-05-29T14:30:29Z</time>
      </trkpt>
      <trkpt lat="42.556570" lon="2.015277">
        <ele>1926.620</ele>
        <time>2019-05-29T14:30:31Z</time>
      </trkpt>
      <trkpt lat="42.556619" lon="2.015363">
        <ele>1926.213</ele>
        <time>2019-05-29T14:30:32Z</time>
      </trkpt>
      <trkpt lat="42.556743" lon="2.015503">
        <ele>1924.433</ele>
        <time>2019-05-29T14:30:34Z</time>
      </trkpt>
      <trkpt lat="42.556817" lon="2.015564">
        <ele>1922.845</ele>
        <time>2019-05-29T14:30:35Z</time>
      </trkpt>
      <trkpt lat="42.556894" lon="2.015614">
        <ele>1920.850</ele>
        <time>2019-05-29T14:30:36Z</time>
      </trkpt>
      <trkpt lat="42.556972" lon="2.015668">
        <ele>1919.232</ele>
        <time>2019-05-29T14:30:37Z</time>
      </trkpt>
      <trkpt lat="42.557127" lon="2.015793">
        <ele>1917.892</ele>
        <time>2019-05-29T14:30:39Z</time>
      </trkpt>
      <trkpt lat="42.557196" lon="2.015863">
        <ele>1917.011</ele>
        <time>2019-05-29T14:30:40Z</time>
      </trkpt>
      <trkpt lat="42.557253" lon="2.015944">
        <ele>1916.008</ele>
        <time>2019-05-29T14:30:41Z</time>
      </trkpt>
      <trkpt lat="42.557320" lon="2.016111">
        <ele>1914.666</ele>
        <time>2019-05-29T14:30:43Z</time>
      </trkpt>
      <trkpt lat="42.557345" lon="2.016185">
        <ele>1914.020</ele>
        <time>2019-05-29T14:30:44Z</time>
      </trkpt>
      <trkpt lat="42.557384" lon="2.016248">
        <ele>1912.686</ele>
        <time>2019-05-29T14:30:45Z</time>
      </trkpt>
      <trkpt lat="42.557432" lon="2.016297">
        <ele>1911.614</ele>
        <time>2019-05-29T14:30:46Z</time>
      </trkpt>
      <trkpt lat="42.557496" lon="2.016324">
        <ele>1910.467</ele>
        <time>2019-05-29T14:30:47Z</time>
      </trkpt>
      <trkpt lat="42.557575" lon="2.016330">
        <ele>1908.687</ele>
        <time>2019-05-29T14:30:48Z</time>
      </trkpt>
      <trkpt lat="42.557663" lon="2.016328">
        <ele>1907.429</ele>
        <time>2019-05-29T14:30:49Z</time>
      </trkpt>
      <trkpt lat="42.557756" lon="2.016325">
        <ele>1906.094</ele>
        <time>2019-05-29T14:30:50Z</time>
      </trkpt>
      <trkpt lat="42.557938" lon="2.016350">
        <ele>1904.252</ele>
        <time>2019-05-29T14:30:52Z</time>
      </trkpt>
      <trkpt lat="42.558027" lon="2.016382">
        <ele>1903.053</ele>
        <time>2019-05-29T14:30:53Z</time>
      </trkpt>
      <trkpt lat="42.558116" lon="2.016423">
        <ele>1901.608</ele>
        <time>2019-05-29T14:30:54Z</time>
      </trkpt>
      <trkpt lat="42.558200" lon="2.016449">
        <ele>1901.208</ele>
        <time>2019-05-29T14:30:55Z</time>
      </trkpt>
      <trkpt lat="42.558354" lon="2.016418">
        <ele>1901.038</ele>
        <time>2019-05-29T14:30:57Z</time>
      </trkpt>
      <trkpt lat="42.558495" lon="2.016341">
        <ele>1901.622</ele>
        <time>2019-05-29T14:30:59Z</time>
      </trkpt>
      <trkpt lat="42.558772" lon="2.016199">
        <ele>1902.268</ele>
        <time>2019-05-29T14:31:03Z</time>
      </trkpt>
      <trkpt lat="42.558904" lon="2.016126">
        <ele>1902.626</ele>
        <time>2019-05-29T14:31:05Z</time>
      </trkpt>
      <trkpt lat="42.558971" lon="2.016102">
        <ele>1902.879</ele>
        <time>2019-05-29T14:31:06Z</time>
      </trkpt>
      <trkpt lat="42.559100" lon="2.016108">
        <ele>1902.869</ele>
        <time>2019-05-29T14:31:08Z</time>
      </trkpt>
      <trkpt lat="42.559273" lon="2.016252">
        <ele>1902.431</ele>
        <time>2019-05-29T14:31:11Z</time>
      </trkpt>
      <trkpt lat="42.559378" lon="2.016367">
        <ele>1902.636</ele>
        <time>2019-05-29T14:31:13Z</time>
      </trkpt>
      <trkpt lat="42.559480" lon="2.016499">
        <ele>1901.415</ele>
        <time>2019-05-29T14:31:15Z</time>
      </trkpt>
      <trkpt lat="42.559576" lon="2.016656">
        <ele>1900.065</ele>
        <time>2019-05-29T14:31:17Z</time>
      </trkpt>
      <trkpt lat="42.559619" lon="2.016745">
        <ele>1899.211</ele>
        <time>2019-05-29T14:31:18Z</time>
      </trkpt>
      <trkpt lat="42.559632" lon="2.016853">
        <ele>1898.608</ele>
        <time>2019-05-29T14:31:19Z</time>
      </trkpt>
      <trkpt lat="42.559641" lon="2.016961">
        <ele>1897.854</ele>
        <time>2019-05-29T14:31:20Z</time>
      </trkpt>
      <trkpt lat="42.559644" lon="2.017068">
        <ele>1897.248</ele>
        <time>2019-05-29T14:31:21Z</time>
      </trkpt>
      <trkpt lat="42.559636" lon="2.017275">
        <ele>1896.234</ele>
        <time>2019-05-29T14:31:23Z</time>
      </trkpt>
      <trkpt lat="42.559605" lon="2.017376">
        <ele>1895.832</ele>
        <time>2019-05-29T14:31:24Z</time>
      </trkpt>
      <trkpt lat="42.559523" lon="2.017568">
        <ele>1895.025</ele>
        <time>2019-05-29T14:31:26Z</time>
      </trkpt>
      <trkpt lat="42.559482" lon="2.017666">
        <ele>1894.615</ele>
        <time>2019-05-29T14:31:27Z</time>
      </trkpt>
      <trkpt lat="42.559442" lon="2.017762">
        <ele>1894.667</ele>
        <time>2019-05-29T14:31:28Z</time>
      </trkpt>
      <trkpt lat="42.559317" lon="2.018061">
        <ele>1893.842</ele>
        <time>2019-05-29T14:31:31Z</time>
      </trkpt>
      <trkpt lat="42.559228" lon="2.018266">
        <ele>1890.089</ele>
        <time>2019-05-29T14:31:33Z</time>
      </trkpt>
      <trkpt lat="42.559182" lon="2.018364">
        <ele>1889.006</ele>
        <time>2019-05-29T14:31:34Z</time>
      </trkpt>
      <trkpt lat="42.559138" lon="2.018467">
        <ele>1887.826</ele>
        <time>2019-05-29T14:31:35Z</time>
      </trkpt>
      <trkpt lat="42.559100" lon="2.018583">
        <ele>1887.208</ele>
        <time>2019-05-29T14:31:36Z</time>
      </trkpt>
      <trkpt lat="42.559070" lon="2.018708">
        <ele>1886.421</ele>
        <time>2019-05-29T14:31:37Z</time>
      </trkpt>
      <trkpt lat="42.559035" lon="2.018982">
        <ele>1884.665</ele>
        <time>2019-05-29T14:31:39Z</time>
      </trkpt>
      <trkpt lat="42.559025" lon="2.019129">
        <ele>1883.651</ele>
        <time>2019-05-29T14:31:40Z</time>
      </trkpt>
      <trkpt lat="42.559010" lon="2.019274">
        <ele>1882.419</ele>
        <time>2019-05-29T14:31:41Z</time>
      </trkpt>
      <trkpt lat="42.558957" lon="2.019572">
        <ele>1880.812</ele>
        <time>2019-05-29T14:31:43Z</time>
      </trkpt>
      <trkpt lat="42.558922" lon="2.019727">
        <ele>1879.412</ele>
        <time>2019-05-29T14:31:44Z</time>
      </trkpt>
      <trkpt lat="42.558876" lon="2.019880">
        <ele>1877.824</ele>
        <time>2019-05-29T14:31:45Z</time>
      </trkpt>
      <trkpt lat="42.558820" lon="2.020032">
        <ele>1876.079</ele>
        <time>2019-05-29T14:31:46Z</time>
      </trkpt>
      <trkpt lat="42.558759" lon="2.020182">
        <ele>1874.692</ele>
        <time>2019-05-29T14:31:47Z</time>
      </trkpt>
      <trkpt lat="42.558694" lon="2.020333">
        <ele>1872.673</ele>
        <time>2019-05-29T14:31:48Z</time>
      </trkpt>
      <trkpt lat="42.558624" lon="2.020483">
        <ele>1871.020</ele>
        <time>2019-05-29T14:31:49Z</time>
      </trkpt>
      <trkpt lat="42.558552" lon="2.020637">
        <ele>1869.608</ele>
        <time>2019-05-29T14:31:50Z</time>
      </trkpt>
      <trkpt lat="42.558479" lon="2.020791">
        <ele>1868.232</ele>
        <time>2019-05-29T14:31:51Z</time>
      </trkpt>
      <trkpt lat="42.558403" lon="2.020942">
        <ele>1867.076</ele>
        <time>2019-05-29T14:31:52Z</time>
      </trkpt>
      <trkpt lat="42.558323" lon="2.021092">
        <ele>1866.082</ele>
        <time>2019-05-29T14:31:53Z</time>
      </trkpt>
      <trkpt lat="42.558243" lon="2.021242">
        <ele>1864.870</ele>
        <time>2019-05-29T14:31:54Z</time>
      </trkpt>
      <trkpt lat="42.558163" lon="2.021389">
        <ele>1863.883</ele>
        <time>2019-05-29T14:31:55Z</time>
      </trkpt>
      <trkpt lat="42.558013" lon="2.021671">
        <ele>1862.613</ele>
        <time>2019-05-29T14:31:57Z</time>
      </trkpt>
      <trkpt lat="42.557788" lon="2.022034">
        <ele>1863.495</ele>
        <time>2019-05-29T14:32:00Z</time>
      </trkpt>
      <trkpt lat="42.557718" lon="2.022146">
        <ele>1863.890</ele>
        <time>2019-05-29T14:32:01Z</time>
      </trkpt>
      <trkpt lat="42.557395" lon="2.022718">
        <ele>1862.033</ele>
        <time>2019-05-29T14:32:06Z</time>
      </trkpt>
      <trkpt lat="42.557270" lon="2.022944">
        <ele>1860.223</ele>
        <time>2019-05-29T14:32:08Z</time>
      </trkpt>
      <trkpt lat="42.557129" lon="2.023148">
        <ele>1858.815</ele>
        <time>2019-05-29T14:32:10Z</time>
      </trkpt>
      <trkpt lat="42.557059" lon="2.023243">
        <ele>1858.408</ele>
        <time>2019-05-29T14:32:11Z</time>
      </trkpt>
      <trkpt lat="42.556923" lon="2.023452">
        <ele>1857.066</ele>
        <time>2019-05-29T14:32:13Z</time>
      </trkpt>
      <trkpt lat="42.556796" lon="2.023708">
        <ele>1854.830</ele>
        <time>2019-05-29T14:32:15Z</time>
      </trkpt>
      <trkpt lat="42.556733" lon="2.023848">
        <ele>1853.436</ele>
        <time>2019-05-29T14:32:16Z</time>
      </trkpt>
      <trkpt lat="42.556668" lon="2.023994">
        <ele>1852.034</ele>
        <time>2019-05-29T14:32:17Z</time>
      </trkpt>
      <trkpt lat="42.556606" lon="2.024147">
        <ele>1850.667</ele>
        <time>2019-05-29T14:32:18Z</time>
      </trkpt>
      <trkpt lat="42.556550" lon="2.024305">
        <ele>1849.467</ele>
        <time>2019-05-29T14:32:19Z</time>
      </trkpt>
      <trkpt lat="42.556496" lon="2.024465">
        <ele>1848.239</ele>
        <time>2019-05-29T14:32:20Z</time>
      </trkpt>
      <trkpt lat="42.556439" lon="2.024616">
        <ele>1847.044</ele>
        <time>2019-05-29T14:32:21Z</time>
      </trkpt>
      <trkpt lat="42.556382" lon="2.024767">
        <ele>1846.832</ele>
        <time>2019-05-29T14:32:22Z</time>
      </trkpt>
      <trkpt lat="42.556211" lon="2.025216">
        <ele>1847.092</ele>
        <time>2019-05-29T14:32:25Z</time>
      </trkpt>
      <trkpt lat="42.556034" lon="2.025670">
        <ele>1845.411</ele>
        <time>2019-05-29T14:32:28Z</time>
      </trkpt>
      <trkpt lat="42.555924" lon="2.025970">
        <ele>1844.608</ele>
        <time>2019-05-29T14:32:30Z</time>
      </trkpt>
      <trkpt lat="42.555880" lon="2.026126">
        <ele>1844.636</ele>
        <time>2019-05-29T14:32:31Z</time>
      </trkpt>
      <trkpt lat="42.555796" lon="2.026425">
        <ele>1844.010</ele>
        <time>2019-05-29T14:32:33Z</time>
      </trkpt>
      <trkpt lat="42.555756" lon="2.026573">
        <ele>1843.416</ele>
        <time>2019-05-29T14:32:34Z</time>
      </trkpt>
      <trkpt lat="42.555719" lon="2.026718">
        <ele>1842.414</ele>
        <time>2019-05-29T14:32:35Z</time>
      </trkpt>
      <trkpt lat="42.555638" lon="2.026990">
        <ele>1841.217</ele>
        <time>2019-05-29T14:32:37Z</time>
      </trkpt>
      <trkpt lat="42.555570" lon="2.027246">
        <ele>1842.077</ele>
        <time>2019-05-29T14:32:39Z</time>
      </trkpt>
      <trkpt lat="42.555532" lon="2.027369">
        <ele>1842.429</ele>
        <time>2019-05-29T14:32:40Z</time>
      </trkpt>
      <trkpt lat="42.555356" lon="2.027864">
        <ele>1841.484</ele>
        <time>2019-05-29T14:32:44Z</time>
      </trkpt>
      <trkpt lat="42.555237" lon="2.028088">
        <ele>1840.036</ele>
        <time>2019-05-29T14:32:46Z</time>
      </trkpt>
      <trkpt lat="42.555169" lon="2.028186">
        <ele>1839.617</ele>
        <time>2019-05-29T14:32:47Z</time>
      </trkpt>
      <trkpt lat="42.555101" lon="2.028280">
        <ele>1839.418</ele>
        <time>2019-05-29T14:32:48Z</time>
      </trkpt>
      <trkpt lat="42.554963" lon="2.028482">
        <ele>1839.008</ele>
        <time>2019-05-29T14:32:50Z</time>
      </trkpt>
      <trkpt lat="42.554905" lon="2.028601">
        <ele>1838.276</ele>
        <time>2019-05-29T14:32:51Z</time>
      </trkpt>
      <trkpt lat="42.554859" lon="2.028727">
        <ele>1837.220</ele>
        <time>2019-05-29T14:32:52Z</time>
      </trkpt>
      <trkpt lat="42.554814" lon="2.028859">
        <ele>1836.076</ele>
        <time>2019-05-29T14:32:53Z</time>
      </trkpt>
      <trkpt lat="42.554784" lon="2.028997">
        <ele>1835.094</ele>
        <time>2019-05-29T14:32:54Z</time>
      </trkpt>
      <trkpt lat="42.554692" lon="2.029240">
        <ele>1833.497</ele>
        <time>2019-05-29T14:32:56Z</time>
      </trkpt>
      <trkpt lat="42.554521" lon="2.029396">
        <ele>1832.467</ele>
        <time>2019-05-29T14:32:58Z</time>
      </trkpt>
      <trkpt lat="42.554426" lon="2.029454">
        <ele>1831.689</ele>
        <time>2019-05-29T14:32:59Z</time>
      </trkpt>
      <trkpt lat="42.554333" lon="2.029509">
        <ele>1830.264</ele>
        <time>2019-05-29T14:33:00Z</time>
      </trkpt>
      <trkpt lat="42.554148" lon="2.029614">
        <ele>1828.861</ele>
        <time>2019-05-29T14:33:02Z</time>
      </trkpt>
      <trkpt lat="42.554057" lon="2.029675">
        <ele>1828.821</ele>
        <time>2019-05-29T14:33:03Z</time>
      </trkpt>
      <trkpt lat="42.553885" lon="2.029820">
        <ele>1828.213</ele>
        <time>2019-05-29T14:33:05Z</time>
      </trkpt>
      <trkpt lat="42.553805" lon="2.029901">
        <ele>1827.808</ele>
        <time>2019-05-29T14:33:06Z</time>
      </trkpt>
      <trkpt lat="42.553729" lon="2.029981">
        <ele>1827.439</ele>
        <time>2019-05-29T14:33:07Z</time>
      </trkpt>
      <trkpt lat="42.553579" lon="2.030132">
        <ele>1826.843</ele>
        <time>2019-05-29T14:33:09Z</time>
      </trkpt>
      <trkpt lat="42.553434" lon="2.030258">
        <ele>1824.849</ele>
        <time>2019-05-29T14:33:11Z</time>
      </trkpt>
      <trkpt lat="42.553362" lon="2.030324">
        <ele>1824.027</ele>
        <time>2019-05-29T14:33:12Z</time>
      </trkpt>
      <trkpt lat="42.553291" lon="2.030392">
        <ele>1823.070</ele>
        <time>2019-05-29T14:33:13Z</time>
      </trkpt>
      <trkpt lat="42.553167" lon="2.030554">
        <ele>1821.080</ele>
        <time>2019-05-29T14:33:15Z</time>
      </trkpt>
      <trkpt lat="42.553116" lon="2.030652">
        <ele>1820.082</ele>
        <time>2019-05-29T14:33:16Z</time>
      </trkpt>
      <trkpt lat="42.553069" lon="2.030760">
        <ele>1819.097</ele>
        <time>2019-05-29T14:33:17Z</time>
      </trkpt>
      <trkpt lat="42.553025" lon="2.030874">
        <ele>1818.022</ele>
        <time>2019-05-29T14:33:18Z</time>
      </trkpt>
      <trkpt lat="42.552980" lon="2.030992">
        <ele>1816.862</ele>
        <time>2019-05-29T14:33:19Z</time>
      </trkpt>
      <trkpt lat="42.552930" lon="2.031110">
        <ele>1815.608</ele>
        <time>2019-05-29T14:33:20Z</time>
      </trkpt>
      <trkpt lat="42.552876" lon="2.031228">
        <ele>1814.208</ele>
        <time>2019-05-29T14:33:21Z</time>
      </trkpt>
      <trkpt lat="42.552818" lon="2.031345">
        <ele>1812.825</ele>
        <time>2019-05-29T14:33:22Z</time>
      </trkpt>
      <trkpt lat="42.552764" lon="2.031464">
        <ele>1811.439</ele>
        <time>2019-05-29T14:33:23Z</time>
      </trkpt>
      <trkpt lat="42.552654" lon="2.031692">
        <ele>1809.625</ele>
        <time>2019-05-29T14:33:25Z</time>
      </trkpt>
      <trkpt lat="42.552597" lon="2.031797">
        <ele>1808.663</ele>
        <time>2019-05-29T14:33:26Z</time>
      </trkpt>
      <trkpt lat="42.552534" lon="2.031900">
        <ele>1807.656</ele>
        <time>2019-05-29T14:33:27Z</time>
      </trkpt>
      <trkpt lat="42.552462" lon="2.031995">
        <ele>1806.286</ele>
        <time>2019-05-29T14:33:28Z</time>
      </trkpt>
      <trkpt lat="42.552388" lon="2.032086">
        <ele>1805.048</ele>
        <time>2019-05-29T14:33:29Z</time>
      </trkpt>
      <trkpt lat="42.552323" lon="2.032180">
        <ele>1804.263</ele>
        <time>2019-05-29T14:33:30Z</time>
      </trkpt>
      <trkpt lat="42.552263" lon="2.032277">
        <ele>1803.439</ele>
        <time>2019-05-29T14:33:31Z</time>
      </trkpt>
      <trkpt lat="42.552183" lon="2.032503">
        <ele>1802.001</ele>
        <time>2019-05-29T14:33:33Z</time>
      </trkpt>
      <trkpt lat="42.552164" lon="2.032636">
        <ele>1800.021</ele>
        <time>2019-05-29T14:33:34Z</time>
      </trkpt>
      <trkpt lat="42.552153" lon="2.032775">
        <ele>1798.808</ele>
        <time>2019-05-29T14:33:35Z</time>
      </trkpt>
      <trkpt lat="42.552138" lon="2.032907">
        <ele>1797.646</ele>
        <time>2019-05-29T14:33:36Z</time>
      </trkpt>
      <trkpt lat="42.552117" lon="2.033039">
        <ele>1796.620</ele>
        <time>2019-05-29T14:33:37Z</time>
      </trkpt>
      <trkpt lat="42.552084" lon="2.033171">
        <ele>1795.476</ele>
        <time>2019-05-29T14:33:38Z</time>
      </trkpt>
      <trkpt lat="42.552051" lon="2.033311">
        <ele>1794.054</ele>
        <time>2019-05-29T14:33:39Z</time>
      </trkpt>
      <trkpt lat="42.552028" lon="2.033463">
        <ele>1792.277</ele>
        <time>2019-05-29T14:33:40Z</time>
      </trkpt>
      <trkpt lat="42.552027" lon="2.033613">
        <ele>1790.617</ele>
        <time>2019-05-29T14:33:41Z</time>
      </trkpt>
      <trkpt lat="42.552036" lon="2.033757">
        <ele>1789.469</ele>
        <time>2019-05-29T14:33:42Z</time>
      </trkpt>
      <trkpt lat="42.552042" lon="2.033898">
        <ele>1788.814</ele>
        <time>2019-05-29T14:33:43Z</time>
      </trkpt>
      <trkpt lat="42.552033" lon="2.034037">
        <ele>1787.815</ele>
        <time>2019-05-29T14:33:44Z</time>
      </trkpt>
      <trkpt lat="42.552011" lon="2.034173">
        <ele>1786.665</ele>
        <time>2019-05-29T14:33:45Z</time>
      </trkpt>
      <trkpt lat="42.551993" lon="2.034301">
        <ele>1785.411</ele>
        <time>2019-05-29T14:33:46Z</time>
      </trkpt>
      <trkpt lat="42.551985" lon="2.034428">
        <ele>1784.408</ele>
        <time>2019-05-29T14:33:47Z</time>
      </trkpt>
      <trkpt lat="42.551988" lon="2.034656">
        <ele>1782.864</ele>
        <time>2019-05-29T14:33:49Z</time>
      </trkpt>
      <trkpt lat="42.551972" lon="2.034754">
        <ele>1782.448</ele>
        <time>2019-05-29T14:33:50Z</time>
      </trkpt>
      <trkpt lat="42.551870" lon="2.034887">
        <ele>1781.414</ele>
        <time>2019-05-29T14:33:52Z</time>
      </trkpt>
      <trkpt lat="42.551710" lon="2.034961">
        <ele>1779.422</ele>
        <time>2019-05-29T14:33:54Z</time>
      </trkpt>
      <trkpt lat="42.551624" lon="2.034990">
        <ele>1778.295</ele>
        <time>2019-05-29T14:33:55Z</time>
      </trkpt>
      <trkpt lat="42.551486" lon="2.035051">
        <ele>1776.435</ele>
        <time>2019-05-29T14:33:57Z</time>
      </trkpt>
      <trkpt lat="42.551430" lon="2.035099">
        <ele>1775.687</ele>
        <time>2019-05-29T14:33:58Z</time>
      </trkpt>
      <trkpt lat="42.551380" lon="2.035169">
        <ele>1774.822</ele>
        <time>2019-05-29T14:33:59Z</time>
      </trkpt>
      <trkpt lat="42.551332" lon="2.035255">
        <ele>1773.646</ele>
        <time>2019-05-29T14:34:00Z</time>
      </trkpt>
      <trkpt lat="42.551280" lon="2.035352">
        <ele>1772.288</ele>
        <time>2019-05-29T14:34:01Z</time>
      </trkpt>
      <trkpt lat="42.551225" lon="2.035451">
        <ele>1770.816</ele>
        <time>2019-05-29T14:34:02Z</time>
      </trkpt>
      <trkpt lat="42.551175" lon="2.035544">
        <ele>1769.808</ele>
        <time>2019-05-29T14:34:03Z</time>
      </trkpt>
      <trkpt lat="42.551066" lon="2.035730">
        <ele>1767.817</ele>
        <time>2019-05-29T14:34:05Z</time>
      </trkpt>
      <trkpt lat="42.551015" lon="2.035812">
        <ele>1766.871</ele>
        <time>2019-05-29T14:34:06Z</time>
      </trkpt>
      <trkpt lat="42.550883" lon="2.035999">
        <ele>1766.477</ele>
        <time>2019-05-29T14:34:09Z</time>
      </trkpt>
      <trkpt lat="42.550837" lon="2.036046">
        <ele>1765.685</ele>
        <time>2019-05-29T14:34:10Z</time>
      </trkpt>
      <trkpt lat="42.550724" lon="2.036080">
        <ele>1763.628</ele>
        <time>2019-05-29T14:34:12Z</time>
      </trkpt>
      <trkpt lat="42.550617" lon="2.036028">
        <ele>1761.898</ele>
        <time>2019-05-29T14:34:14Z</time>
      </trkpt>
      <trkpt lat="42.550575" lon="2.035961">
        <ele>1761.070</ele>
        <time>2019-05-29T14:34:15Z</time>
      </trkpt>
      <trkpt lat="42.550542" lon="2.035876">
        <ele>1760.085</ele>
        <time>2019-05-29T14:34:16Z</time>
      </trkpt>
      <trkpt lat="42.550490" lon="2.035683">
        <ele>1759.067</ele>
        <time>2019-05-29T14:34:18Z</time>
      </trkpt>
      <trkpt lat="42.550466" lon="2.035583">
        <ele>1758.481</ele>
        <time>2019-05-29T14:34:19Z</time>
      </trkpt>
      <trkpt lat="42.550437" lon="2.035491">
        <ele>1757.619</ele>
        <time>2019-05-29T14:34:20Z</time>
      </trkpt>
      <trkpt lat="42.550400" lon="2.035412">
        <ele>1756.208</ele>
        <time>2019-05-29T14:34:21Z</time>
      </trkpt>
      <trkpt lat="42.550350" lon="2.035341">
        <ele>1754.479</ele>
        <time>2019-05-29T14:34:22Z</time>
      </trkpt>
      <trkpt lat="42.550234" lon="2.035287">
        <ele>1752.633</ele>
        <time>2019-05-29T14:34:24Z</time>
      </trkpt>
      <trkpt lat="42.550139" lon="2.035382">
        <ele>1751.879</ele>
        <time>2019-05-29T14:34:26Z</time>
      </trkpt>
      <trkpt lat="42.550118" lon="2.035470">
        <ele>1751.057</ele>
        <time>2019-05-29T14:34:27Z</time>
      </trkpt>
      <trkpt lat="42.550106" lon="2.035563">
        <ele>1749.830</ele>
        <time>2019-05-29T14:34:28Z</time>
      </trkpt>
      <trkpt lat="42.550084" lon="2.035641">
        <ele>1748.890</ele>
        <time>2019-05-29T14:34:29Z</time>
      </trkpt>
      <trkpt lat="42.549984" lon="2.035718">
        <ele>1748.042</ele>
        <time>2019-05-29T14:34:31Z</time>
      </trkpt>
      <trkpt lat="42.549918" lon="2.035701">
        <ele>1747.297</ele>
        <time>2019-05-29T14:34:32Z</time>
      </trkpt>
      <trkpt lat="42.549855" lon="2.035657">
        <ele>1746.023</ele>
        <time>2019-05-29T14:34:33Z</time>
      </trkpt>
      <trkpt lat="42.549801" lon="2.035611">
        <ele>1744.883</ele>
        <time>2019-05-29T14:34:34Z</time>
      </trkpt>
      <trkpt lat="42.549755" lon="2.035561">
        <ele>1743.611</ele>
        <time>2019-05-29T14:34:35Z</time>
      </trkpt>
      <trkpt lat="42.549707" lon="2.035413">
        <ele>1742.208</ele>
        <time>2019-05-29T14:34:37Z</time>
      </trkpt>
      <trkpt lat="42.549711" lon="2.035200">
        <ele>1740.855</ele>
        <time>2019-05-29T14:34:39Z</time>
      </trkpt>
      <trkpt lat="42.549701" lon="2.035101">
        <ele>1740.079</ele>
        <time>2019-05-29T14:34:40Z</time>
      </trkpt>
      <trkpt lat="42.549677" lon="2.035021">
        <ele>1739.655</ele>
        <time>2019-05-29T14:34:41Z</time>
      </trkpt>
      <trkpt lat="42.549631" lon="2.034952">
        <ele>1739.043</ele>
        <time>2019-05-29T14:34:42Z</time>
      </trkpt>
      <trkpt lat="42.549568" lon="2.034904">
        <ele>1738.486</ele>
        <time>2019-05-29T14:34:43Z</time>
      </trkpt>
      <trkpt lat="42.549432" lon="2.034877">
        <ele>1737.026</ele>
        <time>2019-05-29T14:34:45Z</time>
      </trkpt>
      <trkpt lat="42.549374" lon="2.034918">
        <ele>1735.628</ele>
        <time>2019-05-29T14:34:46Z</time>
      </trkpt>
      <trkpt lat="42.549323" lon="2.034986">
        <ele>1734.813</ele>
        <time>2019-05-29T14:34:47Z</time>
      </trkpt>
      <trkpt lat="42.549274" lon="2.035069">
        <ele>1733.859</ele>
        <time>2019-05-29T14:34:48Z</time>
      </trkpt>
      <trkpt lat="42.549231" lon="2.035161">
        <ele>1732.603</ele>
        <time>2019-05-29T14:34:49Z</time>
      </trkpt>
      <trkpt lat="42.549189" lon="2.035256">
        <ele>1732.023</ele>
        <time>2019-05-29T14:34:50Z</time>
      </trkpt>
      <trkpt lat="42.549151" lon="2.035355">
        <ele>1731.808</ele>
        <time>2019-05-29T14:34:51Z</time>
      </trkpt>
      <trkpt lat="42.549074" lon="2.035553">
        <ele>1731.658</ele>
        <time>2019-05-29T14:34:53Z</time>
      </trkpt>
      <trkpt lat="42.549003" lon="2.035767">
        <ele>1730.062</ele>
        <time>2019-05-29T14:34:55Z</time>
      </trkpt>
      <trkpt lat="42.548957" lon="2.035982">
        <ele>1729.028</ele>
        <time>2019-05-29T14:34:57Z</time>
      </trkpt>
      <trkpt lat="42.548925" lon="2.036322">
        <ele>1727.876</ele>
        <time>2019-05-29T14:35:00Z</time>
      </trkpt>
      <trkpt lat="42.548930" lon="2.036528">
        <ele>1726.699</ele>
        <time>2019-05-29T14:35:02Z</time>
      </trkpt>
      <trkpt lat="42.548997" lon="2.036712">
        <ele>1725.629</ele>
        <time>2019-05-29T14:35:04Z</time>
      </trkpt>
      <trkpt lat="42.549042" lon="2.036789">
        <ele>1725.021</ele>
        <time>2019-05-29T14:35:05Z</time>
      </trkpt>
      <trkpt lat="42.549081" lon="2.036869">
        <ele>1724.236</ele>
        <time>2019-05-29T14:35:06Z</time>
      </trkpt>
      <trkpt lat="42.549106" lon="2.037051">
        <ele>1723.075</ele>
        <time>2019-05-29T14:35:08Z</time>
      </trkpt>
      <trkpt lat="42.549059" lon="2.037209">
        <ele>1720.828</ele>
        <time>2019-05-29T14:35:10Z</time>
      </trkpt>
      <trkpt lat="42.549002" lon="2.037266">
        <ele>1719.820</ele>
        <time>2019-05-29T14:35:11Z</time>
      </trkpt>
      <trkpt lat="42.548935" lon="2.037309">
        <ele>1718.608</ele>
        <time>2019-05-29T14:35:12Z</time>
      </trkpt>
      <trkpt lat="42.548860" lon="2.037343">
        <ele>1717.220</ele>
        <time>2019-05-29T14:35:13Z</time>
      </trkpt>
      <trkpt lat="42.548782" lon="2.037375">
        <ele>1716.274</ele>
        <time>2019-05-29T14:35:14Z</time>
      </trkpt>
      <trkpt lat="42.548700" lon="2.037419">
        <ele>1715.480</ele>
        <time>2019-05-29T14:35:15Z</time>
      </trkpt>
      <trkpt lat="42.548544" lon="2.037533">
        <ele>1713.668</ele>
        <time>2019-05-29T14:35:17Z</time>
      </trkpt>
      <trkpt lat="42.548469" lon="2.037594">
        <ele>1713.031</ele>
        <time>2019-05-29T14:35:18Z</time>
      </trkpt>
      <trkpt lat="42.548389" lon="2.037660">
        <ele>1712.451</ele>
        <time>2019-05-29T14:35:19Z</time>
      </trkpt>
      <trkpt lat="42.548238" lon="2.037768">
        <ele>1710.643</ele>
        <time>2019-05-29T14:35:21Z</time>
      </trkpt>
      <trkpt lat="42.548093" lon="2.037855">
        <ele>1708.838</ele>
        <time>2019-05-29T14:35:23Z</time>
      </trkpt>
      <trkpt lat="42.548029" lon="2.037900">
        <ele>1707.889</ele>
        <time>2019-05-29T14:35:24Z</time>
      </trkpt>
      <trkpt lat="42.547976" lon="2.037955">
        <ele>1707.206</ele>
        <time>2019-05-29T14:35:25Z</time>
      </trkpt>
      <trkpt lat="42.547934" lon="2.038024">
        <ele>1706.626</ele>
        <time>2019-05-29T14:35:26Z</time>
      </trkpt>
      <trkpt lat="42.547901" lon="2.038114">
        <ele>1705.808</ele>
        <time>2019-05-29T14:35:27Z</time>
      </trkpt>
      <trkpt lat="42.547844" lon="2.038324">
        <ele>1704.041</ele>
        <time>2019-05-29T14:35:29Z</time>
      </trkpt>
      <trkpt lat="42.547796" lon="2.038542">
        <ele>1702.455</ele>
        <time>2019-05-29T14:35:31Z</time>
      </trkpt>
      <trkpt lat="42.547736" lon="2.038737">
        <ele>1701.811</ele>
        <time>2019-05-29T14:35:33Z</time>
      </trkpt>
      <trkpt lat="42.547688" lon="2.038829">
        <ele>1701.469</ele>
        <time>2019-05-29T14:35:34Z</time>
      </trkpt>
      <trkpt lat="42.547560" lon="2.039002">
        <ele>1700.062</ele>
        <time>2019-05-29T14:35:36Z</time>
      </trkpt>
      <trkpt lat="42.547485" lon="2.039085">
        <ele>1699.042</ele>
        <time>2019-05-29T14:35:37Z</time>
      </trkpt>
      <trkpt lat="42.547326" lon="2.039251">
        <ele>1696.834</ele>
        <time>2019-05-29T14:35:39Z</time>
      </trkpt>
      <trkpt lat="42.547168" lon="2.039400">
        <ele>1695.219</ele>
        <time>2019-05-29T14:35:41Z</time>
      </trkpt>
      <trkpt lat="42.547088" lon="2.039465">
        <ele>1695.022</ele>
        <time>2019-05-29T14:35:42Z</time>
      </trkpt>
      <trkpt lat="42.546935" lon="2.039602">
        <ele>1694.262</ele>
        <time>2019-05-29T14:35:44Z</time>
      </trkpt>
      <trkpt lat="42.546868" lon="2.039675">
        <ele>1694.008</ele>
        <time>2019-05-29T14:35:45Z</time>
      </trkpt>
      <trkpt lat="42.546752" lon="2.039831">
        <ele>1693.408</ele>
        <time>2019-05-29T14:35:47Z</time>
      </trkpt>
      <trkpt lat="42.546700" lon="2.039906">
        <ele>1693.225</ele>
        <time>2019-05-29T14:35:48Z</time>
      </trkpt>
      <trkpt lat="42.546577" lon="2.040106">
        <ele>1693.859</ele>
        <time>2019-05-29T14:35:51Z</time>
      </trkpt>
      <trkpt lat="42.546502" lon="2.040210">
        <ele>1693.865</ele>
        <time>2019-05-29T14:35:53Z</time>
      </trkpt>
      <trkpt lat="42.546378" lon="2.040331">
        <ele>1693.253</ele>
        <time>2019-05-29T14:35:56Z</time>
      </trkpt>
      <trkpt lat="42.546307" lon="2.040399">
        <ele>1692.066</ele>
        <time>2019-05-29T14:35:58Z</time>
      </trkpt>
      <trkpt lat="42.546212" lon="2.040539">
        <ele>1691.096</ele>
        <time>2019-05-29T14:36:01Z</time>
      </trkpt>
      <trkpt lat="42.546176" lon="2.040589">
        <ele>1690.698</ele>
        <time>2019-05-29T14:36:02Z</time>
      </trkpt>
      <trkpt lat="42.546062" lon="2.040758">
        <ele>1689.653</ele>
        <time>2019-05-29T14:36:05Z</time>
      </trkpt>
      <trkpt lat="42.546019" lon="2.040809">
        <ele>1688.694</ele>
        <time>2019-05-29T14:36:06Z</time>
      </trkpt>
      <trkpt lat="42.545813" lon="2.041049">
        <ele>1688.257</ele>
        <time>2019-05-29T14:36:11Z</time>
      </trkpt>
      <trkpt lat="42.545728" lon="2.041151">
        <ele>1687.022</ele>
        <time>2019-05-29T14:36:13Z</time>
      </trkpt>
      <trkpt lat="42.545536" lon="2.041354">
        <ele>1686.008</ele>
        <time>2019-05-29T14:36:17Z</time>
      </trkpt>
      <trkpt lat="42.545482" lon="2.041390">
        <ele>1685.662</ele>
        <time>2019-05-29T14:36:18Z</time>
      </trkpt>
      <trkpt lat="42.545427" lon="2.041423">
        <ele>1684.826</ele>
        <time>2019-05-29T14:36:19Z</time>
      </trkpt>
      <trkpt lat="42.545324" lon="2.041477">
        <ele>1683.452</ele>
        <time>2019-05-29T14:36:21Z</time>
      </trkpt>
      <trkpt lat="42.545177" lon="2.041522">
        <ele>1684.290</ele>
        <time>2019-05-29T14:36:24Z</time>
      </trkpt>
      <trkpt lat="42.545131" lon="2.041528">
        <ele>1684.823</ele>
        <time>2019-05-29T14:36:25Z</time>
      </trkpt>
      <trkpt lat="42.545013" lon="2.041503">
        <ele>1685.823</ele>
        <time>2019-05-29T14:36:28Z</time>
      </trkpt>
      <trkpt lat="42.544984" lon="2.041484">
        <ele>1686.285</ele>
        <time>2019-05-29T14:36:29Z</time>
      </trkpt>
      <trkpt lat="42.544944" lon="2.041441">
        <ele>1687.230</ele>
        <time>2019-05-29T14:36:31Z</time>
      </trkpt>
      <trkpt lat="42.544929" lon="2.041422">
        <ele>1687.618</ele>
        <time>2019-05-29T14:36:32Z</time>
      </trkpt>
      <trkpt lat="42.544913" lon="2.041404">
        <ele>1687.898</ele>
        <time>2019-05-29T14:36:33Z</time>
      </trkpt>
      <trkpt lat="42.544798" lon="2.041326">
        <ele>1687.217</ele>
        <time>2019-05-29T14:36:37Z</time>
      </trkpt>
      <trkpt lat="42.544569" lon="2.041292">
        <ele>1685.608</ele>
        <time>2019-05-29T14:36:43Z</time>
      </trkpt>
      <trkpt lat="42.544318" lon="2.041262">
        <ele>1685.044</ele>
        <time>2019-05-29T14:36:49Z</time>
      </trkpt>
      <trkpt lat="42.544274" lon="2.041256">
        <ele>1684.698</ele>
        <time>2019-05-29T14:36:50Z</time>
      </trkpt>
      <trkpt lat="42.544058" lon="2.041239">
        <ele>1685.234</ele>
        <time>2019-05-29T14:36:55Z</time>
      </trkpt>
      <trkpt lat="42.543710" lon="2.041210">
        <ele>1686.462</ele>
        <time>2019-05-29T14:37:03Z</time>
      </trkpt>
      <trkpt lat="42.543592" lon="2.041198">
        <ele>1684.295</ele>
        <time>2019-05-29T14:37:06Z</time>
      </trkpt>
      <trkpt lat="42.543467" lon="2.041190">
        <ele>1683.875</ele>
        <time>2019-05-29T14:37:09Z</time>
      </trkpt>
      <trkpt lat="42.543424" lon="2.041183">
        <ele>1683.857</ele>
        <time>2019-05-29T14:37:10Z</time>
      </trkpt>
      <trkpt lat="42.543240" lon="2.041158">
        <ele>1683.022</ele>
        <time>2019-05-29T14:37:14Z</time>
      </trkpt>
      <trkpt lat="42.543095" lon="2.041148">
        <ele>1682.419</ele>
        <time>2019-05-29T14:37:17Z</time>
      </trkpt>
      <trkpt lat="42.542904" lon="2.041151">
        <ele>1681.409</ele>
        <time>2019-05-29T14:37:21Z</time>
      </trkpt>
      <trkpt lat="42.542766" lon="2.041195">
        <ele>1682.419</ele>
        <time>2019-05-29T14:37:24Z</time>
      </trkpt>
      <trkpt lat="42.542637" lon="2.041316">
        <ele>1683.008</ele>
        <time>2019-05-29T14:37:28Z</time>
      </trkpt>
      <trkpt lat="42.542597" lon="2.041379">
        <ele>1683.484</ele>
        <time>2019-05-29T14:37:30Z</time>
      </trkpt>
      <trkpt lat="42.542581" lon="2.041408">
        <ele>1683.818</ele>
        <time>2019-05-29T14:37:31Z</time>
      </trkpt>
      <trkpt lat="42.542541" lon="2.041517">
        <ele>1684.474</ele>
        <time>2019-05-29T14:37:34Z</time>
      </trkpt>
      <trkpt lat="42.542501" lon="2.041701">
        <ele>1684.862</ele>
        <time>2019-05-29T14:37:39Z</time>
      </trkpt>
      <trkpt lat="42.542494" lon="2.041741">
        <ele>1684.875</ele>
        <time>2019-05-29T14:37:40Z</time>
      </trkpt>
      <trkpt lat="42.542456" lon="2.042077">
        <ele>1684.865</ele>
        <time>2019-05-29T14:37:48Z</time>
      </trkpt>
      <trkpt lat="42.542431" lon="2.042289">
        <ele>1685.627</ele>
        <time>2019-05-29T14:37:54Z</time>
      </trkpt>
      <trkpt lat="42.542426" lon="2.042322">
        <ele>1685.882</ele>
        <time>2019-05-29T14:37:55Z</time>
      </trkpt>
      <trkpt lat="42.542393" lon="2.042454">
        <ele>1687.035</ele>
        <time>2019-05-29T14:37:59Z</time>
      </trkpt>
      <trkpt lat="42.542385" lon="2.042519">
        <ele>1687.286</ele>
        <time>2019-05-29T14:38:01Z</time>
      </trkpt>
      <trkpt lat="42.542367" lon="2.042615">
        <ele>1688.214</ele>
        <time>2019-05-29T14:38:04Z</time>
      </trkpt>
      <trkpt lat="42.542346" lon="2.042701">
        <ele>1688.608</ele>
        <time>2019-05-29T14:38:07Z</time>
      </trkpt>
      <trkpt lat="42.542333" lon="2.042761">
        <ele>1689.226</ele>
        <time>2019-05-29T14:38:09Z</time>
      </trkpt>
      <trkpt lat="42.542321" lon="2.042850">
        <ele>1689.860</ele>
        <time>2019-05-29T14:38:12Z</time>
      </trkpt>
      <trkpt lat="42.542303" lon="2.042943">
        <ele>1690.466</ele>
        <time>2019-05-29T14:38:15Z</time>
      </trkpt>
      <trkpt lat="42.542277" lon="2.043101">
        <ele>1691.264</ele>
        <time>2019-05-29T14:38:20Z</time>
      </trkpt>
      <trkpt lat="42.542274" lon="2.043127">
        <ele>1691.437</ele>
        <time>2019-05-29T14:38:21Z</time>
      </trkpt>
      <trkpt lat="42.542270" lon="2.043215">
        <ele>1692.437</ele>
        <time>2019-05-29T14:38:24Z</time>
      </trkpt>
      <trkpt lat="42.542259" lon="2.043307">
        <ele>1693.229</ele>
        <time>2019-05-29T14:38:27Z</time>
      </trkpt>
      <trkpt lat="42.542225" lon="2.043443">
        <ele>1693.624</ele>
        <time>2019-05-29T14:38:31Z</time>
      </trkpt>
      <trkpt lat="42.542199" lon="2.043531">
        <ele>1694.247</ele>
        <time>2019-05-29T14:38:34Z</time>
      </trkpt>
      <trkpt lat="42.542149" lon="2.043635">
        <ele>1694.829</ele>
        <time>2019-05-29T14:38:38Z</time>
      </trkpt>
      <trkpt lat="42.542108" lon="2.043719">
        <ele>1695.221</ele>
        <time>2019-05-29T14:38:41Z</time>
      </trkpt>
      <trkpt lat="42.542083" lon="2.043766">
        <ele>1695.808</ele>
        <time>2019-05-29T14:38:43Z</time>
      </trkpt>
      <trkpt lat="42.542040" lon="2.043851">
        <ele>1696.687</ele>
        <time>2019-05-29T14:38:47Z</time>
      </trkpt>
      <trkpt lat="42.542031" lon="2.043876">
        <ele>1696.811</ele>
        <time>2019-05-29T14:38:48Z</time>
      </trkpt>
      <trkpt lat="42.541970" lon="2.043956">
        <ele>1697.067</ele>
        <time>2019-05-29T14:38:53Z</time>
      </trkpt>
      <trkpt lat="42.541884" lon="2.044086">
        <ele>1698.015</ele>
        <time>2019-05-29T14:39:00Z</time>
      </trkpt>
      <trkpt lat="42.541802" lon="2.044211">
        <ele>1698.658</ele>
        <time>2019-05-29T14:39:07Z</time>
      </trkpt>
      <trkpt lat="42.541759" lon="2.044251">
        <ele>1699.028</ele>
        <time>2019-05-29T14:39:10Z</time>
      </trkpt>
      <trkpt lat="42.541746" lon="2.044269">
        <ele>1699.280</ele>
        <time>2019-05-29T14:39:11Z</time>
      </trkpt>
      <trkpt lat="42.541732" lon="2.044288">
        <ele>1699.285</ele>
        <time>2019-05-29T14:39:12Z</time>
      </trkpt>
      <trkpt lat="42.541667" lon="2.044374">
        <ele>1700.251</ele>
        <time>2019-05-29T14:39:17Z</time>
      </trkpt>
      <trkpt lat="42.541555" lon="2.044492">
        <ele>1700.801</ele>
        <time>2019-05-29T14:39:25Z</time>
      </trkpt>
      <trkpt lat="42.541530" lon="2.044529">
        <ele>1700.611</ele>
        <time>2019-05-29T14:39:27Z</time>
      </trkpt>
      <trkpt lat="42.541489" lon="2.044584">
        <ele>1700.608</ele>
        <time>2019-05-29T14:39:30Z</time>
      </trkpt>
      <trkpt lat="42.541475" lon="2.044603">
        <ele>1700.628</ele>
        <time>2019-05-29T14:39:31Z</time>
      </trkpt>
      <trkpt lat="42.541408" lon="2.044678">
        <ele>1701.212</ele>
        <time>2019-05-29T14:39:35Z</time>
      </trkpt>
      <trkpt lat="42.541390" lon="2.044699">
        <ele>1701.278</ele>
        <time>2019-05-29T14:39:36Z</time>
      </trkpt>
      <trkpt lat="42.541229" lon="2.044873">
        <ele>1701.416</ele>
        <time>2019-05-29T14:39:43Z</time>
      </trkpt>
      <trkpt lat="42.541090" lon="2.045014">
        <ele>1700.819</ele>
        <time>2019-05-29T14:39:48Z</time>
      </trkpt>
      <trkpt lat="42.540977" lon="2.045203">
        <ele>1700.429</ele>
        <time>2019-05-29T14:39:53Z</time>
      </trkpt>
      <trkpt lat="42.540857" lon="2.045435">
        <ele>1700.261</ele>
        <time>2019-05-29T14:39:59Z</time>
      </trkpt>
      <trkpt lat="42.540820" lon="2.045519">
        <ele>1700.276</ele>
        <time>2019-05-29T14:40:01Z</time>
      </trkpt>
      <trkpt lat="42.540663" lon="2.045815">
        <ele>1699.657</ele>
        <time>2019-05-29T14:40:08Z</time>
      </trkpt>
      <trkpt lat="42.540529" lon="2.046051">
        <ele>1700.000</ele>
        <time>2019-05-29T14:40:14Z</time>
      </trkpt>
      <trkpt lat="42.540409" lon="2.046313">
        <ele>1700.620</ele>
        <time>2019-05-29T14:40:20Z</time>
      </trkpt>
      <trkpt lat="42.540333" lon="2.046505">
        <ele>1700.408</ele>
        <time>2019-05-29T14:40:25Z</time>
      </trkpt>
      <trkpt lat="42.540223" lon="2.046763">
        <ele>1699.468</ele>
        <time>2019-05-29T14:40:30Z</time>
      </trkpt>
      <trkpt lat="42.540180" lon="2.046864">
        <ele>1699.282</ele>
        <time>2019-05-29T14:40:32Z</time>
      </trkpt>
      <trkpt lat="42.540168" lon="2.046918">
        <ele>1699.438</ele>
        <time>2019-05-29T14:40:33Z</time>
      </trkpt>
      <trkpt lat="42.540143" lon="2.047026">
        <ele>1699.436</ele>
        <time>2019-05-29T14:40:35Z</time>
      </trkpt>
      <trkpt lat="42.540124" lon="2.047075">
        <ele>1699.659</ele>
        <time>2019-05-29T14:40:36Z</time>
      </trkpt>
      <trkpt lat="42.540064" lon="2.047284">
        <ele>1701.039</ele>
        <time>2019-05-29T14:40:41Z</time>
      </trkpt>
      <trkpt lat="42.540050" lon="2.047321">
        <ele>1701.441</ele>
        <time>2019-05-29T14:40:42Z</time>
      </trkpt>
      <trkpt lat="42.539983" lon="2.047449">
        <ele>1702.676</ele>
        <time>2019-05-29T14:40:46Z</time>
      </trkpt>
      <trkpt lat="42.539963" lon="2.047478">
        <ele>1702.479</ele>
        <time>2019-05-29T14:40:47Z</time>
      </trkpt>
      <trkpt lat="42.539798" lon="2.047668">
        <ele>1703.805</ele>
        <time>2019-05-29T14:40:54Z</time>
      </trkpt>
      <trkpt lat="42.539588" lon="2.047863">
        <ele>1703.825</ele>
        <time>2019-05-29T14:41:01Z</time>
      </trkpt>
      <trkpt lat="42.539430" lon="2.048048">
        <ele>1704.008</ele>
        <time>2019-05-29T14:41:07Z</time>
      </trkpt>
      <trkpt lat="42.539258" lon="2.048239">
        <ele>1703.610</ele>
        <time>2019-05-29T14:41:13Z</time>
      </trkpt>
      <trkpt lat="42.539222" lon="2.048277">
        <ele>1703.684</ele>
        <time>2019-05-29T14:41:14Z</time>
      </trkpt>
      <trkpt lat="42.539036" lon="2.048500">
        <ele>1702.690</ele>
        <time>2019-05-29T14:41:19Z</time>
      </trkpt>
      <trkpt lat="42.538979" lon="2.048599">
        <ele>1702.688</ele>
        <time>2019-05-29T14:41:21Z</time>
      </trkpt>
      <trkpt lat="42.538957" lon="2.048650">
        <ele>1702.811</ele>
        <time>2019-05-29T14:41:22Z</time>
      </trkpt>
      <trkpt lat="42.538912" lon="2.048813">
        <ele>1703.061</ele>
        <time>2019-05-29T14:41:25Z</time>
      </trkpt>
      <trkpt lat="42.538894" lon="2.048870">
        <ele>1703.243</ele>
        <time>2019-05-29T14:41:26Z</time>
      </trkpt>
      <trkpt lat="42.538781" lon="2.049178">
        <ele>1703.818</ele>
        <time>2019-05-29T14:41:32Z</time>
      </trkpt>
      <trkpt lat="42.538760" lon="2.049226">
        <ele>1703.831</ele>
        <time>2019-05-29T14:41:33Z</time>
      </trkpt>
      <trkpt lat="42.538647" lon="2.049561">
        <ele>1703.861</ele>
        <time>2019-05-29T14:41:40Z</time>
      </trkpt>
      <trkpt lat="42.538607" lon="2.049687">
        <ele>1705.007</ele>
        <time>2019-05-29T14:41:43Z</time>
      </trkpt>
      <trkpt lat="42.538559" lon="2.049793">
        <ele>1705.608</ele>
        <time>2019-05-29T14:41:46Z</time>
      </trkpt>
      <trkpt lat="42.538541" lon="2.049827">
        <ele>1706.016</ele>
        <time>2019-05-29T14:41:47Z</time>
      </trkpt>
      <trkpt lat="42.538399" lon="2.050052">
        <ele>1707.280</ele>
        <time>2019-05-29T14:41:54Z</time>
      </trkpt>
      <trkpt lat="42.538267" lon="2.050170">
        <ele>1707.446</ele>
        <time>2019-05-29T14:41:59Z</time>
      </trkpt>
      <trkpt lat="42.538068" lon="2.050316">
        <ele>1706.884</ele>
        <time>2019-05-29T14:42:05Z</time>
      </trkpt>
      <trkpt lat="42.538034" lon="2.050348">
        <ele>1706.697</ele>
        <time>2019-05-29T14:42:06Z</time>
      </trkpt>
      <trkpt lat="42.537926" lon="2.050534">
        <ele>1706.047</ele>
        <time>2019-05-29T14:42:10Z</time>
      </trkpt>
      <trkpt lat="42.537909" lon="2.050646">
        <ele>1705.899</ele>
        <time>2019-05-29T14:42:12Z</time>
      </trkpt>
      <trkpt lat="42.537883" lon="2.050810">
        <ele>1705.864</ele>
        <time>2019-05-29T14:42:15Z</time>
      </trkpt>
      <trkpt lat="42.537828" lon="2.051207">
        <ele>1705.692</ele>
        <time>2019-05-29T14:42:22Z</time>
      </trkpt>
      <trkpt lat="42.537796" lon="2.051623">
        <ele>1706.073</ele>
        <time>2019-05-29T14:42:29Z</time>
      </trkpt>
      <trkpt lat="42.537743" lon="2.052109">
        <ele>1706.020</ele>
        <time>2019-05-29T14:42:37Z</time>
      </trkpt>
      <trkpt lat="42.537641" lon="2.052597">
        <ele>1705.608</ele>
        <time>2019-05-29T14:42:44Z</time>
      </trkpt>
      <trkpt lat="42.537604" lon="2.052731">
        <ele>1706.272</ele>
        <time>2019-05-29T14:42:46Z</time>
      </trkpt>
      <trkpt lat="42.537547" lon="2.052907">
        <ele>1706.236</ele>
        <time>2019-05-29T14:42:49Z</time>
      </trkpt>
      <trkpt lat="42.537495" lon="2.053083">
        <ele>1705.892</ele>
        <time>2019-05-29T14:42:52Z</time>
      </trkpt>
      <trkpt lat="42.537467" lon="2.053200">
        <ele>1706.670</ele>
        <time>2019-05-29T14:42:54Z</time>
      </trkpt>
      <trkpt lat="42.537449" lon="2.053261">
        <ele>1706.643</ele>
        <time>2019-05-29T14:42:55Z</time>
      </trkpt>
      <trkpt lat="42.537417" lon="2.053391">
        <ele>1706.243</ele>
        <time>2019-05-29T14:42:57Z</time>
      </trkpt>
      <trkpt lat="42.537344" lon="2.053577">
        <ele>1706.225</ele>
        <time>2019-05-29T14:43:00Z</time>
      </trkpt>
      <trkpt lat="42.537279" lon="2.053770">
        <ele>1705.820</ele>
        <time>2019-05-29T14:43:03Z</time>
      </trkpt>
      <trkpt lat="42.537214" lon="2.053900">
        <ele>1705.891</ele>
        <time>2019-05-29T14:43:05Z</time>
      </trkpt>
      <trkpt lat="42.537074" lon="2.054173">
        <ele>1705.281</ele>
        <time>2019-05-29T14:43:09Z</time>
      </trkpt>
      <trkpt lat="42.537040" lon="2.054238">
        <ele>1705.019</ele>
        <time>2019-05-29T14:43:10Z</time>
      </trkpt>
      <trkpt lat="42.536886" lon="2.054509">
        <ele>1705.008</ele>
        <time>2019-05-29T14:43:15Z</time>
      </trkpt>
      <trkpt lat="42.536735" lon="2.054762">
        <ele>1706.052</ele>
        <time>2019-05-29T14:43:21Z</time>
      </trkpt>
      <trkpt lat="42.536625" lon="2.055033">
        <ele>1706.886</ele>
        <time>2019-05-29T14:43:28Z</time>
      </trkpt>
      <trkpt lat="42.536617" lon="2.055072">
        <ele>1707.012</ele>
        <time>2019-05-29T14:43:29Z</time>
      </trkpt>
      <trkpt lat="42.536586" lon="2.055315">
        <ele>1708.050</ele>
        <time>2019-05-29T14:43:35Z</time>
      </trkpt>
      <trkpt lat="42.536578" lon="2.055574">
        <ele>1708.823</ele>
        <time>2019-05-29T14:43:41Z</time>
      </trkpt>
      <trkpt lat="42.536581" lon="2.055619">
        <ele>1709.413</ele>
        <time>2019-05-29T14:43:42Z</time>
      </trkpt>
      <trkpt lat="42.536597" lon="2.055841">
        <ele>1709.895</ele>
        <time>2019-05-29T14:43:47Z</time>
      </trkpt>
      <trkpt lat="42.536618" lon="2.056090">
        <ele>1710.450</ele>
        <time>2019-05-29T14:43:52Z</time>
      </trkpt>
      <trkpt lat="42.536618" lon="2.056194">
        <ele>1710.465</ele>
        <time>2019-05-29T14:43:54Z</time>
      </trkpt>
      <trkpt lat="42.536606" lon="2.056440">
        <ele>1711.868</ele>
        <time>2019-05-29T14:43:59Z</time>
      </trkpt>
      <trkpt lat="42.536603" lon="2.056482">
        <ele>1711.814</ele>
        <time>2019-05-29T14:44:00Z</time>
      </trkpt>
      <trkpt lat="42.536545" lon="2.056792">
        <ele>1711.608</ele>
        <time>2019-05-29T14:44:07Z</time>
      </trkpt>
      <trkpt lat="42.536450" lon="2.057018">
        <ele>1710.839</ele>
        <time>2019-05-29T14:44:12Z</time>
      </trkpt>
      <trkpt lat="42.536425" lon="2.057064">
        <ele>1710.463</ele>
        <time>2019-05-29T14:44:13Z</time>
      </trkpt>
      <trkpt lat="42.536406" lon="2.057116">
        <ele>1710.259</ele>
        <time>2019-05-29T14:44:14Z</time>
      </trkpt>
      <trkpt lat="42.536363" lon="2.057221">
        <ele>1710.217</ele>
        <time>2019-05-29T14:44:16Z</time>
      </trkpt>
      <trkpt lat="42.536325" lon="2.057329">
        <ele>1710.260</ele>
        <time>2019-05-29T14:44:18Z</time>
      </trkpt>
      <trkpt lat="42.536305" lon="2.057380">
        <ele>1710.020</ele>
        <time>2019-05-29T14:44:19Z</time>
      </trkpt>
      <trkpt lat="42.536192" lon="2.057746">
        <ele>1709.862</ele>
        <time>2019-05-29T14:44:25Z</time>
      </trkpt>
      <trkpt lat="42.536033" lon="2.058231">
        <ele>1709.687</ele>
        <time>2019-05-29T14:44:32Z</time>
      </trkpt>
      <trkpt lat="42.536006" lon="2.058305">
        <ele>1709.472</ele>
        <time>2019-05-29T14:44:33Z</time>
      </trkpt>
      <trkpt lat="42.535926" lon="2.058531">
        <ele>1708.013</ele>
        <time>2019-05-29T14:44:36Z</time>
      </trkpt>
      <trkpt lat="42.535872" lon="2.058685">
        <ele>1707.814</ele>
        <time>2019-05-29T14:44:38Z</time>
      </trkpt>
      <trkpt lat="42.535850" lon="2.058767">
        <ele>1707.408</ele>
        <time>2019-05-29T14:44:39Z</time>
      </trkpt>
      <trkpt lat="42.535749" lon="2.059077">
        <ele>1707.630</ele>
        <time>2019-05-29T14:44:43Z</time>
      </trkpt>
      <trkpt lat="42.535683" lon="2.059289">
        <ele>1707.064</ele>
        <time>2019-05-29T14:44:46Z</time>
      </trkpt>
      <trkpt lat="42.535615" lon="2.059520">
        <ele>1706.450</ele>
        <time>2019-05-29T14:44:49Z</time>
      </trkpt>
      <trkpt lat="42.535561" lon="2.059681">
        <ele>1706.098</ele>
        <time>2019-05-29T14:44:51Z</time>
      </trkpt>
      <trkpt lat="42.535497" lon="2.059932">
        <ele>1705.211</ele>
        <time>2019-05-29T14:44:54Z</time>
      </trkpt>
      <trkpt lat="42.535471" lon="2.060008">
        <ele>1704.661</ele>
        <time>2019-05-29T14:44:55Z</time>
      </trkpt>
      <trkpt lat="42.535305" lon="2.060422">
        <ele>1703.843</ele>
        <time>2019-05-29T14:45:00Z</time>
      </trkpt>
      <trkpt lat="42.535263" lon="2.060504">
        <ele>1703.498</ele>
        <time>2019-05-29T14:45:01Z</time>
      </trkpt>
      <trkpt lat="42.535166" lon="2.060655">
        <ele>1702.478</ele>
        <time>2019-05-29T14:45:03Z</time>
      </trkpt>
      <trkpt lat="42.535071" lon="2.060798">
        <ele>1702.433</ele>
        <time>2019-05-29T14:45:05Z</time>
      </trkpt>
      <trkpt lat="42.534805" lon="2.061195">
        <ele>1703.026</ele>
        <time>2019-05-29T14:45:11Z</time>
      </trkpt>
      <trkpt lat="42.534600" lon="2.061496">
        <ele>1701.408</ele>
        <time>2019-05-29T14:45:16Z</time>
      </trkpt>
      <trkpt lat="42.534351" lon="2.061744">
        <ele>1701.840</ele>
        <time>2019-05-29T14:45:21Z</time>
      </trkpt>
      <trkpt lat="42.534239" lon="2.061826">
        <ele>1701.814</ele>
        <time>2019-05-29T14:45:23Z</time>
      </trkpt>
      <trkpt lat="42.534181" lon="2.061870">
        <ele>1700.840</ele>
        <time>2019-05-29T14:45:24Z</time>
      </trkpt>
      <trkpt lat="42.533961" lon="2.062026">
        <ele>1700.088</ele>
        <time>2019-05-29T14:45:28Z</time>
      </trkpt>
      <trkpt lat="42.533858" lon="2.062117">
        <ele>1699.621</ele>
        <time>2019-05-29T14:45:30Z</time>
      </trkpt>
      <trkpt lat="42.533753" lon="2.062221">
        <ele>1698.241</ele>
        <time>2019-05-29T14:45:32Z</time>
      </trkpt>
      <trkpt lat="42.533704" lon="2.062285">
        <ele>1697.883</ele>
        <time>2019-05-29T14:45:33Z</time>
      </trkpt>
      <trkpt lat="42.533612" lon="2.062420">
        <ele>1697.298</ele>
        <time>2019-05-29T14:45:35Z</time>
      </trkpt>
      <trkpt lat="42.533575" lon="2.062499">
        <ele>1696.246</ele>
        <time>2019-05-29T14:45:36Z</time>
      </trkpt>
      <trkpt lat="42.533510" lon="2.062659">
        <ele>1695.688</ele>
        <time>2019-05-29T14:45:38Z</time>
      </trkpt>
      <trkpt lat="42.533269" lon="2.063169">
        <ele>1695.616</ele>
        <time>2019-05-29T14:45:45Z</time>
      </trkpt>
      <trkpt lat="42.533089" lon="2.063543">
        <ele>1695.408</ele>
        <time>2019-05-29T14:45:50Z</time>
      </trkpt>
      <trkpt lat="42.533022" lon="2.063686">
        <ele>1695.097</ele>
        <time>2019-05-29T14:45:52Z</time>
      </trkpt>
      <trkpt lat="42.532767" lon="2.064166">
        <ele>1694.051</ele>
        <time>2019-05-29T14:45:59Z</time>
      </trkpt>
      <trkpt lat="42.532727" lon="2.064237">
        <ele>1693.827</ele>
        <time>2019-05-29T14:46:00Z</time>
      </trkpt>
      <trkpt lat="42.532585" lon="2.064435">
        <ele>1693.895</ele>
        <time>2019-05-29T14:46:03Z</time>
      </trkpt>
      <trkpt lat="42.532524" lon="2.064486">
        <ele>1693.468</ele>
        <time>2019-05-29T14:46:04Z</time>
      </trkpt>
      <trkpt lat="42.532458" lon="2.064532">
        <ele>1692.868</ele>
        <time>2019-05-29T14:46:05Z</time>
      </trkpt>
      <trkpt lat="42.532270" lon="2.064673">
        <ele>1692.090</ele>
        <time>2019-05-29T14:46:08Z</time>
      </trkpt>
      <trkpt lat="42.532216" lon="2.064727">
        <ele>1691.835</ele>
        <time>2019-05-29T14:46:09Z</time>
      </trkpt>
      <trkpt lat="42.532129" lon="2.064842">
        <ele>1691.869</ele>
        <time>2019-05-29T14:46:11Z</time>
      </trkpt>
      <trkpt lat="42.532049" lon="2.064960">
        <ele>1691.604</ele>
        <time>2019-05-29T14:46:13Z</time>
      </trkpt>
      <trkpt lat="42.532013" lon="2.065020">
        <ele>1691.424</ele>
        <time>2019-05-29T14:46:14Z</time>
      </trkpt>
      <trkpt lat="42.531923" lon="2.065217">
        <ele>1690.408</ele>
        <time>2019-05-29T14:46:17Z</time>
      </trkpt>
      <trkpt lat="42.531879" lon="2.065357">
        <ele>1690.649</ele>
        <time>2019-05-29T14:46:19Z</time>
      </trkpt>
      <trkpt lat="42.531841" lon="2.065503">
        <ele>1691.643</ele>
        <time>2019-05-29T14:46:21Z</time>
      </trkpt>
      <trkpt lat="42.531815" lon="2.065577">
        <ele>1692.069</ele>
        <time>2019-05-29T14:46:22Z</time>
      </trkpt>
      <trkpt lat="42.531763" lon="2.065720">
        <ele>1691.097</ele>
        <time>2019-05-29T14:46:24Z</time>
      </trkpt>
      <trkpt lat="42.531696" lon="2.065942">
        <ele>1690.250</ele>
        <time>2019-05-29T14:46:27Z</time>
      </trkpt>
      <trkpt lat="42.531637" lon="2.066093">
        <ele>1688.650</ele>
        <time>2019-05-29T14:46:29Z</time>
      </trkpt>
      <trkpt lat="42.531599" lon="2.066169">
        <ele>1688.482</ele>
        <time>2019-05-29T14:46:30Z</time>
      </trkpt>
      <trkpt lat="42.531554" lon="2.066242">
        <ele>1688.497</ele>
        <time>2019-05-29T14:46:31Z</time>
      </trkpt>
      <trkpt lat="42.531454" lon="2.066394">
        <ele>1687.427</ele>
        <time>2019-05-29T14:46:33Z</time>
      </trkpt>
      <trkpt lat="42.531357" lon="2.066561">
        <ele>1685.668</ele>
        <time>2019-05-29T14:46:35Z</time>
      </trkpt>
      <trkpt lat="42.531316" lon="2.066655">
        <ele>1684.214</ele>
        <time>2019-05-29T14:46:36Z</time>
      </trkpt>
      <trkpt lat="42.531278" lon="2.066752">
        <ele>1683.008</ele>
        <time>2019-05-29T14:46:37Z</time>
      </trkpt>
      <trkpt lat="42.531203" lon="2.066950">
        <ele>1682.055</ele>
        <time>2019-05-29T14:46:39Z</time>
      </trkpt>
      <trkpt lat="42.531169" lon="2.067048">
        <ele>1681.699</ele>
        <time>2019-05-29T14:46:40Z</time>
      </trkpt>
      <trkpt lat="42.531065" lon="2.067313">
        <ele>1681.295</ele>
        <time>2019-05-29T14:46:43Z</time>
      </trkpt>
      <trkpt lat="42.531029" lon="2.067393">
        <ele>1680.883</ele>
        <time>2019-05-29T14:46:44Z</time>
      </trkpt>
      <trkpt lat="42.530989" lon="2.067466">
        <ele>1680.426</ele>
        <time>2019-05-29T14:46:45Z</time>
      </trkpt>
      <trkpt lat="42.530898" lon="2.067706">
        <ele>1679.446</ele>
        <time>2019-05-29T14:46:48Z</time>
      </trkpt>
      <trkpt lat="42.530873" lon="2.067798">
        <ele>1679.018</ele>
        <time>2019-05-29T14:46:49Z</time>
      </trkpt>
      <trkpt lat="42.530818" lon="2.068104">
        <ele>1677.813</ele>
        <time>2019-05-29T14:46:52Z</time>
      </trkpt>
      <trkpt lat="42.530796" lon="2.068328">
        <ele>1676.821</ele>
        <time>2019-05-29T14:46:54Z</time>
      </trkpt>
      <trkpt lat="42.530782" lon="2.068443">
        <ele>1676.241</ele>
        <time>2019-05-29T14:46:55Z</time>
      </trkpt>
      <trkpt lat="42.530765" lon="2.068671">
        <ele>1675.205</ele>
        <time>2019-05-29T14:46:57Z</time>
      </trkpt>
      <trkpt lat="42.530757" lon="2.068994">
        <ele>1674.808</ele>
        <time>2019-05-29T14:47:00Z</time>
      </trkpt>
      <trkpt lat="42.530713" lon="2.069558">
        <ele>1675.445</ele>
        <time>2019-05-29T14:47:06Z</time>
      </trkpt>
      <trkpt lat="42.530661" lon="2.069959">
        <ele>1674.619</ele>
        <time>2019-05-29T14:47:11Z</time>
      </trkpt>
      <trkpt lat="42.530649" lon="2.070033">
        <ele>1674.255</ele>
        <time>2019-05-29T14:47:12Z</time>
      </trkpt>
      <trkpt lat="42.530636" lon="2.070116">
        <ele>1673.433</ele>
        <time>2019-05-29T14:47:13Z</time>
      </trkpt>
      <trkpt lat="42.530582" lon="2.070354">
        <ele>1672.466</ele>
        <time>2019-05-29T14:47:16Z</time>
      </trkpt>
      <trkpt lat="42.530559" lon="2.070428">
        <ele>1672.486</ele>
        <time>2019-05-29T14:47:17Z</time>
      </trkpt>
      <trkpt lat="42.530418" lon="2.070774">
        <ele>1671.298</ele>
        <time>2019-05-29T14:47:22Z</time>
      </trkpt>
      <trkpt lat="42.530382" lon="2.070835">
        <ele>1671.033</ele>
        <time>2019-05-29T14:47:23Z</time>
      </trkpt>
      <trkpt lat="42.530258" lon="2.071017">
        <ele>1670.245</ele>
        <time>2019-05-29T14:47:26Z</time>
      </trkpt>
      <trkpt lat="42.530114" lon="2.071168">
        <ele>1669.447</ele>
        <time>2019-05-29T14:47:29Z</time>
      </trkpt>
      <trkpt lat="42.530069" lon="2.071217">
        <ele>1669.011</ele>
        <time>2019-05-29T14:47:30Z</time>
      </trkpt>
      <trkpt lat="42.530018" lon="2.071259">
        <ele>1668.808</ele>
        <time>2019-05-29T14:47:31Z</time>
      </trkpt>
      <trkpt lat="42.529919" lon="2.071333">
        <ele>1668.027</ele>
        <time>2019-05-29T14:47:33Z</time>
      </trkpt>
      <trkpt lat="42.529872" lon="2.071365">
        <ele>1668.091</ele>
        <time>2019-05-29T14:47:34Z</time>
      </trkpt>
      <trkpt lat="42.529826" lon="2.071386">
        <ele>1668.047</ele>
        <time>2019-05-29T14:47:35Z</time>
      </trkpt>
      <trkpt lat="42.529664" lon="2.071464">
        <ele>1667.665</ele>
        <time>2019-05-29T14:47:39Z</time>
      </trkpt>
      <trkpt lat="42.529472" lon="2.071473">
        <ele>1666.448</ele>
        <time>2019-05-29T14:47:43Z</time>
      </trkpt>
      <trkpt lat="42.529423" lon="2.071463">
        <ele>1665.638</ele>
        <time>2019-05-29T14:47:44Z</time>
      </trkpt>
      <trkpt lat="42.529367" lon="2.071445">
        <ele>1665.460</ele>
        <time>2019-05-29T14:47:45Z</time>
      </trkpt>
      <trkpt lat="42.529249" lon="2.071391">
        <ele>1664.035</ele>
        <time>2019-05-29T14:47:47Z</time>
      </trkpt>
      <trkpt lat="42.529189" lon="2.071348">
        <ele>1663.059</ele>
        <time>2019-05-29T14:47:48Z</time>
      </trkpt>
      <trkpt lat="42.529129" lon="2.071293">
        <ele>1661.803</ele>
        <time>2019-05-29T14:47:49Z</time>
      </trkpt>
      <trkpt lat="42.529075" lon="2.071241">
        <ele>1661.023</ele>
        <time>2019-05-29T14:47:50Z</time>
      </trkpt>
      <trkpt lat="42.529023" lon="2.071186">
        <ele>1660.408</ele>
        <time>2019-05-29T14:47:51Z</time>
      </trkpt>
      <trkpt lat="42.528970" lon="2.071129">
        <ele>1660.258</ele>
        <time>2019-05-29T14:47:52Z</time>
      </trkpt>
      <trkpt lat="42.528793" lon="2.070991">
        <ele>1660.832</ele>
        <time>2019-05-29T14:47:55Z</time>
      </trkpt>
      <trkpt lat="42.528670" lon="2.070928">
        <ele>1661.238</ele>
        <time>2019-05-29T14:47:57Z</time>
      </trkpt>
      <trkpt lat="42.528485" lon="2.070890">
        <ele>1661.686</ele>
        <time>2019-05-29T14:48:00Z</time>
      </trkpt>
      <trkpt lat="42.528368" lon="2.070888">
        <ele>1662.259</ele>
        <time>2019-05-29T14:48:02Z</time>
      </trkpt>
      <trkpt lat="42.528146" lon="2.070873">
        <ele>1662.079</ele>
        <time>2019-05-29T14:48:06Z</time>
      </trkpt>
      <trkpt lat="42.528100" lon="2.070837">
        <ele>1661.811</ele>
        <time>2019-05-29T14:48:07Z</time>
      </trkpt>
      <trkpt lat="42.527950" lon="2.070676">
        <ele>1662.826</ele>
        <time>2019-05-29T14:48:11Z</time>
      </trkpt>
      <trkpt lat="42.527816" lon="2.070674">
        <ele>1663.662</ele>
        <time>2019-05-29T14:48:14Z</time>
      </trkpt>
      <trkpt lat="42.527722" lon="2.070800">
        <ele>1662.683</ele>
        <time>2019-05-29T14:48:17Z</time>
      </trkpt>
      <trkpt lat="42.527676" lon="2.070901">
        <ele>1663.211</ele>
        <time>2019-05-29T14:48:19Z</time>
      </trkpt>
      <trkpt lat="42.527570" lon="2.071102">
        <ele>1663.208</ele>
        <time>2019-05-29T14:48:23Z</time>
      </trkpt>
      <trkpt lat="42.527339" lon="2.071490">
        <ele>1663.299</ele>
        <time>2019-05-29T14:48:30Z</time>
      </trkpt>
      <trkpt lat="42.527257" lon="2.071659">
        <ele>1663.643</ele>
        <time>2019-05-29T14:48:33Z</time>
      </trkpt>
      <trkpt lat="42.527234" lon="2.071724">
        <ele>1663.839</ele>
        <time>2019-05-29T14:48:34Z</time>
      </trkpt>
      <trkpt lat="42.527187" lon="2.071839">
        <ele>1664.237</ele>
        <time>2019-05-29T14:48:36Z</time>
      </trkpt>
      <trkpt lat="42.527100" lon="2.072007">
        <ele>1664.060</ele>
        <time>2019-05-29T14:48:39Z</time>
      </trkpt>
      <trkpt lat="42.526997" lon="2.072165">
        <ele>1663.460</ele>
        <time>2019-05-29T14:48:42Z</time>
      </trkpt>
      <trkpt lat="42.526879" lon="2.072345">
        <ele>1662.482</ele>
        <time>2019-05-29T14:48:45Z</time>
      </trkpt>
      <trkpt lat="42.526845" lon="2.072414">
        <ele>1662.247</ele>
        <time>2019-05-29T14:48:46Z</time>
      </trkpt>
      <trkpt lat="42.526813" lon="2.072488">
        <ele>1662.058</ele>
        <time>2019-05-29T14:48:47Z</time>
      </trkpt>
      <trkpt lat="42.526786" lon="2.072567">
        <ele>1660.852</ele>
        <time>2019-05-29T14:48:48Z</time>
      </trkpt>
      <trkpt lat="42.526667" lon="2.072974">
        <ele>1660.417</ele>
        <time>2019-05-29T14:48:53Z</time>
      </trkpt>
      <trkpt lat="42.526565" lon="2.073316">
        <ele>1659.608</ele>
        <time>2019-05-29T14:48:57Z</time>
      </trkpt>
      <trkpt lat="42.526530" lon="2.073397">
        <ele>1659.678</ele>
        <time>2019-05-29T14:48:58Z</time>
      </trkpt>
      <trkpt lat="42.526491" lon="2.073480">
        <ele>1659.692</ele>
        <time>2019-05-29T14:48:59Z</time>
      </trkpt>
      <trkpt lat="42.526266" lon="2.073867">
        <ele>1658.618</ele>
        <time>2019-05-29T14:49:04Z</time>
      </trkpt>
      <trkpt lat="42.526212" lon="2.073938">
        <ele>1658.476</ele>
        <time>2019-05-29T14:49:05Z</time>
      </trkpt>
      <trkpt lat="42.526045" lon="2.074155">
        <ele>1657.439</ele>
        <time>2019-05-29T14:49:08Z</time>
      </trkpt>
      <trkpt lat="42.525947" lon="2.074310">
        <ele>1656.099</ele>
        <time>2019-05-29T14:49:10Z</time>
      </trkpt>
      <trkpt lat="42.525873" lon="2.074467">
        <ele>1655.421</ele>
        <time>2019-05-29T14:49:12Z</time>
      </trkpt>
      <trkpt lat="42.525740" lon="2.074752">
        <ele>1656.476</ele>
        <time>2019-05-29T14:49:16Z</time>
      </trkpt>
      <trkpt lat="42.525697" lon="2.074812">
        <ele>1656.664</ele>
        <time>2019-05-29T14:49:17Z</time>
      </trkpt>
      <trkpt lat="42.525391" lon="2.075158">
        <ele>1656.406</ele>
        <time>2019-05-29T14:49:23Z</time>
      </trkpt>
      <trkpt lat="42.525306" lon="2.075300">
        <ele>1655.616</ele>
        <time>2019-05-29T14:49:25Z</time>
      </trkpt>
      <trkpt lat="42.525193" lon="2.075512">
        <ele>1655.808</ele>
        <time>2019-05-29T14:49:28Z</time>
      </trkpt>
      <trkpt lat="42.525161" lon="2.075582">
        <ele>1655.619</ele>
        <time>2019-05-29T14:49:29Z</time>
      </trkpt>
      <trkpt lat="42.525109" lon="2.075718">
        <ele>1655.813</ele>
        <time>2019-05-29T14:49:31Z</time>
      </trkpt>
      <trkpt lat="42.525078" lon="2.075865">
        <ele>1655.429</ele>
        <time>2019-05-29T14:49:33Z</time>
      </trkpt>
      <trkpt lat="42.525022" lon="2.076149">
        <ele>1655.657</ele>
        <time>2019-05-29T14:49:37Z</time>
      </trkpt>
      <trkpt lat="42.524986" lon="2.076286">
        <ele>1656.030</ele>
        <time>2019-05-29T14:49:39Z</time>
      </trkpt>
      <trkpt lat="42.524890" lon="2.076703">
        <ele>1656.210</ele>
        <time>2019-05-29T14:49:45Z</time>
      </trkpt>
      <trkpt lat="42.524836" lon="2.077003">
        <ele>1654.842</ele>
        <time>2019-05-29T14:49:49Z</time>
      </trkpt>
      <trkpt lat="42.524789" lon="2.077150">
        <ele>1655.077</ele>
        <time>2019-05-29T14:49:51Z</time>
      </trkpt>
      <trkpt lat="42.524752" lon="2.077223">
        <ele>1655.263</ele>
        <time>2019-05-29T14:49:52Z</time>
      </trkpt>
      <trkpt lat="42.524606" lon="2.077406">
        <ele>1654.844</ele>
        <time>2019-05-29T14:49:55Z</time>
      </trkpt>
      <trkpt lat="42.524552" lon="2.077465">
        <ele>1654.418</ele>
        <time>2019-05-29T14:49:56Z</time>
      </trkpt>
      <trkpt lat="42.524440" lon="2.077558">
        <ele>1654.008</ele>
        <time>2019-05-29T14:49:58Z</time>
      </trkpt>
      <trkpt lat="42.524314" lon="2.077582">
        <ele>1654.449</ele>
        <time>2019-05-29T14:50:00Z</time>
      </trkpt>
      <trkpt lat="42.524159" lon="2.077498">
        <ele>1655.253</ele>
        <time>2019-05-29T14:50:03Z</time>
      </trkpt>
      <trkpt lat="42.524111" lon="2.077464">
        <ele>1655.059</ele>
        <time>2019-05-29T14:50:04Z</time>
      </trkpt>
      <trkpt lat="42.524011" lon="2.077398">
        <ele>1654.427</ele>
        <time>2019-05-29T14:50:06Z</time>
      </trkpt>
      <trkpt lat="42.523919" lon="2.077382">
        <ele>1654.640</ele>
        <time>2019-05-29T14:50:08Z</time>
      </trkpt>
      <trkpt lat="42.523876" lon="2.077382">
        <ele>1654.830</ele>
        <time>2019-05-29T14:50:09Z</time>
      </trkpt>
      <trkpt lat="42.523759" lon="2.077434">
        <ele>1655.632</ele>
        <time>2019-05-29T14:50:12Z</time>
      </trkpt>
      <trkpt lat="42.523726" lon="2.077461">
        <ele>1655.897</ele>
        <time>2019-05-29T14:50:13Z</time>
      </trkpt>
      <trkpt lat="42.523564" lon="2.077664">
        <ele>1656.837</ele>
        <time>2019-05-29T14:50:19Z</time>
      </trkpt>
      <trkpt lat="42.523535" lon="2.077698">
        <ele>1657.049</ele>
        <time>2019-05-29T14:50:20Z</time>
      </trkpt>
      <trkpt lat="42.523455" lon="2.077802">
        <ele>1657.413</ele>
        <time>2019-05-29T14:50:23Z</time>
      </trkpt>
      <trkpt lat="42.523385" lon="2.077835">
        <ele>1658.008</ele>
        <time>2019-05-29T14:50:25Z</time>
      </trkpt>
      <trkpt lat="42.523312" lon="2.077816">
        <ele>1658.036</ele>
        <time>2019-05-29T14:50:27Z</time>
      </trkpt>
      <trkpt lat="42.523256" lon="2.077766">
        <ele>1658.290</ele>
        <time>2019-05-29T14:50:29Z</time>
      </trkpt>
      <trkpt lat="42.523235" lon="2.077709">
        <ele>1658.616</ele>
        <time>2019-05-29T14:50:31Z</time>
      </trkpt>
      <trkpt lat="42.523240" lon="2.077675">
        <ele>1659.064</ele>
        <time>2019-05-29T14:50:33Z</time>
      </trkpt>
      <trkpt lat="42.523245" lon="2.077651">
        <ele>1659.457</ele>
        <time>2019-05-29T14:50:34Z</time>
      </trkpt>
      <trkpt lat="42.523253" lon="2.077627">
        <ele>1659.437</ele>
        <time>2019-05-29T14:50:35Z</time>
      </trkpt>
      <trkpt lat="42.523289" lon="2.077555">
        <ele>1660.649</ele>
        <time>2019-05-29T14:50:38Z</time>
      </trkpt>
      <trkpt lat="42.523325" lon="2.077474">
        <ele>1660.414</ele>
        <time>2019-05-29T14:50:41Z</time>
      </trkpt>
      <trkpt lat="42.523298" lon="2.077385">
        <ele>1660.234</ele>
        <time>2019-05-29T14:50:46Z</time>
      </trkpt>
      <trkpt lat="42.523187" lon="2.077271">
        <ele>1660.655</ele>
        <time>2019-05-29T14:50:49Z</time>
      </trkpt>
      <trkpt lat="42.523075" lon="2.077167">
        <ele>1660.810</ele>
        <time>2019-05-29T14:50:52Z</time>
      </trkpt>
      <trkpt lat="42.522911" lon="2.077044">
        <ele>1660.808</ele>
        <time>2019-05-29T14:50:57Z</time>
      </trkpt>
      <trkpt lat="42.522879" lon="2.077020">
        <ele>1661.676</ele>
        <time>2019-05-29T14:50:58Z</time>
      </trkpt>
      <trkpt lat="42.522848" lon="2.077001">
        <ele>1661.830</ele>
        <time>2019-05-29T14:50:59Z</time>
      </trkpt>
      <trkpt lat="42.522672" lon="2.076942">
        <ele>1662.816</ele>
        <time>2019-05-29T14:51:04Z</time>
      </trkpt>
      <trkpt lat="42.522634" lon="2.076938">
        <ele>1663.084</ele>
        <time>2019-05-29T14:51:05Z</time>
      </trkpt>
      <trkpt lat="42.522516" lon="2.076971">
        <ele>1662.627</ele>
        <time>2019-05-29T14:51:09Z</time>
      </trkpt>
      <trkpt lat="42.522457" lon="2.077007">
        <ele>1662.057</ele>
        <time>2019-05-29T14:51:11Z</time>
      </trkpt>
      <trkpt lat="42.522368" lon="2.077072">
        <ele>1662.089</ele>
        <time>2019-05-29T14:51:14Z</time>
      </trkpt>
      <trkpt lat="42.522198" lon="2.077227">
        <ele>1663.084</ele>
        <time>2019-05-29T14:51:21Z</time>
      </trkpt>
      <trkpt lat="42.522084" lon="2.077335">
        <ele>1664.217</ele>
        <time>2019-05-29T14:51:27Z</time>
      </trkpt>
      <trkpt lat="42.522062" lon="2.077351">
        <ele>1664.487</ele>
        <time>2019-05-29T14:51:28Z</time>
      </trkpt>
      <trkpt lat="42.521950" lon="2.077470">
        <ele>1664.815</ele>
        <time>2019-05-29T14:51:35Z</time>
      </trkpt>
      <trkpt lat="42.521935" lon="2.077482">
        <ele>1665.208</ele>
        <time>2019-05-29T14:51:36Z</time>
      </trkpt>
      <trkpt lat="42.521846" lon="2.077579">
        <ele>1666.024</ele>
        <time>2019-05-29T14:51:41Z</time>
      </trkpt>
      <trkpt lat="42.521797" lon="2.077647">
        <ele>1666.438</ele>
        <time>2019-05-29T14:51:44Z</time>
      </trkpt>
      <trkpt lat="42.521699" lon="2.077744">
        <ele>1667.224</ele>
        <time>2019-05-29T14:51:50Z</time>
      </trkpt>
      <trkpt lat="42.521677" lon="2.077761">
        <ele>1667.432</ele>
        <time>2019-05-29T14:51:51Z</time>
      </trkpt>
      <trkpt lat="42.521583" lon="2.077847">
        <ele>1667.685</ele>
        <time>2019-05-29T14:51:57Z</time>
      </trkpt>
      <trkpt lat="42.521443" lon="2.077955">
        <ele>1668.245</ele>
        <time>2019-05-29T14:52:05Z</time>
      </trkpt>
      <trkpt lat="42.521427" lon="2.077966">
        <ele>1668.437</ele>
        <time>2019-05-29T14:52:06Z</time>
      </trkpt>
      <trkpt lat="42.521325" lon="2.078041">
        <ele>1669.052</ele>
        <time>2019-05-29T14:52:12Z</time>
      </trkpt>
      <trkpt lat="42.521273" lon="2.078079">
        <ele>1669.466</ele>
        <time>2019-05-29T14:52:15Z</time>
      </trkpt>
      <trkpt lat="42.521169" lon="2.078147">
        <ele>1670.229</ele>
        <time>2019-05-29T14:52:21Z</time>
      </trkpt>
      <trkpt lat="42.521090" lon="2.078188">
        <ele>1670.821</ele>
        <time>2019-05-29T14:52:25Z</time>
      </trkpt>
      <trkpt lat="42.521034" lon="2.078246">
        <ele>1671.608</ele>
        <time>2019-05-29T14:52:28Z</time>
      </trkpt>
      <trkpt lat="42.520932" lon="2.078295">
        <ele>1671.899</ele>
        <time>2019-05-29T14:52:33Z</time>
      </trkpt>
      <trkpt lat="42.520914" lon="2.078303">
        <ele>1672.023</ele>
        <time>2019-05-29T14:52:34Z</time>
      </trkpt>
      <trkpt lat="42.520816" lon="2.078368">
        <ele>1672.449</ele>
        <time>2019-05-29T14:52:40Z</time>
      </trkpt>
      <trkpt lat="42.520711" lon="2.078431">
        <ele>1672.817</ele>
        <time>2019-05-29T14:52:46Z</time>
      </trkpt>
      <trkpt lat="42.520681" lon="2.078467">
        <ele>1673.030</ele>
        <time>2019-05-29T14:52:48Z</time>
      </trkpt>
      <trkpt lat="42.520558" lon="2.078562">
        <ele>1673.670</ele>
        <time>2019-05-29T14:52:55Z</time>
      </trkpt>
      <trkpt lat="42.520508" lon="2.078598">
        <ele>1673.842</ele>
        <time>2019-05-29T14:52:58Z</time>
      </trkpt>
      <trkpt lat="42.520437" lon="2.078676">
        <ele>1674.037</ele>
        <time>2019-05-29T14:53:02Z</time>
      </trkpt>
      <trkpt lat="42.520334" lon="2.078810">
        <ele>1674.883</ele>
        <time>2019-05-29T14:53:08Z</time>
      </trkpt>
      <trkpt lat="42.520316" lon="2.078827">
        <ele>1675.025</ele>
        <time>2019-05-29T14:53:09Z</time>
      </trkpt>
      <trkpt lat="42.520192" lon="2.078922">
        <ele>1676.017</ele>
        <time>2019-05-29T14:53:16Z</time>
      </trkpt>
      <trkpt lat="42.520174" lon="2.078931">
        <ele>1676.208</ele>
        <time>2019-05-29T14:53:17Z</time>
      </trkpt>
      <trkpt lat="42.520059" lon="2.079030">
        <ele>1676.281</ele>
        <time>2019-05-29T14:53:24Z</time>
      </trkpt>
      <trkpt lat="42.519965" lon="2.079101">
        <ele>1677.295</ele>
        <time>2019-05-29T14:53:29Z</time>
      </trkpt>
      <trkpt lat="42.519880" lon="2.079192">
        <ele>1677.821</ele>
        <time>2019-05-29T14:53:34Z</time>
      </trkpt>
      <trkpt lat="42.519771" lon="2.079295">
        <ele>1678.459</ele>
        <time>2019-05-29T14:53:40Z</time>
      </trkpt>
      <trkpt lat="42.519754" lon="2.079320">
        <ele>1678.622</ele>
        <time>2019-05-29T14:53:41Z</time>
      </trkpt>
      <trkpt lat="42.519699" lon="2.079403">
        <ele>1679.432</ele>
        <time>2019-05-29T14:53:45Z</time>
      </trkpt>
      <trkpt lat="42.519678" lon="2.079451">
        <ele>1679.264</ele>
        <time>2019-05-29T14:53:47Z</time>
      </trkpt>
      <trkpt lat="42.519644" lon="2.079488">
        <ele>1679.099</ele>
        <time>2019-05-29T14:53:49Z</time>
      </trkpt>
      <trkpt lat="42.519620" lon="2.079523">
        <ele>1678.884</ele>
        <time>2019-05-29T14:53:51Z</time>
      </trkpt>
      <trkpt lat="42.519569" lon="2.079619">
        <ele>1679.607</ele>
        <time>2019-05-29T14:53:55Z</time>
      </trkpt>
      <trkpt lat="42.519544" lon="2.079666">
        <ele>1680.417</ele>
        <time>2019-05-29T14:53:57Z</time>
      </trkpt>
      <trkpt lat="42.519503" lon="2.079731">
        <ele>1681.608</ele>
        <time>2019-05-29T14:54:00Z</time>
      </trkpt>
      <trkpt lat="42.519487" lon="2.079754">
        <ele>1681.851</ele>
        <time>2019-05-29T14:54:01Z</time>
      </trkpt>
      <trkpt lat="42.519339" lon="2.079946">
        <ele>1682.285</ele>
        <time>2019-05-29T14:54:11Z</time>
      </trkpt>
      <trkpt lat="42.519267" lon="2.080014">
        <ele>1682.831</ele>
        <time>2019-05-29T14:54:15Z</time>
      </trkpt>
      <trkpt lat="42.519212" lon="2.080073">
        <ele>1683.289</ele>
        <time>2019-05-29T14:54:18Z</time>
      </trkpt>
      <trkpt lat="42.519141" lon="2.080145">
        <ele>1683.882</ele>
        <time>2019-05-29T14:54:22Z</time>
      </trkpt>
      <trkpt lat="42.519066" lon="2.080214">
        <ele>1684.892</ele>
        <time>2019-05-29T14:54:26Z</time>
      </trkpt>
      <trkpt lat="42.519024" lon="2.080262">
        <ele>1685.044</ele>
        <time>2019-05-29T14:54:28Z</time>
      </trkpt>
      <trkpt lat="42.518928" lon="2.080357">
        <ele>1685.299</ele>
        <time>2019-05-29T14:54:33Z</time>
      </trkpt>
      <trkpt lat="42.518843" lon="2.080416">
        <ele>1686.094</ele>
        <time>2019-05-29T14:54:37Z</time>
      </trkpt>
      <trkpt lat="42.518764" lon="2.080450">
        <ele>1686.057</ele>
        <time>2019-05-29T14:54:40Z</time>
      </trkpt>
      <trkpt lat="42.518562" lon="2.080500">
        <ele>1686.422</ele>
        <time>2019-05-29T14:54:47Z</time>
      </trkpt>
      <trkpt lat="42.518404" lon="2.080472">
        <ele>1687.008</ele>
        <time>2019-05-29T14:54:52Z</time>
      </trkpt>
      <trkpt lat="42.518349" lon="2.080448">
        <ele>1687.692</ele>
        <time>2019-05-29T14:54:54Z</time>
      </trkpt>
      <trkpt lat="42.518251" lon="2.080398">
        <ele>1688.246</ele>
        <time>2019-05-29T14:54:58Z</time>
      </trkpt>
      <trkpt lat="42.518162" lon="2.080344">
        <ele>1689.432</ele>
        <time>2019-05-29T14:55:02Z</time>
      </trkpt>
      <trkpt lat="42.518024" lon="2.080240">
        <ele>1689.280</ele>
        <time>2019-05-29T14:55:08Z</time>
      </trkpt>
      <trkpt lat="42.517900" lon="2.080123">
        <ele>1690.053</ele>
        <time>2019-05-29T14:55:14Z</time>
      </trkpt>
      <trkpt lat="42.517863" lon="2.080092">
        <ele>1690.613</ele>
        <time>2019-05-29T14:55:16Z</time>
      </trkpt>
      <trkpt lat="42.517765" lon="2.080009">
        <ele>1690.635</ele>
        <time>2019-05-29T14:55:21Z</time>
      </trkpt>
      <trkpt lat="42.517705" lon="2.079914">
        <ele>1691.490</ele>
        <time>2019-05-29T14:55:26Z</time>
      </trkpt>
      <trkpt lat="42.517673" lon="2.079851">
        <ele>1691.647</ele>
        <time>2019-05-29T14:55:28Z</time>
      </trkpt>
      <trkpt lat="42.517627" lon="2.079777">
        <ele>1692.429</ele>
        <time>2019-05-29T14:55:31Z</time>
      </trkpt>
      <trkpt lat="42.517601" lon="2.079724">
        <ele>1692.821</ele>
        <time>2019-05-29T14:55:33Z</time>
      </trkpt>
      <trkpt lat="42.517562" lon="2.079630">
        <ele>1693.808</ele>
        <time>2019-05-29T14:55:37Z</time>
      </trkpt>
      <trkpt lat="42.517558" lon="2.079609">
        <ele>1694.027</ele>
        <time>2019-05-29T14:55:38Z</time>
      </trkpt>
      <trkpt lat="42.517508" lon="2.079420">
        <ele>1694.641</ele>
        <time>2019-05-29T14:55:46Z</time>
      </trkpt>
      <trkpt lat="42.517479" lon="2.079304">
        <ele>1695.647</ele>
        <time>2019-05-29T14:55:50Z</time>
      </trkpt>
      <trkpt lat="42.517463" lon="2.079248">
        <ele>1695.025</ele>
        <time>2019-05-29T14:55:52Z</time>
      </trkpt>
      <trkpt lat="42.517444" lon="2.079141">
        <ele>1695.098</ele>
        <time>2019-05-29T14:55:57Z</time>
      </trkpt>
      <trkpt lat="42.517422" lon="2.078915">
        <ele>1696.298</ele>
        <time>2019-05-29T14:56:07Z</time>
      </trkpt>
      <trkpt lat="42.517411" lon="2.078877">
        <ele>1696.280</ele>
        <time>2019-05-29T14:56:08Z</time>
      </trkpt>
      <trkpt lat="42.517382" lon="2.078699">
        <ele>1696.895</ele>
        <time>2019-05-29T14:56:13Z</time>
      </trkpt>
      <trkpt lat="42.517371" lon="2.078662">
        <ele>1696.825</ele>
        <time>2019-05-29T14:56:14Z</time>
      </trkpt>
      <trkpt lat="42.517323" lon="2.078467">
        <ele>1697.026</ele>
        <time>2019-05-29T14:56:20Z</time>
      </trkpt>
      <trkpt lat="42.517290" lon="2.078335">
        <ele>1698.008</ele>
        <time>2019-05-29T14:56:24Z</time>
      </trkpt>
      <trkpt lat="42.517288" lon="2.078314">
        <ele>1698.208</ele>
        <time>2019-05-29T14:56:25Z</time>
      </trkpt>
      <trkpt lat="42.517239" lon="2.078127">
        <ele>1698.875</ele>
        <time>2019-05-29T14:56:32Z</time>
      </trkpt>
      <trkpt lat="42.517211" lon="2.078014">
        <ele>1699.059</ele>
        <time>2019-05-29T14:56:36Z</time>
      </trkpt>
      <trkpt lat="42.517196" lon="2.077950">
        <ele>1699.615</ele>
        <time>2019-05-29T14:56:39Z</time>
      </trkpt>
      <trkpt lat="42.517170" lon="2.077876">
        <ele>1699.863</ele>
        <time>2019-05-29T14:56:42Z</time>
      </trkpt>
      <trkpt lat="42.517151" lon="2.077815">
        <ele>1699.866</ele>
        <time>2019-05-29T14:56:44Z</time>
      </trkpt>
      <trkpt lat="42.517046" lon="2.077584">
        <ele>1699.676</ele>
        <time>2019-05-29T14:56:51Z</time>
      </trkpt>
      <trkpt lat="42.517014" lon="2.077534">
        <ele>1700.268</ele>
        <time>2019-05-29T14:56:53Z</time>
      </trkpt>
      <trkpt lat="42.516954" lon="2.077445">
        <ele>1700.213</ele>
        <time>2019-05-29T14:56:57Z</time>
      </trkpt>
      <trkpt lat="42.516937" lon="2.077426">
        <ele>1700.444</ele>
        <time>2019-05-29T14:56:58Z</time>
      </trkpt>
      <trkpt lat="42.516884" lon="2.077358">
        <ele>1701.005</ele>
        <time>2019-05-29T14:57:02Z</time>
      </trkpt>
      <trkpt lat="42.516807" lon="2.077278">
        <ele>1701.215</ele>
        <time>2019-05-29T14:57:07Z</time>
      </trkpt>
      <trkpt lat="42.516772" lon="2.077256">
        <ele>1701.408</ele>
        <time>2019-05-29T14:57:09Z</time>
      </trkpt>
      <trkpt lat="42.516699" lon="2.077200">
        <ele>1702.487</ele>
        <time>2019-05-29T14:57:13Z</time>
      </trkpt>
      <trkpt lat="42.516657" lon="2.077177">
        <ele>1702.881</ele>
        <time>2019-05-29T14:57:15Z</time>
      </trkpt>
      <trkpt lat="42.516490" lon="2.077107">
        <ele>1703.247</ele>
        <time>2019-05-29T14:57:24Z</time>
      </trkpt>
      <trkpt lat="42.516414" lon="2.077090">
        <ele>1703.485</ele>
        <time>2019-05-29T14:57:28Z</time>
      </trkpt>
      <trkpt lat="42.516350" lon="2.077074">
        <ele>1703.498</ele>
        <time>2019-05-29T14:57:31Z</time>
      </trkpt>
      <trkpt lat="42.516270" lon="2.077015">
        <ele>1704.268</ele>
        <time>2019-05-29T14:57:36Z</time>
      </trkpt>
      <trkpt lat="42.516211" lon="2.076986">
        <ele>1704.620</ele>
        <time>2019-05-29T14:57:39Z</time>
      </trkpt>
      <trkpt lat="42.516106" lon="2.076908">
        <ele>1705.425</ele>
        <time>2019-05-29T14:57:44Z</time>
      </trkpt>
      <trkpt lat="42.515980" lon="2.076745">
        <ele>1704.665</ele>
        <time>2019-05-29T14:57:52Z</time>
      </trkpt>
      <trkpt lat="42.515893" lon="2.076652">
        <ele>1705.668</ele>
        <time>2019-05-29T14:57:57Z</time>
      </trkpt>
      <trkpt lat="42.515877" lon="2.076628">
        <ele>1705.614</ele>
        <time>2019-05-29T14:57:58Z</time>
      </trkpt>
      <trkpt lat="42.515709" lon="2.076445">
        <ele>1704.808</ele>
        <time>2019-05-29T14:58:06Z</time>
      </trkpt>
      <trkpt lat="42.515687" lon="2.076423">
        <ele>1704.679</ele>
        <time>2019-05-29T14:58:07Z</time>
      </trkpt>
      <trkpt lat="42.515569" lon="2.076323">
        <ele>1703.213</ele>
        <time>2019-05-29T14:58:11Z</time>
      </trkpt>
      <trkpt lat="42.515529" lon="2.076296">
        <ele>1702.879</ele>
        <time>2019-05-29T14:58:12Z</time>
      </trkpt>
      <trkpt lat="42.515456" lon="2.076195">
        <ele>1702.427</ele>
        <time>2019-05-29T14:58:15Z</time>
      </trkpt>
      <trkpt lat="42.515466" lon="2.076154">
        <ele>1702.290</ele>
        <time>2019-05-29T14:58:16Z</time>
      </trkpt>
      <trkpt lat="42.515544" lon="2.076055">
        <ele>1701.640</ele>
        <time>2019-05-29T14:58:19Z</time>
      </trkpt>
      <trkpt lat="42.515633" lon="2.075852">
        <ele>1701.622</ele>
        <time>2019-05-29T14:58:25Z</time>
      </trkpt>
      <trkpt lat="42.515720" lon="2.075644">
        <ele>1702.877</ele>
        <time>2019-05-29T14:58:31Z</time>
      </trkpt>
      <trkpt lat="42.515760" lon="2.075542">
        <ele>1701.027</ele>
        <time>2019-05-29T14:58:34Z</time>
      </trkpt>
      <trkpt lat="42.515800" lon="2.075436">
        <ele>1702.468</ele>
        <time>2019-05-29T14:58:37Z</time>
      </trkpt>
      <trkpt lat="42.515814" lon="2.075408">
        <ele>1701.814</ele>
        <time>2019-05-29T14:58:38Z</time>
      </trkpt>
      <trkpt lat="42.515896" lon="2.075139">
        <ele>1703.008</ele>
        <time>2019-05-29T14:58:45Z</time>
      </trkpt>
      <trkpt lat="42.515920" lon="2.075048">
        <ele>1703.665</ele>
        <time>2019-05-29T14:58:48Z</time>
      </trkpt>
      <trkpt lat="42.515908" lon="2.074989">
        <ele>1704.699</ele>
        <time>2019-05-29T14:58:50Z</time>
      </trkpt>
      <trkpt lat="42.515903" lon="2.074962">
        <ele>1704.685</ele>
        <time>2019-05-29T14:58:51Z</time>
      </trkpt>
      <trkpt lat="42.515879" lon="2.074857">
        <ele>1704.653</ele>
        <time>2019-05-29T14:58:56Z</time>
      </trkpt>
      <trkpt lat="42.515868" lon="2.074832">
        <ele>1704.656</ele>
        <time>2019-05-29T14:58:57Z</time>
      </trkpt>
      <trkpt lat="42.515852" lon="2.074763">
        <ele>1705.066</ele>
        <time>2019-05-29T14:59:00Z</time>
      </trkpt>
      <trkpt lat="42.515764" lon="2.074372">
        <ele>1707.668</ele>
        <time>2019-05-29T14:59:19Z</time>
      </trkpt>
      <trkpt lat="42.515731" lon="2.074208">
        <ele>1707.833</ele>
        <time>2019-05-29T14:59:25Z</time>
      </trkpt>
      <trkpt lat="42.515714" lon="2.074041">
        <ele>1707.846</ele>
        <time>2019-05-29T14:59:30Z</time>
      </trkpt>
      <trkpt lat="42.515697" lon="2.073921">
        <ele>1708.688</ele>
        <time>2019-05-29T14:59:35Z</time>
      </trkpt>
      <trkpt lat="42.515692" lon="2.073900">
        <ele>1708.816</ele>
        <time>2019-05-29T14:59:36Z</time>
      </trkpt>
      <trkpt lat="42.515682" lon="2.073701">
        <ele>1708.608</ele>
        <time>2019-05-29T14:59:43Z</time>
      </trkpt>
      <trkpt lat="42.515703" lon="2.073508">
        <ele>1707.647</ele>
        <time>2019-05-29T14:59:48Z</time>
      </trkpt>
      <trkpt lat="42.515730" lon="2.073306">
        <ele>1706.431</ele>
        <time>2019-05-29T14:59:53Z</time>
      </trkpt>
      <trkpt lat="42.515725" lon="2.073212">
        <ele>1706.037</ele>
        <time>2019-05-29T14:59:55Z</time>
      </trkpt>
      <trkpt lat="42.515658" lon="2.073062">
        <ele>1705.215</ele>
        <time>2019-05-29T14:59:58Z</time>
      </trkpt>
      <trkpt lat="42.515624" lon="2.073017">
        <ele>1704.838</ele>
        <time>2019-05-29T14:59:59Z</time>
      </trkpt>
      <trkpt lat="42.515500" lon="2.072863">
        <ele>1705.658</ele>
        <time>2019-05-29T15:00:03Z</time>
      </trkpt>
      <trkpt lat="42.515448" lon="2.072787">
        <ele>1706.240</ele>
        <time>2019-05-29T15:00:05Z</time>
      </trkpt>
      <trkpt lat="42.515405" lon="2.072731">
        <ele>1706.855</ele>
        <time>2019-05-29T15:00:07Z</time>
      </trkpt>
      <trkpt lat="42.515357" lon="2.072680">
        <ele>1707.613</ele>
        <time>2019-05-29T15:00:10Z</time>
      </trkpt>
      <trkpt lat="42.515346" lon="2.072672">
        <ele>1707.843</ele>
        <time>2019-05-29T15:00:11Z</time>
      </trkpt>
      <trkpt lat="42.515323" lon="2.072644">
        <ele>1708.407</ele>
        <time>2019-05-29T15:00:13Z</time>
      </trkpt>
      <trkpt lat="42.515314" lon="2.072632">
        <ele>1708.608</ele>
        <time>2019-05-29T15:00:14Z</time>
      </trkpt>
      <trkpt lat="42.515306" lon="2.072612">
        <ele>1708.824</ele>
        <time>2019-05-29T15:00:15Z</time>
      </trkpt>
      <trkpt lat="42.515283" lon="2.072576">
        <ele>1709.478</ele>
        <time>2019-05-29T15:00:17Z</time>
      </trkpt>
      <trkpt lat="42.515264" lon="2.072529">
        <ele>1709.834</ele>
        <time>2019-05-29T15:00:20Z</time>
      </trkpt>
      <trkpt lat="42.515255" lon="2.072513">
        <ele>1709.892</ele>
        <time>2019-05-29T15:00:21Z</time>
      </trkpt>
      <trkpt lat="42.515233" lon="2.072446">
        <ele>1711.065</ele>
        <time>2019-05-29T15:00:25Z</time>
      </trkpt>
      <trkpt lat="42.515210" lon="2.072379">
        <ele>1710.825</ele>
        <time>2019-05-29T15:00:29Z</time>
      </trkpt>
      <trkpt lat="42.515213" lon="2.072362">
        <ele>1711.057</ele>
        <time>2019-05-29T15:00:30Z</time>
      </trkpt>
      <trkpt lat="42.515220" lon="2.072289">
        <ele>1712.072</ele>
        <time>2019-05-29T15:00:34Z</time>
      </trkpt>
      <trkpt lat="42.515222" lon="2.072274">
        <ele>1711.871</ele>
        <time>2019-05-29T15:00:35Z</time>
      </trkpt>
      <trkpt lat="42.515237" lon="2.072179">
        <ele>1712.041</ele>
        <time>2019-05-29T15:00:40Z</time>
      </trkpt>
      <trkpt lat="42.515238" lon="2.072159">
        <ele>1711.815</ele>
        <time>2019-05-29T15:00:41Z</time>
      </trkpt>
      <trkpt lat="42.515248" lon="2.072139">
        <ele>1712.008</ele>
        <time>2019-05-29T15:00:42Z</time>
      </trkpt>
      <trkpt lat="42.515310" lon="2.072090">
        <ele>1712.410</ele>
        <time>2019-05-29T15:00:46Z</time>
      </trkpt>
      <trkpt lat="42.515328" lon="2.072023">
        <ele>1713.044</ele>
        <time>2019-05-29T15:00:49Z</time>
      </trkpt>
      <trkpt lat="42.515334" lon="2.071939">
        <ele>1713.410</ele>
        <time>2019-05-29T15:00:52Z</time>
      </trkpt>
      <trkpt lat="42.515346" lon="2.071815">
        <ele>1713.458</ele>
        <time>2019-05-29T15:00:57Z</time>
      </trkpt>
      <trkpt lat="42.515351" lon="2.071635">
        <ele>1711.441</ele>
        <time>2019-05-29T15:01:01Z</time>
      </trkpt>
      <trkpt lat="42.515436" lon="2.071531">
        <ele>1711.051</ele>
        <time>2019-05-29T15:01:04Z</time>
      </trkpt>
      <trkpt lat="42.515504" lon="2.071499">
        <ele>1711.243</ele>
        <time>2019-05-29T15:01:06Z</time>
      </trkpt>
      <trkpt lat="42.515574" lon="2.071492">
        <ele>1711.258</ele>
        <time>2019-05-29T15:01:09Z</time>
      </trkpt>
      <trkpt lat="42.515665" lon="2.071432">
        <ele>1712.223</ele>
        <time>2019-05-29T15:01:15Z</time>
      </trkpt>
      <trkpt lat="42.515711" lon="2.071404">
        <ele>1712.683</ele>
        <time>2019-05-29T15:01:18Z</time>
      </trkpt>
      <trkpt lat="42.515755" lon="2.071360">
        <ele>1714.011</ele>
        <time>2019-05-29T15:01:21Z</time>
      </trkpt>
      <trkpt lat="42.515771" lon="2.071345">
        <ele>1714.408</ele>
        <time>2019-05-29T15:01:22Z</time>
      </trkpt>
      <trkpt lat="42.515803" lon="2.071299">
        <ele>1715.095</ele>
        <time>2019-05-29T15:01:25Z</time>
      </trkpt>
      <trkpt lat="42.515838" lon="2.071238">
        <ele>1716.039</ele>
        <time>2019-05-29T15:01:29Z</time>
      </trkpt>
      <trkpt lat="42.515846" lon="2.071220">
        <ele>1716.075</ele>
        <time>2019-05-29T15:01:30Z</time>
      </trkpt>
      <trkpt lat="42.515867" lon="2.071186">
        <ele>1716.243</ele>
        <time>2019-05-29T15:01:32Z</time>
      </trkpt>
      <trkpt lat="42.515899" lon="2.071145">
        <ele>1716.866</ele>
        <time>2019-05-29T15:01:35Z</time>
      </trkpt>
      <trkpt lat="42.515919" lon="2.071133">
        <ele>1717.216</ele>
        <time>2019-05-29T15:01:36Z</time>
      </trkpt>
      <trkpt lat="42.515987" lon="2.071047">
        <ele>1717.698</ele>
        <time>2019-05-29T15:01:41Z</time>
      </trkpt>
      <trkpt lat="42.516067" lon="2.070923">
        <ele>1717.233</ele>
        <time>2019-05-29T15:01:47Z</time>
      </trkpt>
      <trkpt lat="42.516170" lon="2.070833">
        <ele>1717.694</ele>
        <time>2019-05-29T15:01:54Z</time>
      </trkpt>
      <trkpt lat="42.516231" lon="2.070745">
        <ele>1718.257</ele>
        <time>2019-05-29T15:02:00Z</time>
      </trkpt>
      <trkpt lat="42.516268" lon="2.070608">
        <ele>1719.222</ele>
        <time>2019-05-29T15:02:06Z</time>
      </trkpt>
      <trkpt lat="42.516278" lon="2.070592">
        <ele>1719.208</ele>
        <time>2019-05-29T15:02:07Z</time>
      </trkpt>
      <trkpt lat="42.516345" lon="2.070445">
        <ele>1719.032</ele>
        <time>2019-05-29T15:02:14Z</time>
      </trkpt>
      <trkpt lat="42.516420" lon="2.070260">
        <ele>1719.866</ele>
        <time>2019-05-29T15:02:22Z</time>
      </trkpt>
      <trkpt lat="42.516463" lon="2.070077">
        <ele>1719.092</ele>
        <time>2019-05-29T15:02:30Z</time>
      </trkpt>
      <trkpt lat="42.516472" lon="2.069991">
        <ele>1720.450</ele>
        <time>2019-05-29T15:02:33Z</time>
      </trkpt>
      <trkpt lat="42.516458" lon="2.069843">
        <ele>1719.823</ele>
        <time>2019-05-29T15:02:37Z</time>
      </trkpt>
      <trkpt lat="42.516458" lon="2.069757">
        <ele>1719.643</ele>
        <time>2019-05-29T15:02:40Z</time>
      </trkpt>
      <trkpt lat="42.516487" lon="2.069667">
        <ele>1720.065</ele>
        <time>2019-05-29T15:02:43Z</time>
      </trkpt>
      <trkpt lat="42.516498" lon="2.069641">
        <ele>1719.860</ele>
        <time>2019-05-29T15:02:44Z</time>
      </trkpt>
      <trkpt lat="42.516566" lon="2.069428">
        <ele>1720.848</ele>
        <time>2019-05-29T15:02:52Z</time>
      </trkpt>
      <trkpt lat="42.516617" lon="2.069242">
        <ele>1720.661</ele>
        <time>2019-05-29T15:02:58Z</time>
      </trkpt>
      <trkpt lat="42.516629" lon="2.069110">
        <ele>1720.217</ele>
        <time>2019-05-29T15:03:02Z</time>
      </trkpt>
      <trkpt lat="42.516661" lon="2.069061">
        <ele>1720.608</ele>
        <time>2019-05-29T15:03:04Z</time>
      </trkpt>
      <trkpt lat="42.516787" lon="2.068917">
        <ele>1721.677</ele>
        <time>2019-05-29T15:03:12Z</time>
      </trkpt>
      <trkpt lat="42.516914" lon="2.068789">
        <ele>1722.871</ele>
        <time>2019-05-29T15:03:20Z</time>
      </trkpt>
      <trkpt lat="42.516941" lon="2.068763">
        <ele>1722.297</ele>
        <time>2019-05-29T15:03:22Z</time>
      </trkpt>
      <trkpt lat="42.517080" lon="2.068632">
        <ele>1723.655</ele>
        <time>2019-05-29T15:03:32Z</time>
      </trkpt>
      <trkpt lat="42.517093" lon="2.068620">
        <ele>1723.868</ele>
        <time>2019-05-29T15:03:33Z</time>
      </trkpt>
      <trkpt lat="42.517167" lon="2.068580">
        <ele>1725.618</ele>
        <time>2019-05-29T15:03:38Z</time>
      </trkpt>
      <trkpt lat="42.517195" lon="2.068553">
        <ele>1725.610</ele>
        <time>2019-05-29T15:03:40Z</time>
      </trkpt>
      <trkpt lat="42.517238" lon="2.068525">
        <ele>1726.875</ele>
        <time>2019-05-29T15:03:43Z</time>
      </trkpt>
      <trkpt lat="42.517283" lon="2.068510">
        <ele>1727.479</ele>
        <time>2019-05-29T15:03:46Z</time>
      </trkpt>
      <trkpt lat="42.517402" lon="2.068453">
        <ele>1726.805</ele>
        <time>2019-05-29T15:03:53Z</time>
      </trkpt>
      <trkpt lat="42.517458" lon="2.068431">
        <ele>1727.825</ele>
        <time>2019-05-29T15:03:57Z</time>
      </trkpt>
      <trkpt lat="42.517543" lon="2.068403">
        <ele>1728.408</ele>
        <time>2019-05-29T15:04:03Z</time>
      </trkpt>
      <trkpt lat="42.517570" lon="2.068392">
        <ele>1728.820</ele>
        <time>2019-05-29T15:04:05Z</time>
      </trkpt>
      <trkpt lat="42.517656" lon="2.068368">
        <ele>1729.614</ele>
        <time>2019-05-29T15:04:11Z</time>
      </trkpt>
      <trkpt lat="42.517699" lon="2.068357">
        <ele>1729.870</ele>
        <time>2019-05-29T15:04:14Z</time>
      </trkpt>
      <trkpt lat="42.517760" lon="2.068342">
        <ele>1730.078</ele>
        <time>2019-05-29T15:04:18Z</time>
      </trkpt>
      <trkpt lat="42.517804" lon="2.068327">
        <ele>1731.021</ele>
        <time>2019-05-29T15:04:21Z</time>
      </trkpt>
      <trkpt lat="42.517873" lon="2.068320">
        <ele>1731.431</ele>
        <time>2019-05-29T15:04:26Z</time>
      </trkpt>
      <trkpt lat="42.517941" lon="2.068301">
        <ele>1732.073</ele>
        <time>2019-05-29T15:04:31Z</time>
      </trkpt>
      <trkpt lat="42.517991" lon="2.068288">
        <ele>1732.228</ele>
        <time>2019-05-29T15:04:35Z</time>
      </trkpt>
      <trkpt lat="42.518085" lon="2.068287">
        <ele>1732.874</ele>
        <time>2019-05-29T15:04:42Z</time>
      </trkpt>
      <trkpt lat="42.518116" lon="2.068288">
        <ele>1733.056</ele>
        <time>2019-05-29T15:04:44Z</time>
      </trkpt>
      <trkpt lat="42.518219" lon="2.068271">
        <ele>1734.021</ele>
        <time>2019-05-29T15:04:51Z</time>
      </trkpt>
      <trkpt lat="42.518236" lon="2.068266">
        <ele>1735.808</ele>
        <time>2019-05-29T15:04:52Z</time>
      </trkpt>
      <trkpt lat="42.518283" lon="2.068258">
        <ele>1734.450</ele>
        <time>2019-05-29T15:04:55Z</time>
      </trkpt>
      <trkpt lat="42.518354" lon="2.068255">
        <ele>1735.224</ele>
        <time>2019-05-29T15:04:59Z</time>
      </trkpt>
      <trkpt lat="42.518473" lon="2.068235">
        <ele>1735.680</ele>
        <time>2019-05-29T15:05:07Z</time>
      </trkpt>
      <trkpt lat="42.518488" lon="2.068231">
        <ele>1736.078</ele>
        <time>2019-05-29T15:05:08Z</time>
      </trkpt>
      <trkpt lat="42.518577" lon="2.068210">
        <ele>1737.031</ele>
        <time>2019-05-29T15:05:14Z</time>
      </trkpt>
      <trkpt lat="42.518634" lon="2.068204">
        <ele>1737.021</ele>
        <time>2019-05-29T15:05:18Z</time>
      </trkpt>
      <trkpt lat="42.518712" lon="2.068183">
        <ele>1737.293</ele>
        <time>2019-05-29T15:05:23Z</time>
      </trkpt>
      <trkpt lat="42.518781" lon="2.068160">
        <ele>1736.878</ele>
        <time>2019-05-29T15:05:28Z</time>
      </trkpt>
      <trkpt lat="42.518922" lon="2.068101">
        <ele>1737.415</ele>
        <time>2019-05-29T15:05:37Z</time>
      </trkpt>
      <trkpt lat="42.518987" lon="2.068075">
        <ele>1738.065</ele>
        <time>2019-05-29T15:05:41Z</time>
      </trkpt>
      <trkpt lat="42.519039" lon="2.068041">
        <ele>1738.811</ele>
        <time>2019-05-29T15:05:45Z</time>
      </trkpt>
      <trkpt lat="42.519108" lon="2.068000">
        <ele>1739.008</ele>
        <time>2019-05-29T15:05:50Z</time>
      </trkpt>
      <trkpt lat="42.519149" lon="2.067975">
        <ele>1739.444</ele>
        <time>2019-05-29T15:05:53Z</time>
      </trkpt>
      <trkpt lat="42.519275" lon="2.067872">
        <ele>1740.098</ele>
        <time>2019-05-29T15:06:03Z</time>
      </trkpt>
      <trkpt lat="42.519311" lon="2.067837">
        <ele>1741.254</ele>
        <time>2019-05-29T15:06:06Z</time>
      </trkpt>
      <trkpt lat="42.519402" lon="2.067721">
        <ele>1742.292</ele>
        <time>2019-05-29T15:06:14Z</time>
      </trkpt>
      <trkpt lat="42.519416" lon="2.067710">
        <ele>1742.425</ele>
        <time>2019-05-29T15:06:15Z</time>
      </trkpt>
      <trkpt lat="42.519500" lon="2.067587">
        <ele>1742.035</ele>
        <time>2019-05-29T15:06:23Z</time>
      </trkpt>
      <trkpt lat="42.519568" lon="2.067447">
        <ele>1742.637</ele>
        <time>2019-05-29T15:06:31Z</time>
      </trkpt>
      <trkpt lat="42.519612" lon="2.067384">
        <ele>1742.812</ele>
        <time>2019-05-29T15:06:35Z</time>
      </trkpt>
      <trkpt lat="42.519629" lon="2.067353">
        <ele>1743.085</ele>
        <time>2019-05-29T15:06:37Z</time>
      </trkpt>
      <trkpt lat="42.519651" lon="2.067303">
        <ele>1743.289</ele>
        <time>2019-05-29T15:06:40Z</time>
      </trkpt>
      <trkpt lat="42.519667" lon="2.067270">
        <ele>1743.617</ele>
        <time>2019-05-29T15:06:42Z</time>
      </trkpt>
      <trkpt lat="42.519704" lon="2.067194">
        <ele>1744.208</ele>
        <time>2019-05-29T15:06:46Z</time>
      </trkpt>
      <trkpt lat="42.519717" lon="2.067154">
        <ele>1744.831</ele>
        <time>2019-05-29T15:06:48Z</time>
      </trkpt>
      <trkpt lat="42.519724" lon="2.067108">
        <ele>1745.825</ele>
        <time>2019-05-29T15:06:50Z</time>
      </trkpt>
      <trkpt lat="42.519738" lon="2.067070">
        <ele>1745.861</ele>
        <time>2019-05-29T15:06:52Z</time>
      </trkpt>
      <trkpt lat="42.519758" lon="2.067034">
        <ele>1746.069</ele>
        <time>2019-05-29T15:06:54Z</time>
      </trkpt>
      <trkpt lat="42.519843" lon="2.066834">
        <ele>1745.822</ele>
        <time>2019-05-29T15:07:03Z</time>
      </trkpt>
      <trkpt lat="42.519852" lon="2.066806">
        <ele>1745.882</ele>
        <time>2019-05-29T15:07:04Z</time>
      </trkpt>
      <trkpt lat="42.519877" lon="2.066721">
        <ele>1745.614</ele>
        <time>2019-05-29T15:07:07Z</time>
      </trkpt>
      <trkpt lat="42.519885" lon="2.066694">
        <ele>1745.499</ele>
        <time>2019-05-29T15:07:08Z</time>
      </trkpt>
      <trkpt lat="42.519917" lon="2.066571">
        <ele>1746.816</ele>
        <time>2019-05-29T15:07:12Z</time>
      </trkpt>
      <trkpt lat="42.519927" lon="2.066550">
        <ele>1747.276</ele>
        <time>2019-05-29T15:07:13Z</time>
      </trkpt>
      <trkpt lat="42.519953" lon="2.066427">
        <ele>1748.013</ele>
        <time>2019-05-29T15:07:17Z</time>
      </trkpt>
      <trkpt lat="42.519978" lon="2.066318">
        <ele>1748.408</ele>
        <time>2019-05-29T15:07:21Z</time>
      </trkpt>
      <trkpt lat="42.520051" lon="2.066017">
        <ele>1747.824</ele>
        <time>2019-05-29T15:07:31Z</time>
      </trkpt>
      <trkpt lat="42.520086" lon="2.065850">
        <ele>1746.898</ele>
        <time>2019-05-29T15:07:36Z</time>
      </trkpt>
      <trkpt lat="42.520126" lon="2.065724">
        <ele>1746.224</ele>
        <time>2019-05-29T15:07:40Z</time>
      </trkpt>
      <trkpt lat="42.520144" lon="2.065660">
        <ele>1745.842</ele>
        <time>2019-05-29T15:07:42Z</time>
      </trkpt>
      <trkpt lat="42.520171" lon="2.065566">
        <ele>1746.885</ele>
        <time>2019-05-29T15:07:45Z</time>
      </trkpt>
      <trkpt lat="42.520180" lon="2.065532">
        <ele>1748.065</ele>
        <time>2019-05-29T15:07:46Z</time>
      </trkpt>
      <trkpt lat="42.520190" lon="2.065502">
        <ele>1749.487</ele>
        <time>2019-05-29T15:07:47Z</time>
      </trkpt>
      <trkpt lat="42.520211" lon="2.065445">
        <ele>1749.252</ele>
        <time>2019-05-29T15:07:49Z</time>
      </trkpt>
      <trkpt lat="42.520235" lon="2.065385">
        <ele>1747.892</ele>
        <time>2019-05-29T15:07:51Z</time>
      </trkpt>
      <trkpt lat="42.520249" lon="2.065328">
        <ele>1746.673</ele>
        <time>2019-05-29T15:07:53Z</time>
      </trkpt>
      <trkpt lat="42.520254" lon="2.065300">
        <ele>1746.420</ele>
        <time>2019-05-29T15:07:54Z</time>
      </trkpt>
      <trkpt lat="42.520296" lon="2.065146">
        <ele>1747.608</ele>
        <time>2019-05-29T15:07:59Z</time>
      </trkpt>
      <trkpt lat="42.520324" lon="2.065056">
        <ele>1745.822</ele>
        <time>2019-05-29T15:08:02Z</time>
      </trkpt>
      <trkpt lat="42.520340" lon="2.064997">
        <ele>1744.496</ele>
        <time>2019-05-29T15:08:04Z</time>
      </trkpt>
      <trkpt lat="42.520360" lon="2.064914">
        <ele>1745.832</ele>
        <time>2019-05-29T15:08:07Z</time>
      </trkpt>
      <trkpt lat="42.520394" lon="2.064795">
        <ele>1747.040</ele>
        <time>2019-05-29T15:08:11Z</time>
      </trkpt>
      <trkpt lat="42.520415" lon="2.064742">
        <ele>1747.423</ele>
        <time>2019-05-29T15:08:13Z</time>
      </trkpt>
      <trkpt lat="42.520439" lon="2.064659">
        <ele>1745.893</ele>
        <time>2019-05-29T15:08:16Z</time>
      </trkpt>
      <trkpt lat="42.520455" lon="2.064599">
        <ele>1746.865</ele>
        <time>2019-05-29T15:08:18Z</time>
      </trkpt>
      <trkpt lat="42.520471" lon="2.064537">
        <ele>1747.240</ele>
        <time>2019-05-29T15:08:20Z</time>
      </trkpt>
      <trkpt lat="42.520554" lon="2.064246">
        <ele>1746.484</ele>
        <time>2019-05-29T15:08:29Z</time>
      </trkpt>
      <trkpt lat="42.520626" lon="2.064015">
        <ele>1747.207</ele>
        <time>2019-05-29T15:08:36Z</time>
      </trkpt>
      <trkpt lat="42.520715" lon="2.063743">
        <ele>1745.817</ele>
        <time>2019-05-29T15:08:44Z</time>
      </trkpt>
      <trkpt lat="42.520783" lon="2.063556">
        <ele>1747.408</ele>
        <time>2019-05-29T15:08:50Z</time>
      </trkpt>
      <trkpt lat="42.520804" lon="2.063492">
        <ele>1747.621</ele>
        <time>2019-05-29T15:08:52Z</time>
      </trkpt>
      <trkpt lat="42.520882" lon="2.063227">
        <ele>1747.225</ele>
        <time>2019-05-29T15:09:00Z</time>
      </trkpt>
      <trkpt lat="42.520923" lon="2.063059">
        <ele>1748.621</ele>
        <time>2019-05-29T15:09:05Z</time>
      </trkpt>
      <trkpt lat="42.520936" lon="2.062994">
        <ele>1748.419</ele>
        <time>2019-05-29T15:09:07Z</time>
      </trkpt>
      <trkpt lat="42.520963" lon="2.062833">
        <ele>1747.212</ele>
        <time>2019-05-29T15:09:12Z</time>
      </trkpt>
      <trkpt lat="42.520979" lon="2.062758">
        <ele>1747.852</ele>
        <time>2019-05-29T15:09:14Z</time>
      </trkpt>
      <trkpt lat="42.520988" lon="2.062718">
        <ele>1748.634</ele>
        <time>2019-05-29T15:09:15Z</time>
      </trkpt>
      <trkpt lat="42.521006" lon="2.062594">
        <ele>1747.649</ele>
        <time>2019-05-29T15:09:18Z</time>
      </trkpt>
      <trkpt lat="42.521026" lon="2.062465">
        <ele>1747.283</ele>
        <time>2019-05-29T15:09:21Z</time>
      </trkpt>
      <trkpt lat="42.521049" lon="2.062302">
        <ele>1746.625</ele>
        <time>2019-05-29T15:09:25Z</time>
      </trkpt>
      <trkpt lat="42.521077" lon="2.062098">
        <ele>1747.617</ele>
        <time>2019-05-29T15:09:30Z</time>
      </trkpt>
      <trkpt lat="42.521091" lon="2.062015">
        <ele>1748.208</ele>
        <time>2019-05-29T15:09:32Z</time>
      </trkpt>
      <trkpt lat="42.521139" lon="2.061650">
        <ele>1747.281</ele>
        <time>2019-05-29T15:09:41Z</time>
      </trkpt>
      <trkpt lat="42.521203" lon="2.061246">
        <ele>1747.685</ele>
        <time>2019-05-29T15:09:52Z</time>
      </trkpt>
      <trkpt lat="42.521260" lon="2.060863">
        <ele>1747.611</ele>
        <time>2019-05-29T15:10:02Z</time>
      </trkpt>
      <trkpt lat="42.521299" lon="2.060497">
        <ele>1747.829</ele>
        <time>2019-05-29T15:10:11Z</time>
      </trkpt>
      <trkpt lat="42.521239" lon="2.060303">
        <ele>1748.482</ele>
        <time>2019-05-29T15:10:16Z</time>
      </trkpt>
      <trkpt lat="42.521205" lon="2.060276">
        <ele>1748.832</ele>
        <time>2019-05-29T15:10:17Z</time>
      </trkpt>
      <trkpt lat="42.521073" lon="2.060183">
        <ele>1747.664</ele>
        <time>2019-05-29T15:10:20Z</time>
      </trkpt>
      <trkpt lat="42.521021" lon="2.060149">
        <ele>1747.459</ele>
        <time>2019-05-29T15:10:21Z</time>
      </trkpt>
      <trkpt lat="42.520771" lon="2.059983">
        <ele>1746.411</ele>
        <time>2019-05-29T15:10:26Z</time>
      </trkpt>
      <trkpt lat="42.520676" lon="2.059917">
        <ele>1746.821</ele>
        <time>2019-05-29T15:10:28Z</time>
      </trkpt>
      <trkpt lat="42.520584" lon="2.059853">
        <ele>1747.603</ele>
        <time>2019-05-29T15:10:30Z</time>
      </trkpt>
      <trkpt lat="42.520288" lon="2.059655">
        <ele>1747.408</ele>
        <time>2019-05-29T15:10:37Z</time>
      </trkpt>
      <trkpt lat="42.520035" lon="2.059478">
        <ele>1747.014</ele>
        <time>2019-05-29T15:10:44Z</time>
      </trkpt>
      <trkpt lat="42.519882" lon="2.059387">
        <ele>1748.268</ele>
        <time>2019-05-29T15:10:50Z</time>
      </trkpt>
      <trkpt lat="42.519834" lon="2.059368">
        <ele>1748.634</ele>
        <time>2019-05-29T15:10:52Z</time>
      </trkpt>
      <trkpt lat="42.519740" lon="2.059393">
        <ele>1749.882</ele>
        <time>2019-05-29T15:10:56Z</time>
      </trkpt>
      <trkpt lat="42.519616" lon="2.059568">
        <ele>1750.275</ele>
        <time>2019-05-29T15:11:03Z</time>
      </trkpt>
      <trkpt lat="42.519485" lon="2.059787">
        <ele>1750.695</ele>
        <time>2019-05-29T15:11:11Z</time>
      </trkpt>
      <trkpt lat="42.519450" lon="2.059847">
        <ele>1751.077</ele>
        <time>2019-05-29T15:11:13Z</time>
      </trkpt>
      <trkpt lat="42.519361" lon="2.059986">
        <ele>1752.232</ele>
        <time>2019-05-29T15:11:18Z</time>
      </trkpt>
      <trkpt lat="42.519299" lon="2.060065">
        <ele>1752.459</ele>
        <time>2019-05-29T15:11:21Z</time>
      </trkpt>
      <trkpt lat="42.519159" lon="2.060195">
        <ele>1753.203</ele>
        <time>2019-05-29T15:11:27Z</time>
      </trkpt>
      <trkpt lat="42.519135" lon="2.060212">
        <ele>1753.423</ele>
        <time>2019-05-29T15:11:28Z</time>
      </trkpt>
      <trkpt lat="42.518976" lon="2.060281">
        <ele>1754.408</ele>
        <time>2019-05-29T15:11:34Z</time>
      </trkpt>
      <trkpt lat="42.518922" lon="2.060300">
        <ele>1754.658</ele>
        <time>2019-05-29T15:11:36Z</time>
      </trkpt>
      <trkpt lat="42.518748" lon="2.060316">
        <ele>1755.452</ele>
        <time>2019-05-29T15:11:42Z</time>
      </trkpt>
      <trkpt lat="42.518715" lon="2.060316">
        <ele>1755.468</ele>
        <time>2019-05-29T15:11:43Z</time>
      </trkpt>
      <trkpt lat="42.518397" lon="2.060330">
        <ele>1755.826</ele>
        <time>2019-05-29T15:11:53Z</time>
      </trkpt>
      <trkpt lat="42.518239" lon="2.060337">
        <ele>1756.459</ele>
        <time>2019-05-29T15:11:58Z</time>
      </trkpt>
      <trkpt lat="42.518041" lon="2.060349">
        <ele>1756.629</ele>
        <time>2019-05-29T15:12:05Z</time>
      </trkpt>
      <trkpt lat="42.517817" lon="2.060357">
        <ele>1757.211</ele>
        <time>2019-05-29T15:12:13Z</time>
      </trkpt>
      <trkpt lat="42.517611" lon="2.060321">
        <ele>1757.486</ele>
        <time>2019-05-29T15:12:20Z</time>
      </trkpt>
      <trkpt lat="42.517453" lon="2.060276">
        <ele>1757.627</ele>
        <time>2019-05-29T15:12:25Z</time>
      </trkpt>
      <trkpt lat="42.517330" lon="2.060226">
        <ele>1757.668</ele>
        <time>2019-05-29T15:12:29Z</time>
      </trkpt>
      <trkpt lat="42.517113" lon="2.060136">
        <ele>1758.014</ele>
        <time>2019-05-29T15:12:36Z</time>
      </trkpt>
      <trkpt lat="42.516867" lon="2.060027">
        <ele>1757.808</ele>
        <time>2019-05-29T15:12:44Z</time>
      </trkpt>
      <trkpt lat="42.516569" lon="2.059878">
        <ele>1758.265</ele>
        <time>2019-05-29T15:12:54Z</time>
      </trkpt>
      <trkpt lat="42.516417" lon="2.059794">
        <ele>1758.839</ele>
        <time>2019-05-29T15:12:59Z</time>
      </trkpt>
      <trkpt lat="42.516355" lon="2.059768">
        <ele>1759.485</ele>
        <time>2019-05-29T15:13:01Z</time>
      </trkpt>
      <trkpt lat="42.516084" lon="2.059663">
        <ele>1759.413</ele>
        <time>2019-05-29T15:13:09Z</time>
      </trkpt>
      <trkpt lat="42.515806" lon="2.059625">
        <ele>1759.686</ele>
        <time>2019-05-29T15:13:17Z</time>
      </trkpt>
      <trkpt lat="42.515555" lon="2.059652">
        <ele>1759.276</ele>
        <time>2019-05-29T15:13:24Z</time>
      </trkpt>
      <trkpt lat="42.515346" lon="2.059732">
        <ele>1760.018</ele>
        <time>2019-05-29T15:13:30Z</time>
      </trkpt>
      <trkpt lat="42.515285" lon="2.059766">
        <ele>1760.443</ele>
        <time>2019-05-29T15:13:32Z</time>
      </trkpt>
      <trkpt lat="42.515028" lon="2.059901">
        <ele>1760.094</ele>
        <time>2019-05-29T15:13:40Z</time>
      </trkpt>
      <trkpt lat="42.514820" lon="2.059966">
        <ele>1760.657</ele>
        <time>2019-05-29T15:13:47Z</time>
      </trkpt>
      <trkpt lat="42.514764" lon="2.059955">
        <ele>1761.022</ele>
        <time>2019-05-29T15:13:49Z</time>
      </trkpt>
      <trkpt lat="42.514700" lon="2.059894">
        <ele>1760.808</ele>
        <time>2019-05-29T15:13:52Z</time>
      </trkpt>
      <trkpt lat="42.514675" lon="2.059764">
        <ele>1762.082</ele>
        <time>2019-05-29T15:13:56Z</time>
      </trkpt>
      <trkpt lat="42.514675" lon="2.059731">
        <ele>1762.426</ele>
        <time>2019-05-29T15:13:57Z</time>
      </trkpt>
      <trkpt lat="42.514676" lon="2.059698">
        <ele>1762.422</ele>
        <time>2019-05-29T15:13:58Z</time>
      </trkpt>
      <trkpt lat="42.514692" lon="2.059478">
        <ele>1762.820</ele>
        <time>2019-05-29T15:14:05Z</time>
      </trkpt>
      <trkpt lat="42.514693" lon="2.059446">
        <ele>1763.653</ele>
        <time>2019-05-29T15:14:06Z</time>
      </trkpt>
      <trkpt lat="42.514717" lon="2.059231">
        <ele>1763.883</ele>
        <time>2019-05-29T15:14:13Z</time>
      </trkpt>
      <trkpt lat="42.514750" lon="2.058979">
        <ele>1763.475</ele>
        <time>2019-05-29T15:14:22Z</time>
      </trkpt>
      <trkpt lat="42.514765" lon="2.058741">
        <ele>1764.680</ele>
        <time>2019-05-29T15:14:30Z</time>
      </trkpt>
      <trkpt lat="42.514770" lon="2.058680">
        <ele>1765.272</ele>
        <time>2019-05-29T15:14:32Z</time>
      </trkpt>
      <trkpt lat="42.514790" lon="2.058434">
        <ele>1764.813</ele>
        <time>2019-05-29T15:14:40Z</time>
      </trkpt>
      <trkpt lat="42.514799" lon="2.058315">
        <ele>1766.014</ele>
        <time>2019-05-29T15:14:44Z</time>
      </trkpt>
      <trkpt lat="42.514812" lon="2.058192">
        <ele>1767.008</ele>
        <time>2019-05-29T15:14:48Z</time>
      </trkpt>
      <trkpt lat="42.514817" lon="2.058134">
        <ele>1767.240</ele>
        <time>2019-05-29T15:14:50Z</time>
      </trkpt>
      <trkpt lat="42.514839" lon="2.057927">
        <ele>1766.054</ele>
        <time>2019-05-29T15:14:57Z</time>
      </trkpt>
      <trkpt lat="42.514849" lon="2.057863">
        <ele>1766.690</ele>
        <time>2019-05-29T15:14:59Z</time>
      </trkpt>
      <trkpt lat="42.514853" lon="2.057829">
        <ele>1767.498</ele>
        <time>2019-05-29T15:15:00Z</time>
      </trkpt>
      <trkpt lat="42.514879" lon="2.057648">
        <ele>1768.841</ele>
        <time>2019-05-29T15:15:06Z</time>
      </trkpt>
      <trkpt lat="42.514887" lon="2.057588">
        <ele>1769.081</ele>
        <time>2019-05-29T15:15:08Z</time>
      </trkpt>
      <trkpt lat="42.514911" lon="2.057354">
        <ele>1769.023</ele>
        <time>2019-05-29T15:15:16Z</time>
      </trkpt>
      <trkpt lat="42.514931" lon="2.057269">
        <ele>1770.468</ele>
        <time>2019-05-29T15:15:19Z</time>
      </trkpt>
      <trkpt lat="42.514957" lon="2.057097">
        <ele>1769.478</ele>
        <time>2019-05-29T15:15:25Z</time>
      </trkpt>
      <trkpt lat="42.514992" lon="2.056902">
        <ele>1771.233</ele>
        <time>2019-05-29T15:15:32Z</time>
      </trkpt>
      <trkpt lat="42.515022" lon="2.056775">
        <ele>1771.426</ele>
        <time>2019-05-29T15:15:37Z</time>
      </trkpt>
      <trkpt lat="42.515039" lon="2.056722">
        <ele>1772.008</ele>
        <time>2019-05-29T15:15:39Z</time>
      </trkpt>
      <trkpt lat="42.515058" lon="2.056641">
        <ele>1772.690</ele>
        <time>2019-05-29T15:15:42Z</time>
      </trkpt>
      <trkpt lat="42.515090" lon="2.056505">
        <ele>1773.484</ele>
        <time>2019-05-29T15:15:47Z</time>
      </trkpt>
      <trkpt lat="42.515102" lon="2.056449">
        <ele>1773.630</ele>
        <time>2019-05-29T15:15:49Z</time>
      </trkpt>
      <trkpt lat="42.515146" lon="2.056253">
        <ele>1774.048</ele>
        <time>2019-05-29T15:15:56Z</time>
      </trkpt>
      <trkpt lat="42.515163" lon="2.056164">
        <ele>1774.041</ele>
        <time>2019-05-29T15:15:59Z</time>
      </trkpt>
      <trkpt lat="42.515184" lon="2.056079">
        <ele>1774.661</ele>
        <time>2019-05-29T15:16:02Z</time>
      </trkpt>
      <trkpt lat="42.515205" lon="2.055964">
        <ele>1775.263</ele>
        <time>2019-05-29T15:16:06Z</time>
      </trkpt>
      <trkpt lat="42.515244" lon="2.055781">
        <ele>1775.868</ele>
        <time>2019-05-29T15:16:12Z</time>
      </trkpt>
      <trkpt lat="42.515255" lon="2.055723">
        <ele>1776.022</ele>
        <time>2019-05-29T15:16:14Z</time>
      </trkpt>
      <trkpt lat="42.515313" lon="2.055432">
        <ele>1775.662</ele>
        <time>2019-05-29T15:16:24Z</time>
      </trkpt>
      <trkpt lat="42.515331" lon="2.055244">
        <ele>1777.408</ele>
        <time>2019-05-29T15:16:30Z</time>
      </trkpt>
      <trkpt lat="42.515339" lon="2.055150">
        <ele>1778.008</ele>
        <time>2019-05-29T15:16:33Z</time>
      </trkpt>
      <trkpt lat="42.515343" lon="2.055079">
        <ele>1778.655</ele>
        <time>2019-05-29T15:16:35Z</time>
      </trkpt>
      <trkpt lat="42.515350" lon="2.054854">
        <ele>1778.869</ele>
        <time>2019-05-29T15:16:41Z</time>
      </trkpt>
      <trkpt lat="42.515340" lon="2.054630">
        <ele>1779.015</ele>
        <time>2019-05-29T15:16:47Z</time>
      </trkpt>
      <trkpt lat="42.515317" lon="2.054427">
        <ele>1779.663</ele>
        <time>2019-05-29T15:16:53Z</time>
      </trkpt>
      <trkpt lat="42.515292" lon="2.054189">
        <ele>1779.846</ele>
        <time>2019-05-29T15:17:01Z</time>
      </trkpt>
      <trkpt lat="42.515276" lon="2.054014">
        <ele>1780.676</ele>
        <time>2019-05-29T15:17:07Z</time>
      </trkpt>
      <trkpt lat="42.515266" lon="2.053927">
        <ele>1780.628</ele>
        <time>2019-05-29T15:17:10Z</time>
      </trkpt>
      <trkpt lat="42.515248" lon="2.053707">
        <ele>1780.093</ele>
        <time>2019-05-29T15:17:18Z</time>
      </trkpt>
      <trkpt lat="42.515230" lon="2.053537">
        <ele>1782.044</ele>
        <time>2019-05-29T15:17:24Z</time>
      </trkpt>
      <trkpt lat="42.515224" lon="2.053452">
        <ele>1782.205</ele>
        <time>2019-05-29T15:17:27Z</time>
      </trkpt>
      <trkpt lat="42.515212" lon="2.053222">
        <ele>1783.015</ele>
        <time>2019-05-29T15:17:35Z</time>
      </trkpt>
      <trkpt lat="42.515212" lon="2.053165">
        <ele>1783.208</ele>
        <time>2019-05-29T15:17:37Z</time>
      </trkpt>
      <trkpt lat="42.515219" lon="2.053022">
        <ele>1783.857</ele>
        <time>2019-05-29T15:17:42Z</time>
      </trkpt>
      <trkpt lat="42.515226" lon="2.052964">
        <ele>1784.421</ele>
        <time>2019-05-29T15:17:44Z</time>
      </trkpt>
      <trkpt lat="42.515242" lon="2.052850">
        <ele>1785.687</ele>
        <time>2019-05-29T15:17:48Z</time>
      </trkpt>
      <trkpt lat="42.515253" lon="2.052766">
        <ele>1785.635</ele>
        <time>2019-05-29T15:17:51Z</time>
      </trkpt>
      <trkpt lat="42.515314" lon="2.052597">
        <ele>1786.028</ele>
        <time>2019-05-29T15:17:57Z</time>
      </trkpt>
      <trkpt lat="42.515358" lon="2.052432">
        <ele>1787.418</ele>
        <time>2019-05-29T15:18:03Z</time>
      </trkpt>
      <trkpt lat="42.515363" lon="2.052406">
        <ele>1788.020</ele>
        <time>2019-05-29T15:18:04Z</time>
      </trkpt>
      <trkpt lat="42.515370" lon="2.052380">
        <ele>1788.415</ele>
        <time>2019-05-29T15:18:05Z</time>
      </trkpt>
      <trkpt lat="42.515390" lon="2.052185">
        <ele>1787.823</ele>
        <time>2019-05-29T15:18:12Z</time>
      </trkpt>
      <trkpt lat="42.515398" lon="2.051957">
        <ele>1788.483</ele>
        <time>2019-05-29T15:18:20Z</time>
      </trkpt>
      <trkpt lat="42.515396" lon="2.051702">
        <ele>1789.611</ele>
        <time>2019-05-29T15:18:29Z</time>
      </trkpt>
      <trkpt lat="42.515395" lon="2.051674">
        <ele>1789.808</ele>
        <time>2019-05-29T15:18:30Z</time>
      </trkpt>
      <trkpt lat="42.515381" lon="2.051469">
        <ele>1790.265</ele>
        <time>2019-05-29T15:18:37Z</time>
      </trkpt>
      <trkpt lat="42.515376" lon="2.051414">
        <ele>1790.649</ele>
        <time>2019-05-29T15:18:39Z</time>
      </trkpt>
      <trkpt lat="42.515360" lon="2.051293">
        <ele>1791.485</ele>
        <time>2019-05-29T15:18:44Z</time>
      </trkpt>
      <trkpt lat="42.515348" lon="2.051240">
        <ele>1791.843</ele>
        <time>2019-05-29T15:18:46Z</time>
      </trkpt>
      <trkpt lat="42.515293" lon="2.051063">
        <ele>1792.296</ele>
        <time>2019-05-29T15:18:53Z</time>
      </trkpt>
      <trkpt lat="42.515231" lon="2.050935">
        <ele>1792.866</ele>
        <time>2019-05-29T15:18:58Z</time>
      </trkpt>
      <trkpt lat="42.515191" lon="2.050864">
        <ele>1793.248</ele>
        <time>2019-05-29T15:19:01Z</time>
      </trkpt>
      <trkpt lat="42.515065" lon="2.050689">
        <ele>1793.243</ele>
        <time>2019-05-29T15:19:09Z</time>
      </trkpt>
      <trkpt lat="42.514972" lon="2.050611">
        <ele>1793.874</ele>
        <time>2019-05-29T15:19:14Z</time>
      </trkpt>
      <trkpt lat="42.514911" lon="2.050564">
        <ele>1794.856</ele>
        <time>2019-05-29T15:19:17Z</time>
      </trkpt>
      <trkpt lat="42.514890" lon="2.050555">
        <ele>1795.021</ele>
        <time>2019-05-29T15:19:18Z</time>
      </trkpt>
      <trkpt lat="42.514727" lon="2.050482">
        <ele>1796.008</ele>
        <time>2019-05-29T15:19:26Z</time>
      </trkpt>
      <trkpt lat="42.514707" lon="2.050471">
        <ele>1796.290</ele>
        <time>2019-05-29T15:19:27Z</time>
      </trkpt>
      <trkpt lat="42.514478" lon="2.050377">
        <ele>1796.454</ele>
        <time>2019-05-29T15:19:38Z</time>
      </trkpt>
      <trkpt lat="42.514392" lon="2.050343">
        <ele>1797.210</ele>
        <time>2019-05-29T15:19:42Z</time>
      </trkpt>
      <trkpt lat="42.514275" lon="2.050299">
        <ele>1797.618</ele>
        <time>2019-05-29T15:19:48Z</time>
      </trkpt>
      <trkpt lat="42.514158" lon="2.050265">
        <ele>1796.691</ele>
        <time>2019-05-29T15:19:54Z</time>
      </trkpt>
      <trkpt lat="42.514120" lon="2.050248">
        <ele>1798.421</ele>
        <time>2019-05-29T15:19:56Z</time>
      </trkpt>
      <trkpt lat="42.514102" lon="2.050242">
        <ele>1800.253</ele>
        <time>2019-05-29T15:19:57Z</time>
      </trkpt>
      <trkpt lat="42.513975" lon="2.050203">
        <ele>1799.648</ele>
        <time>2019-05-29T15:20:04Z</time>
      </trkpt>
      <trkpt lat="42.513918" lon="2.050193">
        <ele>1801.468</ele>
        <time>2019-05-29T15:20:07Z</time>
      </trkpt>
      <trkpt lat="42.513828" lon="2.050183">
        <ele>1801.042</ele>
        <time>2019-05-29T15:20:12Z</time>
      </trkpt>
      <trkpt lat="42.513791" lon="2.050185">
        <ele>1800.226</ele>
        <time>2019-05-29T15:20:14Z</time>
      </trkpt>
      <trkpt lat="42.513698" lon="2.050187">
        <ele>1800.408</ele>
        <time>2019-05-29T15:20:19Z</time>
      </trkpt>
      <trkpt lat="42.513663" lon="2.050192">
        <ele>1801.279</ele>
        <time>2019-05-29T15:20:21Z</time>
      </trkpt>
      <trkpt lat="42.513555" lon="2.050212">
        <ele>1802.663</ele>
        <time>2019-05-29T15:20:27Z</time>
      </trkpt>
      <trkpt lat="42.513499" lon="2.050232">
        <ele>1801.689</ele>
        <time>2019-05-29T15:20:30Z</time>
      </trkpt>
      <trkpt lat="42.513483" lon="2.050236">
        <ele>1801.647</ele>
        <time>2019-05-29T15:20:31Z</time>
      </trkpt>
      <trkpt lat="42.513387" lon="2.050265">
        <ele>1801.480</ele>
        <time>2019-05-29T15:20:36Z</time>
      </trkpt>
      <trkpt lat="42.513241" lon="2.050351">
        <ele>1801.670</ele>
        <time>2019-05-29T15:20:43Z</time>
      </trkpt>
      <trkpt lat="42.513145" lon="2.050406">
        <ele>1802.862</ele>
        <time>2019-05-29T15:20:48Z</time>
      </trkpt>
      <trkpt lat="42.513089" lon="2.050446">
        <ele>1803.277</ele>
        <time>2019-05-29T15:20:51Z</time>
      </trkpt>
      <trkpt lat="42.513035" lon="2.050483">
        <ele>1804.052</ele>
        <time>2019-05-29T15:20:54Z</time>
      </trkpt>
      <trkpt lat="42.512940" lon="2.050537">
        <ele>1805.053</ele>
        <time>2019-05-29T15:20:59Z</time>
      </trkpt>
      <trkpt lat="42.512901" lon="2.050565">
        <ele>1805.208</ele>
        <time>2019-05-29T15:21:01Z</time>
      </trkpt>
      <trkpt lat="42.512765" lon="2.050644">
        <ele>1806.008</ele>
        <time>2019-05-29T15:21:08Z</time>
      </trkpt>
      <trkpt lat="42.512699" lon="2.050671">
        <ele>1806.858</ele>
        <time>2019-05-29T15:21:11Z</time>
      </trkpt>
      <trkpt lat="42.512616" lon="2.050706">
        <ele>1807.262</ele>
        <time>2019-05-29T15:21:15Z</time>
      </trkpt>
      <trkpt lat="42.512506" lon="2.050723">
        <ele>1807.878</ele>
        <time>2019-05-29T15:21:20Z</time>
      </trkpt>
      <trkpt lat="42.512483" lon="2.050722">
        <ele>1808.246</ele>
        <time>2019-05-29T15:21:21Z</time>
      </trkpt>
      <trkpt lat="42.512439" lon="2.050722">
        <ele>1809.479</ele>
        <time>2019-05-29T15:21:23Z</time>
      </trkpt>
      <trkpt lat="42.512395" lon="2.050721">
        <ele>1810.689</ele>
        <time>2019-05-29T15:21:25Z</time>
      </trkpt>
      <trkpt lat="42.512301" lon="2.050700">
        <ele>1811.281</ele>
        <time>2019-05-29T15:21:29Z</time>
      </trkpt>
      <trkpt lat="42.512105" lon="2.050613">
        <ele>1811.426</ele>
        <time>2019-05-29T15:21:38Z</time>
      </trkpt>
      <trkpt lat="42.511984" lon="2.050484">
        <ele>1811.813</ele>
        <time>2019-05-29T15:21:44Z</time>
      </trkpt>
      <trkpt lat="42.511960" lon="2.050464">
        <ele>1812.043</ele>
        <time>2019-05-29T15:21:45Z</time>
      </trkpt>
      <trkpt lat="42.511795" lon="2.050304">
        <ele>1813.407</ele>
        <time>2019-05-29T15:21:53Z</time>
      </trkpt>
      <trkpt lat="42.511692" lon="2.050139">
        <ele>1813.408</ele>
        <time>2019-05-29T15:21:59Z</time>
      </trkpt>
      <trkpt lat="42.511623" lon="2.050010">
        <ele>1812.424</ele>
        <time>2019-05-29T15:22:03Z</time>
      </trkpt>
      <trkpt lat="42.511614" lon="2.049974">
        <ele>1812.028</ele>
        <time>2019-05-29T15:22:04Z</time>
      </trkpt>
      <trkpt lat="42.511604" lon="2.049937">
        <ele>1811.814</ele>
        <time>2019-05-29T15:22:05Z</time>
      </trkpt>
      <trkpt lat="42.511578" lon="2.049895">
        <ele>1811.292</ele>
        <time>2019-05-29T15:22:07Z</time>
      </trkpt>
      <trkpt lat="42.511557" lon="2.049899">
        <ele>1810.875</ele>
        <time>2019-05-29T15:22:08Z</time>
      </trkpt>
      <trkpt lat="42.511520" lon="2.049972">
        <ele>1810.815</ele>
        <time>2019-05-29T15:22:11Z</time>
      </trkpt>
      <trkpt lat="42.511472" lon="2.049947">
        <ele>1811.417</ele>
        <time>2019-05-29T15:22:14Z</time>
      </trkpt>
      <trkpt lat="42.511468" lon="2.049917">
        <ele>1812.072</ele>
        <time>2019-05-29T15:22:17Z</time>
      </trkpt>
      <trkpt lat="42.511479" lon="2.050001">
        <ele>1811.849</ele>
        <time>2019-05-29T15:23:45Z</time>
      </trkpt>
      <trkpt lat="42.511495" lon="2.050004">
        <ele>1811.002</ele>
        <time>2019-05-29T15:23:46Z</time>
      </trkpt>
      <trkpt lat="42.511516" lon="2.049996">
        <ele>1810.422</ele>
        <time>2019-05-29T15:23:47Z</time>
      </trkpt>
      <trkpt lat="42.511560" lon="2.049923">
        <ele>1810.208</ele>
        <time>2019-05-29T15:23:50Z</time>
      </trkpt>
      <trkpt lat="42.511561" lon="2.049882">
        <ele>1810.677</ele>
        <time>2019-05-29T15:23:51Z</time>
      </trkpt>
      <trkpt lat="42.511544" lon="2.049592">
        <ele>1808.661</ele>
        <time>2019-05-29T15:23:56Z</time>
      </trkpt>
      <trkpt lat="42.511539" lon="2.049516">
        <ele>1809.857</ele>
        <time>2019-05-29T15:23:57Z</time>
      </trkpt>
      <trkpt lat="42.511536" lon="2.049436">
        <ele>1808.665</ele>
        <time>2019-05-29T15:23:58Z</time>
      </trkpt>
      <trkpt lat="42.511533" lon="2.049354">
        <ele>1810.028</ele>
        <time>2019-05-29T15:23:59Z</time>
      </trkpt>
      <trkpt lat="42.511533" lon="2.049269">
        <ele>1807.898</ele>
        <time>2019-05-29T15:24:00Z</time>
      </trkpt>
      <trkpt lat="42.511536" lon="2.049183">
        <ele>1806.670</ele>
        <time>2019-05-29T15:24:01Z</time>
      </trkpt>
      <trkpt lat="42.511544" lon="2.049097">
        <ele>1805.845</ele>
        <time>2019-05-29T15:24:02Z</time>
      </trkpt>
      <trkpt lat="42.511604" lon="2.048830">
        <ele>1805.477</ele>
        <time>2019-05-29T15:24:05Z</time>
      </trkpt>
      <trkpt lat="42.511660" lon="2.048649">
        <ele>1804.061</ele>
        <time>2019-05-29T15:24:07Z</time>
      </trkpt>
      <trkpt lat="42.511714" lon="2.048461">
        <ele>1802.427</ele>
        <time>2019-05-29T15:24:09Z</time>
      </trkpt>
      <trkpt lat="42.511741" lon="2.048365">
        <ele>1801.008</ele>
        <time>2019-05-29T15:24:10Z</time>
      </trkpt>
      <trkpt lat="42.511769" lon="2.048270">
        <ele>1799.680</ele>
        <time>2019-05-29T15:24:11Z</time>
      </trkpt>
      <trkpt lat="42.511796" lon="2.048173">
        <ele>1799.054</ele>
        <time>2019-05-29T15:24:12Z</time>
      </trkpt>
      <trkpt lat="42.511907" lon="2.047785">
        <ele>1798.650</ele>
        <time>2019-05-29T15:24:16Z</time>
      </trkpt>
      <trkpt lat="42.511969" lon="2.047590">
        <ele>1796.838</ele>
        <time>2019-05-29T15:24:18Z</time>
      </trkpt>
      <trkpt lat="42.512026" lon="2.047394">
        <ele>1795.251</ele>
        <time>2019-05-29T15:24:20Z</time>
      </trkpt>
      <trkpt lat="42.512164" lon="2.046924">
        <ele>1795.251</ele>
        <time>2019-05-29T15:24:25Z</time>
      </trkpt>
      <trkpt lat="42.512209" lon="2.046728">
        <ele>1794.233</ele>
        <time>2019-05-29T15:24:27Z</time>
      </trkpt>
      <trkpt lat="42.512217" lon="2.046624">
        <ele>1794.098</ele>
        <time>2019-05-29T15:24:28Z</time>
      </trkpt>
      <trkpt lat="42.512208" lon="2.046522">
        <ele>1793.233</ele>
        <time>2019-05-29T15:24:29Z</time>
      </trkpt>
      <trkpt lat="42.512088" lon="2.046235">
        <ele>1793.423</ele>
        <time>2019-05-29T15:24:32Z</time>
      </trkpt>
      <trkpt lat="42.511956" lon="2.046099">
        <ele>1791.415</ele>
        <time>2019-05-29T15:24:34Z</time>
      </trkpt>
      <trkpt lat="42.511879" lon="2.046059">
        <ele>1790.008</ele>
        <time>2019-05-29T15:24:35Z</time>
      </trkpt>
      <trkpt lat="42.511622" lon="2.046056">
        <ele>1789.436</ele>
        <time>2019-05-29T15:24:38Z</time>
      </trkpt>
      <trkpt lat="42.511447" lon="2.046121">
        <ele>1789.010</ele>
        <time>2019-05-29T15:24:40Z</time>
      </trkpt>
      <trkpt lat="42.511278" lon="2.046177">
        <ele>1788.616</ele>
        <time>2019-05-29T15:24:42Z</time>
      </trkpt>
      <trkpt lat="42.511104" lon="2.046222">
        <ele>1788.074</ele>
        <time>2019-05-29T15:24:44Z</time>
      </trkpt>
      <trkpt lat="42.510857" lon="2.046319">
        <ele>1786.427</ele>
        <time>2019-05-29T15:24:47Z</time>
      </trkpt>
      <trkpt lat="42.510775" lon="2.046375">
        <ele>1785.827</ele>
        <time>2019-05-29T15:24:48Z</time>
      </trkpt>
      <trkpt lat="42.510700" lon="2.046443">
        <ele>1784.619</ele>
        <time>2019-05-29T15:24:49Z</time>
      </trkpt>
      <trkpt lat="42.510634" lon="2.046527">
        <ele>1783.474</ele>
        <time>2019-05-29T15:24:50Z</time>
      </trkpt>
      <trkpt lat="42.510379" lon="2.046832">
        <ele>1783.825</ele>
        <time>2019-05-29T15:24:54Z</time>
      </trkpt>
      <trkpt lat="42.510307" lon="2.046878">
        <ele>1783.626</ele>
        <time>2019-05-29T15:24:55Z</time>
      </trkpt>
      <trkpt lat="42.510049" lon="2.046885">
        <ele>1782.608</ele>
        <time>2019-05-29T15:24:58Z</time>
      </trkpt>
      <trkpt lat="42.509960" lon="2.046843">
        <ele>1782.008</ele>
        <time>2019-05-29T15:24:59Z</time>
      </trkpt>
      <trkpt lat="42.509782" lon="2.046744">
        <ele>1781.055</ele>
        <time>2019-05-29T15:25:01Z</time>
      </trkpt>
      <trkpt lat="42.509597" lon="2.046673">
        <ele>1779.099</ele>
        <time>2019-05-29T15:25:03Z</time>
      </trkpt>
      <trkpt lat="42.509497" lon="2.046647">
        <ele>1778.015</ele>
        <time>2019-05-29T15:25:04Z</time>
      </trkpt>
      <trkpt lat="42.509400" lon="2.046615">
        <ele>1776.423</ele>
        <time>2019-05-29T15:25:05Z</time>
      </trkpt>
      <trkpt lat="42.509305" lon="2.046565">
        <ele>1775.296</ele>
        <time>2019-05-29T15:25:06Z</time>
      </trkpt>
      <trkpt lat="42.509217" lon="2.046494">
        <ele>1773.416</ele>
        <time>2019-05-29T15:25:07Z</time>
      </trkpt>
      <trkpt lat="42.509133" lon="2.046407">
        <ele>1772.468</ele>
        <time>2019-05-29T15:25:08Z</time>
      </trkpt>
      <trkpt lat="42.509054" lon="2.046308">
        <ele>1771.283</ele>
        <time>2019-05-29T15:25:09Z</time>
      </trkpt>
      <trkpt lat="42.508915" lon="2.046116">
        <ele>1769.623</ele>
        <time>2019-05-29T15:25:11Z</time>
      </trkpt>
      <trkpt lat="42.508844" lon="2.046026">
        <ele>1769.083</ele>
        <time>2019-05-29T15:25:12Z</time>
      </trkpt>
      <trkpt lat="42.508767" lon="2.045947">
        <ele>1768.411</ele>
        <time>2019-05-29T15:25:13Z</time>
      </trkpt>
      <trkpt lat="42.508595" lon="2.045820">
        <ele>1766.408</ele>
        <time>2019-05-29T15:25:15Z</time>
      </trkpt>
      <trkpt lat="42.508502" lon="2.045772">
        <ele>1765.665</ele>
        <time>2019-05-29T15:25:16Z</time>
      </trkpt>
      <trkpt lat="42.508405" lon="2.045732">
        <ele>1765.269</ele>
        <time>2019-05-29T15:25:17Z</time>
      </trkpt>
      <trkpt lat="42.508096" lon="2.045693">
        <ele>1763.855</ele>
        <time>2019-05-29T15:25:20Z</time>
      </trkpt>
      <trkpt lat="42.507890" lon="2.045735">
        <ele>1761.853</ele>
        <time>2019-05-29T15:25:22Z</time>
      </trkpt>
      <trkpt lat="42.507793" lon="2.045774">
        <ele>1760.696</ele>
        <time>2019-05-29T15:25:23Z</time>
      </trkpt>
      <trkpt lat="42.507698" lon="2.045827">
        <ele>1759.276</ele>
        <time>2019-05-29T15:25:24Z</time>
      </trkpt>
      <trkpt lat="42.507603" lon="2.045884">
        <ele>1758.468</ele>
        <time>2019-05-29T15:25:25Z</time>
      </trkpt>
      <trkpt lat="42.507510" lon="2.045944">
        <ele>1757.613</ele>
        <time>2019-05-29T15:25:26Z</time>
      </trkpt>
      <trkpt lat="42.507334" lon="2.046039">
        <ele>1756.223</ele>
        <time>2019-05-29T15:25:28Z</time>
      </trkpt>
      <trkpt lat="42.507238" lon="2.046071">
        <ele>1755.683</ele>
        <time>2019-05-29T15:25:29Z</time>
      </trkpt>
      <trkpt lat="42.507138" lon="2.046084">
        <ele>1755.011</ele>
        <time>2019-05-29T15:25:30Z</time>
      </trkpt>
      <trkpt lat="42.506930" lon="2.046065">
        <ele>1754.008</ele>
        <time>2019-05-29T15:25:32Z</time>
      </trkpt>
      <trkpt lat="42.506829" lon="2.046029">
        <ele>1753.635</ele>
        <time>2019-05-29T15:25:33Z</time>
      </trkpt>
      <trkpt lat="42.506642" lon="2.045917">
        <ele>1752.629</ele>
        <time>2019-05-29T15:25:35Z</time>
      </trkpt>
      <trkpt lat="42.506553" lon="2.045847">
        <ele>1752.095</ele>
        <time>2019-05-29T15:25:36Z</time>
      </trkpt>
      <trkpt lat="42.506470" lon="2.045778">
        <ele>1751.693</ele>
        <time>2019-05-29T15:25:37Z</time>
      </trkpt>
      <trkpt lat="42.506386" lon="2.045709">
        <ele>1750.816</ele>
        <time>2019-05-29T15:25:38Z</time>
      </trkpt>
      <trkpt lat="42.506306" lon="2.045644">
        <ele>1749.216</ele>
        <time>2019-05-29T15:25:39Z</time>
      </trkpt>
      <trkpt lat="42.506226" lon="2.045583">
        <ele>1748.628</ele>
        <time>2019-05-29T15:25:40Z</time>
      </trkpt>
      <trkpt lat="42.506148" lon="2.045522">
        <ele>1748.083</ele>
        <time>2019-05-29T15:25:41Z</time>
      </trkpt>
      <trkpt lat="42.505873" lon="2.045285">
        <ele>1746.481</ele>
        <time>2019-05-29T15:25:45Z</time>
      </trkpt>
      <trkpt lat="42.505752" lon="2.045179">
        <ele>1745.061</ele>
        <time>2019-05-29T15:25:47Z</time>
      </trkpt>
      <trkpt lat="42.505633" lon="2.045084">
        <ele>1743.417</ele>
        <time>2019-05-29T15:25:49Z</time>
      </trkpt>
      <trkpt lat="42.505513" lon="2.044997">
        <ele>1741.608</ele>
        <time>2019-05-29T15:25:51Z</time>
      </trkpt>
      <trkpt lat="42.505306" lon="2.044824">
        <ele>1741.471</ele>
        <time>2019-05-29T15:25:55Z</time>
      </trkpt>
      <trkpt lat="42.505271" lon="2.044781">
        <ele>1740.865</ele>
        <time>2019-05-29T15:25:56Z</time>
      </trkpt>
      <trkpt lat="42.505239" lon="2.044738">
        <ele>1740.481</ele>
        <time>2019-05-29T15:25:57Z</time>
      </trkpt>
      <trkpt lat="42.505204" lon="2.044699">
        <ele>1740.049</ele>
        <time>2019-05-29T15:25:58Z</time>
      </trkpt>
      <trkpt lat="42.505152" lon="2.044606">
        <ele>1739.472</ele>
        <time>2019-05-29T15:26:00Z</time>
      </trkpt>
      <trkpt lat="42.505146" lon="2.044545">
        <ele>1738.622</ele>
        <time>2019-05-29T15:26:01Z</time>
      </trkpt>
      <trkpt lat="42.505150" lon="2.044487">
        <ele>1738.034</ele>
        <time>2019-05-29T15:26:02Z</time>
      </trkpt>
      <trkpt lat="42.505161" lon="2.044429">
        <ele>1736.699</ele>
        <time>2019-05-29T15:26:03Z</time>
      </trkpt>
      <trkpt lat="42.505173" lon="2.044374">
        <ele>1735.845</ele>
        <time>2019-05-29T15:26:04Z</time>
      </trkpt>
      <trkpt lat="42.505185" lon="2.044328">
        <ele>1735.447</ele>
        <time>2019-05-29T15:26:05Z</time>
      </trkpt>
      <trkpt lat="42.505234" lon="2.044148">
        <ele>1736.011</ele>
        <time>2019-05-29T15:26:10Z</time>
      </trkpt>
      <trkpt lat="42.505240" lon="2.044122">
        <ele>1736.608</ele>
        <time>2019-05-29T15:26:11Z</time>
      </trkpt>
      <trkpt lat="42.505261" lon="2.044074">
        <ele>1737.047</ele>
        <time>2019-05-29T15:26:15Z</time>
      </trkpt>
      <trkpt lat="42.505188" lon="2.044227">
        <ele>1765.899</ele>
        <time>2019-05-30T06:57:26Z</time>
      </trkpt>
      <trkpt lat="42.505157" lon="2.044241">
        <ele>1765.207</ele>
        <time>2019-05-30T07:01:14Z</time>
      </trkpt>
      <trkpt lat="42.505136" lon="2.044296">
        <ele>1765.227</ele>
        <time>2019-05-30T07:01:16Z</time>
      </trkpt>
      <trkpt lat="42.505125" lon="2.044414">
        <ele>1764.808</ele>
        <time>2019-05-30T07:01:20Z</time>
      </trkpt>
      <trkpt lat="42.505114" lon="2.044445">
        <ele>1766.222</ele>
        <time>2019-05-30T07:01:21Z</time>
      </trkpt>
      <trkpt lat="42.505086" lon="2.044616">
        <ele>1767.216</ele>
        <time>2019-05-30T07:01:27Z</time>
      </trkpt>
      <trkpt lat="42.505087" lon="2.044647">
        <ele>1767.612</ele>
        <time>2019-05-30T07:01:28Z</time>
      </trkpt>
      <trkpt lat="42.505085" lon="2.044678">
        <ele>1768.690</ele>
        <time>2019-05-30T07:01:29Z</time>
      </trkpt>
      <trkpt lat="42.505130" lon="2.044809">
        <ele>1769.433</ele>
        <time>2019-05-30T07:01:34Z</time>
      </trkpt>
      <trkpt lat="42.505251" lon="2.044915">
        <ele>1769.847</ele>
        <time>2019-05-30T07:01:40Z</time>
      </trkpt>
      <trkpt lat="42.505369" lon="2.045023">
        <ele>1770.625</ele>
        <time>2019-05-30T07:01:46Z</time>
      </trkpt>
      <trkpt lat="42.505387" lon="2.045040">
        <ele>1770.870</ele>
        <time>2019-05-30T07:01:47Z</time>
      </trkpt>
      <trkpt lat="42.505449" lon="2.045089">
        <ele>1769.018</ele>
        <time>2019-05-30T07:01:50Z</time>
      </trkpt>
      <trkpt lat="42.505492" lon="2.045126">
        <ele>1770.698</ele>
        <time>2019-05-30T07:01:52Z</time>
      </trkpt>
      <trkpt lat="42.505516" lon="2.045140">
        <ele>1774.017</ele>
        <time>2019-05-30T07:01:53Z</time>
      </trkpt>
      <trkpt lat="42.505539" lon="2.045157">
        <ele>1773.008</ele>
        <time>2019-05-30T07:01:54Z</time>
      </trkpt>
      <trkpt lat="42.505560" lon="2.045171">
        <ele>1771.284</ele>
        <time>2019-05-30T07:01:55Z</time>
      </trkpt>
      <trkpt lat="42.505623" lon="2.045221">
        <ele>1773.428</ele>
        <time>2019-05-30T07:01:58Z</time>
      </trkpt>
      <trkpt lat="42.505738" lon="2.045296">
        <ele>1773.274</ele>
        <time>2019-05-30T07:02:03Z</time>
      </trkpt>
      <trkpt lat="42.505848" lon="2.045382">
        <ele>1774.682</ele>
        <time>2019-05-30T07:02:09Z</time>
      </trkpt>
      <trkpt lat="42.505869" lon="2.045401">
        <ele>1774.635</ele>
        <time>2019-05-30T07:02:10Z</time>
      </trkpt>
      <trkpt lat="42.505987" lon="2.045490">
        <ele>1775.659</ele>
        <time>2019-05-30T07:02:16Z</time>
      </trkpt>
      <trkpt lat="42.506004" lon="2.045507">
        <ele>1775.617</ele>
        <time>2019-05-30T07:02:17Z</time>
      </trkpt>
      <trkpt lat="42.506158" lon="2.045613">
        <ele>1776.682</ele>
        <time>2019-05-30T07:02:25Z</time>
      </trkpt>
      <trkpt lat="42.506178" lon="2.045628">
        <ele>1776.621</ele>
        <time>2019-05-30T07:02:26Z</time>
      </trkpt>
      <trkpt lat="42.506253" lon="2.045678">
        <ele>1777.841</ele>
        <time>2019-05-30T07:02:30Z</time>
      </trkpt>
      <trkpt lat="42.506324" lon="2.045737">
        <ele>1778.005</ele>
        <time>2019-05-30T07:02:34Z</time>
      </trkpt>
      <trkpt lat="42.506402" lon="2.045798">
        <ele>1779.208</ele>
        <time>2019-05-30T07:02:38Z</time>
      </trkpt>
      <trkpt lat="42.506554" lon="2.045917">
        <ele>1779.895</ele>
        <time>2019-05-30T07:02:46Z</time>
      </trkpt>
      <trkpt lat="42.506593" lon="2.045948">
        <ele>1780.299</ele>
        <time>2019-05-30T07:02:48Z</time>
      </trkpt>
      <trkpt lat="42.506660" lon="2.046002">
        <ele>1781.045</ele>
        <time>2019-05-30T07:02:52Z</time>
      </trkpt>
      <trkpt lat="42.506727" lon="2.046061">
        <ele>1781.223</ele>
        <time>2019-05-30T07:02:56Z</time>
      </trkpt>
      <trkpt lat="42.506785" lon="2.046099">
        <ele>1782.076</ele>
        <time>2019-05-30T07:02:59Z</time>
      </trkpt>
      <trkpt lat="42.506883" lon="2.046136">
        <ele>1782.440</ele>
        <time>2019-05-30T07:03:04Z</time>
      </trkpt>
      <trkpt lat="42.506968" lon="2.046160">
        <ele>1783.248</ele>
        <time>2019-05-30T07:03:08Z</time>
      </trkpt>
      <trkpt lat="42.507040" lon="2.046177">
        <ele>1783.453</ele>
        <time>2019-05-30T07:03:11Z</time>
      </trkpt>
      <trkpt lat="42.507152" lon="2.046178">
        <ele>1784.052</ele>
        <time>2019-05-30T07:03:16Z</time>
      </trkpt>
      <trkpt lat="42.507197" lon="2.046173">
        <ele>1784.653</ele>
        <time>2019-05-30T07:03:18Z</time>
      </trkpt>
      <trkpt lat="42.507333" lon="2.046151">
        <ele>1785.608</ele>
        <time>2019-05-30T07:03:24Z</time>
      </trkpt>
      <trkpt lat="42.507355" lon="2.046144">
        <ele>1785.808</ele>
        <time>2019-05-30T07:03:25Z</time>
      </trkpt>
      <trkpt lat="42.507548" lon="2.046055">
        <ele>1786.478</ele>
        <time>2019-05-30T07:03:34Z</time>
      </trkpt>
      <trkpt lat="42.507603" lon="2.046014">
        <ele>1786.872</ele>
        <time>2019-05-30T07:03:37Z</time>
      </trkpt>
      <trkpt lat="42.507721" lon="2.045957">
        <ele>1787.458</ele>
        <time>2019-05-30T07:03:43Z</time>
      </trkpt>
      <trkpt lat="42.507761" lon="2.045938">
        <ele>1788.236</ele>
        <time>2019-05-30T07:03:45Z</time>
      </trkpt>
      <trkpt lat="42.507925" lon="2.045874">
        <ele>1789.499</ele>
        <time>2019-05-30T07:03:53Z</time>
      </trkpt>
      <trkpt lat="42.508086" lon="2.045824">
        <ele>1790.483</ele>
        <time>2019-05-30T07:04:00Z</time>
      </trkpt>
      <trkpt lat="42.508107" lon="2.045820">
        <ele>1790.691</ele>
        <time>2019-05-30T07:04:01Z</time>
      </trkpt>
      <trkpt lat="42.508198" lon="2.045819">
        <ele>1791.436</ele>
        <time>2019-05-30T07:04:05Z</time>
      </trkpt>
      <trkpt lat="42.508305" lon="2.045824">
        <ele>1792.627</ele>
        <time>2019-05-30T07:04:10Z</time>
      </trkpt>
      <trkpt lat="42.508427" lon="2.045882">
        <ele>1792.868</ele>
        <time>2019-05-30T07:04:16Z</time>
      </trkpt>
      <trkpt lat="42.508547" lon="2.045937">
        <ele>1793.614</ele>
        <time>2019-05-30T07:04:22Z</time>
      </trkpt>
      <trkpt lat="42.508659" lon="2.046012">
        <ele>1794.008</ele>
        <time>2019-05-30T07:04:28Z</time>
      </trkpt>
      <trkpt lat="42.508695" lon="2.046035">
        <ele>1794.845</ele>
        <time>2019-05-30T07:04:30Z</time>
      </trkpt>
      <trkpt lat="42.508747" lon="2.046078">
        <ele>1796.049</ele>
        <time>2019-05-30T07:04:33Z</time>
      </trkpt>
      <trkpt lat="42.508792" lon="2.046136">
        <ele>1796.475</ele>
        <time>2019-05-30T07:04:36Z</time>
      </trkpt>
      <trkpt lat="42.508913" lon="2.046256">
        <ele>1797.073</ele>
        <time>2019-05-30T07:04:43Z</time>
      </trkpt>
      <trkpt lat="42.508932" lon="2.046277">
        <ele>1797.296</ele>
        <time>2019-05-30T07:04:44Z</time>
      </trkpt>
      <trkpt lat="42.509052" lon="2.046410">
        <ele>1798.010</ele>
        <time>2019-05-30T07:04:51Z</time>
      </trkpt>
      <trkpt lat="42.509085" lon="2.046448">
        <ele>1798.418</ele>
        <time>2019-05-30T07:04:53Z</time>
      </trkpt>
      <trkpt lat="42.509164" lon="2.046538">
        <ele>1799.493</ele>
        <time>2019-05-30T07:04:58Z</time>
      </trkpt>
      <trkpt lat="42.509177" lon="2.046553">
        <ele>1799.485</ele>
        <time>2019-05-30T07:04:59Z</time>
      </trkpt>
      <trkpt lat="42.509307" lon="2.046640">
        <ele>1800.689</ele>
        <time>2019-05-30T07:05:06Z</time>
      </trkpt>
      <trkpt lat="42.509357" lon="2.046670">
        <ele>1801.617</ele>
        <time>2019-05-30T07:05:09Z</time>
      </trkpt>
      <trkpt lat="42.509439" lon="2.046699">
        <ele>1801.808</ele>
        <time>2019-05-30T07:05:13Z</time>
      </trkpt>
      <trkpt lat="42.509575" lon="2.046736">
        <ele>1802.871</ele>
        <time>2019-05-30T07:05:19Z</time>
      </trkpt>
      <trkpt lat="42.509615" lon="2.046750">
        <ele>1803.285</ele>
        <time>2019-05-30T07:05:21Z</time>
      </trkpt>
      <trkpt lat="42.509800" lon="2.046821">
        <ele>1803.851</ele>
        <time>2019-05-30T07:05:29Z</time>
      </trkpt>
      <trkpt lat="42.509887" lon="2.046865">
        <ele>1803.889</ele>
        <time>2019-05-30T07:05:33Z</time>
      </trkpt>
      <trkpt lat="42.509970" lon="2.046915">
        <ele>1804.272</ele>
        <time>2019-05-30T07:05:37Z</time>
      </trkpt>
      <trkpt lat="42.510058" lon="2.046946">
        <ele>1804.886</ele>
        <time>2019-05-30T07:05:41Z</time>
      </trkpt>
      <trkpt lat="42.510096" lon="2.046962">
        <ele>1805.494</ele>
        <time>2019-05-30T07:05:43Z</time>
      </trkpt>
      <trkpt lat="42.510163" lon="2.046968">
        <ele>1805.819</ele>
        <time>2019-05-30T07:05:46Z</time>
      </trkpt>
      <trkpt lat="42.510233" lon="2.046964">
        <ele>1806.099</ele>
        <time>2019-05-30T07:05:49Z</time>
      </trkpt>
      <trkpt lat="42.510371" lon="2.046917">
        <ele>1807.007</ele>
        <time>2019-05-30T07:05:56Z</time>
      </trkpt>
      <trkpt lat="42.510514" lon="2.046795">
        <ele>1807.827</ele>
        <time>2019-05-30T07:06:04Z</time>
      </trkpt>
      <trkpt lat="42.510531" lon="2.046777">
        <ele>1808.008</ele>
        <time>2019-05-30T07:06:05Z</time>
      </trkpt>
      <trkpt lat="42.510635" lon="2.046652">
        <ele>1808.062</ele>
        <time>2019-05-30T07:06:12Z</time>
      </trkpt>
      <trkpt lat="42.510755" lon="2.046508">
        <ele>1808.826</ele>
        <time>2019-05-30T07:06:19Z</time>
      </trkpt>
      <trkpt lat="42.510775" lon="2.046482">
        <ele>1809.212</ele>
        <time>2019-05-30T07:06:20Z</time>
      </trkpt>
      <trkpt lat="42.510921" lon="2.046374">
        <ele>1809.870</ele>
        <time>2019-05-30T07:06:27Z</time>
      </trkpt>
      <trkpt lat="42.511037" lon="2.046331">
        <ele>1810.263</ele>
        <time>2019-05-30T07:06:32Z</time>
      </trkpt>
      <trkpt lat="42.511083" lon="2.046317">
        <ele>1810.637</ele>
        <time>2019-05-30T07:06:34Z</time>
      </trkpt>
      <trkpt lat="42.511205" lon="2.046290">
        <ele>1811.635</ele>
        <time>2019-05-30T07:06:39Z</time>
      </trkpt>
      <trkpt lat="42.511291" lon="2.046265">
        <ele>1812.230</ele>
        <time>2019-05-30T07:06:43Z</time>
      </trkpt>
      <trkpt lat="42.511363" lon="2.046240">
        <ele>1812.682</ele>
        <time>2019-05-30T07:06:46Z</time>
      </trkpt>
      <trkpt lat="42.511494" lon="2.046218">
        <ele>1813.043</ele>
        <time>2019-05-30T07:06:52Z</time>
      </trkpt>
      <trkpt lat="42.511605" lon="2.046187">
        <ele>1814.417</ele>
        <time>2019-05-30T07:06:57Z</time>
      </trkpt>
      <trkpt lat="42.511649" lon="2.046184">
        <ele>1814.408</ele>
        <time>2019-05-30T07:06:59Z</time>
      </trkpt>
      <trkpt lat="42.511812" lon="2.046194">
        <ele>1815.881</ele>
        <time>2019-05-30T07:07:06Z</time>
      </trkpt>
      <trkpt lat="42.511923" lon="2.046250">
        <ele>1816.835</ele>
        <time>2019-05-30T07:07:12Z</time>
      </trkpt>
      <trkpt lat="42.511960" lon="2.046279">
        <ele>1817.061</ele>
        <time>2019-05-30T07:07:14Z</time>
      </trkpt>
      <trkpt lat="42.512012" lon="2.046332">
        <ele>1818.059</ele>
        <time>2019-05-30T07:07:17Z</time>
      </trkpt>
      <trkpt lat="42.512063" lon="2.046429">
        <ele>1818.692</ele>
        <time>2019-05-30T07:07:22Z</time>
      </trkpt>
      <trkpt lat="42.512097" lon="2.046531">
        <ele>1819.056</ele>
        <time>2019-05-30T07:07:27Z</time>
      </trkpt>
      <trkpt lat="42.512108" lon="2.046573">
        <ele>1819.424</ele>
        <time>2019-05-30T07:07:29Z</time>
      </trkpt>
      <trkpt lat="42.512120" lon="2.046656">
        <ele>1820.229</ele>
        <time>2019-05-30T07:07:33Z</time>
      </trkpt>
      <trkpt lat="42.512119" lon="2.046765">
        <ele>1820.877</ele>
        <time>2019-05-30T07:07:38Z</time>
      </trkpt>
      <trkpt lat="42.512109" lon="2.046835">
        <ele>1821.261</ele>
        <time>2019-05-30T07:07:41Z</time>
      </trkpt>
      <trkpt lat="42.512075" lon="2.046978">
        <ele>1822.027</ele>
        <time>2019-05-30T07:07:47Z</time>
      </trkpt>
      <trkpt lat="42.512071" lon="2.047021">
        <ele>1822.208</ele>
        <time>2019-05-30T07:07:49Z</time>
      </trkpt>
      <trkpt lat="42.512022" lon="2.047130">
        <ele>1822.820</ele>
        <time>2019-05-30T07:07:54Z</time>
      </trkpt>
      <trkpt lat="42.511994" lon="2.047250">
        <ele>1823.494</ele>
        <time>2019-05-30T07:07:59Z</time>
      </trkpt>
      <trkpt lat="42.511948" lon="2.047392">
        <ele>1824.070</ele>
        <time>2019-05-30T07:08:05Z</time>
      </trkpt>
      <trkpt lat="42.511922" lon="2.047486">
        <ele>1824.418</ele>
        <time>2019-05-30T07:08:09Z</time>
      </trkpt>
      <trkpt lat="42.511885" lon="2.047607">
        <ele>1825.231</ele>
        <time>2019-05-30T07:08:14Z</time>
      </trkpt>
      <trkpt lat="42.511851" lon="2.047702">
        <ele>1825.615</ele>
        <time>2019-05-30T07:08:18Z</time>
      </trkpt>
      <trkpt lat="42.511812" lon="2.047849">
        <ele>1826.283</ele>
        <time>2019-05-30T07:08:24Z</time>
      </trkpt>
      <trkpt lat="42.511782" lon="2.047939">
        <ele>1826.678</ele>
        <time>2019-05-30T07:08:28Z</time>
      </trkpt>
      <trkpt lat="42.511730" lon="2.048088">
        <ele>1827.495</ele>
        <time>2019-05-30T07:08:34Z</time>
      </trkpt>
      <trkpt lat="42.511694" lon="2.048208">
        <ele>1827.849</ele>
        <time>2019-05-30T07:08:39Z</time>
      </trkpt>
      <trkpt lat="42.511676" lon="2.048287">
        <ele>1828.223</ele>
        <time>2019-05-30T07:08:42Z</time>
      </trkpt>
      <trkpt lat="42.511644" lon="2.048383">
        <ele>1828.808</ele>
        <time>2019-05-30T07:08:46Z</time>
      </trkpt>
      <trkpt lat="42.511612" lon="2.048509">
        <ele>1829.292</ele>
        <time>2019-05-30T07:08:51Z</time>
      </trkpt>
      <trkpt lat="42.511566" lon="2.048644">
        <ele>1829.856</ele>
        <time>2019-05-30T07:08:56Z</time>
      </trkpt>
      <trkpt lat="42.511537" lon="2.048741">
        <ele>1830.422</ele>
        <time>2019-05-30T07:09:00Z</time>
      </trkpt>
      <trkpt lat="42.511517" lon="2.048818">
        <ele>1830.890</ele>
        <time>2019-05-30T07:09:03Z</time>
      </trkpt>
      <trkpt lat="42.511469" lon="2.049010">
        <ele>1831.843</ele>
        <time>2019-05-30T07:09:11Z</time>
      </trkpt>
      <trkpt lat="42.511466" lon="2.049035">
        <ele>1832.267</ele>
        <time>2019-05-30T07:09:12Z</time>
      </trkpt>
      <trkpt lat="42.511452" lon="2.049254">
        <ele>1833.455</ele>
        <time>2019-05-30T07:09:20Z</time>
      </trkpt>
      <trkpt lat="42.511457" lon="2.049471">
        <ele>1834.440</ele>
        <time>2019-05-30T07:09:27Z</time>
      </trkpt>
      <trkpt lat="42.511462" lon="2.049534">
        <ele>1834.492</ele>
        <time>2019-05-30T07:09:29Z</time>
      </trkpt>
      <trkpt lat="42.511499" lon="2.049850">
        <ele>1835.073</ele>
        <time>2019-05-30T07:09:39Z</time>
      </trkpt>
      <trkpt lat="42.511518" lon="2.049911">
        <ele>1835.620</ele>
        <time>2019-05-30T07:09:41Z</time>
      </trkpt>
      <trkpt lat="42.511556" lon="2.050077">
        <ele>1836.008</ele>
        <time>2019-05-30T07:09:46Z</time>
      </trkpt>
      <trkpt lat="42.511635" lon="2.050308">
        <ele>1836.462</ele>
        <time>2019-05-30T07:09:53Z</time>
      </trkpt>
      <trkpt lat="42.511776" lon="2.050524">
        <ele>1836.066</ele>
        <time>2019-05-30T07:09:59Z</time>
      </trkpt>
      <trkpt lat="42.511859" lon="2.050644">
        <ele>1835.612</ele>
        <time>2019-05-30T07:10:02Z</time>
      </trkpt>
      <trkpt lat="42.511976" lon="2.050686">
        <ele>1835.660</ele>
        <time>2019-05-30T07:10:05Z</time>
      </trkpt>
      <trkpt lat="42.512042" lon="2.050542">
        <ele>1835.443</ele>
        <time>2019-05-30T07:10:08Z</time>
      </trkpt>
      <trkpt lat="42.512143" lon="2.050379">
        <ele>1836.287</ele>
        <time>2019-05-30T07:10:12Z</time>
      </trkpt>
      <trkpt lat="42.512197" lon="2.050351">
        <ele>1836.655</ele>
        <time>2019-05-30T07:10:14Z</time>
      </trkpt>
      <trkpt lat="42.512219" lon="2.050340">
        <ele>1836.840</ele>
        <time>2019-05-30T07:10:15Z</time>
      </trkpt>
      <trkpt lat="42.512243" lon="2.050333">
        <ele>1837.071</ele>
        <time>2019-05-30T07:10:16Z</time>
      </trkpt>
      <trkpt lat="42.512288" lon="2.050313">
        <ele>1837.641</ele>
        <time>2019-05-30T07:10:18Z</time>
      </trkpt>
      <trkpt lat="42.512396" lon="2.050274">
        <ele>1838.815</ele>
        <time>2019-05-30T07:10:23Z</time>
      </trkpt>
      <trkpt lat="42.512524" lon="2.050226">
        <ele>1839.208</ele>
        <time>2019-05-30T07:10:30Z</time>
      </trkpt>
      <trkpt lat="42.512593" lon="2.050184">
        <ele>1840.060</ele>
        <time>2019-05-30T07:10:33Z</time>
      </trkpt>
      <trkpt lat="42.512628" lon="2.050160">
        <ele>1840.274</ele>
        <time>2019-05-30T07:10:35Z</time>
      </trkpt>
      <trkpt lat="42.512717" lon="2.050098">
        <ele>1841.020</ele>
        <time>2019-05-30T07:10:39Z</time>
      </trkpt>
      <trkpt lat="42.512759" lon="2.050069">
        <ele>1841.638</ele>
        <time>2019-05-30T07:10:41Z</time>
      </trkpt>
      <trkpt lat="42.512796" lon="2.050021">
        <ele>1842.041</ele>
        <time>2019-05-30T07:10:43Z</time>
      </trkpt>
      <trkpt lat="42.512871" lon="2.049916">
        <ele>1842.675</ele>
        <time>2019-05-30T07:10:47Z</time>
      </trkpt>
      <trkpt lat="42.512904" lon="2.049867">
        <ele>1843.273</ele>
        <time>2019-05-30T07:10:49Z</time>
      </trkpt>
      <trkpt lat="42.512990" lon="2.049685">
        <ele>1844.298</ele>
        <time>2019-05-30T07:10:56Z</time>
      </trkpt>
      <trkpt lat="42.513007" lon="2.049656">
        <ele>1844.253</ele>
        <time>2019-05-30T07:10:57Z</time>
      </trkpt>
      <trkpt lat="42.513079" lon="2.049477">
        <ele>1844.604</ele>
        <time>2019-05-30T07:11:03Z</time>
      </trkpt>
      <trkpt lat="42.513186" lon="2.049215">
        <ele>1845.614</ele>
        <time>2019-05-30T07:11:12Z</time>
      </trkpt>
      <trkpt lat="42.513216" lon="2.049164">
        <ele>1845.608</ele>
        <time>2019-05-30T07:11:14Z</time>
      </trkpt>
      <trkpt lat="42.513309" lon="2.048981">
        <ele>1845.898</ele>
        <time>2019-05-30T07:11:21Z</time>
      </trkpt>
      <trkpt lat="42.513383" lon="2.048868">
        <ele>1846.622</ele>
        <time>2019-05-30T07:11:26Z</time>
      </trkpt>
      <trkpt lat="42.513399" lon="2.048846">
        <ele>1846.658</ele>
        <time>2019-05-30T07:11:27Z</time>
      </trkpt>
      <trkpt lat="42.513513" lon="2.048698">
        <ele>1847.456</ele>
        <time>2019-05-30T07:11:34Z</time>
      </trkpt>
      <trkpt lat="42.513551" lon="2.048668">
        <ele>1847.899</ele>
        <time>2019-05-30T07:11:36Z</time>
      </trkpt>
      <trkpt lat="42.513623" lon="2.048616">
        <ele>1848.433</ele>
        <time>2019-05-30T07:11:40Z</time>
      </trkpt>
      <trkpt lat="42.513666" lon="2.048594">
        <ele>1848.831</ele>
        <time>2019-05-30T07:11:42Z</time>
      </trkpt>
      <trkpt lat="42.513695" lon="2.048579">
        <ele>1849.236</ele>
        <time>2019-05-30T07:11:44Z</time>
      </trkpt>
      <trkpt lat="42.513729" lon="2.048562">
        <ele>1849.659</ele>
        <time>2019-05-30T07:11:46Z</time>
      </trkpt>
      <trkpt lat="42.513810" lon="2.048534">
        <ele>1850.003</ele>
        <time>2019-05-30T07:11:50Z</time>
      </trkpt>
      <trkpt lat="42.513845" lon="2.048531">
        <ele>1850.223</ele>
        <time>2019-05-30T07:11:52Z</time>
      </trkpt>
      <trkpt lat="42.513896" lon="2.048522">
        <ele>1850.608</ele>
        <time>2019-05-30T07:11:55Z</time>
      </trkpt>
      <trkpt lat="42.513946" lon="2.048517">
        <ele>1851.068</ele>
        <time>2019-05-30T07:11:58Z</time>
      </trkpt>
      <trkpt lat="42.513971" lon="2.048511">
        <ele>1851.292</ele>
        <time>2019-05-30T07:11:59Z</time>
      </trkpt>
      <trkpt lat="42.514095" lon="2.048491">
        <ele>1852.088</ele>
        <time>2019-05-30T07:12:05Z</time>
      </trkpt>
      <trkpt lat="42.514114" lon="2.048491">
        <ele>1852.236</ele>
        <time>2019-05-30T07:12:06Z</time>
      </trkpt>
      <trkpt lat="42.514204" lon="2.048510">
        <ele>1853.289</ele>
        <time>2019-05-30T07:12:11Z</time>
      </trkpt>
      <trkpt lat="42.514226" lon="2.048511">
        <ele>1853.473</ele>
        <time>2019-05-30T07:12:12Z</time>
      </trkpt>
      <trkpt lat="42.514236" lon="2.048526">
        <ele>1853.651</ele>
        <time>2019-05-30T07:12:13Z</time>
      </trkpt>
      <trkpt lat="42.514318" lon="2.048533">
        <ele>1854.296</ele>
        <time>2019-05-30T07:12:17Z</time>
      </trkpt>
      <trkpt lat="42.514334" lon="2.048545">
        <ele>1854.482</ele>
        <time>2019-05-30T07:12:18Z</time>
      </trkpt>
      <trkpt lat="42.514345" lon="2.048558">
        <ele>1854.643</ele>
        <time>2019-05-30T07:12:19Z</time>
      </trkpt>
      <trkpt lat="42.514401" lon="2.048605">
        <ele>1855.417</ele>
        <time>2019-05-30T07:12:23Z</time>
      </trkpt>
      <trkpt lat="42.514430" lon="2.048630">
        <ele>1855.608</ele>
        <time>2019-05-30T07:12:25Z</time>
      </trkpt>
      <trkpt lat="42.514452" lon="2.048631">
        <ele>1855.651</ele>
        <time>2019-05-30T07:12:26Z</time>
      </trkpt>
      <trkpt lat="42.514539" lon="2.048653">
        <ele>1856.455</ele>
        <time>2019-05-30T07:12:31Z</time>
      </trkpt>
      <trkpt lat="42.514556" lon="2.048657">
        <ele>1856.461</ele>
        <time>2019-05-30T07:12:32Z</time>
      </trkpt>
      <trkpt lat="42.514695" lon="2.048637">
        <ele>1857.659</ele>
        <time>2019-05-30T07:12:38Z</time>
      </trkpt>
      <trkpt lat="42.514719" lon="2.048626">
        <ele>1857.852</ele>
        <time>2019-05-30T07:12:39Z</time>
      </trkpt>
      <trkpt lat="42.514807" lon="2.048602">
        <ele>1858.646</ele>
        <time>2019-05-30T07:12:44Z</time>
      </trkpt>
      <trkpt lat="42.514830" lon="2.048591">
        <ele>1858.674</ele>
        <time>2019-05-30T07:12:45Z</time>
      </trkpt>
      <trkpt lat="42.514866" lon="2.048565">
        <ele>1858.639</ele>
        <time>2019-05-30T07:12:46Z</time>
      </trkpt>
      <trkpt lat="42.514979" lon="2.048508">
        <ele>1860.027</ele>
        <time>2019-05-30T07:12:51Z</time>
      </trkpt>
      <trkpt lat="42.515127" lon="2.048454">
        <ele>1861.068</ele>
        <time>2019-05-30T07:12:58Z</time>
      </trkpt>
      <trkpt lat="42.515226" lon="2.048398">
        <ele>1861.414</ele>
        <time>2019-05-30T07:13:03Z</time>
      </trkpt>
      <trkpt lat="42.515320" lon="2.048338">
        <ele>1862.008</ele>
        <time>2019-05-30T07:13:07Z</time>
      </trkpt>
      <trkpt lat="42.515381" lon="2.048310">
        <ele>1862.615</ele>
        <time>2019-05-30T07:13:10Z</time>
      </trkpt>
      <trkpt lat="42.515453" lon="2.048253">
        <ele>1863.249</ele>
        <time>2019-05-30T07:13:13Z</time>
      </trkpt>
      <trkpt lat="42.515531" lon="2.048185">
        <ele>1863.645</ele>
        <time>2019-05-30T07:13:17Z</time>
      </trkpt>
      <trkpt lat="42.515595" lon="2.048132">
        <ele>1864.483</ele>
        <time>2019-05-30T07:13:20Z</time>
      </trkpt>
      <trkpt lat="42.515686" lon="2.048038">
        <ele>1865.436</ele>
        <time>2019-05-30T07:13:26Z</time>
      </trkpt>
      <trkpt lat="42.515751" lon="2.047963">
        <ele>1865.890</ele>
        <time>2019-05-30T07:13:30Z</time>
      </trkpt>
      <trkpt lat="42.515800" lon="2.047910">
        <ele>1866.018</ele>
        <time>2019-05-30T07:13:33Z</time>
      </trkpt>
      <trkpt lat="42.515827" lon="2.047881">
        <ele>1866.443</ele>
        <time>2019-05-30T07:13:35Z</time>
      </trkpt>
      <trkpt lat="42.515885" lon="2.047811">
        <ele>1867.479</ele>
        <time>2019-05-30T07:13:39Z</time>
      </trkpt>
      <trkpt lat="42.515902" lon="2.047790">
        <ele>1867.405</ele>
        <time>2019-05-30T07:13:40Z</time>
      </trkpt>
      <trkpt lat="42.516004" lon="2.047673">
        <ele>1868.625</ele>
        <time>2019-05-30T07:13:46Z</time>
      </trkpt>
      <trkpt lat="42.516020" lon="2.047658">
        <ele>1868.808</ele>
        <time>2019-05-30T07:13:47Z</time>
      </trkpt>
      <trkpt lat="42.516123" lon="2.047543">
        <ele>1869.670</ele>
        <time>2019-05-30T07:13:53Z</time>
      </trkpt>
      <trkpt lat="42.516142" lon="2.047531">
        <ele>1869.814</ele>
        <time>2019-05-30T07:13:54Z</time>
      </trkpt>
      <trkpt lat="42.516264" lon="2.047427">
        <ele>1870.470</ele>
        <time>2019-05-30T07:14:01Z</time>
      </trkpt>
      <trkpt lat="42.516316" lon="2.047391">
        <ele>1870.878</ele>
        <time>2019-05-30T07:14:04Z</time>
      </trkpt>
      <trkpt lat="42.516355" lon="2.047367">
        <ele>1870.821</ele>
        <time>2019-05-30T07:14:06Z</time>
      </trkpt>
      <trkpt lat="42.516515" lon="2.047240">
        <ele>1871.875</ele>
        <time>2019-05-30T07:14:14Z</time>
      </trkpt>
      <trkpt lat="42.516537" lon="2.047226">
        <ele>1871.823</ele>
        <time>2019-05-30T07:14:15Z</time>
      </trkpt>
      <trkpt lat="42.516725" lon="2.047091">
        <ele>1872.828</ele>
        <time>2019-05-30T07:14:24Z</time>
      </trkpt>
      <trkpt lat="42.516745" lon="2.047076">
        <ele>1873.093</ele>
        <time>2019-05-30T07:14:25Z</time>
      </trkpt>
      <trkpt lat="42.516914" lon="2.046960">
        <ele>1874.065</ele>
        <time>2019-05-30T07:14:33Z</time>
      </trkpt>
      <trkpt lat="42.516977" lon="2.046911">
        <ele>1874.421</ele>
        <time>2019-05-30T07:14:36Z</time>
      </trkpt>
      <trkpt lat="42.517075" lon="2.046835">
        <ele>1875.008</ele>
        <time>2019-05-30T07:14:41Z</time>
      </trkpt>
      <trkpt lat="42.517131" lon="2.046781">
        <ele>1875.432</ele>
        <time>2019-05-30T07:14:44Z</time>
      </trkpt>
      <trkpt lat="42.517200" lon="2.046697">
        <ele>1876.486</ele>
        <time>2019-05-30T07:14:48Z</time>
      </trkpt>
      <trkpt lat="42.517262" lon="2.046597">
        <ele>1876.892</ele>
        <time>2019-05-30T07:14:52Z</time>
      </trkpt>
      <trkpt lat="42.517362" lon="2.046302">
        <ele>1877.460</ele>
        <time>2019-05-30T07:15:02Z</time>
      </trkpt>
      <trkpt lat="42.517444" lon="2.046033">
        <ele>1878.033</ele>
        <time>2019-05-30T07:15:11Z</time>
      </trkpt>
      <trkpt lat="42.517520" lon="2.045779">
        <ele>1878.477</ele>
        <time>2019-05-30T07:15:19Z</time>
      </trkpt>
      <trkpt lat="42.517529" lon="2.045748">
        <ele>1878.465</ele>
        <time>2019-05-30T07:15:20Z</time>
      </trkpt>
      <trkpt lat="42.517574" lon="2.045595">
        <ele>1879.060</ele>
        <time>2019-05-30T07:15:25Z</time>
      </trkpt>
      <trkpt lat="42.517612" lon="2.045475">
        <ele>1879.483</ele>
        <time>2019-05-30T07:15:29Z</time>
      </trkpt>
      <trkpt lat="42.517642" lon="2.045349">
        <ele>1880.025</ele>
        <time>2019-05-30T07:15:33Z</time>
      </trkpt>
      <trkpt lat="42.517672" lon="2.045224">
        <ele>1880.417</ele>
        <time>2019-05-30T07:15:37Z</time>
      </trkpt>
      <trkpt lat="42.517696" lon="2.045107">
        <ele>1881.008</ele>
        <time>2019-05-30T07:15:41Z</time>
      </trkpt>
      <trkpt lat="42.517715" lon="2.045018">
        <ele>1881.671</ele>
        <time>2019-05-30T07:15:44Z</time>
      </trkpt>
      <trkpt lat="42.517759" lon="2.044877">
        <ele>1882.495</ele>
        <time>2019-05-30T07:15:49Z</time>
      </trkpt>
      <trkpt lat="42.517783" lon="2.044821">
        <ele>1882.631</ele>
        <time>2019-05-30T07:15:51Z</time>
      </trkpt>
      <trkpt lat="42.517867" lon="2.044672">
        <ele>1883.689</ele>
        <time>2019-05-30T07:15:57Z</time>
      </trkpt>
      <trkpt lat="42.517992" lon="2.044535">
        <ele>1884.652</ele>
        <time>2019-05-30T07:16:05Z</time>
      </trkpt>
      <trkpt lat="42.518074" lon="2.044461">
        <ele>1885.616</ele>
        <time>2019-05-30T07:16:10Z</time>
      </trkpt>
      <trkpt lat="42.518090" lon="2.044447">
        <ele>1885.864</ele>
        <time>2019-05-30T07:16:11Z</time>
      </trkpt>
      <trkpt lat="42.518192" lon="2.044357">
        <ele>1886.869</ele>
        <time>2019-05-30T07:16:17Z</time>
      </trkpt>
      <trkpt lat="42.518226" lon="2.044335">
        <ele>1887.099</ele>
        <time>2019-05-30T07:16:19Z</time>
      </trkpt>
      <trkpt lat="42.518281" lon="2.044307">
        <ele>1887.807</ele>
        <time>2019-05-30T07:16:22Z</time>
      </trkpt>
      <trkpt lat="42.518358" lon="2.044278">
        <ele>1888.227</ele>
        <time>2019-05-30T07:16:26Z</time>
      </trkpt>
      <trkpt lat="42.518377" lon="2.044278">
        <ele>1888.408</ele>
        <time>2019-05-30T07:16:27Z</time>
      </trkpt>
      <trkpt lat="42.518395" lon="2.044275">
        <ele>1888.482</ele>
        <time>2019-05-30T07:16:28Z</time>
      </trkpt>
      <trkpt lat="42.518457" lon="2.044274">
        <ele>1888.826</ele>
        <time>2019-05-30T07:16:31Z</time>
      </trkpt>
      <trkpt lat="42.518549" lon="2.044289">
        <ele>1890.052</ele>
        <time>2019-05-30T07:16:36Z</time>
      </trkpt>
      <trkpt lat="42.518565" lon="2.044294">
        <ele>1890.050</ele>
        <time>2019-05-30T07:16:37Z</time>
      </trkpt>
      <trkpt lat="42.518699" lon="2.044332">
        <ele>1891.023</ele>
        <time>2019-05-30T07:16:44Z</time>
      </trkpt>
      <trkpt lat="42.518793" lon="2.044353">
        <ele>1891.677</ele>
        <time>2019-05-30T07:16:49Z</time>
      </trkpt>
      <trkpt lat="42.518811" lon="2.044359">
        <ele>1891.825</ele>
        <time>2019-05-30T07:16:50Z</time>
      </trkpt>
      <trkpt lat="42.518865" lon="2.044370">
        <ele>1892.290</ele>
        <time>2019-05-30T07:16:53Z</time>
      </trkpt>
      <trkpt lat="42.518927" lon="2.044377">
        <ele>1892.691</ele>
        <time>2019-05-30T07:16:56Z</time>
      </trkpt>
      <trkpt lat="42.518968" lon="2.044393">
        <ele>1893.281</ele>
        <time>2019-05-30T07:16:58Z</time>
      </trkpt>
      <trkpt lat="42.519027" lon="2.044419">
        <ele>1893.619</ele>
        <time>2019-05-30T07:17:01Z</time>
      </trkpt>
      <trkpt lat="42.519077" lon="2.044436">
        <ele>1894.008</ele>
        <time>2019-05-30T07:17:04Z</time>
      </trkpt>
      <trkpt lat="42.519128" lon="2.044450">
        <ele>1894.222</ele>
        <time>2019-05-30T07:17:07Z</time>
      </trkpt>
      <trkpt lat="42.519209" lon="2.044475">
        <ele>1895.026</ele>
        <time>2019-05-30T07:17:12Z</time>
      </trkpt>
      <trkpt lat="42.519246" lon="2.044480">
        <ele>1895.442</ele>
        <time>2019-05-30T07:17:14Z</time>
      </trkpt>
      <trkpt lat="42.519356" lon="2.044513">
        <ele>1896.280</ele>
        <time>2019-05-30T07:17:20Z</time>
      </trkpt>
      <trkpt lat="42.519389" lon="2.044530">
        <ele>1896.653</ele>
        <time>2019-05-30T07:17:22Z</time>
      </trkpt>
      <trkpt lat="42.519443" lon="2.044544">
        <ele>1897.257</ele>
        <time>2019-05-30T07:17:25Z</time>
      </trkpt>
      <trkpt lat="42.519464" lon="2.044544">
        <ele>1897.425</ele>
        <time>2019-05-30T07:17:26Z</time>
      </trkpt>
      <trkpt lat="42.519522" lon="2.044536">
        <ele>1897.820</ele>
        <time>2019-05-30T07:17:29Z</time>
      </trkpt>
      <trkpt lat="42.519600" lon="2.044531">
        <ele>1898.484</ele>
        <time>2019-05-30T07:17:33Z</time>
      </trkpt>
      <trkpt lat="42.519678" lon="2.044515">
        <ele>1898.807</ele>
        <time>2019-05-30T07:17:37Z</time>
      </trkpt>
      <trkpt lat="42.519750" lon="2.044490">
        <ele>1899.617</ele>
        <time>2019-05-30T07:17:41Z</time>
      </trkpt>
      <trkpt lat="42.519783" lon="2.044484">
        <ele>1900.008</ele>
        <time>2019-05-30T07:17:43Z</time>
      </trkpt>
      <trkpt lat="42.519841" lon="2.044463">
        <ele>1900.891</ele>
        <time>2019-05-30T07:17:47Z</time>
      </trkpt>
      <trkpt lat="42.519857" lon="2.044454">
        <ele>1900.845</ele>
        <time>2019-05-30T07:17:48Z</time>
      </trkpt>
      <trkpt lat="42.519885" lon="2.044433">
        <ele>1901.091</ele>
        <time>2019-05-30T07:17:50Z</time>
      </trkpt>
      <trkpt lat="42.519901" lon="2.044422">
        <ele>1901.239</ele>
        <time>2019-05-30T07:17:51Z</time>
      </trkpt>
      <trkpt lat="42.519964" lon="2.044372">
        <ele>1902.072</ele>
        <time>2019-05-30T07:17:55Z</time>
      </trkpt>
      <trkpt lat="42.520001" lon="2.044338">
        <ele>1902.286</ele>
        <time>2019-05-30T07:17:57Z</time>
      </trkpt>
      <trkpt lat="42.520109" lon="2.044223">
        <ele>1903.054</ele>
        <time>2019-05-30T07:18:03Z</time>
      </trkpt>
      <trkpt lat="42.520145" lon="2.044181">
        <ele>1903.219</ele>
        <time>2019-05-30T07:18:05Z</time>
      </trkpt>
      <trkpt lat="42.520256" lon="2.044028">
        <ele>1904.027</ele>
        <time>2019-05-30T07:18:12Z</time>
      </trkpt>
      <trkpt lat="42.520282" lon="2.043984">
        <ele>1904.268</ele>
        <time>2019-05-30T07:18:14Z</time>
      </trkpt>
      <trkpt lat="42.520347" lon="2.043852">
        <ele>1904.814</ele>
        <time>2019-05-30T07:18:20Z</time>
      </trkpt>
      <trkpt lat="42.520393" lon="2.043700">
        <ele>1905.208</ele>
        <time>2019-05-30T07:18:26Z</time>
      </trkpt>
      <trkpt lat="42.520398" lon="2.043670">
        <ele>1905.415</ele>
        <time>2019-05-30T07:18:27Z</time>
      </trkpt>
      <trkpt lat="42.520424" lon="2.043458">
        <ele>1905.819</ele>
        <time>2019-05-30T07:18:34Z</time>
      </trkpt>
      <trkpt lat="42.520441" lon="2.043119">
        <ele>1906.475</ele>
        <time>2019-05-30T07:18:43Z</time>
      </trkpt>
      <trkpt lat="42.520443" lon="2.042843">
        <ele>1906.683</ele>
        <time>2019-05-30T07:18:50Z</time>
      </trkpt>
      <trkpt lat="42.520459" lon="2.042437">
        <ele>1906.656</ele>
        <time>2019-05-30T07:18:59Z</time>
      </trkpt>
      <trkpt lat="42.520509" lon="2.041987">
        <ele>1906.610</ele>
        <time>2019-05-30T07:19:08Z</time>
      </trkpt>
      <trkpt lat="42.520586" lon="2.041607">
        <ele>1906.478</ele>
        <time>2019-05-30T07:19:16Z</time>
      </trkpt>
      <trkpt lat="42.520670" lon="2.041252">
        <ele>1906.823</ele>
        <time>2019-05-30T07:19:24Z</time>
      </trkpt>
      <trkpt lat="42.520716" lon="2.041116">
        <ele>1907.425</ele>
        <time>2019-05-30T07:19:28Z</time>
      </trkpt>
      <trkpt lat="42.520744" lon="2.041057">
        <ele>1907.626</ele>
        <time>2019-05-30T07:19:30Z</time>
      </trkpt>
      <trkpt lat="42.520794" lon="2.040929">
        <ele>1908.408</ele>
        <time>2019-05-30T07:19:34Z</time>
      </trkpt>
      <trkpt lat="42.520845" lon="2.040808">
        <ele>1909.008</ele>
        <time>2019-05-30T07:19:38Z</time>
      </trkpt>
      <trkpt lat="42.520888" lon="2.040695">
        <ele>1909.635</ele>
        <time>2019-05-30T07:19:42Z</time>
      </trkpt>
      <trkpt lat="42.520945" lon="2.040558">
        <ele>1910.439</ele>
        <time>2019-05-30T07:19:47Z</time>
      </trkpt>
      <trkpt lat="42.520965" lon="2.040502">
        <ele>1910.855</ele>
        <time>2019-05-30T07:19:49Z</time>
      </trkpt>
      <trkpt lat="42.521032" lon="2.040345">
        <ele>1911.623</ele>
        <time>2019-05-30T07:19:55Z</time>
      </trkpt>
      <trkpt lat="42.521044" lon="2.040319">
        <ele>1911.896</ele>
        <time>2019-05-30T07:19:56Z</time>
      </trkpt>
      <trkpt lat="42.521090" lon="2.040207">
        <ele>1913.060</ele>
        <time>2019-05-30T07:20:01Z</time>
      </trkpt>
      <trkpt lat="42.521129" lon="2.040116">
        <ele>1913.248</ele>
        <time>2019-05-30T07:20:05Z</time>
      </trkpt>
      <trkpt lat="42.521185" lon="2.039973">
        <ele>1914.073</ele>
        <time>2019-05-30T07:20:11Z</time>
      </trkpt>
      <trkpt lat="42.521205" lon="2.039935">
        <ele>1914.266</ele>
        <time>2019-05-30T07:20:13Z</time>
      </trkpt>
      <trkpt lat="42.521248" lon="2.039818">
        <ele>1915.229</ele>
        <time>2019-05-30T07:20:18Z</time>
      </trkpt>
      <trkpt lat="42.521264" lon="2.039744">
        <ele>1915.421</ele>
        <time>2019-05-30T07:20:21Z</time>
      </trkpt>
      <trkpt lat="42.521304" lon="2.039572">
        <ele>1916.208</ele>
        <time>2019-05-30T07:20:28Z</time>
      </trkpt>
      <trkpt lat="42.521312" lon="2.039515">
        <ele>1916.269</ele>
        <time>2019-05-30T07:20:30Z</time>
      </trkpt>
      <trkpt lat="42.521320" lon="2.039354">
        <ele>1917.253</ele>
        <time>2019-05-30T07:20:36Z</time>
      </trkpt>
      <trkpt lat="42.521322" lon="2.039325">
        <ele>1917.449</ele>
        <time>2019-05-30T07:20:37Z</time>
      </trkpt>
      <trkpt lat="42.521322" lon="2.039162">
        <ele>1918.497</ele>
        <time>2019-05-30T07:20:43Z</time>
      </trkpt>
      <trkpt lat="42.521318" lon="2.039084">
        <ele>1918.890</ele>
        <time>2019-05-30T07:20:46Z</time>
      </trkpt>
      <trkpt lat="42.521321" lon="2.039007">
        <ele>1919.434</ele>
        <time>2019-05-30T07:20:49Z</time>
      </trkpt>
      <trkpt lat="42.521321" lon="2.038820">
        <ele>1920.632</ele>
        <time>2019-05-30T07:20:56Z</time>
      </trkpt>
      <trkpt lat="42.521326" lon="2.038658">
        <ele>1921.667</ele>
        <time>2019-05-30T07:21:02Z</time>
      </trkpt>
      <trkpt lat="42.521326" lon="2.038578">
        <ele>1921.823</ele>
        <time>2019-05-30T07:21:05Z</time>
      </trkpt>
      <trkpt lat="42.521309" lon="2.038450">
        <ele>1922.683</ele>
        <time>2019-05-30T07:21:10Z</time>
      </trkpt>
      <trkpt lat="42.521285" lon="2.038342">
        <ele>1923.011</ele>
        <time>2019-05-30T07:21:14Z</time>
      </trkpt>
      <trkpt lat="42.521271" lon="2.038182">
        <ele>1923.808</ele>
        <time>2019-05-30T07:21:20Z</time>
      </trkpt>
      <trkpt lat="42.521268" lon="2.038123">
        <ele>1924.245</ele>
        <time>2019-05-30T07:21:22Z</time>
      </trkpt>
      <trkpt lat="42.521243" lon="2.037980">
        <ele>1924.899</ele>
        <time>2019-05-30T07:21:27Z</time>
      </trkpt>
      <trkpt lat="42.521210" lon="2.037881">
        <ele>1925.025</ele>
        <time>2019-05-30T07:21:31Z</time>
      </trkpt>
      <trkpt lat="42.521126" lon="2.037629">
        <ele>1925.683</ele>
        <time>2019-05-30T07:21:40Z</time>
      </trkpt>
      <trkpt lat="42.521070" lon="2.037429">
        <ele>1926.066</ele>
        <time>2019-05-30T07:21:47Z</time>
      </trkpt>
      <trkpt lat="42.521063" lon="2.037397">
        <ele>1926.230</ele>
        <time>2019-05-30T07:21:48Z</time>
      </trkpt>
      <trkpt lat="42.520991" lon="2.037060">
        <ele>1926.868</ele>
        <time>2019-05-30T07:21:59Z</time>
      </trkpt>
      <trkpt lat="42.520975" lon="2.037002">
        <ele>1927.053</ele>
        <time>2019-05-30T07:22:01Z</time>
      </trkpt>
      <trkpt lat="42.520923" lon="2.036819">
        <ele>1927.473</ele>
        <time>2019-05-30T07:22:07Z</time>
      </trkpt>
      <trkpt lat="42.520834" lon="2.036510">
        <ele>1928.085</ele>
        <time>2019-05-30T07:22:17Z</time>
      </trkpt>
      <trkpt lat="42.520823" lon="2.036480">
        <ele>1928.213</ele>
        <time>2019-05-30T07:22:18Z</time>
      </trkpt>
      <trkpt lat="42.520716" lon="2.036146">
        <ele>1928.808</ele>
        <time>2019-05-30T07:22:29Z</time>
      </trkpt>
      <trkpt lat="42.520676" lon="2.036068">
        <ele>1929.450</ele>
        <time>2019-05-30T07:22:32Z</time>
      </trkpt>
      <trkpt lat="42.520598" lon="2.035906">
        <ele>1930.474</ele>
        <time>2019-05-30T07:22:38Z</time>
      </trkpt>
      <trkpt lat="42.520587" lon="2.035876">
        <ele>1930.420</ele>
        <time>2019-05-30T07:22:39Z</time>
      </trkpt>
      <trkpt lat="42.520500" lon="2.035686">
        <ele>1931.628</ele>
        <time>2019-05-30T07:22:46Z</time>
      </trkpt>
      <trkpt lat="42.520490" lon="2.035657">
        <ele>1931.651</ele>
        <time>2019-05-30T07:22:47Z</time>
      </trkpt>
      <trkpt lat="42.520441" lon="2.035510">
        <ele>1932.665</ele>
        <time>2019-05-30T07:22:52Z</time>
      </trkpt>
      <trkpt lat="42.520403" lon="2.035393">
        <ele>1932.823</ele>
        <time>2019-05-30T07:22:56Z</time>
      </trkpt>
      <trkpt lat="42.520366" lon="2.035275">
        <ele>1933.668</ele>
        <time>2019-05-30T07:23:00Z</time>
      </trkpt>
      <trkpt lat="42.520320" lon="2.035092">
        <ele>1934.443</ele>
        <time>2019-05-30T07:23:06Z</time>
      </trkpt>
      <trkpt lat="42.520299" lon="2.035002">
        <ele>1934.664</ele>
        <time>2019-05-30T07:23:09Z</time>
      </trkpt>
      <trkpt lat="42.520280" lon="2.034844">
        <ele>1935.410</ele>
        <time>2019-05-30T07:23:14Z</time>
      </trkpt>
      <trkpt lat="42.520279" lon="2.034780">
        <ele>1935.808</ele>
        <time>2019-05-30T07:23:16Z</time>
      </trkpt>
      <trkpt lat="42.520255" lon="2.034587">
        <ele>1936.857</ele>
        <time>2019-05-30T07:23:22Z</time>
      </trkpt>
      <trkpt lat="42.520251" lon="2.034552">
        <ele>1937.221</ele>
        <time>2019-05-30T07:23:23Z</time>
      </trkpt>
      <trkpt lat="42.520230" lon="2.034362">
        <ele>1938.047</ele>
        <time>2019-05-30T07:23:29Z</time>
      </trkpt>
      <trkpt lat="42.520227" lon="2.034331">
        <ele>1938.025</ele>
        <time>2019-05-30T07:23:30Z</time>
      </trkpt>
      <trkpt lat="42.520198" lon="2.034104">
        <ele>1939.098</ele>
        <time>2019-05-30T07:23:37Z</time>
      </trkpt>
      <trkpt lat="42.520190" lon="2.034040">
        <ele>1939.462</ele>
        <time>2019-05-30T07:23:39Z</time>
      </trkpt>
      <trkpt lat="42.520148" lon="2.033850">
        <ele>1940.060</ele>
        <time>2019-05-30T07:23:45Z</time>
      </trkpt>
      <trkpt lat="42.520136" lon="2.033750">
        <ele>1940.035</ele>
        <time>2019-05-30T07:23:48Z</time>
      </trkpt>
      <trkpt lat="42.520071" lon="2.033437">
        <ele>1940.215</ele>
        <time>2019-05-30T07:23:57Z</time>
      </trkpt>
      <trkpt lat="42.520022" lon="2.033055">
        <ele>1940.265</ele>
        <time>2019-05-30T07:24:06Z</time>
      </trkpt>
      <trkpt lat="42.519987" lon="2.032694">
        <ele>1940.611</ele>
        <time>2019-05-30T07:24:15Z</time>
      </trkpt>
      <trkpt lat="42.519976" lon="2.032518">
        <ele>1941.208</ele>
        <time>2019-05-30T07:24:20Z</time>
      </trkpt>
      <trkpt lat="42.519965" lon="2.032407">
        <ele>1941.864</ele>
        <time>2019-05-30T07:24:23Z</time>
      </trkpt>
      <trkpt lat="42.519955" lon="2.032297">
        <ele>1942.438</ele>
        <time>2019-05-30T07:24:26Z</time>
      </trkpt>
      <trkpt lat="42.519938" lon="2.032073">
        <ele>1943.474</ele>
        <time>2019-05-30T07:24:32Z</time>
      </trkpt>
      <trkpt lat="42.519919" lon="2.031814">
        <ele>1944.422</ele>
        <time>2019-05-30T07:24:39Z</time>
      </trkpt>
      <trkpt lat="42.519915" lon="2.031743">
        <ele>1944.485</ele>
        <time>2019-05-30T07:24:41Z</time>
      </trkpt>
      <trkpt lat="42.519877" lon="2.031422">
        <ele>1945.299</ele>
        <time>2019-05-30T07:24:50Z</time>
      </trkpt>
      <trkpt lat="42.519875" lon="2.031385">
        <ele>1945.417</ele>
        <time>2019-05-30T07:24:51Z</time>
      </trkpt>
      <trkpt lat="42.519832" lon="2.031033">
        <ele>1945.842</ele>
        <time>2019-05-30T07:25:00Z</time>
      </trkpt>
      <trkpt lat="42.519787" lon="2.030672">
        <ele>1945.896</ele>
        <time>2019-05-30T07:25:09Z</time>
      </trkpt>
      <trkpt lat="42.519748" lon="2.030381">
        <ele>1946.631</ele>
        <time>2019-05-30T07:25:16Z</time>
      </trkpt>
      <trkpt lat="42.519741" lon="2.030338">
        <ele>1946.624</ele>
        <time>2019-05-30T07:25:17Z</time>
      </trkpt>
      <trkpt lat="42.519683" lon="2.029914">
        <ele>1947.008</ele>
        <time>2019-05-30T07:25:27Z</time>
      </trkpt>
      <trkpt lat="42.519639" lon="2.029612">
        <ele>1947.092</ele>
        <time>2019-05-30T07:25:34Z</time>
      </trkpt>
      <trkpt lat="42.519608" lon="2.029394">
        <ele>1947.696</ele>
        <time>2019-05-30T07:25:39Z</time>
      </trkpt>
      <trkpt lat="42.519593" lon="2.029306">
        <ele>1947.842</ele>
        <time>2019-05-30T07:25:41Z</time>
      </trkpt>
      <trkpt lat="42.519536" lon="2.028877">
        <ele>1948.630</ele>
        <time>2019-05-30T07:25:51Z</time>
      </trkpt>
      <trkpt lat="42.519525" lon="2.028580">
        <ele>1948.673</ele>
        <time>2019-05-30T07:25:58Z</time>
      </trkpt>
      <trkpt lat="42.519523" lon="2.028539">
        <ele>1948.877</ele>
        <time>2019-05-30T07:25:59Z</time>
      </trkpt>
      <trkpt lat="42.519522" lon="2.028115">
        <ele>1949.695</ele>
        <time>2019-05-30T07:26:09Z</time>
      </trkpt>
      <trkpt lat="42.519521" lon="2.028072">
        <ele>1950.010</ele>
        <time>2019-05-30T07:26:10Z</time>
      </trkpt>
      <trkpt lat="42.519546" lon="2.027817">
        <ele>1950.632</ele>
        <time>2019-05-30T07:26:16Z</time>
      </trkpt>
      <trkpt lat="42.519604" lon="2.027549">
        <ele>1951.092</ele>
        <time>2019-05-30T07:26:23Z</time>
      </trkpt>
      <trkpt lat="42.519614" lon="2.027515">
        <ele>1951.211</ele>
        <time>2019-05-30T07:26:24Z</time>
      </trkpt>
      <trkpt lat="42.519682" lon="2.027324">
        <ele>1952.208</ele>
        <time>2019-05-30T07:26:30Z</time>
      </trkpt>
      <trkpt lat="42.519690" lon="2.027292">
        <ele>1952.456</ele>
        <time>2019-05-30T07:26:31Z</time>
      </trkpt>
      <trkpt lat="42.519708" lon="2.027071">
        <ele>1953.210</ele>
        <time>2019-05-30T07:26:37Z</time>
      </trkpt>
      <trkpt lat="42.519702" lon="2.027037">
        <ele>1953.416</ele>
        <time>2019-05-30T07:26:38Z</time>
      </trkpt>
      <trkpt lat="42.519598" lon="2.026775">
        <ele>1954.074</ele>
        <time>2019-05-30T07:26:46Z</time>
      </trkpt>
      <trkpt lat="42.519583" lon="2.026749">
        <ele>1954.297</ele>
        <time>2019-05-30T07:26:47Z</time>
      </trkpt>
      <trkpt lat="42.519507" lon="2.026583">
        <ele>1954.611</ele>
        <time>2019-05-30T07:26:53Z</time>
      </trkpt>
      <trkpt lat="42.519410" lon="2.026392">
        <ele>1955.459</ele>
        <time>2019-05-30T07:27:00Z</time>
      </trkpt>
      <trkpt lat="42.519365" lon="2.026308">
        <ele>1955.684</ele>
        <time>2019-05-30T07:27:03Z</time>
      </trkpt>
      <trkpt lat="42.519232" lon="2.026060">
        <ele>1956.425</ele>
        <time>2019-05-30T07:27:12Z</time>
      </trkpt>
      <trkpt lat="42.519218" lon="2.026032">
        <ele>1956.626</ele>
        <time>2019-05-30T07:27:13Z</time>
      </trkpt>
      <trkpt lat="42.519088" lon="2.025778">
        <ele>1957.208</ele>
        <time>2019-05-30T07:27:22Z</time>
      </trkpt>
      <trkpt lat="42.519073" lon="2.025749">
        <ele>1957.608</ele>
        <time>2019-05-30T07:27:23Z</time>
      </trkpt>
      <trkpt lat="42.518952" lon="2.025533">
        <ele>1958.685</ele>
        <time>2019-05-30T07:27:31Z</time>
      </trkpt>
      <trkpt lat="42.518825" lon="2.025278">
        <ele>1959.619</ele>
        <time>2019-05-30T07:27:40Z</time>
      </trkpt>
      <trkpt lat="42.518810" lon="2.025249">
        <ele>1959.645</ele>
        <time>2019-05-30T07:27:41Z</time>
      </trkpt>
      <trkpt lat="42.518718" lon="2.025042">
        <ele>1960.853</ele>
        <time>2019-05-30T07:27:48Z</time>
      </trkpt>
      <trkpt lat="42.518658" lon="2.024867">
        <ele>1962.086</ele>
        <time>2019-05-30T07:27:54Z</time>
      </trkpt>
      <trkpt lat="42.518649" lon="2.024776">
        <ele>1962.650</ele>
        <time>2019-05-30T07:27:57Z</time>
      </trkpt>
      <trkpt lat="42.518653" lon="2.024658">
        <ele>1963.098</ele>
        <time>2019-05-30T07:28:01Z</time>
      </trkpt>
      <trkpt lat="42.518658" lon="2.024534">
        <ele>1963.493</ele>
        <time>2019-05-30T07:28:05Z</time>
      </trkpt>
      <trkpt lat="42.518663" lon="2.024406">
        <ele>1964.055</ele>
        <time>2019-05-30T07:28:09Z</time>
      </trkpt>
      <trkpt lat="42.518671" lon="2.024316">
        <ele>1964.607</ele>
        <time>2019-05-30T07:28:12Z</time>
      </trkpt>
      <trkpt lat="42.518687" lon="2.024130">
        <ele>1965.217</ele>
        <time>2019-05-30T07:28:18Z</time>
      </trkpt>
      <trkpt lat="42.518694" lon="2.024040">
        <ele>1965.808</ele>
        <time>2019-05-30T07:28:21Z</time>
      </trkpt>
      <trkpt lat="42.518700" lon="2.023978">
        <ele>1966.218</ele>
        <time>2019-05-30T07:28:23Z</time>
      </trkpt>
      <trkpt lat="42.518723" lon="2.023767">
        <ele>1966.812</ele>
        <time>2019-05-30T07:28:30Z</time>
      </trkpt>
      <trkpt lat="42.518732" lon="2.023647">
        <ele>1967.298</ele>
        <time>2019-05-30T07:28:34Z</time>
      </trkpt>
      <trkpt lat="42.518740" lon="2.023561">
        <ele>1968.076</ele>
        <time>2019-05-30T07:28:37Z</time>
      </trkpt>
      <trkpt lat="42.518751" lon="2.023512">
        <ele>1968.299</ele>
        <time>2019-05-30T07:28:39Z</time>
      </trkpt>
      <trkpt lat="42.518771" lon="2.023389">
        <ele>1969.013</ele>
        <time>2019-05-30T07:28:44Z</time>
      </trkpt>
      <trkpt lat="42.518783" lon="2.023285">
        <ele>1969.481</ele>
        <time>2019-05-30T07:28:48Z</time>
      </trkpt>
      <trkpt lat="42.518811" lon="2.023186">
        <ele>1969.656</ele>
        <time>2019-05-30T07:28:52Z</time>
      </trkpt>
      <trkpt lat="42.518838" lon="2.023039">
        <ele>1970.439</ele>
        <time>2019-05-30T07:28:58Z</time>
      </trkpt>
      <trkpt lat="42.518849" lon="2.022989">
        <ele>1970.401</ele>
        <time>2019-05-30T07:29:00Z</time>
      </trkpt>
      <trkpt lat="42.518898" lon="2.022792">
        <ele>1971.421</ele>
        <time>2019-05-30T07:29:08Z</time>
      </trkpt>
      <trkpt lat="42.518926" lon="2.022690">
        <ele>1972.408</ele>
        <time>2019-05-30T07:29:12Z</time>
      </trkpt>
      <trkpt lat="42.518956" lon="2.022594">
        <ele>1973.296</ele>
        <time>2019-05-30T07:29:16Z</time>
      </trkpt>
      <trkpt lat="42.519009" lon="2.022421">
        <ele>1973.620</ele>
        <time>2019-05-30T07:29:23Z</time>
      </trkpt>
      <trkpt lat="42.519015" lon="2.022399">
        <ele>1973.846</ele>
        <time>2019-05-30T07:29:24Z</time>
      </trkpt>
      <trkpt lat="42.519091" lon="2.022183">
        <ele>1974.464</ele>
        <time>2019-05-30T07:29:33Z</time>
      </trkpt>
      <trkpt lat="42.519120" lon="2.022117">
        <ele>1974.877</ele>
        <time>2019-05-30T07:29:36Z</time>
      </trkpt>
      <trkpt lat="42.519169" lon="2.022001">
        <ele>1975.851</ele>
        <time>2019-05-30T07:29:41Z</time>
      </trkpt>
      <trkpt lat="42.519227" lon="2.021888">
        <ele>1977.069</ele>
        <time>2019-05-30T07:29:46Z</time>
      </trkpt>
      <trkpt lat="42.519336" lon="2.021716">
        <ele>1977.674</ele>
        <time>2019-05-30T07:29:55Z</time>
      </trkpt>
      <trkpt lat="42.519465" lon="2.021551">
        <ele>1978.074</ele>
        <time>2019-05-30T07:30:04Z</time>
      </trkpt>
      <trkpt lat="42.519477" lon="2.021532">
        <ele>1978.056</ele>
        <time>2019-05-30T07:30:05Z</time>
      </trkpt>
      <trkpt lat="42.519588" lon="2.021439">
        <ele>1979.021</ele>
        <time>2019-05-30T07:30:12Z</time>
      </trkpt>
      <trkpt lat="42.519602" lon="2.021426">
        <ele>1979.208</ele>
        <time>2019-05-30T07:30:13Z</time>
      </trkpt>
      <trkpt lat="42.519666" lon="2.021381">
        <ele>1980.620</ele>
        <time>2019-05-30T07:30:17Z</time>
      </trkpt>
      <trkpt lat="42.519698" lon="2.021363">
        <ele>1981.254</ele>
        <time>2019-05-30T07:30:19Z</time>
      </trkpt>
      <trkpt lat="42.519815" lon="2.021307">
        <ele>1981.090</ele>
        <time>2019-05-30T07:30:26Z</time>
      </trkpt>
      <trkpt lat="42.519916" lon="2.021248">
        <ele>1981.658</ele>
        <time>2019-05-30T07:30:32Z</time>
      </trkpt>
      <trkpt lat="42.519954" lon="2.021229">
        <ele>1982.421</ele>
        <time>2019-05-30T07:30:34Z</time>
      </trkpt>
      <trkpt lat="42.519987" lon="2.021213">
        <ele>1982.665</ele>
        <time>2019-05-30T07:30:36Z</time>
      </trkpt>
      <trkpt lat="42.520090" lon="2.021161">
        <ele>1983.463</ele>
        <time>2019-05-30T07:30:42Z</time>
      </trkpt>
      <trkpt lat="42.520266" lon="2.021078">
        <ele>1984.078</ele>
        <time>2019-05-30T07:30:52Z</time>
      </trkpt>
      <trkpt lat="42.520326" lon="2.021068">
        <ele>1985.245</ele>
        <time>2019-05-30T07:30:56Z</time>
      </trkpt>
      <trkpt lat="42.520389" lon="2.021049">
        <ele>1985.047</ele>
        <time>2019-05-30T07:30:59Z</time>
      </trkpt>
      <trkpt lat="42.520458" lon="2.021029">
        <ele>1986.211</ele>
        <time>2019-05-30T07:31:03Z</time>
      </trkpt>
      <trkpt lat="42.520493" lon="2.021027">
        <ele>1986.208</ele>
        <time>2019-05-30T07:31:05Z</time>
      </trkpt>
      <trkpt lat="42.520610" lon="2.021055">
        <ele>1986.297</ele>
        <time>2019-05-30T07:31:12Z</time>
      </trkpt>
      <trkpt lat="42.520689" lon="2.021084">
        <ele>1987.431</ele>
        <time>2019-05-30T07:31:17Z</time>
      </trkpt>
      <trkpt lat="42.520723" lon="2.021097">
        <ele>1987.857</ele>
        <time>2019-05-30T07:31:19Z</time>
      </trkpt>
      <trkpt lat="42.520769" lon="2.021109">
        <ele>1988.645</ele>
        <time>2019-05-30T07:31:22Z</time>
      </trkpt>
      <trkpt lat="42.520836" lon="2.021120">
        <ele>1988.478</ele>
        <time>2019-05-30T07:31:26Z</time>
      </trkpt>
      <trkpt lat="42.520972" lon="2.021169">
        <ele>1989.022</ele>
        <time>2019-05-30T07:31:34Z</time>
      </trkpt>
      <trkpt lat="42.521060" lon="2.021198">
        <ele>1989.830</ele>
        <time>2019-05-30T07:31:39Z</time>
      </trkpt>
      <trkpt lat="42.521098" lon="2.021205">
        <ele>1990.085</ele>
        <time>2019-05-30T07:31:41Z</time>
      </trkpt>
      <trkpt lat="42.521229" lon="2.021205">
        <ele>1991.021</ele>
        <time>2019-05-30T07:31:47Z</time>
      </trkpt>
      <trkpt lat="42.521349" lon="2.021249">
        <ele>1991.241</ele>
        <time>2019-05-30T07:31:53Z</time>
      </trkpt>
      <trkpt lat="42.521480" lon="2.021314">
        <ele>1992.005</ele>
        <time>2019-05-30T07:32:00Z</time>
      </trkpt>
      <trkpt lat="42.521497" lon="2.021322">
        <ele>1992.008</ele>
        <time>2019-05-30T07:32:01Z</time>
      </trkpt>
      <trkpt lat="42.521621" lon="2.021418">
        <ele>1993.065</ele>
        <time>2019-05-30T07:32:09Z</time>
      </trkpt>
      <trkpt lat="42.521685" lon="2.021472">
        <ele>1994.099</ele>
        <time>2019-05-30T07:32:14Z</time>
      </trkpt>
      <trkpt lat="42.521721" lon="2.021513">
        <ele>1994.055</ele>
        <time>2019-05-30T07:32:17Z</time>
      </trkpt>
      <trkpt lat="42.521833" lon="2.021648">
        <ele>1995.093</ele>
        <time>2019-05-30T07:32:27Z</time>
      </trkpt>
      <trkpt lat="42.521873" lon="2.021703">
        <ele>1995.016</ele>
        <time>2019-05-30T07:32:31Z</time>
      </trkpt>
      <trkpt lat="42.521908" lon="2.021766">
        <ele>1995.430</ele>
        <time>2019-05-30T07:32:35Z</time>
      </trkpt>
      <trkpt lat="42.521922" lon="2.021778">
        <ele>1995.668</ele>
        <time>2019-05-30T07:32:36Z</time>
      </trkpt>
      <trkpt lat="42.521962" lon="2.021854">
        <ele>1996.253</ele>
        <time>2019-05-30T07:32:40Z</time>
      </trkpt>
      <trkpt lat="42.522002" lon="2.021919">
        <ele>1996.829</ele>
        <time>2019-05-30T07:32:44Z</time>
      </trkpt>
      <trkpt lat="42.522015" lon="2.021955">
        <ele>1997.200</ele>
        <time>2019-05-30T07:32:46Z</time>
      </trkpt>
      <trkpt lat="42.522021" lon="2.021975">
        <ele>1997.420</ele>
        <time>2019-05-30T07:32:47Z</time>
      </trkpt>
      <trkpt lat="42.522069" lon="2.022093">
        <ele>1997.808</ele>
        <time>2019-05-30T07:32:53Z</time>
      </trkpt>
      <trkpt lat="42.522117" lon="2.022234">
        <ele>1998.245</ele>
        <time>2019-05-30T07:33:00Z</time>
      </trkpt>
      <trkpt lat="42.522127" lon="2.022255">
        <ele>1998.429</ele>
        <time>2019-05-30T07:33:01Z</time>
      </trkpt>
      <trkpt lat="42.522131" lon="2.022276">
        <ele>1998.615</ele>
        <time>2019-05-30T07:33:02Z</time>
      </trkpt>
      <trkpt lat="42.522151" lon="2.022352">
        <ele>1999.043</ele>
        <time>2019-05-30T07:33:06Z</time>
      </trkpt>
      <trkpt lat="42.522183" lon="2.022480">
        <ele>1999.656</ele>
        <time>2019-05-30T07:33:12Z</time>
      </trkpt>
      <trkpt lat="42.522209" lon="2.022617">
        <ele>2000.010</ele>
        <time>2019-05-30T07:33:19Z</time>
      </trkpt>
      <trkpt lat="42.522245" lon="2.022781">
        <ele>2001.048</ele>
        <time>2019-05-30T07:33:27Z</time>
      </trkpt>
      <trkpt lat="42.522285" lon="2.022947">
        <ele>2001.883</ele>
        <time>2019-05-30T07:33:35Z</time>
      </trkpt>
      <trkpt lat="42.522301" lon="2.023029">
        <ele>2002.252</ele>
        <time>2019-05-30T07:33:39Z</time>
      </trkpt>
      <trkpt lat="42.522315" lon="2.023113">
        <ele>2002.653</ele>
        <time>2019-05-30T07:33:43Z</time>
      </trkpt>
      <trkpt lat="42.522351" lon="2.023258">
        <ele>2002.608</ele>
        <time>2019-05-30T07:33:50Z</time>
      </trkpt>
      <trkpt lat="42.522379" lon="2.023345">
        <ele>2003.208</ele>
        <time>2019-05-30T07:33:54Z</time>
      </trkpt>
      <trkpt lat="42.522400" lon="2.023467">
        <ele>2003.828</ele>
        <time>2019-05-30T07:34:00Z</time>
      </trkpt>
      <trkpt lat="42.522406" lon="2.023487">
        <ele>2004.282</ele>
        <time>2019-05-30T07:34:01Z</time>
      </trkpt>
      <trkpt lat="42.522445" lon="2.023588">
        <ele>2004.288</ele>
        <time>2019-05-30T07:34:06Z</time>
      </trkpt>
      <trkpt lat="42.522454" lon="2.023628">
        <ele>2004.666</ele>
        <time>2019-05-30T07:34:08Z</time>
      </trkpt>
      <trkpt lat="42.522478" lon="2.023707">
        <ele>2005.619</ele>
        <time>2019-05-30T07:34:12Z</time>
      </trkpt>
      <trkpt lat="42.522492" lon="2.023747">
        <ele>2005.683</ele>
        <time>2019-05-30T07:34:14Z</time>
      </trkpt>
      <trkpt lat="42.522572" lon="2.023886">
        <ele>2006.491</ele>
        <time>2019-05-30T07:34:22Z</time>
      </trkpt>
      <trkpt lat="42.522579" lon="2.023905">
        <ele>2006.456</ele>
        <time>2019-05-30T07:34:23Z</time>
      </trkpt>
      <trkpt lat="42.522588" lon="2.023924">
        <ele>2006.677</ele>
        <time>2019-05-30T07:34:24Z</time>
      </trkpt>
      <trkpt lat="42.522620" lon="2.023977">
        <ele>2008.261</ele>
        <time>2019-05-30T07:34:27Z</time>
      </trkpt>
      <trkpt lat="42.522624" lon="2.024001">
        <ele>2009.227</ele>
        <time>2019-05-30T07:34:28Z</time>
      </trkpt>
      <trkpt lat="42.522654" lon="2.024047">
        <ele>2007.608</ele>
        <time>2019-05-30T07:34:31Z</time>
      </trkpt>
      <trkpt lat="42.522666" lon="2.024066">
        <ele>2006.660</ele>
        <time>2019-05-30T07:34:32Z</time>
      </trkpt>
      <trkpt lat="42.522678" lon="2.024083">
        <ele>2004.634</ele>
        <time>2019-05-30T07:34:33Z</time>
      </trkpt>
      <trkpt lat="42.522691" lon="2.024101">
        <ele>2005.010</ele>
        <time>2019-05-30T07:34:34Z</time>
      </trkpt>
      <trkpt lat="42.522702" lon="2.024119">
        <ele>2007.478</ele>
        <time>2019-05-30T07:34:35Z</time>
      </trkpt>
      <trkpt lat="42.522714" lon="2.024135">
        <ele>2009.681</ele>
        <time>2019-05-30T07:34:36Z</time>
      </trkpt>
      <trkpt lat="42.522726" lon="2.024152">
        <ele>2008.625</ele>
        <time>2019-05-30T07:34:37Z</time>
      </trkpt>
      <trkpt lat="42.522746" lon="2.024186">
        <ele>2008.683</ele>
        <time>2019-05-30T07:34:39Z</time>
      </trkpt>
      <trkpt lat="42.522799" lon="2.024264">
        <ele>2009.658</ele>
        <time>2019-05-30T07:34:44Z</time>
      </trkpt>
      <trkpt lat="42.522810" lon="2.024279">
        <ele>2009.449</ele>
        <time>2019-05-30T07:34:45Z</time>
      </trkpt>
      <trkpt lat="42.522867" lon="2.024357">
        <ele>2010.402</ele>
        <time>2019-05-30T07:34:50Z</time>
      </trkpt>
      <trkpt lat="42.522889" lon="2.024389">
        <ele>2010.622</ele>
        <time>2019-05-30T07:34:52Z</time>
      </trkpt>
      <trkpt lat="42.522935" lon="2.024457">
        <ele>2010.408</ele>
        <time>2019-05-30T07:34:56Z</time>
      </trkpt>
      <trkpt lat="42.522971" lon="2.024507">
        <ele>2010.637</ele>
        <time>2019-05-30T07:34:59Z</time>
      </trkpt>
      <trkpt lat="42.523079" lon="2.024634">
        <ele>2011.661</ele>
        <time>2019-05-30T07:35:08Z</time>
      </trkpt>
      <trkpt lat="42.523162" lon="2.024712">
        <ele>2011.867</ele>
        <time>2019-05-30T07:35:14Z</time>
      </trkpt>
      <trkpt lat="42.523263" lon="2.024785">
        <ele>2011.845</ele>
        <time>2019-05-30T07:35:21Z</time>
      </trkpt>
      <trkpt lat="42.523340" lon="2.024816">
        <ele>2012.888</ele>
        <time>2019-05-30T07:35:26Z</time>
      </trkpt>
      <trkpt lat="42.523392" lon="2.024826">
        <ele>2013.262</ele>
        <time>2019-05-30T07:35:29Z</time>
      </trkpt>
      <trkpt lat="42.523424" lon="2.024833">
        <ele>2013.690</ele>
        <time>2019-05-30T07:35:31Z</time>
      </trkpt>
      <trkpt lat="42.523491" lon="2.024832">
        <ele>2014.075</ele>
        <time>2019-05-30T07:35:35Z</time>
      </trkpt>
      <trkpt lat="42.523570" lon="2.024800">
        <ele>2013.691</ele>
        <time>2019-05-30T07:35:40Z</time>
      </trkpt>
      <trkpt lat="42.523652" lon="2.024724">
        <ele>2014.881</ele>
        <time>2019-05-30T07:35:47Z</time>
      </trkpt>
      <trkpt lat="42.523734" lon="2.024607">
        <ele>2014.819</ele>
        <time>2019-05-30T07:35:55Z</time>
      </trkpt>
      <trkpt lat="42.523745" lon="2.024592">
        <ele>2015.008</ele>
        <time>2019-05-30T07:35:56Z</time>
      </trkpt>
      <trkpt lat="42.523817" lon="2.024454">
        <ele>2016.242</ele>
        <time>2019-05-30T07:36:04Z</time>
      </trkpt>
      <trkpt lat="42.523823" lon="2.024437">
        <ele>2016.216</ele>
        <time>2019-05-30T07:36:05Z</time>
      </trkpt>
      <trkpt lat="42.523883" lon="2.024309">
        <ele>2017.212</ele>
        <time>2019-05-30T07:36:12Z</time>
      </trkpt>
      <trkpt lat="42.523955" lon="2.024223">
        <ele>2017.840</ele>
        <time>2019-05-30T07:36:18Z</time>
      </trkpt>
      <trkpt lat="42.523983" lon="2.024171">
        <ele>2018.263</ele>
        <time>2019-05-30T07:36:21Z</time>
      </trkpt>
      <trkpt lat="42.524019" lon="2.024098">
        <ele>2018.857</ele>
        <time>2019-05-30T07:36:25Z</time>
      </trkpt>
      <trkpt lat="42.524116" lon="2.023956">
        <ele>2019.255</ele>
        <time>2019-05-30T07:36:34Z</time>
      </trkpt>
      <trkpt lat="42.524129" lon="2.023941">
        <ele>2019.420</ele>
        <time>2019-05-30T07:36:35Z</time>
      </trkpt>
      <trkpt lat="42.524193" lon="2.023837">
        <ele>2020.499</ele>
        <time>2019-05-30T07:36:41Z</time>
      </trkpt>
      <trkpt lat="42.524219" lon="2.023809">
        <ele>2020.607</ele>
        <time>2019-05-30T07:36:43Z</time>
      </trkpt>
      <trkpt lat="42.524281" lon="2.023734">
        <ele>2021.627</ele>
        <time>2019-05-30T07:36:48Z</time>
      </trkpt>
      <trkpt lat="42.524293" lon="2.023719">
        <ele>2022.008</ele>
        <time>2019-05-30T07:36:49Z</time>
      </trkpt>
      <trkpt lat="42.524403" lon="2.023645">
        <ele>2022.492</ele>
        <time>2019-05-30T07:36:57Z</time>
      </trkpt>
      <trkpt lat="42.524523" lon="2.023627">
        <ele>2022.886</ele>
        <time>2019-05-30T07:37:04Z</time>
      </trkpt>
      <trkpt lat="42.524541" lon="2.023627">
        <ele>2022.612</ele>
        <time>2019-05-30T07:37:05Z</time>
      </trkpt>
      <trkpt lat="42.524664" lon="2.023623">
        <ele>2023.440</ele>
        <time>2019-05-30T07:37:12Z</time>
      </trkpt>
      <trkpt lat="42.524716" lon="2.023624">
        <ele>2023.883</ele>
        <time>2019-05-30T07:37:15Z</time>
      </trkpt>
      <trkpt lat="42.524807" lon="2.023625">
        <ele>2025.077</ele>
        <time>2019-05-30T07:37:20Z</time>
      </trkpt>
      <trkpt lat="42.524845" lon="2.023631">
        <ele>2025.275</ele>
        <time>2019-05-30T07:37:22Z</time>
      </trkpt>
      <trkpt lat="42.525024" lon="2.023636">
        <ele>2025.240</ele>
        <time>2019-05-30T07:37:31Z</time>
      </trkpt>
      <trkpt lat="42.525177" lon="2.023599">
        <ele>2025.643</ele>
        <time>2019-05-30T07:37:38Z</time>
      </trkpt>
      <trkpt lat="42.525238" lon="2.023554">
        <ele>2025.664</ele>
        <time>2019-05-30T07:37:41Z</time>
      </trkpt>
      <trkpt lat="42.525257" lon="2.023487">
        <ele>2026.410</ele>
        <time>2019-05-30T07:37:43Z</time>
      </trkpt>
      <trkpt lat="42.525249" lon="2.023407">
        <ele>2027.608</ele>
        <time>2019-05-30T07:37:45Z</time>
      </trkpt>
      <trkpt lat="42.525243" lon="2.023290">
        <ele>2027.247</ele>
        <time>2019-05-30T07:37:47Z</time>
      </trkpt>
      <trkpt lat="42.525233" lon="2.023223">
        <ele>2026.621</ele>
        <time>2019-05-30T07:37:48Z</time>
      </trkpt>
      <trkpt lat="42.525222" lon="2.023154">
        <ele>2025.697</ele>
        <time>2019-05-30T07:37:49Z</time>
      </trkpt>
      <trkpt lat="42.525217" lon="2.023082">
        <ele>2024.865</ele>
        <time>2019-05-30T07:37:50Z</time>
      </trkpt>
      <trkpt lat="42.525204" lon="2.023010">
        <ele>2024.018</ele>
        <time>2019-05-30T07:37:51Z</time>
      </trkpt>
      <trkpt lat="42.525176" lon="2.022792">
        <ele>2022.872</ele>
        <time>2019-05-30T07:37:54Z</time>
      </trkpt>
      <trkpt lat="42.525144" lon="2.022638">
        <ele>2022.670</ele>
        <time>2019-05-30T07:37:56Z</time>
      </trkpt>
      <trkpt lat="42.525075" lon="2.022174">
        <ele>2023.095</ele>
        <time>2019-05-30T07:38:02Z</time>
      </trkpt>
      <trkpt lat="42.525067" lon="2.022011">
        <ele>2024.214</ele>
        <time>2019-05-30T07:38:05Z</time>
      </trkpt>
      <trkpt lat="42.525067" lon="2.021977">
        <ele>2024.654</ele>
        <time>2019-05-30T07:38:06Z</time>
      </trkpt>
      <trkpt lat="42.525051" lon="2.021914">
        <ele>2025.609</ele>
        <time>2019-05-30T07:38:08Z</time>
      </trkpt>
      <trkpt lat="42.525022" lon="2.021875">
        <ele>2026.808</ele>
        <time>2019-05-30T07:38:10Z</time>
      </trkpt>
      <trkpt lat="42.524879" lon="2.021835">
        <ele>2026.654</ele>
        <time>2019-05-30T07:38:15Z</time>
      </trkpt>
      <trkpt lat="42.524703" lon="2.021822">
        <ele>2025.818</ele>
        <time>2019-05-30T07:38:20Z</time>
      </trkpt>
      <trkpt lat="42.524627" lon="2.021808">
        <ele>2025.694</ele>
        <time>2019-05-30T07:38:22Z</time>
      </trkpt>
      <trkpt lat="42.524508" lon="2.021783">
        <ele>2025.092</ele>
        <time>2019-05-30T07:38:25Z</time>
      </trkpt>
      <trkpt lat="42.524397" lon="2.021740">
        <ele>2024.685</ele>
        <time>2019-05-30T07:38:28Z</time>
      </trkpt>
      <trkpt lat="42.524262" lon="2.021661">
        <ele>2024.469</ele>
        <time>2019-05-30T07:38:32Z</time>
      </trkpt>
      <trkpt lat="42.524117" lon="2.021489">
        <ele>2023.687</ele>
        <time>2019-05-30T07:38:37Z</time>
      </trkpt>
      <trkpt lat="42.524026" lon="2.021266">
        <ele>2022.862</ele>
        <time>2019-05-30T07:38:42Z</time>
      </trkpt>
      <trkpt lat="42.523968" lon="2.021125">
        <ele>2022.274</ele>
        <time>2019-05-30T07:38:45Z</time>
      </trkpt>
      <trkpt lat="42.523952" lon="2.021070">
        <ele>2022.056</ele>
        <time>2019-05-30T07:38:46Z</time>
      </trkpt>
      <trkpt lat="42.523938" lon="2.021012">
        <ele>2021.821</ele>
        <time>2019-05-30T07:38:47Z</time>
      </trkpt>
      <trkpt lat="42.523913" lon="2.020901">
        <ele>2021.008</ele>
        <time>2019-05-30T07:38:49Z</time>
      </trkpt>
      <trkpt lat="42.523871" lon="2.020715">
        <ele>2020.290</ele>
        <time>2019-05-30T07:38:52Z</time>
      </trkpt>
      <trkpt lat="42.523859" lon="2.020653">
        <ele>2020.044</ele>
        <time>2019-05-30T07:38:53Z</time>
      </trkpt>
      <trkpt lat="42.523848" lon="2.020590">
        <ele>2019.820</ele>
        <time>2019-05-30T07:38:54Z</time>
      </trkpt>
      <trkpt lat="42.523795" lon="2.020256">
        <ele>2018.828</ele>
        <time>2019-05-30T07:38:59Z</time>
      </trkpt>
      <trkpt lat="42.523783" lon="2.020195">
        <ele>2018.051</ele>
        <time>2019-05-30T07:39:00Z</time>
      </trkpt>
      <trkpt lat="42.523774" lon="2.020070">
        <ele>2017.635</ele>
        <time>2019-05-30T07:39:02Z</time>
      </trkpt>
      <trkpt lat="42.523768" lon="2.020000">
        <ele>2017.223</ele>
        <time>2019-05-30T07:39:03Z</time>
      </trkpt>
      <trkpt lat="42.523754" lon="2.019927">
        <ele>2016.438</ele>
        <time>2019-05-30T07:39:04Z</time>
      </trkpt>
      <trkpt lat="42.523733" lon="2.019790">
        <ele>2015.212</ele>
        <time>2019-05-30T07:39:06Z</time>
      </trkpt>
      <trkpt lat="42.523718" lon="2.019719">
        <ele>2015.232</ele>
        <time>2019-05-30T07:39:07Z</time>
      </trkpt>
      <trkpt lat="42.523688" lon="2.019577">
        <ele>2015.405</ele>
        <time>2019-05-30T07:39:09Z</time>
      </trkpt>
      <trkpt lat="42.523624" lon="2.019303">
        <ele>2014.608</ele>
        <time>2019-05-30T07:39:13Z</time>
      </trkpt>
      <trkpt lat="42.523600" lon="2.019235">
        <ele>2014.654</ele>
        <time>2019-05-30T07:39:14Z</time>
      </trkpt>
      <trkpt lat="42.523528" lon="2.019040">
        <ele>2013.658</ele>
        <time>2019-05-30T07:39:17Z</time>
      </trkpt>
      <trkpt lat="42.523502" lon="2.018970">
        <ele>2012.464</ele>
        <time>2019-05-30T07:39:18Z</time>
      </trkpt>
      <trkpt lat="42.523374" lon="2.018624">
        <ele>2011.472</ele>
        <time>2019-05-30T07:39:23Z</time>
      </trkpt>
      <trkpt lat="42.523348" lon="2.018549">
        <ele>2009.695</ele>
        <time>2019-05-30T07:39:24Z</time>
      </trkpt>
      <trkpt lat="42.523274" lon="2.018326">
        <ele>2008.489</ele>
        <time>2019-05-30T07:39:27Z</time>
      </trkpt>
      <trkpt lat="42.523196" lon="2.018122">
        <ele>2008.227</ele>
        <time>2019-05-30T07:39:30Z</time>
      </trkpt>
      <trkpt lat="42.523057" lon="2.017782">
        <ele>2008.272</ele>
        <time>2019-05-30T07:39:35Z</time>
      </trkpt>
      <trkpt lat="42.523029" lon="2.017713">
        <ele>2007.865</ele>
        <time>2019-05-30T07:39:36Z</time>
      </trkpt>
      <trkpt lat="42.523005" lon="2.017639">
        <ele>2007.068</ele>
        <time>2019-05-30T07:39:37Z</time>
      </trkpt>
      <trkpt lat="42.522961" lon="2.017494">
        <ele>2005.814</ele>
        <time>2019-05-30T07:39:39Z</time>
      </trkpt>
      <trkpt lat="42.522914" lon="2.017278">
        <ele>2004.608</ele>
        <time>2019-05-30T07:39:42Z</time>
      </trkpt>
      <trkpt lat="42.522883" lon="2.017041">
        <ele>2004.289</ele>
        <time>2019-05-30T07:39:45Z</time>
      </trkpt>
      <trkpt lat="42.522878" lon="2.016960">
        <ele>2003.433</ele>
        <time>2019-05-30T07:39:46Z</time>
      </trkpt>
      <trkpt lat="42.522872" lon="2.016889">
        <ele>2003.049</ele>
        <time>2019-05-30T07:39:47Z</time>
      </trkpt>
      <trkpt lat="42.522860" lon="2.016817">
        <ele>2003.087</ele>
        <time>2019-05-30T07:39:48Z</time>
      </trkpt>
      <trkpt lat="42.522797" lon="2.016528">
        <ele>2003.090</ele>
        <time>2019-05-30T07:39:52Z</time>
      </trkpt>
      <trkpt lat="42.522745" lon="2.016227">
        <ele>2002.474</ele>
        <time>2019-05-30T07:39:56Z</time>
      </trkpt>
      <trkpt lat="42.522716" lon="2.015998">
        <ele>2001.242</ele>
        <time>2019-05-30T07:39:59Z</time>
      </trkpt>
      <trkpt lat="42.522690" lon="2.015785">
        <ele>1999.817</ele>
        <time>2019-05-30T07:40:02Z</time>
      </trkpt>
      <trkpt lat="42.522691" lon="2.015716">
        <ele>1999.688</ele>
        <time>2019-05-30T07:40:03Z</time>
      </trkpt>
      <trkpt lat="42.522693" lon="2.015572">
        <ele>1999.224</ele>
        <time>2019-05-30T07:40:05Z</time>
      </trkpt>
      <trkpt lat="42.522689" lon="2.015501">
        <ele>1998.626</ele>
        <time>2019-05-30T07:40:06Z</time>
      </trkpt>
      <trkpt lat="42.522687" lon="2.015429">
        <ele>1998.208</ele>
        <time>2019-05-30T07:40:07Z</time>
      </trkpt>
      <trkpt lat="42.522695" lon="2.015278">
        <ele>1997.661</ele>
        <time>2019-05-30T07:40:09Z</time>
      </trkpt>
      <trkpt lat="42.522718" lon="2.015132">
        <ele>1997.815</ele>
        <time>2019-05-30T07:40:11Z</time>
      </trkpt>
      <trkpt lat="42.522738" lon="2.015064">
        <ele>1996.851</ele>
        <time>2019-05-30T07:40:12Z</time>
      </trkpt>
      <trkpt lat="42.522784" lon="2.014940">
        <ele>1996.649</ele>
        <time>2019-05-30T07:40:14Z</time>
      </trkpt>
      <trkpt lat="42.522813" lon="2.014880">
        <ele>1996.462</ele>
        <time>2019-05-30T07:40:15Z</time>
      </trkpt>
      <trkpt lat="42.522880" lon="2.014750">
        <ele>1995.046</ele>
        <time>2019-05-30T07:40:17Z</time>
      </trkpt>
      <trkpt lat="42.522956" lon="2.014611">
        <ele>1993.894</ele>
        <time>2019-05-30T07:40:19Z</time>
      </trkpt>
      <trkpt lat="42.523036" lon="2.014469">
        <ele>1993.469</ele>
        <time>2019-05-30T07:40:21Z</time>
      </trkpt>
      <trkpt lat="42.523172" lon="2.014274">
        <ele>1992.627</ele>
        <time>2019-05-30T07:40:24Z</time>
      </trkpt>
      <trkpt lat="42.523305" lon="2.014098">
        <ele>1992.468</ele>
        <time>2019-05-30T07:40:27Z</time>
      </trkpt>
      <trkpt lat="42.523401" lon="2.014002">
        <ele>1992.614</ele>
        <time>2019-05-30T07:40:29Z</time>
      </trkpt>
      <trkpt lat="42.523587" lon="2.013819">
        <ele>1992.208</ele>
        <time>2019-05-30T07:40:33Z</time>
      </trkpt>
      <trkpt lat="42.523699" lon="2.013682">
        <ele>1992.285</ele>
        <time>2019-05-30T07:40:36Z</time>
      </trkpt>
      <trkpt lat="42.523741" lon="2.013570">
        <ele>1992.229</ele>
        <time>2019-05-30T07:40:38Z</time>
      </trkpt>
      <trkpt lat="42.523777" lon="2.013472">
        <ele>1993.695</ele>
        <time>2019-05-30T07:40:40Z</time>
      </trkpt>
      <trkpt lat="42.523827" lon="2.013307">
        <ele>1992.483</ele>
        <time>2019-05-30T07:40:43Z</time>
      </trkpt>
      <trkpt lat="42.523844" lon="2.013242">
        <ele>1992.246</ele>
        <time>2019-05-30T07:40:44Z</time>
      </trkpt>
      <trkpt lat="42.523847" lon="2.013183">
        <ele>1992.410</ele>
        <time>2019-05-30T07:40:45Z</time>
      </trkpt>
      <trkpt lat="42.523809" lon="2.013087">
        <ele>1992.618</ele>
        <time>2019-05-30T07:40:47Z</time>
      </trkpt>
      <trkpt lat="42.523681" lon="2.012836">
        <ele>1992.673</ele>
        <time>2019-05-30T07:40:52Z</time>
      </trkpt>
      <trkpt lat="42.523662" lon="2.012774">
        <ele>1992.461</ele>
        <time>2019-05-30T07:40:53Z</time>
      </trkpt>
      <trkpt lat="42.523557" lon="2.012617">
        <ele>1991.221</ele>
        <time>2019-05-30T07:40:56Z</time>
      </trkpt>
      <trkpt lat="42.523515" lon="2.012579">
        <ele>1991.013</ele>
        <time>2019-05-30T07:40:57Z</time>
      </trkpt>
      <trkpt lat="42.523427" lon="2.012525">
        <ele>1991.208</ele>
        <time>2019-05-30T07:40:59Z</time>
      </trkpt>
      <trkpt lat="42.523330" lon="2.012485">
        <ele>1991.059</ele>
        <time>2019-05-30T07:41:01Z</time>
      </trkpt>
      <trkpt lat="42.523158" lon="2.012332">
        <ele>1990.613</ele>
        <time>2019-05-30T07:41:05Z</time>
      </trkpt>
      <trkpt lat="42.523119" lon="2.012280">
        <ele>1990.469</ele>
        <time>2019-05-30T07:41:06Z</time>
      </trkpt>
      <trkpt lat="42.523072" lon="2.012252">
        <ele>1990.297</ele>
        <time>2019-05-30T07:41:07Z</time>
      </trkpt>
      <trkpt lat="42.522979" lon="2.012204">
        <ele>1990.040</ele>
        <time>2019-05-30T07:41:09Z</time>
      </trkpt>
      <trkpt lat="42.522664" lon="2.012082">
        <ele>1989.094</ele>
        <time>2019-05-30T07:41:15Z</time>
      </trkpt>
      <trkpt lat="42.522330" lon="2.011992">
        <ele>1988.622</ele>
        <time>2019-05-30T07:41:21Z</time>
      </trkpt>
      <trkpt lat="42.522092" lon="2.011944">
        <ele>1990.237</ele>
        <time>2019-05-30T07:41:26Z</time>
      </trkpt>
      <trkpt lat="42.522044" lon="2.011933">
        <ele>1989.884</ele>
        <time>2019-05-30T07:41:27Z</time>
      </trkpt>
      <trkpt lat="42.521903" lon="2.011908">
        <ele>1989.207</ele>
        <time>2019-05-30T07:41:30Z</time>
      </trkpt>
      <trkpt lat="42.521759" lon="2.011908">
        <ele>1989.417</ele>
        <time>2019-05-30T07:41:33Z</time>
      </trkpt>
      <trkpt lat="42.521712" lon="2.011907">
        <ele>1989.408</ele>
        <time>2019-05-30T07:41:34Z</time>
      </trkpt>
      <trkpt lat="42.521670" lon="2.011915">
        <ele>1989.681</ele>
        <time>2019-05-30T07:41:35Z</time>
      </trkpt>
      <trkpt lat="42.521511" lon="2.011922">
        <ele>1990.825</ele>
        <time>2019-05-30T07:41:39Z</time>
      </trkpt>
      <trkpt lat="42.521435" lon="2.011887">
        <ele>1990.621</ele>
        <time>2019-05-30T07:41:41Z</time>
      </trkpt>
      <trkpt lat="42.521367" lon="2.011825">
        <ele>1991.019</ele>
        <time>2019-05-30T07:41:43Z</time>
      </trkpt>
      <trkpt lat="42.521300" lon="2.011678">
        <ele>1990.422</ele>
        <time>2019-05-30T07:41:47Z</time>
      </trkpt>
      <trkpt lat="42.521297" lon="2.011633">
        <ele>1990.696</ele>
        <time>2019-05-30T07:41:48Z</time>
      </trkpt>
      <trkpt lat="42.521299" lon="2.011481">
        <ele>1990.024</ele>
        <time>2019-05-30T07:41:52Z</time>
      </trkpt>
      <trkpt lat="42.521286" lon="2.011445">
        <ele>1990.459</ele>
        <time>2019-05-30T07:41:53Z</time>
      </trkpt>
      <trkpt lat="42.521274" lon="2.011382">
        <ele>1991.422</ele>
        <time>2019-05-30T07:41:55Z</time>
      </trkpt>
      <trkpt lat="42.521278" lon="2.011350">
        <ele>1991.462</ele>
        <time>2019-05-30T07:41:56Z</time>
      </trkpt>
      <trkpt lat="42.521319" lon="2.011176">
        <ele>1992.008</ele>
        <time>2019-05-30T07:42:02Z</time>
      </trkpt>
      <trkpt lat="42.521339" lon="2.011110">
        <ele>1992.608</ele>
        <time>2019-05-30T07:42:05Z</time>
      </trkpt>
      <trkpt lat="42.521344" lon="2.011044">
        <ele>1993.225</ele>
        <time>2019-05-30T07:42:08Z</time>
      </trkpt>
      <trkpt lat="42.521349" lon="2.010997">
        <ele>1993.619</ele>
        <time>2019-05-30T07:42:10Z</time>
      </trkpt>
      <trkpt lat="42.521352" lon="2.010930">
        <ele>1994.015</ele>
        <time>2019-05-30T07:42:13Z</time>
      </trkpt>
      <trkpt lat="42.521351" lon="2.010906">
        <ele>1994.243</ele>
        <time>2019-05-30T07:42:14Z</time>
      </trkpt>
      <trkpt lat="42.521357" lon="2.010822">
        <ele>1994.826</ele>
        <time>2019-05-30T07:42:18Z</time>
      </trkpt>
      <trkpt lat="42.521367" lon="2.010753">
        <ele>1995.070</ele>
        <time>2019-05-30T07:42:21Z</time>
      </trkpt>
      <trkpt lat="42.521384" lon="2.010651">
        <ele>1995.888</ele>
        <time>2019-05-30T07:42:26Z</time>
      </trkpt>
      <trkpt lat="42.521391" lon="2.010630">
        <ele>1996.073</ele>
        <time>2019-05-30T07:42:27Z</time>
      </trkpt>
      <trkpt lat="42.521401" lon="2.010588">
        <ele>1996.043</ele>
        <time>2019-05-30T07:42:29Z</time>
      </trkpt>
      <trkpt lat="42.521434" lon="2.010489">
        <ele>1996.664</ele>
        <time>2019-05-30T07:42:34Z</time>
      </trkpt>
      <trkpt lat="42.521532" lon="2.010335">
        <ele>1997.010</ele>
        <time>2019-05-30T07:42:43Z</time>
      </trkpt>
      <trkpt lat="42.521632" lon="2.010267">
        <ele>1997.808</ele>
        <time>2019-05-30T07:42:50Z</time>
      </trkpt>
      <trkpt lat="42.521701" lon="2.010244">
        <ele>1998.027</ele>
        <time>2019-05-30T07:42:54Z</time>
      </trkpt>
      <trkpt lat="42.521750" lon="2.010232">
        <ele>1998.281</ele>
        <time>2019-05-30T07:42:57Z</time>
      </trkpt>
      <trkpt lat="42.521880" lon="2.010218">
        <ele>1998.867</ele>
        <time>2019-05-30T07:43:04Z</time>
      </trkpt>
      <trkpt lat="42.521900" lon="2.010218">
        <ele>1999.245</ele>
        <time>2019-05-30T07:43:05Z</time>
      </trkpt>
      <trkpt lat="42.522040" lon="2.010212">
        <ele>1999.818</ele>
        <time>2019-05-30T07:43:12Z</time>
      </trkpt>
      <trkpt lat="42.522106" lon="2.010184">
        <ele>2000.232</ele>
        <time>2019-05-30T07:43:16Z</time>
      </trkpt>
      <trkpt lat="42.522123" lon="2.010185">
        <ele>2000.430</ele>
        <time>2019-05-30T07:43:17Z</time>
      </trkpt>
      <trkpt lat="42.522140" lon="2.010184">
        <ele>2000.455</ele>
        <time>2019-05-30T07:43:18Z</time>
      </trkpt>
      <trkpt lat="42.522259" lon="2.010213">
        <ele>2000.846</ele>
        <time>2019-05-30T07:43:25Z</time>
      </trkpt>
      <trkpt lat="42.522307" lon="2.010236">
        <ele>2001.488</ele>
        <time>2019-05-30T07:43:28Z</time>
      </trkpt>
      <trkpt lat="42.522373" lon="2.010257">
        <ele>2002.216</ele>
        <time>2019-05-30T07:43:32Z</time>
      </trkpt>
      <trkpt lat="42.522409" lon="2.010266">
        <ele>2002.408</ele>
        <time>2019-05-30T07:43:34Z</time>
      </trkpt>
      <trkpt lat="42.522492" lon="2.010299">
        <ele>2003.097</ele>
        <time>2019-05-30T07:43:39Z</time>
      </trkpt>
      <trkpt lat="42.522595" lon="2.010305">
        <ele>2003.441</ele>
        <time>2019-05-30T07:43:44Z</time>
      </trkpt>
      <trkpt lat="42.522637" lon="2.010307">
        <ele>2004.097</ele>
        <time>2019-05-30T07:43:46Z</time>
      </trkpt>
      <trkpt lat="42.522772" lon="2.010311">
        <ele>2004.475</ele>
        <time>2019-05-30T07:43:53Z</time>
      </trkpt>
      <trkpt lat="42.522886" lon="2.010307">
        <ele>2004.858</ele>
        <time>2019-05-30T07:43:59Z</time>
      </trkpt>
      <trkpt lat="42.522957" lon="2.010301">
        <ele>2005.682</ele>
        <time>2019-05-30T07:44:03Z</time>
      </trkpt>
      <trkpt lat="42.523000" lon="2.010297">
        <ele>2005.860</ele>
        <time>2019-05-30T07:44:05Z</time>
      </trkpt>
      <trkpt lat="42.523106" lon="2.010310">
        <ele>2006.485</ele>
        <time>2019-05-30T07:44:10Z</time>
      </trkpt>
      <trkpt lat="42.523205" lon="2.010315">
        <ele>2006.852</ele>
        <time>2019-05-30T07:44:15Z</time>
      </trkpt>
      <trkpt lat="42.523266" lon="2.010321">
        <ele>2007.653</ele>
        <time>2019-05-30T07:44:18Z</time>
      </trkpt>
      <trkpt lat="42.523346" lon="2.010322">
        <ele>2007.408</ele>
        <time>2019-05-30T07:44:22Z</time>
      </trkpt>
      <trkpt lat="42.523413" lon="2.010327">
        <ele>2007.408</ele>
        <time>2019-05-30T07:44:25Z</time>
      </trkpt>
      <trkpt lat="42.523483" lon="2.010327">
        <ele>2007.888</ele>
        <time>2019-05-30T07:44:28Z</time>
      </trkpt>
      <trkpt lat="42.523590" lon="2.010331">
        <ele>2009.012</ele>
        <time>2019-05-30T07:44:33Z</time>
      </trkpt>
      <trkpt lat="42.523615" lon="2.010332">
        <ele>2009.098</ele>
        <time>2019-05-30T07:44:34Z</time>
      </trkpt>
      <trkpt lat="42.523779" lon="2.010406">
        <ele>2010.036</ele>
        <time>2019-05-30T07:44:42Z</time>
      </trkpt>
      <trkpt lat="42.523804" lon="2.010410">
        <ele>2010.219</ele>
        <time>2019-05-30T07:44:43Z</time>
      </trkpt>
      <trkpt lat="42.523880" lon="2.010406">
        <ele>2010.623</ele>
        <time>2019-05-30T07:44:47Z</time>
      </trkpt>
      <trkpt lat="42.523917" lon="2.010385">
        <ele>2011.421</ele>
        <time>2019-05-30T07:44:49Z</time>
      </trkpt>
      <trkpt lat="42.523951" lon="2.010283">
        <ele>2012.296</ele>
        <time>2019-05-30T07:44:53Z</time>
      </trkpt>
      <trkpt lat="42.523945" lon="2.010252">
        <ele>2012.651</ele>
        <time>2019-05-30T07:44:54Z</time>
      </trkpt>
      <trkpt lat="42.523890" lon="2.010183">
        <ele>2013.201</ele>
        <time>2019-05-30T07:44:57Z</time>
      </trkpt>
      <trkpt lat="42.523819" lon="2.010147">
        <ele>2013.211</ele>
        <time>2019-05-30T07:45:00Z</time>
      </trkpt>
      <trkpt lat="42.523745" lon="2.010108">
        <ele>2013.208</ele>
        <time>2019-05-30T07:45:03Z</time>
      </trkpt>
      <trkpt lat="42.523563" lon="2.010058">
        <ele>2013.028</ele>
        <time>2019-05-30T07:45:09Z</time>
      </trkpt>
      <trkpt lat="42.523373" lon="2.010018">
        <ele>2013.242</ele>
        <time>2019-05-30T07:45:15Z</time>
      </trkpt>
      <trkpt lat="42.523307" lon="2.010006">
        <ele>2013.678</ele>
        <time>2019-05-30T07:45:17Z</time>
      </trkpt>
      <trkpt lat="42.523115" lon="2.009930">
        <ele>2013.816</ele>
        <time>2019-05-30T07:45:23Z</time>
      </trkpt>
      <trkpt lat="42.523016" lon="2.009828">
        <ele>2014.819</ele>
        <time>2019-05-30T07:45:27Z</time>
      </trkpt>
      <trkpt lat="42.522968" lon="2.009771">
        <ele>2015.253</ele>
        <time>2019-05-30T07:45:29Z</time>
      </trkpt>
      <trkpt lat="42.522930" lon="2.009715">
        <ele>2015.871</ele>
        <time>2019-05-30T07:45:31Z</time>
      </trkpt>
      <trkpt lat="42.522850" lon="2.009552">
        <ele>2016.656</ele>
        <time>2019-05-30T07:45:36Z</time>
      </trkpt>
      <trkpt lat="42.522822" lon="2.009484">
        <ele>2016.819</ele>
        <time>2019-05-30T07:45:38Z</time>
      </trkpt>
      <trkpt lat="42.522785" lon="2.009352">
        <ele>2017.809</ele>
        <time>2019-05-30T07:45:42Z</time>
      </trkpt>
      <trkpt lat="42.522726" lon="2.009183">
        <ele>2018.019</ele>
        <time>2019-05-30T07:45:47Z</time>
      </trkpt>
      <trkpt lat="42.522666" lon="2.008906">
        <ele>2019.208</ele>
        <time>2019-05-30T07:45:55Z</time>
      </trkpt>
      <trkpt lat="42.522642" lon="2.008783">
        <ele>2019.684</ele>
        <time>2019-05-30T07:45:59Z</time>
      </trkpt>
      <trkpt lat="42.522619" lon="2.008696">
        <ele>2019.688</ele>
        <time>2019-05-30T07:46:02Z</time>
      </trkpt>
      <trkpt lat="42.522609" lon="2.008634">
        <ele>2020.454</ele>
        <time>2019-05-30T07:46:04Z</time>
      </trkpt>
      <trkpt lat="42.522552" lon="2.008451">
        <ele>2021.062</ele>
        <time>2019-05-30T07:46:10Z</time>
      </trkpt>
      <trkpt lat="42.522460" lon="2.008346">
        <ele>2021.245</ele>
        <time>2019-05-30T07:46:15Z</time>
      </trkpt>
      <trkpt lat="42.522351" lon="2.008223">
        <ele>2021.699</ele>
        <time>2019-05-30T07:46:21Z</time>
      </trkpt>
      <trkpt lat="42.522314" lon="2.008180">
        <ele>2022.027</ele>
        <time>2019-05-30T07:46:23Z</time>
      </trkpt>
      <trkpt lat="42.522209" lon="2.008050">
        <ele>2022.662</ele>
        <time>2019-05-30T07:46:29Z</time>
      </trkpt>
      <trkpt lat="42.522160" lon="2.007976">
        <ele>2023.064</ele>
        <time>2019-05-30T07:46:32Z</time>
      </trkpt>
      <trkpt lat="42.522119" lon="2.007900">
        <ele>2023.806</ele>
        <time>2019-05-30T07:46:35Z</time>
      </trkpt>
      <trkpt lat="42.522110" lon="2.007837">
        <ele>2024.016</ele>
        <time>2019-05-30T07:46:37Z</time>
      </trkpt>
      <trkpt lat="42.522105" lon="2.007773">
        <ele>2024.008</ele>
        <time>2019-05-30T07:46:39Z</time>
      </trkpt>
      <trkpt lat="42.522065" lon="2.007672">
        <ele>2024.839</ele>
        <time>2019-05-30T07:46:43Z</time>
      </trkpt>
      <trkpt lat="42.522054" lon="2.007645">
        <ele>2025.093</ele>
        <time>2019-05-30T07:46:44Z</time>
      </trkpt>
      <trkpt lat="42.521957" lon="2.007371">
        <ele>2025.489</ele>
        <time>2019-05-30T07:46:54Z</time>
      </trkpt>
      <trkpt lat="42.521893" lon="2.007182">
        <ele>2026.097</ele>
        <time>2019-05-30T07:47:01Z</time>
      </trkpt>
      <trkpt lat="42.521886" lon="2.007130">
        <ele>2026.230</ele>
        <time>2019-05-30T07:47:03Z</time>
      </trkpt>
      <trkpt lat="42.521851" lon="2.006937">
        <ele>2026.464</ele>
        <time>2019-05-30T07:47:10Z</time>
      </trkpt>
      <trkpt lat="42.521851" lon="2.006853">
        <ele>2026.652</ele>
        <time>2019-05-30T07:47:13Z</time>
      </trkpt>
      <trkpt lat="42.521861" lon="2.006771">
        <ele>2026.817</ele>
        <time>2019-05-30T07:47:16Z</time>
      </trkpt>
      <trkpt lat="42.521865" lon="2.006745">
        <ele>2026.883</ele>
        <time>2019-05-30T07:47:17Z</time>
      </trkpt>
      <trkpt lat="42.521879" lon="2.006630">
        <ele>2027.025</ele>
        <time>2019-05-30T07:47:21Z</time>
      </trkpt>
      <trkpt lat="42.521895" lon="2.006545">
        <ele>2027.217</ele>
        <time>2019-05-30T07:47:24Z</time>
      </trkpt>
      <trkpt lat="42.521921" lon="2.006398">
        <ele>2028.208</ele>
        <time>2019-05-30T07:47:30Z</time>
      </trkpt>
      <trkpt lat="42.521930" lon="2.006246">
        <ele>2029.271</ele>
        <time>2019-05-30T07:47:37Z</time>
      </trkpt>
      <trkpt lat="42.521938" lon="2.006221">
        <ele>2029.475</ele>
        <time>2019-05-30T07:47:38Z</time>
      </trkpt>
      <trkpt lat="42.521956" lon="2.006129">
        <ele>2029.851</ele>
        <time>2019-05-30T07:47:42Z</time>
      </trkpt>
      <trkpt lat="42.521968" lon="2.006088">
        <ele>2030.269</ele>
        <time>2019-05-30T07:47:44Z</time>
      </trkpt>
      <trkpt lat="42.521976" lon="2.006069">
        <ele>2030.262</ele>
        <time>2019-05-30T07:47:45Z</time>
      </trkpt>
      <trkpt lat="42.522011" lon="2.005948">
        <ele>2030.636</ele>
        <time>2019-05-30T07:47:50Z</time>
      </trkpt>
      <trkpt lat="42.522103" lon="2.005714">
        <ele>2030.444</ele>
        <time>2019-05-30T07:48:00Z</time>
      </trkpt>
      <trkpt lat="42.522153" lon="2.005570">
        <ele>2031.419</ele>
        <time>2019-05-30T07:48:06Z</time>
      </trkpt>
      <trkpt lat="42.522163" lon="2.005555">
        <ele>2031.629</ele>
        <time>2019-05-30T07:48:07Z</time>
      </trkpt>
      <trkpt lat="42.522185" lon="2.005496">
        <ele>2032.400</ele>
        <time>2019-05-30T07:48:10Z</time>
      </trkpt>
      <trkpt lat="42.522197" lon="2.005454">
        <ele>2032.420</ele>
        <time>2019-05-30T07:48:12Z</time>
      </trkpt>
      <trkpt lat="42.522204" lon="2.005434">
        <ele>2032.608</ele>
        <time>2019-05-30T07:48:13Z</time>
      </trkpt>
      <trkpt lat="42.522240" lon="2.005340">
        <ele>2033.025</ele>
        <time>2019-05-30T07:48:18Z</time>
      </trkpt>
      <trkpt lat="42.522269" lon="2.005256">
        <ele>2033.629</ele>
        <time>2019-05-30T07:48:22Z</time>
      </trkpt>
      <trkpt lat="42.522297" lon="2.005200">
        <ele>2033.835</ele>
        <time>2019-05-30T07:48:25Z</time>
      </trkpt>
      <trkpt lat="42.522373" lon="2.005047">
        <ele>2034.493</ele>
        <time>2019-05-30T07:48:33Z</time>
      </trkpt>
      <trkpt lat="42.522394" lon="2.004999">
        <ele>2034.676</ele>
        <time>2019-05-30T07:48:35Z</time>
      </trkpt>
      <trkpt lat="42.522444" lon="2.004922">
        <ele>2035.050</ele>
        <time>2019-05-30T07:48:39Z</time>
      </trkpt>
      <trkpt lat="42.522477" lon="2.004864">
        <ele>2035.828</ele>
        <time>2019-05-30T07:48:42Z</time>
      </trkpt>
      <trkpt lat="42.522513" lon="2.004788">
        <ele>2036.623</ele>
        <time>2019-05-30T07:48:46Z</time>
      </trkpt>
      <trkpt lat="42.522528" lon="2.004745">
        <ele>2036.832</ele>
        <time>2019-05-30T07:48:48Z</time>
      </trkpt>
      <trkpt lat="42.522574" lon="2.004614">
        <ele>2037.092</ele>
        <time>2019-05-30T07:48:54Z</time>
      </trkpt>
      <trkpt lat="42.522647" lon="2.004448">
        <ele>2037.411</ele>
        <time>2019-05-30T07:49:02Z</time>
      </trkpt>
      <trkpt lat="42.522724" lon="2.004314">
        <ele>2037.808</ele>
        <time>2019-05-30T07:49:09Z</time>
      </trkpt>
      <trkpt lat="42.522740" lon="2.004295">
        <ele>2037.866</ele>
        <time>2019-05-30T07:49:10Z</time>
      </trkpt>
      <trkpt lat="42.522810" lon="2.004167">
        <ele>2038.680</ele>
        <time>2019-05-30T07:49:16Z</time>
      </trkpt>
      <trkpt lat="42.522831" lon="2.004127">
        <ele>2039.016</ele>
        <time>2019-05-30T07:49:18Z</time>
      </trkpt>
      <trkpt lat="42.522875" lon="2.004050">
        <ele>2040.094</ele>
        <time>2019-05-30T07:49:22Z</time>
      </trkpt>
      <trkpt lat="42.522984" lon="2.003905">
        <ele>2040.097</ele>
        <time>2019-05-30T07:49:30Z</time>
      </trkpt>
      <trkpt lat="42.523122" lon="2.003785">
        <ele>2040.671</ele>
        <time>2019-05-30T07:49:38Z</time>
      </trkpt>
      <trkpt lat="42.523151" lon="2.003754">
        <ele>2041.229</ele>
        <time>2019-05-30T07:49:40Z</time>
      </trkpt>
      <trkpt lat="42.523211" lon="2.003676">
        <ele>2041.494</ele>
        <time>2019-05-30T07:49:45Z</time>
      </trkpt>
      <trkpt lat="42.523270" lon="2.003610">
        <ele>2042.247</ele>
        <time>2019-05-30T07:49:50Z</time>
      </trkpt>
      <trkpt lat="42.523283" lon="2.003592">
        <ele>2042.229</ele>
        <time>2019-05-30T07:49:51Z</time>
      </trkpt>
      <trkpt lat="42.523309" lon="2.003559">
        <ele>2042.421</ele>
        <time>2019-05-30T07:49:53Z</time>
      </trkpt>
      <trkpt lat="42.523401" lon="2.003457">
        <ele>2043.208</ele>
        <time>2019-05-30T07:50:00Z</time>
      </trkpt>
      <trkpt lat="42.523416" lon="2.003452">
        <ele>2043.467</ele>
        <time>2019-05-30T07:50:01Z</time>
      </trkpt>
      <trkpt lat="42.523470" lon="2.003405">
        <ele>2043.631</ele>
        <time>2019-05-30T07:50:05Z</time>
      </trkpt>
      <trkpt lat="42.523526" lon="2.003359">
        <ele>2044.417</ele>
        <time>2019-05-30T07:50:09Z</time>
      </trkpt>
      <trkpt lat="42.523589" lon="2.003301">
        <ele>2044.815</ele>
        <time>2019-05-30T07:50:14Z</time>
      </trkpt>
      <trkpt lat="42.523697" lon="2.003221">
        <ele>2045.248</ele>
        <time>2019-05-30T07:50:21Z</time>
      </trkpt>
      <trkpt lat="42.523749" lon="2.003149">
        <ele>2045.622</ele>
        <time>2019-05-30T07:50:25Z</time>
      </trkpt>
      <trkpt lat="42.523776" lon="2.003118">
        <ele>2045.690</ele>
        <time>2019-05-30T07:50:27Z</time>
      </trkpt>
      <trkpt lat="42.523850" lon="2.003003">
        <ele>2046.245</ele>
        <time>2019-05-30T07:50:34Z</time>
      </trkpt>
      <trkpt lat="42.523872" lon="2.002971">
        <ele>2046.665</ele>
        <time>2019-05-30T07:50:36Z</time>
      </trkpt>
      <trkpt lat="42.523916" lon="2.002908">
        <ele>2047.668</ele>
        <time>2019-05-30T07:50:40Z</time>
      </trkpt>
      <trkpt lat="42.523959" lon="2.002848">
        <ele>2048.014</ele>
        <time>2019-05-30T07:50:44Z</time>
      </trkpt>
      <trkpt lat="42.524015" lon="2.002744">
        <ele>2048.808</ele>
        <time>2019-05-30T07:50:50Z</time>
      </trkpt>
      <trkpt lat="42.524027" lon="2.002703">
        <ele>2049.279</ele>
        <time>2019-05-30T07:50:52Z</time>
      </trkpt>
      <trkpt lat="42.524089" lon="2.002564">
        <ele>2049.653</ele>
        <time>2019-05-30T07:50:59Z</time>
      </trkpt>
      <trkpt lat="42.524092" lon="2.002543">
        <ele>2049.879</ele>
        <time>2019-05-30T07:51:00Z</time>
      </trkpt>
      <trkpt lat="42.524094" lon="2.002520">
        <ele>2050.047</ele>
        <time>2019-05-30T07:51:01Z</time>
      </trkpt>
      <trkpt lat="42.524105" lon="2.002454">
        <ele>2050.480</ele>
        <time>2019-05-30T07:51:04Z</time>
      </trkpt>
      <trkpt lat="42.524119" lon="2.002282">
        <ele>2050.864</ele>
        <time>2019-05-30T07:51:12Z</time>
      </trkpt>
      <trkpt lat="42.524127" lon="2.002072">
        <ele>2051.222</ele>
        <time>2019-05-30T07:51:20Z</time>
      </trkpt>
      <trkpt lat="42.524174" lon="2.001881">
        <ele>2051.627</ele>
        <time>2019-05-30T07:51:28Z</time>
      </trkpt>
      <trkpt lat="42.524191" lon="2.001816">
        <ele>2052.295</ele>
        <time>2019-05-30T07:51:31Z</time>
      </trkpt>
      <trkpt lat="42.524216" lon="2.001763">
        <ele>2053.249</ele>
        <time>2019-05-30T07:51:34Z</time>
      </trkpt>
      <trkpt lat="42.524247" lon="2.001680">
        <ele>2053.223</ele>
        <time>2019-05-30T07:51:38Z</time>
      </trkpt>
      <trkpt lat="42.524269" lon="2.001622">
        <ele>2053.808</ele>
        <time>2019-05-30T07:51:41Z</time>
      </trkpt>
      <trkpt lat="42.524287" lon="2.001592">
        <ele>2054.232</ele>
        <time>2019-05-30T07:51:43Z</time>
      </trkpt>
      <trkpt lat="42.524320" lon="2.001539">
        <ele>2054.256</ele>
        <time>2019-05-30T07:51:47Z</time>
      </trkpt>
      <trkpt lat="42.524336" lon="2.001499">
        <ele>2054.862</ele>
        <time>2019-05-30T07:51:50Z</time>
      </trkpt>
      <trkpt lat="42.524359" lon="2.001453">
        <ele>2055.040</ele>
        <time>2019-05-30T07:51:54Z</time>
      </trkpt>
      <trkpt lat="42.524589" lon="2.001421">
        <ele>2056.453</ele>
        <time>2019-05-30T07:52:08Z</time>
      </trkpt>
      <trkpt lat="42.524634" lon="2.001412">
        <ele>2056.487</ele>
        <time>2019-05-30T07:52:10Z</time>
      </trkpt>
      <trkpt lat="42.524693" lon="2.001406">
        <ele>2057.855</ele>
        <time>2019-05-30T07:52:13Z</time>
      </trkpt>
      <trkpt lat="42.524779" lon="2.001412">
        <ele>2057.070</ele>
        <time>2019-05-30T07:52:17Z</time>
      </trkpt>
      <trkpt lat="42.524927" lon="2.001401">
        <ele>2058.277</ele>
        <time>2019-05-30T07:52:24Z</time>
      </trkpt>
      <trkpt lat="42.525009" lon="2.001379">
        <ele>2058.461</ele>
        <time>2019-05-30T07:52:28Z</time>
      </trkpt>
      <trkpt lat="42.525038" lon="2.001386">
        <ele>2058.627</ele>
        <time>2019-05-30T07:52:30Z</time>
      </trkpt>
      <trkpt lat="42.525098" lon="2.001398">
        <ele>2058.808</ele>
        <time>2019-05-30T07:52:34Z</time>
      </trkpt>
      <trkpt lat="42.525156" lon="2.001414">
        <ele>2058.890</ele>
        <time>2019-05-30T07:52:38Z</time>
      </trkpt>
      <trkpt lat="42.525184" lon="2.001420">
        <ele>2059.614</ele>
        <time>2019-05-30T07:52:40Z</time>
      </trkpt>
      <trkpt lat="42.525200" lon="2.001415">
        <ele>2059.810</ele>
        <time>2019-05-30T07:52:41Z</time>
      </trkpt>
      <trkpt lat="42.525222" lon="2.001410">
        <ele>2060.048</ele>
        <time>2019-05-30T07:52:43Z</time>
      </trkpt>
      <trkpt lat="42.525334" lon="2.001369">
        <ele>2059.621</ele>
        <time>2019-05-30T07:52:49Z</time>
      </trkpt>
      <trkpt lat="42.525458" lon="2.001333">
        <ele>2061.035</ele>
        <time>2019-05-30T07:52:56Z</time>
      </trkpt>
      <trkpt lat="42.525535" lon="2.001280">
        <ele>2062.073</ele>
        <time>2019-05-30T07:53:01Z</time>
      </trkpt>
      <trkpt lat="42.525634" lon="2.001149">
        <ele>2062.448</ele>
        <time>2019-05-30T07:53:09Z</time>
      </trkpt>
      <trkpt lat="42.525668" lon="2.001021">
        <ele>2063.278</ele>
        <time>2019-05-30T07:53:15Z</time>
      </trkpt>
      <trkpt lat="42.525679" lon="2.000980">
        <ele>2063.633</ele>
        <time>2019-05-30T07:53:17Z</time>
      </trkpt>
      <trkpt lat="42.525687" lon="2.000822">
        <ele>2063.826</ele>
        <time>2019-05-30T07:53:24Z</time>
      </trkpt>
      <trkpt lat="42.525688" lon="2.000797">
        <ele>2064.408</ele>
        <time>2019-05-30T07:53:25Z</time>
      </trkpt>
      <trkpt lat="42.525693" lon="2.000755">
        <ele>2062.280</ele>
        <time>2019-05-30T07:53:27Z</time>
      </trkpt>
      <trkpt lat="42.525707" lon="2.000692">
        <ele>2064.824</ele>
        <time>2019-05-30T07:53:30Z</time>
      </trkpt>
      <trkpt lat="42.525721" lon="2.000631">
        <ele>2064.860</ele>
        <time>2019-05-30T07:53:33Z</time>
      </trkpt>
      <trkpt lat="42.525755" lon="2.000468">
        <ele>2065.268</ele>
        <time>2019-05-30T07:53:41Z</time>
      </trkpt>
      <trkpt lat="42.525764" lon="2.000421">
        <ele>2065.271</ele>
        <time>2019-05-30T07:53:44Z</time>
      </trkpt>
      <trkpt lat="42.525774" lon="2.000357">
        <ele>2065.215</ele>
        <time>2019-05-30T07:53:47Z</time>
      </trkpt>
      <trkpt lat="42.525818" lon="2.000212">
        <ele>2065.893</ele>
        <time>2019-05-30T07:53:54Z</time>
      </trkpt>
      <trkpt lat="42.525833" lon="2.000125">
        <ele>2066.898</ele>
        <time>2019-05-30T07:53:58Z</time>
      </trkpt>
      <trkpt lat="42.525870" lon="2.000030">
        <ele>2067.817</ele>
        <time>2019-05-30T07:54:03Z</time>
      </trkpt>
      <trkpt lat="42.525873" lon="2.000007">
        <ele>2068.087</ele>
        <time>2019-05-30T07:54:04Z</time>
      </trkpt>
      <trkpt lat="42.525913" lon="1.999941">
        <ele>2068.415</ele>
        <time>2019-05-30T07:54:08Z</time>
      </trkpt>
      <trkpt lat="42.525971" lon="1.999843">
        <ele>2068.008</ele>
        <time>2019-05-30T07:54:13Z</time>
      </trkpt>
      <trkpt lat="42.526013" lon="1.999754">
        <ele>2069.064</ele>
        <time>2019-05-30T07:54:18Z</time>
      </trkpt>
      <trkpt lat="42.526019" lon="1.999735">
        <ele>2069.668</ele>
        <time>2019-05-30T07:54:19Z</time>
      </trkpt>
      <trkpt lat="42.526032" lon="1.999695">
        <ele>2070.054</ele>
        <time>2019-05-30T07:54:21Z</time>
      </trkpt>
      <trkpt lat="42.526058" lon="1.999588">
        <ele>2070.022</ele>
        <time>2019-05-30T07:54:26Z</time>
      </trkpt>
      <trkpt lat="42.526110" lon="1.999464">
        <ele>2070.875</ele>
        <time>2019-05-30T07:54:33Z</time>
      </trkpt>
      <trkpt lat="42.526166" lon="1.999381">
        <ele>2071.229</ele>
        <time>2019-05-30T07:54:38Z</time>
      </trkpt>
      <trkpt lat="42.526188" lon="1.999348">
        <ele>2071.417</ele>
        <time>2019-05-30T07:54:40Z</time>
      </trkpt>
      <trkpt lat="42.526240" lon="1.999280">
        <ele>2071.892</ele>
        <time>2019-05-30T07:54:45Z</time>
      </trkpt>
      <trkpt lat="42.526263" lon="1.999252">
        <ele>2072.034</ele>
        <time>2019-05-30T07:54:47Z</time>
      </trkpt>
      <trkpt lat="42.526280" lon="1.999241">
        <ele>2072.255</ele>
        <time>2019-05-30T07:54:48Z</time>
      </trkpt>
      <trkpt lat="42.526316" lon="1.999202">
        <ele>2072.410</ele>
        <time>2019-05-30T07:54:51Z</time>
      </trkpt>
      <trkpt lat="42.526340" lon="1.999168">
        <ele>2072.608</ele>
        <time>2019-05-30T07:54:53Z</time>
      </trkpt>
      <trkpt lat="42.526426" lon="1.999035">
        <ele>2073.416</ele>
        <time>2019-05-30T07:55:01Z</time>
      </trkpt>
      <trkpt lat="42.526448" lon="1.998996">
        <ele>2073.850</ele>
        <time>2019-05-30T07:55:03Z</time>
      </trkpt>
      <trkpt lat="42.526485" lon="1.998893">
        <ele>2074.456</ele>
        <time>2019-05-30T07:55:08Z</time>
      </trkpt>
      <trkpt lat="42.526519" lon="1.998836">
        <ele>2075.074</ele>
        <time>2019-05-30T07:55:11Z</time>
      </trkpt>
      <trkpt lat="42.526581" lon="1.998718">
        <ele>2075.447</ele>
        <time>2019-05-30T07:55:17Z</time>
      </trkpt>
      <trkpt lat="42.526589" lon="1.998698">
        <ele>2075.641</ele>
        <time>2019-05-30T07:55:18Z</time>
      </trkpt>
      <trkpt lat="42.526670" lon="1.998536">
        <ele>2076.439</ele>
        <time>2019-05-30T07:55:27Z</time>
      </trkpt>
      <trkpt lat="42.526698" lon="1.998488">
        <ele>2076.694</ele>
        <time>2019-05-30T07:55:30Z</time>
      </trkpt>
      <trkpt lat="42.526747" lon="1.998409">
        <ele>2077.012</ele>
        <time>2019-05-30T07:55:35Z</time>
      </trkpt>
      <trkpt lat="42.526806" lon="1.998310">
        <ele>2077.432</ele>
        <time>2019-05-30T07:55:41Z</time>
      </trkpt>
      <trkpt lat="42.526815" lon="1.998295">
        <ele>2077.605</ele>
        <time>2019-05-30T07:55:42Z</time>
      </trkpt>
      <trkpt lat="42.526816" lon="1.998270">
        <ele>2077.608</ele>
        <time>2019-05-30T07:55:43Z</time>
      </trkpt>
      <trkpt lat="42.526835" lon="1.998161">
        <ele>2077.814</ele>
        <time>2019-05-30T07:55:46Z</time>
      </trkpt>
      <trkpt lat="42.526826" lon="1.998095">
        <ele>2078.688</ele>
        <time>2019-05-30T07:55:51Z</time>
      </trkpt>
      <trkpt lat="42.526817" lon="1.998028">
        <ele>2078.814</ele>
        <time>2019-05-30T07:55:53Z</time>
      </trkpt>
      <trkpt lat="42.526808" lon="1.997962">
        <ele>2079.442</ele>
        <time>2019-05-30T07:56:01Z</time>
      </trkpt>
      <trkpt lat="42.526799" lon="1.997896">
        <ele>2079.855</ele>
        <time>2019-05-30T07:56:04Z</time>
      </trkpt>
      <trkpt lat="42.526790" lon="1.997830">
        <ele>2080.439</ele>
        <time>2019-05-30T07:56:09Z</time>
      </trkpt>
      <trkpt lat="42.526780" lon="1.997764">
        <ele>2081.087</ele>
        <time>2019-05-30T07:56:13Z</time>
      </trkpt>
      <trkpt lat="42.526771" lon="1.997698">
        <ele>2081.232</ele>
        <time>2019-05-30T07:56:14Z</time>
      </trkpt>
      <trkpt lat="42.526762" lon="1.997631">
        <ele>2081.295</ele>
        <time>2019-05-30T07:56:20Z</time>
      </trkpt>
      <trkpt lat="42.526753" lon="1.997565">
        <ele>2081.249</ele>
        <time>2019-05-30T07:56:27Z</time>
      </trkpt>
      <trkpt lat="42.526744" lon="1.997499">
        <ele>2080.623</ele>
        <time>2019-05-30T07:58:53Z</time>
      </trkpt>
      <trkpt lat="42.526735" lon="1.997433">
        <ele>2080.408</ele>
        <time>2019-05-30T07:58:54Z</time>
      </trkpt>
      <trkpt lat="42.526653" lon="1.997363">
        <ele>2079.672</ele>
        <time>2019-05-30T07:58:56Z</time>
      </trkpt>
      <trkpt lat="42.526606" lon="1.997319">
        <ele>2078.876</ele>
        <time>2019-05-30T07:58:57Z</time>
      </trkpt>
      <trkpt lat="42.526558" lon="1.997268">
        <ele>2078.612</ele>
        <time>2019-05-30T07:58:58Z</time>
      </trkpt>
      <trkpt lat="42.526516" lon="1.997211">
        <ele>2077.650</ele>
        <time>2019-05-30T07:58:59Z</time>
      </trkpt>
      <trkpt lat="42.526481" lon="1.997152">
        <ele>2077.213</ele>
        <time>2019-05-30T07:59:00Z</time>
      </trkpt>
      <trkpt lat="42.526386" lon="1.996976">
        <ele>2076.827</ele>
        <time>2019-05-30T07:59:03Z</time>
      </trkpt>
      <trkpt lat="42.526331" lon="1.996875">
        <ele>2076.275</ele>
        <time>2019-05-30T07:59:05Z</time>
      </trkpt>
      <trkpt lat="42.526270" lon="1.996793">
        <ele>2076.420</ele>
        <time>2019-05-30T07:59:07Z</time>
      </trkpt>
      <trkpt lat="42.526200" lon="1.996721">
        <ele>2076.812</ele>
        <time>2019-05-30T07:59:09Z</time>
      </trkpt>
      <trkpt lat="42.526071" lon="1.996635">
        <ele>2074.632</ele>
        <time>2019-05-30T07:59:12Z</time>
      </trkpt>
      <trkpt lat="42.525984" lon="1.996597">
        <ele>2074.805</ele>
        <time>2019-05-30T07:59:14Z</time>
      </trkpt>
      <trkpt lat="42.525853" lon="1.996527">
        <ele>2072.608</ele>
        <time>2019-05-30T07:59:17Z</time>
      </trkpt>
      <trkpt lat="42.525776" lon="1.996481">
        <ele>2071.464</ele>
        <time>2019-05-30T07:59:19Z</time>
      </trkpt>
      <trkpt lat="42.525737" lon="1.996456">
        <ele>2071.288</ele>
        <time>2019-05-30T07:59:20Z</time>
      </trkpt>
      <trkpt lat="42.525662" lon="1.996409">
        <ele>2070.234</ele>
        <time>2019-05-30T07:59:22Z</time>
      </trkpt>
      <trkpt lat="42.525509" lon="1.996277">
        <ele>2069.282</ele>
        <time>2019-05-30T07:59:26Z</time>
      </trkpt>
      <trkpt lat="42.525468" lon="1.996236">
        <ele>2068.655</ele>
        <time>2019-05-30T07:59:27Z</time>
      </trkpt>
      <trkpt lat="42.525391" lon="1.996137">
        <ele>2068.049</ele>
        <time>2019-05-30T07:59:29Z</time>
      </trkpt>
      <trkpt lat="42.525277" lon="1.995994">
        <ele>2067.047</ele>
        <time>2019-05-30T07:59:32Z</time>
      </trkpt>
      <trkpt lat="42.525205" lon="1.995917">
        <ele>2067.252</ele>
        <time>2019-05-30T07:59:34Z</time>
      </trkpt>
      <trkpt lat="42.525051" lon="1.995811">
        <ele>2066.227</ele>
        <time>2019-05-30T07:59:38Z</time>
      </trkpt>
      <trkpt lat="42.525015" lon="1.995783">
        <ele>2066.268</ele>
        <time>2019-05-30T07:59:39Z</time>
      </trkpt>
      <trkpt lat="42.524986" lon="1.995743">
        <ele>2066.214</ele>
        <time>2019-05-30T07:59:40Z</time>
      </trkpt>
      <trkpt lat="42.524955" lon="1.995710">
        <ele>2066.008</ele>
        <time>2019-05-30T07:59:41Z</time>
      </trkpt>
      <trkpt lat="42.524856" lon="1.995608">
        <ele>2064.625</ele>
        <time>2019-05-30T07:59:44Z</time>
      </trkpt>
      <trkpt lat="42.524805" lon="1.995525">
        <ele>2063.469</ele>
        <time>2019-05-30T07:59:46Z</time>
      </trkpt>
      <trkpt lat="42.524793" lon="1.995385">
        <ele>2062.415</ele>
        <time>2019-05-30T07:59:49Z</time>
      </trkpt>
      <trkpt lat="42.524780" lon="1.995169">
        <ele>2061.213</ele>
        <time>2019-05-30T07:59:53Z</time>
      </trkpt>
      <trkpt lat="42.524778" lon="1.995114">
        <ele>2061.016</ele>
        <time>2019-05-30T07:59:54Z</time>
      </trkpt>
      <trkpt lat="42.524787" lon="1.995060">
        <ele>2060.440</ele>
        <time>2019-05-30T07:59:55Z</time>
      </trkpt>
      <trkpt lat="42.524788" lon="1.995007">
        <ele>2059.838</ele>
        <time>2019-05-30T07:59:56Z</time>
      </trkpt>
      <trkpt lat="42.524780" lon="1.994848">
        <ele>2058.873</ele>
        <time>2019-05-30T07:59:59Z</time>
      </trkpt>
      <trkpt lat="42.524765" lon="1.994804">
        <ele>2058.296</ele>
        <time>2019-05-30T08:00:00Z</time>
      </trkpt>
      <trkpt lat="42.524713" lon="1.994733">
        <ele>2057.031</ele>
        <time>2019-05-30T08:00:02Z</time>
      </trkpt>
      <trkpt lat="42.524684" lon="1.994705">
        <ele>2056.624</ele>
        <time>2019-05-30T08:00:03Z</time>
      </trkpt>
      <trkpt lat="42.524639" lon="1.994686">
        <ele>2056.408</ele>
        <time>2019-05-30T08:00:04Z</time>
      </trkpt>
      <trkpt lat="42.524593" lon="1.994683">
        <ele>2056.052</ele>
        <time>2019-05-30T08:00:05Z</time>
      </trkpt>
      <trkpt lat="42.524504" lon="1.994684">
        <ele>2055.086</ele>
        <time>2019-05-30T08:00:07Z</time>
      </trkpt>
      <trkpt lat="42.524459" lon="1.994682">
        <ele>2054.672</ele>
        <time>2019-05-30T08:00:08Z</time>
      </trkpt>
      <trkpt lat="42.524360" lon="1.994684">
        <ele>2053.620</ele>
        <time>2019-05-30T08:00:10Z</time>
      </trkpt>
      <trkpt lat="42.524317" lon="1.994674">
        <ele>2053.033</ele>
        <time>2019-05-30T08:00:11Z</time>
      </trkpt>
      <trkpt lat="42.524273" lon="1.994662">
        <ele>2052.657</ele>
        <time>2019-05-30T08:00:12Z</time>
      </trkpt>
      <trkpt lat="42.524227" lon="1.994665">
        <ele>2052.225</ele>
        <time>2019-05-30T08:00:13Z</time>
      </trkpt>
      <trkpt lat="42.524135" lon="1.994676">
        <ele>2051.220</ele>
        <time>2019-05-30T08:00:15Z</time>
      </trkpt>
      <trkpt lat="42.524086" lon="1.994678">
        <ele>2051.093</ele>
        <time>2019-05-30T08:00:16Z</time>
      </trkpt>
      <trkpt lat="42.523993" lon="1.994677">
        <ele>2050.065</ele>
        <time>2019-05-30T08:00:18Z</time>
      </trkpt>
      <trkpt lat="42.523954" lon="1.994668">
        <ele>2049.821</ele>
        <time>2019-05-30T08:00:19Z</time>
      </trkpt>
      <trkpt lat="42.523839" lon="1.994625">
        <ele>2049.008</ele>
        <time>2019-05-30T08:00:22Z</time>
      </trkpt>
      <trkpt lat="42.523797" lon="1.994607">
        <ele>2048.442</ele>
        <time>2019-05-30T08:00:23Z</time>
      </trkpt>
      <trkpt lat="42.523752" lon="1.994587">
        <ele>2047.826</ele>
        <time>2019-05-30T08:00:24Z</time>
      </trkpt>
      <trkpt lat="42.523662" lon="1.994566">
        <ele>2047.812</ele>
        <time>2019-05-30T08:00:26Z</time>
      </trkpt>
      <trkpt lat="42.523531" lon="1.994557">
        <ele>2047.220</ele>
        <time>2019-05-30T08:00:29Z</time>
      </trkpt>
      <trkpt lat="42.523295" lon="1.994535">
        <ele>2046.613</ele>
        <time>2019-05-30T08:00:35Z</time>
      </trkpt>
      <trkpt lat="42.523173" lon="1.994577">
        <ele>2044.877</ele>
        <time>2019-05-30T08:00:38Z</time>
      </trkpt>
      <trkpt lat="42.523119" lon="1.994608">
        <ele>2044.025</ele>
        <time>2019-05-30T08:00:39Z</time>
      </trkpt>
      <trkpt lat="42.523001" lon="1.994666">
        <ele>2043.660</ele>
        <time>2019-05-30T08:00:41Z</time>
      </trkpt>
      <trkpt lat="42.522813" lon="1.994763">
        <ele>2041.415</ele>
        <time>2019-05-30T08:00:44Z</time>
      </trkpt>
      <trkpt lat="42.522747" lon="1.994796">
        <ele>2040.665</ele>
        <time>2019-05-30T08:00:45Z</time>
      </trkpt>
      <trkpt lat="42.522675" lon="1.994805">
        <ele>2040.411</ele>
        <time>2019-05-30T08:00:46Z</time>
      </trkpt>
      <trkpt lat="42.522544" lon="1.994851">
        <ele>2040.608</ele>
        <time>2019-05-30T08:00:48Z</time>
      </trkpt>
      <trkpt lat="42.522307" lon="1.994950">
        <ele>2040.074</ele>
        <time>2019-05-30T08:00:52Z</time>
      </trkpt>
      <trkpt lat="42.522202" lon="1.995006">
        <ele>2040.688</ele>
        <time>2019-05-30T08:00:54Z</time>
      </trkpt>
      <trkpt lat="42.521927" lon="1.995153">
        <ele>2041.234</ele>
        <time>2019-05-30T08:01:00Z</time>
      </trkpt>
      <trkpt lat="42.521663" lon="1.995285">
        <ele>2041.482</ele>
        <time>2019-05-30T08:01:07Z</time>
      </trkpt>
      <trkpt lat="42.521636" lon="1.995311">
        <ele>2041.445</ele>
        <time>2019-05-30T08:01:08Z</time>
      </trkpt>
      <trkpt lat="42.521514" lon="1.995414">
        <ele>2042.079</ele>
        <time>2019-05-30T08:01:12Z</time>
      </trkpt>
      <trkpt lat="42.521320" lon="1.995495">
        <ele>2042.487</ele>
        <time>2019-05-30T08:01:18Z</time>
      </trkpt>
      <trkpt lat="42.521260" lon="1.995514">
        <ele>2042.682</ele>
        <time>2019-05-30T08:01:20Z</time>
      </trkpt>
      <trkpt lat="42.521155" lon="1.995570">
        <ele>2042.812</ele>
        <time>2019-05-30T08:01:24Z</time>
      </trkpt>
      <trkpt lat="42.521108" lon="1.995596">
        <ele>2043.632</ele>
        <time>2019-05-30T08:01:26Z</time>
      </trkpt>
      <trkpt lat="42.521083" lon="1.995598">
        <ele>2043.605</ele>
        <time>2019-05-30T08:01:27Z</time>
      </trkpt>
      <trkpt lat="42.521042" lon="1.995563">
        <ele>2044.208</ele>
        <time>2019-05-30T08:01:29Z</time>
      </trkpt>
      <trkpt lat="42.521040" lon="1.995537">
        <ele>2044.274</ele>
        <time>2019-05-30T08:01:30Z</time>
      </trkpt>
      <trkpt lat="42.521037" lon="1.995512">
        <ele>2044.618</ele>
        <time>2019-05-30T08:01:31Z</time>
      </trkpt>
      <trkpt lat="42.521034" lon="1.995468">
        <ele>2045.084</ele>
        <time>2019-05-30T08:01:33Z</time>
      </trkpt>
      <trkpt lat="42.521041" lon="1.995388">
        <ele>2045.642</ele>
        <time>2019-05-30T08:01:37Z</time>
      </trkpt>
      <trkpt lat="42.521058" lon="1.995330">
        <ele>2046.015</ele>
        <time>2019-05-30T08:01:40Z</time>
      </trkpt>
      <trkpt lat="42.521095" lon="1.995214">
        <ele>2046.249</ele>
        <time>2019-05-30T08:01:46Z</time>
      </trkpt>
      <trkpt lat="42.521113" lon="1.995130">
        <ele>2046.897</ele>
        <time>2019-05-30T08:01:50Z</time>
      </trkpt>
      <trkpt lat="42.521133" lon="1.995094">
        <ele>2047.072</ele>
        <time>2019-05-30T08:01:52Z</time>
      </trkpt>
      <trkpt lat="42.521183" lon="1.994962">
        <ele>2048.049</ele>
        <time>2019-05-30T08:01:59Z</time>
      </trkpt>
      <trkpt lat="42.521190" lon="1.994942">
        <ele>2048.202</ele>
        <time>2019-05-30T08:02:00Z</time>
      </trkpt>
      <trkpt lat="42.521233" lon="1.994798">
        <ele>2048.422</ele>
        <time>2019-05-30T08:02:06Z</time>
      </trkpt>
      <trkpt lat="42.521266" lon="1.994685">
        <ele>2049.008</ele>
        <time>2019-05-30T08:02:11Z</time>
      </trkpt>
      <trkpt lat="42.521301" lon="1.994595">
        <ele>2049.457</ele>
        <time>2019-05-30T08:02:15Z</time>
      </trkpt>
      <trkpt lat="42.521327" lon="1.994481">
        <ele>2050.021</ele>
        <time>2019-05-30T08:02:20Z</time>
      </trkpt>
      <trkpt lat="42.521337" lon="1.994436">
        <ele>2050.057</ele>
        <time>2019-05-30T08:02:22Z</time>
      </trkpt>
      <trkpt lat="42.521327" lon="1.994294">
        <ele>2050.815</ele>
        <time>2019-05-30T08:02:29Z</time>
      </trkpt>
      <trkpt lat="42.521314" lon="1.994277">
        <ele>2051.488</ele>
        <time>2019-05-30T08:02:30Z</time>
      </trkpt>
      <trkpt lat="42.521250" lon="1.994205">
        <ele>2051.042</ele>
        <time>2019-05-30T08:02:35Z</time>
      </trkpt>
      <trkpt lat="42.521130" lon="1.994212">
        <ele>2051.830</ele>
        <time>2019-05-30T08:02:42Z</time>
      </trkpt>
      <trkpt lat="42.520998" lon="1.994338">
        <ele>2051.865</ele>
        <time>2019-05-30T08:02:50Z</time>
      </trkpt>
      <trkpt lat="42.520863" lon="1.994444">
        <ele>2052.426</ele>
        <time>2019-05-30T08:02:58Z</time>
      </trkpt>
      <trkpt lat="42.520846" lon="1.994459">
        <ele>2052.447</ele>
        <time>2019-05-30T08:02:59Z</time>
      </trkpt>
      <trkpt lat="42.520748" lon="1.994547">
        <ele>2053.611</ele>
        <time>2019-05-30T08:03:05Z</time>
      </trkpt>
      <trkpt lat="42.520643" lon="1.994629">
        <ele>2054.608</ele>
        <time>2019-05-30T08:03:11Z</time>
      </trkpt>
      <trkpt lat="42.520625" lon="1.994640">
        <ele>2054.845</ele>
        <time>2019-05-30T08:03:12Z</time>
      </trkpt>
      <trkpt lat="42.520541" lon="1.994702">
        <ele>2055.269</ele>
        <time>2019-05-30T08:03:17Z</time>
      </trkpt>
      <trkpt lat="42.520382" lon="1.994821">
        <ele>2056.025</ele>
        <time>2019-05-30T08:03:26Z</time>
      </trkpt>
      <trkpt lat="42.520222" lon="1.994880">
        <ele>2055.863</ele>
        <time>2019-05-30T08:03:33Z</time>
      </trkpt>
      <trkpt lat="42.520082" lon="1.994832">
        <ele>2056.076</ele>
        <time>2019-05-30T08:03:39Z</time>
      </trkpt>
      <trkpt lat="42.519974" lon="1.994720">
        <ele>2055.890</ele>
        <time>2019-05-30T08:03:45Z</time>
      </trkpt>
      <trkpt lat="42.519896" lon="1.994607">
        <ele>2056.038</ele>
        <time>2019-05-30T08:03:50Z</time>
      </trkpt>
      <trkpt lat="42.519809" lon="1.994473">
        <ele>2056.693</ele>
        <time>2019-05-30T08:03:56Z</time>
      </trkpt>
      <trkpt lat="42.519794" lon="1.994427">
        <ele>2057.086</ele>
        <time>2019-05-30T08:03:58Z</time>
      </trkpt>
      <trkpt lat="42.519759" lon="1.994331">
        <ele>2057.460</ele>
        <time>2019-05-30T08:04:02Z</time>
      </trkpt>
      <trkpt lat="42.519747" lon="1.994311">
        <ele>2057.426</ele>
        <time>2019-05-30T08:04:03Z</time>
      </trkpt>
      <trkpt lat="42.519717" lon="1.994244">
        <ele>2057.808</ele>
        <time>2019-05-30T08:04:06Z</time>
      </trkpt>
      <trkpt lat="42.519699" lon="1.994198">
        <ele>2058.021</ele>
        <time>2019-05-30T08:04:08Z</time>
      </trkpt>
      <trkpt lat="42.519615" lon="1.994018">
        <ele>2058.675</ele>
        <time>2019-05-30T08:04:16Z</time>
      </trkpt>
      <trkpt lat="42.519528" lon="1.993839">
        <ele>2058.661</ele>
        <time>2019-05-30T08:04:24Z</time>
      </trkpt>
      <trkpt lat="42.519447" lon="1.993652">
        <ele>2058.899</ele>
        <time>2019-05-30T08:04:32Z</time>
      </trkpt>
      <trkpt lat="42.519400" lon="1.993511">
        <ele>2059.442</ele>
        <time>2019-05-30T08:04:38Z</time>
      </trkpt>
      <trkpt lat="42.519393" lon="1.993486">
        <ele>2059.816</ele>
        <time>2019-05-30T08:04:39Z</time>
      </trkpt>
      <trkpt lat="42.519359" lon="1.993359">
        <ele>2060.494</ele>
        <time>2019-05-30T08:04:44Z</time>
      </trkpt>
      <trkpt lat="42.519350" lon="1.993336">
        <ele>2060.679</ele>
        <time>2019-05-30T08:04:45Z</time>
      </trkpt>
      <trkpt lat="42.519313" lon="1.993224">
        <ele>2060.215</ele>
        <time>2019-05-30T08:04:50Z</time>
      </trkpt>
      <trkpt lat="42.519257" lon="1.993101">
        <ele>2061.665</ele>
        <time>2019-05-30T08:04:56Z</time>
      </trkpt>
      <trkpt lat="42.519251" lon="1.993082">
        <ele>2061.811</ele>
        <time>2019-05-30T08:04:57Z</time>
      </trkpt>
      <trkpt lat="42.519207" lon="1.992968">
        <ele>2061.808</ele>
        <time>2019-05-30T08:05:03Z</time>
      </trkpt>
      <trkpt lat="42.519145" lon="1.992835">
        <ele>2062.694</ele>
        <time>2019-05-30T08:05:11Z</time>
      </trkpt>
      <trkpt lat="42.519138" lon="1.992816">
        <ele>2062.618</ele>
        <time>2019-05-30T08:05:12Z</time>
      </trkpt>
      <trkpt lat="42.519086" lon="1.992690">
        <ele>2063.684</ele>
        <time>2019-05-30T08:05:19Z</time>
      </trkpt>
      <trkpt lat="42.519075" lon="1.992657">
        <ele>2064.032</ele>
        <time>2019-05-30T08:05:21Z</time>
      </trkpt>
      <trkpt lat="42.519055" lon="1.992603">
        <ele>2064.815</ele>
        <time>2019-05-30T08:05:24Z</time>
      </trkpt>
      <trkpt lat="42.519022" lon="1.992539">
        <ele>2064.889</ele>
        <time>2019-05-30T08:05:28Z</time>
      </trkpt>
      <trkpt lat="42.519005" lon="1.992514">
        <ele>2065.247</ele>
        <time>2019-05-30T08:05:30Z</time>
      </trkpt>
      <trkpt lat="42.518985" lon="1.992468">
        <ele>2065.672</ele>
        <time>2019-05-30T08:05:33Z</time>
      </trkpt>
      <trkpt lat="42.518982" lon="1.992449">
        <ele>2066.095</ele>
        <time>2019-05-30T08:05:34Z</time>
      </trkpt>
      <trkpt lat="42.518964" lon="1.992422">
        <ele>2066.449</ele>
        <time>2019-05-30T08:05:36Z</time>
      </trkpt>
      <trkpt lat="42.518947" lon="1.992392">
        <ele>2066.223</ele>
        <time>2019-05-30T08:05:38Z</time>
      </trkpt>
      <trkpt lat="42.518922" lon="1.992353">
        <ele>2066.408</ele>
        <time>2019-05-30T08:05:41Z</time>
      </trkpt>
      <trkpt lat="42.518917" lon="1.992336">
        <ele>2066.692</ele>
        <time>2019-05-30T08:05:42Z</time>
      </trkpt>
      <trkpt lat="42.518910" lon="1.992299">
        <ele>2067.286</ele>
        <time>2019-05-30T08:05:44Z</time>
      </trkpt>
      <trkpt lat="42.518904" lon="1.992284">
        <ele>2067.222</ele>
        <time>2019-05-30T08:05:45Z</time>
      </trkpt>
      <trkpt lat="42.518863" lon="1.992184">
        <ele>2068.280</ele>
        <time>2019-05-30T08:05:51Z</time>
      </trkpt>
      <trkpt lat="42.518856" lon="1.992166">
        <ele>2068.273</ele>
        <time>2019-05-30T08:05:52Z</time>
      </trkpt>
      <trkpt lat="42.518815" lon="1.992040">
        <ele>2069.297</ele>
        <time>2019-05-30T08:05:59Z</time>
      </trkpt>
      <trkpt lat="42.518812" lon="1.992023">
        <ele>2069.245</ele>
        <time>2019-05-30T08:06:00Z</time>
      </trkpt>
      <trkpt lat="42.518775" lon="1.991946">
        <ele>2069.650</ele>
        <time>2019-05-30T08:06:05Z</time>
      </trkpt>
      <trkpt lat="42.518725" lon="1.991854">
        <ele>2070.268</ele>
        <time>2019-05-30T08:06:11Z</time>
      </trkpt>
      <trkpt lat="42.518720" lon="1.991837">
        <ele>2070.242</ele>
        <time>2019-05-30T08:06:12Z</time>
      </trkpt>
      <trkpt lat="42.518704" lon="1.991799">
        <ele>2070.626</ele>
        <time>2019-05-30T08:06:14Z</time>
      </trkpt>
      <trkpt lat="42.518680" lon="1.991751">
        <ele>2071.008</ele>
        <time>2019-05-30T08:06:17Z</time>
      </trkpt>
      <trkpt lat="42.518637" lon="1.991675">
        <ele>2071.249</ele>
        <time>2019-05-30T08:06:22Z</time>
      </trkpt>
      <trkpt lat="42.518628" lon="1.991660">
        <ele>2071.233</ele>
        <time>2019-05-30T08:06:23Z</time>
      </trkpt>
      <trkpt lat="42.518601" lon="1.991613">
        <ele>2071.459</ele>
        <time>2019-05-30T08:06:26Z</time>
      </trkpt>
      <trkpt lat="42.518554" lon="1.991539">
        <ele>2071.677</ele>
        <time>2019-05-30T08:06:31Z</time>
      </trkpt>
      <trkpt lat="42.518488" lon="1.991430">
        <ele>2072.450</ele>
        <time>2019-05-30T08:06:38Z</time>
      </trkpt>
      <trkpt lat="42.518472" lon="1.991399">
        <ele>2072.674</ele>
        <time>2019-05-30T08:06:40Z</time>
      </trkpt>
      <trkpt lat="42.518407" lon="1.991294">
        <ele>2073.072</ele>
        <time>2019-05-30T08:06:47Z</time>
      </trkpt>
      <trkpt lat="42.518342" lon="1.991193">
        <ele>2073.427</ele>
        <time>2019-05-30T08:06:54Z</time>
      </trkpt>
      <trkpt lat="42.518325" lon="1.991162">
        <ele>2073.432</ele>
        <time>2019-05-30T08:06:56Z</time>
      </trkpt>
      <trkpt lat="42.518300" lon="1.991108">
        <ele>2073.892</ele>
        <time>2019-05-30T08:06:59Z</time>
      </trkpt>
      <trkpt lat="42.518284" lon="1.991073">
        <ele>2073.811</ele>
        <time>2019-05-30T08:07:01Z</time>
      </trkpt>
      <trkpt lat="42.518218" lon="1.990992">
        <ele>2074.408</ele>
        <time>2019-05-30T08:07:07Z</time>
      </trkpt>
      <trkpt lat="42.518191" lon="1.990966">
        <ele>2074.426</ele>
        <time>2019-05-30T08:07:09Z</time>
      </trkpt>
      <trkpt lat="42.518134" lon="1.990871">
        <ele>2074.840</ele>
        <time>2019-05-30T08:07:15Z</time>
      </trkpt>
      <trkpt lat="42.518075" lon="1.990776">
        <ele>2075.486</ele>
        <time>2019-05-30T08:07:21Z</time>
      </trkpt>
      <trkpt lat="42.518067" lon="1.990758">
        <ele>2075.654</ele>
        <time>2019-05-30T08:07:22Z</time>
      </trkpt>
      <trkpt lat="42.518004" lon="1.990665">
        <ele>2075.877</ele>
        <time>2019-05-30T08:07:28Z</time>
      </trkpt>
      <trkpt lat="42.517951" lon="1.990530">
        <ele>2076.421</ele>
        <time>2019-05-30T08:07:35Z</time>
      </trkpt>
      <trkpt lat="42.517940" lon="1.990517">
        <ele>2076.669</ele>
        <time>2019-05-30T08:07:36Z</time>
      </trkpt>
      <trkpt lat="42.517895" lon="1.990468">
        <ele>2076.874</ele>
        <time>2019-05-30T08:07:40Z</time>
      </trkpt>
      <trkpt lat="42.517840" lon="1.990359">
        <ele>2077.455</ele>
        <time>2019-05-30T08:07:46Z</time>
      </trkpt>
      <trkpt lat="42.517830" lon="1.990346">
        <ele>2077.407</ele>
        <time>2019-05-30T08:07:47Z</time>
      </trkpt>
      <trkpt lat="42.517802" lon="1.990299">
        <ele>2077.817</ele>
        <time>2019-05-30T08:07:50Z</time>
      </trkpt>
      <trkpt lat="42.517792" lon="1.990284">
        <ele>2077.808</ele>
        <time>2019-05-30T08:07:51Z</time>
      </trkpt>
      <trkpt lat="42.517765" lon="1.990232">
        <ele>2078.298</ele>
        <time>2019-05-30T08:07:54Z</time>
      </trkpt>
      <trkpt lat="42.517733" lon="1.990154">
        <ele>2078.682</ele>
        <time>2019-05-30T08:07:58Z</time>
      </trkpt>
      <trkpt lat="42.517725" lon="1.990136">
        <ele>2078.638</ele>
        <time>2019-05-30T08:07:59Z</time>
      </trkpt>
      <trkpt lat="42.517709" lon="1.990105">
        <ele>2078.846</ele>
        <time>2019-05-30T08:08:01Z</time>
      </trkpt>
      <trkpt lat="42.517691" lon="1.990075">
        <ele>2079.029</ele>
        <time>2019-05-30T08:08:03Z</time>
      </trkpt>
      <trkpt lat="42.517675" lon="1.990038">
        <ele>2078.853</ele>
        <time>2019-05-30T08:08:05Z</time>
      </trkpt>
      <trkpt lat="42.517608" lon="1.989952">
        <ele>2079.291</ele>
        <time>2019-05-30T08:08:11Z</time>
      </trkpt>
      <trkpt lat="42.517559" lon="1.989881">
        <ele>2079.896</ele>
        <time>2019-05-30T08:08:16Z</time>
      </trkpt>
      <trkpt lat="42.517522" lon="1.989841">
        <ele>2079.821</ele>
        <time>2019-05-30T08:08:19Z</time>
      </trkpt>
      <trkpt lat="42.517441" lon="1.989738">
        <ele>2079.841</ele>
        <time>2019-05-30T08:08:26Z</time>
      </trkpt>
      <trkpt lat="42.517354" lon="1.989625">
        <ele>2080.205</ele>
        <time>2019-05-30T08:08:32Z</time>
      </trkpt>
      <trkpt lat="42.517293" lon="1.989531">
        <ele>2080.408</ele>
        <time>2019-05-30T08:08:37Z</time>
      </trkpt>
      <trkpt lat="42.517275" lon="1.989499">
        <ele>2080.415</ele>
        <time>2019-05-30T08:08:40Z</time>
      </trkpt>
      <trkpt lat="42.517133" lon="1.989255">
        <ele>2081.229</ele>
        <time>2019-05-30T08:09:13Z</time>
      </trkpt>
      <trkpt lat="42.517111" lon="1.989220">
        <ele>2081.225</ele>
        <time>2019-05-30T08:09:15Z</time>
      </trkpt>
      <trkpt lat="42.517046" lon="1.989116">
        <ele>2080.243</ele>
        <time>2019-05-30T08:09:20Z</time>
      </trkpt>
      <trkpt lat="42.517007" lon="1.989057">
        <ele>2080.426</ele>
        <time>2019-05-30T08:09:23Z</time>
      </trkpt>
      <trkpt lat="42.516905" lon="1.988904">
        <ele>2080.620</ele>
        <time>2019-05-30T08:09:31Z</time>
      </trkpt>
      <trkpt lat="42.516858" lon="1.988836">
        <ele>2080.438</ele>
        <time>2019-05-30T08:09:35Z</time>
      </trkpt>
      <trkpt lat="42.516836" lon="1.988800">
        <ele>2080.883</ele>
        <time>2019-05-30T08:09:37Z</time>
      </trkpt>
      <trkpt lat="42.516794" lon="1.988720">
        <ele>2081.283</ele>
        <time>2019-05-30T08:09:41Z</time>
      </trkpt>
      <trkpt lat="42.516748" lon="1.988643">
        <ele>2081.225</ele>
        <time>2019-05-30T08:09:45Z</time>
      </trkpt>
      <trkpt lat="42.516661" lon="1.988530">
        <ele>2081.817</ele>
        <time>2019-05-30T08:09:52Z</time>
      </trkpt>
      <trkpt lat="42.516604" lon="1.988458">
        <ele>2082.208</ele>
        <time>2019-05-30T08:09:57Z</time>
      </trkpt>
      <trkpt lat="42.516585" lon="1.988427">
        <ele>2082.231</ele>
        <time>2019-05-30T08:09:59Z</time>
      </trkpt>
      <trkpt lat="42.516502" lon="1.988320">
        <ele>2082.895</ele>
        <time>2019-05-30T08:10:06Z</time>
      </trkpt>
      <trkpt lat="42.516467" lon="1.988276">
        <ele>2083.271</ele>
        <time>2019-05-30T08:10:09Z</time>
      </trkpt>
      <trkpt lat="42.516401" lon="1.988176">
        <ele>2083.899</ele>
        <time>2019-05-30T08:10:15Z</time>
      </trkpt>
      <trkpt lat="42.516359" lon="1.988104">
        <ele>2084.262</ele>
        <time>2019-05-30T08:10:19Z</time>
      </trkpt>
      <trkpt lat="42.516335" lon="1.988070">
        <ele>2084.446</ele>
        <time>2019-05-30T08:10:21Z</time>
      </trkpt>
      <trkpt lat="42.516311" lon="1.988034">
        <ele>2084.834</ele>
        <time>2019-05-30T08:10:23Z</time>
      </trkpt>
      <trkpt lat="42.516231" lon="1.987915">
        <ele>2085.019</ele>
        <time>2019-05-30T08:10:29Z</time>
      </trkpt>
      <trkpt lat="42.516095" lon="1.987744">
        <ele>2085.027</ele>
        <time>2019-05-30T08:10:38Z</time>
      </trkpt>
      <trkpt lat="42.516021" lon="1.987709">
        <ele>2085.268</ele>
        <time>2019-05-30T08:10:42Z</time>
      </trkpt>
      <trkpt lat="42.515984" lon="1.987706">
        <ele>2085.414</ele>
        <time>2019-05-30T08:10:44Z</time>
      </trkpt>
      <trkpt lat="42.515904" lon="1.987706">
        <ele>2086.008</ele>
        <time>2019-05-30T08:10:50Z</time>
      </trkpt>
      <trkpt lat="42.515876" lon="1.987707">
        <ele>2086.435</ele>
        <time>2019-05-30T08:10:52Z</time>
      </trkpt>
      <trkpt lat="42.515832" lon="1.987705">
        <ele>2086.679</ele>
        <time>2019-05-30T08:10:55Z</time>
      </trkpt>
      <trkpt lat="42.515777" lon="1.987723">
        <ele>2087.035</ele>
        <time>2019-05-30T08:10:59Z</time>
      </trkpt>
      <trkpt lat="42.515762" lon="1.987727">
        <ele>2087.223</ele>
        <time>2019-05-30T08:11:00Z</time>
      </trkpt>
      <trkpt lat="42.515746" lon="1.987728">
        <ele>2087.466</ele>
        <time>2019-05-30T08:11:01Z</time>
      </trkpt>
      <trkpt lat="42.515644" lon="1.987758">
        <ele>2088.240</ele>
        <time>2019-05-30T08:11:08Z</time>
      </trkpt>
      <trkpt lat="42.515585" lon="1.987783">
        <ele>2088.688</ele>
        <time>2019-05-30T08:11:12Z</time>
      </trkpt>
      <trkpt lat="42.515537" lon="1.987792">
        <ele>2088.873</ele>
        <time>2019-05-30T08:11:15Z</time>
      </trkpt>
      <trkpt lat="42.515429" lon="1.987809">
        <ele>2089.289</ele>
        <time>2019-05-30T08:11:22Z</time>
      </trkpt>
      <trkpt lat="42.515365" lon="1.987818">
        <ele>2089.606</ele>
        <time>2019-05-30T08:11:26Z</time>
      </trkpt>
      <trkpt lat="42.515304" lon="1.987835">
        <ele>2089.826</ele>
        <time>2019-05-30T08:11:30Z</time>
      </trkpt>
      <trkpt lat="42.515185" lon="1.987868">
        <ele>2089.208</ele>
        <time>2019-05-30T08:11:38Z</time>
      </trkpt>
      <trkpt lat="42.515140" lon="1.987868">
        <ele>2091.021</ele>
        <time>2019-05-30T08:11:41Z</time>
      </trkpt>
      <trkpt lat="42.515126" lon="1.987870">
        <ele>2089.475</ele>
        <time>2019-05-30T08:11:42Z</time>
      </trkpt>
      <trkpt lat="42.515111" lon="1.987869">
        <ele>2090.881</ele>
        <time>2019-05-30T08:11:43Z</time>
      </trkpt>
      <trkpt lat="42.515095" lon="1.987872">
        <ele>2091.089</ele>
        <time>2019-05-30T08:11:44Z</time>
      </trkpt>
      <trkpt lat="42.515081" lon="1.987878">
        <ele>2093.052</ele>
        <time>2019-05-30T08:11:45Z</time>
      </trkpt>
      <trkpt lat="42.515066" lon="1.987881">
        <ele>2091.476</ele>
        <time>2019-05-30T08:11:46Z</time>
      </trkpt>
      <trkpt lat="42.514982" lon="1.987887">
        <ele>2092.024</ele>
        <time>2019-05-30T08:11:52Z</time>
      </trkpt>
      <trkpt lat="42.514953" lon="1.987903">
        <ele>2092.099</ele>
        <time>2019-05-30T08:11:54Z</time>
      </trkpt>
      <trkpt lat="42.514896" lon="1.987924">
        <ele>2092.673</ele>
        <time>2019-05-30T08:11:58Z</time>
      </trkpt>
      <trkpt lat="42.514791" lon="1.987918">
        <ele>2093.485</ele>
        <time>2019-05-30T08:12:05Z</time>
      </trkpt>
      <trkpt lat="42.514743" lon="1.987927">
        <ele>2093.613</ele>
        <time>2019-05-30T08:12:08Z</time>
      </trkpt>
      <trkpt lat="42.514670" lon="1.987948">
        <ele>2093.808</ele>
        <time>2019-05-30T08:12:13Z</time>
      </trkpt>
      <trkpt lat="42.514641" lon="1.987954">
        <ele>2094.230</ele>
        <time>2019-05-30T08:12:15Z</time>
      </trkpt>
      <trkpt lat="42.514573" lon="1.987976">
        <ele>2094.484</ele>
        <time>2019-05-30T08:12:19Z</time>
      </trkpt>
      <trkpt lat="42.514541" lon="1.987978">
        <ele>2094.480</ele>
        <time>2019-05-30T08:12:21Z</time>
      </trkpt>
      <trkpt lat="42.514527" lon="1.987985">
        <ele>2094.428</ele>
        <time>2019-05-30T08:12:22Z</time>
      </trkpt>
      <trkpt lat="42.514479" lon="1.987996">
        <ele>2094.491</ele>
        <time>2019-05-30T08:12:25Z</time>
      </trkpt>
      <trkpt lat="42.514420" lon="1.988025">
        <ele>2094.895</ele>
        <time>2019-05-30T08:12:29Z</time>
      </trkpt>
      <trkpt lat="42.514375" lon="1.988043">
        <ele>2095.063</ele>
        <time>2019-05-30T08:12:32Z</time>
      </trkpt>
      <trkpt lat="42.514315" lon="1.988093">
        <ele>2095.658</ele>
        <time>2019-05-30T08:12:37Z</time>
      </trkpt>
      <trkpt lat="42.514288" lon="1.988103">
        <ele>2095.687</ele>
        <time>2019-05-30T08:12:39Z</time>
      </trkpt>
      <trkpt lat="42.514274" lon="1.988107">
        <ele>2095.842</ele>
        <time>2019-05-30T08:12:40Z</time>
      </trkpt>
      <trkpt lat="42.514216" lon="1.988133">
        <ele>2096.026</ele>
        <time>2019-05-30T08:12:44Z</time>
      </trkpt>
      <trkpt lat="42.514186" lon="1.988143">
        <ele>2096.208</ele>
        <time>2019-05-30T08:12:46Z</time>
      </trkpt>
      <trkpt lat="42.514118" lon="1.988180">
        <ele>2096.611</ele>
        <time>2019-05-30T08:12:51Z</time>
      </trkpt>
      <trkpt lat="42.514102" lon="1.988187">
        <ele>2096.615</ele>
        <time>2019-05-30T08:12:52Z</time>
      </trkpt>
      <trkpt lat="42.514057" lon="1.988207">
        <ele>2096.871</ele>
        <time>2019-05-30T08:12:55Z</time>
      </trkpt>
      <trkpt lat="42.513979" lon="1.988228">
        <ele>2097.459</ele>
        <time>2019-05-30T08:13:00Z</time>
      </trkpt>
      <trkpt lat="42.513922" lon="1.988254">
        <ele>2097.682</ele>
        <time>2019-05-30T08:13:04Z</time>
      </trkpt>
      <trkpt lat="42.513882" lon="1.988289">
        <ele>2098.076</ele>
        <time>2019-05-30T08:13:07Z</time>
      </trkpt>
      <trkpt lat="42.513869" lon="1.988297">
        <ele>2098.034</ele>
        <time>2019-05-30T08:13:08Z</time>
      </trkpt>
      <trkpt lat="42.513839" lon="1.988337">
        <ele>2098.469</ele>
        <time>2019-05-30T08:13:11Z</time>
      </trkpt>
      <trkpt lat="42.513834" lon="1.988356">
        <ele>2098.641</ele>
        <time>2019-05-30T08:13:12Z</time>
      </trkpt>
      <trkpt lat="42.513832" lon="1.988395">
        <ele>2099.281</ele>
        <time>2019-05-30T08:13:14Z</time>
      </trkpt>
      <trkpt lat="42.513841" lon="1.988453">
        <ele>2099.409</ele>
        <time>2019-05-30T08:13:17Z</time>
      </trkpt>
      <trkpt lat="42.513855" lon="1.988488">
        <ele>2099.808</ele>
        <time>2019-05-30T08:13:19Z</time>
      </trkpt>
      <trkpt lat="42.513870" lon="1.988514">
        <ele>2100.457</ele>
        <time>2019-05-30T08:13:21Z</time>
      </trkpt>
      <trkpt lat="42.513889" lon="1.988531">
        <ele>2100.611</ele>
        <time>2019-05-30T08:13:23Z</time>
      </trkpt>
      <trkpt lat="42.513914" lon="1.988544">
        <ele>2100.427</ele>
        <time>2019-05-30T08:13:25Z</time>
      </trkpt>
      <trkpt lat="42.513993" lon="1.988602">
        <ele>2101.695</ele>
        <time>2019-05-30T08:13:32Z</time>
      </trkpt>
      <trkpt lat="42.514000" lon="1.988615">
        <ele>2101.688</ele>
        <time>2019-05-30T08:13:33Z</time>
      </trkpt>
      <trkpt lat="42.514078" lon="1.988686">
        <ele>2102.442</ele>
        <time>2019-05-30T08:13:40Z</time>
      </trkpt>
      <trkpt lat="42.514092" lon="1.988691">
        <ele>2102.640</ele>
        <time>2019-05-30T08:13:41Z</time>
      </trkpt>
      <trkpt lat="42.514135" lon="1.988731">
        <ele>2102.465</ele>
        <time>2019-05-30T08:13:45Z</time>
      </trkpt>
      <trkpt lat="42.514145" lon="1.988742">
        <ele>2102.417</ele>
        <time>2019-05-30T08:13:46Z</time>
      </trkpt>
      <trkpt lat="42.514215" lon="1.988812">
        <ele>2102.887</ele>
        <time>2019-05-30T08:13:52Z</time>
      </trkpt>
      <trkpt lat="42.514250" lon="1.988843">
        <ele>2103.615</ele>
        <time>2019-05-30T08:13:55Z</time>
      </trkpt>
      <trkpt lat="42.514330" lon="1.988910">
        <ele>2104.208</ele>
        <time>2019-05-30T08:14:01Z</time>
      </trkpt>
      <trkpt lat="42.514395" lon="1.988968">
        <ele>2104.844</ele>
        <time>2019-05-30T08:14:06Z</time>
      </trkpt>
      <trkpt lat="42.514420" lon="1.989000">
        <ele>2104.868</ele>
        <time>2019-05-30T08:14:08Z</time>
      </trkpt>
      <trkpt lat="42.514436" lon="1.989036">
        <ele>2105.074</ele>
        <time>2019-05-30T08:14:10Z</time>
      </trkpt>
      <trkpt lat="42.514443" lon="1.989083">
        <ele>2105.822</ele>
        <time>2019-05-30T08:14:13Z</time>
      </trkpt>
      <trkpt lat="42.514402" lon="1.989145">
        <ele>2107.055</ele>
        <time>2019-05-30T08:14:18Z</time>
      </trkpt>
      <trkpt lat="42.514324" lon="1.989168">
        <ele>2107.429</ele>
        <time>2019-05-30T08:14:24Z</time>
      </trkpt>
      <trkpt lat="42.514237" lon="1.989199">
        <ele>2108.037</ele>
        <time>2019-05-30T08:14:30Z</time>
      </trkpt>
      <trkpt lat="42.514224" lon="1.989200">
        <ele>2108.252</ele>
        <time>2019-05-30T08:14:31Z</time>
      </trkpt>
      <trkpt lat="42.514117" lon="1.989228">
        <ele>2109.278</ele>
        <time>2019-05-30T08:14:39Z</time>
      </trkpt>
      <trkpt lat="42.514038" lon="1.989271">
        <ele>2110.033</ele>
        <time>2019-05-30T08:14:46Z</time>
      </trkpt>
      <trkpt lat="42.514016" lon="1.989283">
        <ele>2110.426</ele>
        <time>2019-05-30T08:14:48Z</time>
      </trkpt>
      <trkpt lat="42.513964" lon="1.989311">
        <ele>2111.408</ele>
        <time>2019-05-30T08:14:53Z</time>
      </trkpt>
      <trkpt lat="42.513952" lon="1.989316">
        <ele>2111.680</ele>
        <time>2019-05-30T08:14:54Z</time>
      </trkpt>
      <trkpt lat="42.513918" lon="1.989337">
        <ele>2112.434</ele>
        <time>2019-05-30T08:14:57Z</time>
      </trkpt>
      <trkpt lat="42.513871" lon="1.989364">
        <ele>2112.060</ele>
        <time>2019-05-30T08:15:01Z</time>
      </trkpt>
      <trkpt lat="42.513792" lon="1.989402">
        <ele>2112.848</ele>
        <time>2019-05-30T08:15:08Z</time>
      </trkpt>
      <trkpt lat="42.513780" lon="1.989404">
        <ele>2112.831</ele>
        <time>2019-05-30T08:15:09Z</time>
      </trkpt>
      <trkpt lat="42.513698" lon="1.989414">
        <ele>2113.485</ele>
        <time>2019-05-30T08:15:15Z</time>
      </trkpt>
      <trkpt lat="42.513685" lon="1.989418">
        <ele>2113.673</ele>
        <time>2019-05-30T08:15:16Z</time>
      </trkpt>
      <trkpt lat="42.513597" lon="1.989441">
        <ele>2114.498</ele>
        <time>2019-05-30T08:15:22Z</time>
      </trkpt>
      <trkpt lat="42.513543" lon="1.989463">
        <ele>2114.652</ele>
        <time>2019-05-30T08:15:25Z</time>
      </trkpt>
      <trkpt lat="42.513454" lon="1.989491">
        <ele>2115.853</ele>
        <time>2019-05-30T08:15:31Z</time>
      </trkpt>
      <trkpt lat="42.513442" lon="1.989502">
        <ele>2116.008</ele>
        <time>2019-05-30T08:15:32Z</time>
      </trkpt>
      <trkpt lat="42.513412" lon="1.989555">
        <ele>2116.408</ele>
        <time>2019-05-30T08:15:36Z</time>
      </trkpt>
      <trkpt lat="42.513409" lon="1.989598">
        <ele>2116.818</ele>
        <time>2019-05-30T08:15:38Z</time>
      </trkpt>
      <trkpt lat="42.513413" lon="1.989638">
        <ele>2117.412</ele>
        <time>2019-05-30T08:15:40Z</time>
      </trkpt>
      <trkpt lat="42.513457" lon="1.989735">
        <ele>2117.418</ele>
        <time>2019-05-30T08:15:46Z</time>
      </trkpt>
      <trkpt lat="42.513502" lon="1.989807">
        <ele>2117.876</ele>
        <time>2019-05-30T08:15:51Z</time>
      </trkpt>
      <trkpt lat="42.513539" lon="1.989860">
        <ele>2118.829</ele>
        <time>2019-05-30T08:15:55Z</time>
      </trkpt>
      <trkpt lat="42.513561" lon="1.989896">
        <ele>2119.293</ele>
        <time>2019-05-30T08:15:58Z</time>
      </trkpt>
      <trkpt lat="42.513596" lon="1.989948">
        <ele>2119.211</ele>
        <time>2019-05-30T08:16:02Z</time>
      </trkpt>
      <trkpt lat="42.513653" lon="1.990025">
        <ele>2120.296</ele>
        <time>2019-05-30T08:16:08Z</time>
      </trkpt>
      <trkpt lat="42.513661" lon="1.990037">
        <ele>2120.222</ele>
        <time>2019-05-30T08:16:09Z</time>
      </trkpt>
      <trkpt lat="42.513725" lon="1.990111">
        <ele>2121.662</ele>
        <time>2019-05-30T08:16:15Z</time>
      </trkpt>
      <trkpt lat="42.513732" lon="1.990125">
        <ele>2121.608</ele>
        <time>2019-05-30T08:16:16Z</time>
      </trkpt>
      <trkpt lat="42.513798" lon="1.990203">
        <ele>2122.608</ele>
        <time>2019-05-30T08:16:23Z</time>
      </trkpt>
      <trkpt lat="42.513807" lon="1.990218">
        <ele>2122.885</ele>
        <time>2019-05-30T08:16:24Z</time>
      </trkpt>
      <trkpt lat="42.513831" lon="1.990262">
        <ele>2123.229</ele>
        <time>2019-05-30T08:16:27Z</time>
      </trkpt>
      <trkpt lat="42.513846" lon="1.990305">
        <ele>2123.065</ele>
        <time>2019-05-30T08:16:30Z</time>
      </trkpt>
      <trkpt lat="42.513867" lon="1.990343">
        <ele>2123.813</ele>
        <time>2019-05-30T08:16:33Z</time>
      </trkpt>
      <trkpt lat="42.513902" lon="1.990415">
        <ele>2124.456</ele>
        <time>2019-05-30T08:16:38Z</time>
      </trkpt>
      <trkpt lat="42.513930" lon="1.990499">
        <ele>2125.090</ele>
        <time>2019-05-30T08:16:44Z</time>
      </trkpt>
      <trkpt lat="42.513933" lon="1.990535">
        <ele>2125.258</ele>
        <time>2019-05-30T08:16:46Z</time>
      </trkpt>
      <trkpt lat="42.513925" lon="1.990571">
        <ele>2125.673</ele>
        <time>2019-05-30T08:16:48Z</time>
      </trkpt>
      <trkpt lat="42.513891" lon="1.990603">
        <ele>2125.822</ele>
        <time>2019-05-30T08:16:51Z</time>
      </trkpt>
      <trkpt lat="42.513852" lon="1.990611">
        <ele>2126.062</ele>
        <time>2019-05-30T08:16:54Z</time>
      </trkpt>
      <trkpt lat="42.513842" lon="1.990612">
        <ele>2126.208</ele>
        <time>2019-05-30T08:16:55Z</time>
      </trkpt>
      <trkpt lat="42.513805" lon="1.990628">
        <ele>2126.208</ele>
        <time>2019-05-30T08:16:58Z</time>
      </trkpt>
      <trkpt lat="42.513773" lon="1.990659">
        <ele>2126.635</ele>
        <time>2019-05-30T08:17:01Z</time>
      </trkpt>
      <trkpt lat="42.513735" lon="1.990678">
        <ele>2126.499</ele>
        <time>2019-05-30T08:17:04Z</time>
      </trkpt>
      <trkpt lat="42.513726" lon="1.990720">
        <ele>2127.215</ele>
        <time>2019-05-30T08:17:07Z</time>
      </trkpt>
      <trkpt lat="42.513185" lon="1.990537">
        <ele>2132.413</ele>
        <time>2019-05-30T08:20:42Z</time>
      </trkpt>
      <trkpt lat="42.513196" lon="1.990523">
        <ele>2131.426</ele>
        <time>2019-05-30T08:20:44Z</time>
      </trkpt>
      <trkpt lat="42.513204" lon="1.990519">
        <ele>2130.480</ele>
        <time>2019-05-30T08:20:45Z</time>
      </trkpt>
      <trkpt lat="42.513211" lon="1.990518">
        <ele>2129.238</ele>
        <time>2019-05-30T08:20:47Z</time>
      </trkpt>
      <trkpt lat="42.513409" lon="1.990498">
        <ele>2126.223</ele>
        <time>2019-05-30T08:21:25Z</time>
      </trkpt>
      <trkpt lat="42.513466" lon="1.990466">
        <ele>2124.883</ele>
        <time>2019-05-30T08:21:28Z</time>
      </trkpt>
      <trkpt lat="42.513483" lon="1.990462">
        <ele>2124.825</ele>
        <time>2019-05-30T08:21:29Z</time>
      </trkpt>
      <trkpt lat="42.513504" lon="1.990461">
        <ele>2124.817</ele>
        <time>2019-05-30T08:21:30Z</time>
      </trkpt>
      <trkpt lat="42.513599" lon="1.990401">
        <ele>2123.808</ele>
        <time>2019-05-30T08:21:34Z</time>
      </trkpt>
      <trkpt lat="42.513616" lon="1.990377">
        <ele>2123.691</ele>
        <time>2019-05-30T08:21:35Z</time>
      </trkpt>
      <trkpt lat="42.513698" lon="1.990292">
        <ele>2123.095</ele>
        <time>2019-05-30T08:21:39Z</time>
      </trkpt>
      <trkpt lat="42.513746" lon="1.990232">
        <ele>2122.491</ele>
        <time>2019-05-30T08:21:42Z</time>
      </trkpt>
      <trkpt lat="42.513754" lon="1.990207">
        <ele>2122.019</ele>
        <time>2019-05-30T08:21:43Z</time>
      </trkpt>
      <trkpt lat="42.513751" lon="1.990177">
        <ele>2122.032</ele>
        <time>2019-05-30T08:21:44Z</time>
      </trkpt>
      <trkpt lat="42.513709" lon="1.990089">
        <ele>2121.846</ele>
        <time>2019-05-30T08:21:47Z</time>
      </trkpt>
      <trkpt lat="42.513688" lon="1.990059">
        <ele>2121.294</ele>
        <time>2019-05-30T08:21:48Z</time>
      </trkpt>
      <trkpt lat="42.513666" lon="1.990025">
        <ele>2121.079</ele>
        <time>2019-05-30T08:21:49Z</time>
      </trkpt>
      <trkpt lat="42.513596" lon="1.989900">
        <ele>2119.855</ele>
        <time>2019-05-30T08:21:53Z</time>
      </trkpt>
      <trkpt lat="42.513578" lon="1.989875">
        <ele>2119.007</ele>
        <time>2019-05-30T08:21:54Z</time>
      </trkpt>
      <trkpt lat="42.513557" lon="1.989848">
        <ele>2118.617</ele>
        <time>2019-05-30T08:21:55Z</time>
      </trkpt>
      <trkpt lat="42.513458" lon="1.989700">
        <ele>2118.608</ele>
        <time>2019-05-30T08:22:00Z</time>
      </trkpt>
      <trkpt lat="42.513413" lon="1.989590">
        <ele>2117.498</ele>
        <time>2019-05-30T08:22:04Z</time>
      </trkpt>
      <trkpt lat="42.513412" lon="1.989558">
        <ele>2116.862</ele>
        <time>2019-05-30T08:22:05Z</time>
      </trkpt>
      <trkpt lat="42.513433" lon="1.989510">
        <ele>2116.078</ele>
        <time>2019-05-30T08:22:07Z</time>
      </trkpt>
      <trkpt lat="42.513474" lon="1.989487">
        <ele>2115.416</ele>
        <time>2019-05-30T08:22:09Z</time>
      </trkpt>
      <trkpt lat="42.513525" lon="1.989459">
        <ele>2114.649</ele>
        <time>2019-05-30T08:22:11Z</time>
      </trkpt>
      <trkpt lat="42.513606" lon="1.989418">
        <ele>2113.223</ele>
        <time>2019-05-30T08:22:14Z</time>
      </trkpt>
      <trkpt lat="42.513634" lon="1.989399">
        <ele>2113.211</ele>
        <time>2019-05-30T08:22:15Z</time>
      </trkpt>
      <trkpt lat="42.513722" lon="1.989362">
        <ele>2112.096</ele>
        <time>2019-05-30T08:22:18Z</time>
      </trkpt>
      <trkpt lat="42.513789" lon="1.989337">
        <ele>2111.661</ele>
        <time>2019-05-30T08:22:20Z</time>
      </trkpt>
      <trkpt lat="42.513856" lon="1.989319">
        <ele>2110.621</ele>
        <time>2019-05-30T08:22:22Z</time>
      </trkpt>
      <trkpt lat="42.513977" lon="1.989260">
        <ele>2109.213</ele>
        <time>2019-05-30T08:22:26Z</time>
      </trkpt>
      <trkpt lat="42.514006" lon="1.989247">
        <ele>2108.808</ele>
        <time>2019-05-30T08:22:27Z</time>
      </trkpt>
      <trkpt lat="42.514148" lon="1.989211">
        <ele>2108.219</ele>
        <time>2019-05-30T08:22:31Z</time>
      </trkpt>
      <trkpt lat="42.514181" lon="1.989199">
        <ele>2107.683</ele>
        <time>2019-05-30T08:22:32Z</time>
      </trkpt>
      <trkpt lat="42.514252" lon="1.989184">
        <ele>2106.699</ele>
        <time>2019-05-30T08:22:34Z</time>
      </trkpt>
      <trkpt lat="42.514410" lon="1.989134">
        <ele>2106.887</ele>
        <time>2019-05-30T08:22:39Z</time>
      </trkpt>
      <trkpt lat="42.514463" lon="1.989072">
        <ele>2105.640</ele>
        <time>2019-05-30T08:22:42Z</time>
      </trkpt>
      <trkpt lat="42.514449" lon="1.989002">
        <ele>2105.484</ele>
        <time>2019-05-30T08:22:44Z</time>
      </trkpt>
      <trkpt lat="42.514340" lon="1.988886">
        <ele>2104.622</ele>
        <time>2019-05-30T08:22:48Z</time>
      </trkpt>
      <trkpt lat="42.514310" lon="1.988858">
        <ele>2104.637</ele>
        <time>2019-05-30T08:22:49Z</time>
      </trkpt>
      <trkpt lat="42.514153" lon="1.988702">
        <ele>2103.884</ele>
        <time>2019-05-30T08:22:55Z</time>
      </trkpt>
      <trkpt lat="42.514128" lon="1.988680">
        <ele>2103.407</ele>
        <time>2019-05-30T08:22:56Z</time>
      </trkpt>
      <trkpt lat="42.514051" lon="1.988603">
        <ele>2102.217</ele>
        <time>2019-05-30T08:22:59Z</time>
      </trkpt>
      <trkpt lat="42.514028" lon="1.988581">
        <ele>2102.008</ele>
        <time>2019-05-30T08:23:00Z</time>
      </trkpt>
      <trkpt lat="42.513955" lon="1.988528">
        <ele>2101.881</ele>
        <time>2019-05-30T08:23:03Z</time>
      </trkpt>
      <trkpt lat="42.513907" lon="1.988511">
        <ele>2101.235</ele>
        <time>2019-05-30T08:23:05Z</time>
      </trkpt>
      <trkpt lat="42.513888" lon="1.988490">
        <ele>2100.871</ele>
        <time>2019-05-30T08:23:06Z</time>
      </trkpt>
      <trkpt lat="42.513856" lon="1.988436">
        <ele>2100.019</ele>
        <time>2019-05-30T08:23:08Z</time>
      </trkpt>
      <trkpt lat="42.513834" lon="1.988374">
        <ele>2099.242</ele>
        <time>2019-05-30T08:23:10Z</time>
      </trkpt>
      <trkpt lat="42.513855" lon="1.988311">
        <ele>2097.876</ele>
        <time>2019-05-30T08:23:12Z</time>
      </trkpt>
      <trkpt lat="42.513875" lon="1.988294">
        <ele>2097.414</ele>
        <time>2019-05-30T08:23:13Z</time>
      </trkpt>
      <trkpt lat="42.513919" lon="1.988263">
        <ele>2096.829</ele>
        <time>2019-05-30T08:23:15Z</time>
      </trkpt>
      <trkpt lat="42.513945" lon="1.988250">
        <ele>2096.873</ele>
        <time>2019-05-30T08:23:16Z</time>
      </trkpt>
      <trkpt lat="42.514049" lon="1.988207">
        <ele>2096.485</ele>
        <time>2019-05-30T08:23:20Z</time>
      </trkpt>
      <trkpt lat="42.514150" lon="1.988161">
        <ele>2095.413</ele>
        <time>2019-05-30T08:23:24Z</time>
      </trkpt>
      <trkpt lat="42.514176" lon="1.988147">
        <ele>2095.208</ele>
        <time>2019-05-30T08:23:25Z</time>
      </trkpt>
      <trkpt lat="42.514229" lon="1.988122">
        <ele>2094.470</ele>
        <time>2019-05-30T08:23:27Z</time>
      </trkpt>
      <trkpt lat="42.514353" lon="1.988074">
        <ele>2093.624</ele>
        <time>2019-05-30T08:23:31Z</time>
      </trkpt>
      <trkpt lat="42.514382" lon="1.988062">
        <ele>2093.410</ele>
        <time>2019-05-30T08:23:32Z</time>
      </trkpt>
      <trkpt lat="42.514555" lon="1.987974">
        <ele>2092.468</ele>
        <time>2019-05-30T08:23:38Z</time>
      </trkpt>
      <trkpt lat="42.514613" lon="1.987961">
        <ele>2092.051</ele>
        <time>2019-05-30T08:23:40Z</time>
      </trkpt>
      <trkpt lat="42.514723" lon="1.987926">
        <ele>2091.095</ele>
        <time>2019-05-30T08:23:44Z</time>
      </trkpt>
      <trkpt lat="42.514750" lon="1.987914">
        <ele>2090.863</ele>
        <time>2019-05-30T08:23:45Z</time>
      </trkpt>
      <trkpt lat="42.514801" lon="1.987911">
        <ele>2090.268</ele>
        <time>2019-05-30T08:23:47Z</time>
      </trkpt>
      <trkpt lat="42.514862" lon="1.987901">
        <ele>2090.822</ele>
        <time>2019-05-30T08:23:50Z</time>
      </trkpt>
      <trkpt lat="42.514995" lon="1.987890">
        <ele>2090.262</ele>
        <time>2019-05-30T08:23:55Z</time>
      </trkpt>
      <trkpt lat="42.515027" lon="1.987886">
        <ele>2089.808</ele>
        <time>2019-05-30T08:23:56Z</time>
      </trkpt>
      <trkpt lat="42.515088" lon="1.987880">
        <ele>2088.408</ele>
        <time>2019-05-30T08:23:58Z</time>
      </trkpt>
      <trkpt lat="42.515157" lon="1.987876">
        <ele>2087.215</ele>
        <time>2019-05-30T08:24:00Z</time>
      </trkpt>
      <trkpt lat="42.515194" lon="1.987873">
        <ele>2087.229</ele>
        <time>2019-05-30T08:24:01Z</time>
      </trkpt>
      <trkpt lat="42.515418" lon="1.987805">
        <ele>2087.475</ele>
        <time>2019-05-30T08:24:07Z</time>
      </trkpt>
      <trkpt lat="42.515624" lon="1.987743">
        <ele>2087.043</ele>
        <time>2019-05-30T08:24:13Z</time>
      </trkpt>
      <trkpt lat="42.515776" lon="1.987745">
        <ele>2086.656</ele>
        <time>2019-05-30T08:24:18Z</time>
      </trkpt>
      <trkpt lat="42.515830" lon="1.987741">
        <ele>2086.240</ele>
        <time>2019-05-30T08:24:20Z</time>
      </trkpt>
      <trkpt lat="42.515888" lon="1.987735">
        <ele>2085.428</ele>
        <time>2019-05-30T08:24:23Z</time>
      </trkpt>
      <trkpt lat="42.515931" lon="1.987731">
        <ele>2085.613</ele>
        <time>2019-05-30T08:24:26Z</time>
      </trkpt>
      <trkpt lat="42.515951" lon="1.987692">
        <ele>2084.816</ele>
        <time>2019-05-30T08:24:28Z</time>
      </trkpt>
      <trkpt lat="42.515919" lon="1.987612">
        <ele>2084.476</ele>
        <time>2019-05-30T08:24:32Z</time>
      </trkpt>
      <trkpt lat="42.515852" lon="1.987547">
        <ele>2084.013</ele>
        <time>2019-05-30T08:24:36Z</time>
      </trkpt>
      <trkpt lat="42.515818" lon="1.987514">
        <ele>2084.408</ele>
        <time>2019-05-30T08:24:38Z</time>
      </trkpt>
      <trkpt lat="42.515647" lon="1.987422">
        <ele>2083.854</ele>
        <time>2019-05-30T08:24:46Z</time>
      </trkpt>
      <trkpt lat="42.515504" lon="1.987341">
        <ele>2084.468</ele>
        <time>2019-05-30T08:24:52Z</time>
      </trkpt>
      <trkpt lat="42.515343" lon="1.987250">
        <ele>2083.824</ele>
        <time>2019-05-30T08:24:58Z</time>
      </trkpt>
      <trkpt lat="42.515120" lon="1.987145">
        <ele>2084.232</ele>
        <time>2019-05-30T08:25:06Z</time>
      </trkpt>
      <trkpt lat="42.514948" lon="1.987116">
        <ele>2084.895</ele>
        <time>2019-05-30T08:25:12Z</time>
      </trkpt>
      <trkpt lat="42.514922" lon="1.987115">
        <ele>2085.059</ele>
        <time>2019-05-30T08:25:13Z</time>
      </trkpt>
      <trkpt lat="42.514736" lon="1.987122">
        <ele>2085.617</ele>
        <time>2019-05-30T08:25:20Z</time>
      </trkpt>
      <trkpt lat="42.514598" lon="1.987122">
        <ele>2085.892</ele>
        <time>2019-05-30T08:25:25Z</time>
      </trkpt>
      <trkpt lat="42.514543" lon="1.987113">
        <ele>2085.896</ele>
        <time>2019-05-30T08:25:27Z</time>
      </trkpt>
      <trkpt lat="42.514359" lon="1.987089">
        <ele>2086.031</ele>
        <time>2019-05-30T08:25:34Z</time>
      </trkpt>
      <trkpt lat="42.514167" lon="1.987117">
        <ele>2085.624</ele>
        <time>2019-05-30T08:25:41Z</time>
      </trkpt>
      <trkpt lat="42.513945" lon="1.987157">
        <ele>2084.608</ele>
        <time>2019-05-30T08:25:48Z</time>
      </trkpt>
      <trkpt lat="42.513777" lon="1.987146">
        <ele>2084.842</ele>
        <time>2019-05-30T08:25:54Z</time>
      </trkpt>
      <trkpt lat="42.513573" lon="1.987132">
        <ele>2084.616</ele>
        <time>2019-05-30T08:26:01Z</time>
      </trkpt>
      <trkpt lat="42.513349" lon="1.987144">
        <ele>2084.662</ele>
        <time>2019-05-30T08:26:09Z</time>
      </trkpt>
      <trkpt lat="42.513203" lon="1.987150">
        <ele>2084.250</ele>
        <time>2019-05-30T08:26:14Z</time>
      </trkpt>
      <trkpt lat="42.512984" lon="1.987223">
        <ele>2084.053</ele>
        <time>2019-05-30T08:26:21Z</time>
      </trkpt>
      <trkpt lat="42.512761" lon="1.987286">
        <ele>2084.257</ele>
        <time>2019-05-30T08:26:28Z</time>
      </trkpt>
      <trkpt lat="42.512556" lon="1.987414">
        <ele>2084.885</ele>
        <time>2019-05-30T08:26:36Z</time>
      </trkpt>
      <trkpt lat="42.512493" lon="1.987490">
        <ele>2086.050</ele>
        <time>2019-05-30T08:26:40Z</time>
      </trkpt>
      <trkpt lat="42.512474" lon="1.987531">
        <ele>2086.289</ele>
        <time>2019-05-30T08:26:42Z</time>
      </trkpt>
      <trkpt lat="42.512445" lon="1.987639">
        <ele>2087.006</ele>
        <time>2019-05-30T08:26:48Z</time>
      </trkpt>
      <trkpt lat="42.512400" lon="1.987751">
        <ele>2088.226</ele>
        <time>2019-05-30T08:26:55Z</time>
      </trkpt>
      <trkpt lat="42.512394" lon="1.987770">
        <ele>2088.408</ele>
        <time>2019-05-30T08:26:56Z</time>
      </trkpt>
      <trkpt lat="42.512380" lon="1.987818">
        <ele>2089.271</ele>
        <time>2019-05-30T08:26:59Z</time>
      </trkpt>
      <trkpt lat="42.512354" lon="1.987874">
        <ele>2089.485</ele>
        <time>2019-05-30T08:27:03Z</time>
      </trkpt>
      <trkpt lat="42.512342" lon="1.987906">
        <ele>2090.481</ele>
        <time>2019-05-30T08:27:05Z</time>
      </trkpt>
      <trkpt lat="42.512308" lon="1.987970">
        <ele>2090.889</ele>
        <time>2019-05-30T08:27:09Z</time>
      </trkpt>
      <trkpt lat="42.512265" lon="1.988041">
        <ele>2091.272</ele>
        <time>2019-05-30T08:27:14Z</time>
      </trkpt>
      <trkpt lat="42.512247" lon="1.988078">
        <ele>2091.496</ele>
        <time>2019-05-30T08:27:16Z</time>
      </trkpt>
      <trkpt lat="42.512237" lon="1.988097">
        <ele>2091.454</ele>
        <time>2019-05-30T08:27:17Z</time>
      </trkpt>
      <trkpt lat="42.512182" lon="1.988225">
        <ele>2092.419</ele>
        <time>2019-05-30T08:27:24Z</time>
      </trkpt>
      <trkpt lat="42.512166" lon="1.988255">
        <ele>2092.869</ele>
        <time>2019-05-30T08:27:26Z</time>
      </trkpt>
      <trkpt lat="42.512092" lon="1.988427">
        <ele>2093.604</ele>
        <time>2019-05-30T08:27:35Z</time>
      </trkpt>
      <trkpt lat="42.512028" lon="1.988531">
        <ele>2094.024</ele>
        <time>2019-05-30T08:27:41Z</time>
      </trkpt>
      <trkpt lat="42.511905" lon="1.988676">
        <ele>2093.008</ele>
        <time>2019-05-30T08:27:48Z</time>
      </trkpt>
      <trkpt lat="42.511871" lon="1.988730">
        <ele>2092.689</ele>
        <time>2019-05-30T08:27:50Z</time>
      </trkpt>
      <trkpt lat="42.511774" lon="1.988844">
        <ele>2092.233</ele>
        <time>2019-05-30T08:27:55Z</time>
      </trkpt>
      <trkpt lat="42.511726" lon="1.988912">
        <ele>2091.439</ele>
        <time>2019-05-30T08:27:58Z</time>
      </trkpt>
      <trkpt lat="42.511688" lon="1.988951">
        <ele>2090.647</ele>
        <time>2019-05-30T08:28:00Z</time>
      </trkpt>
      <trkpt lat="42.511670" lon="1.988974">
        <ele>2090.270</ele>
        <time>2019-05-30T08:28:01Z</time>
      </trkpt>
      <trkpt lat="42.511601" lon="1.989077">
        <ele>2089.014</ele>
        <time>2019-05-30T08:28:06Z</time>
      </trkpt>
      <trkpt lat="42.511561" lon="1.989143">
        <ele>2087.632</ele>
        <time>2019-05-30T08:28:09Z</time>
      </trkpt>
      <trkpt lat="42.511522" lon="1.989187">
        <ele>2087.247</ele>
        <time>2019-05-30T08:28:11Z</time>
      </trkpt>
      <trkpt lat="42.511474" lon="1.989227">
        <ele>2086.235</ele>
        <time>2019-05-30T08:28:13Z</time>
      </trkpt>
      <trkpt lat="42.511422" lon="1.989288">
        <ele>2085.286</ele>
        <time>2019-05-30T08:28:16Z</time>
      </trkpt>
      <trkpt lat="42.511412" lon="1.989315">
        <ele>2084.414</ele>
        <time>2019-05-30T08:28:17Z</time>
      </trkpt>
      <trkpt lat="42.511383" lon="1.989393">
        <ele>2083.408</ele>
        <time>2019-05-30T08:28:20Z</time>
      </trkpt>
      <trkpt lat="42.511374" lon="1.989417">
        <ele>2083.486</ele>
        <time>2019-05-30T08:28:21Z</time>
      </trkpt>
      <trkpt lat="42.511349" lon="1.989509">
        <ele>2082.470</ele>
        <time>2019-05-30T08:28:25Z</time>
      </trkpt>
      <trkpt lat="42.511339" lon="1.989548">
        <ele>2081.816</ele>
        <time>2019-05-30T08:28:27Z</time>
      </trkpt>
      <trkpt lat="42.511321" lon="1.989597">
        <ele>2081.034</ele>
        <time>2019-05-30T08:28:30Z</time>
      </trkpt>
      <trkpt lat="42.511316" lon="1.989612">
        <ele>2081.027</ele>
        <time>2019-05-30T08:28:33Z</time>
      </trkpt>
      <trkpt lat="42.511291" lon="1.989707">
        <ele>2080.051</ele>
        <time>2019-05-30T08:28:40Z</time>
      </trkpt>
      <trkpt lat="42.511288" lon="1.989734">
        <ele>2079.419</ele>
        <time>2019-05-30T08:28:41Z</time>
      </trkpt>
      <trkpt lat="42.511283" lon="1.989754">
        <ele>2079.234</ele>
        <time>2019-05-30T08:28:42Z</time>
      </trkpt>
      <trkpt lat="42.511272" lon="1.989829">
        <ele>2079.258</ele>
        <time>2019-05-30T08:28:45Z</time>
      </trkpt>
      <trkpt lat="42.511252" lon="1.989931">
        <ele>2078.652</ele>
        <time>2019-05-30T08:28:49Z</time>
      </trkpt>
      <trkpt lat="42.511240" lon="1.989987">
        <ele>2078.417</ele>
        <time>2019-05-30T08:28:51Z</time>
      </trkpt>
      <trkpt lat="42.511216" lon="1.990125">
        <ele>2077.808</ele>
        <time>2019-05-30T08:28:56Z</time>
      </trkpt>
      <trkpt lat="42.511202" lon="1.990216">
        <ele>2077.258</ele>
        <time>2019-05-30T08:28:59Z</time>
      </trkpt>
      <trkpt lat="42.511176" lon="1.990385">
        <ele>2076.882</ele>
        <time>2019-05-30T08:29:04Z</time>
      </trkpt>
      <trkpt lat="42.511177" lon="1.990462">
        <ele>2076.038</ele>
        <time>2019-05-30T08:29:06Z</time>
      </trkpt>
      <trkpt lat="42.511193" lon="1.990609">
        <ele>2076.496</ele>
        <time>2019-05-30T08:29:11Z</time>
      </trkpt>
      <trkpt lat="42.511193" lon="1.990826">
        <ele>2075.429</ele>
        <time>2019-05-30T08:29:19Z</time>
      </trkpt>
      <trkpt lat="42.511150" lon="1.990919">
        <ele>2074.883</ele>
        <time>2019-05-30T08:29:23Z</time>
      </trkpt>
      <trkpt lat="42.511118" lon="1.990964">
        <ele>2074.481</ele>
        <time>2019-05-30T08:29:25Z</time>
      </trkpt>
      <trkpt lat="42.511089" lon="1.991011">
        <ele>2073.696</ele>
        <time>2019-05-30T08:29:27Z</time>
      </trkpt>
      <trkpt lat="42.511057" lon="1.991054">
        <ele>2072.236</ele>
        <time>2019-05-30T08:29:29Z</time>
      </trkpt>
      <trkpt lat="42.511023" lon="1.991096">
        <ele>2071.417</ele>
        <time>2019-05-30T08:29:31Z</time>
      </trkpt>
      <trkpt lat="42.511005" lon="1.991125">
        <ele>2071.018</ele>
        <time>2019-05-30T08:29:32Z</time>
      </trkpt>
      <trkpt lat="42.510971" lon="1.991214">
        <ele>2070.008</ele>
        <time>2019-05-30T08:29:35Z</time>
      </trkpt>
      <trkpt lat="42.510958" lon="1.991244">
        <ele>2069.676</ele>
        <time>2019-05-30T08:29:36Z</time>
      </trkpt>
      <trkpt lat="42.510930" lon="1.991385">
        <ele>2068.830</ele>
        <time>2019-05-30T08:29:40Z</time>
      </trkpt>
      <trkpt lat="42.510918" lon="1.991456">
        <ele>2069.086</ele>
        <time>2019-05-30T08:29:42Z</time>
      </trkpt>
      <trkpt lat="42.510906" lon="1.991631">
        <ele>2067.694</ele>
        <time>2019-05-30T08:29:47Z</time>
      </trkpt>
      <trkpt lat="42.510904" lon="1.991670">
        <ele>2067.297</ele>
        <time>2019-05-30T08:29:48Z</time>
      </trkpt>
      <trkpt lat="42.510902" lon="1.991774">
        <ele>2066.241</ele>
        <time>2019-05-30T08:29:51Z</time>
      </trkpt>
      <trkpt lat="42.510899" lon="1.991870">
        <ele>2065.459</ele>
        <time>2019-05-30T08:29:54Z</time>
      </trkpt>
      <trkpt lat="42.510901" lon="1.991903">
        <ele>2065.224</ele>
        <time>2019-05-30T08:29:55Z</time>
      </trkpt>
      <trkpt lat="42.510896" lon="1.992013">
        <ele>2064.068</ele>
        <time>2019-05-30T08:29:58Z</time>
      </trkpt>
      <trkpt lat="42.510888" lon="1.992093">
        <ele>2062.642</ele>
        <time>2019-05-30T08:30:00Z</time>
      </trkpt>
      <trkpt lat="42.510885" lon="1.992135">
        <ele>2061.826</ele>
        <time>2019-05-30T08:30:01Z</time>
      </trkpt>
      <trkpt lat="42.510881" lon="1.992181">
        <ele>2061.208</ele>
        <time>2019-05-30T08:30:02Z</time>
      </trkpt>
      <trkpt lat="42.510876" lon="1.992268">
        <ele>2059.679</ele>
        <time>2019-05-30T08:30:04Z</time>
      </trkpt>
      <trkpt lat="42.510877" lon="1.992361">
        <ele>2057.643</ele>
        <time>2019-05-30T08:30:06Z</time>
      </trkpt>
      <trkpt lat="42.510872" lon="1.992459">
        <ele>2056.479</ele>
        <time>2019-05-30T08:30:08Z</time>
      </trkpt>
      <trkpt lat="42.510872" lon="1.992553">
        <ele>2055.497</ele>
        <time>2019-05-30T08:30:10Z</time>
      </trkpt>
      <trkpt lat="42.510876" lon="1.992644">
        <ele>2054.260</ele>
        <time>2019-05-30T08:30:12Z</time>
      </trkpt>
      <trkpt lat="42.510873" lon="1.992688">
        <ele>2053.874</ele>
        <time>2019-05-30T08:30:13Z</time>
      </trkpt>
      <trkpt lat="42.510872" lon="1.992732">
        <ele>2053.292</ele>
        <time>2019-05-30T08:30:14Z</time>
      </trkpt>
      <trkpt lat="42.510871" lon="1.992865">
        <ele>2051.417</ele>
        <time>2019-05-30T08:30:17Z</time>
      </trkpt>
      <trkpt lat="42.510869" lon="1.993001">
        <ele>2050.047</ele>
        <time>2019-05-30T08:30:20Z</time>
      </trkpt>
      <trkpt lat="42.510863" lon="1.993126">
        <ele>2048.829</ele>
        <time>2019-05-30T08:30:23Z</time>
      </trkpt>
      <trkpt lat="42.510838" lon="1.993246">
        <ele>2047.821</ele>
        <time>2019-05-30T08:30:26Z</time>
      </trkpt>
      <trkpt lat="42.510826" lon="1.993404">
        <ele>2046.608</ele>
        <time>2019-05-30T08:30:30Z</time>
      </trkpt>
      <trkpt lat="42.510825" lon="1.993496">
        <ele>2045.697</ele>
        <time>2019-05-30T08:30:32Z</time>
      </trkpt>
      <trkpt lat="42.510822" lon="1.993636">
        <ele>2044.241</ele>
        <time>2019-05-30T08:30:35Z</time>
      </trkpt>
      <trkpt lat="42.510825" lon="1.993731">
        <ele>2042.867</ele>
        <time>2019-05-30T08:30:37Z</time>
      </trkpt>
      <trkpt lat="42.510832" lon="1.993828">
        <ele>2041.655</ele>
        <time>2019-05-30T08:30:39Z</time>
      </trkpt>
      <trkpt lat="42.510838" lon="1.993877">
        <ele>2041.248</ele>
        <time>2019-05-30T08:30:40Z</time>
      </trkpt>
      <trkpt lat="42.510847" lon="1.993918">
        <ele>2040.282</ele>
        <time>2019-05-30T08:30:41Z</time>
      </trkpt>
      <trkpt lat="42.510867" lon="1.994016">
        <ele>2039.010</ele>
        <time>2019-05-30T08:30:44Z</time>
      </trkpt>
      <trkpt lat="42.510874" lon="1.994048">
        <ele>2038.835</ele>
        <time>2019-05-30T08:30:45Z</time>
      </trkpt>
      <trkpt lat="42.510890" lon="1.994119">
        <ele>2037.887</ele>
        <time>2019-05-30T08:30:47Z</time>
      </trkpt>
      <trkpt lat="42.510909" lon="1.994177">
        <ele>2036.842</ele>
        <time>2019-05-30T08:30:49Z</time>
      </trkpt>
      <trkpt lat="42.510957" lon="1.994266">
        <ele>2035.826</ele>
        <time>2019-05-30T08:30:52Z</time>
      </trkpt>
      <trkpt lat="42.510970" lon="1.994298">
        <ele>2035.408</ele>
        <time>2019-05-30T08:30:53Z</time>
      </trkpt>
      <trkpt lat="42.510976" lon="1.994380">
        <ele>2034.281</ele>
        <time>2019-05-30T08:30:55Z</time>
      </trkpt>
      <trkpt lat="42.510978" lon="1.994425">
        <ele>2034.045</ele>
        <time>2019-05-30T08:30:56Z</time>
      </trkpt>
      <trkpt lat="42.510979" lon="1.994474">
        <ele>2033.271</ele>
        <time>2019-05-30T08:30:57Z</time>
      </trkpt>
      <trkpt lat="42.510983" lon="1.994573">
        <ele>2031.669</ele>
        <time>2019-05-30T08:30:59Z</time>
      </trkpt>
      <trkpt lat="42.510983" lon="1.994660">
        <ele>2030.032</ele>
        <time>2019-05-30T08:31:01Z</time>
      </trkpt>
      <trkpt lat="42.510990" lon="1.994698">
        <ele>2029.676</ele>
        <time>2019-05-30T08:31:02Z</time>
      </trkpt>
      <trkpt lat="42.510989" lon="1.994768">
        <ele>2028.634</ele>
        <time>2019-05-30T08:31:04Z</time>
      </trkpt>
      <trkpt lat="42.510995" lon="1.994826">
        <ele>2027.699</ele>
        <time>2019-05-30T08:31:06Z</time>
      </trkpt>
      <trkpt lat="42.510996" lon="1.994861">
        <ele>2027.087</ele>
        <time>2019-05-30T08:31:07Z</time>
      </trkpt>
      <trkpt lat="42.511006" lon="1.994935">
        <ele>2026.042</ele>
        <time>2019-05-30T08:31:09Z</time>
      </trkpt>
      <trkpt lat="42.511006" lon="1.995022">
        <ele>2025.026</ele>
        <time>2019-05-30T08:31:11Z</time>
      </trkpt>
      <trkpt lat="42.511008" lon="1.995068">
        <ele>2024.408</ele>
        <time>2019-05-30T08:31:12Z</time>
      </trkpt>
      <trkpt lat="42.511007" lon="1.995119">
        <ele>2023.831</ele>
        <time>2019-05-30T08:31:13Z</time>
      </trkpt>
      <trkpt lat="42.511010" lon="1.995224">
        <ele>2022.225</ele>
        <time>2019-05-30T08:31:15Z</time>
      </trkpt>
      <trkpt lat="42.511015" lon="1.995309">
        <ele>2021.251</ele>
        <time>2019-05-30T08:31:17Z</time>
      </trkpt>
      <trkpt lat="42.511035" lon="1.995465">
        <ele>2019.849</ele>
        <time>2019-05-30T08:31:21Z</time>
      </trkpt>
      <trkpt lat="42.511047" lon="1.995538">
        <ele>2018.422</ele>
        <time>2019-05-30T08:31:23Z</time>
      </trkpt>
      <trkpt lat="42.511053" lon="1.995565">
        <ele>2018.076</ele>
        <time>2019-05-30T08:31:24Z</time>
      </trkpt>
      <trkpt lat="42.511071" lon="1.995640">
        <ele>2017.614</ele>
        <time>2019-05-30T08:31:27Z</time>
      </trkpt>
      <trkpt lat="42.511074" lon="1.995660">
        <ele>2017.469</ele>
        <time>2019-05-30T08:31:28Z</time>
      </trkpt>
      <trkpt lat="42.511084" lon="1.995679">
        <ele>2017.012</ele>
        <time>2019-05-30T08:31:29Z</time>
      </trkpt>
      <trkpt lat="42.511080" lon="1.995747">
        <ele>2016.232</ele>
        <time>2019-05-30T08:31:32Z</time>
      </trkpt>
      <trkpt lat="42.511077" lon="1.995771">
        <ele>2015.605</ele>
        <time>2019-05-30T08:31:33Z</time>
      </trkpt>
      <trkpt lat="42.511072" lon="1.995797">
        <ele>2015.408</ele>
        <time>2019-05-30T08:31:34Z</time>
      </trkpt>
      <trkpt lat="42.511075" lon="1.995824">
        <ele>2014.824</ele>
        <time>2019-05-30T08:31:35Z</time>
      </trkpt>
      <trkpt lat="42.511082" lon="1.995873">
        <ele>2013.628</ele>
        <time>2019-05-30T08:31:37Z</time>
      </trkpt>
      <trkpt lat="42.511071" lon="1.995919">
        <ele>2012.414</ele>
        <time>2019-05-30T08:31:39Z</time>
      </trkpt>
      <trkpt lat="42.511052" lon="1.996036">
        <ele>2011.292</ele>
        <time>2019-05-30T08:31:43Z</time>
      </trkpt>
      <trkpt lat="42.511066" lon="1.996059">
        <ele>2010.665</ele>
        <time>2019-05-30T08:31:44Z</time>
      </trkpt>
      <trkpt lat="42.511080" lon="1.996089">
        <ele>2010.089</ele>
        <time>2019-05-30T08:31:45Z</time>
      </trkpt>
      <trkpt lat="42.511147" lon="1.996219">
        <ele>2009.287</ele>
        <time>2019-05-30T08:31:48Z</time>
      </trkpt>
      <trkpt lat="42.511178" lon="1.996272">
        <ele>2008.022</ele>
        <time>2019-05-30T08:31:49Z</time>
      </trkpt>
      <trkpt lat="42.511245" lon="1.996365">
        <ele>2007.038</ele>
        <time>2019-05-30T08:31:51Z</time>
      </trkpt>
      <trkpt lat="42.511318" lon="1.996464">
        <ele>2006.470</ele>
        <time>2019-05-30T08:31:53Z</time>
      </trkpt>
      <trkpt lat="42.511355" lon="1.996511">
        <ele>2006.217</ele>
        <time>2019-05-30T08:31:54Z</time>
      </trkpt>
      <trkpt lat="42.511393" lon="1.996554">
        <ele>2005.408</ele>
        <time>2019-05-30T08:31:55Z</time>
      </trkpt>
      <trkpt lat="42.511531" lon="1.996740">
        <ele>2004.686</ele>
        <time>2019-05-30T08:31:59Z</time>
      </trkpt>
      <trkpt lat="42.511564" lon="1.996793">
        <ele>2004.210</ele>
        <time>2019-05-30T08:32:00Z</time>
      </trkpt>
      <trkpt lat="42.511694" lon="1.997013">
        <ele>2003.276</ele>
        <time>2019-05-30T08:32:04Z</time>
      </trkpt>
      <trkpt lat="42.511755" lon="1.997146">
        <ele>2002.664</ele>
        <time>2019-05-30T08:32:06Z</time>
      </trkpt>
      <trkpt lat="42.511834" lon="1.997344">
        <ele>2001.477</ele>
        <time>2019-05-30T08:32:09Z</time>
      </trkpt>
      <trkpt lat="42.511888" lon="1.997468">
        <ele>1999.851</ele>
        <time>2019-05-30T08:32:11Z</time>
      </trkpt>
      <trkpt lat="42.511915" lon="1.997527">
        <ele>1999.489</ele>
        <time>2019-05-30T08:32:12Z</time>
      </trkpt>
      <trkpt lat="42.512008" lon="1.997793">
        <ele>1998.824</ele>
        <time>2019-05-30T08:32:16Z</time>
      </trkpt>
      <trkpt lat="42.512047" lon="1.997931">
        <ele>1997.297</ele>
        <time>2019-05-30T08:32:18Z</time>
      </trkpt>
      <trkpt lat="42.512061" lon="1.998006">
        <ele>1996.823</ele>
        <time>2019-05-30T08:32:19Z</time>
      </trkpt>
      <trkpt lat="42.512077" lon="1.998081">
        <ele>1996.025</ele>
        <time>2019-05-30T08:32:20Z</time>
      </trkpt>
      <trkpt lat="42.512102" lon="1.998233">
        <ele>1995.808</ele>
        <time>2019-05-30T08:32:22Z</time>
      </trkpt>
      <trkpt lat="42.512133" lon="1.998451">
        <ele>1994.892</ele>
        <time>2019-05-30T08:32:25Z</time>
      </trkpt>
      <trkpt lat="42.512143" lon="1.998524">
        <ele>1993.836</ele>
        <time>2019-05-30T08:32:26Z</time>
      </trkpt>
      <trkpt lat="42.512156" lon="1.998598">
        <ele>1992.832</ele>
        <time>2019-05-30T08:32:27Z</time>
      </trkpt>
      <trkpt lat="42.512190" lon="1.998756">
        <ele>1991.270</ele>
        <time>2019-05-30T08:32:29Z</time>
      </trkpt>
      <trkpt lat="42.512224" lon="1.998918">
        <ele>1989.633</ele>
        <time>2019-05-30T08:32:31Z</time>
      </trkpt>
      <trkpt lat="42.512240" lon="1.999005">
        <ele>1989.047</ele>
        <time>2019-05-30T08:32:32Z</time>
      </trkpt>
      <trkpt lat="42.512256" lon="1.999095">
        <ele>1988.475</ele>
        <time>2019-05-30T08:32:33Z</time>
      </trkpt>
      <trkpt lat="42.512291" lon="1.999283">
        <ele>1986.840</ele>
        <time>2019-05-30T08:32:35Z</time>
      </trkpt>
      <trkpt lat="42.512317" lon="1.999454">
        <ele>1985.477</ele>
        <time>2019-05-30T08:32:37Z</time>
      </trkpt>
      <trkpt lat="42.512329" lon="1.999539">
        <ele>1985.461</ele>
        <time>2019-05-30T08:32:38Z</time>
      </trkpt>
      <trkpt lat="42.512355" lon="1.999897">
        <ele>1985.827</ele>
        <time>2019-05-30T08:32:43Z</time>
      </trkpt>
      <trkpt lat="42.512358" lon="2.000044">
        <ele>1984.208</ele>
        <time>2019-05-30T08:32:45Z</time>
      </trkpt>
      <trkpt lat="42.512352" lon="2.000201">
        <ele>1983.210</ele>
        <time>2019-05-30T08:32:47Z</time>
      </trkpt>
      <trkpt lat="42.512343" lon="2.000342">
        <ele>1982.474</ele>
        <time>2019-05-30T08:32:49Z</time>
      </trkpt>
      <trkpt lat="42.512335" lon="2.000416">
        <ele>1981.890</ele>
        <time>2019-05-30T08:32:50Z</time>
      </trkpt>
      <trkpt lat="42.512321" lon="2.000572">
        <ele>1980.288</ele>
        <time>2019-05-30T08:32:52Z</time>
      </trkpt>
      <trkpt lat="42.512312" lon="2.000650">
        <ele>1979.221</ele>
        <time>2019-05-30T08:32:53Z</time>
      </trkpt>
      <trkpt lat="42.512299" lon="2.000801">
        <ele>1977.455</ele>
        <time>2019-05-30T08:32:55Z</time>
      </trkpt>
      <trkpt lat="42.512285" lon="2.000949">
        <ele>1975.643</ele>
        <time>2019-05-30T08:32:57Z</time>
      </trkpt>
      <trkpt lat="42.512275" lon="2.001100">
        <ele>1973.858</ele>
        <time>2019-05-30T08:32:59Z</time>
      </trkpt>
      <trkpt lat="42.512263" lon="2.001248">
        <ele>1972.094</ele>
        <time>2019-05-30T08:33:01Z</time>
      </trkpt>
      <trkpt lat="42.512251" lon="2.001407">
        <ele>1970.457</ele>
        <time>2019-05-30T08:33:03Z</time>
      </trkpt>
      <trkpt lat="42.512239" lon="2.001581">
        <ele>1969.022</ele>
        <time>2019-05-30T08:33:05Z</time>
      </trkpt>
      <trkpt lat="42.512234" lon="2.001667">
        <ele>1967.408</ele>
        <time>2019-05-30T08:33:06Z</time>
      </trkpt>
      <trkpt lat="42.512229" lon="2.001752">
        <ele>1966.052</ele>
        <time>2019-05-30T08:33:07Z</time>
      </trkpt>
      <trkpt lat="42.512223" lon="2.001837">
        <ele>1964.866</ele>
        <time>2019-05-30T08:33:08Z</time>
      </trkpt>
      <trkpt lat="42.512219" lon="2.001919">
        <ele>1963.632</ele>
        <time>2019-05-30T08:33:09Z</time>
      </trkpt>
      <trkpt lat="42.512210" lon="2.002074">
        <ele>1962.410</ele>
        <time>2019-05-30T08:33:11Z</time>
      </trkpt>
      <trkpt lat="42.512196" lon="2.002223">
        <ele>1960.633</ele>
        <time>2019-05-30T08:33:13Z</time>
      </trkpt>
      <trkpt lat="42.512184" lon="2.002373">
        <ele>1959.047</ele>
        <time>2019-05-30T08:33:15Z</time>
      </trkpt>
      <trkpt lat="42.512181" lon="2.002447">
        <ele>1958.035</ele>
        <time>2019-05-30T08:33:16Z</time>
      </trkpt>
      <trkpt lat="42.512176" lon="2.002528">
        <ele>1957.010</ele>
        <time>2019-05-30T08:33:17Z</time>
      </trkpt>
      <trkpt lat="42.512171" lon="2.002764">
        <ele>1955.863</ele>
        <time>2019-05-30T08:33:20Z</time>
      </trkpt>
      <trkpt lat="42.512175" lon="2.002911">
        <ele>1954.044</ele>
        <time>2019-05-30T08:33:22Z</time>
      </trkpt>
      <trkpt lat="42.512178" lon="2.002980">
        <ele>1952.818</ele>
        <time>2019-05-30T08:33:23Z</time>
      </trkpt>
      <trkpt lat="42.512168" lon="2.003106">
        <ele>1951.008</ele>
        <time>2019-05-30T08:33:25Z</time>
      </trkpt>
      <trkpt lat="42.512159" lon="2.003160">
        <ele>1950.669</ele>
        <time>2019-05-30T08:33:26Z</time>
      </trkpt>
      <trkpt lat="42.512151" lon="2.003209">
        <ele>1950.083</ele>
        <time>2019-05-30T08:33:27Z</time>
      </trkpt>
      <trkpt lat="42.512123" lon="2.003295">
        <ele>1948.459</ele>
        <time>2019-05-30T08:33:29Z</time>
      </trkpt>
      <trkpt lat="42.512102" lon="2.003334">
        <ele>1946.837</ele>
        <time>2019-05-30T08:33:30Z</time>
      </trkpt>
      <trkpt lat="42.512070" lon="2.003352">
        <ele>1946.210</ele>
        <time>2019-05-30T08:33:31Z</time>
      </trkpt>
      <trkpt lat="42.512031" lon="2.003355">
        <ele>1945.634</ele>
        <time>2019-05-30T08:33:32Z</time>
      </trkpt>
      <trkpt lat="42.511946" lon="2.003331">
        <ele>1944.412</ele>
        <time>2019-05-30T08:33:34Z</time>
      </trkpt>
      <trkpt lat="42.511862" lon="2.003290">
        <ele>1943.277</ele>
        <time>2019-05-30T08:33:36Z</time>
      </trkpt>
      <trkpt lat="42.511821" lon="2.003265">
        <ele>1942.638</ele>
        <time>2019-05-30T08:33:37Z</time>
      </trkpt>
      <trkpt lat="42.511781" lon="2.003239">
        <ele>1941.870</ele>
        <time>2019-05-30T08:33:38Z</time>
      </trkpt>
      <trkpt lat="42.511700" lon="2.003186">
        <ele>1940.217</ele>
        <time>2019-05-30T08:33:40Z</time>
      </trkpt>
      <trkpt lat="42.511660" lon="2.003156">
        <ele>1939.608</ele>
        <time>2019-05-30T08:33:41Z</time>
      </trkpt>
      <trkpt lat="42.511623" lon="2.003125">
        <ele>1938.886</ele>
        <time>2019-05-30T08:33:42Z</time>
      </trkpt>
      <trkpt lat="42.511553" lon="2.003066">
        <ele>1937.240</ele>
        <time>2019-05-30T08:33:44Z</time>
      </trkpt>
      <trkpt lat="42.511484" lon="2.003011">
        <ele>1935.866</ele>
        <time>2019-05-30T08:33:46Z</time>
      </trkpt>
      <trkpt lat="42.511419" lon="2.002975">
        <ele>1934.434</ele>
        <time>2019-05-30T08:33:48Z</time>
      </trkpt>
      <trkpt lat="42.511392" lon="2.002976">
        <ele>1933.637</ele>
        <time>2019-05-30T08:33:49Z</time>
      </trkpt>
      <trkpt lat="42.511372" lon="2.002980">
        <ele>1933.091</ele>
        <time>2019-05-30T08:33:50Z</time>
      </trkpt>
      <trkpt lat="42.511361" lon="2.002997">
        <ele>1932.419</ele>
        <time>2019-05-30T08:33:51Z</time>
      </trkpt>
      <trkpt lat="42.511362" lon="2.003000">
        <ele>1932.094</ele>
        <time>2019-05-30T08:33:53Z</time>
      </trkpt>
      <trkpt lat="42.511361" lon="2.003052">
        <ele>1931.641</ele>
        <time>2019-05-30T08:34:01Z</time>
      </trkpt>
      <trkpt lat="42.511371" lon="2.003140">
        <ele>1930.881</ele>
        <time>2019-05-30T08:34:03Z</time>
      </trkpt>
      <trkpt lat="42.511386" lon="2.003188">
        <ele>1930.409</ele>
        <time>2019-05-30T08:34:04Z</time>
      </trkpt>
      <trkpt lat="42.511422" lon="2.003348">
        <ele>1929.208</ele>
        <time>2019-05-30T08:34:07Z</time>
      </trkpt>
      <trkpt lat="42.511436" lon="2.003406">
        <ele>1929.447</ele>
        <time>2019-05-30T08:34:08Z</time>
      </trkpt>
      <trkpt lat="42.511471" lon="2.003523">
        <ele>1928.071</ele>
        <time>2019-05-30T08:34:10Z</time>
      </trkpt>
      <trkpt lat="42.511508" lon="2.003641">
        <ele>1926.857</ele>
        <time>2019-05-30T08:34:12Z</time>
      </trkpt>
      <trkpt lat="42.511573" lon="2.003835">
        <ele>1926.285</ele>
        <time>2019-05-30T08:34:15Z</time>
      </trkpt>
      <trkpt lat="42.511597" lon="2.003906">
        <ele>1925.088</ele>
        <time>2019-05-30T08:34:16Z</time>
      </trkpt>
      <trkpt lat="42.511651" lon="2.004048">
        <ele>1923.862</ele>
        <time>2019-05-30T08:34:18Z</time>
      </trkpt>
      <trkpt lat="42.511742" lon="2.004258">
        <ele>1922.410</ele>
        <time>2019-05-30T08:34:21Z</time>
      </trkpt>
      <trkpt lat="42.511771" lon="2.004325">
        <ele>1921.465</ele>
        <time>2019-05-30T08:34:22Z</time>
      </trkpt>
      <trkpt lat="42.511800" lon="2.004387">
        <ele>1920.837</ele>
        <time>2019-05-30T08:34:23Z</time>
      </trkpt>
      <trkpt lat="42.511852" lon="2.004511">
        <ele>1919.849</ele>
        <time>2019-05-30T08:34:25Z</time>
      </trkpt>
      <trkpt lat="42.511899" lon="2.004638">
        <ele>1918.813</ele>
        <time>2019-05-30T08:34:27Z</time>
      </trkpt>
      <trkpt lat="42.511918" lon="2.004703">
        <ele>1918.608</ele>
        <time>2019-05-30T08:34:28Z</time>
      </trkpt>
      <trkpt lat="42.511941" lon="2.004829">
        <ele>1917.856</ele>
        <time>2019-05-30T08:34:30Z</time>
      </trkpt>
      <trkpt lat="42.511938" lon="2.004895">
        <ele>1917.480</ele>
        <time>2019-05-30T08:34:31Z</time>
      </trkpt>
      <trkpt lat="42.511921" lon="2.004960">
        <ele>1916.876</ele>
        <time>2019-05-30T08:34:32Z</time>
      </trkpt>
      <trkpt lat="42.511901" lon="2.005031">
        <ele>1916.264</ele>
        <time>2019-05-30T08:34:33Z</time>
      </trkpt>
      <trkpt lat="42.511877" lon="2.005112">
        <ele>1915.277</ele>
        <time>2019-05-30T08:34:34Z</time>
      </trkpt>
      <trkpt lat="42.511836" lon="2.005276">
        <ele>1913.621</ele>
        <time>2019-05-30T08:34:36Z</time>
      </trkpt>
      <trkpt lat="42.511815" lon="2.005455">
        <ele>1912.829</ele>
        <time>2019-05-30T08:34:38Z</time>
      </trkpt>
      <trkpt lat="42.511811" lon="2.005527">
        <ele>1912.244</ele>
        <time>2019-05-30T08:34:39Z</time>
      </trkpt>
      <trkpt lat="42.511811" lon="2.005594">
        <ele>1911.241</ele>
        <time>2019-05-30T08:34:40Z</time>
      </trkpt>
      <trkpt lat="42.511817" lon="2.005665">
        <ele>1910.681</ele>
        <time>2019-05-30T08:34:41Z</time>
      </trkpt>
      <trkpt lat="42.511827" lon="2.005733">
        <ele>1909.209</ele>
        <time>2019-05-30T08:34:42Z</time>
      </trkpt>
      <trkpt lat="42.511834" lon="2.005880">
        <ele>1908.208</ele>
        <time>2019-05-30T08:34:44Z</time>
      </trkpt>
      <trkpt lat="42.511818" lon="2.005954">
        <ele>1907.827</ele>
        <time>2019-05-30T08:34:45Z</time>
      </trkpt>
      <trkpt lat="42.511689" lon="2.006054">
        <ele>1908.011</ele>
        <time>2019-05-30T08:34:48Z</time>
      </trkpt>
      <trkpt lat="42.511549" lon="2.005993">
        <ele>1907.277</ele>
        <time>2019-05-30T08:34:51Z</time>
      </trkpt>
      <trkpt lat="42.511518" lon="2.005943">
        <ele>1906.855</ele>
        <time>2019-05-30T08:34:52Z</time>
      </trkpt>
      <trkpt lat="42.511469" lon="2.005821">
        <ele>1906.288</ele>
        <time>2019-05-30T08:34:54Z</time>
      </trkpt>
      <trkpt lat="42.511425" lon="2.005689">
        <ele>1906.042</ele>
        <time>2019-05-30T08:34:56Z</time>
      </trkpt>
      <trkpt lat="42.511402" lon="2.005622">
        <ele>1905.660</ele>
        <time>2019-05-30T08:34:57Z</time>
      </trkpt>
      <trkpt lat="42.511354" lon="2.005486">
        <ele>1904.665</ele>
        <time>2019-05-30T08:34:59Z</time>
      </trkpt>
      <trkpt lat="42.511293" lon="2.005347">
        <ele>1903.044</ele>
        <time>2019-05-30T08:35:01Z</time>
      </trkpt>
      <trkpt lat="42.511228" lon="2.005234">
        <ele>1902.205</ele>
        <time>2019-05-30T08:35:03Z</time>
      </trkpt>
      <trkpt lat="42.511188" lon="2.005182">
        <ele>1901.815</ele>
        <time>2019-05-30T08:35:04Z</time>
      </trkpt>
      <trkpt lat="42.511146" lon="2.005136">
        <ele>1901.608</ele>
        <time>2019-05-30T08:35:05Z</time>
      </trkpt>
      <trkpt lat="42.511058" lon="2.005051">
        <ele>1900.667</ele>
        <time>2019-05-30T08:35:07Z</time>
      </trkpt>
      <trkpt lat="42.510920" lon="2.004927">
        <ele>1899.271</ele>
        <time>2019-05-30T08:35:10Z</time>
      </trkpt>
      <trkpt lat="42.510824" lon="2.004838">
        <ele>1897.887</ele>
        <time>2019-05-30T08:35:12Z</time>
      </trkpt>
      <trkpt lat="42.510691" lon="2.004724">
        <ele>1896.425</ele>
        <time>2019-05-30T08:35:15Z</time>
      </trkpt>
      <trkpt lat="42.510650" lon="2.004674">
        <ele>1895.848</ele>
        <time>2019-05-30T08:35:16Z</time>
      </trkpt>
      <trkpt lat="42.510615" lon="2.004617">
        <ele>1895.052</ele>
        <time>2019-05-30T08:35:17Z</time>
      </trkpt>
      <trkpt lat="42.510530" lon="2.004505">
        <ele>1894.420</ele>
        <time>2019-05-30T08:35:19Z</time>
      </trkpt>
      <trkpt lat="42.510437" lon="2.004418">
        <ele>1893.615</ele>
        <time>2019-05-30T08:35:21Z</time>
      </trkpt>
      <trkpt lat="42.510380" lon="2.004386">
        <ele>1892.822</ele>
        <time>2019-05-30T08:35:22Z</time>
      </trkpt>
      <trkpt lat="42.510326" lon="2.004353">
        <ele>1892.262</ele>
        <time>2019-05-30T08:35:23Z</time>
      </trkpt>
      <trkpt lat="42.510226" lon="2.004269">
        <ele>1891.008</ele>
        <time>2019-05-30T08:35:25Z</time>
      </trkpt>
      <trkpt lat="42.510129" lon="2.004182">
        <ele>1889.808</ele>
        <time>2019-05-30T08:35:27Z</time>
      </trkpt>
      <trkpt lat="42.510076" lon="2.004154">
        <ele>1889.455</ele>
        <time>2019-05-30T08:35:28Z</time>
      </trkpt>
      <trkpt lat="42.510024" lon="2.004136">
        <ele>1888.899</ele>
        <time>2019-05-30T08:35:29Z</time>
      </trkpt>
      <trkpt lat="42.509919" lon="2.004107">
        <ele>1887.475</ele>
        <time>2019-05-30T08:35:31Z</time>
      </trkpt>
      <trkpt lat="42.509869" lon="2.004090">
        <ele>1887.083</ele>
        <time>2019-05-30T08:35:32Z</time>
      </trkpt>
      <trkpt lat="42.509820" lon="2.004070">
        <ele>1886.476</ele>
        <time>2019-05-30T08:35:33Z</time>
      </trkpt>
      <trkpt lat="42.509773" lon="2.004042">
        <ele>1885.830</ele>
        <time>2019-05-30T08:35:34Z</time>
      </trkpt>
      <trkpt lat="42.509678" lon="2.003979">
        <ele>1884.858</ele>
        <time>2019-05-30T08:35:36Z</time>
      </trkpt>
      <trkpt lat="42.509620" lon="2.003955">
        <ele>1884.093</ele>
        <time>2019-05-30T08:35:37Z</time>
      </trkpt>
      <trkpt lat="42.509562" lon="2.003944">
        <ele>1883.283</ele>
        <time>2019-05-30T08:35:38Z</time>
      </trkpt>
      <trkpt lat="42.509446" lon="2.003931">
        <ele>1882.025</ele>
        <time>2019-05-30T08:35:40Z</time>
      </trkpt>
      <trkpt lat="42.509333" lon="2.003907">
        <ele>1880.617</ele>
        <time>2019-05-30T08:35:42Z</time>
      </trkpt>
      <trkpt lat="42.509279" lon="2.003883">
        <ele>1879.808</ele>
        <time>2019-05-30T08:35:43Z</time>
      </trkpt>
      <trkpt lat="42.509219" lon="2.003859">
        <ele>1878.881</ele>
        <time>2019-05-30T08:35:44Z</time>
      </trkpt>
      <trkpt lat="42.509074" lon="2.003798">
        <ele>1877.425</ele>
        <time>2019-05-30T08:35:47Z</time>
      </trkpt>
      <trkpt lat="42.508980" lon="2.003759">
        <ele>1876.281</ele>
        <time>2019-05-30T08:35:49Z</time>
      </trkpt>
      <trkpt lat="42.508892" lon="2.003721">
        <ele>1875.049</ele>
        <time>2019-05-30T08:35:51Z</time>
      </trkpt>
      <trkpt lat="42.508848" lon="2.003707">
        <ele>1874.032</ele>
        <time>2019-05-30T08:35:52Z</time>
      </trkpt>
      <trkpt lat="42.508799" lon="2.003692">
        <ele>1872.686</ele>
        <time>2019-05-30T08:35:53Z</time>
      </trkpt>
      <trkpt lat="42.508754" lon="2.003680">
        <ele>1870.664</ele>
        <time>2019-05-30T08:35:54Z</time>
      </trkpt>
      <trkpt lat="42.508708" lon="2.003665">
        <ele>1869.449</ele>
        <time>2019-05-30T08:35:55Z</time>
      </trkpt>
      <trkpt lat="42.508660" lon="2.003648">
        <ele>1868.234</ele>
        <time>2019-05-30T08:35:56Z</time>
      </trkpt>
      <trkpt lat="42.508615" lon="2.003624">
        <ele>1867.055</ele>
        <time>2019-05-30T08:35:57Z</time>
      </trkpt>
      <trkpt lat="42.508533" lon="2.003566">
        <ele>1865.010</ele>
        <time>2019-05-30T08:35:59Z</time>
      </trkpt>
      <trkpt lat="42.508493" lon="2.003534">
        <ele>1864.008</ele>
        <time>2019-05-30T08:36:00Z</time>
      </trkpt>
      <trkpt lat="42.508456" lon="2.003494">
        <ele>1863.286</ele>
        <time>2019-05-30T08:36:01Z</time>
      </trkpt>
      <trkpt lat="42.508423" lon="2.003463">
        <ele>1862.490</ele>
        <time>2019-05-30T08:36:02Z</time>
      </trkpt>
      <trkpt lat="42.508364" lon="2.003387">
        <ele>1860.626</ele>
        <time>2019-05-30T08:36:04Z</time>
      </trkpt>
      <trkpt lat="42.508317" lon="2.003306">
        <ele>1859.054</ele>
        <time>2019-05-30T08:36:06Z</time>
      </trkpt>
      <trkpt lat="42.508285" lon="2.003233">
        <ele>1857.437</ele>
        <time>2019-05-30T08:36:08Z</time>
      </trkpt>
      <trkpt lat="42.508279" lon="2.003149">
        <ele>1855.861</ele>
        <time>2019-05-30T08:36:10Z</time>
      </trkpt>
      <trkpt lat="42.508319" lon="2.003116">
        <ele>1855.469</ele>
        <time>2019-05-30T08:36:11Z</time>
      </trkpt>
      <trkpt lat="42.508371" lon="2.003093">
        <ele>1854.864</ele>
        <time>2019-05-30T08:36:12Z</time>
      </trkpt>
      <trkpt lat="42.508452" lon="2.003045">
        <ele>1853.897</ele>
        <time>2019-05-30T08:36:14Z</time>
      </trkpt>
      <trkpt lat="42.508463" lon="2.003011">
        <ele>1853.623</ele>
        <time>2019-05-30T08:36:15Z</time>
      </trkpt>
      <trkpt lat="42.508467" lon="2.002925">
        <ele>1853.625</ele>
        <time>2019-05-30T08:36:17Z</time>
      </trkpt>
      <trkpt lat="42.508470" lon="2.002876">
        <ele>1853.408</ele>
        <time>2019-05-30T08:36:18Z</time>
      </trkpt>
      <trkpt lat="42.508464" lon="2.002777">
        <ele>1852.242</ele>
        <time>2019-05-30T08:36:20Z</time>
      </trkpt>
      <trkpt lat="42.508447" lon="2.002680">
        <ele>1850.856</ele>
        <time>2019-05-30T08:36:22Z</time>
      </trkpt>
      <trkpt lat="42.508431" lon="2.002635">
        <ele>1850.242</ele>
        <time>2019-05-30T08:36:23Z</time>
      </trkpt>
      <trkpt lat="42.508416" lon="2.002589">
        <ele>1849.860</ele>
        <time>2019-05-30T08:36:24Z</time>
      </trkpt>
      <trkpt lat="42.508356" lon="2.002439">
        <ele>1848.283</ele>
        <time>2019-05-30T08:36:27Z</time>
      </trkpt>
      <trkpt lat="42.508301" lon="2.002281">
        <ele>1846.837</ele>
        <time>2019-05-30T08:36:30Z</time>
      </trkpt>
      <trkpt lat="42.508286" lon="2.002231">
        <ele>1846.415</ele>
        <time>2019-05-30T08:36:31Z</time>
      </trkpt>
      <trkpt lat="42.508265" lon="2.002185">
        <ele>1846.010</ele>
        <time>2019-05-30T08:36:32Z</time>
      </trkpt>
      <trkpt lat="42.508250" lon="2.002135">
        <ele>1845.471</ele>
        <time>2019-05-30T08:36:33Z</time>
      </trkpt>
      <trkpt lat="42.508213" lon="2.002035">
        <ele>1844.441</ele>
        <time>2019-05-30T08:36:35Z</time>
      </trkpt>
      <trkpt lat="42.508174" lon="2.001943">
        <ele>1843.415</ele>
        <time>2019-05-30T08:36:37Z</time>
      </trkpt>
      <trkpt lat="42.508129" lon="2.001857">
        <ele>1842.408</ele>
        <time>2019-05-30T08:36:39Z</time>
      </trkpt>
      <trkpt lat="42.508099" lon="2.001820">
        <ele>1841.630</ele>
        <time>2019-05-30T08:36:40Z</time>
      </trkpt>
      <trkpt lat="42.508071" lon="2.001777">
        <ele>1841.264</ele>
        <time>2019-05-30T08:36:41Z</time>
      </trkpt>
      <trkpt lat="42.508038" lon="2.001732">
        <ele>1839.870</ele>
        <time>2019-05-30T08:36:42Z</time>
      </trkpt>
      <trkpt lat="42.507974" lon="2.001634">
        <ele>1837.688</ele>
        <time>2019-05-30T08:36:44Z</time>
      </trkpt>
      <trkpt lat="42.507914" lon="2.001531">
        <ele>1836.011</ele>
        <time>2019-05-30T08:36:46Z</time>
      </trkpt>
      <trkpt lat="42.507860" lon="2.001432">
        <ele>1834.225</ele>
        <time>2019-05-30T08:36:48Z</time>
      </trkpt>
      <trkpt lat="42.507832" lon="2.001384">
        <ele>1833.673</ele>
        <time>2019-05-30T08:36:49Z</time>
      </trkpt>
      <trkpt lat="42.507806" lon="2.001336">
        <ele>1832.888</ele>
        <time>2019-05-30T08:36:50Z</time>
      </trkpt>
      <trkpt lat="42.507762" lon="2.001234">
        <ele>1831.672</ele>
        <time>2019-05-30T08:36:52Z</time>
      </trkpt>
      <trkpt lat="42.507724" lon="2.001129">
        <ele>1830.013</ele>
        <time>2019-05-30T08:36:54Z</time>
      </trkpt>
      <trkpt lat="42.507689" lon="2.001017">
        <ele>1828.814</ele>
        <time>2019-05-30T08:36:56Z</time>
      </trkpt>
      <trkpt lat="42.507673" lon="2.000965">
        <ele>1828.008</ele>
        <time>2019-05-30T08:36:57Z</time>
      </trkpt>
      <trkpt lat="42.507653" lon="2.000902">
        <ele>1827.040</ele>
        <time>2019-05-30T08:36:58Z</time>
      </trkpt>
      <trkpt lat="42.507628" lon="2.000842">
        <ele>1826.254</ele>
        <time>2019-05-30T08:36:59Z</time>
      </trkpt>
      <trkpt lat="42.507605" lon="2.000786">
        <ele>1825.480</ele>
        <time>2019-05-30T08:37:00Z</time>
      </trkpt>
      <trkpt lat="42.507560" lon="2.000683">
        <ele>1823.878</ele>
        <time>2019-05-30T08:37:02Z</time>
      </trkpt>
      <trkpt lat="42.507528" lon="2.000572">
        <ele>1822.431</ele>
        <time>2019-05-30T08:37:04Z</time>
      </trkpt>
      <trkpt lat="42.507487" lon="2.000468">
        <ele>1820.095</ele>
        <time>2019-05-30T08:37:06Z</time>
      </trkpt>
      <trkpt lat="42.507422" lon="2.000380">
        <ele>1818.413</ele>
        <time>2019-05-30T08:37:08Z</time>
      </trkpt>
      <trkpt lat="42.507353" lon="2.000298">
        <ele>1816.438</ele>
        <time>2019-05-30T08:37:10Z</time>
      </trkpt>
      <trkpt lat="42.507318" lon="2.000256">
        <ele>1815.632</ele>
        <time>2019-05-30T08:37:11Z</time>
      </trkpt>
      <trkpt lat="42.507285" lon="2.000210">
        <ele>1814.892</ele>
        <time>2019-05-30T08:37:12Z</time>
      </trkpt>
      <trkpt lat="42.507222" lon="2.000109">
        <ele>1812.611</ele>
        <time>2019-05-30T08:37:14Z</time>
      </trkpt>
      <trkpt lat="42.507188" lon="2.000058">
        <ele>1811.408</ele>
        <time>2019-05-30T08:37:15Z</time>
      </trkpt>
      <trkpt lat="42.507154" lon="2.000005">
        <ele>1809.856</ele>
        <time>2019-05-30T08:37:16Z</time>
      </trkpt>
      <trkpt lat="42.507119" lon="1.999948">
        <ele>1808.460</ele>
        <time>2019-05-30T08:37:17Z</time>
      </trkpt>
      <trkpt lat="42.507081" lon="1.999891">
        <ele>1806.846</ele>
        <time>2019-05-30T08:37:18Z</time>
      </trkpt>
      <trkpt lat="42.507042" lon="1.999829">
        <ele>1805.294</ele>
        <time>2019-05-30T08:37:19Z</time>
      </trkpt>
      <trkpt lat="42.506998" lon="1.999770">
        <ele>1804.017</ele>
        <time>2019-05-30T08:37:20Z</time>
      </trkpt>
      <trkpt lat="42.506953" lon="1.999714">
        <ele>1802.651</ele>
        <time>2019-05-30T08:37:21Z</time>
      </trkpt>
      <trkpt lat="42.506902" lon="1.999660">
        <ele>1801.469</ele>
        <time>2019-05-30T08:37:22Z</time>
      </trkpt>
      <trkpt lat="42.506858" lon="1.999601">
        <ele>1799.674</ele>
        <time>2019-05-30T08:37:23Z</time>
      </trkpt>
      <trkpt lat="42.506815" lon="1.999544">
        <ele>1798.447</ele>
        <time>2019-05-30T08:37:24Z</time>
      </trkpt>
      <trkpt lat="42.506774" lon="1.999470">
        <ele>1797.229</ele>
        <time>2019-05-30T08:37:25Z</time>
      </trkpt>
      <trkpt lat="42.506723" lon="1.999394">
        <ele>1796.621</ele>
        <time>2019-05-30T08:37:26Z</time>
      </trkpt>
      <trkpt lat="42.506669" lon="1.999317">
        <ele>1795.408</ele>
        <time>2019-05-30T08:37:27Z</time>
      </trkpt>
      <trkpt lat="42.506612" lon="1.999250">
        <ele>1794.027</ele>
        <time>2019-05-30T08:37:28Z</time>
      </trkpt>
      <trkpt lat="42.506552" lon="1.999187">
        <ele>1792.451</ele>
        <time>2019-05-30T08:37:29Z</time>
      </trkpt>
      <trkpt lat="42.506484" lon="1.999117">
        <ele>1790.227</ele>
        <time>2019-05-30T08:37:30Z</time>
      </trkpt>
      <trkpt lat="42.506424" lon="1.999042">
        <ele>1789.255</ele>
        <time>2019-05-30T08:37:31Z</time>
      </trkpt>
      <trkpt lat="42.506367" lon="1.998969">
        <ele>1788.098</ele>
        <time>2019-05-30T08:37:32Z</time>
      </trkpt>
      <trkpt lat="42.506313" lon="1.998896">
        <ele>1786.612</ele>
        <time>2019-05-30T08:37:33Z</time>
      </trkpt>
      <trkpt lat="42.506215" lon="1.998734">
        <ele>1785.250</ele>
        <time>2019-05-30T08:37:35Z</time>
      </trkpt>
      <trkpt lat="42.506169" lon="1.998641">
        <ele>1784.815</ele>
        <time>2019-05-30T08:37:36Z</time>
      </trkpt>
      <trkpt lat="42.506116" lon="1.998548">
        <ele>1783.814</ele>
        <time>2019-05-30T08:37:37Z</time>
      </trkpt>
      <trkpt lat="42.506000" lon="1.998377">
        <ele>1782.454</ele>
        <time>2019-05-30T08:37:39Z</time>
      </trkpt>
      <trkpt lat="42.505939" lon="1.998291">
        <ele>1781.009</ele>
        <time>2019-05-30T08:37:40Z</time>
      </trkpt>
      <trkpt lat="42.505880" lon="1.998203">
        <ele>1779.408</ele>
        <time>2019-05-30T08:37:41Z</time>
      </trkpt>
      <trkpt lat="42.505782" lon="1.998058">
        <ele>1778.224</ele>
        <time>2019-05-30T08:37:43Z</time>
      </trkpt>
      <trkpt lat="42.505685" lon="1.997933">
        <ele>1777.818</ele>
        <time>2019-05-30T08:37:45Z</time>
      </trkpt>
      <trkpt lat="42.505633" lon="1.997869">
        <ele>1777.284</ele>
        <time>2019-05-30T08:37:46Z</time>
      </trkpt>
      <trkpt lat="42.505341" lon="1.997504">
        <ele>1776.282</ele>
        <time>2019-05-30T08:37:52Z</time>
      </trkpt>
      <trkpt lat="42.505300" lon="1.997441">
        <ele>1775.875</ele>
        <time>2019-05-30T08:37:53Z</time>
      </trkpt>
      <trkpt lat="42.505106" lon="1.997080">
        <ele>1774.699</ele>
        <time>2019-05-30T08:37:58Z</time>
      </trkpt>
      <trkpt lat="42.504986" lon="1.996736">
        <ele>1773.647</ele>
        <time>2019-05-30T08:38:02Z</time>
      </trkpt>
      <trkpt lat="42.504942" lon="1.996572">
        <ele>1773.012</ele>
        <time>2019-05-30T08:38:04Z</time>
      </trkpt>
      <trkpt lat="42.504885" lon="1.996407">
        <ele>1772.418</ele>
        <time>2019-05-30T08:38:06Z</time>
      </trkpt>
      <trkpt lat="42.504813" lon="1.996235">
        <ele>1771.298</ele>
        <time>2019-05-30T08:38:08Z</time>
      </trkpt>
      <trkpt lat="42.504783" lon="1.996158">
        <ele>1770.617</ele>
        <time>2019-05-30T08:38:09Z</time>
      </trkpt>
      <trkpt lat="42.504751" lon="1.996074">
        <ele>1770.208</ele>
        <time>2019-05-30T08:38:10Z</time>
      </trkpt>
      <trkpt lat="42.504730" lon="1.995992">
        <ele>1770.284</ele>
        <time>2019-05-30T08:38:11Z</time>
      </trkpt>
      <trkpt lat="42.504690" lon="1.995778">
        <ele>1770.048</ele>
        <time>2019-05-30T08:38:14Z</time>
      </trkpt>
      <trkpt lat="42.504682" lon="1.995574">
        <ele>1769.614</ele>
        <time>2019-05-30T08:38:18Z</time>
      </trkpt>
      <trkpt lat="42.504664" lon="1.995547">
        <ele>1769.832</ele>
        <time>2019-05-30T08:38:19Z</time>
      </trkpt>
      <trkpt lat="42.504620" lon="1.995573">
        <ele>1769.645</ele>
        <time>2019-05-30T08:38:21Z</time>
      </trkpt>
      <trkpt lat="42.504604" lon="1.995612">
        <ele>1769.079</ele>
        <time>2019-05-30T08:38:22Z</time>
      </trkpt>
      <trkpt lat="42.504589" lon="1.995739">
        <ele>1767.857</ele>
        <time>2019-05-30T08:38:24Z</time>
      </trkpt>
      <trkpt lat="42.504579" lon="1.995810">
        <ele>1766.872</ele>
        <time>2019-05-30T08:38:25Z</time>
      </trkpt>
      <trkpt lat="42.504569" lon="1.995889">
        <ele>1765.895</ele>
        <time>2019-05-30T08:38:26Z</time>
      </trkpt>
      <trkpt lat="42.504564" lon="1.995962">
        <ele>1764.649</ele>
        <time>2019-05-30T08:38:27Z</time>
      </trkpt>
      <trkpt lat="42.504558" lon="1.996108">
        <ele>1763.023</ele>
        <time>2019-05-30T08:38:29Z</time>
      </trkpt>
      <trkpt lat="42.504556" lon="1.996178">
        <ele>1762.608</ele>
        <time>2019-05-30T08:38:30Z</time>
      </trkpt>
      <trkpt lat="42.504558" lon="1.996245">
        <ele>1762.042</ele>
        <time>2019-05-30T08:38:31Z</time>
      </trkpt>
      <trkpt lat="42.504571" lon="1.996377">
        <ele>1761.076</ele>
        <time>2019-05-30T08:38:33Z</time>
      </trkpt>
      <trkpt lat="42.504584" lon="1.996507">
        <ele>1760.092</ele>
        <time>2019-05-30T08:38:35Z</time>
      </trkpt>
      <trkpt lat="42.504583" lon="1.996571">
        <ele>1759.620</ele>
        <time>2019-05-30T08:38:36Z</time>
      </trkpt>
      <trkpt lat="42.504591" lon="1.996766">
        <ele>1758.613</ele>
        <time>2019-05-30T08:38:39Z</time>
      </trkpt>
      <trkpt lat="42.504609" lon="1.996902">
        <ele>1757.047</ele>
        <time>2019-05-30T08:38:41Z</time>
      </trkpt>
      <trkpt lat="42.504619" lon="1.996969">
        <ele>1755.245</ele>
        <time>2019-05-30T08:38:42Z</time>
      </trkpt>
      <trkpt lat="42.504627" lon="1.997036">
        <ele>1755.080</ele>
        <time>2019-05-30T08:38:43Z</time>
      </trkpt>
      <trkpt lat="42.504649" lon="1.997166">
        <ele>1754.246</ele>
        <time>2019-05-30T08:38:45Z</time>
      </trkpt>
      <trkpt lat="42.504690" lon="1.997311">
        <ele>1753.088</ele>
        <time>2019-05-30T08:38:47Z</time>
      </trkpt>
      <trkpt lat="42.504729" lon="1.997442">
        <ele>1751.216</ele>
        <time>2019-05-30T08:38:49Z</time>
      </trkpt>
      <trkpt lat="42.504761" lon="1.997564">
        <ele>1750.008</ele>
        <time>2019-05-30T08:38:51Z</time>
      </trkpt>
      <trkpt lat="42.504808" lon="1.997703">
        <ele>1748.277</ele>
        <time>2019-05-30T08:38:53Z</time>
      </trkpt>
      <trkpt lat="42.504835" lon="1.997764">
        <ele>1747.481</ele>
        <time>2019-05-30T08:38:54Z</time>
      </trkpt>
      <trkpt lat="42.504858" lon="1.997829">
        <ele>1747.037</ele>
        <time>2019-05-30T08:38:55Z</time>
      </trkpt>
      <trkpt lat="42.504923" lon="1.998020">
        <ele>1745.695</ele>
        <time>2019-05-30T08:38:58Z</time>
      </trkpt>
      <trkpt lat="42.504958" lon="1.998142">
        <ele>1744.698</ele>
        <time>2019-05-30T08:39:00Z</time>
      </trkpt>
      <trkpt lat="42.504972" lon="1.998204">
        <ele>1744.082</ele>
        <time>2019-05-30T08:39:01Z</time>
      </trkpt>
      <trkpt lat="42.504979" lon="1.998262">
        <ele>1743.440</ele>
        <time>2019-05-30T08:39:02Z</time>
      </trkpt>
      <trkpt lat="42.504983" lon="1.998369">
        <ele>1741.865</ele>
        <time>2019-05-30T08:39:04Z</time>
      </trkpt>
      <trkpt lat="42.504968" lon="1.998465">
        <ele>1740.058</ele>
        <time>2019-05-30T08:39:06Z</time>
      </trkpt>
      <trkpt lat="42.504916" lon="1.998545">
        <ele>1739.052</ele>
        <time>2019-05-30T08:39:08Z</time>
      </trkpt>
      <trkpt lat="42.504839" lon="1.998598">
        <ele>1737.217</ele>
        <time>2019-05-30T08:39:10Z</time>
      </trkpt>
      <trkpt lat="42.504791" lon="1.998603">
        <ele>1736.208</ele>
        <time>2019-05-30T08:39:11Z</time>
      </trkpt>
      <trkpt lat="42.504737" lon="1.998603">
        <ele>1735.048</ele>
        <time>2019-05-30T08:39:12Z</time>
      </trkpt>
      <trkpt lat="42.504684" lon="1.998601">
        <ele>1734.082</ele>
        <time>2019-05-30T08:39:13Z</time>
      </trkpt>
      <trkpt lat="42.504634" lon="1.998596">
        <ele>1733.248</ele>
        <time>2019-05-30T08:39:14Z</time>
      </trkpt>
      <trkpt lat="42.504580" lon="1.998579">
        <ele>1732.266</ele>
        <time>2019-05-30T08:39:15Z</time>
      </trkpt>
      <trkpt lat="42.504502" lon="1.998503">
        <ele>1731.429</ele>
        <time>2019-05-30T08:39:17Z</time>
      </trkpt>
      <trkpt lat="42.504438" lon="1.998388">
        <ele>1730.863</ele>
        <time>2019-05-30T08:39:19Z</time>
      </trkpt>
      <trkpt lat="42.504375" lon="1.998277">
        <ele>1729.681</ele>
        <time>2019-05-30T08:39:21Z</time>
      </trkpt>
      <trkpt lat="42.504311" lon="1.998159">
        <ele>1728.856</ele>
        <time>2019-05-30T08:39:23Z</time>
      </trkpt>
      <trkpt lat="42.504285" lon="1.998094">
        <ele>1728.236</ele>
        <time>2019-05-30T08:39:24Z</time>
      </trkpt>
      <trkpt lat="42.504235" lon="1.997950">
        <ele>1727.017</ele>
        <time>2019-05-30T08:39:26Z</time>
      </trkpt>
      <trkpt lat="42.504172" lon="1.997728">
        <ele>1725.618</ele>
        <time>2019-05-30T08:39:29Z</time>
      </trkpt>
      <trkpt lat="42.504139" lon="1.997659">
        <ele>1724.408</ele>
        <time>2019-05-30T08:39:30Z</time>
      </trkpt>
      <trkpt lat="42.504062" lon="1.997548">
        <ele>1723.446</ele>
        <time>2019-05-30T08:39:32Z</time>
      </trkpt>
      <trkpt lat="42.503970" lon="1.997473">
        <ele>1722.230</ele>
        <time>2019-05-30T08:39:34Z</time>
      </trkpt>
      <trkpt lat="42.503864" lon="1.997404">
        <ele>1720.676</ele>
        <time>2019-05-30T08:39:36Z</time>
      </trkpt>
      <trkpt lat="42.503760" lon="1.997340">
        <ele>1718.854</ele>
        <time>2019-05-30T08:39:38Z</time>
      </trkpt>
      <trkpt lat="42.503706" lon="1.997306">
        <ele>1717.657</ele>
        <time>2019-05-30T08:39:39Z</time>
      </trkpt>
      <trkpt lat="42.503656" lon="1.997264">
        <ele>1716.611</ele>
        <time>2019-05-30T08:39:40Z</time>
      </trkpt>
      <trkpt lat="42.503565" lon="1.997189">
        <ele>1715.069</ele>
        <time>2019-05-30T08:39:42Z</time>
      </trkpt>
      <trkpt lat="42.503474" lon="1.997100">
        <ele>1713.454</ele>
        <time>2019-05-30T08:39:44Z</time>
      </trkpt>
      <trkpt lat="42.503387" lon="1.996998">
        <ele>1711.488</ele>
        <time>2019-05-30T08:39:46Z</time>
      </trkpt>
      <trkpt lat="42.503347" lon="1.996944">
        <ele>1710.224</ele>
        <time>2019-05-30T08:39:47Z</time>
      </trkpt>
      <trkpt lat="42.503307" lon="1.996894">
        <ele>1709.026</ele>
        <time>2019-05-30T08:39:48Z</time>
      </trkpt>
      <trkpt lat="42.503230" lon="1.996787">
        <ele>1707.808</ele>
        <time>2019-05-30T08:39:50Z</time>
      </trkpt>
      <trkpt lat="42.503196" lon="1.996735">
        <ele>1706.681</ele>
        <time>2019-05-30T08:39:51Z</time>
      </trkpt>
      <trkpt lat="42.503166" lon="1.996691">
        <ele>1705.485</ele>
        <time>2019-05-30T08:39:52Z</time>
      </trkpt>
      <trkpt lat="42.503103" lon="1.996601">
        <ele>1703.481</ele>
        <time>2019-05-30T08:39:54Z</time>
      </trkpt>
      <trkpt lat="42.503048" lon="1.996507">
        <ele>1702.049</ele>
        <time>2019-05-30T08:39:56Z</time>
      </trkpt>
      <trkpt lat="42.503000" lon="1.996423">
        <ele>1700.642</ele>
        <time>2019-05-30T08:39:58Z</time>
      </trkpt>
      <trkpt lat="42.502962" lon="1.996341">
        <ele>1699.256</ele>
        <time>2019-05-30T08:40:00Z</time>
      </trkpt>
      <trkpt lat="42.502942" lon="1.996299">
        <ele>1698.654</ele>
        <time>2019-05-30T08:40:01Z</time>
      </trkpt>
      <trkpt lat="42.502920" lon="1.996260">
        <ele>1698.059</ele>
        <time>2019-05-30T08:40:02Z</time>
      </trkpt>
      <trkpt lat="42.502880" lon="1.996193">
        <ele>1696.847</ele>
        <time>2019-05-30T08:40:04Z</time>
      </trkpt>
      <trkpt lat="42.502842" lon="1.996128">
        <ele>1696.029</ele>
        <time>2019-05-30T08:40:07Z</time>
      </trkpt>
      <trkpt lat="42.502810" lon="1.996067">
        <ele>1695.621</ele>
        <time>2019-05-30T08:40:08Z</time>
      </trkpt>
      <trkpt lat="42.502791" lon="1.996018">
        <ele>1694.208</ele>
        <time>2019-05-30T08:41:08Z</time>
      </trkpt>
      <trkpt lat="42.502771" lon="1.995969">
        <ele>1692.837</ele>
        <time>2019-05-30T08:41:09Z</time>
      </trkpt>
      <trkpt lat="42.502724" lon="1.995851">
        <ele>1691.281</ele>
        <time>2019-05-30T08:41:11Z</time>
      </trkpt>
      <trkpt lat="42.502702" lon="1.995761">
        <ele>1689.837</ele>
        <time>2019-05-30T08:41:13Z</time>
      </trkpt>
      <trkpt lat="42.502691" lon="1.995668">
        <ele>1689.015</ele>
        <time>2019-05-30T08:41:15Z</time>
      </trkpt>
      <trkpt lat="42.502669" lon="1.995460">
        <ele>1688.498</ele>
        <time>2019-05-30T08:41:19Z</time>
      </trkpt>
      <trkpt lat="42.502610" lon="1.995412">
        <ele>1687.442</ele>
        <time>2019-05-30T08:41:22Z</time>
      </trkpt>
      <trkpt lat="42.502582" lon="1.995520">
        <ele>1687.250</ele>
        <time>2019-05-30T08:41:25Z</time>
      </trkpt>
      <trkpt lat="42.502571" lon="1.995754">
        <ele>1686.285</ele>
        <time>2019-05-30T08:41:29Z</time>
      </trkpt>
      <trkpt lat="42.502573" lon="1.995804">
        <ele>1685.463</ele>
        <time>2019-05-30T08:41:30Z</time>
      </trkpt>
      <trkpt lat="42.502553" lon="1.995911">
        <ele>1684.244</ele>
        <time>2019-05-30T08:41:32Z</time>
      </trkpt>
      <trkpt lat="42.502473" lon="1.995971">
        <ele>1683.218</ele>
        <time>2019-05-30T08:41:34Z</time>
      </trkpt>
      <trkpt lat="42.502381" lon="1.995921">
        <ele>1682.008</ele>
        <time>2019-05-30T08:41:36Z</time>
      </trkpt>
      <trkpt lat="42.502351" lon="1.995865">
        <ele>1681.219</ele>
        <time>2019-05-30T08:41:37Z</time>
      </trkpt>
      <trkpt lat="42.502330" lon="1.995797">
        <ele>1680.863</ele>
        <time>2019-05-30T08:41:38Z</time>
      </trkpt>
      <trkpt lat="42.502292" lon="1.995644">
        <ele>1679.869</ele>
        <time>2019-05-30T08:41:40Z</time>
      </trkpt>
      <trkpt lat="42.502232" lon="1.995401">
        <ele>1678.477</ele>
        <time>2019-05-30T08:41:43Z</time>
      </trkpt>
      <trkpt lat="42.502186" lon="1.995214">
        <ele>1676.870</ele>
        <time>2019-05-30T08:41:45Z</time>
      </trkpt>
      <trkpt lat="42.502162" lon="1.995126">
        <ele>1675.624</ele>
        <time>2019-05-30T08:41:46Z</time>
      </trkpt>
      <trkpt lat="42.502137" lon="1.995041">
        <ele>1674.252</ele>
        <time>2019-05-30T08:41:47Z</time>
      </trkpt>
      <trkpt lat="42.502091" lon="1.994855">
        <ele>1672.817</ele>
        <time>2019-05-30T08:41:49Z</time>
      </trkpt>
      <trkpt lat="42.502036" lon="1.994587">
        <ele>1671.647</ele>
        <time>2019-05-30T08:41:52Z</time>
      </trkpt>
      <trkpt lat="42.502019" lon="1.994515">
        <ele>1671.629</ele>
        <time>2019-05-30T08:41:53Z</time>
      </trkpt>
      <trkpt lat="42.501958" lon="1.994262">
        <ele>1670.621</ele>
        <time>2019-05-30T08:41:57Z</time>
      </trkpt>
      <trkpt lat="42.501928" lon="1.994236">
        <ele>1670.408</ele>
        <time>2019-05-30T08:41:58Z</time>
      </trkpt>
      <trkpt lat="42.501849" lon="1.994306">
        <ele>1669.267</ele>
        <time>2019-05-30T08:42:01Z</time>
      </trkpt>
      <trkpt lat="42.501805" lon="1.994524">
        <ele>1667.631</ele>
        <time>2019-05-30T08:42:04Z</time>
      </trkpt>
      <trkpt lat="42.501791" lon="1.994609">
        <ele>1667.087</ele>
        <time>2019-05-30T08:42:05Z</time>
      </trkpt>
      <trkpt lat="42.501777" lon="1.994695">
        <ele>1666.465</ele>
        <time>2019-05-30T08:42:06Z</time>
      </trkpt>
      <trkpt lat="42.501743" lon="1.994866">
        <ele>1665.488</ele>
        <time>2019-05-30T08:42:08Z</time>
      </trkpt>
      <trkpt lat="42.501690" lon="1.995032">
        <ele>1663.412</ele>
        <time>2019-05-30T08:42:10Z</time>
      </trkpt>
      <trkpt lat="42.501658" lon="1.995105">
        <ele>1662.220</ele>
        <time>2019-05-30T08:42:11Z</time>
      </trkpt>
      <trkpt lat="42.501625" lon="1.995177">
        <ele>1661.025</ele>
        <time>2019-05-30T08:42:12Z</time>
      </trkpt>
      <trkpt lat="42.501559" lon="1.995327">
        <ele>1659.653</ele>
        <time>2019-05-30T08:42:14Z</time>
      </trkpt>
      <trkpt lat="42.501535" lon="1.995402">
        <ele>1659.004</ele>
        <time>2019-05-30T08:42:15Z</time>
      </trkpt>
      <trkpt lat="42.501510" lon="1.995465">
        <ele>1658.414</ele>
        <time>2019-05-30T08:42:16Z</time>
      </trkpt>
      <trkpt lat="42.501472" lon="1.995511">
        <ele>1658.008</ele>
        <time>2019-05-30T08:42:17Z</time>
      </trkpt>
      <trkpt lat="42.501428" lon="1.995522">
        <ele>1657.668</ele>
        <time>2019-05-30T08:42:18Z</time>
      </trkpt>
      <trkpt lat="42.501375" lon="1.995503">
        <ele>1657.462</ele>
        <time>2019-05-30T08:42:19Z</time>
      </trkpt>
      <trkpt lat="42.501329" lon="1.995445">
        <ele>1656.848</ele>
        <time>2019-05-30T08:42:20Z</time>
      </trkpt>
      <trkpt lat="42.501317" lon="1.995352">
        <ele>1656.236</ele>
        <time>2019-05-30T08:42:21Z</time>
      </trkpt>
      <trkpt lat="42.501319" lon="1.995260">
        <ele>1655.489</ele>
        <time>2019-05-30T08:42:22Z</time>
      </trkpt>
      <trkpt lat="42.501327" lon="1.995169">
        <ele>1654.873</ele>
        <time>2019-05-30T08:42:23Z</time>
      </trkpt>
      <trkpt lat="42.501356" lon="1.995020">
        <ele>1654.481</ele>
        <time>2019-05-30T08:42:25Z</time>
      </trkpt>
      <trkpt lat="42.501368" lon="1.994986">
        <ele>1654.686</ele>
        <time>2019-05-30T08:42:26Z</time>
      </trkpt>
      <trkpt lat="42.501377" lon="1.994950">
        <ele>1655.243</ele>
        <time>2019-05-30T08:42:28Z</time>
      </trkpt>
      <trkpt lat="42.501365" lon="1.994938">
        <ele>1655.264</ele>
        <time>2019-05-30T08:42:29Z</time>
      </trkpt>
      <trkpt lat="42.501340" lon="1.994988">
        <ele>1655.010</ele>
        <time>2019-05-30T08:42:32Z</time>
      </trkpt>
      <trkpt lat="42.501338" lon="1.995033">
        <ele>1654.408</ele>
        <time>2019-05-30T08:42:34Z</time>
      </trkpt>
      <trkpt lat="42.501335" lon="1.995081">
        <ele>1656.277</ele>
        <time>2019-05-30T08:42:36Z</time>
      </trkpt>
      <trkpt lat="42.501322" lon="1.995136">
        <ele>1654.691</ele>
        <time>2019-05-30T08:42:38Z</time>
      </trkpt>
      <trkpt lat="42.501313" lon="1.995382">
        <ele>1655.277</ele>
        <time>2019-05-30T08:42:45Z</time>
      </trkpt>
      <trkpt lat="42.501359" lon="1.995477">
        <ele>1655.875</ele>
        <time>2019-05-30T08:42:48Z</time>
      </trkpt>
      <trkpt lat="42.501394" lon="1.995536">
        <ele>1656.288</ele>
        <time>2019-05-30T08:42:50Z</time>
      </trkpt>
      <trkpt lat="42.501387" lon="1.995571">
        <ele>1656.422</ele>
        <time>2019-05-30T08:42:51Z</time>
      </trkpt>
      <trkpt lat="42.501332" lon="1.995604">
        <ele>1656.250</ele>
        <time>2019-05-30T08:42:53Z</time>
      </trkpt>
      <trkpt lat="42.501269" lon="1.995607">
        <ele>1654.885</ele>
        <time>2019-05-30T08:42:55Z</time>
      </trkpt>
      <trkpt lat="42.501185" lon="1.995607">
        <ele>1652.644</ele>
        <time>2019-05-30T08:42:57Z</time>
      </trkpt>
      <trkpt lat="42.501120" lon="1.995650">
        <ele>1650.805</ele>
        <time>2019-05-30T08:42:59Z</time>
      </trkpt>
      <trkpt lat="42.501088" lon="1.995717">
        <ele>1649.615</ele>
        <time>2019-05-30T08:43:01Z</time>
      </trkpt>
      <trkpt lat="42.501059" lon="1.995805">
        <ele>1648.608</ele>
        <time>2019-05-30T08:43:04Z</time>
      </trkpt>
      <trkpt lat="42.501040" lon="1.995841">
        <ele>1648.057</ele>
        <time>2019-05-30T08:43:05Z</time>
      </trkpt>
      <trkpt lat="42.501020" lon="1.995883">
        <ele>1646.431</ele>
        <time>2019-05-30T08:43:06Z</time>
      </trkpt>
      <trkpt lat="42.500988" lon="1.995979">
        <ele>1645.067</ele>
        <time>2019-05-30T08:43:08Z</time>
      </trkpt>
      <trkpt lat="42.500972" lon="1.996027">
        <ele>1644.455</ele>
        <time>2019-05-30T08:43:09Z</time>
      </trkpt>
      <trkpt lat="42.500955" lon="1.996076">
        <ele>1643.668</ele>
        <time>2019-05-30T08:43:10Z</time>
      </trkpt>
      <trkpt lat="42.500950" lon="1.996167">
        <ele>1642.232</ele>
        <time>2019-05-30T08:43:12Z</time>
      </trkpt>
      <trkpt lat="42.500967" lon="1.996270">
        <ele>1640.670</ele>
        <time>2019-05-30T08:43:14Z</time>
      </trkpt>
      <trkpt lat="42.500994" lon="1.996374">
        <ele>1638.645</ele>
        <time>2019-05-30T08:43:16Z</time>
      </trkpt>
      <trkpt lat="42.501006" lon="1.996425">
        <ele>1637.632</ele>
        <time>2019-05-30T08:43:17Z</time>
      </trkpt>
      <trkpt lat="42.501015" lon="1.996480">
        <ele>1636.292</ele>
        <time>2019-05-30T08:43:18Z</time>
      </trkpt>
      <trkpt lat="42.501025" lon="1.996533">
        <ele>1635.211</ele>
        <time>2019-05-30T08:43:19Z</time>
      </trkpt>
      <trkpt lat="42.501033" lon="1.996635">
        <ele>1633.208</ele>
        <time>2019-05-30T08:43:21Z</time>
      </trkpt>
      <trkpt lat="42.501027" lon="1.996730">
        <ele>1631.496</ele>
        <time>2019-05-30T08:43:23Z</time>
      </trkpt>
      <trkpt lat="42.501017" lon="1.996812">
        <ele>1630.040</ele>
        <time>2019-05-30T08:43:25Z</time>
      </trkpt>
      <trkpt lat="42.500997" lon="1.996890">
        <ele>1628.416</ele>
        <time>2019-05-30T08:43:27Z</time>
      </trkpt>
      <trkpt lat="42.500973" lon="1.996971">
        <ele>1627.024</ele>
        <time>2019-05-30T08:43:29Z</time>
      </trkpt>
      <trkpt lat="42.500950" lon="1.997013">
        <ele>1625.617</ele>
        <time>2019-05-30T08:43:30Z</time>
      </trkpt>
      <trkpt lat="42.500938" lon="1.997041">
        <ele>1624.811</ele>
        <time>2019-05-30T08:43:31Z</time>
      </trkpt>
      <trkpt lat="42.500908" lon="1.997072">
        <ele>1624.029</ele>
        <time>2019-05-30T08:43:32Z</time>
      </trkpt>
      <trkpt lat="42.500864" lon="1.997108">
        <ele>1623.024</ele>
        <time>2019-05-30T08:43:34Z</time>
      </trkpt>
      <trkpt lat="42.500842" lon="1.997125">
        <ele>1622.881</ele>
        <time>2019-05-30T08:43:35Z</time>
      </trkpt>
      <trkpt lat="42.500750" lon="1.997189">
        <ele>1621.861</ele>
        <time>2019-05-30T08:43:38Z</time>
      </trkpt>
      <trkpt lat="42.500710" lon="1.997198">
        <ele>1621.217</ele>
        <time>2019-05-30T08:43:40Z</time>
      </trkpt>
      <trkpt lat="42.500650" lon="1.997084">
        <ele>1620.408</ele>
        <time>2019-05-30T08:43:43Z</time>
      </trkpt>
      <trkpt lat="42.500631" lon="1.997034">
        <ele>1619.691</ele>
        <time>2019-05-30T08:43:44Z</time>
      </trkpt>
      <trkpt lat="42.500614" lon="1.996982">
        <ele>1618.855</ele>
        <time>2019-05-30T08:43:45Z</time>
      </trkpt>
      <trkpt lat="42.500568" lon="1.996895">
        <ele>1617.091</ele>
        <time>2019-05-30T08:43:47Z</time>
      </trkpt>
      <trkpt lat="42.500492" lon="1.996845">
        <ele>1616.049</ele>
        <time>2019-05-30T08:43:49Z</time>
      </trkpt>
      <trkpt lat="42.500399" lon="1.996799">
        <ele>1614.622</ele>
        <time>2019-05-30T08:43:51Z</time>
      </trkpt>
      <trkpt lat="42.500295" lon="1.996768">
        <ele>1613.286</ele>
        <time>2019-05-30T08:43:53Z</time>
      </trkpt>
      <trkpt lat="42.500245" lon="1.996751">
        <ele>1611.474</ele>
        <time>2019-05-30T08:43:54Z</time>
      </trkpt>
      <trkpt lat="42.500198" lon="1.996743">
        <ele>1610.439</ele>
        <time>2019-05-30T08:43:55Z</time>
      </trkpt>
      <trkpt lat="42.500073" lon="1.996719">
        <ele>1609.228</ele>
        <time>2019-05-30T08:43:58Z</time>
      </trkpt>
      <trkpt lat="42.499943" lon="1.996715">
        <ele>1608.289</ele>
        <time>2019-05-30T08:44:01Z</time>
      </trkpt>
      <trkpt lat="42.499868" lon="1.996712">
        <ele>1607.017</ele>
        <time>2019-05-30T08:44:03Z</time>
      </trkpt>
      <trkpt lat="42.499755" lon="1.996709">
        <ele>1606.008</ele>
        <time>2019-05-30T08:44:06Z</time>
      </trkpt>
      <trkpt lat="42.499719" lon="1.996706">
        <ele>1605.885</ele>
        <time>2019-05-30T08:44:07Z</time>
      </trkpt>
      <trkpt lat="42.499611" lon="1.996725">
        <ele>1604.639</ele>
        <time>2019-05-30T08:44:10Z</time>
      </trkpt>
      <trkpt lat="42.499506" lon="1.996752">
        <ele>1603.615</ele>
        <time>2019-05-30T08:44:13Z</time>
      </trkpt>
      <trkpt lat="42.499465" lon="1.996769">
        <ele>1603.263</ele>
        <time>2019-05-30T08:44:14Z</time>
      </trkpt>
      <trkpt lat="42.499394" lon="1.996789">
        <ele>1602.426</ele>
        <time>2019-05-30T08:44:16Z</time>
      </trkpt>
      <trkpt lat="42.499326" lon="1.996819">
        <ele>1601.240</ele>
        <time>2019-05-30T08:44:18Z</time>
      </trkpt>
      <trkpt lat="42.499248" lon="1.996844">
        <ele>1600.228</ele>
        <time>2019-05-30T08:44:22Z</time>
      </trkpt>
      <trkpt lat="42.499230" lon="1.996843">
        <ele>1600.083</ele>
        <time>2019-05-30T08:44:23Z</time>
      </trkpt>
      <trkpt lat="42.499192" lon="1.996792">
        <ele>1599.453</ele>
        <time>2019-05-30T08:45:33Z</time>
      </trkpt>
      <trkpt lat="42.499190" lon="1.996722">
        <ele>1599.404</ele>
        <time>2019-05-30T08:45:35Z</time>
      </trkpt>
      <trkpt lat="42.499174" lon="1.996470">
        <ele>1599.014</ele>
        <time>2019-05-30T08:45:40Z</time>
      </trkpt>
      <trkpt lat="42.499158" lon="1.996269">
        <ele>1598.008</ele>
        <time>2019-05-30T08:45:43Z</time>
      </trkpt>
      <trkpt lat="42.499122" lon="1.996064">
        <ele>1598.068</ele>
        <time>2019-05-30T08:45:46Z</time>
      </trkpt>
      <trkpt lat="42.499062" lon="1.995793">
        <ele>1596.642</ele>
        <time>2019-05-30T08:45:50Z</time>
      </trkpt>
      <trkpt lat="42.499000" lon="1.995468">
        <ele>1597.088</ele>
        <time>2019-05-30T08:45:55Z</time>
      </trkpt>
      <trkpt lat="42.498901" lon="1.994997">
        <ele>1596.626</ele>
        <time>2019-05-30T08:46:02Z</time>
      </trkpt>
      <trkpt lat="42.498845" lon="1.994796">
        <ele>1596.859</ele>
        <time>2019-05-30T08:46:05Z</time>
      </trkpt>
      <trkpt lat="42.498792" lon="1.994592">
        <ele>1596.433</ele>
        <time>2019-05-30T08:46:08Z</time>
      </trkpt>
      <trkpt lat="42.498617" lon="1.994027">
        <ele>1596.651</ele>
        <time>2019-05-30T08:46:16Z</time>
      </trkpt>
      <trkpt lat="42.498407" lon="1.993328">
        <ele>1595.486</ele>
        <time>2019-05-30T08:46:25Z</time>
      </trkpt>
      <trkpt lat="42.498360" lon="1.993160">
        <ele>1593.622</ele>
        <time>2019-05-30T08:46:27Z</time>
      </trkpt>
      <trkpt lat="42.498188" lon="1.992547">
        <ele>1592.662</ele>
        <time>2019-05-30T08:46:34Z</time>
      </trkpt>
      <trkpt lat="42.498132" lon="1.992375">
        <ele>1592.608</ele>
        <time>2019-05-30T08:46:36Z</time>
      </trkpt>
      <trkpt lat="42.497886" lon="1.991694">
        <ele>1593.008</ele>
        <time>2019-05-30T08:46:44Z</time>
      </trkpt>
      <trkpt lat="42.497841" lon="1.991515">
        <ele>1592.415</ele>
        <time>2019-05-30T08:46:46Z</time>
      </trkpt>
      <trkpt lat="42.497832" lon="1.991338">
        <ele>1592.499</ele>
        <time>2019-05-30T08:46:48Z</time>
      </trkpt>
      <trkpt lat="42.497791" lon="1.991047">
        <ele>1592.295</ele>
        <time>2019-05-30T08:46:52Z</time>
      </trkpt>
      <trkpt lat="42.497631" lon="1.990921">
        <ele>1592.413</ele>
        <time>2019-05-30T08:46:55Z</time>
      </trkpt>
      <trkpt lat="42.497578" lon="1.990855">
        <ele>1592.016</ele>
        <time>2019-05-30T08:46:56Z</time>
      </trkpt>
      <trkpt lat="42.497488" lon="1.990693">
        <ele>1590.880</ele>
        <time>2019-05-30T08:46:58Z</time>
      </trkpt>
      <trkpt lat="42.497449" lon="1.990604">
        <ele>1589.618</ele>
        <time>2019-05-30T08:46:59Z</time>
      </trkpt>
      <trkpt lat="42.497411" lon="1.990514">
        <ele>1588.653</ele>
        <time>2019-05-30T08:47:00Z</time>
      </trkpt>
      <trkpt lat="42.497373" lon="1.990419">
        <ele>1588.213</ele>
        <time>2019-05-30T08:47:01Z</time>
      </trkpt>
      <trkpt lat="42.497286" lon="1.990226">
        <ele>1587.243</ele>
        <time>2019-05-30T08:47:03Z</time>
      </trkpt>
      <trkpt lat="42.497187" lon="1.990031">
        <ele>1585.807</ele>
        <time>2019-05-30T08:47:05Z</time>
      </trkpt>
      <trkpt lat="42.497096" lon="1.989812">
        <ele>1584.408</ele>
        <time>2019-05-30T08:47:07Z</time>
      </trkpt>
      <trkpt lat="42.497051" lon="1.989694">
        <ele>1583.664</ele>
        <time>2019-05-30T08:47:08Z</time>
      </trkpt>
      <trkpt lat="42.497013" lon="1.989571">
        <ele>1582.618</ele>
        <time>2019-05-30T08:47:09Z</time>
      </trkpt>
      <trkpt lat="42.496977" lon="1.989440">
        <ele>1581.494</ele>
        <time>2019-05-30T08:47:10Z</time>
      </trkpt>
      <trkpt lat="42.496923" lon="1.989161">
        <ele>1579.622</ele>
        <time>2019-05-30T08:47:12Z</time>
      </trkpt>
      <trkpt lat="42.496901" lon="1.988864">
        <ele>1578.085</ele>
        <time>2019-05-30T08:47:14Z</time>
      </trkpt>
      <trkpt lat="42.496889" lon="1.988714">
        <ele>1577.079</ele>
        <time>2019-05-30T08:47:15Z</time>
      </trkpt>
      <trkpt lat="42.496877" lon="1.988567">
        <ele>1575.817</ele>
        <time>2019-05-30T08:47:16Z</time>
      </trkpt>
      <trkpt lat="42.496792" lon="1.988005">
        <ele>1574.472</ele>
        <time>2019-05-30T08:47:20Z</time>
      </trkpt>
      <trkpt lat="42.496757" lon="1.987873">
        <ele>1573.428</ele>
        <time>2019-05-30T08:47:21Z</time>
      </trkpt>
      <trkpt lat="42.496718" lon="1.987740">
        <ele>1572.889</ele>
        <time>2019-05-30T08:47:22Z</time>
      </trkpt>
      <trkpt lat="42.496678" lon="1.987606">
        <ele>1572.417</ele>
        <time>2019-05-30T08:47:23Z</time>
      </trkpt>
      <trkpt lat="42.496618" lon="1.987322">
        <ele>1571.008</ele>
        <time>2019-05-30T08:47:25Z</time>
      </trkpt>
      <trkpt lat="42.496618" lon="1.987172">
        <ele>1570.235</ele>
        <time>2019-05-30T08:47:26Z</time>
      </trkpt>
      <trkpt lat="42.496630" lon="1.987024">
        <ele>1569.879</ele>
        <time>2019-05-30T08:47:27Z</time>
      </trkpt>
      <trkpt lat="42.496609" lon="1.986733">
        <ele>1569.025</ele>
        <time>2019-05-30T08:47:29Z</time>
      </trkpt>
      <trkpt lat="42.496508" lon="1.986462">
        <ele>1569.453</ele>
        <time>2019-05-30T08:47:31Z</time>
      </trkpt>
      <trkpt lat="42.496391" lon="1.986199">
        <ele>1568.436</ele>
        <time>2019-05-30T08:47:33Z</time>
      </trkpt>
      <trkpt lat="42.496257" lon="1.985948">
        <ele>1566.240</ele>
        <time>2019-05-30T08:47:35Z</time>
      </trkpt>
      <trkpt lat="42.496183" lon="1.985827">
        <ele>1564.618</ele>
        <time>2019-05-30T08:47:36Z</time>
      </trkpt>
      <trkpt lat="42.495770" lon="1.985292">
        <ele>1563.673</ele>
        <time>2019-05-30T08:47:41Z</time>
      </trkpt>
      <trkpt lat="42.495423" lon="1.984703">
        <ele>1562.476</ele>
        <time>2019-05-30T08:47:46Z</time>
      </trkpt>
      <trkpt lat="42.495332" lon="1.984431">
        <ele>1561.090</ele>
        <time>2019-05-30T08:47:48Z</time>
      </trkpt>
      <trkpt lat="42.495269" lon="1.984149">
        <ele>1560.419</ele>
        <time>2019-05-30T08:47:50Z</time>
      </trkpt>
      <trkpt lat="42.495248" lon="1.984005">
        <ele>1559.808</ele>
        <time>2019-05-30T08:47:51Z</time>
      </trkpt>
      <trkpt lat="42.495233" lon="1.983723">
        <ele>1558.860</ele>
        <time>2019-05-30T08:47:53Z</time>
      </trkpt>
      <trkpt lat="42.495231" lon="1.983577">
        <ele>1559.224</ele>
        <time>2019-05-30T08:47:54Z</time>
      </trkpt>
      <trkpt lat="42.495259" lon="1.983301">
        <ele>1559.240</ele>
        <time>2019-05-30T08:47:56Z</time>
      </trkpt>
      <trkpt lat="42.495295" lon="1.983049">
        <ele>1559.648</ele>
        <time>2019-05-30T08:47:58Z</time>
      </trkpt>
      <trkpt lat="42.495315" lon="1.982928">
        <ele>1560.021</ele>
        <time>2019-05-30T08:47:59Z</time>
      </trkpt>
      <trkpt lat="42.495373" lon="1.982595">
        <ele>1561.225</ele>
        <time>2019-05-30T08:48:02Z</time>
      </trkpt>
      <trkpt lat="42.495382" lon="1.982487">
        <ele>1561.833</ele>
        <time>2019-05-30T08:48:03Z</time>
      </trkpt>
      <trkpt lat="42.495385" lon="1.982017">
        <ele>1559.658</ele>
        <time>2019-05-30T08:48:07Z</time>
      </trkpt>
      <trkpt lat="42.495371" lon="1.981904">
        <ele>1559.076</ele>
        <time>2019-05-30T08:48:08Z</time>
      </trkpt>
      <trkpt lat="42.495249" lon="1.981396">
        <ele>1558.890</ele>
        <time>2019-05-30T08:48:12Z</time>
      </trkpt>
      <trkpt lat="42.495226" lon="1.981258">
        <ele>1558.419</ele>
        <time>2019-05-30T08:48:13Z</time>
      </trkpt>
      <trkpt lat="42.495231" lon="1.981111">
        <ele>1558.208</ele>
        <time>2019-05-30T08:48:14Z</time>
      </trkpt>
      <trkpt lat="42.495260" lon="1.980966">
        <ele>1557.890</ele>
        <time>2019-05-30T08:48:15Z</time>
      </trkpt>
      <trkpt lat="42.495303" lon="1.980825">
        <ele>1557.094</ele>
        <time>2019-05-30T08:48:16Z</time>
      </trkpt>
      <trkpt lat="42.495363" lon="1.980693">
        <ele>1555.870</ele>
        <time>2019-05-30T08:48:17Z</time>
      </trkpt>
      <trkpt lat="42.495429" lon="1.980567">
        <ele>1553.428</ele>
        <time>2019-05-30T08:48:18Z</time>
      </trkpt>
      <trkpt lat="42.495566" lon="1.980322">
        <ele>1551.411</ele>
        <time>2019-05-30T08:48:20Z</time>
      </trkpt>
      <trkpt lat="42.495615" lon="1.980183">
        <ele>1550.815</ele>
        <time>2019-05-30T08:48:21Z</time>
      </trkpt>
      <trkpt lat="42.495644" lon="1.980033">
        <ele>1550.013</ele>
        <time>2019-05-30T08:48:22Z</time>
      </trkpt>
      <trkpt lat="42.495627" lon="1.979728">
        <ele>1549.698</ele>
        <time>2019-05-30T08:48:24Z</time>
      </trkpt>
      <trkpt lat="42.495516" lon="1.979471">
        <ele>1549.082</ele>
        <time>2019-05-30T08:48:26Z</time>
      </trkpt>
      <trkpt lat="42.495384" lon="1.979254">
        <ele>1548.443</ele>
        <time>2019-05-30T08:48:28Z</time>
      </trkpt>
      <trkpt lat="42.495273" lon="1.979030">
        <ele>1548.217</ele>
        <time>2019-05-30T08:48:30Z</time>
      </trkpt>
      <trkpt lat="42.495225" lon="1.978767">
        <ele>1547.808</ele>
        <time>2019-05-30T08:48:32Z</time>
      </trkpt>
      <trkpt lat="42.495228" lon="1.978640">
        <ele>1547.421</ele>
        <time>2019-05-30T08:48:33Z</time>
      </trkpt>
      <trkpt lat="42.495232" lon="1.978385">
        <ele>1547.215</ele>
        <time>2019-05-30T08:48:35Z</time>
      </trkpt>
      <trkpt lat="42.495231" lon="1.977722">
        <ele>1547.661</ele>
        <time>2019-05-30T08:48:40Z</time>
      </trkpt>
      <trkpt lat="42.495230" lon="1.977186">
        <ele>1546.629</ele>
        <time>2019-05-30T08:48:44Z</time>
      </trkpt>
      <trkpt lat="42.495272" lon="1.976795">
        <ele>1545.832</ele>
        <time>2019-05-30T08:48:47Z</time>
      </trkpt>
      <trkpt lat="42.495307" lon="1.976674">
        <ele>1545.416</ele>
        <time>2019-05-30T08:48:48Z</time>
      </trkpt>
      <trkpt lat="42.495404" lon="1.976471">
        <ele>1544.494</ele>
        <time>2019-05-30T08:48:50Z</time>
      </trkpt>
      <trkpt lat="42.495466" lon="1.976383">
        <ele>1544.239</ele>
        <time>2019-05-30T08:48:51Z</time>
      </trkpt>
      <trkpt lat="42.495600" lon="1.976243">
        <ele>1544.296</ele>
        <time>2019-05-30T08:48:53Z</time>
      </trkpt>
      <trkpt lat="42.495664" lon="1.976181">
        <ele>1544.631</ele>
        <time>2019-05-30T08:48:54Z</time>
      </trkpt>
      <trkpt lat="42.495774" lon="1.976057">
        <ele>1545.424</ele>
        <time>2019-05-30T08:48:56Z</time>
      </trkpt>
      <trkpt lat="42.495814" lon="1.975976">
        <ele>1545.808</ele>
        <time>2019-05-30T08:48:57Z</time>
      </trkpt>
      <trkpt lat="42.495805" lon="1.975681">
        <ele>1545.652</ele>
        <time>2019-05-30T08:49:00Z</time>
      </trkpt>
      <trkpt lat="42.495675" lon="1.975570">
        <ele>1545.226</ele>
        <time>2019-05-30T08:49:02Z</time>
      </trkpt>
      <trkpt lat="42.495605" lon="1.975543">
        <ele>1545.262</ele>
        <time>2019-05-30T08:49:03Z</time>
      </trkpt>
      <trkpt lat="42.495529" lon="1.975567">
        <ele>1544.890</ele>
        <time>2019-05-30T08:49:04Z</time>
      </trkpt>
      <trkpt lat="42.495457" lon="1.975620">
        <ele>1544.883</ele>
        <time>2019-05-30T08:49:05Z</time>
      </trkpt>
      <trkpt lat="42.495389" lon="1.975693">
        <ele>1544.067</ele>
        <time>2019-05-30T08:49:06Z</time>
      </trkpt>
      <trkpt lat="42.495257" lon="1.975864">
        <ele>1542.615</ele>
        <time>2019-05-30T08:49:08Z</time>
      </trkpt>
      <trkpt lat="42.495052" lon="1.976133">
        <ele>1541.290</ele>
        <time>2019-05-30T08:49:11Z</time>
      </trkpt>
      <trkpt lat="42.494924" lon="1.976342">
        <ele>1539.896</ele>
        <time>2019-05-30T08:49:13Z</time>
      </trkpt>
      <trkpt lat="42.494857" lon="1.976456">
        <ele>1539.031</ele>
        <time>2019-05-30T08:49:14Z</time>
      </trkpt>
      <trkpt lat="42.494787" lon="1.976564">
        <ele>1538.224</ele>
        <time>2019-05-30T08:49:15Z</time>
      </trkpt>
      <trkpt lat="42.494701" lon="1.976660">
        <ele>1537.008</ele>
        <time>2019-05-30T08:49:16Z</time>
      </trkpt>
      <trkpt lat="42.494602" lon="1.976741">
        <ele>1536.022</ele>
        <time>2019-05-30T08:49:17Z</time>
      </trkpt>
      <trkpt lat="42.494497" lon="1.976807">
        <ele>1534.896</ele>
        <time>2019-05-30T08:49:18Z</time>
      </trkpt>
      <trkpt lat="42.494307" lon="1.977002">
        <ele>1533.052</ele>
        <time>2019-05-30T08:49:20Z</time>
      </trkpt>
      <trkpt lat="42.494222" lon="1.977110">
        <ele>1532.020</ele>
        <time>2019-05-30T08:49:21Z</time>
      </trkpt>
      <trkpt lat="42.494136" lon="1.977223">
        <ele>1530.853</ele>
        <time>2019-05-30T08:49:22Z</time>
      </trkpt>
      <trkpt lat="42.494030" lon="1.977303">
        <ele>1529.667</ele>
        <time>2019-05-30T08:49:23Z</time>
      </trkpt>
      <trkpt lat="42.493915" lon="1.977355">
        <ele>1528.425</ele>
        <time>2019-05-30T08:49:24Z</time>
      </trkpt>
      <trkpt lat="42.493677" lon="1.977357">
        <ele>1527.460</ele>
        <time>2019-05-30T08:49:26Z</time>
      </trkpt>
      <trkpt lat="42.493349" lon="1.977222">
        <ele>1526.429</ele>
        <time>2019-05-30T08:49:29Z</time>
      </trkpt>
      <trkpt lat="42.493106" lon="1.976915">
        <ele>1527.400</ele>
        <time>2019-05-30T08:49:32Z</time>
      </trkpt>
      <trkpt lat="42.493042" lon="1.976798">
        <ele>1527.620</ele>
        <time>2019-05-30T08:49:33Z</time>
      </trkpt>
      <trkpt lat="42.492993" lon="1.976666">
        <ele>1527.608</ele>
        <time>2019-05-30T08:49:34Z</time>
      </trkpt>
      <trkpt lat="42.492914" lon="1.976401">
        <ele>1526.615</ele>
        <time>2019-05-30T08:49:36Z</time>
      </trkpt>
      <trkpt lat="42.492800" lon="1.975859">
        <ele>1526.059</ele>
        <time>2019-05-30T08:49:40Z</time>
      </trkpt>
      <trkpt lat="42.492782" lon="1.975708">
        <ele>1525.685</ele>
        <time>2019-05-30T08:49:41Z</time>
      </trkpt>
      <trkpt lat="42.492770" lon="1.975559">
        <ele>1524.873</ele>
        <time>2019-05-30T08:49:42Z</time>
      </trkpt>
      <trkpt lat="42.492762" lon="1.975248">
        <ele>1523.016</ele>
        <time>2019-05-30T08:49:44Z</time>
      </trkpt>
      <trkpt lat="42.492754" lon="1.974928">
        <ele>1521.640</ele>
        <time>2019-05-30T08:49:46Z</time>
      </trkpt>
      <trkpt lat="42.492754" lon="1.974766">
        <ele>1520.068</ele>
        <time>2019-05-30T08:49:47Z</time>
      </trkpt>
      <trkpt lat="42.492757" lon="1.974603">
        <ele>1518.833</ele>
        <time>2019-05-30T08:49:48Z</time>
      </trkpt>
      <trkpt lat="42.492759" lon="1.974441">
        <ele>1517.215</ele>
        <time>2019-05-30T08:49:49Z</time>
      </trkpt>
      <trkpt lat="42.492762" lon="1.974281">
        <ele>1515.865</ele>
        <time>2019-05-30T08:49:50Z</time>
      </trkpt>
      <trkpt lat="42.492763" lon="1.974121">
        <ele>1514.211</ele>
        <time>2019-05-30T08:49:51Z</time>
      </trkpt>
      <trkpt lat="42.492757" lon="1.973966">
        <ele>1513.208</ele>
        <time>2019-05-30T08:49:52Z</time>
      </trkpt>
      <trkpt lat="42.492740" lon="1.973813">
        <ele>1512.864</ele>
        <time>2019-05-30T08:49:53Z</time>
      </trkpt>
      <trkpt lat="42.492704" lon="1.973674">
        <ele>1512.218</ele>
        <time>2019-05-30T08:49:54Z</time>
      </trkpt>
      <trkpt lat="42.492653" lon="1.973542">
        <ele>1511.874</ele>
        <time>2019-05-30T08:49:55Z</time>
      </trkpt>
      <trkpt lat="42.492598" lon="1.973416">
        <ele>1511.262</ele>
        <time>2019-05-30T08:49:56Z</time>
      </trkpt>
      <trkpt lat="42.492517" lon="1.973311">
        <ele>1510.285</ele>
        <time>2019-05-30T08:49:57Z</time>
      </trkpt>
      <trkpt lat="42.492418" lon="1.973233">
        <ele>1509.479</ele>
        <time>2019-05-30T08:49:58Z</time>
      </trkpt>
      <trkpt lat="42.492306" lon="1.973184">
        <ele>1508.657</ele>
        <time>2019-05-30T08:49:59Z</time>
      </trkpt>
      <trkpt lat="42.492193" lon="1.973182">
        <ele>1508.032</ele>
        <time>2019-05-30T08:50:00Z</time>
      </trkpt>
      <trkpt lat="42.492080" lon="1.973236">
        <ele>1507.463</ele>
        <time>2019-05-30T08:50:01Z</time>
      </trkpt>
      <trkpt lat="42.491861" lon="1.973346">
        <ele>1506.844</ele>
        <time>2019-05-30T08:50:03Z</time>
      </trkpt>
      <trkpt lat="42.491750" lon="1.973383">
        <ele>1506.418</ele>
        <time>2019-05-30T08:50:04Z</time>
      </trkpt>
      <trkpt lat="42.491522" lon="1.973375">
        <ele>1505.208</ele>
        <time>2019-05-30T08:50:06Z</time>
      </trkpt>
      <trkpt lat="42.491413" lon="1.973315">
        <ele>1504.069</ele>
        <time>2019-05-30T08:50:07Z</time>
      </trkpt>
      <trkpt lat="42.491311" lon="1.973241">
        <ele>1502.883</ele>
        <time>2019-05-30T08:50:08Z</time>
      </trkpt>
      <trkpt lat="42.491098" lon="1.973129">
        <ele>1501.079</ele>
        <time>2019-05-30T08:50:10Z</time>
      </trkpt>
      <trkpt lat="42.490867" lon="1.973110">
        <ele>1499.617</ele>
        <time>2019-05-30T08:50:12Z</time>
      </trkpt>
      <trkpt lat="42.490752" lon="1.973137">
        <ele>1498.630</ele>
        <time>2019-05-30T08:50:13Z</time>
      </trkpt>
      <trkpt lat="42.490647" lon="1.973209">
        <ele>1498.034</ele>
        <time>2019-05-30T08:50:14Z</time>
      </trkpt>
      <trkpt lat="42.490554" lon="1.973294">
        <ele>1497.432</ele>
        <time>2019-05-30T08:50:15Z</time>
      </trkpt>
      <trkpt lat="42.490469" lon="1.973389">
        <ele>1496.877</ele>
        <time>2019-05-30T08:50:16Z</time>
      </trkpt>
      <trkpt lat="42.490305" lon="1.973599">
        <ele>1495.268</ele>
        <time>2019-05-30T08:50:18Z</time>
      </trkpt>
      <trkpt lat="42.490244" lon="1.973726">
        <ele>1493.642</ele>
        <time>2019-05-30T08:50:19Z</time>
      </trkpt>
      <trkpt lat="42.490191" lon="1.973861">
        <ele>1492.826</ele>
        <time>2019-05-30T08:50:20Z</time>
      </trkpt>
      <trkpt lat="42.490140" lon="1.973996">
        <ele>1492.208</ele>
        <time>2019-05-30T08:50:21Z</time>
      </trkpt>
      <trkpt lat="42.490019" lon="1.974259">
        <ele>1490.899</ele>
        <time>2019-05-30T08:50:23Z</time>
      </trkpt>
      <trkpt lat="42.489944" lon="1.974374">
        <ele>1489.873</ele>
        <time>2019-05-30T08:50:24Z</time>
      </trkpt>
      <trkpt lat="42.489860" lon="1.974476">
        <ele>1489.289</ele>
        <time>2019-05-30T08:50:25Z</time>
      </trkpt>
      <trkpt lat="42.489674" lon="1.974633">
        <ele>1489.217</ele>
        <time>2019-05-30T08:50:27Z</time>
      </trkpt>
      <trkpt lat="42.489572" lon="1.974691">
        <ele>1489.080</ele>
        <time>2019-05-30T08:50:28Z</time>
      </trkpt>
      <trkpt lat="42.489470" lon="1.974748">
        <ele>1488.484</ele>
        <time>2019-05-30T08:50:29Z</time>
      </trkpt>
      <trkpt lat="42.489371" lon="1.974812">
        <ele>1487.832</ele>
        <time>2019-05-30T08:50:30Z</time>
      </trkpt>
      <trkpt lat="42.489273" lon="1.974885">
        <ele>1487.037</ele>
        <time>2019-05-30T08:50:31Z</time>
      </trkpt>
      <trkpt lat="42.489181" lon="1.974966">
        <ele>1486.011</ele>
        <time>2019-05-30T08:50:32Z</time>
      </trkpt>
      <trkpt lat="42.489097" lon="1.975059">
        <ele>1485.221</ele>
        <time>2019-05-30T08:50:33Z</time>
      </trkpt>
      <trkpt lat="42.489028" lon="1.975169">
        <ele>1484.603</ele>
        <time>2019-05-30T08:50:34Z</time>
      </trkpt>
      <trkpt lat="42.488980" lon="1.975297">
        <ele>1483.808</ele>
        <time>2019-05-30T08:50:35Z</time>
      </trkpt>
      <trkpt lat="42.488939" lon="1.975432">
        <ele>1483.064</ele>
        <time>2019-05-30T08:50:36Z</time>
      </trkpt>
      <trkpt lat="42.488929" lon="1.975572">
        <ele>1482.438</ele>
        <time>2019-05-30T08:50:37Z</time>
      </trkpt>
      <trkpt lat="42.488956" lon="1.975816">
        <ele>1481.624</ele>
        <time>2019-05-30T08:50:39Z</time>
      </trkpt>
      <trkpt lat="42.488927" lon="1.976038">
        <ele>1480.272</ele>
        <time>2019-05-30T08:50:41Z</time>
      </trkpt>
      <trkpt lat="42.488906" lon="1.976120">
        <ele>1480.225</ele>
        <time>2019-05-30T08:50:42Z</time>
      </trkpt>
      <trkpt lat="42.488873" lon="1.976158">
        <ele>1481.059</ele>
        <time>2019-05-30T08:50:43Z</time>
      </trkpt>
      <trkpt lat="42.488832" lon="1.976197">
        <ele>1481.057</ele>
        <time>2019-05-30T08:50:44Z</time>
      </trkpt>
      <trkpt lat="42.488656" lon="1.976171">
        <ele>1480.042</ele>
        <time>2019-05-30T08:50:47Z</time>
      </trkpt>
      <trkpt lat="42.488597" lon="1.975986">
        <ele>1479.251</ele>
        <time>2019-05-30T08:50:49Z</time>
      </trkpt>
      <trkpt lat="42.488615" lon="1.975763">
        <ele>1478.001</ele>
        <time>2019-05-30T08:50:51Z</time>
      </trkpt>
      <trkpt lat="42.488629" lon="1.975653">
        <ele>1477.611</ele>
        <time>2019-05-30T08:50:52Z</time>
      </trkpt>
      <trkpt lat="42.488670" lon="1.975434">
        <ele>1476.608</ele>
        <time>2019-05-30T08:50:54Z</time>
      </trkpt>
      <trkpt lat="42.488742" lon="1.974947">
        <ele>1475.468</ele>
        <time>2019-05-30T08:50:58Z</time>
      </trkpt>
      <trkpt lat="42.488769" lon="1.974679">
        <ele>1474.042</ele>
        <time>2019-05-30T08:51:00Z</time>
      </trkpt>
      <trkpt lat="42.488770" lon="1.974398">
        <ele>1472.448</ele>
        <time>2019-05-30T08:51:02Z</time>
      </trkpt>
      <trkpt lat="42.488759" lon="1.974255">
        <ele>1471.626</ele>
        <time>2019-05-30T08:51:03Z</time>
      </trkpt>
      <trkpt lat="42.488736" lon="1.974113">
        <ele>1470.689</ele>
        <time>2019-05-30T08:51:04Z</time>
      </trkpt>
      <trkpt lat="42.488700" lon="1.973974">
        <ele>1469.833</ele>
        <time>2019-05-30T08:51:05Z</time>
      </trkpt>
      <trkpt lat="42.488658" lon="1.973839">
        <ele>1469.271</ele>
        <time>2019-05-30T08:51:06Z</time>
      </trkpt>
      <trkpt lat="42.488609" lon="1.973704">
        <ele>1468.056</ele>
        <time>2019-05-30T08:51:07Z</time>
      </trkpt>
      <trkpt lat="42.488506" lon="1.973435">
        <ele>1466.496</ele>
        <time>2019-05-30T08:51:09Z</time>
      </trkpt>
      <trkpt lat="42.488451" lon="1.973297">
        <ele>1465.231</ele>
        <time>2019-05-30T08:51:10Z</time>
      </trkpt>
      <trkpt lat="42.488339" lon="1.973023">
        <ele>1463.624</ele>
        <time>2019-05-30T08:51:12Z</time>
      </trkpt>
      <trkpt lat="42.488226" lon="1.972741">
        <ele>1461.608</ele>
        <time>2019-05-30T08:51:14Z</time>
      </trkpt>
      <trkpt lat="42.488109" lon="1.972461">
        <ele>1460.052</ele>
        <time>2019-05-30T08:51:16Z</time>
      </trkpt>
      <trkpt lat="42.488053" lon="1.972317">
        <ele>1459.416</ele>
        <time>2019-05-30T08:51:17Z</time>
      </trkpt>
      <trkpt lat="42.487999" lon="1.972172">
        <ele>1458.492</ele>
        <time>2019-05-30T08:51:18Z</time>
      </trkpt>
      <trkpt lat="42.487897" lon="1.971880">
        <ele>1456.820</ele>
        <time>2019-05-30T08:51:20Z</time>
      </trkpt>
      <trkpt lat="42.487812" lon="1.971582">
        <ele>1455.633</ele>
        <time>2019-05-30T08:51:22Z</time>
      </trkpt>
      <trkpt lat="42.487773" lon="1.971430">
        <ele>1455.097</ele>
        <time>2019-05-30T08:51:23Z</time>
      </trkpt>
      <trkpt lat="42.487735" lon="1.971277">
        <ele>1454.475</ele>
        <time>2019-05-30T08:51:24Z</time>
      </trkpt>
      <trkpt lat="42.487669" lon="1.970963">
        <ele>1453.450</ele>
        <time>2019-05-30T08:51:26Z</time>
      </trkpt>
      <trkpt lat="42.487627" lon="1.970637">
        <ele>1451.618</ele>
        <time>2019-05-30T08:51:28Z</time>
      </trkpt>
      <trkpt lat="42.487590" lon="1.970311">
        <ele>1450.098</ele>
        <time>2019-05-30T08:51:30Z</time>
      </trkpt>
      <trkpt lat="42.487553" lon="1.970157">
        <ele>1448.617</ele>
        <time>2019-05-30T08:51:31Z</time>
      </trkpt>
      <trkpt lat="42.487503" lon="1.970011">
        <ele>1447.808</ele>
        <time>2019-05-30T08:51:32Z</time>
      </trkpt>
      <trkpt lat="42.487437" lon="1.969878">
        <ele>1447.294</ele>
        <time>2019-05-30T08:51:33Z</time>
      </trkpt>
      <trkpt lat="42.487268" lon="1.969675">
        <ele>1445.658</ele>
        <time>2019-05-30T08:51:35Z</time>
      </trkpt>
      <trkpt lat="42.487054" lon="1.969569">
        <ele>1443.634</ele>
        <time>2019-05-30T08:51:37Z</time>
      </trkpt>
      <trkpt lat="42.486940" lon="1.969550">
        <ele>1442.652</ele>
        <time>2019-05-30T08:51:38Z</time>
      </trkpt>
      <trkpt lat="42.486823" lon="1.969547">
        <ele>1442.015</ele>
        <time>2019-05-30T08:51:39Z</time>
      </trkpt>
      <trkpt lat="42.486592" lon="1.969572">
        <ele>1440.629</ele>
        <time>2019-05-30T08:51:41Z</time>
      </trkpt>
      <trkpt lat="42.486478" lon="1.969594">
        <ele>1439.617</ele>
        <time>2019-05-30T08:51:42Z</time>
      </trkpt>
      <trkpt lat="42.486365" lon="1.969623">
        <ele>1438.822</ele>
        <time>2019-05-30T08:51:43Z</time>
      </trkpt>
      <trkpt lat="42.486039" lon="1.969751">
        <ele>1437.287</ele>
        <time>2019-05-30T08:51:46Z</time>
      </trkpt>
      <trkpt lat="42.485937" lon="1.969814">
        <ele>1436.842</ele>
        <time>2019-05-30T08:51:47Z</time>
      </trkpt>
      <trkpt lat="42.485742" lon="1.969970">
        <ele>1435.826</ele>
        <time>2019-05-30T08:51:49Z</time>
      </trkpt>
      <trkpt lat="42.485645" lon="1.970052">
        <ele>1434.608</ele>
        <time>2019-05-30T08:51:50Z</time>
      </trkpt>
      <trkpt lat="42.485545" lon="1.970126">
        <ele>1433.221</ele>
        <time>2019-05-30T08:51:51Z</time>
      </trkpt>
      <trkpt lat="42.485442" lon="1.970193">
        <ele>1432.235</ele>
        <time>2019-05-30T08:51:52Z</time>
      </trkpt>
      <trkpt lat="42.485231" lon="1.970315">
        <ele>1430.871</ele>
        <time>2019-05-30T08:51:54Z</time>
      </trkpt>
      <trkpt lat="42.485020" lon="1.970433">
        <ele>1429.239</ele>
        <time>2019-05-30T08:51:56Z</time>
      </trkpt>
      <trkpt lat="42.484915" lon="1.970490">
        <ele>1428.212</ele>
        <time>2019-05-30T08:51:57Z</time>
      </trkpt>
      <trkpt lat="42.484812" lon="1.970545">
        <ele>1427.016</ele>
        <time>2019-05-30T08:51:58Z</time>
      </trkpt>
      <trkpt lat="42.484606" lon="1.970647">
        <ele>1425.834</ele>
        <time>2019-05-30T08:52:00Z</time>
      </trkpt>
      <trkpt lat="42.484402" lon="1.970751">
        <ele>1424.439</ele>
        <time>2019-05-30T08:52:02Z</time>
      </trkpt>
      <trkpt lat="42.484197" lon="1.970851">
        <ele>1423.262</ele>
        <time>2019-05-30T08:52:04Z</time>
      </trkpt>
      <trkpt lat="42.483987" lon="1.970946">
        <ele>1422.283</ele>
        <time>2019-05-30T08:52:06Z</time>
      </trkpt>
      <trkpt lat="42.483879" lon="1.970981">
        <ele>1421.611</ele>
        <time>2019-05-30T08:52:07Z</time>
      </trkpt>
      <trkpt lat="42.483769" lon="1.971000">
        <ele>1421.008</ele>
        <time>2019-05-30T08:52:08Z</time>
      </trkpt>
      <trkpt lat="42.483656" lon="1.971001">
        <ele>1420.299</ele>
        <time>2019-05-30T08:52:09Z</time>
      </trkpt>
      <trkpt lat="42.483545" lon="1.970986">
        <ele>1419.863</ele>
        <time>2019-05-30T08:52:10Z</time>
      </trkpt>
      <trkpt lat="42.483330" lon="1.970902">
        <ele>1418.629</ele>
        <time>2019-05-30T08:52:12Z</time>
      </trkpt>
      <trkpt lat="42.483227" lon="1.970839">
        <ele>1417.427</ele>
        <time>2019-05-30T08:52:13Z</time>
      </trkpt>
      <trkpt lat="42.483033" lon="1.970680">
        <ele>1415.890</ele>
        <time>2019-05-30T08:52:15Z</time>
      </trkpt>
      <trkpt lat="42.482940" lon="1.970591">
        <ele>1415.694</ele>
        <time>2019-05-30T08:52:16Z</time>
      </trkpt>
      <trkpt lat="42.482759" lon="1.970406">
        <ele>1414.462</ele>
        <time>2019-05-30T08:52:18Z</time>
      </trkpt>
      <trkpt lat="42.482672" lon="1.970308">
        <ele>1413.057</ele>
        <time>2019-05-30T08:52:19Z</time>
      </trkpt>
      <trkpt lat="42.482496" lon="1.970111">
        <ele>1412.098</ele>
        <time>2019-05-30T08:52:21Z</time>
      </trkpt>
      <trkpt lat="42.482324" lon="1.969920">
        <ele>1411.415</ele>
        <time>2019-05-30T08:52:23Z</time>
      </trkpt>
      <trkpt lat="42.482233" lon="1.969832">
        <ele>1411.026</ele>
        <time>2019-05-30T08:52:24Z</time>
      </trkpt>
      <trkpt lat="42.482039" lon="1.969688">
        <ele>1409.608</ele>
        <time>2019-05-30T08:52:26Z</time>
      </trkpt>
      <trkpt lat="42.481936" lon="1.969632">
        <ele>1409.212</ele>
        <time>2019-05-30T08:52:27Z</time>
      </trkpt>
      <trkpt lat="42.481831" lon="1.969579">
        <ele>1408.496</ele>
        <time>2019-05-30T08:52:28Z</time>
      </trkpt>
      <trkpt lat="42.481623" lon="1.969457">
        <ele>1406.892</ele>
        <time>2019-05-30T08:52:30Z</time>
      </trkpt>
      <trkpt lat="42.481525" lon="1.969379">
        <ele>1406.280</ele>
        <time>2019-05-30T08:52:31Z</time>
      </trkpt>
      <trkpt lat="42.481435" lon="1.969283">
        <ele>1405.653</ele>
        <time>2019-05-30T08:52:32Z</time>
      </trkpt>
      <trkpt lat="42.481279" lon="1.969056">
        <ele>1404.017</ele>
        <time>2019-05-30T08:52:34Z</time>
      </trkpt>
      <trkpt lat="42.481211" lon="1.968933">
        <ele>1403.265</ele>
        <time>2019-05-30T08:52:35Z</time>
      </trkpt>
      <trkpt lat="42.481145" lon="1.968806">
        <ele>1402.440</ele>
        <time>2019-05-30T08:52:36Z</time>
      </trkpt>
      <trkpt lat="42.480949" lon="1.968435">
        <ele>1401.072</ele>
        <time>2019-05-30T08:52:39Z</time>
      </trkpt>
      <trkpt lat="42.480822" lon="1.968190">
        <ele>1399.413</ele>
        <time>2019-05-30T08:52:41Z</time>
      </trkpt>
      <trkpt lat="42.480760" lon="1.968067">
        <ele>1398.414</ele>
        <time>2019-05-30T08:52:42Z</time>
      </trkpt>
      <trkpt lat="42.480698" lon="1.967944">
        <ele>1397.208</ele>
        <time>2019-05-30T08:52:43Z</time>
      </trkpt>
      <trkpt lat="42.480571" lon="1.967694">
        <ele>1396.060</ele>
        <time>2019-05-30T08:52:45Z</time>
      </trkpt>
      <trkpt lat="42.480443" lon="1.967450">
        <ele>1394.484</ele>
        <time>2019-05-30T08:52:47Z</time>
      </trkpt>
      <trkpt lat="42.480251" lon="1.967083">
        <ele>1393.090</ele>
        <time>2019-05-30T08:52:50Z</time>
      </trkpt>
      <trkpt lat="42.480136" lon="1.966818">
        <ele>1391.658</ele>
        <time>2019-05-30T08:52:52Z</time>
      </trkpt>
      <trkpt lat="42.480106" lon="1.966668">
        <ele>1391.021</ele>
        <time>2019-05-30T08:52:53Z</time>
      </trkpt>
      <trkpt lat="42.480102" lon="1.966512">
        <ele>1390.275</ele>
        <time>2019-05-30T08:52:54Z</time>
      </trkpt>
      <trkpt lat="42.480121" lon="1.966202">
        <ele>1389.213</ele>
        <time>2019-05-30T08:52:56Z</time>
      </trkpt>
      <trkpt lat="42.480120" lon="1.966050">
        <ele>1388.888</ele>
        <time>2019-05-30T08:52:57Z</time>
      </trkpt>
      <trkpt lat="42.480105" lon="1.965901">
        <ele>1388.297</ele>
        <time>2019-05-30T08:52:58Z</time>
      </trkpt>
      <trkpt lat="42.480080" lon="1.965759">
        <ele>1387.423</ele>
        <time>2019-05-30T08:52:59Z</time>
      </trkpt>
      <trkpt lat="42.480054" lon="1.965630">
        <ele>1386.425</ele>
        <time>2019-05-30T08:53:00Z</time>
      </trkpt>
      <trkpt lat="42.480034" lon="1.965507">
        <ele>1386.008</ele>
        <time>2019-05-30T08:53:01Z</time>
      </trkpt>
      <trkpt lat="42.480031" lon="1.965388">
        <ele>1386.222</ele>
        <time>2019-05-30T08:53:02Z</time>
      </trkpt>
      <trkpt lat="42.480101" lon="1.965185">
        <ele>1386.646</ele>
        <time>2019-05-30T08:53:04Z</time>
      </trkpt>
      <trkpt lat="42.480251" lon="1.965119">
        <ele>1386.012</ele>
        <time>2019-05-30T08:53:06Z</time>
      </trkpt>
      <trkpt lat="42.480332" lon="1.965165">
        <ele>1384.880</ele>
        <time>2019-05-30T08:53:07Z</time>
      </trkpt>
      <trkpt lat="42.480397" lon="1.965251">
        <ele>1384.293</ele>
        <time>2019-05-30T08:53:08Z</time>
      </trkpt>
      <trkpt lat="42.480442" lon="1.965356">
        <ele>1383.617</ele>
        <time>2019-05-30T08:53:09Z</time>
      </trkpt>
      <trkpt lat="42.480478" lon="1.965465">
        <ele>1383.095</ele>
        <time>2019-05-30T08:53:10Z</time>
      </trkpt>
      <trkpt lat="42.480515" lon="1.965574">
        <ele>1382.640</ele>
        <time>2019-05-30T08:53:11Z</time>
      </trkpt>
      <trkpt lat="42.480562" lon="1.965681">
        <ele>1382.218</ele>
        <time>2019-05-30T08:53:12Z</time>
      </trkpt>
      <trkpt lat="42.480673" lon="1.965868">
        <ele>1381.298</ele>
        <time>2019-05-30T08:53:14Z</time>
      </trkpt>
      <trkpt lat="42.480813" lon="1.966023">
        <ele>1380.217</ele>
        <time>2019-05-30T08:53:16Z</time>
      </trkpt>
      <trkpt lat="42.480891" lon="1.966091">
        <ele>1379.808</ele>
        <time>2019-05-30T08:53:17Z</time>
      </trkpt>
      <trkpt lat="42.480973" lon="1.966152">
        <ele>1379.484</ele>
        <time>2019-05-30T08:53:18Z</time>
      </trkpt>
      <trkpt lat="42.481148" lon="1.966270">
        <ele>1378.878</ele>
        <time>2019-05-30T08:53:20Z</time>
      </trkpt>
      <trkpt lat="42.481333" lon="1.966369">
        <ele>1377.664</ele>
        <time>2019-05-30T08:53:22Z</time>
      </trkpt>
      <trkpt lat="42.481430" lon="1.966410">
        <ele>1376.842</ele>
        <time>2019-05-30T08:53:23Z</time>
      </trkpt>
      <trkpt lat="42.481532" lon="1.966444">
        <ele>1376.095</ele>
        <time>2019-05-30T08:53:24Z</time>
      </trkpt>
      <trkpt lat="42.481844" lon="1.966529">
        <ele>1374.669</ele>
        <time>2019-05-30T08:53:27Z</time>
      </trkpt>
      <trkpt lat="42.481952" lon="1.966553">
        <ele>1374.087</ele>
        <time>2019-05-30T08:53:28Z</time>
      </trkpt>
      <trkpt lat="42.482171" lon="1.966587">
        <ele>1373.272</ele>
        <time>2019-05-30T08:53:30Z</time>
      </trkpt>
      <trkpt lat="42.482282" lon="1.966602">
        <ele>1371.872</ele>
        <time>2019-05-30T08:53:31Z</time>
      </trkpt>
      <trkpt lat="42.482504" lon="1.966615">
        <ele>1370.013</ele>
        <time>2019-05-30T08:53:33Z</time>
      </trkpt>
      <trkpt lat="42.482613" lon="1.966606">
        <ele>1369.614</ele>
        <time>2019-05-30T08:53:34Z</time>
      </trkpt>
      <trkpt lat="42.482723" lon="1.966585">
        <ele>1368.808</ele>
        <time>2019-05-30T08:53:35Z</time>
      </trkpt>
      <trkpt lat="42.482943" lon="1.966517">
        <ele>1367.490</ele>
        <time>2019-05-30T08:53:37Z</time>
      </trkpt>
      <trkpt lat="42.483047" lon="1.966478">
        <ele>1366.894</ele>
        <time>2019-05-30T08:53:38Z</time>
      </trkpt>
      <trkpt lat="42.483259" lon="1.966421">
        <ele>1366.220</ele>
        <time>2019-05-30T08:53:40Z</time>
      </trkpt>
      <trkpt lat="42.483476" lon="1.966408">
        <ele>1365.098</ele>
        <time>2019-05-30T08:53:42Z</time>
      </trkpt>
      <trkpt lat="42.483688" lon="1.966390">
        <ele>1363.871</ele>
        <time>2019-05-30T08:53:44Z</time>
      </trkpt>
      <trkpt lat="42.483869" lon="1.966355">
        <ele>1363.235</ele>
        <time>2019-05-30T08:53:46Z</time>
      </trkpt>
      <trkpt lat="42.484215" lon="1.966240">
        <ele>1362.673</ele>
        <time>2019-05-30T08:53:50Z</time>
      </trkpt>
      <trkpt lat="42.484394" lon="1.966202">
        <ele>1361.648</ele>
        <time>2019-05-30T08:53:52Z</time>
      </trkpt>
      <trkpt lat="42.484486" lon="1.966200">
        <ele>1361.447</ele>
        <time>2019-05-30T08:53:53Z</time>
      </trkpt>
      <trkpt lat="42.484664" lon="1.966230">
        <ele>1359.829</ele>
        <time>2019-05-30T08:53:55Z</time>
      </trkpt>
      <trkpt lat="42.484751" lon="1.966255">
        <ele>1359.421</ele>
        <time>2019-05-30T08:53:56Z</time>
      </trkpt>
      <trkpt lat="42.484922" lon="1.966281">
        <ele>1358.608</ele>
        <time>2019-05-30T08:53:58Z</time>
      </trkpt>
      <trkpt lat="42.485006" lon="1.966269">
        <ele>1358.217</ele>
        <time>2019-05-30T08:53:59Z</time>
      </trkpt>
      <trkpt lat="42.485165" lon="1.966196">
        <ele>1357.471</ele>
        <time>2019-05-30T08:54:01Z</time>
      </trkpt>
      <trkpt lat="42.485238" lon="1.966139">
        <ele>1357.097</ele>
        <time>2019-05-30T08:54:02Z</time>
      </trkpt>
      <trkpt lat="42.485366" lon="1.965992">
        <ele>1356.435</ele>
        <time>2019-05-30T08:54:04Z</time>
      </trkpt>
      <trkpt lat="42.485422" lon="1.965909">
        <ele>1356.048</ele>
        <time>2019-05-30T08:54:05Z</time>
      </trkpt>
      <trkpt lat="42.485478" lon="1.965824">
        <ele>1355.672</ele>
        <time>2019-05-30T08:54:06Z</time>
      </trkpt>
      <trkpt lat="42.485777" lon="1.965447">
        <ele>1355.260</ele>
        <time>2019-05-30T08:54:11Z</time>
      </trkpt>
      <trkpt lat="42.485843" lon="1.965388">
        <ele>1355.245</ele>
        <time>2019-05-30T08:54:12Z</time>
      </trkpt>
      <trkpt lat="42.486116" lon="1.965190">
        <ele>1356.219</ele>
        <time>2019-05-30T08:54:16Z</time>
      </trkpt>
      <trkpt lat="42.486178" lon="1.965135">
        <ele>1356.409</ele>
        <time>2019-05-30T08:54:17Z</time>
      </trkpt>
      <trkpt lat="42.486289" lon="1.965020">
        <ele>1356.619</ele>
        <time>2019-05-30T08:54:19Z</time>
      </trkpt>
      <trkpt lat="42.486365" lon="1.964871">
        <ele>1356.808</ele>
        <time>2019-05-30T08:54:21Z</time>
      </trkpt>
      <trkpt lat="42.486426" lon="1.964527">
        <ele>1357.044</ele>
        <time>2019-05-30T08:54:25Z</time>
      </trkpt>
      <trkpt lat="42.486406" lon="1.964361">
        <ele>1357.298</ele>
        <time>2019-05-30T08:54:27Z</time>
      </trkpt>
      <trkpt lat="42.486351" lon="1.964217">
        <ele>1357.454</ele>
        <time>2019-05-30T08:54:29Z</time>
      </trkpt>
      <trkpt lat="42.486221" lon="1.964040">
        <ele>1357.692</ele>
        <time>2019-05-30T08:54:32Z</time>
      </trkpt>
      <trkpt lat="42.486127" lon="1.963924">
        <ele>1357.635</ele>
        <time>2019-05-30T08:54:34Z</time>
      </trkpt>
      <trkpt lat="42.485699" lon="1.963353">
        <ele>1356.469</ele>
        <time>2019-05-30T08:54:43Z</time>
      </trkpt>
      <trkpt lat="42.485647" lon="1.963292">
        <ele>1356.067</ele>
        <time>2019-05-30T08:54:44Z</time>
      </trkpt>
      <trkpt lat="42.485452" lon="1.963031">
        <ele>1355.082</ele>
        <time>2019-05-30T08:54:48Z</time>
      </trkpt>
      <trkpt lat="42.485354" lon="1.962898">
        <ele>1354.441</ele>
        <time>2019-05-30T08:54:50Z</time>
      </trkpt>
      <trkpt lat="42.485203" lon="1.962699">
        <ele>1354.081</ele>
        <time>2019-05-30T08:54:53Z</time>
      </trkpt>
      <trkpt lat="42.484991" lon="1.962436">
        <ele>1352.809</ele>
        <time>2019-05-30T08:54:57Z</time>
      </trkpt>
      <trkpt lat="42.484692" lon="1.962045">
        <ele>1352.808</ele>
        <time>2019-05-30T08:55:03Z</time>
      </trkpt>
      <trkpt lat="42.484392" lon="1.961650">
        <ele>1351.867</ele>
        <time>2019-05-30T08:55:09Z</time>
      </trkpt>
      <trkpt lat="42.484241" lon="1.961452">
        <ele>1350.881</ele>
        <time>2019-05-30T08:55:12Z</time>
      </trkpt>
      <trkpt lat="42.483823" lon="1.960925">
        <ele>1350.477</ele>
        <time>2019-05-30T08:55:20Z</time>
      </trkpt>
      <trkpt lat="42.483671" lon="1.960734">
        <ele>1350.285</ele>
        <time>2019-05-30T08:55:23Z</time>
      </trkpt>
      <trkpt lat="42.483576" lon="1.960605">
        <ele>1350.088</ele>
        <time>2019-05-30T08:55:25Z</time>
      </trkpt>
      <trkpt lat="42.483443" lon="1.960419">
        <ele>1349.642</ele>
        <time>2019-05-30T08:55:28Z</time>
      </trkpt>
      <trkpt lat="42.483401" lon="1.960362">
        <ele>1349.470</ele>
        <time>2019-05-30T08:55:29Z</time>
      </trkpt>
      <trkpt lat="42.483200" lon="1.960115">
        <ele>1349.825</ele>
        <time>2019-05-30T08:55:34Z</time>
      </trkpt>
      <trkpt lat="42.483074" lon="1.960002">
        <ele>1349.879</ele>
        <time>2019-05-30T08:55:37Z</time>
      </trkpt>
      <trkpt lat="42.482924" lon="1.959935">
        <ele>1349.605</ele>
        <time>2019-05-30T08:55:40Z</time>
      </trkpt>
      <trkpt lat="42.482869" lon="1.959925">
        <ele>1349.425</ele>
        <time>2019-05-30T08:55:41Z</time>
      </trkpt>
      <trkpt lat="42.482632" lon="1.959905">
        <ele>1349.008</ele>
        <time>2019-05-30T08:55:45Z</time>
      </trkpt>
      <trkpt lat="42.482572" lon="1.959885">
        <ele>1348.440</ele>
        <time>2019-05-30T08:55:46Z</time>
      </trkpt>
      <trkpt lat="42.482407" lon="1.959765">
        <ele>1347.454</ele>
        <time>2019-05-30T08:55:49Z</time>
      </trkpt>
      <trkpt lat="42.482356" lon="1.959712">
        <ele>1347.090</ele>
        <time>2019-05-30T08:55:50Z</time>
      </trkpt>
      <trkpt lat="42.482102" lon="1.959412">
        <ele>1345.838</ele>
        <time>2019-05-30T08:55:55Z</time>
      </trkpt>
      <trkpt lat="42.482048" lon="1.959346">
        <ele>1345.471</ele>
        <time>2019-05-30T08:55:56Z</time>
      </trkpt>
      <trkpt lat="42.481939" lon="1.959204">
        <ele>1344.625</ele>
        <time>2019-05-30T08:55:58Z</time>
      </trkpt>
      <trkpt lat="42.481819" lon="1.959057">
        <ele>1343.453</ele>
        <time>2019-05-30T08:56:00Z</time>
      </trkpt>
      <trkpt lat="42.481690" lon="1.958920">
        <ele>1342.818</ele>
        <time>2019-05-30T08:56:02Z</time>
      </trkpt>
      <trkpt lat="42.481621" lon="1.958862">
        <ele>1342.253</ele>
        <time>2019-05-30T08:56:03Z</time>
      </trkpt>
      <trkpt lat="42.481469" lon="1.958763">
        <ele>1341.004</ele>
        <time>2019-05-30T08:56:05Z</time>
      </trkpt>
      <trkpt lat="42.481308" lon="1.958666">
        <ele>1340.214</ele>
        <time>2019-05-30T08:56:07Z</time>
      </trkpt>
      <trkpt lat="42.481229" lon="1.958619">
        <ele>1339.608</ele>
        <time>2019-05-30T08:56:08Z</time>
      </trkpt>
      <trkpt lat="42.481070" lon="1.958528">
        <ele>1338.418</ele>
        <time>2019-05-30T08:56:10Z</time>
      </trkpt>
      <trkpt lat="42.480592" lon="1.958250">
        <ele>1337.252</ele>
        <time>2019-05-30T08:56:16Z</time>
      </trkpt>
      <trkpt lat="42.480510" lon="1.958199">
        <ele>1337.088</ele>
        <time>2019-05-30T08:56:17Z</time>
      </trkpt>
      <trkpt lat="42.480347" lon="1.958087">
        <ele>1335.076</ele>
        <time>2019-05-30T08:56:19Z</time>
      </trkpt>
      <trkpt lat="42.480194" lon="1.957953">
        <ele>1333.849</ele>
        <time>2019-05-30T08:56:21Z</time>
      </trkpt>
      <trkpt lat="42.480045" lon="1.957800">
        <ele>1333.423</ele>
        <time>2019-05-30T08:56:23Z</time>
      </trkpt>
      <trkpt lat="42.479903" lon="1.957630">
        <ele>1332.421</ele>
        <time>2019-05-30T08:56:25Z</time>
      </trkpt>
      <trkpt lat="42.479766" lon="1.957447">
        <ele>1331.286</ele>
        <time>2019-05-30T08:56:27Z</time>
      </trkpt>
      <trkpt lat="42.479704" lon="1.957346">
        <ele>1330.689</ele>
        <time>2019-05-30T08:56:28Z</time>
      </trkpt>
      <trkpt lat="42.479643" lon="1.957243">
        <ele>1329.806</ele>
        <time>2019-05-30T08:56:29Z</time>
      </trkpt>
      <trkpt lat="42.479520" lon="1.957044">
        <ele>1328.626</ele>
        <time>2019-05-30T08:56:31Z</time>
      </trkpt>
      <trkpt lat="42.479362" lon="1.956746">
        <ele>1328.208</ele>
        <time>2019-05-30T08:56:34Z</time>
      </trkpt>
      <trkpt lat="42.479267" lon="1.956373">
        <ele>1327.211</ele>
        <time>2019-05-30T08:56:37Z</time>
      </trkpt>
      <trkpt lat="42.479204" lon="1.956107">
        <ele>1325.675</ele>
        <time>2019-05-30T08:56:39Z</time>
      </trkpt>
      <trkpt lat="42.479159" lon="1.955978">
        <ele>1324.671</ele>
        <time>2019-05-30T08:56:40Z</time>
      </trkpt>
      <trkpt lat="42.479103" lon="1.955856">
        <ele>1323.639</ele>
        <time>2019-05-30T08:56:41Z</time>
      </trkpt>
      <trkpt lat="42.478980" lon="1.955620">
        <ele>1321.692</ele>
        <time>2019-05-30T08:56:43Z</time>
      </trkpt>
      <trkpt lat="42.478918" lon="1.955506">
        <ele>1320.256</ele>
        <time>2019-05-30T08:56:44Z</time>
      </trkpt>
      <trkpt lat="42.478650" lon="1.955073">
        <ele>1318.444</ele>
        <time>2019-05-30T08:56:48Z</time>
      </trkpt>
      <trkpt lat="42.478513" lon="1.954869">
        <ele>1317.039</ele>
        <time>2019-05-30T08:56:50Z</time>
      </trkpt>
      <trkpt lat="42.478455" lon="1.954757">
        <ele>1317.095</ele>
        <time>2019-05-30T08:56:51Z</time>
      </trkpt>
      <trkpt lat="42.478408" lon="1.954639">
        <ele>1317.249</ele>
        <time>2019-05-30T08:56:52Z</time>
      </trkpt>
      <trkpt lat="42.478331" lon="1.954255">
        <ele>1317.023</ele>
        <time>2019-05-30T08:56:55Z</time>
      </trkpt>
      <trkpt lat="42.478255" lon="1.953433">
        <ele>1316.208</ele>
        <time>2019-05-30T08:57:02Z</time>
      </trkpt>
      <trkpt lat="42.478308" lon="1.953096">
        <ele>1317.432</ele>
        <time>2019-05-30T08:57:06Z</time>
      </trkpt>
      <trkpt lat="42.478326" lon="1.953033">
        <ele>1317.836</ele>
        <time>2019-05-30T08:57:07Z</time>
      </trkpt>
      <trkpt lat="42.478338" lon="1.952974">
        <ele>1318.252</ele>
        <time>2019-05-30T08:57:08Z</time>
      </trkpt>
      <trkpt lat="42.478329" lon="1.952865">
        <ele>1319.050</ele>
        <time>2019-05-30T08:57:10Z</time>
      </trkpt>
      <trkpt lat="42.478208" lon="1.952727">
        <ele>1317.873</ele>
        <time>2019-05-30T08:57:13Z</time>
      </trkpt>
      <trkpt lat="42.478156" lon="1.952675">
        <ele>1317.217</ele>
        <time>2019-05-30T08:57:14Z</time>
      </trkpt>
      <trkpt lat="42.478104" lon="1.952609">
        <ele>1316.435</ele>
        <time>2019-05-30T08:57:15Z</time>
      </trkpt>
      <trkpt lat="42.478051" lon="1.952533">
        <ele>1315.860</ele>
        <time>2019-05-30T08:57:16Z</time>
      </trkpt>
      <trkpt lat="42.477998" lon="1.952452">
        <ele>1315.018</ele>
        <time>2019-05-30T08:57:17Z</time>
      </trkpt>
      <trkpt lat="42.477941" lon="1.952363">
        <ele>1314.298</ele>
        <time>2019-05-30T08:57:18Z</time>
      </trkpt>
      <trkpt lat="42.477830" lon="1.952175">
        <ele>1312.617</ele>
        <time>2019-05-30T08:57:20Z</time>
      </trkpt>
      <trkpt lat="42.477718" lon="1.951974">
        <ele>1311.408</ele>
        <time>2019-05-30T08:57:22Z</time>
      </trkpt>
      <trkpt lat="42.477600" lon="1.951777">
        <ele>1310.044</ele>
        <time>2019-05-30T08:57:24Z</time>
      </trkpt>
      <trkpt lat="42.477480" lon="1.951581">
        <ele>1308.498</ele>
        <time>2019-05-30T08:57:26Z</time>
      </trkpt>
      <trkpt lat="42.477361" lon="1.951394">
        <ele>1306.844</ele>
        <time>2019-05-30T08:57:28Z</time>
      </trkpt>
      <trkpt lat="42.477239" lon="1.951214">
        <ele>1304.642</ele>
        <time>2019-05-30T08:57:30Z</time>
      </trkpt>
      <trkpt lat="42.477172" lon="1.951135">
        <ele>1303.445</ele>
        <time>2019-05-30T08:57:31Z</time>
      </trkpt>
      <trkpt lat="42.477006" lon="1.951027">
        <ele>1302.479</ele>
        <time>2019-05-30T08:57:33Z</time>
      </trkpt>
      <trkpt lat="42.476910" lon="1.951006">
        <ele>1301.087</ele>
        <time>2019-05-30T08:57:34Z</time>
      </trkpt>
      <trkpt lat="42.476719" lon="1.951027">
        <ele>1299.262</ele>
        <time>2019-05-30T08:57:36Z</time>
      </trkpt>
      <trkpt lat="42.476531" lon="1.951112">
        <ele>1297.812</ele>
        <time>2019-05-30T08:57:38Z</time>
      </trkpt>
      <trkpt lat="42.476343" lon="1.951209">
        <ele>1296.232</ele>
        <time>2019-05-30T08:57:40Z</time>
      </trkpt>
      <trkpt lat="42.476143" lon="1.951305">
        <ele>1295.405</ele>
        <time>2019-05-30T08:57:42Z</time>
      </trkpt>
      <trkpt lat="42.476040" lon="1.951352">
        <ele>1294.808</ele>
        <time>2019-05-30T08:57:43Z</time>
      </trkpt>
      <trkpt lat="42.475830" lon="1.951428">
        <ele>1292.614</ele>
        <time>2019-05-30T08:57:45Z</time>
      </trkpt>
      <trkpt lat="42.475723" lon="1.951456">
        <ele>1291.848</ele>
        <time>2019-05-30T08:57:46Z</time>
      </trkpt>
      <trkpt lat="42.475616" lon="1.951465">
        <ele>1291.054</ele>
        <time>2019-05-30T08:57:47Z</time>
      </trkpt>
      <trkpt lat="42.475408" lon="1.951396">
        <ele>1289.852</ele>
        <time>2019-05-30T08:57:49Z</time>
      </trkpt>
      <trkpt lat="42.475198" lon="1.951299">
        <ele>1288.265</ele>
        <time>2019-05-30T08:57:51Z</time>
      </trkpt>
      <trkpt lat="42.474982" lon="1.951210">
        <ele>1287.089</ele>
        <time>2019-05-30T08:57:53Z</time>
      </trkpt>
      <trkpt lat="42.474758" lon="1.951152">
        <ele>1284.867</ele>
        <time>2019-05-30T08:57:55Z</time>
      </trkpt>
      <trkpt lat="42.474532" lon="1.951122">
        <ele>1283.212</ele>
        <time>2019-05-30T08:57:57Z</time>
      </trkpt>
      <trkpt lat="42.474304" lon="1.951109">
        <ele>1281.231</ele>
        <time>2019-05-30T08:57:59Z</time>
      </trkpt>
      <trkpt lat="42.474190" lon="1.951106">
        <ele>1280.261</ele>
        <time>2019-05-30T08:58:00Z</time>
      </trkpt>
      <trkpt lat="42.474079" lon="1.951117">
        <ele>1279.407</ele>
        <time>2019-05-30T08:58:01Z</time>
      </trkpt>
      <trkpt lat="42.473862" lon="1.951171">
        <ele>1277.808</ele>
        <time>2019-05-30T08:58:03Z</time>
      </trkpt>
      <trkpt lat="42.473650" lon="1.951242">
        <ele>1276.036</ele>
        <time>2019-05-30T08:58:05Z</time>
      </trkpt>
      <trkpt lat="42.473543" lon="1.951258">
        <ele>1275.650</ele>
        <time>2019-05-30T08:58:06Z</time>
      </trkpt>
      <trkpt lat="42.473438" lon="1.951249">
        <ele>1275.446</ele>
        <time>2019-05-30T08:58:07Z</time>
      </trkpt>
      <trkpt lat="42.473235" lon="1.951178">
        <ele>1275.044</ele>
        <time>2019-05-30T08:58:09Z</time>
      </trkpt>
      <trkpt lat="42.473140" lon="1.951112">
        <ele>1274.847</ele>
        <time>2019-05-30T08:58:10Z</time>
      </trkpt>
      <trkpt lat="42.472966" lon="1.950939">
        <ele>1273.671</ele>
        <time>2019-05-30T08:58:12Z</time>
      </trkpt>
      <trkpt lat="42.472791" lon="1.950765">
        <ele>1272.669</ele>
        <time>2019-05-30T08:58:14Z</time>
      </trkpt>
      <trkpt lat="42.472609" lon="1.950606">
        <ele>1271.854</ele>
        <time>2019-05-30T08:58:16Z</time>
      </trkpt>
      <trkpt lat="42.472511" lon="1.950545">
        <ele>1271.291</ele>
        <time>2019-05-30T08:58:17Z</time>
      </trkpt>
      <trkpt lat="42.472411" lon="1.950495">
        <ele>1270.881</ele>
        <time>2019-05-30T08:58:18Z</time>
      </trkpt>
      <trkpt lat="42.472308" lon="1.950452">
        <ele>1269.419</ele>
        <time>2019-05-30T08:58:19Z</time>
      </trkpt>
      <trkpt lat="42.472105" lon="1.950357">
        <ele>1267.808</ele>
        <time>2019-05-30T08:58:21Z</time>
      </trkpt>
      <trkpt lat="42.471906" lon="1.950265">
        <ele>1266.612</ele>
        <time>2019-05-30T08:58:23Z</time>
      </trkpt>
      <trkpt lat="42.471815" lon="1.950203">
        <ele>1266.086</ele>
        <time>2019-05-30T08:58:24Z</time>
      </trkpt>
      <trkpt lat="42.471736" lon="1.950115">
        <ele>1265.282</ele>
        <time>2019-05-30T08:58:25Z</time>
      </trkpt>
      <trkpt lat="42.471673" lon="1.950006">
        <ele>1264.230</ele>
        <time>2019-05-30T08:58:26Z</time>
      </trkpt>
      <trkpt lat="42.471587" lon="1.949759">
        <ele>1263.093</ele>
        <time>2019-05-30T08:58:28Z</time>
      </trkpt>
      <trkpt lat="42.471544" lon="1.949637">
        <ele>1262.617</ele>
        <time>2019-05-30T08:58:29Z</time>
      </trkpt>
      <trkpt lat="42.471442" lon="1.949409">
        <ele>1261.895</ele>
        <time>2019-05-30T08:58:31Z</time>
      </trkpt>
      <trkpt lat="42.471306" lon="1.949072">
        <ele>1261.260</ele>
        <time>2019-05-30T08:58:34Z</time>
      </trkpt>
      <trkpt lat="42.471258" lon="1.948956">
        <ele>1260.879</ele>
        <time>2019-05-30T08:58:35Z</time>
      </trkpt>
      <trkpt lat="42.471089" lon="1.948627">
        <ele>1259.205</ele>
        <time>2019-05-30T08:58:38Z</time>
      </trkpt>
      <trkpt lat="42.471029" lon="1.948524">
        <ele>1258.425</ele>
        <time>2019-05-30T08:58:39Z</time>
      </trkpt>
      <trkpt lat="42.470976" lon="1.948415">
        <ele>1257.608</ele>
        <time>2019-05-30T08:58:40Z</time>
      </trkpt>
      <trkpt lat="42.470876" lon="1.948190">
        <ele>1256.490</ele>
        <time>2019-05-30T08:58:42Z</time>
      </trkpt>
      <trkpt lat="42.470819" lon="1.948085">
        <ele>1255.844</ele>
        <time>2019-05-30T08:58:43Z</time>
      </trkpt>
      <trkpt lat="42.470691" lon="1.947893">
        <ele>1255.440</ele>
        <time>2019-05-30T08:58:45Z</time>
      </trkpt>
      <trkpt lat="42.470543" lon="1.947723">
        <ele>1254.668</ele>
        <time>2019-05-30T08:58:47Z</time>
      </trkpt>
      <trkpt lat="42.470462" lon="1.947645">
        <ele>1254.271</ele>
        <time>2019-05-30T08:58:48Z</time>
      </trkpt>
      <trkpt lat="42.470293" lon="1.947507">
        <ele>1252.665</ele>
        <time>2019-05-30T08:58:50Z</time>
      </trkpt>
      <trkpt lat="42.470115" lon="1.947379">
        <ele>1251.833</ele>
        <time>2019-05-30T08:58:52Z</time>
      </trkpt>
      <trkpt lat="42.470028" lon="1.947310">
        <ele>1251.278</ele>
        <time>2019-05-30T08:58:53Z</time>
      </trkpt>
      <trkpt lat="42.469872" lon="1.947145">
        <ele>1249.869</ele>
        <time>2019-05-30T08:58:55Z</time>
      </trkpt>
      <trkpt lat="42.469807" lon="1.947045">
        <ele>1249.604</ele>
        <time>2019-05-30T08:58:56Z</time>
      </trkpt>
      <trkpt lat="42.469613" lon="1.946731">
        <ele>1248.424</ele>
        <time>2019-05-30T08:58:59Z</time>
      </trkpt>
      <trkpt lat="42.469486" lon="1.946508">
        <ele>1247.008</ele>
        <time>2019-05-30T08:59:01Z</time>
      </trkpt>
      <trkpt lat="42.469434" lon="1.946389">
        <ele>1246.429</ele>
        <time>2019-05-30T08:59:02Z</time>
      </trkpt>
      <trkpt lat="42.469392" lon="1.946262">
        <ele>1245.823</ele>
        <time>2019-05-30T08:59:03Z</time>
      </trkpt>
      <trkpt lat="42.469334" lon="1.945995">
        <ele>1244.059</ele>
        <time>2019-05-30T08:59:05Z</time>
      </trkpt>
      <trkpt lat="42.469288" lon="1.945729">
        <ele>1242.697</ele>
        <time>2019-05-30T08:59:07Z</time>
      </trkpt>
      <trkpt lat="42.469218" lon="1.945333">
        <ele>1241.490</ele>
        <time>2019-05-30T08:59:10Z</time>
      </trkpt>
      <trkpt lat="42.469167" lon="1.945070">
        <ele>1240.464</ele>
        <time>2019-05-30T08:59:12Z</time>
      </trkpt>
      <trkpt lat="42.469110" lon="1.944814">
        <ele>1239.282</ele>
        <time>2019-05-30T08:59:14Z</time>
      </trkpt>
      <trkpt lat="42.469080" lon="1.944689">
        <ele>1239.237</ele>
        <time>2019-05-30T08:59:15Z</time>
      </trkpt>
      <trkpt lat="42.468998" lon="1.944459">
        <ele>1239.452</ele>
        <time>2019-05-30T08:59:17Z</time>
      </trkpt>
      <trkpt lat="42.468942" lon="1.944358">
        <ele>1239.053</ele>
        <time>2019-05-30T08:59:18Z</time>
      </trkpt>
      <trkpt lat="42.468738" lon="1.944107">
        <ele>1238.008</ele>
        <time>2019-05-30T08:59:21Z</time>
      </trkpt>
      <trkpt lat="42.468662" lon="1.944041">
        <ele>1237.608</ele>
        <time>2019-05-30T08:59:22Z</time>
      </trkpt>
      <trkpt lat="42.468584" lon="1.943978">
        <ele>1237.268</ele>
        <time>2019-05-30T08:59:23Z</time>
      </trkpt>
      <trkpt lat="42.468507" lon="1.943918">
        <ele>1236.872</ele>
        <time>2019-05-30T08:59:24Z</time>
      </trkpt>
      <trkpt lat="42.468206" lon="1.943665">
        <ele>1235.838</ele>
        <time>2019-05-30T08:59:28Z</time>
      </trkpt>
      <trkpt lat="42.468136" lon="1.943588">
        <ele>1235.456</ele>
        <time>2019-05-30T08:59:29Z</time>
      </trkpt>
      <trkpt lat="42.467935" lon="1.943347">
        <ele>1234.819</ele>
        <time>2019-05-30T08:59:32Z</time>
      </trkpt>
      <trkpt lat="42.467691" lon="1.943006">
        <ele>1233.643</ele>
        <time>2019-05-30T08:59:36Z</time>
      </trkpt>
      <trkpt lat="42.467630" lon="1.942917">
        <ele>1234.061</ele>
        <time>2019-05-30T08:59:37Z</time>
      </trkpt>
      <trkpt lat="42.467323" lon="1.942472">
        <ele>1232.616</ele>
        <time>2019-05-30T08:59:42Z</time>
      </trkpt>
      <trkpt lat="42.467107" lon="1.942091">
        <ele>1232.075</ele>
        <time>2019-05-30T08:59:46Z</time>
      </trkpt>
      <trkpt lat="42.466976" lon="1.941780">
        <ele>1231.428</ele>
        <time>2019-05-30T08:59:49Z</time>
      </trkpt>
      <trkpt lat="42.466804" lon="1.941368">
        <ele>1230.420</ele>
        <time>2019-05-30T08:59:53Z</time>
      </trkpt>
      <trkpt lat="42.466622" lon="1.940994">
        <ele>1229.408</ele>
        <time>2019-05-30T08:59:57Z</time>
      </trkpt>
      <trkpt lat="42.466560" lon="1.940920">
        <ele>1229.070</ele>
        <time>2019-05-30T08:59:58Z</time>
      </trkpt>
      <trkpt lat="42.466278" lon="1.940665">
        <ele>1228.094</ele>
        <time>2019-05-30T09:00:02Z</time>
      </trkpt>
      <trkpt lat="42.466140" lon="1.940545">
        <ele>1227.640</ele>
        <time>2019-05-30T09:00:04Z</time>
      </trkpt>
      <trkpt lat="42.465784" lon="1.940206">
        <ele>1228.058</ele>
        <time>2019-05-30T09:00:10Z</time>
      </trkpt>
      <trkpt lat="42.465378" lon="1.939816">
        <ele>1228.271</ele>
        <time>2019-05-30T09:00:18Z</time>
      </trkpt>
      <trkpt lat="42.464923" lon="1.939391">
        <ele>1229.045</ele>
        <time>2019-05-30T09:00:27Z</time>
      </trkpt>
      <trkpt lat="42.464871" lon="1.939345">
        <ele>1229.273</ele>
        <time>2019-05-30T09:00:28Z</time>
      </trkpt>
      <trkpt lat="42.464716" lon="1.939225">
        <ele>1229.468</ele>
        <time>2019-05-30T09:00:31Z</time>
      </trkpt>
      <trkpt lat="42.464551" lon="1.939162">
        <ele>1229.627</ele>
        <time>2019-05-30T09:00:34Z</time>
      </trkpt>
      <trkpt lat="42.464495" lon="1.939157">
        <ele>1229.468</ele>
        <time>2019-05-30T09:00:35Z</time>
      </trkpt>
      <trkpt lat="42.464378" lon="1.939181">
        <ele>1229.014</ele>
        <time>2019-05-30T09:00:37Z</time>
      </trkpt>
      <trkpt lat="42.464126" lon="1.939256">
        <ele>1228.608</ele>
        <time>2019-05-30T09:00:41Z</time>
      </trkpt>
      <trkpt lat="42.463996" lon="1.939295">
        <ele>1228.095</ele>
        <time>2019-05-30T09:00:43Z</time>
      </trkpt>
      <trkpt lat="42.463930" lon="1.939305">
        <ele>1228.029</ele>
        <time>2019-05-30T09:00:44Z</time>
      </trkpt>
      <trkpt lat="42.463795" lon="1.939307">
        <ele>1227.615</ele>
        <time>2019-05-30T09:00:46Z</time>
      </trkpt>
      <trkpt lat="42.463661" lon="1.939293">
        <ele>1226.673</ele>
        <time>2019-05-30T09:00:48Z</time>
      </trkpt>
      <trkpt lat="42.463597" lon="1.939288">
        <ele>1226.056</ele>
        <time>2019-05-30T09:00:49Z</time>
      </trkpt>
      <trkpt lat="42.463534" lon="1.939292">
        <ele>1225.890</ele>
        <time>2019-05-30T09:00:50Z</time>
      </trkpt>
      <trkpt lat="42.463340" lon="1.939355">
        <ele>1226.048</ele>
        <time>2019-05-30T09:00:53Z</time>
      </trkpt>
      <trkpt lat="42.463177" lon="1.939273">
        <ele>1225.833</ele>
        <time>2019-05-30T09:00:56Z</time>
      </trkpt>
      <trkpt lat="42.463123" lon="1.939057">
        <ele>1225.449</ele>
        <time>2019-05-30T09:00:59Z</time>
      </trkpt>
      <trkpt lat="42.463103" lon="1.938985">
        <ele>1225.202</ele>
        <time>2019-05-30T09:01:00Z</time>
      </trkpt>
      <trkpt lat="42.463004" lon="1.938698">
        <ele>1225.022</ele>
        <time>2019-05-30T09:01:04Z</time>
      </trkpt>
      <trkpt lat="42.462926" lon="1.938456">
        <ele>1224.208</ele>
        <time>2019-05-30T09:01:07Z</time>
      </trkpt>
      <trkpt lat="42.462866" lon="1.938284">
        <ele>1223.237</ele>
        <time>2019-05-30T09:01:09Z</time>
      </trkpt>
      <trkpt lat="42.462829" lon="1.938198">
        <ele>1222.661</ele>
        <time>2019-05-30T09:01:10Z</time>
      </trkpt>
      <trkpt lat="42.462792" lon="1.938111">
        <ele>1222.087</ele>
        <time>2019-05-30T09:01:11Z</time>
      </trkpt>
      <trkpt lat="42.462680" lon="1.937840">
        <ele>1220.845</ele>
        <time>2019-05-30T09:01:14Z</time>
      </trkpt>
      <trkpt lat="42.462576" lon="1.937564">
        <ele>1220.668</ele>
        <time>2019-05-30T09:01:17Z</time>
      </trkpt>
      <trkpt lat="42.462454" lon="1.937296">
        <ele>1219.272</ele>
        <time>2019-05-30T09:01:20Z</time>
      </trkpt>
      <trkpt lat="42.462371" lon="1.937126">
        <ele>1218.270</ele>
        <time>2019-05-30T09:01:22Z</time>
      </trkpt>
      <trkpt lat="42.462322" lon="1.937049">
        <ele>1218.025</ele>
        <time>2019-05-30T09:01:23Z</time>
      </trkpt>
      <trkpt lat="42.462221" lon="1.936938">
        <ele>1217.676</ele>
        <time>2019-05-30T09:01:25Z</time>
      </trkpt>
      <trkpt lat="42.462152" lon="1.936883">
        <ele>1218.490</ele>
        <time>2019-05-30T09:01:27Z</time>
      </trkpt>
      <trkpt lat="42.462122" lon="1.936873">
        <ele>1218.819</ele>
        <time>2019-05-30T09:01:28Z</time>
      </trkpt>
      <trkpt lat="42.461917" lon="1.936888">
        <ele>1217.408</ele>
        <time>2019-05-30T09:01:33Z</time>
      </trkpt>
      <trkpt lat="42.461868" lon="1.936911">
        <ele>1216.870</ele>
        <time>2019-05-30T09:01:34Z</time>
      </trkpt>
      <trkpt lat="42.461781" lon="1.936990">
        <ele>1216.244</ele>
        <time>2019-05-30T09:01:36Z</time>
      </trkpt>
      <trkpt lat="42.461623" lon="1.937170">
        <ele>1216.450</ele>
        <time>2019-05-30T09:01:40Z</time>
      </trkpt>
      <trkpt lat="42.461585" lon="1.937195">
        <ele>1216.418</ele>
        <time>2019-05-30T09:01:41Z</time>
      </trkpt>
      <trkpt lat="42.461500" lon="1.937121">
        <ele>1216.411</ele>
        <time>2019-05-30T09:01:44Z</time>
      </trkpt>
      <trkpt lat="42.461484" lon="1.937008">
        <ele>1216.055</ele>
        <time>2019-05-30T09:01:46Z</time>
      </trkpt>
      <trkpt lat="42.461473" lon="1.936950">
        <ele>1216.093</ele>
        <time>2019-05-30T09:01:47Z</time>
      </trkpt>
      <trkpt lat="42.461455" lon="1.936895">
        <ele>1216.278</ele>
        <time>2019-05-30T09:01:48Z</time>
      </trkpt>
      <trkpt lat="42.461435" lon="1.936844">
        <ele>1215.048</ele>
        <time>2019-05-30T09:01:49Z</time>
      </trkpt>
      <trkpt lat="42.461367" lon="1.936705">
        <ele>1217.061</ele>
        <time>2019-05-30T09:01:52Z</time>
      </trkpt>
      <trkpt lat="42.461318" lon="1.936632">
        <ele>1216.617</ele>
        <time>2019-05-30T09:01:54Z</time>
      </trkpt>
      <trkpt lat="42.461132" lon="1.936362">
        <ele>1218.008</ele>
        <time>2019-05-30T09:02:02Z</time>
      </trkpt>
      <trkpt lat="42.461014" lon="1.936238">
        <ele>1219.247</ele>
        <time>2019-05-30T09:02:07Z</time>
      </trkpt>
      <trkpt lat="42.460936" lon="1.936187">
        <ele>1219.611</ele>
        <time>2019-05-30T09:02:10Z</time>
      </trkpt>
      <trkpt lat="42.460755" lon="1.936131">
        <ele>1220.267</ele>
        <time>2019-05-30T09:02:16Z</time>
      </trkpt>
      <trkpt lat="42.460696" lon="1.936126">
        <ele>1220.425</ele>
        <time>2019-05-30T09:02:18Z</time>
      </trkpt>
      <trkpt lat="42.460486" lon="1.936114">
        <ele>1221.278</ele>
        <time>2019-05-30T09:02:25Z</time>
      </trkpt>
      <trkpt lat="42.460393" lon="1.936108">
        <ele>1221.692</ele>
        <time>2019-05-30T09:02:28Z</time>
      </trkpt>
      <trkpt lat="42.460250" lon="1.936099">
        <ele>1222.240</ele>
        <time>2019-05-30T09:02:33Z</time>
      </trkpt>
      <trkpt lat="42.460220" lon="1.936096">
        <ele>1222.245</ele>
        <time>2019-05-30T09:02:34Z</time>
      </trkpt>
      <trkpt lat="42.460099" lon="1.936091">
        <ele>1223.062</ele>
        <time>2019-05-30T09:02:38Z</time>
      </trkpt>
      <trkpt lat="42.460039" lon="1.936090">
        <ele>1223.483</ele>
        <time>2019-05-30T09:02:40Z</time>
      </trkpt>
      <trkpt lat="42.459829" lon="1.936086">
        <ele>1224.211</ele>
        <time>2019-05-30T09:02:47Z</time>
      </trkpt>
      <trkpt lat="42.459737" lon="1.936082">
        <ele>1224.608</ele>
        <time>2019-05-30T09:02:50Z</time>
      </trkpt>
      <trkpt lat="42.459528" lon="1.936068">
        <ele>1225.439</ele>
        <time>2019-05-30T09:02:57Z</time>
      </trkpt>
      <trkpt lat="42.459469" lon="1.936060">
        <ele>1225.643</ele>
        <time>2019-05-30T09:02:59Z</time>
      </trkpt>
      <trkpt lat="42.459300" lon="1.936021">
        <ele>1225.689</ele>
        <time>2019-05-30T09:03:05Z</time>
      </trkpt>
      <trkpt lat="42.459129" lon="1.935956">
        <ele>1226.867</ele>
        <time>2019-05-30T09:03:12Z</time>
      </trkpt>
      <trkpt lat="42.459080" lon="1.935933">
        <ele>1227.270</ele>
        <time>2019-05-30T09:03:14Z</time>
      </trkpt>
      <trkpt lat="42.458983" lon="1.935891">
        <ele>1227.834</ele>
        <time>2019-05-30T09:03:18Z</time>
      </trkpt>
      <trkpt lat="42.458888" lon="1.935849">
        <ele>1228.222</ele>
        <time>2019-05-30T09:03:22Z</time>
      </trkpt>
      <trkpt lat="42.458784" lon="1.935814">
        <ele>1228.897</ele>
        <time>2019-05-30T09:03:26Z</time>
      </trkpt>
      <trkpt lat="42.458579" lon="1.935756">
        <ele>1229.824</ele>
        <time>2019-05-30T09:03:34Z</time>
      </trkpt>
      <trkpt lat="42.458552" lon="1.935749">
        <ele>1230.004</ele>
        <time>2019-05-30T09:03:35Z</time>
      </trkpt>
      <trkpt lat="42.458372" lon="1.935741">
        <ele>1231.014</ele>
        <time>2019-05-30T09:03:42Z</time>
      </trkpt>
      <trkpt lat="42.458211" lon="1.935735">
        <ele>1229.608</ele>
        <time>2019-05-30T09:03:48Z</time>
      </trkpt>
      <trkpt lat="42.458183" lon="1.935737">
        <ele>1231.445</ele>
        <time>2019-05-30T09:03:49Z</time>
      </trkpt>
      <trkpt lat="42.458128" lon="1.935736">
        <ele>1230.879</ele>
        <time>2019-05-30T09:03:51Z</time>
      </trkpt>
      <trkpt lat="42.458050" lon="1.935733">
        <ele>1232.825</ele>
        <time>2019-05-30T09:03:54Z</time>
      </trkpt>
      <trkpt lat="42.457920" lon="1.935743">
        <ele>1232.263</ele>
        <time>2019-05-30T09:03:59Z</time>
      </trkpt>
      <trkpt lat="42.457669" lon="1.935750">
        <ele>1233.856</ele>
        <time>2019-05-30T09:04:09Z</time>
      </trkpt>
      <trkpt lat="42.457436" lon="1.935770">
        <ele>1234.860</ele>
        <time>2019-05-30T09:04:18Z</time>
      </trkpt>
      <trkpt lat="42.457410" lon="1.935774">
        <ele>1235.078</ele>
        <time>2019-05-30T09:04:19Z</time>
      </trkpt>
      <trkpt lat="42.457200" lon="1.935831">
        <ele>1235.843</ele>
        <time>2019-05-30T09:04:27Z</time>
      </trkpt>
      <trkpt lat="42.457172" lon="1.935835">
        <ele>1236.064</ele>
        <time>2019-05-30T09:04:28Z</time>
      </trkpt>
      <trkpt lat="42.457013" lon="1.935882">
        <ele>1236.606</ele>
        <time>2019-05-30T09:04:34Z</time>
      </trkpt>
      <trkpt lat="42.456934" lon="1.935910">
        <ele>1237.016</ele>
        <time>2019-05-30T09:04:37Z</time>
      </trkpt>
      <trkpt lat="42.456881" lon="1.935930">
        <ele>1237.008</ele>
        <time>2019-05-30T09:04:39Z</time>
      </trkpt>
      <trkpt lat="42.456771" lon="1.935961">
        <ele>1237.499</ele>
        <time>2019-05-30T09:04:43Z</time>
      </trkpt>
      <trkpt lat="42.456639" lon="1.935999">
        <ele>1238.273</ele>
        <time>2019-05-30T09:04:48Z</time>
      </trkpt>
      <trkpt lat="42.456479" lon="1.936045">
        <ele>1238.819</ele>
        <time>2019-05-30T09:04:54Z</time>
      </trkpt>
      <trkpt lat="42.456243" lon="1.936097">
        <ele>1239.277</ele>
        <time>2019-05-30T09:05:03Z</time>
      </trkpt>
      <trkpt lat="42.456217" lon="1.936098">
        <ele>1239.430</ele>
        <time>2019-05-30T09:05:04Z</time>
      </trkpt>
      <trkpt lat="42.456007" lon="1.936101">
        <ele>1240.624</ele>
        <time>2019-05-30T09:05:12Z</time>
      </trkpt>
      <trkpt lat="42.455979" lon="1.936100">
        <ele>1240.892</ele>
        <time>2019-05-30T09:05:13Z</time>
      </trkpt>
      <trkpt lat="42.455794" lon="1.936104">
        <ele>1241.677</ele>
        <time>2019-05-30T09:05:20Z</time>
      </trkpt>
      <trkpt lat="42.455656" lon="1.936100">
        <ele>1242.224</ele>
        <time>2019-05-30T09:05:25Z</time>
      </trkpt>
      <trkpt lat="42.455460" lon="1.936099">
        <ele>1242.604</ele>
        <time>2019-05-30T09:05:32Z</time>
      </trkpt>
      <trkpt lat="42.455401" lon="1.936098">
        <ele>1242.814</ele>
        <time>2019-05-30T09:05:34Z</time>
      </trkpt>
      <trkpt lat="42.455152" lon="1.936100">
        <ele>1243.808</ele>
        <time>2019-05-30T09:05:43Z</time>
      </trkpt>
      <trkpt lat="42.455125" lon="1.936099">
        <ele>1244.215</ele>
        <time>2019-05-30T09:05:44Z</time>
      </trkpt>
      <trkpt lat="42.454947" lon="1.936094">
        <ele>1245.039</ele>
        <time>2019-05-30T09:05:51Z</time>
      </trkpt>
      <trkpt lat="42.454921" lon="1.936094">
        <ele>1245.275</ele>
        <time>2019-05-30T09:05:52Z</time>
      </trkpt>
      <trkpt lat="42.454738" lon="1.936091">
        <ele>1246.023</ele>
        <time>2019-05-30T09:05:59Z</time>
      </trkpt>
      <trkpt lat="42.454586" lon="1.936067">
        <ele>1246.486</ele>
        <time>2019-05-30T09:06:05Z</time>
      </trkpt>
      <trkpt lat="42.454398" lon="1.935938">
        <ele>1246.840</ele>
        <time>2019-05-30T09:06:13Z</time>
      </trkpt>
      <trkpt lat="42.454334" lon="1.935834">
        <ele>1247.088</ele>
        <time>2019-05-30T09:06:17Z</time>
      </trkpt>
      <trkpt lat="42.454299" lon="1.935737">
        <ele>1247.413</ele>
        <time>2019-05-30T09:06:20Z</time>
      </trkpt>
      <trkpt lat="42.454257" lon="1.935560">
        <ele>1248.042</ele>
        <time>2019-05-30T09:06:25Z</time>
      </trkpt>
      <trkpt lat="42.454252" lon="1.935488">
        <ele>1248.222</ele>
        <time>2019-05-30T09:06:27Z</time>
      </trkpt>
      <trkpt lat="42.454299" lon="1.935215">
        <ele>1249.014</ele>
        <time>2019-05-30T09:06:35Z</time>
      </trkpt>
      <trkpt lat="42.454311" lon="1.935184">
        <ele>1249.208</ele>
        <time>2019-05-30T09:06:36Z</time>
      </trkpt>
      <trkpt lat="42.454441" lon="1.934966">
        <ele>1250.467</ele>
        <time>2019-05-30T09:06:44Z</time>
      </trkpt>
      <trkpt lat="42.454594" lon="1.934726">
        <ele>1251.491</ele>
        <time>2019-05-30T09:06:53Z</time>
      </trkpt>
      <trkpt lat="42.454630" lon="1.934675">
        <ele>1251.697</ele>
        <time>2019-05-30T09:06:55Z</time>
      </trkpt>
      <trkpt lat="42.454682" lon="1.934600">
        <ele>1251.815</ele>
        <time>2019-05-30T09:06:58Z</time>
      </trkpt>
      <trkpt lat="42.454784" lon="1.934435">
        <ele>1252.628</ele>
        <time>2019-05-30T09:07:04Z</time>
      </trkpt>
      <trkpt lat="42.454817" lon="1.934384">
        <ele>1252.622</ele>
        <time>2019-05-30T09:07:06Z</time>
      </trkpt>
      <trkpt lat="42.454950" lon="1.934173">
        <ele>1253.620</ele>
        <time>2019-05-30T09:07:14Z</time>
      </trkpt>
      <trkpt lat="42.454984" lon="1.934118">
        <ele>1253.875</ele>
        <time>2019-05-30T09:07:16Z</time>
      </trkpt>
      <trkpt lat="42.455131" lon="1.933881">
        <ele>1254.288</ele>
        <time>2019-05-30T09:07:25Z</time>
      </trkpt>
      <trkpt lat="42.455196" lon="1.933780">
        <ele>1254.824</ele>
        <time>2019-05-30T09:07:29Z</time>
      </trkpt>
      <trkpt lat="42.455279" lon="1.933644">
        <ele>1255.226</ele>
        <time>2019-05-30T09:07:34Z</time>
      </trkpt>
      <trkpt lat="42.455342" lon="1.933538">
        <ele>1255.808</ele>
        <time>2019-05-30T09:07:38Z</time>
      </trkpt>
      <trkpt lat="42.455413" lon="1.933431">
        <ele>1256.091</ele>
        <time>2019-05-30T09:07:42Z</time>
      </trkpt>
      <trkpt lat="42.455583" lon="1.933160">
        <ele>1256.695</ele>
        <time>2019-05-30T09:07:52Z</time>
      </trkpt>
      <trkpt lat="42.455598" lon="1.933131">
        <ele>1256.821</ele>
        <time>2019-05-30T09:07:53Z</time>
      </trkpt>
      <trkpt lat="42.455707" lon="1.932908">
        <ele>1258.069</ele>
        <time>2019-05-30T09:08:00Z</time>
      </trkpt>
      <trkpt lat="42.455808" lon="1.932642">
        <ele>1258.692</ele>
        <time>2019-05-30T09:08:07Z</time>
      </trkpt>
      <trkpt lat="42.455931" lon="1.932188">
        <ele>1258.486</ele>
        <time>2019-05-30T09:08:19Z</time>
      </trkpt>
      <trkpt lat="42.456024" lon="1.931838">
        <ele>1258.464</ele>
        <time>2019-05-30T09:08:27Z</time>
      </trkpt>
      <trkpt lat="42.456118" lon="1.931456">
        <ele>1259.059</ele>
        <time>2019-05-30T09:08:36Z</time>
      </trkpt>
      <trkpt lat="42.456129" lon="1.931413">
        <ele>1259.058</ele>
        <time>2019-05-30T09:08:37Z</time>
      </trkpt>
      <trkpt lat="42.456251" lon="1.930936">
        <ele>1259.452</ele>
        <time>2019-05-30T09:08:48Z</time>
      </trkpt>
      <trkpt lat="42.456343" lon="1.930590">
        <ele>1259.817</ele>
        <time>2019-05-30T09:08:56Z</time>
      </trkpt>
      <trkpt lat="42.456355" lon="1.930544">
        <ele>1260.008</ele>
        <time>2019-05-30T09:08:57Z</time>
      </trkpt>
      <trkpt lat="42.456462" lon="1.930138">
        <ele>1260.648</ele>
        <time>2019-05-30T09:09:06Z</time>
      </trkpt>
      <trkpt lat="42.456526" lon="1.929862">
        <ele>1261.242</ele>
        <time>2019-05-30T09:09:12Z</time>
      </trkpt>
      <trkpt lat="42.456560" lon="1.929730">
        <ele>1261.488</ele>
        <time>2019-05-30T09:09:15Z</time>
      </trkpt>
      <trkpt lat="42.456672" lon="1.929230">
        <ele>1260.616</ele>
        <time>2019-05-30T09:09:26Z</time>
      </trkpt>
      <trkpt lat="42.456792" lon="1.928649">
        <ele>1261.839</ele>
        <time>2019-05-30T09:09:39Z</time>
      </trkpt>
      <trkpt lat="42.456828" lon="1.928461">
        <ele>1262.293</ele>
        <time>2019-05-30T09:09:43Z</time>
      </trkpt>
      <trkpt lat="42.456892" lon="1.928139">
        <ele>1263.271</ele>
        <time>2019-05-30T09:09:50Z</time>
      </trkpt>
      <trkpt lat="42.456912" lon="1.928046">
        <ele>1263.416</ele>
        <time>2019-05-30T09:09:52Z</time>
      </trkpt>
      <trkpt lat="42.456922" lon="1.927999">
        <ele>1263.485</ele>
        <time>2019-05-30T09:09:53Z</time>
      </trkpt>
      <trkpt lat="42.456998" lon="1.927648">
        <ele>1263.689</ele>
        <time>2019-05-30T09:10:00Z</time>
      </trkpt>
      <trkpt lat="42.457011" lon="1.927590">
        <ele>1263.617</ele>
        <time>2019-05-30T09:10:01Z</time>
      </trkpt>
      <trkpt lat="42.457066" lon="1.927316">
        <ele>1263.608</ele>
        <time>2019-05-30T09:10:06Z</time>
      </trkpt>
      <trkpt lat="42.457173" lon="1.926811">
        <ele>1264.261</ele>
        <time>2019-05-30T09:10:16Z</time>
      </trkpt>
      <trkpt lat="42.457265" lon="1.926361">
        <ele>1264.645</ele>
        <time>2019-05-30T09:10:25Z</time>
      </trkpt>
      <trkpt lat="42.457368" lon="1.925867">
        <ele>1265.021</ele>
        <time>2019-05-30T09:10:35Z</time>
      </trkpt>
      <trkpt lat="42.457458" lon="1.925466">
        <ele>1265.429</ele>
        <time>2019-05-30T09:10:43Z</time>
      </trkpt>
      <trkpt lat="42.457488" lon="1.925320">
        <ele>1265.842</ele>
        <time>2019-05-30T09:10:46Z</time>
      </trkpt>
      <trkpt lat="42.457512" lon="1.925220">
        <ele>1265.816</ele>
        <time>2019-05-30T09:10:48Z</time>
      </trkpt>
      <trkpt lat="42.457606" lon="1.924773">
        <ele>1266.484</ele>
        <time>2019-05-30T09:10:57Z</time>
      </trkpt>
      <trkpt lat="42.457629" lon="1.924675">
        <ele>1266.429</ele>
        <time>2019-05-30T09:10:59Z</time>
      </trkpt>
      <trkpt lat="42.457705" lon="1.924318">
        <ele>1266.864</ele>
        <time>2019-05-30T09:11:06Z</time>
      </trkpt>
      <trkpt lat="42.457809" lon="1.923824">
        <ele>1267.006</ele>
        <time>2019-05-30T09:11:16Z</time>
      </trkpt>
      <trkpt lat="42.457908" lon="1.923369">
        <ele>1266.816</ele>
        <time>2019-05-30T09:11:25Z</time>
      </trkpt>
      <trkpt lat="42.458022" lon="1.922834">
        <ele>1267.008</ele>
        <time>2019-05-30T09:11:36Z</time>
      </trkpt>
      <trkpt lat="42.458053" lon="1.922687">
        <ele>1267.619</ele>
        <time>2019-05-30T09:11:39Z</time>
      </trkpt>
      <trkpt lat="42.458112" lon="1.922408">
        <ele>1267.263</ele>
        <time>2019-05-30T09:11:45Z</time>
      </trkpt>
      <trkpt lat="42.458229" lon="1.921867">
        <ele>1268.029</ele>
        <time>2019-05-30T09:11:56Z</time>
      </trkpt>
      <trkpt lat="42.458241" lon="1.921816">
        <ele>1268.227</ele>
        <time>2019-05-30T09:11:57Z</time>
      </trkpt>
      <trkpt lat="42.458339" lon="1.921354">
        <ele>1268.230</ele>
        <time>2019-05-30T09:12:06Z</time>
      </trkpt>
      <trkpt lat="42.458376" lon="1.921200">
        <ele>1268.614</ele>
        <time>2019-05-30T09:12:09Z</time>
      </trkpt>
      <trkpt lat="42.458464" lon="1.920855">
        <ele>1269.492</ele>
        <time>2019-05-30T09:12:16Z</time>
      </trkpt>
      <trkpt lat="42.458599" lon="1.920503">
        <ele>1269.617</ele>
        <time>2019-05-30T09:12:23Z</time>
      </trkpt>
      <trkpt lat="42.458641" lon="1.920412">
        <ele>1269.831</ele>
        <time>2019-05-30T09:12:25Z</time>
      </trkpt>
      <trkpt lat="42.458781" lon="1.920106">
        <ele>1270.861</ele>
        <time>2019-05-30T09:12:33Z</time>
      </trkpt>
      <trkpt lat="42.458802" lon="1.920063">
        <ele>1271.007</ele>
        <time>2019-05-30T09:12:34Z</time>
      </trkpt>
      <trkpt lat="42.458984" lon="1.919671">
        <ele>1271.408</ele>
        <time>2019-05-30T09:12:43Z</time>
      </trkpt>
      <trkpt lat="42.459138" lon="1.919311">
        <ele>1271.656</ele>
        <time>2019-05-30T09:12:51Z</time>
      </trkpt>
      <trkpt lat="42.459151" lon="1.919217">
        <ele>1272.010</ele>
        <time>2019-05-30T09:12:53Z</time>
      </trkpt>
      <trkpt lat="42.459155" lon="1.919117">
        <ele>1272.056</ele>
        <time>2019-05-30T09:12:55Z</time>
      </trkpt>
      <trkpt lat="42.459182" lon="1.918806">
        <ele>1270.664</ele>
        <time>2019-05-30T09:13:02Z</time>
      </trkpt>
      <trkpt lat="42.459220" lon="1.918715">
        <ele>1269.037</ele>
        <time>2019-05-30T09:13:04Z</time>
      </trkpt>
      <trkpt lat="42.459275" lon="1.918632">
        <ele>1268.041</ele>
        <time>2019-05-30T09:13:06Z</time>
      </trkpt>
      <trkpt lat="42.459298" lon="1.918584">
        <ele>1267.679</ele>
        <time>2019-05-30T09:13:07Z</time>
      </trkpt>
      <trkpt lat="42.459311" lon="1.918530">
        <ele>1266.824</ele>
        <time>2019-05-30T09:13:08Z</time>
      </trkpt>
      <trkpt lat="42.459315" lon="1.918475">
        <ele>1265.083</ele>
        <time>2019-05-30T09:13:09Z</time>
      </trkpt>
      <trkpt lat="42.459308" lon="1.918421">
        <ele>1264.425</ele>
        <time>2019-05-30T09:13:10Z</time>
      </trkpt>
      <trkpt lat="42.459290" lon="1.918373">
        <ele>1263.817</ele>
        <time>2019-05-30T09:13:11Z</time>
      </trkpt>
      <trkpt lat="42.459259" lon="1.918295">
        <ele>1263.008</ele>
        <time>2019-05-30T09:13:13Z</time>
      </trkpt>
      <trkpt lat="42.459249" lon="1.918257">
        <ele>1263.251</ele>
        <time>2019-05-30T09:13:14Z</time>
      </trkpt>
      <trkpt lat="42.459179" lon="1.918161">
        <ele>1261.885</ele>
        <time>2019-05-30T09:13:17Z</time>
      </trkpt>
      <trkpt lat="42.459159" lon="1.918100">
        <ele>1261.061</ele>
        <time>2019-05-30T09:13:18Z</time>
      </trkpt>
      <trkpt lat="42.459142" lon="1.918043">
        <ele>1260.489</ele>
        <time>2019-05-30T09:13:19Z</time>
      </trkpt>
      <trkpt lat="42.459132" lon="1.917989">
        <ele>1260.032</ele>
        <time>2019-05-30T09:13:20Z</time>
      </trkpt>
      <trkpt lat="42.459135" lon="1.917760">
        <ele>1259.676</ele>
        <time>2019-05-30T09:13:25Z</time>
      </trkpt>
      <trkpt lat="42.459147" lon="1.917711">
        <ele>1259.444</ele>
        <time>2019-05-30T09:13:26Z</time>
      </trkpt>
      <trkpt lat="42.459189" lon="1.917537">
        <ele>1258.489</ele>
        <time>2019-05-30T09:13:30Z</time>
      </trkpt>
      <trkpt lat="42.459198" lon="1.917499">
        <ele>1258.264</ele>
        <time>2019-05-30T09:13:31Z</time>
      </trkpt>
      <trkpt lat="42.459191" lon="1.917442">
        <ele>1258.206</ele>
        <time>2019-05-30T09:13:33Z</time>
      </trkpt>
      <trkpt lat="42.459134" lon="1.917393">
        <ele>1257.216</ele>
        <time>2019-05-30T09:13:35Z</time>
      </trkpt>
      <trkpt lat="42.459079" lon="1.917344">
        <ele>1256.008</ele>
        <time>2019-05-30T09:13:37Z</time>
      </trkpt>
      <trkpt lat="42.459048" lon="1.917266">
        <ele>1254.879</ele>
        <time>2019-05-30T09:13:39Z</time>
      </trkpt>
      <trkpt lat="42.459038" lon="1.917218">
        <ele>1254.623</ele>
        <time>2019-05-30T09:13:40Z</time>
      </trkpt>
      <trkpt lat="42.459046" lon="1.917040">
        <ele>1253.859</ele>
        <time>2019-05-30T09:13:43Z</time>
      </trkpt>
      <trkpt lat="42.459051" lon="1.916968">
        <ele>1253.247</ele>
        <time>2019-05-30T09:13:44Z</time>
      </trkpt>
      <trkpt lat="42.459056" lon="1.916887">
        <ele>1252.490</ele>
        <time>2019-05-30T09:13:45Z</time>
      </trkpt>
      <trkpt lat="42.459071" lon="1.916807">
        <ele>1251.854</ele>
        <time>2019-05-30T09:13:46Z</time>
      </trkpt>
      <trkpt lat="42.459106" lon="1.916687">
        <ele>1251.812</ele>
        <time>2019-05-30T09:13:48Z</time>
      </trkpt>
      <trkpt lat="42.459137" lon="1.916601">
        <ele>1253.057</ele>
        <time>2019-05-30T09:13:50Z</time>
      </trkpt>
      <trkpt lat="42.459152" lon="1.916566">
        <ele>1253.611</ele>
        <time>2019-05-30T09:13:51Z</time>
      </trkpt>
      <trkpt lat="42.459179" lon="1.916501">
        <ele>1254.221</ele>
        <time>2019-05-30T09:13:53Z</time>
      </trkpt>
      <trkpt lat="42.459210" lon="1.916440">
        <ele>1254.603</ele>
        <time>2019-05-30T09:13:55Z</time>
      </trkpt>
      <trkpt lat="42.459245" lon="1.916391">
        <ele>1255.808</ele>
        <time>2019-05-30T09:13:57Z</time>
      </trkpt>
      <trkpt lat="42.459265" lon="1.916378">
        <ele>1256.034</ele>
        <time>2019-05-30T09:13:58Z</time>
      </trkpt>
      <trkpt lat="42.459307" lon="1.916373">
        <ele>1256.688</ele>
        <time>2019-05-30T09:14:00Z</time>
      </trkpt>
      <trkpt lat="42.459324" lon="1.916376">
        <ele>1257.084</ele>
        <time>2019-05-30T09:14:01Z</time>
      </trkpt>
      <trkpt lat="42.459394" lon="1.916405">
        <ele>1257.872</ele>
        <time>2019-05-30T09:14:06Z</time>
      </trkpt>
      <trkpt lat="42.459425" lon="1.916412">
        <ele>1258.455</ele>
        <time>2019-05-30T09:14:08Z</time>
      </trkpt>
      <trkpt lat="42.459466" lon="1.916423">
        <ele>1259.499</ele>
        <time>2019-05-30T09:14:11Z</time>
      </trkpt>
      <trkpt lat="42.459497" lon="1.916435">
        <ele>1259.887</ele>
        <time>2019-05-30T09:14:13Z</time>
      </trkpt>
      <trkpt lat="42.459541" lon="1.916450">
        <ele>1260.662</ele>
        <time>2019-05-30T09:14:16Z</time>
      </trkpt>
      <trkpt lat="42.459584" lon="1.916445">
        <ele>1261.236</ele>
        <time>2019-05-30T09:14:19Z</time>
      </trkpt>
      <trkpt lat="42.459593" lon="1.916437">
        <ele>1261.417</ele>
        <time>2019-05-30T09:14:20Z</time>
      </trkpt>
      <trkpt lat="42.459603" lon="1.916423">
        <ele>1261.818</ele>
        <time>2019-05-30T09:14:21Z</time>
      </trkpt>
      <trkpt lat="42.459621" lon="1.916392">
        <ele>1262.208</ele>
        <time>2019-05-30T09:14:23Z</time>
      </trkpt>
      <trkpt lat="42.459643" lon="1.916364">
        <ele>1262.816</ele>
        <time>2019-05-30T09:14:25Z</time>
      </trkpt>
      <trkpt lat="42.459680" lon="1.916325">
        <ele>1263.050</ele>
        <time>2019-05-30T09:14:28Z</time>
      </trkpt>
      <trkpt lat="42.459724" lon="1.916215">
        <ele>1263.836</ele>
        <time>2019-05-30T09:14:34Z</time>
      </trkpt>
      <trkpt lat="42.459729" lon="1.916197">
        <ele>1264.064</ele>
        <time>2019-05-30T09:14:35Z</time>
      </trkpt>
      <trkpt lat="42.459757" lon="1.916120">
        <ele>1265.057</ele>
        <time>2019-05-30T09:14:39Z</time>
      </trkpt>
      <trkpt lat="42.459775" lon="1.916089">
        <ele>1265.251</ele>
        <time>2019-05-30T09:14:41Z</time>
      </trkpt>
      <trkpt lat="42.459811" lon="1.916014">
        <ele>1265.269</ele>
        <time>2019-05-30T09:14:45Z</time>
      </trkpt>
      <trkpt lat="42.459821" lon="1.915997">
        <ele>1264.854</ele>
        <time>2019-05-30T09:14:46Z</time>
      </trkpt>
      <trkpt lat="42.459882" lon="1.915867">
        <ele>1265.224</ele>
        <time>2019-05-30T09:14:52Z</time>
      </trkpt>
      <trkpt lat="42.459929" lon="1.915727">
        <ele>1266.204</ele>
        <time>2019-05-30T09:14:58Z</time>
      </trkpt>
      <trkpt lat="42.459945" lon="1.915688">
        <ele>1266.614</ele>
        <time>2019-05-30T09:15:00Z</time>
      </trkpt>
      <trkpt lat="42.459983" lon="1.915590">
        <ele>1267.208</ele>
        <time>2019-05-30T09:15:05Z</time>
      </trkpt>
      <trkpt lat="42.460016" lon="1.915511">
        <ele>1268.265</ele>
        <time>2019-05-30T09:15:09Z</time>
      </trkpt>
      <trkpt lat="42.460052" lon="1.915438">
        <ele>1268.449</ele>
        <time>2019-05-30T09:15:13Z</time>
      </trkpt>
      <trkpt lat="42.460067" lon="1.915370">
        <ele>1268.875</ele>
        <time>2019-05-30T09:15:16Z</time>
      </trkpt>
      <trkpt lat="42.460127" lon="1.915148">
        <ele>1269.413</ele>
        <time>2019-05-30T09:15:25Z</time>
      </trkpt>
      <trkpt lat="42.460144" lon="1.915100">
        <ele>1269.686</ele>
        <time>2019-05-30T09:15:27Z</time>
      </trkpt>
      <trkpt lat="42.460185" lon="1.914949">
        <ele>1269.460</ele>
        <time>2019-05-30T09:15:31Z</time>
      </trkpt>
      <trkpt lat="42.460205" lon="1.914828">
        <ele>1268.628</ele>
        <time>2019-05-30T09:15:33Z</time>
      </trkpt>
      <trkpt lat="42.460205" lon="1.914752">
        <ele>1267.663</ele>
        <time>2019-05-30T09:15:34Z</time>
      </trkpt>
      <trkpt lat="42.460212" lon="1.914685">
        <ele>1266.877</ele>
        <time>2019-05-30T09:15:35Z</time>
      </trkpt>
      <trkpt lat="42.460216" lon="1.914618">
        <ele>1266.661</ele>
        <time>2019-05-30T09:15:36Z</time>
      </trkpt>
      <trkpt lat="42.460221" lon="1.914325">
        <ele>1266.027</ele>
        <time>2019-05-30T09:15:41Z</time>
      </trkpt>
      <trkpt lat="42.460196" lon="1.914229">
        <ele>1265.808</ele>
        <time>2019-05-30T09:15:43Z</time>
      </trkpt>
      <trkpt lat="42.460169" lon="1.914180">
        <ele>1265.040</ele>
        <time>2019-05-30T09:15:44Z</time>
      </trkpt>
      <trkpt lat="42.460134" lon="1.914129">
        <ele>1264.414</ele>
        <time>2019-05-30T09:15:45Z</time>
      </trkpt>
      <trkpt lat="42.460104" lon="1.914081">
        <ele>1263.630</ele>
        <time>2019-05-30T09:15:46Z</time>
      </trkpt>
      <trkpt lat="42.460059" lon="1.913974">
        <ele>1262.618</ele>
        <time>2019-05-30T09:15:49Z</time>
      </trkpt>
      <trkpt lat="42.460060" lon="1.913940">
        <ele>1262.491</ele>
        <time>2019-05-30T09:15:50Z</time>
      </trkpt>
      <trkpt lat="42.460063" lon="1.913796">
        <ele>1262.675</ele>
        <time>2019-05-30T09:15:54Z</time>
      </trkpt>
      <trkpt lat="42.460073" lon="1.913478">
        <ele>1262.663</ele>
        <time>2019-05-30T09:16:02Z</time>
      </trkpt>
      <trkpt lat="42.460154" lon="1.913294">
        <ele>1262.868</ele>
        <time>2019-05-30T09:16:07Z</time>
      </trkpt>
      <trkpt lat="42.460208" lon="1.913037">
        <ele>1261.684</ele>
        <time>2019-05-30T09:16:12Z</time>
      </trkpt>
      <trkpt lat="42.460220" lon="1.912959">
        <ele>1261.007</ele>
        <time>2019-05-30T09:16:13Z</time>
      </trkpt>
      <trkpt lat="42.460243" lon="1.912769">
        <ele>1259.817</ele>
        <time>2019-05-30T09:16:15Z</time>
      </trkpt>
      <trkpt lat="42.460266" lon="1.912671">
        <ele>1258.408</ele>
        <time>2019-05-30T09:16:16Z</time>
      </trkpt>
      <trkpt lat="42.460290" lon="1.912584">
        <ele>1257.081</ele>
        <time>2019-05-30T09:16:17Z</time>
      </trkpt>
      <trkpt lat="42.460357" lon="1.912382">
        <ele>1257.895</ele>
        <time>2019-05-30T09:16:20Z</time>
      </trkpt>
      <trkpt lat="42.460377" lon="1.912330">
        <ele>1258.071</ele>
        <time>2019-05-30T09:16:21Z</time>
      </trkpt>
      <trkpt lat="42.460403" lon="1.912236">
        <ele>1259.249</ele>
        <time>2019-05-30T09:16:23Z</time>
      </trkpt>
      <trkpt lat="42.460412" lon="1.912192">
        <ele>1259.852</ele>
        <time>2019-05-30T09:16:24Z</time>
      </trkpt>
      <trkpt lat="42.460423" lon="1.912147">
        <ele>1260.286</ele>
        <time>2019-05-30T09:16:25Z</time>
      </trkpt>
      <trkpt lat="42.460485" lon="1.911803">
        <ele>1260.644</ele>
        <time>2019-05-30T09:16:32Z</time>
      </trkpt>
      <trkpt lat="42.460496" lon="1.911366">
        <ele>1261.239</ele>
        <time>2019-05-30T09:16:40Z</time>
      </trkpt>
      <trkpt lat="42.460500" lon="1.911081">
        <ele>1261.264</ele>
        <time>2019-05-30T09:16:45Z</time>
      </trkpt>
      <trkpt lat="42.460501" lon="1.910965">
        <ele>1261.606</ele>
        <time>2019-05-30T09:16:47Z</time>
      </trkpt>
      <trkpt lat="42.460486" lon="1.910726">
        <ele>1260.216</ele>
        <time>2019-05-30T09:16:51Z</time>
      </trkpt>
      <trkpt lat="42.460468" lon="1.910474">
        <ele>1259.208</ele>
        <time>2019-05-30T09:16:55Z</time>
      </trkpt>
      <trkpt lat="42.460463" lon="1.910405">
        <ele>1259.069</ele>
        <time>2019-05-30T09:16:56Z</time>
      </trkpt>
      <trkpt lat="42.460413" lon="1.909974">
        <ele>1257.883</ele>
        <time>2019-05-30T09:17:02Z</time>
      </trkpt>
      <trkpt lat="42.460332" lon="1.909417">
        <ele>1257.859</ele>
        <time>2019-05-30T09:17:10Z</time>
      </trkpt>
      <trkpt lat="42.460266" lon="1.909012">
        <ele>1259.057</ele>
        <time>2019-05-30T09:17:16Z</time>
      </trkpt>
      <trkpt lat="42.460240" lon="1.908889">
        <ele>1259.040</ele>
        <time>2019-05-30T09:17:18Z</time>
      </trkpt>
      <trkpt lat="42.460221" lon="1.908828">
        <ele>1259.014</ele>
        <time>2019-05-30T09:17:19Z</time>
      </trkpt>
      <trkpt lat="42.460208" lon="1.908765">
        <ele>1258.632</ele>
        <time>2019-05-30T09:17:20Z</time>
      </trkpt>
      <trkpt lat="42.460136" lon="1.908463">
        <ele>1259.647</ele>
        <time>2019-05-30T09:17:25Z</time>
      </trkpt>
      <trkpt lat="42.460126" lon="1.908406">
        <ele>1260.079</ele>
        <time>2019-05-30T09:17:26Z</time>
      </trkpt>
      <trkpt lat="42.460089" lon="1.908106">
        <ele>1258.805</ele>
        <time>2019-05-30T09:17:31Z</time>
      </trkpt>
      <trkpt lat="42.460075" lon="1.907995">
        <ele>1260.225</ele>
        <time>2019-05-30T09:17:33Z</time>
      </trkpt>
      <trkpt lat="42.460052" lon="1.907816">
        <ele>1261.008</ele>
        <time>2019-05-30T09:17:37Z</time>
      </trkpt>
      <trkpt lat="42.460041" lon="1.907783">
        <ele>1261.490</ele>
        <time>2019-05-30T09:17:38Z</time>
      </trkpt>
      <trkpt lat="42.459958" lon="1.907676">
        <ele>1261.064</ele>
        <time>2019-05-30T09:17:42Z</time>
      </trkpt>
      <trkpt lat="42.459881" lon="1.907640">
        <ele>1260.470</ele>
        <time>2019-05-30T09:17:44Z</time>
      </trkpt>
      <trkpt lat="42.459785" lon="1.907609">
        <ele>1260.038</ele>
        <time>2019-05-30T09:17:46Z</time>
      </trkpt>
      <trkpt lat="42.459730" lon="1.907604">
        <ele>1259.651</ele>
        <time>2019-05-30T09:17:47Z</time>
      </trkpt>
      <trkpt lat="42.459620" lon="1.907639">
        <ele>1259.285</ele>
        <time>2019-05-30T09:17:49Z</time>
      </trkpt>
      <trkpt lat="42.459561" lon="1.907664">
        <ele>1259.043</ele>
        <time>2019-05-30T09:17:50Z</time>
      </trkpt>
      <trkpt lat="42.459436" lon="1.907722">
        <ele>1257.878</ele>
        <time>2019-05-30T09:17:52Z</time>
      </trkpt>
      <trkpt lat="42.459299" lon="1.907785">
        <ele>1256.653</ele>
        <time>2019-05-30T09:17:54Z</time>
      </trkpt>
      <trkpt lat="42.459227" lon="1.907806">
        <ele>1256.004</ele>
        <time>2019-05-30T09:17:55Z</time>
      </trkpt>
      <trkpt lat="42.459156" lon="1.907823">
        <ele>1255.614</ele>
        <time>2019-05-30T09:17:56Z</time>
      </trkpt>
      <trkpt lat="42.459085" lon="1.907828">
        <ele>1254.808</ele>
        <time>2019-05-30T09:17:57Z</time>
      </trkpt>
      <trkpt lat="42.459010" lon="1.907822">
        <ele>1254.298</ele>
        <time>2019-05-30T09:17:58Z</time>
      </trkpt>
      <trkpt lat="42.458942" lon="1.907802">
        <ele>1253.812</ele>
        <time>2019-05-30T09:17:59Z</time>
      </trkpt>
      <trkpt lat="42.458832" lon="1.907688">
        <ele>1253.048</ele>
        <time>2019-05-30T09:18:01Z</time>
      </trkpt>
      <trkpt lat="42.458790" lon="1.907611">
        <ele>1252.416</ele>
        <time>2019-05-30T09:18:02Z</time>
      </trkpt>
      <trkpt lat="42.458760" lon="1.907523">
        <ele>1252.079</ele>
        <time>2019-05-30T09:18:03Z</time>
      </trkpt>
      <trkpt lat="42.458735" lon="1.907325">
        <ele>1250.623</ele>
        <time>2019-05-30T09:18:05Z</time>
      </trkpt>
      <trkpt lat="42.458738" lon="1.907115">
        <ele>1249.251</ele>
        <time>2019-05-30T09:18:07Z</time>
      </trkpt>
      <trkpt lat="42.458755" lon="1.906906">
        <ele>1248.826</ele>
        <time>2019-05-30T09:18:09Z</time>
      </trkpt>
      <trkpt lat="42.458760" lon="1.906800">
        <ele>1248.837</ele>
        <time>2019-05-30T09:18:10Z</time>
      </trkpt>
      <trkpt lat="42.458767" lon="1.906590">
        <ele>1247.849</ele>
        <time>2019-05-30T09:18:12Z</time>
      </trkpt>
      <trkpt lat="42.458779" lon="1.906378">
        <ele>1246.613</ele>
        <time>2019-05-30T09:18:14Z</time>
      </trkpt>
      <trkpt lat="42.458795" lon="1.906273">
        <ele>1246.608</ele>
        <time>2019-05-30T09:18:15Z</time>
      </trkpt>
      <trkpt lat="42.458826" lon="1.906170">
        <ele>1246.216</ele>
        <time>2019-05-30T09:18:16Z</time>
      </trkpt>
      <trkpt lat="42.458909" lon="1.905976">
        <ele>1245.290</ele>
        <time>2019-05-30T09:18:18Z</time>
      </trkpt>
      <trkpt lat="42.458956" lon="1.905884">
        <ele>1244.826</ele>
        <time>2019-05-30T09:18:19Z</time>
      </trkpt>
      <trkpt lat="42.459003" lon="1.905795">
        <ele>1244.464</ele>
        <time>2019-05-30T09:18:20Z</time>
      </trkpt>
      <trkpt lat="42.459047" lon="1.905706">
        <ele>1243.477</ele>
        <time>2019-05-30T09:18:21Z</time>
      </trkpt>
      <trkpt lat="42.459087" lon="1.905621">
        <ele>1241.461</ele>
        <time>2019-05-30T09:18:22Z</time>
      </trkpt>
      <trkpt lat="42.459147" lon="1.905496">
        <ele>1243.419</ele>
        <time>2019-05-30T09:18:24Z</time>
      </trkpt>
      <trkpt lat="42.459158" lon="1.905447">
        <ele>1244.254</ele>
        <time>2019-05-30T09:18:25Z</time>
      </trkpt>
      <trkpt lat="42.459159" lon="1.905396">
        <ele>1244.892</ele>
        <time>2019-05-30T09:18:26Z</time>
      </trkpt>
      <trkpt lat="42.459137" lon="1.905310">
        <ele>1244.673</ele>
        <time>2019-05-30T09:18:28Z</time>
      </trkpt>
      <trkpt lat="42.459062" lon="1.905190">
        <ele>1244.820</ele>
        <time>2019-05-30T09:18:32Z</time>
      </trkpt>
      <trkpt lat="42.459007" lon="1.905109">
        <ele>1245.608</ele>
        <time>2019-05-30T09:18:37Z</time>
      </trkpt>
      <trkpt lat="42.458997" lon="1.905114">
        <ele>1246.042</ele>
        <time>2019-05-30T09:18:38Z</time>
      </trkpt>
      <trkpt lat="42.458960" lon="1.905100">
        <ele>1246.046</ele>
        <time>2019-05-30T09:18:41Z</time>
      </trkpt>
      <trkpt lat="42.458948" lon="1.905088">
        <ele>1246.072</ele>
        <time>2019-05-30T09:18:42Z</time>
      </trkpt>
      <trkpt lat="42.458634" lon="1.904762">
        <ele>1247.620</ele>
        <time>2019-05-30T09:36:34Z</time>
      </trkpt>
      <trkpt lat="42.458607" lon="1.904718">
        <ele>1247.443</ele>
        <time>2019-05-30T09:36:37Z</time>
      </trkpt>
      <trkpt lat="42.458495" lon="1.904521">
        <ele>1247.087</ele>
        <time>2019-05-30T09:36:53Z</time>
      </trkpt>
      <trkpt lat="42.459160" lon="1.904952">
        <ele>1245.655</ele>
        <time>2019-05-30T09:41:14Z</time>
      </trkpt>
      <trkpt lat="42.459200" lon="1.904990">
        <ele>1245.840</ele>
        <time>2019-05-30T09:41:16Z</time>
      </trkpt>
      <trkpt lat="42.459281" lon="1.904980">
        <ele>1245.454</ele>
        <time>2019-05-30T09:41:19Z</time>
      </trkpt>
      <trkpt lat="42.459309" lon="1.904964">
        <ele>1245.456</ele>
        <time>2019-05-30T09:41:20Z</time>
      </trkpt>
      <trkpt lat="42.459446" lon="1.904815">
        <ele>1245.411</ele>
        <time>2019-05-30T09:41:26Z</time>
      </trkpt>
      <trkpt lat="42.459637" lon="1.904469">
        <ele>1245.208</ele>
        <time>2019-05-30T09:41:35Z</time>
      </trkpt>
      <trkpt lat="42.459771" lon="1.904214">
        <ele>1245.228</ele>
        <time>2019-05-30T09:41:41Z</time>
      </trkpt>
      <trkpt lat="42.459915" lon="1.903950">
        <ele>1246.082</ele>
        <time>2019-05-30T09:41:47Z</time>
      </trkpt>
      <trkpt lat="42.459942" lon="1.903905">
        <ele>1245.848</ele>
        <time>2019-05-30T09:41:48Z</time>
      </trkpt>
      <trkpt lat="42.459996" lon="1.903815">
        <ele>1245.046</ele>
        <time>2019-05-30T09:41:50Z</time>
      </trkpt>
      <trkpt lat="42.460071" lon="1.903671">
        <ele>1244.479</ele>
        <time>2019-05-30T09:41:53Z</time>
      </trkpt>
      <trkpt lat="42.460233" lon="1.903403">
        <ele>1244.843</ele>
        <time>2019-05-30T09:41:59Z</time>
      </trkpt>
      <trkpt lat="42.460258" lon="1.903352">
        <ele>1245.071</ele>
        <time>2019-05-30T09:42:00Z</time>
      </trkpt>
      <trkpt lat="42.460338" lon="1.903198">
        <ele>1244.846</ele>
        <time>2019-05-30T09:42:03Z</time>
      </trkpt>
      <trkpt lat="42.460397" lon="1.903098">
        <ele>1244.694</ele>
        <time>2019-05-30T09:42:05Z</time>
      </trkpt>
      <trkpt lat="42.460455" lon="1.902995">
        <ele>1245.657</ele>
        <time>2019-05-30T09:42:07Z</time>
      </trkpt>
      <trkpt lat="42.460542" lon="1.902850">
        <ele>1246.022</ele>
        <time>2019-05-30T09:42:10Z</time>
      </trkpt>
      <trkpt lat="42.460600" lon="1.902740">
        <ele>1246.208</ele>
        <time>2019-05-30T09:42:12Z</time>
      </trkpt>
      <trkpt lat="42.460651" lon="1.902624">
        <ele>1246.652</ele>
        <time>2019-05-30T09:42:14Z</time>
      </trkpt>
      <trkpt lat="42.460750" lon="1.902313">
        <ele>1246.016</ele>
        <time>2019-05-30T09:42:19Z</time>
      </trkpt>
      <trkpt lat="42.460765" lon="1.902250">
        <ele>1246.222</ele>
        <time>2019-05-30T09:42:20Z</time>
      </trkpt>
      <trkpt lat="42.460816" lon="1.902062">
        <ele>1245.610</ele>
        <time>2019-05-30T09:42:23Z</time>
      </trkpt>
      <trkpt lat="42.460854" lon="1.901937">
        <ele>1245.443</ele>
        <time>2019-05-30T09:42:25Z</time>
      </trkpt>
      <trkpt lat="42.460912" lon="1.901753">
        <ele>1245.877</ele>
        <time>2019-05-30T09:42:28Z</time>
      </trkpt>
      <trkpt lat="42.460930" lon="1.901694">
        <ele>1245.635</ele>
        <time>2019-05-30T09:42:29Z</time>
      </trkpt>
      <trkpt lat="42.461011" lon="1.901383">
        <ele>1244.040</ele>
        <time>2019-05-30T09:42:34Z</time>
      </trkpt>
      <trkpt lat="42.461047" lon="1.901264">
        <ele>1243.457</ele>
        <time>2019-05-30T09:42:36Z</time>
      </trkpt>
      <trkpt lat="42.461152" lon="1.900991">
        <ele>1243.200</ele>
        <time>2019-05-30T09:42:41Z</time>
      </trkpt>
      <trkpt lat="42.461173" lon="1.900939">
        <ele>1242.820</ele>
        <time>2019-05-30T09:42:42Z</time>
      </trkpt>
      <trkpt lat="42.461195" lon="1.900888">
        <ele>1244.208</ele>
        <time>2019-05-30T09:42:43Z</time>
      </trkpt>
      <trkpt lat="42.461258" lon="1.900737">
        <ele>1241.698</ele>
        <time>2019-05-30T09:42:46Z</time>
      </trkpt>
      <trkpt lat="42.461353" lon="1.900549">
        <ele>1242.892</ele>
        <time>2019-05-30T09:42:50Z</time>
      </trkpt>
      <trkpt lat="42.461528" lon="1.900175">
        <ele>1243.278</ele>
        <time>2019-05-30T09:42:58Z</time>
      </trkpt>
      <trkpt lat="42.461728" lon="1.899854">
        <ele>1244.046</ele>
        <time>2019-05-30T09:43:06Z</time>
      </trkpt>
      <trkpt lat="42.461916" lon="1.899512">
        <ele>1245.029</ele>
        <time>2019-05-30T09:43:14Z</time>
      </trkpt>
      <trkpt lat="42.462126" lon="1.899110">
        <ele>1244.473</ele>
        <time>2019-05-30T09:43:23Z</time>
      </trkpt>
      <trkpt lat="42.462365" lon="1.898675">
        <ele>1245.041</ele>
        <time>2019-05-30T09:43:33Z</time>
      </trkpt>
      <trkpt lat="42.462417" lon="1.898598">
        <ele>1245.056</ele>
        <time>2019-05-30T09:43:35Z</time>
      </trkpt>
      <trkpt lat="42.462480" lon="1.898460">
        <ele>1244.826</ele>
        <time>2019-05-30T09:43:38Z</time>
      </trkpt>
      <trkpt lat="42.462586" lon="1.898100">
        <ele>1245.647</ele>
        <time>2019-05-30T09:43:45Z</time>
      </trkpt>
      <trkpt lat="42.462598" lon="1.898046">
        <ele>1245.611</ele>
        <time>2019-05-30T09:43:46Z</time>
      </trkpt>
      <trkpt lat="42.462678" lon="1.897513">
        <ele>1245.408</ele>
        <time>2019-05-30T09:43:56Z</time>
      </trkpt>
      <trkpt lat="42.462689" lon="1.897015">
        <ele>1245.685</ele>
        <time>2019-05-30T09:44:05Z</time>
      </trkpt>
      <trkpt lat="42.462715" lon="1.896917">
        <ele>1246.039</ele>
        <time>2019-05-30T09:44:07Z</time>
      </trkpt>
      <trkpt lat="42.462773" lon="1.896799">
        <ele>1246.435</ele>
        <time>2019-05-30T09:44:10Z</time>
      </trkpt>
      <trkpt lat="42.462839" lon="1.896668">
        <ele>1247.263</ele>
        <time>2019-05-30T09:44:14Z</time>
      </trkpt>
      <trkpt lat="42.462886" lon="1.896579">
        <ele>1247.056</ele>
        <time>2019-05-30T09:44:17Z</time>
      </trkpt>
      <trkpt lat="42.463003" lon="1.896337">
        <ele>1247.840</ele>
        <time>2019-05-30T09:44:24Z</time>
      </trkpt>
      <trkpt lat="42.463067" lon="1.896197">
        <ele>1248.418</ele>
        <time>2019-05-30T09:44:28Z</time>
      </trkpt>
      <trkpt lat="42.463153" lon="1.896020">
        <ele>1249.243</ele>
        <time>2019-05-30T09:44:33Z</time>
      </trkpt>
      <trkpt lat="42.463180" lon="1.895940">
        <ele>1249.456</ele>
        <time>2019-05-30T09:44:35Z</time>
      </trkpt>
      <trkpt lat="42.463227" lon="1.895772">
        <ele>1249.059</ele>
        <time>2019-05-30T09:44:39Z</time>
      </trkpt>
      <trkpt lat="42.463240" lon="1.895729">
        <ele>1249.014</ele>
        <time>2019-05-30T09:44:40Z</time>
      </trkpt>
      <trkpt lat="42.463328" lon="1.895474">
        <ele>1249.208</ele>
        <time>2019-05-30T09:44:46Z</time>
      </trkpt>
      <trkpt lat="42.463445" lon="1.895145">
        <ele>1250.058</ele>
        <time>2019-05-30T09:44:54Z</time>
      </trkpt>
      <trkpt lat="42.463553" lon="1.894871">
        <ele>1250.072</ele>
        <time>2019-05-30T09:45:01Z</time>
      </trkpt>
      <trkpt lat="42.463700" lon="1.894490">
        <ele>1250.228</ele>
        <time>2019-05-30T09:45:10Z</time>
      </trkpt>
      <trkpt lat="42.463740" lon="1.894363">
        <ele>1250.456</ele>
        <time>2019-05-30T09:45:13Z</time>
      </trkpt>
      <trkpt lat="42.463781" lon="1.894236">
        <ele>1250.869</ele>
        <time>2019-05-30T09:45:16Z</time>
      </trkpt>
      <trkpt lat="42.463868" lon="1.893994">
        <ele>1251.683</ele>
        <time>2019-05-30T09:45:22Z</time>
      </trkpt>
      <trkpt lat="42.463893" lon="1.893922">
        <ele>1251.851</ele>
        <time>2019-05-30T09:45:24Z</time>
      </trkpt>
      <trkpt lat="42.464027" lon="1.893556">
        <ele>1252.856</ele>
        <time>2019-05-30T09:45:34Z</time>
      </trkpt>
      <trkpt lat="42.464039" lon="1.893521">
        <ele>1252.846</ele>
        <time>2019-05-30T09:45:35Z</time>
      </trkpt>
      <trkpt lat="42.464127" lon="1.893278">
        <ele>1253.688</ele>
        <time>2019-05-30T09:45:42Z</time>
      </trkpt>
      <trkpt lat="42.464140" lon="1.893243">
        <ele>1253.816</ele>
        <time>2019-05-30T09:45:43Z</time>
      </trkpt>
      <trkpt lat="42.464237" lon="1.892958">
        <ele>1253.608</ele>
        <time>2019-05-30T09:45:51Z</time>
      </trkpt>
      <trkpt lat="42.464323" lon="1.892658">
        <ele>1254.437</ele>
        <time>2019-05-30T09:45:59Z</time>
      </trkpt>
      <trkpt lat="42.464355" lon="1.892547">
        <ele>1255.091</ele>
        <time>2019-05-30T09:46:02Z</time>
      </trkpt>
      <trkpt lat="42.464367" lon="1.892509">
        <ele>1255.297</ele>
        <time>2019-05-30T09:46:03Z</time>
      </trkpt>
      <trkpt lat="42.464416" lon="1.892359">
        <ele>1255.435</ele>
        <time>2019-05-30T09:46:07Z</time>
      </trkpt>
      <trkpt lat="42.464513" lon="1.892063">
        <ele>1256.078</ele>
        <time>2019-05-30T09:46:15Z</time>
      </trkpt>
      <trkpt lat="42.464616" lon="1.891768">
        <ele>1256.242</ele>
        <time>2019-05-30T09:46:23Z</time>
      </trkpt>
      <trkpt lat="42.464625" lon="1.891490">
        <ele>1257.020</ele>
        <time>2019-05-30T09:46:30Z</time>
      </trkpt>
      <trkpt lat="42.464623" lon="1.891450">
        <ele>1257.245</ele>
        <time>2019-05-30T09:46:31Z</time>
      </trkpt>
      <trkpt lat="42.464621" lon="1.891369">
        <ele>1258.665</ele>
        <time>2019-05-30T09:46:33Z</time>
      </trkpt>
      <trkpt lat="42.464617" lon="1.891285">
        <ele>1259.868</ele>
        <time>2019-05-30T09:46:35Z</time>
      </trkpt>
      <trkpt lat="42.464612" lon="1.891199">
        <ele>1258.214</ele>
        <time>2019-05-30T09:46:37Z</time>
      </trkpt>
      <trkpt lat="42.464582" lon="1.890701">
        <ele>1258.408</ele>
        <time>2019-05-30T09:46:49Z</time>
      </trkpt>
      <trkpt lat="42.464579" lon="1.890577">
        <ele>1259.419</ele>
        <time>2019-05-30T09:46:52Z</time>
      </trkpt>
      <trkpt lat="42.464534" lon="1.890375">
        <ele>1260.483</ele>
        <time>2019-05-30T09:46:57Z</time>
      </trkpt>
      <trkpt lat="42.464363" lon="1.890197">
        <ele>1260.689</ele>
        <time>2019-05-30T09:47:04Z</time>
      </trkpt>
      <trkpt lat="42.464164" lon="1.890009">
        <ele>1261.247</ele>
        <time>2019-05-30T09:47:12Z</time>
      </trkpt>
      <trkpt lat="42.463987" lon="1.889798">
        <ele>1260.810</ele>
        <time>2019-05-30T09:47:19Z</time>
      </trkpt>
      <trkpt lat="42.463875" lon="1.889702">
        <ele>1260.484</ele>
        <time>2019-05-30T09:47:22Z</time>
      </trkpt>
      <trkpt lat="42.463777" lon="1.889640">
        <ele>1259.812</ele>
        <time>2019-05-30T09:47:24Z</time>
      </trkpt>
      <trkpt lat="42.463655" lon="1.889586">
        <ele>1258.887</ele>
        <time>2019-05-30T09:47:26Z</time>
      </trkpt>
      <trkpt lat="42.463529" lon="1.889546">
        <ele>1257.251</ele>
        <time>2019-05-30T09:47:28Z</time>
      </trkpt>
      <trkpt lat="42.463466" lon="1.889527">
        <ele>1256.801</ele>
        <time>2019-05-30T09:47:29Z</time>
      </trkpt>
      <trkpt lat="42.463350" lon="1.889487">
        <ele>1256.211</ele>
        <time>2019-05-30T09:47:31Z</time>
      </trkpt>
      <trkpt lat="42.463206" lon="1.889434">
        <ele>1257.208</ele>
        <time>2019-05-30T09:47:34Z</time>
      </trkpt>
      <trkpt lat="42.463002" lon="1.889364">
        <ele>1257.828</ele>
        <time>2019-05-30T09:47:39Z</time>
      </trkpt>
      <trkpt lat="42.462926" lon="1.889366">
        <ele>1257.412</ele>
        <time>2019-05-30T09:47:41Z</time>
      </trkpt>
      <trkpt lat="42.462816" lon="1.889480">
        <ele>1257.868</ele>
        <time>2019-05-30T09:47:45Z</time>
      </trkpt>
      <trkpt lat="42.462773" lon="1.889558">
        <ele>1258.646</ele>
        <time>2019-05-30T09:47:47Z</time>
      </trkpt>
      <trkpt lat="42.462721" lon="1.889629">
        <ele>1259.419</ele>
        <time>2019-05-30T09:47:49Z</time>
      </trkpt>
      <trkpt lat="42.462638" lon="1.889719">
        <ele>1259.853</ele>
        <time>2019-05-30T09:47:52Z</time>
      </trkpt>
      <trkpt lat="42.462468" lon="1.889775">
        <ele>1260.431</ele>
        <time>2019-05-30T09:47:57Z</time>
      </trkpt>
      <trkpt lat="42.462338" lon="1.889877">
        <ele>1260.456</ele>
        <time>2019-05-30T09:48:01Z</time>
      </trkpt>
      <trkpt lat="42.462270" lon="1.890089">
        <ele>1260.478</ele>
        <time>2019-05-30T09:48:05Z</time>
      </trkpt>
      <trkpt lat="42.462222" lon="1.890482">
        <ele>1259.633</ele>
        <time>2019-05-30T09:48:11Z</time>
      </trkpt>
      <trkpt lat="42.462112" lon="1.891065">
        <ele>1258.826</ele>
        <time>2019-05-30T09:48:19Z</time>
      </trkpt>
      <trkpt lat="42.462096" lon="1.891140">
        <ele>1258.608</ele>
        <time>2019-05-30T09:48:20Z</time>
      </trkpt>
      <trkpt lat="42.461993" lon="1.891534">
        <ele>1258.610</ele>
        <time>2019-05-30T09:48:25Z</time>
      </trkpt>
      <trkpt lat="42.461966" lon="1.891615">
        <ele>1258.214</ele>
        <time>2019-05-30T09:48:26Z</time>
      </trkpt>
      <trkpt lat="42.461848" lon="1.891838">
        <ele>1258.090</ele>
        <time>2019-05-30T09:48:29Z</time>
      </trkpt>
      <trkpt lat="42.461709" lon="1.892042">
        <ele>1257.828</ele>
        <time>2019-05-30T09:48:32Z</time>
      </trkpt>
      <trkpt lat="42.461576" lon="1.892246">
        <ele>1257.691</ele>
        <time>2019-05-30T09:48:35Z</time>
      </trkpt>
      <trkpt lat="42.461531" lon="1.892315">
        <ele>1257.245</ele>
        <time>2019-05-30T09:48:36Z</time>
      </trkpt>
      <trkpt lat="42.461228" lon="1.892789">
        <ele>1256.863</ele>
        <time>2019-05-30T09:48:43Z</time>
      </trkpt>
      <trkpt lat="42.460898" lon="1.893288">
        <ele>1256.818</ele>
        <time>2019-05-30T09:48:51Z</time>
      </trkpt>
      <trkpt lat="42.460723" lon="1.893549">
        <ele>1256.095</ele>
        <time>2019-05-30T09:48:55Z</time>
      </trkpt>
      <trkpt lat="42.460635" lon="1.893677">
        <ele>1255.249</ele>
        <time>2019-05-30T09:48:57Z</time>
      </trkpt>
      <trkpt lat="42.460584" lon="1.893730">
        <ele>1255.423</ele>
        <time>2019-05-30T09:48:58Z</time>
      </trkpt>
      <trkpt lat="42.460408" lon="1.893764">
        <ele>1256.608</ele>
        <time>2019-05-30T09:49:01Z</time>
      </trkpt>
      <trkpt lat="42.460361" lon="1.893747">
        <ele>1257.232</ele>
        <time>2019-05-30T09:49:02Z</time>
      </trkpt>
      <trkpt lat="42.460285" lon="1.893717">
        <ele>1258.486</ele>
        <time>2019-05-30T09:49:04Z</time>
      </trkpt>
      <trkpt lat="42.460227" lon="1.893681">
        <ele>1259.052</ele>
        <time>2019-05-30T09:49:06Z</time>
      </trkpt>
      <trkpt lat="42.460201" lon="1.893664">
        <ele>1259.610</ele>
        <time>2019-05-30T09:49:07Z</time>
      </trkpt>
      <trkpt lat="42.460152" lon="1.893642">
        <ele>1260.633</ele>
        <time>2019-05-30T09:49:09Z</time>
      </trkpt>
      <trkpt lat="42.460058" lon="1.893583">
        <ele>1260.857</ele>
        <time>2019-05-30T09:49:13Z</time>
      </trkpt>
      <trkpt lat="42.460015" lon="1.893547">
        <ele>1261.295</ele>
        <time>2019-05-30T09:49:15Z</time>
      </trkpt>
      <trkpt lat="42.459996" lon="1.893529">
        <ele>1261.860</ele>
        <time>2019-05-30T09:49:16Z</time>
      </trkpt>
      <trkpt lat="42.459917" lon="1.893446">
        <ele>1262.887</ele>
        <time>2019-05-30T09:49:20Z</time>
      </trkpt>
      <trkpt lat="42.459883" lon="1.893401">
        <ele>1263.442</ele>
        <time>2019-05-30T09:49:22Z</time>
      </trkpt>
      <trkpt lat="42.459803" lon="1.893159">
        <ele>1263.026</ele>
        <time>2019-05-30T09:49:29Z</time>
      </trkpt>
      <trkpt lat="42.459691" lon="1.892997">
        <ele>1263.208</ele>
        <time>2019-05-30T09:49:35Z</time>
      </trkpt>
      <trkpt lat="42.459556" lon="1.892984">
        <ele>1263.011</ele>
        <time>2019-05-30T09:49:39Z</time>
      </trkpt>
      <trkpt lat="42.459408" lon="1.892971">
        <ele>1262.675</ele>
        <time>2019-05-30T09:49:44Z</time>
      </trkpt>
      <trkpt lat="42.459158" lon="1.892952">
        <ele>1263.221</ele>
        <time>2019-05-30T09:49:52Z</time>
      </trkpt>
      <trkpt lat="42.459025" lon="1.892942">
        <ele>1262.639</ele>
        <time>2019-05-30T09:49:56Z</time>
      </trkpt>
      <trkpt lat="42.458882" lon="1.892923">
        <ele>1263.092</ele>
        <time>2019-05-30T09:50:00Z</time>
      </trkpt>
      <trkpt lat="42.458626" lon="1.892934">
        <ele>1263.446</ele>
        <time>2019-05-30T09:50:07Z</time>
      </trkpt>
      <trkpt lat="42.458447" lon="1.892954">
        <ele>1264.094</ele>
        <time>2019-05-30T09:50:12Z</time>
      </trkpt>
      <trkpt lat="42.458415" lon="1.892956">
        <ele>1264.499</ele>
        <time>2019-05-30T09:50:13Z</time>
      </trkpt>
      <trkpt lat="42.458385" lon="1.892956">
        <ele>1265.022</ele>
        <time>2019-05-30T09:50:14Z</time>
      </trkpt>
      <trkpt lat="42.458352" lon="1.892957">
        <ele>1263.662</ele>
        <time>2019-05-30T09:50:15Z</time>
      </trkpt>
      <trkpt lat="42.458283" lon="1.892964">
        <ele>1262.608</ele>
        <time>2019-05-30T09:50:17Z</time>
      </trkpt>
      <trkpt lat="42.458251" lon="1.892974">
        <ele>1264.608</ele>
        <time>2019-05-30T09:50:18Z</time>
      </trkpt>
      <trkpt lat="42.458219" lon="1.892979">
        <ele>1265.445</ele>
        <time>2019-05-30T09:50:19Z</time>
      </trkpt>
      <trkpt lat="42.458064" lon="1.893023">
        <ele>1266.459</ele>
        <time>2019-05-30T09:50:24Z</time>
      </trkpt>
      <trkpt lat="42.458035" lon="1.893038">
        <ele>1267.035</ele>
        <time>2019-05-30T09:50:25Z</time>
      </trkpt>
      <trkpt lat="42.457981" lon="1.893065">
        <ele>1265.453</ele>
        <time>2019-05-30T09:50:27Z</time>
      </trkpt>
      <trkpt lat="42.457911" lon="1.893094">
        <ele>1266.016</ele>
        <time>2019-05-30T09:50:30Z</time>
      </trkpt>
      <trkpt lat="42.457855" lon="1.893118">
        <ele>1266.470</ele>
        <time>2019-05-30T09:50:32Z</time>
      </trkpt>
      <trkpt lat="42.457762" lon="1.893169">
        <ele>1267.048</ele>
        <time>2019-05-30T09:50:36Z</time>
      </trkpt>
      <trkpt lat="42.457716" lon="1.893196">
        <ele>1267.683</ele>
        <time>2019-05-30T09:50:38Z</time>
      </trkpt>
      <trkpt lat="42.457637" lon="1.893265">
        <ele>1268.671</ele>
        <time>2019-05-30T09:50:42Z</time>
      </trkpt>
      <trkpt lat="42.457622" lon="1.893279">
        <ele>1269.041</ele>
        <time>2019-05-30T09:50:43Z</time>
      </trkpt>
      <trkpt lat="42.457537" lon="1.893360">
        <ele>1269.815</ele>
        <time>2019-05-30T09:50:48Z</time>
      </trkpt>
      <trkpt lat="42.457497" lon="1.893390">
        <ele>1270.008</ele>
        <time>2019-05-30T09:50:50Z</time>
      </trkpt>
      <trkpt lat="42.457405" lon="1.893443">
        <ele>1271.020</ele>
        <time>2019-05-30T09:50:55Z</time>
      </trkpt>
      <trkpt lat="42.457385" lon="1.893455">
        <ele>1271.034</ele>
        <time>2019-05-30T09:50:56Z</time>
      </trkpt>
      <trkpt lat="42.457216" lon="1.893504">
        <ele>1272.070</ele>
        <time>2019-05-30T09:51:03Z</time>
      </trkpt>
      <trkpt lat="42.457083" lon="1.893532">
        <ele>1273.058</ele>
        <time>2019-05-30T09:51:09Z</time>
      </trkpt>
      <trkpt lat="42.457062" lon="1.893540">
        <ele>1273.231</ele>
        <time>2019-05-30T09:51:10Z</time>
      </trkpt>
      <trkpt lat="42.456929" lon="1.893573">
        <ele>1273.875</ele>
        <time>2019-05-30T09:51:16Z</time>
      </trkpt>
      <trkpt lat="42.456887" lon="1.893594">
        <ele>1274.233</ele>
        <time>2019-05-30T09:51:18Z</time>
      </trkpt>
      <trkpt lat="42.456756" lon="1.893670">
        <ele>1274.018</ele>
        <time>2019-05-30T09:51:23Z</time>
      </trkpt>
      <trkpt lat="42.456616" lon="1.893842">
        <ele>1273.219</ele>
        <time>2019-05-30T09:51:28Z</time>
      </trkpt>
      <trkpt lat="42.456587" lon="1.893889">
        <ele>1273.209</ele>
        <time>2019-05-30T09:51:29Z</time>
      </trkpt>
      <trkpt lat="42.456411" lon="1.894195">
        <ele>1272.219</ele>
        <time>2019-05-30T09:51:35Z</time>
      </trkpt>
      <trkpt lat="42.456217" lon="1.894497">
        <ele>1272.008</ele>
        <time>2019-05-30T09:51:41Z</time>
      </trkpt>
      <trkpt lat="42.456183" lon="1.894535">
        <ele>1272.044</ele>
        <time>2019-05-30T09:51:42Z</time>
      </trkpt>
      <trkpt lat="42.455964" lon="1.894731">
        <ele>1273.288</ele>
        <time>2019-05-30T09:51:49Z</time>
      </trkpt>
      <trkpt lat="42.455893" lon="1.894790">
        <ele>1274.074</ele>
        <time>2019-05-30T09:51:52Z</time>
      </trkpt>
      <trkpt lat="42.455823" lon="1.894837">
        <ele>1274.272</ele>
        <time>2019-05-30T09:51:55Z</time>
      </trkpt>
      <trkpt lat="42.455800" lon="1.894851">
        <ele>1274.485</ele>
        <time>2019-05-30T09:51:56Z</time>
      </trkpt>
      <trkpt lat="42.455659" lon="1.894921">
        <ele>1275.239</ele>
        <time>2019-05-30T09:52:02Z</time>
      </trkpt>
      <trkpt lat="42.455611" lon="1.894936">
        <ele>1275.877</ele>
        <time>2019-05-30T09:52:04Z</time>
      </trkpt>
      <trkpt lat="42.455538" lon="1.894943">
        <ele>1276.232</ele>
        <time>2019-05-30T09:52:07Z</time>
      </trkpt>
      <trkpt lat="42.455444" lon="1.894918">
        <ele>1276.657</ele>
        <time>2019-05-30T09:52:11Z</time>
      </trkpt>
      <trkpt lat="42.455403" lon="1.894858">
        <ele>1277.400</ele>
        <time>2019-05-30T09:52:14Z</time>
      </trkpt>
      <trkpt lat="42.455384" lon="1.894789">
        <ele>1277.220</ele>
        <time>2019-05-30T09:52:17Z</time>
      </trkpt>
      <trkpt lat="42.455427" lon="1.894649">
        <ele>1278.008</ele>
        <time>2019-05-30T09:52:23Z</time>
      </trkpt>
      <trkpt lat="42.455440" lon="1.894632">
        <ele>1278.488</ele>
        <time>2019-05-30T09:52:24Z</time>
      </trkpt>
      <trkpt lat="42.455531" lon="1.894557">
        <ele>1279.492</ele>
        <time>2019-05-30T09:52:30Z</time>
      </trkpt>
      <trkpt lat="42.455546" lon="1.894544">
        <ele>1279.678</ele>
        <time>2019-05-30T09:52:31Z</time>
      </trkpt>
      <trkpt lat="42.455636" lon="1.894463">
        <ele>1280.836</ele>
        <time>2019-05-30T09:52:37Z</time>
      </trkpt>
      <trkpt lat="42.455651" lon="1.894449">
        <ele>1280.869</ele>
        <time>2019-05-30T09:52:38Z</time>
      </trkpt>
      <trkpt lat="42.455717" lon="1.894294">
        <ele>1281.663</ele>
        <time>2019-05-30T09:52:45Z</time>
      </trkpt>
      <trkpt lat="42.455717" lon="1.894269">
        <ele>1281.821</ele>
        <time>2019-05-30T09:52:46Z</time>
      </trkpt>
      <trkpt lat="42.455705" lon="1.894177">
        <ele>1282.226</ele>
        <time>2019-05-30T09:52:50Z</time>
      </trkpt>
      <trkpt lat="42.455693" lon="1.894133">
        <ele>1282.878</ele>
        <time>2019-05-30T09:52:52Z</time>
      </trkpt>
      <trkpt lat="42.455632" lon="1.894063">
        <ele>1283.833</ele>
        <time>2019-05-30T09:52:56Z</time>
      </trkpt>
      <trkpt lat="42.455597" lon="1.894042">
        <ele>1284.026</ele>
        <time>2019-05-30T09:52:58Z</time>
      </trkpt>
      <trkpt lat="42.455474" lon="1.893981">
        <ele>1284.408</ele>
        <time>2019-05-30T09:53:05Z</time>
      </trkpt>
      <trkpt lat="42.455346" lon="1.893916">
        <ele>1285.040</ele>
        <time>2019-05-30T09:53:12Z</time>
      </trkpt>
      <trkpt lat="42.455334" lon="1.893898">
        <ele>1285.444</ele>
        <time>2019-05-30T09:53:13Z</time>
      </trkpt>
      <trkpt lat="42.455322" lon="1.893881">
        <ele>1285.410</ele>
        <time>2019-05-30T09:53:14Z</time>
      </trkpt>
      <trkpt lat="42.455267" lon="1.893741">
        <ele>1286.078</ele>
        <time>2019-05-30T09:53:21Z</time>
      </trkpt>
      <trkpt lat="42.455292" lon="1.893666">
        <ele>1286.021</ele>
        <time>2019-05-30T09:53:25Z</time>
      </trkpt>
      <trkpt lat="42.455303" lon="1.893651">
        <ele>1286.085</ele>
        <time>2019-05-30T09:53:26Z</time>
      </trkpt>
      <trkpt lat="42.455313" lon="1.893637">
        <ele>1286.243</ele>
        <time>2019-05-30T09:53:27Z</time>
      </trkpt>
      <trkpt lat="42.455356" lon="1.893581">
        <ele>1287.078</ele>
        <time>2019-05-30T09:53:31Z</time>
      </trkpt>
      <trkpt lat="42.455372" lon="1.893575">
        <ele>1287.422</ele>
        <time>2019-05-30T09:53:32Z</time>
      </trkpt>
      <trkpt lat="42.455409" lon="1.893573">
        <ele>1287.662</ele>
        <time>2019-05-30T09:53:34Z</time>
      </trkpt>
      <trkpt lat="42.455458" lon="1.893560">
        <ele>1288.408</ele>
        <time>2019-05-30T09:53:37Z</time>
      </trkpt>
      <trkpt lat="42.455473" lon="1.893556">
        <ele>1288.408</ele>
        <time>2019-05-30T09:53:38Z</time>
      </trkpt>
      <trkpt lat="42.455535" lon="1.893533">
        <ele>1289.065</ele>
        <time>2019-05-30T09:53:42Z</time>
      </trkpt>
      <trkpt lat="42.455621" lon="1.893477">
        <ele>1289.479</ele>
        <time>2019-05-30T09:53:48Z</time>
      </trkpt>
      <trkpt lat="42.455640" lon="1.893445">
        <ele>1290.615</ele>
        <time>2019-05-30T09:53:50Z</time>
      </trkpt>
      <trkpt lat="42.455634" lon="1.893338">
        <ele>1290.273</ele>
        <time>2019-05-30T09:53:55Z</time>
      </trkpt>
      <trkpt lat="42.455628" lon="1.893320">
        <ele>1290.696</ele>
        <time>2019-05-30T09:53:56Z</time>
      </trkpt>
      <trkpt lat="42.455599" lon="1.893263">
        <ele>1291.820</ele>
        <time>2019-05-30T09:53:59Z</time>
      </trkpt>
      <trkpt lat="42.455549" lon="1.893230">
        <ele>1292.288</ele>
        <time>2019-05-30T09:54:02Z</time>
      </trkpt>
      <trkpt lat="42.455466" lon="1.893201">
        <ele>1292.843</ele>
        <time>2019-05-30T09:54:07Z</time>
      </trkpt>
      <trkpt lat="42.455431" lon="1.893199">
        <ele>1292.856</ele>
        <time>2019-05-30T09:54:09Z</time>
      </trkpt>
      <trkpt lat="42.455338" lon="1.893214">
        <ele>1293.859</ele>
        <time>2019-05-30T09:54:15Z</time>
      </trkpt>
      <trkpt lat="42.455309" lon="1.893221">
        <ele>1294.014</ele>
        <time>2019-05-30T09:54:17Z</time>
      </trkpt>
      <trkpt lat="42.455233" lon="1.893239">
        <ele>1295.008</ele>
        <time>2019-05-30T09:54:22Z</time>
      </trkpt>
      <trkpt lat="42.455162" lon="1.893282">
        <ele>1295.438</ele>
        <time>2019-05-30T09:54:27Z</time>
      </trkpt>
      <trkpt lat="42.455090" lon="1.893304">
        <ele>1296.052</ele>
        <time>2019-05-30T09:54:32Z</time>
      </trkpt>
      <trkpt lat="42.455043" lon="1.893324">
        <ele>1296.438</ele>
        <time>2019-05-30T09:54:35Z</time>
      </trkpt>
      <trkpt lat="42.454972" lon="1.893349">
        <ele>1297.296</ele>
        <time>2019-05-30T09:54:40Z</time>
      </trkpt>
      <trkpt lat="42.454922" lon="1.893361">
        <ele>1297.699</ele>
        <time>2019-05-30T09:54:43Z</time>
      </trkpt>
      <trkpt lat="42.454842" lon="1.893358">
        <ele>1298.493</ele>
        <time>2019-05-30T09:54:48Z</time>
      </trkpt>
      <trkpt lat="42.454776" lon="1.893316">
        <ele>1299.041</ele>
        <time>2019-05-30T09:54:52Z</time>
      </trkpt>
      <trkpt lat="42.454665" lon="1.893237">
        <ele>1299.486</ele>
        <time>2019-05-30T09:54:58Z</time>
      </trkpt>
      <trkpt lat="42.454461" lon="1.893156">
        <ele>1299.263</ele>
        <time>2019-05-30T09:55:07Z</time>
      </trkpt>
      <trkpt lat="42.454283" lon="1.893158">
        <ele>1299.644</ele>
        <time>2019-05-30T09:55:14Z</time>
      </trkpt>
      <trkpt lat="42.454183" lon="1.893058">
        <ele>1298.418</ele>
        <time>2019-05-30T09:55:18Z</time>
      </trkpt>
      <trkpt lat="42.454158" lon="1.893016">
        <ele>1297.608</ele>
        <time>2019-05-30T09:55:19Z</time>
      </trkpt>
      <trkpt lat="42.454132" lon="1.892967">
        <ele>1297.099</ele>
        <time>2019-05-30T09:55:20Z</time>
      </trkpt>
      <trkpt lat="42.454012" lon="1.892790">
        <ele>1295.473</ele>
        <time>2019-05-30T09:55:23Z</time>
      </trkpt>
      <trkpt lat="42.453885" lon="1.892682">
        <ele>1293.619</ele>
        <time>2019-05-30T09:55:25Z</time>
      </trkpt>
      <trkpt lat="42.453738" lon="1.892584">
        <ele>1291.477</ele>
        <time>2019-05-30T09:55:27Z</time>
      </trkpt>
      <trkpt lat="42.453500" lon="1.892456">
        <ele>1290.260</ele>
        <time>2019-05-30T09:55:30Z</time>
      </trkpt>
      <trkpt lat="42.453425" lon="1.892423">
        <ele>1289.284</ele>
        <time>2019-05-30T09:55:31Z</time>
      </trkpt>
      <trkpt lat="42.453357" lon="1.892393">
        <ele>1288.632</ele>
        <time>2019-05-30T09:55:32Z</time>
      </trkpt>
      <trkpt lat="42.453222" lon="1.892331">
        <ele>1290.687</ele>
        <time>2019-05-30T09:55:34Z</time>
      </trkpt>
      <trkpt lat="42.453033" lon="1.892261">
        <ele>1291.688</ele>
        <time>2019-05-30T09:55:37Z</time>
      </trkpt>
      <trkpt lat="42.452979" lon="1.892245">
        <ele>1291.424</ele>
        <time>2019-05-30T09:55:38Z</time>
      </trkpt>
      <trkpt lat="42.452885" lon="1.892207">
        <ele>1291.626</ele>
        <time>2019-05-30T09:55:40Z</time>
      </trkpt>
      <trkpt lat="42.452808" lon="1.892155">
        <ele>1291.808</ele>
        <time>2019-05-30T09:55:42Z</time>
      </trkpt>
      <trkpt lat="42.452630" lon="1.892080">
        <ele>1292.021</ele>
        <time>2019-05-30T09:55:46Z</time>
      </trkpt>
      <trkpt lat="42.452583" lon="1.892065">
        <ele>1291.875</ele>
        <time>2019-05-30T09:55:47Z</time>
      </trkpt>
      <trkpt lat="42.452497" lon="1.892050">
        <ele>1291.211</ele>
        <time>2019-05-30T09:55:49Z</time>
      </trkpt>
      <trkpt lat="42.452406" lon="1.892047">
        <ele>1291.679</ele>
        <time>2019-05-30T09:55:51Z</time>
      </trkpt>
      <trkpt lat="42.452148" lon="1.892039">
        <ele>1291.282</ele>
        <time>2019-05-30T09:55:57Z</time>
      </trkpt>
      <trkpt lat="42.452106" lon="1.892038">
        <ele>1291.246</ele>
        <time>2019-05-30T09:55:58Z</time>
      </trkpt>
      <trkpt lat="42.451949" lon="1.892003">
        <ele>1291.654</ele>
        <time>2019-05-30T09:56:02Z</time>
      </trkpt>
      <trkpt lat="42.451800" lon="1.891984">
        <ele>1292.879</ele>
        <time>2019-05-30T09:56:06Z</time>
      </trkpt>
      <trkpt lat="42.451767" lon="1.891997">
        <ele>1293.027</ele>
        <time>2019-05-30T09:56:07Z</time>
      </trkpt>
      <trkpt lat="42.451610" lon="1.892099">
        <ele>1293.068</ele>
        <time>2019-05-30T09:56:12Z</time>
      </trkpt>
      <trkpt lat="42.451464" lon="1.892153">
        <ele>1293.014</ele>
        <time>2019-05-30T09:56:16Z</time>
      </trkpt>
      <trkpt lat="42.451286" lon="1.892145">
        <ele>1293.608</ele>
        <time>2019-05-30T09:56:21Z</time>
      </trkpt>
      <trkpt lat="42.451174" lon="1.892135">
        <ele>1293.855</ele>
        <time>2019-05-30T09:56:24Z</time>
      </trkpt>
      <trkpt lat="42.450965" lon="1.892113">
        <ele>1294.689</ele>
        <time>2019-05-30T09:56:30Z</time>
      </trkpt>
      <trkpt lat="42.450934" lon="1.892112">
        <ele>1295.035</ele>
        <time>2019-05-30T09:56:31Z</time>
      </trkpt>
      <trkpt lat="42.450709" lon="1.892117">
        <ele>1295.463</ele>
        <time>2019-05-30T09:56:38Z</time>
      </trkpt>
      <trkpt lat="42.450562" lon="1.892141">
        <ele>1296.036</ele>
        <time>2019-05-30T09:56:43Z</time>
      </trkpt>
      <trkpt lat="42.450471" lon="1.892157">
        <ele>1296.440</ele>
        <time>2019-05-30T09:56:46Z</time>
      </trkpt>
      <trkpt lat="42.450389" lon="1.892161">
        <ele>1297.218</ele>
        <time>2019-05-30T09:56:49Z</time>
      </trkpt>
      <trkpt lat="42.450262" lon="1.892144">
        <ele>1297.813</ele>
        <time>2019-05-30T09:56:54Z</time>
      </trkpt>
      <trkpt lat="42.450154" lon="1.892135">
        <ele>1298.484</ele>
        <time>2019-05-30T09:56:58Z</time>
      </trkpt>
      <trkpt lat="42.450034" lon="1.892116">
        <ele>1299.407</ele>
        <time>2019-05-30T09:57:03Z</time>
      </trkpt>
      <trkpt lat="42.450011" lon="1.892113">
        <ele>1299.417</ele>
        <time>2019-05-30T09:57:04Z</time>
      </trkpt>
      <trkpt lat="42.449859" lon="1.892075">
        <ele>1300.408</ele>
        <time>2019-05-30T09:57:10Z</time>
      </trkpt>
      <trkpt lat="42.449811" lon="1.892057">
        <ele>1300.451</ele>
        <time>2019-05-30T09:57:12Z</time>
      </trkpt>
      <trkpt lat="42.449708" lon="1.892003">
        <ele>1300.865</ele>
        <time>2019-05-30T09:57:17Z</time>
      </trkpt>
      <trkpt lat="42.449687" lon="1.891994">
        <ele>1301.821</ele>
        <time>2019-05-30T09:57:18Z</time>
      </trkpt>
      <trkpt lat="42.449656" lon="1.891914">
        <ele>1301.699</ele>
        <time>2019-05-30T09:59:10Z</time>
      </trkpt>
      <trkpt lat="42.449671" lon="1.891865">
        <ele>1301.242</ele>
        <time>2019-05-30T09:59:12Z</time>
      </trkpt>
      <trkpt lat="42.449695" lon="1.891818">
        <ele>1301.496</ele>
        <time>2019-05-30T09:59:14Z</time>
      </trkpt>
      <trkpt lat="42.449723" lon="1.891784">
        <ele>1301.624</ele>
        <time>2019-05-30T09:59:16Z</time>
      </trkpt>
      <trkpt lat="42.449748" lon="1.891746">
        <ele>1302.079</ele>
        <time>2019-05-30T09:59:18Z</time>
      </trkpt>
      <trkpt lat="42.449769" lon="1.891703">
        <ele>1302.616</ele>
        <time>2019-05-30T09:59:20Z</time>
      </trkpt>
      <trkpt lat="42.449787" lon="1.891659">
        <ele>1302.876</ele>
        <time>2019-05-30T09:59:22Z</time>
      </trkpt>
      <trkpt lat="42.449822" lon="1.891594">
        <ele>1302.613</ele>
        <time>2019-05-30T09:59:25Z</time>
      </trkpt>
      <trkpt lat="42.449919" lon="1.891444">
        <ele>1303.608</ele>
        <time>2019-05-30T09:59:33Z</time>
      </trkpt>
      <trkpt lat="42.449942" lon="1.891410">
        <ele>1304.274</ele>
        <time>2019-05-30T09:59:35Z</time>
      </trkpt>
      <trkpt lat="42.450000" lon="1.891333">
        <ele>1305.428</ele>
        <time>2019-05-30T09:59:40Z</time>
      </trkpt>
      <trkpt lat="42.450081" lon="1.891254">
        <ele>1306.214</ele>
        <time>2019-05-30T09:59:47Z</time>
      </trkpt>
      <trkpt lat="42.450095" lon="1.891241">
        <ele>1306.492</ele>
        <time>2019-05-30T09:59:48Z</time>
      </trkpt>
      <trkpt lat="42.450156" lon="1.891171">
        <ele>1307.475</ele>
        <time>2019-05-30T09:59:53Z</time>
      </trkpt>
      <trkpt lat="42.450179" lon="1.891143">
        <ele>1307.649</ele>
        <time>2019-05-30T09:59:55Z</time>
      </trkpt>
      <trkpt lat="42.450219" lon="1.891050">
        <ele>1308.617</ele>
        <time>2019-05-30T10:00:00Z</time>
      </trkpt>
      <trkpt lat="42.450233" lon="1.891010">
        <ele>1309.272</ele>
        <time>2019-05-30T10:00:02Z</time>
      </trkpt>
      <trkpt lat="42.450242" lon="1.890970">
        <ele>1309.696</ele>
        <time>2019-05-30T10:00:04Z</time>
      </trkpt>
      <trkpt lat="42.450234" lon="1.890884">
        <ele>1310.231</ele>
        <time>2019-05-30T10:00:08Z</time>
      </trkpt>
      <trkpt lat="42.450194" lon="1.890736">
        <ele>1310.824</ele>
        <time>2019-05-30T10:00:15Z</time>
      </trkpt>
      <trkpt lat="42.450139" lon="1.890625">
        <ele>1311.208</ele>
        <time>2019-05-30T10:00:21Z</time>
      </trkpt>
      <trkpt lat="42.450135" lon="1.890603">
        <ele>1311.652</ele>
        <time>2019-05-30T10:00:22Z</time>
      </trkpt>
      <trkpt lat="42.450119" lon="1.890562">
        <ele>1311.866</ele>
        <time>2019-05-30T10:00:24Z</time>
      </trkpt>
      <trkpt lat="42.450115" lon="1.890538">
        <ele>1312.242</ele>
        <time>2019-05-30T10:00:25Z</time>
      </trkpt>
      <trkpt lat="42.450113" lon="1.890458">
        <ele>1312.640</ele>
        <time>2019-05-30T10:00:29Z</time>
      </trkpt>
      <trkpt lat="42.450101" lon="1.890418">
        <ele>1312.863</ele>
        <time>2019-05-30T10:00:31Z</time>
      </trkpt>
      <trkpt lat="42.450095" lon="1.890398">
        <ele>1313.017</ele>
        <time>2019-05-30T10:00:32Z</time>
      </trkpt>
      <trkpt lat="42.450082" lon="1.890364">
        <ele>1313.245</ele>
        <time>2019-05-30T10:00:34Z</time>
      </trkpt>
      <trkpt lat="42.450071" lon="1.890346">
        <ele>1313.440</ele>
        <time>2019-05-30T10:00:35Z</time>
      </trkpt>
      <trkpt lat="42.450049" lon="1.890312">
        <ele>1314.031</ele>
        <time>2019-05-30T10:00:37Z</time>
      </trkpt>
      <trkpt lat="42.450018" lon="1.890238">
        <ele>1314.461</ele>
        <time>2019-05-30T10:00:41Z</time>
      </trkpt>
      <trkpt lat="42.450010" lon="1.890219">
        <ele>1314.607</ele>
        <time>2019-05-30T10:00:42Z</time>
      </trkpt>
      <trkpt lat="42.449990" lon="1.890158">
        <ele>1315.008</ele>
        <time>2019-05-30T10:00:45Z</time>
      </trkpt>
      <trkpt lat="42.449971" lon="1.890055">
        <ele>1315.026</ele>
        <time>2019-05-30T10:00:50Z</time>
      </trkpt>
      <trkpt lat="42.449945" lon="1.889941">
        <ele>1315.620</ele>
        <time>2019-05-30T10:00:56Z</time>
      </trkpt>
      <trkpt lat="42.449944" lon="1.889895">
        <ele>1316.266</ele>
        <time>2019-05-30T10:00:58Z</time>
      </trkpt>
      <trkpt lat="42.449985" lon="1.889824">
        <ele>1317.044</ele>
        <time>2019-05-30T10:01:02Z</time>
      </trkpt>
      <trkpt lat="42.449996" lon="1.889810">
        <ele>1317.217</ele>
        <time>2019-05-30T10:01:03Z</time>
      </trkpt>
      <trkpt lat="42.450082" lon="1.889752">
        <ele>1317.871</ele>
        <time>2019-05-30T10:01:09Z</time>
      </trkpt>
      <trkpt lat="42.450130" lon="1.889742">
        <ele>1318.019</ele>
        <time>2019-05-30T10:01:12Z</time>
      </trkpt>
      <trkpt lat="42.450163" lon="1.889717">
        <ele>1318.454</ele>
        <time>2019-05-30T10:01:14Z</time>
      </trkpt>
      <trkpt lat="42.450197" lon="1.889691">
        <ele>1319.062</ele>
        <time>2019-05-30T10:01:17Z</time>
      </trkpt>
      <trkpt lat="42.450222" lon="1.889664">
        <ele>1319.483</ele>
        <time>2019-05-30T10:01:19Z</time>
      </trkpt>
      <trkpt lat="42.450259" lon="1.889627">
        <ele>1319.611</ele>
        <time>2019-05-30T10:01:22Z</time>
      </trkpt>
      <trkpt lat="42.450343" lon="1.889552">
        <ele>1320.408</ele>
        <time>2019-05-30T10:01:28Z</time>
      </trkpt>
      <trkpt lat="42.450357" lon="1.889537">
        <ele>1320.659</ele>
        <time>2019-05-30T10:01:29Z</time>
      </trkpt>
      <trkpt lat="42.450453" lon="1.889462">
        <ele>1321.663</ele>
        <time>2019-05-30T10:01:37Z</time>
      </trkpt>
      <trkpt lat="42.450537" lon="1.889382">
        <ele>1322.089</ele>
        <time>2019-05-30T10:01:43Z</time>
      </trkpt>
      <trkpt lat="42.450563" lon="1.889304">
        <ele>1322.667</ele>
        <time>2019-05-30T10:01:47Z</time>
      </trkpt>
      <trkpt lat="42.450560" lon="1.889252">
        <ele>1322.850</ele>
        <time>2019-05-30T10:01:49Z</time>
      </trkpt>
      <trkpt lat="42.450546" lon="1.889124">
        <ele>1323.644</ele>
        <time>2019-05-30T10:01:55Z</time>
      </trkpt>
      <trkpt lat="42.450543" lon="1.889105">
        <ele>1323.892</ele>
        <time>2019-05-30T10:01:56Z</time>
      </trkpt>
      <trkpt lat="42.450513" lon="1.888934">
        <ele>1324.217</ele>
        <time>2019-05-30T10:02:04Z</time>
      </trkpt>
      <trkpt lat="42.450492" lon="1.888830">
        <ele>1324.836</ele>
        <time>2019-05-30T10:02:09Z</time>
      </trkpt>
      <trkpt lat="42.450491" lon="1.888762">
        <ele>1325.417</ele>
        <time>2019-05-30T10:02:12Z</time>
      </trkpt>
      <trkpt lat="42.450486" lon="1.888701">
        <ele>1325.418</ele>
        <time>2019-05-30T10:02:15Z</time>
      </trkpt>
      <trkpt lat="42.450479" lon="1.888613">
        <ele>1325.408</ele>
        <time>2019-05-30T10:02:19Z</time>
      </trkpt>
      <trkpt lat="42.450485" lon="1.888548">
        <ele>1325.896</ele>
        <time>2019-05-30T10:02:22Z</time>
      </trkpt>
      <trkpt lat="42.450494" lon="1.888510">
        <ele>1326.210</ele>
        <time>2019-05-30T10:02:24Z</time>
      </trkpt>
      <trkpt lat="42.450486" lon="1.888396">
        <ele>1326.846</ele>
        <time>2019-05-30T10:02:30Z</time>
      </trkpt>
      <trkpt lat="42.450488" lon="1.888374">
        <ele>1327.064</ele>
        <time>2019-05-30T10:02:31Z</time>
      </trkpt>
      <trkpt lat="42.450496" lon="1.888252">
        <ele>1328.437</ele>
        <time>2019-05-30T10:02:37Z</time>
      </trkpt>
      <trkpt lat="42.450491" lon="1.888234">
        <ele>1328.411</ele>
        <time>2019-05-30T10:02:38Z</time>
      </trkpt>
      <trkpt lat="42.450489" lon="1.888112">
        <ele>1328.699</ele>
        <time>2019-05-30T10:02:44Z</time>
      </trkpt>
      <trkpt lat="42.450491" lon="1.888037">
        <ele>1329.644</ele>
        <time>2019-05-30T10:02:48Z</time>
      </trkpt>
      <trkpt lat="42.450489" lon="1.888018">
        <ele>1329.833</ele>
        <time>2019-05-30T10:02:49Z</time>
      </trkpt>
      <trkpt lat="42.450486" lon="1.887982">
        <ele>1330.623</ele>
        <time>2019-05-30T10:02:51Z</time>
      </trkpt>
      <trkpt lat="42.450493" lon="1.887883">
        <ele>1331.015</ele>
        <time>2019-05-30T10:02:56Z</time>
      </trkpt>
      <trkpt lat="42.450498" lon="1.887866">
        <ele>1331.008</ele>
        <time>2019-05-30T10:02:57Z</time>
      </trkpt>
      <trkpt lat="42.450508" lon="1.887853">
        <ele>1331.266</ele>
        <time>2019-05-30T10:02:58Z</time>
      </trkpt>
      <trkpt lat="42.450553" lon="1.887820">
        <ele>1331.650</ele>
        <time>2019-05-30T10:03:01Z</time>
      </trkpt>
      <trkpt lat="42.450617" lon="1.887798">
        <ele>1332.276</ele>
        <time>2019-05-30T10:03:06Z</time>
      </trkpt>
      <trkpt lat="42.450659" lon="1.887777">
        <ele>1332.864</ele>
        <time>2019-05-30T10:03:09Z</time>
      </trkpt>
      <trkpt lat="42.450711" lon="1.887730">
        <ele>1333.857</ele>
        <time>2019-05-30T10:03:14Z</time>
      </trkpt>
      <trkpt lat="42.450775" lon="1.887670">
        <ele>1334.631</ele>
        <time>2019-05-30T10:03:20Z</time>
      </trkpt>
      <trkpt lat="42.450784" lon="1.887658">
        <ele>1335.299</ele>
        <time>2019-05-30T10:03:21Z</time>
      </trkpt>
      <trkpt lat="42.450802" lon="1.887632">
        <ele>1335.854</ele>
        <time>2019-05-30T10:03:23Z</time>
      </trkpt>
      <trkpt lat="42.450825" lon="1.887597">
        <ele>1336.283</ele>
        <time>2019-05-30T10:03:26Z</time>
      </trkpt>
      <trkpt lat="42.450849" lon="1.887561">
        <ele>1337.425</ele>
        <time>2019-05-30T10:03:29Z</time>
      </trkpt>
      <trkpt lat="42.450866" lon="1.887537">
        <ele>1337.817</ele>
        <time>2019-05-30T10:03:31Z</time>
      </trkpt>
      <trkpt lat="42.450873" lon="1.887527">
        <ele>1338.008</ele>
        <time>2019-05-30T10:03:32Z</time>
      </trkpt>
      <trkpt lat="42.450912" lon="1.887464">
        <ele>1338.811</ele>
        <time>2019-05-30T10:03:37Z</time>
      </trkpt>
      <trkpt lat="42.450929" lon="1.887431">
        <ele>1339.695</ele>
        <time>2019-05-30T10:03:40Z</time>
      </trkpt>
      <trkpt lat="42.450940" lon="1.887420">
        <ele>1339.831</ele>
        <time>2019-05-30T10:03:41Z</time>
      </trkpt>
      <trkpt lat="42.450949" lon="1.887407">
        <ele>1340.069</ele>
        <time>2019-05-30T10:03:42Z</time>
      </trkpt>
      <trkpt lat="42.450974" lon="1.887371">
        <ele>1340.262</ele>
        <time>2019-05-30T10:03:45Z</time>
      </trkpt>
      <trkpt lat="42.450991" lon="1.887345">
        <ele>1340.646</ele>
        <time>2019-05-30T10:03:47Z</time>
      </trkpt>
      <trkpt lat="42.451018" lon="1.887296">
        <ele>1341.054</ele>
        <time>2019-05-30T10:03:51Z</time>
      </trkpt>
      <trkpt lat="42.451046" lon="1.887260">
        <ele>1341.679</ele>
        <time>2019-05-30T10:03:54Z</time>
      </trkpt>
      <trkpt lat="42.451074" lon="1.887209">
        <ele>1342.238</ele>
        <time>2019-05-30T10:03:58Z</time>
      </trkpt>
      <trkpt lat="42.451112" lon="1.887155">
        <ele>1343.070</ele>
        <time>2019-05-30T10:04:03Z</time>
      </trkpt>
      <trkpt lat="42.451119" lon="1.887145">
        <ele>1343.417</ele>
        <time>2019-05-30T10:04:04Z</time>
      </trkpt>
      <trkpt lat="42.451180" lon="1.887058">
        <ele>1344.208</ele>
        <time>2019-05-30T10:04:11Z</time>
      </trkpt>
      <trkpt lat="42.451190" lon="1.887050">
        <ele>1344.456</ele>
        <time>2019-05-30T10:04:12Z</time>
      </trkpt>
      <trkpt lat="42.451244" lon="1.886983">
        <ele>1345.650</ele>
        <time>2019-05-30T10:04:18Z</time>
      </trkpt>
      <trkpt lat="42.451255" lon="1.886975">
        <ele>1345.846</ele>
        <time>2019-05-30T10:04:19Z</time>
      </trkpt>
      <trkpt lat="42.451329" lon="1.886948">
        <ele>1346.664</ele>
        <time>2019-05-30T10:04:25Z</time>
      </trkpt>
      <trkpt lat="42.451339" lon="1.886944">
        <ele>1346.857</ele>
        <time>2019-05-30T10:04:26Z</time>
      </trkpt>
      <trkpt lat="42.451378" lon="1.886909">
        <ele>1348.081</ele>
        <time>2019-05-30T10:04:30Z</time>
      </trkpt>
      <trkpt lat="42.451385" lon="1.886872">
        <ele>1348.229</ele>
        <time>2019-05-30T10:04:32Z</time>
      </trkpt>
      <trkpt lat="42.451377" lon="1.886789">
        <ele>1348.624</ele>
        <time>2019-05-30T10:04:37Z</time>
      </trkpt>
      <trkpt lat="42.449858" lon="1.886028">
        <ele>1370.266</ele>
        <time>2019-05-30T10:09:48Z</time>
      </trkpt>
      <trkpt lat="42.449848" lon="1.886022">
        <ele>1370.429</ele>
        <time>2019-05-30T10:09:49Z</time>
      </trkpt>
      <trkpt lat="42.449758" lon="1.885966">
        <ele>1370.821</ele>
        <time>2019-05-30T10:09:55Z</time>
      </trkpt>
      <trkpt lat="42.449670" lon="1.885873">
        <ele>1371.408</ele>
        <time>2019-05-30T10:10:02Z</time>
      </trkpt>
      <trkpt lat="42.449661" lon="1.885857">
        <ele>1371.629</ele>
        <time>2019-05-30T10:10:03Z</time>
      </trkpt>
      <trkpt lat="42.449636" lon="1.885812">
        <ele>1372.493</ele>
        <time>2019-05-30T10:10:06Z</time>
      </trkpt>
      <trkpt lat="42.449599" lon="1.885724">
        <ele>1373.649</ele>
        <time>2019-05-30T10:10:11Z</time>
      </trkpt>
      <trkpt lat="42.449548" lon="1.885636">
        <ele>1374.617</ele>
        <time>2019-05-30T10:10:17Z</time>
      </trkpt>
      <trkpt lat="42.449508" lon="1.885591">
        <ele>1375.810</ele>
        <time>2019-05-30T10:10:21Z</time>
      </trkpt>
      <trkpt lat="42.449463" lon="1.885582">
        <ele>1376.624</ele>
        <time>2019-05-30T10:10:24Z</time>
      </trkpt>
      <trkpt lat="42.449422" lon="1.885568">
        <ele>1376.852</ele>
        <time>2019-05-30T10:10:27Z</time>
      </trkpt>
      <trkpt lat="42.449344" lon="1.885567">
        <ele>1377.287</ele>
        <time>2019-05-30T10:10:32Z</time>
      </trkpt>
      <trkpt lat="42.449286" lon="1.885545">
        <ele>1378.089</ele>
        <time>2019-05-30T10:10:36Z</time>
      </trkpt>
      <trkpt lat="42.449261" lon="1.885545">
        <ele>1378.206</ele>
        <time>2019-05-30T10:10:38Z</time>
      </trkpt>
      <trkpt lat="42.449126" lon="1.885486">
        <ele>1378.826</ele>
        <time>2019-05-30T10:10:46Z</time>
      </trkpt>
      <trkpt lat="42.449104" lon="1.885479">
        <ele>1379.008</ele>
        <time>2019-05-30T10:10:47Z</time>
      </trkpt>
      <trkpt lat="42.448972" lon="1.885454">
        <ele>1378.681</ele>
        <time>2019-05-30T10:10:53Z</time>
      </trkpt>
      <trkpt lat="42.448782" lon="1.885410">
        <ele>1378.415</ele>
        <time>2019-05-30T10:11:01Z</time>
      </trkpt>
      <trkpt lat="42.448628" lon="1.885320">
        <ele>1379.231</ele>
        <time>2019-05-30T10:11:08Z</time>
      </trkpt>
      <trkpt lat="42.448465" lon="1.885197">
        <ele>1378.889</ele>
        <time>2019-05-30T10:11:15Z</time>
      </trkpt>
      <trkpt lat="42.448291" lon="1.885030">
        <ele>1378.032</ele>
        <time>2019-05-30T10:11:21Z</time>
      </trkpt>
      <trkpt lat="42.448237" lon="1.884965">
        <ele>1377.446</ele>
        <time>2019-05-30T10:11:23Z</time>
      </trkpt>
      <trkpt lat="42.448137" lon="1.884791">
        <ele>1378.474</ele>
        <time>2019-05-30T10:11:28Z</time>
      </trkpt>
      <trkpt lat="42.448101" lon="1.884727">
        <ele>1379.249</ele>
        <time>2019-05-30T10:11:30Z</time>
      </trkpt>
      <trkpt lat="42.448021" lon="1.884554">
        <ele>1378.078</ele>
        <time>2019-05-30T10:11:35Z</time>
      </trkpt>
      <trkpt lat="42.447912" lon="1.884309">
        <ele>1377.433</ele>
        <time>2019-05-30T10:11:41Z</time>
      </trkpt>
      <trkpt lat="42.447897" lon="1.884246">
        <ele>1376.826</ele>
        <time>2019-05-30T10:11:42Z</time>
      </trkpt>
      <trkpt lat="42.447914" lon="1.884026">
        <ele>1375.808</ele>
        <time>2019-05-30T10:11:45Z</time>
      </trkpt>
      <trkpt lat="42.447975" lon="1.883804">
        <ele>1374.680</ele>
        <time>2019-05-30T10:11:48Z</time>
      </trkpt>
      <trkpt lat="42.448021" lon="1.883649">
        <ele>1374.084</ele>
        <time>2019-05-30T10:11:50Z</time>
      </trkpt>
      <trkpt lat="42.448047" lon="1.883572">
        <ele>1373.670</ele>
        <time>2019-05-30T10:11:51Z</time>
      </trkpt>
      <trkpt lat="42.448115" lon="1.883330">
        <ele>1372.238</ele>
        <time>2019-05-30T10:11:54Z</time>
      </trkpt>
      <trkpt lat="42.448268" lon="1.882855">
        <ele>1372.261</ele>
        <time>2019-05-30T10:12:00Z</time>
      </trkpt>
      <trkpt lat="42.448354" lon="1.882649">
        <ele>1371.445</ele>
        <time>2019-05-30T10:12:03Z</time>
      </trkpt>
      <trkpt lat="42.448392" lon="1.882520">
        <ele>1372.033</ele>
        <time>2019-05-30T10:12:05Z</time>
      </trkpt>
      <trkpt lat="42.448524" lon="1.882180">
        <ele>1372.678</ele>
        <time>2019-05-30T10:12:11Z</time>
      </trkpt>
      <trkpt lat="42.448654" lon="1.881848">
        <ele>1371.645</ele>
        <time>2019-05-30T10:12:17Z</time>
      </trkpt>
      <trkpt lat="42.448681" lon="1.881730">
        <ele>1371.647</ele>
        <time>2019-05-30T10:12:19Z</time>
      </trkpt>
      <trkpt lat="42.448764" lon="1.881315">
        <ele>1371.811</ele>
        <time>2019-05-30T10:12:26Z</time>
      </trkpt>
      <trkpt lat="42.448778" lon="1.881136">
        <ele>1372.008</ele>
        <time>2019-05-30T10:12:29Z</time>
      </trkpt>
      <trkpt lat="42.448769" lon="1.880967">
        <ele>1372.297</ele>
        <time>2019-05-30T10:12:32Z</time>
      </trkpt>
      <trkpt lat="42.448766" lon="1.880914">
        <ele>1372.421</ele>
        <time>2019-05-30T10:12:33Z</time>
      </trkpt>
      <trkpt lat="42.448700" lon="1.880753">
        <ele>1372.837</ele>
        <time>2019-05-30T10:12:37Z</time>
      </trkpt>
      <trkpt lat="42.448677" lon="1.880684">
        <ele>1373.415</ele>
        <time>2019-05-30T10:12:39Z</time>
      </trkpt>
      <trkpt lat="42.448681" lon="1.880651">
        <ele>1373.868</ele>
        <time>2019-05-30T10:12:40Z</time>
      </trkpt>
      <trkpt lat="42.448688" lon="1.880625">
        <ele>1374.072</ele>
        <time>2019-05-30T10:12:41Z</time>
      </trkpt>
      <trkpt lat="42.448722" lon="1.880561">
        <ele>1374.640</ele>
        <time>2019-05-30T10:12:44Z</time>
      </trkpt>
      <trkpt lat="42.448758" lon="1.880508">
        <ele>1375.275</ele>
        <time>2019-05-30T10:12:47Z</time>
      </trkpt>
      <trkpt lat="42.448766" lon="1.880493">
        <ele>1375.874</ele>
        <time>2019-05-30T10:12:48Z</time>
      </trkpt>
      <trkpt lat="42.448812" lon="1.880423">
        <ele>1376.856</ele>
        <time>2019-05-30T10:12:53Z</time>
      </trkpt>
      <trkpt lat="42.448831" lon="1.880392">
        <ele>1377.021</ele>
        <time>2019-05-30T10:12:55Z</time>
      </trkpt>
      <trkpt lat="42.448913" lon="1.880275">
        <ele>1377.808</ele>
        <time>2019-05-30T10:13:03Z</time>
      </trkpt>
      <trkpt lat="42.448997" lon="1.880183">
        <ele>1379.250</ele>
        <time>2019-05-30T10:13:10Z</time>
      </trkpt>
      <trkpt lat="42.449017" lon="1.880152">
        <ele>1379.634</ele>
        <time>2019-05-30T10:13:12Z</time>
      </trkpt>
      <trkpt lat="42.449059" lon="1.880110">
        <ele>1380.490</ele>
        <time>2019-05-30T10:13:15Z</time>
      </trkpt>
      <trkpt lat="42.449112" lon="1.880054">
        <ele>1381.668</ele>
        <time>2019-05-30T10:13:19Z</time>
      </trkpt>
      <trkpt lat="42.449207" lon="1.879991">
        <ele>1382.061</ele>
        <time>2019-05-30T10:13:26Z</time>
      </trkpt>
      <trkpt lat="42.449218" lon="1.879976">
        <ele>1382.265</ele>
        <time>2019-05-30T10:13:27Z</time>
      </trkpt>
      <trkpt lat="42.449243" lon="1.879931">
        <ele>1382.463</ele>
        <time>2019-05-30T10:13:30Z</time>
      </trkpt>
      <trkpt lat="42.449253" lon="1.879918">
        <ele>1382.648</ele>
        <time>2019-05-30T10:13:31Z</time>
      </trkpt>
      <trkpt lat="42.449279" lon="1.879868">
        <ele>1383.624</ele>
        <time>2019-05-30T10:13:34Z</time>
      </trkpt>
      <trkpt lat="42.449282" lon="1.879849">
        <ele>1383.804</ele>
        <time>2019-05-30T10:13:35Z</time>
      </trkpt>
      <trkpt lat="42.449307" lon="1.879784">
        <ele>1384.614</ele>
        <time>2019-05-30T10:13:39Z</time>
      </trkpt>
      <trkpt lat="42.449316" lon="1.879771">
        <ele>1384.608</ele>
        <time>2019-05-30T10:13:40Z</time>
      </trkpt>
      <trkpt lat="42.449325" lon="1.879758">
        <ele>1384.885</ele>
        <time>2019-05-30T10:13:41Z</time>
      </trkpt>
      <trkpt lat="42.449377" lon="1.879672">
        <ele>1385.899</ele>
        <time>2019-05-30T10:13:48Z</time>
      </trkpt>
      <trkpt lat="42.449394" lon="1.879646">
        <ele>1386.215</ele>
        <time>2019-05-30T10:13:50Z</time>
      </trkpt>
      <trkpt lat="42.449396" lon="1.879629">
        <ele>1386.423</ele>
        <time>2019-05-30T10:13:51Z</time>
      </trkpt>
      <trkpt lat="42.449399" lon="1.879592">
        <ele>1387.086</ele>
        <time>2019-05-30T10:13:53Z</time>
      </trkpt>
      <trkpt lat="42.449410" lon="1.879562">
        <ele>1386.890</ele>
        <time>2019-05-30T10:13:55Z</time>
      </trkpt>
      <trkpt lat="42.449427" lon="1.879462">
        <ele>1388.048</ele>
        <time>2019-05-30T10:14:01Z</time>
      </trkpt>
      <trkpt lat="42.449435" lon="1.879410">
        <ele>1389.073</ele>
        <time>2019-05-30T10:14:04Z</time>
      </trkpt>
      <trkpt lat="42.449427" lon="1.879372">
        <ele>1389.443</ele>
        <time>2019-05-30T10:14:06Z</time>
      </trkpt>
      <trkpt lat="42.449404" lon="1.879329">
        <ele>1390.264</ele>
        <time>2019-05-30T10:14:09Z</time>
      </trkpt>
      <trkpt lat="42.449393" lon="1.879316">
        <ele>1390.210</ele>
        <time>2019-05-30T10:14:10Z</time>
      </trkpt>
      <trkpt lat="42.449345" lon="1.879279">
        <ele>1390.808</ele>
        <time>2019-05-30T10:14:14Z</time>
      </trkpt>
      <trkpt lat="42.449315" lon="1.879241">
        <ele>1391.227</ele>
        <time>2019-05-30T10:14:17Z</time>
      </trkpt>
      <trkpt lat="42.449307" lon="1.879231">
        <ele>1391.451</ele>
        <time>2019-05-30T10:14:18Z</time>
      </trkpt>
      <trkpt lat="42.449295" lon="1.879168">
        <ele>1392.097</ele>
        <time>2019-05-30T10:14:22Z</time>
      </trkpt>
      <trkpt lat="42.449299" lon="1.879131">
        <ele>1392.215</ele>
        <time>2019-05-30T10:14:24Z</time>
      </trkpt>
      <trkpt lat="42.449308" lon="1.879113">
        <ele>1392.428</ele>
        <time>2019-05-30T10:14:25Z</time>
      </trkpt>
      <trkpt lat="42.449315" lon="1.879072">
        <ele>1392.672</ele>
        <time>2019-05-30T10:14:27Z</time>
      </trkpt>
      <trkpt lat="42.449324" lon="1.879018">
        <ele>1393.290</ele>
        <time>2019-05-30T10:14:30Z</time>
      </trkpt>
      <trkpt lat="42.449333" lon="1.878985">
        <ele>1393.495</ele>
        <time>2019-05-30T10:14:32Z</time>
      </trkpt>
      <trkpt lat="42.449353" lon="1.878885">
        <ele>1394.447</ele>
        <time>2019-05-30T10:14:38Z</time>
      </trkpt>
      <trkpt lat="42.449350" lon="1.878761">
        <ele>1395.429</ele>
        <time>2019-05-30T10:14:45Z</time>
      </trkpt>
      <trkpt lat="42.449349" lon="1.878740">
        <ele>1395.421</ele>
        <time>2019-05-30T10:14:46Z</time>
      </trkpt>
      <trkpt lat="42.449349" lon="1.878666">
        <ele>1396.608</ele>
        <time>2019-05-30T10:14:50Z</time>
      </trkpt>
      <trkpt lat="42.449349" lon="1.878633">
        <ele>1397.027</ele>
        <time>2019-05-30T10:14:52Z</time>
      </trkpt>
      <trkpt lat="42.449340" lon="1.878567">
        <ele>1397.861</ele>
        <time>2019-05-30T10:14:56Z</time>
      </trkpt>
      <trkpt lat="42.449361" lon="1.878473">
        <ele>1398.837</ele>
        <time>2019-05-30T10:15:01Z</time>
      </trkpt>
      <trkpt lat="42.449425" lon="1.878439">
        <ele>1399.645</ele>
        <time>2019-05-30T10:15:05Z</time>
      </trkpt>
      <trkpt lat="42.449441" lon="1.878432">
        <ele>1399.818</ele>
        <time>2019-05-30T10:15:06Z</time>
      </trkpt>
      <trkpt lat="42.449575" lon="1.878370">
        <ele>1401.052</ele>
        <time>2019-05-30T10:15:16Z</time>
      </trkpt>
      <trkpt lat="42.449644" lon="1.878304">
        <ele>1402.220</ele>
        <time>2019-05-30T10:15:22Z</time>
      </trkpt>
      <trkpt lat="42.449657" lon="1.878292">
        <ele>1402.245</ele>
        <time>2019-05-30T10:15:23Z</time>
      </trkpt>
      <trkpt lat="42.449733" lon="1.878228">
        <ele>1402.879</ele>
        <time>2019-05-30T10:15:30Z</time>
      </trkpt>
      <trkpt lat="42.449766" lon="1.878211">
        <ele>1403.205</ele>
        <time>2019-05-30T10:15:33Z</time>
      </trkpt>
      <trkpt lat="42.449832" lon="1.878191">
        <ele>1403.425</ele>
        <time>2019-05-30T10:15:38Z</time>
      </trkpt>
      <trkpt lat="42.449956" lon="1.878142">
        <ele>1404.008</ele>
        <time>2019-05-30T10:15:45Z</time>
      </trkpt>
      <trkpt lat="42.450102" lon="1.878044">
        <ele>1403.850</ele>
        <time>2019-05-30T10:15:51Z</time>
      </trkpt>
      <trkpt lat="42.450230" lon="1.877856">
        <ele>1403.644</ele>
        <time>2019-05-30T10:15:58Z</time>
      </trkpt>
      <trkpt lat="42.450281" lon="1.877817">
        <ele>1403.820</ele>
        <time>2019-05-30T10:16:03Z</time>
      </trkpt>
      <trkpt lat="42.450378" lon="1.877813">
        <ele>1402.848</ele>
        <time>2019-05-30T10:21:27Z</time>
      </trkpt>
      <trkpt lat="42.450417" lon="1.877832">
        <ele>1402.821</ele>
        <time>2019-05-30T10:21:29Z</time>
      </trkpt>
      <trkpt lat="42.450554" lon="1.877952">
        <ele>1404.095</ele>
        <time>2019-05-30T10:21:37Z</time>
      </trkpt>
      <trkpt lat="42.450577" lon="1.877973">
        <ele>1404.423</ele>
        <time>2019-05-30T10:21:39Z</time>
      </trkpt>
      <trkpt lat="42.450621" lon="1.878056">
        <ele>1404.868</ele>
        <time>2019-05-30T10:21:44Z</time>
      </trkpt>
      <trkpt lat="42.450626" lon="1.878071">
        <ele>1405.611</ele>
        <time>2019-05-30T10:21:45Z</time>
      </trkpt>
      <trkpt lat="42.450624" lon="1.878088">
        <ele>1406.021</ele>
        <time>2019-05-30T10:21:46Z</time>
      </trkpt>
      <trkpt lat="42.450651" lon="1.878178">
        <ele>1406.403</ele>
        <time>2019-05-30T10:21:51Z</time>
      </trkpt>
      <trkpt lat="42.450660" lon="1.878215">
        <ele>1406.808</ele>
        <time>2019-05-30T10:21:53Z</time>
      </trkpt>
      <trkpt lat="42.450679" lon="1.878283">
        <ele>1407.864</ele>
        <time>2019-05-30T10:21:57Z</time>
      </trkpt>
      <trkpt lat="42.450716" lon="1.878312">
        <ele>1408.078</ele>
        <time>2019-05-30T10:22:00Z</time>
      </trkpt>
      <trkpt lat="42.450777" lon="1.878390">
        <ele>1408.884</ele>
        <time>2019-05-30T10:22:06Z</time>
      </trkpt>
      <trkpt lat="42.450777" lon="1.878409">
        <ele>1409.032</ele>
        <time>2019-05-30T10:22:07Z</time>
      </trkpt>
      <trkpt lat="42.450792" lon="1.878461">
        <ele>1409.855</ele>
        <time>2019-05-30T10:22:10Z</time>
      </trkpt>
      <trkpt lat="42.450805" lon="1.878470">
        <ele>1410.019</ele>
        <time>2019-05-30T10:22:11Z</time>
      </trkpt>
      <trkpt lat="42.450849" lon="1.878492">
        <ele>1410.247</ele>
        <time>2019-05-30T10:22:14Z</time>
      </trkpt>
      <trkpt lat="42.450870" lon="1.878538">
        <ele>1410.022</ele>
        <time>2019-05-30T10:22:17Z</time>
      </trkpt>
      <trkpt lat="42.450881" lon="1.878590">
        <ele>1411.033</ele>
        <time>2019-05-30T10:22:20Z</time>
      </trkpt>
      <trkpt lat="42.450879" lon="1.878602">
        <ele>1411.423</ele>
        <time>2019-05-30T10:22:21Z</time>
      </trkpt>
      <trkpt lat="42.450919" lon="1.878620">
        <ele>1412.415</ele>
        <time>2019-05-30T10:22:24Z</time>
      </trkpt>
      <trkpt lat="42.450956" lon="1.878697">
        <ele>1413.408</ele>
        <time>2019-05-30T10:22:30Z</time>
      </trkpt>
      <trkpt lat="42.450958" lon="1.878714">
        <ele>1413.616</ele>
        <time>2019-05-30T10:22:31Z</time>
      </trkpt>
      <trkpt lat="42.450966" lon="1.878726">
        <ele>1413.850</ele>
        <time>2019-05-30T10:22:32Z</time>
      </trkpt>
      <trkpt lat="42.451024" lon="1.878744">
        <ele>1414.466</ele>
        <time>2019-05-30T10:22:36Z</time>
      </trkpt>
      <trkpt lat="42.451037" lon="1.878754">
        <ele>1414.644</ele>
        <time>2019-05-30T10:22:37Z</time>
      </trkpt>
      <trkpt lat="42.451044" lon="1.878831">
        <ele>1415.497</ele>
        <time>2019-05-30T10:22:41Z</time>
      </trkpt>
      <trkpt lat="42.451047" lon="1.878846">
        <ele>1415.651</ele>
        <time>2019-05-30T10:22:42Z</time>
      </trkpt>
      <trkpt lat="42.451058" lon="1.878859">
        <ele>1415.829</ele>
        <time>2019-05-30T10:22:43Z</time>
      </trkpt>
      <trkpt lat="42.451109" lon="1.878895">
        <ele>1416.424</ele>
        <time>2019-05-30T10:22:47Z</time>
      </trkpt>
      <trkpt lat="42.451116" lon="1.878911">
        <ele>1416.655</ele>
        <time>2019-05-30T10:22:48Z</time>
      </trkpt>
      <trkpt lat="42.451124" lon="1.878947">
        <ele>1416.807</ele>
        <time>2019-05-30T10:22:50Z</time>
      </trkpt>
      <trkpt lat="42.451124" lon="1.878969">
        <ele>1417.217</ele>
        <time>2019-05-30T10:22:51Z</time>
      </trkpt>
      <trkpt lat="42.451122" lon="1.878985">
        <ele>1417.408</ele>
        <time>2019-05-30T10:22:52Z</time>
      </trkpt>
      <trkpt lat="42.451121" lon="1.879003">
        <ele>1417.688</ele>
        <time>2019-05-30T10:22:53Z</time>
      </trkpt>
      <trkpt lat="42.451123" lon="1.879040">
        <ele>1417.892</ele>
        <time>2019-05-30T10:22:55Z</time>
      </trkpt>
      <trkpt lat="42.451136" lon="1.879165">
        <ele>1419.078</ele>
        <time>2019-05-30T10:23:02Z</time>
      </trkpt>
      <trkpt lat="42.451142" lon="1.879181">
        <ele>1419.096</ele>
        <time>2019-05-30T10:23:03Z</time>
      </trkpt>
      <trkpt lat="42.451167" lon="1.879312">
        <ele>1419.839</ele>
        <time>2019-05-30T10:23:10Z</time>
      </trkpt>
      <trkpt lat="42.451174" lon="1.879326">
        <ele>1420.083</ele>
        <time>2019-05-30T10:23:11Z</time>
      </trkpt>
      <trkpt lat="42.451211" lon="1.879432">
        <ele>1420.631</ele>
        <time>2019-05-30T10:23:17Z</time>
      </trkpt>
      <trkpt lat="42.451267" lon="1.879533">
        <ele>1421.066</ele>
        <time>2019-05-30T10:23:23Z</time>
      </trkpt>
      <trkpt lat="42.451284" lon="1.879567">
        <ele>1421.296</ele>
        <time>2019-05-30T10:23:25Z</time>
      </trkpt>
      <trkpt lat="42.451355" lon="1.879675">
        <ele>1421.831</ele>
        <time>2019-05-30T10:23:32Z</time>
      </trkpt>
      <trkpt lat="42.451380" lon="1.879693">
        <ele>1422.424</ele>
        <time>2019-05-30T10:23:34Z</time>
      </trkpt>
      <trkpt lat="42.451396" lon="1.879691">
        <ele>1422.608</ele>
        <time>2019-05-30T10:23:35Z</time>
      </trkpt>
      <trkpt lat="42.451412" lon="1.879722">
        <ele>1422.822</ele>
        <time>2019-05-30T10:23:37Z</time>
      </trkpt>
      <trkpt lat="42.451434" lon="1.879784">
        <ele>1423.666</ele>
        <time>2019-05-30T10:23:41Z</time>
      </trkpt>
      <trkpt lat="42.451466" lon="1.879799">
        <ele>1424.262</ele>
        <time>2019-05-30T10:23:43Z</time>
      </trkpt>
      <trkpt lat="42.451477" lon="1.879811">
        <ele>1424.630</ele>
        <time>2019-05-30T10:23:44Z</time>
      </trkpt>
      <trkpt lat="42.451502" lon="1.879882">
        <ele>1425.053</ele>
        <time>2019-05-30T10:23:48Z</time>
      </trkpt>
      <trkpt lat="42.451552" lon="1.879964">
        <ele>1425.217</ele>
        <time>2019-05-30T10:23:53Z</time>
      </trkpt>
      <trkpt lat="42.451581" lon="1.879965">
        <ele>1425.655</ele>
        <time>2019-05-30T10:23:55Z</time>
      </trkpt>
      <trkpt lat="42.451601" lon="1.880017">
        <ele>1426.020</ele>
        <time>2019-05-30T10:23:58Z</time>
      </trkpt>
      <trkpt lat="42.451605" lon="1.880034">
        <ele>1426.277</ele>
        <time>2019-05-30T10:23:59Z</time>
      </trkpt>
      <trkpt lat="42.451620" lon="1.880068">
        <ele>1426.461</ele>
        <time>2019-05-30T10:24:01Z</time>
      </trkpt>
      <trkpt lat="42.451649" lon="1.880083">
        <ele>1426.427</ele>
        <time>2019-05-30T10:24:03Z</time>
      </trkpt>
      <trkpt lat="42.451664" lon="1.880092">
        <ele>1426.808</ele>
        <time>2019-05-30T10:24:04Z</time>
      </trkpt>
      <trkpt lat="42.451695" lon="1.880126">
        <ele>1427.230</ele>
        <time>2019-05-30T10:24:07Z</time>
      </trkpt>
      <trkpt lat="42.451712" lon="1.880181">
        <ele>1427.684</ele>
        <time>2019-05-30T10:24:10Z</time>
      </trkpt>
      <trkpt lat="42.451713" lon="1.880201">
        <ele>1427.890</ele>
        <time>2019-05-30T10:24:11Z</time>
      </trkpt>
      <trkpt lat="42.451735" lon="1.880229">
        <ele>1428.088</ele>
        <time>2019-05-30T10:24:13Z</time>
      </trkpt>
      <trkpt lat="42.451765" lon="1.880238">
        <ele>1428.281</ele>
        <time>2019-05-30T10:24:15Z</time>
      </trkpt>
      <trkpt lat="42.451792" lon="1.880259">
        <ele>1428.895</ele>
        <time>2019-05-30T10:24:17Z</time>
      </trkpt>
      <trkpt lat="42.451798" lon="1.880277">
        <ele>1429.033</ele>
        <time>2019-05-30T10:24:18Z</time>
      </trkpt>
      <trkpt lat="42.451811" lon="1.880333">
        <ele>1429.288</ele>
        <time>2019-05-30T10:24:21Z</time>
      </trkpt>
      <trkpt lat="42.451880" lon="1.880420">
        <ele>1429.865</ele>
        <time>2019-05-30T10:24:27Z</time>
      </trkpt>
      <trkpt lat="42.451891" lon="1.880433">
        <ele>1430.068</ele>
        <time>2019-05-30T10:24:28Z</time>
      </trkpt>
      <trkpt lat="42.451988" lon="1.880512">
        <ele>1430.814</ele>
        <time>2019-05-30T10:24:35Z</time>
      </trkpt>
      <trkpt lat="42.452001" lon="1.880535">
        <ele>1431.008</ele>
        <time>2019-05-30T10:24:37Z</time>
      </trkpt>
      <trkpt lat="42.452069" lon="1.880665">
        <ele>1431.629</ele>
        <time>2019-05-30T10:24:44Z</time>
      </trkpt>
      <trkpt lat="42.452083" lon="1.880704">
        <ele>1431.883</ele>
        <time>2019-05-30T10:24:46Z</time>
      </trkpt>
      <trkpt lat="42.452141" lon="1.880820">
        <ele>1432.699</ele>
        <time>2019-05-30T10:24:52Z</time>
      </trkpt>
      <trkpt lat="42.452175" lon="1.880873">
        <ele>1432.827</ele>
        <time>2019-05-30T10:24:55Z</time>
      </trkpt>
      <trkpt lat="42.452211" lon="1.880954">
        <ele>1433.840</ele>
        <time>2019-05-30T10:25:00Z</time>
      </trkpt>
      <trkpt lat="42.452223" lon="1.880996">
        <ele>1434.234</ele>
        <time>2019-05-30T10:25:02Z</time>
      </trkpt>
      <trkpt lat="42.452247" lon="1.881083">
        <ele>1435.222</ele>
        <time>2019-05-30T10:25:06Z</time>
      </trkpt>
      <trkpt lat="42.452227" lon="1.881152">
        <ele>1435.637</ele>
        <time>2019-05-30T10:25:10Z</time>
      </trkpt>
      <trkpt lat="42.452179" lon="1.881292">
        <ele>1436.253</ele>
        <time>2019-05-30T10:25:16Z</time>
      </trkpt>
      <trkpt lat="42.452096" lon="1.881472">
        <ele>1435.604</ele>
        <time>2019-05-30T10:25:23Z</time>
      </trkpt>
      <trkpt lat="42.452031" lon="1.881692">
        <ele>1435.214</ele>
        <time>2019-05-30T10:25:30Z</time>
      </trkpt>
      <trkpt lat="42.452021" lon="1.881725">
        <ele>1435.208</ele>
        <time>2019-05-30T10:25:31Z</time>
      </trkpt>
      <trkpt lat="42.451967" lon="1.881991">
        <ele>1435.478</ele>
        <time>2019-05-30T10:25:39Z</time>
      </trkpt>
      <trkpt lat="42.451943" lon="1.882143">
        <ele>1436.422</ele>
        <time>2019-05-30T10:25:44Z</time>
      </trkpt>
      <trkpt lat="42.451944" lon="1.882233">
        <ele>1436.818</ele>
        <time>2019-05-30T10:25:47Z</time>
      </trkpt>
      <trkpt lat="42.451958" lon="1.882316">
        <ele>1437.466</ele>
        <time>2019-05-30T10:25:50Z</time>
      </trkpt>
      <trkpt lat="42.451997" lon="1.882439">
        <ele>1437.829</ele>
        <time>2019-05-30T10:25:55Z</time>
      </trkpt>
      <trkpt lat="42.452016" lon="1.882484">
        <ele>1438.473</ele>
        <time>2019-05-30T10:25:57Z</time>
      </trkpt>
      <trkpt lat="42.452096" lon="1.882600">
        <ele>1439.691</ele>
        <time>2019-05-30T10:26:04Z</time>
      </trkpt>
      <trkpt lat="42.452181" lon="1.882707">
        <ele>1440.636</ele>
        <time>2019-05-30T10:26:11Z</time>
      </trkpt>
      <trkpt lat="42.452254" lon="1.882785">
        <ele>1441.644</ele>
        <time>2019-05-30T10:26:17Z</time>
      </trkpt>
      <trkpt lat="42.452296" lon="1.882818">
        <ele>1442.005</ele>
        <time>2019-05-30T10:26:20Z</time>
      </trkpt>
      <trkpt lat="42.452418" lon="1.882821">
        <ele>1442.215</ele>
        <time>2019-05-30T10:26:28Z</time>
      </trkpt>
      <trkpt lat="42.452508" lon="1.882793">
        <ele>1442.808</ele>
        <time>2019-05-30T10:26:34Z</time>
      </trkpt>
      <trkpt lat="42.452523" lon="1.882785">
        <ele>1442.877</ele>
        <time>2019-05-30T10:26:35Z</time>
      </trkpt>
      <trkpt lat="42.452642" lon="1.882716">
        <ele>1444.041</ele>
        <time>2019-05-30T10:26:43Z</time>
      </trkpt>
      <trkpt lat="42.452657" lon="1.882708">
        <ele>1444.297</ele>
        <time>2019-05-30T10:26:44Z</time>
      </trkpt>
      <trkpt lat="42.452788" lon="1.882632">
        <ele>1444.665</ele>
        <time>2019-05-30T10:26:53Z</time>
      </trkpt>
      <trkpt lat="42.452820" lon="1.882634">
        <ele>1445.218</ele>
        <time>2019-05-30T10:26:55Z</time>
      </trkpt>
      <trkpt lat="42.452895" lon="1.882633">
        <ele>1445.862</ele>
        <time>2019-05-30T10:26:59Z</time>
      </trkpt>
      <trkpt lat="42.452994" lon="1.882612">
        <ele>1445.870</ele>
        <time>2019-05-30T10:27:06Z</time>
      </trkpt>
      <trkpt lat="42.453033" lon="1.882591">
        <ele>1446.225</ele>
        <time>2019-05-30T10:27:09Z</time>
      </trkpt>
      <trkpt lat="42.453059" lon="1.882581">
        <ele>1447.497</ele>
        <time>2019-05-30T10:27:11Z</time>
      </trkpt>
      <trkpt lat="42.453113" lon="1.882557">
        <ele>1448.423</ele>
        <time>2019-05-30T10:27:15Z</time>
      </trkpt>
      <trkpt lat="42.453138" lon="1.882543">
        <ele>1448.625</ele>
        <time>2019-05-30T10:27:17Z</time>
      </trkpt>
      <trkpt lat="42.453215" lon="1.882514">
        <ele>1448.808</ele>
        <time>2019-05-30T10:27:23Z</time>
      </trkpt>
      <trkpt lat="42.453268" lon="1.882489">
        <ele>1449.612</ele>
        <time>2019-05-30T10:27:27Z</time>
      </trkpt>
      <trkpt lat="42.453350" lon="1.882452">
        <ele>1450.846</ele>
        <time>2019-05-30T10:27:33Z</time>
      </trkpt>
      <trkpt lat="42.453473" lon="1.882392">
        <ele>1451.872</ele>
        <time>2019-05-30T10:27:42Z</time>
      </trkpt>
      <trkpt lat="42.453499" lon="1.882389">
        <ele>1452.060</ele>
        <time>2019-05-30T10:27:44Z</time>
      </trkpt>
      <trkpt lat="42.453512" lon="1.882376">
        <ele>1452.033</ele>
        <time>2019-05-30T10:27:45Z</time>
      </trkpt>
      <trkpt lat="42.453593" lon="1.882334">
        <ele>1452.247</ele>
        <time>2019-05-30T10:27:51Z</time>
      </trkpt>
      <trkpt lat="42.453634" lon="1.882322">
        <ele>1452.865</ele>
        <time>2019-05-30T10:27:54Z</time>
      </trkpt>
      <trkpt lat="42.453700" lon="1.882289">
        <ele>1453.290</ele>
        <time>2019-05-30T10:27:59Z</time>
      </trkpt>
      <trkpt lat="42.453755" lon="1.882265">
        <ele>1454.056</ele>
        <time>2019-05-30T10:28:03Z</time>
      </trkpt>
      <trkpt lat="42.453811" lon="1.882245">
        <ele>1455.059</ele>
        <time>2019-05-30T10:28:07Z</time>
      </trkpt>
      <trkpt lat="42.453825" lon="1.882237">
        <ele>1455.014</ele>
        <time>2019-05-30T10:28:08Z</time>
      </trkpt>
      <trkpt lat="42.453929" lon="1.882186">
        <ele>1456.008</ele>
        <time>2019-05-30T10:28:15Z</time>
      </trkpt>
      <trkpt lat="42.453968" lon="1.882175">
        <ele>1455.898</ele>
        <time>2019-05-30T10:28:18Z</time>
      </trkpt>
      <trkpt lat="42.454080" lon="1.882126">
        <ele>1457.082</ele>
        <time>2019-05-30T10:28:26Z</time>
      </trkpt>
      <trkpt lat="42.454129" lon="1.882110">
        <ele>1457.848</ele>
        <time>2019-05-30T10:28:30Z</time>
      </trkpt>
      <trkpt lat="42.454155" lon="1.882100">
        <ele>1458.256</ele>
        <time>2019-05-30T10:28:32Z</time>
      </trkpt>
      <trkpt lat="42.454270" lon="1.882059">
        <ele>1458.859</ele>
        <time>2019-05-30T10:28:41Z</time>
      </trkpt>
      <trkpt lat="42.454331" lon="1.882038">
        <ele>1459.273</ele>
        <time>2019-05-30T10:28:45Z</time>
      </trkpt>
      <trkpt lat="42.454418" lon="1.882005">
        <ele>1459.841</ele>
        <time>2019-05-30T10:28:52Z</time>
      </trkpt>
      <trkpt lat="42.454447" lon="1.881996">
        <ele>1460.446</ele>
        <time>2019-05-30T10:28:54Z</time>
      </trkpt>
      <trkpt lat="42.454504" lon="1.881974">
        <ele>1461.697</ele>
        <time>2019-05-30T10:28:58Z</time>
      </trkpt>
      <trkpt lat="42.454556" lon="1.881956">
        <ele>1462.023</ele>
        <time>2019-05-30T10:29:02Z</time>
      </trkpt>
      <trkpt lat="42.454642" lon="1.881915">
        <ele>1462.625</ele>
        <time>2019-05-30T10:29:08Z</time>
      </trkpt>
      <trkpt lat="42.454672" lon="1.881900">
        <ele>1462.608</ele>
        <time>2019-05-30T10:29:10Z</time>
      </trkpt>
      <trkpt lat="42.454721" lon="1.881882">
        <ele>1463.072</ele>
        <time>2019-05-30T10:29:14Z</time>
      </trkpt>
      <trkpt lat="42.454765" lon="1.881854">
        <ele>1463.226</ele>
        <time>2019-05-30T10:29:17Z</time>
      </trkpt>
      <trkpt lat="42.454795" lon="1.881838">
        <ele>1463.812</ele>
        <time>2019-05-30T10:29:19Z</time>
      </trkpt>
      <trkpt lat="42.454821" lon="1.881826">
        <ele>1464.460</ele>
        <time>2019-05-30T10:29:21Z</time>
      </trkpt>
      <trkpt lat="42.454844" lon="1.881805">
        <ele>1464.613</ele>
        <time>2019-05-30T10:29:23Z</time>
      </trkpt>
      <trkpt lat="42.454874" lon="1.881791">
        <ele>1465.047</ele>
        <time>2019-05-30T10:29:25Z</time>
      </trkpt>
      <trkpt lat="42.454921" lon="1.881776">
        <ele>1464.875</ele>
        <time>2019-05-30T10:29:28Z</time>
      </trkpt>
      <trkpt lat="42.454980" lon="1.881735">
        <ele>1466.070</ele>
        <time>2019-05-30T10:29:32Z</time>
      </trkpt>
      <trkpt lat="42.455011" lon="1.881719">
        <ele>1466.621</ele>
        <time>2019-05-30T10:29:34Z</time>
      </trkpt>
      <trkpt lat="42.455047" lon="1.881699">
        <ele>1466.641</ele>
        <time>2019-05-30T10:29:37Z</time>
      </trkpt>
      <trkpt lat="42.455084" lon="1.881684">
        <ele>1467.005</ele>
        <time>2019-05-30T10:29:40Z</time>
      </trkpt>
      <trkpt lat="42.455121" lon="1.881661">
        <ele>1467.208</ele>
        <time>2019-05-30T10:29:43Z</time>
      </trkpt>
      <trkpt lat="42.455163" lon="1.881638">
        <ele>1467.865</ele>
        <time>2019-05-30T10:29:47Z</time>
      </trkpt>
      <trkpt lat="42.455182" lon="1.881619">
        <ele>1468.449</ele>
        <time>2019-05-30T10:29:49Z</time>
      </trkpt>
      <trkpt lat="42.455204" lon="1.881597">
        <ele>1468.655</ele>
        <time>2019-05-30T10:29:51Z</time>
      </trkpt>
      <trkpt lat="42.455235" lon="1.881558">
        <ele>1469.073</ele>
        <time>2019-05-30T10:29:54Z</time>
      </trkpt>
      <trkpt lat="42.455248" lon="1.881551">
        <ele>1469.226</ele>
        <time>2019-05-30T10:29:55Z</time>
      </trkpt>
      <trkpt lat="42.455311" lon="1.881546">
        <ele>1469.270</ele>
        <time>2019-05-30T10:30:00Z</time>
      </trkpt>
      <trkpt lat="42.455337" lon="1.881534">
        <ele>1469.448</ele>
        <time>2019-05-30T10:30:02Z</time>
      </trkpt>
      <trkpt lat="42.455388" lon="1.881496">
        <ele>1470.483</ele>
        <time>2019-05-30T10:30:06Z</time>
      </trkpt>
      <trkpt lat="42.455402" lon="1.881487">
        <ele>1470.655</ele>
        <time>2019-05-30T10:30:07Z</time>
      </trkpt>
      <trkpt lat="42.455500" lon="1.881430">
        <ele>1471.407</ele>
        <time>2019-05-30T10:30:15Z</time>
      </trkpt>
      <trkpt lat="42.455606" lon="1.881360">
        <ele>1471.417</ele>
        <time>2019-05-30T10:30:24Z</time>
      </trkpt>
      <trkpt lat="42.455669" lon="1.881323">
        <ele>1472.608</ele>
        <time>2019-05-30T10:30:29Z</time>
      </trkpt>
      <trkpt lat="42.455706" lon="1.881306">
        <ele>1473.448</ele>
        <time>2019-05-30T10:30:32Z</time>
      </trkpt>
      <trkpt lat="42.455747" lon="1.881270">
        <ele>1473.642</ele>
        <time>2019-05-30T10:30:36Z</time>
      </trkpt>
      <trkpt lat="42.455787" lon="1.881247">
        <ele>1473.838</ele>
        <time>2019-05-30T10:30:39Z</time>
      </trkpt>
      <trkpt lat="42.455877" lon="1.881195">
        <ele>1474.656</ele>
        <time>2019-05-30T10:30:46Z</time>
      </trkpt>
      <trkpt lat="42.455903" lon="1.881179">
        <ele>1475.079</ele>
        <time>2019-05-30T10:30:48Z</time>
      </trkpt>
      <trkpt lat="42.455939" lon="1.881153">
        <ele>1475.613</ele>
        <time>2019-05-30T10:30:51Z</time>
      </trkpt>
      <trkpt lat="42.456003" lon="1.881115">
        <ele>1476.851</ele>
        <time>2019-05-30T10:30:56Z</time>
      </trkpt>
      <trkpt lat="42.456015" lon="1.881109">
        <ele>1477.076</ele>
        <time>2019-05-30T10:30:57Z</time>
      </trkpt>
      <trkpt lat="42.456118" lon="1.881042">
        <ele>1476.873</ele>
        <time>2019-05-30T10:31:05Z</time>
      </trkpt>
      <trkpt lat="42.456191" lon="1.881006">
        <ele>1478.085</ele>
        <time>2019-05-30T10:31:11Z</time>
      </trkpt>
      <trkpt lat="42.456230" lon="1.880985">
        <ele>1478.413</ele>
        <time>2019-05-30T10:31:14Z</time>
      </trkpt>
      <trkpt lat="42.456313" lon="1.880932">
        <ele>1478.208</ele>
        <time>2019-05-30T10:31:21Z</time>
      </trkpt>
      <trkpt lat="42.456391" lon="1.880876">
        <ele>1479.430</ele>
        <time>2019-05-30T10:31:27Z</time>
      </trkpt>
      <trkpt lat="42.456417" lon="1.880859">
        <ele>1479.674</ele>
        <time>2019-05-30T10:31:29Z</time>
      </trkpt>
      <trkpt lat="42.456457" lon="1.880843">
        <ele>1478.030</ele>
        <time>2019-05-30T10:31:32Z</time>
      </trkpt>
      <trkpt lat="42.456495" lon="1.880818">
        <ele>1479.458</ele>
        <time>2019-05-30T10:31:35Z</time>
      </trkpt>
      <trkpt lat="42.456547" lon="1.880783">
        <ele>1480.651</ele>
        <time>2019-05-30T10:31:39Z</time>
      </trkpt>
      <trkpt lat="42.456663" lon="1.880696">
        <ele>1480.435</ele>
        <time>2019-05-30T10:31:48Z</time>
      </trkpt>
      <trkpt lat="42.456761" lon="1.880626">
        <ele>1481.463</ele>
        <time>2019-05-30T10:31:56Z</time>
      </trkpt>
      <trkpt lat="42.456772" lon="1.880613">
        <ele>1481.848</ele>
        <time>2019-05-30T10:31:57Z</time>
      </trkpt>
      <trkpt lat="42.456798" lon="1.880590">
        <ele>1482.031</ele>
        <time>2019-05-30T10:31:59Z</time>
      </trkpt>
      <trkpt lat="42.456863" lon="1.880546">
        <ele>1483.061</ele>
        <time>2019-05-30T10:32:04Z</time>
      </trkpt>
      <trkpt lat="42.456963" lon="1.880469">
        <ele>1484.007</ele>
        <time>2019-05-30T10:32:11Z</time>
      </trkpt>
      <trkpt lat="42.457045" lon="1.880394">
        <ele>1484.608</ele>
        <time>2019-05-30T10:32:17Z</time>
      </trkpt>
      <trkpt lat="42.457069" lon="1.880379">
        <ele>1485.076</ele>
        <time>2019-05-30T10:32:19Z</time>
      </trkpt>
      <trkpt lat="42.457115" lon="1.880336">
        <ele>1483.840</ele>
        <time>2019-05-30T10:32:23Z</time>
      </trkpt>
      <trkpt lat="42.457127" lon="1.880323">
        <ele>1484.616</ele>
        <time>2019-05-30T10:32:24Z</time>
      </trkpt>
      <trkpt lat="42.457152" lon="1.880297">
        <ele>1486.634</ele>
        <time>2019-05-30T10:32:26Z</time>
      </trkpt>
      <trkpt lat="42.457164" lon="1.880285">
        <ele>1485.657</ele>
        <time>2019-05-30T10:32:27Z</time>
      </trkpt>
      <trkpt lat="42.457185" lon="1.880263">
        <ele>1486.871</ele>
        <time>2019-05-30T10:32:29Z</time>
      </trkpt>
      <trkpt lat="42.457209" lon="1.880250">
        <ele>1486.469</ele>
        <time>2019-05-30T10:32:31Z</time>
      </trkpt>
      <trkpt lat="42.457299" lon="1.880168">
        <ele>1487.414</ele>
        <time>2019-05-30T10:32:39Z</time>
      </trkpt>
      <trkpt lat="42.457321" lon="1.880153">
        <ele>1488.096</ele>
        <time>2019-05-30T10:32:41Z</time>
      </trkpt>
      <trkpt lat="42.457389" lon="1.880098">
        <ele>1488.631</ele>
        <time>2019-05-30T10:32:47Z</time>
      </trkpt>
      <trkpt lat="42.457425" lon="1.880066">
        <ele>1489.024</ele>
        <time>2019-05-30T10:32:50Z</time>
      </trkpt>
      <trkpt lat="42.457475" lon="1.880013">
        <ele>1490.008</ele>
        <time>2019-05-30T10:32:55Z</time>
      </trkpt>
      <trkpt lat="42.457498" lon="1.879989">
        <ele>1490.472</ele>
        <time>2019-05-30T10:32:57Z</time>
      </trkpt>
      <trkpt lat="42.457549" lon="1.879943">
        <ele>1491.016</ele>
        <time>2019-05-30T10:33:01Z</time>
      </trkpt>
      <trkpt lat="42.457591" lon="1.879896">
        <ele>1491.472</ele>
        <time>2019-05-30T10:33:05Z</time>
      </trkpt>
      <trkpt lat="42.457648" lon="1.879832">
        <ele>1492.050</ele>
        <time>2019-05-30T10:33:10Z</time>
      </trkpt>
      <trkpt lat="42.457710" lon="1.879774">
        <ele>1492.213</ele>
        <time>2019-05-30T10:33:15Z</time>
      </trkpt>
      <trkpt lat="42.457796" lon="1.879682">
        <ele>1493.457</ele>
        <time>2019-05-30T10:33:23Z</time>
      </trkpt>
      <trkpt lat="42.457808" lon="1.879672">
        <ele>1493.885</ele>
        <time>2019-05-30T10:33:24Z</time>
      </trkpt>
      <trkpt lat="42.457861" lon="1.879621">
        <ele>1494.010</ele>
        <time>2019-05-30T10:33:29Z</time>
      </trkpt>
      <trkpt lat="42.457897" lon="1.879584">
        <ele>1493.433</ele>
        <time>2019-05-30T10:33:32Z</time>
      </trkpt>
      <trkpt lat="42.457999" lon="1.879488">
        <ele>1493.423</ele>
        <time>2019-05-30T10:33:41Z</time>
      </trkpt>
      <trkpt lat="42.458050" lon="1.879449">
        <ele>1495.215</ele>
        <time>2019-05-30T10:33:45Z</time>
      </trkpt>
      <trkpt lat="42.458088" lon="1.879423">
        <ele>1496.408</ele>
        <time>2019-05-30T10:33:48Z</time>
      </trkpt>
      <trkpt lat="42.458203" lon="1.879343">
        <ele>1496.876</ele>
        <time>2019-05-30T10:33:57Z</time>
      </trkpt>
      <trkpt lat="42.458259" lon="1.879313">
        <ele>1497.450</ele>
        <time>2019-05-30T10:34:01Z</time>
      </trkpt>
      <trkpt lat="42.458307" lon="1.879269">
        <ele>1498.456</ele>
        <time>2019-05-30T10:34:05Z</time>
      </trkpt>
      <trkpt lat="42.458331" lon="1.879248">
        <ele>1498.854</ele>
        <time>2019-05-30T10:34:07Z</time>
      </trkpt>
      <trkpt lat="42.458422" lon="1.879188">
        <ele>1499.487</ele>
        <time>2019-05-30T10:34:14Z</time>
      </trkpt>
      <trkpt lat="42.458456" lon="1.879159">
        <ele>1500.071</ele>
        <time>2019-05-30T10:34:17Z</time>
      </trkpt>
      <trkpt lat="42.458548" lon="1.879096">
        <ele>1500.619</ele>
        <time>2019-05-30T10:34:24Z</time>
      </trkpt>
      <trkpt lat="42.458559" lon="1.879087">
        <ele>1500.814</ele>
        <time>2019-05-30T10:34:25Z</time>
      </trkpt>
      <trkpt lat="42.458592" lon="1.879059">
        <ele>1501.632</ele>
        <time>2019-05-30T10:34:28Z</time>
      </trkpt>
      <trkpt lat="42.458660" lon="1.879005">
        <ele>1503.092</ele>
        <time>2019-05-30T10:34:33Z</time>
      </trkpt>
      <trkpt lat="42.458734" lon="1.878918">
        <ele>1502.811</ele>
        <time>2019-05-30T10:34:40Z</time>
      </trkpt>
      <trkpt lat="42.458794" lon="1.878831">
        <ele>1503.608</ele>
        <time>2019-05-30T10:34:46Z</time>
      </trkpt>
      <trkpt lat="42.458812" lon="1.878786">
        <ele>1504.026</ele>
        <time>2019-05-30T10:34:49Z</time>
      </trkpt>
      <trkpt lat="42.458836" lon="1.878720">
        <ele>1504.450</ele>
        <time>2019-05-30T10:34:53Z</time>
      </trkpt>
      <trkpt lat="42.458865" lon="1.878629">
        <ele>1505.266</ele>
        <time>2019-05-30T10:34:58Z</time>
      </trkpt>
      <trkpt lat="42.458877" lon="1.878576">
        <ele>1505.064</ele>
        <time>2019-05-30T10:35:01Z</time>
      </trkpt>
      <trkpt lat="42.458925" lon="1.878398">
        <ele>1506.077</ele>
        <time>2019-05-30T10:35:11Z</time>
      </trkpt>
      <trkpt lat="42.458937" lon="1.878344">
        <ele>1506.621</ele>
        <time>2019-05-30T10:35:14Z</time>
      </trkpt>
      <trkpt lat="42.458968" lon="1.878227">
        <ele>1506.659</ele>
        <time>2019-05-30T10:35:20Z</time>
      </trkpt>
      <trkpt lat="42.459000" lon="1.878048">
        <ele>1507.664</ele>
        <time>2019-05-30T10:35:29Z</time>
      </trkpt>
      <trkpt lat="42.459004" lon="1.878006">
        <ele>1508.831</ele>
        <time>2019-05-30T10:35:31Z</time>
      </trkpt>
      <trkpt lat="42.459006" lon="1.877965">
        <ele>1508.661</ele>
        <time>2019-05-30T10:35:33Z</time>
      </trkpt>
      <trkpt lat="42.459019" lon="1.877909">
        <ele>1508.607</ele>
        <time>2019-05-30T10:35:36Z</time>
      </trkpt>
      <trkpt lat="42.459036" lon="1.877750">
        <ele>1509.408</ele>
        <time>2019-05-30T10:35:44Z</time>
      </trkpt>
      <trkpt lat="42.459045" lon="1.877623">
        <ele>1510.036</ele>
        <time>2019-05-30T10:35:51Z</time>
      </trkpt>
      <trkpt lat="42.459047" lon="1.877603">
        <ele>1510.250</ele>
        <time>2019-05-30T10:35:52Z</time>
      </trkpt>
      <trkpt lat="42.459056" lon="1.877573">
        <ele>1511.026</ele>
        <time>2019-05-30T10:35:54Z</time>
      </trkpt>
      <trkpt lat="42.459055" lon="1.877554">
        <ele>1511.494</ele>
        <time>2019-05-30T10:35:55Z</time>
      </trkpt>
      <trkpt lat="42.459050" lon="1.877503">
        <ele>1511.817</ele>
        <time>2019-05-30T10:35:58Z</time>
      </trkpt>
      <trkpt lat="42.459056" lon="1.877426">
        <ele>1512.091</ele>
        <time>2019-05-30T10:36:02Z</time>
      </trkpt>
      <trkpt lat="42.459059" lon="1.877366">
        <ele>1512.639</ele>
        <time>2019-05-30T10:36:05Z</time>
      </trkpt>
      <trkpt lat="42.459059" lon="1.877308">
        <ele>1512.684</ele>
        <time>2019-05-30T10:36:08Z</time>
      </trkpt>
      <trkpt lat="42.459060" lon="1.877289">
        <ele>1513.078</ele>
        <time>2019-05-30T10:36:09Z</time>
      </trkpt>
      <trkpt lat="42.459052" lon="1.877210">
        <ele>1513.233</ele>
        <time>2019-05-30T10:36:13Z</time>
      </trkpt>
      <trkpt lat="42.459051" lon="1.877115">
        <ele>1512.626</ele>
        <time>2019-05-30T10:36:18Z</time>
      </trkpt>
      <trkpt lat="42.459052" lon="1.877082">
        <ele>1513.408</ele>
        <time>2019-05-30T10:36:20Z</time>
      </trkpt>
      <trkpt lat="42.459051" lon="1.877062">
        <ele>1514.260</ele>
        <time>2019-05-30T10:36:21Z</time>
      </trkpt>
      <trkpt lat="42.459049" lon="1.876920">
        <ele>1514.624</ele>
        <time>2019-05-30T10:36:28Z</time>
      </trkpt>
      <trkpt lat="42.459041" lon="1.876819">
        <ele>1515.080</ele>
        <time>2019-05-30T10:36:34Z</time>
      </trkpt>
      <trkpt lat="42.459037" lon="1.876761">
        <ele>1515.218</ele>
        <time>2019-05-30T10:36:37Z</time>
      </trkpt>
      <trkpt lat="42.459033" lon="1.876704">
        <ele>1515.681</ele>
        <time>2019-05-30T10:36:40Z</time>
      </trkpt>
      <trkpt lat="42.459030" lon="1.876688">
        <ele>1515.635</ele>
        <time>2019-05-30T10:36:41Z</time>
      </trkpt>
      <trkpt lat="42.459011" lon="1.876502">
        <ele>1516.223</ele>
        <time>2019-05-30T10:36:51Z</time>
      </trkpt>
      <trkpt lat="42.459013" lon="1.876481">
        <ele>1516.658</ele>
        <time>2019-05-30T10:36:52Z</time>
      </trkpt>
      <trkpt lat="42.459002" lon="1.876425">
        <ele>1517.227</ele>
        <time>2019-05-30T10:36:55Z</time>
      </trkpt>
      <trkpt lat="42.458999" lon="1.876390">
        <ele>1517.468</ele>
        <time>2019-05-30T10:36:57Z</time>
      </trkpt>
      <trkpt lat="42.458985" lon="1.876261">
        <ele>1518.214</ele>
        <time>2019-05-30T10:37:04Z</time>
      </trkpt>
      <trkpt lat="42.458981" lon="1.876242">
        <ele>1518.408</ele>
        <time>2019-05-30T10:37:05Z</time>
      </trkpt>
      <trkpt lat="42.458973" lon="1.876169">
        <ele>1518.835</ele>
        <time>2019-05-30T10:37:09Z</time>
      </trkpt>
      <trkpt lat="42.458970" lon="1.876128">
        <ele>1518.899</ele>
        <time>2019-05-30T10:37:11Z</time>
      </trkpt>
      <trkpt lat="42.458959" lon="1.876015">
        <ele>1519.485</ele>
        <time>2019-05-30T10:37:17Z</time>
      </trkpt>
      <trkpt lat="42.458947" lon="1.875962">
        <ele>1519.893</ele>
        <time>2019-05-30T10:37:20Z</time>
      </trkpt>
      <trkpt lat="42.458933" lon="1.875838">
        <ele>1520.616</ele>
        <time>2019-05-30T10:37:26Z</time>
      </trkpt>
      <trkpt lat="42.458926" lon="1.875799">
        <ele>1520.830</ele>
        <time>2019-05-30T10:37:28Z</time>
      </trkpt>
      <trkpt lat="42.458923" lon="1.875668">
        <ele>1521.638</ele>
        <time>2019-05-30T10:37:35Z</time>
      </trkpt>
      <trkpt lat="42.458922" lon="1.875649">
        <ele>1521.853</ele>
        <time>2019-05-30T10:37:36Z</time>
      </trkpt>
      <trkpt lat="42.458916" lon="1.875545">
        <ele>1522.431</ele>
        <time>2019-05-30T10:37:42Z</time>
      </trkpt>
      <trkpt lat="42.458911" lon="1.875488">
        <ele>1522.861</ele>
        <time>2019-05-30T10:37:45Z</time>
      </trkpt>
      <trkpt lat="42.458900" lon="1.875410">
        <ele>1523.607</ele>
        <time>2019-05-30T10:37:49Z</time>
      </trkpt>
      <trkpt lat="42.458905" lon="1.875387">
        <ele>1523.608</ele>
        <time>2019-05-30T10:37:50Z</time>
      </trkpt>
      <trkpt lat="42.458905" lon="1.875371">
        <ele>1523.886</ele>
        <time>2019-05-30T10:37:51Z</time>
      </trkpt>
      <trkpt lat="42.458903" lon="1.875280">
        <ele>1524.260</ele>
        <time>2019-05-30T10:37:56Z</time>
      </trkpt>
      <trkpt lat="42.458902" lon="1.875217">
        <ele>1524.896</ele>
        <time>2019-05-30T10:37:59Z</time>
      </trkpt>
      <trkpt lat="42.458901" lon="1.875147">
        <ele>1525.244</ele>
        <time>2019-05-30T10:38:02Z</time>
      </trkpt>
      <trkpt lat="42.458900" lon="1.875129">
        <ele>1525.417</ele>
        <time>2019-05-30T10:38:03Z</time>
      </trkpt>
      <trkpt lat="42.458895" lon="1.875018">
        <ele>1526.221</ele>
        <time>2019-05-30T10:38:09Z</time>
      </trkpt>
      <trkpt lat="42.458893" lon="1.874978">
        <ele>1526.639</ele>
        <time>2019-05-30T10:38:11Z</time>
      </trkpt>
      <trkpt lat="42.458892" lon="1.874808">
        <ele>1527.024</ele>
        <time>2019-05-30T10:38:19Z</time>
      </trkpt>
      <trkpt lat="42.458894" lon="1.874786">
        <ele>1527.292</ele>
        <time>2019-05-30T10:38:20Z</time>
      </trkpt>
      <trkpt lat="42.458888" lon="1.874682">
        <ele>1528.273</ele>
        <time>2019-05-30T10:38:25Z</time>
      </trkpt>
      <trkpt lat="42.458887" lon="1.874663">
        <ele>1528.420</ele>
        <time>2019-05-30T10:38:26Z</time>
      </trkpt>
      <trkpt lat="42.458881" lon="1.874592">
        <ele>1529.408</ele>
        <time>2019-05-30T10:38:30Z</time>
      </trkpt>
      <trkpt lat="42.458884" lon="1.874515">
        <ele>1529.862</ele>
        <time>2019-05-30T10:38:34Z</time>
      </trkpt>
      <trkpt lat="42.458872" lon="1.874377">
        <ele>1530.496</ele>
        <time>2019-05-30T10:38:41Z</time>
      </trkpt>
      <trkpt lat="42.458872" lon="1.874340">
        <ele>1530.822</ele>
        <time>2019-05-30T10:38:43Z</time>
      </trkpt>
      <trkpt lat="42.458863" lon="1.874180">
        <ele>1530.090</ele>
        <time>2019-05-30T10:38:51Z</time>
      </trkpt>
      <trkpt lat="42.458859" lon="1.874081">
        <ele>1531.623</ele>
        <time>2019-05-30T10:38:56Z</time>
      </trkpt>
      <trkpt lat="42.458859" lon="1.874062">
        <ele>1531.837</ele>
        <time>2019-05-30T10:38:57Z</time>
      </trkpt>
      <trkpt lat="42.458861" lon="1.874003">
        <ele>1532.815</ele>
        <time>2019-05-30T10:39:00Z</time>
      </trkpt>
      <trkpt lat="42.458859" lon="1.873913">
        <ele>1533.260</ele>
        <time>2019-05-30T10:39:05Z</time>
      </trkpt>
      <trkpt lat="42.458875" lon="1.873762">
        <ele>1533.843</ele>
        <time>2019-05-30T10:39:13Z</time>
      </trkpt>
      <trkpt lat="42.458880" lon="1.873747">
        <ele>1533.864</ele>
        <time>2019-05-30T10:39:14Z</time>
      </trkpt>
      <trkpt lat="42.458881" lon="1.873668">
        <ele>1534.810</ele>
        <time>2019-05-30T10:39:18Z</time>
      </trkpt>
      <trkpt lat="42.458890" lon="1.873628">
        <ele>1535.208</ele>
        <time>2019-05-30T10:39:20Z</time>
      </trkpt>
      <trkpt lat="42.458899" lon="1.873590">
        <ele>1535.457</ele>
        <time>2019-05-30T10:39:22Z</time>
      </trkpt>
      <trkpt lat="42.458915" lon="1.873509">
        <ele>1536.021</ele>
        <time>2019-05-30T10:39:26Z</time>
      </trkpt>
      <trkpt lat="42.458916" lon="1.873487">
        <ele>1536.277</ele>
        <time>2019-05-30T10:39:27Z</time>
      </trkpt>
      <trkpt lat="42.458932" lon="1.873407">
        <ele>1536.625</ele>
        <time>2019-05-30T10:39:31Z</time>
      </trkpt>
      <trkpt lat="42.458942" lon="1.873311">
        <ele>1537.098</ele>
        <time>2019-05-30T10:39:37Z</time>
      </trkpt>
      <trkpt lat="42.458950" lon="1.873296">
        <ele>1537.232</ele>
        <time>2019-05-30T10:39:38Z</time>
      </trkpt>
      <trkpt lat="42.458955" lon="1.873279">
        <ele>1537.610</ele>
        <time>2019-05-30T10:39:39Z</time>
      </trkpt>
      <trkpt lat="42.458954" lon="1.873202">
        <ele>1537.635</ele>
        <time>2019-05-30T10:39:44Z</time>
      </trkpt>
      <trkpt lat="42.458987" lon="1.873135">
        <ele>1538.088</ele>
        <time>2019-05-30T10:39:49Z</time>
      </trkpt>
      <trkpt lat="42.458985" lon="1.873098">
        <ele>1537.624</ele>
        <time>2019-05-30T10:39:51Z</time>
      </trkpt>
      <trkpt lat="42.459011" lon="1.873017">
        <ele>1538.426</ele>
        <time>2019-05-30T10:39:56Z</time>
      </trkpt>
      <trkpt lat="42.459024" lon="1.873007">
        <ele>1538.608</ele>
        <time>2019-05-30T10:39:57Z</time>
      </trkpt>
      <trkpt lat="42.459043" lon="1.872957">
        <ele>1538.861</ele>
        <time>2019-05-30T10:40:00Z</time>
      </trkpt>
      <trkpt lat="42.459037" lon="1.872917">
        <ele>1538.635</ele>
        <time>2019-05-30T10:40:02Z</time>
      </trkpt>
      <trkpt lat="42.459047" lon="1.872865">
        <ele>1539.411</ele>
        <time>2019-05-30T10:40:05Z</time>
      </trkpt>
      <trkpt lat="42.459082" lon="1.872829">
        <ele>1539.859</ele>
        <time>2019-05-30T10:40:08Z</time>
      </trkpt>
      <trkpt lat="42.459100" lon="1.872805">
        <ele>1540.662</ele>
        <time>2019-05-30T10:40:10Z</time>
      </trkpt>
      <trkpt lat="42.459101" lon="1.872745">
        <ele>1540.856</ele>
        <time>2019-05-30T10:40:13Z</time>
      </trkpt>
      <trkpt lat="42.459133" lon="1.872642">
        <ele>1541.054</ele>
        <time>2019-05-30T10:40:19Z</time>
      </trkpt>
      <trkpt lat="42.459144" lon="1.872624">
        <ele>1541.219</ele>
        <time>2019-05-30T10:40:20Z</time>
      </trkpt>
      <trkpt lat="42.459173" lon="1.872555">
        <ele>1541.669</ele>
        <time>2019-05-30T10:40:24Z</time>
      </trkpt>
      <trkpt lat="42.459175" lon="1.872538">
        <ele>1541.804</ele>
        <time>2019-05-30T10:40:25Z</time>
      </trkpt>
      <trkpt lat="42.459178" lon="1.872499">
        <ele>1542.424</ele>
        <time>2019-05-30T10:40:27Z</time>
      </trkpt>
      <trkpt lat="42.459196" lon="1.872431">
        <ele>1542.808</ele>
        <time>2019-05-30T10:40:31Z</time>
      </trkpt>
      <trkpt lat="42.459205" lon="1.872418">
        <ele>1543.299</ele>
        <time>2019-05-30T10:40:32Z</time>
      </trkpt>
      <trkpt lat="42.459226" lon="1.872400">
        <ele>1543.433</ele>
        <time>2019-05-30T10:40:34Z</time>
      </trkpt>
      <trkpt lat="42.459296" lon="1.872275">
        <ele>1544.469</ele>
        <time>2019-05-30T10:40:42Z</time>
      </trkpt>
      <trkpt lat="42.459302" lon="1.872256">
        <ele>1543.817</ele>
        <time>2019-05-30T10:40:43Z</time>
      </trkpt>
      <trkpt lat="42.459347" lon="1.872230">
        <ele>1544.890</ele>
        <time>2019-05-30T10:40:47Z</time>
      </trkpt>
      <trkpt lat="42.459375" lon="1.872222">
        <ele>1544.864</ele>
        <time>2019-05-30T10:40:49Z</time>
      </trkpt>
      <trkpt lat="42.459422" lon="1.872175">
        <ele>1545.082</ele>
        <time>2019-05-30T10:40:53Z</time>
      </trkpt>
      <trkpt lat="42.459448" lon="1.872158">
        <ele>1545.487</ele>
        <time>2019-05-30T10:40:55Z</time>
      </trkpt>
      <trkpt lat="42.459484" lon="1.872142">
        <ele>1545.845</ele>
        <time>2019-05-30T10:40:58Z</time>
      </trkpt>
      <trkpt lat="42.459498" lon="1.872132">
        <ele>1546.047</ele>
        <time>2019-05-30T10:40:59Z</time>
      </trkpt>
      <trkpt lat="42.459552" lon="1.872088">
        <ele>1545.811</ele>
        <time>2019-05-30T10:41:03Z</time>
      </trkpt>
      <trkpt lat="42.459594" lon="1.872061">
        <ele>1546.008</ele>
        <time>2019-05-30T10:41:06Z</time>
      </trkpt>
      <trkpt lat="42.459623" lon="1.872022">
        <ele>1546.447</ele>
        <time>2019-05-30T10:41:09Z</time>
      </trkpt>
      <trkpt lat="42.459687" lon="1.871971">
        <ele>1547.011</ele>
        <time>2019-05-30T10:41:14Z</time>
      </trkpt>
      <trkpt lat="42.459698" lon="1.871961">
        <ele>1547.297</ele>
        <time>2019-05-30T10:41:15Z</time>
      </trkpt>
      <trkpt lat="42.459708" lon="1.871948">
        <ele>1547.485</ele>
        <time>2019-05-30T10:41:16Z</time>
      </trkpt>
      <trkpt lat="42.459725" lon="1.871928">
        <ele>1547.648</ele>
        <time>2019-05-30T10:41:18Z</time>
      </trkpt>
      <trkpt lat="42.459761" lon="1.871890">
        <ele>1548.072</ele>
        <time>2019-05-30T10:41:21Z</time>
      </trkpt>
      <trkpt lat="42.459802" lon="1.871852">
        <ele>1548.820</ele>
        <time>2019-05-30T10:41:24Z</time>
      </trkpt>
      <trkpt lat="42.459856" lon="1.871819">
        <ele>1549.245</ele>
        <time>2019-05-30T10:41:28Z</time>
      </trkpt>
      <trkpt lat="42.459947" lon="1.871744">
        <ele>1548.876</ele>
        <time>2019-05-30T10:41:36Z</time>
      </trkpt>
      <trkpt lat="42.459960" lon="1.871731">
        <ele>1550.090</ele>
        <time>2019-05-30T10:41:37Z</time>
      </trkpt>
      <trkpt lat="42.460047" lon="1.871651">
        <ele>1550.819</ele>
        <time>2019-05-30T10:41:44Z</time>
      </trkpt>
      <trkpt lat="42.460056" lon="1.871643">
        <ele>1551.008</ele>
        <time>2019-05-30T10:41:45Z</time>
      </trkpt>
      <trkpt lat="42.460067" lon="1.871635">
        <ele>1551.090</ele>
        <time>2019-05-30T10:41:46Z</time>
      </trkpt>
      <trkpt lat="42.460127" lon="1.871569">
        <ele>1551.844</ele>
        <time>2019-05-30T10:41:52Z</time>
      </trkpt>
      <trkpt lat="42.460142" lon="1.871554">
        <ele>1552.280</ele>
        <time>2019-05-30T10:41:54Z</time>
      </trkpt>
      <trkpt lat="42.460194" lon="1.871524">
        <ele>1552.638</ele>
        <time>2019-05-30T10:41:59Z</time>
      </trkpt>
      <trkpt lat="42.460205" lon="1.871513">
        <ele>1552.681</ele>
        <time>2019-05-30T10:42:00Z</time>
      </trkpt>
      <trkpt lat="42.460258" lon="1.871462">
        <ele>1553.265</ele>
        <time>2019-05-30T10:42:05Z</time>
      </trkpt>
      <trkpt lat="42.460337" lon="1.871406">
        <ele>1554.093</ele>
        <time>2019-05-30T10:42:12Z</time>
      </trkpt>
      <trkpt lat="42.460388" lon="1.871359">
        <ele>1554.468</ele>
        <time>2019-05-30T10:42:16Z</time>
      </trkpt>
      <trkpt lat="42.460420" lon="1.871343">
        <ele>1554.822</ele>
        <time>2019-05-30T10:42:18Z</time>
      </trkpt>
      <trkpt lat="42.460429" lon="1.871333">
        <ele>1555.062</ele>
        <time>2019-05-30T10:42:19Z</time>
      </trkpt>
      <trkpt lat="42.460468" lon="1.871291">
        <ele>1555.408</ele>
        <time>2019-05-30T10:42:22Z</time>
      </trkpt>
      <trkpt lat="42.460523" lon="1.871247">
        <ele>1555.608</ele>
        <time>2019-05-30T10:42:26Z</time>
      </trkpt>
      <trkpt lat="42.460565" lon="1.871204">
        <ele>1556.435</ele>
        <time>2019-05-30T10:42:30Z</time>
      </trkpt>
      <trkpt lat="42.460593" lon="1.871176">
        <ele>1556.829</ele>
        <time>2019-05-30T10:42:33Z</time>
      </trkpt>
      <trkpt lat="42.460690" lon="1.871088">
        <ele>1557.485</ele>
        <time>2019-05-30T10:42:42Z</time>
      </trkpt>
      <trkpt lat="42.460701" lon="1.871077">
        <ele>1557.623</ele>
        <time>2019-05-30T10:42:43Z</time>
      </trkpt>
      <trkpt lat="42.460759" lon="1.871011">
        <ele>1558.476</ele>
        <time>2019-05-30T10:42:49Z</time>
      </trkpt>
      <trkpt lat="42.460788" lon="1.870986">
        <ele>1558.690</ele>
        <time>2019-05-30T10:42:52Z</time>
      </trkpt>
      <trkpt lat="42.460828" lon="1.870943">
        <ele>1558.658</ele>
        <time>2019-05-30T10:42:56Z</time>
      </trkpt>
      <trkpt lat="42.460897" lon="1.870861">
        <ele>1559.843</ele>
        <time>2019-05-30T10:43:04Z</time>
      </trkpt>
      <trkpt lat="42.460921" lon="1.870831">
        <ele>1560.096</ele>
        <time>2019-05-30T10:43:07Z</time>
      </trkpt>
      <trkpt lat="42.460945" lon="1.870797">
        <ele>1560.231</ele>
        <time>2019-05-30T10:43:10Z</time>
      </trkpt>
      <trkpt lat="42.460953" lon="1.870785">
        <ele>1560.424</ele>
        <time>2019-05-30T10:43:11Z</time>
      </trkpt>
      <trkpt lat="42.461009" lon="1.870710">
        <ele>1560.408</ele>
        <time>2019-05-30T10:43:18Z</time>
      </trkpt>
      <trkpt lat="42.461032" lon="1.870680">
        <ele>1561.282</ele>
        <time>2019-05-30T10:43:21Z</time>
      </trkpt>
      <trkpt lat="42.461054" lon="1.870647">
        <ele>1562.436</ele>
        <time>2019-05-30T10:43:24Z</time>
      </trkpt>
      <trkpt lat="42.461064" lon="1.870637">
        <ele>1562.432</ele>
        <time>2019-05-30T10:43:25Z</time>
      </trkpt>
      <trkpt lat="42.461093" lon="1.870609">
        <ele>1562.440</ele>
        <time>2019-05-30T10:43:28Z</time>
      </trkpt>
      <trkpt lat="42.461131" lon="1.870563">
        <ele>1562.873</ele>
        <time>2019-05-30T10:43:32Z</time>
      </trkpt>
      <trkpt lat="42.461162" lon="1.870531">
        <ele>1563.487</ele>
        <time>2019-05-30T10:43:35Z</time>
      </trkpt>
      <trkpt lat="42.461206" lon="1.870472">
        <ele>1563.855</ele>
        <time>2019-05-30T10:43:40Z</time>
      </trkpt>
      <trkpt lat="42.461241" lon="1.870434">
        <ele>1564.490</ele>
        <time>2019-05-30T10:43:43Z</time>
      </trkpt>
      <trkpt lat="42.461281" lon="1.870384">
        <ele>1565.035</ele>
        <time>2019-05-30T10:43:47Z</time>
      </trkpt>
      <trkpt lat="42.461301" lon="1.870346">
        <ele>1565.686</ele>
        <time>2019-05-30T10:43:50Z</time>
      </trkpt>
      <trkpt lat="42.461346" lon="1.870273">
        <ele>1566.414</ele>
        <time>2019-05-30T10:43:55Z</time>
      </trkpt>
      <trkpt lat="42.461374" lon="1.870234">
        <ele>1566.808</ele>
        <time>2019-05-30T10:43:57Z</time>
      </trkpt>
      <trkpt lat="42.461403" lon="1.870204">
        <ele>1565.226</ele>
        <time>2019-05-30T10:43:59Z</time>
      </trkpt>
      <trkpt lat="42.461430" lon="1.870158">
        <ele>1567.020</ele>
        <time>2019-05-30T10:44:02Z</time>
      </trkpt>
      <trkpt lat="42.461444" lon="1.870126">
        <ele>1569.216</ele>
        <time>2019-05-30T10:44:04Z</time>
      </trkpt>
      <trkpt lat="42.461455" lon="1.870102">
        <ele>1568.044</ele>
        <time>2019-05-30T10:44:06Z</time>
      </trkpt>
      <trkpt lat="42.461460" lon="1.870089">
        <ele>1568.047</ele>
        <time>2019-05-30T10:44:07Z</time>
      </trkpt>
      <trkpt lat="42.461478" lon="1.870047">
        <ele>1568.041</ele>
        <time>2019-05-30T10:44:10Z</time>
      </trkpt>
      <trkpt lat="42.461519" lon="1.869972">
        <ele>1568.819</ele>
        <time>2019-05-30T10:44:16Z</time>
      </trkpt>
      <trkpt lat="42.461534" lon="1.869930">
        <ele>1569.084</ele>
        <time>2019-05-30T10:44:19Z</time>
      </trkpt>
      <trkpt lat="42.461543" lon="1.869897">
        <ele>1569.452</ele>
        <time>2019-05-30T10:44:21Z</time>
      </trkpt>
      <trkpt lat="42.461561" lon="1.869851">
        <ele>1570.053</ele>
        <time>2019-05-30T10:44:24Z</time>
      </trkpt>
      <trkpt lat="42.461566" lon="1.869836">
        <ele>1570.008</ele>
        <time>2019-05-30T10:44:25Z</time>
      </trkpt>
      <trkpt lat="42.461596" lon="1.869722">
        <ele>1570.808</ele>
        <time>2019-05-30T10:44:32Z</time>
      </trkpt>
      <trkpt lat="42.461626" lon="1.869657">
        <ele>1571.218</ele>
        <time>2019-05-30T10:44:37Z</time>
      </trkpt>
      <trkpt lat="42.461636" lon="1.869613">
        <ele>1571.812</ele>
        <time>2019-05-30T10:44:40Z</time>
      </trkpt>
      <trkpt lat="42.461659" lon="1.869544">
        <ele>1572.268</ele>
        <time>2019-05-30T10:44:45Z</time>
      </trkpt>
      <trkpt lat="42.461665" lon="1.869519">
        <ele>1572.656</ele>
        <time>2019-05-30T10:44:47Z</time>
      </trkpt>
      <trkpt lat="42.461700" lon="1.869445">
        <ele>1573.479</ele>
        <time>2019-05-30T10:44:52Z</time>
      </trkpt>
      <trkpt lat="42.461710" lon="1.869429">
        <ele>1573.813</ele>
        <time>2019-05-30T10:44:53Z</time>
      </trkpt>
      <trkpt lat="42.461719" lon="1.869414">
        <ele>1573.691</ele>
        <time>2019-05-30T10:44:54Z</time>
      </trkpt>
      <trkpt lat="42.461776" lon="1.869330">
        <ele>1573.676</ele>
        <time>2019-05-30T10:45:00Z</time>
      </trkpt>
      <trkpt lat="42.461854" lon="1.869211">
        <ele>1574.458</ele>
        <time>2019-05-30T10:45:06Z</time>
      </trkpt>
      <trkpt lat="42.461982" lon="1.869029">
        <ele>1574.652</ele>
        <time>2019-05-30T10:45:16Z</time>
      </trkpt>
      <trkpt lat="42.462017" lon="1.868961">
        <ele>1575.617</ele>
        <time>2019-05-30T10:45:20Z</time>
      </trkpt>
      <trkpt lat="42.462029" lon="1.868947">
        <ele>1576.008</ele>
        <time>2019-05-30T10:45:21Z</time>
      </trkpt>
      <trkpt lat="42.462045" lon="1.868911">
        <ele>1576.268</ele>
        <time>2019-05-30T10:45:23Z</time>
      </trkpt>
      <trkpt lat="42.462063" lon="1.868879">
        <ele>1576.282</ele>
        <time>2019-05-30T10:45:25Z</time>
      </trkpt>
      <trkpt lat="42.462113" lon="1.868803">
        <ele>1576.428</ele>
        <time>2019-05-30T10:45:30Z</time>
      </trkpt>
      <trkpt lat="42.462121" lon="1.868785">
        <ele>1576.636</ele>
        <time>2019-05-30T10:45:31Z</time>
      </trkpt>
      <trkpt lat="42.462131" lon="1.868770">
        <ele>1576.889</ele>
        <time>2019-05-30T10:45:32Z</time>
      </trkpt>
      <trkpt lat="42.462162" lon="1.868705">
        <ele>1577.453</ele>
        <time>2019-05-30T10:45:36Z</time>
      </trkpt>
      <trkpt lat="42.462186" lon="1.868655">
        <ele>1578.011</ele>
        <time>2019-05-30T10:45:39Z</time>
      </trkpt>
      <trkpt lat="42.462224" lon="1.868611">
        <ele>1577.416</ele>
        <time>2019-05-30T10:45:42Z</time>
      </trkpt>
      <trkpt lat="42.462256" lon="1.868512">
        <ele>1579.083</ele>
        <time>2019-05-30T10:45:48Z</time>
      </trkpt>
      <trkpt lat="42.462262" lon="1.868496">
        <ele>1579.225</ele>
        <time>2019-05-30T10:45:49Z</time>
      </trkpt>
      <trkpt lat="42.462319" lon="1.868374">
        <ele>1580.217</ele>
        <time>2019-05-30T10:45:58Z</time>
      </trkpt>
      <trkpt lat="42.462327" lon="1.868357">
        <ele>1580.008</ele>
        <time>2019-05-30T10:45:59Z</time>
      </trkpt>
      <trkpt lat="42.462391" lon="1.868285">
        <ele>1580.241</ele>
        <time>2019-05-30T10:46:05Z</time>
      </trkpt>
      <trkpt lat="42.462403" lon="1.868252">
        <ele>1581.645</ele>
        <time>2019-05-30T10:46:07Z</time>
      </trkpt>
      <trkpt lat="42.462464" lon="1.868163">
        <ele>1581.631</ele>
        <time>2019-05-30T10:46:14Z</time>
      </trkpt>
      <trkpt lat="42.462524" lon="1.868047">
        <ele>1582.079</ele>
        <time>2019-05-30T10:46:22Z</time>
      </trkpt>
      <trkpt lat="42.462555" lon="1.868005">
        <ele>1582.822</ele>
        <time>2019-05-30T10:46:25Z</time>
      </trkpt>
      <trkpt lat="42.462569" lon="1.867992">
        <ele>1582.896</ele>
        <time>2019-05-30T10:46:26Z</time>
      </trkpt>
      <trkpt lat="42.462601" lon="1.867948">
        <ele>1583.294</ele>
        <time>2019-05-30T10:46:29Z</time>
      </trkpt>
      <trkpt lat="42.462632" lon="1.867872">
        <ele>1583.699</ele>
        <time>2019-05-30T10:46:34Z</time>
      </trkpt>
      <trkpt lat="42.462643" lon="1.867860">
        <ele>1583.881</ele>
        <time>2019-05-30T10:46:35Z</time>
      </trkpt>
      <trkpt lat="42.462667" lon="1.867838">
        <ele>1583.861</ele>
        <time>2019-05-30T10:46:37Z</time>
      </trkpt>
      <trkpt lat="42.462717" lon="1.867747">
        <ele>1585.017</ele>
        <time>2019-05-30T10:46:43Z</time>
      </trkpt>
      <trkpt lat="42.462755" lon="1.867609">
        <ele>1586.208</ele>
        <time>2019-05-30T10:46:51Z</time>
      </trkpt>
      <trkpt lat="42.462765" lon="1.867576">
        <ele>1586.691</ele>
        <time>2019-05-30T10:46:53Z</time>
      </trkpt>
      <trkpt lat="42.462793" lon="1.867437">
        <ele>1586.855</ele>
        <time>2019-05-30T10:47:01Z</time>
      </trkpt>
      <trkpt lat="42.462794" lon="1.867417">
        <ele>1587.261</ele>
        <time>2019-05-30T10:47:02Z</time>
      </trkpt>
      <trkpt lat="42.462799" lon="1.867362">
        <ele>1588.669</ele>
        <time>2019-05-30T10:47:05Z</time>
      </trkpt>
      <trkpt lat="42.462797" lon="1.867290">
        <ele>1589.672</ele>
        <time>2019-05-30T10:47:09Z</time>
      </trkpt>
      <trkpt lat="42.462798" lon="1.867268">
        <ele>1590.046</ele>
        <time>2019-05-30T10:47:10Z</time>
      </trkpt>
      <trkpt lat="42.462799" lon="1.867116">
        <ele>1589.834</ele>
        <time>2019-05-30T10:47:18Z</time>
      </trkpt>
      <trkpt lat="42.462784" lon="1.866956">
        <ele>1590.069</ele>
        <time>2019-05-30T10:47:26Z</time>
      </trkpt>
      <trkpt lat="42.462768" lon="1.866834">
        <ele>1589.874</ele>
        <time>2019-05-30T10:47:33Z</time>
      </trkpt>
      <trkpt lat="42.462762" lon="1.866797">
        <ele>1590.856</ele>
        <time>2019-05-30T10:47:35Z</time>
      </trkpt>
      <trkpt lat="42.462766" lon="1.866741">
        <ele>1591.821</ele>
        <time>2019-05-30T10:47:38Z</time>
      </trkpt>
      <trkpt lat="42.462756" lon="1.866704">
        <ele>1591.808</ele>
        <time>2019-05-30T10:47:40Z</time>
      </trkpt>
      <trkpt lat="42.462752" lon="1.866686">
        <ele>1592.030</ele>
        <time>2019-05-30T10:47:41Z</time>
      </trkpt>
      <trkpt lat="42.462748" lon="1.866591">
        <ele>1592.294</ele>
        <time>2019-05-30T10:47:46Z</time>
      </trkpt>
      <trkpt lat="42.462750" lon="1.866570">
        <ele>1592.270</ele>
        <time>2019-05-30T10:47:47Z</time>
      </trkpt>
      <trkpt lat="42.462768" lon="1.866465">
        <ele>1593.228</ele>
        <time>2019-05-30T10:47:53Z</time>
      </trkpt>
      <trkpt lat="42.462768" lon="1.866447">
        <ele>1593.431</ele>
        <time>2019-05-30T10:47:54Z</time>
      </trkpt>
      <trkpt lat="42.462785" lon="1.866367">
        <ele>1593.815</ele>
        <time>2019-05-30T10:47:59Z</time>
      </trkpt>
      <trkpt lat="42.462794" lon="1.866332">
        <ele>1593.873</ele>
        <time>2019-05-30T10:48:01Z</time>
      </trkpt>
      <trkpt lat="42.462794" lon="1.866315">
        <ele>1594.228</ele>
        <time>2019-05-30T10:48:02Z</time>
      </trkpt>
      <trkpt lat="42.462796" lon="1.866298">
        <ele>1594.477</ele>
        <time>2019-05-30T10:48:03Z</time>
      </trkpt>
      <trkpt lat="42.462806" lon="1.866194">
        <ele>1595.061</ele>
        <time>2019-05-30T10:48:09Z</time>
      </trkpt>
      <trkpt lat="42.462817" lon="1.866159">
        <ele>1595.227</ele>
        <time>2019-05-30T10:48:11Z</time>
      </trkpt>
      <trkpt lat="42.462828" lon="1.866094">
        <ele>1596.208</ele>
        <time>2019-05-30T10:48:15Z</time>
      </trkpt>
      <trkpt lat="42.462828" lon="1.866077">
        <ele>1596.260</ele>
        <time>2019-05-30T10:48:16Z</time>
      </trkpt>
      <trkpt lat="42.462850" lon="1.865958">
        <ele>1596.014</ele>
        <time>2019-05-30T10:48:23Z</time>
      </trkpt>
      <trkpt lat="42.462848" lon="1.865940">
        <ele>1595.810</ele>
        <time>2019-05-30T10:48:24Z</time>
      </trkpt>
      <trkpt lat="42.462847" lon="1.865906">
        <ele>1596.238</ele>
        <time>2019-05-30T10:48:26Z</time>
      </trkpt>
      <trkpt lat="42.462861" lon="1.865840">
        <ele>1597.461</ele>
        <time>2019-05-30T10:48:30Z</time>
      </trkpt>
      <trkpt lat="42.462881" lon="1.865719">
        <ele>1597.885</ele>
        <time>2019-05-30T10:48:37Z</time>
      </trkpt>
      <trkpt lat="42.462887" lon="1.865672">
        <ele>1598.033</ele>
        <time>2019-05-30T10:48:40Z</time>
      </trkpt>
      <trkpt lat="42.462888" lon="1.865642">
        <ele>1598.668</ele>
        <time>2019-05-30T10:48:42Z</time>
      </trkpt>
      <trkpt lat="42.462886" lon="1.865595">
        <ele>1599.423</ele>
        <time>2019-05-30T10:48:45Z</time>
      </trkpt>
      <trkpt lat="42.462886" lon="1.865558">
        <ele>1599.683</ele>
        <time>2019-05-30T10:48:47Z</time>
      </trkpt>
      <trkpt lat="42.462903" lon="1.865403">
        <ele>1599.611</ele>
        <time>2019-05-30T10:48:54Z</time>
      </trkpt>
      <trkpt lat="42.462920" lon="1.865226">
        <ele>1600.408</ele>
        <time>2019-05-30T10:49:03Z</time>
      </trkpt>
      <trkpt lat="42.462936" lon="1.865124">
        <ele>1600.645</ele>
        <time>2019-05-30T10:49:09Z</time>
      </trkpt>
      <trkpt lat="42.462936" lon="1.865107">
        <ele>1600.619</ele>
        <time>2019-05-30T10:49:10Z</time>
      </trkpt>
      <trkpt lat="42.462943" lon="1.865053">
        <ele>1601.885</ele>
        <time>2019-05-30T10:49:13Z</time>
      </trkpt>
      <trkpt lat="42.462953" lon="1.864966">
        <ele>1602.813</ele>
        <time>2019-05-30T10:49:18Z</time>
      </trkpt>
      <trkpt lat="42.462957" lon="1.864943">
        <ele>1602.816</ele>
        <time>2019-05-30T10:49:19Z</time>
      </trkpt>
      <trkpt lat="42.462967" lon="1.864762">
        <ele>1603.630</ele>
        <time>2019-05-30T10:49:28Z</time>
      </trkpt>
      <trkpt lat="42.462982" lon="1.864675">
        <ele>1604.268</ele>
        <time>2019-05-30T10:49:32Z</time>
      </trkpt>
      <trkpt lat="42.462986" lon="1.864605">
        <ele>1604.073</ele>
        <time>2019-05-30T10:49:36Z</time>
      </trkpt>
      <trkpt lat="42.463003" lon="1.864513">
        <ele>1605.274</ele>
        <time>2019-05-30T10:49:41Z</time>
      </trkpt>
      <trkpt lat="42.463017" lon="1.864455">
        <ele>1605.656</ele>
        <time>2019-05-30T10:49:44Z</time>
      </trkpt>
      <trkpt lat="42.463034" lon="1.864309">
        <ele>1605.421</ele>
        <time>2019-05-30T10:49:52Z</time>
      </trkpt>
      <trkpt lat="42.463037" lon="1.864270">
        <ele>1606.408</ele>
        <time>2019-05-30T10:49:54Z</time>
      </trkpt>
      <trkpt lat="42.463044" lon="1.864232">
        <ele>1607.650</ele>
        <time>2019-05-30T10:49:56Z</time>
      </trkpt>
      <trkpt lat="42.463047" lon="1.864139">
        <ele>1607.484</ele>
        <time>2019-05-30T10:50:01Z</time>
      </trkpt>
      <trkpt lat="42.463071" lon="1.863973">
        <ele>1608.810</ele>
        <time>2019-05-30T10:50:10Z</time>
      </trkpt>
      <trkpt lat="42.463085" lon="1.863796">
        <ele>1609.838</ele>
        <time>2019-05-30T10:50:20Z</time>
      </trkpt>
      <trkpt lat="42.463093" lon="1.863761">
        <ele>1609.821</ele>
        <time>2019-05-30T10:50:22Z</time>
      </trkpt>
      <trkpt lat="42.463112" lon="1.863636">
        <ele>1610.885</ele>
        <time>2019-05-30T10:50:29Z</time>
      </trkpt>
      <trkpt lat="42.463131" lon="1.863479">
        <ele>1611.873</ele>
        <time>2019-05-30T10:50:38Z</time>
      </trkpt>
      <trkpt lat="42.463144" lon="1.863421">
        <ele>1612.288</ele>
        <time>2019-05-30T10:50:41Z</time>
      </trkpt>
      <trkpt lat="42.463158" lon="1.863372">
        <ele>1612.455</ele>
        <time>2019-05-30T10:50:44Z</time>
      </trkpt>
      <trkpt lat="42.463162" lon="1.863351">
        <ele>1612.407</ele>
        <time>2019-05-30T10:50:45Z</time>
      </trkpt>
      <trkpt lat="42.463171" lon="1.863294">
        <ele>1613.017</ele>
        <time>2019-05-30T10:50:48Z</time>
      </trkpt>
      <trkpt lat="42.463177" lon="1.863279">
        <ele>1613.008</ele>
        <time>2019-05-30T10:50:49Z</time>
      </trkpt>
      <trkpt lat="42.463182" lon="1.863263">
        <ele>1613.218</ele>
        <time>2019-05-30T10:50:50Z</time>
      </trkpt>
      <trkpt lat="42.463195" lon="1.863248">
        <ele>1613.242</ele>
        <time>2019-05-30T10:50:51Z</time>
      </trkpt>
      <trkpt lat="42.463229" lon="1.863184">
        <ele>1614.038</ele>
        <time>2019-05-30T10:50:55Z</time>
      </trkpt>
      <trkpt lat="42.463241" lon="1.863166">
        <ele>1614.496</ele>
        <time>2019-05-30T10:50:56Z</time>
      </trkpt>
      <trkpt lat="42.463246" lon="1.863147">
        <ele>1614.459</ele>
        <time>2019-05-30T10:50:57Z</time>
      </trkpt>
      <trkpt lat="42.463255" lon="1.863090">
        <ele>1614.873</ele>
        <time>2019-05-30T10:51:00Z</time>
      </trkpt>
      <trkpt lat="42.463265" lon="1.863055">
        <ele>1614.821</ele>
        <time>2019-05-30T10:51:02Z</time>
      </trkpt>
      <trkpt lat="42.463277" lon="1.862996">
        <ele>1615.026</ele>
        <time>2019-05-30T10:51:05Z</time>
      </trkpt>
      <trkpt lat="42.463290" lon="1.862914">
        <ele>1616.057</ele>
        <time>2019-05-30T10:51:10Z</time>
      </trkpt>
      <trkpt lat="42.463296" lon="1.862898">
        <ele>1616.200</ele>
        <time>2019-05-30T10:51:11Z</time>
      </trkpt>
      <trkpt lat="42.463359" lon="1.862778">
        <ele>1616.820</ele>
        <time>2019-05-30T10:51:19Z</time>
      </trkpt>
      <trkpt lat="42.463387" lon="1.862744">
        <ele>1617.408</ele>
        <time>2019-05-30T10:51:22Z</time>
      </trkpt>
      <trkpt lat="42.463445" lon="1.862661">
        <ele>1618.078</ele>
        <time>2019-05-30T10:51:28Z</time>
      </trkpt>
      <trkpt lat="42.463484" lon="1.862562">
        <ele>1618.442</ele>
        <time>2019-05-30T10:51:34Z</time>
      </trkpt>
      <trkpt lat="42.463491" lon="1.862545">
        <ele>1618.498</ele>
        <time>2019-05-30T10:51:35Z</time>
      </trkpt>
      <trkpt lat="42.463493" lon="1.862422">
        <ele>1619.646</ele>
        <time>2019-05-30T10:51:42Z</time>
      </trkpt>
      <trkpt lat="42.463484" lon="1.862406">
        <ele>1619.619</ele>
        <time>2019-05-30T10:51:43Z</time>
      </trkpt>
      <trkpt lat="42.463453" lon="1.862344">
        <ele>1620.093</ele>
        <time>2019-05-30T10:51:47Z</time>
      </trkpt>
      <trkpt lat="42.463396" lon="1.862314">
        <ele>1620.681</ele>
        <time>2019-05-30T10:51:51Z</time>
      </trkpt>
      <trkpt lat="42.463360" lon="1.862314">
        <ele>1620.876</ele>
        <time>2019-05-30T10:51:53Z</time>
      </trkpt>
      <trkpt lat="42.463294" lon="1.862335">
        <ele>1621.052</ele>
        <time>2019-05-30T10:51:58Z</time>
      </trkpt>
      <trkpt lat="42.463279" lon="1.862342">
        <ele>1621.053</ele>
        <time>2019-05-30T10:51:59Z</time>
      </trkpt>
      <trkpt lat="42.463266" lon="1.862355">
        <ele>1621.208</ele>
        <time>2019-05-30T10:52:00Z</time>
      </trkpt>
      <trkpt lat="42.463197" lon="1.862419">
        <ele>1621.608</ele>
        <time>2019-05-30T10:52:05Z</time>
      </trkpt>
      <trkpt lat="42.463139" lon="1.862512">
        <ele>1622.668</ele>
        <time>2019-05-30T10:52:11Z</time>
      </trkpt>
      <trkpt lat="42.463113" lon="1.862556">
        <ele>1622.612</ele>
        <time>2019-05-30T10:52:14Z</time>
      </trkpt>
      <trkpt lat="42.463084" lon="1.862607">
        <ele>1622.858</ele>
        <time>2019-05-30T10:52:18Z</time>
      </trkpt>
      <trkpt lat="42.463076" lon="1.862621">
        <ele>1623.026</ele>
        <time>2019-05-30T10:52:19Z</time>
      </trkpt>
      <trkpt lat="42.462998" lon="1.862737">
        <ele>1623.879</ele>
        <time>2019-05-30T10:52:27Z</time>
      </trkpt>
      <trkpt lat="42.462942" lon="1.862819">
        <ele>1624.823</ele>
        <time>2019-05-30T10:52:33Z</time>
      </trkpt>
      <trkpt lat="42.462930" lon="1.862833">
        <ele>1625.011</ele>
        <time>2019-05-30T10:52:34Z</time>
      </trkpt>
      <trkpt lat="42.462852" lon="1.862941">
        <ele>1625.496</ele>
        <time>2019-05-30T10:52:41Z</time>
      </trkpt>
      <trkpt lat="42.462799" lon="1.863026">
        <ele>1625.851</ele>
        <time>2019-05-30T10:52:46Z</time>
      </trkpt>
      <trkpt lat="42.462787" lon="1.863038">
        <ele>1625.801</ele>
        <time>2019-05-30T10:52:47Z</time>
      </trkpt>
      <trkpt lat="42.462771" lon="1.863075">
        <ele>1626.211</ele>
        <time>2019-05-30T10:52:49Z</time>
      </trkpt>
      <trkpt lat="42.462724" lon="1.863143">
        <ele>1626.808</ele>
        <time>2019-05-30T10:52:53Z</time>
      </trkpt>
      <trkpt lat="42.462720" lon="1.863160">
        <ele>1627.228</ele>
        <time>2019-05-30T10:52:54Z</time>
      </trkpt>
      <trkpt lat="42.462673" lon="1.863208">
        <ele>1627.872</ele>
        <time>2019-05-30T10:52:57Z</time>
      </trkpt>
      <trkpt lat="42.462614" lon="1.863259">
        <ele>1628.218</ele>
        <time>2019-05-30T10:53:01Z</time>
      </trkpt>
      <trkpt lat="42.462601" lon="1.863275">
        <ele>1628.626</ele>
        <time>2019-05-30T10:53:02Z</time>
      </trkpt>
      <trkpt lat="42.462373" lon="1.863578">
        <ele>1631.089</ele>
        <time>2019-05-30T10:53:28Z</time>
      </trkpt>
      <trkpt lat="42.462349" lon="1.863598">
        <ele>1631.293</ele>
        <time>2019-05-30T10:53:30Z</time>
      </trkpt>
      <trkpt lat="42.462307" lon="1.863656">
        <ele>1631.861</ele>
        <time>2019-05-30T10:53:35Z</time>
      </trkpt>
      <trkpt lat="42.462262" lon="1.863714">
        <ele>1632.276</ele>
        <time>2019-05-30T10:53:40Z</time>
      </trkpt>
      <trkpt lat="42.462195" lon="1.863767">
        <ele>1633.082</ele>
        <time>2019-05-30T10:53:46Z</time>
      </trkpt>
      <trkpt lat="42.462164" lon="1.863808">
        <ele>1633.043</ele>
        <time>2019-05-30T10:53:49Z</time>
      </trkpt>
      <trkpt lat="42.462135" lon="1.863834">
        <ele>1633.217</ele>
        <time>2019-05-30T10:53:51Z</time>
      </trkpt>
      <trkpt lat="42.462119" lon="1.863851">
        <ele>1633.408</ele>
        <time>2019-05-30T10:53:52Z</time>
      </trkpt>
      <trkpt lat="42.462058" lon="1.863922">
        <ele>1634.211</ele>
        <time>2019-05-30T10:53:59Z</time>
      </trkpt>
      <trkpt lat="42.462047" lon="1.863936">
        <ele>1634.455</ele>
        <time>2019-05-30T10:54:00Z</time>
      </trkpt>
      <trkpt lat="42.461995" lon="1.863999">
        <ele>1635.481</ele>
        <time>2019-05-30T10:54:05Z</time>
      </trkpt>
      <trkpt lat="42.461957" lon="1.864041">
        <ele>1635.839</ele>
        <time>2019-05-30T10:54:08Z</time>
      </trkpt>
      <trkpt lat="42.461882" lon="1.864124">
        <ele>1636.262</ele>
        <time>2019-05-30T10:54:15Z</time>
      </trkpt>
      <trkpt lat="42.461845" lon="1.864167">
        <ele>1636.436</ele>
        <time>2019-05-30T10:54:19Z</time>
      </trkpt>
      <trkpt lat="42.461825" lon="1.864193">
        <ele>1636.894</ele>
        <time>2019-05-30T10:54:21Z</time>
      </trkpt>
      <trkpt lat="42.461801" lon="1.864228">
        <ele>1637.669</ele>
        <time>2019-05-30T10:54:24Z</time>
      </trkpt>
      <trkpt lat="42.461769" lon="1.864254">
        <ele>1637.854</ele>
        <time>2019-05-30T10:54:27Z</time>
      </trkpt>
      <trkpt lat="42.461743" lon="1.864283">
        <ele>1638.656</ele>
        <time>2019-05-30T10:54:31Z</time>
      </trkpt>
      <trkpt lat="42.461229" lon="1.864843">
        <ele>1643.811</ele>
        <time>2019-05-30T10:55:14Z</time>
      </trkpt>
      <trkpt lat="42.461100" lon="1.865003">
        <ele>1645.808</ele>
        <time>2019-05-30T10:55:29Z</time>
      </trkpt>
      <trkpt lat="42.461065" lon="1.865039">
        <ele>1646.098</ele>
        <time>2019-05-30T10:55:32Z</time>
      </trkpt>
      <trkpt lat="42.460702" lon="1.865382">
        <ele>1649.882</ele>
        <time>2019-05-30T10:56:05Z</time>
      </trkpt>
      <trkpt lat="42.460633" lon="1.865451">
        <ele>1650.458</ele>
        <time>2019-05-30T10:56:10Z</time>
      </trkpt>
      <trkpt lat="42.460558" lon="1.865530">
        <ele>1651.056</ele>
        <time>2019-05-30T10:56:16Z</time>
      </trkpt>
      <trkpt lat="42.460462" lon="1.865650">
        <ele>1652.099</ele>
        <time>2019-05-30T10:56:24Z</time>
      </trkpt>
      <trkpt lat="42.460449" lon="1.865669">
        <ele>1652.043</ele>
        <time>2019-05-30T10:56:25Z</time>
      </trkpt>
      <trkpt lat="42.460431" lon="1.865709">
        <ele>1652.221</ele>
        <time>2019-05-30T10:56:27Z</time>
      </trkpt>
      <trkpt lat="42.460398" lon="1.865764">
        <ele>1652.686</ele>
        <time>2019-05-30T10:56:30Z</time>
      </trkpt>
      <trkpt lat="42.460367" lon="1.865826">
        <ele>1653.085</ele>
        <time>2019-05-30T10:56:34Z</time>
      </trkpt>
      <trkpt lat="42.460342" lon="1.865845">
        <ele>1653.489</ele>
        <time>2019-05-30T10:56:36Z</time>
      </trkpt>
      <trkpt lat="42.460264" lon="1.865870">
        <ele>1654.217</ele>
        <time>2019-05-30T10:56:41Z</time>
      </trkpt>
      <trkpt lat="42.460252" lon="1.865867">
        <ele>1654.208</ele>
        <time>2019-05-30T10:56:42Z</time>
      </trkpt>
      <trkpt lat="42.460181" lon="1.865745">
        <ele>1655.211</ele>
        <time>2019-05-30T10:58:54Z</time>
      </trkpt>
      <trkpt lat="42.460175" lon="1.865724">
        <ele>1655.015</ele>
        <time>2019-05-30T10:58:55Z</time>
      </trkpt>
      <trkpt lat="42.460174" lon="1.865566">
        <ele>1655.251</ele>
        <time>2019-05-30T10:59:03Z</time>
      </trkpt>
      <trkpt lat="42.460220" lon="1.865429">
        <ele>1656.299</ele>
        <time>2019-05-30T10:59:11Z</time>
      </trkpt>
      <trkpt lat="42.460228" lon="1.865413">
        <ele>1656.242</ele>
        <time>2019-05-30T10:59:12Z</time>
      </trkpt>
      <trkpt lat="42.460282" lon="1.865317">
        <ele>1657.236</ele>
        <time>2019-05-30T10:59:18Z</time>
      </trkpt>
      <trkpt lat="42.460288" lon="1.865301">
        <ele>1657.834</ele>
        <time>2019-05-30T10:59:19Z</time>
      </trkpt>
      <trkpt lat="42.460295" lon="1.865266">
        <ele>1658.229</ele>
        <time>2019-05-30T10:59:21Z</time>
      </trkpt>
      <trkpt lat="42.460321" lon="1.865176">
        <ele>1658.292</ele>
        <time>2019-05-30T10:59:26Z</time>
      </trkpt>
      <trkpt lat="42.460367" lon="1.865058">
        <ele>1659.273</ele>
        <time>2019-05-30T10:59:34Z</time>
      </trkpt>
      <trkpt lat="42.460370" lon="1.865044">
        <ele>1659.420</ele>
        <time>2019-05-30T10:59:35Z</time>
      </trkpt>
      <trkpt lat="42.460425" lon="1.864951">
        <ele>1660.408</ele>
        <time>2019-05-30T10:59:41Z</time>
      </trkpt>
      <trkpt lat="42.460448" lon="1.864891">
        <ele>1660.672</ele>
        <time>2019-05-30T10:59:45Z</time>
      </trkpt>
      <trkpt lat="42.460476" lon="1.864843">
        <ele>1660.896</ele>
        <time>2019-05-30T10:59:48Z</time>
      </trkpt>
      <trkpt lat="42.460487" lon="1.864828">
        <ele>1661.032</ele>
        <time>2019-05-30T10:59:49Z</time>
      </trkpt>
      <trkpt lat="42.460508" lon="1.864798">
        <ele>1661.470</ele>
        <time>2019-05-30T10:59:51Z</time>
      </trkpt>
      <trkpt lat="42.460544" lon="1.864706">
        <ele>1661.853</ele>
        <time>2019-05-30T10:59:57Z</time>
      </trkpt>
      <trkpt lat="42.460599" lon="1.864600">
        <ele>1662.627</ele>
        <time>2019-05-30T11:00:04Z</time>
      </trkpt>
      <trkpt lat="42.460617" lon="1.864571">
        <ele>1662.685</ele>
        <time>2019-05-30T11:00:06Z</time>
      </trkpt>
      <trkpt lat="42.460670" lon="1.864467">
        <ele>1663.890</ele>
        <time>2019-05-30T11:00:12Z</time>
      </trkpt>
      <trkpt lat="42.460687" lon="1.864439">
        <ele>1663.842</ele>
        <time>2019-05-30T11:00:14Z</time>
      </trkpt>
      <trkpt lat="42.460745" lon="1.864319">
        <ele>1664.422</ele>
        <time>2019-05-30T11:00:21Z</time>
      </trkpt>
      <trkpt lat="42.460752" lon="1.864303">
        <ele>1664.614</ele>
        <time>2019-05-30T11:00:22Z</time>
      </trkpt>
      <trkpt lat="42.460762" lon="1.864287">
        <ele>1664.808</ele>
        <time>2019-05-30T11:00:23Z</time>
      </trkpt>
      <trkpt lat="42.460790" lon="1.864227">
        <ele>1665.057</ele>
        <time>2019-05-30T11:00:27Z</time>
      </trkpt>
      <trkpt lat="42.460852" lon="1.864122">
        <ele>1666.061</ele>
        <time>2019-05-30T11:00:34Z</time>
      </trkpt>
      <trkpt lat="42.460873" lon="1.864091">
        <ele>1667.037</ele>
        <time>2019-05-30T11:00:36Z</time>
      </trkpt>
      <trkpt lat="42.460923" lon="1.863995">
        <ele>1666.845</ele>
        <time>2019-05-30T11:00:42Z</time>
      </trkpt>
      <trkpt lat="42.460978" lon="1.863898">
        <ele>1668.298</ele>
        <time>2019-05-30T11:00:48Z</time>
      </trkpt>
      <trkpt lat="42.460985" lon="1.863883">
        <ele>1668.412</ele>
        <time>2019-05-30T11:00:49Z</time>
      </trkpt>
      <trkpt lat="42.461041" lon="1.863738">
        <ele>1669.020</ele>
        <time>2019-05-30T11:00:58Z</time>
      </trkpt>
      <trkpt lat="42.461049" lon="1.863723">
        <ele>1669.245</ele>
        <time>2019-05-30T11:00:59Z</time>
      </trkpt>
      <trkpt lat="42.461082" lon="1.863641">
        <ele>1670.282</ele>
        <time>2019-05-30T11:01:04Z</time>
      </trkpt>
      <trkpt lat="42.461104" lon="1.863592">
        <ele>1670.243</ele>
        <time>2019-05-30T11:01:07Z</time>
      </trkpt>
      <trkpt lat="42.461139" lon="1.863506">
        <ele>1670.417</ele>
        <time>2019-05-30T11:01:13Z</time>
      </trkpt>
      <trkpt lat="42.461184" lon="1.863392">
        <ele>1671.408</ele>
        <time>2019-05-30T11:01:20Z</time>
      </trkpt>
      <trkpt lat="42.461227" lon="1.863253">
        <ele>1672.421</ele>
        <time>2019-05-30T11:01:28Z</time>
      </trkpt>
      <trkpt lat="42.461250" lon="1.863132">
        <ele>1673.225</ele>
        <time>2019-05-30T11:01:35Z</time>
      </trkpt>
      <trkpt lat="42.461258" lon="1.863061">
        <ele>1673.671</ele>
        <time>2019-05-30T11:01:39Z</time>
      </trkpt>
      <trkpt lat="42.461285" lon="1.863000">
        <ele>1674.019</ele>
        <time>2019-05-30T11:01:43Z</time>
      </trkpt>
      <trkpt lat="42.461361" lon="1.862886">
        <ele>1674.822</ele>
        <time>2019-05-30T11:01:51Z</time>
      </trkpt>
      <trkpt lat="42.461368" lon="1.862872">
        <ele>1675.036</ele>
        <time>2019-05-30T11:01:52Z</time>
      </trkpt>
      <trkpt lat="42.461423" lon="1.862732">
        <ele>1675.094</ele>
        <time>2019-05-30T11:02:01Z</time>
      </trkpt>
      <trkpt lat="42.461473" lon="1.862651">
        <ele>1676.089</ele>
        <time>2019-05-30T11:02:06Z</time>
      </trkpt>
      <trkpt lat="42.461480" lon="1.862634">
        <ele>1677.014</ele>
        <time>2019-05-30T11:02:07Z</time>
      </trkpt>
      <trkpt lat="42.461490" lon="1.862606">
        <ele>1677.254</ele>
        <time>2019-05-30T11:02:09Z</time>
      </trkpt>
      <trkpt lat="42.461510" lon="1.862553">
        <ele>1678.409</ele>
        <time>2019-05-30T11:02:12Z</time>
      </trkpt>
      <trkpt lat="42.461541" lon="1.862462">
        <ele>1678.008</ele>
        <time>2019-05-30T11:02:17Z</time>
      </trkpt>
      <trkpt lat="42.461596" lon="1.862352">
        <ele>1678.824</ele>
        <time>2019-05-30T11:02:25Z</time>
      </trkpt>
      <trkpt lat="42.461625" lon="1.862272">
        <ele>1679.438</ele>
        <time>2019-05-30T11:02:30Z</time>
      </trkpt>
      <trkpt lat="42.461632" lon="1.862223">
        <ele>1679.864</ele>
        <time>2019-05-30T11:02:33Z</time>
      </trkpt>
      <trkpt lat="42.461647" lon="1.862071">
        <ele>1680.852</ele>
        <time>2019-05-30T11:02:41Z</time>
      </trkpt>
      <trkpt lat="42.461664" lon="1.861970">
        <ele>1681.685</ele>
        <time>2019-05-30T11:02:47Z</time>
      </trkpt>
      <trkpt lat="42.461668" lon="1.861957">
        <ele>1681.859</ele>
        <time>2019-05-30T11:02:48Z</time>
      </trkpt>
      <trkpt lat="42.461691" lon="1.861862">
        <ele>1682.067</ele>
        <time>2019-05-30T11:02:54Z</time>
      </trkpt>
      <trkpt lat="42.461737" lon="1.861735">
        <ele>1682.652</ele>
        <time>2019-05-30T11:03:02Z</time>
      </trkpt>
      <trkpt lat="42.461745" lon="1.861715">
        <ele>1683.049</ele>
        <time>2019-05-30T11:03:03Z</time>
      </trkpt>
      <trkpt lat="42.461772" lon="1.861597">
        <ele>1684.002</ele>
        <time>2019-05-30T11:03:10Z</time>
      </trkpt>
      <trkpt lat="42.461818" lon="1.861463">
        <ele>1685.222</ele>
        <time>2019-05-30T11:03:18Z</time>
      </trkpt>
      <trkpt lat="42.461850" lon="1.861356">
        <ele>1686.208</ele>
        <time>2019-05-30T11:03:25Z</time>
      </trkpt>
      <trkpt lat="42.461899" lon="1.861265">
        <ele>1686.847</ele>
        <time>2019-05-30T11:03:31Z</time>
      </trkpt>
      <trkpt lat="42.461937" lon="1.861172">
        <ele>1687.291</ele>
        <time>2019-05-30T11:03:37Z</time>
      </trkpt>
      <trkpt lat="42.461957" lon="1.861128">
        <ele>1687.697</ele>
        <time>2019-05-30T11:03:40Z</time>
      </trkpt>
      <trkpt lat="42.461995" lon="1.861088">
        <ele>1688.485</ele>
        <time>2019-05-30T11:03:43Z</time>
      </trkpt>
      <trkpt lat="42.462033" lon="1.861031">
        <ele>1688.698</ele>
        <time>2019-05-30T11:03:47Z</time>
      </trkpt>
      <trkpt lat="42.462077" lon="1.860940">
        <ele>1688.832</ele>
        <time>2019-05-30T11:03:53Z</time>
      </trkpt>
      <trkpt lat="42.462092" lon="1.860900">
        <ele>1689.420</ele>
        <time>2019-05-30T11:03:55Z</time>
      </trkpt>
      <trkpt lat="42.462095" lon="1.860868">
        <ele>1689.495</ele>
        <time>2019-05-30T11:03:57Z</time>
      </trkpt>
      <trkpt lat="42.462125" lon="1.860798">
        <ele>1690.442</ele>
        <time>2019-05-30T11:04:01Z</time>
      </trkpt>
      <trkpt lat="42.462170" lon="1.860706">
        <ele>1691.222</ele>
        <time>2019-05-30T11:04:07Z</time>
      </trkpt>
      <trkpt lat="42.462171" lon="1.860697">
        <ele>1691.614</ele>
        <time>2019-05-30T11:04:08Z</time>
      </trkpt>
      <trkpt lat="42.462232" lon="1.860611">
        <ele>1691.808</ele>
        <time>2019-05-30T11:04:14Z</time>
      </trkpt>
      <trkpt lat="42.462273" lon="1.860528">
        <ele>1692.297</ele>
        <time>2019-05-30T11:04:20Z</time>
      </trkpt>
      <trkpt lat="42.462320" lon="1.860492">
        <ele>1692.831</ele>
        <time>2019-05-30T11:04:23Z</time>
      </trkpt>
      <trkpt lat="42.462326" lon="1.860445">
        <ele>1693.227</ele>
        <time>2019-05-30T11:04:26Z</time>
      </trkpt>
      <trkpt lat="42.462326" lon="1.860354">
        <ele>1694.095</ele>
        <time>2019-05-30T11:04:32Z</time>
      </trkpt>
      <trkpt lat="42.462334" lon="1.860339">
        <ele>1694.048</ele>
        <time>2019-05-30T11:04:33Z</time>
      </trkpt>
      <trkpt lat="42.462370" lon="1.860200">
        <ele>1694.422</ele>
        <time>2019-05-30T11:04:42Z</time>
      </trkpt>
      <trkpt lat="42.462401" lon="1.860090">
        <ele>1694.860</ele>
        <time>2019-05-30T11:04:49Z</time>
      </trkpt>
      <trkpt lat="42.462398" lon="1.860016">
        <ele>1695.265</ele>
        <time>2019-05-30T11:04:53Z</time>
      </trkpt>
      <trkpt lat="42.462397" lon="1.859999">
        <ele>1694.055</ele>
        <time>2019-05-30T11:04:54Z</time>
      </trkpt>
      <trkpt lat="42.462403" lon="1.859968">
        <ele>1695.407</ele>
        <time>2019-05-30T11:04:56Z</time>
      </trkpt>
      <trkpt lat="42.462401" lon="1.859950">
        <ele>1696.217</ele>
        <time>2019-05-30T11:04:57Z</time>
      </trkpt>
      <trkpt lat="42.462388" lon="1.859833">
        <ele>1696.408</ele>
        <time>2019-05-30T11:05:03Z</time>
      </trkpt>
      <trkpt lat="42.462393" lon="1.859784">
        <ele>1696.438</ele>
        <time>2019-05-30T11:05:06Z</time>
      </trkpt>
      <trkpt lat="42.462422" lon="1.859654">
        <ele>1697.632</ele>
        <time>2019-05-30T11:05:13Z</time>
      </trkpt>
      <trkpt lat="42.462425" lon="1.859634">
        <ele>1697.818</ele>
        <time>2019-05-30T11:05:14Z</time>
      </trkpt>
      <trkpt lat="42.462440" lon="1.859563">
        <ele>1698.226</ele>
        <time>2019-05-30T11:05:18Z</time>
      </trkpt>
      <trkpt lat="42.462441" lon="1.859525">
        <ele>1698.249</ele>
        <time>2019-05-30T11:05:20Z</time>
      </trkpt>
      <trkpt lat="42.462450" lon="1.859460">
        <ele>1698.613</ele>
        <time>2019-05-30T11:05:24Z</time>
      </trkpt>
      <trkpt lat="42.462456" lon="1.859387">
        <ele>1699.221</ele>
        <time>2019-05-30T11:05:28Z</time>
      </trkpt>
      <trkpt lat="42.462471" lon="1.859359">
        <ele>1699.646</ele>
        <time>2019-05-30T11:05:30Z</time>
      </trkpt>
      <trkpt lat="42.462495" lon="1.859284">
        <ele>1699.868</ele>
        <time>2019-05-30T11:05:35Z</time>
      </trkpt>
      <trkpt lat="42.462537" lon="1.859181">
        <ele>1700.842</ele>
        <time>2019-05-30T11:05:42Z</time>
      </trkpt>
      <trkpt lat="42.462558" lon="1.859153">
        <ele>1701.426</ele>
        <time>2019-05-30T11:05:44Z</time>
      </trkpt>
      <trkpt lat="42.462609" lon="1.859037">
        <ele>1701.808</ele>
        <time>2019-05-30T11:05:51Z</time>
      </trkpt>
      <trkpt lat="42.462610" lon="1.859019">
        <ele>1702.099</ele>
        <time>2019-05-30T11:05:52Z</time>
      </trkpt>
      <trkpt lat="42.462649" lon="1.858958">
        <ele>1702.853</ele>
        <time>2019-05-30T11:05:56Z</time>
      </trkpt>
      <trkpt lat="42.462656" lon="1.858943">
        <ele>1703.049</ele>
        <time>2019-05-30T11:05:57Z</time>
      </trkpt>
      <trkpt lat="42.462703" lon="1.858839">
        <ele>1703.277</ele>
        <time>2019-05-30T11:06:04Z</time>
      </trkpt>
      <trkpt lat="42.462724" lon="1.858750">
        <ele>1704.060</ele>
        <time>2019-05-30T11:06:10Z</time>
      </trkpt>
      <trkpt lat="42.462739" lon="1.858698">
        <ele>1704.654</ele>
        <time>2019-05-30T11:06:13Z</time>
      </trkpt>
      <trkpt lat="42.462752" lon="1.858631">
        <ele>1705.072</ele>
        <time>2019-05-30T11:06:18Z</time>
      </trkpt>
      <trkpt lat="42.462771" lon="1.858594">
        <ele>1705.217</ele>
        <time>2019-05-30T11:06:20Z</time>
      </trkpt>
      <trkpt lat="42.462810" lon="1.858498">
        <ele>1706.038</ele>
        <time>2019-05-30T11:06:25Z</time>
      </trkpt>
      <trkpt lat="42.462833" lon="1.858423">
        <ele>1706.270</ele>
        <time>2019-05-30T11:06:30Z</time>
      </trkpt>
      <trkpt lat="42.462825" lon="1.858390">
        <ele>1707.217</ele>
        <time>2019-05-30T11:06:32Z</time>
      </trkpt>
      <trkpt lat="42.462859" lon="1.858295">
        <ele>1707.208</ele>
        <time>2019-05-30T11:06:38Z</time>
      </trkpt>
      <trkpt lat="42.462881" lon="1.858204">
        <ele>1707.876</ele>
        <time>2019-05-30T11:06:45Z</time>
      </trkpt>
      <trkpt lat="42.462888" lon="1.858192">
        <ele>1707.640</ele>
        <time>2019-05-30T11:06:46Z</time>
      </trkpt>
      <trkpt lat="42.462909" lon="1.858091">
        <ele>1708.456</ele>
        <time>2019-05-30T11:06:52Z</time>
      </trkpt>
      <trkpt lat="42.462928" lon="1.858062">
        <ele>1708.854</ele>
        <time>2019-05-30T11:06:54Z</time>
      </trkpt>
      <trkpt lat="42.462967" lon="1.858007">
        <ele>1709.447</ele>
        <time>2019-05-30T11:06:58Z</time>
      </trkpt>
      <trkpt lat="42.462986" lon="1.857977">
        <ele>1709.661</ele>
        <time>2019-05-30T11:07:00Z</time>
      </trkpt>
      <trkpt lat="42.462988" lon="1.857962">
        <ele>1709.869</ele>
        <time>2019-05-30T11:07:01Z</time>
      </trkpt>
      <trkpt lat="42.463025" lon="1.857900">
        <ele>1710.494</ele>
        <time>2019-05-30T11:07:06Z</time>
      </trkpt>
      <trkpt lat="42.463030" lon="1.857883">
        <ele>1710.484</ele>
        <time>2019-05-30T11:07:07Z</time>
      </trkpt>
      <trkpt lat="42.463060" lon="1.857798">
        <ele>1711.007</ele>
        <time>2019-05-30T11:07:13Z</time>
      </trkpt>
      <trkpt lat="42.463100" lon="1.857737">
        <ele>1711.417</ele>
        <time>2019-05-30T11:07:17Z</time>
      </trkpt>
      <trkpt lat="42.463119" lon="1.857696">
        <ele>1712.008</ele>
        <time>2019-05-30T11:07:20Z</time>
      </trkpt>
      <trkpt lat="42.463163" lon="1.857630">
        <ele>1712.491</ele>
        <time>2019-05-30T11:07:25Z</time>
      </trkpt>
      <trkpt lat="42.463165" lon="1.857617">
        <ele>1712.625</ele>
        <time>2019-05-30T11:07:26Z</time>
      </trkpt>
      <trkpt lat="42.463184" lon="1.857591">
        <ele>1712.861</ele>
        <time>2019-05-30T11:07:28Z</time>
      </trkpt>
      <trkpt lat="42.463210" lon="1.857552">
        <ele>1713.079</ele>
        <time>2019-05-30T11:07:31Z</time>
      </trkpt>
      <trkpt lat="42.463289" lon="1.857446">
        <ele>1712.682</ele>
        <time>2019-05-30T11:07:38Z</time>
      </trkpt>
      <trkpt lat="42.463306" lon="1.857403">
        <ele>1714.086</ele>
        <time>2019-05-30T11:07:41Z</time>
      </trkpt>
      <trkpt lat="42.463317" lon="1.857367">
        <ele>1714.624</ele>
        <time>2019-05-30T11:07:43Z</time>
      </trkpt>
      <trkpt lat="42.463334" lon="1.857307">
        <ele>1715.089</ele>
        <time>2019-05-30T11:07:47Z</time>
      </trkpt>
      <trkpt lat="42.463355" lon="1.857239">
        <ele>1715.471</ele>
        <time>2019-05-30T11:07:51Z</time>
      </trkpt>
      <trkpt lat="42.463406" lon="1.857130">
        <ele>1715.841</ele>
        <time>2019-05-30T11:07:58Z</time>
      </trkpt>
      <trkpt lat="42.463415" lon="1.857077">
        <ele>1716.015</ele>
        <time>2019-05-30T11:08:01Z</time>
      </trkpt>
      <trkpt lat="42.463432" lon="1.857015">
        <ele>1716.608</ele>
        <time>2019-05-30T11:08:05Z</time>
      </trkpt>
      <trkpt lat="42.463458" lon="1.856900">
        <ele>1717.030</ele>
        <time>2019-05-30T11:08:12Z</time>
      </trkpt>
      <trkpt lat="42.463464" lon="1.856884">
        <ele>1717.034</ele>
        <time>2019-05-30T11:08:13Z</time>
      </trkpt>
      <trkpt lat="42.463470" lon="1.856795">
        <ele>1717.820</ele>
        <time>2019-05-30T11:08:18Z</time>
      </trkpt>
      <trkpt lat="42.463468" lon="1.856692">
        <ele>1718.078</ele>
        <time>2019-05-30T11:08:24Z</time>
      </trkpt>
      <trkpt lat="42.463493" lon="1.856599">
        <ele>1718.441</ele>
        <time>2019-05-30T11:08:30Z</time>
      </trkpt>
      <trkpt lat="42.463515" lon="1.856513">
        <ele>1718.835</ele>
        <time>2019-05-30T11:08:36Z</time>
      </trkpt>
      <trkpt lat="42.463531" lon="1.856456">
        <ele>1719.233</ele>
        <time>2019-05-30T11:08:39Z</time>
      </trkpt>
      <trkpt lat="42.463535" lon="1.856396">
        <ele>1719.438</ele>
        <time>2019-05-30T11:08:42Z</time>
      </trkpt>
      <trkpt lat="42.463553" lon="1.856323">
        <ele>1719.898</ele>
        <time>2019-05-30T11:08:45Z</time>
      </trkpt>
      <trkpt lat="42.463558" lon="1.856281">
        <ele>1719.815</ele>
        <time>2019-05-30T11:08:47Z</time>
      </trkpt>
      <trkpt lat="42.463577" lon="1.856191">
        <ele>1719.826</ele>
        <time>2019-05-30T11:08:52Z</time>
      </trkpt>
      <trkpt lat="42.463585" lon="1.856148">
        <ele>1719.808</ele>
        <time>2019-05-30T11:08:54Z</time>
      </trkpt>
      <trkpt lat="42.463590" lon="1.856110">
        <ele>1720.422</ele>
        <time>2019-05-30T11:08:56Z</time>
      </trkpt>
      <trkpt lat="42.463603" lon="1.856013">
        <ele>1721.496</ele>
        <time>2019-05-30T11:09:01Z</time>
      </trkpt>
      <trkpt lat="42.463613" lon="1.855954">
        <ele>1722.032</ele>
        <time>2019-05-30T11:09:04Z</time>
      </trkpt>
      <trkpt lat="42.463628" lon="1.855843">
        <ele>1722.040</ele>
        <time>2019-05-30T11:09:10Z</time>
      </trkpt>
      <trkpt lat="42.463644" lon="1.855773">
        <ele>1722.893</ele>
        <time>2019-05-30T11:09:14Z</time>
      </trkpt>
      <trkpt lat="42.463665" lon="1.855721">
        <ele>1723.457</ele>
        <time>2019-05-30T11:09:17Z</time>
      </trkpt>
      <trkpt lat="42.463684" lon="1.855624">
        <ele>1723.685</ele>
        <time>2019-05-30T11:09:23Z</time>
      </trkpt>
      <trkpt lat="42.463685" lon="1.855603">
        <ele>1723.830</ele>
        <time>2019-05-30T11:09:24Z</time>
      </trkpt>
      <trkpt lat="42.463694" lon="1.855461">
        <ele>1724.461</ele>
        <time>2019-05-30T11:09:31Z</time>
      </trkpt>
      <trkpt lat="42.463734" lon="1.855369">
        <ele>1724.821</ele>
        <time>2019-05-30T11:09:37Z</time>
      </trkpt>
      <trkpt lat="42.463759" lon="1.855322">
        <ele>1725.213</ele>
        <time>2019-05-30T11:09:40Z</time>
      </trkpt>
      <trkpt lat="42.463787" lon="1.855269">
        <ele>1726.008</ele>
        <time>2019-05-30T11:09:43Z</time>
      </trkpt>
      <trkpt lat="42.463818" lon="1.855195">
        <ele>1726.619</ele>
        <time>2019-05-30T11:09:48Z</time>
      </trkpt>
      <trkpt lat="42.463849" lon="1.855136">
        <ele>1727.023</ele>
        <time>2019-05-30T11:09:52Z</time>
      </trkpt>
      <trkpt lat="42.463883" lon="1.855050">
        <ele>1727.639</ele>
        <time>2019-05-30T11:09:57Z</time>
      </trkpt>
      <trkpt lat="42.463948" lon="1.854926">
        <ele>1727.817</ele>
        <time>2019-05-30T11:10:05Z</time>
      </trkpt>
      <trkpt lat="42.463959" lon="1.854895">
        <ele>1728.040</ele>
        <time>2019-05-30T11:10:07Z</time>
      </trkpt>
      <trkpt lat="42.463996" lon="1.854813">
        <ele>1728.684</ele>
        <time>2019-05-30T11:10:12Z</time>
      </trkpt>
      <trkpt lat="42.464039" lon="1.854751">
        <ele>1729.082</ele>
        <time>2019-05-30T11:10:16Z</time>
      </trkpt>
      <trkpt lat="42.464096" lon="1.854662">
        <ele>1730.037</ele>
        <time>2019-05-30T11:10:22Z</time>
      </trkpt>
      <trkpt lat="42.464102" lon="1.854647">
        <ele>1730.266</ele>
        <time>2019-05-30T11:10:23Z</time>
      </trkpt>
      <trkpt lat="42.464154" lon="1.854521">
        <ele>1731.029</ele>
        <time>2019-05-30T11:10:31Z</time>
      </trkpt>
      <trkpt lat="42.464162" lon="1.854506">
        <ele>1731.221</ele>
        <time>2019-05-30T11:10:32Z</time>
      </trkpt>
      <trkpt lat="42.464176" lon="1.854372">
        <ele>1732.008</ele>
        <time>2019-05-30T11:10:39Z</time>
      </trkpt>
      <trkpt lat="42.464160" lon="1.854321">
        <ele>1732.269</ele>
        <time>2019-05-30T11:10:42Z</time>
      </trkpt>
      <trkpt lat="42.464154" lon="1.854305">
        <ele>1732.473</ele>
        <time>2019-05-30T11:10:43Z</time>
      </trkpt>
      <trkpt lat="42.464141" lon="1.854295">
        <ele>1732.689</ele>
        <time>2019-05-30T11:10:44Z</time>
      </trkpt>
      <trkpt lat="42.464058" lon="1.854275">
        <ele>1733.277</ele>
        <time>2019-05-30T11:10:50Z</time>
      </trkpt>
      <trkpt lat="42.464045" lon="1.854282">
        <ele>1733.460</ele>
        <time>2019-05-30T11:10:51Z</time>
      </trkpt>
      <trkpt lat="42.463981" lon="1.854343">
        <ele>1734.094</ele>
        <time>2019-05-30T11:10:57Z</time>
      </trkpt>
      <trkpt lat="42.463880" lon="1.854454">
        <ele>1734.022</ele>
        <time>2019-05-30T11:11:05Z</time>
      </trkpt>
      <trkpt lat="42.463855" lon="1.854486">
        <ele>1734.447</ele>
        <time>2019-05-30T11:11:07Z</time>
      </trkpt>
      <trkpt lat="42.463817" lon="1.854551">
        <ele>1735.469</ele>
        <time>2019-05-30T11:11:11Z</time>
      </trkpt>
      <trkpt lat="42.463807" lon="1.854565">
        <ele>1735.804</ele>
        <time>2019-05-30T11:11:12Z</time>
      </trkpt>
      <trkpt lat="42.463781" lon="1.854611">
        <ele>1737.024</ele>
        <time>2019-05-30T11:11:15Z</time>
      </trkpt>
      <trkpt lat="42.463737" lon="1.854674">
        <ele>1737.608</ele>
        <time>2019-05-30T11:11:20Z</time>
      </trkpt>
      <trkpt lat="42.463648" lon="1.854771">
        <ele>1737.249</ele>
        <time>2019-05-30T11:11:28Z</time>
      </trkpt>
      <trkpt lat="42.463555" lon="1.854840">
        <ele>1737.673</ele>
        <time>2019-05-30T11:11:34Z</time>
      </trkpt>
      <trkpt lat="42.463511" lon="1.854877">
        <ele>1738.029</ele>
        <time>2019-05-30T11:11:37Z</time>
      </trkpt>
      <trkpt lat="42.463462" lon="1.854940">
        <ele>1738.417</ele>
        <time>2019-05-30T11:11:41Z</time>
      </trkpt>
      <trkpt lat="42.463416" lon="1.854988">
        <ele>1739.220</ele>
        <time>2019-05-30T11:11:45Z</time>
      </trkpt>
      <trkpt lat="42.463369" lon="1.855030">
        <ele>1739.644</ele>
        <time>2019-05-30T11:11:49Z</time>
      </trkpt>
      <trkpt lat="42.463315" lon="1.855088">
        <ele>1740.232</ele>
        <time>2019-05-30T11:11:54Z</time>
      </trkpt>
      <trkpt lat="42.463297" lon="1.855111">
        <ele>1740.637</ele>
        <time>2019-05-30T11:11:56Z</time>
      </trkpt>
      <trkpt lat="42.463221" lon="1.855217">
        <ele>1741.486</ele>
        <time>2019-05-30T11:12:04Z</time>
      </trkpt>
      <trkpt lat="42.463211" lon="1.855228">
        <ele>1741.460</ele>
        <time>2019-05-30T11:12:05Z</time>
      </trkpt>
      <trkpt lat="42.463171" lon="1.855305">
        <ele>1742.426</ele>
        <time>2019-05-30T11:12:11Z</time>
      </trkpt>
      <trkpt lat="42.463114" lon="1.855410">
        <ele>1743.608</ele>
        <time>2019-05-30T11:12:19Z</time>
      </trkpt>
      <trkpt lat="42.463052" lon="1.855506">
        <ele>1744.091</ele>
        <time>2019-05-30T11:12:26Z</time>
      </trkpt>
      <trkpt lat="42.462995" lon="1.855580">
        <ele>1744.855</ele>
        <time>2019-05-30T11:12:32Z</time>
      </trkpt>
      <trkpt lat="42.462985" lon="1.855597">
        <ele>1744.811</ele>
        <time>2019-05-30T11:12:33Z</time>
      </trkpt>
      <trkpt lat="42.462934" lon="1.855692">
        <ele>1745.699</ele>
        <time>2019-05-30T11:12:40Z</time>
      </trkpt>
      <trkpt lat="42.462926" lon="1.855708">
        <ele>1746.042</ele>
        <time>2019-05-30T11:12:41Z</time>
      </trkpt>
      <trkpt lat="42.462880" lon="1.855797">
        <ele>1747.086</ele>
        <time>2019-05-30T11:12:47Z</time>
      </trkpt>
      <trkpt lat="42.462803" lon="1.855896">
        <ele>1747.414</ele>
        <time>2019-05-30T11:12:54Z</time>
      </trkpt>
      <trkpt lat="42.462761" lon="1.855949">
        <ele>1747.879</ele>
        <time>2019-05-30T11:12:58Z</time>
      </trkpt>
      <trkpt lat="42.462727" lon="1.856007">
        <ele>1748.099</ele>
        <time>2019-05-30T11:13:02Z</time>
      </trkpt>
      <trkpt lat="42.462662" lon="1.856121">
        <ele>1748.807</ele>
        <time>2019-05-30T11:13:10Z</time>
      </trkpt>
      <trkpt lat="42.462656" lon="1.856138">
        <ele>1749.027</ele>
        <time>2019-05-30T11:13:11Z</time>
      </trkpt>
      <trkpt lat="42.462634" lon="1.856160">
        <ele>1749.408</ele>
        <time>2019-05-30T11:13:13Z</time>
      </trkpt>
      <trkpt lat="42.462598" lon="1.856185">
        <ele>1749.862</ele>
        <time>2019-05-30T11:13:16Z</time>
      </trkpt>
      <trkpt lat="42.462574" lon="1.856208">
        <ele>1750.286</ele>
        <time>2019-05-30T11:13:18Z</time>
      </trkpt>
      <trkpt lat="42.462491" lon="1.856247">
        <ele>1750.872</ele>
        <time>2019-05-30T11:13:24Z</time>
      </trkpt>
      <trkpt lat="42.462444" lon="1.856296">
        <ele>1751.450</ele>
        <time>2019-05-30T11:13:28Z</time>
      </trkpt>
      <trkpt lat="42.462405" lon="1.856314">
        <ele>1751.683</ele>
        <time>2019-05-30T11:13:31Z</time>
      </trkpt>
      <trkpt lat="42.462307" lon="1.856370">
        <ele>1752.467</ele>
        <time>2019-05-30T11:13:39Z</time>
      </trkpt>
      <trkpt lat="42.462294" lon="1.856381">
        <ele>1752.475</ele>
        <time>2019-05-30T11:13:40Z</time>
      </trkpt>
      <trkpt lat="42.462204" lon="1.856433">
        <ele>1753.410</ele>
        <time>2019-05-30T11:13:48Z</time>
      </trkpt>
      <trkpt lat="42.462192" lon="1.856438">
        <ele>1753.483</ele>
        <time>2019-05-30T11:13:49Z</time>
      </trkpt>
      <trkpt lat="42.462108" lon="1.856490">
        <ele>1754.425</ele>
        <time>2019-05-30T11:13:56Z</time>
      </trkpt>
      <trkpt lat="42.461997" lon="1.856552">
        <ele>1755.017</ele>
        <time>2019-05-30T11:14:05Z</time>
      </trkpt>
      <trkpt lat="42.461971" lon="1.856563">
        <ele>1755.608</ele>
        <time>2019-05-30T11:14:07Z</time>
      </trkpt>
      <trkpt lat="42.461904" lon="1.856586">
        <ele>1756.491</ele>
        <time>2019-05-30T11:14:12Z</time>
      </trkpt>
      <trkpt lat="42.461881" lon="1.856590">
        <ele>1756.625</ele>
        <time>2019-05-30T11:14:14Z</time>
      </trkpt>
      <trkpt lat="42.461854" lon="1.856596">
        <ele>1756.881</ele>
        <time>2019-05-30T11:14:16Z</time>
      </trkpt>
      <trkpt lat="42.461842" lon="1.856601">
        <ele>1757.069</ele>
        <time>2019-05-30T11:14:17Z</time>
      </trkpt>
      <trkpt lat="42.461788" lon="1.856618">
        <ele>1757.432</ele>
        <time>2019-05-30T11:14:21Z</time>
      </trkpt>
      <trkpt lat="42.461758" lon="1.856627">
        <ele>1757.846</ele>
        <time>2019-05-30T11:14:23Z</time>
      </trkpt>
      <trkpt lat="42.461662" lon="1.856654">
        <ele>1758.664</ele>
        <time>2019-05-30T11:14:30Z</time>
      </trkpt>
      <trkpt lat="42.461636" lon="1.856663">
        <ele>1759.079</ele>
        <time>2019-05-30T11:14:32Z</time>
      </trkpt>
      <trkpt lat="42.461551" lon="1.856682">
        <ele>1759.422</ele>
        <time>2019-05-30T11:14:38Z</time>
      </trkpt>
      <trkpt lat="42.461522" lon="1.856688">
        <ele>1759.662</ele>
        <time>2019-05-30T11:14:40Z</time>
      </trkpt>
      <trkpt lat="42.461470" lon="1.856698">
        <ele>1760.008</ele>
        <time>2019-05-30T11:14:44Z</time>
      </trkpt>
      <trkpt lat="42.461418" lon="1.856709">
        <ele>1760.408</ele>
        <time>2019-05-30T11:14:48Z</time>
      </trkpt>
      <trkpt lat="42.461376" lon="1.856720">
        <ele>1760.615</ele>
        <time>2019-05-30T11:14:51Z</time>
      </trkpt>
      <trkpt lat="42.461304" lon="1.856727">
        <ele>1761.099</ele>
        <time>2019-05-30T11:14:56Z</time>
      </trkpt>
      <trkpt lat="42.461290" lon="1.856728">
        <ele>1761.215</ele>
        <time>2019-05-30T11:14:57Z</time>
      </trkpt>
      <trkpt lat="42.461217" lon="1.856764">
        <ele>1762.093</ele>
        <time>2019-05-30T11:15:02Z</time>
      </trkpt>
      <trkpt lat="42.461200" lon="1.856771">
        <ele>1762.226</ele>
        <time>2019-05-30T11:15:03Z</time>
      </trkpt>
      <trkpt lat="42.461110" lon="1.856805">
        <ele>1762.820</ele>
        <time>2019-05-30T11:15:09Z</time>
      </trkpt>
      <trkpt lat="42.461039" lon="1.856848">
        <ele>1763.298</ele>
        <time>2019-05-30T11:15:15Z</time>
      </trkpt>
      <trkpt lat="42.461013" lon="1.856847">
        <ele>1763.663</ele>
        <time>2019-05-30T11:15:17Z</time>
      </trkpt>
      <trkpt lat="42.460992" lon="1.856862">
        <ele>1764.612</ele>
        <time>2019-05-30T11:15:19Z</time>
      </trkpt>
      <trkpt lat="42.460942" lon="1.856887">
        <ele>1764.232</ele>
        <time>2019-05-30T11:15:23Z</time>
      </trkpt>
      <trkpt lat="42.460918" lon="1.856903">
        <ele>1764.205</ele>
        <time>2019-05-30T11:15:25Z</time>
      </trkpt>
      <trkpt lat="42.460884" lon="1.856913">
        <ele>1764.208</ele>
        <time>2019-05-30T11:15:28Z</time>
      </trkpt>
      <trkpt lat="42.460861" lon="1.856919">
        <ele>1764.494</ele>
        <time>2019-05-30T11:15:30Z</time>
      </trkpt>
      <trkpt lat="42.460836" lon="1.856932">
        <ele>1764.898</ele>
        <time>2019-05-30T11:15:32Z</time>
      </trkpt>
      <trkpt lat="42.460823" lon="1.856940">
        <ele>1765.044</ele>
        <time>2019-05-30T11:15:33Z</time>
      </trkpt>
      <trkpt lat="42.460754" lon="1.856975">
        <ele>1765.612</ele>
        <time>2019-05-30T11:15:39Z</time>
      </trkpt>
      <trkpt lat="42.460658" lon="1.857029">
        <ele>1766.435</ele>
        <time>2019-05-30T11:15:47Z</time>
      </trkpt>
      <trkpt lat="42.460635" lon="1.857043">
        <ele>1766.859</ele>
        <time>2019-05-30T11:15:49Z</time>
      </trkpt>
      <trkpt lat="42.460564" lon="1.857100">
        <ele>1767.697</ele>
        <time>2019-05-30T11:15:56Z</time>
      </trkpt>
      <trkpt lat="42.460542" lon="1.857120">
        <ele>1767.882</ele>
        <time>2019-05-30T11:15:58Z</time>
      </trkpt>
      <trkpt lat="42.460482" lon="1.857174">
        <ele>1769.085</ele>
        <time>2019-05-30T11:16:03Z</time>
      </trkpt>
      <trkpt lat="42.460403" lon="1.857273">
        <ele>1769.489</ele>
        <time>2019-05-30T11:16:11Z</time>
      </trkpt>
      <trkpt lat="42.460314" lon="1.857386">
        <ele>1769.817</ele>
        <time>2019-05-30T11:16:20Z</time>
      </trkpt>
      <trkpt lat="42.460283" lon="1.857426">
        <ele>1770.208</ele>
        <time>2019-05-30T11:16:23Z</time>
      </trkpt>
      <trkpt lat="42.460229" lon="1.857503">
        <ele>1770.681</ele>
        <time>2019-05-30T11:16:29Z</time>
      </trkpt>
      <trkpt lat="42.460203" lon="1.857541">
        <ele>1771.235</ele>
        <time>2019-05-30T11:16:32Z</time>
      </trkpt>
      <trkpt lat="42.460124" lon="1.857615">
        <ele>1772.251</ele>
        <time>2019-05-30T11:16:39Z</time>
      </trkpt>
      <trkpt lat="42.460038" lon="1.857703">
        <ele>1773.239</ele>
        <time>2019-05-30T11:16:47Z</time>
      </trkpt>
      <trkpt lat="42.460029" lon="1.857714">
        <ele>1773.452</ele>
        <time>2019-05-30T11:16:48Z</time>
      </trkpt>
      <trkpt lat="42.459952" lon="1.857787">
        <ele>1774.246</ele>
        <time>2019-05-30T11:16:55Z</time>
      </trkpt>
      <trkpt lat="42.459922" lon="1.857816">
        <ele>1774.264</ele>
        <time>2019-05-30T11:16:58Z</time>
      </trkpt>
      <trkpt lat="42.459872" lon="1.857857">
        <ele>1774.869</ele>
        <time>2019-05-30T11:17:02Z</time>
      </trkpt>
      <trkpt lat="42.459803" lon="1.857914">
        <ele>1775.254</ele>
        <time>2019-05-30T11:17:08Z</time>
      </trkpt>
      <trkpt lat="42.459792" lon="1.857924">
        <ele>1775.256</ele>
        <time>2019-05-30T11:17:09Z</time>
      </trkpt>
      <trkpt lat="42.459782" lon="1.857932">
        <ele>1775.411</ele>
        <time>2019-05-30T11:17:10Z</time>
      </trkpt>
      <trkpt lat="42.459748" lon="1.857965">
        <ele>1775.608</ele>
        <time>2019-05-30T11:17:13Z</time>
      </trkpt>
      <trkpt lat="42.459705" lon="1.858006">
        <ele>1776.048</ele>
        <time>2019-05-30T11:17:17Z</time>
      </trkpt>
      <trkpt lat="42.459672" lon="1.858030">
        <ele>1776.432</ele>
        <time>2019-05-30T11:17:20Z</time>
      </trkpt>
      <trkpt lat="42.459617" lon="1.858080">
        <ele>1777.018</ele>
        <time>2019-05-30T11:17:25Z</time>
      </trkpt>
      <trkpt lat="42.459582" lon="1.858108">
        <ele>1777.466</ele>
        <time>2019-05-30T11:17:28Z</time>
      </trkpt>
      <trkpt lat="42.459516" lon="1.858161">
        <ele>1778.259</ele>
        <time>2019-05-30T11:17:34Z</time>
      </trkpt>
      <trkpt lat="42.459474" lon="1.858206">
        <ele>1778.683</ele>
        <time>2019-05-30T11:17:38Z</time>
      </trkpt>
      <trkpt lat="42.459418" lon="1.858259">
        <ele>1779.471</ele>
        <time>2019-05-30T11:17:43Z</time>
      </trkpt>
      <trkpt lat="42.459407" lon="1.858265">
        <ele>1779.896</ele>
        <time>2019-05-30T11:17:44Z</time>
      </trkpt>
      <trkpt lat="42.459326" lon="1.858335">
        <ele>1780.222</ele>
        <time>2019-05-30T11:17:51Z</time>
      </trkpt>
      <trkpt lat="42.459293" lon="1.858364">
        <ele>1780.862</ele>
        <time>2019-05-30T11:17:54Z</time>
      </trkpt>
      <trkpt lat="42.459249" lon="1.858402">
        <ele>1781.008</ele>
        <time>2019-05-30T11:17:58Z</time>
      </trkpt>
      <trkpt lat="42.459169" lon="1.858469">
        <ele>1782.008</ele>
        <time>2019-05-30T11:18:05Z</time>
      </trkpt>
      <trkpt lat="42.459158" lon="1.858477">
        <ele>1782.425</ele>
        <time>2019-05-30T11:18:06Z</time>
      </trkpt>
      <trkpt lat="42.459135" lon="1.858497">
        <ele>1783.289</ele>
        <time>2019-05-30T11:18:08Z</time>
      </trkpt>
      <trkpt lat="42.459055" lon="1.858562">
        <ele>1783.215</ele>
        <time>2019-05-30T11:18:15Z</time>
      </trkpt>
      <trkpt lat="42.458956" lon="1.858628">
        <ele>1783.823</ele>
        <time>2019-05-30T11:18:23Z</time>
      </trkpt>
      <trkpt lat="42.458933" lon="1.858645">
        <ele>1784.486</ele>
        <time>2019-05-30T11:18:25Z</time>
      </trkpt>
      <trkpt lat="42.458886" lon="1.858677">
        <ele>1785.680</ele>
        <time>2019-05-30T11:18:29Z</time>
      </trkpt>
      <trkpt lat="42.458874" lon="1.858685">
        <ele>1785.638</ele>
        <time>2019-05-30T11:18:30Z</time>
      </trkpt>
      <trkpt lat="42.458766" lon="1.858735">
        <ele>1786.653</ele>
        <time>2019-05-30T11:18:39Z</time>
      </trkpt>
      <trkpt lat="42.458753" lon="1.858742">
        <ele>1786.683</ele>
        <time>2019-05-30T11:18:40Z</time>
      </trkpt>
      <trkpt lat="42.458609" lon="1.858805">
        <ele>1787.625</ele>
        <time>2019-05-30T11:18:51Z</time>
      </trkpt>
      <trkpt lat="42.458519" lon="1.858839">
        <ele>1788.217</ele>
        <time>2019-05-30T11:18:58Z</time>
      </trkpt>
      <trkpt lat="42.458479" lon="1.858847">
        <ele>1789.008</ele>
        <time>2019-05-30T11:19:01Z</time>
      </trkpt>
      <trkpt lat="42.458399" lon="1.858868">
        <ele>1790.011</ele>
        <time>2019-05-30T11:19:07Z</time>
      </trkpt>
      <trkpt lat="42.458388" lon="1.858873">
        <ele>1790.275</ele>
        <time>2019-05-30T11:19:08Z</time>
      </trkpt>
      <trkpt lat="42.458266" lon="1.858897">
        <ele>1790.261</ele>
        <time>2019-05-30T11:19:17Z</time>
      </trkpt>
      <trkpt lat="42.458178" lon="1.858919">
        <ele>1791.279</ele>
        <time>2019-05-30T11:19:24Z</time>
      </trkpt>
      <trkpt lat="42.458135" lon="1.858928">
        <ele>1791.652</ele>
        <time>2019-05-30T11:19:27Z</time>
      </trkpt>
      <trkpt lat="42.458094" lon="1.858934">
        <ele>1792.416</ele>
        <time>2019-05-30T11:19:30Z</time>
      </trkpt>
      <trkpt lat="42.458026" lon="1.858952">
        <ele>1793.014</ele>
        <time>2019-05-30T11:19:35Z</time>
      </trkpt>
      <trkpt lat="42.457955" lon="1.858969">
        <ele>1793.469</ele>
        <time>2019-05-30T11:19:40Z</time>
      </trkpt>
      <trkpt lat="42.457903" lon="1.858991">
        <ele>1794.227</ele>
        <time>2019-05-30T11:19:44Z</time>
      </trkpt>
      <trkpt lat="42.457891" lon="1.858996">
        <ele>1794.468</ele>
        <time>2019-05-30T11:19:45Z</time>
      </trkpt>
      <trkpt lat="42.457789" lon="1.859043">
        <ele>1795.414</ele>
        <time>2019-05-30T11:19:52Z</time>
      </trkpt>
      <trkpt lat="42.457776" lon="1.859044">
        <ele>1795.608</ele>
        <time>2019-05-30T11:19:53Z</time>
      </trkpt>
      <trkpt lat="42.457688" lon="1.858962">
        <ele>1797.285</ele>
        <time>2019-05-30T11:21:24Z</time>
      </trkpt>
      <trkpt lat="42.457671" lon="1.858884">
        <ele>1797.699</ele>
        <time>2019-05-30T11:21:28Z</time>
      </trkpt>
      <trkpt lat="42.457667" lon="1.858846">
        <ele>1797.875</ele>
        <time>2019-05-30T11:21:30Z</time>
      </trkpt>
      <trkpt lat="42.457662" lon="1.858771">
        <ele>1798.463</ele>
        <time>2019-05-30T11:21:34Z</time>
      </trkpt>
      <trkpt lat="42.457664" lon="1.858681">
        <ele>1798.646</ele>
        <time>2019-05-30T11:21:39Z</time>
      </trkpt>
      <trkpt lat="42.457689" lon="1.858619">
        <ele>1799.660</ele>
        <time>2019-05-30T11:21:43Z</time>
      </trkpt>
      <trkpt lat="42.457696" lon="1.858604">
        <ele>1800.668</ele>
        <time>2019-05-30T11:21:44Z</time>
      </trkpt>
      <trkpt lat="42.457718" lon="1.858554">
        <ele>1800.443</ele>
        <time>2019-05-30T11:21:47Z</time>
      </trkpt>
      <trkpt lat="42.457754" lon="1.858459">
        <ele>1801.868</ele>
        <time>2019-05-30T11:21:53Z</time>
      </trkpt>
      <trkpt lat="42.457760" lon="1.858443">
        <ele>1801.442</ele>
        <time>2019-05-30T11:21:54Z</time>
      </trkpt>
      <trkpt lat="42.457797" lon="1.858324">
        <ele>1801.826</ele>
        <time>2019-05-30T11:22:01Z</time>
      </trkpt>
      <trkpt lat="42.457807" lon="1.858231">
        <ele>1802.808</ele>
        <time>2019-05-30T11:22:06Z</time>
      </trkpt>
      <trkpt lat="42.457826" lon="1.858177">
        <ele>1803.019</ele>
        <time>2019-05-30T11:22:09Z</time>
      </trkpt>
      <trkpt lat="42.457858" lon="1.858030">
        <ele>1803.873</ele>
        <time>2019-05-30T11:22:17Z</time>
      </trkpt>
      <trkpt lat="42.457860" lon="1.858011">
        <ele>1804.049</ele>
        <time>2019-05-30T11:22:18Z</time>
      </trkpt>
      <trkpt lat="42.457896" lon="1.857865">
        <ele>1805.087</ele>
        <time>2019-05-30T11:22:26Z</time>
      </trkpt>
      <trkpt lat="42.457925" lon="1.857702">
        <ele>1805.490</ele>
        <time>2019-05-30T11:22:34Z</time>
      </trkpt>
      <trkpt lat="42.457929" lon="1.857641">
        <ele>1806.024</ele>
        <time>2019-05-30T11:22:37Z</time>
      </trkpt>
      <trkpt lat="42.457926" lon="1.857543">
        <ele>1806.432</ele>
        <time>2019-05-30T11:22:42Z</time>
      </trkpt>
      <trkpt lat="42.457925" lon="1.857426">
        <ele>1807.017</ele>
        <time>2019-05-30T11:22:48Z</time>
      </trkpt>
      <trkpt lat="42.457930" lon="1.857354">
        <ele>1807.419</ele>
        <time>2019-05-30T11:22:52Z</time>
      </trkpt>
      <trkpt lat="42.457931" lon="1.857265">
        <ele>1808.209</ele>
        <time>2019-05-30T11:22:57Z</time>
      </trkpt>
      <trkpt lat="42.457922" lon="1.857194">
        <ele>1808.819</ele>
        <time>2019-05-30T11:23:01Z</time>
      </trkpt>
      <trkpt lat="42.457920" lon="1.857102">
        <ele>1809.208</ele>
        <time>2019-05-30T11:23:06Z</time>
      </trkpt>
      <trkpt lat="42.457924" lon="1.857030">
        <ele>1809.634</ele>
        <time>2019-05-30T11:23:10Z</time>
      </trkpt>
      <trkpt lat="42.457924" lon="1.856976">
        <ele>1810.498</ele>
        <time>2019-05-30T11:23:13Z</time>
      </trkpt>
      <trkpt lat="42.457930" lon="1.856846">
        <ele>1811.014</ele>
        <time>2019-05-30T11:23:20Z</time>
      </trkpt>
      <trkpt lat="42.457942" lon="1.856719">
        <ele>1811.482</ele>
        <time>2019-05-30T11:23:27Z</time>
      </trkpt>
      <trkpt lat="42.457945" lon="1.856700">
        <ele>1811.415</ele>
        <time>2019-05-30T11:23:28Z</time>
      </trkpt>
      <trkpt lat="42.457965" lon="1.856578">
        <ele>1812.469</ele>
        <time>2019-05-30T11:23:34Z</time>
      </trkpt>
      <trkpt lat="42.457970" lon="1.856543">
        <ele>1812.647</ele>
        <time>2019-05-30T11:23:36Z</time>
      </trkpt>
      <trkpt lat="42.457997" lon="1.856405">
        <ele>1813.682</ele>
        <time>2019-05-30T11:23:44Z</time>
      </trkpt>
      <trkpt lat="42.458002" lon="1.856386">
        <ele>1813.893</ele>
        <time>2019-05-30T11:23:45Z</time>
      </trkpt>
      <trkpt lat="42.458046" lon="1.856229">
        <ele>1814.865</ele>
        <time>2019-05-30T11:23:54Z</time>
      </trkpt>
      <trkpt lat="42.458084" lon="1.856088">
        <ele>1815.621</ele>
        <time>2019-05-30T11:24:02Z</time>
      </trkpt>
      <trkpt lat="42.458107" lon="1.856034">
        <ele>1816.008</ele>
        <time>2019-05-30T11:24:05Z</time>
      </trkpt>
      <trkpt lat="42.458129" lon="1.855963">
        <ele>1816.822</ele>
        <time>2019-05-30T11:24:09Z</time>
      </trkpt>
      <trkpt lat="42.458149" lon="1.855879">
        <ele>1817.066</ele>
        <time>2019-05-30T11:24:14Z</time>
      </trkpt>
      <trkpt lat="42.458176" lon="1.855810">
        <ele>1818.282</ele>
        <time>2019-05-30T11:24:18Z</time>
      </trkpt>
      <trkpt lat="42.458211" lon="1.855690">
        <ele>1819.210</ele>
        <time>2019-05-30T11:24:25Z</time>
      </trkpt>
      <trkpt lat="42.458213" lon="1.855671">
        <ele>1819.693</ele>
        <time>2019-05-30T11:24:26Z</time>
      </trkpt>
      <trkpt lat="42.458236" lon="1.855565">
        <ele>1819.687</ele>
        <time>2019-05-30T11:24:32Z</time>
      </trkpt>
      <trkpt lat="42.458263" lon="1.855439">
        <ele>1820.625</ele>
        <time>2019-05-30T11:24:39Z</time>
      </trkpt>
      <trkpt lat="42.458285" lon="1.855335">
        <ele>1820.840</ele>
        <time>2019-05-30T11:24:45Z</time>
      </trkpt>
      <trkpt lat="42.458296" lon="1.855283">
        <ele>1821.217</ele>
        <time>2019-05-30T11:24:48Z</time>
      </trkpt>
      <trkpt lat="42.458330" lon="1.855148">
        <ele>1821.887</ele>
        <time>2019-05-30T11:24:56Z</time>
      </trkpt>
      <trkpt lat="42.458359" lon="1.855035">
        <ele>1823.015</ele>
        <time>2019-05-30T11:25:03Z</time>
      </trkpt>
      <trkpt lat="42.458363" lon="1.855018">
        <ele>1823.208</ele>
        <time>2019-05-30T11:25:04Z</time>
      </trkpt>
      <trkpt lat="42.458384" lon="1.854922">
        <ele>1824.264</ele>
        <time>2019-05-30T11:25:10Z</time>
      </trkpt>
      <trkpt lat="42.458394" lon="1.854856">
        <ele>1824.448</ele>
        <time>2019-05-30T11:25:14Z</time>
      </trkpt>
      <trkpt lat="42.458418" lon="1.854725">
        <ele>1825.494</ele>
        <time>2019-05-30T11:25:22Z</time>
      </trkpt>
      <trkpt lat="42.458417" lon="1.854708">
        <ele>1825.482</ele>
        <time>2019-05-30T11:25:23Z</time>
      </trkpt>
      <trkpt lat="42.458437" lon="1.854571">
        <ele>1826.695</ele>
        <time>2019-05-30T11:25:31Z</time>
      </trkpt>
      <trkpt lat="42.458437" lon="1.854552">
        <ele>1826.869</ele>
        <time>2019-05-30T11:25:32Z</time>
      </trkpt>
      <trkpt lat="42.458451" lon="1.854476">
        <ele>1827.297</ele>
        <time>2019-05-30T11:25:37Z</time>
      </trkpt>
      <trkpt lat="42.458457" lon="1.854422">
        <ele>1827.852</ele>
        <time>2019-05-30T11:25:40Z</time>
      </trkpt>
      <trkpt lat="42.458470" lon="1.854344">
        <ele>1828.286</ele>
        <time>2019-05-30T11:25:44Z</time>
      </trkpt>
      <trkpt lat="42.458475" lon="1.854308">
        <ele>1828.860</ele>
        <time>2019-05-30T11:25:46Z</time>
      </trkpt>
      <trkpt lat="42.458493" lon="1.854232">
        <ele>1829.426</ele>
        <time>2019-05-30T11:25:50Z</time>
      </trkpt>
      <trkpt lat="42.458506" lon="1.854170">
        <ele>1829.808</ele>
        <time>2019-05-30T11:25:53Z</time>
      </trkpt>
      <trkpt lat="42.458510" lon="1.854104">
        <ele>1830.041</ele>
        <time>2019-05-30T11:25:56Z</time>
      </trkpt>
      <trkpt lat="42.458515" lon="1.854039">
        <ele>1830.475</ele>
        <time>2019-05-30T11:26:00Z</time>
      </trkpt>
      <trkpt lat="42.458520" lon="1.853988">
        <ele>1830.491</ele>
        <time>2019-05-30T11:26:03Z</time>
      </trkpt>
      <trkpt lat="42.458524" lon="1.853952">
        <ele>1831.059</ele>
        <time>2019-05-30T11:26:05Z</time>
      </trkpt>
      <trkpt lat="42.458537" lon="1.853869">
        <ele>1832.432</ele>
        <time>2019-05-30T11:26:10Z</time>
      </trkpt>
      <trkpt lat="42.458548" lon="1.853836">
        <ele>1832.066</ele>
        <time>2019-05-30T11:26:12Z</time>
      </trkpt>
      <trkpt lat="42.458567" lon="1.853704">
        <ele>1833.034</ele>
        <time>2019-05-30T11:26:20Z</time>
      </trkpt>
      <trkpt lat="42.458607" lon="1.853582">
        <ele>1833.299</ele>
        <time>2019-05-30T11:26:28Z</time>
      </trkpt>
      <trkpt lat="42.458616" lon="1.853571">
        <ele>1833.448</ele>
        <time>2019-05-30T11:26:29Z</time>
      </trkpt>
      <trkpt lat="42.458622" lon="1.853557">
        <ele>1833.461</ele>
        <time>2019-05-30T11:26:30Z</time>
      </trkpt>
      <trkpt lat="42.458651" lon="1.853512">
        <ele>1834.417</ele>
        <time>2019-05-30T11:26:34Z</time>
      </trkpt>
      <trkpt lat="42.458679" lon="1.853462">
        <ele>1834.608</ele>
        <time>2019-05-30T11:26:38Z</time>
      </trkpt>
      <trkpt lat="42.458707" lon="1.853424">
        <ele>1834.647</ele>
        <time>2019-05-30T11:26:41Z</time>
      </trkpt>
      <trkpt lat="42.458749" lon="1.853397">
        <ele>1834.891</ele>
        <time>2019-05-30T11:26:45Z</time>
      </trkpt>
      <trkpt lat="42.458772" lon="1.853378">
        <ele>1834.867</ele>
        <time>2019-05-30T11:26:47Z</time>
      </trkpt>
      <trkpt lat="42.458792" lon="1.853360">
        <ele>1835.675</ele>
        <time>2019-05-30T11:26:49Z</time>
      </trkpt>
      <trkpt lat="42.458815" lon="1.853347">
        <ele>1836.278</ele>
        <time>2019-05-30T11:26:51Z</time>
      </trkpt>
      <trkpt lat="42.458850" lon="1.853334">
        <ele>1836.682</ele>
        <time>2019-05-30T11:26:54Z</time>
      </trkpt>
      <trkpt lat="42.458861" lon="1.853328">
        <ele>1836.640</ele>
        <time>2019-05-30T11:26:55Z</time>
      </trkpt>
      <trkpt lat="42.458922" lon="1.853302">
        <ele>1837.285</ele>
        <time>2019-05-30T11:27:00Z</time>
      </trkpt>
      <trkpt lat="42.458945" lon="1.853287">
        <ele>1837.287</ele>
        <time>2019-05-30T11:27:02Z</time>
      </trkpt>
      <trkpt lat="42.458969" lon="1.853274">
        <ele>1837.842</ele>
        <time>2019-05-30T11:27:04Z</time>
      </trkpt>
      <trkpt lat="42.458997" lon="1.853265">
        <ele>1837.826</ele>
        <time>2019-05-30T11:27:06Z</time>
      </trkpt>
      <trkpt lat="42.459033" lon="1.853250">
        <ele>1838.208</ele>
        <time>2019-05-30T11:27:09Z</time>
      </trkpt>
      <trkpt lat="42.459057" lon="1.853241">
        <ele>1838.841</ele>
        <time>2019-05-30T11:27:11Z</time>
      </trkpt>
      <trkpt lat="42.459114" lon="1.853205">
        <ele>1838.045</ele>
        <time>2019-05-30T11:27:16Z</time>
      </trkpt>
      <trkpt lat="42.459126" lon="1.853201">
        <ele>1838.021</ele>
        <time>2019-05-30T11:27:17Z</time>
      </trkpt>
      <trkpt lat="42.459187" lon="1.853168">
        <ele>1840.499</ele>
        <time>2019-05-30T11:27:22Z</time>
      </trkpt>
      <trkpt lat="42.459231" lon="1.853145">
        <ele>1840.482</ele>
        <time>2019-05-30T11:27:25Z</time>
      </trkpt>
      <trkpt lat="42.459318" lon="1.853086">
        <ele>1841.226</ele>
        <time>2019-05-30T11:27:32Z</time>
      </trkpt>
      <trkpt lat="42.459383" lon="1.853027">
        <ele>1841.654</ele>
        <time>2019-05-30T11:27:38Z</time>
      </trkpt>
      <trkpt lat="42.459418" lon="1.853001">
        <ele>1842.699</ele>
        <time>2019-05-30T11:27:41Z</time>
      </trkpt>
      <trkpt lat="42.459464" lon="1.852942">
        <ele>1842.621</ele>
        <time>2019-05-30T11:27:46Z</time>
      </trkpt>
      <trkpt lat="42.459483" lon="1.852918">
        <ele>1843.241</ele>
        <time>2019-05-30T11:27:48Z</time>
      </trkpt>
      <trkpt lat="42.459492" lon="1.852905">
        <ele>1843.405</ele>
        <time>2019-05-30T11:27:49Z</time>
      </trkpt>
      <trkpt lat="42.459522" lon="1.852874">
        <ele>1843.408</ele>
        <time>2019-05-30T11:27:52Z</time>
      </trkpt>
      <trkpt lat="42.459559" lon="1.852826">
        <ele>1843.835</ele>
        <time>2019-05-30T11:27:56Z</time>
      </trkpt>
      <trkpt lat="42.459580" lon="1.852798">
        <ele>1844.249</ele>
        <time>2019-05-30T11:27:58Z</time>
      </trkpt>
      <trkpt lat="42.459659" lon="1.852683">
        <ele>1844.835</ele>
        <time>2019-05-30T11:28:07Z</time>
      </trkpt>
      <trkpt lat="42.459670" lon="1.852671">
        <ele>1845.053</ele>
        <time>2019-05-30T11:28:08Z</time>
      </trkpt>
      <trkpt lat="42.459717" lon="1.852573">
        <ele>1844.846</ele>
        <time>2019-05-30T11:28:15Z</time>
      </trkpt>
      <trkpt lat="42.459739" lon="1.852525">
        <ele>1846.450</ele>
        <time>2019-05-30T11:28:18Z</time>
      </trkpt>
      <trkpt lat="42.459753" lon="1.852492">
        <ele>1847.048</ele>
        <time>2019-05-30T11:28:20Z</time>
      </trkpt>
      <trkpt lat="42.459760" lon="1.852473">
        <ele>1846.663</ele>
        <time>2019-05-30T11:28:21Z</time>
      </trkpt>
      <trkpt lat="42.459794" lon="1.852404">
        <ele>1846.846</ele>
        <time>2019-05-30T11:28:25Z</time>
      </trkpt>
      <trkpt lat="42.459802" lon="1.852386">
        <ele>1847.088</ele>
        <time>2019-05-30T11:28:26Z</time>
      </trkpt>
      <trkpt lat="42.459827" lon="1.852329">
        <ele>1847.416</ele>
        <time>2019-05-30T11:28:29Z</time>
      </trkpt>
      <trkpt lat="42.459860" lon="1.852256">
        <ele>1848.008</ele>
        <time>2019-05-30T11:28:33Z</time>
      </trkpt>
      <trkpt lat="42.459884" lon="1.852160">
        <ele>1848.017</ele>
        <time>2019-05-30T11:28:39Z</time>
      </trkpt>
      <trkpt lat="42.459899" lon="1.852122">
        <ele>1848.091</ele>
        <time>2019-05-30T11:28:42Z</time>
      </trkpt>
      <trkpt lat="42.459923" lon="1.852070">
        <ele>1848.487</ele>
        <time>2019-05-30T11:28:46Z</time>
      </trkpt>
      <trkpt lat="42.459928" lon="1.852055">
        <ele>1848.815</ele>
        <time>2019-05-30T11:28:47Z</time>
      </trkpt>
      <trkpt lat="42.459941" lon="1.852005">
        <ele>1849.458</ele>
        <time>2019-05-30T11:28:50Z</time>
      </trkpt>
      <trkpt lat="42.459950" lon="1.851961">
        <ele>1849.852</ele>
        <time>2019-05-30T11:28:53Z</time>
      </trkpt>
      <trkpt lat="42.459953" lon="1.851944">
        <ele>1849.850</ele>
        <time>2019-05-30T11:28:54Z</time>
      </trkpt>
      <trkpt lat="42.459972" lon="1.851798">
        <ele>1850.645</ele>
        <time>2019-05-30T11:29:03Z</time>
      </trkpt>
      <trkpt lat="42.459978" lon="1.851752">
        <ele>1850.888</ele>
        <time>2019-05-30T11:29:06Z</time>
      </trkpt>
      <trkpt lat="42.459994" lon="1.851664">
        <ele>1851.024</ele>
        <time>2019-05-30T11:29:12Z</time>
      </trkpt>
      <trkpt lat="42.459999" lon="1.851534">
        <ele>1851.826</ele>
        <time>2019-05-30T11:29:20Z</time>
      </trkpt>
      <trkpt lat="42.460016" lon="1.851386">
        <ele>1852.408</ele>
        <time>2019-05-30T11:29:29Z</time>
      </trkpt>
      <trkpt lat="42.460028" lon="1.851324">
        <ele>1853.071</ele>
        <time>2019-05-30T11:29:33Z</time>
      </trkpt>
      <trkpt lat="42.460028" lon="1.851308">
        <ele>1853.615</ele>
        <time>2019-05-30T11:29:34Z</time>
      </trkpt>
      <trkpt lat="42.460031" lon="1.851257">
        <ele>1853.881</ele>
        <time>2019-05-30T11:29:37Z</time>
      </trkpt>
      <trkpt lat="42.460056" lon="1.851146">
        <ele>1854.059</ele>
        <time>2019-05-30T11:29:44Z</time>
      </trkpt>
      <trkpt lat="42.460062" lon="1.851129">
        <ele>1854.482</ele>
        <time>2019-05-30T11:29:45Z</time>
      </trkpt>
      <trkpt lat="42.460090" lon="1.851043">
        <ele>1855.096</ele>
        <time>2019-05-30T11:29:50Z</time>
      </trkpt>
      <trkpt lat="42.460114" lon="1.850999">
        <ele>1855.694</ele>
        <time>2019-05-30T11:29:53Z</time>
      </trkpt>
      <trkpt lat="42.460178" lon="1.850902">
        <ele>1856.079</ele>
        <time>2019-05-30T11:30:00Z</time>
      </trkpt>
      <trkpt lat="42.460234" lon="1.850803">
        <ele>1856.644</ele>
        <time>2019-05-30T11:30:07Z</time>
      </trkpt>
      <trkpt lat="42.460267" lon="1.850741">
        <ele>1857.005</ele>
        <time>2019-05-30T11:30:11Z</time>
      </trkpt>
      <trkpt lat="42.460280" lon="1.850715">
        <ele>1857.815</ele>
        <time>2019-05-30T11:30:13Z</time>
      </trkpt>
      <trkpt lat="42.460287" lon="1.850706">
        <ele>1857.608</ele>
        <time>2019-05-30T11:30:14Z</time>
      </trkpt>
      <trkpt lat="42.460294" lon="1.850696">
        <ele>1857.627</ele>
        <time>2019-05-30T11:30:15Z</time>
      </trkpt>
      <trkpt lat="42.460348" lon="1.850583">
        <ele>1858.661</ele>
        <time>2019-05-30T11:30:22Z</time>
      </trkpt>
      <trkpt lat="42.460361" lon="1.850549">
        <ele>1859.087</ele>
        <time>2019-05-30T11:30:24Z</time>
      </trkpt>
      <trkpt lat="42.460389" lon="1.850495">
        <ele>1859.245</ele>
        <time>2019-05-30T11:30:28Z</time>
      </trkpt>
      <trkpt lat="42.460410" lon="1.850410">
        <ele>1860.068</ele>
        <time>2019-05-30T11:30:34Z</time>
      </trkpt>
      <trkpt lat="42.460413" lon="1.850396">
        <ele>1860.262</ele>
        <time>2019-05-30T11:30:35Z</time>
      </trkpt>
      <trkpt lat="42.460454" lon="1.850284">
        <ele>1861.080</ele>
        <time>2019-05-30T11:30:43Z</time>
      </trkpt>
      <trkpt lat="42.460455" lon="1.850268">
        <ele>1861.075</ele>
        <time>2019-05-30T11:30:44Z</time>
      </trkpt>
      <trkpt lat="42.460463" lon="1.850238">
        <ele>1861.263</ele>
        <time>2019-05-30T11:30:46Z</time>
      </trkpt>
      <trkpt lat="42.460486" lon="1.850194">
        <ele>1861.444</ele>
        <time>2019-05-30T11:30:49Z</time>
      </trkpt>
      <trkpt lat="42.460516" lon="1.850117">
        <ele>1862.418</ele>
        <time>2019-05-30T11:30:54Z</time>
      </trkpt>
      <trkpt lat="42.460524" lon="1.850080">
        <ele>1862.408</ele>
        <time>2019-05-30T11:30:56Z</time>
      </trkpt>
      <trkpt lat="42.460530" lon="1.850005">
        <ele>1862.869</ele>
        <time>2019-05-30T11:31:01Z</time>
      </trkpt>
      <trkpt lat="42.460530" lon="1.849974">
        <ele>1862.653</ele>
        <time>2019-05-30T11:31:03Z</time>
      </trkpt>
      <trkpt lat="42.460535" lon="1.849910">
        <ele>1863.429</ele>
        <time>2019-05-30T11:31:07Z</time>
      </trkpt>
      <trkpt lat="42.460549" lon="1.849833">
        <ele>1863.817</ele>
        <time>2019-05-30T11:31:12Z</time>
      </trkpt>
      <trkpt lat="42.460560" lon="1.849686">
        <ele>1865.010</ele>
        <time>2019-05-30T11:31:21Z</time>
      </trkpt>
      <trkpt lat="42.460580" lon="1.849559">
        <ele>1865.284</ele>
        <time>2019-05-30T11:31:29Z</time>
      </trkpt>
      <trkpt lat="42.460598" lon="1.849465">
        <ele>1865.672</ele>
        <time>2019-05-30T11:31:35Z</time>
      </trkpt>
      <trkpt lat="42.460605" lon="1.849402">
        <ele>1866.217</ele>
        <time>2019-05-30T11:31:39Z</time>
      </trkpt>
      <trkpt lat="42.460611" lon="1.849368">
        <ele>1866.255</ele>
        <time>2019-05-30T11:31:41Z</time>
      </trkpt>
      <trkpt lat="42.460615" lon="1.849336">
        <ele>1866.407</ele>
        <time>2019-05-30T11:31:43Z</time>
      </trkpt>
      <trkpt lat="42.460617" lon="1.849220">
        <ele>1867.217</ele>
        <time>2019-05-30T11:31:50Z</time>
      </trkpt>
      <trkpt lat="42.460618" lon="1.849136">
        <ele>1867.608</ele>
        <time>2019-05-30T11:31:55Z</time>
      </trkpt>
      <trkpt lat="42.460626" lon="1.849090">
        <ele>1868.278</ele>
        <time>2019-05-30T11:31:58Z</time>
      </trkpt>
      <trkpt lat="42.460629" lon="1.849073">
        <ele>1868.482</ele>
        <time>2019-05-30T11:31:59Z</time>
      </trkpt>
      <trkpt lat="42.460642" lon="1.849023">
        <ele>1869.088</ele>
        <time>2019-05-30T11:32:02Z</time>
      </trkpt>
      <trkpt lat="42.460668" lon="1.848939">
        <ele>1869.426</ele>
        <time>2019-05-30T11:32:07Z</time>
      </trkpt>
      <trkpt lat="42.460671" lon="1.848923">
        <ele>1869.459</ele>
        <time>2019-05-30T11:32:08Z</time>
      </trkpt>
      <trkpt lat="42.460677" lon="1.848790">
        <ele>1869.663</ele>
        <time>2019-05-30T11:32:16Z</time>
      </trkpt>
      <trkpt lat="42.460679" lon="1.848743">
        <ele>1870.631</ele>
        <time>2019-05-30T11:32:19Z</time>
      </trkpt>
      <trkpt lat="42.460683" lon="1.848660">
        <ele>1871.296</ele>
        <time>2019-05-30T11:32:24Z</time>
      </trkpt>
      <trkpt lat="42.460696" lon="1.848531">
        <ele>1872.223</ele>
        <time>2019-05-30T11:32:32Z</time>
      </trkpt>
      <trkpt lat="42.460696" lon="1.848515">
        <ele>1873.083</ele>
        <time>2019-05-30T11:32:33Z</time>
      </trkpt>
      <trkpt lat="42.460681" lon="1.848416">
        <ele>1873.211</ele>
        <time>2019-05-30T11:32:39Z</time>
      </trkpt>
      <trkpt lat="42.460674" lon="1.848364">
        <ele>1874.408</ele>
        <time>2019-05-30T11:32:42Z</time>
      </trkpt>
      <trkpt lat="42.460667" lon="1.848348">
        <ele>1874.285</ele>
        <time>2019-05-30T11:32:43Z</time>
      </trkpt>
      <trkpt lat="42.460618" lon="1.848204">
        <ele>1875.279</ele>
        <time>2019-05-30T11:32:52Z</time>
      </trkpt>
      <trkpt lat="42.460561" lon="1.848059">
        <ele>1875.085</ele>
        <time>2019-05-30T11:33:01Z</time>
      </trkpt>
      <trkpt lat="42.460553" lon="1.848044">
        <ele>1875.853</ele>
        <time>2019-05-30T11:33:02Z</time>
      </trkpt>
      <trkpt lat="42.460497" lon="1.847963">
        <ele>1876.436</ele>
        <time>2019-05-30T11:33:08Z</time>
      </trkpt>
      <trkpt lat="42.460466" lon="1.847924">
        <ele>1877.090</ele>
        <time>2019-05-30T11:33:11Z</time>
      </trkpt>
      <trkpt lat="42.460407" lon="1.847854">
        <ele>1878.018</ele>
        <time>2019-05-30T11:33:17Z</time>
      </trkpt>
      <trkpt lat="42.460332" lon="1.847767">
        <ele>1878.453</ele>
        <time>2019-05-30T11:33:24Z</time>
      </trkpt>
      <trkpt lat="42.460321" lon="1.847755">
        <ele>1879.281</ele>
        <time>2019-05-30T11:33:25Z</time>
      </trkpt>
      <trkpt lat="42.460310" lon="1.847743">
        <ele>1879.861</ele>
        <time>2019-05-30T11:33:26Z</time>
      </trkpt>
      <trkpt lat="42.460284" lon="1.847719">
        <ele>1881.217</ele>
        <time>2019-05-30T11:33:28Z</time>
      </trkpt>
      <trkpt lat="42.460262" lon="1.847691">
        <ele>1880.408</ele>
        <time>2019-05-30T11:33:30Z</time>
      </trkpt>
      <trkpt lat="42.460248" lon="1.847677">
        <ele>1880.041</ele>
        <time>2019-05-30T11:33:31Z</time>
      </trkpt>
      <trkpt lat="42.460236" lon="1.847663">
        <ele>1880.035</ele>
        <time>2019-05-30T11:33:32Z</time>
      </trkpt>
      <trkpt lat="42.460149" lon="1.847574">
        <ele>1880.441</ele>
        <time>2019-05-30T11:33:39Z</time>
      </trkpt>
      <trkpt lat="42.460064" lon="1.847468">
        <ele>1881.039</ele>
        <time>2019-05-30T11:33:46Z</time>
      </trkpt>
      <trkpt lat="42.459981" lon="1.847342">
        <ele>1881.412</ele>
        <time>2019-05-30T11:33:53Z</time>
      </trkpt>
      <trkpt lat="42.459923" lon="1.847238">
        <ele>1882.246</ele>
        <time>2019-05-30T11:33:59Z</time>
      </trkpt>
      <trkpt lat="42.459906" lon="1.847199">
        <ele>1882.634</ele>
        <time>2019-05-30T11:34:01Z</time>
      </trkpt>
      <trkpt lat="42.459862" lon="1.847065">
        <ele>1883.239</ele>
        <time>2019-05-30T11:34:08Z</time>
      </trkpt>
      <trkpt lat="42.459855" lon="1.847028">
        <ele>1883.231</ele>
        <time>2019-05-30T11:34:10Z</time>
      </trkpt>
      <trkpt lat="42.459842" lon="1.846875">
        <ele>1884.061</ele>
        <time>2019-05-30T11:34:18Z</time>
      </trkpt>
      <trkpt lat="42.459840" lon="1.846838">
        <ele>1884.407</ele>
        <time>2019-05-30T11:34:20Z</time>
      </trkpt>
      <trkpt lat="42.459846" lon="1.846774">
        <ele>1884.608</ele>
        <time>2019-05-30T11:34:23Z</time>
      </trkpt>
      <trkpt lat="42.459853" lon="1.846731">
        <ele>1884.616</ele>
        <time>2019-05-30T11:34:25Z</time>
      </trkpt>
      <trkpt lat="42.459867" lon="1.846584">
        <ele>1885.060</ele>
        <time>2019-05-30T11:34:33Z</time>
      </trkpt>
      <trkpt lat="42.459876" lon="1.846547">
        <ele>1885.686</ele>
        <time>2019-05-30T11:34:35Z</time>
      </trkpt>
      <trkpt lat="42.459880" lon="1.846473">
        <ele>1886.444</ele>
        <time>2019-05-30T11:34:39Z</time>
      </trkpt>
      <trkpt lat="42.459884" lon="1.846454">
        <ele>1887.087</ele>
        <time>2019-05-30T11:34:40Z</time>
      </trkpt>
      <trkpt lat="42.459891" lon="1.846415">
        <ele>1889.221</ele>
        <time>2019-05-30T11:34:42Z</time>
      </trkpt>
      <trkpt lat="42.459908" lon="1.846308">
        <ele>1888.879</ele>
        <time>2019-05-30T11:34:48Z</time>
      </trkpt>
      <trkpt lat="42.459914" lon="1.846268">
        <ele>1887.654</ele>
        <time>2019-05-30T11:34:50Z</time>
      </trkpt>
      <trkpt lat="42.459929" lon="1.846196">
        <ele>1888.832</ele>
        <time>2019-05-30T11:34:54Z</time>
      </trkpt>
      <trkpt lat="42.459930" lon="1.846118">
        <ele>1889.292</ele>
        <time>2019-05-30T11:34:58Z</time>
      </trkpt>
      <trkpt lat="42.459912" lon="1.846001">
        <ele>1889.411</ele>
        <time>2019-05-30T11:35:04Z</time>
      </trkpt>
      <trkpt lat="42.459896" lon="1.845950">
        <ele>1890.208</ele>
        <time>2019-05-30T11:35:07Z</time>
      </trkpt>
      <trkpt lat="42.459864" lon="1.845883">
        <ele>1890.016</ele>
        <time>2019-05-30T11:35:11Z</time>
      </trkpt>
      <trkpt lat="42.459841" lon="1.845833">
        <ele>1891.410</ele>
        <time>2019-05-30T11:35:14Z</time>
      </trkpt>
      <trkpt lat="42.459824" lon="1.845798">
        <ele>1892.626</ele>
        <time>2019-05-30T11:35:16Z</time>
      </trkpt>
      <trkpt lat="42.459781" lon="1.845711">
        <ele>1891.834</ele>
        <time>2019-05-30T11:35:21Z</time>
      </trkpt>
      <trkpt lat="42.459696" lon="1.845542">
        <ele>1893.457</ele>
        <time>2019-05-30T11:35:29Z</time>
      </trkpt>
      <trkpt lat="42.459622" lon="1.845410">
        <ele>1893.481</ele>
        <time>2019-05-30T11:35:35Z</time>
      </trkpt>
      <trkpt lat="42.459611" lon="1.845387">
        <ele>1893.889</ele>
        <time>2019-05-30T11:35:36Z</time>
      </trkpt>
      <trkpt lat="42.459545" lon="1.845244">
        <ele>1895.064</ele>
        <time>2019-05-30T11:35:42Z</time>
      </trkpt>
      <trkpt lat="42.459509" lon="1.845168">
        <ele>1895.045</ele>
        <time>2019-05-30T11:35:45Z</time>
      </trkpt>
      <trkpt lat="42.459406" lon="1.844970">
        <ele>1895.847</ele>
        <time>2019-05-30T11:35:53Z</time>
      </trkpt>
      <trkpt lat="42.459383" lon="1.844910">
        <ele>1896.211</ele>
        <time>2019-05-30T11:35:55Z</time>
      </trkpt>
      <trkpt lat="42.459347" lon="1.844841">
        <ele>1897.808</ele>
        <time>2019-05-30T11:35:58Z</time>
      </trkpt>
      <trkpt lat="42.459334" lon="1.844826">
        <ele>1898.227</ele>
        <time>2019-05-30T11:35:59Z</time>
      </trkpt>
      <trkpt lat="42.459201" lon="1.844666">
        <ele>1897.441</ele>
        <time>2019-05-30T11:36:07Z</time>
      </trkpt>
      <trkpt lat="42.459124" lon="1.844559">
        <ele>1897.437</ele>
        <time>2019-05-30T11:36:13Z</time>
      </trkpt>
      <trkpt lat="42.459023" lon="1.844448">
        <ele>1897.845</ele>
        <time>2019-05-30T11:36:19Z</time>
      </trkpt>
      <trkpt lat="42.458949" lon="1.844413">
        <ele>1899.028</ele>
        <time>2019-05-30T11:36:23Z</time>
      </trkpt>
      <trkpt lat="42.458908" lon="1.844391">
        <ele>1897.862</ele>
        <time>2019-05-30T11:36:25Z</time>
      </trkpt>
      <trkpt lat="42.458730" lon="1.844288">
        <ele>1897.680</ele>
        <time>2019-05-30T11:36:33Z</time>
      </trkpt>
      <trkpt lat="42.458660" lon="1.844247">
        <ele>1898.015</ele>
        <time>2019-05-30T11:36:37Z</time>
      </trkpt>
      <trkpt lat="42.458627" lon="1.844256">
        <ele>1898.268</ele>
        <time>2019-05-30T11:36:39Z</time>
      </trkpt>
      <trkpt lat="42.458526" lon="1.844314">
        <ele>1897.842</ele>
        <time>2019-05-30T11:36:44Z</time>
      </trkpt>
      <trkpt lat="42.458450" lon="1.844371">
        <ele>1897.426</ele>
        <time>2019-05-30T11:36:48Z</time>
      </trkpt>
      <trkpt lat="42.458430" lon="1.844385">
        <ele>1897.208</ele>
        <time>2019-05-30T11:36:49Z</time>
      </trkpt>
      <trkpt lat="42.458369" lon="1.844433">
        <ele>1897.279</ele>
        <time>2019-05-30T11:36:53Z</time>
      </trkpt>
      <trkpt lat="42.458343" lon="1.844466">
        <ele>1896.843</ele>
        <time>2019-05-30T11:36:55Z</time>
      </trkpt>
      <trkpt lat="42.458337" lon="1.844489">
        <ele>1896.629</ele>
        <time>2019-05-30T11:36:56Z</time>
      </trkpt>
      <trkpt lat="42.458340" lon="1.844538">
        <ele>1896.427</ele>
        <time>2019-05-30T11:36:58Z</time>
      </trkpt>
      <trkpt lat="42.458319" lon="1.844604">
        <ele>1896.210</ele>
        <time>2019-05-30T11:37:03Z</time>
      </trkpt>
      <trkpt lat="42.458310" lon="1.844537">
        <ele>1896.054</ele>
        <time>2019-05-30T11:37:07Z</time>
      </trkpt>
      <trkpt lat="42.458316" lon="1.844517">
        <ele>1896.232</ele>
        <time>2019-05-30T11:37:08Z</time>
      </trkpt>
      <trkpt lat="42.458366" lon="1.844396">
        <ele>1896.897</ele>
        <time>2019-05-30T11:37:14Z</time>
      </trkpt>
      <trkpt lat="42.458322" lon="1.843906">
        <ele>1896.689</ele>
        <time>2019-05-30T11:53:01Z</time>
      </trkpt>
      <trkpt lat="42.458310" lon="1.843889">
        <ele>1896.606</ele>
        <time>2019-05-30T11:53:02Z</time>
      </trkpt>
      <trkpt lat="42.458258" lon="1.843793">
        <ele>1898.226</ele>
        <time>2019-05-30T11:53:07Z</time>
      </trkpt>
      <trkpt lat="42.458233" lon="1.843756">
        <ele>1898.608</ele>
        <time>2019-05-30T11:53:09Z</time>
      </trkpt>
      <trkpt lat="42.458196" lon="1.843695">
        <ele>1896.851</ele>
        <time>2019-05-30T11:53:12Z</time>
      </trkpt>
      <trkpt lat="42.458189" lon="1.843675">
        <ele>1898.895</ele>
        <time>2019-05-30T11:53:13Z</time>
      </trkpt>
      <trkpt lat="42.458154" lon="1.843618">
        <ele>1897.841</ele>
        <time>2019-05-30T11:53:16Z</time>
      </trkpt>
      <trkpt lat="42.458075" lon="1.843438">
        <ele>1897.839</ele>
        <time>2019-05-30T11:53:24Z</time>
      </trkpt>
      <trkpt lat="42.458023" lon="1.843276">
        <ele>1898.212</ele>
        <time>2019-05-30T11:53:31Z</time>
      </trkpt>
      <trkpt lat="42.457980" lon="1.843142">
        <ele>1898.276</ele>
        <time>2019-05-30T11:53:37Z</time>
      </trkpt>
      <trkpt lat="42.457959" lon="1.843051">
        <ele>1899.074</ele>
        <time>2019-05-30T11:53:41Z</time>
      </trkpt>
      <trkpt lat="42.457939" lon="1.842955">
        <ele>1899.629</ele>
        <time>2019-05-30T11:53:45Z</time>
      </trkpt>
      <trkpt lat="42.457932" lon="1.842888">
        <ele>1900.234</ele>
        <time>2019-05-30T11:53:48Z</time>
      </trkpt>
      <trkpt lat="42.457925" lon="1.842747">
        <ele>1900.255</ele>
        <time>2019-05-30T11:53:54Z</time>
      </trkpt>
      <trkpt lat="42.457911" lon="1.842611">
        <ele>1901.610</ele>
        <time>2019-05-30T11:54:00Z</time>
      </trkpt>
      <trkpt lat="42.457913" lon="1.842525">
        <ele>1901.808</ele>
        <time>2019-05-30T11:54:04Z</time>
      </trkpt>
      <trkpt lat="42.457895" lon="1.842372">
        <ele>1902.846</ele>
        <time>2019-05-30T11:54:11Z</time>
      </trkpt>
      <trkpt lat="42.457881" lon="1.842190">
        <ele>1904.080</ele>
        <time>2019-05-30T11:54:19Z</time>
      </trkpt>
      <trkpt lat="42.457868" lon="1.842049">
        <ele>1904.456</ele>
        <time>2019-05-30T11:54:26Z</time>
      </trkpt>
      <trkpt lat="42.457868" lon="1.841938">
        <ele>1905.274</ele>
        <time>2019-05-30T11:54:32Z</time>
      </trkpt>
      <trkpt lat="42.457863" lon="1.841899">
        <ele>1905.627</ele>
        <time>2019-05-30T11:54:34Z</time>
      </trkpt>
      <trkpt lat="42.457866" lon="1.841784">
        <ele>1906.411</ele>
        <time>2019-05-30T11:54:40Z</time>
      </trkpt>
      <trkpt lat="42.457866" lon="1.841766">
        <ele>1906.659</ele>
        <time>2019-05-30T11:54:41Z</time>
      </trkpt>
      <trkpt lat="42.457851" lon="1.841595">
        <ele>1907.044</ele>
        <time>2019-05-30T11:54:50Z</time>
      </trkpt>
      <trkpt lat="42.457865" lon="1.841503">
        <ele>1907.462</ele>
        <time>2019-05-30T11:54:55Z</time>
      </trkpt>
      <trkpt lat="42.457878" lon="1.841424">
        <ele>1908.083</ele>
        <time>2019-05-30T11:54:59Z</time>
      </trkpt>
      <trkpt lat="42.457945" lon="1.841262">
        <ele>1908.411</ele>
        <time>2019-05-30T11:55:08Z</time>
      </trkpt>
      <trkpt lat="42.457958" lon="1.841231">
        <ele>1909.608</ele>
        <time>2019-05-30T11:55:10Z</time>
      </trkpt>
      <trkpt lat="42.458032" lon="1.841131">
        <ele>1909.849</ele>
        <time>2019-05-30T11:55:18Z</time>
      </trkpt>
      <trkpt lat="42.458103" lon="1.841027">
        <ele>1910.413</ele>
        <time>2019-05-30T11:55:27Z</time>
      </trkpt>
      <trkpt lat="42.458110" lon="1.841018">
        <ele>1910.889</ele>
        <time>2019-05-30T11:55:28Z</time>
      </trkpt>
      <trkpt lat="42.458127" lon="1.840986">
        <ele>1911.297</ele>
        <time>2019-05-30T11:55:30Z</time>
      </trkpt>
      <trkpt lat="42.458170" lon="1.840930">
        <ele>1911.690</ele>
        <time>2019-05-30T11:55:34Z</time>
      </trkpt>
      <trkpt lat="42.458234" lon="1.840845">
        <ele>1911.484</ele>
        <time>2019-05-30T11:55:40Z</time>
      </trkpt>
      <trkpt lat="42.458242" lon="1.840837">
        <ele>1911.852</ele>
        <time>2019-05-30T11:55:41Z</time>
      </trkpt>
      <trkpt lat="42.458299" lon="1.840777">
        <ele>1912.457</ele>
        <time>2019-05-30T11:55:46Z</time>
      </trkpt>
      <trkpt lat="42.458320" lon="1.840756">
        <ele>1913.061</ele>
        <time>2019-05-30T11:55:48Z</time>
      </trkpt>
      <trkpt lat="42.458372" lon="1.840674">
        <ele>1914.021</ele>
        <time>2019-05-30T11:55:54Z</time>
      </trkpt>
      <trkpt lat="42.458408" lon="1.840650">
        <ele>1914.213</ele>
        <time>2019-05-30T11:55:58Z</time>
      </trkpt>
      <trkpt lat="42.458458" lon="1.840609">
        <ele>1914.608</ele>
        <time>2019-05-30T11:56:02Z</time>
      </trkpt>
      <trkpt lat="42.458516" lon="1.840566">
        <ele>1915.489</ele>
        <time>2019-05-30T11:56:07Z</time>
      </trkpt>
      <trkpt lat="42.458568" lon="1.840525">
        <ele>1916.013</ele>
        <time>2019-05-30T11:56:11Z</time>
      </trkpt>
      <trkpt lat="42.458601" lon="1.840496">
        <ele>1916.429</ele>
        <time>2019-05-30T11:56:14Z</time>
      </trkpt>
      <trkpt lat="42.458650" lon="1.840465">
        <ele>1917.297</ele>
        <time>2019-05-30T11:56:18Z</time>
      </trkpt>
      <trkpt lat="42.458672" lon="1.840445">
        <ele>1917.480</ele>
        <time>2019-05-30T11:56:20Z</time>
      </trkpt>
      <trkpt lat="42.458753" lon="1.840384">
        <ele>1917.684</ele>
        <time>2019-05-30T11:56:27Z</time>
      </trkpt>
      <trkpt lat="42.458816" lon="1.840355">
        <ele>1918.442</ele>
        <time>2019-05-30T11:56:32Z</time>
      </trkpt>
      <trkpt lat="42.458839" lon="1.840336">
        <ele>1918.487</ele>
        <time>2019-05-30T11:56:34Z</time>
      </trkpt>
      <trkpt lat="42.458865" lon="1.840325">
        <ele>1919.064</ele>
        <time>2019-05-30T11:56:36Z</time>
      </trkpt>
      <trkpt lat="42.458921" lon="1.840304">
        <ele>1919.206</ele>
        <time>2019-05-30T11:56:41Z</time>
      </trkpt>
      <trkpt lat="42.459024" lon="1.840245">
        <ele>1919.416</ele>
        <time>2019-05-30T11:56:49Z</time>
      </trkpt>
      <trkpt lat="42.459068" lon="1.840229">
        <ele>1920.208</ele>
        <time>2019-05-30T11:56:52Z</time>
      </trkpt>
      <trkpt lat="42.459146" lon="1.840211">
        <ele>1920.479</ele>
        <time>2019-05-30T11:56:58Z</time>
      </trkpt>
      <trkpt lat="42.459199" lon="1.840204">
        <ele>1921.233</ele>
        <time>2019-05-30T11:57:02Z</time>
      </trkpt>
      <trkpt lat="42.459257" lon="1.840182">
        <ele>1921.619</ele>
        <time>2019-05-30T11:57:06Z</time>
      </trkpt>
      <trkpt lat="42.459318" lon="1.840165">
        <ele>1922.447</ele>
        <time>2019-05-30T11:57:10Z</time>
      </trkpt>
      <trkpt lat="42.459362" lon="1.840170">
        <ele>1923.050</ele>
        <time>2019-05-30T11:57:13Z</time>
      </trkpt>
      <trkpt lat="42.459440" lon="1.840168">
        <ele>1923.414</ele>
        <time>2019-05-30T11:57:19Z</time>
      </trkpt>
      <trkpt lat="42.459464" lon="1.840158">
        <ele>1923.662</ele>
        <time>2019-05-30T11:57:21Z</time>
      </trkpt>
      <trkpt lat="42.459476" lon="1.840148">
        <ele>1923.637</ele>
        <time>2019-05-30T11:57:22Z</time>
      </trkpt>
      <trkpt lat="42.459560" lon="1.840130">
        <ele>1924.222</ele>
        <time>2019-05-30T11:57:28Z</time>
      </trkpt>
      <trkpt lat="42.459597" lon="1.840116">
        <ele>1924.462</ele>
        <time>2019-05-30T11:57:31Z</time>
      </trkpt>
      <trkpt lat="42.459677" lon="1.840104">
        <ele>1924.608</ele>
        <time>2019-05-30T11:57:37Z</time>
      </trkpt>
      <trkpt lat="42.459742" lon="1.840083">
        <ele>1925.608</ele>
        <time>2019-05-30T11:57:43Z</time>
      </trkpt>
      <trkpt lat="42.459769" lon="1.840084">
        <ele>1925.655</ele>
        <time>2019-05-30T11:57:45Z</time>
      </trkpt>
      <trkpt lat="42.459783" lon="1.840082">
        <ele>1925.669</ele>
        <time>2019-05-30T11:57:46Z</time>
      </trkpt>
      <trkpt lat="42.459846" lon="1.840078">
        <ele>1927.075</ele>
        <time>2019-05-30T11:57:51Z</time>
      </trkpt>
      <trkpt lat="42.459870" lon="1.840071">
        <ele>1927.053</ele>
        <time>2019-05-30T11:57:53Z</time>
      </trkpt>
      <trkpt lat="42.459892" lon="1.840066">
        <ele>1926.826</ele>
        <time>2019-05-30T11:57:55Z</time>
      </trkpt>
      <trkpt lat="42.459927" lon="1.840055">
        <ele>1927.490</ele>
        <time>2019-05-30T11:57:58Z</time>
      </trkpt>
      <trkpt lat="42.459968" lon="1.840046">
        <ele>1928.068</ele>
        <time>2019-05-30T11:58:01Z</time>
      </trkpt>
      <trkpt lat="42.460033" lon="1.840019">
        <ele>1928.243</ele>
        <time>2019-05-30T11:58:06Z</time>
      </trkpt>
      <trkpt lat="42.460044" lon="1.840012">
        <ele>1928.265</ele>
        <time>2019-05-30T11:58:07Z</time>
      </trkpt>
      <trkpt lat="42.460076" lon="1.840010">
        <ele>1928.268</ele>
        <time>2019-05-30T11:58:10Z</time>
      </trkpt>
      <trkpt lat="42.460101" lon="1.840008">
        <ele>1929.614</ele>
        <time>2019-05-30T11:58:12Z</time>
      </trkpt>
      <trkpt lat="42.460190" lon="1.839992">
        <ele>1929.808</ele>
        <time>2019-05-30T11:58:19Z</time>
      </trkpt>
      <trkpt lat="42.460305" lon="1.839970">
        <ele>1930.649</ele>
        <time>2019-05-30T11:58:28Z</time>
      </trkpt>
      <trkpt lat="42.460418" lon="1.839948">
        <ele>1931.293</ele>
        <time>2019-05-30T11:58:37Z</time>
      </trkpt>
      <trkpt lat="42.460480" lon="1.839941">
        <ele>1932.079</ele>
        <time>2019-05-30T11:58:42Z</time>
      </trkpt>
      <trkpt lat="42.460502" lon="1.839938">
        <ele>1932.417</ele>
        <time>2019-05-30T11:58:44Z</time>
      </trkpt>
      <trkpt lat="42.460528" lon="1.839924">
        <ele>1932.880</ele>
        <time>2019-05-30T11:58:46Z</time>
      </trkpt>
      <trkpt lat="42.460555" lon="1.839916">
        <ele>1933.214</ele>
        <time>2019-05-30T11:58:48Z</time>
      </trkpt>
      <trkpt lat="42.460596" lon="1.839911">
        <ele>1933.282</ele>
        <time>2019-05-30T11:58:51Z</time>
      </trkpt>
      <trkpt lat="42.460631" lon="1.839897">
        <ele>1933.457</ele>
        <time>2019-05-30T11:58:54Z</time>
      </trkpt>
      <trkpt lat="42.460653" lon="1.839891">
        <ele>1934.291</ele>
        <time>2019-05-30T11:58:56Z</time>
      </trkpt>
      <trkpt lat="42.460678" lon="1.839886">
        <ele>1934.481</ele>
        <time>2019-05-30T11:58:58Z</time>
      </trkpt>
      <trkpt lat="42.460690" lon="1.839884">
        <ele>1934.619</ele>
        <time>2019-05-30T11:58:59Z</time>
      </trkpt>
      <trkpt lat="42.460726" lon="1.839880">
        <ele>1934.608</ele>
        <time>2019-05-30T11:59:02Z</time>
      </trkpt>
      <trkpt lat="42.460762" lon="1.839872">
        <ele>1935.042</ele>
        <time>2019-05-30T11:59:05Z</time>
      </trkpt>
      <trkpt lat="42.460812" lon="1.839867">
        <ele>1935.246</ele>
        <time>2019-05-30T11:59:09Z</time>
      </trkpt>
      <trkpt lat="42.460823" lon="1.839864">
        <ele>1935.242</ele>
        <time>2019-05-30T11:59:10Z</time>
      </trkpt>
      <trkpt lat="42.460841" lon="1.839857">
        <ele>1935.640</ele>
        <time>2019-05-30T11:59:12Z</time>
      </trkpt>
      <trkpt lat="42.460940" lon="1.839840">
        <ele>1936.233</ele>
        <time>2019-05-30T11:59:20Z</time>
      </trkpt>
      <trkpt lat="42.460964" lon="1.839832">
        <ele>1936.497</ele>
        <time>2019-05-30T11:59:22Z</time>
      </trkpt>
      <trkpt lat="42.461028" lon="1.839810">
        <ele>1936.875</ele>
        <time>2019-05-30T11:59:28Z</time>
      </trkpt>
      <trkpt lat="42.461063" lon="1.839796">
        <ele>1933.810</ele>
        <time>2019-05-30T11:59:31Z</time>
      </trkpt>
      <trkpt lat="42.461074" lon="1.839791">
        <ele>1936.664</ele>
        <time>2019-05-30T11:59:32Z</time>
      </trkpt>
      <trkpt lat="42.461097" lon="1.839790">
        <ele>1939.606</ele>
        <time>2019-05-30T11:59:34Z</time>
      </trkpt>
      <trkpt lat="42.461106" lon="1.839784">
        <ele>1938.016</ele>
        <time>2019-05-30T11:59:35Z</time>
      </trkpt>
      <trkpt lat="42.461130" lon="1.839779">
        <ele>1937.808</ele>
        <time>2019-05-30T11:59:37Z</time>
      </trkpt>
      <trkpt lat="42.461143" lon="1.839769">
        <ele>1938.099</ele>
        <time>2019-05-30T11:59:38Z</time>
      </trkpt>
      <trkpt lat="42.461203" lon="1.839748">
        <ele>1938.493</ele>
        <time>2019-05-30T11:59:43Z</time>
      </trkpt>
      <trkpt lat="42.461262" lon="1.839731">
        <ele>1939.049</ele>
        <time>2019-05-30T11:59:48Z</time>
      </trkpt>
      <trkpt lat="42.461272" lon="1.839718">
        <ele>1939.037</ele>
        <time>2019-05-30T11:59:49Z</time>
      </trkpt>
      <trkpt lat="42.461331" lon="1.839694">
        <ele>1939.490</ele>
        <time>2019-05-30T11:59:54Z</time>
      </trkpt>
      <trkpt lat="42.461350" lon="1.839681">
        <ele>1939.864</ele>
        <time>2019-05-30T11:59:56Z</time>
      </trkpt>
      <trkpt lat="42.461373" lon="1.839670">
        <ele>1939.812</ele>
        <time>2019-05-30T11:59:58Z</time>
      </trkpt>
      <trkpt lat="42.461419" lon="1.839653">
        <ele>1939.877</ele>
        <time>2019-05-30T12:00:02Z</time>
      </trkpt>
      <trkpt lat="42.461434" lon="1.839649">
        <ele>1940.051</ele>
        <time>2019-05-30T12:00:03Z</time>
      </trkpt>
      <trkpt lat="42.461504" lon="1.839620">
        <ele>1941.201</ele>
        <time>2019-05-30T12:00:09Z</time>
      </trkpt>
      <trkpt lat="42.461516" lon="1.839614">
        <ele>1941.211</ele>
        <time>2019-05-30T12:00:10Z</time>
      </trkpt>
      <trkpt lat="42.461623" lon="1.839590">
        <ele>1941.608</ele>
        <time>2019-05-30T12:00:18Z</time>
      </trkpt>
      <trkpt lat="42.461649" lon="1.839594">
        <ele>1942.248</ele>
        <time>2019-05-30T12:00:20Z</time>
      </trkpt>
      <trkpt lat="42.461692" lon="1.839577">
        <ele>1942.612</ele>
        <time>2019-05-30T12:00:23Z</time>
      </trkpt>
      <trkpt lat="42.461705" lon="1.839577">
        <ele>1943.058</ele>
        <time>2019-05-30T12:00:24Z</time>
      </trkpt>
      <trkpt lat="42.461770" lon="1.839549">
        <ele>1943.416</ele>
        <time>2019-05-30T12:00:29Z</time>
      </trkpt>
      <trkpt lat="42.461793" lon="1.839541">
        <ele>1943.439</ele>
        <time>2019-05-30T12:00:31Z</time>
      </trkpt>
      <trkpt lat="42.461817" lon="1.839534">
        <ele>1943.293</ele>
        <time>2019-05-30T12:00:33Z</time>
      </trkpt>
      <trkpt lat="42.461879" lon="1.839512">
        <ele>1944.061</ele>
        <time>2019-05-30T12:00:38Z</time>
      </trkpt>
      <trkpt lat="42.461907" lon="1.839506">
        <ele>1944.476</ele>
        <time>2019-05-30T12:00:40Z</time>
      </trkpt>
      <trkpt lat="42.461979" lon="1.839484">
        <ele>1944.882</ele>
        <time>2019-05-30T12:00:46Z</time>
      </trkpt>
      <trkpt lat="42.462002" lon="1.839480">
        <ele>1945.043</ele>
        <time>2019-05-30T12:00:48Z</time>
      </trkpt>
      <trkpt lat="42.462049" lon="1.839450">
        <ele>1945.417</ele>
        <time>2019-05-30T12:00:52Z</time>
      </trkpt>
      <trkpt lat="42.462060" lon="1.839445">
        <ele>1945.408</ele>
        <time>2019-05-30T12:00:53Z</time>
      </trkpt>
      <trkpt lat="42.462081" lon="1.839434">
        <ele>1945.891</ele>
        <time>2019-05-30T12:00:55Z</time>
      </trkpt>
      <trkpt lat="42.462133" lon="1.839397">
        <ele>1946.415</ele>
        <time>2019-05-30T12:01:00Z</time>
      </trkpt>
      <trkpt lat="42.462146" lon="1.839388">
        <ele>1946.671</ele>
        <time>2019-05-30T12:01:01Z</time>
      </trkpt>
      <trkpt lat="42.462201" lon="1.839349">
        <ele>1946.839</ele>
        <time>2019-05-30T12:01:06Z</time>
      </trkpt>
      <trkpt lat="42.462215" lon="1.839316">
        <ele>1946.822</ele>
        <time>2019-05-30T12:01:08Z</time>
      </trkpt>
      <trkpt lat="42.462293" lon="1.839248">
        <ele>1947.836</ele>
        <time>2019-05-30T12:01:15Z</time>
      </trkpt>
      <trkpt lat="42.462307" lon="1.839240">
        <ele>1948.284</ele>
        <time>2019-05-30T12:01:16Z</time>
      </trkpt>
      <trkpt lat="42.462378" lon="1.839171">
        <ele>1949.019</ele>
        <time>2019-05-30T12:01:23Z</time>
      </trkpt>
      <trkpt lat="42.462389" lon="1.839168">
        <ele>1949.216</ele>
        <time>2019-05-30T12:01:24Z</time>
      </trkpt>
      <trkpt lat="42.462435" lon="1.839140">
        <ele>1949.476</ele>
        <time>2019-05-30T12:01:28Z</time>
      </trkpt>
      <trkpt lat="42.462458" lon="1.839119">
        <ele>1949.413</ele>
        <time>2019-05-30T12:01:31Z</time>
      </trkpt>
      <trkpt lat="42.462546" lon="1.839043">
        <ele>1949.808</ele>
        <time>2019-05-30T12:01:39Z</time>
      </trkpt>
      <trkpt lat="42.462555" lon="1.839029">
        <ele>1950.094</ele>
        <time>2019-05-30T12:01:40Z</time>
      </trkpt>
      <trkpt lat="42.462592" lon="1.839009">
        <ele>1950.478</ele>
        <time>2019-05-30T12:01:43Z</time>
      </trkpt>
      <trkpt lat="42.462638" lon="1.838975">
        <ele>1950.844</ele>
        <time>2019-05-30T12:01:47Z</time>
      </trkpt>
      <trkpt lat="42.462650" lon="1.838967">
        <ele>1951.222</ele>
        <time>2019-05-30T12:01:48Z</time>
      </trkpt>
      <trkpt lat="42.462700" lon="1.838917">
        <ele>1951.695</ele>
        <time>2019-05-30T12:01:53Z</time>
      </trkpt>
      <trkpt lat="42.462724" lon="1.838901">
        <ele>1951.829</ele>
        <time>2019-05-30T12:01:55Z</time>
      </trkpt>
      <trkpt lat="42.462783" lon="1.838865">
        <ele>1952.027</ele>
        <time>2019-05-30T12:02:00Z</time>
      </trkpt>
      <trkpt lat="42.462795" lon="1.838857">
        <ele>1952.252</ele>
        <time>2019-05-30T12:02:01Z</time>
      </trkpt>
      <trkpt lat="42.462808" lon="1.838852">
        <ele>1952.613</ele>
        <time>2019-05-30T12:02:02Z</time>
      </trkpt>
      <trkpt lat="42.462814" lon="1.838844">
        <ele>1952.643</ele>
        <time>2019-05-30T12:02:03Z</time>
      </trkpt>
      <trkpt lat="42.462822" lon="1.838832">
        <ele>1952.607</ele>
        <time>2019-05-30T12:02:04Z</time>
      </trkpt>
      <trkpt lat="42.462862" lon="1.838811">
        <ele>1953.008</ele>
        <time>2019-05-30T12:02:07Z</time>
      </trkpt>
      <trkpt lat="42.462888" lon="1.838802">
        <ele>1953.274</ele>
        <time>2019-05-30T12:02:09Z</time>
      </trkpt>
      <trkpt lat="42.462910" lon="1.838794">
        <ele>1953.238</ele>
        <time>2019-05-30T12:02:11Z</time>
      </trkpt>
      <trkpt lat="42.462969" lon="1.838747">
        <ele>1953.464</ele>
        <time>2019-05-30T12:02:16Z</time>
      </trkpt>
      <trkpt lat="42.463004" lon="1.838727">
        <ele>1953.632</ele>
        <time>2019-05-30T12:02:19Z</time>
      </trkpt>
      <trkpt lat="42.463076" lon="1.838663">
        <ele>1954.285</ele>
        <time>2019-05-30T12:02:25Z</time>
      </trkpt>
      <trkpt lat="42.463104" lon="1.838631">
        <ele>1954.849</ele>
        <time>2019-05-30T12:02:28Z</time>
      </trkpt>
      <trkpt lat="42.463158" lon="1.838584">
        <ele>1954.827</ele>
        <time>2019-05-30T12:02:33Z</time>
      </trkpt>
      <trkpt lat="42.463208" lon="1.838536">
        <ele>1955.472</ele>
        <time>2019-05-30T12:02:38Z</time>
      </trkpt>
      <trkpt lat="42.463241" lon="1.838515">
        <ele>1955.455</ele>
        <time>2019-05-30T12:02:41Z</time>
      </trkpt>
      <trkpt lat="42.463292" lon="1.838470">
        <ele>1955.807</ele>
        <time>2019-05-30T12:02:46Z</time>
      </trkpt>
      <trkpt lat="42.463309" lon="1.838447">
        <ele>1956.217</ele>
        <time>2019-05-30T12:02:48Z</time>
      </trkpt>
      <trkpt lat="42.463319" lon="1.838438">
        <ele>1956.408</ele>
        <time>2019-05-30T12:02:49Z</time>
      </trkpt>
      <trkpt lat="42.463400" lon="1.838342">
        <ele>1956.228</ele>
        <time>2019-05-30T12:02:58Z</time>
      </trkpt>
      <trkpt lat="42.463465" lon="1.838293">
        <ele>1957.032</ele>
        <time>2019-05-30T12:03:04Z</time>
      </trkpt>
      <trkpt lat="42.463512" lon="1.838215">
        <ele>1957.658</ele>
        <time>2019-05-30T12:03:09Z</time>
      </trkpt>
      <trkpt lat="42.463527" lon="1.838189">
        <ele>1958.076</ele>
        <time>2019-05-30T12:03:11Z</time>
      </trkpt>
      <trkpt lat="42.463542" lon="1.838180">
        <ele>1957.859</ele>
        <time>2019-05-30T12:03:12Z</time>
      </trkpt>
      <trkpt lat="42.463574" lon="1.838130">
        <ele>1958.613</ele>
        <time>2019-05-30T12:03:16Z</time>
      </trkpt>
      <trkpt lat="42.463583" lon="1.838113">
        <ele>1959.051</ele>
        <time>2019-05-30T12:03:17Z</time>
      </trkpt>
      <trkpt lat="42.463591" lon="1.838097">
        <ele>1959.036</ele>
        <time>2019-05-30T12:03:18Z</time>
      </trkpt>
      <trkpt lat="42.463611" lon="1.838049">
        <ele>1959.417</ele>
        <time>2019-05-30T12:03:21Z</time>
      </trkpt>
      <trkpt lat="42.463620" lon="1.838025">
        <ele>1959.687</ele>
        <time>2019-05-30T12:03:23Z</time>
      </trkpt>
      <trkpt lat="42.463629" lon="1.838008">
        <ele>1959.815</ele>
        <time>2019-05-30T12:03:24Z</time>
      </trkpt>
      <trkpt lat="42.463639" lon="1.838001">
        <ele>1959.808</ele>
        <time>2019-05-30T12:03:25Z</time>
      </trkpt>
      <trkpt lat="42.463670" lon="1.837922">
        <ele>1960.414</ele>
        <time>2019-05-30T12:03:30Z</time>
      </trkpt>
      <trkpt lat="42.463703" lon="1.837881">
        <ele>1960.888</ele>
        <time>2019-05-30T12:03:34Z</time>
      </trkpt>
      <trkpt lat="42.463741" lon="1.837803">
        <ele>1961.234</ele>
        <time>2019-05-30T12:03:40Z</time>
      </trkpt>
      <trkpt lat="42.463767" lon="1.837738">
        <ele>1962.032</ele>
        <time>2019-05-30T12:03:44Z</time>
      </trkpt>
      <trkpt lat="42.463796" lon="1.837638">
        <ele>1962.495</ele>
        <time>2019-05-30T12:03:50Z</time>
      </trkpt>
      <trkpt lat="42.463830" lon="1.837517">
        <ele>1963.259</ele>
        <time>2019-05-30T12:03:57Z</time>
      </trkpt>
      <trkpt lat="42.463836" lon="1.837485">
        <ele>1963.297</ele>
        <time>2019-05-30T12:03:59Z</time>
      </trkpt>
      <trkpt lat="42.463872" lon="1.837412">
        <ele>1964.232</ele>
        <time>2019-05-30T12:04:05Z</time>
      </trkpt>
      <trkpt lat="42.463873" lon="1.837393">
        <ele>1964.231</ele>
        <time>2019-05-30T12:04:06Z</time>
      </trkpt>
      <trkpt lat="42.463875" lon="1.837377">
        <ele>1964.261</ele>
        <time>2019-05-30T12:04:07Z</time>
      </trkpt>
      <trkpt lat="42.463913" lon="1.837254">
        <ele>1964.807</ele>
        <time>2019-05-30T12:04:15Z</time>
      </trkpt>
      <trkpt lat="42.463927" lon="1.837172">
        <ele>1965.208</ele>
        <time>2019-05-30T12:04:20Z</time>
      </trkpt>
      <trkpt lat="42.463933" lon="1.837134">
        <ele>1965.856</ele>
        <time>2019-05-30T12:04:22Z</time>
      </trkpt>
      <trkpt lat="42.463948" lon="1.837086">
        <ele>1966.070</ele>
        <time>2019-05-30T12:04:25Z</time>
      </trkpt>
      <trkpt lat="42.463978" lon="1.836995">
        <ele>1966.486</ele>
        <time>2019-05-30T12:04:31Z</time>
      </trkpt>
      <trkpt lat="42.463984" lon="1.836981">
        <ele>1966.614</ele>
        <time>2019-05-30T12:04:32Z</time>
      </trkpt>
      <trkpt lat="42.464027" lon="1.836864">
        <ele>1967.497</ele>
        <time>2019-05-30T12:04:40Z</time>
      </trkpt>
      <trkpt lat="42.464036" lon="1.836844">
        <ele>1967.431</ele>
        <time>2019-05-30T12:04:41Z</time>
      </trkpt>
      <trkpt lat="42.464071" lon="1.836753">
        <ele>1968.699</ele>
        <time>2019-05-30T12:04:47Z</time>
      </trkpt>
      <trkpt lat="42.464084" lon="1.836725">
        <ele>1969.084</ele>
        <time>2019-05-30T12:04:49Z</time>
      </trkpt>
      <trkpt lat="42.464117" lon="1.836614">
        <ele>1969.482</ele>
        <time>2019-05-30T12:04:56Z</time>
      </trkpt>
      <trkpt lat="42.464126" lon="1.836582">
        <ele>1969.643</ele>
        <time>2019-05-30T12:04:58Z</time>
      </trkpt>
      <trkpt lat="42.464131" lon="1.836567">
        <ele>1969.617</ele>
        <time>2019-05-30T12:04:59Z</time>
      </trkpt>
      <trkpt lat="42.464177" lon="1.836442">
        <ele>1970.408</ele>
        <time>2019-05-30T12:05:07Z</time>
      </trkpt>
      <trkpt lat="42.464185" lon="1.836415">
        <ele>1970.641</ele>
        <time>2019-05-30T12:05:09Z</time>
      </trkpt>
      <trkpt lat="42.464224" lon="1.836300">
        <ele>1971.045</ele>
        <time>2019-05-30T12:05:16Z</time>
      </trkpt>
      <trkpt lat="42.464263" lon="1.836197">
        <ele>1971.631</ele>
        <time>2019-05-30T12:05:23Z</time>
      </trkpt>
      <trkpt lat="42.464269" lon="1.836184">
        <ele>1972.059</ele>
        <time>2019-05-30T12:05:24Z</time>
      </trkpt>
      <trkpt lat="42.464311" lon="1.836065">
        <ele>1971.842</ele>
        <time>2019-05-30T12:05:32Z</time>
      </trkpt>
      <trkpt lat="42.464331" lon="1.836001">
        <ele>1973.256</ele>
        <time>2019-05-30T12:05:36Z</time>
      </trkpt>
      <trkpt lat="42.464341" lon="1.835970">
        <ele>1974.444</ele>
        <time>2019-05-30T12:05:38Z</time>
      </trkpt>
      <trkpt lat="42.464375" lon="1.835899">
        <ele>1974.099</ele>
        <time>2019-05-30T12:05:43Z</time>
      </trkpt>
      <trkpt lat="42.464430" lon="1.835803">
        <ele>1975.049</ele>
        <time>2019-05-30T12:05:50Z</time>
      </trkpt>
      <trkpt lat="42.464470" lon="1.835715">
        <ele>1975.602</ele>
        <time>2019-05-30T12:05:56Z</time>
      </trkpt>
      <trkpt lat="42.464484" lon="1.835688">
        <ele>1975.822</ele>
        <time>2019-05-30T12:05:58Z</time>
      </trkpt>
      <trkpt lat="42.464510" lon="1.835643">
        <ele>1976.408</ele>
        <time>2019-05-30T12:06:02Z</time>
      </trkpt>
      <trkpt lat="42.464533" lon="1.835609">
        <ele>1976.647</ele>
        <time>2019-05-30T12:06:05Z</time>
      </trkpt>
      <trkpt lat="42.464585" lon="1.835522">
        <ele>1977.441</ele>
        <time>2019-05-30T12:06:12Z</time>
      </trkpt>
      <trkpt lat="42.464623" lon="1.835462">
        <ele>1977.697</ele>
        <time>2019-05-30T12:06:17Z</time>
      </trkpt>
      <trkpt lat="42.464639" lon="1.835440">
        <ele>1977.685</ele>
        <time>2019-05-30T12:06:19Z</time>
      </trkpt>
      <trkpt lat="42.464654" lon="1.835413">
        <ele>1977.868</ele>
        <time>2019-05-30T12:06:21Z</time>
      </trkpt>
      <trkpt lat="42.464685" lon="1.835361">
        <ele>1978.222</ele>
        <time>2019-05-30T12:06:25Z</time>
      </trkpt>
      <trkpt lat="42.464693" lon="1.835346">
        <ele>1978.420</ele>
        <time>2019-05-30T12:06:26Z</time>
      </trkpt>
      <trkpt lat="42.464704" lon="1.835333">
        <ele>1978.645</ele>
        <time>2019-05-30T12:06:27Z</time>
      </trkpt>
      <trkpt lat="42.464767" lon="1.835238">
        <ele>1979.633</ele>
        <time>2019-05-30T12:06:35Z</time>
      </trkpt>
      <trkpt lat="42.464780" lon="1.835213">
        <ele>1979.823</ele>
        <time>2019-05-30T12:06:37Z</time>
      </trkpt>
      <trkpt lat="42.464827" lon="1.835130">
        <ele>1980.015</ele>
        <time>2019-05-30T12:06:44Z</time>
      </trkpt>
      <trkpt lat="42.464884" lon="1.835036">
        <ele>1980.808</ele>
        <time>2019-05-30T12:06:51Z</time>
      </trkpt>
      <trkpt lat="42.464897" lon="1.835014">
        <ele>1981.216</ele>
        <time>2019-05-30T12:06:53Z</time>
      </trkpt>
      <trkpt lat="42.464927" lon="1.834964">
        <ele>1981.850</ele>
        <time>2019-05-30T12:06:57Z</time>
      </trkpt>
      <trkpt lat="42.464953" lon="1.834922">
        <ele>1982.046</ele>
        <time>2019-05-30T12:07:00Z</time>
      </trkpt>
      <trkpt lat="42.465009" lon="1.834812">
        <ele>1982.674</ele>
        <time>2019-05-30T12:07:08Z</time>
      </trkpt>
      <trkpt lat="42.465023" lon="1.834786">
        <ele>1982.837</ele>
        <time>2019-05-30T12:07:10Z</time>
      </trkpt>
      <trkpt lat="42.465081" lon="1.834681">
        <ele>1983.861</ele>
        <time>2019-05-30T12:07:18Z</time>
      </trkpt>
      <trkpt lat="42.465099" lon="1.834658">
        <ele>1984.039</ele>
        <time>2019-05-30T12:07:20Z</time>
      </trkpt>
      <trkpt lat="42.465152" lon="1.834566">
        <ele>1985.064</ele>
        <time>2019-05-30T12:07:27Z</time>
      </trkpt>
      <trkpt lat="42.465224" lon="1.834429">
        <ele>1985.489</ele>
        <time>2019-05-30T12:07:37Z</time>
      </trkpt>
      <trkpt lat="42.465246" lon="1.834388">
        <ele>1986.006</ele>
        <time>2019-05-30T12:07:40Z</time>
      </trkpt>
      <trkpt lat="42.465292" lon="1.834314">
        <ele>1986.626</ele>
        <time>2019-05-30T12:07:46Z</time>
      </trkpt>
      <trkpt lat="42.465316" lon="1.834251">
        <ele>1987.208</ele>
        <time>2019-05-30T12:07:50Z</time>
      </trkpt>
      <trkpt lat="42.465338" lon="1.834194">
        <ele>1987.691</ele>
        <time>2019-05-30T12:07:54Z</time>
      </trkpt>
      <trkpt lat="42.465383" lon="1.834069">
        <ele>1988.285</ele>
        <time>2019-05-30T12:08:02Z</time>
      </trkpt>
      <trkpt lat="42.465388" lon="1.834055">
        <ele>1988.451</ele>
        <time>2019-05-30T12:08:03Z</time>
      </trkpt>
      <trkpt lat="42.465419" lon="1.833985">
        <ele>1989.479</ele>
        <time>2019-05-30T12:08:08Z</time>
      </trkpt>
      <trkpt lat="42.465438" lon="1.833922">
        <ele>1989.412</ele>
        <time>2019-05-30T12:08:12Z</time>
      </trkpt>
      <trkpt lat="42.465480" lon="1.833794">
        <ele>1990.286</ele>
        <time>2019-05-30T12:08:20Z</time>
      </trkpt>
      <trkpt lat="42.465483" lon="1.833773">
        <ele>1990.454</ele>
        <time>2019-05-30T12:08:21Z</time>
      </trkpt>
      <trkpt lat="42.465501" lon="1.833664">
        <ele>1991.249</ele>
        <time>2019-05-30T12:08:28Z</time>
      </trkpt>
      <trkpt lat="42.465503" lon="1.833649">
        <ele>1991.476</ele>
        <time>2019-05-30T12:08:29Z</time>
      </trkpt>
      <trkpt lat="42.465504" lon="1.833600">
        <ele>1991.690</ele>
        <time>2019-05-30T12:08:32Z</time>
      </trkpt>
      <trkpt lat="42.465503" lon="1.833572">
        <ele>1991.819</ele>
        <time>2019-05-30T12:08:34Z</time>
      </trkpt>
      <trkpt lat="42.465505" lon="1.833475">
        <ele>1992.408</ele>
        <time>2019-05-30T12:08:40Z</time>
      </trkpt>
      <trkpt lat="42.465506" lon="1.833444">
        <ele>1992.620</ele>
        <time>2019-05-30T12:08:42Z</time>
      </trkpt>
      <trkpt lat="42.465507" lon="1.833364">
        <ele>1993.284</ele>
        <time>2019-05-30T12:08:47Z</time>
      </trkpt>
      <trkpt lat="42.465507" lon="1.833350">
        <ele>1993.250</ele>
        <time>2019-05-30T12:08:48Z</time>
      </trkpt>
      <trkpt lat="42.465505" lon="1.833324">
        <ele>1993.438</ele>
        <time>2019-05-30T12:08:50Z</time>
      </trkpt>
      <trkpt lat="42.465500" lon="1.833244">
        <ele>1994.041</ele>
        <time>2019-05-30T12:08:55Z</time>
      </trkpt>
      <trkpt lat="42.465503" lon="1.833178">
        <ele>1994.435</ele>
        <time>2019-05-30T12:09:00Z</time>
      </trkpt>
      <trkpt lat="42.465505" lon="1.833150">
        <ele>1994.683</ele>
        <time>2019-05-30T12:09:02Z</time>
      </trkpt>
      <trkpt lat="42.465514" lon="1.833029">
        <ele>1995.438</ele>
        <time>2019-05-30T12:09:09Z</time>
      </trkpt>
      <trkpt lat="42.465521" lon="1.832998">
        <ele>1995.613</ele>
        <time>2019-05-30T12:09:11Z</time>
      </trkpt>
      <trkpt lat="42.465522" lon="1.832935">
        <ele>1996.043</ele>
        <time>2019-05-30T12:09:15Z</time>
      </trkpt>
      <trkpt lat="42.465529" lon="1.832858">
        <ele>1996.607</ele>
        <time>2019-05-30T12:09:20Z</time>
      </trkpt>
      <trkpt lat="42.465532" lon="1.832826">
        <ele>1997.008</ele>
        <time>2019-05-30T12:09:22Z</time>
      </trkpt>
      <trkpt lat="42.465542" lon="1.832723">
        <ele>1997.654</ele>
        <time>2019-05-30T12:09:29Z</time>
      </trkpt>
      <trkpt lat="42.465542" lon="1.832705">
        <ele>1997.868</ele>
        <time>2019-05-30T12:09:30Z</time>
      </trkpt>
      <trkpt lat="42.465554" lon="1.832602">
        <ele>1998.664</ele>
        <time>2019-05-30T12:09:36Z</time>
      </trkpt>
      <trkpt lat="42.465555" lon="1.832587">
        <ele>1998.672</ele>
        <time>2019-05-30T12:09:37Z</time>
      </trkpt>
      <trkpt lat="42.465568" lon="1.832477">
        <ele>1998.625</ele>
        <time>2019-05-30T12:09:44Z</time>
      </trkpt>
      <trkpt lat="42.465574" lon="1.832366">
        <ele>1999.819</ele>
        <time>2019-05-30T12:09:51Z</time>
      </trkpt>
      <trkpt lat="42.465586" lon="1.832248">
        <ele>2000.477</ele>
        <time>2019-05-30T12:09:59Z</time>
      </trkpt>
      <trkpt lat="42.465603" lon="1.832170">
        <ele>2000.822</ele>
        <time>2019-05-30T12:10:04Z</time>
      </trkpt>
      <trkpt lat="42.465611" lon="1.832125">
        <ele>2001.276</ele>
        <time>2019-05-30T12:10:07Z</time>
      </trkpt>
      <trkpt lat="42.465636" lon="1.832032">
        <ele>2002.090</ele>
        <time>2019-05-30T12:10:13Z</time>
      </trkpt>
      <trkpt lat="42.465644" lon="1.832002">
        <ele>2002.019</ele>
        <time>2019-05-30T12:10:15Z</time>
      </trkpt>
      <trkpt lat="42.465670" lon="1.831886">
        <ele>2002.608</ele>
        <time>2019-05-30T12:10:22Z</time>
      </trkpt>
      <trkpt lat="42.465677" lon="1.831852">
        <ele>2003.080</ele>
        <time>2019-05-30T12:10:24Z</time>
      </trkpt>
      <trkpt lat="42.465706" lon="1.831733">
        <ele>2003.664</ele>
        <time>2019-05-30T12:10:30Z</time>
      </trkpt>
      <trkpt lat="42.465727" lon="1.831657">
        <ele>2004.250</ele>
        <time>2019-05-30T12:10:35Z</time>
      </trkpt>
      <trkpt lat="42.465743" lon="1.831593">
        <ele>2005.098</ele>
        <time>2019-05-30T12:10:39Z</time>
      </trkpt>
      <trkpt lat="42.465749" lon="1.831564">
        <ele>2005.291</ele>
        <time>2019-05-30T12:10:41Z</time>
      </trkpt>
      <trkpt lat="42.465768" lon="1.831508">
        <ele>2005.875</ele>
        <time>2019-05-30T12:10:45Z</time>
      </trkpt>
      <trkpt lat="42.465785" lon="1.831435">
        <ele>2006.273</ele>
        <time>2019-05-30T12:10:50Z</time>
      </trkpt>
      <trkpt lat="42.465791" lon="1.831402">
        <ele>2006.468</ele>
        <time>2019-05-30T12:10:52Z</time>
      </trkpt>
      <trkpt lat="42.465838" lon="1.831288">
        <ele>2007.034</ele>
        <time>2019-05-30T12:11:00Z</time>
      </trkpt>
      <trkpt lat="42.465844" lon="1.831272">
        <ele>2007.255</ele>
        <time>2019-05-30T12:11:01Z</time>
      </trkpt>
      <trkpt lat="42.465865" lon="1.831179">
        <ele>2007.810</ele>
        <time>2019-05-30T12:11:07Z</time>
      </trkpt>
      <trkpt lat="42.465883" lon="1.831118">
        <ele>2008.208</ele>
        <time>2019-05-30T12:11:11Z</time>
      </trkpt>
      <trkpt lat="42.465903" lon="1.831046">
        <ele>2008.466</ele>
        <time>2019-05-30T12:11:16Z</time>
      </trkpt>
      <trkpt lat="42.465933" lon="1.830962">
        <ele>2009.480</ele>
        <time>2019-05-30T12:11:22Z</time>
      </trkpt>
      <trkpt lat="42.465948" lon="1.830903">
        <ele>2009.856</ele>
        <time>2019-05-30T12:11:26Z</time>
      </trkpt>
      <trkpt lat="42.465987" lon="1.830773">
        <ele>2010.444</ele>
        <time>2019-05-30T12:11:35Z</time>
      </trkpt>
      <trkpt lat="42.466023" lon="1.830671">
        <ele>2010.457</ele>
        <time>2019-05-30T12:11:42Z</time>
      </trkpt>
      <trkpt lat="42.466051" lon="1.830565">
        <ele>2011.431</ele>
        <time>2019-05-30T12:11:49Z</time>
      </trkpt>
      <trkpt lat="42.466082" lon="1.830441">
        <ele>2012.089</ele>
        <time>2019-05-30T12:11:57Z</time>
      </trkpt>
      <trkpt lat="42.466104" lon="1.830390">
        <ele>2012.694</ele>
        <time>2019-05-30T12:12:01Z</time>
      </trkpt>
      <trkpt lat="42.466129" lon="1.830294">
        <ele>2013.241</ele>
        <time>2019-05-30T12:12:07Z</time>
      </trkpt>
      <trkpt lat="42.466149" lon="1.830219">
        <ele>2013.681</ele>
        <time>2019-05-30T12:12:12Z</time>
      </trkpt>
      <trkpt lat="42.466158" lon="1.830168">
        <ele>2014.009</ele>
        <time>2019-05-30T12:12:15Z</time>
      </trkpt>
      <trkpt lat="42.466175" lon="1.830094">
        <ele>2014.608</ele>
        <time>2019-05-30T12:12:20Z</time>
      </trkpt>
      <trkpt lat="42.466186" lon="1.830065">
        <ele>2015.097</ele>
        <time>2019-05-30T12:12:22Z</time>
      </trkpt>
      <trkpt lat="42.466207" lon="1.829978">
        <ele>2015.211</ele>
        <time>2019-05-30T12:12:27Z</time>
      </trkpt>
      <trkpt lat="42.466217" lon="1.829946">
        <ele>2015.437</ele>
        <time>2019-05-30T12:12:29Z</time>
      </trkpt>
      <trkpt lat="42.466240" lon="1.829907">
        <ele>2015.885</ele>
        <time>2019-05-30T12:12:32Z</time>
      </trkpt>
      <trkpt lat="42.466244" lon="1.829862">
        <ele>2016.048</ele>
        <time>2019-05-30T12:12:35Z</time>
      </trkpt>
      <trkpt lat="42.466245" lon="1.829827">
        <ele>2016.282</ele>
        <time>2019-05-30T12:12:37Z</time>
      </trkpt>
      <trkpt lat="42.466263" lon="1.829748">
        <ele>2016.470</ele>
        <time>2019-05-30T12:12:42Z</time>
      </trkpt>
      <trkpt lat="42.466273" lon="1.829723">
        <ele>2016.665</ele>
        <time>2019-05-30T12:12:44Z</time>
      </trkpt>
      <trkpt lat="42.466279" lon="1.829670">
        <ele>2016.813</ele>
        <time>2019-05-30T12:12:47Z</time>
      </trkpt>
      <trkpt lat="42.466282" lon="1.829656">
        <ele>2016.843</ele>
        <time>2019-05-30T12:12:48Z</time>
      </trkpt>
      <trkpt lat="42.466299" lon="1.829534">
        <ele>2017.807</ele>
        <time>2019-05-30T12:12:56Z</time>
      </trkpt>
      <trkpt lat="42.466298" lon="1.829515">
        <ele>2018.008</ele>
        <time>2019-05-30T12:12:57Z</time>
      </trkpt>
      <trkpt lat="42.466297" lon="1.829415">
        <ele>2018.894</ele>
        <time>2019-05-30T12:13:04Z</time>
      </trkpt>
      <trkpt lat="42.466293" lon="1.829402">
        <ele>2018.838</ele>
        <time>2019-05-30T12:13:05Z</time>
      </trkpt>
      <trkpt lat="42.466288" lon="1.829388">
        <ele>2019.094</ele>
        <time>2019-05-30T12:13:06Z</time>
      </trkpt>
      <trkpt lat="42.466300" lon="1.829315">
        <ele>2020.022</ele>
        <time>2019-05-30T12:13:11Z</time>
      </trkpt>
      <trkpt lat="42.466305" lon="1.829300">
        <ele>2020.075</ele>
        <time>2019-05-30T12:13:12Z</time>
      </trkpt>
      <trkpt lat="42.466311" lon="1.829273">
        <ele>2020.459</ele>
        <time>2019-05-30T12:13:14Z</time>
      </trkpt>
      <trkpt lat="42.466321" lon="1.829170">
        <ele>2020.697</ele>
        <time>2019-05-30T12:13:19Z</time>
      </trkpt>
      <trkpt lat="42.466339" lon="1.829074">
        <ele>2022.092</ele>
        <time>2019-05-30T12:13:24Z</time>
      </trkpt>
      <trkpt lat="42.466356" lon="1.829003">
        <ele>2022.045</ele>
        <time>2019-05-30T12:13:28Z</time>
      </trkpt>
      <trkpt lat="42.466374" lon="1.828889">
        <ele>2023.047</ele>
        <time>2019-05-30T12:13:34Z</time>
      </trkpt>
      <trkpt lat="42.466380" lon="1.828872">
        <ele>2023.011</ele>
        <time>2019-05-30T12:13:35Z</time>
      </trkpt>
      <trkpt lat="42.466398" lon="1.828757">
        <ele>2023.808</ele>
        <time>2019-05-30T12:13:42Z</time>
      </trkpt>
      <trkpt lat="42.466413" lon="1.828669">
        <ele>2024.047</ele>
        <time>2019-05-30T12:13:47Z</time>
      </trkpt>
      <trkpt lat="42.466426" lon="1.828626">
        <ele>2024.421</ele>
        <time>2019-05-30T12:13:50Z</time>
      </trkpt>
      <trkpt lat="42.466461" lon="1.828542">
        <ele>2025.247</ele>
        <time>2019-05-30T12:13:56Z</time>
      </trkpt>
      <trkpt lat="42.466464" lon="1.828528">
        <ele>2025.235</ele>
        <time>2019-05-30T12:13:57Z</time>
      </trkpt>
      <trkpt lat="42.466506" lon="1.828437">
        <ele>2026.088</ele>
        <time>2019-05-30T12:14:04Z</time>
      </trkpt>
      <trkpt lat="42.466525" lon="1.828412">
        <ele>2026.222</ele>
        <time>2019-05-30T12:14:06Z</time>
      </trkpt>
      <trkpt lat="42.466541" lon="1.828384">
        <ele>2026.280</ele>
        <time>2019-05-30T12:14:08Z</time>
      </trkpt>
      <trkpt lat="42.466559" lon="1.828340">
        <ele>2026.475</ele>
        <time>2019-05-30T12:14:11Z</time>
      </trkpt>
      <trkpt lat="42.466572" lon="1.828297">
        <ele>2026.874</ele>
        <time>2019-05-30T12:14:14Z</time>
      </trkpt>
      <trkpt lat="42.466605" lon="1.828246">
        <ele>2027.056</ele>
        <time>2019-05-30T12:14:18Z</time>
      </trkpt>
      <trkpt lat="42.466612" lon="1.828230">
        <ele>2027.221</ele>
        <time>2019-05-30T12:14:19Z</time>
      </trkpt>
      <trkpt lat="42.466652" lon="1.828144">
        <ele>2028.008</ele>
        <time>2019-05-30T12:14:25Z</time>
      </trkpt>
      <trkpt lat="42.466665" lon="1.828115">
        <ele>2028.470</ele>
        <time>2019-05-30T12:14:27Z</time>
      </trkpt>
      <trkpt lat="42.466706" lon="1.828004">
        <ele>2028.834</ele>
        <time>2019-05-30T12:14:34Z</time>
      </trkpt>
      <trkpt lat="42.466735" lon="1.827932">
        <ele>2029.410</ele>
        <time>2019-05-30T12:14:39Z</time>
      </trkpt>
      <trkpt lat="42.466745" lon="1.827904">
        <ele>2029.638</ele>
        <time>2019-05-30T12:14:41Z</time>
      </trkpt>
      <trkpt lat="42.466795" lon="1.827815">
        <ele>2030.271</ele>
        <time>2019-05-30T12:14:48Z</time>
      </trkpt>
      <trkpt lat="42.466825" lon="1.827771">
        <ele>2030.445</ele>
        <time>2019-05-30T12:14:52Z</time>
      </trkpt>
      <trkpt lat="42.466856" lon="1.827715">
        <ele>2031.023</ele>
        <time>2019-05-30T12:14:56Z</time>
      </trkpt>
      <trkpt lat="42.466888" lon="1.827629">
        <ele>2031.618</ele>
        <time>2019-05-30T12:15:02Z</time>
      </trkpt>
      <trkpt lat="42.466895" lon="1.827616">
        <ele>2031.874</ele>
        <time>2019-05-30T12:15:03Z</time>
      </trkpt>
      <trkpt lat="42.466964" lon="1.827479">
        <ele>2032.656</ele>
        <time>2019-05-30T12:15:13Z</time>
      </trkpt>
      <trkpt lat="42.466973" lon="1.827447">
        <ele>2032.821</ele>
        <time>2019-05-30T12:15:15Z</time>
      </trkpt>
      <trkpt lat="42.467035" lon="1.827339">
        <ele>2033.608</ele>
        <time>2019-05-30T12:15:23Z</time>
      </trkpt>
      <trkpt lat="42.467051" lon="1.827315">
        <ele>2034.040</ele>
        <time>2019-05-30T12:15:25Z</time>
      </trkpt>
      <trkpt lat="42.467121" lon="1.827246">
        <ele>2034.874</ele>
        <time>2019-05-30T12:15:32Z</time>
      </trkpt>
      <trkpt lat="42.467137" lon="1.827222">
        <ele>2035.020</ele>
        <time>2019-05-30T12:15:34Z</time>
      </trkpt>
      <trkpt lat="42.467166" lon="1.827150">
        <ele>2035.688</ele>
        <time>2019-05-30T12:15:39Z</time>
      </trkpt>
      <trkpt lat="42.467190" lon="1.827104">
        <ele>2036.091</ele>
        <time>2019-05-30T12:15:42Z</time>
      </trkpt>
      <trkpt lat="42.467213" lon="1.827026">
        <ele>2036.875</ele>
        <time>2019-05-30T12:15:47Z</time>
      </trkpt>
      <trkpt lat="42.467216" lon="1.827010">
        <ele>2037.073</ele>
        <time>2019-05-30T12:15:48Z</time>
      </trkpt>
      <trkpt lat="42.467212" lon="1.826895">
        <ele>2037.898</ele>
        <time>2019-05-30T12:15:55Z</time>
      </trkpt>
      <trkpt lat="42.467205" lon="1.826878">
        <ele>2038.064</ele>
        <time>2019-05-30T12:15:56Z</time>
      </trkpt>
      <trkpt lat="42.467037" lon="1.826848">
        <ele>2038.606</ele>
        <time>2019-05-30T12:18:19Z</time>
      </trkpt>
      <trkpt lat="42.467003" lon="1.826875">
        <ele>2038.616</ele>
        <time>2019-05-30T12:18:22Z</time>
      </trkpt>
      <trkpt lat="42.466947" lon="1.826933">
        <ele>2039.208</ele>
        <time>2019-05-30T12:18:28Z</time>
      </trkpt>
      <trkpt lat="42.466939" lon="1.826946">
        <ele>2039.239</ele>
        <time>2019-05-30T12:18:29Z</time>
      </trkpt>
      <trkpt lat="42.466856" lon="1.827020">
        <ele>2039.853</ele>
        <time>2019-05-30T12:18:37Z</time>
      </trkpt>
      <trkpt lat="42.466814" lon="1.827061">
        <ele>2040.229</ele>
        <time>2019-05-30T12:18:41Z</time>
      </trkpt>
      <trkpt lat="42.466778" lon="1.827108">
        <ele>2040.657</ele>
        <time>2019-05-30T12:18:45Z</time>
      </trkpt>
      <trkpt lat="42.466738" lon="1.827151">
        <ele>2041.270</ele>
        <time>2019-05-30T12:18:49Z</time>
      </trkpt>
      <trkpt lat="42.466686" lon="1.827186">
        <ele>2042.294</ele>
        <time>2019-05-30T12:18:53Z</time>
      </trkpt>
      <trkpt lat="42.466666" lon="1.827203">
        <ele>2042.622</ele>
        <time>2019-05-30T12:18:55Z</time>
      </trkpt>
      <trkpt lat="42.466636" lon="1.827234">
        <ele>2043.487</ele>
        <time>2019-05-30T12:18:58Z</time>
      </trkpt>
      <trkpt lat="42.466557" lon="1.827295">
        <ele>2043.675</ele>
        <time>2019-05-30T12:19:05Z</time>
      </trkpt>
      <trkpt lat="42.466457" lon="1.827366">
        <ele>2044.028</ele>
        <time>2019-05-30T12:19:14Z</time>
      </trkpt>
      <trkpt lat="42.466380" lon="1.827418">
        <ele>2044.420</ele>
        <time>2019-05-30T12:19:21Z</time>
      </trkpt>
      <trkpt lat="42.466362" lon="1.827435">
        <ele>2044.608</ele>
        <time>2019-05-30T12:19:23Z</time>
      </trkpt>
      <trkpt lat="42.466272" lon="1.827491">
        <ele>2045.280</ele>
        <time>2019-05-30T12:19:31Z</time>
      </trkpt>
      <trkpt lat="42.466210" lon="1.827536">
        <ele>2045.684</ele>
        <time>2019-05-30T12:19:36Z</time>
      </trkpt>
      <trkpt lat="42.466182" lon="1.827546">
        <ele>2045.850</ele>
        <time>2019-05-30T12:19:38Z</time>
      </trkpt>
      <trkpt lat="42.466100" lon="1.827605">
        <ele>2046.688</ele>
        <time>2019-05-30T12:19:45Z</time>
      </trkpt>
      <trkpt lat="42.466087" lon="1.827613">
        <ele>2046.851</ele>
        <time>2019-05-30T12:19:46Z</time>
      </trkpt>
      <trkpt lat="42.465990" lon="1.827683">
        <ele>2047.615</ele>
        <time>2019-05-30T12:19:55Z</time>
      </trkpt>
      <trkpt lat="42.465904" lon="1.827735">
        <ele>2048.473</ele>
        <time>2019-05-30T12:20:03Z</time>
      </trkpt>
      <trkpt lat="42.465869" lon="1.827760">
        <ele>2048.838</ele>
        <time>2019-05-30T12:20:06Z</time>
      </trkpt>
      <trkpt lat="42.465796" lon="1.827799">
        <ele>2049.017</ele>
        <time>2019-05-30T12:20:12Z</time>
      </trkpt>
      <trkpt lat="42.465738" lon="1.827839">
        <ele>2049.887</ele>
        <time>2019-05-30T12:20:17Z</time>
      </trkpt>
      <trkpt lat="42.465697" lon="1.827860">
        <ele>2050.615</ele>
        <time>2019-05-30T12:20:20Z</time>
      </trkpt>
      <trkpt lat="42.465674" lon="1.827886">
        <ele>2050.808</ele>
        <time>2019-05-30T12:20:22Z</time>
      </trkpt>
      <trkpt lat="42.465606" lon="1.827934">
        <ele>2050.674</ele>
        <time>2019-05-30T12:20:28Z</time>
      </trkpt>
      <trkpt lat="42.465523" lon="1.827970">
        <ele>2051.288</ele>
        <time>2019-05-30T12:20:35Z</time>
      </trkpt>
      <trkpt lat="42.465475" lon="1.827997">
        <ele>2051.484</ele>
        <time>2019-05-30T12:20:39Z</time>
      </trkpt>
      <trkpt lat="42.465440" lon="1.828017">
        <ele>2051.612</ele>
        <time>2019-05-30T12:20:42Z</time>
      </trkpt>
      <trkpt lat="42.465416" lon="1.828028">
        <ele>2051.815</ele>
        <time>2019-05-30T12:20:44Z</time>
      </trkpt>
      <trkpt lat="42.465321" lon="1.828061">
        <ele>2052.499</ele>
        <time>2019-05-30T12:20:51Z</time>
      </trkpt>
      <trkpt lat="42.465241" lon="1.828095">
        <ele>2052.817</ele>
        <time>2019-05-30T12:20:58Z</time>
      </trkpt>
      <trkpt lat="42.465159" lon="1.828135">
        <ele>2053.612</ele>
        <time>2019-05-30T12:21:05Z</time>
      </trkpt>
      <trkpt lat="42.465120" lon="1.828162">
        <ele>2054.034</ele>
        <time>2019-05-30T12:21:08Z</time>
      </trkpt>
      <trkpt lat="42.465055" lon="1.828192">
        <ele>2054.055</ele>
        <time>2019-05-30T12:21:14Z</time>
      </trkpt>
      <trkpt lat="42.464972" lon="1.828253">
        <ele>2055.010</ele>
        <time>2019-05-30T12:21:21Z</time>
      </trkpt>
      <trkpt lat="42.464959" lon="1.828255">
        <ele>2055.008</ele>
        <time>2019-05-30T12:21:22Z</time>
      </trkpt>
      <trkpt lat="42.464925" lon="1.828272">
        <ele>2055.246</ele>
        <time>2019-05-30T12:21:25Z</time>
      </trkpt>
      <trkpt lat="42.464881" lon="1.828305">
        <ele>2055.880</ele>
        <time>2019-05-30T12:21:29Z</time>
      </trkpt>
      <trkpt lat="42.464870" lon="1.828314">
        <ele>2055.866</ele>
        <time>2019-05-30T12:21:30Z</time>
      </trkpt>
      <trkpt lat="42.464857" lon="1.828321">
        <ele>2056.014</ele>
        <time>2019-05-30T12:21:31Z</time>
      </trkpt>
      <trkpt lat="42.464780" lon="1.828375">
        <ele>2056.897</ele>
        <time>2019-05-30T12:21:38Z</time>
      </trkpt>
      <trkpt lat="42.464756" lon="1.828397">
        <ele>2057.291</ele>
        <time>2019-05-30T12:21:40Z</time>
      </trkpt>
      <trkpt lat="42.464709" lon="1.828430">
        <ele>2058.099</ele>
        <time>2019-05-30T12:21:44Z</time>
      </trkpt>
      <trkpt lat="42.464677" lon="1.828462">
        <ele>2058.464</ele>
        <time>2019-05-30T12:21:47Z</time>
      </trkpt>
      <trkpt lat="42.464627" lon="1.828518">
        <ele>2058.813</ele>
        <time>2019-05-30T12:21:52Z</time>
      </trkpt>
      <trkpt lat="42.464557" lon="1.828598">
        <ele>2059.443</ele>
        <time>2019-05-30T12:21:59Z</time>
      </trkpt>
      <trkpt lat="42.464533" lon="1.828616">
        <ele>2059.607</ele>
        <time>2019-05-30T12:22:01Z</time>
      </trkpt>
      <trkpt lat="42.464442" lon="1.828625">
        <ele>2060.408</ele>
        <time>2019-05-30T12:22:08Z</time>
      </trkpt>
      <trkpt lat="42.464410" lon="1.828608">
        <ele>2060.454</ele>
        <time>2019-05-30T12:22:11Z</time>
      </trkpt>
      <trkpt lat="42.464365" lon="1.828537">
        <ele>2060.818</ele>
        <time>2019-05-30T12:22:16Z</time>
      </trkpt>
      <trkpt lat="42.464364" lon="1.828523">
        <ele>2061.044</ele>
        <time>2019-05-30T12:22:17Z</time>
      </trkpt>
      <trkpt lat="42.464360" lon="1.828450">
        <ele>2061.662</ele>
        <time>2019-05-30T12:22:21Z</time>
      </trkpt>
      <trkpt lat="42.464363" lon="1.828434">
        <ele>2061.675</ele>
        <time>2019-05-30T12:22:22Z</time>
      </trkpt>
      <trkpt lat="42.464377" lon="1.828342">
        <ele>2062.269</ele>
        <time>2019-05-30T12:22:27Z</time>
      </trkpt>
      <trkpt lat="42.464394" lon="1.828296">
        <ele>2062.477</ele>
        <time>2019-05-30T12:22:30Z</time>
      </trkpt>
      <trkpt lat="42.464400" lon="1.828281">
        <ele>2062.682</ele>
        <time>2019-05-30T12:22:31Z</time>
      </trkpt>
      <trkpt lat="42.464409" lon="1.828266">
        <ele>2062.876</ele>
        <time>2019-05-30T12:22:32Z</time>
      </trkpt>
      <trkpt lat="42.464423" lon="1.828229">
        <ele>2063.290</ele>
        <time>2019-05-30T12:22:34Z</time>
      </trkpt>
      <trkpt lat="42.464432" lon="1.828194">
        <ele>2063.619</ele>
        <time>2019-05-30T12:22:36Z</time>
      </trkpt>
      <trkpt lat="42.464442" lon="1.828164">
        <ele>2063.608</ele>
        <time>2019-05-30T12:22:38Z</time>
      </trkpt>
      <trkpt lat="42.464516" lon="1.827999">
        <ele>2064.430</ele>
        <time>2019-05-30T12:22:49Z</time>
      </trkpt>
      <trkpt lat="42.464527" lon="1.827972">
        <ele>2064.864</ele>
        <time>2019-05-30T12:22:51Z</time>
      </trkpt>
      <trkpt lat="42.464564" lon="1.827871">
        <ele>2065.890</ele>
        <time>2019-05-30T12:22:57Z</time>
      </trkpt>
      <trkpt lat="42.464573" lon="1.827857">
        <ele>2065.888</ele>
        <time>2019-05-30T12:22:58Z</time>
      </trkpt>
      <trkpt lat="42.464612" lon="1.827743">
        <ele>2066.661</ele>
        <time>2019-05-30T12:23:05Z</time>
      </trkpt>
      <trkpt lat="42.464632" lon="1.827701">
        <ele>2067.065</ele>
        <time>2019-05-30T12:23:08Z</time>
      </trkpt>
      <trkpt lat="42.464677" lon="1.827605">
        <ele>2068.073</ele>
        <time>2019-05-30T12:23:15Z</time>
      </trkpt>
      <trkpt lat="42.464683" lon="1.827588">
        <ele>2068.248</ele>
        <time>2019-05-30T12:23:16Z</time>
      </trkpt>
      <trkpt lat="42.464714" lon="1.827492">
        <ele>2068.472</ele>
        <time>2019-05-30T12:23:23Z</time>
      </trkpt>
      <trkpt lat="42.464741" lon="1.827409">
        <ele>2069.013</ele>
        <time>2019-05-30T12:23:29Z</time>
      </trkpt>
      <trkpt lat="42.464754" lon="1.827365">
        <ele>2069.214</ele>
        <time>2019-05-30T12:23:32Z</time>
      </trkpt>
      <trkpt lat="42.464767" lon="1.827294">
        <ele>2069.408</ele>
        <time>2019-05-30T12:23:37Z</time>
      </trkpt>
      <trkpt lat="42.464783" lon="1.827198">
        <ele>2070.450</ele>
        <time>2019-05-30T12:23:43Z</time>
      </trkpt>
      <trkpt lat="42.464793" lon="1.827170">
        <ele>2070.664</ele>
        <time>2019-05-30T12:23:45Z</time>
      </trkpt>
      <trkpt lat="42.464821" lon="1.827026">
        <ele>2071.260</ele>
        <time>2019-05-30T12:23:54Z</time>
      </trkpt>
      <trkpt lat="42.464837" lon="1.826907">
        <ele>2071.468</ele>
        <time>2019-05-30T12:24:01Z</time>
      </trkpt>
      <trkpt lat="42.464844" lon="1.826860">
        <ele>2072.871</ele>
        <time>2019-05-30T12:24:04Z</time>
      </trkpt>
      <trkpt lat="42.464855" lon="1.826776">
        <ele>2072.895</ele>
        <time>2019-05-30T12:24:09Z</time>
      </trkpt>
      <trkpt lat="42.464860" lon="1.826748">
        <ele>2072.643</ele>
        <time>2019-05-30T12:24:11Z</time>
      </trkpt>
      <trkpt lat="42.464865" lon="1.826681">
        <ele>2073.058</ele>
        <time>2019-05-30T12:24:15Z</time>
      </trkpt>
      <trkpt lat="42.464886" lon="1.826586">
        <ele>2074.037</ele>
        <time>2019-05-30T12:24:21Z</time>
      </trkpt>
      <trkpt lat="42.464886" lon="1.826570">
        <ele>2074.249</ele>
        <time>2019-05-30T12:24:22Z</time>
      </trkpt>
      <trkpt lat="42.464902" lon="1.826459">
        <ele>2074.813</ele>
        <time>2019-05-30T12:24:30Z</time>
      </trkpt>
      <trkpt lat="42.464904" lon="1.826426">
        <ele>2075.008</ele>
        <time>2019-05-30T12:24:32Z</time>
      </trkpt>
      <trkpt lat="42.464913" lon="1.826328">
        <ele>2075.476</ele>
        <time>2019-05-30T12:24:38Z</time>
      </trkpt>
      <trkpt lat="42.464917" lon="1.826240">
        <ele>2076.050</ele>
        <time>2019-05-30T12:24:43Z</time>
      </trkpt>
      <trkpt lat="42.464919" lon="1.826192">
        <ele>2076.486</ele>
        <time>2019-05-30T12:24:46Z</time>
      </trkpt>
      <trkpt lat="42.464925" lon="1.826136">
        <ele>2076.814</ele>
        <time>2019-05-30T12:24:50Z</time>
      </trkpt>
      <trkpt lat="42.464926" lon="1.826078">
        <ele>2077.017</ele>
        <time>2019-05-30T12:24:53Z</time>
      </trkpt>
      <trkpt lat="42.464925" lon="1.826060">
        <ele>2077.281</ele>
        <time>2019-05-30T12:24:54Z</time>
      </trkpt>
      <trkpt lat="42.464921" lon="1.825996">
        <ele>2077.649</ele>
        <time>2019-05-30T12:24:58Z</time>
      </trkpt>
      <trkpt lat="42.464920" lon="1.825963">
        <ele>2078.044</ele>
        <time>2019-05-30T12:25:00Z</time>
      </trkpt>
      <trkpt lat="42.464916" lon="1.825895">
        <ele>2078.018</ele>
        <time>2019-05-30T12:25:04Z</time>
      </trkpt>
      <trkpt lat="42.464914" lon="1.825837">
        <ele>2078.698</ele>
        <time>2019-05-30T12:25:08Z</time>
      </trkpt>
      <trkpt lat="42.464907" lon="1.825774">
        <ele>2079.217</ele>
        <time>2019-05-30T12:25:12Z</time>
      </trkpt>
      <trkpt lat="42.464897" lon="1.825711">
        <ele>2079.608</ele>
        <time>2019-05-30T12:25:16Z</time>
      </trkpt>
      <trkpt lat="42.464881" lon="1.825620">
        <ele>2080.244</ele>
        <time>2019-05-30T12:25:22Z</time>
      </trkpt>
      <trkpt lat="42.464865" lon="1.825578">
        <ele>2080.288</ele>
        <time>2019-05-30T12:25:25Z</time>
      </trkpt>
      <trkpt lat="42.464825" lon="1.825479">
        <ele>2081.264</ele>
        <time>2019-05-30T12:25:32Z</time>
      </trkpt>
      <trkpt lat="42.464820" lon="1.825463">
        <ele>2081.442</ele>
        <time>2019-05-30T12:25:33Z</time>
      </trkpt>
      <trkpt lat="42.464756" lon="1.825348">
        <ele>2082.295</ele>
        <time>2019-05-30T12:25:42Z</time>
      </trkpt>
      <trkpt lat="42.464716" lon="1.825270">
        <ele>2083.289</ele>
        <time>2019-05-30T12:25:48Z</time>
      </trkpt>
      <trkpt lat="42.464709" lon="1.825258">
        <ele>2083.447</ele>
        <time>2019-05-30T12:25:49Z</time>
      </trkpt>
      <trkpt lat="42.464673" lon="1.825178">
        <ele>2083.822</ele>
        <time>2019-05-30T12:25:55Z</time>
      </trkpt>
      <trkpt lat="42.464622" lon="1.825109">
        <ele>2084.442</ele>
        <time>2019-05-30T12:26:01Z</time>
      </trkpt>
      <trkpt lat="42.464615" lon="1.825098">
        <ele>2084.622</ele>
        <time>2019-05-30T12:26:02Z</time>
      </trkpt>
      <trkpt lat="42.464572" lon="1.825020">
        <ele>2085.214</ele>
        <time>2019-05-30T12:26:08Z</time>
      </trkpt>
      <trkpt lat="42.464556" lon="1.825003">
        <ele>2085.608</ele>
        <time>2019-05-30T12:26:10Z</time>
      </trkpt>
      <trkpt lat="42.464523" lon="1.824934">
        <ele>2086.027</ele>
        <time>2019-05-30T12:26:15Z</time>
      </trkpt>
      <trkpt lat="42.464518" lon="1.824924">
        <ele>2086.291</ele>
        <time>2019-05-30T12:26:16Z</time>
      </trkpt>
      <trkpt lat="42.464491" lon="1.824873">
        <ele>2086.657</ele>
        <time>2019-05-30T12:26:20Z</time>
      </trkpt>
      <trkpt lat="42.464458" lon="1.824837">
        <ele>2087.285</ele>
        <time>2019-05-30T12:26:24Z</time>
      </trkpt>
      <trkpt lat="42.464426" lon="1.824765">
        <ele>2087.838</ele>
        <time>2019-05-30T12:26:30Z</time>
      </trkpt>
      <trkpt lat="42.464421" lon="1.824751">
        <ele>2087.812</ele>
        <time>2019-05-30T12:26:31Z</time>
      </trkpt>
      <trkpt lat="42.464377" lon="1.824660">
        <ele>2088.480</ele>
        <time>2019-05-30T12:26:38Z</time>
      </trkpt>
      <trkpt lat="42.464368" lon="1.824645">
        <ele>2088.465</ele>
        <time>2019-05-30T12:26:39Z</time>
      </trkpt>
      <trkpt lat="42.464360" lon="1.824633">
        <ele>2088.814</ele>
        <time>2019-05-30T12:26:40Z</time>
      </trkpt>
      <trkpt lat="42.464345" lon="1.824594">
        <ele>2088.854</ele>
        <time>2019-05-30T12:26:43Z</time>
      </trkpt>
      <trkpt lat="42.464342" lon="1.824579">
        <ele>2089.809</ele>
        <time>2019-05-30T12:26:44Z</time>
      </trkpt>
      <trkpt lat="42.464296" lon="1.824499">
        <ele>2089.408</ele>
        <time>2019-05-30T12:26:50Z</time>
      </trkpt>
      <trkpt lat="42.464282" lon="1.824472">
        <ele>2089.644</ele>
        <time>2019-05-30T12:26:52Z</time>
      </trkpt>
      <trkpt lat="42.464237" lon="1.824368">
        <ele>2090.258</ele>
        <time>2019-05-30T12:26:59Z</time>
      </trkpt>
      <trkpt lat="42.464210" lon="1.824301">
        <ele>2090.884</ele>
        <time>2019-05-30T12:27:03Z</time>
      </trkpt>
      <trkpt lat="42.464197" lon="1.824271">
        <ele>2090.822</ele>
        <time>2019-05-30T12:27:05Z</time>
      </trkpt>
      <trkpt lat="42.464159" lon="1.824165">
        <ele>2092.055</ele>
        <time>2019-05-30T12:27:12Z</time>
      </trkpt>
      <trkpt lat="42.464126" lon="1.824066">
        <ele>2092.649</ele>
        <time>2019-05-30T12:27:20Z</time>
      </trkpt>
      <trkpt lat="42.464118" lon="1.824037">
        <ele>2093.027</ele>
        <time>2019-05-30T12:27:22Z</time>
      </trkpt>
      <trkpt lat="42.464100" lon="1.823961">
        <ele>2093.492</ele>
        <time>2019-05-30T12:27:27Z</time>
      </trkpt>
      <trkpt lat="42.464072" lon="1.823877">
        <ele>2094.094</ele>
        <time>2019-05-30T12:27:34Z</time>
      </trkpt>
      <trkpt lat="42.464046" lon="1.823742">
        <ele>2094.857</ele>
        <time>2019-05-30T12:27:43Z</time>
      </trkpt>
      <trkpt lat="42.464041" lon="1.823725">
        <ele>2095.022</ele>
        <time>2019-05-30T12:27:44Z</time>
      </trkpt>
      <trkpt lat="42.464031" lon="1.823690">
        <ele>2095.208</ele>
        <time>2019-05-30T12:27:46Z</time>
      </trkpt>
      <trkpt lat="42.464020" lon="1.823646">
        <ele>2095.262</ele>
        <time>2019-05-30T12:27:49Z</time>
      </trkpt>
      <trkpt lat="42.464000" lon="1.823569">
        <ele>2095.876</ele>
        <time>2019-05-30T12:27:55Z</time>
      </trkpt>
      <trkpt lat="42.463993" lon="1.823534">
        <ele>2096.062</ele>
        <time>2019-05-30T12:27:57Z</time>
      </trkpt>
      <trkpt lat="42.463986" lon="1.823522">
        <ele>2096.280</ele>
        <time>2019-05-30T12:27:58Z</time>
      </trkpt>
      <trkpt lat="42.463987" lon="1.823476">
        <ele>2096.473</ele>
        <time>2019-05-30T12:28:01Z</time>
      </trkpt>
      <trkpt lat="42.463988" lon="1.823462">
        <ele>2096.457</ele>
        <time>2019-05-30T12:28:02Z</time>
      </trkpt>
      <trkpt lat="42.463959" lon="1.823369">
        <ele>2096.895</ele>
        <time>2019-05-30T12:28:08Z</time>
      </trkpt>
      <trkpt lat="42.463938" lon="1.823257">
        <ele>2097.450</ele>
        <time>2019-05-30T12:28:15Z</time>
      </trkpt>
      <trkpt lat="42.463932" lon="1.823240">
        <ele>2097.613</ele>
        <time>2019-05-30T12:28:16Z</time>
      </trkpt>
      <trkpt lat="42.463912" lon="1.823125">
        <ele>2098.643</ele>
        <time>2019-05-30T12:28:23Z</time>
      </trkpt>
      <trkpt lat="42.463903" lon="1.823093">
        <ele>2098.607</ele>
        <time>2019-05-30T12:28:25Z</time>
      </trkpt>
      <trkpt lat="42.463880" lon="1.822983">
        <ele>2099.408</ele>
        <time>2019-05-30T12:28:32Z</time>
      </trkpt>
      <trkpt lat="42.463868" lon="1.822939">
        <ele>2099.624</ele>
        <time>2019-05-30T12:28:35Z</time>
      </trkpt>
      <trkpt lat="42.463848" lon="1.822868">
        <ele>2100.088</ele>
        <time>2019-05-30T12:28:40Z</time>
      </trkpt>
      <trkpt lat="42.463829" lon="1.822762">
        <ele>2100.824</ele>
        <time>2019-05-30T12:28:47Z</time>
      </trkpt>
      <trkpt lat="42.463824" lon="1.822745">
        <ele>2100.872</ele>
        <time>2019-05-30T12:28:48Z</time>
      </trkpt>
      <trkpt lat="42.463793" lon="1.822633">
        <ele>2101.815</ele>
        <time>2019-05-30T12:28:56Z</time>
      </trkpt>
      <trkpt lat="42.463762" lon="1.822527">
        <ele>2103.039</ele>
        <time>2019-05-30T12:29:03Z</time>
      </trkpt>
      <trkpt lat="42.463751" lon="1.822493">
        <ele>2103.297</ele>
        <time>2019-05-30T12:29:06Z</time>
      </trkpt>
      <trkpt lat="42.463743" lon="1.822451">
        <ele>2103.462</ele>
        <time>2019-05-30T12:29:09Z</time>
      </trkpt>
      <trkpt lat="42.463720" lon="1.822359">
        <ele>2104.015</ele>
        <time>2019-05-30T12:29:15Z</time>
      </trkpt>
      <trkpt lat="42.463715" lon="1.822344">
        <ele>2104.065</ele>
        <time>2019-05-30T12:29:16Z</time>
      </trkpt>
      <trkpt lat="42.463685" lon="1.822225">
        <ele>2104.811</ele>
        <time>2019-05-30T12:29:24Z</time>
      </trkpt>
      <trkpt lat="42.463683" lon="1.822201">
        <ele>2105.008</ele>
        <time>2019-05-30T12:29:26Z</time>
      </trkpt>
      <trkpt lat="42.463659" lon="1.822127">
        <ele>2105.654</ele>
        <time>2019-05-30T12:29:31Z</time>
      </trkpt>
      <trkpt lat="42.463634" lon="1.822015">
        <ele>2106.078</ele>
        <time>2019-05-30T12:29:38Z</time>
      </trkpt>
      <trkpt lat="42.463631" lon="1.821973">
        <ele>2106.054</ele>
        <time>2019-05-30T12:29:41Z</time>
      </trkpt>
      <trkpt lat="42.463625" lon="1.821943">
        <ele>2106.212</ele>
        <time>2019-05-30T12:29:43Z</time>
      </trkpt>
      <trkpt lat="42.463616" lon="1.821915">
        <ele>2106.615</ele>
        <time>2019-05-30T12:29:45Z</time>
      </trkpt>
      <trkpt lat="42.463590" lon="1.821832">
        <ele>2106.879</ele>
        <time>2019-05-30T12:29:51Z</time>
      </trkpt>
      <trkpt lat="42.463567" lon="1.821725">
        <ele>2107.057</ele>
        <time>2019-05-30T12:29:58Z</time>
      </trkpt>
      <trkpt lat="42.463558" lon="1.821694">
        <ele>2107.032</ele>
        <time>2019-05-30T12:30:00Z</time>
      </trkpt>
      <trkpt lat="42.463535" lon="1.821583">
        <ele>2107.834</ele>
        <time>2019-05-30T12:30:07Z</time>
      </trkpt>
      <trkpt lat="42.463511" lon="1.821482">
        <ele>2108.255</ele>
        <time>2019-05-30T12:30:13Z</time>
      </trkpt>
      <trkpt lat="42.463504" lon="1.821450">
        <ele>2108.410</ele>
        <time>2019-05-30T12:30:15Z</time>
      </trkpt>
      <trkpt lat="42.463471" lon="1.821311">
        <ele>2109.208</ele>
        <time>2019-05-30T12:30:24Z</time>
      </trkpt>
      <trkpt lat="42.463468" lon="1.821291">
        <ele>2109.236</ele>
        <time>2019-05-30T12:30:25Z</time>
      </trkpt>
      <trkpt lat="42.463458" lon="1.821223">
        <ele>2109.610</ele>
        <time>2019-05-30T12:30:29Z</time>
      </trkpt>
      <trkpt lat="42.463449" lon="1.821179">
        <ele>2109.886</ele>
        <time>2019-05-30T12:30:32Z</time>
      </trkpt>
      <trkpt lat="42.463438" lon="1.821134">
        <ele>2110.274</ele>
        <time>2019-05-30T12:30:35Z</time>
      </trkpt>
      <trkpt lat="42.463427" lon="1.821080">
        <ele>2110.697</ele>
        <time>2019-05-30T12:30:39Z</time>
      </trkpt>
      <trkpt lat="42.463428" lon="1.821066">
        <ele>2110.891</ele>
        <time>2019-05-30T12:30:40Z</time>
      </trkpt>
      <trkpt lat="42.463416" lon="1.820995">
        <ele>2111.469</ele>
        <time>2019-05-30T12:30:44Z</time>
      </trkpt>
      <trkpt lat="42.463404" lon="1.820958">
        <ele>2112.284</ele>
        <time>2019-05-30T12:30:46Z</time>
      </trkpt>
      <trkpt lat="42.463400" lon="1.820938">
        <ele>2111.471</ele>
        <time>2019-05-30T12:30:47Z</time>
      </trkpt>
      <trkpt lat="42.463391" lon="1.820876">
        <ele>2114.441</ele>
        <time>2019-05-30T12:30:50Z</time>
      </trkpt>
      <trkpt lat="42.463378" lon="1.820821">
        <ele>2112.615</ele>
        <time>2019-05-30T12:30:53Z</time>
      </trkpt>
      <trkpt lat="42.463368" lon="1.820774">
        <ele>2112.808</ele>
        <time>2019-05-30T12:30:56Z</time>
      </trkpt>
      <trkpt lat="42.463352" lon="1.820666">
        <ele>2113.860</ele>
        <time>2019-05-30T12:31:03Z</time>
      </trkpt>
      <trkpt lat="42.463352" lon="1.820651">
        <ele>2113.884</ele>
        <time>2019-05-30T12:31:04Z</time>
      </trkpt>
      <trkpt lat="42.463329" lon="1.820550">
        <ele>2114.490</ele>
        <time>2019-05-30T12:31:11Z</time>
      </trkpt>
      <trkpt lat="42.463325" lon="1.820515">
        <ele>2114.668</ele>
        <time>2019-05-30T12:31:13Z</time>
      </trkpt>
      <trkpt lat="42.463320" lon="1.820464">
        <ele>2114.881</ele>
        <time>2019-05-30T12:31:16Z</time>
      </trkpt>
      <trkpt lat="42.463319" lon="1.820451">
        <ele>2114.855</ele>
        <time>2019-05-30T12:31:17Z</time>
      </trkpt>
      <trkpt lat="42.463315" lon="1.820436">
        <ele>2114.873</ele>
        <time>2019-05-30T12:31:18Z</time>
      </trkpt>
      <trkpt lat="42.463291" lon="1.820304">
        <ele>2115.498</ele>
        <time>2019-05-30T12:31:26Z</time>
      </trkpt>
      <trkpt lat="42.463271" lon="1.820188">
        <ele>2115.831</ele>
        <time>2019-05-30T12:31:33Z</time>
      </trkpt>
      <trkpt lat="42.463253" lon="1.820051">
        <ele>2116.661</ele>
        <time>2019-05-30T12:31:41Z</time>
      </trkpt>
      <trkpt lat="42.463236" lon="1.819950">
        <ele>2116.807</ele>
        <time>2019-05-30T12:31:47Z</time>
      </trkpt>
      <trkpt lat="42.463230" lon="1.819919">
        <ele>2117.008</ele>
        <time>2019-05-30T12:31:49Z</time>
      </trkpt>
      <trkpt lat="42.463229" lon="1.819902">
        <ele>2117.046</ele>
        <time>2019-05-30T12:31:50Z</time>
      </trkpt>
      <trkpt lat="42.463207" lon="1.819814">
        <ele>2117.630</ele>
        <time>2019-05-30T12:31:55Z</time>
      </trkpt>
      <trkpt lat="42.463201" lon="1.819781">
        <ele>2117.866</ele>
        <time>2019-05-30T12:31:57Z</time>
      </trkpt>
      <trkpt lat="42.463186" lon="1.819716">
        <ele>2118.034</ele>
        <time>2019-05-30T12:32:01Z</time>
      </trkpt>
      <trkpt lat="42.463176" lon="1.819684">
        <ele>2118.657</ele>
        <time>2019-05-30T12:32:03Z</time>
      </trkpt>
      <trkpt lat="42.463162" lon="1.819599">
        <ele>2119.081</ele>
        <time>2019-05-30T12:32:08Z</time>
      </trkpt>
      <trkpt lat="42.463151" lon="1.819550">
        <ele>2119.049</ele>
        <time>2019-05-30T12:32:11Z</time>
      </trkpt>
      <trkpt lat="42.463119" lon="1.819429">
        <ele>2119.844</ele>
        <time>2019-05-30T12:32:19Z</time>
      </trkpt>
      <trkpt lat="42.463098" lon="1.819345">
        <ele>2120.261</ele>
        <time>2019-05-30T12:32:24Z</time>
      </trkpt>
      <trkpt lat="42.463085" lon="1.819297">
        <ele>2120.421</ele>
        <time>2019-05-30T12:32:27Z</time>
      </trkpt>
      <trkpt lat="42.463054" lon="1.819179">
        <ele>2120.813</ele>
        <time>2019-05-30T12:32:34Z</time>
      </trkpt>
      <trkpt lat="42.463046" lon="1.819124">
        <ele>2121.208</ele>
        <time>2019-05-30T12:32:37Z</time>
      </trkpt>
      <trkpt lat="42.463046" lon="1.819018">
        <ele>2121.269</ele>
        <time>2019-05-30T12:32:43Z</time>
      </trkpt>
      <trkpt lat="42.463056" lon="1.818861">
        <ele>2122.013</ele>
        <time>2019-05-30T12:32:52Z</time>
      </trkpt>
      <trkpt lat="42.463057" lon="1.818841">
        <ele>2122.289</ele>
        <time>2019-05-30T12:32:53Z</time>
      </trkpt>
      <trkpt lat="42.463074" lon="1.818784">
        <ele>2123.257</ele>
        <time>2019-05-30T12:32:56Z</time>
      </trkpt>
      <trkpt lat="42.463093" lon="1.818730">
        <ele>2123.290</ele>
        <time>2019-05-30T12:32:59Z</time>
      </trkpt>
      <trkpt lat="42.463151" lon="1.818639">
        <ele>2124.434</ele>
        <time>2019-05-30T12:33:06Z</time>
      </trkpt>
      <trkpt lat="42.463173" lon="1.818608">
        <ele>2124.652</ele>
        <time>2019-05-30T12:33:08Z</time>
      </trkpt>
      <trkpt lat="42.463198" lon="1.818567">
        <ele>2124.867</ele>
        <time>2019-05-30T12:33:11Z</time>
      </trkpt>
      <trkpt lat="42.463229" lon="1.818513">
        <ele>2124.892</ele>
        <time>2019-05-30T12:33:15Z</time>
      </trkpt>
      <trkpt lat="42.463270" lon="1.818442">
        <ele>2125.673</ele>
        <time>2019-05-30T12:33:20Z</time>
      </trkpt>
      <trkpt lat="42.463279" lon="1.818429">
        <ele>2125.820</ele>
        <time>2019-05-30T12:33:21Z</time>
      </trkpt>
      <trkpt lat="42.463285" lon="1.818415">
        <ele>2126.008</ele>
        <time>2019-05-30T12:33:22Z</time>
      </trkpt>
      <trkpt lat="42.463304" lon="1.818384">
        <ele>2126.262</ele>
        <time>2019-05-30T12:33:25Z</time>
      </trkpt>
      <trkpt lat="42.463328" lon="1.818335">
        <ele>2126.836</ele>
        <time>2019-05-30T12:33:28Z</time>
      </trkpt>
      <trkpt lat="42.463336" lon="1.818320">
        <ele>2127.032</ele>
        <time>2019-05-30T12:33:29Z</time>
      </trkpt>
      <trkpt lat="42.463397" lon="1.818223">
        <ele>2127.470</ele>
        <time>2019-05-30T12:33:36Z</time>
      </trkpt>
      <trkpt lat="42.463404" lon="1.818192">
        <ele>2127.893</ele>
        <time>2019-05-30T12:33:38Z</time>
      </trkpt>
      <trkpt lat="42.463438" lon="1.818102">
        <ele>2128.227</ele>
        <time>2019-05-30T12:33:43Z</time>
      </trkpt>
      <trkpt lat="42.463475" lon="1.818012">
        <ele>2128.895</ele>
        <time>2019-05-30T12:33:49Z</time>
      </trkpt>
      <trkpt lat="42.463501" lon="1.817968">
        <ele>2129.070</ele>
        <time>2019-05-30T12:33:52Z</time>
      </trkpt>
      <trkpt lat="42.463547" lon="1.817844">
        <ele>2129.659</ele>
        <time>2019-05-30T12:34:00Z</time>
      </trkpt>
      <trkpt lat="42.463570" lon="1.817779">
        <ele>2130.003</ele>
        <time>2019-05-30T12:34:04Z</time>
      </trkpt>
      <trkpt lat="42.463587" lon="1.817732">
        <ele>2130.023</ele>
        <time>2019-05-30T12:34:07Z</time>
      </trkpt>
      <trkpt lat="42.463620" lon="1.817601">
        <ele>2130.408</ele>
        <time>2019-05-30T12:34:15Z</time>
      </trkpt>
      <trkpt lat="42.463632" lon="1.817529">
        <ele>2131.278</ele>
        <time>2019-05-30T12:34:19Z</time>
      </trkpt>
      <trkpt lat="42.463637" lon="1.817512">
        <ele>2131.292</ele>
        <time>2019-05-30T12:34:20Z</time>
      </trkpt>
      <trkpt lat="42.463643" lon="1.817480">
        <ele>2131.498</ele>
        <time>2019-05-30T12:34:22Z</time>
      </trkpt>
      <trkpt lat="42.463652" lon="1.817414">
        <ele>2132.426</ele>
        <time>2019-05-30T12:34:26Z</time>
      </trkpt>
      <trkpt lat="42.463655" lon="1.817397">
        <ele>2132.679</ele>
        <time>2019-05-30T12:34:27Z</time>
      </trkpt>
      <trkpt lat="42.463655" lon="1.817380">
        <ele>2132.823</ele>
        <time>2019-05-30T12:34:28Z</time>
      </trkpt>
      <trkpt lat="42.463659" lon="1.817350">
        <ele>2132.661</ele>
        <time>2019-05-30T12:34:30Z</time>
      </trkpt>
      <trkpt lat="42.463658" lon="1.817279">
        <ele>2133.286</ele>
        <time>2019-05-30T12:34:34Z</time>
      </trkpt>
      <trkpt lat="42.463665" lon="1.817245">
        <ele>2133.671</ele>
        <time>2019-05-30T12:34:36Z</time>
      </trkpt>
      <trkpt lat="42.463669" lon="1.817172">
        <ele>2134.841</ele>
        <time>2019-05-30T12:34:40Z</time>
      </trkpt>
      <trkpt lat="42.463676" lon="1.817029">
        <ele>2135.815</ele>
        <time>2019-05-30T12:34:48Z</time>
      </trkpt>
      <trkpt lat="42.463693" lon="1.816954">
        <ele>2135.808</ele>
        <time>2019-05-30T12:34:54Z</time>
      </trkpt>
      <trkpt lat="42.463681" lon="1.816871">
        <ele>2136.650</ele>
        <time>2019-05-30T12:36:11Z</time>
      </trkpt>
      <trkpt lat="42.463676" lon="1.816803">
        <ele>2136.654</ele>
        <time>2019-05-30T12:36:14Z</time>
      </trkpt>
      <trkpt lat="42.463672" lon="1.816782">
        <ele>2137.030</ele>
        <time>2019-05-30T12:36:15Z</time>
      </trkpt>
      <trkpt lat="42.463677" lon="1.816601">
        <ele>2138.288</ele>
        <time>2019-05-30T12:36:24Z</time>
      </trkpt>
      <trkpt lat="42.463677" lon="1.816580">
        <ele>2138.611</ele>
        <time>2019-05-30T12:36:25Z</time>
      </trkpt>
      <trkpt lat="42.463675" lon="1.816541">
        <ele>2139.255</ele>
        <time>2019-05-30T12:36:27Z</time>
      </trkpt>
      <trkpt lat="42.463674" lon="1.816501">
        <ele>2139.053</ele>
        <time>2019-05-30T12:36:29Z</time>
      </trkpt>
      <trkpt lat="42.463681" lon="1.816396">
        <ele>2139.698</ele>
        <time>2019-05-30T12:36:34Z</time>
      </trkpt>
      <trkpt lat="42.463676" lon="1.816211">
        <ele>2140.455</ele>
        <time>2019-05-30T12:36:42Z</time>
      </trkpt>
      <trkpt lat="42.463660" lon="1.816040">
        <ele>2141.207</ele>
        <time>2019-05-30T12:36:49Z</time>
      </trkpt>
      <trkpt lat="42.463656" lon="1.816017">
        <ele>2141.417</ele>
        <time>2019-05-30T12:36:50Z</time>
      </trkpt>
      <trkpt lat="42.463628" lon="1.815853">
        <ele>2140.608</ele>
        <time>2019-05-30T12:36:57Z</time>
      </trkpt>
      <trkpt lat="42.463614" lon="1.815782">
        <ele>2142.468</ele>
        <time>2019-05-30T12:37:00Z</time>
      </trkpt>
      <trkpt lat="42.463599" lon="1.815691">
        <ele>2143.042</ele>
        <time>2019-05-30T12:37:04Z</time>
      </trkpt>
      <trkpt lat="42.463567" lon="1.815563">
        <ele>2143.458</ele>
        <time>2019-05-30T12:37:10Z</time>
      </trkpt>
      <trkpt lat="42.463559" lon="1.815543">
        <ele>2143.656</ele>
        <time>2019-05-30T12:37:11Z</time>
      </trkpt>
      <trkpt lat="42.463530" lon="1.815392">
        <ele>2144.099</ele>
        <time>2019-05-30T12:37:18Z</time>
      </trkpt>
      <trkpt lat="42.463487" lon="1.815227">
        <ele>2144.613</ele>
        <time>2019-05-30T12:37:26Z</time>
      </trkpt>
      <trkpt lat="42.463492" lon="1.815205">
        <ele>2144.821</ele>
        <time>2019-05-30T12:37:27Z</time>
      </trkpt>
      <trkpt lat="42.463536" lon="1.815172">
        <ele>2145.446</ele>
        <time>2019-05-30T12:37:31Z</time>
      </trkpt>
      <trkpt lat="42.463552" lon="1.815213">
        <ele>2145.076</ele>
        <time>2019-05-30T12:37:34Z</time>
      </trkpt>
      <trkpt lat="42.463586" lon="1.815267">
        <ele>2144.690</ele>
        <time>2019-05-30T12:37:40Z</time>
      </trkpt>
      <trkpt lat="42.463604" lon="1.815279">
        <ele>2144.619</ele>
        <time>2019-05-30T12:37:41Z</time>
      </trkpt>
      <trkpt lat="42.463619" lon="1.815297">
        <ele>2144.608</ele>
        <time>2019-05-30T12:37:42Z</time>
      </trkpt>
      <trkpt lat="42.463700" lon="1.815371">
        <ele>2144.040</ele>
        <time>2019-05-30T12:37:46Z</time>
      </trkpt>
      <trkpt lat="42.463727" lon="1.815366">
        <ele>2143.644</ele>
        <time>2019-05-30T12:37:47Z</time>
      </trkpt>
      <trkpt lat="42.463783" lon="1.815340">
        <ele>2144.690</ele>
        <time>2019-05-30T12:37:52Z</time>
      </trkpt>
      <trkpt lat="42.463772" lon="1.815343">
        <ele>2144.868</ele>
        <time>2019-05-30T12:37:53Z</time>
      </trkpt>
      <trkpt lat="42.463761" lon="1.815345">
        <ele>2145.221</ele>
        <time>2019-05-30T12:37:55Z</time>
      </trkpt>
      <trkpt lat="42.463749" lon="1.815348">
        <ele>2145.865</ele>
        <time>2019-05-30T12:37:57Z</time>
      </trkpt>
      <trkpt lat="42.463738" lon="1.815350">
        <ele>2146.863</ele>
        <time>2019-05-30T12:37:59Z</time>
      </trkpt>
      <trkpt lat="42.463727" lon="1.815353">
        <ele>2144.638</ele>
        <time>2019-05-30T12:52:38Z</time>
      </trkpt>
      <trkpt lat="42.463716" lon="1.815355">
        <ele>2144.291</ele>
        <time>2019-05-30T12:52:39Z</time>
      </trkpt>
      <trkpt lat="42.463630" lon="1.815312">
        <ele>2143.281</ele>
        <time>2019-05-30T12:52:41Z</time>
      </trkpt>
      <trkpt lat="42.463615" lon="1.815280">
        <ele>2143.419</ele>
        <time>2019-05-30T12:52:42Z</time>
      </trkpt>
      <trkpt lat="42.463590" lon="1.815254">
        <ele>2144.008</ele>
        <time>2019-05-30T12:52:44Z</time>
      </trkpt>
      <trkpt lat="42.463566" lon="1.815235">
        <ele>2144.262</ele>
        <time>2019-05-30T12:52:46Z</time>
      </trkpt>
      <trkpt lat="42.463555" lon="1.815217">
        <ele>2144.286</ele>
        <time>2019-05-30T12:52:47Z</time>
      </trkpt>
      <trkpt lat="42.463477" lon="1.815151">
        <ele>2144.852</ele>
        <time>2019-05-30T12:52:52Z</time>
      </trkpt>
      <trkpt lat="42.463454" lon="1.815073">
        <ele>2144.820</ele>
        <time>2019-05-30T12:52:56Z</time>
      </trkpt>
      <trkpt lat="42.463423" lon="1.814961">
        <ele>2145.443</ele>
        <time>2019-05-30T12:53:01Z</time>
      </trkpt>
      <trkpt lat="42.463412" lon="1.814915">
        <ele>2145.497</ele>
        <time>2019-05-30T12:53:03Z</time>
      </trkpt>
      <trkpt lat="42.463394" lon="1.814844">
        <ele>2144.845</ele>
        <time>2019-05-30T12:53:06Z</time>
      </trkpt>
      <trkpt lat="42.463384" lon="1.814803">
        <ele>2145.270</ele>
        <time>2019-05-30T12:53:08Z</time>
      </trkpt>
      <trkpt lat="42.463377" lon="1.814782">
        <ele>2146.488</ele>
        <time>2019-05-30T12:53:09Z</time>
      </trkpt>
      <trkpt lat="42.463349" lon="1.814633">
        <ele>2146.824</ele>
        <time>2019-05-30T12:53:16Z</time>
      </trkpt>
      <trkpt lat="42.463317" lon="1.814492">
        <ele>2147.426</ele>
        <time>2019-05-30T12:53:23Z</time>
      </trkpt>
      <trkpt lat="42.463308" lon="1.814451">
        <ele>2146.408</ele>
        <time>2019-05-30T12:53:25Z</time>
      </trkpt>
      <trkpt lat="42.463281" lon="1.814344">
        <ele>2148.481</ele>
        <time>2019-05-30T12:53:30Z</time>
      </trkpt>
      <trkpt lat="42.463273" lon="1.814284">
        <ele>2148.455</ele>
        <time>2019-05-30T12:53:33Z</time>
      </trkpt>
      <trkpt lat="42.463232" lon="1.814121">
        <ele>2149.461</ele>
        <time>2019-05-30T12:53:42Z</time>
      </trkpt>
      <trkpt lat="42.463221" lon="1.814072">
        <ele>2149.679</ele>
        <time>2019-05-30T12:53:45Z</time>
      </trkpt>
      <trkpt lat="42.463210" lon="1.813977">
        <ele>2150.412</ele>
        <time>2019-05-30T12:53:50Z</time>
      </trkpt>
      <trkpt lat="42.463205" lon="1.813959">
        <ele>2150.626</ele>
        <time>2019-05-30T12:53:51Z</time>
      </trkpt>
      <trkpt lat="42.463162" lon="1.813774">
        <ele>2151.674</ele>
        <time>2019-05-30T12:54:02Z</time>
      </trkpt>
      <trkpt lat="42.463157" lon="1.813758">
        <ele>2151.689</ele>
        <time>2019-05-30T12:54:03Z</time>
      </trkpt>
      <trkpt lat="42.463135" lon="1.813639">
        <ele>2152.625</ele>
        <time>2019-05-30T12:54:10Z</time>
      </trkpt>
      <trkpt lat="42.463130" lon="1.813603">
        <ele>2152.826</ele>
        <time>2019-05-30T12:54:12Z</time>
      </trkpt>
      <trkpt lat="42.463089" lon="1.813471">
        <ele>2153.808</ele>
        <time>2019-05-30T12:54:20Z</time>
      </trkpt>
      <trkpt lat="42.463066" lon="1.813334">
        <ele>2154.608</ele>
        <time>2019-05-30T12:54:28Z</time>
      </trkpt>
      <trkpt lat="42.463054" lon="1.813301">
        <ele>2155.075</ele>
        <time>2019-05-30T12:54:30Z</time>
      </trkpt>
      <trkpt lat="42.463027" lon="1.813163">
        <ele>2155.649</ele>
        <time>2019-05-30T12:54:38Z</time>
      </trkpt>
      <trkpt lat="42.463019" lon="1.813114">
        <ele>2156.255</ele>
        <time>2019-05-30T12:54:41Z</time>
      </trkpt>
      <trkpt lat="42.463001" lon="1.813020">
        <ele>2156.843</ele>
        <time>2019-05-30T12:54:47Z</time>
      </trkpt>
      <trkpt lat="42.462985" lon="1.812957">
        <ele>2157.276</ele>
        <time>2019-05-30T12:54:51Z</time>
      </trkpt>
      <trkpt lat="42.462960" lon="1.812864">
        <ele>2158.090</ele>
        <time>2019-05-30T12:54:57Z</time>
      </trkpt>
      <trkpt lat="42.462949" lon="1.812814">
        <ele>2158.488</ele>
        <time>2019-05-30T12:55:00Z</time>
      </trkpt>
      <trkpt lat="42.462928" lon="1.812738">
        <ele>2159.063</ele>
        <time>2019-05-30T12:55:05Z</time>
      </trkpt>
      <trkpt lat="42.462915" lon="1.812670">
        <ele>2159.457</ele>
        <time>2019-05-30T12:55:09Z</time>
      </trkpt>
      <trkpt lat="42.462902" lon="1.812589">
        <ele>2160.200</ele>
        <time>2019-05-30T12:55:14Z</time>
      </trkpt>
      <trkpt lat="42.462889" lon="1.812547">
        <ele>2160.620</ele>
        <time>2019-05-30T12:55:17Z</time>
      </trkpt>
      <trkpt lat="42.462869" lon="1.812465">
        <ele>2161.408</ele>
        <time>2019-05-30T12:55:22Z</time>
      </trkpt>
      <trkpt lat="42.462869" lon="1.812415">
        <ele>2161.678</ele>
        <time>2019-05-30T12:55:25Z</time>
      </trkpt>
      <trkpt lat="42.462855" lon="1.812355">
        <ele>2162.212</ele>
        <time>2019-05-30T12:55:29Z</time>
      </trkpt>
      <trkpt lat="42.462833" lon="1.812286">
        <ele>2162.618</ele>
        <time>2019-05-30T12:55:33Z</time>
      </trkpt>
      <trkpt lat="42.462821" lon="1.812201">
        <ele>2163.236</ele>
        <time>2019-05-30T12:55:38Z</time>
      </trkpt>
      <trkpt lat="42.462805" lon="1.812140">
        <ele>2163.839</ele>
        <time>2019-05-30T12:55:42Z</time>
      </trkpt>
      <trkpt lat="42.462787" lon="1.812043">
        <ele>2164.493</ele>
        <time>2019-05-30T12:55:48Z</time>
      </trkpt>
      <trkpt lat="42.462778" lon="1.812014">
        <ele>2165.071</ele>
        <time>2019-05-30T12:55:50Z</time>
      </trkpt>
      <trkpt lat="42.462760" lon="1.811915">
        <ele>2165.656</ele>
        <time>2019-05-30T12:55:56Z</time>
      </trkpt>
      <trkpt lat="42.462745" lon="1.811848">
        <ele>2166.043</ele>
        <time>2019-05-30T12:56:00Z</time>
      </trkpt>
      <trkpt lat="42.462742" lon="1.811815">
        <ele>2166.264</ele>
        <time>2019-05-30T12:56:02Z</time>
      </trkpt>
      <trkpt lat="42.462732" lon="1.811760">
        <ele>2166.810</ele>
        <time>2019-05-30T12:56:05Z</time>
      </trkpt>
      <trkpt lat="42.462718" lon="1.811710">
        <ele>2167.008</ele>
        <time>2019-05-30T12:56:08Z</time>
      </trkpt>
      <trkpt lat="42.462691" lon="1.811609">
        <ele>2167.827</ele>
        <time>2019-05-30T12:56:14Z</time>
      </trkpt>
      <trkpt lat="42.462679" lon="1.811558">
        <ele>2168.461</ele>
        <time>2019-05-30T12:56:17Z</time>
      </trkpt>
      <trkpt lat="42.462656" lon="1.811447">
        <ele>2169.037</ele>
        <time>2019-05-30T12:56:23Z</time>
      </trkpt>
      <trkpt lat="42.462641" lon="1.811398">
        <ele>2169.495</ele>
        <time>2019-05-30T12:56:26Z</time>
      </trkpt>
      <trkpt lat="42.462616" lon="1.811268">
        <ele>2170.088</ele>
        <time>2019-05-30T12:56:33Z</time>
      </trkpt>
      <trkpt lat="42.462592" lon="1.811193">
        <ele>2170.452</ele>
        <time>2019-05-30T12:56:37Z</time>
      </trkpt>
      <trkpt lat="42.462579" lon="1.811136">
        <ele>2170.210</ele>
        <time>2019-05-30T12:56:40Z</time>
      </trkpt>
      <trkpt lat="42.462556" lon="1.811071">
        <ele>2171.435</ele>
        <time>2019-05-30T12:56:44Z</time>
      </trkpt>
      <trkpt lat="42.462529" lon="1.810993">
        <ele>2171.868</ele>
        <time>2019-05-30T12:56:49Z</time>
      </trkpt>
      <trkpt lat="42.462477" lon="1.810856">
        <ele>2172.442</ele>
        <time>2019-05-30T12:56:57Z</time>
      </trkpt>
      <trkpt lat="42.462472" lon="1.810839">
        <ele>2172.626</ele>
        <time>2019-05-30T12:56:58Z</time>
      </trkpt>
      <trkpt lat="42.462443" lon="1.810759">
        <ele>2174.208</ele>
        <time>2019-05-30T12:57:03Z</time>
      </trkpt>
      <trkpt lat="42.462427" lon="1.810709">
        <ele>2174.859</ele>
        <time>2019-05-30T12:57:06Z</time>
      </trkpt>
      <trkpt lat="42.462379" lon="1.810579">
        <ele>2174.843</ele>
        <time>2019-05-30T12:57:14Z</time>
      </trkpt>
      <trkpt lat="42.462355" lon="1.810515">
        <ele>2175.279</ele>
        <time>2019-05-30T12:57:18Z</time>
      </trkpt>
      <trkpt lat="42.462302" lon="1.810367">
        <ele>2175.637</ele>
        <time>2019-05-30T12:57:26Z</time>
      </trkpt>
      <trkpt lat="42.462270" lon="1.810264">
        <ele>2176.420</ele>
        <time>2019-05-30T12:57:32Z</time>
      </trkpt>
      <trkpt lat="42.462257" lon="1.810230">
        <ele>2176.494</ele>
        <time>2019-05-30T12:57:34Z</time>
      </trkpt>
      <trkpt lat="42.462191" lon="1.810071">
        <ele>2176.872</ele>
        <time>2019-05-30T12:57:44Z</time>
      </trkpt>
      <trkpt lat="42.462122" lon="1.809901">
        <ele>2177.497</ele>
        <time>2019-05-30T12:57:54Z</time>
      </trkpt>
      <trkpt lat="42.462061" lon="1.809773">
        <ele>2178.286</ele>
        <time>2019-05-30T12:58:01Z</time>
      </trkpt>
      <trkpt lat="42.461988" lon="1.809599">
        <ele>2178.460</ele>
        <time>2019-05-30T12:58:10Z</time>
      </trkpt>
      <trkpt lat="42.461898" lon="1.809395">
        <ele>2179.226</ele>
        <time>2019-05-30T12:58:21Z</time>
      </trkpt>
      <trkpt lat="42.461845" lon="1.809259">
        <ele>2179.608</ele>
        <time>2019-05-30T12:58:28Z</time>
      </trkpt>
      <trkpt lat="42.461818" lon="1.809195">
        <ele>2180.091</ele>
        <time>2019-05-30T12:58:31Z</time>
      </trkpt>
      <trkpt lat="42.461779" lon="1.809097">
        <ele>2180.615</ele>
        <time>2019-05-30T12:58:36Z</time>
      </trkpt>
      <trkpt lat="42.461739" lon="1.809000">
        <ele>2180.631</ele>
        <time>2019-05-30T12:58:41Z</time>
      </trkpt>
      <trkpt lat="42.461661" lon="1.808802">
        <ele>2181.899</ele>
        <time>2019-05-30T12:58:51Z</time>
      </trkpt>
      <trkpt lat="42.461606" lon="1.808655">
        <ele>2182.292</ele>
        <time>2019-05-30T12:58:58Z</time>
      </trkpt>
      <trkpt lat="42.461559" lon="1.808529">
        <ele>2182.896</ele>
        <time>2019-05-30T12:59:04Z</time>
      </trkpt>
      <trkpt lat="42.461543" lon="1.808488">
        <ele>2183.284</ele>
        <time>2019-05-30T12:59:06Z</time>
      </trkpt>
      <trkpt lat="42.461518" lon="1.808422">
        <ele>2183.849</ele>
        <time>2019-05-30T12:59:09Z</time>
      </trkpt>
      <trkpt lat="42.461494" lon="1.808347">
        <ele>2182.685</ele>
        <time>2019-05-30T12:59:12Z</time>
      </trkpt>
      <trkpt lat="42.461478" lon="1.808295">
        <ele>2182.489</ele>
        <time>2019-05-30T12:59:14Z</time>
      </trkpt>
      <trkpt lat="42.461411" lon="1.808138">
        <ele>2183.817</ele>
        <time>2019-05-30T12:59:21Z</time>
      </trkpt>
      <trkpt lat="42.461393" lon="1.808090">
        <ele>2184.208</ele>
        <time>2019-05-30T12:59:23Z</time>
      </trkpt>
      <trkpt lat="42.461329" lon="1.807912">
        <ele>2184.081</ele>
        <time>2019-05-30T12:59:31Z</time>
      </trkpt>
      <trkpt lat="42.461316" lon="1.807823">
        <ele>2184.845</ele>
        <time>2019-05-30T12:59:35Z</time>
      </trkpt>
      <trkpt lat="42.461304" lon="1.807728">
        <ele>2185.051</ele>
        <time>2019-05-30T12:59:39Z</time>
      </trkpt>
      <trkpt lat="42.461263" lon="1.807505">
        <ele>2186.079</ele>
        <time>2019-05-30T12:59:48Z</time>
      </trkpt>
      <trkpt lat="42.461252" lon="1.807454">
        <ele>2186.232</ele>
        <time>2019-05-30T12:59:50Z</time>
      </trkpt>
      <trkpt lat="42.461219" lon="1.807329">
        <ele>2186.026</ele>
        <time>2019-05-30T12:59:55Z</time>
      </trkpt>
      <trkpt lat="42.461179" lon="1.807162">
        <ele>2186.074</ele>
        <time>2019-05-30T13:00:01Z</time>
      </trkpt>
      <trkpt lat="42.461136" lon="1.806960">
        <ele>2186.439</ele>
        <time>2019-05-30T13:00:08Z</time>
      </trkpt>
      <trkpt lat="42.461131" lon="1.806899">
        <ele>2186.441</ele>
        <time>2019-05-30T13:00:10Z</time>
      </trkpt>
      <trkpt lat="42.461121" lon="1.806841">
        <ele>2187.281</ele>
        <time>2019-05-30T13:00:12Z</time>
      </trkpt>
      <trkpt lat="42.461098" lon="1.806707">
        <ele>2187.209</ele>
        <time>2019-05-30T13:00:16Z</time>
      </trkpt>
      <trkpt lat="42.461062" lon="1.806501">
        <ele>2187.808</ele>
        <time>2019-05-30T13:00:22Z</time>
      </trkpt>
      <trkpt lat="42.461024" lon="1.806303">
        <ele>2187.817</ele>
        <time>2019-05-30T13:00:27Z</time>
      </trkpt>
      <trkpt lat="42.461014" lon="1.806216">
        <ele>2188.241</ele>
        <time>2019-05-30T13:00:29Z</time>
      </trkpt>
      <trkpt lat="42.460975" lon="1.806063">
        <ele>2188.467</ele>
        <time>2019-05-30T13:00:33Z</time>
      </trkpt>
      <trkpt lat="42.460911" lon="1.805774">
        <ele>2188.245</ele>
        <time>2019-05-30T13:00:40Z</time>
      </trkpt>
      <trkpt lat="42.460852" lon="1.805588">
        <ele>2188.428</ele>
        <time>2019-05-30T13:00:45Z</time>
      </trkpt>
      <trkpt lat="42.460747" lon="1.805282">
        <ele>2188.642</ele>
        <time>2019-05-30T13:00:53Z</time>
      </trkpt>
      <trkpt lat="42.460607" lon="1.804919">
        <ele>2188.210</ele>
        <time>2019-05-30T13:01:03Z</time>
      </trkpt>
      <trkpt lat="42.460513" lon="1.804661">
        <ele>2187.845</ele>
        <time>2019-05-30T13:01:10Z</time>
      </trkpt>
      <trkpt lat="42.460421" lon="1.804465">
        <ele>2187.292</ele>
        <time>2019-05-30T13:01:15Z</time>
      </trkpt>
      <trkpt lat="42.460378" lon="1.804394">
        <ele>2186.873</ele>
        <time>2019-05-30T13:01:17Z</time>
      </trkpt>
      <trkpt lat="42.460355" lon="1.804359">
        <ele>2185.820</ele>
        <time>2019-05-30T13:01:18Z</time>
      </trkpt>
      <trkpt lat="42.460295" lon="1.804250">
        <ele>2187.008</ele>
        <time>2019-05-30T13:01:21Z</time>
      </trkpt>
      <trkpt lat="42.460274" lon="1.804216">
        <ele>2185.842</ele>
        <time>2019-05-30T13:01:22Z</time>
      </trkpt>
      <trkpt lat="42.460235" lon="1.804142">
        <ele>2185.826</ele>
        <time>2019-05-30T13:01:24Z</time>
      </trkpt>
      <trkpt lat="42.460107" lon="1.803906">
        <ele>2187.472</ele>
        <time>2019-05-30T13:01:30Z</time>
      </trkpt>
      <trkpt lat="42.460084" lon="1.803865">
        <ele>2186.440</ele>
        <time>2019-05-30T13:01:31Z</time>
      </trkpt>
      <trkpt lat="42.460032" lon="1.803777">
        <ele>2186.023</ele>
        <time>2019-05-30T13:01:33Z</time>
      </trkpt>
      <trkpt lat="42.459974" lon="1.803680">
        <ele>2185.057</ele>
        <time>2019-05-30T13:01:35Z</time>
      </trkpt>
      <trkpt lat="42.459859" lon="1.803477">
        <ele>2183.835</ele>
        <time>2019-05-30T13:01:39Z</time>
      </trkpt>
      <trkpt lat="42.459669" lon="1.803160">
        <ele>2183.040</ele>
        <time>2019-05-30T13:01:45Z</time>
      </trkpt>
      <trkpt lat="42.459562" lon="1.803002">
        <ele>2182.691</ele>
        <time>2019-05-30T13:01:48Z</time>
      </trkpt>
      <trkpt lat="42.459453" lon="1.802827">
        <ele>2182.481</ele>
        <time>2019-05-30T13:01:51Z</time>
      </trkpt>
      <trkpt lat="42.459412" lon="1.802767">
        <ele>2181.819</ele>
        <time>2019-05-30T13:01:52Z</time>
      </trkpt>
      <trkpt lat="42.459370" lon="1.802712">
        <ele>2181.208</ele>
        <time>2019-05-30T13:01:53Z</time>
      </trkpt>
      <trkpt lat="42.459200" lon="1.802481">
        <ele>2179.882</ele>
        <time>2019-05-30T13:01:57Z</time>
      </trkpt>
      <trkpt lat="42.459152" lon="1.802422">
        <ele>2179.086</ele>
        <time>2019-05-30T13:01:58Z</time>
      </trkpt>
      <trkpt lat="42.459101" lon="1.802368">
        <ele>2177.642</ele>
        <time>2019-05-30T13:01:59Z</time>
      </trkpt>
      <trkpt lat="42.459055" lon="1.802315">
        <ele>2176.480</ele>
        <time>2019-05-30T13:02:00Z</time>
      </trkpt>
      <trkpt lat="42.459009" lon="1.802261">
        <ele>2175.293</ele>
        <time>2019-05-30T13:02:01Z</time>
      </trkpt>
      <trkpt lat="42.458910" lon="1.802165">
        <ele>2175.437</ele>
        <time>2019-05-30T13:02:03Z</time>
      </trkpt>
      <trkpt lat="42.458855" lon="1.802124">
        <ele>2175.895</ele>
        <time>2019-05-30T13:02:04Z</time>
      </trkpt>
      <trkpt lat="42.458619" lon="1.801999">
        <ele>2176.070</ele>
        <time>2019-05-30T13:02:08Z</time>
      </trkpt>
      <trkpt lat="42.458559" lon="1.801978">
        <ele>2175.823</ele>
        <time>2019-05-30T13:02:09Z</time>
      </trkpt>
      <trkpt lat="42.458441" lon="1.801954">
        <ele>2175.683</ele>
        <time>2019-05-30T13:02:11Z</time>
      </trkpt>
      <trkpt lat="42.458327" lon="1.801949">
        <ele>2176.011</ele>
        <time>2019-05-30T13:02:13Z</time>
      </trkpt>
      <trkpt lat="42.458272" lon="1.801966">
        <ele>2175.808</ele>
        <time>2019-05-30T13:02:14Z</time>
      </trkpt>
      <trkpt lat="42.457978" lon="1.802143">
        <ele>2174.235</ele>
        <time>2019-05-30T13:02:19Z</time>
      </trkpt>
      <trkpt lat="42.457854" lon="1.802245">
        <ele>2173.259</ele>
        <time>2019-05-30T13:02:21Z</time>
      </trkpt>
      <trkpt lat="42.457552" lon="1.802506">
        <ele>2172.865</ele>
        <time>2019-05-30T13:02:26Z</time>
      </trkpt>
      <trkpt lat="42.457430" lon="1.802604">
        <ele>2171.483</ele>
        <time>2019-05-30T13:02:28Z</time>
      </trkpt>
      <trkpt lat="42.457202" lon="1.802830">
        <ele>2170.446</ele>
        <time>2019-05-30T13:02:32Z</time>
      </trkpt>
      <trkpt lat="42.456831" lon="1.803200">
        <ele>2169.810</ele>
        <time>2019-05-30T13:02:39Z</time>
      </trkpt>
      <trkpt lat="42.456575" lon="1.803433">
        <ele>2169.288</ele>
        <time>2019-05-30T13:02:44Z</time>
      </trkpt>
      <trkpt lat="42.456526" lon="1.803474">
        <ele>2168.843</ele>
        <time>2019-05-30T13:02:45Z</time>
      </trkpt>
      <trkpt lat="42.456015" lon="1.803839">
        <ele>2168.637</ele>
        <time>2019-05-30T13:02:55Z</time>
      </trkpt>
      <trkpt lat="42.455666" lon="1.804084">
        <ele>2168.249</ele>
        <time>2019-05-30T13:03:02Z</time>
      </trkpt>
      <trkpt lat="42.455186" lon="1.804357">
        <ele>2167.213</ele>
        <time>2019-05-30T13:03:11Z</time>
      </trkpt>
      <trkpt lat="42.455127" lon="1.804375">
        <ele>2166.808</ele>
        <time>2019-05-30T13:03:12Z</time>
      </trkpt>
      <trkpt lat="42.454828" lon="1.804445">
        <ele>2165.856</ele>
        <time>2019-05-30T13:03:17Z</time>
      </trkpt>
      <trkpt lat="42.454765" lon="1.804459">
        <ele>2166.020</ele>
        <time>2019-05-30T13:03:18Z</time>
      </trkpt>
      <trkpt lat="42.454524" lon="1.804497">
        <ele>2166.286</ele>
        <time>2019-05-30T13:03:22Z</time>
      </trkpt>
      <trkpt lat="42.454412" lon="1.804502">
        <ele>2166.424</ele>
        <time>2019-05-30T13:03:24Z</time>
      </trkpt>
      <trkpt lat="42.454111" lon="1.804495">
        <ele>2167.027</ele>
        <time>2019-05-30T13:03:30Z</time>
      </trkpt>
      <trkpt lat="42.454065" lon="1.804489">
        <ele>2167.041</ele>
        <time>2019-05-30T13:03:31Z</time>
      </trkpt>
      <trkpt lat="42.453807" lon="1.804495">
        <ele>2167.459</ele>
        <time>2019-05-30T13:03:37Z</time>
      </trkpt>
      <trkpt lat="42.453600" lon="1.804486">
        <ele>2168.034</ele>
        <time>2019-05-30T13:03:42Z</time>
      </trkpt>
      <trkpt lat="42.453521" lon="1.804476">
        <ele>2168.851</ele>
        <time>2019-05-30T13:03:44Z</time>
      </trkpt>
      <trkpt lat="42.453446" lon="1.804468">
        <ele>2169.201</ele>
        <time>2019-05-30T13:03:46Z</time>
      </trkpt>
      <trkpt lat="42.453305" lon="1.804432">
        <ele>2170.411</ele>
        <time>2019-05-30T13:03:50Z</time>
      </trkpt>
      <trkpt lat="42.453237" lon="1.804403">
        <ele>2171.008</ele>
        <time>2019-05-30T13:03:52Z</time>
      </trkpt>
      <trkpt lat="42.453202" lon="1.804387">
        <ele>2171.478</ele>
        <time>2019-05-30T13:03:53Z</time>
      </trkpt>
      <trkpt lat="42.453052" lon="1.804294">
        <ele>2171.252</ele>
        <time>2019-05-30T13:03:58Z</time>
      </trkpt>
      <trkpt lat="42.452871" lon="1.804225">
        <ele>2171.288</ele>
        <time>2019-05-30T13:04:04Z</time>
      </trkpt>
      <trkpt lat="42.452629" lon="1.804209">
        <ele>2171.856</ele>
        <time>2019-05-30T13:04:12Z</time>
      </trkpt>
      <trkpt lat="42.452454" lon="1.804243">
        <ele>2171.679</ele>
        <time>2019-05-30T13:04:18Z</time>
      </trkpt>
      <trkpt lat="42.452250" lon="1.804315">
        <ele>2171.083</ele>
        <time>2019-05-30T13:04:24Z</time>
      </trkpt>
      <trkpt lat="42.452061" lon="1.804420">
        <ele>2170.651</ele>
        <time>2019-05-30T13:04:29Z</time>
      </trkpt>
      <trkpt lat="42.452018" lon="1.804453">
        <ele>2170.256</ele>
        <time>2019-05-30T13:04:30Z</time>
      </trkpt>
      <trkpt lat="42.451942" lon="1.804519">
        <ele>2169.453</ele>
        <time>2019-05-30T13:04:32Z</time>
      </trkpt>
      <trkpt lat="42.451905" lon="1.804555">
        <ele>2169.004</ele>
        <time>2019-05-30T13:04:33Z</time>
      </trkpt>
      <trkpt lat="42.451797" lon="1.804678">
        <ele>2168.414</ele>
        <time>2019-05-30T13:04:36Z</time>
      </trkpt>
      <trkpt lat="42.451734" lon="1.804772">
        <ele>2168.008</ele>
        <time>2019-05-30T13:04:38Z</time>
      </trkpt>
      <trkpt lat="42.451646" lon="1.804936">
        <ele>2166.858</ele>
        <time>2019-05-30T13:04:41Z</time>
      </trkpt>
      <trkpt lat="42.451617" lon="1.804994">
        <ele>2166.012</ele>
        <time>2019-05-30T13:04:42Z</time>
      </trkpt>
      <trkpt lat="42.451588" lon="1.805054">
        <ele>2165.868</ele>
        <time>2019-05-30T13:04:43Z</time>
      </trkpt>
      <trkpt lat="42.451495" lon="1.805237">
        <ele>2164.436</ele>
        <time>2019-05-30T13:04:46Z</time>
      </trkpt>
      <trkpt lat="42.451399" lon="1.805437">
        <ele>2163.059</ele>
        <time>2019-05-30T13:04:49Z</time>
      </trkpt>
      <trkpt lat="42.451304" lon="1.805646">
        <ele>2161.853</ele>
        <time>2019-05-30T13:04:52Z</time>
      </trkpt>
      <trkpt lat="42.451192" lon="1.805862">
        <ele>2160.271</ele>
        <time>2019-05-30T13:04:55Z</time>
      </trkpt>
      <trkpt lat="42.451155" lon="1.805933">
        <ele>2159.436</ele>
        <time>2019-05-30T13:04:56Z</time>
      </trkpt>
      <trkpt lat="42.451118" lon="1.806008">
        <ele>2158.856</ele>
        <time>2019-05-30T13:04:57Z</time>
      </trkpt>
      <trkpt lat="42.451008" lon="1.806252">
        <ele>2157.459</ele>
        <time>2019-05-30T13:05:00Z</time>
      </trkpt>
      <trkpt lat="42.450930" lon="1.806427">
        <ele>2155.814</ele>
        <time>2019-05-30T13:05:02Z</time>
      </trkpt>
      <trkpt lat="42.450814" lon="1.806698">
        <ele>2154.608</ele>
        <time>2019-05-30T13:05:05Z</time>
      </trkpt>
      <trkpt lat="42.450774" lon="1.806787">
        <ele>2152.828</ele>
        <time>2019-05-30T13:05:06Z</time>
      </trkpt>
      <trkpt lat="42.450697" lon="1.806961">
        <ele>2151.892</ele>
        <time>2019-05-30T13:05:08Z</time>
      </trkpt>
      <trkpt lat="42.450659" lon="1.807045">
        <ele>2151.488</ele>
        <time>2019-05-30T13:05:09Z</time>
      </trkpt>
      <trkpt lat="42.450585" lon="1.807206">
        <ele>2150.416</ele>
        <time>2019-05-30T13:05:11Z</time>
      </trkpt>
      <trkpt lat="42.450513" lon="1.807360">
        <ele>2149.249</ele>
        <time>2019-05-30T13:05:13Z</time>
      </trkpt>
      <trkpt lat="42.450406" lon="1.807579">
        <ele>2148.273</ele>
        <time>2019-05-30T13:05:16Z</time>
      </trkpt>
      <trkpt lat="42.450374" lon="1.807640">
        <ele>2148.051</ele>
        <time>2019-05-30T13:05:17Z</time>
      </trkpt>
      <trkpt lat="42.450257" lon="1.807888">
        <ele>2146.696</ele>
        <time>2019-05-30T13:05:21Z</time>
      </trkpt>
      <trkpt lat="42.450230" lon="1.807957">
        <ele>2146.071</ele>
        <time>2019-05-30T13:05:22Z</time>
      </trkpt>
      <trkpt lat="42.450186" lon="1.808101">
        <ele>2145.441</ele>
        <time>2019-05-30T13:05:24Z</time>
      </trkpt>
      <trkpt lat="42.450170" lon="1.808174">
        <ele>2144.815</ele>
        <time>2019-05-30T13:05:25Z</time>
      </trkpt>
      <trkpt lat="42.450155" lon="1.808246">
        <ele>2144.408</ele>
        <time>2019-05-30T13:05:26Z</time>
      </trkpt>
      <trkpt lat="42.450124" lon="1.808460">
        <ele>2143.030</ele>
        <time>2019-05-30T13:05:29Z</time>
      </trkpt>
      <trkpt lat="42.450117" lon="1.808531">
        <ele>2141.824</ele>
        <time>2019-05-30T13:05:30Z</time>
      </trkpt>
      <trkpt lat="42.450100" lon="1.808743">
        <ele>2140.870</ele>
        <time>2019-05-30T13:05:33Z</time>
      </trkpt>
      <trkpt lat="42.450095" lon="1.808887">
        <ele>2139.478</ele>
        <time>2019-05-30T13:05:35Z</time>
      </trkpt>
      <trkpt lat="42.450096" lon="1.809111">
        <ele>2138.251</ele>
        <time>2019-05-30T13:05:38Z</time>
      </trkpt>
      <trkpt lat="42.450107" lon="1.809266">
        <ele>2136.815</ele>
        <time>2019-05-30T13:05:40Z</time>
      </trkpt>
      <trkpt lat="42.450135" lon="1.809496">
        <ele>2135.823</ele>
        <time>2019-05-30T13:05:43Z</time>
      </trkpt>
      <trkpt lat="42.450155" lon="1.809655">
        <ele>2134.818</ele>
        <time>2019-05-30T13:05:45Z</time>
      </trkpt>
      <trkpt lat="42.450164" lon="1.809735">
        <ele>2134.485</ele>
        <time>2019-05-30T13:05:46Z</time>
      </trkpt>
      <trkpt lat="42.450183" lon="1.809896">
        <ele>2133.089</ele>
        <time>2019-05-30T13:05:48Z</time>
      </trkpt>
      <trkpt lat="42.450204" lon="1.810053">
        <ele>2131.817</ele>
        <time>2019-05-30T13:05:50Z</time>
      </trkpt>
      <trkpt lat="42.450222" lon="1.810218">
        <ele>2130.808</ele>
        <time>2019-05-30T13:05:52Z</time>
      </trkpt>
      <trkpt lat="42.450239" lon="1.810375">
        <ele>2129.691</ele>
        <time>2019-05-30T13:05:54Z</time>
      </trkpt>
      <trkpt lat="42.450263" lon="1.810615">
        <ele>2128.425</ele>
        <time>2019-05-30T13:05:57Z</time>
      </trkpt>
      <trkpt lat="42.450282" lon="1.810759">
        <ele>2127.661</ele>
        <time>2019-05-30T13:05:59Z</time>
      </trkpt>
      <trkpt lat="42.450309" lon="1.810913">
        <ele>2126.689</ele>
        <time>2019-05-30T13:06:01Z</time>
      </trkpt>
      <trkpt lat="42.450346" lon="1.811055">
        <ele>2125.652</ele>
        <time>2019-05-30T13:06:03Z</time>
      </trkpt>
      <trkpt lat="42.450370" lon="1.811123">
        <ele>2125.286</ele>
        <time>2019-05-30T13:06:04Z</time>
      </trkpt>
      <trkpt lat="42.450423" lon="1.811260">
        <ele>2124.434</ele>
        <time>2019-05-30T13:06:06Z</time>
      </trkpt>
      <trkpt lat="42.450512" lon="1.811457">
        <ele>2123.059</ele>
        <time>2019-05-30T13:06:09Z</time>
      </trkpt>
      <trkpt lat="42.450569" lon="1.811586">
        <ele>2121.661</ele>
        <time>2019-05-30T13:06:11Z</time>
      </trkpt>
      <trkpt lat="42.450598" lon="1.811653">
        <ele>2121.221</ele>
        <time>2019-05-30T13:06:12Z</time>
      </trkpt>
      <trkpt lat="42.450625" lon="1.811718">
        <ele>2120.613</ele>
        <time>2019-05-30T13:06:13Z</time>
      </trkpt>
      <trkpt lat="42.450701" lon="1.811912">
        <ele>2119.008</ele>
        <time>2019-05-30T13:06:16Z</time>
      </trkpt>
      <trkpt lat="42.450779" lon="1.812097">
        <ele>2117.829</ele>
        <time>2019-05-30T13:06:19Z</time>
      </trkpt>
      <trkpt lat="42.450829" lon="1.812220">
        <ele>2116.213</ele>
        <time>2019-05-30T13:06:21Z</time>
      </trkpt>
      <trkpt lat="42.450960" lon="1.812513">
        <ele>2115.489</ele>
        <time>2019-05-30T13:06:26Z</time>
      </trkpt>
      <trkpt lat="42.451025" lon="1.812613">
        <ele>2115.047</ele>
        <time>2019-05-30T13:06:28Z</time>
      </trkpt>
      <trkpt lat="42.451101" lon="1.812707">
        <ele>2114.020</ele>
        <time>2019-05-30T13:06:30Z</time>
      </trkpt>
      <trkpt lat="42.451140" lon="1.812750">
        <ele>2113.694</ele>
        <time>2019-05-30T13:06:31Z</time>
      </trkpt>
      <trkpt lat="42.451178" lon="1.812788">
        <ele>2113.412</ele>
        <time>2019-05-30T13:06:32Z</time>
      </trkpt>
      <trkpt lat="42.451293" lon="1.812896">
        <ele>2112.457</ele>
        <time>2019-05-30T13:06:35Z</time>
      </trkpt>
      <trkpt lat="42.451356" lon="1.812989">
        <ele>2111.437</ele>
        <time>2019-05-30T13:06:37Z</time>
      </trkpt>
      <trkpt lat="42.451379" lon="1.813041">
        <ele>2111.249</ele>
        <time>2019-05-30T13:06:38Z</time>
      </trkpt>
      <trkpt lat="42.451383" lon="1.813152">
        <ele>2110.613</ele>
        <time>2019-05-30T13:06:40Z</time>
      </trkpt>
      <trkpt lat="42.451319" lon="1.813224">
        <ele>2110.208</ele>
        <time>2019-05-30T13:06:42Z</time>
      </trkpt>
      <trkpt lat="42.451277" lon="1.813236">
        <ele>2110.086</ele>
        <time>2019-05-30T13:06:43Z</time>
      </trkpt>
      <trkpt lat="42.451149" lon="1.813185">
        <ele>2109.020</ele>
        <time>2019-05-30T13:06:46Z</time>
      </trkpt>
      <trkpt lat="42.451110" lon="1.813157">
        <ele>2108.626</ele>
        <time>2019-05-30T13:06:47Z</time>
      </trkpt>
      <trkpt lat="42.451032" lon="1.813102">
        <ele>2107.634</ele>
        <time>2019-05-30T13:06:49Z</time>
      </trkpt>
      <trkpt lat="42.450834" lon="1.812959">
        <ele>2106.297</ele>
        <time>2019-05-30T13:06:54Z</time>
      </trkpt>
      <trkpt lat="42.450756" lon="1.812898">
        <ele>2105.071</ele>
        <time>2019-05-30T13:06:56Z</time>
      </trkpt>
      <trkpt lat="42.450674" lon="1.812846">
        <ele>2103.669</ele>
        <time>2019-05-30T13:06:58Z</time>
      </trkpt>
      <trkpt lat="42.450508" lon="1.812740">
        <ele>2102.094</ele>
        <time>2019-05-30T13:07:02Z</time>
      </trkpt>
      <trkpt lat="42.450380" lon="1.812668">
        <ele>2101.048</ele>
        <time>2019-05-30T13:07:05Z</time>
      </trkpt>
      <trkpt lat="42.450292" lon="1.812615">
        <ele>2099.861</ele>
        <time>2019-05-30T13:07:07Z</time>
      </trkpt>
      <trkpt lat="42.450200" lon="1.812564">
        <ele>2099.617</ele>
        <time>2019-05-30T13:07:09Z</time>
      </trkpt>
      <trkpt lat="42.450067" lon="1.812487">
        <ele>2098.608</ele>
        <time>2019-05-30T13:07:12Z</time>
      </trkpt>
      <trkpt lat="42.449986" lon="1.812438">
        <ele>2097.457</ele>
        <time>2019-05-30T13:07:14Z</time>
      </trkpt>
      <trkpt lat="42.449945" lon="1.812413">
        <ele>2097.221</ele>
        <time>2019-05-30T13:07:15Z</time>
      </trkpt>
      <trkpt lat="42.449870" lon="1.812356">
        <ele>2096.817</ele>
        <time>2019-05-30T13:07:17Z</time>
      </trkpt>
      <trkpt lat="42.449833" lon="1.812323">
        <ele>2096.265</ele>
        <time>2019-05-30T13:07:18Z</time>
      </trkpt>
      <trkpt lat="42.449756" lon="1.812250">
        <ele>2095.098</ele>
        <time>2019-05-30T13:07:20Z</time>
      </trkpt>
      <trkpt lat="42.449716" lon="1.812205">
        <ele>2094.812</ele>
        <time>2019-05-30T13:07:21Z</time>
      </trkpt>
      <trkpt lat="42.449596" lon="1.812071">
        <ele>2093.640</ele>
        <time>2019-05-30T13:07:24Z</time>
      </trkpt>
      <trkpt lat="42.449484" lon="1.811943">
        <ele>2092.455</ele>
        <time>2019-05-30T13:07:27Z</time>
      </trkpt>
      <trkpt lat="42.449408" lon="1.811857">
        <ele>2091.445</ele>
        <time>2019-05-30T13:07:29Z</time>
      </trkpt>
      <trkpt lat="42.449369" lon="1.811814">
        <ele>2090.447</ele>
        <time>2019-05-30T13:07:30Z</time>
      </trkpt>
      <trkpt lat="42.449330" lon="1.811773">
        <ele>2090.211</ele>
        <time>2019-05-30T13:07:31Z</time>
      </trkpt>
      <trkpt lat="42.449215" lon="1.811648">
        <ele>2089.008</ele>
        <time>2019-05-30T13:07:34Z</time>
      </trkpt>
      <trkpt lat="42.449066" lon="1.811492">
        <ele>2087.887</ele>
        <time>2019-05-30T13:07:38Z</time>
      </trkpt>
      <trkpt lat="42.448988" lon="1.811414">
        <ele>2086.841</ele>
        <time>2019-05-30T13:07:40Z</time>
      </trkpt>
      <trkpt lat="42.448807" lon="1.811245">
        <ele>2085.427</ele>
        <time>2019-05-30T13:07:44Z</time>
      </trkpt>
      <trkpt lat="42.448761" lon="1.811206">
        <ele>2085.065</ele>
        <time>2019-05-30T13:07:45Z</time>
      </trkpt>
      <trkpt lat="42.448626" lon="1.811091">
        <ele>2084.258</ele>
        <time>2019-05-30T13:07:48Z</time>
      </trkpt>
      <trkpt lat="42.448584" lon="1.811053">
        <ele>2083.632</ele>
        <time>2019-05-30T13:07:49Z</time>
      </trkpt>
      <trkpt lat="42.448543" lon="1.811012">
        <ele>2083.090</ele>
        <time>2019-05-30T13:07:50Z</time>
      </trkpt>
      <trkpt lat="42.448389" lon="1.810833">
        <ele>2081.835</ele>
        <time>2019-05-30T13:07:54Z</time>
      </trkpt>
      <trkpt lat="42.448274" lon="1.810689">
        <ele>2080.249</ele>
        <time>2019-05-30T13:07:57Z</time>
      </trkpt>
      <trkpt lat="42.448200" lon="1.810590">
        <ele>2079.002</ele>
        <time>2019-05-30T13:07:59Z</time>
      </trkpt>
      <trkpt lat="42.448086" lon="1.810437">
        <ele>2077.822</ele>
        <time>2019-05-30T13:08:02Z</time>
      </trkpt>
      <trkpt lat="42.448009" lon="1.810333">
        <ele>2077.008</ele>
        <time>2019-05-30T13:08:04Z</time>
      </trkpt>
      <trkpt lat="42.447967" lon="1.810281">
        <ele>2076.427</ele>
        <time>2019-05-30T13:08:05Z</time>
      </trkpt>
      <trkpt lat="42.447892" lon="1.810177">
        <ele>2075.211</ele>
        <time>2019-05-30T13:08:07Z</time>
      </trkpt>
      <trkpt lat="42.447772" lon="1.810015">
        <ele>2074.097</ele>
        <time>2019-05-30T13:08:10Z</time>
      </trkpt>
      <trkpt lat="42.447659" lon="1.809854">
        <ele>2072.815</ele>
        <time>2019-05-30T13:08:13Z</time>
      </trkpt>
      <trkpt lat="42.447539" lon="1.809699">
        <ele>2071.458</ele>
        <time>2019-05-30T13:08:16Z</time>
      </trkpt>
      <trkpt lat="42.447460" lon="1.809590">
        <ele>2069.622</ele>
        <time>2019-05-30T13:08:18Z</time>
      </trkpt>
      <trkpt lat="42.447330" lon="1.809443">
        <ele>2068.240</ele>
        <time>2019-05-30T13:08:21Z</time>
      </trkpt>
      <trkpt lat="42.447242" lon="1.809350">
        <ele>2067.085</ele>
        <time>2019-05-30T13:08:23Z</time>
      </trkpt>
      <trkpt lat="42.447152" lon="1.809267">
        <ele>2066.242</ele>
        <time>2019-05-30T13:08:25Z</time>
      </trkpt>
      <trkpt lat="42.447107" lon="1.809226">
        <ele>2065.622</ele>
        <time>2019-05-30T13:08:26Z</time>
      </trkpt>
      <trkpt lat="42.446963" lon="1.809113">
        <ele>2064.214</ele>
        <time>2019-05-30T13:08:29Z</time>
      </trkpt>
      <trkpt lat="42.446871" lon="1.809029">
        <ele>2063.008</ele>
        <time>2019-05-30T13:08:31Z</time>
      </trkpt>
      <trkpt lat="42.446825" lon="1.808988">
        <ele>2062.657</ele>
        <time>2019-05-30T13:08:32Z</time>
      </trkpt>
      <trkpt lat="42.446781" lon="1.808950">
        <ele>2062.071</ele>
        <time>2019-05-30T13:08:33Z</time>
      </trkpt>
      <trkpt lat="42.446608" lon="1.808810">
        <ele>2060.817</ele>
        <time>2019-05-30T13:08:37Z</time>
      </trkpt>
      <trkpt lat="42.446567" lon="1.808777">
        <ele>2060.065</ele>
        <time>2019-05-30T13:08:38Z</time>
      </trkpt>
      <trkpt lat="42.446524" lon="1.808747">
        <ele>2059.478</ele>
        <time>2019-05-30T13:08:39Z</time>
      </trkpt>
      <trkpt lat="42.446385" lon="1.808659">
        <ele>2057.872</ele>
        <time>2019-05-30T13:08:42Z</time>
      </trkpt>
      <trkpt lat="42.446297" lon="1.808595">
        <ele>2057.630</ele>
        <time>2019-05-30T13:08:44Z</time>
      </trkpt>
      <trkpt lat="42.446257" lon="1.808558">
        <ele>2057.465</ele>
        <time>2019-05-30T13:08:45Z</time>
      </trkpt>
      <trkpt lat="42.446171" lon="1.808496">
        <ele>2056.292</ele>
        <time>2019-05-30T13:08:47Z</time>
      </trkpt>
      <trkpt lat="42.446093" lon="1.808437">
        <ele>2055.073</ele>
        <time>2019-05-30T13:08:49Z</time>
      </trkpt>
      <trkpt lat="42.445942" lon="1.808228">
        <ele>2053.820</ele>
        <time>2019-05-30T13:08:54Z</time>
      </trkpt>
      <trkpt lat="42.445903" lon="1.807978">
        <ele>2052.808</ele>
        <time>2019-05-30T13:08:59Z</time>
      </trkpt>
      <trkpt lat="42.445909" lon="1.807930">
        <ele>2052.672</ele>
        <time>2019-05-30T13:09:00Z</time>
      </trkpt>
      <trkpt lat="42.445946" lon="1.807742">
        <ele>2051.836</ele>
        <time>2019-05-30T13:09:05Z</time>
      </trkpt>
      <trkpt lat="42.445978" lon="1.807635">
        <ele>2051.292</ele>
        <time>2019-05-30T13:09:08Z</time>
      </trkpt>
      <trkpt lat="42.446033" lon="1.807526">
        <ele>2051.050</ele>
        <time>2019-05-30T13:09:11Z</time>
      </trkpt>
      <trkpt lat="42.446133" lon="1.807289">
        <ele>2050.233</ele>
        <time>2019-05-30T13:09:17Z</time>
      </trkpt>
      <trkpt lat="42.446195" lon="1.807180">
        <ele>2048.867</ele>
        <time>2019-05-30T13:09:20Z</time>
      </trkpt>
      <trkpt lat="42.446260" lon="1.807075">
        <ele>2047.455</ele>
        <time>2019-05-30T13:09:23Z</time>
      </trkpt>
      <trkpt lat="42.446280" lon="1.807039">
        <ele>2047.060</ele>
        <time>2019-05-30T13:09:24Z</time>
      </trkpt>
      <trkpt lat="42.446322" lon="1.806966">
        <ele>2046.484</ele>
        <time>2019-05-30T13:09:26Z</time>
      </trkpt>
      <trkpt lat="42.446445" lon="1.806770">
        <ele>2045.007</ele>
        <time>2019-05-30T13:09:31Z</time>
      </trkpt>
      <trkpt lat="42.446501" lon="1.806618">
        <ele>2044.017</ele>
        <time>2019-05-30T13:09:34Z</time>
      </trkpt>
      <trkpt lat="42.446521" lon="1.806568">
        <ele>2043.608</ele>
        <time>2019-05-30T13:09:35Z</time>
      </trkpt>
      <trkpt lat="42.446561" lon="1.806474">
        <ele>2043.051</ele>
        <time>2019-05-30T13:09:37Z</time>
      </trkpt>
      <trkpt lat="42.446602" lon="1.806372">
        <ele>2041.855</ele>
        <time>2019-05-30T13:09:39Z</time>
      </trkpt>
      <trkpt lat="42.446663" lon="1.806201">
        <ele>2040.881</ele>
        <time>2019-05-30T13:09:42Z</time>
      </trkpt>
      <trkpt lat="42.446710" lon="1.806040">
        <ele>2039.849</ele>
        <time>2019-05-30T13:09:45Z</time>
      </trkpt>
      <trkpt lat="42.446743" lon="1.805935">
        <ele>2039.082</ele>
        <time>2019-05-30T13:09:47Z</time>
      </trkpt>
      <trkpt lat="42.446757" lon="1.805877">
        <ele>2039.086</ele>
        <time>2019-05-30T13:09:48Z</time>
      </trkpt>
      <trkpt lat="42.446786" lon="1.805781">
        <ele>2038.694</ele>
        <time>2019-05-30T13:09:50Z</time>
      </trkpt>
      <trkpt lat="42.446832" lon="1.805628">
        <ele>2037.619</ele>
        <time>2019-05-30T13:09:53Z</time>
      </trkpt>
      <trkpt lat="42.446862" lon="1.805533">
        <ele>2036.675</ele>
        <time>2019-05-30T13:09:55Z</time>
      </trkpt>
      <trkpt lat="42.446876" lon="1.805489">
        <ele>2036.028</ele>
        <time>2019-05-30T13:09:56Z</time>
      </trkpt>
      <trkpt lat="42.446943" lon="1.805319">
        <ele>2034.620</ele>
        <time>2019-05-30T13:10:00Z</time>
      </trkpt>
      <trkpt lat="42.446979" lon="1.805244">
        <ele>2033.208</ele>
        <time>2019-05-30T13:10:02Z</time>
      </trkpt>
      <trkpt lat="42.447043" lon="1.805130">
        <ele>2032.030</ele>
        <time>2019-05-30T13:10:05Z</time>
      </trkpt>
      <trkpt lat="42.447117" lon="1.805017">
        <ele>2031.874</ele>
        <time>2019-05-30T13:10:08Z</time>
      </trkpt>
      <trkpt lat="42.447232" lon="1.804839">
        <ele>2031.090</ele>
        <time>2019-05-30T13:10:13Z</time>
      </trkpt>
      <trkpt lat="42.447279" lon="1.804766">
        <ele>2030.668</ele>
        <time>2019-05-30T13:10:15Z</time>
      </trkpt>
      <trkpt lat="42.447350" lon="1.804651">
        <ele>2029.641</ele>
        <time>2019-05-30T13:10:18Z</time>
      </trkpt>
      <trkpt lat="42.447401" lon="1.804579">
        <ele>2030.035</ele>
        <time>2019-05-30T13:10:20Z</time>
      </trkpt>
      <trkpt lat="42.447555" lon="1.804386">
        <ele>2028.423</ele>
        <time>2019-05-30T13:10:26Z</time>
      </trkpt>
      <trkpt lat="42.447600" lon="1.804311">
        <ele>2026.868</ele>
        <time>2019-05-30T13:10:28Z</time>
      </trkpt>
      <trkpt lat="42.447648" lon="1.804232">
        <ele>2026.289</ele>
        <time>2019-05-30T13:10:30Z</time>
      </trkpt>
      <trkpt lat="42.447677" lon="1.804191">
        <ele>2025.606</ele>
        <time>2019-05-30T13:10:31Z</time>
      </trkpt>
      <trkpt lat="42.447742" lon="1.804113">
        <ele>2024.226</ele>
        <time>2019-05-30T13:10:33Z</time>
      </trkpt>
      <trkpt lat="42.447766" lon="1.804067">
        <ele>2023.808</ele>
        <time>2019-05-30T13:10:34Z</time>
      </trkpt>
      <trkpt lat="42.447796" lon="1.804026">
        <ele>2023.611</ele>
        <time>2019-05-30T13:10:35Z</time>
      </trkpt>
      <trkpt lat="42.447860" lon="1.803938">
        <ele>2023.235</ele>
        <time>2019-05-30T13:10:37Z</time>
      </trkpt>
      <trkpt lat="42.447987" lon="1.803751">
        <ele>2022.091</ele>
        <time>2019-05-30T13:10:41Z</time>
      </trkpt>
      <trkpt lat="42.448019" lon="1.803707">
        <ele>2020.699</ele>
        <time>2019-05-30T13:10:42Z</time>
      </trkpt>
      <trkpt lat="42.448048" lon="1.803660">
        <ele>2020.252</ele>
        <time>2019-05-30T13:10:43Z</time>
      </trkpt>
      <trkpt lat="42.448106" lon="1.803569">
        <ele>2019.486</ele>
        <time>2019-05-30T13:10:45Z</time>
      </trkpt>
      <trkpt lat="42.448157" lon="1.803472">
        <ele>2019.054</ele>
        <time>2019-05-30T13:10:47Z</time>
      </trkpt>
      <trkpt lat="42.448232" lon="1.803330">
        <ele>2018.279</ele>
        <time>2019-05-30T13:10:50Z</time>
      </trkpt>
      <trkpt lat="42.448324" lon="1.803138">
        <ele>2017.217</ele>
        <time>2019-05-30T13:10:54Z</time>
      </trkpt>
      <trkpt lat="42.448347" lon="1.803097">
        <ele>2016.887</ele>
        <time>2019-05-30T13:10:55Z</time>
      </trkpt>
      <trkpt lat="42.448393" lon="1.803009">
        <ele>2016.215</ele>
        <time>2019-05-30T13:10:57Z</time>
      </trkpt>
      <trkpt lat="42.448463" lon="1.802882">
        <ele>2015.008</ele>
        <time>2019-05-30T13:11:00Z</time>
      </trkpt>
      <trkpt lat="42.448525" lon="1.802751">
        <ele>2014.024</ele>
        <time>2019-05-30T13:11:03Z</time>
      </trkpt>
      <trkpt lat="42.448588" lon="1.802626">
        <ele>2012.828</ele>
        <time>2019-05-30T13:11:06Z</time>
      </trkpt>
      <trkpt lat="42.448649" lon="1.802492">
        <ele>2012.234</ele>
        <time>2019-05-30T13:11:09Z</time>
      </trkpt>
      <trkpt lat="42.448667" lon="1.802445">
        <ele>2011.662</ele>
        <time>2019-05-30T13:11:10Z</time>
      </trkpt>
      <trkpt lat="42.448700" lon="1.802344">
        <ele>2010.415</ele>
        <time>2019-05-30T13:11:12Z</time>
      </trkpt>
      <trkpt lat="42.448722" lon="1.802297">
        <ele>2010.029</ele>
        <time>2019-05-30T13:11:13Z</time>
      </trkpt>
      <trkpt lat="42.448765" lon="1.802203">
        <ele>2009.297</ele>
        <time>2019-05-30T13:11:15Z</time>
      </trkpt>
      <trkpt lat="42.448785" lon="1.802156">
        <ele>2009.242</ele>
        <time>2019-05-30T13:11:16Z</time>
      </trkpt>
      <trkpt lat="42.448881" lon="1.801952">
        <ele>2007.894</ele>
        <time>2019-05-30T13:11:21Z</time>
      </trkpt>
      <trkpt lat="42.448897" lon="1.801909">
        <ele>2007.657</ele>
        <time>2019-05-30T13:11:22Z</time>
      </trkpt>
      <trkpt lat="42.448978" lon="1.801803">
        <ele>2006.822</ele>
        <time>2019-05-30T13:11:25Z</time>
      </trkpt>
      <trkpt lat="42.449046" lon="1.801758">
        <ele>2006.408</ele>
        <time>2019-05-30T13:11:27Z</time>
      </trkpt>
      <trkpt lat="42.449183" lon="1.801661">
        <ele>2005.632</ele>
        <time>2019-05-30T13:11:31Z</time>
      </trkpt>
      <trkpt lat="42.449293" lon="1.801589">
        <ele>2005.476</ele>
        <time>2019-05-30T13:11:34Z</time>
      </trkpt>
      <trkpt lat="42.449366" lon="1.801552">
        <ele>2004.292</ele>
        <time>2019-05-30T13:11:36Z</time>
      </trkpt>
      <trkpt lat="42.449476" lon="1.801470">
        <ele>2003.030</ele>
        <time>2019-05-30T13:11:39Z</time>
      </trkpt>
      <trkpt lat="42.449508" lon="1.801431">
        <ele>2002.683</ele>
        <time>2019-05-30T13:11:40Z</time>
      </trkpt>
      <trkpt lat="42.449533" lon="1.801386">
        <ele>2002.427</ele>
        <time>2019-05-30T13:11:41Z</time>
      </trkpt>
      <trkpt lat="42.449550" lon="1.801333">
        <ele>2002.085</ele>
        <time>2019-05-30T13:11:42Z</time>
      </trkpt>
      <trkpt lat="42.449563" lon="1.801186">
        <ele>2001.440</ele>
        <time>2019-05-30T13:11:45Z</time>
      </trkpt>
      <trkpt lat="42.449561" lon="1.801138">
        <ele>2001.276</ele>
        <time>2019-05-30T13:11:46Z</time>
      </trkpt>
      <trkpt lat="42.449556" lon="1.801088">
        <ele>2000.890</ele>
        <time>2019-05-30T13:11:47Z</time>
      </trkpt>
      <trkpt lat="42.449568" lon="1.800832">
        <ele>1999.819</ele>
        <time>2019-05-30T13:11:52Z</time>
      </trkpt>
      <trkpt lat="42.449575" lon="1.800781">
        <ele>1999.408</ele>
        <time>2019-05-30T13:11:53Z</time>
      </trkpt>
      <trkpt lat="42.449596" lon="1.800678">
        <ele>1998.240</ele>
        <time>2019-05-30T13:11:55Z</time>
      </trkpt>
      <trkpt lat="42.449614" lon="1.800569">
        <ele>1997.094</ele>
        <time>2019-05-30T13:11:57Z</time>
      </trkpt>
      <trkpt lat="42.449641" lon="1.800398">
        <ele>1996.680</ele>
        <time>2019-05-30T13:12:00Z</time>
      </trkpt>
      <trkpt lat="42.449653" lon="1.800340">
        <ele>1996.278</ele>
        <time>2019-05-30T13:12:01Z</time>
      </trkpt>
      <trkpt lat="42.449660" lon="1.800283">
        <ele>1995.651</ele>
        <time>2019-05-30T13:12:02Z</time>
      </trkpt>
      <trkpt lat="42.449667" lon="1.800175">
        <ele>1994.485</ele>
        <time>2019-05-30T13:12:04Z</time>
      </trkpt>
      <trkpt lat="42.449672" lon="1.800071">
        <ele>1993.073</ele>
        <time>2019-05-30T13:12:06Z</time>
      </trkpt>
      <trkpt lat="42.449668" lon="1.800013">
        <ele>1992.888</ele>
        <time>2019-05-30T13:12:07Z</time>
      </trkpt>
      <trkpt lat="42.449645" lon="1.799904">
        <ele>1991.425</ele>
        <time>2019-05-30T13:12:09Z</time>
      </trkpt>
      <trkpt lat="42.449620" lon="1.799808">
        <ele>1990.426</ele>
        <time>2019-05-30T13:12:11Z</time>
      </trkpt>
      <trkpt lat="42.449610" lon="1.799764">
        <ele>1990.608</ele>
        <time>2019-05-30T13:12:12Z</time>
      </trkpt>
      <trkpt lat="42.449559" lon="1.799590">
        <ele>1989.208</ele>
        <time>2019-05-30T13:12:16Z</time>
      </trkpt>
      <trkpt lat="42.449549" lon="1.799544">
        <ele>1988.875</ele>
        <time>2019-05-30T13:12:17Z</time>
      </trkpt>
      <trkpt lat="42.449522" lon="1.799455">
        <ele>1987.889</ele>
        <time>2019-05-30T13:12:19Z</time>
      </trkpt>
      <trkpt lat="42.449512" lon="1.799310">
        <ele>1987.265</ele>
        <time>2019-05-30T13:12:22Z</time>
      </trkpt>
      <trkpt lat="42.449520" lon="1.799157">
        <ele>1986.663</ele>
        <time>2019-05-30T13:12:25Z</time>
      </trkpt>
      <trkpt lat="42.449551" lon="1.799019">
        <ele>1986.036</ele>
        <time>2019-05-30T13:12:28Z</time>
      </trkpt>
      <trkpt lat="42.449567" lon="1.798977">
        <ele>1985.440</ele>
        <time>2019-05-30T13:12:29Z</time>
      </trkpt>
      <trkpt lat="42.449604" lon="1.798897">
        <ele>1984.278</ele>
        <time>2019-05-30T13:12:31Z</time>
      </trkpt>
      <trkpt lat="42.449649" lon="1.798773">
        <ele>1983.693</ele>
        <time>2019-05-30T13:12:34Z</time>
      </trkpt>
      <trkpt lat="42.449668" lon="1.798732">
        <ele>1983.257</ele>
        <time>2019-05-30T13:12:35Z</time>
      </trkpt>
      <trkpt lat="42.449753" lon="1.798549">
        <ele>1981.800</ele>
        <time>2019-05-30T13:12:39Z</time>
      </trkpt>
      <trkpt lat="42.449778" lon="1.798508">
        <ele>1981.220</ele>
        <time>2019-05-30T13:12:40Z</time>
      </trkpt>
      <trkpt lat="42.449842" lon="1.798391">
        <ele>1980.008</ele>
        <time>2019-05-30T13:12:43Z</time>
      </trkpt>
      <trkpt lat="42.449860" lon="1.798349">
        <ele>1979.848</ele>
        <time>2019-05-30T13:12:44Z</time>
      </trkpt>
      <trkpt lat="42.449928" lon="1.798182">
        <ele>1979.052</ele>
        <time>2019-05-30T13:12:48Z</time>
      </trkpt>
      <trkpt lat="42.449948" lon="1.798145">
        <ele>1978.248</ele>
        <time>2019-05-30T13:12:49Z</time>
      </trkpt>
      <trkpt lat="42.449976" lon="1.798111">
        <ele>1977.636</ele>
        <time>2019-05-30T13:12:50Z</time>
      </trkpt>
      <trkpt lat="42.450072" lon="1.797963">
        <ele>1977.019</ele>
        <time>2019-05-30T13:12:54Z</time>
      </trkpt>
      <trkpt lat="42.450139" lon="1.797866">
        <ele>1976.473</ele>
        <time>2019-05-30T13:12:57Z</time>
      </trkpt>
      <trkpt lat="42.450201" lon="1.797765">
        <ele>1974.851</ele>
        <time>2019-05-30T13:13:00Z</time>
      </trkpt>
      <trkpt lat="42.450220" lon="1.797726">
        <ele>1974.676</ele>
        <time>2019-05-30T13:13:01Z</time>
      </trkpt>
      <trkpt lat="42.450260" lon="1.797655">
        <ele>1973.872</ele>
        <time>2019-05-30T13:13:03Z</time>
      </trkpt>
      <trkpt lat="42.450315" lon="1.797545">
        <ele>1972.613</ele>
        <time>2019-05-30T13:13:06Z</time>
      </trkpt>
      <trkpt lat="42.450332" lon="1.797509">
        <ele>1972.614</ele>
        <time>2019-05-30T13:13:07Z</time>
      </trkpt>
      <trkpt lat="42.450370" lon="1.797441">
        <ele>1971.408</ele>
        <time>2019-05-30T13:13:09Z</time>
      </trkpt>
      <trkpt lat="42.450466" lon="1.797328">
        <ele>1970.240</ele>
        <time>2019-05-30T13:13:13Z</time>
      </trkpt>
      <trkpt lat="42.450569" lon="1.797240">
        <ele>1969.284</ele>
        <time>2019-05-30T13:13:17Z</time>
      </trkpt>
      <trkpt lat="42.450628" lon="1.797224">
        <ele>1967.840</ele>
        <time>2019-05-30T13:13:19Z</time>
      </trkpt>
      <trkpt lat="42.450707" lon="1.797226">
        <ele>1966.818</ele>
        <time>2019-05-30T13:13:22Z</time>
      </trkpt>
      <trkpt lat="42.450755" lon="1.797228">
        <ele>1965.861</ele>
        <time>2019-05-30T13:13:24Z</time>
      </trkpt>
      <trkpt lat="42.450779" lon="1.797231">
        <ele>1965.455</ele>
        <time>2019-05-30T13:13:25Z</time>
      </trkpt>
      <trkpt lat="42.450831" lon="1.797274">
        <ele>1965.643</ele>
        <time>2019-05-30T13:13:28Z</time>
      </trkpt>
      <trkpt lat="42.450835" lon="1.797283">
        <ele>1965.678</ele>
        <time>2019-05-30T13:13:29Z</time>
      </trkpt>
      <trkpt lat="42.450868" lon="1.797242">
        <ele>1966.215</ele>
        <time>2019-05-30T13:15:27Z</time>
      </trkpt>
      <trkpt lat="42.450863" lon="1.797250">
        <ele>1965.865</ele>
        <time>2019-05-30T13:15:28Z</time>
      </trkpt>
      <trkpt lat="42.450909" lon="1.797248">
        <ele>1965.011</ele>
        <time>2019-05-30T13:16:45Z</time>
      </trkpt>
      <trkpt lat="42.450946" lon="1.797279">
        <ele>1964.808</ele>
        <time>2019-05-30T13:16:47Z</time>
      </trkpt>
      <trkpt lat="42.450984" lon="1.797301">
        <ele>1964.614</ele>
        <time>2019-05-30T13:16:49Z</time>
      </trkpt>
      <trkpt lat="42.451037" lon="1.797351">
        <ele>1965.488</ele>
        <time>2019-05-30T13:16:53Z</time>
      </trkpt>
      <trkpt lat="42.451058" lon="1.797374">
        <ele>1966.244</ele>
        <time>2019-05-30T13:16:55Z</time>
      </trkpt>
      <trkpt lat="42.451104" lon="1.797395">
        <ele>1967.282</ele>
        <time>2019-05-30T13:16:59Z</time>
      </trkpt>
      <trkpt lat="42.451237" lon="1.797451">
        <ele>1967.045</ele>
        <time>2019-05-30T13:17:06Z</time>
      </trkpt>
      <trkpt lat="42.451396" lon="1.797524">
        <ele>1968.059</ele>
        <time>2019-05-30T13:17:14Z</time>
      </trkpt>
      <trkpt lat="42.451412" lon="1.797536">
        <ele>1967.677</ele>
        <time>2019-05-30T13:17:15Z</time>
      </trkpt>
      <trkpt lat="42.451536" lon="1.797587">
        <ele>1967.212</ele>
        <time>2019-05-30T13:17:22Z</time>
      </trkpt>
      <trkpt lat="42.451583" lon="1.797620">
        <ele>1968.265</ele>
        <time>2019-05-30T13:17:25Z</time>
      </trkpt>
      <trkpt lat="42.451600" lon="1.797630">
        <ele>1967.068</ele>
        <time>2019-05-30T13:17:26Z</time>
      </trkpt>
      <trkpt lat="42.451644" lon="1.797646">
        <ele>1968.614</ele>
        <time>2019-05-30T13:17:29Z</time>
      </trkpt>
      <trkpt lat="42.451713" lon="1.797686">
        <ele>1969.808</ele>
        <time>2019-05-30T13:17:33Z</time>
      </trkpt>
      <trkpt lat="42.451772" lon="1.797711">
        <ele>1970.489</ele>
        <time>2019-05-30T13:17:37Z</time>
      </trkpt>
      <trkpt lat="42.451857" lon="1.797740">
        <ele>1971.053</ele>
        <time>2019-05-30T13:17:43Z</time>
      </trkpt>
      <trkpt lat="42.451955" lon="1.797786">
        <ele>1972.239</ele>
        <time>2019-05-30T13:17:51Z</time>
      </trkpt>
      <trkpt lat="42.452052" lon="1.797826">
        <ele>1973.047</ele>
        <time>2019-05-30T13:17:58Z</time>
      </trkpt>
      <trkpt lat="42.452067" lon="1.797828">
        <ele>1973.260</ele>
        <time>2019-05-30T13:17:59Z</time>
      </trkpt>
      <trkpt lat="42.452136" lon="1.797832">
        <ele>1974.044</ele>
        <time>2019-05-30T13:18:04Z</time>
      </trkpt>
      <trkpt lat="42.452151" lon="1.797829">
        <ele>1974.252</ele>
        <time>2019-05-30T13:18:05Z</time>
      </trkpt>
      <trkpt lat="42.452254" lon="1.797809">
        <ele>1974.247</ele>
        <time>2019-05-30T13:18:13Z</time>
      </trkpt>
      <trkpt lat="42.452278" lon="1.797795">
        <ele>1975.643</ele>
        <time>2019-05-30T13:18:15Z</time>
      </trkpt>
      <trkpt lat="42.452306" lon="1.797787">
        <ele>1976.664</ele>
        <time>2019-05-30T13:18:17Z</time>
      </trkpt>
      <trkpt lat="42.452319" lon="1.797782">
        <ele>1975.210</ele>
        <time>2019-05-30T13:18:18Z</time>
      </trkpt>
      <trkpt lat="42.452350" lon="1.797773">
        <ele>1975.408</ele>
        <time>2019-05-30T13:18:20Z</time>
      </trkpt>
      <trkpt lat="42.452425" lon="1.797756">
        <ele>1976.217</ele>
        <time>2019-05-30T13:18:25Z</time>
      </trkpt>
      <trkpt lat="42.452454" lon="1.797748">
        <ele>1976.261</ele>
        <time>2019-05-30T13:18:27Z</time>
      </trkpt>
      <trkpt lat="42.452568" lon="1.797710">
        <ele>1977.427</ele>
        <time>2019-05-30T13:18:35Z</time>
      </trkpt>
      <trkpt lat="42.452628" lon="1.797676">
        <ele>1977.865</ele>
        <time>2019-05-30T13:18:40Z</time>
      </trkpt>
      <trkpt lat="42.452642" lon="1.797668">
        <ele>1978.088</ele>
        <time>2019-05-30T13:18:41Z</time>
      </trkpt>
      <trkpt lat="42.452726" lon="1.797623">
        <ele>1978.262</ele>
        <time>2019-05-30T13:18:47Z</time>
      </trkpt>
      <trkpt lat="42.452740" lon="1.797611">
        <ele>1978.450</ele>
        <time>2019-05-30T13:18:48Z</time>
      </trkpt>
      <trkpt lat="42.452754" lon="1.797603">
        <ele>1978.895</ele>
        <time>2019-05-30T13:18:49Z</time>
      </trkpt>
      <trkpt lat="42.452854" lon="1.797547">
        <ele>1979.488</ele>
        <time>2019-05-30T13:18:56Z</time>
      </trkpt>
      <trkpt lat="42.452879" lon="1.797534">
        <ele>1979.624</ele>
        <time>2019-05-30T13:18:58Z</time>
      </trkpt>
      <trkpt lat="42.452945" lon="1.797513">
        <ele>1980.026</ele>
        <time>2019-05-30T13:19:03Z</time>
      </trkpt>
      <trkpt lat="42.453032" lon="1.797494">
        <ele>1980.608</ele>
        <time>2019-05-30T13:19:09Z</time>
      </trkpt>
      <trkpt lat="42.453047" lon="1.797494">
        <ele>1980.621</ele>
        <time>2019-05-30T13:19:10Z</time>
      </trkpt>
      <trkpt lat="42.453152" lon="1.797506">
        <ele>1981.055</ele>
        <time>2019-05-30T13:19:17Z</time>
      </trkpt>
      <trkpt lat="42.453203" lon="1.797502">
        <ele>1981.841</ele>
        <time>2019-05-30T13:19:21Z</time>
      </trkpt>
      <trkpt lat="42.453234" lon="1.797500">
        <ele>1981.849</ele>
        <time>2019-05-30T13:19:23Z</time>
      </trkpt>
      <trkpt lat="42.454402" lon="1.798436">
        <ele>1992.432</ele>
        <time>2019-05-30T13:20:59Z</time>
      </trkpt>
      <trkpt lat="42.454429" lon="1.798436">
        <ele>1992.686</ele>
        <time>2019-05-30T13:21:01Z</time>
      </trkpt>
      <trkpt lat="42.454517" lon="1.798398">
        <ele>1993.224</ele>
        <time>2019-05-30T13:21:07Z</time>
      </trkpt>
      <trkpt lat="42.454532" lon="1.798393">
        <ele>1993.629</ele>
        <time>2019-05-30T13:21:08Z</time>
      </trkpt>
      <trkpt lat="42.454604" lon="1.798310">
        <ele>1994.451</ele>
        <time>2019-05-30T13:21:14Z</time>
      </trkpt>
      <trkpt lat="42.454635" lon="1.798277">
        <ele>1994.601</ele>
        <time>2019-05-30T13:21:17Z</time>
      </trkpt>
      <trkpt lat="42.454691" lon="1.798212">
        <ele>1995.411</ele>
        <time>2019-05-30T13:21:22Z</time>
      </trkpt>
      <trkpt lat="42.454724" lon="1.798176">
        <ele>1995.808</ele>
        <time>2019-05-30T13:21:25Z</time>
      </trkpt>
      <trkpt lat="42.454791" lon="1.798112">
        <ele>1996.428</ele>
        <time>2019-05-30T13:21:31Z</time>
      </trkpt>
      <trkpt lat="42.454828" lon="1.798083">
        <ele>1996.872</ele>
        <time>2019-05-30T13:21:34Z</time>
      </trkpt>
      <trkpt lat="42.454872" lon="1.798041">
        <ele>1997.498</ele>
        <time>2019-05-30T13:21:38Z</time>
      </trkpt>
      <trkpt lat="42.454932" lon="1.797990">
        <ele>1998.036</ele>
        <time>2019-05-30T13:21:43Z</time>
      </trkpt>
      <trkpt lat="42.454996" lon="1.797952">
        <ele>1998.859</ele>
        <time>2019-05-30T13:21:48Z</time>
      </trkpt>
      <trkpt lat="42.455037" lon="1.797935">
        <ele>1999.043</ele>
        <time>2019-05-30T13:21:51Z</time>
      </trkpt>
      <trkpt lat="42.455113" lon="1.797923">
        <ele>1999.611</ele>
        <time>2019-05-30T13:21:57Z</time>
      </trkpt>
      <trkpt lat="42.455158" lon="1.797923">
        <ele>2000.056</ele>
        <time>2019-05-30T13:22:00Z</time>
      </trkpt>
      <trkpt lat="42.455212" lon="1.797921">
        <ele>2000.221</ele>
        <time>2019-05-30T13:22:04Z</time>
      </trkpt>
      <trkpt lat="42.455332" lon="1.797952">
        <ele>2001.041</ele>
        <time>2019-05-30T13:22:13Z</time>
      </trkpt>
      <trkpt lat="42.455353" lon="1.797958">
        <ele>2001.205</ele>
        <time>2019-05-30T13:22:15Z</time>
      </trkpt>
      <trkpt lat="42.455428" lon="1.797989">
        <ele>2001.808</ele>
        <time>2019-05-30T13:22:21Z</time>
      </trkpt>
      <trkpt lat="42.455474" lon="1.798018">
        <ele>2002.235</ele>
        <time>2019-05-30T13:22:25Z</time>
      </trkpt>
      <trkpt lat="42.455521" lon="1.798044">
        <ele>2002.649</ele>
        <time>2019-05-30T13:22:29Z</time>
      </trkpt>
      <trkpt lat="42.455648" lon="1.798132">
        <ele>2003.815</ele>
        <time>2019-05-30T13:22:40Z</time>
      </trkpt>
      <trkpt lat="42.455676" lon="1.798155">
        <ele>2004.283</ele>
        <time>2019-05-30T13:22:42Z</time>
      </trkpt>
      <trkpt lat="42.455741" lon="1.798198">
        <ele>2004.836</ele>
        <time>2019-05-30T13:22:48Z</time>
      </trkpt>
      <trkpt lat="42.455890" lon="1.798284">
        <ele>2005.870</ele>
        <time>2019-05-30T13:22:58Z</time>
      </trkpt>
      <trkpt lat="42.455905" lon="1.798286">
        <ele>2005.848</ele>
        <time>2019-05-30T13:22:59Z</time>
      </trkpt>
      <trkpt lat="42.455955" lon="1.798306">
        <ele>2006.223</ele>
        <time>2019-05-30T13:23:02Z</time>
      </trkpt>
      <trkpt lat="42.455992" lon="1.798311">
        <ele>2006.424</ele>
        <time>2019-05-30T13:23:04Z</time>
      </trkpt>
      <trkpt lat="42.456042" lon="1.798321">
        <ele>2006.604</ele>
        <time>2019-05-30T13:23:07Z</time>
      </trkpt>
      <trkpt lat="42.456075" lon="1.798317">
        <ele>2006.814</ele>
        <time>2019-05-30T13:23:09Z</time>
      </trkpt>
      <trkpt lat="42.456110" lon="1.798317">
        <ele>2007.008</ele>
        <time>2019-05-30T13:23:11Z</time>
      </trkpt>
      <trkpt lat="42.456141" lon="1.798308">
        <ele>2007.215</ele>
        <time>2019-05-30T13:23:13Z</time>
      </trkpt>
      <trkpt lat="42.456191" lon="1.798291">
        <ele>2007.629</ele>
        <time>2019-05-30T13:23:17Z</time>
      </trkpt>
      <trkpt lat="42.456267" lon="1.798261">
        <ele>2008.275</ele>
        <time>2019-05-30T13:23:23Z</time>
      </trkpt>
      <trkpt lat="42.456324" lon="1.798208">
        <ele>2008.853</ele>
        <time>2019-05-30T13:23:29Z</time>
      </trkpt>
      <trkpt lat="42.456364" lon="1.798178">
        <ele>2009.296</ele>
        <time>2019-05-30T13:23:33Z</time>
      </trkpt>
      <trkpt lat="42.456394" lon="1.798156">
        <ele>2009.670</ele>
        <time>2019-05-30T13:23:36Z</time>
      </trkpt>
      <trkpt lat="42.456422" lon="1.798106">
        <ele>2009.858</ele>
        <time>2019-05-30T13:23:40Z</time>
      </trkpt>
      <trkpt lat="42.456449" lon="1.798033">
        <ele>2009.873</ele>
        <time>2019-05-30T13:23:44Z</time>
      </trkpt>
      <trkpt lat="42.456499" lon="1.797905">
        <ele>2010.487</ele>
        <time>2019-05-30T13:23:52Z</time>
      </trkpt>
      <trkpt lat="42.456505" lon="1.797887">
        <ele>2010.442</ele>
        <time>2019-05-30T13:23:53Z</time>
      </trkpt>
      <trkpt lat="42.456542" lon="1.797765">
        <ele>2010.626</ele>
        <time>2019-05-30T13:24:01Z</time>
      </trkpt>
      <trkpt lat="42.456580" lon="1.797665">
        <ele>2011.408</ele>
        <time>2019-05-30T13:24:08Z</time>
      </trkpt>
      <trkpt lat="42.456620" lon="1.797547">
        <ele>2012.251</ele>
        <time>2019-05-30T13:24:16Z</time>
      </trkpt>
      <trkpt lat="42.456626" lon="1.797533">
        <ele>2012.435</ele>
        <time>2019-05-30T13:24:17Z</time>
      </trkpt>
      <trkpt lat="42.456672" lon="1.797416">
        <ele>2013.491</ele>
        <time>2019-05-30T13:24:25Z</time>
      </trkpt>
      <trkpt lat="42.456677" lon="1.797401">
        <ele>2013.699</ele>
        <time>2019-05-30T13:24:26Z</time>
      </trkpt>
      <trkpt lat="42.456710" lon="1.797269">
        <ele>2014.692</ele>
        <time>2019-05-30T13:24:34Z</time>
      </trkpt>
      <trkpt lat="42.456715" lon="1.797253">
        <ele>2014.836</ele>
        <time>2019-05-30T13:24:35Z</time>
      </trkpt>
      <trkpt lat="42.456739" lon="1.797113">
        <ele>2015.834</ele>
        <time>2019-05-30T13:24:43Z</time>
      </trkpt>
      <trkpt lat="42.456754" lon="1.796990">
        <ele>2017.029</ele>
        <time>2019-05-30T13:24:51Z</time>
      </trkpt>
      <trkpt lat="42.456754" lon="1.796967">
        <ele>2017.057</ele>
        <time>2019-05-30T13:24:52Z</time>
      </trkpt>
      <trkpt lat="42.456758" lon="1.796935">
        <ele>2017.200</ele>
        <time>2019-05-30T13:24:54Z</time>
      </trkpt>
      <trkpt lat="42.456755" lon="1.796830">
        <ele>2017.420</ele>
        <time>2019-05-30T13:25:00Z</time>
      </trkpt>
      <trkpt lat="42.456763" lon="1.796767">
        <ele>2018.008</ele>
        <time>2019-05-30T13:25:04Z</time>
      </trkpt>
      <trkpt lat="42.456763" lon="1.796690">
        <ele>2018.648</ele>
        <time>2019-05-30T13:25:09Z</time>
      </trkpt>
      <trkpt lat="42.456773" lon="1.796575">
        <ele>2019.222</ele>
        <time>2019-05-30T13:25:16Z</time>
      </trkpt>
      <trkpt lat="42.456774" lon="1.796543">
        <ele>2019.258</ele>
        <time>2019-05-30T13:25:18Z</time>
      </trkpt>
      <trkpt lat="42.456779" lon="1.796371">
        <ele>2019.816</ele>
        <time>2019-05-30T13:25:28Z</time>
      </trkpt>
      <trkpt lat="42.456784" lon="1.796314">
        <ele>2020.229</ele>
        <time>2019-05-30T13:25:31Z</time>
      </trkpt>
      <trkpt lat="42.456808" lon="1.796181">
        <ele>2021.283</ele>
        <time>2019-05-30T13:25:39Z</time>
      </trkpt>
      <trkpt lat="42.456816" lon="1.796163">
        <ele>2021.481</ele>
        <time>2019-05-30T13:25:40Z</time>
      </trkpt>
      <trkpt lat="42.456845" lon="1.796068">
        <ele>2022.436</ele>
        <time>2019-05-30T13:25:46Z</time>
      </trkpt>
      <trkpt lat="42.456855" lon="1.796057">
        <ele>2022.225</ele>
        <time>2019-05-30T13:25:47Z</time>
      </trkpt>
      <trkpt lat="42.456866" lon="1.796047">
        <ele>2022.426</ele>
        <time>2019-05-30T13:25:48Z</time>
      </trkpt>
      <trkpt lat="42.456902" lon="1.795987">
        <ele>2022.808</ele>
        <time>2019-05-30T13:25:52Z</time>
      </trkpt>
      <trkpt lat="42.456918" lon="1.795962">
        <ele>2022.808</ele>
        <time>2019-05-30T13:25:54Z</time>
      </trkpt>
      <trkpt lat="42.456989" lon="1.795890">
        <ele>2023.285</ele>
        <time>2019-05-30T13:26:01Z</time>
      </trkpt>
      <trkpt lat="42.457010" lon="1.795871">
        <ele>2023.499</ele>
        <time>2019-05-30T13:26:03Z</time>
      </trkpt>
      <trkpt lat="42.457067" lon="1.795830">
        <ele>2024.095</ele>
        <time>2019-05-30T13:26:08Z</time>
      </trkpt>
      <trkpt lat="42.457078" lon="1.795817">
        <ele>2024.453</ele>
        <time>2019-05-30T13:26:09Z</time>
      </trkpt>
      <trkpt lat="42.457088" lon="1.795809">
        <ele>2024.696</ele>
        <time>2019-05-30T13:26:10Z</time>
      </trkpt>
      <trkpt lat="42.457107" lon="1.795792">
        <ele>2024.880</ele>
        <time>2019-05-30T13:26:12Z</time>
      </trkpt>
      <trkpt lat="42.457166" lon="1.795744">
        <ele>2025.428</ele>
        <time>2019-05-30T13:26:17Z</time>
      </trkpt>
      <trkpt lat="42.457190" lon="1.795732">
        <ele>2025.813</ele>
        <time>2019-05-30T13:26:19Z</time>
      </trkpt>
      <trkpt lat="42.457279" lon="1.795663">
        <ele>2026.676</ele>
        <time>2019-05-30T13:26:27Z</time>
      </trkpt>
      <trkpt lat="42.457292" lon="1.795657">
        <ele>2026.890</ele>
        <time>2019-05-30T13:26:28Z</time>
      </trkpt>
      <trkpt lat="42.457348" lon="1.795627">
        <ele>2027.819</ele>
        <time>2019-05-30T13:26:33Z</time>
      </trkpt>
      <trkpt lat="42.457377" lon="1.795607">
        <ele>2028.208</ele>
        <time>2019-05-30T13:26:36Z</time>
      </trkpt>
      <trkpt lat="42.457424" lon="1.795560">
        <ele>2028.810</ele>
        <time>2019-05-30T13:26:41Z</time>
      </trkpt>
      <trkpt lat="42.457444" lon="1.795545">
        <ele>2029.264</ele>
        <time>2019-05-30T13:26:43Z</time>
      </trkpt>
      <trkpt lat="42.457465" lon="1.795528">
        <ele>2027.650</ele>
        <time>2019-05-30T13:26:45Z</time>
      </trkpt>
      <trkpt lat="42.457477" lon="1.795523">
        <ele>2029.638</ele>
        <time>2019-05-30T13:26:46Z</time>
      </trkpt>
      <trkpt lat="42.457528" lon="1.795483">
        <ele>2030.221</ele>
        <time>2019-05-30T13:26:50Z</time>
      </trkpt>
      <trkpt lat="42.457594" lon="1.795415">
        <ele>2030.625</ele>
        <time>2019-05-30T13:26:57Z</time>
      </trkpt>
      <trkpt lat="42.457602" lon="1.795406">
        <ele>2030.613</ele>
        <time>2019-05-30T13:26:58Z</time>
      </trkpt>
      <trkpt lat="42.457688" lon="1.795316">
        <ele>2030.668</ele>
        <time>2019-05-30T13:27:07Z</time>
      </trkpt>
      <trkpt lat="42.457746" lon="1.795270">
        <ele>2031.033</ele>
        <time>2019-05-30T13:27:12Z</time>
      </trkpt>
      <trkpt lat="42.457765" lon="1.795241">
        <ele>2031.423</ele>
        <time>2019-05-30T13:27:14Z</time>
      </trkpt>
      <trkpt lat="42.457784" lon="1.795198">
        <ele>2031.615</ele>
        <time>2019-05-30T13:27:17Z</time>
      </trkpt>
      <trkpt lat="42.457826" lon="1.795164">
        <ele>2032.608</ele>
        <time>2019-05-30T13:27:21Z</time>
      </trkpt>
      <trkpt lat="42.457854" lon="1.795134">
        <ele>2033.286</ele>
        <time>2019-05-30T13:27:24Z</time>
      </trkpt>
      <trkpt lat="42.457902" lon="1.795074">
        <ele>2033.650</ele>
        <time>2019-05-30T13:27:29Z</time>
      </trkpt>
      <trkpt lat="42.457941" lon="1.795032">
        <ele>2034.686</ele>
        <time>2019-05-30T13:27:33Z</time>
      </trkpt>
      <trkpt lat="42.457971" lon="1.795005">
        <ele>2034.634</ele>
        <time>2019-05-30T13:27:36Z</time>
      </trkpt>
      <trkpt lat="42.457999" lon="1.794962">
        <ele>2035.057</ele>
        <time>2019-05-30T13:27:39Z</time>
      </trkpt>
      <trkpt lat="42.458073" lon="1.794870">
        <ele>2035.661</ele>
        <time>2019-05-30T13:27:47Z</time>
      </trkpt>
      <trkpt lat="42.458096" lon="1.794829">
        <ele>2035.879</ele>
        <time>2019-05-30T13:27:50Z</time>
      </trkpt>
      <trkpt lat="42.458137" lon="1.794799">
        <ele>2036.254</ele>
        <time>2019-05-30T13:27:54Z</time>
      </trkpt>
      <trkpt lat="42.458176" lon="1.794747">
        <ele>2036.881</ele>
        <time>2019-05-30T13:27:58Z</time>
      </trkpt>
      <trkpt lat="42.458221" lon="1.794687">
        <ele>2037.861</ele>
        <time>2019-05-30T13:28:03Z</time>
      </trkpt>
      <trkpt lat="42.458240" lon="1.794669">
        <ele>2037.817</ele>
        <time>2019-05-30T13:28:05Z</time>
      </trkpt>
      <trkpt lat="42.458335" lon="1.794567">
        <ele>2038.608</ele>
        <time>2019-05-30T13:28:14Z</time>
      </trkpt>
      <trkpt lat="42.458358" lon="1.794530">
        <ele>2039.051</ele>
        <time>2019-05-30T13:28:17Z</time>
      </trkpt>
      <trkpt lat="42.458400" lon="1.794463">
        <ele>2039.695</ele>
        <time>2019-05-30T13:28:22Z</time>
      </trkpt>
      <trkpt lat="42.458414" lon="1.794433">
        <ele>2040.051</ele>
        <time>2019-05-30T13:28:24Z</time>
      </trkpt>
      <trkpt lat="42.458441" lon="1.794359">
        <ele>2041.249</ele>
        <time>2019-05-30T13:28:29Z</time>
      </trkpt>
      <trkpt lat="42.458458" lon="1.794331">
        <ele>2041.292</ele>
        <time>2019-05-30T13:28:31Z</time>
      </trkpt>
      <trkpt lat="42.458526" lon="1.794203">
        <ele>2042.216</ele>
        <time>2019-05-30T13:28:40Z</time>
      </trkpt>
      <trkpt lat="42.458567" lon="1.794128">
        <ele>2043.424</ele>
        <time>2019-05-30T13:28:45Z</time>
      </trkpt>
      <trkpt lat="42.458599" lon="1.794075">
        <ele>2043.889</ele>
        <time>2019-05-30T13:28:49Z</time>
      </trkpt>
      <trkpt lat="42.458648" lon="1.793969">
        <ele>2044.279</ele>
        <time>2019-05-30T13:28:57Z</time>
      </trkpt>
      <trkpt lat="42.458648" lon="1.793955">
        <ele>2044.405</ele>
        <time>2019-05-30T13:28:58Z</time>
      </trkpt>
      <trkpt lat="42.458656" lon="1.793907">
        <ele>2044.425</ele>
        <time>2019-05-30T13:29:01Z</time>
      </trkpt>
      <trkpt lat="42.458673" lon="1.793869">
        <ele>2044.808</ele>
        <time>2019-05-30T13:29:04Z</time>
      </trkpt>
      <trkpt lat="42.458703" lon="1.793737">
        <ele>2045.610</ele>
        <time>2019-05-30T13:29:12Z</time>
      </trkpt>
      <trkpt lat="42.458712" lon="1.793710">
        <ele>2045.834</ele>
        <time>2019-05-30T13:29:14Z</time>
      </trkpt>
      <trkpt lat="42.458723" lon="1.793597">
        <ele>2046.650</ele>
        <time>2019-05-30T13:29:21Z</time>
      </trkpt>
      <trkpt lat="42.458727" lon="1.793546">
        <ele>2047.238</ele>
        <time>2019-05-30T13:29:24Z</time>
      </trkpt>
      <trkpt lat="42.458739" lon="1.793504">
        <ele>2047.851</ele>
        <time>2019-05-30T13:29:27Z</time>
      </trkpt>
      <trkpt lat="42.458747" lon="1.793416">
        <ele>2048.855</ele>
        <time>2019-05-30T13:29:32Z</time>
      </trkpt>
      <trkpt lat="42.458772" lon="1.793257">
        <ele>2049.493</ele>
        <time>2019-05-30T13:29:42Z</time>
      </trkpt>
      <trkpt lat="42.458805" lon="1.793137">
        <ele>2049.438</ele>
        <time>2019-05-30T13:29:49Z</time>
      </trkpt>
      <trkpt lat="42.458829" lon="1.793056">
        <ele>2049.884</ele>
        <time>2019-05-30T13:29:54Z</time>
      </trkpt>
      <trkpt lat="42.458853" lon="1.792973">
        <ele>2050.407</ele>
        <time>2019-05-30T13:29:59Z</time>
      </trkpt>
      <trkpt lat="42.458889" lon="1.792866">
        <ele>2051.017</ele>
        <time>2019-05-30T13:30:06Z</time>
      </trkpt>
      <trkpt lat="42.458928" lon="1.792737">
        <ele>2051.608</ele>
        <time>2019-05-30T13:30:14Z</time>
      </trkpt>
      <trkpt lat="42.458940" lon="1.792707">
        <ele>2052.051</ele>
        <time>2019-05-30T13:30:16Z</time>
      </trkpt>
      <trkpt lat="42.458963" lon="1.792587">
        <ele>2052.825</ele>
        <time>2019-05-30T13:30:23Z</time>
      </trkpt>
      <trkpt lat="42.458979" lon="1.792557">
        <ele>2053.041</ele>
        <time>2019-05-30T13:30:25Z</time>
      </trkpt>
      <trkpt lat="42.459026" lon="1.792441">
        <ele>2053.649</ele>
        <time>2019-05-30T13:30:32Z</time>
      </trkpt>
      <trkpt lat="42.459037" lon="1.792397">
        <ele>2053.672</ele>
        <time>2019-05-30T13:30:35Z</time>
      </trkpt>
      <trkpt lat="42.459047" lon="1.792377">
        <ele>2053.876</ele>
        <time>2019-05-30T13:30:37Z</time>
      </trkpt>
      <trkpt lat="42.459058" lon="1.792351">
        <ele>2054.084</ele>
        <time>2019-05-30T13:30:39Z</time>
      </trkpt>
      <trkpt lat="42.459082" lon="1.792292">
        <ele>2054.459</ele>
        <time>2019-05-30T13:30:43Z</time>
      </trkpt>
      <trkpt lat="42.459107" lon="1.792236">
        <ele>2055.039</ele>
        <time>2019-05-30T13:30:47Z</time>
      </trkpt>
      <trkpt lat="42.459126" lon="1.792192">
        <ele>2055.201</ele>
        <time>2019-05-30T13:30:50Z</time>
      </trkpt>
      <trkpt lat="42.459162" lon="1.792089">
        <ele>2056.221</ele>
        <time>2019-05-30T13:30:57Z</time>
      </trkpt>
      <trkpt lat="42.459168" lon="1.792062">
        <ele>2056.408</ele>
        <time>2019-05-30T13:30:59Z</time>
      </trkpt>
      <trkpt lat="42.459196" lon="1.791980">
        <ele>2057.636</ele>
        <time>2019-05-30T13:31:04Z</time>
      </trkpt>
      <trkpt lat="42.459208" lon="1.791907">
        <ele>2058.230</ele>
        <time>2019-05-30T13:31:08Z</time>
      </trkpt>
      <trkpt lat="42.459227" lon="1.791834">
        <ele>2058.626</ele>
        <time>2019-05-30T13:31:13Z</time>
      </trkpt>
      <trkpt lat="42.459237" lon="1.791780">
        <ele>2058.864</ele>
        <time>2019-05-30T13:31:16Z</time>
      </trkpt>
      <trkpt lat="42.459254" lon="1.791633">
        <ele>2059.437</ele>
        <time>2019-05-30T13:31:25Z</time>
      </trkpt>
      <trkpt lat="42.459256" lon="1.791600">
        <ele>2059.851</ele>
        <time>2019-05-30T13:31:27Z</time>
      </trkpt>
      <trkpt lat="42.459257" lon="1.791502">
        <ele>2060.459</ele>
        <time>2019-05-30T13:31:33Z</time>
      </trkpt>
      <trkpt lat="42.459269" lon="1.791422">
        <ele>2060.864</ele>
        <time>2019-05-30T13:31:38Z</time>
      </trkpt>
      <trkpt lat="42.459272" lon="1.791369">
        <ele>2061.473</ele>
        <time>2019-05-30T13:31:41Z</time>
      </trkpt>
      <trkpt lat="42.459270" lon="1.791311">
        <ele>2062.085</ele>
        <time>2019-05-30T13:31:44Z</time>
      </trkpt>
      <trkpt lat="42.459275" lon="1.791207">
        <ele>2062.813</ele>
        <time>2019-05-30T13:31:50Z</time>
      </trkpt>
      <trkpt lat="42.459274" lon="1.791094">
        <ele>2063.008</ele>
        <time>2019-05-30T13:31:56Z</time>
      </trkpt>
      <trkpt lat="42.459278" lon="1.791063">
        <ele>2063.210</ele>
        <time>2019-05-30T13:31:58Z</time>
      </trkpt>
      <trkpt lat="42.459308" lon="1.790887">
        <ele>2063.834</ele>
        <time>2019-05-30T13:32:08Z</time>
      </trkpt>
      <trkpt lat="42.459308" lon="1.790868">
        <ele>2064.230</ele>
        <time>2019-05-30T13:32:09Z</time>
      </trkpt>
      <trkpt lat="42.459326" lon="1.790776">
        <ele>2065.478</ele>
        <time>2019-05-30T13:32:15Z</time>
      </trkpt>
      <trkpt lat="42.459354" lon="1.790690">
        <ele>2065.631</ele>
        <time>2019-05-30T13:32:21Z</time>
      </trkpt>
      <trkpt lat="42.459398" lon="1.790573">
        <ele>2066.455</ele>
        <time>2019-05-30T13:32:29Z</time>
      </trkpt>
      <trkpt lat="42.459435" lon="1.790492">
        <ele>2067.443</ele>
        <time>2019-05-30T13:32:35Z</time>
      </trkpt>
      <trkpt lat="42.459455" lon="1.790437">
        <ele>2068.268</ele>
        <time>2019-05-30T13:32:39Z</time>
      </trkpt>
      <trkpt lat="42.459506" lon="1.790337">
        <ele>2068.461</ele>
        <time>2019-05-30T13:32:46Z</time>
      </trkpt>
      <trkpt lat="42.459513" lon="1.790326">
        <ele>2068.621</ele>
        <time>2019-05-30T13:32:47Z</time>
      </trkpt>
      <trkpt lat="42.459569" lon="1.790222">
        <ele>2068.613</ele>
        <time>2019-05-30T13:32:55Z</time>
      </trkpt>
      <trkpt lat="42.459596" lon="1.790165">
        <ele>2069.808</ele>
        <time>2019-05-30T13:32:59Z</time>
      </trkpt>
      <trkpt lat="42.459631" lon="1.790115">
        <ele>2070.479</ele>
        <time>2019-05-30T13:33:03Z</time>
      </trkpt>
      <trkpt lat="42.459655" lon="1.790040">
        <ele>2070.873</ele>
        <time>2019-05-30T13:33:08Z</time>
      </trkpt>
      <trkpt lat="42.459665" lon="1.790029">
        <ele>2071.489</ele>
        <time>2019-05-30T13:33:09Z</time>
      </trkpt>
      <trkpt lat="42.459677" lon="1.790004">
        <ele>2071.817</ele>
        <time>2019-05-30T13:33:11Z</time>
      </trkpt>
      <trkpt lat="42.459731" lon="1.789886">
        <ele>2072.670</ele>
        <time>2019-05-30T13:33:19Z</time>
      </trkpt>
      <trkpt lat="42.459795" lon="1.789768">
        <ele>2073.034</ele>
        <time>2019-05-30T13:33:28Z</time>
      </trkpt>
      <trkpt lat="42.459819" lon="1.789731">
        <ele>2073.442</ele>
        <time>2019-05-30T13:33:31Z</time>
      </trkpt>
      <trkpt lat="42.459846" lon="1.789673">
        <ele>2074.027</ele>
        <time>2019-05-30T13:33:35Z</time>
      </trkpt>
      <trkpt lat="42.459870" lon="1.789617">
        <ele>2074.677</ele>
        <time>2019-05-30T13:33:39Z</time>
      </trkpt>
      <trkpt lat="42.459902" lon="1.789554">
        <ele>2075.261</ele>
        <time>2019-05-30T13:33:44Z</time>
      </trkpt>
      <trkpt lat="42.459911" lon="1.789532">
        <ele>2075.427</ele>
        <time>2019-05-30T13:33:46Z</time>
      </trkpt>
      <trkpt lat="42.459919" lon="1.789523">
        <ele>2075.608</ele>
        <time>2019-05-30T13:33:47Z</time>
      </trkpt>
      <trkpt lat="42.459939" lon="1.789477">
        <ele>2076.290</ele>
        <time>2019-05-30T13:33:50Z</time>
      </trkpt>
      <trkpt lat="42.459951" lon="1.789450">
        <ele>2076.434</ele>
        <time>2019-05-30T13:33:52Z</time>
      </trkpt>
      <trkpt lat="42.459976" lon="1.789415">
        <ele>2076.860</ele>
        <time>2019-05-30T13:33:55Z</time>
      </trkpt>
      <trkpt lat="42.459993" lon="1.789387">
        <ele>2077.268</ele>
        <time>2019-05-30T13:33:57Z</time>
      </trkpt>
      <trkpt lat="42.460031" lon="1.789318">
        <ele>2077.281</ele>
        <time>2019-05-30T13:34:02Z</time>
      </trkpt>
      <trkpt lat="42.460090" lon="1.789230">
        <ele>2078.455</ele>
        <time>2019-05-30T13:34:09Z</time>
      </trkpt>
      <trkpt lat="42.460107" lon="1.789207">
        <ele>2079.083</ele>
        <time>2019-05-30T13:34:11Z</time>
      </trkpt>
      <trkpt lat="42.460156" lon="1.789145">
        <ele>2079.428</ele>
        <time>2019-05-30T13:34:16Z</time>
      </trkpt>
      <trkpt lat="42.460207" lon="1.789091">
        <ele>2079.232</ele>
        <time>2019-05-30T13:34:21Z</time>
      </trkpt>
      <trkpt lat="42.460265" lon="1.789022">
        <ele>2080.492</ele>
        <time>2019-05-30T13:34:27Z</time>
      </trkpt>
      <trkpt lat="42.460297" lon="1.788985">
        <ele>2081.011</ele>
        <time>2019-05-30T13:34:30Z</time>
      </trkpt>
      <trkpt lat="42.460367" lon="1.788919">
        <ele>2080.208</ele>
        <time>2019-05-30T13:34:37Z</time>
      </trkpt>
      <trkpt lat="42.460431" lon="1.788852">
        <ele>2081.446</ele>
        <time>2019-05-30T13:34:43Z</time>
      </trkpt>
      <trkpt lat="42.460468" lon="1.788802">
        <ele>2082.440</ele>
        <time>2019-05-30T13:34:47Z</time>
      </trkpt>
      <trkpt lat="42.460479" lon="1.788792">
        <ele>2082.636</ele>
        <time>2019-05-30T13:34:48Z</time>
      </trkpt>
      <trkpt lat="42.460530" lon="1.788718">
        <ele>2083.454</ele>
        <time>2019-05-30T13:34:54Z</time>
      </trkpt>
      <trkpt lat="42.460536" lon="1.788707">
        <ele>2083.687</ele>
        <time>2019-05-30T13:34:55Z</time>
      </trkpt>
      <trkpt lat="42.460547" lon="1.788702">
        <ele>2083.821</ele>
        <time>2019-05-30T13:34:56Z</time>
      </trkpt>
      <trkpt lat="42.460564" lon="1.788682">
        <ele>2084.239</ele>
        <time>2019-05-30T13:34:58Z</time>
      </trkpt>
      <trkpt lat="42.460591" lon="1.788644">
        <ele>2084.484</ele>
        <time>2019-05-30T13:35:01Z</time>
      </trkpt>
      <trkpt lat="42.460640" lon="1.788593">
        <ele>2084.897</ele>
        <time>2019-05-30T13:35:06Z</time>
      </trkpt>
      <trkpt lat="42.460659" lon="1.788570">
        <ele>2085.223</ele>
        <time>2019-05-30T13:35:08Z</time>
      </trkpt>
      <trkpt lat="42.460702" lon="1.788508">
        <ele>2085.825</ele>
        <time>2019-05-30T13:35:13Z</time>
      </trkpt>
      <trkpt lat="42.460738" lon="1.788477">
        <ele>2086.008</ele>
        <time>2019-05-30T13:35:16Z</time>
      </trkpt>
      <trkpt lat="42.460835" lon="1.788436">
        <ele>2085.882</ele>
        <time>2019-05-30T13:35:24Z</time>
      </trkpt>
      <trkpt lat="42.460886" lon="1.788436">
        <ele>2085.886</ele>
        <time>2019-05-30T13:35:28Z</time>
      </trkpt>
      <trkpt lat="42.460928" lon="1.788449">
        <ele>2087.242</ele>
        <time>2019-05-30T13:35:32Z</time>
      </trkpt>
      <trkpt lat="42.460967" lon="1.788466">
        <ele>2088.240</ele>
        <time>2019-05-30T13:35:35Z</time>
      </trkpt>
      <trkpt lat="42.461030" lon="1.788491">
        <ele>2088.093</ele>
        <time>2019-05-30T13:35:40Z</time>
      </trkpt>
      <trkpt lat="42.461092" lon="1.788519">
        <ele>2087.837</ele>
        <time>2019-05-30T13:35:46Z</time>
      </trkpt>
      <trkpt lat="42.461173" lon="1.788548">
        <ele>2089.265</ele>
        <time>2019-05-30T13:35:52Z</time>
      </trkpt>
      <trkpt lat="42.461288" lon="1.788557">
        <ele>2090.210</ele>
        <time>2019-05-30T13:36:00Z</time>
      </trkpt>
      <trkpt lat="42.461383" lon="1.788574">
        <ele>2090.884</ele>
        <time>2019-05-30T13:36:07Z</time>
      </trkpt>
      <trkpt lat="42.461425" lon="1.788571">
        <ele>2091.407</ele>
        <time>2019-05-30T13:36:10Z</time>
      </trkpt>
      <trkpt lat="42.461485" lon="1.788567">
        <ele>2092.217</ele>
        <time>2019-05-30T13:36:15Z</time>
      </trkpt>
      <trkpt lat="42.461502" lon="1.788562">
        <ele>2092.608</ele>
        <time>2019-05-30T13:36:17Z</time>
      </trkpt>
      <trkpt lat="42.461551" lon="1.788547">
        <ele>2093.021</ele>
        <time>2019-05-30T13:36:22Z</time>
      </trkpt>
      <trkpt lat="42.461616" lon="1.788531">
        <ele>2093.825</ele>
        <time>2019-05-30T13:36:27Z</time>
      </trkpt>
      <trkpt lat="42.461690" lon="1.788503">
        <ele>2094.261</ele>
        <time>2019-05-30T13:36:34Z</time>
      </trkpt>
      <trkpt lat="42.461748" lon="1.788470">
        <ele>2094.869</ele>
        <time>2019-05-30T13:36:39Z</time>
      </trkpt>
      <trkpt lat="42.461779" lon="1.788450">
        <ele>2095.022</ele>
        <time>2019-05-30T13:36:42Z</time>
      </trkpt>
      <trkpt lat="42.461859" lon="1.788394">
        <ele>2095.646</ele>
        <time>2019-05-30T13:36:49Z</time>
      </trkpt>
      <trkpt lat="42.461885" lon="1.788381">
        <ele>2095.894</ele>
        <time>2019-05-30T13:36:51Z</time>
      </trkpt>
      <trkpt lat="42.461914" lon="1.788356">
        <ele>2096.069</ele>
        <time>2019-05-30T13:36:54Z</time>
      </trkpt>
      <trkpt lat="42.461924" lon="1.788350">
        <ele>2096.239</ele>
        <time>2019-05-30T13:36:55Z</time>
      </trkpt>
      <trkpt lat="42.461993" lon="1.788304">
        <ele>2096.801</ele>
        <time>2019-05-30T13:37:01Z</time>
      </trkpt>
      <trkpt lat="42.462007" lon="1.788298">
        <ele>2096.821</ele>
        <time>2019-05-30T13:37:02Z</time>
      </trkpt>
      <trkpt lat="42.462029" lon="1.788285">
        <ele>2097.208</ele>
        <time>2019-05-30T13:37:04Z</time>
      </trkpt>
      <trkpt lat="42.462112" lon="1.788220">
        <ele>2097.656</ele>
        <time>2019-05-30T13:37:11Z</time>
      </trkpt>
      <trkpt lat="42.462135" lon="1.788200">
        <ele>2094.880</ele>
        <time>2019-05-30T13:37:13Z</time>
      </trkpt>
      <trkpt lat="42.462167" lon="1.788169">
        <ele>2097.686</ele>
        <time>2019-05-30T13:37:16Z</time>
      </trkpt>
      <trkpt lat="42.462176" lon="1.788159">
        <ele>2097.074</ele>
        <time>2019-05-30T13:37:17Z</time>
      </trkpt>
      <trkpt lat="42.462279" lon="1.788087">
        <ele>2098.457</ele>
        <time>2019-05-30T13:37:26Z</time>
      </trkpt>
      <trkpt lat="42.462293" lon="1.788079">
        <ele>2098.661</ele>
        <time>2019-05-30T13:37:27Z</time>
      </trkpt>
      <trkpt lat="42.462397" lon="1.788017">
        <ele>2099.629</ele>
        <time>2019-05-30T13:37:35Z</time>
      </trkpt>
      <trkpt lat="42.462413" lon="1.788018">
        <ele>2099.854</ele>
        <time>2019-05-30T13:37:36Z</time>
      </trkpt>
      <trkpt lat="42.462478" lon="1.787991">
        <ele>2100.611</ele>
        <time>2019-05-30T13:37:41Z</time>
      </trkpt>
      <trkpt lat="42.462516" lon="1.787977">
        <ele>2100.821</ele>
        <time>2019-05-30T13:37:44Z</time>
      </trkpt>
      <trkpt lat="42.462555" lon="1.787957">
        <ele>2101.203</ele>
        <time>2019-05-30T13:37:47Z</time>
      </trkpt>
      <trkpt lat="42.462596" lon="1.787950">
        <ele>2101.208</ele>
        <time>2019-05-30T13:37:50Z</time>
      </trkpt>
      <trkpt lat="42.462650" lon="1.787921">
        <ele>2101.454</ele>
        <time>2019-05-30T13:37:54Z</time>
      </trkpt>
      <trkpt lat="42.462712" lon="1.787889">
        <ele>2102.098</ele>
        <time>2019-05-30T13:37:58Z</time>
      </trkpt>
      <trkpt lat="42.462767" lon="1.787840">
        <ele>2102.644</ele>
        <time>2019-05-30T13:38:02Z</time>
      </trkpt>
      <trkpt lat="42.462831" lon="1.787767">
        <ele>2103.052</ele>
        <time>2019-05-30T13:38:07Z</time>
      </trkpt>
      <trkpt lat="42.462848" lon="1.787754">
        <ele>2103.095</ele>
        <time>2019-05-30T13:38:08Z</time>
      </trkpt>
      <trkpt lat="42.462972" lon="1.787648">
        <ele>2103.419</ele>
        <time>2019-05-30T13:38:16Z</time>
      </trkpt>
      <trkpt lat="42.463075" lon="1.787539">
        <ele>2103.487</ele>
        <time>2019-05-30T13:38:22Z</time>
      </trkpt>
      <trkpt lat="42.463223" lon="1.787390">
        <ele>2103.832</ele>
        <time>2019-05-30T13:38:29Z</time>
      </trkpt>
      <trkpt lat="42.463416" lon="1.787204">
        <ele>2102.877</ele>
        <time>2019-05-30T13:38:37Z</time>
      </trkpt>
      <trkpt lat="42.463451" lon="1.787149">
        <ele>2102.461</ele>
        <time>2019-05-30T13:38:39Z</time>
      </trkpt>
      <trkpt lat="42.463493" lon="1.787097">
        <ele>2102.427</ele>
        <time>2019-05-30T13:38:41Z</time>
      </trkpt>
      <trkpt lat="42.463528" lon="1.787040">
        <ele>2102.408</ele>
        <time>2019-05-30T13:38:43Z</time>
      </trkpt>
      <trkpt lat="42.463613" lon="1.786942">
        <ele>2103.050</ele>
        <time>2019-05-30T13:38:48Z</time>
      </trkpt>
      <trkpt lat="42.463728" lon="1.786784">
        <ele>2103.694</ele>
        <time>2019-05-30T13:38:55Z</time>
      </trkpt>
      <trkpt lat="42.463862" lon="1.786696">
        <ele>2102.890</ele>
        <time>2019-05-30T13:39:02Z</time>
      </trkpt>
      <trkpt lat="42.463933" lon="1.786596">
        <ele>2103.088</ele>
        <time>2019-05-30T13:39:08Z</time>
      </trkpt>
      <trkpt lat="42.463949" lon="1.786583">
        <ele>2103.091</ele>
        <time>2019-05-30T13:39:09Z</time>
      </trkpt>
      <trkpt lat="42.464011" lon="1.786485">
        <ele>2103.695</ele>
        <time>2019-05-30T13:39:14Z</time>
      </trkpt>
      <trkpt lat="42.464066" lon="1.786398">
        <ele>2104.293</ele>
        <time>2019-05-30T13:39:19Z</time>
      </trkpt>
      <trkpt lat="42.464080" lon="1.786361">
        <ele>2104.018</ele>
        <time>2019-05-30T13:39:21Z</time>
      </trkpt>
      <trkpt lat="42.464122" lon="1.786250">
        <ele>2104.032</ele>
        <time>2019-05-30T13:39:27Z</time>
      </trkpt>
      <trkpt lat="42.464149" lon="1.786141">
        <ele>2104.492</ele>
        <time>2019-05-30T13:39:32Z</time>
      </trkpt>
      <trkpt lat="42.464145" lon="1.786117">
        <ele>2104.411</ele>
        <time>2019-05-30T13:39:33Z</time>
      </trkpt>
      <trkpt lat="42.464129" lon="1.785997">
        <ele>2104.808</ele>
        <time>2019-05-30T13:39:39Z</time>
      </trkpt>
      <trkpt lat="42.464140" lon="1.785872">
        <ele>2105.436</ele>
        <time>2019-05-30T13:39:45Z</time>
      </trkpt>
      <trkpt lat="42.464144" lon="1.785852">
        <ele>2105.670</ele>
        <time>2019-05-30T13:39:46Z</time>
      </trkpt>
      <trkpt lat="42.464199" lon="1.785795">
        <ele>2106.256</ele>
        <time>2019-05-30T13:39:51Z</time>
      </trkpt>
      <trkpt lat="42.464213" lon="1.785794">
        <ele>2106.024</ele>
        <time>2019-05-30T13:39:52Z</time>
      </trkpt>
      <trkpt lat="42.464242" lon="1.785811">
        <ele>2106.427</ele>
        <time>2019-05-30T13:39:54Z</time>
      </trkpt>
      <trkpt lat="42.464249" lon="1.785831">
        <ele>2106.611</ele>
        <time>2019-05-30T13:39:55Z</time>
      </trkpt>
      <trkpt lat="42.464262" lon="1.785872">
        <ele>2106.829</ele>
        <time>2019-05-30T13:39:57Z</time>
      </trkpt>
      <trkpt lat="42.464290" lon="1.785962">
        <ele>2107.634</ele>
        <time>2019-05-30T13:40:02Z</time>
      </trkpt>
      <trkpt lat="42.464307" lon="1.785983">
        <ele>2107.815</ele>
        <time>2019-05-30T13:40:04Z</time>
      </trkpt>
      <trkpt lat="42.464291" lon="1.785951">
        <ele>2107.065</ele>
        <time>2019-05-30T13:41:17Z</time>
      </trkpt>
      <trkpt lat="42.464252" lon="1.785876">
        <ele>2106.411</ele>
        <time>2019-05-30T13:41:20Z</time>
      </trkpt>
      <trkpt lat="42.464232" lon="1.785818">
        <ele>2106.008</ele>
        <time>2019-05-30T13:41:22Z</time>
      </trkpt>
      <trkpt lat="42.464221" lon="1.785797">
        <ele>2105.834</ele>
        <time>2019-05-30T13:41:23Z</time>
      </trkpt>
      <trkpt lat="42.464206" lon="1.785781">
        <ele>2105.498</ele>
        <time>2019-05-30T13:41:24Z</time>
      </trkpt>
      <trkpt lat="42.464184" lon="1.785776">
        <ele>2105.424</ele>
        <time>2019-05-30T13:41:25Z</time>
      </trkpt>
      <trkpt lat="42.464137" lon="1.785801">
        <ele>2105.422</ele>
        <time>2019-05-30T13:41:27Z</time>
      </trkpt>
      <trkpt lat="42.464114" lon="1.785871">
        <ele>2104.645</ele>
        <time>2019-05-30T13:41:29Z</time>
      </trkpt>
      <trkpt lat="42.464117" lon="1.785916">
        <ele>2104.459</ele>
        <time>2019-05-30T13:41:30Z</time>
      </trkpt>
      <trkpt lat="42.464121" lon="1.785953">
        <ele>2104.277</ele>
        <time>2019-05-30T13:41:31Z</time>
      </trkpt>
      <trkpt lat="42.464134" lon="1.786090">
        <ele>2103.292</ele>
        <time>2019-05-30T13:41:35Z</time>
      </trkpt>
      <trkpt lat="42.464149" lon="1.786156">
        <ele>2102.885</ele>
        <time>2019-05-30T13:41:37Z</time>
      </trkpt>
      <trkpt lat="42.464161" lon="1.786222">
        <ele>2102.489</ele>
        <time>2019-05-30T13:41:41Z</time>
      </trkpt>
      <trkpt lat="42.464123" lon="1.786264">
        <ele>2103.617</ele>
        <time>2019-05-30T13:44:44Z</time>
      </trkpt>
      <trkpt lat="42.464090" lon="1.786318">
        <ele>2103.408</ele>
        <time>2019-05-30T13:44:47Z</time>
      </trkpt>
      <trkpt lat="42.464008" lon="1.786489">
        <ele>2102.851</ele>
        <time>2019-05-30T13:44:54Z</time>
      </trkpt>
      <trkpt lat="42.463873" lon="1.786666">
        <ele>2103.475</ele>
        <time>2019-05-30T13:45:00Z</time>
      </trkpt>
      <trkpt lat="42.463693" lon="1.786813">
        <ele>2103.061</ele>
        <time>2019-05-30T13:45:06Z</time>
      </trkpt>
      <trkpt lat="42.463534" lon="1.787036">
        <ele>2102.469</ele>
        <time>2019-05-30T13:45:12Z</time>
      </trkpt>
      <trkpt lat="42.463507" lon="1.787073">
        <ele>2102.092</ele>
        <time>2019-05-30T13:45:13Z</time>
      </trkpt>
      <trkpt lat="42.463285" lon="1.787330">
        <ele>2102.616</ele>
        <time>2019-05-30T13:45:21Z</time>
      </trkpt>
      <trkpt lat="42.463141" lon="1.787491">
        <ele>2103.284</ele>
        <time>2019-05-30T13:45:26Z</time>
      </trkpt>
      <trkpt lat="42.463057" lon="1.787580">
        <ele>2103.239</ele>
        <time>2019-05-30T13:45:29Z</time>
      </trkpt>
      <trkpt lat="42.462807" lon="1.787799">
        <ele>2102.258</ele>
        <time>2019-05-30T13:45:37Z</time>
      </trkpt>
      <trkpt lat="42.462604" lon="1.787929">
        <ele>2102.052</ele>
        <time>2019-05-30T13:45:42Z</time>
      </trkpt>
      <trkpt lat="42.462516" lon="1.787967">
        <ele>2101.217</ele>
        <time>2019-05-30T13:45:44Z</time>
      </trkpt>
      <trkpt lat="42.462472" lon="1.787986">
        <ele>2101.008</ele>
        <time>2019-05-30T13:45:45Z</time>
      </trkpt>
      <trkpt lat="42.462336" lon="1.788054">
        <ele>2099.848</ele>
        <time>2019-05-30T13:45:48Z</time>
      </trkpt>
      <trkpt lat="42.462253" lon="1.788120">
        <ele>2099.232</ele>
        <time>2019-05-30T13:45:50Z</time>
      </trkpt>
      <trkpt lat="42.462171" lon="1.788192">
        <ele>2098.638</ele>
        <time>2019-05-30T13:45:52Z</time>
      </trkpt>
      <trkpt lat="42.462122" lon="1.788225">
        <ele>2098.236</ele>
        <time>2019-05-30T13:45:53Z</time>
      </trkpt>
      <trkpt lat="42.462013" lon="1.788292">
        <ele>2097.479</ele>
        <time>2019-05-30T13:45:55Z</time>
      </trkpt>
      <trkpt lat="42.461896" lon="1.788363">
        <ele>2096.083</ele>
        <time>2019-05-30T13:45:57Z</time>
      </trkpt>
      <trkpt lat="42.461836" lon="1.788396">
        <ele>2094.861</ele>
        <time>2019-05-30T13:45:58Z</time>
      </trkpt>
      <trkpt lat="42.461713" lon="1.788452">
        <ele>2093.686</ele>
        <time>2019-05-30T13:46:00Z</time>
      </trkpt>
      <trkpt lat="42.461651" lon="1.788474">
        <ele>2093.484</ele>
        <time>2019-05-30T13:46:01Z</time>
      </trkpt>
      <trkpt lat="42.461458" lon="1.788518">
        <ele>2092.007</ele>
        <time>2019-05-30T13:46:04Z</time>
      </trkpt>
      <trkpt lat="42.461395" lon="1.788518">
        <ele>2091.417</ele>
        <time>2019-05-30T13:46:05Z</time>
      </trkpt>
      <trkpt lat="42.461331" lon="1.788511">
        <ele>2090.208</ele>
        <time>2019-05-30T13:46:06Z</time>
      </trkpt>
      <trkpt lat="42.461197" lon="1.788494">
        <ele>2089.221</ele>
        <time>2019-05-30T13:46:08Z</time>
      </trkpt>
      <trkpt lat="42.460971" lon="1.788420">
        <ele>2088.875</ele>
        <time>2019-05-30T13:46:12Z</time>
      </trkpt>
      <trkpt lat="42.460876" lon="1.788395">
        <ele>2088.041</ele>
        <time>2019-05-30T13:46:14Z</time>
      </trkpt>
      <trkpt lat="42.460783" lon="1.788412">
        <ele>2087.819</ele>
        <time>2019-05-30T13:46:16Z</time>
      </trkpt>
      <trkpt lat="42.460695" lon="1.788495">
        <ele>2087.012</ele>
        <time>2019-05-30T13:46:18Z</time>
      </trkpt>
      <trkpt lat="42.460651" lon="1.788553">
        <ele>2086.226</ele>
        <time>2019-05-30T13:46:19Z</time>
      </trkpt>
      <trkpt lat="42.460607" lon="1.788614">
        <ele>2085.434</ele>
        <time>2019-05-30T13:46:20Z</time>
      </trkpt>
      <trkpt lat="42.460521" lon="1.788727">
        <ele>2084.069</ele>
        <time>2019-05-30T13:46:22Z</time>
      </trkpt>
      <trkpt lat="42.460431" lon="1.788833">
        <ele>2082.227</ele>
        <time>2019-05-30T13:46:24Z</time>
      </trkpt>
      <trkpt lat="42.460384" lon="1.788879">
        <ele>2081.268</ele>
        <time>2019-05-30T13:46:25Z</time>
      </trkpt>
      <trkpt lat="42.460287" lon="1.788972">
        <ele>2079.814</ele>
        <time>2019-05-30T13:46:27Z</time>
      </trkpt>
      <trkpt lat="42.460101" lon="1.789176">
        <ele>2078.608</ele>
        <time>2019-05-30T13:46:31Z</time>
      </trkpt>
      <trkpt lat="42.459979" lon="1.789366">
        <ele>2077.495</ele>
        <time>2019-05-30T13:46:34Z</time>
      </trkpt>
      <trkpt lat="42.459903" lon="1.789516">
        <ele>2076.249</ele>
        <time>2019-05-30T13:46:36Z</time>
      </trkpt>
      <trkpt lat="42.459831" lon="1.789664">
        <ele>2074.655</ele>
        <time>2019-05-30T13:46:38Z</time>
      </trkpt>
      <trkpt lat="42.459716" lon="1.789902">
        <ele>2073.233</ele>
        <time>2019-05-30T13:46:41Z</time>
      </trkpt>
      <trkpt lat="42.459642" lon="1.790047">
        <ele>2071.876</ele>
        <time>2019-05-30T13:46:43Z</time>
      </trkpt>
      <trkpt lat="42.459567" lon="1.790182">
        <ele>2070.870</ele>
        <time>2019-05-30T13:46:45Z</time>
      </trkpt>
      <trkpt lat="42.459530" lon="1.790250">
        <ele>2069.618</ele>
        <time>2019-05-30T13:46:46Z</time>
      </trkpt>
      <trkpt lat="42.459456" lon="1.790395">
        <ele>2068.633</ele>
        <time>2019-05-30T13:46:48Z</time>
      </trkpt>
      <trkpt lat="42.459389" lon="1.790540">
        <ele>2067.695</ele>
        <time>2019-05-30T13:46:50Z</time>
      </trkpt>
      <trkpt lat="42.459357" lon="1.790615">
        <ele>2067.049</ele>
        <time>2019-05-30T13:46:51Z</time>
      </trkpt>
      <trkpt lat="42.459304" lon="1.790776">
        <ele>2065.423</ele>
        <time>2019-05-30T13:46:53Z</time>
      </trkpt>
      <trkpt lat="42.459285" lon="1.790862">
        <ele>2065.008</ele>
        <time>2019-05-30T13:46:54Z</time>
      </trkpt>
      <trkpt lat="42.459269" lon="1.790952">
        <ele>2064.612</ele>
        <time>2019-05-30T13:46:55Z</time>
      </trkpt>
      <trkpt lat="42.459259" lon="1.791042">
        <ele>2064.056</ele>
        <time>2019-05-30T13:46:56Z</time>
      </trkpt>
      <trkpt lat="42.459252" lon="1.791217">
        <ele>2063.012</ele>
        <time>2019-05-30T13:46:58Z</time>
      </trkpt>
      <trkpt lat="42.459242" lon="1.791391">
        <ele>2061.810</ele>
        <time>2019-05-30T13:47:00Z</time>
      </trkpt>
      <trkpt lat="42.459232" lon="1.791559">
        <ele>2060.823</ele>
        <time>2019-05-30T13:47:02Z</time>
      </trkpt>
      <trkpt lat="42.459207" lon="1.791807">
        <ele>2059.627</ele>
        <time>2019-05-30T13:47:05Z</time>
      </trkpt>
      <trkpt lat="42.459192" lon="1.791883">
        <ele>2059.055</ele>
        <time>2019-05-30T13:47:06Z</time>
      </trkpt>
      <trkpt lat="42.459174" lon="1.791956">
        <ele>2058.670</ele>
        <time>2019-05-30T13:47:07Z</time>
      </trkpt>
      <trkpt lat="42.459132" lon="1.792099">
        <ele>2057.244</ele>
        <time>2019-05-30T13:47:09Z</time>
      </trkpt>
      <trkpt lat="42.459107" lon="1.792170">
        <ele>2056.005</ele>
        <time>2019-05-30T13:47:10Z</time>
      </trkpt>
      <trkpt lat="42.459048" lon="1.792321">
        <ele>2054.815</ele>
        <time>2019-05-30T13:47:12Z</time>
      </trkpt>
      <trkpt lat="42.459019" lon="1.792397">
        <ele>2054.408</ele>
        <time>2019-05-30T13:47:13Z</time>
      </trkpt>
      <trkpt lat="42.458964" lon="1.792550">
        <ele>2053.627</ele>
        <time>2019-05-30T13:47:15Z</time>
      </trkpt>
      <trkpt lat="42.458894" lon="1.792766">
        <ele>2052.451</ele>
        <time>2019-05-30T13:47:18Z</time>
      </trkpt>
      <trkpt lat="42.458873" lon="1.792837">
        <ele>2052.037</ele>
        <time>2019-05-30T13:47:19Z</time>
      </trkpt>
      <trkpt lat="42.458852" lon="1.792908">
        <ele>2051.475</ele>
        <time>2019-05-30T13:47:20Z</time>
      </trkpt>
      <trkpt lat="42.458790" lon="1.793118">
        <ele>2050.038</ele>
        <time>2019-05-30T13:47:23Z</time>
      </trkpt>
      <trkpt lat="42.458757" lon="1.793251">
        <ele>2049.092</ele>
        <time>2019-05-30T13:47:25Z</time>
      </trkpt>
      <trkpt lat="42.458698" lon="1.793593">
        <ele>2047.810</ele>
        <time>2019-05-30T13:47:30Z</time>
      </trkpt>
      <trkpt lat="42.458688" lon="1.793665">
        <ele>2047.075</ele>
        <time>2019-05-30T13:47:31Z</time>
      </trkpt>
      <trkpt lat="42.458678" lon="1.793734">
        <ele>2046.646</ele>
        <time>2019-05-30T13:47:32Z</time>
      </trkpt>
      <trkpt lat="42.458653" lon="1.793871">
        <ele>2045.088</ele>
        <time>2019-05-30T13:47:34Z</time>
      </trkpt>
      <trkpt lat="42.458610" lon="1.794003">
        <ele>2044.016</ele>
        <time>2019-05-30T13:47:36Z</time>
      </trkpt>
      <trkpt lat="42.458583" lon="1.794067">
        <ele>2043.408</ele>
        <time>2019-05-30T13:47:37Z</time>
      </trkpt>
      <trkpt lat="42.458554" lon="1.794129">
        <ele>2043.037</ele>
        <time>2019-05-30T13:47:38Z</time>
      </trkpt>
      <trkpt lat="42.458463" lon="1.794304">
        <ele>2041.651</ele>
        <time>2019-05-30T13:47:41Z</time>
      </trkpt>
      <trkpt lat="42.458402" lon="1.794429">
        <ele>2040.827</ele>
        <time>2019-05-30T13:47:43Z</time>
      </trkpt>
      <trkpt lat="42.458372" lon="1.794489">
        <ele>2040.485</ele>
        <time>2019-05-30T13:47:44Z</time>
      </trkpt>
      <trkpt lat="42.458338" lon="1.794547">
        <ele>2040.058</ele>
        <time>2019-05-30T13:47:45Z</time>
      </trkpt>
      <trkpt lat="42.458300" lon="1.794602">
        <ele>2039.442</ele>
        <time>2019-05-30T13:47:46Z</time>
      </trkpt>
      <trkpt lat="42.458215" lon="1.794708">
        <ele>2038.440</ele>
        <time>2019-05-30T13:47:48Z</time>
      </trkpt>
      <trkpt lat="42.458172" lon="1.794759">
        <ele>2037.875</ele>
        <time>2019-05-30T13:47:49Z</time>
      </trkpt>
      <trkpt lat="42.458084" lon="1.794856">
        <ele>2036.431</ele>
        <time>2019-05-30T13:47:51Z</time>
      </trkpt>
      <trkpt lat="42.458004" lon="1.794944">
        <ele>2035.261</ele>
        <time>2019-05-30T13:47:53Z</time>
      </trkpt>
      <trkpt lat="42.457843" lon="1.795126">
        <ele>2034.207</ele>
        <time>2019-05-30T13:47:57Z</time>
      </trkpt>
      <trkpt lat="42.457800" lon="1.795168">
        <ele>2033.208</ele>
        <time>2019-05-30T13:47:58Z</time>
      </trkpt>
      <trkpt lat="42.457671" lon="1.795299">
        <ele>2032.066</ele>
        <time>2019-05-30T13:48:01Z</time>
      </trkpt>
      <trkpt lat="42.457583" lon="1.795380">
        <ele>2031.440</ele>
        <time>2019-05-30T13:48:03Z</time>
      </trkpt>
      <trkpt lat="42.457495" lon="1.795463">
        <ele>2030.416</ele>
        <time>2019-05-30T13:48:05Z</time>
      </trkpt>
      <trkpt lat="42.457405" lon="1.795541">
        <ele>2028.634</ele>
        <time>2019-05-30T13:48:07Z</time>
      </trkpt>
      <trkpt lat="42.457307" lon="1.795611">
        <ele>2027.447</ele>
        <time>2019-05-30T13:48:09Z</time>
      </trkpt>
      <trkpt lat="42.457074" lon="1.795795">
        <ele>2026.461</ele>
        <time>2019-05-30T13:48:14Z</time>
      </trkpt>
      <trkpt lat="42.456998" lon="1.795876">
        <ele>2025.469</ele>
        <time>2019-05-30T13:48:16Z</time>
      </trkpt>
      <trkpt lat="42.456926" lon="1.795958">
        <ele>2024.224</ele>
        <time>2019-05-30T13:48:18Z</time>
      </trkpt>
      <trkpt lat="42.456867" lon="1.796052">
        <ele>2023.215</ele>
        <time>2019-05-30T13:48:20Z</time>
      </trkpt>
      <trkpt lat="42.456821" lon="1.796163">
        <ele>2022.065</ele>
        <time>2019-05-30T13:48:22Z</time>
      </trkpt>
      <trkpt lat="42.456777" lon="1.796435">
        <ele>2021.011</ele>
        <time>2019-05-30T13:48:26Z</time>
      </trkpt>
      <trkpt lat="42.456774" lon="1.796506">
        <ele>2020.608</ele>
        <time>2019-05-30T13:48:27Z</time>
      </trkpt>
      <trkpt lat="42.456768" lon="1.796653">
        <ele>2019.634</ele>
        <time>2019-05-30T13:48:29Z</time>
      </trkpt>
      <trkpt lat="42.456757" lon="1.796870">
        <ele>2018.228</ele>
        <time>2019-05-30T13:48:32Z</time>
      </trkpt>
      <trkpt lat="42.456735" lon="1.797085">
        <ele>2017.024</ele>
        <time>2019-05-30T13:48:35Z</time>
      </trkpt>
      <trkpt lat="42.456722" lon="1.797158">
        <ele>2016.412</ele>
        <time>2019-05-30T13:48:36Z</time>
      </trkpt>
      <trkpt lat="42.456708" lon="1.797231">
        <ele>2015.815</ele>
        <time>2019-05-30T13:48:37Z</time>
      </trkpt>
      <trkpt lat="42.456671" lon="1.797376">
        <ele>2014.689</ele>
        <time>2019-05-30T13:48:39Z</time>
      </trkpt>
      <trkpt lat="42.456599" lon="1.797580">
        <ele>2013.287</ele>
        <time>2019-05-30T13:48:42Z</time>
      </trkpt>
      <trkpt lat="42.456548" lon="1.797713">
        <ele>2012.012</ele>
        <time>2019-05-30T13:48:44Z</time>
      </trkpt>
      <trkpt lat="42.456499" lon="1.797843">
        <ele>2010.432</ele>
        <time>2019-05-30T13:48:46Z</time>
      </trkpt>
      <trkpt lat="42.456447" lon="1.797975">
        <ele>2009.092</ele>
        <time>2019-05-30T13:48:48Z</time>
      </trkpt>
      <trkpt lat="42.456417" lon="1.798036">
        <ele>2008.611</ele>
        <time>2019-05-30T13:48:49Z</time>
      </trkpt>
      <trkpt lat="42.456349" lon="1.798143">
        <ele>2008.008</ele>
        <time>2019-05-30T13:48:51Z</time>
      </trkpt>
      <trkpt lat="42.456220" lon="1.798249">
        <ele>2007.236</ele>
        <time>2019-05-30T13:48:54Z</time>
      </trkpt>
      <trkpt lat="42.456174" lon="1.798274">
        <ele>2006.840</ele>
        <time>2019-05-30T13:48:55Z</time>
      </trkpt>
      <trkpt lat="42.456127" lon="1.798294">
        <ele>2006.426</ele>
        <time>2019-05-30T13:48:56Z</time>
      </trkpt>
      <trkpt lat="42.456080" lon="1.798309">
        <ele>2005.644</ele>
        <time>2019-05-30T13:48:57Z</time>
      </trkpt>
      <trkpt lat="42.456030" lon="1.798318">
        <ele>2004.837</ele>
        <time>2019-05-30T13:48:58Z</time>
      </trkpt>
      <trkpt lat="42.455979" lon="1.798318">
        <ele>2004.041</ele>
        <time>2019-05-30T13:48:59Z</time>
      </trkpt>
      <trkpt lat="42.455868" lon="1.798295">
        <ele>2003.869</ele>
        <time>2019-05-30T13:49:01Z</time>
      </trkpt>
      <trkpt lat="42.455755" lon="1.798239">
        <ele>2003.084</ele>
        <time>2019-05-30T13:49:03Z</time>
      </trkpt>
      <trkpt lat="42.455642" lon="1.798170">
        <ele>2001.629</ele>
        <time>2019-05-30T13:49:05Z</time>
      </trkpt>
      <trkpt lat="42.455536" lon="1.798108">
        <ele>2000.400</ele>
        <time>2019-05-30T13:49:07Z</time>
      </trkpt>
      <trkpt lat="42.455425" lon="1.798057">
        <ele>1999.420</ele>
        <time>2019-05-30T13:49:09Z</time>
      </trkpt>
      <trkpt lat="42.455369" lon="1.798038">
        <ele>1998.608</ele>
        <time>2019-05-30T13:49:10Z</time>
      </trkpt>
      <trkpt lat="42.455259" lon="1.798016">
        <ele>1997.465</ele>
        <time>2019-05-30T13:49:12Z</time>
      </trkpt>
      <trkpt lat="42.455157" lon="1.798013">
        <ele>1997.439</ele>
        <time>2019-05-30T13:49:14Z</time>
      </trkpt>
      <trkpt lat="42.455111" lon="1.798020">
        <ele>1997.415</ele>
        <time>2019-05-30T13:49:15Z</time>
      </trkpt>
      <trkpt lat="42.455019" lon="1.798053">
        <ele>1996.253</ele>
        <time>2019-05-30T13:49:17Z</time>
      </trkpt>
      <trkpt lat="42.454969" lon="1.798083">
        <ele>1995.446</ele>
        <time>2019-05-30T13:49:18Z</time>
      </trkpt>
      <trkpt lat="42.454921" lon="1.798117">
        <ele>1994.440</ele>
        <time>2019-05-30T13:49:19Z</time>
      </trkpt>
      <trkpt lat="42.454831" lon="1.798199">
        <ele>1993.838</ele>
        <time>2019-05-30T13:49:21Z</time>
      </trkpt>
      <trkpt lat="42.454698" lon="1.798332">
        <ele>1993.083</ele>
        <time>2019-05-30T13:49:24Z</time>
      </trkpt>
      <trkpt lat="42.454614" lon="1.798408">
        <ele>1991.848</ele>
        <time>2019-05-30T13:49:26Z</time>
      </trkpt>
      <trkpt lat="42.454535" lon="1.798478">
        <ele>1991.461</ele>
        <time>2019-05-30T13:49:28Z</time>
      </trkpt>
      <trkpt lat="42.454447" lon="1.798503">
        <ele>1990.617</ele>
        <time>2019-05-30T13:49:30Z</time>
      </trkpt>
      <trkpt lat="42.454314" lon="1.798426">
        <ele>1989.408</ele>
        <time>2019-05-30T13:49:33Z</time>
      </trkpt>
      <trkpt lat="42.454270" lon="1.798384">
        <ele>1988.487</ele>
        <time>2019-05-30T13:49:34Z</time>
      </trkpt>
      <trkpt lat="42.454186" lon="1.798289">
        <ele>1987.491</ele>
        <time>2019-05-30T13:49:36Z</time>
      </trkpt>
      <trkpt lat="42.454146" lon="1.798241">
        <ele>1987.267</ele>
        <time>2019-05-30T13:49:37Z</time>
      </trkpt>
      <trkpt lat="42.454065" lon="1.798143">
        <ele>1986.645</ele>
        <time>2019-05-30T13:49:39Z</time>
      </trkpt>
      <trkpt lat="42.454023" lon="1.798094">
        <ele>1986.068</ele>
        <time>2019-05-30T13:49:40Z</time>
      </trkpt>
      <trkpt lat="42.453933" lon="1.798000">
        <ele>1984.872</ele>
        <time>2019-05-30T13:49:42Z</time>
      </trkpt>
      <trkpt lat="42.453797" lon="1.797852">
        <ele>1984.620</ele>
        <time>2019-05-30T13:49:45Z</time>
      </trkpt>
      <trkpt lat="42.453657" lon="1.797698">
        <ele>1983.685</ele>
        <time>2019-05-30T13:49:48Z</time>
      </trkpt>
      <trkpt lat="42.453562" lon="1.797603">
        <ele>1982.626</ele>
        <time>2019-05-30T13:49:50Z</time>
      </trkpt>
      <trkpt lat="42.453406" lon="1.797487">
        <ele>1981.847</ele>
        <time>2019-05-30T13:49:53Z</time>
      </trkpt>
      <trkpt lat="42.453349" lon="1.797461">
        <ele>1981.611</ele>
        <time>2019-05-30T13:49:54Z</time>
      </trkpt>
      <trkpt lat="42.453292" lon="1.797436">
        <ele>1981.008</ele>
        <time>2019-05-30T13:49:55Z</time>
      </trkpt>
      <trkpt lat="42.453237" lon="1.797418">
        <ele>1980.475</ele>
        <time>2019-05-30T13:49:56Z</time>
      </trkpt>
      <trkpt lat="42.453066" lon="1.797398">
        <ele>1979.049</ele>
        <time>2019-05-30T13:49:59Z</time>
      </trkpt>
      <trkpt lat="42.452819" lon="1.797505">
        <ele>1978.045</ele>
        <time>2019-05-30T13:50:03Z</time>
      </trkpt>
      <trkpt lat="42.452760" lon="1.797545">
        <ele>1977.853</ele>
        <time>2019-05-30T13:50:04Z</time>
      </trkpt>
      <trkpt lat="42.452529" lon="1.797671">
        <ele>1976.476</ele>
        <time>2019-05-30T13:50:08Z</time>
      </trkpt>
      <trkpt lat="42.452296" lon="1.797743">
        <ele>1975.240</ele>
        <time>2019-05-30T13:50:12Z</time>
      </trkpt>
      <trkpt lat="42.452182" lon="1.797761">
        <ele>1974.048</ele>
        <time>2019-05-30T13:50:14Z</time>
      </trkpt>
      <trkpt lat="42.452067" lon="1.797759">
        <ele>1973.213</ele>
        <time>2019-05-30T13:50:16Z</time>
      </trkpt>
      <trkpt lat="42.452010" lon="1.797753">
        <ele>1972.634</ele>
        <time>2019-05-30T13:50:17Z</time>
      </trkpt>
      <trkpt lat="42.451898" lon="1.797722">
        <ele>1971.455</ele>
        <time>2019-05-30T13:50:19Z</time>
      </trkpt>
      <trkpt lat="42.451739" lon="1.797650">
        <ele>1969.410</ele>
        <time>2019-05-30T13:50:22Z</time>
      </trkpt>
      <trkpt lat="42.451408" lon="1.797495">
        <ele>1968.208</ele>
        <time>2019-05-30T13:50:28Z</time>
      </trkpt>
      <trkpt lat="42.451210" lon="1.797404">
        <ele>1967.456</ele>
        <time>2019-05-30T13:50:32Z</time>
      </trkpt>
      <trkpt lat="42.451163" lon="1.797387">
        <ele>1967.220</ele>
        <time>2019-05-30T13:50:33Z</time>
      </trkpt>
      <trkpt lat="42.451119" lon="1.797367">
        <ele>1966.846</ele>
        <time>2019-05-30T13:50:34Z</time>
      </trkpt>
      <trkpt lat="42.451037" lon="1.797322">
        <ele>1965.694</ele>
        <time>2019-05-30T13:50:36Z</time>
      </trkpt>
      <trkpt lat="42.450982" lon="1.797254">
        <ele>1964.817</ele>
        <time>2019-05-30T13:50:38Z</time>
      </trkpt>
      <trkpt lat="42.450956" lon="1.797163">
        <ele>1964.211</ele>
        <time>2019-05-30T13:50:40Z</time>
      </trkpt>
      <trkpt lat="42.450963" lon="1.797057">
        <ele>1962.699</ele>
        <time>2019-05-30T13:50:42Z</time>
      </trkpt>
      <trkpt lat="42.451061" lon="1.796876">
        <ele>1961.264</ele>
        <time>2019-05-30T13:50:46Z</time>
      </trkpt>
      <trkpt lat="42.451189" lon="1.796831">
        <ele>1960.489</ele>
        <time>2019-05-30T13:50:49Z</time>
      </trkpt>
      <trkpt lat="42.451321" lon="1.796885">
        <ele>1960.206</ele>
        <time>2019-05-30T13:50:52Z</time>
      </trkpt>
      <trkpt lat="42.451364" lon="1.796910">
        <ele>1959.826</ele>
        <time>2019-05-30T13:50:53Z</time>
      </trkpt>
      <trkpt lat="42.451670" lon="1.797056">
        <ele>1960.608</ele>
        <time>2019-05-30T13:51:00Z</time>
      </trkpt>
      <trkpt lat="42.452004" lon="1.797175">
        <ele>1960.011</ele>
        <time>2019-05-30T13:51:08Z</time>
      </trkpt>
      <trkpt lat="42.452301" lon="1.797227">
        <ele>1960.075</ele>
        <time>2019-05-30T13:51:15Z</time>
      </trkpt>
      <trkpt lat="42.452569" lon="1.797224">
        <ele>1960.071</ele>
        <time>2019-05-30T13:51:22Z</time>
      </trkpt>
      <trkpt lat="42.452788" lon="1.797173">
        <ele>1960.099</ele>
        <time>2019-05-30T13:51:28Z</time>
      </trkpt>
      <trkpt lat="42.453014" lon="1.797095">
        <ele>1960.442</ele>
        <time>2019-05-30T13:51:34Z</time>
      </trkpt>
      <trkpt lat="42.453199" lon="1.797046">
        <ele>1958.646</ele>
        <time>2019-05-30T13:51:39Z</time>
      </trkpt>
      <trkpt lat="42.453233" lon="1.797039">
        <ele>1959.074</ele>
        <time>2019-05-30T13:51:40Z</time>
      </trkpt>
      <trkpt lat="42.453301" lon="1.797035">
        <ele>1959.819</ele>
        <time>2019-05-30T13:51:42Z</time>
      </trkpt>
      <trkpt lat="42.453373" lon="1.797026">
        <ele>1958.834</ele>
        <time>2019-05-30T13:51:44Z</time>
      </trkpt>
      <trkpt lat="42.453480" lon="1.797012">
        <ele>1959.455</ele>
        <time>2019-05-30T13:51:47Z</time>
      </trkpt>
      <trkpt lat="42.453671" lon="1.797053">
        <ele>1959.210</ele>
        <time>2019-05-30T13:51:52Z</time>
      </trkpt>
      <trkpt lat="42.453811" lon="1.797166">
        <ele>1960.008</ele>
        <time>2019-05-30T13:51:56Z</time>
      </trkpt>
      <trkpt lat="42.453870" lon="1.797238">
        <ele>1960.676</ele>
        <time>2019-05-30T13:51:58Z</time>
      </trkpt>
      <trkpt lat="42.454080" lon="1.797513">
        <ele>1960.630</ele>
        <time>2019-05-30T13:52:06Z</time>
      </trkpt>
      <trkpt lat="42.454184" lon="1.797650">
        <ele>1960.236</ele>
        <time>2019-05-30T13:52:10Z</time>
      </trkpt>
      <trkpt lat="42.454216" lon="1.797688">
        <ele>1960.014</ele>
        <time>2019-05-30T13:52:11Z</time>
      </trkpt>
      <trkpt lat="42.454401" lon="1.797746">
        <ele>1960.047</ele>
        <time>2019-05-30T13:52:16Z</time>
      </trkpt>
      <trkpt lat="42.454557" lon="1.797642">
        <ele>1959.421</ele>
        <time>2019-05-30T13:52:20Z</time>
      </trkpt>
      <trkpt lat="42.454600" lon="1.797615">
        <ele>1959.489</ele>
        <time>2019-05-30T13:52:21Z</time>
      </trkpt>
      <trkpt lat="42.454728" lon="1.797541">
        <ele>1958.844</ele>
        <time>2019-05-30T13:52:24Z</time>
      </trkpt>
      <trkpt lat="42.454929" lon="1.797437">
        <ele>1959.412</ele>
        <time>2019-05-30T13:52:29Z</time>
      </trkpt>
      <trkpt lat="42.455156" lon="1.797381">
        <ele>1959.232</ele>
        <time>2019-05-30T13:52:34Z</time>
      </trkpt>
      <trkpt lat="42.455247" lon="1.797376">
        <ele>1959.805</ele>
        <time>2019-05-30T13:52:36Z</time>
      </trkpt>
      <trkpt lat="42.455542" lon="1.797296">
        <ele>1959.808</ele>
        <time>2019-05-30T13:52:43Z</time>
      </trkpt>
      <trkpt lat="42.455666" lon="1.797140">
        <ele>1959.674</ele>
        <time>2019-05-30T13:52:47Z</time>
      </trkpt>
      <trkpt lat="42.455691" lon="1.797089">
        <ele>1959.668</ele>
        <time>2019-05-30T13:52:48Z</time>
      </trkpt>
      <trkpt lat="42.455804" lon="1.796800">
        <ele>1959.494</ele>
        <time>2019-05-30T13:52:53Z</time>
      </trkpt>
      <trkpt lat="42.455819" lon="1.796735">
        <ele>1959.032</ele>
        <time>2019-05-30T13:52:54Z</time>
      </trkpt>
      <trkpt lat="42.455831" lon="1.796667">
        <ele>1958.845</ele>
        <time>2019-05-30T13:52:55Z</time>
      </trkpt>
      <trkpt lat="42.455862" lon="1.796266">
        <ele>1957.899</ele>
        <time>2019-05-30T13:53:00Z</time>
      </trkpt>
      <trkpt lat="42.455861" lon="1.796175">
        <ele>1957.427</ele>
        <time>2019-05-30T13:53:01Z</time>
      </trkpt>
      <trkpt lat="42.455856" lon="1.795991">
        <ele>1956.222</ele>
        <time>2019-05-30T13:53:03Z</time>
      </trkpt>
      <trkpt lat="42.455847" lon="1.795806">
        <ele>1955.039</ele>
        <time>2019-05-30T13:53:05Z</time>
      </trkpt>
      <trkpt lat="42.455832" lon="1.795614">
        <ele>1954.601</ele>
        <time>2019-05-30T13:53:07Z</time>
      </trkpt>
      <trkpt lat="42.455800" lon="1.795169">
        <ele>1953.821</ele>
        <time>2019-05-30T13:53:12Z</time>
      </trkpt>
      <trkpt lat="42.455798" lon="1.795007">
        <ele>1953.208</ele>
        <time>2019-05-30T13:53:14Z</time>
      </trkpt>
      <trkpt lat="42.455802" lon="1.794927">
        <ele>1952.646</ele>
        <time>2019-05-30T13:53:15Z</time>
      </trkpt>
      <trkpt lat="42.455859" lon="1.794713">
        <ele>1952.220</ele>
        <time>2019-05-30T13:53:18Z</time>
      </trkpt>
      <trkpt lat="42.455944" lon="1.794599">
        <ele>1951.216</ele>
        <time>2019-05-30T13:53:20Z</time>
      </trkpt>
      <trkpt lat="42.456000" lon="1.794557">
        <ele>1950.834</ele>
        <time>2019-05-30T13:53:21Z</time>
      </trkpt>
      <trkpt lat="42.456195" lon="1.794470">
        <ele>1950.297</ele>
        <time>2019-05-30T13:53:24Z</time>
      </trkpt>
      <trkpt lat="42.456334" lon="1.794414">
        <ele>1949.871</ele>
        <time>2019-05-30T13:53:26Z</time>
      </trkpt>
      <trkpt lat="42.456403" lon="1.794375">
        <ele>1949.669</ele>
        <time>2019-05-30T13:53:27Z</time>
      </trkpt>
      <trkpt lat="42.456593" lon="1.794206">
        <ele>1949.274</ele>
        <time>2019-05-30T13:53:30Z</time>
      </trkpt>
      <trkpt lat="42.456744" lon="1.793949">
        <ele>1948.074</ele>
        <time>2019-05-30T13:53:33Z</time>
      </trkpt>
      <trkpt lat="42.456786" lon="1.793847">
        <ele>1946.856</ele>
        <time>2019-05-30T13:53:34Z</time>
      </trkpt>
      <trkpt lat="42.456826" lon="1.793737">
        <ele>1946.421</ele>
        <time>2019-05-30T13:53:35Z</time>
      </trkpt>
      <trkpt lat="42.456904" lon="1.793504">
        <ele>1945.208</ele>
        <time>2019-05-30T13:53:37Z</time>
      </trkpt>
      <trkpt lat="42.456941" lon="1.793384">
        <ele>1943.610</ele>
        <time>2019-05-30T13:53:38Z</time>
      </trkpt>
      <trkpt lat="42.457002" lon="1.793133">
        <ele>1942.094</ele>
        <time>2019-05-30T13:53:40Z</time>
      </trkpt>
      <trkpt lat="42.457019" lon="1.793004">
        <ele>1941.890</ele>
        <time>2019-05-30T13:53:41Z</time>
      </trkpt>
      <trkpt lat="42.457044" lon="1.792751">
        <ele>1940.468</ele>
        <time>2019-05-30T13:53:43Z</time>
      </trkpt>
      <trkpt lat="42.457064" lon="1.792627">
        <ele>1939.451</ele>
        <time>2019-05-30T13:53:44Z</time>
      </trkpt>
      <trkpt lat="42.457158" lon="1.792272">
        <ele>1940.445</ele>
        <time>2019-05-30T13:53:47Z</time>
      </trkpt>
      <trkpt lat="42.457196" lon="1.792162">
        <ele>1940.043</ele>
        <time>2019-05-30T13:53:48Z</time>
      </trkpt>
      <trkpt lat="42.457229" lon="1.792051">
        <ele>1939.258</ele>
        <time>2019-05-30T13:53:49Z</time>
      </trkpt>
      <trkpt lat="42.457250" lon="1.791936">
        <ele>1938.652</ele>
        <time>2019-05-30T13:53:50Z</time>
      </trkpt>
      <trkpt lat="42.457257" lon="1.791816">
        <ele>1938.453</ele>
        <time>2019-05-30T13:53:51Z</time>
      </trkpt>
      <trkpt lat="42.457249" lon="1.791695">
        <ele>1938.008</ele>
        <time>2019-05-30T13:53:52Z</time>
      </trkpt>
      <trkpt lat="42.457204" lon="1.791452">
        <ele>1937.208</ele>
        <time>2019-05-30T13:53:54Z</time>
      </trkpt>
      <trkpt lat="42.457177" lon="1.791326">
        <ele>1936.268</ele>
        <time>2019-05-30T13:53:55Z</time>
      </trkpt>
      <trkpt lat="42.457153" lon="1.791198">
        <ele>1934.462</ele>
        <time>2019-05-30T13:53:56Z</time>
      </trkpt>
      <trkpt lat="42.457100" lon="1.790941">
        <ele>1933.278</ele>
        <time>2019-05-30T13:53:58Z</time>
      </trkpt>
      <trkpt lat="42.457023" lon="1.790572">
        <ele>1932.016</ele>
        <time>2019-05-30T13:54:01Z</time>
      </trkpt>
      <trkpt lat="42.456976" lon="1.790358">
        <ele>1930.879</ele>
        <time>2019-05-30T13:54:03Z</time>
      </trkpt>
      <trkpt lat="42.456929" lon="1.790176">
        <ele>1930.233</ele>
        <time>2019-05-30T13:54:05Z</time>
      </trkpt>
      <trkpt lat="42.456885" lon="1.790097">
        <ele>1930.481</ele>
        <time>2019-05-30T13:54:06Z</time>
      </trkpt>
      <trkpt lat="42.456689" lon="1.789928">
        <ele>1929.066</ele>
        <time>2019-05-30T13:54:09Z</time>
      </trkpt>
      <trkpt lat="42.456416" lon="1.789730">
        <ele>1927.687</ele>
        <time>2019-05-30T13:54:13Z</time>
      </trkpt>
      <trkpt lat="42.456287" lon="1.789614">
        <ele>1927.442</ele>
        <time>2019-05-30T13:54:15Z</time>
      </trkpt>
      <trkpt lat="42.456156" lon="1.789497">
        <ele>1926.226</ele>
        <time>2019-05-30T13:54:17Z</time>
      </trkpt>
      <trkpt lat="42.455937" lon="1.789298">
        <ele>1925.208</ele>
        <time>2019-05-30T13:54:20Z</time>
      </trkpt>
      <trkpt lat="42.455868" lon="1.789232">
        <ele>1924.631</ele>
        <time>2019-05-30T13:54:21Z</time>
      </trkpt>
      <trkpt lat="42.455739" lon="1.789111">
        <ele>1923.695</ele>
        <time>2019-05-30T13:54:23Z</time>
      </trkpt>
      <trkpt lat="42.455630" lon="1.789016">
        <ele>1923.211</ele>
        <time>2019-05-30T13:54:25Z</time>
      </trkpt>
      <trkpt lat="42.455585" lon="1.788967">
        <ele>1923.269</ele>
        <time>2019-05-30T13:54:26Z</time>
      </trkpt>
      <trkpt lat="42.455518" lon="1.788841">
        <ele>1922.462</ele>
        <time>2019-05-30T13:54:28Z</time>
      </trkpt>
      <trkpt lat="42.455497" lon="1.788760">
        <ele>1922.256</ele>
        <time>2019-05-30T13:54:29Z</time>
      </trkpt>
      <trkpt lat="42.455478" lon="1.788674">
        <ele>1922.234</ele>
        <time>2019-05-30T13:54:30Z</time>
      </trkpt>
      <trkpt lat="42.455432" lon="1.788491">
        <ele>1921.229</ele>
        <time>2019-05-30T13:54:32Z</time>
      </trkpt>
      <trkpt lat="42.455407" lon="1.788399">
        <ele>1920.025</ele>
        <time>2019-05-30T13:54:33Z</time>
      </trkpt>
      <trkpt lat="42.455361" lon="1.788221">
        <ele>1918.426</ele>
        <time>2019-05-30T13:54:35Z</time>
      </trkpt>
      <trkpt lat="42.455312" lon="1.787966">
        <ele>1916.808</ele>
        <time>2019-05-30T13:54:38Z</time>
      </trkpt>
      <trkpt lat="42.455317" lon="1.787797">
        <ele>1915.008</ele>
        <time>2019-05-30T13:54:40Z</time>
      </trkpt>
      <trkpt lat="42.455359" lon="1.787629">
        <ele>1914.045</ele>
        <time>2019-05-30T13:54:42Z</time>
      </trkpt>
      <trkpt lat="42.455387" lon="1.787542">
        <ele>1914.039</ele>
        <time>2019-05-30T13:54:43Z</time>
      </trkpt>
      <trkpt lat="42.455416" lon="1.787454">
        <ele>1913.645</ele>
        <time>2019-05-30T13:54:44Z</time>
      </trkpt>
      <trkpt lat="42.455448" lon="1.787366">
        <ele>1912.623</ele>
        <time>2019-05-30T13:54:45Z</time>
      </trkpt>
      <trkpt lat="42.455478" lon="1.787277">
        <ele>1911.626</ele>
        <time>2019-05-30T13:54:46Z</time>
      </trkpt>
      <trkpt lat="42.455504" lon="1.787187">
        <ele>1910.460</ele>
        <time>2019-05-30T13:54:47Z</time>
      </trkpt>
      <trkpt lat="42.455577" lon="1.786923">
        <ele>1910.628</ele>
        <time>2019-05-30T13:54:50Z</time>
      </trkpt>
      <trkpt lat="42.455601" lon="1.786836">
        <ele>1909.233</ele>
        <time>2019-05-30T13:54:51Z</time>
      </trkpt>
      <trkpt lat="42.455667" lon="1.786666">
        <ele>1908.091</ele>
        <time>2019-05-30T13:54:53Z</time>
      </trkpt>
      <trkpt lat="42.455757" lon="1.786511">
        <ele>1907.281</ele>
        <time>2019-05-30T13:54:55Z</time>
      </trkpt>
      <trkpt lat="42.455852" lon="1.786361">
        <ele>1907.619</ele>
        <time>2019-05-30T13:54:57Z</time>
      </trkpt>
      <trkpt lat="42.455947" lon="1.786208">
        <ele>1906.408</ele>
        <time>2019-05-30T13:54:59Z</time>
      </trkpt>
      <trkpt lat="42.455996" lon="1.786138">
        <ele>1905.412</ele>
        <time>2019-05-30T13:55:00Z</time>
      </trkpt>
      <trkpt lat="42.456095" lon="1.786010">
        <ele>1904.076</ele>
        <time>2019-05-30T13:55:02Z</time>
      </trkpt>
      <trkpt lat="42.456244" lon="1.785820">
        <ele>1903.062</ele>
        <time>2019-05-30T13:55:05Z</time>
      </trkpt>
      <trkpt lat="42.456288" lon="1.785744">
        <ele>1902.270</ele>
        <time>2019-05-30T13:55:06Z</time>
      </trkpt>
      <trkpt lat="42.456325" lon="1.785655">
        <ele>1901.483</ele>
        <time>2019-05-30T13:55:07Z</time>
      </trkpt>
      <trkpt lat="42.456372" lon="1.785462">
        <ele>1900.297</ele>
        <time>2019-05-30T13:55:09Z</time>
      </trkpt>
      <trkpt lat="42.456388" lon="1.785365">
        <ele>1899.635</ele>
        <time>2019-05-30T13:55:10Z</time>
      </trkpt>
      <trkpt lat="42.456397" lon="1.785274">
        <ele>1899.090</ele>
        <time>2019-05-30T13:55:11Z</time>
      </trkpt>
      <trkpt lat="42.456399" lon="1.785116">
        <ele>1898.824</ele>
        <time>2019-05-30T13:55:13Z</time>
      </trkpt>
      <trkpt lat="42.456393" lon="1.784910">
        <ele>1897.804</ele>
        <time>2019-05-30T13:55:16Z</time>
      </trkpt>
      <trkpt lat="42.456399" lon="1.784830">
        <ele>1897.014</ele>
        <time>2019-05-30T13:55:17Z</time>
      </trkpt>
      <trkpt lat="42.456409" lon="1.784746">
        <ele>1896.208</ele>
        <time>2019-05-30T13:55:18Z</time>
      </trkpt>
      <trkpt lat="42.456435" lon="1.784575">
        <ele>1895.085</ele>
        <time>2019-05-30T13:55:20Z</time>
      </trkpt>
      <trkpt lat="42.456482" lon="1.784317">
        <ele>1894.289</ele>
        <time>2019-05-30T13:55:23Z</time>
      </trkpt>
      <trkpt lat="42.456496" lon="1.784233">
        <ele>1893.425</ele>
        <time>2019-05-30T13:55:24Z</time>
      </trkpt>
      <trkpt lat="42.456521" lon="1.784057">
        <ele>1892.273</ele>
        <time>2019-05-30T13:55:26Z</time>
      </trkpt>
      <trkpt lat="42.456525" lon="1.783969">
        <ele>1891.876</ele>
        <time>2019-05-30T13:55:27Z</time>
      </trkpt>
      <trkpt lat="42.456527" lon="1.783885">
        <ele>1891.250</ele>
        <time>2019-05-30T13:55:28Z</time>
      </trkpt>
      <trkpt lat="42.456523" lon="1.783804">
        <ele>1890.888</ele>
        <time>2019-05-30T13:55:29Z</time>
      </trkpt>
      <trkpt lat="42.456517" lon="1.783559">
        <ele>1890.013</ele>
        <time>2019-05-30T13:55:32Z</time>
      </trkpt>
      <trkpt lat="42.456542" lon="1.783407">
        <ele>1889.644</ele>
        <time>2019-05-30T13:55:34Z</time>
      </trkpt>
      <trkpt lat="42.456565" lon="1.783329">
        <ele>1888.605</ele>
        <time>2019-05-30T13:55:35Z</time>
      </trkpt>
      <trkpt lat="42.456630" lon="1.783174">
        <ele>1887.615</ele>
        <time>2019-05-30T13:55:37Z</time>
      </trkpt>
      <trkpt lat="42.456668" lon="1.783109">
        <ele>1887.208</ele>
        <time>2019-05-30T13:55:38Z</time>
      </trkpt>
      <trkpt lat="42.456796" lon="1.782910">
        <ele>1886.627</ele>
        <time>2019-05-30T13:55:41Z</time>
      </trkpt>
      <trkpt lat="42.456835" lon="1.782828">
        <ele>1886.271</ele>
        <time>2019-05-30T13:55:42Z</time>
      </trkpt>
      <trkpt lat="42.456956" lon="1.782473">
        <ele>1884.667</ele>
        <time>2019-05-30T13:55:46Z</time>
      </trkpt>
      <trkpt lat="42.456969" lon="1.782389">
        <ele>1884.095</ele>
        <time>2019-05-30T13:55:47Z</time>
      </trkpt>
      <trkpt lat="42.456976" lon="1.782308">
        <ele>1883.488</ele>
        <time>2019-05-30T13:55:48Z</time>
      </trkpt>
      <trkpt lat="42.456975" lon="1.782232">
        <ele>1883.082</ele>
        <time>2019-05-30T13:55:49Z</time>
      </trkpt>
      <trkpt lat="42.456972" lon="1.782079">
        <ele>1881.820</ele>
        <time>2019-05-30T13:55:51Z</time>
      </trkpt>
      <trkpt lat="42.456966" lon="1.781717">
        <ele>1880.415</ele>
        <time>2019-05-30T13:55:55Z</time>
      </trkpt>
      <trkpt lat="42.456921" lon="1.781444">
        <ele>1879.235</ele>
        <time>2019-05-30T13:55:58Z</time>
      </trkpt>
      <trkpt lat="42.456907" lon="1.781362">
        <ele>1877.686</ele>
        <time>2019-05-30T13:55:59Z</time>
      </trkpt>
      <trkpt lat="42.456893" lon="1.781281">
        <ele>1877.014</ele>
        <time>2019-05-30T13:56:00Z</time>
      </trkpt>
      <trkpt lat="42.456879" lon="1.781197">
        <ele>1876.608</ele>
        <time>2019-05-30T13:56:01Z</time>
      </trkpt>
      <trkpt lat="42.456864" lon="1.781040">
        <ele>1876.246</ele>
        <time>2019-05-30T13:56:03Z</time>
      </trkpt>
      <trkpt lat="42.456886" lon="1.780901">
        <ele>1875.670</ele>
        <time>2019-05-30T13:56:05Z</time>
      </trkpt>
      <trkpt lat="42.456910" lon="1.780843">
        <ele>1875.256</ele>
        <time>2019-05-30T13:56:06Z</time>
      </trkpt>
      <trkpt lat="42.456999" lon="1.780756">
        <ele>1874.254</ele>
        <time>2019-05-30T13:56:08Z</time>
      </trkpt>
      <trkpt lat="42.457056" lon="1.780724">
        <ele>1873.657</ele>
        <time>2019-05-30T13:56:09Z</time>
      </trkpt>
      <trkpt lat="42.457167" lon="1.780645">
        <ele>1872.051</ele>
        <time>2019-05-30T13:56:11Z</time>
      </trkpt>
      <trkpt lat="42.457254" lon="1.780529">
        <ele>1870.439</ele>
        <time>2019-05-30T13:56:13Z</time>
      </trkpt>
      <trkpt lat="42.457325" lon="1.780388">
        <ele>1869.234</ele>
        <time>2019-05-30T13:56:15Z</time>
      </trkpt>
      <trkpt lat="42.457381" lon="1.780231">
        <ele>1867.879</ele>
        <time>2019-05-30T13:56:17Z</time>
      </trkpt>
      <trkpt lat="42.457436" lon="1.780073">
        <ele>1866.805</ele>
        <time>2019-05-30T13:56:19Z</time>
      </trkpt>
      <trkpt lat="42.457553" lon="1.779723">
        <ele>1865.625</ele>
        <time>2019-05-30T13:56:24Z</time>
      </trkpt>
      <trkpt lat="42.457648" lon="1.779459">
        <ele>1864.608</ele>
        <time>2019-05-30T13:56:29Z</time>
      </trkpt>
      <trkpt lat="42.457681" lon="1.779405">
        <ele>1864.210</ele>
        <time>2019-05-30T13:56:30Z</time>
      </trkpt>
      <trkpt lat="42.457771" lon="1.779299">
        <ele>1862.844</ele>
        <time>2019-05-30T13:56:32Z</time>
      </trkpt>
      <trkpt lat="42.457821" lon="1.779249">
        <ele>1862.080</ele>
        <time>2019-05-30T13:56:33Z</time>
      </trkpt>
      <trkpt lat="42.457869" lon="1.779197">
        <ele>1861.498</ele>
        <time>2019-05-30T13:56:34Z</time>
      </trkpt>
      <trkpt lat="42.457954" lon="1.779081">
        <ele>1860.411</ele>
        <time>2019-05-30T13:56:36Z</time>
      </trkpt>
      <trkpt lat="42.457991" lon="1.779016">
        <ele>1860.065</ele>
        <time>2019-05-30T13:56:37Z</time>
      </trkpt>
      <trkpt lat="42.458030" lon="1.778954">
        <ele>1859.453</ele>
        <time>2019-05-30T13:56:38Z</time>
      </trkpt>
      <trkpt lat="42.458102" lon="1.778831">
        <ele>1858.828</ele>
        <time>2019-05-30T13:56:40Z</time>
      </trkpt>
      <trkpt lat="42.458139" lon="1.778781">
        <ele>1858.637</ele>
        <time>2019-05-30T13:56:41Z</time>
      </trkpt>
      <trkpt lat="42.458231" lon="1.778686">
        <ele>1857.649</ele>
        <time>2019-05-30T13:56:43Z</time>
      </trkpt>
      <trkpt lat="42.458410" lon="1.778560">
        <ele>1855.813</ele>
        <time>2019-05-30T13:56:46Z</time>
      </trkpt>
      <trkpt lat="42.458470" lon="1.778508">
        <ele>1854.208</ele>
        <time>2019-05-30T13:56:47Z</time>
      </trkpt>
      <trkpt lat="42.458586" lon="1.778378">
        <ele>1852.046</ele>
        <time>2019-05-30T13:56:49Z</time>
      </trkpt>
      <trkpt lat="42.458685" lon="1.778219">
        <ele>1850.650</ele>
        <time>2019-05-30T13:56:51Z</time>
      </trkpt>
      <trkpt lat="42.458767" lon="1.778024">
        <ele>1849.086</ele>
        <time>2019-05-30T13:56:53Z</time>
      </trkpt>
      <trkpt lat="42.458841" lon="1.777849">
        <ele>1848.234</ele>
        <time>2019-05-30T13:56:55Z</time>
      </trkpt>
      <trkpt lat="42.458879" lon="1.777768">
        <ele>1847.877</ele>
        <time>2019-05-30T13:56:56Z</time>
      </trkpt>
      <trkpt lat="42.459006" lon="1.777506">
        <ele>1846.871</ele>
        <time>2019-05-30T13:56:59Z</time>
      </trkpt>
      <trkpt lat="42.459091" lon="1.777341">
        <ele>1846.249</ele>
        <time>2019-05-30T13:57:01Z</time>
      </trkpt>
      <trkpt lat="42.459142" lon="1.777270">
        <ele>1846.034</ele>
        <time>2019-05-30T13:57:02Z</time>
      </trkpt>
      <trkpt lat="42.459257" lon="1.777138">
        <ele>1845.491</ele>
        <time>2019-05-30T13:57:04Z</time>
      </trkpt>
      <trkpt lat="42.459314" lon="1.777082">
        <ele>1845.281</ele>
        <time>2019-05-30T13:57:05Z</time>
      </trkpt>
      <trkpt lat="42.459449" lon="1.776927">
        <ele>1844.819</ele>
        <time>2019-05-30T13:57:08Z</time>
      </trkpt>
      <trkpt lat="42.459467" lon="1.776866">
        <ele>1844.808</ele>
        <time>2019-05-30T13:57:09Z</time>
      </trkpt>
      <trkpt lat="42.459411" lon="1.776683">
        <ele>1844.642</ele>
        <time>2019-05-30T13:57:12Z</time>
      </trkpt>
      <trkpt lat="42.459368" lon="1.776642">
        <ele>1844.046</ele>
        <time>2019-05-30T13:57:13Z</time>
      </trkpt>
      <trkpt lat="42.459229" lon="1.776540">
        <ele>1843.062</ele>
        <time>2019-05-30T13:57:16Z</time>
      </trkpt>
      <trkpt lat="42.458872" lon="1.776351">
        <ele>1843.840</ele>
        <time>2019-05-30T13:57:23Z</time>
      </trkpt>
      <trkpt lat="42.458465" lon="1.776153">
        <ele>1843.893</ele>
        <time>2019-05-30T13:57:31Z</time>
      </trkpt>
      <trkpt lat="42.458260" lon="1.776089">
        <ele>1843.827</ele>
        <time>2019-05-30T13:57:35Z</time>
      </trkpt>
      <trkpt lat="42.458207" lon="1.776087">
        <ele>1844.095</ele>
        <time>2019-05-30T13:57:36Z</time>
      </trkpt>
      <trkpt lat="42.457987" lon="1.776072">
        <ele>1843.060</ele>
        <time>2019-05-30T13:57:40Z</time>
      </trkpt>
      <trkpt lat="42.457811" lon="1.776054">
        <ele>1843.218</ele>
        <time>2019-05-30T13:57:43Z</time>
      </trkpt>
      <trkpt lat="42.457364" lon="1.775981">
        <ele>1843.498</ele>
        <time>2019-05-30T13:57:50Z</time>
      </trkpt>
      <trkpt lat="42.457178" lon="1.775895">
        <ele>1841.817</ele>
        <time>2019-05-30T13:57:53Z</time>
      </trkpt>
      <trkpt lat="42.457061" lon="1.775814">
        <ele>1842.008</ele>
        <time>2019-05-30T13:57:55Z</time>
      </trkpt>
      <trkpt lat="42.456885" lon="1.775691">
        <ele>1840.014</ele>
        <time>2019-05-30T13:57:58Z</time>
      </trkpt>
      <trkpt lat="42.456828" lon="1.775647">
        <ele>1839.068</ele>
        <time>2019-05-30T13:57:59Z</time>
      </trkpt>
      <trkpt lat="42.456722" lon="1.775554">
        <ele>1838.274</ele>
        <time>2019-05-30T13:58:01Z</time>
      </trkpt>
      <trkpt lat="42.456670" lon="1.775510">
        <ele>1837.822</ele>
        <time>2019-05-30T13:58:02Z</time>
      </trkpt>
      <trkpt lat="42.456285" lon="1.775244">
        <ele>1837.035</ele>
        <time>2019-05-30T13:58:09Z</time>
      </trkpt>
      <trkpt lat="42.456230" lon="1.775237">
        <ele>1837.099</ele>
        <time>2019-05-30T13:58:10Z</time>
      </trkpt>
      <trkpt lat="42.456175" lon="1.775247">
        <ele>1836.437</ele>
        <time>2019-05-30T13:58:11Z</time>
      </trkpt>
      <trkpt lat="42.456063" lon="1.775297">
        <ele>1835.232</ele>
        <time>2019-05-30T13:58:13Z</time>
      </trkpt>
      <trkpt lat="42.456009" lon="1.775327">
        <ele>1835.256</ele>
        <time>2019-05-30T13:58:14Z</time>
      </trkpt>
      <trkpt lat="42.455897" lon="1.775391">
        <ele>1834.259</ele>
        <time>2019-05-30T13:58:16Z</time>
      </trkpt>
      <trkpt lat="42.455677" lon="1.775496">
        <ele>1833.014</ele>
        <time>2019-05-30T13:58:20Z</time>
      </trkpt>
      <trkpt lat="42.455392" lon="1.775542">
        <ele>1832.008</ele>
        <time>2019-05-30T13:58:25Z</time>
      </trkpt>
      <trkpt lat="42.455342" lon="1.775541">
        <ele>1831.618</ele>
        <time>2019-05-30T13:58:26Z</time>
      </trkpt>
      <trkpt lat="42.455293" lon="1.775534">
        <ele>1830.832</ele>
        <time>2019-05-30T13:58:27Z</time>
      </trkpt>
      <trkpt lat="42.455192" lon="1.775482">
        <ele>1829.658</ele>
        <time>2019-05-30T13:58:29Z</time>
      </trkpt>
      <trkpt lat="42.455099" lon="1.775401">
        <ele>1828.486</ele>
        <time>2019-05-30T13:58:31Z</time>
      </trkpt>
      <trkpt lat="42.455056" lon="1.775356">
        <ele>1828.439</ele>
        <time>2019-05-30T13:58:32Z</time>
      </trkpt>
      <trkpt lat="42.455008" lon="1.775316">
        <ele>1828.463</ele>
        <time>2019-05-30T13:58:33Z</time>
      </trkpt>
      <trkpt lat="42.454957" lon="1.775287">
        <ele>1828.071</ele>
        <time>2019-05-30T13:58:34Z</time>
      </trkpt>
      <trkpt lat="42.454793" lon="1.775235">
        <ele>1827.286</ele>
        <time>2019-05-30T13:58:37Z</time>
      </trkpt>
      <trkpt lat="42.454687" lon="1.775206">
        <ele>1825.489</ele>
        <time>2019-05-30T13:58:39Z</time>
      </trkpt>
      <trkpt lat="42.454526" lon="1.775144">
        <ele>1824.606</ele>
        <time>2019-05-30T13:58:42Z</time>
      </trkpt>
      <trkpt lat="42.454468" lon="1.775134">
        <ele>1824.226</ele>
        <time>2019-05-30T13:58:43Z</time>
      </trkpt>
      <trkpt lat="42.454410" lon="1.775130">
        <ele>1823.808</ele>
        <time>2019-05-30T13:58:44Z</time>
      </trkpt>
      <trkpt lat="42.454292" lon="1.775131">
        <ele>1824.081</ele>
        <time>2019-05-30T13:58:46Z</time>
      </trkpt>
      <trkpt lat="42.454182" lon="1.775123">
        <ele>1823.015</ele>
        <time>2019-05-30T13:58:48Z</time>
      </trkpt>
      <trkpt lat="42.454132" lon="1.775126">
        <ele>1822.671</ele>
        <time>2019-05-30T13:58:49Z</time>
      </trkpt>
      <trkpt lat="42.454081" lon="1.775128">
        <ele>1822.019</ele>
        <time>2019-05-30T13:58:50Z</time>
      </trkpt>
      <trkpt lat="42.453985" lon="1.775135">
        <ele>1820.042</ele>
        <time>2019-05-30T13:58:52Z</time>
      </trkpt>
      <trkpt lat="42.453895" lon="1.775124">
        <ele>1819.256</ele>
        <time>2019-05-30T13:58:54Z</time>
      </trkpt>
      <trkpt lat="42.453851" lon="1.775099">
        <ele>1819.254</ele>
        <time>2019-05-30T13:58:55Z</time>
      </trkpt>
      <trkpt lat="42.453808" lon="1.775063">
        <ele>1818.619</ele>
        <time>2019-05-30T13:58:56Z</time>
      </trkpt>
      <trkpt lat="42.453730" lon="1.774956">
        <ele>1816.644</ele>
        <time>2019-05-30T13:58:58Z</time>
      </trkpt>
      <trkpt lat="42.453697" lon="1.774897">
        <ele>1815.805</ele>
        <time>2019-05-30T13:58:59Z</time>
      </trkpt>
      <trkpt lat="42.453667" lon="1.774839">
        <ele>1815.015</ele>
        <time>2019-05-30T13:59:00Z</time>
      </trkpt>
      <trkpt lat="42.453626" lon="1.774633">
        <ele>1813.608</ele>
        <time>2019-05-30T13:59:03Z</time>
      </trkpt>
      <trkpt lat="42.453624" lon="1.774482">
        <ele>1812.657</ele>
        <time>2019-05-30T13:59:05Z</time>
      </trkpt>
      <trkpt lat="42.453626" lon="1.774401">
        <ele>1812.481</ele>
        <time>2019-05-30T13:59:06Z</time>
      </trkpt>
      <trkpt lat="42.453626" lon="1.774156">
        <ele>1812.437</ele>
        <time>2019-05-30T13:59:09Z</time>
      </trkpt>
      <trkpt lat="42.453633" lon="1.773990">
        <ele>1810.615</ele>
        <time>2019-05-30T13:59:11Z</time>
      </trkpt>
      <trkpt lat="42.453675" lon="1.773648">
        <ele>1809.068</ele>
        <time>2019-05-30T13:59:15Z</time>
      </trkpt>
      <trkpt lat="42.453694" lon="1.773469">
        <ele>1807.422</ele>
        <time>2019-05-30T13:59:17Z</time>
      </trkpt>
      <trkpt lat="42.453718" lon="1.773299">
        <ele>1806.240</ele>
        <time>2019-05-30T13:59:19Z</time>
      </trkpt>
      <trkpt lat="42.453744" lon="1.773119">
        <ele>1805.865</ele>
        <time>2019-05-30T13:59:21Z</time>
      </trkpt>
      <trkpt lat="42.453760" lon="1.772948">
        <ele>1805.062</ele>
        <time>2019-05-30T13:59:23Z</time>
      </trkpt>
      <trkpt lat="42.453773" lon="1.772866">
        <ele>1804.083</ele>
        <time>2019-05-30T13:59:24Z</time>
      </trkpt>
      <trkpt lat="42.453800" lon="1.772698">
        <ele>1802.611</ele>
        <time>2019-05-30T13:59:26Z</time>
      </trkpt>
      <trkpt lat="42.453811" lon="1.772614">
        <ele>1802.008</ele>
        <time>2019-05-30T13:59:27Z</time>
      </trkpt>
      <trkpt lat="42.453822" lon="1.772523">
        <ele>1801.269</ele>
        <time>2019-05-30T13:59:28Z</time>
      </trkpt>
      <trkpt lat="42.453890" lon="1.772071">
        <ele>1800.213</ele>
        <time>2019-05-30T13:59:33Z</time>
      </trkpt>
      <trkpt lat="42.453901" lon="1.771981">
        <ele>1799.239</ele>
        <time>2019-05-30T13:59:34Z</time>
      </trkpt>
      <trkpt lat="42.453950" lon="1.771734">
        <ele>1797.867</ele>
        <time>2019-05-30T13:59:37Z</time>
      </trkpt>
      <trkpt lat="42.453987" lon="1.771590">
        <ele>1797.490</ele>
        <time>2019-05-30T13:59:39Z</time>
      </trkpt>
      <trkpt lat="42.454020" lon="1.771441">
        <ele>1796.664</ele>
        <time>2019-05-30T13:59:41Z</time>
      </trkpt>
      <trkpt lat="42.454018" lon="1.771277">
        <ele>1795.482</ele>
        <time>2019-05-30T13:59:43Z</time>
      </trkpt>
      <trkpt lat="42.453949" lon="1.770960">
        <ele>1794.487</ele>
        <time>2019-05-30T13:59:47Z</time>
      </trkpt>
      <trkpt lat="42.453880" lon="1.770798">
        <ele>1792.823</ele>
        <time>2019-05-30T13:59:49Z</time>
      </trkpt>
      <trkpt lat="42.453842" lon="1.770721">
        <ele>1792.283</ele>
        <time>2019-05-30T13:59:50Z</time>
      </trkpt>
      <trkpt lat="42.453804" lon="1.770642">
        <ele>1791.811</ele>
        <time>2019-05-30T13:59:51Z</time>
      </trkpt>
      <trkpt lat="42.453690" lon="1.770406">
        <ele>1791.008</ele>
        <time>2019-05-30T13:59:54Z</time>
      </trkpt>
      <trkpt lat="42.453657" lon="1.770327">
        <ele>1790.695</ele>
        <time>2019-05-30T13:59:55Z</time>
      </trkpt>
      <trkpt lat="42.453562" lon="1.770082">
        <ele>1789.499</ele>
        <time>2019-05-30T13:59:58Z</time>
      </trkpt>
      <trkpt lat="42.453466" lon="1.769849">
        <ele>1788.285</ele>
        <time>2019-05-30T14:00:01Z</time>
      </trkpt>
      <trkpt lat="42.453438" lon="1.769776">
        <ele>1787.243</ele>
        <time>2019-05-30T14:00:02Z</time>
      </trkpt>
      <trkpt lat="42.453412" lon="1.769699">
        <ele>1786.276</ele>
        <time>2019-05-30T14:00:03Z</time>
      </trkpt>
      <trkpt lat="42.453382" lon="1.769618">
        <ele>1785.220</ele>
        <time>2019-05-30T14:00:04Z</time>
      </trkpt>
      <trkpt lat="42.453325" lon="1.769456">
        <ele>1784.038</ele>
        <time>2019-05-30T14:00:06Z</time>
      </trkpt>
      <trkpt lat="42.453305" lon="1.769371">
        <ele>1783.653</ele>
        <time>2019-05-30T14:00:07Z</time>
      </trkpt>
      <trkpt lat="42.453289" lon="1.769284">
        <ele>1782.848</ele>
        <time>2019-05-30T14:00:08Z</time>
      </trkpt>
      <trkpt lat="42.453275" lon="1.769113">
        <ele>1781.261</ele>
        <time>2019-05-30T14:00:10Z</time>
      </trkpt>
      <trkpt lat="42.453271" lon="1.769027">
        <ele>1780.817</ele>
        <time>2019-05-30T14:00:11Z</time>
      </trkpt>
      <trkpt lat="42.453260" lon="1.768857">
        <ele>1780.408</ele>
        <time>2019-05-30T14:00:13Z</time>
      </trkpt>
      <trkpt lat="42.453254" lon="1.768772">
        <ele>1779.857</ele>
        <time>2019-05-30T14:00:14Z</time>
      </trkpt>
      <trkpt lat="42.453249" lon="1.768589">
        <ele>1778.671</ele>
        <time>2019-05-30T14:00:16Z</time>
      </trkpt>
      <trkpt lat="42.453244" lon="1.768413">
        <ele>1777.017</ele>
        <time>2019-05-30T14:00:18Z</time>
      </trkpt>
      <trkpt lat="42.453241" lon="1.768325">
        <ele>1776.425</ele>
        <time>2019-05-30T14:00:19Z</time>
      </trkpt>
      <trkpt lat="42.453241" lon="1.768237">
        <ele>1775.668</ele>
        <time>2019-05-30T14:00:20Z</time>
      </trkpt>
      <trkpt lat="42.453247" lon="1.767967">
        <ele>1774.472</ele>
        <time>2019-05-30T14:00:23Z</time>
      </trkpt>
      <trkpt lat="42.453250" lon="1.767697">
        <ele>1773.640</ele>
        <time>2019-05-30T14:00:26Z</time>
      </trkpt>
      <trkpt lat="42.453253" lon="1.767609">
        <ele>1773.265</ele>
        <time>2019-05-30T14:00:27Z</time>
      </trkpt>
      <trkpt lat="42.453270" lon="1.767260">
        <ele>1771.814</ele>
        <time>2019-05-30T14:00:31Z</time>
      </trkpt>
      <trkpt lat="42.453281" lon="1.767078">
        <ele>1770.854</ele>
        <time>2019-05-30T14:00:33Z</time>
      </trkpt>
      <trkpt lat="42.453309" lon="1.766906">
        <ele>1769.009</ele>
        <time>2019-05-30T14:00:35Z</time>
      </trkpt>
      <trkpt lat="42.453369" lon="1.766667">
        <ele>1768.208</ele>
        <time>2019-05-30T14:00:38Z</time>
      </trkpt>
      <trkpt lat="42.453396" lon="1.766590">
        <ele>1767.864</ele>
        <time>2019-05-30T14:00:39Z</time>
      </trkpt>
      <trkpt lat="42.453450" lon="1.766441">
        <ele>1766.638</ele>
        <time>2019-05-30T14:00:41Z</time>
      </trkpt>
      <trkpt lat="42.453549" lon="1.766142">
        <ele>1765.444</ele>
        <time>2019-05-30T14:00:45Z</time>
      </trkpt>
      <trkpt lat="42.453574" lon="1.766068">
        <ele>1765.632</ele>
        <time>2019-05-30T14:00:46Z</time>
      </trkpt>
      <trkpt lat="42.453655" lon="1.765838">
        <ele>1764.275</ele>
        <time>2019-05-30T14:00:49Z</time>
      </trkpt>
      <trkpt lat="42.453713" lon="1.765691">
        <ele>1763.039</ele>
        <time>2019-05-30T14:00:51Z</time>
      </trkpt>
      <trkpt lat="42.453771" lon="1.765551">
        <ele>1762.257</ele>
        <time>2019-05-30T14:00:53Z</time>
      </trkpt>
      <trkpt lat="42.453798" lon="1.765488">
        <ele>1762.082</ele>
        <time>2019-05-30T14:00:54Z</time>
      </trkpt>
      <trkpt lat="42.453835" lon="1.765360">
        <ele>1761.076</ele>
        <time>2019-05-30T14:00:56Z</time>
      </trkpt>
      <trkpt lat="42.453839" lon="1.765295">
        <ele>1760.890</ele>
        <time>2019-05-30T14:00:57Z</time>
      </trkpt>
      <trkpt lat="42.453830" lon="1.765236">
        <ele>1760.619</ele>
        <time>2019-05-30T14:00:58Z</time>
      </trkpt>
      <trkpt lat="42.453731" lon="1.765085">
        <ele>1760.008</ele>
        <time>2019-05-30T14:01:01Z</time>
      </trkpt>
      <trkpt lat="42.453683" lon="1.765052">
        <ele>1759.630</ele>
        <time>2019-05-30T14:01:02Z</time>
      </trkpt>
      <trkpt lat="42.453574" lon="1.765007">
        <ele>1758.024</ele>
        <time>2019-05-30T14:01:04Z</time>
      </trkpt>
      <trkpt lat="42.453503" lon="1.764997">
        <ele>1757.460</ele>
        <time>2019-05-30T14:01:05Z</time>
      </trkpt>
      <trkpt lat="42.453422" lon="1.765005">
        <ele>1756.838</ele>
        <time>2019-05-30T14:01:06Z</time>
      </trkpt>
      <trkpt lat="42.453253" lon="1.765042">
        <ele>1755.691</ele>
        <time>2019-05-30T14:01:08Z</time>
      </trkpt>
      <trkpt lat="42.453174" lon="1.765056">
        <ele>1755.045</ele>
        <time>2019-05-30T14:01:09Z</time>
      </trkpt>
      <trkpt lat="42.452998" lon="1.765084">
        <ele>1754.093</ele>
        <time>2019-05-30T14:01:11Z</time>
      </trkpt>
      <trkpt lat="42.452822" lon="1.765111">
        <ele>1752.828</ele>
        <time>2019-05-30T14:01:13Z</time>
      </trkpt>
      <trkpt lat="42.452741" lon="1.765132">
        <ele>1752.047</ele>
        <time>2019-05-30T14:01:14Z</time>
      </trkpt>
      <trkpt lat="42.452661" lon="1.765153">
        <ele>1751.429</ele>
        <time>2019-05-30T14:01:15Z</time>
      </trkpt>
      <trkpt lat="42.452500" lon="1.765191">
        <ele>1750.421</ele>
        <time>2019-05-30T14:01:17Z</time>
      </trkpt>
      <trkpt lat="42.452338" lon="1.765228">
        <ele>1749.008</ele>
        <time>2019-05-30T14:01:19Z</time>
      </trkpt>
      <trkpt lat="42.452181" lon="1.765257">
        <ele>1747.077</ele>
        <time>2019-05-30T14:01:21Z</time>
      </trkpt>
      <trkpt lat="42.452033" lon="1.765287">
        <ele>1746.231</ele>
        <time>2019-05-30T14:01:23Z</time>
      </trkpt>
      <trkpt lat="42.451829" lon="1.765343">
        <ele>1745.867</ele>
        <time>2019-05-30T14:01:26Z</time>
      </trkpt>
      <trkpt lat="42.451704" lon="1.765377">
        <ele>1744.845</ele>
        <time>2019-05-30T14:01:28Z</time>
      </trkpt>
      <trkpt lat="42.451584" lon="1.765294">
        <ele>1744.488</ele>
        <time>2019-05-30T14:01:31Z</time>
      </trkpt>
      <trkpt lat="42.451549" lon="1.765115">
        <ele>1743.492</ele>
        <time>2019-05-30T14:01:34Z</time>
      </trkpt>
      <trkpt lat="42.451561" lon="1.765052">
        <ele>1742.290</ele>
        <time>2019-05-30T14:01:35Z</time>
      </trkpt>
      <trkpt lat="42.451609" lon="1.764905">
        <ele>1741.015</ele>
        <time>2019-05-30T14:01:37Z</time>
      </trkpt>
      <trkpt lat="42.451641" lon="1.764827">
        <ele>1740.426</ele>
        <time>2019-05-30T14:01:38Z</time>
      </trkpt>
      <trkpt lat="42.451745" lon="1.764578">
        <ele>1739.847</ele>
        <time>2019-05-30T14:01:41Z</time>
      </trkpt>
      <trkpt lat="42.451827" lon="1.764405">
        <ele>1738.411</ele>
        <time>2019-05-30T14:01:43Z</time>
      </trkpt>
      <trkpt lat="42.451928" lon="1.764230">
        <ele>1737.208</ele>
        <time>2019-05-30T14:01:45Z</time>
      </trkpt>
      <trkpt lat="42.452031" lon="1.764061">
        <ele>1736.035</ele>
        <time>2019-05-30T14:01:47Z</time>
      </trkpt>
      <trkpt lat="42.452172" lon="1.763797">
        <ele>1734.669</ele>
        <time>2019-05-30T14:01:50Z</time>
      </trkpt>
      <trkpt lat="42.452258" lon="1.763605">
        <ele>1733.075</ele>
        <time>2019-05-30T14:01:52Z</time>
      </trkpt>
      <trkpt lat="42.452302" lon="1.763508">
        <ele>1731.833</ele>
        <time>2019-05-30T14:01:53Z</time>
      </trkpt>
      <trkpt lat="42.452392" lon="1.763307">
        <ele>1730.626</ele>
        <time>2019-05-30T14:01:55Z</time>
      </trkpt>
      <trkpt lat="42.452509" lon="1.763035">
        <ele>1729.410</ele>
        <time>2019-05-30T14:01:58Z</time>
      </trkpt>
      <trkpt lat="42.452544" lon="1.762957">
        <ele>1728.478</ele>
        <time>2019-05-30T14:01:59Z</time>
      </trkpt>
      <trkpt lat="42.452597" lon="1.762803">
        <ele>1727.823</ele>
        <time>2019-05-30T14:02:01Z</time>
      </trkpt>
      <trkpt lat="42.452603" lon="1.762647">
        <ele>1726.851</ele>
        <time>2019-05-30T14:02:03Z</time>
      </trkpt>
      <trkpt lat="42.452519" lon="1.762469">
        <ele>1726.601</ele>
        <time>2019-05-30T14:02:06Z</time>
      </trkpt>
      <trkpt lat="42.452379" lon="1.762461">
        <ele>1726.811</ele>
        <time>2019-05-30T14:02:09Z</time>
      </trkpt>
      <trkpt lat="42.452217" lon="1.762680">
        <ele>1726.208</ele>
        <time>2019-05-30T14:02:13Z</time>
      </trkpt>
      <trkpt lat="42.452179" lon="1.762763">
        <ele>1725.428</ele>
        <time>2019-05-30T14:02:14Z</time>
      </trkpt>
      <trkpt lat="42.452139" lon="1.762854">
        <ele>1724.812</ele>
        <time>2019-05-30T14:02:15Z</time>
      </trkpt>
      <trkpt lat="42.452097" lon="1.762956">
        <ele>1723.868</ele>
        <time>2019-05-30T14:02:16Z</time>
      </trkpt>
      <trkpt lat="42.452052" lon="1.763053">
        <ele>1722.876</ele>
        <time>2019-05-30T14:02:17Z</time>
      </trkpt>
      <trkpt lat="42.452003" lon="1.763147">
        <ele>1721.829</ele>
        <time>2019-05-30T14:02:18Z</time>
      </trkpt>
      <trkpt lat="42.451852" lon="1.763447">
        <ele>1720.243</ele>
        <time>2019-05-30T14:02:21Z</time>
      </trkpt>
      <trkpt lat="42.451801" lon="1.763538">
        <ele>1719.221</ele>
        <time>2019-05-30T14:02:22Z</time>
      </trkpt>
      <trkpt lat="42.451754" lon="1.763613">
        <ele>1717.226</ele>
        <time>2019-05-30T14:02:23Z</time>
      </trkpt>
      <trkpt lat="42.451710" lon="1.763672">
        <ele>1716.845</ele>
        <time>2019-05-30T14:02:24Z</time>
      </trkpt>
      <trkpt lat="42.451619" lon="1.763758">
        <ele>1716.247</ele>
        <time>2019-05-30T14:02:26Z</time>
      </trkpt>
      <trkpt lat="42.451535" lon="1.763832">
        <ele>1715.011</ele>
        <time>2019-05-30T14:02:28Z</time>
      </trkpt>
      <trkpt lat="42.451445" lon="1.763916">
        <ele>1713.808</ele>
        <time>2019-05-30T14:02:30Z</time>
      </trkpt>
      <trkpt lat="42.451343" lon="1.764014">
        <ele>1712.677</ele>
        <time>2019-05-30T14:02:32Z</time>
      </trkpt>
      <trkpt lat="42.451250" lon="1.764131">
        <ele>1711.481</ele>
        <time>2019-05-30T14:02:34Z</time>
      </trkpt>
      <trkpt lat="42.451182" lon="1.764235">
        <ele>1710.047</ele>
        <time>2019-05-30T14:02:36Z</time>
      </trkpt>
      <trkpt lat="42.451101" lon="1.764341">
        <ele>1708.815</ele>
        <time>2019-05-30T14:02:39Z</time>
      </trkpt>
      <trkpt lat="42.451057" lon="1.764382">
        <ele>1708.028</ele>
        <time>2019-05-30T14:02:41Z</time>
      </trkpt>
      <trkpt lat="42.451041" lon="1.764381">
        <ele>1707.832</ele>
        <time>2019-05-30T14:02:42Z</time>
      </trkpt>
      <trkpt lat="42.451031" lon="1.764368">
        <ele>1707.650</ele>
        <time>2019-05-30T14:02:43Z</time>
      </trkpt>
      <trkpt lat="42.451020" lon="1.764353">
        <ele>1707.495</ele>
        <time>2019-05-30T14:02:44Z</time>
      </trkpt>
      <trkpt lat="42.451038" lon="1.764321">
        <ele>1706.219</ele>
        <time>2019-05-30T14:02:47Z</time>
      </trkpt>
      <trkpt lat="42.451045" lon="1.764315">
        <ele>1706.209</ele>
        <time>2019-05-30T14:02:48Z</time>
      </trkpt>
      <trkpt lat="42.451048" lon="1.764304">
        <ele>1706.419</ele>
        <time>2019-05-30T14:02:49Z</time>
      </trkpt>
      <trkpt lat="42.451059" lon="1.764274">
        <ele>1704.208</ele>
        <time>2019-05-30T14:02:51Z</time>
      </trkpt>
      <trkpt lat="42.451098" lon="1.764217">
        <ele>1706.024</ele>
        <time>2019-05-30T14:02:54Z</time>
      </trkpt>
      <trkpt lat="42.451110" lon="1.764196">
        <ele>1705.048</ele>
        <time>2019-05-30T14:02:55Z</time>
      </trkpt>
      <trkpt lat="42.451146" lon="1.764125">
        <ele>1707.084</ele>
        <time>2019-05-30T14:02:58Z</time>
      </trkpt>
      <trkpt lat="42.451158" lon="1.764102">
        <ele>1708.672</ele>
        <time>2019-05-30T14:02:59Z</time>
      </trkpt>
      <trkpt lat="42.451188" lon="1.764053">
        <ele>1707.245</ele>
        <time>2019-05-30T14:03:01Z</time>
      </trkpt>
      <trkpt lat="42.451202" lon="1.764024">
        <ele>1707.289</ele>
        <time>2019-05-30T14:03:02Z</time>
      </trkpt>
      <trkpt lat="42.451252" lon="1.763942">
        <ele>1707.467</ele>
        <time>2019-05-30T14:03:05Z</time>
      </trkpt>
      <trkpt lat="42.451352" lon="1.763749">
        <ele>1705.822</ele>
        <time>2019-05-30T14:03:11Z</time>
      </trkpt>
      <trkpt lat="42.451392" lon="1.763675">
        <ele>1705.462</ele>
        <time>2019-05-30T14:03:13Z</time>
      </trkpt>
      <trkpt lat="42.451438" lon="1.763401">
        <ele>1706.683</ele>
        <time>2019-05-30T14:03:19Z</time>
      </trkpt>
      <trkpt lat="42.451424" lon="1.763359">
        <ele>1706.811</ele>
        <time>2019-05-30T14:03:20Z</time>
      </trkpt>
      <trkpt lat="42.451328" lon="1.763161">
        <ele>1706.608</ele>
        <time>2019-05-30T14:03:25Z</time>
      </trkpt>
      <trkpt lat="42.451159" lon="1.762837">
        <ele>1706.639</ele>
        <time>2019-05-30T14:03:33Z</time>
      </trkpt>
      <trkpt lat="42.451036" lon="1.762527">
        <ele>1706.243</ele>
        <time>2019-05-30T14:03:40Z</time>
      </trkpt>
      <trkpt lat="42.451027" lon="1.762478">
        <ele>1705.829</ele>
        <time>2019-05-30T14:03:41Z</time>
      </trkpt>
      <trkpt lat="42.451000" lon="1.762228">
        <ele>1705.897</ele>
        <time>2019-05-30T14:03:46Z</time>
      </trkpt>
      <trkpt lat="42.451041" lon="1.761932">
        <ele>1704.640</ele>
        <time>2019-05-30T14:03:52Z</time>
      </trkpt>
      <trkpt lat="42.451017" lon="1.761776">
        <ele>1704.444</ele>
        <time>2019-05-30T14:03:55Z</time>
      </trkpt>
      <trkpt lat="42.450992" lon="1.761729">
        <ele>1704.412</ele>
        <time>2019-05-30T14:03:56Z</time>
      </trkpt>
      <trkpt lat="42.450855" lon="1.761598">
        <ele>1705.047</ele>
        <time>2019-05-30T14:04:00Z</time>
      </trkpt>
      <trkpt lat="42.450712" lon="1.761611">
        <ele>1705.466</ele>
        <time>2019-05-30T14:04:04Z</time>
      </trkpt>
      <trkpt lat="42.450616" lon="1.761641">
        <ele>1705.629</ele>
        <time>2019-05-30T14:04:07Z</time>
      </trkpt>
      <trkpt lat="42.450498" lon="1.761677">
        <ele>1706.421</ele>
        <time>2019-05-30T14:04:11Z</time>
      </trkpt>
      <trkpt lat="42.450392" lon="1.761710">
        <ele>1706.808</ele>
        <time>2019-05-30T14:04:15Z</time>
      </trkpt>
      <trkpt lat="42.450312" lon="1.761738">
        <ele>1707.049</ele>
        <time>2019-05-30T14:04:18Z</time>
      </trkpt>
      <trkpt lat="42.450151" lon="1.761784">
        <ele>1707.883</ele>
        <time>2019-05-30T14:04:24Z</time>
      </trkpt>
      <trkpt lat="42.450122" lon="1.761781">
        <ele>1707.899</ele>
        <time>2019-05-30T14:04:25Z</time>
      </trkpt>
      <trkpt lat="42.449882" lon="1.761753">
        <ele>1708.477</ele>
        <time>2019-05-30T14:04:33Z</time>
      </trkpt>
      <trkpt lat="42.449687" lon="1.761704">
        <ele>1708.840</ele>
        <time>2019-05-30T14:04:39Z</time>
      </trkpt>
      <trkpt lat="42.449656" lon="1.761697">
        <ele>1708.884</ele>
        <time>2019-05-30T14:04:40Z</time>
      </trkpt>
      <trkpt lat="42.449391" lon="1.761614">
        <ele>1708.872</ele>
        <time>2019-05-30T14:04:49Z</time>
      </trkpt>
      <trkpt lat="42.449189" lon="1.761495">
        <ele>1709.237</ele>
        <time>2019-05-30T14:04:56Z</time>
      </trkpt>
      <trkpt lat="42.449127" lon="1.761410">
        <ele>1709.821</ele>
        <time>2019-05-30T14:04:59Z</time>
      </trkpt>
      <trkpt lat="42.449076" lon="1.761308">
        <ele>1710.241</ele>
        <time>2019-05-30T14:05:02Z</time>
      </trkpt>
      <trkpt lat="42.448964" lon="1.761140">
        <ele>1710.205</ele>
        <time>2019-05-30T14:05:08Z</time>
      </trkpt>
      <trkpt lat="42.448920" lon="1.761119">
        <ele>1710.008</ele>
        <time>2019-05-30T14:05:13Z</time>
      </trkpt>
      <trkpt lat="42.448835" lon="1.761008">
        <ele>1710.015</ele>
        <time>2019-05-30T14:05:27Z</time>
      </trkpt>
      <trkpt lat="42.448801" lon="1.760985">
        <ele>1710.229</ele>
        <time>2019-05-30T14:05:29Z</time>
      </trkpt>
      <trkpt lat="42.448743" lon="1.760972">
        <ele>1710.225</ele>
        <time>2019-05-30T14:05:32Z</time>
      </trkpt>
      <trkpt lat="42.448717" lon="1.761009">
        <ele>1710.083</ele>
        <time>2019-05-30T14:05:35Z</time>
      </trkpt>
      <trkpt lat="42.448688" lon="1.761125">
        <ele>1709.866</ele>
        <time>2019-05-30T14:05:39Z</time>
      </trkpt>
      <trkpt lat="42.448681" lon="1.761159">
        <ele>1709.840</ele>
        <time>2019-05-30T14:05:40Z</time>
      </trkpt>
      <trkpt lat="42.448609" lon="1.761363">
        <ele>1710.268</ele>
        <time>2019-05-30T14:05:47Z</time>
      </trkpt>
      <trkpt lat="42.448547" lon="1.761565">
        <ele>1710.243</ele>
        <time>2019-05-30T14:05:53Z</time>
      </trkpt>
      <trkpt lat="42.448536" lon="1.761601">
        <ele>1711.644</ele>
        <time>2019-05-30T14:05:54Z</time>
      </trkpt>
      <trkpt lat="42.448524" lon="1.761631">
        <ele>1709.805</ele>
        <time>2019-05-30T14:05:55Z</time>
      </trkpt>
      <trkpt lat="42.448466" lon="1.761727">
        <ele>1711.015</ele>
        <time>2019-05-30T14:05:58Z</time>
      </trkpt>
      <trkpt lat="42.448437" lon="1.761749">
        <ele>1710.408</ele>
        <time>2019-05-30T14:05:59Z</time>
      </trkpt>
      <trkpt lat="42.448200" lon="1.761867">
        <ele>1710.697</ele>
        <time>2019-05-30T14:06:06Z</time>
      </trkpt>
      <trkpt lat="42.448013" lon="1.761998">
        <ele>1710.041</ele>
        <time>2019-05-30T14:06:11Z</time>
      </trkpt>
      <trkpt lat="42.447974" lon="1.762020">
        <ele>1709.827</ele>
        <time>2019-05-30T14:06:12Z</time>
      </trkpt>
      <trkpt lat="42.447711" lon="1.762204">
        <ele>1709.285</ele>
        <time>2019-05-30T14:06:19Z</time>
      </trkpt>
      <trkpt lat="42.447679" lon="1.762227">
        <ele>1709.098</ele>
        <time>2019-05-30T14:06:20Z</time>
      </trkpt>
      <trkpt lat="42.447523" lon="1.762360">
        <ele>1709.422</ele>
        <time>2019-05-30T14:06:25Z</time>
      </trkpt>
      <trkpt lat="42.447327" lon="1.762565">
        <ele>1709.280</ele>
        <time>2019-05-30T14:06:31Z</time>
      </trkpt>
      <trkpt lat="42.447298" lon="1.762606">
        <ele>1709.225</ele>
        <time>2019-05-30T14:06:32Z</time>
      </trkpt>
      <trkpt lat="42.446997" lon="1.762946">
        <ele>1709.481</ele>
        <time>2019-05-30T14:06:41Z</time>
      </trkpt>
      <trkpt lat="42.446890" lon="1.763053">
        <ele>1710.061</ele>
        <time>2019-05-30T14:06:44Z</time>
      </trkpt>
      <trkpt lat="42.446803" lon="1.763154">
        <ele>1710.217</ele>
        <time>2019-05-30T14:06:47Z</time>
      </trkpt>
      <trkpt lat="42.446596" lon="1.763359">
        <ele>1710.808</ele>
        <time>2019-05-30T14:06:53Z</time>
      </trkpt>
      <trkpt lat="42.446553" lon="1.763382">
        <ele>1710.631</ele>
        <time>2019-05-30T14:06:54Z</time>
      </trkpt>
      <trkpt lat="42.446425" lon="1.763441">
        <ele>1710.695</ele>
        <time>2019-05-30T14:06:57Z</time>
      </trkpt>
      <trkpt lat="42.446359" lon="1.763502">
        <ele>1710.231</ele>
        <time>2019-05-30T14:06:59Z</time>
      </trkpt>
      <trkpt lat="42.446142" lon="1.763702">
        <ele>1710.889</ele>
        <time>2019-05-30T14:07:06Z</time>
      </trkpt>
      <trkpt lat="42.446107" lon="1.763718">
        <ele>1711.082</ele>
        <time>2019-05-30T14:07:07Z</time>
      </trkpt>
      <trkpt lat="42.445878" lon="1.763788">
        <ele>1711.026</ele>
        <time>2019-05-30T14:07:13Z</time>
      </trkpt>
      <trkpt lat="42.445618" lon="1.763883">
        <ele>1711.614</ele>
        <time>2019-05-30T14:07:20Z</time>
      </trkpt>
      <trkpt lat="42.445429" lon="1.764042">
        <ele>1711.669</ele>
        <time>2019-05-30T14:07:26Z</time>
      </trkpt>
      <trkpt lat="42.445274" lon="1.764127">
        <ele>1712.021</ele>
        <time>2019-05-30T14:07:31Z</time>
      </trkpt>
      <trkpt lat="42.445244" lon="1.764150">
        <ele>1712.041</ele>
        <time>2019-05-30T14:07:32Z</time>
      </trkpt>
      <trkpt lat="42.445151" lon="1.764347">
        <ele>1712.205</ele>
        <time>2019-05-30T14:07:37Z</time>
      </trkpt>
      <trkpt lat="42.445043" lon="1.764639">
        <ele>1712.208</ele>
        <time>2019-05-30T14:07:43Z</time>
      </trkpt>
      <trkpt lat="42.444934" lon="1.764997">
        <ele>1712.275</ele>
        <time>2019-05-30T14:07:50Z</time>
      </trkpt>
      <trkpt lat="42.444947" lon="1.765220">
        <ele>1712.069</ele>
        <time>2019-05-30T14:07:54Z</time>
      </trkpt>
      <trkpt lat="42.444958" lon="1.765269">
        <ele>1712.075</ele>
        <time>2019-05-30T14:07:55Z</time>
      </trkpt>
      <trkpt lat="42.444968" lon="1.765579">
        <ele>1712.463</ele>
        <time>2019-05-30T14:08:01Z</time>
      </trkpt>
      <trkpt lat="42.444889" lon="1.765856">
        <ele>1712.026</ele>
        <time>2019-05-30T14:08:06Z</time>
      </trkpt>
      <trkpt lat="42.444816" lon="1.766248">
        <ele>1713.040</ele>
        <time>2019-05-30T14:08:13Z</time>
      </trkpt>
      <trkpt lat="42.444745" lon="1.766585">
        <ele>1711.438</ele>
        <time>2019-05-30T14:08:19Z</time>
      </trkpt>
      <trkpt lat="42.444738" lon="1.766649">
        <ele>1711.653</ele>
        <time>2019-05-30T14:08:20Z</time>
      </trkpt>
      <trkpt lat="42.444711" lon="1.767015">
        <ele>1711.463</ele>
        <time>2019-05-30T14:08:26Z</time>
      </trkpt>
      <trkpt lat="42.444650" lon="1.767522">
        <ele>1711.444</ele>
        <time>2019-05-30T14:08:34Z</time>
      </trkpt>
      <trkpt lat="42.444616" lon="1.767718">
        <ele>1711.618</ele>
        <time>2019-05-30T14:08:37Z</time>
      </trkpt>
      <trkpt lat="42.444552" lon="1.767891">
        <ele>1712.008</ele>
        <time>2019-05-30T14:08:40Z</time>
      </trkpt>
      <trkpt lat="42.444523" lon="1.767944">
        <ele>1712.219</ele>
        <time>2019-05-30T14:08:41Z</time>
      </trkpt>
      <trkpt lat="42.444371" lon="1.768170">
        <ele>1712.053</ele>
        <time>2019-05-30T14:08:46Z</time>
      </trkpt>
      <trkpt lat="42.444341" lon="1.768222">
        <ele>1712.019</ele>
        <time>2019-05-30T14:08:47Z</time>
      </trkpt>
      <trkpt lat="42.444192" lon="1.768491">
        <ele>1712.447</ele>
        <time>2019-05-30T14:08:52Z</time>
      </trkpt>
      <trkpt lat="42.443952" lon="1.769020">
        <ele>1712.080</ele>
        <time>2019-05-30T14:09:01Z</time>
      </trkpt>
      <trkpt lat="42.443879" lon="1.769442">
        <ele>1712.034</ele>
        <time>2019-05-30T14:09:07Z</time>
      </trkpt>
      <trkpt lat="42.443851" lon="1.769785">
        <ele>1713.242</ele>
        <time>2019-05-30T14:09:12Z</time>
      </trkpt>
      <trkpt lat="42.443838" lon="1.769846">
        <ele>1713.057</ele>
        <time>2019-05-30T14:09:13Z</time>
      </trkpt>
      <trkpt lat="42.443819" lon="1.769908">
        <ele>1712.825</ele>
        <time>2019-05-30T14:09:14Z</time>
      </trkpt>
      <trkpt lat="42.443671" lon="1.770331">
        <ele>1712.826</ele>
        <time>2019-05-30T14:09:21Z</time>
      </trkpt>
      <trkpt lat="42.443518" lon="1.770753">
        <ele>1713.008</ele>
        <time>2019-05-30T14:09:28Z</time>
      </trkpt>
      <trkpt lat="42.443455" lon="1.770846">
        <ele>1713.208</ele>
        <time>2019-05-30T14:09:30Z</time>
      </trkpt>
      <trkpt lat="42.443366" lon="1.770897">
        <ele>1713.695</ele>
        <time>2019-05-30T14:09:32Z</time>
      </trkpt>
      <trkpt lat="42.443273" lon="1.770937">
        <ele>1714.069</ele>
        <time>2019-05-30T14:09:34Z</time>
      </trkpt>
      <trkpt lat="42.443059" lon="1.771037">
        <ele>1714.285</ele>
        <time>2019-05-30T14:09:39Z</time>
      </trkpt>
      <trkpt lat="42.443019" lon="1.771053">
        <ele>1714.093</ele>
        <time>2019-05-30T14:09:40Z</time>
      </trkpt>
      <trkpt lat="42.442869" lon="1.771127">
        <ele>1714.466</ele>
        <time>2019-05-30T14:09:44Z</time>
      </trkpt>
      <trkpt lat="42.442589" lon="1.771277">
        <ele>1714.450</ele>
        <time>2019-05-30T14:09:51Z</time>
      </trkpt>
      <trkpt lat="42.442469" lon="1.771330">
        <ele>1714.448</ele>
        <time>2019-05-30T14:09:54Z</time>
      </trkpt>
      <trkpt lat="42.442351" lon="1.771381">
        <ele>1714.283</ele>
        <time>2019-05-30T14:09:57Z</time>
      </trkpt>
      <trkpt lat="42.442107" lon="1.771497">
        <ele>1714.267</ele>
        <time>2019-05-30T14:10:03Z</time>
      </trkpt>
      <trkpt lat="42.442062" lon="1.771512">
        <ele>1714.281</ele>
        <time>2019-05-30T14:10:04Z</time>
      </trkpt>
      <trkpt lat="42.441706" lon="1.771650">
        <ele>1714.219</ele>
        <time>2019-05-30T14:10:12Z</time>
      </trkpt>
      <trkpt lat="42.441449" lon="1.771816">
        <ele>1714.208</ele>
        <time>2019-05-30T14:10:18Z</time>
      </trkpt>
      <trkpt lat="42.441406" lon="1.771846">
        <ele>1714.499</ele>
        <time>2019-05-30T14:10:19Z</time>
      </trkpt>
      <trkpt lat="42.441280" lon="1.771940">
        <ele>1714.423</ele>
        <time>2019-05-30T14:10:22Z</time>
      </trkpt>
      <trkpt lat="42.441193" lon="1.772014">
        <ele>1714.069</ele>
        <time>2019-05-30T14:10:24Z</time>
      </trkpt>
      <trkpt lat="42.440856" lon="1.772267">
        <ele>1714.497</ele>
        <time>2019-05-30T14:10:32Z</time>
      </trkpt>
      <trkpt lat="42.440825" lon="1.772305">
        <ele>1714.640</ele>
        <time>2019-05-30T14:10:33Z</time>
      </trkpt>
      <trkpt lat="42.440683" lon="1.772449">
        <ele>1714.434</ele>
        <time>2019-05-30T14:10:37Z</time>
      </trkpt>
      <trkpt lat="42.440377" lon="1.772669">
        <ele>1714.692</ele>
        <time>2019-05-30T14:10:44Z</time>
      </trkpt>
      <trkpt lat="42.440035" lon="1.772883">
        <ele>1714.097</ele>
        <time>2019-05-30T14:10:51Z</time>
      </trkpt>
      <trkpt lat="42.439940" lon="1.772908">
        <ele>1714.057</ele>
        <time>2019-05-30T14:10:53Z</time>
      </trkpt>
      <trkpt lat="42.439798" lon="1.772926">
        <ele>1714.600</ele>
        <time>2019-05-30T14:10:56Z</time>
      </trkpt>
      <trkpt lat="42.439492" lon="1.772924">
        <ele>1714.220</ele>
        <time>2019-05-30T14:11:02Z</time>
      </trkpt>
      <trkpt lat="42.439391" lon="1.772909">
        <ele>1715.208</ele>
        <time>2019-05-30T14:11:04Z</time>
      </trkpt>
      <trkpt lat="42.439297" lon="1.772950">
        <ele>1715.218</ele>
        <time>2019-05-30T14:11:06Z</time>
      </trkpt>
      <trkpt lat="42.439256" lon="1.772985">
        <ele>1714.012</ele>
        <time>2019-05-30T14:11:07Z</time>
      </trkpt>
      <trkpt lat="42.439220" lon="1.773025">
        <ele>1712.248</ele>
        <time>2019-05-30T14:11:08Z</time>
      </trkpt>
      <trkpt lat="42.439160" lon="1.773115">
        <ele>1715.076</ele>
        <time>2019-05-30T14:11:10Z</time>
      </trkpt>
      <trkpt lat="42.439135" lon="1.773164">
        <ele>1715.669</ele>
        <time>2019-05-30T14:11:11Z</time>
      </trkpt>
      <trkpt lat="42.439111" lon="1.773211">
        <ele>1715.613</ele>
        <time>2019-05-30T14:11:12Z</time>
      </trkpt>
      <trkpt lat="42.439028" lon="1.773431">
        <ele>1714.891</ele>
        <time>2019-05-30T14:11:16Z</time>
      </trkpt>
      <trkpt lat="42.439003" lon="1.773489">
        <ele>1715.016</ele>
        <time>2019-05-30T14:11:17Z</time>
      </trkpt>
      <trkpt lat="42.438943" lon="1.773675">
        <ele>1714.457</ele>
        <time>2019-05-30T14:11:20Z</time>
      </trkpt>
      <trkpt lat="42.438911" lon="1.773786">
        <ele>1715.000</ele>
        <time>2019-05-30T14:11:22Z</time>
      </trkpt>
      <trkpt lat="42.438820" lon="1.774066">
        <ele>1715.220</ele>
        <time>2019-05-30T14:11:28Z</time>
      </trkpt>
      <trkpt lat="42.438720" lon="1.774351">
        <ele>1715.008</ele>
        <time>2019-05-30T14:11:34Z</time>
      </trkpt>
      <trkpt lat="42.438550" lon="1.774846">
        <ele>1714.848</ele>
        <time>2019-05-30T14:11:43Z</time>
      </trkpt>
      <trkpt lat="42.438342" lon="1.775023">
        <ele>1715.052</ele>
        <time>2019-05-30T14:11:48Z</time>
      </trkpt>
      <trkpt lat="42.437997" lon="1.775185">
        <ele>1715.088</ele>
        <time>2019-05-30T14:11:55Z</time>
      </trkpt>
      <trkpt lat="42.437537" lon="1.775426">
        <ele>1715.266</ele>
        <time>2019-05-30T14:12:04Z</time>
      </trkpt>
      <trkpt lat="42.437484" lon="1.775459">
        <ele>1715.249</ele>
        <time>2019-05-30T14:12:05Z</time>
      </trkpt>
      <trkpt lat="42.437247" lon="1.775643">
        <ele>1715.053</ele>
        <time>2019-05-30T14:12:10Z</time>
      </trkpt>
      <trkpt lat="42.437150" lon="1.775718">
        <ele>1715.251</ele>
        <time>2019-05-30T14:12:12Z</time>
      </trkpt>
      <trkpt lat="42.436994" lon="1.775802">
        <ele>1715.496</ele>
        <time>2019-05-30T14:12:15Z</time>
      </trkpt>
      <trkpt lat="42.436788" lon="1.775872">
        <ele>1713.661</ele>
        <time>2019-05-30T14:12:19Z</time>
      </trkpt>
      <trkpt lat="42.436694" lon="1.775893">
        <ele>1714.421</ele>
        <time>2019-05-30T14:12:21Z</time>
      </trkpt>
      <trkpt lat="42.436655" lon="1.775904">
        <ele>1716.613</ele>
        <time>2019-05-30T14:12:22Z</time>
      </trkpt>
      <trkpt lat="42.436611" lon="1.775911">
        <ele>1714.608</ele>
        <time>2019-05-30T14:12:23Z</time>
      </trkpt>
      <trkpt lat="42.436530" lon="1.775938">
        <ele>1716.239</ele>
        <time>2019-05-30T14:12:25Z</time>
      </trkpt>
      <trkpt lat="42.436485" lon="1.775948">
        <ele>1716.223</ele>
        <time>2019-05-30T14:12:26Z</time>
      </trkpt>
      <trkpt lat="42.436159" lon="1.776048">
        <ele>1715.659</ele>
        <time>2019-05-30T14:12:33Z</time>
      </trkpt>
      <trkpt lat="42.435879" lon="1.776111">
        <ele>1715.037</ele>
        <time>2019-05-30T14:12:39Z</time>
      </trkpt>
      <trkpt lat="42.435833" lon="1.776123">
        <ele>1714.820</ele>
        <time>2019-05-30T14:12:40Z</time>
      </trkpt>
      <trkpt lat="42.435510" lon="1.776233">
        <ele>1715.424</ele>
        <time>2019-05-30T14:12:48Z</time>
      </trkpt>
      <trkpt lat="42.435270" lon="1.776303">
        <ele>1715.022</ele>
        <time>2019-05-30T14:12:54Z</time>
      </trkpt>
      <trkpt lat="42.435050" lon="1.776321">
        <ele>1715.687</ele>
        <time>2019-05-30T14:13:00Z</time>
      </trkpt>
      <trkpt lat="42.434918" lon="1.776352">
        <ele>1715.871</ele>
        <time>2019-05-30T14:13:04Z</time>
      </trkpt>
      <trkpt lat="42.434891" lon="1.776372">
        <ele>1715.841</ele>
        <time>2019-05-30T14:13:05Z</time>
      </trkpt>
      <trkpt lat="42.434760" lon="1.776426">
        <ele>1715.015</ele>
        <time>2019-05-30T14:13:08Z</time>
      </trkpt>
      <trkpt lat="42.434711" lon="1.776438">
        <ele>1714.408</ele>
        <time>2019-05-30T14:13:09Z</time>
      </trkpt>
      <trkpt lat="42.434604" lon="1.776473">
        <ele>1713.860</ele>
        <time>2019-05-30T14:13:11Z</time>
      </trkpt>
      <trkpt lat="42.434487" lon="1.776533">
        <ele>1712.884</ele>
        <time>2019-05-30T14:13:14Z</time>
      </trkpt>
      <trkpt lat="42.434461" lon="1.776567">
        <ele>1712.460</ele>
        <time>2019-05-30T14:13:15Z</time>
      </trkpt>
      <trkpt lat="42.434455" lon="1.776635">
        <ele>1711.818</ele>
        <time>2019-05-30T14:13:16Z</time>
      </trkpt>
      <trkpt lat="42.434461" lon="1.776702">
        <ele>1711.231</ele>
        <time>2019-05-30T14:13:17Z</time>
      </trkpt>
      <trkpt lat="42.434503" lon="1.776882">
        <ele>1710.035</ele>
        <time>2019-05-30T14:13:20Z</time>
      </trkpt>
      <trkpt lat="42.434490" lon="1.777002">
        <ele>1708.693</ele>
        <time>2019-05-30T14:13:22Z</time>
      </trkpt>
      <trkpt lat="42.434466" lon="1.777049">
        <ele>1708.248</ele>
        <time>2019-05-30T14:13:23Z</time>
      </trkpt>
      <trkpt lat="42.434384" lon="1.777166">
        <ele>1707.021</ele>
        <time>2019-05-30T14:13:26Z</time>
      </trkpt>
      <trkpt lat="42.434337" lon="1.777236">
        <ele>1706.841</ele>
        <time>2019-05-30T14:13:28Z</time>
      </trkpt>
      <trkpt lat="42.434294" lon="1.777298">
        <ele>1705.605</ele>
        <time>2019-05-30T14:13:30Z</time>
      </trkpt>
      <trkpt lat="42.434247" lon="1.777343">
        <ele>1705.008</ele>
        <time>2019-05-30T14:13:33Z</time>
      </trkpt>
      <trkpt lat="42.434206" lon="1.777403">
        <ele>1704.635</ele>
        <time>2019-05-30T14:13:35Z</time>
      </trkpt>
      <trkpt lat="42.434164" lon="1.777457">
        <ele>1703.889</ele>
        <time>2019-05-30T14:13:37Z</time>
      </trkpt>
      <trkpt lat="42.434013" lon="1.777597">
        <ele>1703.475</ele>
        <time>2019-05-30T14:13:42Z</time>
      </trkpt>
      <trkpt lat="42.433981" lon="1.777629">
        <ele>1703.293</ele>
        <time>2019-05-30T14:13:43Z</time>
      </trkpt>
      <trkpt lat="42.433919" lon="1.777695">
        <ele>1702.436</ele>
        <time>2019-05-30T14:13:45Z</time>
      </trkpt>
      <trkpt lat="42.433862" lon="1.777781">
        <ele>1701.060</ele>
        <time>2019-05-30T14:13:47Z</time>
      </trkpt>
      <trkpt lat="42.433839" lon="1.777822">
        <ele>1700.478</ele>
        <time>2019-05-30T14:13:48Z</time>
      </trkpt>
      <trkpt lat="42.433816" lon="1.777863">
        <ele>1699.813</ele>
        <time>2019-05-30T14:13:49Z</time>
      </trkpt>
      <trkpt lat="42.433741" lon="1.778014">
        <ele>1698.468</ele>
        <time>2019-05-30T14:13:52Z</time>
      </trkpt>
      <trkpt lat="42.433693" lon="1.778109">
        <ele>1697.242</ele>
        <time>2019-05-30T14:13:54Z</time>
      </trkpt>
      <trkpt lat="42.433647" lon="1.778181">
        <ele>1696.226</ele>
        <time>2019-05-30T14:13:56Z</time>
      </trkpt>
      <trkpt lat="42.433610" lon="1.778266">
        <ele>1694.808</ele>
        <time>2019-05-30T14:13:58Z</time>
      </trkpt>
      <trkpt lat="42.433589" lon="1.778310">
        <ele>1694.089</ele>
        <time>2019-05-30T14:13:59Z</time>
      </trkpt>
      <trkpt lat="42.433573" lon="1.778349">
        <ele>1693.053</ele>
        <time>2019-05-30T14:14:00Z</time>
      </trkpt>
      <trkpt lat="42.433553" lon="1.778386">
        <ele>1692.059</ele>
        <time>2019-05-30T14:14:01Z</time>
      </trkpt>
      <trkpt lat="42.433506" lon="1.778493">
        <ele>1691.287</ele>
        <time>2019-05-30T14:14:04Z</time>
      </trkpt>
      <trkpt lat="42.433486" lon="1.778530">
        <ele>1690.610</ele>
        <time>2019-05-30T14:14:05Z</time>
      </trkpt>
      <trkpt lat="42.433453" lon="1.778600">
        <ele>1689.694</ele>
        <time>2019-05-30T14:14:07Z</time>
      </trkpt>
      <trkpt lat="42.433432" lon="1.778677">
        <ele>1688.482</ele>
        <time>2019-05-30T14:14:09Z</time>
      </trkpt>
      <trkpt lat="42.433430" lon="1.778721">
        <ele>1688.067</ele>
        <time>2019-05-30T14:14:10Z</time>
      </trkpt>
      <trkpt lat="42.433436" lon="1.778761">
        <ele>1687.473</ele>
        <time>2019-05-30T14:14:11Z</time>
      </trkpt>
      <trkpt lat="42.433454" lon="1.778832">
        <ele>1685.685</ele>
        <time>2019-05-30T14:14:13Z</time>
      </trkpt>
      <trkpt lat="42.433479" lon="1.778868">
        <ele>1684.813</ele>
        <time>2019-05-30T14:14:14Z</time>
      </trkpt>
      <trkpt lat="42.433500" lon="1.778902">
        <ele>1684.008</ele>
        <time>2019-05-30T14:14:15Z</time>
      </trkpt>
      <trkpt lat="42.433546" lon="1.778957">
        <ele>1682.870</ele>
        <time>2019-05-30T14:14:17Z</time>
      </trkpt>
      <trkpt lat="42.433601" lon="1.779002">
        <ele>1681.484</ele>
        <time>2019-05-30T14:14:19Z</time>
      </trkpt>
      <trkpt lat="42.433627" lon="1.779030">
        <ele>1681.050</ele>
        <time>2019-05-30T14:14:20Z</time>
      </trkpt>
      <trkpt lat="42.433726" lon="1.779211">
        <ele>1680.258</ele>
        <time>2019-05-30T14:14:25Z</time>
      </trkpt>
      <trkpt lat="42.433722" lon="1.779307">
        <ele>1678.611</ele>
        <time>2019-05-30T14:14:27Z</time>
      </trkpt>
      <trkpt lat="42.433705" lon="1.779404">
        <ele>1677.015</ele>
        <time>2019-05-30T14:14:29Z</time>
      </trkpt>
      <trkpt lat="42.433688" lon="1.779504">
        <ele>1675.453</ele>
        <time>2019-05-30T14:14:31Z</time>
      </trkpt>
      <trkpt lat="42.433664" lon="1.779633">
        <ele>1674.248</ele>
        <time>2019-05-30T14:14:34Z</time>
      </trkpt>
      <trkpt lat="42.433650" lon="1.779736">
        <ele>1672.465</ele>
        <time>2019-05-30T14:14:36Z</time>
      </trkpt>
      <trkpt lat="42.433623" lon="1.779851">
        <ele>1671.268</ele>
        <time>2019-05-30T14:14:38Z</time>
      </trkpt>
      <trkpt lat="42.433616" lon="1.779916">
        <ele>1669.814</ele>
        <time>2019-05-30T14:14:39Z</time>
      </trkpt>
      <trkpt lat="42.433591" lon="1.780056">
        <ele>1668.008</ele>
        <time>2019-05-30T14:14:41Z</time>
      </trkpt>
      <trkpt lat="42.433560" lon="1.780185">
        <ele>1666.899</ele>
        <time>2019-05-30T14:14:43Z</time>
      </trkpt>
      <trkpt lat="42.433543" lon="1.780243">
        <ele>1666.683</ele>
        <time>2019-05-30T14:14:44Z</time>
      </trkpt>
      <trkpt lat="42.433507" lon="1.780345">
        <ele>1665.679</ele>
        <time>2019-05-30T14:14:46Z</time>
      </trkpt>
      <trkpt lat="42.433454" lon="1.780432">
        <ele>1664.667</ele>
        <time>2019-05-30T14:14:48Z</time>
      </trkpt>
      <trkpt lat="42.433432" lon="1.780476">
        <ele>1663.870</ele>
        <time>2019-05-30T14:14:49Z</time>
      </trkpt>
      <trkpt lat="42.433412" lon="1.780522">
        <ele>1663.634</ele>
        <time>2019-05-30T14:14:50Z</time>
      </trkpt>
      <trkpt lat="42.433369" lon="1.780616">
        <ele>1662.472</ele>
        <time>2019-05-30T14:14:52Z</time>
      </trkpt>
      <trkpt lat="42.433326" lon="1.780705">
        <ele>1661.457</ele>
        <time>2019-05-30T14:14:54Z</time>
      </trkpt>
      <trkpt lat="42.433302" lon="1.780754">
        <ele>1661.033</ele>
        <time>2019-05-30T14:14:55Z</time>
      </trkpt>
      <trkpt lat="42.433250" lon="1.780842">
        <ele>1659.823</ele>
        <time>2019-05-30T14:14:57Z</time>
      </trkpt>
      <trkpt lat="42.433189" lon="1.780906">
        <ele>1658.415</ele>
        <time>2019-05-30T14:14:59Z</time>
      </trkpt>
      <trkpt lat="42.433114" lon="1.780950">
        <ele>1657.208</ele>
        <time>2019-05-30T14:15:01Z</time>
      </trkpt>
      <trkpt lat="42.433023" lon="1.780972">
        <ele>1656.096</ele>
        <time>2019-05-30T14:15:03Z</time>
      </trkpt>
      <trkpt lat="42.432939" lon="1.780998">
        <ele>1654.630</ele>
        <time>2019-05-30T14:15:05Z</time>
      </trkpt>
      <trkpt lat="42.432894" lon="1.781004">
        <ele>1654.266</ele>
        <time>2019-05-30T14:15:06Z</time>
      </trkpt>
      <trkpt lat="42.432851" lon="1.781015">
        <ele>1653.474</ele>
        <time>2019-05-30T14:15:07Z</time>
      </trkpt>
      <trkpt lat="42.432776" lon="1.781044">
        <ele>1652.277</ele>
        <time>2019-05-30T14:15:09Z</time>
      </trkpt>
      <trkpt lat="42.432734" lon="1.781068">
        <ele>1652.081</ele>
        <time>2019-05-30T14:15:10Z</time>
      </trkpt>
      <trkpt lat="42.432700" lon="1.781100">
        <ele>1651.659</ele>
        <time>2019-05-30T14:15:11Z</time>
      </trkpt>
      <trkpt lat="42.432669" lon="1.781135">
        <ele>1651.064</ele>
        <time>2019-05-30T14:15:12Z</time>
      </trkpt>
      <trkpt lat="42.432644" lon="1.781175">
        <ele>1650.054</ele>
        <time>2019-05-30T14:15:13Z</time>
      </trkpt>
      <trkpt lat="42.432606" lon="1.781269">
        <ele>1648.856</ele>
        <time>2019-05-30T14:15:15Z</time>
      </trkpt>
      <trkpt lat="42.432592" lon="1.781317">
        <ele>1648.611</ele>
        <time>2019-05-30T14:15:16Z</time>
      </trkpt>
      <trkpt lat="42.432565" lon="1.781410">
        <ele>1647.808</ele>
        <time>2019-05-30T14:15:18Z</time>
      </trkpt>
      <trkpt lat="42.432540" lon="1.781560">
        <ele>1646.488</ele>
        <time>2019-05-30T14:15:21Z</time>
      </trkpt>
      <trkpt lat="42.432540" lon="1.781614">
        <ele>1645.432</ele>
        <time>2019-05-30T14:15:22Z</time>
      </trkpt>
      <trkpt lat="42.432547" lon="1.781665">
        <ele>1644.648</ele>
        <time>2019-05-30T14:15:23Z</time>
      </trkpt>
      <trkpt lat="42.432555" lon="1.781717">
        <ele>1644.086</ele>
        <time>2019-05-30T14:15:24Z</time>
      </trkpt>
      <trkpt lat="42.432586" lon="1.781874">
        <ele>1642.819</ele>
        <time>2019-05-30T14:15:27Z</time>
      </trkpt>
      <trkpt lat="42.432641" lon="1.781986">
        <ele>1642.273</ele>
        <time>2019-05-30T14:15:30Z</time>
      </trkpt>
      <trkpt lat="42.432680" lon="1.782045">
        <ele>1641.691</ele>
        <time>2019-05-30T14:15:32Z</time>
      </trkpt>
      <trkpt lat="42.432750" lon="1.782153">
        <ele>1640.426</ele>
        <time>2019-05-30T14:15:35Z</time>
      </trkpt>
      <trkpt lat="42.432775" lon="1.782192">
        <ele>1640.077</ele>
        <time>2019-05-30T14:15:36Z</time>
      </trkpt>
      <trkpt lat="42.432810" lon="1.782232">
        <ele>1638.861</ele>
        <time>2019-05-30T14:15:37Z</time>
      </trkpt>
      <trkpt lat="42.432869" lon="1.782306">
        <ele>1637.427</ele>
        <time>2019-05-30T14:15:39Z</time>
      </trkpt>
      <trkpt lat="42.432912" lon="1.782338">
        <ele>1636.808</ele>
        <time>2019-05-30T14:15:40Z</time>
      </trkpt>
      <trkpt lat="42.432952" lon="1.782366">
        <ele>1636.430</ele>
        <time>2019-05-30T14:15:41Z</time>
      </trkpt>
      <trkpt lat="42.432996" lon="1.782398">
        <ele>1635.414</ele>
        <time>2019-05-30T14:15:42Z</time>
      </trkpt>
      <trkpt lat="42.433044" lon="1.782423">
        <ele>1634.830</ele>
        <time>2019-05-30T14:15:43Z</time>
      </trkpt>
      <trkpt lat="42.433143" lon="1.782480">
        <ele>1633.868</ele>
        <time>2019-05-30T14:15:45Z</time>
      </trkpt>
      <trkpt lat="42.433294" lon="1.782564">
        <ele>1632.661</ele>
        <time>2019-05-30T14:15:48Z</time>
      </trkpt>
      <trkpt lat="42.433389" lon="1.782611">
        <ele>1631.835</ele>
        <time>2019-05-30T14:15:50Z</time>
      </trkpt>
      <trkpt lat="42.433483" lon="1.782652">
        <ele>1631.443</ele>
        <time>2019-05-30T14:15:52Z</time>
      </trkpt>
      <trkpt lat="42.433579" lon="1.782692">
        <ele>1629.828</ele>
        <time>2019-05-30T14:15:54Z</time>
      </trkpt>
      <trkpt lat="42.433736" lon="1.782724">
        <ele>1628.666</ele>
        <time>2019-05-30T14:15:57Z</time>
      </trkpt>
      <trkpt lat="42.433842" lon="1.782730">
        <ele>1626.829</ele>
        <time>2019-05-30T14:15:59Z</time>
      </trkpt>
      <trkpt lat="42.433893" lon="1.782727">
        <ele>1625.621</ele>
        <time>2019-05-30T14:16:00Z</time>
      </trkpt>
      <trkpt lat="42.434139" lon="1.782660">
        <ele>1625.408</ele>
        <time>2019-05-30T14:16:05Z</time>
      </trkpt>
      <trkpt lat="42.434189" lon="1.782655">
        <ele>1625.059</ele>
        <time>2019-05-30T14:16:06Z</time>
      </trkpt>
      <trkpt lat="42.434234" lon="1.782657">
        <ele>1624.693</ele>
        <time>2019-05-30T14:16:07Z</time>
      </trkpt>
      <trkpt lat="42.434377" lon="1.782656">
        <ele>1623.829</ele>
        <time>2019-05-30T14:16:10Z</time>
      </trkpt>
      <trkpt lat="42.434421" lon="1.782656">
        <ele>1623.067</ele>
        <time>2019-05-30T14:16:11Z</time>
      </trkpt>
      <trkpt lat="42.434545" lon="1.782649">
        <ele>1621.890</ele>
        <time>2019-05-30T14:16:14Z</time>
      </trkpt>
      <trkpt lat="42.434627" lon="1.782669">
        <ele>1620.044</ele>
        <time>2019-05-30T14:16:16Z</time>
      </trkpt>
      <trkpt lat="42.434718" lon="1.782694">
        <ele>1618.612</ele>
        <time>2019-05-30T14:16:18Z</time>
      </trkpt>
      <trkpt lat="42.434763" lon="1.782692">
        <ele>1618.247</ele>
        <time>2019-05-30T14:16:19Z</time>
      </trkpt>
      <trkpt lat="42.434857" lon="1.782691">
        <ele>1617.693</ele>
        <time>2019-05-30T14:16:21Z</time>
      </trkpt>
      <trkpt lat="42.434902" lon="1.782693">
        <ele>1617.465</ele>
        <time>2019-05-30T14:16:22Z</time>
      </trkpt>
      <trkpt lat="42.434963" lon="1.782700">
        <ele>1616.621</ele>
        <time>2019-05-30T14:16:24Z</time>
      </trkpt>
      <trkpt lat="42.435018" lon="1.782714">
        <ele>1614.608</ele>
        <time>2019-05-30T14:16:26Z</time>
      </trkpt>
      <trkpt lat="42.435088" lon="1.782739">
        <ele>1613.462</ele>
        <time>2019-05-30T14:16:28Z</time>
      </trkpt>
      <trkpt lat="42.435204" lon="1.782786">
        <ele>1611.656</ele>
        <time>2019-05-30T14:16:31Z</time>
      </trkpt>
      <trkpt lat="42.435240" lon="1.782794">
        <ele>1610.622</ele>
        <time>2019-05-30T14:16:32Z</time>
      </trkpt>
      <trkpt lat="42.435321" lon="1.782810">
        <ele>1609.420</ele>
        <time>2019-05-30T14:16:34Z</time>
      </trkpt>
      <trkpt lat="42.435362" lon="1.782812">
        <ele>1608.623</ele>
        <time>2019-05-30T14:16:35Z</time>
      </trkpt>
      <trkpt lat="42.435397" lon="1.782818">
        <ele>1608.097</ele>
        <time>2019-05-30T14:16:36Z</time>
      </trkpt>
      <trkpt lat="42.435432" lon="1.782828">
        <ele>1607.225</ele>
        <time>2019-05-30T14:16:37Z</time>
      </trkpt>
      <trkpt lat="42.435468" lon="1.782839">
        <ele>1606.870</ele>
        <time>2019-05-30T14:16:38Z</time>
      </trkpt>
      <trkpt lat="42.435542" lon="1.782843">
        <ele>1605.496</ele>
        <time>2019-05-30T14:16:40Z</time>
      </trkpt>
      <trkpt lat="42.435624" lon="1.782837">
        <ele>1604.031</ele>
        <time>2019-05-30T14:16:42Z</time>
      </trkpt>
      <trkpt lat="42.435708" lon="1.782824">
        <ele>1603.024</ele>
        <time>2019-05-30T14:16:44Z</time>
      </trkpt>
      <trkpt lat="42.435815" lon="1.782824">
        <ele>1601.408</ele>
        <time>2019-05-30T14:16:47Z</time>
      </trkpt>
      <trkpt lat="42.435884" lon="1.782815">
        <ele>1599.492</ele>
        <time>2019-05-30T14:16:49Z</time>
      </trkpt>
      <trkpt lat="42.435989" lon="1.782801">
        <ele>1598.046</ele>
        <time>2019-05-30T14:16:52Z</time>
      </trkpt>
      <trkpt lat="42.436094" lon="1.782783">
        <ele>1596.612</ele>
        <time>2019-05-30T14:16:55Z</time>
      </trkpt>
      <trkpt lat="42.436131" lon="1.782776">
        <ele>1596.210</ele>
        <time>2019-05-30T14:16:56Z</time>
      </trkpt>
      <trkpt lat="42.436206" lon="1.782755">
        <ele>1595.073</ele>
        <time>2019-05-30T14:16:58Z</time>
      </trkpt>
      <trkpt lat="42.436304" lon="1.782712">
        <ele>1594.087</ele>
        <time>2019-05-30T14:17:01Z</time>
      </trkpt>
      <trkpt lat="42.436333" lon="1.782695">
        <ele>1593.815</ele>
        <time>2019-05-30T14:17:02Z</time>
      </trkpt>
      <trkpt lat="42.436397" lon="1.782673">
        <ele>1592.890</ele>
        <time>2019-05-30T14:17:04Z</time>
      </trkpt>
      <trkpt lat="42.436458" lon="1.782662">
        <ele>1591.445</ele>
        <time>2019-05-30T14:17:06Z</time>
      </trkpt>
      <trkpt lat="42.436518" lon="1.782674">
        <ele>1590.447</ele>
        <time>2019-05-30T14:17:08Z</time>
      </trkpt>
      <trkpt lat="42.436586" lon="1.782766">
        <ele>1589.011</ele>
        <time>2019-05-30T14:17:11Z</time>
      </trkpt>
      <trkpt lat="42.436601" lon="1.782806">
        <ele>1588.408</ele>
        <time>2019-05-30T14:17:12Z</time>
      </trkpt>
      <trkpt lat="42.436611" lon="1.782851">
        <ele>1587.827</ele>
        <time>2019-05-30T14:17:13Z</time>
      </trkpt>
      <trkpt lat="42.436625" lon="1.782964">
        <ele>1586.881</ele>
        <time>2019-05-30T14:17:15Z</time>
      </trkpt>
      <trkpt lat="42.436630" lon="1.783018">
        <ele>1586.257</ele>
        <time>2019-05-30T14:17:16Z</time>
      </trkpt>
      <trkpt lat="42.436637" lon="1.783069">
        <ele>1585.415</ele>
        <time>2019-05-30T14:17:17Z</time>
      </trkpt>
      <trkpt lat="42.436653" lon="1.783228">
        <ele>1584.068</ele>
        <time>2019-05-30T14:17:20Z</time>
      </trkpt>
      <trkpt lat="42.436654" lon="1.783355">
        <ele>1582.282</ele>
        <time>2019-05-30T14:17:22Z</time>
      </trkpt>
      <trkpt lat="42.436656" lon="1.783475">
        <ele>1580.810</ele>
        <time>2019-05-30T14:17:24Z</time>
      </trkpt>
      <trkpt lat="42.436634" lon="1.783582">
        <ele>1578.835</ele>
        <time>2019-05-30T14:17:26Z</time>
      </trkpt>
      <trkpt lat="42.436615" lon="1.783677">
        <ele>1577.671</ele>
        <time>2019-05-30T14:17:28Z</time>
      </trkpt>
      <trkpt lat="42.436639" lon="1.783789">
        <ele>1577.241</ele>
        <time>2019-05-30T14:17:31Z</time>
      </trkpt>
      <trkpt lat="42.436659" lon="1.783816">
        <ele>1576.615</ele>
        <time>2019-05-30T14:17:32Z</time>
      </trkpt>
      <trkpt lat="42.436717" lon="1.783800">
        <ele>1575.208</ele>
        <time>2019-05-30T14:17:35Z</time>
      </trkpt>
      <trkpt lat="42.436752" lon="1.783748">
        <ele>1574.420</ele>
        <time>2019-05-30T14:17:37Z</time>
      </trkpt>
      <trkpt lat="42.436786" lon="1.783618">
        <ele>1574.694</ele>
        <time>2019-05-30T14:17:41Z</time>
      </trkpt>
      <trkpt lat="42.436797" lon="1.783581">
        <ele>1573.880</ele>
        <time>2019-05-30T14:17:42Z</time>
      </trkpt>
      <trkpt lat="42.436844" lon="1.783386">
        <ele>1572.468</ele>
        <time>2019-05-30T14:17:46Z</time>
      </trkpt>
      <trkpt lat="42.436856" lon="1.783320">
        <ele>1571.691</ele>
        <time>2019-05-30T14:17:47Z</time>
      </trkpt>
      <trkpt lat="42.436873" lon="1.783248">
        <ele>1570.645</ele>
        <time>2019-05-30T14:17:48Z</time>
      </trkpt>
      <trkpt lat="42.436917" lon="1.783097">
        <ele>1569.473</ele>
        <time>2019-05-30T14:17:50Z</time>
      </trkpt>
      <trkpt lat="42.436934" lon="1.783018">
        <ele>1569.068</ele>
        <time>2019-05-30T14:17:51Z</time>
      </trkpt>
      <trkpt lat="42.436948" lon="1.782934">
        <ele>1568.457</ele>
        <time>2019-05-30T14:17:52Z</time>
      </trkpt>
      <trkpt lat="42.436974" lon="1.782870">
        <ele>1568.200</ele>
        <time>2019-05-30T14:17:53Z</time>
      </trkpt>
      <trkpt lat="42.437065" lon="1.782834">
        <ele>1568.220</ele>
        <time>2019-05-30T14:17:55Z</time>
      </trkpt>
      <trkpt lat="42.437158" lon="1.782927">
        <ele>1570.008</ele>
        <time>2019-05-30T14:17:58Z</time>
      </trkpt>
      <trkpt lat="42.437252" lon="1.783075">
        <ele>1568.828</ele>
        <time>2019-05-30T14:18:01Z</time>
      </trkpt>
      <trkpt lat="42.437285" lon="1.783115">
        <ele>1568.272</ele>
        <time>2019-05-30T14:18:02Z</time>
      </trkpt>
      <trkpt lat="42.437327" lon="1.783152">
        <ele>1568.228</ele>
        <time>2019-05-30T14:18:03Z</time>
      </trkpt>
      <trkpt lat="42.437408" lon="1.783209">
        <ele>1567.676</ele>
        <time>2019-05-30T14:18:05Z</time>
      </trkpt>
      <trkpt lat="42.437448" lon="1.783233">
        <ele>1566.859</ele>
        <time>2019-05-30T14:18:06Z</time>
      </trkpt>
      <trkpt lat="42.437490" lon="1.783242">
        <ele>1566.073</ele>
        <time>2019-05-30T14:18:07Z</time>
      </trkpt>
      <trkpt lat="42.437577" lon="1.783245">
        <ele>1564.471</ele>
        <time>2019-05-30T14:18:09Z</time>
      </trkpt>
      <trkpt lat="42.437622" lon="1.783243">
        <ele>1563.616</ele>
        <time>2019-05-30T14:18:10Z</time>
      </trkpt>
      <trkpt lat="42.437666" lon="1.783249">
        <ele>1562.835</ele>
        <time>2019-05-30T14:18:11Z</time>
      </trkpt>
      <trkpt lat="42.437755" lon="1.783253">
        <ele>1561.486</ele>
        <time>2019-05-30T14:18:13Z</time>
      </trkpt>
      <trkpt lat="42.437885" lon="1.783242">
        <ele>1560.614</ele>
        <time>2019-05-30T14:18:16Z</time>
      </trkpt>
      <trkpt lat="42.437926" lon="1.783229">
        <ele>1560.008</ele>
        <time>2019-05-30T14:18:17Z</time>
      </trkpt>
      <trkpt lat="42.437994" lon="1.783182">
        <ele>1558.866</ele>
        <time>2019-05-30T14:18:19Z</time>
      </trkpt>
      <trkpt lat="42.438057" lon="1.783149">
        <ele>1557.640</ele>
        <time>2019-05-30T14:18:21Z</time>
      </trkpt>
      <trkpt lat="42.438109" lon="1.783167">
        <ele>1556.616</ele>
        <time>2019-05-30T14:18:23Z</time>
      </trkpt>
      <trkpt lat="42.438128" lon="1.783192">
        <ele>1556.494</ele>
        <time>2019-05-30T14:18:24Z</time>
      </trkpt>
      <trkpt lat="42.438135" lon="1.783229">
        <ele>1555.447</ele>
        <time>2019-05-30T14:18:25Z</time>
      </trkpt>
      <trkpt lat="42.438136" lon="1.783261">
        <ele>1555.221</ele>
        <time>2019-05-30T14:18:26Z</time>
      </trkpt>
      <trkpt lat="42.438112" lon="1.783364">
        <ele>1554.639</ele>
        <time>2019-05-30T14:18:29Z</time>
      </trkpt>
      <trkpt lat="42.438093" lon="1.783411">
        <ele>1554.044</ele>
        <time>2019-05-30T14:18:30Z</time>
      </trkpt>
      <trkpt lat="42.438049" lon="1.783523">
        <ele>1552.873</ele>
        <time>2019-05-30T14:18:32Z</time>
      </trkpt>
      <trkpt lat="42.438028" lon="1.783587">
        <ele>1552.285</ele>
        <time>2019-05-30T14:18:33Z</time>
      </trkpt>
      <trkpt lat="42.438011" lon="1.783659">
        <ele>1551.613</ele>
        <time>2019-05-30T14:18:34Z</time>
      </trkpt>
      <trkpt lat="42.437997" lon="1.783734">
        <ele>1550.608</ele>
        <time>2019-05-30T14:18:35Z</time>
      </trkpt>
      <trkpt lat="42.437979" lon="1.783812">
        <ele>1550.020</ele>
        <time>2019-05-30T14:18:36Z</time>
      </trkpt>
      <trkpt lat="42.437941" lon="1.783975">
        <ele>1549.824</ele>
        <time>2019-05-30T14:18:38Z</time>
      </trkpt>
      <trkpt lat="42.437820" lon="1.784289">
        <ele>1550.480</ele>
        <time>2019-05-30T14:18:43Z</time>
      </trkpt>
      <trkpt lat="42.437747" lon="1.784459">
        <ele>1548.828</ele>
        <time>2019-05-30T14:18:46Z</time>
      </trkpt>
      <trkpt lat="42.437712" lon="1.784547">
        <ele>1548.681</ele>
        <time>2019-05-30T14:18:48Z</time>
      </trkpt>
      <trkpt lat="42.437697" lon="1.784585">
        <ele>1547.835</ele>
        <time>2019-05-30T14:18:49Z</time>
      </trkpt>
      <trkpt lat="42.437678" lon="1.784660">
        <ele>1546.843</ele>
        <time>2019-05-30T14:18:51Z</time>
      </trkpt>
      <trkpt lat="42.437668" lon="1.784737">
        <ele>1545.828</ele>
        <time>2019-05-30T14:18:53Z</time>
      </trkpt>
      <trkpt lat="42.437665" lon="1.784771">
        <ele>1545.461</ele>
        <time>2019-05-30T14:18:54Z</time>
      </trkpt>
      <trkpt lat="42.437639" lon="1.784829">
        <ele>1543.821</ele>
        <time>2019-05-30T14:18:56Z</time>
      </trkpt>
      <trkpt lat="42.437618" lon="1.784837">
        <ele>1543.213</ele>
        <time>2019-05-30T14:18:57Z</time>
      </trkpt>
      <trkpt lat="42.437598" lon="1.784826">
        <ele>1543.008</ele>
        <time>2019-05-30T14:18:58Z</time>
      </trkpt>
      <trkpt lat="42.437547" lon="1.784789">
        <ele>1542.229</ele>
        <time>2019-05-30T14:19:00Z</time>
      </trkpt>
      <trkpt lat="42.437515" lon="1.784764">
        <ele>1542.023</ele>
        <time>2019-05-30T14:19:01Z</time>
      </trkpt>
      <trkpt lat="42.437474" lon="1.784736">
        <ele>1541.869</ele>
        <time>2019-05-30T14:19:02Z</time>
      </trkpt>
      <trkpt lat="42.437389" lon="1.784683">
        <ele>1541.067</ele>
        <time>2019-05-30T14:19:04Z</time>
      </trkpt>
      <trkpt lat="42.437343" lon="1.784666">
        <ele>1540.420</ele>
        <time>2019-05-30T14:19:05Z</time>
      </trkpt>
      <trkpt lat="42.437236" lon="1.784644">
        <ele>1539.244</ele>
        <time>2019-05-30T14:19:07Z</time>
      </trkpt>
      <trkpt lat="42.437172" lon="1.784660">
        <ele>1538.082</ele>
        <time>2019-05-30T14:19:08Z</time>
      </trkpt>
      <trkpt lat="42.437065" lon="1.784764">
        <ele>1536.687</ele>
        <time>2019-05-30T14:19:10Z</time>
      </trkpt>
      <trkpt lat="42.437000" lon="1.784914">
        <ele>1535.661</ele>
        <time>2019-05-30T14:19:12Z</time>
      </trkpt>
      <trkpt lat="42.436971" lon="1.784992">
        <ele>1535.821</ele>
        <time>2019-05-30T14:19:13Z</time>
      </trkpt>
      <trkpt lat="42.436834" lon="1.785282">
        <ele>1536.213</ele>
        <time>2019-05-30T14:19:17Z</time>
      </trkpt>
      <trkpt lat="42.436738" lon="1.785373">
        <ele>1536.408</ele>
        <time>2019-05-30T14:19:19Z</time>
      </trkpt>
      <trkpt lat="42.436683" lon="1.785401">
        <ele>1536.689</ele>
        <time>2019-05-30T14:19:20Z</time>
      </trkpt>
      <trkpt lat="42.436572" lon="1.785450">
        <ele>1537.283</ele>
        <time>2019-05-30T14:19:22Z</time>
      </trkpt>
      <trkpt lat="42.436521" lon="1.785475">
        <ele>1537.629</ele>
        <time>2019-05-30T14:19:23Z</time>
      </trkpt>
      <trkpt lat="42.436477" lon="1.785509">
        <ele>1538.027</ele>
        <time>2019-05-30T14:19:24Z</time>
      </trkpt>
      <trkpt lat="42.436409" lon="1.785576">
        <ele>1539.050</ele>
        <time>2019-05-30T14:19:26Z</time>
      </trkpt>
      <trkpt lat="42.436385" lon="1.785600">
        <ele>1539.424</ele>
        <time>2019-05-30T14:19:27Z</time>
      </trkpt>
      <trkpt lat="42.436362" lon="1.785614">
        <ele>1540.082</ele>
        <time>2019-05-30T14:19:28Z</time>
      </trkpt>
      <trkpt lat="42.436336" lon="1.785656">
        <ele>1541.067</ele>
        <time>2019-05-30T14:19:30Z</time>
      </trkpt>
      <trkpt lat="42.436326" lon="1.785673">
        <ele>1541.481</ele>
        <time>2019-05-30T14:19:31Z</time>
      </trkpt>
      <trkpt lat="42.436269" lon="1.785744">
        <ele>1542.461</ele>
        <time>2019-05-30T14:19:35Z</time>
      </trkpt>
      <trkpt lat="42.436240" lon="1.785771">
        <ele>1542.817</ele>
        <time>2019-05-30T14:19:37Z</time>
      </trkpt>
      <trkpt lat="42.436225" lon="1.785782">
        <ele>1544.008</ele>
        <time>2019-05-30T14:19:38Z</time>
      </trkpt>
      <trkpt lat="42.436145" lon="1.785862">
        <ele>1543.651</ele>
        <time>2019-05-30T14:19:44Z</time>
      </trkpt>
      <trkpt lat="42.436029" lon="1.785974">
        <ele>1544.445</ele>
        <time>2019-05-30T14:19:52Z</time>
      </trkpt>
      <trkpt lat="42.435902" lon="1.786117">
        <ele>1544.241</ele>
        <time>2019-05-30T14:20:00Z</time>
      </trkpt>
      <trkpt lat="42.435861" lon="1.786186">
        <ele>1545.029</ele>
        <time>2019-05-30T14:20:03Z</time>
      </trkpt>
      <trkpt lat="42.435781" lon="1.786291">
        <ele>1544.842</ele>
        <time>2019-05-30T14:20:07Z</time>
      </trkpt>
      <trkpt lat="42.435682" lon="1.786419">
        <ele>1544.276</ele>
        <time>2019-05-30T14:20:11Z</time>
      </trkpt>
      <trkpt lat="42.435655" lon="1.786452">
        <ele>1544.024</ele>
        <time>2019-05-30T14:20:12Z</time>
      </trkpt>
      <trkpt lat="42.435570" lon="1.786564">
        <ele>1543.829</ele>
        <time>2019-05-30T14:20:15Z</time>
      </trkpt>
      <trkpt lat="42.435365" lon="1.786805">
        <ele>1543.272</ele>
        <time>2019-05-30T14:20:21Z</time>
      </trkpt>
      <trkpt lat="42.435144" lon="1.787043">
        <ele>1543.413</ele>
        <time>2019-05-30T14:20:27Z</time>
      </trkpt>
      <trkpt lat="42.435104" lon="1.787070">
        <ele>1543.214</ele>
        <time>2019-05-30T14:20:28Z</time>
      </trkpt>
      <trkpt lat="42.435064" lon="1.787096">
        <ele>1543.008</ele>
        <time>2019-05-30T14:20:29Z</time>
      </trkpt>
      <trkpt lat="42.434766" lon="1.787309">
        <ele>1543.870</ele>
        <time>2019-05-30T14:20:37Z</time>
      </trkpt>
      <trkpt lat="42.434654" lon="1.787386">
        <ele>1544.284</ele>
        <time>2019-05-30T14:20:40Z</time>
      </trkpt>
      <trkpt lat="42.434426" lon="1.787545">
        <ele>1544.480</ele>
        <time>2019-05-30T14:20:46Z</time>
      </trkpt>
      <trkpt lat="42.434385" lon="1.787571">
        <ele>1544.628</ele>
        <time>2019-05-30T14:20:47Z</time>
      </trkpt>
      <trkpt lat="42.434161" lon="1.787712">
        <ele>1545.671</ele>
        <time>2019-05-30T14:20:53Z</time>
      </trkpt>
      <trkpt lat="42.433915" lon="1.787810">
        <ele>1545.275</ele>
        <time>2019-05-30T14:20:59Z</time>
      </trkpt>
      <trkpt lat="42.433872" lon="1.787819">
        <ele>1545.063</ele>
        <time>2019-05-30T14:21:00Z</time>
      </trkpt>
      <trkpt lat="42.433738" lon="1.787867">
        <ele>1544.618</ele>
        <time>2019-05-30T14:21:03Z</time>
      </trkpt>
      <trkpt lat="42.433696" lon="1.787881">
        <ele>1544.633</ele>
        <time>2019-05-30T14:21:04Z</time>
      </trkpt>
      <trkpt lat="42.433655" lon="1.787898">
        <ele>1544.623</ele>
        <time>2019-05-30T14:21:05Z</time>
      </trkpt>
      <trkpt lat="42.433344" lon="1.787997">
        <ele>1544.815</ele>
        <time>2019-05-30T14:21:13Z</time>
      </trkpt>
      <trkpt lat="42.433084" lon="1.787975">
        <ele>1545.608</ele>
        <time>2019-05-30T14:21:20Z</time>
      </trkpt>
      <trkpt lat="42.432919" lon="1.787856">
        <ele>1546.236</ele>
        <time>2019-05-30T14:21:26Z</time>
      </trkpt>
      <trkpt lat="42.432760" lon="1.787644">
        <ele>1546.020</ele>
        <time>2019-05-30T14:21:32Z</time>
      </trkpt>
      <trkpt lat="42.432570" lon="1.787329">
        <ele>1546.486</ele>
        <time>2019-05-30T14:21:40Z</time>
      </trkpt>
      <trkpt lat="42.432511" lon="1.787237">
        <ele>1545.814</ele>
        <time>2019-05-30T14:21:42Z</time>
      </trkpt>
      <trkpt lat="42.432408" lon="1.787092">
        <ele>1545.067</ele>
        <time>2019-05-30T14:21:45Z</time>
      </trkpt>
      <trkpt lat="42.432345" lon="1.787068">
        <ele>1544.051</ele>
        <time>2019-05-30T14:21:46Z</time>
      </trkpt>
      <trkpt lat="42.432210" lon="1.787092">
        <ele>1542.469</ele>
        <time>2019-05-30T14:21:48Z</time>
      </trkpt>
      <trkpt lat="42.432047" lon="1.787229">
        <ele>1541.654</ele>
        <time>2019-05-30T14:21:51Z</time>
      </trkpt>
      <trkpt lat="42.431983" lon="1.787265">
        <ele>1541.229</ele>
        <time>2019-05-30T14:21:52Z</time>
      </trkpt>
      <trkpt lat="42.431916" lon="1.787313">
        <ele>1540.600</ele>
        <time>2019-05-30T14:21:53Z</time>
      </trkpt>
      <trkpt lat="42.431786" lon="1.787434">
        <ele>1539.820</ele>
        <time>2019-05-30T14:21:55Z</time>
      </trkpt>
      <trkpt lat="42.431593" lon="1.787609">
        <ele>1538.808</ele>
        <time>2019-05-30T14:21:58Z</time>
      </trkpt>
      <trkpt lat="42.431390" lon="1.787714">
        <ele>1539.215</ele>
        <time>2019-05-30T14:22:01Z</time>
      </trkpt>
      <trkpt lat="42.430887" lon="1.787977">
        <ele>1539.429</ele>
        <time>2019-05-30T14:22:09Z</time>
      </trkpt>
      <trkpt lat="42.430770" lon="1.788040">
        <ele>1540.255</ele>
        <time>2019-05-30T14:22:11Z</time>
      </trkpt>
      <trkpt lat="42.430512" lon="1.788190">
        <ele>1541.053</ele>
        <time>2019-05-30T14:22:16Z</time>
      </trkpt>
      <trkpt lat="42.430193" lon="1.788329">
        <ele>1538.626</ele>
        <time>2019-05-30T14:22:22Z</time>
      </trkpt>
      <trkpt lat="42.430086" lon="1.788350">
        <ele>1537.680</ele>
        <time>2019-05-30T14:22:24Z</time>
      </trkpt>
      <trkpt lat="42.430031" lon="1.788357">
        <ele>1536.018</ele>
        <time>2019-05-30T14:22:25Z</time>
      </trkpt>
      <trkpt lat="42.429980" lon="1.788348">
        <ele>1535.223</ele>
        <time>2019-05-30T14:22:26Z</time>
      </trkpt>
      <trkpt lat="42.429935" lon="1.788332">
        <ele>1534.852</ele>
        <time>2019-05-30T14:22:27Z</time>
      </trkpt>
      <trkpt lat="42.429894" lon="1.788290">
        <ele>1534.453</ele>
        <time>2019-05-30T14:22:28Z</time>
      </trkpt>
      <trkpt lat="42.429832" lon="1.788177">
        <ele>1533.408</ele>
        <time>2019-05-30T14:22:30Z</time>
      </trkpt>
      <trkpt lat="42.429808" lon="1.788119">
        <ele>1533.208</ele>
        <time>2019-05-30T14:22:31Z</time>
      </trkpt>
      <trkpt lat="42.429720" lon="1.787911">
        <ele>1531.648</ele>
        <time>2019-05-30T14:22:34Z</time>
      </trkpt>
      <trkpt lat="42.429646" lon="1.787785">
        <ele>1530.682</ele>
        <time>2019-05-30T14:22:36Z</time>
      </trkpt>
      <trkpt lat="42.429564" lon="1.787657">
        <ele>1529.458</ele>
        <time>2019-05-30T14:22:38Z</time>
      </trkpt>
      <trkpt lat="42.429475" lon="1.787551">
        <ele>1527.856</ele>
        <time>2019-05-30T14:22:40Z</time>
      </trkpt>
      <trkpt lat="42.429422" lon="1.787503">
        <ele>1526.869</ele>
        <time>2019-05-30T14:22:41Z</time>
      </trkpt>
      <trkpt lat="42.429365" lon="1.787445">
        <ele>1526.223</ele>
        <time>2019-05-30T14:22:42Z</time>
      </trkpt>
      <trkpt lat="42.429299" lon="1.787378">
        <ele>1524.861</ele>
        <time>2019-05-30T14:22:43Z</time>
      </trkpt>
      <trkpt lat="42.429161" lon="1.787258">
        <ele>1522.276</ele>
        <time>2019-05-30T14:22:45Z</time>
      </trkpt>
      <trkpt lat="42.429005" lon="1.787131">
        <ele>1520.675</ele>
        <time>2019-05-30T14:22:47Z</time>
      </trkpt>
      <trkpt lat="42.428914" lon="1.787076">
        <ele>1519.028</ele>
        <time>2019-05-30T14:22:48Z</time>
      </trkpt>
      <trkpt lat="42.428818" lon="1.787026">
        <ele>1514.420</ele>
        <time>2019-05-30T14:22:49Z</time>
      </trkpt>
      <trkpt lat="42.428728" lon="1.786986">
        <ele>1513.608</ele>
        <time>2019-05-30T14:22:50Z</time>
      </trkpt>
      <trkpt lat="42.428471" lon="1.786889">
        <ele>1514.890</ele>
        <time>2019-05-30T14:22:53Z</time>
      </trkpt>
      <trkpt lat="42.428342" lon="1.786823">
        <ele>1515.814</ele>
        <time>2019-05-30T14:22:55Z</time>
      </trkpt>
      <trkpt lat="42.428232" lon="1.786712">
        <ele>1515.420</ele>
        <time>2019-05-30T14:22:57Z</time>
      </trkpt>
      <trkpt lat="42.428061" lon="1.786560">
        <ele>1515.248</ele>
        <time>2019-05-30T14:23:00Z</time>
      </trkpt>
      <trkpt lat="42.427950" lon="1.786495">
        <ele>1515.011</ele>
        <time>2019-05-30T14:23:02Z</time>
      </trkpt>
      <trkpt lat="42.427893" lon="1.786495">
        <ele>1514.885</ele>
        <time>2019-05-30T14:23:03Z</time>
      </trkpt>
      <trkpt lat="42.427796" lon="1.786558">
        <ele>1514.423</ele>
        <time>2019-05-30T14:23:05Z</time>
      </trkpt>
      <trkpt lat="42.427779" lon="1.786615">
        <ele>1514.298</ele>
        <time>2019-05-30T14:23:06Z</time>
      </trkpt>
      <trkpt lat="42.427832" lon="1.786741">
        <ele>1515.482</ele>
        <time>2019-05-30T14:23:08Z</time>
      </trkpt>
      <trkpt lat="42.427852" lon="1.786797">
        <ele>1515.643</ele>
        <time>2019-05-30T14:23:09Z</time>
      </trkpt>
      <trkpt lat="42.427987" lon="1.787148">
        <ele>1515.817</ele>
        <time>2019-05-30T14:23:16Z</time>
      </trkpt>
      <trkpt lat="42.428114" lon="1.787551">
        <ele>1515.008</ele>
        <time>2019-05-30T14:23:24Z</time>
      </trkpt>
      <trkpt lat="42.428083" lon="1.787782">
        <ele>1515.671</ele>
        <time>2019-05-30T14:23:29Z</time>
      </trkpt>
      <trkpt lat="42.428009" lon="1.787951">
        <ele>1516.865</ele>
        <time>2019-05-30T14:23:35Z</time>
      </trkpt>
      <trkpt lat="42.427891" lon="1.788063">
        <ele>1517.651</ele>
        <time>2019-05-30T14:23:43Z</time>
      </trkpt>
      <trkpt lat="42.427874" lon="1.788076">
        <ele>1518.679</ele>
        <time>2019-05-30T14:23:44Z</time>
      </trkpt>
      <trkpt lat="42.427778" lon="1.788146">
        <ele>1519.632</ele>
        <time>2019-05-30T14:23:50Z</time>
      </trkpt>
      <trkpt lat="42.427685" lon="1.788205">
        <ele>1520.636</ele>
        <time>2019-05-30T14:23:55Z</time>
      </trkpt>
      <trkpt lat="42.427603" lon="1.788229">
        <ele>1521.034</ele>
        <time>2019-05-30T14:23:59Z</time>
      </trkpt>
      <trkpt lat="42.427487" lon="1.788292">
        <ele>1521.699</ele>
        <time>2019-05-30T14:24:05Z</time>
      </trkpt>
      <trkpt lat="42.427468" lon="1.788308">
        <ele>1521.826</ele>
        <time>2019-05-30T14:24:06Z</time>
      </trkpt>
      <trkpt lat="42.427321" lon="1.788411">
        <ele>1522.247</ele>
        <time>2019-05-30T14:24:13Z</time>
      </trkpt>
      <trkpt lat="42.427220" lon="1.788509">
        <ele>1523.011</ele>
        <time>2019-05-30T14:24:18Z</time>
      </trkpt>
      <trkpt lat="42.427111" lon="1.788623">
        <ele>1522.808</ele>
        <time>2019-05-30T14:24:23Z</time>
      </trkpt>
      <trkpt lat="42.426944" lon="1.788809">
        <ele>1523.635</ele>
        <time>2019-05-30T14:24:30Z</time>
      </trkpt>
      <trkpt lat="42.426726" lon="1.788925">
        <ele>1522.889</ele>
        <time>2019-05-30T14:24:38Z</time>
      </trkpt>
      <trkpt lat="42.426642" lon="1.788915">
        <ele>1522.855</ele>
        <time>2019-05-30T14:24:40Z</time>
      </trkpt>
      <trkpt lat="42.426547" lon="1.788857">
        <ele>1522.223</ele>
        <time>2019-05-30T14:24:42Z</time>
      </trkpt>
      <trkpt lat="42.426506" lon="1.788831">
        <ele>1521.896</ele>
        <time>2019-05-30T14:24:43Z</time>
      </trkpt>
      <trkpt lat="42.426463" lon="1.788789">
        <ele>1521.040</ele>
        <time>2019-05-30T14:24:44Z</time>
      </trkpt>
      <trkpt lat="42.426416" lon="1.788752">
        <ele>1520.678</ele>
        <time>2019-05-30T14:24:45Z</time>
      </trkpt>
      <trkpt lat="42.426318" lon="1.788694">
        <ele>1520.263</ele>
        <time>2019-05-30T14:24:47Z</time>
      </trkpt>
      <trkpt lat="42.426223" lon="1.788649">
        <ele>1518.851</ele>
        <time>2019-05-30T14:24:49Z</time>
      </trkpt>
      <trkpt lat="42.426167" lon="1.788628">
        <ele>1517.401</ele>
        <time>2019-05-30T14:24:50Z</time>
      </trkpt>
      <trkpt lat="42.426015" lon="1.788568">
        <ele>1516.211</ele>
        <time>2019-05-30T14:24:53Z</time>
      </trkpt>
      <trkpt lat="42.425963" lon="1.788525">
        <ele>1515.408</ele>
        <time>2019-05-30T14:24:54Z</time>
      </trkpt>
      <trkpt lat="42.425906" lon="1.788471">
        <ele>1514.058</ele>
        <time>2019-05-30T14:24:55Z</time>
      </trkpt>
      <trkpt lat="42.425851" lon="1.788403">
        <ele>1512.672</ele>
        <time>2019-05-30T14:24:56Z</time>
      </trkpt>
      <trkpt lat="42.425792" lon="1.788335">
        <ele>1511.638</ele>
        <time>2019-05-30T14:24:57Z</time>
      </trkpt>
      <trkpt lat="42.425659" lon="1.788200">
        <ele>1510.236</ele>
        <time>2019-05-30T14:24:59Z</time>
      </trkpt>
      <trkpt lat="42.425511" lon="1.788084">
        <ele>1508.859</ele>
        <time>2019-05-30T14:25:01Z</time>
      </trkpt>
      <trkpt lat="42.425279" lon="1.788030">
        <ele>1509.073</ele>
        <time>2019-05-30T14:25:04Z</time>
      </trkpt>
      <trkpt lat="42.425107" lon="1.788080">
        <ele>1508.821</ele>
        <time>2019-05-30T14:25:07Z</time>
      </trkpt>
      <trkpt lat="42.425044" lon="1.788107">
        <ele>1507.836</ele>
        <time>2019-05-30T14:25:08Z</time>
      </trkpt>
      <trkpt lat="42.424987" lon="1.788141">
        <ele>1506.859</ele>
        <time>2019-05-30T14:25:09Z</time>
      </trkpt>
      <trkpt lat="42.424866" lon="1.788203">
        <ele>1505.203</ele>
        <time>2019-05-30T14:25:11Z</time>
      </trkpt>
      <trkpt lat="42.424800" lon="1.788223">
        <ele>1504.623</ele>
        <time>2019-05-30T14:25:12Z</time>
      </trkpt>
      <trkpt lat="42.424731" lon="1.788235">
        <ele>1504.008</ele>
        <time>2019-05-30T14:25:13Z</time>
      </trkpt>
      <trkpt lat="42.424653" lon="1.788236">
        <ele>1501.868</ele>
        <time>2019-05-30T14:25:14Z</time>
      </trkpt>
      <trkpt lat="42.424574" lon="1.788219">
        <ele>1500.842</ele>
        <time>2019-05-30T14:25:15Z</time>
      </trkpt>
      <trkpt lat="42.424494" lon="1.788201">
        <ele>1500.248</ele>
        <time>2019-05-30T14:25:16Z</time>
      </trkpt>
      <trkpt lat="42.424411" lon="1.788181">
        <ele>1499.646</ele>
        <time>2019-05-30T14:25:17Z</time>
      </trkpt>
      <trkpt lat="42.424247" lon="1.788148">
        <ele>1498.459</ele>
        <time>2019-05-30T14:25:19Z</time>
      </trkpt>
      <trkpt lat="42.423926" lon="1.788084">
        <ele>1498.053</ele>
        <time>2019-05-30T14:25:23Z</time>
      </trkpt>
      <trkpt lat="42.423551" lon="1.787970">
        <ele>1497.671</ele>
        <time>2019-05-30T14:25:28Z</time>
      </trkpt>
      <trkpt lat="42.423425" lon="1.787886">
        <ele>1497.826</ele>
        <time>2019-05-30T14:25:30Z</time>
      </trkpt>
      <trkpt lat="42.423269" lon="1.787743">
        <ele>1498.038</ele>
        <time>2019-05-30T14:25:33Z</time>
      </trkpt>
      <trkpt lat="42.423215" lon="1.787717">
        <ele>1498.670</ele>
        <time>2019-05-30T14:25:34Z</time>
      </trkpt>
      <trkpt lat="42.423117" lon="1.787732">
        <ele>1498.817</ele>
        <time>2019-05-30T14:25:36Z</time>
      </trkpt>
      <trkpt lat="42.423046" lon="1.787781">
        <ele>1500.208</ele>
        <time>2019-05-30T14:25:38Z</time>
      </trkpt>
      <trkpt lat="42.423007" lon="1.787807">
        <ele>1500.056</ele>
        <time>2019-05-30T14:25:39Z</time>
      </trkpt>
      <trkpt lat="42.422966" lon="1.787832">
        <ele>1500.210</ele>
        <time>2019-05-30T14:25:40Z</time>
      </trkpt>
      <trkpt lat="42.422730" lon="1.787916">
        <ele>1499.836</ele>
        <time>2019-05-30T14:25:45Z</time>
      </trkpt>
      <trkpt lat="42.422684" lon="1.787939">
        <ele>1499.844</ele>
        <time>2019-05-30T14:25:46Z</time>
      </trkpt>
      <trkpt lat="42.422478" lon="1.788023">
        <ele>1499.047</ele>
        <time>2019-05-30T14:25:50Z</time>
      </trkpt>
      <trkpt lat="42.422369" lon="1.788042">
        <ele>1498.821</ele>
        <time>2019-05-30T14:25:52Z</time>
      </trkpt>
      <trkpt lat="42.422154" lon="1.788050">
        <ele>1498.699</ele>
        <time>2019-05-30T14:25:56Z</time>
      </trkpt>
      <trkpt lat="42.422051" lon="1.788095">
        <ele>1498.044</ele>
        <time>2019-05-30T14:25:58Z</time>
      </trkpt>
      <trkpt lat="42.422028" lon="1.788255">
        <ele>1497.679</ele>
        <time>2019-05-30T14:26:00Z</time>
      </trkpt>
      <trkpt lat="42.422003" lon="1.788495">
        <ele>1497.205</ele>
        <time>2019-05-30T14:26:03Z</time>
      </trkpt>
      <trkpt lat="42.421967" lon="1.788562">
        <ele>1496.825</ele>
        <time>2019-05-30T14:26:04Z</time>
      </trkpt>
      <trkpt lat="42.421868" lon="1.788663">
        <ele>1496.208</ele>
        <time>2019-05-30T14:26:06Z</time>
      </trkpt>
      <trkpt lat="42.421815" lon="1.788710">
        <ele>1495.660</ele>
        <time>2019-05-30T14:26:07Z</time>
      </trkpt>
      <trkpt lat="42.421762" lon="1.788769">
        <ele>1494.614</ele>
        <time>2019-05-30T14:26:08Z</time>
      </trkpt>
      <trkpt lat="42.421714" lon="1.788835">
        <ele>1493.880</ele>
        <time>2019-05-30T14:26:09Z</time>
      </trkpt>
      <trkpt lat="42.421663" lon="1.788900">
        <ele>1493.488</ele>
        <time>2019-05-30T14:26:10Z</time>
      </trkpt>
      <trkpt lat="42.421608" lon="1.788961">
        <ele>1493.011</ele>
        <time>2019-05-30T14:26:11Z</time>
      </trkpt>
      <trkpt lat="42.421393" lon="1.789208">
        <ele>1492.465</ele>
        <time>2019-05-30T14:26:15Z</time>
      </trkpt>
      <trkpt lat="42.421261" lon="1.789305">
        <ele>1491.053</ele>
        <time>2019-05-30T14:26:17Z</time>
      </trkpt>
      <trkpt lat="42.420928" lon="1.789489">
        <ele>1490.268</ele>
        <time>2019-05-30T14:26:22Z</time>
      </trkpt>
      <trkpt lat="42.420775" lon="1.789591">
        <ele>1490.235</ele>
        <time>2019-05-30T14:26:25Z</time>
      </trkpt>
      <trkpt lat="42.420729" lon="1.789633">
        <ele>1489.686</ele>
        <time>2019-05-30T14:26:26Z</time>
      </trkpt>
      <trkpt lat="42.420692" lon="1.789682">
        <ele>1489.414</ele>
        <time>2019-05-30T14:26:27Z</time>
      </trkpt>
      <trkpt lat="42.420611" lon="1.789759">
        <ele>1488.608</ele>
        <time>2019-05-30T14:26:29Z</time>
      </trkpt>
      <trkpt lat="42.420540" lon="1.789859">
        <ele>1487.646</ele>
        <time>2019-05-30T14:26:31Z</time>
      </trkpt>
      <trkpt lat="42.420502" lon="1.789909">
        <ele>1486.860</ele>
        <time>2019-05-30T14:26:32Z</time>
      </trkpt>
      <trkpt lat="42.420463" lon="1.789957">
        <ele>1486.426</ele>
        <time>2019-05-30T14:26:33Z</time>
      </trkpt>
      <trkpt lat="42.420383" lon="1.790055">
        <ele>1485.244</ele>
        <time>2019-05-30T14:26:35Z</time>
      </trkpt>
      <trkpt lat="42.420296" lon="1.790154">
        <ele>1483.857</ele>
        <time>2019-05-30T14:26:37Z</time>
      </trkpt>
      <trkpt lat="42.420236" lon="1.790199">
        <ele>1482.811</ele>
        <time>2019-05-30T14:26:38Z</time>
      </trkpt>
      <trkpt lat="42.420169" lon="1.790240">
        <ele>1481.839</ele>
        <time>2019-05-30T14:26:39Z</time>
      </trkpt>
      <trkpt lat="42.420096" lon="1.790273">
        <ele>1481.624</ele>
        <time>2019-05-30T14:26:40Z</time>
      </trkpt>
      <trkpt lat="42.419943" lon="1.790319">
        <ele>1480.291</ele>
        <time>2019-05-30T14:26:42Z</time>
      </trkpt>
      <trkpt lat="42.419870" lon="1.790337">
        <ele>1479.481</ele>
        <time>2019-05-30T14:26:43Z</time>
      </trkpt>
      <trkpt lat="42.419795" lon="1.790339">
        <ele>1479.019</ele>
        <time>2019-05-30T14:26:44Z</time>
      </trkpt>
      <trkpt lat="42.419560" lon="1.790324">
        <ele>1478.208</ele>
        <time>2019-05-30T14:26:47Z</time>
      </trkpt>
      <trkpt lat="42.419480" lon="1.790315">
        <ele>1477.852</ele>
        <time>2019-05-30T14:26:48Z</time>
      </trkpt>
      <trkpt lat="42.419149" lon="1.790233">
        <ele>1477.276</ele>
        <time>2019-05-30T14:26:53Z</time>
      </trkpt>
      <trkpt lat="42.419044" lon="1.790190">
        <ele>1476.462</ele>
        <time>2019-05-30T14:26:55Z</time>
      </trkpt>
      <trkpt lat="42.418939" lon="1.790186">
        <ele>1475.480</ele>
        <time>2019-05-30T14:26:57Z</time>
      </trkpt>
      <trkpt lat="42.418879" lon="1.790220">
        <ele>1475.093</ele>
        <time>2019-05-30T14:26:58Z</time>
      </trkpt>
      <trkpt lat="42.418824" lon="1.790281">
        <ele>1474.067</ele>
        <time>2019-05-30T14:26:59Z</time>
      </trkpt>
      <trkpt lat="42.418730" lon="1.790392">
        <ele>1472.225</ele>
        <time>2019-05-30T14:27:01Z</time>
      </trkpt>
      <trkpt lat="42.418622" lon="1.790498">
        <ele>1470.620</ele>
        <time>2019-05-30T14:27:03Z</time>
      </trkpt>
      <trkpt lat="42.418521" lon="1.790572">
        <ele>1469.474</ele>
        <time>2019-05-30T14:27:05Z</time>
      </trkpt>
      <trkpt lat="42.418475" lon="1.790590">
        <ele>1469.256</ele>
        <time>2019-05-30T14:27:06Z</time>
      </trkpt>
      <trkpt lat="42.418396" lon="1.790655">
        <ele>1468.621</ele>
        <time>2019-05-30T14:27:08Z</time>
      </trkpt>
      <trkpt lat="42.418357" lon="1.790704">
        <ele>1468.008</ele>
        <time>2019-05-30T14:27:09Z</time>
      </trkpt>
      <trkpt lat="42.418316" lon="1.790749">
        <ele>1467.470</ele>
        <time>2019-05-30T14:27:10Z</time>
      </trkpt>
      <trkpt lat="42.418267" lon="1.790785">
        <ele>1466.684</ele>
        <time>2019-05-30T14:27:11Z</time>
      </trkpt>
      <trkpt lat="42.418170" lon="1.790858">
        <ele>1465.030</ele>
        <time>2019-05-30T14:27:13Z</time>
      </trkpt>
      <trkpt lat="42.418126" lon="1.790898">
        <ele>1464.668</ele>
        <time>2019-05-30T14:27:14Z</time>
      </trkpt>
      <trkpt lat="42.418036" lon="1.790987">
        <ele>1463.251</ele>
        <time>2019-05-30T14:27:16Z</time>
      </trkpt>
      <trkpt lat="42.417921" lon="1.791135">
        <ele>1462.275</ele>
        <time>2019-05-30T14:27:19Z</time>
      </trkpt>
      <trkpt lat="42.417888" lon="1.791184">
        <ele>1462.293</ele>
        <time>2019-05-30T14:27:20Z</time>
      </trkpt>
      <trkpt lat="42.417776" lon="1.791315">
        <ele>1461.048</ele>
        <time>2019-05-30T14:27:23Z</time>
      </trkpt>
      <trkpt lat="42.417648" lon="1.791473">
        <ele>1460.013</ele>
        <time>2019-05-30T14:27:27Z</time>
      </trkpt>
      <trkpt lat="42.417549" lon="1.791592">
        <ele>1458.843</ele>
        <time>2019-05-30T14:27:30Z</time>
      </trkpt>
      <trkpt lat="42.417382" lon="1.791829">
        <ele>1457.807</ele>
        <time>2019-05-30T14:27:35Z</time>
      </trkpt>
      <trkpt lat="42.417350" lon="1.791887">
        <ele>1457.808</ele>
        <time>2019-05-30T14:27:36Z</time>
      </trkpt>
      <trkpt lat="42.417252" lon="1.792090">
        <ele>1457.084</ele>
        <time>2019-05-30T14:27:39Z</time>
      </trkpt>
      <trkpt lat="42.417226" lon="1.792154">
        <ele>1457.098</ele>
        <time>2019-05-30T14:27:40Z</time>
      </trkpt>
      <trkpt lat="42.417204" lon="1.792220">
        <ele>1456.694</ele>
        <time>2019-05-30T14:27:41Z</time>
      </trkpt>
      <trkpt lat="42.417170" lon="1.792351">
        <ele>1456.612</ele>
        <time>2019-05-30T14:27:43Z</time>
      </trkpt>
      <trkpt lat="42.417150" lon="1.792464">
        <ele>1456.495</ele>
        <time>2019-05-30T14:27:45Z</time>
      </trkpt>
      <trkpt lat="42.417124" lon="1.792609">
        <ele>1456.899</ele>
        <time>2019-05-30T14:27:49Z</time>
      </trkpt>
      <trkpt lat="42.417087" lon="1.792729">
        <ele>1456.487</ele>
        <time>2019-05-30T14:27:54Z</time>
      </trkpt>
      <trkpt lat="42.417157" lon="1.792666">
        <ele>1456.222</ele>
        <time>2019-05-30T14:28:22Z</time>
      </trkpt>
      <trkpt lat="42.417170" lon="1.792697">
        <ele>1455.887</ele>
        <time>2019-05-30T14:28:23Z</time>
      </trkpt>
      <trkpt lat="42.417172" lon="1.792734">
        <ele>1455.442</ele>
        <time>2019-05-30T14:28:24Z</time>
      </trkpt>
      <trkpt lat="42.417181" lon="1.792817">
        <ele>1454.626</ele>
        <time>2019-05-30T14:28:26Z</time>
      </trkpt>
      <trkpt lat="42.417190" lon="1.792866">
        <ele>1454.408</ele>
        <time>2019-05-30T14:28:27Z</time>
      </trkpt>
      <trkpt lat="42.417206" lon="1.792992">
        <ele>1453.411</ele>
        <time>2019-05-30T14:28:30Z</time>
      </trkpt>
      <trkpt lat="42.417202" lon="1.793106">
        <ele>1452.675</ele>
        <time>2019-05-30T14:28:33Z</time>
      </trkpt>
      <trkpt lat="42.417199" lon="1.793148">
        <ele>1452.211</ele>
        <time>2019-05-30T14:28:34Z</time>
      </trkpt>
      <trkpt lat="42.417186" lon="1.793246">
        <ele>1451.099</ele>
        <time>2019-05-30T14:28:36Z</time>
      </trkpt>
      <trkpt lat="42.417174" lon="1.793337">
        <ele>1449.822</ele>
        <time>2019-05-30T14:28:38Z</time>
      </trkpt>
      <trkpt lat="42.417163" lon="1.793429">
        <ele>1448.896</ele>
        <time>2019-05-30T14:28:40Z</time>
      </trkpt>
      <trkpt lat="42.417121" lon="1.793504">
        <ele>1447.824</ele>
        <time>2019-05-30T14:28:42Z</time>
      </trkpt>
      <trkpt lat="42.417066" lon="1.793538">
        <ele>1446.849</ele>
        <time>2019-05-30T14:28:44Z</time>
      </trkpt>
      <trkpt lat="42.417036" lon="1.793540">
        <ele>1446.491</ele>
        <time>2019-05-30T14:28:45Z</time>
      </trkpt>
      <trkpt lat="42.416942" lon="1.793548">
        <ele>1445.881</ele>
        <time>2019-05-30T14:28:49Z</time>
      </trkpt>
      <trkpt lat="42.416916" lon="1.793529">
        <ele>1445.019</ele>
        <time>2019-05-30T14:28:50Z</time>
      </trkpt>
      <trkpt lat="42.416856" lon="1.793463">
        <ele>1443.608</ele>
        <time>2019-05-30T14:28:53Z</time>
      </trkpt>
      <trkpt lat="42.416850" lon="1.793457">
        <ele>1443.022</ele>
        <time>2019-05-30T14:28:54Z</time>
      </trkpt>
      <trkpt lat="42.416844" lon="1.793430">
        <ele>1442.826</ele>
        <time>2019-05-30T14:28:55Z</time>
      </trkpt>
      <trkpt lat="42.416840" lon="1.793400">
        <ele>1442.492</ele>
        <time>2019-05-30T14:28:56Z</time>
      </trkpt>
      <trkpt lat="42.416810" lon="1.793356">
        <ele>1441.680</ele>
        <time>2019-05-30T14:28:58Z</time>
      </trkpt>
      <trkpt lat="42.416798" lon="1.793334">
        <ele>1441.273</ele>
        <time>2019-05-30T14:28:59Z</time>
      </trkpt>
      <trkpt lat="42.416710" lon="1.793279">
        <ele>1440.247</ele>
        <time>2019-05-30T14:29:03Z</time>
      </trkpt>
      <trkpt lat="42.416690" lon="1.793283">
        <ele>1439.825</ele>
        <time>2019-05-30T14:29:04Z</time>
      </trkpt>
      <trkpt lat="42.416627" lon="1.793283">
        <ele>1439.020</ele>
        <time>2019-05-30T14:29:07Z</time>
      </trkpt>
      <trkpt lat="42.416571" lon="1.793246">
        <ele>1438.224</ele>
        <time>2019-05-30T14:29:10Z</time>
      </trkpt>
      <trkpt lat="42.416511" lon="1.793177">
        <ele>1436.804</ele>
        <time>2019-05-30T14:29:29Z</time>
      </trkpt>
      <trkpt lat="42.416517" lon="1.793065">
        <ele>1436.614</ele>
        <time>2019-05-30T14:29:32Z</time>
      </trkpt>
      <trkpt lat="42.416523" lon="1.793039">
        <ele>1437.208</ele>
        <time>2019-05-30T14:29:33Z</time>
      </trkpt>
      <trkpt lat="42.416542" lon="1.792893">
        <ele>1439.635</ele>
        <time>2019-05-30T14:29:38Z</time>
      </trkpt>
      <trkpt lat="42.416545" lon="1.792863">
        <ele>1440.079</ele>
        <time>2019-05-30T14:29:39Z</time>
      </trkpt>
      <trkpt lat="42.416561" lon="1.792697">
        <ele>1440.885</ele>
        <time>2019-05-30T14:29:45Z</time>
      </trkpt>
      <trkpt lat="42.416500" lon="1.792563">
        <ele>1441.673</ele>
        <time>2019-05-30T14:29:50Z</time>
      </trkpt>
      <trkpt lat="42.416354" lon="1.792401">
        <ele>1440.026</ele>
        <time>2019-05-30T14:29:55Z</time>
      </trkpt>
      <trkpt lat="42.416332" lon="1.792368">
        <ele>1439.850</ele>
        <time>2019-05-30T14:29:56Z</time>
      </trkpt>
      <trkpt lat="42.416212" lon="1.792270">
        <ele>1439.418</ele>
        <time>2019-05-30T14:30:00Z</time>
      </trkpt>
      <trkpt lat="42.416049" lon="1.792127">
        <ele>1438.663</ele>
        <time>2019-05-30T14:30:04Z</time>
      </trkpt>
      <trkpt lat="42.415962" lon="1.792051">
        <ele>1436.627</ele>
        <time>2019-05-30T14:30:06Z</time>
      </trkpt>
      <trkpt lat="42.415632" lon="1.791825">
        <ele>1436.268</ele>
        <time>2019-05-30T14:30:13Z</time>
      </trkpt>
      <trkpt lat="42.415260" lon="1.791662">
        <ele>1436.214</ele>
        <time>2019-05-30T14:30:21Z</time>
      </trkpt>
      <trkpt lat="42.415225" lon="1.791647">
        <ele>1435.008</ele>
        <time>2019-05-30T14:30:22Z</time>
      </trkpt>
      <trkpt lat="42.415124" lon="1.791632">
        <ele>1436.015</ele>
        <time>2019-05-30T14:30:25Z</time>
      </trkpt>
      <trkpt lat="42.415096" lon="1.791641">
        <ele>1435.899</ele>
        <time>2019-05-30T14:30:26Z</time>
      </trkpt>
      <trkpt lat="42.414958" lon="1.791781">
        <ele>1435.045</ele>
        <time>2019-05-30T14:30:30Z</time>
      </trkpt>
      <trkpt lat="42.414899" lon="1.791832">
        <ele>1434.493</ele>
        <time>2019-05-30T14:30:31Z</time>
      </trkpt>
      <trkpt lat="42.414838" lon="1.791909">
        <ele>1433.666</ele>
        <time>2019-05-30T14:30:32Z</time>
      </trkpt>
      <trkpt lat="42.414780" lon="1.791987">
        <ele>1432.850</ele>
        <time>2019-05-30T14:30:33Z</time>
      </trkpt>
      <trkpt lat="42.414737" lon="1.792093">
        <ele>1431.678</ele>
        <time>2019-05-30T14:30:34Z</time>
      </trkpt>
      <trkpt lat="42.414704" lon="1.792202">
        <ele>1430.453</ele>
        <time>2019-05-30T14:30:35Z</time>
      </trkpt>
      <trkpt lat="42.414679" lon="1.792284">
        <ele>1429.424</ele>
        <time>2019-05-30T14:30:36Z</time>
      </trkpt>
      <trkpt lat="42.414651" lon="1.792324">
        <ele>1429.004</ele>
        <time>2019-05-30T14:30:37Z</time>
      </trkpt>
      <trkpt lat="42.414651" lon="1.792346">
        <ele>1428.814</ele>
        <time>2019-05-30T14:30:38Z</time>
      </trkpt>
      <trkpt lat="42.414698" lon="1.792245">
        <ele>1428.808</ele>
        <time>2019-05-30T14:30:53Z</time>
      </trkpt>
      <trkpt lat="42.414731" lon="1.792166">
        <ele>1429.485</ele>
        <time>2019-05-30T14:30:58Z</time>
      </trkpt>
      <trkpt lat="42.414755" lon="1.792132">
        <ele>1430.289</ele>
        <time>2019-05-30T14:31:00Z</time>
      </trkpt>
      <trkpt lat="42.414822" lon="1.791993">
        <ele>1431.635</ele>
        <time>2019-05-30T14:31:07Z</time>
      </trkpt>
      <trkpt lat="42.414892" lon="1.791916">
        <ele>1432.853</ele>
        <time>2019-05-30T14:31:13Z</time>
      </trkpt>
      <trkpt lat="42.414950" lon="1.791877">
        <ele>1433.286</ele>
        <time>2019-05-30T14:31:18Z</time>
      </trkpt>
      <trkpt lat="42.414978" lon="1.791867">
        <ele>1433.810</ele>
        <time>2019-05-30T14:31:20Z</time>
      </trkpt>
      <trkpt lat="42.414990" lon="1.791850">
        <ele>1434.258</ele>
        <time>2019-05-30T14:31:21Z</time>
      </trkpt>
      <trkpt lat="42.415004" lon="1.791837">
        <ele>1434.453</ele>
        <time>2019-05-30T14:31:22Z</time>
      </trkpt>
      <trkpt lat="42.415012" lon="1.791807">
        <ele>1434.461</ele>
        <time>2019-05-30T14:31:23Z</time>
      </trkpt>
      <trkpt lat="42.415031" lon="1.791753">
        <ele>1434.621</ele>
        <time>2019-05-30T14:31:26Z</time>
      </trkpt>
      <trkpt lat="42.415027" lon="1.791732">
        <ele>1435.213</ele>
        <time>2019-05-30T14:31:27Z</time>
      </trkpt>
      <trkpt lat="42.415009" lon="1.791693">
        <ele>1436.408</ele>
        <time>2019-05-30T14:31:29Z</time>
      </trkpt>
      <trkpt lat="42.414969" lon="1.791658">
        <ele>1436.689</ele>
        <time>2019-05-30T14:31:32Z</time>
      </trkpt>
      <trkpt lat="42.414911" lon="1.791598">
        <ele>1437.423</ele>
        <time>2019-05-30T14:31:37Z</time>
      </trkpt>
      <trkpt lat="42.414887" lon="1.791577">
        <ele>1438.449</ele>
        <time>2019-05-30T14:31:39Z</time>
      </trkpt>
      <trkpt lat="42.414876" lon="1.791571">
        <ele>1438.687</ele>
        <time>2019-05-30T14:31:40Z</time>
      </trkpt>
      <trkpt lat="42.414865" lon="1.791565">
        <ele>1438.690</ele>
        <time>2019-05-30T14:31:41Z</time>
      </trkpt>
      <trkpt lat="42.414796" lon="1.791526">
        <ele>1440.294</ele>
        <time>2019-05-30T14:31:47Z</time>
      </trkpt>
      <trkpt lat="42.414783" lon="1.791518">
        <ele>1440.272</ele>
        <time>2019-05-30T14:31:48Z</time>
      </trkpt>
      <trkpt lat="42.414773" lon="1.791515">
        <ele>1439.227</ele>
        <time>2019-05-30T14:31:49Z</time>
      </trkpt>
      <trkpt lat="42.414744" lon="1.791513">
        <ele>1438.087</ele>
        <time>2019-05-30T14:31:51Z</time>
      </trkpt>
      <trkpt lat="42.414703" lon="1.791524">
        <ele>1438.442</ele>
        <time>2019-05-30T14:31:54Z</time>
      </trkpt>
      <trkpt lat="42.414645" lon="1.791531">
        <ele>1439.226</ele>
        <time>2019-05-30T14:31:58Z</time>
      </trkpt>
      <trkpt lat="42.414632" lon="1.791534">
        <ele>1441.208</ele>
        <time>2019-05-30T14:31:59Z</time>
      </trkpt>
      <trkpt lat="42.414612" lon="1.791543">
        <ele>1440.841</ele>
        <time>2019-05-30T14:32:01Z</time>
      </trkpt>
      <trkpt lat="42.414603" lon="1.791551">
        <ele>1441.255</ele>
        <time>2019-05-30T14:32:02Z</time>
      </trkpt>
      <trkpt lat="42.414540" lon="1.791601">
        <ele>1441.871</ele>
        <time>2019-05-30T14:32:08Z</time>
      </trkpt>
      <trkpt lat="42.414526" lon="1.791607">
        <ele>1441.869</ele>
        <time>2019-05-30T14:32:09Z</time>
      </trkpt>
      <trkpt lat="42.414449" lon="1.791705">
        <ele>1442.252</ele>
        <time>2019-05-30T14:32:17Z</time>
      </trkpt>
      <trkpt lat="42.414426" lon="1.791727">
        <ele>1442.426</ele>
        <time>2019-05-30T14:32:19Z</time>
      </trkpt>
      <trkpt lat="42.414358" lon="1.791797">
        <ele>1443.094</ele>
        <time>2019-05-30T14:32:25Z</time>
      </trkpt>
      <trkpt lat="42.414337" lon="1.791831">
        <ele>1443.029</ele>
        <time>2019-05-30T14:32:27Z</time>
      </trkpt>
      <trkpt lat="42.414293" lon="1.791883">
        <ele>1443.429</ele>
        <time>2019-05-30T14:32:31Z</time>
      </trkpt>
      <trkpt lat="42.414243" lon="1.791926">
        <ele>1443.200</ele>
        <time>2019-05-30T14:32:35Z</time>
      </trkpt>
      <trkpt lat="42.414139" lon="1.791994">
        <ele>1443.820</ele>
        <time>2019-05-30T14:32:43Z</time>
      </trkpt>
      <trkpt lat="42.414087" lon="1.792008">
        <ele>1444.408</ele>
        <time>2019-05-30T14:32:47Z</time>
      </trkpt>
      <trkpt lat="42.414027" lon="1.792042">
        <ele>1445.445</ele>
        <time>2019-05-30T14:32:52Z</time>
      </trkpt>
      <trkpt lat="42.414013" lon="1.792052">
        <ele>1445.879</ele>
        <time>2019-05-30T14:32:53Z</time>
      </trkpt>
      <trkpt lat="42.413948" lon="1.792095">
        <ele>1446.885</ele>
        <time>2019-05-30T14:32:58Z</time>
      </trkpt>
      <trkpt lat="42.413925" lon="1.792113">
        <ele>1447.233</ele>
        <time>2019-05-30T14:33:00Z</time>
      </trkpt>
      <trkpt lat="42.413844" lon="1.792177">
        <ele>1448.256</ele>
        <time>2019-05-30T14:33:07Z</time>
      </trkpt>
      <trkpt lat="42.413782" lon="1.792228">
        <ele>1449.490</ele>
        <time>2019-05-30T14:33:12Z</time>
      </trkpt>
      <trkpt lat="42.413740" lon="1.792250">
        <ele>1450.098</ele>
        <time>2019-05-30T14:33:15Z</time>
      </trkpt>
      <trkpt lat="42.413681" lon="1.792252">
        <ele>1450.453</ele>
        <time>2019-05-30T14:33:19Z</time>
      </trkpt>
      <trkpt lat="42.413642" lon="1.792251">
        <ele>1450.812</ele>
        <time>2019-05-30T14:33:22Z</time>
      </trkpt>
      <trkpt lat="42.413597" lon="1.792267">
        <ele>1451.232</ele>
        <time>2019-05-30T14:33:26Z</time>
      </trkpt>
      <trkpt lat="42.413572" lon="1.792274">
        <ele>1451.405</ele>
        <time>2019-05-30T14:33:28Z</time>
      </trkpt>
      <trkpt lat="42.413546" lon="1.792275">
        <ele>1451.408</ele>
        <time>2019-05-30T14:33:30Z</time>
      </trkpt>
      <trkpt lat="42.413496" lon="1.792286">
        <ele>1451.814</ele>
        <time>2019-05-30T14:33:34Z</time>
      </trkpt>
      <trkpt lat="42.413462" lon="1.792301">
        <ele>1452.238</ele>
        <time>2019-05-30T14:33:37Z</time>
      </trkpt>
      <trkpt lat="42.413450" lon="1.792306">
        <ele>1452.674</ele>
        <time>2019-05-30T14:33:38Z</time>
      </trkpt>
      <trkpt lat="42.413391" lon="1.792324">
        <ele>1453.612</ele>
        <time>2019-05-30T14:33:43Z</time>
      </trkpt>
      <trkpt lat="42.413379" lon="1.792329">
        <ele>1453.615</ele>
        <time>2019-05-30T14:33:44Z</time>
      </trkpt>
      <trkpt lat="42.413292" lon="1.792360">
        <ele>1454.669</ele>
        <time>2019-05-30T14:33:51Z</time>
      </trkpt>
      <trkpt lat="42.413279" lon="1.792367">
        <ele>1454.897</ele>
        <time>2019-05-30T14:33:52Z</time>
      </trkpt>
      <trkpt lat="42.413215" lon="1.792473">
        <ele>1455.482</ele>
        <time>2019-05-30T14:33:59Z</time>
      </trkpt>
      <trkpt lat="42.413172" lon="1.792562">
        <ele>1455.871</ele>
        <time>2019-05-30T14:34:05Z</time>
      </trkpt>
      <trkpt lat="42.413165" lon="1.792579">
        <ele>1456.041</ele>
        <time>2019-05-30T14:34:06Z</time>
      </trkpt>
      <trkpt lat="42.413098" lon="1.792696">
        <ele>1456.815</ele>
        <time>2019-05-30T14:34:14Z</time>
      </trkpt>
      <trkpt lat="42.413074" lon="1.792717">
        <ele>1457.008</ele>
        <time>2019-05-30T14:34:16Z</time>
      </trkpt>
      <trkpt lat="42.413027" lon="1.792775">
        <ele>1457.250</ele>
        <time>2019-05-30T14:34:20Z</time>
      </trkpt>
      <trkpt lat="42.412953" lon="1.792860">
        <ele>1457.874</ele>
        <time>2019-05-30T14:34:27Z</time>
      </trkpt>
      <trkpt lat="42.412933" lon="1.792889">
        <ele>1458.270</ele>
        <time>2019-05-30T14:34:29Z</time>
      </trkpt>
      <trkpt lat="42.412867" lon="1.792962">
        <ele>1458.878</ele>
        <time>2019-05-30T14:34:35Z</time>
      </trkpt>
      <trkpt lat="42.412813" lon="1.793024">
        <ele>1459.271</ele>
        <time>2019-05-30T14:34:40Z</time>
      </trkpt>
      <trkpt lat="42.412788" lon="1.793042">
        <ele>1459.685</ele>
        <time>2019-05-30T14:34:42Z</time>
      </trkpt>
      <trkpt lat="42.412730" lon="1.793107">
        <ele>1460.413</ele>
        <time>2019-05-30T14:34:48Z</time>
      </trkpt>
      <trkpt lat="42.412709" lon="1.793130">
        <ele>1460.658</ele>
        <time>2019-05-30T14:34:50Z</time>
      </trkpt>
      <trkpt lat="42.412654" lon="1.793172">
        <ele>1461.468</ele>
        <time>2019-05-30T14:34:54Z</time>
      </trkpt>
      <trkpt lat="42.412622" lon="1.793209">
        <ele>1462.442</ele>
        <time>2019-05-30T14:34:57Z</time>
      </trkpt>
      <trkpt lat="42.412601" lon="1.793228">
        <ele>1462.626</ele>
        <time>2019-05-30T14:34:59Z</time>
      </trkpt>
      <trkpt lat="42.412517" lon="1.793291">
        <ele>1463.808</ele>
        <time>2019-05-30T14:35:06Z</time>
      </trkpt>
      <trkpt lat="42.412436" lon="1.793356">
        <ele>1465.039</ele>
        <time>2019-05-30T14:35:13Z</time>
      </trkpt>
      <trkpt lat="42.412376" lon="1.793416">
        <ele>1466.253</ele>
        <time>2019-05-30T14:35:18Z</time>
      </trkpt>
      <trkpt lat="42.412351" lon="1.793438">
        <ele>1466.649</ele>
        <time>2019-05-30T14:35:20Z</time>
      </trkpt>
      <trkpt lat="42.412295" lon="1.793463">
        <ele>1467.497</ele>
        <time>2019-05-30T14:35:24Z</time>
      </trkpt>
      <trkpt lat="42.412241" lon="1.793490">
        <ele>1468.010</ele>
        <time>2019-05-30T14:35:28Z</time>
      </trkpt>
      <trkpt lat="42.412219" lon="1.793512">
        <ele>1468.684</ele>
        <time>2019-05-30T14:35:30Z</time>
      </trkpt>
      <trkpt lat="42.412150" lon="1.793556">
        <ele>1468.842</ele>
        <time>2019-05-30T14:35:36Z</time>
      </trkpt>
      <trkpt lat="42.412139" lon="1.793565">
        <ele>1469.047</ele>
        <time>2019-05-30T14:35:37Z</time>
      </trkpt>
      <trkpt lat="42.412091" lon="1.793601">
        <ele>1469.452</ele>
        <time>2019-05-30T14:35:41Z</time>
      </trkpt>
      <trkpt lat="42.412081" lon="1.793612">
        <ele>1469.653</ele>
        <time>2019-05-30T14:35:42Z</time>
      </trkpt>
      <trkpt lat="42.412025" lon="1.793664">
        <ele>1469.808</ele>
        <time>2019-05-30T14:35:47Z</time>
      </trkpt>
      <trkpt lat="42.411981" lon="1.793716">
        <ele>1470.208</ele>
        <time>2019-05-30T14:35:51Z</time>
      </trkpt>
      <trkpt lat="42.411969" lon="1.793727">
        <ele>1470.288</ele>
        <time>2019-05-30T14:35:52Z</time>
      </trkpt>
      <trkpt lat="42.411956" lon="1.793735">
        <ele>1470.462</ele>
        <time>2019-05-30T14:35:53Z</time>
      </trkpt>
      <trkpt lat="42.411907" lon="1.793752">
        <ele>1470.678</ele>
        <time>2019-05-30T14:35:57Z</time>
      </trkpt>
      <trkpt lat="42.411855" lon="1.793766">
        <ele>1471.276</ele>
        <time>2019-05-30T14:36:01Z</time>
      </trkpt>
      <trkpt lat="42.411828" lon="1.793770">
        <ele>1471.699</ele>
        <time>2019-05-30T14:36:03Z</time>
      </trkpt>
      <trkpt lat="42.411758" lon="1.793784">
        <ele>1472.033</ele>
        <time>2019-05-30T14:36:08Z</time>
      </trkpt>
      <trkpt lat="42.411718" lon="1.793793">
        <ele>1472.661</ele>
        <time>2019-05-30T14:36:11Z</time>
      </trkpt>
      <trkpt lat="42.411635" lon="1.793823">
        <ele>1473.056</ele>
        <time>2019-05-30T14:36:17Z</time>
      </trkpt>
      <trkpt lat="42.411542" lon="1.793892">
        <ele>1473.015</ele>
        <time>2019-05-30T14:36:24Z</time>
      </trkpt>
      <trkpt lat="42.411513" lon="1.793909">
        <ele>1473.865</ele>
        <time>2019-05-30T14:36:26Z</time>
      </trkpt>
      <trkpt lat="42.411468" lon="1.793926">
        <ele>1473.811</ele>
        <time>2019-05-30T14:36:29Z</time>
      </trkpt>
      <trkpt lat="42.411371" lon="1.793992">
        <ele>1474.008</ele>
        <time>2019-05-30T14:36:35Z</time>
      </trkpt>
      <trkpt lat="42.411245" lon="1.794074">
        <ele>1474.274</ele>
        <time>2019-05-30T14:36:42Z</time>
      </trkpt>
      <trkpt lat="42.411144" lon="1.794142">
        <ele>1474.898</ele>
        <time>2019-05-30T14:36:48Z</time>
      </trkpt>
      <trkpt lat="42.411126" lon="1.794152">
        <ele>1474.674</ele>
        <time>2019-05-30T14:36:49Z</time>
      </trkpt>
      <trkpt lat="42.411009" lon="1.794231">
        <ele>1475.412</ele>
        <time>2019-05-30T14:36:56Z</time>
      </trkpt>
      <trkpt lat="42.410869" lon="1.794297">
        <ele>1475.635</ele>
        <time>2019-05-30T14:37:03Z</time>
      </trkpt>
      <trkpt lat="42.410850" lon="1.794303">
        <ele>1475.849</ele>
        <time>2019-05-30T14:37:04Z</time>
      </trkpt>
      <trkpt lat="42.410655" lon="1.794356">
        <ele>1477.087</ele>
        <time>2019-05-30T14:37:13Z</time>
      </trkpt>
      <trkpt lat="42.410528" lon="1.794369">
        <ele>1477.272</ele>
        <time>2019-05-30T14:37:20Z</time>
      </trkpt>
      <trkpt lat="42.410421" lon="1.794378">
        <ele>1478.079</ele>
        <time>2019-05-30T14:37:27Z</time>
      </trkpt>
      <trkpt lat="42.410344" lon="1.794389">
        <ele>1479.005</ele>
        <time>2019-05-30T14:37:32Z</time>
      </trkpt>
      <trkpt lat="42.410327" lon="1.794394">
        <ele>1479.225</ele>
        <time>2019-05-30T14:37:33Z</time>
      </trkpt>
      <trkpt lat="42.410311" lon="1.794399">
        <ele>1479.408</ele>
        <time>2019-05-30T14:37:34Z</time>
      </trkpt>
      <trkpt lat="42.410168" lon="1.794440">
        <ele>1479.860</ele>
        <time>2019-05-30T14:37:41Z</time>
      </trkpt>
      <trkpt lat="42.410089" lon="1.794478">
        <ele>1480.244</ele>
        <time>2019-05-30T14:37:46Z</time>
      </trkpt>
      <trkpt lat="42.409943" lon="1.794562">
        <ele>1480.060</ele>
        <time>2019-05-30T14:37:53Z</time>
      </trkpt>
      <trkpt lat="42.409860" lon="1.794594">
        <ele>1480.828</ele>
        <time>2019-05-30T14:37:58Z</time>
      </trkpt>
      <trkpt lat="42.409758" lon="1.794592">
        <ele>1481.241</ele>
        <time>2019-05-30T14:38:03Z</time>
      </trkpt>
      <trkpt lat="42.409741" lon="1.794592">
        <ele>1481.225</ele>
        <time>2019-05-30T14:38:04Z</time>
      </trkpt>
      <trkpt lat="42.409631" lon="1.794583">
        <ele>1481.293</ele>
        <time>2019-05-30T14:38:10Z</time>
      </trkpt>
      <trkpt lat="42.409537" lon="1.794568">
        <ele>1482.038</ele>
        <time>2019-05-30T14:38:15Z</time>
      </trkpt>
      <trkpt lat="42.409520" lon="1.794569">
        <ele>1482.278</ele>
        <time>2019-05-30T14:38:16Z</time>
      </trkpt>
      <trkpt lat="42.409392" lon="1.794561">
        <ele>1482.233</ele>
        <time>2019-05-30T14:38:23Z</time>
      </trkpt>
      <trkpt lat="42.409253" lon="1.794553">
        <ele>1483.026</ele>
        <time>2019-05-30T14:38:31Z</time>
      </trkpt>
      <trkpt lat="42.409235" lon="1.794552">
        <ele>1483.208</ele>
        <time>2019-05-30T14:38:32Z</time>
      </trkpt>
      <trkpt lat="42.409151" lon="1.794532">
        <ele>1483.610</ele>
        <time>2019-05-30T14:38:37Z</time>
      </trkpt>
      <trkpt lat="42.409033" lon="1.794486">
        <ele>1484.254</ele>
        <time>2019-05-30T14:38:45Z</time>
      </trkpt>
      <trkpt lat="42.409019" lon="1.794478">
        <ele>1484.450</ele>
        <time>2019-05-30T14:38:46Z</time>
      </trkpt>
      <trkpt lat="42.408937" lon="1.794436">
        <ele>1484.838</ele>
        <time>2019-05-30T14:38:51Z</time>
      </trkpt>
      <trkpt lat="42.408810" lon="1.794363">
        <ele>1484.641</ele>
        <time>2019-05-30T14:38:58Z</time>
      </trkpt>
      <trkpt lat="42.408739" lon="1.794328">
        <ele>1484.825</ele>
        <time>2019-05-30T14:39:02Z</time>
      </trkpt>
      <trkpt lat="42.408681" lon="1.794296">
        <ele>1485.083</ele>
        <time>2019-05-30T14:39:05Z</time>
      </trkpt>
      <trkpt lat="42.408643" lon="1.794280">
        <ele>1486.268</ele>
        <time>2019-05-30T14:39:07Z</time>
      </trkpt>
      <trkpt lat="42.408541" lon="1.794234">
        <ele>1485.418</ele>
        <time>2019-05-30T14:39:12Z</time>
      </trkpt>
      <trkpt lat="42.408414" lon="1.794209">
        <ele>1486.298</ele>
        <time>2019-05-30T14:39:19Z</time>
      </trkpt>
      <trkpt lat="42.408316" lon="1.794193">
        <ele>1487.417</ele>
        <time>2019-05-30T14:39:25Z</time>
      </trkpt>
      <trkpt lat="42.408285" lon="1.794193">
        <ele>1487.808</ele>
        <time>2019-05-30T14:39:27Z</time>
      </trkpt>
      <trkpt lat="42.408252" lon="1.794189">
        <ele>1488.464</ele>
        <time>2019-05-30T14:39:29Z</time>
      </trkpt>
      <trkpt lat="42.408178" lon="1.794195">
        <ele>1490.688</ele>
        <time>2019-05-30T14:39:34Z</time>
      </trkpt>
      <trkpt lat="42.408097" lon="1.794213">
        <ele>1489.054</ele>
        <time>2019-05-30T14:39:37Z</time>
      </trkpt>
      <trkpt lat="42.408023" lon="1.794237">
        <ele>1487.412</ele>
        <time>2019-05-30T14:39:39Z</time>
      </trkpt>
      <trkpt lat="42.407943" lon="1.794260">
        <ele>1486.465</ele>
        <time>2019-05-30T14:39:41Z</time>
      </trkpt>
      <trkpt lat="42.407798" lon="1.794249">
        <ele>1486.479</ele>
        <time>2019-05-30T14:39:45Z</time>
      </trkpt>
      <trkpt lat="42.407652" lon="1.794239">
        <ele>1485.697</ele>
        <time>2019-05-30T14:39:50Z</time>
      </trkpt>
      <trkpt lat="42.407533" lon="1.794234">
        <ele>1485.032</ele>
        <time>2019-05-30T14:39:54Z</time>
      </trkpt>
      <trkpt lat="42.407446" lon="1.794245">
        <ele>1484.825</ele>
        <time>2019-05-30T14:39:57Z</time>
      </trkpt>
      <trkpt lat="42.407362" lon="1.794260">
        <ele>1483.826</ele>
        <time>2019-05-30T14:40:00Z</time>
      </trkpt>
      <trkpt lat="42.407289" lon="1.794264">
        <ele>1482.208</ele>
        <time>2019-05-30T14:40:03Z</time>
      </trkpt>
      <trkpt lat="42.407178" lon="1.794280">
        <ele>1480.408</ele>
        <time>2019-05-30T14:40:07Z</time>
      </trkpt>
      <trkpt lat="42.407146" lon="1.794296">
        <ele>1479.855</ele>
        <time>2019-05-30T14:40:08Z</time>
      </trkpt>
      <trkpt lat="42.407114" lon="1.794317">
        <ele>1479.229</ele>
        <time>2019-05-30T14:40:09Z</time>
      </trkpt>
      <trkpt lat="42.407015" lon="1.794393">
        <ele>1477.635</ele>
        <time>2019-05-30T14:40:12Z</time>
      </trkpt>
      <trkpt lat="42.406975" lon="1.794415">
        <ele>1476.873</ele>
        <time>2019-05-30T14:40:13Z</time>
      </trkpt>
      <trkpt lat="42.406928" lon="1.794431">
        <ele>1476.246</ele>
        <time>2019-05-30T14:40:14Z</time>
      </trkpt>
      <trkpt lat="42.406825" lon="1.794452">
        <ele>1475.070</ele>
        <time>2019-05-30T14:40:16Z</time>
      </trkpt>
      <trkpt lat="42.406771" lon="1.794462">
        <ele>1474.068</ele>
        <time>2019-05-30T14:40:17Z</time>
      </trkpt>
      <trkpt lat="42.406670" lon="1.794506">
        <ele>1472.873</ele>
        <time>2019-05-30T14:40:19Z</time>
      </trkpt>
      <trkpt lat="42.406628" lon="1.794529">
        <ele>1472.812</ele>
        <time>2019-05-30T14:40:20Z</time>
      </trkpt>
      <trkpt lat="42.406588" lon="1.794549">
        <ele>1472.832</ele>
        <time>2019-05-30T14:40:21Z</time>
      </trkpt>
      <trkpt lat="42.406467" lon="1.794587">
        <ele>1472.405</ele>
        <time>2019-05-30T14:40:25Z</time>
      </trkpt>
      <trkpt lat="42.406418" lon="1.794630">
        <ele>1471.808</ele>
        <time>2019-05-30T14:40:28Z</time>
      </trkpt>
      <trkpt lat="42.406420" lon="1.794629">
        <ele>1472.014</ele>
        <time>2019-05-30T14:40:29Z</time>
      </trkpt>
      <trkpt lat="42.406368" lon="1.794668">
        <ele>1471.658</ele>
        <time>2019-05-30T14:41:27Z</time>
      </trkpt>
      <trkpt lat="42.406328" lon="1.794689">
        <ele>1471.414</ele>
        <time>2019-05-30T14:41:29Z</time>
      </trkpt>
      <trkpt lat="42.406243" lon="1.794769">
        <ele>1470.462</ele>
        <time>2019-05-30T14:41:33Z</time>
      </trkpt>
      <trkpt lat="42.406198" lon="1.794799">
        <ele>1470.075</ele>
        <time>2019-05-30T14:41:35Z</time>
      </trkpt>
      <trkpt lat="42.406106" lon="1.794872">
        <ele>1469.019</ele>
        <time>2019-05-30T14:41:40Z</time>
      </trkpt>
      <trkpt lat="42.406084" lon="1.794890">
        <ele>1469.047</ele>
        <time>2019-05-30T14:41:41Z</time>
      </trkpt>
      <trkpt lat="42.406016" lon="1.794942">
        <ele>1467.412</ele>
        <time>2019-05-30T14:41:44Z</time>
      </trkpt>
      <trkpt lat="42.405928" lon="1.795049">
        <ele>1466.045</ele>
        <time>2019-05-30T14:41:48Z</time>
      </trkpt>
      <trkpt lat="42.405843" lon="1.795225">
        <ele>1464.447</ele>
        <time>2019-05-30T14:41:53Z</time>
      </trkpt>
      <trkpt lat="42.405791" lon="1.795268">
        <ele>1463.211</ele>
        <time>2019-05-30T14:41:55Z</time>
      </trkpt>
      <trkpt lat="42.405724" lon="1.795299">
        <ele>1463.608</ele>
        <time>2019-05-30T14:41:57Z</time>
      </trkpt>
      <trkpt lat="42.405565" lon="1.795299">
        <ele>1462.857</ele>
        <time>2019-05-30T14:42:02Z</time>
      </trkpt>
      <trkpt lat="42.405465" lon="1.795224">
        <ele>1462.261</ele>
        <time>2019-05-30T14:42:06Z</time>
      </trkpt>
      <trkpt lat="42.405357" lon="1.795159">
        <ele>1461.067</ele>
        <time>2019-05-30T14:42:10Z</time>
      </trkpt>
      <trkpt lat="42.405323" lon="1.795164">
        <ele>1461.025</ele>
        <time>2019-05-30T14:42:11Z</time>
      </trkpt>
      <trkpt lat="42.405284" lon="1.795177">
        <ele>1460.438</ele>
        <time>2019-05-30T14:42:12Z</time>
      </trkpt>
      <trkpt lat="42.405240" lon="1.795197">
        <ele>1459.652</ele>
        <time>2019-05-30T14:42:13Z</time>
      </trkpt>
      <trkpt lat="42.405164" lon="1.795250">
        <ele>1458.830</ele>
        <time>2019-05-30T14:42:15Z</time>
      </trkpt>
      <trkpt lat="42.405128" lon="1.795278">
        <ele>1458.695</ele>
        <time>2019-05-30T14:42:16Z</time>
      </trkpt>
      <trkpt lat="42.405052" lon="1.795325">
        <ele>1457.614</ele>
        <time>2019-05-30T14:42:18Z</time>
      </trkpt>
      <trkpt lat="42.404946" lon="1.795366">
        <ele>1456.854</ele>
        <time>2019-05-30T14:42:21Z</time>
      </trkpt>
      <trkpt lat="42.404869" lon="1.795367">
        <ele>1457.009</ele>
        <time>2019-05-30T14:42:25Z</time>
      </trkpt>
      <trkpt lat="42.404698" lon="1.795450">
        <ele>1456.808</ele>
        <time>2019-05-30T14:43:10Z</time>
      </trkpt>
      <trkpt lat="42.404666" lon="1.795469">
        <ele>1457.014</ele>
        <time>2019-05-30T14:43:12Z</time>
      </trkpt>
      <trkpt lat="42.404602" lon="1.795546">
        <ele>1456.858</ele>
        <time>2019-05-30T14:43:16Z</time>
      </trkpt>
      <trkpt lat="42.404585" lon="1.795568">
        <ele>1456.634</ele>
        <time>2019-05-30T14:43:18Z</time>
      </trkpt>
      <trkpt lat="42.404574" lon="1.795600">
        <ele>1456.692</ele>
        <time>2019-05-30T14:43:20Z</time>
      </trkpt>
      <trkpt lat="42.404570" lon="1.795620">
        <ele>1456.645</ele>
        <time>2019-05-30T14:43:21Z</time>
      </trkpt>
      <trkpt lat="42.404548" lon="1.795651">
        <ele>1456.429</ele>
        <time>2019-05-30T14:43:26Z</time>
      </trkpt>
      <trkpt lat="42.404560" lon="1.795606">
        <ele>1456.487</ele>
        <time>2019-05-30T14:43:32Z</time>
      </trkpt>
      <trkpt lat="42.404575" lon="1.795562">
        <ele>1456.232</ele>
        <time>2019-05-30T14:43:34Z</time>
      </trkpt>
      <trkpt lat="42.404544" lon="1.795530">
        <ele>1456.251</ele>
        <time>2019-05-30T14:43:37Z</time>
      </trkpt>
      <trkpt lat="42.404439" lon="1.795527">
        <ele>1455.801</ele>
        <time>2019-05-30T14:43:42Z</time>
      </trkpt>
      <trkpt lat="42.404386" lon="1.795563">
        <ele>1455.411</ele>
        <time>2019-05-30T14:43:45Z</time>
      </trkpt>
      <trkpt lat="42.404366" lon="1.795596">
        <ele>1455.008</ele>
        <time>2019-05-30T14:43:47Z</time>
      </trkpt>
      <trkpt lat="42.404360" lon="1.795602">
        <ele>1455.298</ele>
        <time>2019-05-30T14:43:49Z</time>
      </trkpt>
      <trkpt lat="42.404549" lon="1.795598">
        <ele>1456.692</ele>
        <time>2019-05-30T14:44:31Z</time>
      </trkpt>
      <trkpt lat="42.404495" lon="1.795703">
        <ele>1455.888</ele>
        <time>2019-05-30T14:44:35Z</time>
      </trkpt>
      <trkpt lat="42.404484" lon="1.795735">
        <ele>1455.826</ele>
        <time>2019-05-30T14:44:36Z</time>
      </trkpt>
      <trkpt lat="42.404452" lon="1.795865">
        <ele>1455.439</ele>
        <time>2019-05-30T14:44:40Z</time>
      </trkpt>
      <trkpt lat="42.404431" lon="1.795910">
        <ele>1454.813</ele>
        <time>2019-05-30T14:44:42Z</time>
      </trkpt>
      <trkpt lat="42.404410" lon="1.795969">
        <ele>1454.211</ele>
        <time>2019-05-30T14:44:44Z</time>
      </trkpt>
      <trkpt lat="42.404397" lon="1.796048">
        <ele>1454.096</ele>
        <time>2019-05-30T14:44:46Z</time>
      </trkpt>
      <trkpt lat="42.404377" lon="1.796153">
        <ele>1452.618</ele>
        <time>2019-05-30T14:44:49Z</time>
      </trkpt>
      <trkpt lat="42.404363" lon="1.796218">
        <ele>1451.098</ele>
        <time>2019-05-30T14:44:51Z</time>
      </trkpt>
      <trkpt lat="42.404351" lon="1.796250">
        <ele>1450.617</ele>
        <time>2019-05-30T14:44:52Z</time>
      </trkpt>
      <trkpt lat="42.404317" lon="1.796301">
        <ele>1449.808</ele>
        <time>2019-05-30T14:44:54Z</time>
      </trkpt>
      <trkpt lat="42.404264" lon="1.796379">
        <ele>1449.474</ele>
        <time>2019-05-30T14:44:57Z</time>
      </trkpt>
      <trkpt lat="42.404244" lon="1.796407">
        <ele>1448.638</ele>
        <time>2019-05-30T14:44:58Z</time>
      </trkpt>
      <trkpt lat="42.404201" lon="1.796463">
        <ele>1447.624</ele>
        <time>2019-05-30T14:45:00Z</time>
      </trkpt>
      <trkpt lat="42.404111" lon="1.796544">
        <ele>1447.442</ele>
        <time>2019-05-30T14:45:04Z</time>
      </trkpt>
      <trkpt lat="42.403955" lon="1.796692">
        <ele>1446.235</ele>
        <time>2019-05-30T14:45:10Z</time>
      </trkpt>
      <trkpt lat="42.403763" lon="1.796881">
        <ele>1445.069</ele>
        <time>2019-05-30T14:45:17Z</time>
      </trkpt>
      <trkpt lat="42.403686" lon="1.796959">
        <ele>1444.047</ele>
        <time>2019-05-30T14:45:20Z</time>
      </trkpt>
      <trkpt lat="42.403615" lon="1.797035">
        <ele>1443.012</ele>
        <time>2019-05-30T14:45:23Z</time>
      </trkpt>
      <trkpt lat="42.403564" lon="1.797083">
        <ele>1443.059</ele>
        <time>2019-05-30T14:45:25Z</time>
      </trkpt>
      <trkpt lat="42.403472" lon="1.797175">
        <ele>1442.203</ele>
        <time>2019-05-30T14:45:28Z</time>
      </trkpt>
      <trkpt lat="42.403441" lon="1.797209">
        <ele>1441.823</ele>
        <time>2019-05-30T14:45:29Z</time>
      </trkpt>
      <trkpt lat="42.403222" lon="1.797416">
        <ele>1440.208</ele>
        <time>2019-05-30T14:45:35Z</time>
      </trkpt>
      <trkpt lat="42.403180" lon="1.797444">
        <ele>1440.268</ele>
        <time>2019-05-30T14:45:36Z</time>
      </trkpt>
      <trkpt lat="42.403031" lon="1.797558">
        <ele>1439.232</ele>
        <time>2019-05-30T14:45:40Z</time>
      </trkpt>
      <trkpt lat="42.402840" lon="1.797731">
        <ele>1438.678</ele>
        <time>2019-05-30T14:45:46Z</time>
      </trkpt>
      <trkpt lat="42.402777" lon="1.797774">
        <ele>1438.296</ele>
        <time>2019-05-30T14:45:48Z</time>
      </trkpt>
      <trkpt lat="42.402635" lon="1.797841">
        <ele>1437.079</ele>
        <time>2019-05-30T14:45:53Z</time>
      </trkpt>
      <trkpt lat="42.402535" lon="1.797874">
        <ele>1436.073</ele>
        <time>2019-05-30T14:45:57Z</time>
      </trkpt>
      <trkpt lat="42.402483" lon="1.797889">
        <ele>1434.881</ele>
        <time>2019-05-30T14:45:59Z</time>
      </trkpt>
      <trkpt lat="42.402457" lon="1.797890">
        <ele>1434.816</ele>
        <time>2019-05-30T14:46:00Z</time>
      </trkpt>
      <trkpt lat="42.402384" lon="1.797890">
        <ele>1433.422</ele>
        <time>2019-05-30T14:46:03Z</time>
      </trkpt>
      <trkpt lat="42.402280" lon="1.797894">
        <ele>1432.662</ele>
        <time>2019-05-30T14:46:07Z</time>
      </trkpt>
      <trkpt lat="42.402221" lon="1.797892">
        <ele>1431.808</ele>
        <time>2019-05-30T14:46:09Z</time>
      </trkpt>
      <trkpt lat="42.402191" lon="1.797881">
        <ele>1430.608</ele>
        <time>2019-05-30T14:46:10Z</time>
      </trkpt>
      <trkpt lat="42.402129" lon="1.797857">
        <ele>1430.065</ele>
        <time>2019-05-30T14:46:12Z</time>
      </trkpt>
      <trkpt lat="42.402064" lon="1.797844">
        <ele>1429.649</ele>
        <time>2019-05-30T14:46:14Z</time>
      </trkpt>
      <trkpt lat="42.401998" lon="1.797833">
        <ele>1428.055</ele>
        <time>2019-05-30T14:46:16Z</time>
      </trkpt>
      <trkpt lat="42.401900" lon="1.797825">
        <ele>1427.893</ele>
        <time>2019-05-30T14:46:19Z</time>
      </trkpt>
      <trkpt lat="42.401801" lon="1.797815">
        <ele>1426.886</ele>
        <time>2019-05-30T14:46:22Z</time>
      </trkpt>
      <trkpt lat="42.401702" lon="1.797791">
        <ele>1426.250</ele>
        <time>2019-05-30T14:46:25Z</time>
      </trkpt>
      <trkpt lat="42.401667" lon="1.797786">
        <ele>1425.658</ele>
        <time>2019-05-30T14:46:26Z</time>
      </trkpt>
      <trkpt lat="42.401496" lon="1.797793">
        <ele>1424.623</ele>
        <time>2019-05-30T14:46:31Z</time>
      </trkpt>
      <trkpt lat="42.401462" lon="1.797794">
        <ele>1424.094</ele>
        <time>2019-05-30T14:46:32Z</time>
      </trkpt>
      <trkpt lat="42.401253" lon="1.797817">
        <ele>1422.857</ele>
        <time>2019-05-30T14:46:38Z</time>
      </trkpt>
      <trkpt lat="42.401182" lon="1.797846">
        <ele>1422.022</ele>
        <time>2019-05-30T14:46:40Z</time>
      </trkpt>
      <trkpt lat="42.401147" lon="1.797860">
        <ele>1421.608</ele>
        <time>2019-05-30T14:46:41Z</time>
      </trkpt>
      <trkpt lat="42.401027" lon="1.797948">
        <ele>1420.662</ele>
        <time>2019-05-30T14:46:45Z</time>
      </trkpt>
      <trkpt lat="42.400973" lon="1.798005">
        <ele>1419.816</ele>
        <time>2019-05-30T14:46:47Z</time>
      </trkpt>
      <trkpt lat="42.400947" lon="1.798036">
        <ele>1419.482</ele>
        <time>2019-05-30T14:46:48Z</time>
      </trkpt>
      <trkpt lat="42.400866" lon="1.798132">
        <ele>1418.060</ele>
        <time>2019-05-30T14:46:51Z</time>
      </trkpt>
      <trkpt lat="42.400805" lon="1.798182">
        <ele>1416.893</ele>
        <time>2019-05-30T14:46:53Z</time>
      </trkpt>
      <trkpt lat="42.400775" lon="1.798208">
        <ele>1416.647</ele>
        <time>2019-05-30T14:46:54Z</time>
      </trkpt>
      <trkpt lat="42.400592" lon="1.798384">
        <ele>1416.085</ele>
        <time>2019-05-30T14:47:01Z</time>
      </trkpt>
      <trkpt lat="42.400564" lon="1.798406">
        <ele>1415.860</ele>
        <time>2019-05-30T14:47:02Z</time>
      </trkpt>
      <trkpt lat="42.400440" lon="1.798487">
        <ele>1414.618</ele>
        <time>2019-05-30T14:47:06Z</time>
      </trkpt>
      <trkpt lat="42.400410" lon="1.798501">
        <ele>1414.298</ele>
        <time>2019-05-30T14:47:07Z</time>
      </trkpt>
      <trkpt lat="42.400290" lon="1.798572">
        <ele>1413.417</ele>
        <time>2019-05-30T14:47:11Z</time>
      </trkpt>
      <trkpt lat="42.400231" lon="1.798607">
        <ele>1413.008</ele>
        <time>2019-05-30T14:47:13Z</time>
      </trkpt>
      <trkpt lat="42.400132" lon="1.798644">
        <ele>1412.414</ele>
        <time>2019-05-30T14:47:17Z</time>
      </trkpt>
      <trkpt lat="42.400106" lon="1.798650">
        <ele>1412.248</ele>
        <time>2019-05-30T14:47:18Z</time>
      </trkpt>
      <trkpt lat="42.400044" lon="1.798665">
        <ele>1411.464</ele>
        <time>2019-05-30T14:47:20Z</time>
      </trkpt>
      <trkpt lat="42.400011" lon="1.798670">
        <ele>1411.022</ele>
        <time>2019-05-30T14:47:21Z</time>
      </trkpt>
      <trkpt lat="42.399889" lon="1.798675">
        <ele>1409.625</ele>
        <time>2019-05-30T14:47:25Z</time>
      </trkpt>
      <trkpt lat="42.399857" lon="1.798668">
        <ele>1409.419</ele>
        <time>2019-05-30T14:47:26Z</time>
      </trkpt>
      <trkpt lat="42.399797" lon="1.798633">
        <ele>1408.447</ele>
        <time>2019-05-30T14:47:28Z</time>
      </trkpt>
      <trkpt lat="42.399722" lon="1.798557">
        <ele>1407.222</ele>
        <time>2019-05-30T14:47:31Z</time>
      </trkpt>
      <trkpt lat="42.399685" lon="1.798492">
        <ele>1406.284</ele>
        <time>2019-05-30T14:47:33Z</time>
      </trkpt>
      <trkpt lat="42.399602" lon="1.798383">
        <ele>1406.407</ele>
        <time>2019-05-30T14:47:37Z</time>
      </trkpt>
      <trkpt lat="42.399521" lon="1.798302">
        <ele>1404.417</ele>
        <time>2019-05-30T14:47:40Z</time>
      </trkpt>
      <trkpt lat="42.399458" lon="1.798276">
        <ele>1403.408</ele>
        <time>2019-05-30T14:47:42Z</time>
      </trkpt>
      <trkpt lat="42.399425" lon="1.798265">
        <ele>1403.441</ele>
        <time>2019-05-30T14:47:43Z</time>
      </trkpt>
      <trkpt lat="42.399284" lon="1.798213">
        <ele>1402.465</ele>
        <time>2019-05-30T14:47:48Z</time>
      </trkpt>
      <trkpt lat="42.399264" lon="1.798197">
        <ele>1402.231</ele>
        <time>2019-05-30T14:47:49Z</time>
      </trkpt>
      <trkpt lat="42.399173" lon="1.798136">
        <ele>1401.269</ele>
        <time>2019-05-30T14:47:53Z</time>
      </trkpt>
      <trkpt lat="42.399131" lon="1.798107">
        <ele>1400.682</ele>
        <time>2019-05-30T14:47:55Z</time>
      </trkpt>
      <trkpt lat="42.399090" lon="1.798078">
        <ele>1400.016</ele>
        <time>2019-05-30T14:47:57Z</time>
      </trkpt>
      <trkpt lat="42.399029" lon="1.798027">
        <ele>1398.674</ele>
        <time>2019-05-30T14:48:00Z</time>
      </trkpt>
      <trkpt lat="42.398958" lon="1.797980">
        <ele>1397.099</ele>
        <time>2019-05-30T14:48:03Z</time>
      </trkpt>
      <trkpt lat="42.398902" lon="1.797979">
        <ele>1396.076</ele>
        <time>2019-05-30T14:48:05Z</time>
      </trkpt>
      <trkpt lat="42.398856" lon="1.798012">
        <ele>1395.090</ele>
        <time>2019-05-30T14:48:07Z</time>
      </trkpt>
      <trkpt lat="42.398840" lon="1.798038">
        <ele>1394.619</ele>
        <time>2019-05-30T14:48:08Z</time>
      </trkpt>
      <trkpt lat="42.398790" lon="1.798165">
        <ele>1393.408</ele>
        <time>2019-05-30T14:48:12Z</time>
      </trkpt>
      <trkpt lat="42.398781" lon="1.798265">
        <ele>1392.010</ele>
        <time>2019-05-30T14:48:15Z</time>
      </trkpt>
      <trkpt lat="42.398788" lon="1.798376">
        <ele>1391.064</ele>
        <time>2019-05-30T14:48:18Z</time>
      </trkpt>
      <trkpt lat="42.398802" lon="1.798448">
        <ele>1390.090</ele>
        <time>2019-05-30T14:48:20Z</time>
      </trkpt>
      <trkpt lat="42.398810" lon="1.798518">
        <ele>1388.828</ele>
        <time>2019-05-30T14:48:22Z</time>
      </trkpt>
      <trkpt lat="42.398818" lon="1.798588">
        <ele>1388.681</ele>
        <time>2019-05-30T14:48:24Z</time>
      </trkpt>
      <trkpt lat="42.398835" lon="1.798721">
        <ele>1387.685</ele>
        <time>2019-05-30T14:48:28Z</time>
      </trkpt>
      <trkpt lat="42.398852" lon="1.798787">
        <ele>1387.073</ele>
        <time>2019-05-30T14:48:30Z</time>
      </trkpt>
      <trkpt lat="42.398866" lon="1.798852">
        <ele>1386.418</ele>
        <time>2019-05-30T14:48:32Z</time>
      </trkpt>
      <trkpt lat="42.398899" lon="1.798984">
        <ele>1385.021</ele>
        <time>2019-05-30T14:48:36Z</time>
      </trkpt>
      <trkpt lat="42.398971" lon="1.799145">
        <ele>1384.041</ele>
        <time>2019-05-30T14:48:42Z</time>
      </trkpt>
      <trkpt lat="42.398982" lon="1.799168">
        <ele>1383.805</ele>
        <time>2019-05-30T14:48:43Z</time>
      </trkpt>
      <trkpt lat="42.399041" lon="1.799240">
        <ele>1382.808</ele>
        <time>2019-05-30T14:48:46Z</time>
      </trkpt>
      <trkpt lat="42.399086" lon="1.799282">
        <ele>1381.815</ele>
        <time>2019-05-30T14:48:48Z</time>
      </trkpt>
      <trkpt lat="42.399209" lon="1.799457">
        <ele>1381.499</ele>
        <time>2019-05-30T14:48:54Z</time>
      </trkpt>
      <trkpt lat="42.399228" lon="1.799537">
        <ele>1380.645</ele>
        <time>2019-05-30T14:48:56Z</time>
      </trkpt>
      <trkpt lat="42.399254" lon="1.799639">
        <ele>1380.283</ele>
        <time>2019-05-30T14:48:59Z</time>
      </trkpt>
      <trkpt lat="42.399282" lon="1.799719">
        <ele>1379.456</ele>
        <time>2019-05-30T14:49:01Z</time>
      </trkpt>
      <trkpt lat="42.399302" lon="1.799846">
        <ele>1378.640</ele>
        <time>2019-05-30T14:49:04Z</time>
      </trkpt>
      <trkpt lat="42.399300" lon="1.799938">
        <ele>1378.478</ele>
        <time>2019-05-30T14:49:06Z</time>
      </trkpt>
      <trkpt lat="42.399298" lon="1.800076">
        <ele>1377.063</ele>
        <time>2019-05-30T14:49:09Z</time>
      </trkpt>
      <trkpt lat="42.399301" lon="1.800118">
        <ele>1376.692</ele>
        <time>2019-05-30T14:49:10Z</time>
      </trkpt>
      <trkpt lat="42.399293" lon="1.800236">
        <ele>1375.673</ele>
        <time>2019-05-30T14:49:13Z</time>
      </trkpt>
      <trkpt lat="42.399273" lon="1.800358">
        <ele>1374.620</ele>
        <time>2019-05-30T14:49:16Z</time>
      </trkpt>
      <trkpt lat="42.399269" lon="1.800487">
        <ele>1373.008</ele>
        <time>2019-05-30T14:49:19Z</time>
      </trkpt>
      <trkpt lat="42.399279" lon="1.800559">
        <ele>1372.212</ele>
        <time>2019-05-30T14:49:21Z</time>
      </trkpt>
      <trkpt lat="42.399285" lon="1.800622">
        <ele>1371.876</ele>
        <time>2019-05-30T14:49:23Z</time>
      </trkpt>
      <trkpt lat="42.399251" lon="1.800676">
        <ele>1370.872</ele>
        <time>2019-05-30T14:49:25Z</time>
      </trkpt>
      <trkpt lat="42.399176" lon="1.800664">
        <ele>1369.620</ele>
        <time>2019-05-30T14:49:28Z</time>
      </trkpt>
      <trkpt lat="42.399105" lon="1.800586">
        <ele>1368.283</ele>
        <time>2019-05-30T14:49:31Z</time>
      </trkpt>
      <trkpt lat="42.399060" lon="1.800519">
        <ele>1367.457</ele>
        <time>2019-05-30T14:49:33Z</time>
      </trkpt>
      <trkpt lat="42.399036" lon="1.800490">
        <ele>1367.235</ele>
        <time>2019-05-30T14:49:34Z</time>
      </trkpt>
      <trkpt lat="42.398985" lon="1.800441">
        <ele>1366.070</ele>
        <time>2019-05-30T14:49:36Z</time>
      </trkpt>
      <trkpt lat="42.398932" lon="1.800394">
        <ele>1364.898</ele>
        <time>2019-05-30T14:49:38Z</time>
      </trkpt>
      <trkpt lat="42.398905" lon="1.800375">
        <ele>1363.615</ele>
        <time>2019-05-30T14:49:39Z</time>
      </trkpt>
      <trkpt lat="42.398878" lon="1.800358">
        <ele>1363.426</ele>
        <time>2019-05-30T14:49:40Z</time>
      </trkpt>
      <trkpt lat="42.398800" lon="1.800313">
        <ele>1359.608</ele>
        <time>2019-05-30T14:49:43Z</time>
      </trkpt>
      <trkpt lat="42.398724" lon="1.800277">
        <ele>1361.492</ele>
        <time>2019-05-30T14:49:46Z</time>
      </trkpt>
      <trkpt lat="42.398689" lon="1.800258">
        <ele>1360.436</ele>
        <time>2019-05-30T14:49:47Z</time>
      </trkpt>
      <trkpt lat="42.398614" lon="1.800209">
        <ele>1359.252</ele>
        <time>2019-05-30T14:49:49Z</time>
      </trkpt>
      <trkpt lat="42.398580" lon="1.800170">
        <ele>1358.420</ele>
        <time>2019-05-30T14:49:50Z</time>
      </trkpt>
      <trkpt lat="42.398547" lon="1.800133">
        <ele>1357.893</ele>
        <time>2019-05-30T14:49:51Z</time>
      </trkpt>
      <trkpt lat="42.398513" lon="1.800101">
        <ele>1357.487</ele>
        <time>2019-05-30T14:49:52Z</time>
      </trkpt>
      <trkpt lat="42.398435" lon="1.800074">
        <ele>1356.865</ele>
        <time>2019-05-30T14:49:54Z</time>
      </trkpt>
      <trkpt lat="42.398391" lon="1.800071">
        <ele>1356.240</ele>
        <time>2019-05-30T14:49:55Z</time>
      </trkpt>
      <trkpt lat="42.398349" lon="1.800066">
        <ele>1355.058</ele>
        <time>2019-05-30T14:49:56Z</time>
      </trkpt>
      <trkpt lat="42.398268" lon="1.800052">
        <ele>1354.052</ele>
        <time>2019-05-30T14:49:58Z</time>
      </trkpt>
      <trkpt lat="42.398185" lon="1.800019">
        <ele>1353.417</ele>
        <time>2019-05-30T14:50:00Z</time>
      </trkpt>
      <trkpt lat="42.398151" lon="1.799987">
        <ele>1352.808</ele>
        <time>2019-05-30T14:50:01Z</time>
      </trkpt>
      <trkpt lat="42.398091" lon="1.799908">
        <ele>1351.488</ele>
        <time>2019-05-30T14:50:03Z</time>
      </trkpt>
      <trkpt lat="42.398065" lon="1.799862">
        <ele>1351.612</ele>
        <time>2019-05-30T14:50:04Z</time>
      </trkpt>
      <trkpt lat="42.398006" lon="1.799778">
        <ele>1351.498</ele>
        <time>2019-05-30T14:50:06Z</time>
      </trkpt>
      <trkpt lat="42.397974" lon="1.799737">
        <ele>1350.236</ele>
        <time>2019-05-30T14:50:07Z</time>
      </trkpt>
      <trkpt lat="42.397939" lon="1.799698">
        <ele>1349.429</ele>
        <time>2019-05-30T14:50:08Z</time>
      </trkpt>
      <trkpt lat="42.397894" lon="1.799667">
        <ele>1348.683</ele>
        <time>2019-05-30T14:50:09Z</time>
      </trkpt>
      <trkpt lat="42.397801" lon="1.799649">
        <ele>1348.261</ele>
        <time>2019-05-30T14:50:11Z</time>
      </trkpt>
      <trkpt lat="42.397759" lon="1.799645">
        <ele>1348.286</ele>
        <time>2019-05-30T14:50:12Z</time>
      </trkpt>
      <trkpt lat="42.397641" lon="1.799625">
        <ele>1348.064</ele>
        <time>2019-05-30T14:50:16Z</time>
      </trkpt>
      <trkpt lat="42.397591" lon="1.799720">
        <ele>1347.206</ele>
        <time>2019-05-30T14:50:19Z</time>
      </trkpt>
      <trkpt lat="42.397619" lon="1.799807">
        <ele>1346.016</ele>
        <time>2019-05-30T14:50:21Z</time>
      </trkpt>
      <trkpt lat="42.397643" lon="1.799840">
        <ele>1345.408</ele>
        <time>2019-05-30T14:50:22Z</time>
      </trkpt>
      <trkpt lat="42.397668" lon="1.799872">
        <ele>1345.099</ele>
        <time>2019-05-30T14:50:23Z</time>
      </trkpt>
      <trkpt lat="42.397713" lon="1.799926">
        <ele>1343.873</ele>
        <time>2019-05-30T14:50:25Z</time>
      </trkpt>
      <trkpt lat="42.397783" lon="1.800005">
        <ele>1343.459</ele>
        <time>2019-05-30T14:50:28Z</time>
      </trkpt>
      <trkpt lat="42.397831" lon="1.800103">
        <ele>1342.687</ele>
        <time>2019-05-30T14:50:31Z</time>
      </trkpt>
      <trkpt lat="42.397870" lon="1.800180">
        <ele>1341.850</ele>
        <time>2019-05-30T14:50:33Z</time>
      </trkpt>
      <trkpt lat="42.397919" lon="1.800257">
        <ele>1341.444</ele>
        <time>2019-05-30T14:50:35Z</time>
      </trkpt>
      <trkpt lat="42.397942" lon="1.800293">
        <ele>1341.082</ele>
        <time>2019-05-30T14:50:36Z</time>
      </trkpt>
      <trkpt lat="42.398001" lon="1.800390">
        <ele>1340.297</ele>
        <time>2019-05-30T14:50:39Z</time>
      </trkpt>
      <trkpt lat="42.398020" lon="1.800427">
        <ele>1339.896</ele>
        <time>2019-05-30T14:50:40Z</time>
      </trkpt>
      <trkpt lat="42.398039" lon="1.800460">
        <ele>1339.031</ele>
        <time>2019-05-30T14:50:41Z</time>
      </trkpt>
      <trkpt lat="42.398109" lon="1.800661">
        <ele>1339.224</ele>
        <time>2019-05-30T14:50:46Z</time>
      </trkpt>
      <trkpt lat="42.398116" lon="1.800797">
        <ele>1337.808</ele>
        <time>2019-05-30T14:50:49Z</time>
      </trkpt>
      <trkpt lat="42.398114" lon="1.800878">
        <ele>1336.692</ele>
        <time>2019-05-30T14:50:51Z</time>
      </trkpt>
      <trkpt lat="42.398112" lon="1.800921">
        <ele>1336.426</ele>
        <time>2019-05-30T14:50:52Z</time>
      </trkpt>
      <trkpt lat="42.398079" lon="1.800997">
        <ele>1335.422</ele>
        <time>2019-05-30T14:50:54Z</time>
      </trkpt>
      <trkpt lat="42.398053" lon="1.801016">
        <ele>1334.880</ele>
        <time>2019-05-30T14:50:55Z</time>
      </trkpt>
      <trkpt lat="42.397992" lon="1.800988">
        <ele>1334.473</ele>
        <time>2019-05-30T14:50:58Z</time>
      </trkpt>
      <trkpt lat="42.397975" lon="1.800970">
        <ele>1334.057</ele>
        <time>2019-05-30T14:50:59Z</time>
      </trkpt>
      <trkpt lat="42.397905" lon="1.800889">
        <ele>1333.055</ele>
        <time>2019-05-30T14:51:02Z</time>
      </trkpt>
      <trkpt lat="42.397876" lon="1.800863">
        <ele>1332.840</ele>
        <time>2019-05-30T14:51:03Z</time>
      </trkpt>
      <trkpt lat="42.397795" lon="1.800802">
        <ele>1332.095</ele>
        <time>2019-05-30T14:51:06Z</time>
      </trkpt>
      <trkpt lat="42.397714" lon="1.800748">
        <ele>1332.449</ele>
        <time>2019-05-30T14:51:09Z</time>
      </trkpt>
      <trkpt lat="42.397629" lon="1.800725">
        <ele>1331.423</ele>
        <time>2019-05-30T14:51:19Z</time>
      </trkpt>
      <trkpt lat="42.397605" lon="1.800717">
        <ele>1330.208</ele>
        <time>2019-05-30T14:51:20Z</time>
      </trkpt>
      <trkpt lat="42.397577" lon="1.800704">
        <ele>1331.432</ele>
        <time>2019-05-30T14:51:21Z</time>
      </trkpt>
      <trkpt lat="42.397353" lon="1.800634">
        <ele>1330.616</ele>
        <time>2019-05-30T14:51:26Z</time>
      </trkpt>
      <trkpt lat="42.397295" lon="1.800615">
        <ele>1329.412</ele>
        <time>2019-05-30T14:51:27Z</time>
      </trkpt>
      <trkpt lat="42.397239" lon="1.800594">
        <ele>1328.060</ele>
        <time>2019-05-30T14:51:28Z</time>
      </trkpt>
      <trkpt lat="42.397086" lon="1.800501">
        <ele>1326.863</ele>
        <time>2019-05-30T14:51:31Z</time>
      </trkpt>
      <trkpt lat="42.397035" lon="1.800456">
        <ele>1326.217</ele>
        <time>2019-05-30T14:51:32Z</time>
      </trkpt>
      <trkpt lat="42.396936" lon="1.800354">
        <ele>1325.455</ele>
        <time>2019-05-30T14:51:34Z</time>
      </trkpt>
      <trkpt lat="42.396854" lon="1.800246">
        <ele>1324.450</ele>
        <time>2019-05-30T14:51:36Z</time>
      </trkpt>
      <trkpt lat="42.396816" lon="1.800178">
        <ele>1324.279</ele>
        <time>2019-05-30T14:51:37Z</time>
      </trkpt>
      <trkpt lat="42.396777" lon="1.799929">
        <ele>1322.205</ele>
        <time>2019-05-30T14:51:40Z</time>
      </trkpt>
      <trkpt lat="42.396785" lon="1.799729">
        <ele>1321.225</ele>
        <time>2019-05-30T14:51:42Z</time>
      </trkpt>
      <trkpt lat="42.396793" lon="1.799615">
        <ele>1320.408</ele>
        <time>2019-05-30T14:51:43Z</time>
      </trkpt>
      <trkpt lat="42.396799" lon="1.799499">
        <ele>1319.640</ele>
        <time>2019-05-30T14:51:44Z</time>
      </trkpt>
      <trkpt lat="42.396806" lon="1.799245">
        <ele>1317.874</ele>
        <time>2019-05-30T14:51:46Z</time>
      </trkpt>
      <trkpt lat="42.396817" lon="1.798965">
        <ele>1316.060</ele>
        <time>2019-05-30T14:51:48Z</time>
      </trkpt>
      <trkpt lat="42.396829" lon="1.798819">
        <ele>1314.898</ele>
        <time>2019-05-30T14:51:49Z</time>
      </trkpt>
      <trkpt lat="42.396847" lon="1.798669">
        <ele>1313.831</ele>
        <time>2019-05-30T14:51:50Z</time>
      </trkpt>
      <trkpt lat="42.396875" lon="1.798531">
        <ele>1312.685</ele>
        <time>2019-05-30T14:51:51Z</time>
      </trkpt>
      <trkpt lat="42.396921" lon="1.798252">
        <ele>1311.253</ele>
        <time>2019-05-30T14:51:53Z</time>
      </trkpt>
      <trkpt lat="42.396935" lon="1.798108">
        <ele>1310.048</ele>
        <time>2019-05-30T14:51:54Z</time>
      </trkpt>
      <trkpt lat="42.396948" lon="1.797963">
        <ele>1308.661</ele>
        <time>2019-05-30T14:51:55Z</time>
      </trkpt>
      <trkpt lat="42.396959" lon="1.797694">
        <ele>1307.621</ele>
        <time>2019-05-30T14:51:57Z</time>
      </trkpt>
      <trkpt lat="42.396965" lon="1.797567">
        <ele>1307.613</ele>
        <time>2019-05-30T14:51:58Z</time>
      </trkpt>
      <trkpt lat="42.396999" lon="1.797180">
        <ele>1306.208</ele>
        <time>2019-05-30T14:52:01Z</time>
      </trkpt>
      <trkpt lat="42.397024" lon="1.796912">
        <ele>1304.429</ele>
        <time>2019-05-30T14:52:03Z</time>
      </trkpt>
      <trkpt lat="42.397030" lon="1.796774">
        <ele>1302.633</ele>
        <time>2019-05-30T14:52:04Z</time>
      </trkpt>
      <trkpt lat="42.397038" lon="1.796638">
        <ele>1302.079</ele>
        <time>2019-05-30T14:52:05Z</time>
      </trkpt>
      <trkpt lat="42.397048" lon="1.796236">
        <ele>1301.437</ele>
        <time>2019-05-30T14:52:08Z</time>
      </trkpt>
      <trkpt lat="42.397034" lon="1.795984">
        <ele>1300.020</ele>
        <time>2019-05-30T14:52:10Z</time>
      </trkpt>
      <trkpt lat="42.397031" lon="1.795728">
        <ele>1298.684</ele>
        <time>2019-05-30T14:52:12Z</time>
      </trkpt>
      <trkpt lat="42.397040" lon="1.795490">
        <ele>1297.482</ele>
        <time>2019-05-30T14:52:14Z</time>
      </trkpt>
      <trkpt lat="42.397046" lon="1.795389">
        <ele>1296.677</ele>
        <time>2019-05-30T14:52:15Z</time>
      </trkpt>
      <trkpt lat="42.397053" lon="1.795301">
        <ele>1296.251</ele>
        <time>2019-05-30T14:52:16Z</time>
      </trkpt>
      <trkpt lat="42.397057" lon="1.795136">
        <ele>1294.801</ele>
        <time>2019-05-30T14:52:18Z</time>
      </trkpt>
      <trkpt lat="42.397037" lon="1.795080">
        <ele>1294.411</ele>
        <time>2019-05-30T14:52:19Z</time>
      </trkpt>
      <trkpt lat="42.396940" lon="1.795039">
        <ele>1293.608</ele>
        <time>2019-05-30T14:52:21Z</time>
      </trkpt>
      <trkpt lat="42.396785" lon="1.795178">
        <ele>1292.038</ele>
        <time>2019-05-30T14:52:24Z</time>
      </trkpt>
      <trkpt lat="42.396727" lon="1.795251">
        <ele>1290.892</ele>
        <time>2019-05-30T14:52:25Z</time>
      </trkpt>
      <trkpt lat="42.396669" lon="1.795334">
        <ele>1289.658</ele>
        <time>2019-05-30T14:52:26Z</time>
      </trkpt>
      <trkpt lat="42.396608" lon="1.795425">
        <ele>1288.626</ele>
        <time>2019-05-30T14:52:27Z</time>
      </trkpt>
      <trkpt lat="42.396540" lon="1.795519">
        <ele>1286.479</ele>
        <time>2019-05-30T14:52:28Z</time>
      </trkpt>
      <trkpt lat="42.396469" lon="1.795614">
        <ele>1285.073</ele>
        <time>2019-05-30T14:52:29Z</time>
      </trkpt>
      <trkpt lat="42.396395" lon="1.795709">
        <ele>1283.241</ele>
        <time>2019-05-30T14:52:30Z</time>
      </trkpt>
      <trkpt lat="42.396322" lon="1.795810">
        <ele>1281.836</ele>
        <time>2019-05-30T14:52:31Z</time>
      </trkpt>
      <trkpt lat="42.396168" lon="1.796013">
        <ele>1280.233</ele>
        <time>2019-05-30T14:52:33Z</time>
      </trkpt>
      <trkpt lat="42.396086" lon="1.796117">
        <ele>1279.823</ele>
        <time>2019-05-30T14:52:34Z</time>
      </trkpt>
      <trkpt lat="42.396003" lon="1.796227">
        <ele>1279.015</ele>
        <time>2019-05-30T14:52:35Z</time>
      </trkpt>
      <trkpt lat="42.395918" lon="1.796339">
        <ele>1277.808</ele>
        <time>2019-05-30T14:52:36Z</time>
      </trkpt>
      <trkpt lat="42.395832" lon="1.796454">
        <ele>1276.246</ele>
        <time>2019-05-30T14:52:37Z</time>
      </trkpt>
      <trkpt lat="42.395742" lon="1.796568">
        <ele>1274.610</ele>
        <time>2019-05-30T14:52:38Z</time>
      </trkpt>
      <trkpt lat="42.395652" lon="1.796681">
        <ele>1273.416</ele>
        <time>2019-05-30T14:52:39Z</time>
      </trkpt>
      <trkpt lat="42.395562" lon="1.796794">
        <ele>1272.494</ele>
        <time>2019-05-30T14:52:40Z</time>
      </trkpt>
      <trkpt lat="42.395472" lon="1.796902">
        <ele>1271.417</ele>
        <time>2019-05-30T14:52:41Z</time>
      </trkpt>
      <trkpt lat="42.395296" lon="1.797108">
        <ele>1270.231</ele>
        <time>2019-05-30T14:52:43Z</time>
      </trkpt>
      <trkpt lat="42.395029" lon="1.797393">
        <ele>1268.829</ele>
        <time>2019-05-30T14:52:46Z</time>
      </trkpt>
      <trkpt lat="42.394699" lon="1.797712">
        <ele>1269.074</ele>
        <time>2019-05-30T14:52:50Z</time>
      </trkpt>
      <trkpt lat="42.394330" lon="1.798028">
        <ele>1269.669</ele>
        <time>2019-05-30T14:52:55Z</time>
      </trkpt>
      <trkpt lat="42.393820" lon="1.798371">
        <ele>1269.004</ele>
        <time>2019-05-30T14:53:02Z</time>
      </trkpt>
      <trkpt lat="42.393520" lon="1.798513">
        <ele>1268.424</ele>
        <time>2019-05-30T14:53:06Z</time>
      </trkpt>
      <trkpt lat="42.393356" lon="1.798542">
        <ele>1267.608</ele>
        <time>2019-05-30T14:53:08Z</time>
      </trkpt>
      <trkpt lat="42.393276" lon="1.798543">
        <ele>1267.039</ele>
        <time>2019-05-30T14:53:09Z</time>
      </trkpt>
      <trkpt lat="42.392786" lon="1.798566">
        <ele>1266.663</ele>
        <time>2019-05-30T14:53:15Z</time>
      </trkpt>
      <trkpt lat="42.392704" lon="1.798584">
        <ele>1266.089</ele>
        <time>2019-05-30T14:53:16Z</time>
      </trkpt>
      <trkpt lat="42.392296" lon="1.798699">
        <ele>1265.817</ele>
        <time>2019-05-30T14:53:21Z</time>
      </trkpt>
      <trkpt lat="42.391937" lon="1.798744">
        <ele>1266.660</ele>
        <time>2019-05-30T14:53:27Z</time>
      </trkpt>
      <trkpt lat="42.391687" lon="1.798764">
        <ele>1267.244</ele>
        <time>2019-05-30T14:53:31Z</time>
      </trkpt>
      <trkpt lat="42.391571" lon="1.798769">
        <ele>1267.482</ele>
        <time>2019-05-30T14:53:33Z</time>
      </trkpt>
      <trkpt lat="42.391116" lon="1.798757">
        <ele>1267.287</ele>
        <time>2019-05-30T14:53:40Z</time>
      </trkpt>
      <trkpt lat="42.390695" lon="1.798795">
        <ele>1266.287</ele>
        <time>2019-05-30T14:53:46Z</time>
      </trkpt>
      <trkpt lat="42.390617" lon="1.798797">
        <ele>1265.642</ele>
        <time>2019-05-30T14:53:47Z</time>
      </trkpt>
      <trkpt lat="42.390537" lon="1.798782">
        <ele>1265.026</ele>
        <time>2019-05-30T14:53:48Z</time>
      </trkpt>
      <trkpt lat="42.390458" lon="1.798742">
        <ele>1264.408</ele>
        <time>2019-05-30T14:53:49Z</time>
      </trkpt>
      <trkpt lat="42.390380" lon="1.798677">
        <ele>1264.021</ele>
        <time>2019-05-30T14:53:50Z</time>
      </trkpt>
      <trkpt lat="42.390304" lon="1.798602">
        <ele>1263.265</ele>
        <time>2019-05-30T14:53:51Z</time>
      </trkpt>
      <trkpt lat="42.390136" lon="1.798467">
        <ele>1261.481</ele>
        <time>2019-05-30T14:53:53Z</time>
      </trkpt>
      <trkpt lat="42.390044" lon="1.798416">
        <ele>1260.459</ele>
        <time>2019-05-30T14:53:54Z</time>
      </trkpt>
      <trkpt lat="42.389849" lon="1.798343">
        <ele>1259.222</ele>
        <time>2019-05-30T14:53:56Z</time>
      </trkpt>
      <trkpt lat="42.389755" lon="1.798319">
        <ele>1259.096</ele>
        <time>2019-05-30T14:53:57Z</time>
      </trkpt>
      <trkpt lat="42.389662" lon="1.798299">
        <ele>1258.864</ele>
        <time>2019-05-30T14:53:58Z</time>
      </trkpt>
      <trkpt lat="42.389208" lon="1.798297">
        <ele>1259.219</ele>
        <time>2019-05-30T14:54:03Z</time>
      </trkpt>
      <trkpt lat="42.388971" lon="1.798391">
        <ele>1260.473</ele>
        <time>2019-05-30T14:54:06Z</time>
      </trkpt>
      <trkpt lat="42.388826" lon="1.798472">
        <ele>1261.085</ele>
        <time>2019-05-30T14:54:08Z</time>
      </trkpt>
      <trkpt lat="42.388690" lon="1.798551">
        <ele>1261.813</ele>
        <time>2019-05-30T14:54:10Z</time>
      </trkpt>
      <trkpt lat="42.388356" lon="1.798721">
        <ele>1262.008</ele>
        <time>2019-05-30T14:54:15Z</time>
      </trkpt>
      <trkpt lat="42.388078" lon="1.798842">
        <ele>1261.860</ele>
        <time>2019-05-30T14:54:19Z</time>
      </trkpt>
      <trkpt lat="42.387938" lon="1.798851">
        <ele>1261.684</ele>
        <time>2019-05-30T14:54:21Z</time>
      </trkpt>
      <trkpt lat="42.387689" lon="1.798753">
        <ele>1262.250</ele>
        <time>2019-05-30T14:54:25Z</time>
      </trkpt>
      <trkpt lat="42.387486" lon="1.798654">
        <ele>1263.288</ele>
        <time>2019-05-30T14:54:29Z</time>
      </trkpt>
      <trkpt lat="42.387394" lon="1.798613">
        <ele>1263.641</ele>
        <time>2019-05-30T14:54:31Z</time>
      </trkpt>
      <trkpt lat="42.387180" lon="1.798501">
        <ele>1264.255</ele>
        <time>2019-05-30T14:54:36Z</time>
      </trkpt>
      <trkpt lat="42.387051" lon="1.798442">
        <ele>1264.653</ele>
        <time>2019-05-30T14:54:39Z</time>
      </trkpt>
      <trkpt lat="42.386893" lon="1.798359">
        <ele>1265.048</ele>
        <time>2019-05-30T14:54:43Z</time>
      </trkpt>
      <trkpt lat="42.386821" lon="1.798306">
        <ele>1265.275</ele>
        <time>2019-05-30T14:54:45Z</time>
      </trkpt>
      <trkpt lat="42.386784" lon="1.798272">
        <ele>1265.228</ele>
        <time>2019-05-30T14:54:46Z</time>
      </trkpt>
      <trkpt lat="42.386744" lon="1.798237">
        <ele>1265.220</ele>
        <time>2019-05-30T14:54:47Z</time>
      </trkpt>
      <trkpt lat="42.386581" lon="1.798086">
        <ele>1266.408</ele>
        <time>2019-05-30T14:54:51Z</time>
      </trkpt>
      <trkpt lat="42.386494" lon="1.798005">
        <ele>1264.230</ele>
        <time>2019-05-30T14:54:53Z</time>
      </trkpt>
      <trkpt lat="42.386254" lon="1.797779">
        <ele>1263.684</ele>
        <time>2019-05-30T14:54:58Z</time>
      </trkpt>
      <trkpt lat="42.386196" lon="1.797742">
        <ele>1263.220</ele>
        <time>2019-05-30T14:54:59Z</time>
      </trkpt>
      <trkpt lat="42.386136" lon="1.797710">
        <ele>1262.898</ele>
        <time>2019-05-30T14:55:00Z</time>
      </trkpt>
      <trkpt lat="42.385925" lon="1.797656">
        <ele>1261.891</ele>
        <time>2019-05-30T14:55:03Z</time>
      </trkpt>
      <trkpt lat="42.385768" lon="1.797726">
        <ele>1260.275</ele>
        <time>2019-05-30T14:55:05Z</time>
      </trkpt>
      <trkpt lat="42.385697" lon="1.797796">
        <ele>1259.083</ele>
        <time>2019-05-30T14:55:06Z</time>
      </trkpt>
      <trkpt lat="42.385620" lon="1.797868">
        <ele>1258.078</ele>
        <time>2019-05-30T14:55:07Z</time>
      </trkpt>
      <trkpt lat="42.385532" lon="1.797924">
        <ele>1257.227</ele>
        <time>2019-05-30T14:55:08Z</time>
      </trkpt>
      <trkpt lat="42.385433" lon="1.797964">
        <ele>1256.468</ele>
        <time>2019-05-30T14:55:09Z</time>
      </trkpt>
      <trkpt lat="42.385331" lon="1.797990">
        <ele>1255.614</ele>
        <time>2019-05-30T14:55:10Z</time>
      </trkpt>
      <trkpt lat="42.385228" lon="1.798008">
        <ele>1255.008</ele>
        <time>2019-05-30T14:55:11Z</time>
      </trkpt>
      <trkpt lat="42.385128" lon="1.798017">
        <ele>1254.625</ele>
        <time>2019-05-30T14:55:12Z</time>
      </trkpt>
      <trkpt lat="42.384926" lon="1.798023">
        <ele>1254.469</ele>
        <time>2019-05-30T14:55:14Z</time>
      </trkpt>
      <trkpt lat="42.384728" lon="1.798023">
        <ele>1254.015</ele>
        <time>2019-05-30T14:55:16Z</time>
      </trkpt>
      <trkpt lat="42.384634" lon="1.798020">
        <ele>1252.883</ele>
        <time>2019-05-30T14:55:17Z</time>
      </trkpt>
      <trkpt lat="42.384360" lon="1.798018">
        <ele>1253.216</ele>
        <time>2019-05-30T14:55:20Z</time>
      </trkpt>
      <trkpt lat="42.384273" lon="1.798010">
        <ele>1254.050</ele>
        <time>2019-05-30T14:55:21Z</time>
      </trkpt>
      <trkpt lat="42.384101" lon="1.797968">
        <ele>1253.878</ele>
        <time>2019-05-30T14:55:23Z</time>
      </trkpt>
      <trkpt lat="42.384016" lon="1.797933">
        <ele>1253.013</ele>
        <time>2019-05-30T14:55:24Z</time>
      </trkpt>
      <trkpt lat="42.383932" lon="1.797894">
        <ele>1252.845</ele>
        <time>2019-05-30T14:55:25Z</time>
      </trkpt>
      <trkpt lat="42.383591" lon="1.797710">
        <ele>1251.647</ele>
        <time>2019-05-30T14:55:29Z</time>
      </trkpt>
      <trkpt lat="42.383503" lon="1.797652">
        <ele>1251.211</ele>
        <time>2019-05-30T14:55:30Z</time>
      </trkpt>
      <trkpt lat="42.383318" lon="1.797541">
        <ele>1250.208</ele>
        <time>2019-05-30T14:55:32Z</time>
      </trkpt>
      <trkpt lat="42.383122" lon="1.797431">
        <ele>1249.057</ele>
        <time>2019-05-30T14:55:34Z</time>
      </trkpt>
      <trkpt lat="42.383030" lon="1.797367">
        <ele>1248.031</ele>
        <time>2019-05-30T14:55:35Z</time>
      </trkpt>
      <trkpt lat="42.382933" lon="1.797301">
        <ele>1247.097</ele>
        <time>2019-05-30T14:55:36Z</time>
      </trkpt>
      <trkpt lat="42.382743" lon="1.797179">
        <ele>1245.285</ele>
        <time>2019-05-30T14:55:38Z</time>
      </trkpt>
      <trkpt lat="42.382552" lon="1.797066">
        <ele>1243.698</ele>
        <time>2019-05-30T14:55:40Z</time>
      </trkpt>
      <trkpt lat="42.382265" lon="1.796968">
        <ele>1242.042</ele>
        <time>2019-05-30T14:55:43Z</time>
      </trkpt>
      <trkpt lat="42.382156" lon="1.796955">
        <ele>1241.240</ele>
        <time>2019-05-30T14:55:44Z</time>
      </trkpt>
      <trkpt lat="42.382042" lon="1.796953">
        <ele>1240.465</ele>
        <time>2019-05-30T14:55:45Z</time>
      </trkpt>
      <trkpt lat="42.381803" lon="1.796982">
        <ele>1238.626</ele>
        <time>2019-05-30T14:55:47Z</time>
      </trkpt>
      <trkpt lat="42.381678" lon="1.797004">
        <ele>1237.247</ele>
        <time>2019-05-30T14:55:48Z</time>
      </trkpt>
      <trkpt lat="42.381551" lon="1.797031">
        <ele>1235.611</ele>
        <time>2019-05-30T14:55:49Z</time>
      </trkpt>
      <trkpt lat="42.381427" lon="1.797060">
        <ele>1234.208</ele>
        <time>2019-05-30T14:55:50Z</time>
      </trkpt>
      <trkpt lat="42.381304" lon="1.797090">
        <ele>1233.065</ele>
        <time>2019-05-30T14:55:51Z</time>
      </trkpt>
      <trkpt lat="42.381179" lon="1.797122">
        <ele>1231.279</ele>
        <time>2019-05-30T14:55:52Z</time>
      </trkpt>
      <trkpt lat="42.381054" lon="1.797155">
        <ele>1229.425</ele>
        <time>2019-05-30T14:55:53Z</time>
      </trkpt>
      <trkpt lat="42.380927" lon="1.797186">
        <ele>1228.053</ele>
        <time>2019-05-30T14:55:54Z</time>
      </trkpt>
      <trkpt lat="42.380806" lon="1.797221">
        <ele>1226.846</ele>
        <time>2019-05-30T14:55:55Z</time>
      </trkpt>
      <trkpt lat="42.380565" lon="1.797323">
        <ele>1225.020</ele>
        <time>2019-05-30T14:55:57Z</time>
      </trkpt>
      <trkpt lat="42.380443" lon="1.797384">
        <ele>1224.278</ele>
        <time>2019-05-30T14:55:58Z</time>
      </trkpt>
      <trkpt lat="42.380329" lon="1.797454">
        <ele>1223.453</ele>
        <time>2019-05-30T14:55:59Z</time>
      </trkpt>
      <trkpt lat="42.380224" lon="1.797531">
        <ele>1222.281</ele>
        <time>2019-05-30T14:56:00Z</time>
      </trkpt>
      <trkpt lat="42.380040" lon="1.797682">
        <ele>1221.261</ele>
        <time>2019-05-30T14:56:02Z</time>
      </trkpt>
      <trkpt lat="42.379812" lon="1.797899">
        <ele>1220.417</ele>
        <time>2019-05-30T14:56:05Z</time>
      </trkpt>
      <trkpt lat="42.379748" lon="1.797973">
        <ele>1220.208</ele>
        <time>2019-05-30T14:56:06Z</time>
      </trkpt>
      <trkpt lat="42.379690" lon="1.798056">
        <ele>1220.221</ele>
        <time>2019-05-30T14:56:07Z</time>
      </trkpt>
      <trkpt lat="42.379606" lon="1.798271">
        <ele>1218.475</ele>
        <time>2019-05-30T14:56:09Z</time>
      </trkpt>
      <trkpt lat="42.379578" lon="1.798392">
        <ele>1217.441</ele>
        <time>2019-05-30T14:56:10Z</time>
      </trkpt>
      <trkpt lat="42.379558" lon="1.798527">
        <ele>1216.459</ele>
        <time>2019-05-30T14:56:11Z</time>
      </trkpt>
      <trkpt lat="42.379523" lon="1.798775">
        <ele>1214.882</ele>
        <time>2019-05-30T14:56:13Z</time>
      </trkpt>
      <trkpt lat="42.379483" lon="1.798886">
        <ele>1214.466</ele>
        <time>2019-05-30T14:56:14Z</time>
      </trkpt>
      <trkpt lat="42.379384" lon="1.799104">
        <ele>1213.674</ele>
        <time>2019-05-30T14:56:16Z</time>
      </trkpt>
      <trkpt lat="42.379312" lon="1.799332">
        <ele>1212.619</ele>
        <time>2019-05-30T14:56:18Z</time>
      </trkpt>
      <trkpt lat="42.379291" lon="1.799449">
        <ele>1211.657</ele>
        <time>2019-05-30T14:56:19Z</time>
      </trkpt>
      <trkpt lat="42.379269" lon="1.799562">
        <ele>1211.000</ele>
        <time>2019-05-30T14:56:20Z</time>
      </trkpt>
      <trkpt lat="42.379239" lon="1.799667">
        <ele>1210.620</ele>
        <time>2019-05-30T14:56:21Z</time>
      </trkpt>
      <trkpt lat="42.379126" lon="1.799829">
        <ele>1209.408</ele>
        <time>2019-05-30T14:56:23Z</time>
      </trkpt>
      <trkpt lat="42.378959" lon="1.799935">
        <ele>1207.868</ele>
        <time>2019-05-30T14:56:25Z</time>
      </trkpt>
      <trkpt lat="42.378868" lon="1.799980">
        <ele>1207.072</ele>
        <time>2019-05-30T14:56:26Z</time>
      </trkpt>
      <trkpt lat="42.378780" lon="1.800017">
        <ele>1206.698</ele>
        <time>2019-05-30T14:56:27Z</time>
      </trkpt>
      <trkpt lat="42.378695" lon="1.800047">
        <ele>1206.256</ele>
        <time>2019-05-30T14:56:28Z</time>
      </trkpt>
      <trkpt lat="42.378608" lon="1.800068">
        <ele>1205.629</ele>
        <time>2019-05-30T14:56:29Z</time>
      </trkpt>
      <trkpt lat="42.378520" lon="1.800071">
        <ele>1205.463</ele>
        <time>2019-05-30T14:56:30Z</time>
      </trkpt>
      <trkpt lat="42.378333" lon="1.800055">
        <ele>1204.491</ele>
        <time>2019-05-30T14:56:32Z</time>
      </trkpt>
      <trkpt lat="42.378135" lon="1.800040">
        <ele>1203.056</ele>
        <time>2019-05-30T14:56:34Z</time>
      </trkpt>
      <trkpt lat="42.378033" lon="1.800034">
        <ele>1202.443</ele>
        <time>2019-05-30T14:56:35Z</time>
      </trkpt>
      <trkpt lat="42.377823" lon="1.800010">
        <ele>1201.664</ele>
        <time>2019-05-30T14:56:37Z</time>
      </trkpt>
      <trkpt lat="42.377625" lon="1.799984">
        <ele>1200.410</ele>
        <time>2019-05-30T14:56:39Z</time>
      </trkpt>
      <trkpt lat="42.377441" lon="1.799960">
        <ele>1199.008</ele>
        <time>2019-05-30T14:56:41Z</time>
      </trkpt>
      <trkpt lat="42.377175" lon="1.799928">
        <ele>1198.097</ele>
        <time>2019-05-30T14:56:44Z</time>
      </trkpt>
      <trkpt lat="42.377017" lon="1.799919">
        <ele>1197.431</ele>
        <time>2019-05-30T14:56:46Z</time>
      </trkpt>
      <trkpt lat="42.376863" lon="1.799873">
        <ele>1196.627</ele>
        <time>2019-05-30T14:56:48Z</time>
      </trkpt>
      <trkpt lat="42.376713" lon="1.799772">
        <ele>1195.695</ele>
        <time>2019-05-30T14:56:50Z</time>
      </trkpt>
      <trkpt lat="42.376551" lon="1.799648">
        <ele>1193.888</ele>
        <time>2019-05-30T14:56:52Z</time>
      </trkpt>
      <trkpt lat="42.376483" lon="1.799600">
        <ele>1192.672</ele>
        <time>2019-05-30T14:56:53Z</time>
      </trkpt>
      <trkpt lat="42.376420" lon="1.799548">
        <ele>1192.250</ele>
        <time>2019-05-30T14:56:54Z</time>
      </trkpt>
      <trkpt lat="42.376335" lon="1.799420">
        <ele>1191.635</ele>
        <time>2019-05-30T14:56:56Z</time>
      </trkpt>
      <trkpt lat="42.376337" lon="1.799321">
        <ele>1191.249</ele>
        <time>2019-05-30T14:56:57Z</time>
      </trkpt>
      <trkpt lat="42.376430" lon="1.799155">
        <ele>1190.402</ele>
        <time>2019-05-30T14:56:59Z</time>
      </trkpt>
      <trkpt lat="42.376583" lon="1.799122">
        <ele>1189.022</ele>
        <time>2019-05-30T14:57:01Z</time>
      </trkpt>
      <trkpt lat="42.376751" lon="1.799129">
        <ele>1187.408</ele>
        <time>2019-05-30T14:57:03Z</time>
      </trkpt>
      <trkpt lat="42.376839" lon="1.799146">
        <ele>1186.697</ele>
        <time>2019-05-30T14:57:04Z</time>
      </trkpt>
      <trkpt lat="42.376933" lon="1.799169">
        <ele>1185.891</ele>
        <time>2019-05-30T14:57:05Z</time>
      </trkpt>
      <trkpt lat="42.377034" lon="1.799195">
        <ele>1184.857</ele>
        <time>2019-05-30T14:57:06Z</time>
      </trkpt>
      <trkpt lat="42.377240" lon="1.799219">
        <ele>1183.025</ele>
        <time>2019-05-30T14:57:08Z</time>
      </trkpt>
      <trkpt lat="42.377349" lon="1.799221">
        <ele>1182.478</ele>
        <time>2019-05-30T14:57:09Z</time>
      </trkpt>
      <trkpt lat="42.377447" lon="1.799217">
        <ele>1181.282</ele>
        <time>2019-05-30T14:57:10Z</time>
      </trkpt>
      <trkpt lat="42.377533" lon="1.799203">
        <ele>1180.210</ele>
        <time>2019-05-30T14:57:11Z</time>
      </trkpt>
      <trkpt lat="42.377610" lon="1.799168">
        <ele>1179.655</ele>
        <time>2019-05-30T14:57:12Z</time>
      </trkpt>
      <trkpt lat="42.377774" lon="1.798920">
        <ele>1178.857</ele>
        <time>2019-05-30T14:57:15Z</time>
      </trkpt>
      <trkpt lat="42.377785" lon="1.798783">
        <ele>1177.600</ele>
        <time>2019-05-30T14:57:16Z</time>
      </trkpt>
      <trkpt lat="42.377784" lon="1.798638">
        <ele>1175.420</ele>
        <time>2019-05-30T14:57:17Z</time>
      </trkpt>
      <trkpt lat="42.377792" lon="1.798504">
        <ele>1174.408</ele>
        <time>2019-05-30T14:57:18Z</time>
      </trkpt>
      <trkpt lat="42.377812" lon="1.798377">
        <ele>1173.458</ele>
        <time>2019-05-30T14:57:19Z</time>
      </trkpt>
      <trkpt lat="42.377855" lon="1.798144">
        <ele>1172.442</ele>
        <time>2019-05-30T14:57:21Z</time>
      </trkpt>
      <trkpt lat="42.377841" lon="1.797923">
        <ele>1170.678</ele>
        <time>2019-05-30T14:57:23Z</time>
      </trkpt>
      <trkpt lat="42.377819" lon="1.797825">
        <ele>1169.636</ele>
        <time>2019-05-30T14:57:24Z</time>
      </trkpt>
      <trkpt lat="42.377715" lon="1.797639">
        <ele>1168.469</ele>
        <time>2019-05-30T14:57:26Z</time>
      </trkpt>
      <trkpt lat="42.377677" lon="1.797518">
        <ele>1168.023</ele>
        <time>2019-05-30T14:57:27Z</time>
      </trkpt>
      <trkpt lat="42.377672" lon="1.797379">
        <ele>1167.431</ele>
        <time>2019-05-30T14:57:28Z</time>
      </trkpt>
      <trkpt lat="42.377693" lon="1.797243">
        <ele>1166.696</ele>
        <time>2019-05-30T14:57:29Z</time>
      </trkpt>
      <trkpt lat="42.377706" lon="1.797104">
        <ele>1165.653</ele>
        <time>2019-05-30T14:57:30Z</time>
      </trkpt>
      <trkpt lat="42.377708" lon="1.796961">
        <ele>1164.604</ele>
        <time>2019-05-30T14:57:31Z</time>
      </trkpt>
      <trkpt lat="42.377650" lon="1.796704">
        <ele>1162.814</ele>
        <time>2019-05-30T14:57:33Z</time>
      </trkpt>
      <trkpt lat="42.377532" lon="1.796461">
        <ele>1161.008</ele>
        <time>2019-05-30T14:57:35Z</time>
      </trkpt>
      <trkpt lat="42.377462" lon="1.796337">
        <ele>1160.288</ele>
        <time>2019-05-30T14:57:36Z</time>
      </trkpt>
      <trkpt lat="42.377407" lon="1.796229">
        <ele>1159.882</ele>
        <time>2019-05-30T14:57:37Z</time>
      </trkpt>
      <trkpt lat="42.377361" lon="1.796108">
        <ele>1159.418</ele>
        <time>2019-05-30T14:57:38Z</time>
      </trkpt>
      <trkpt lat="42.377324" lon="1.795977">
        <ele>1158.826</ele>
        <time>2019-05-30T14:57:39Z</time>
      </trkpt>
      <trkpt lat="42.377293" lon="1.795839">
        <ele>1157.829</ele>
        <time>2019-05-30T14:57:40Z</time>
      </trkpt>
      <trkpt lat="42.377265" lon="1.795694">
        <ele>1155.853</ele>
        <time>2019-05-30T14:57:41Z</time>
      </trkpt>
      <trkpt lat="42.377239" lon="1.795543">
        <ele>1154.851</ele>
        <time>2019-05-30T14:57:42Z</time>
      </trkpt>
      <trkpt lat="42.377206" lon="1.795235">
        <ele>1153.426</ele>
        <time>2019-05-30T14:57:44Z</time>
      </trkpt>
      <trkpt lat="42.377187" lon="1.794910">
        <ele>1151.866</ele>
        <time>2019-05-30T14:57:46Z</time>
      </trkpt>
      <trkpt lat="42.377164" lon="1.794747">
        <ele>1150.629</ele>
        <time>2019-05-30T14:57:47Z</time>
      </trkpt>
      <trkpt lat="42.377129" lon="1.794600">
        <ele>1149.021</ele>
        <time>2019-05-30T14:57:48Z</time>
      </trkpt>
      <trkpt lat="42.377065" lon="1.794352">
        <ele>1147.408</ele>
        <time>2019-05-30T14:57:50Z</time>
      </trkpt>
      <trkpt lat="42.377021" lon="1.794252">
        <ele>1147.239</ele>
        <time>2019-05-30T14:57:51Z</time>
      </trkpt>
      <trkpt lat="42.376910" lon="1.794118">
        <ele>1146.273</ele>
        <time>2019-05-30T14:57:53Z</time>
      </trkpt>
      <trkpt lat="42.376850" lon="1.794082">
        <ele>1145.639</ele>
        <time>2019-05-30T14:57:54Z</time>
      </trkpt>
      <trkpt lat="42.376777" lon="1.794061">
        <ele>1145.027</ele>
        <time>2019-05-30T14:57:55Z</time>
      </trkpt>
      <trkpt lat="42.376679" lon="1.794190">
        <ele>1143.440</ele>
        <time>2019-05-30T14:57:57Z</time>
      </trkpt>
      <trkpt lat="42.376609" lon="1.794386">
        <ele>1141.494</ele>
        <time>2019-05-30T14:57:59Z</time>
      </trkpt>
      <trkpt lat="42.376600" lon="1.794500">
        <ele>1140.462</ele>
        <time>2019-05-30T14:58:00Z</time>
      </trkpt>
      <trkpt lat="42.376561" lon="1.794665">
        <ele>1139.017</ele>
        <time>2019-05-30T14:58:02Z</time>
      </trkpt>
      <trkpt lat="42.376511" lon="1.794703">
        <ele>1139.022</ele>
        <time>2019-05-30T14:58:03Z</time>
      </trkpt>
      <trkpt lat="42.376388" lon="1.794628">
        <ele>1137.062</ele>
        <time>2019-05-30T14:58:05Z</time>
      </trkpt>
      <trkpt lat="42.376290" lon="1.794448">
        <ele>1135.408</ele>
        <time>2019-05-30T14:58:07Z</time>
      </trkpt>
      <trkpt lat="42.376238" lon="1.794348">
        <ele>1134.408</ele>
        <time>2019-05-30T14:58:08Z</time>
      </trkpt>
      <trkpt lat="42.376187" lon="1.794244">
        <ele>1133.245</ele>
        <time>2019-05-30T14:58:09Z</time>
      </trkpt>
      <trkpt lat="42.376135" lon="1.794145">
        <ele>1131.879</ele>
        <time>2019-05-30T14:58:10Z</time>
      </trkpt>
      <trkpt lat="42.376077" lon="1.794052">
        <ele>1130.825</ele>
        <time>2019-05-30T14:58:11Z</time>
      </trkpt>
      <trkpt lat="42.375934" lon="1.793883">
        <ele>1128.843</ele>
        <time>2019-05-30T14:58:13Z</time>
      </trkpt>
      <trkpt lat="42.375853" lon="1.793804">
        <ele>1127.446</ele>
        <time>2019-05-30T14:58:14Z</time>
      </trkpt>
      <trkpt lat="42.375772" lon="1.793731">
        <ele>1126.260</ele>
        <time>2019-05-30T14:58:15Z</time>
      </trkpt>
      <trkpt lat="42.375622" lon="1.793601">
        <ele>1124.878</ele>
        <time>2019-05-30T14:58:17Z</time>
      </trkpt>
      <trkpt lat="42.375553" lon="1.793540">
        <ele>1124.263</ele>
        <time>2019-05-30T14:58:18Z</time>
      </trkpt>
      <trkpt lat="42.375493" lon="1.793472">
        <ele>1123.671</ele>
        <time>2019-05-30T14:58:19Z</time>
      </trkpt>
      <trkpt lat="42.375425" lon="1.793296">
        <ele>1122.641</ele>
        <time>2019-05-30T14:58:21Z</time>
      </trkpt>
      <trkpt lat="42.375416" lon="1.793058">
        <ele>1120.615</ele>
        <time>2019-05-30T14:58:23Z</time>
      </trkpt>
      <trkpt lat="42.375426" lon="1.792929">
        <ele>1119.408</ele>
        <time>2019-05-30T14:58:24Z</time>
      </trkpt>
      <trkpt lat="42.375437" lon="1.792798">
        <ele>1118.240</ele>
        <time>2019-05-30T14:58:25Z</time>
      </trkpt>
      <trkpt lat="42.375446" lon="1.792667">
        <ele>1116.864</ele>
        <time>2019-05-30T14:58:26Z</time>
      </trkpt>
      <trkpt lat="42.375454" lon="1.792542">
        <ele>1115.490</ele>
        <time>2019-05-30T14:58:27Z</time>
      </trkpt>
      <trkpt lat="42.375458" lon="1.792419">
        <ele>1114.048</ele>
        <time>2019-05-30T14:58:28Z</time>
      </trkpt>
      <trkpt lat="42.375460" lon="1.792305">
        <ele>1112.471</ele>
        <time>2019-05-30T14:58:29Z</time>
      </trkpt>
      <trkpt lat="42.375455" lon="1.792197">
        <ele>1111.425</ele>
        <time>2019-05-30T14:58:30Z</time>
      </trkpt>
      <trkpt lat="42.375436" lon="1.792103">
        <ele>1110.283</ele>
        <time>2019-05-30T14:58:31Z</time>
      </trkpt>
      <trkpt lat="42.375400" lon="1.791987">
        <ele>1108.678</ele>
        <time>2019-05-30T14:58:33Z</time>
      </trkpt>
      <trkpt lat="42.375302" lon="1.791903">
        <ele>1107.483</ele>
        <time>2019-05-30T14:58:35Z</time>
      </trkpt>
      <trkpt lat="42.375242" lon="1.791830">
        <ele>1106.425</ele>
        <time>2019-05-30T14:58:36Z</time>
      </trkpt>
      <trkpt lat="42.375201" lon="1.791728">
        <ele>1105.017</ele>
        <time>2019-05-30T14:58:37Z</time>
      </trkpt>
      <trkpt lat="42.375185" lon="1.791603">
        <ele>1103.608</ele>
        <time>2019-05-30T14:58:38Z</time>
      </trkpt>
      <trkpt lat="42.375203" lon="1.791494">
        <ele>1102.271</ele>
        <time>2019-05-30T14:58:39Z</time>
      </trkpt>
      <trkpt lat="42.375238" lon="1.791400">
        <ele>1101.225</ele>
        <time>2019-05-30T14:58:40Z</time>
      </trkpt>
      <trkpt lat="42.375309" lon="1.791242">
        <ele>1099.871</ele>
        <time>2019-05-30T14:58:42Z</time>
      </trkpt>
      <trkpt lat="42.375324" lon="1.791170">
        <ele>1099.289</ele>
        <time>2019-05-30T14:58:43Z</time>
      </trkpt>
      <trkpt lat="42.375321" lon="1.791118">
        <ele>1098.882</ele>
        <time>2019-05-30T14:58:44Z</time>
      </trkpt>
      <trkpt lat="42.375284" lon="1.791077">
        <ele>1098.266</ele>
        <time>2019-05-30T14:58:45Z</time>
      </trkpt>
      <trkpt lat="42.375248" lon="1.791055">
        <ele>1097.674</ele>
        <time>2019-05-30T14:58:46Z</time>
      </trkpt>
      <trkpt lat="42.375202" lon="1.791050">
        <ele>1096.429</ele>
        <time>2019-05-30T14:58:47Z</time>
      </trkpt>
      <trkpt lat="42.375114" lon="1.791061">
        <ele>1095.293</ele>
        <time>2019-05-30T14:58:48Z</time>
      </trkpt>
      <trkpt lat="42.375018" lon="1.791076">
        <ele>1093.865</ele>
        <time>2019-05-30T14:58:49Z</time>
      </trkpt>
      <trkpt lat="42.374918" lon="1.791103">
        <ele>1092.221</ele>
        <time>2019-05-30T14:58:50Z</time>
      </trkpt>
      <trkpt lat="42.374820" lon="1.791132">
        <ele>1090.808</ele>
        <time>2019-05-30T14:58:51Z</time>
      </trkpt>
      <trkpt lat="42.374727" lon="1.791175">
        <ele>1089.862</ele>
        <time>2019-05-30T14:58:52Z</time>
      </trkpt>
      <trkpt lat="42.374645" lon="1.791229">
        <ele>1088.246</ele>
        <time>2019-05-30T14:58:53Z</time>
      </trkpt>
      <trkpt lat="42.374565" lon="1.791300">
        <ele>1086.852</ele>
        <time>2019-05-30T14:58:54Z</time>
      </trkpt>
      <trkpt lat="42.374491" lon="1.791391">
        <ele>1085.470</ele>
        <time>2019-05-30T14:58:55Z</time>
      </trkpt>
      <trkpt lat="42.374431" lon="1.791489">
        <ele>1084.453</ele>
        <time>2019-05-30T14:58:56Z</time>
      </trkpt>
      <trkpt lat="42.374390" lon="1.791588">
        <ele>1084.017</ele>
        <time>2019-05-30T14:58:57Z</time>
      </trkpt>
      <trkpt lat="42.374344" lon="1.791769">
        <ele>1083.065</ele>
        <time>2019-05-30T14:58:59Z</time>
      </trkpt>
      <trkpt lat="42.374321" lon="1.791841">
        <ele>1082.650</ele>
        <time>2019-05-30T14:59:00Z</time>
      </trkpt>
      <trkpt lat="42.374230" lon="1.791884">
        <ele>1082.013</ele>
        <time>2019-05-30T14:59:02Z</time>
      </trkpt>
      <trkpt lat="42.374179" lon="1.791843">
        <ele>1081.043</ele>
        <time>2019-05-30T14:59:03Z</time>
      </trkpt>
      <trkpt lat="42.374139" lon="1.791771">
        <ele>1079.607</ele>
        <time>2019-05-30T14:59:04Z</time>
      </trkpt>
      <trkpt lat="42.374101" lon="1.791689">
        <ele>1078.408</ele>
        <time>2019-05-30T14:59:05Z</time>
      </trkpt>
      <trkpt lat="42.374050" lon="1.791589">
        <ele>1077.294</ele>
        <time>2019-05-30T14:59:06Z</time>
      </trkpt>
      <trkpt lat="42.373999" lon="1.791487">
        <ele>1075.838</ele>
        <time>2019-05-30T14:59:07Z</time>
      </trkpt>
      <trkpt lat="42.373944" lon="1.791379">
        <ele>1074.894</ele>
        <time>2019-05-30T14:59:08Z</time>
      </trkpt>
      <trkpt lat="42.373892" lon="1.791263">
        <ele>1073.892</ele>
        <time>2019-05-30T14:59:09Z</time>
      </trkpt>
      <trkpt lat="42.373798" lon="1.791016">
        <ele>1071.845</ele>
        <time>2019-05-30T14:59:11Z</time>
      </trkpt>
      <trkpt lat="42.373772" lon="1.790896">
        <ele>1071.289</ele>
        <time>2019-05-30T14:59:12Z</time>
      </trkpt>
      <trkpt lat="42.373763" lon="1.790749">
        <ele>1070.427</ele>
        <time>2019-05-30T14:59:13Z</time>
      </trkpt>
      <trkpt lat="42.373769" lon="1.790593">
        <ele>1069.632</ele>
        <time>2019-05-30T14:59:14Z</time>
      </trkpt>
      <trkpt lat="42.373787" lon="1.790428">
        <ele>1068.496</ele>
        <time>2019-05-30T14:59:15Z</time>
      </trkpt>
      <trkpt lat="42.373806" lon="1.790267">
        <ele>1067.231</ele>
        <time>2019-05-30T14:59:16Z</time>
      </trkpt>
      <trkpt lat="42.373823" lon="1.790126">
        <ele>1065.424</ele>
        <time>2019-05-30T14:59:17Z</time>
      </trkpt>
      <trkpt lat="42.373829" lon="1.789996">
        <ele>1065.208</ele>
        <time>2019-05-30T14:59:18Z</time>
      </trkpt>
      <trkpt lat="42.373846" lon="1.789753">
        <ele>1064.042</ele>
        <time>2019-05-30T14:59:20Z</time>
      </trkpt>
      <trkpt lat="42.373869" lon="1.789638">
        <ele>1063.416</ele>
        <time>2019-05-30T14:59:21Z</time>
      </trkpt>
      <trkpt lat="42.373911" lon="1.789541">
        <ele>1063.282</ele>
        <time>2019-05-30T14:59:22Z</time>
      </trkpt>
      <trkpt lat="42.374009" lon="1.789363">
        <ele>1063.010</ele>
        <time>2019-05-30T14:59:24Z</time>
      </trkpt>
      <trkpt lat="42.374136" lon="1.789266">
        <ele>1062.413</ele>
        <time>2019-05-30T14:59:26Z</time>
      </trkpt>
      <trkpt lat="42.374314" lon="1.789270">
        <ele>1061.427</ele>
        <time>2019-05-30T14:59:28Z</time>
      </trkpt>
      <trkpt lat="42.374397" lon="1.789270">
        <ele>1060.265</ele>
        <time>2019-05-30T14:59:29Z</time>
      </trkpt>
      <trkpt lat="42.374518" lon="1.789336">
        <ele>1058.860</ele>
        <time>2019-05-30T14:59:30Z</time>
      </trkpt>
      <trkpt lat="42.374621" lon="1.789370">
        <ele>1057.893</ele>
        <time>2019-05-30T14:59:31Z</time>
      </trkpt>
      <trkpt lat="42.374761" lon="1.789339">
        <ele>1056.465</ele>
        <time>2019-05-30T14:59:33Z</time>
      </trkpt>
      <trkpt lat="42.374802" lon="1.789208">
        <ele>1056.421</ele>
        <time>2019-05-30T14:59:35Z</time>
      </trkpt>
      <trkpt lat="42.374723" lon="1.789099">
        <ele>1056.008</ele>
        <time>2019-05-30T14:59:37Z</time>
      </trkpt>
      <trkpt lat="42.374593" lon="1.789075">
        <ele>1055.022</ele>
        <time>2019-05-30T14:59:39Z</time>
      </trkpt>
      <trkpt lat="42.374520" lon="1.789070">
        <ele>1054.436</ele>
        <time>2019-05-30T14:59:40Z</time>
      </trkpt>
      <trkpt lat="42.374448" lon="1.789069">
        <ele>1053.062</ele>
        <time>2019-05-30T14:59:41Z</time>
      </trkpt>
      <trkpt lat="42.374240" lon="1.789077">
        <ele>1051.810</ele>
        <time>2019-05-30T14:59:44Z</time>
      </trkpt>
      <trkpt lat="42.374114" lon="1.789053">
        <ele>1050.483</ele>
        <time>2019-05-30T14:59:46Z</time>
      </trkpt>
      <trkpt lat="42.373841" lon="1.788983">
        <ele>1049.477</ele>
        <time>2019-05-30T14:59:50Z</time>
      </trkpt>
      <trkpt lat="42.373702" lon="1.788977">
        <ele>1049.055</ele>
        <time>2019-05-30T14:59:52Z</time>
      </trkpt>
      <trkpt lat="42.373644" lon="1.788986">
        <ele>1049.490</ele>
        <time>2019-05-30T14:59:53Z</time>
      </trkpt>
      <trkpt lat="42.373550" lon="1.789000">
        <ele>1048.876</ele>
        <time>2019-05-30T14:59:55Z</time>
      </trkpt>
      <trkpt lat="42.373504" lon="1.788987">
        <ele>1048.290</ele>
        <time>2019-05-30T14:59:56Z</time>
      </trkpt>
      <trkpt lat="42.373413" lon="1.788915">
        <ele>1048.219</ele>
        <time>2019-05-30T14:59:58Z</time>
      </trkpt>
      <trkpt lat="42.373402" lon="1.788769">
        <ele>1048.408</ele>
        <time>2019-05-30T15:00:00Z</time>
      </trkpt>
      <trkpt lat="42.373459" lon="1.788563">
        <ele>1048.650</ele>
        <time>2019-05-30T15:00:03Z</time>
      </trkpt>
      <trkpt lat="42.373474" lon="1.788494">
        <ele>1048.634</ele>
        <time>2019-05-30T15:00:04Z</time>
      </trkpt>
      <trkpt lat="42.373498" lon="1.788355">
        <ele>1046.230</ele>
        <time>2019-05-30T15:00:06Z</time>
      </trkpt>
      <trkpt lat="42.373511" lon="1.788284">
        <ele>1047.468</ele>
        <time>2019-05-30T15:00:07Z</time>
      </trkpt>
      <trkpt lat="42.373544" lon="1.788143">
        <ele>1049.221</ele>
        <time>2019-05-30T15:00:09Z</time>
      </trkpt>
      <trkpt lat="42.373572" lon="1.788001">
        <ele>1048.215</ele>
        <time>2019-05-30T15:00:11Z</time>
      </trkpt>
      <trkpt lat="42.373606" lon="1.787784">
        <ele>1048.013</ele>
        <time>2019-05-30T15:00:14Z</time>
      </trkpt>
      <trkpt lat="42.373656" lon="1.787399">
        <ele>1047.818</ele>
        <time>2019-05-30T15:00:19Z</time>
      </trkpt>
      <trkpt lat="42.373678" lon="1.786849">
        <ele>1048.419</ele>
        <time>2019-05-30T15:00:26Z</time>
      </trkpt>
      <trkpt lat="42.373691" lon="1.786490">
        <ele>1049.009</ele>
        <time>2019-05-30T15:00:31Z</time>
      </trkpt>
      <trkpt lat="42.373699" lon="1.786353">
        <ele>1049.019</ele>
        <time>2019-05-30T15:00:33Z</time>
      </trkpt>
      <trkpt lat="42.373724" lon="1.786015">
        <ele>1049.608</ele>
        <time>2019-05-30T15:00:38Z</time>
      </trkpt>
      <trkpt lat="42.373749" lon="1.785808">
        <ele>1049.694</ele>
        <time>2019-05-30T15:00:41Z</time>
      </trkpt>
      <trkpt lat="42.373852" lon="1.785320">
        <ele>1049.878</ele>
        <time>2019-05-30T15:00:48Z</time>
      </trkpt>
      <trkpt lat="42.374044" lon="1.784778">
        <ele>1049.454</ele>
        <time>2019-05-30T15:00:56Z</time>
      </trkpt>
      <trkpt lat="42.374326" lon="1.784235">
        <ele>1049.452</ele>
        <time>2019-05-30T15:01:04Z</time>
      </trkpt>
      <trkpt lat="42.374641" lon="1.783632">
        <ele>1048.655</ele>
        <time>2019-05-30T15:01:13Z</time>
      </trkpt>
      <trkpt lat="42.374672" lon="1.783567">
        <ele>1049.639</ele>
        <time>2019-05-30T15:01:14Z</time>
      </trkpt>
      <trkpt lat="42.374862" lon="1.783137">
        <ele>1048.267</ele>
        <time>2019-05-30T15:01:21Z</time>
      </trkpt>
      <trkpt lat="42.374969" lon="1.782805">
        <ele>1047.892</ele>
        <time>2019-05-30T15:01:26Z</time>
      </trkpt>
      <trkpt lat="42.374998" lon="1.782666">
        <ele>1047.429</ele>
        <time>2019-05-30T15:01:28Z</time>
      </trkpt>
      <trkpt lat="42.375104" lon="1.782021">
        <ele>1047.200</ele>
        <time>2019-05-30T15:01:37Z</time>
      </trkpt>
      <trkpt lat="42.375110" lon="1.781947">
        <ele>1045.820</ele>
        <time>2019-05-30T15:01:38Z</time>
      </trkpt>
      <trkpt lat="42.375116" lon="1.781874">
        <ele>1048.408</ele>
        <time>2019-05-30T15:01:39Z</time>
      </trkpt>
      <trkpt lat="42.375140" lon="1.781521">
        <ele>1047.815</ele>
        <time>2019-05-30T15:01:44Z</time>
      </trkpt>
      <trkpt lat="42.375096" lon="1.780953">
        <ele>1047.899</ele>
        <time>2019-05-30T15:01:52Z</time>
      </trkpt>
      <trkpt lat="42.374985" lon="1.780226">
        <ele>1048.215</ele>
        <time>2019-05-30T15:02:02Z</time>
      </trkpt>
      <trkpt lat="42.374946" lon="1.779610">
        <ele>1049.013</ele>
        <time>2019-05-30T15:02:10Z</time>
      </trkpt>
      <trkpt lat="42.374952" lon="1.779316">
        <ele>1049.836</ele>
        <time>2019-05-30T15:02:14Z</time>
      </trkpt>
      <trkpt lat="42.374964" lon="1.779042">
        <ele>1050.210</ele>
        <time>2019-05-30T15:02:18Z</time>
      </trkpt>
      <trkpt lat="42.374967" lon="1.778366">
        <ele>1049.868</ele>
        <time>2019-05-30T15:02:28Z</time>
      </trkpt>
      <trkpt lat="42.374896" lon="1.777871">
        <ele>1050.023</ele>
        <time>2019-05-30T15:02:35Z</time>
      </trkpt>
      <trkpt lat="42.374742" lon="1.777376">
        <ele>1050.033</ele>
        <time>2019-05-30T15:02:42Z</time>
      </trkpt>
      <trkpt lat="42.374533" lon="1.776922">
        <ele>1049.023</ele>
        <time>2019-05-30T15:02:49Z</time>
      </trkpt>
      <trkpt lat="42.374468" lon="1.776799">
        <ele>1048.615</ele>
        <time>2019-05-30T15:02:51Z</time>
      </trkpt>
      <trkpt lat="42.374207" lon="1.776331">
        <ele>1048.208</ele>
        <time>2019-05-30T15:02:59Z</time>
      </trkpt>
      <trkpt lat="42.374101" lon="1.776162">
        <ele>1047.666</ele>
        <time>2019-05-30T15:03:02Z</time>
      </trkpt>
      <trkpt lat="42.373922" lon="1.775898">
        <ele>1047.290</ele>
        <time>2019-05-30T15:03:07Z</time>
      </trkpt>
      <trkpt lat="42.373702" lon="1.775648">
        <ele>1047.616</ele>
        <time>2019-05-30T15:03:13Z</time>
      </trkpt>
      <trkpt lat="42.373515" lon="1.775445">
        <ele>1047.644</ele>
        <time>2019-05-30T15:03:20Z</time>
      </trkpt>
      <trkpt lat="42.373448" lon="1.775364">
        <ele>1047.697</ele>
        <time>2019-05-30T15:03:25Z</time>
      </trkpt>
      <trkpt lat="42.373461" lon="1.775374">
        <ele>1023.828</ele>
        <time>2019-05-31T06:52:28Z</time>
      </trkpt>
      <trkpt lat="42.373361" lon="1.775273">
        <ele>1023.889</ele>
        <time>2019-05-31T06:52:32Z</time>
      </trkpt>
      <trkpt lat="42.373327" lon="1.775245">
        <ele>1017.417</ele>
        <time>2019-05-31T06:52:33Z</time>
      </trkpt>
      <trkpt lat="42.373294" lon="1.775214">
        <ele>1021.808</ele>
        <time>2019-05-31T06:52:34Z</time>
      </trkpt>
      <trkpt lat="42.373259" lon="1.775185">
        <ele>1020.455</ele>
        <time>2019-05-31T06:52:35Z</time>
      </trkpt>
      <trkpt lat="42.373224" lon="1.775151">
        <ele>1021.429</ele>
        <time>2019-05-31T06:52:36Z</time>
      </trkpt>
      <trkpt lat="42.373190" lon="1.775115">
        <ele>1022.865</ele>
        <time>2019-05-31T06:52:37Z</time>
      </trkpt>
      <trkpt lat="42.373157" lon="1.775078">
        <ele>1023.873</ele>
        <time>2019-05-31T06:52:38Z</time>
      </trkpt>
      <trkpt lat="42.373121" lon="1.775041">
        <ele>1023.027</ele>
        <time>2019-05-31T06:52:39Z</time>
      </trkpt>
      <trkpt lat="42.373038" lon="1.774973">
        <ele>1022.292</ele>
        <time>2019-05-31T06:52:41Z</time>
      </trkpt>
      <trkpt lat="42.372997" lon="1.774926">
        <ele>1021.846</ele>
        <time>2019-05-31T06:52:42Z</time>
      </trkpt>
      <trkpt lat="42.372937" lon="1.774801">
        <ele>1021.672</ele>
        <time>2019-05-31T06:52:44Z</time>
      </trkpt>
      <trkpt lat="42.372852" lon="1.774585">
        <ele>1021.074</ele>
        <time>2019-05-31T06:52:47Z</time>
      </trkpt>
      <trkpt lat="42.372831" lon="1.774503">
        <ele>1020.656</ele>
        <time>2019-05-31T06:52:48Z</time>
      </trkpt>
      <trkpt lat="42.372816" lon="1.774328">
        <ele>1020.221</ele>
        <time>2019-05-31T06:52:50Z</time>
      </trkpt>
      <trkpt lat="42.372824" lon="1.774143">
        <ele>1019.608</ele>
        <time>2019-05-31T06:52:52Z</time>
      </trkpt>
      <trkpt lat="42.372858" lon="1.773959">
        <ele>1019.290</ele>
        <time>2019-05-31T06:52:54Z</time>
      </trkpt>
      <trkpt lat="42.372880" lon="1.773869">
        <ele>1018.874</ele>
        <time>2019-05-31T06:52:55Z</time>
      </trkpt>
      <trkpt lat="42.372909" lon="1.773779">
        <ele>1018.260</ele>
        <time>2019-05-31T06:52:56Z</time>
      </trkpt>
      <trkpt lat="42.372997" lon="1.773607">
        <ele>1017.648</ele>
        <time>2019-05-31T06:52:58Z</time>
      </trkpt>
      <trkpt lat="42.373051" lon="1.773527">
        <ele>1017.282</ele>
        <time>2019-05-31T06:52:59Z</time>
      </trkpt>
      <trkpt lat="42.373113" lon="1.773453">
        <ele>1016.677</ele>
        <time>2019-05-31T06:53:00Z</time>
      </trkpt>
      <trkpt lat="42.373241" lon="1.773314">
        <ele>1015.851</ele>
        <time>2019-05-31T06:53:02Z</time>
      </trkpt>
      <trkpt lat="42.373372" lon="1.773172">
        <ele>1015.477</ele>
        <time>2019-05-31T06:53:04Z</time>
      </trkpt>
      <trkpt lat="42.373695" lon="1.772816">
        <ele>1014.271</ele>
        <time>2019-05-31T06:53:09Z</time>
      </trkpt>
      <trkpt lat="42.373812" lon="1.772669">
        <ele>1014.241</ele>
        <time>2019-05-31T06:53:11Z</time>
      </trkpt>
      <trkpt lat="42.374105" lon="1.772196">
        <ele>1014.215</ele>
        <time>2019-05-31T06:53:17Z</time>
      </trkpt>
      <trkpt lat="42.374308" lon="1.771666">
        <ele>1014.608</ele>
        <time>2019-05-31T06:53:23Z</time>
      </trkpt>
      <trkpt lat="42.374439" lon="1.771094">
        <ele>1014.240</ele>
        <time>2019-05-31T06:53:29Z</time>
      </trkpt>
      <trkpt lat="42.374483" lon="1.770495">
        <ele>1014.234</ele>
        <time>2019-05-31T06:53:35Z</time>
      </trkpt>
      <trkpt lat="42.374445" lon="1.769892">
        <ele>1013.280</ele>
        <time>2019-05-31T06:53:41Z</time>
      </trkpt>
      <trkpt lat="42.374428" lon="1.769794">
        <ele>1012.668</ele>
        <time>2019-05-31T06:53:42Z</time>
      </trkpt>
      <trkpt lat="42.374321" lon="1.769331">
        <ele>1012.472</ele>
        <time>2019-05-31T06:53:47Z</time>
      </trkpt>
      <trkpt lat="42.374098" lon="1.768731">
        <ele>1011.857</ele>
        <time>2019-05-31T06:53:54Z</time>
      </trkpt>
      <trkpt lat="42.373792" lon="1.768073">
        <ele>1011.441</ele>
        <time>2019-05-31T06:54:02Z</time>
      </trkpt>
      <trkpt lat="42.373754" lon="1.767990">
        <ele>1011.497</ele>
        <time>2019-05-31T06:54:03Z</time>
      </trkpt>
      <trkpt lat="42.373640" lon="1.767744">
        <ele>1011.654</ele>
        <time>2019-05-31T06:54:06Z</time>
      </trkpt>
      <trkpt lat="42.373487" lon="1.767345">
        <ele>1011.856</ele>
        <time>2019-05-31T06:54:11Z</time>
      </trkpt>
      <trkpt lat="42.373370" lon="1.766977">
        <ele>1012.611</ele>
        <time>2019-05-31T06:54:16Z</time>
      </trkpt>
      <trkpt lat="42.373330" lon="1.766841">
        <ele>1013.208</ele>
        <time>2019-05-31T06:54:18Z</time>
      </trkpt>
      <trkpt lat="42.373254" lon="1.766528">
        <ele>1013.668</ele>
        <time>2019-05-31T06:54:23Z</time>
      </trkpt>
      <trkpt lat="42.373228" lon="1.766407">
        <ele>1015.012</ele>
        <time>2019-05-31T06:54:25Z</time>
      </trkpt>
      <trkpt lat="42.373202" lon="1.766285">
        <ele>1014.418</ele>
        <time>2019-05-31T06:54:27Z</time>
      </trkpt>
      <trkpt lat="42.373165" lon="1.766103">
        <ele>1013.816</ele>
        <time>2019-05-31T06:54:30Z</time>
      </trkpt>
      <trkpt lat="42.373150" lon="1.765979">
        <ele>1015.630</ele>
        <time>2019-05-31T06:54:32Z</time>
      </trkpt>
      <trkpt lat="42.373143" lon="1.765917">
        <ele>1016.845</ele>
        <time>2019-05-31T06:54:33Z</time>
      </trkpt>
      <trkpt lat="42.373120" lon="1.765732">
        <ele>1016.259</ele>
        <time>2019-05-31T06:54:36Z</time>
      </trkpt>
      <trkpt lat="42.373063" lon="1.765266">
        <ele>1017.415</ele>
        <time>2019-05-31T06:54:44Z</time>
      </trkpt>
      <trkpt lat="42.373056" lon="1.765157">
        <ele>1017.845</ele>
        <time>2019-05-31T06:54:46Z</time>
      </trkpt>
      <trkpt lat="42.373027" lon="1.764728">
        <ele>1018.847</ele>
        <time>2019-05-31T06:54:54Z</time>
      </trkpt>
      <trkpt lat="42.373019" lon="1.764570">
        <ele>1019.211</ele>
        <time>2019-05-31T06:54:57Z</time>
      </trkpt>
      <trkpt lat="42.372996" lon="1.764299">
        <ele>1019.808</ele>
        <time>2019-05-31T06:55:02Z</time>
      </trkpt>
      <trkpt lat="42.372978" lon="1.764036">
        <ele>1020.457</ele>
        <time>2019-05-31T06:55:07Z</time>
      </trkpt>
      <trkpt lat="42.372974" lon="1.763986">
        <ele>1020.621</ele>
        <time>2019-05-31T06:55:08Z</time>
      </trkpt>
      <trkpt lat="42.372970" lon="1.763936">
        <ele>1020.867</ele>
        <time>2019-05-31T06:55:09Z</time>
      </trkpt>
      <trkpt lat="42.372941" lon="1.763527">
        <ele>1021.855</ele>
        <time>2019-05-31T06:55:17Z</time>
      </trkpt>
      <trkpt lat="42.372938" lon="1.763478">
        <ele>1022.099</ele>
        <time>2019-05-31T06:55:18Z</time>
      </trkpt>
      <trkpt lat="42.372911" lon="1.763077">
        <ele>1022.464</ele>
        <time>2019-05-31T06:55:26Z</time>
      </trkpt>
      <trkpt lat="42.372896" lon="1.762918">
        <ele>1023.048</ele>
        <time>2019-05-31T06:55:29Z</time>
      </trkpt>
      <trkpt lat="42.372873" lon="1.762569">
        <ele>1023.894</ele>
        <time>2019-05-31T06:55:36Z</time>
      </trkpt>
      <trkpt lat="42.372870" lon="1.762521">
        <ele>1024.087</ele>
        <time>2019-05-31T06:55:37Z</time>
      </trkpt>
      <trkpt lat="42.372844" lon="1.762131">
        <ele>1024.642</ele>
        <time>2019-05-31T06:55:45Z</time>
      </trkpt>
      <trkpt lat="42.372841" lon="1.761984">
        <ele>1025.026</ele>
        <time>2019-05-31T06:55:48Z</time>
      </trkpt>
      <trkpt lat="42.372837" lon="1.761628">
        <ele>1025.608</ele>
        <time>2019-05-31T06:55:55Z</time>
      </trkpt>
      <trkpt lat="42.372882" lon="1.761133">
        <ele>1026.011</ele>
        <time>2019-05-31T06:56:05Z</time>
      </trkpt>
      <trkpt lat="42.372889" lon="1.761082">
        <ele>1026.225</ele>
        <time>2019-05-31T06:56:06Z</time>
      </trkpt>
      <trkpt lat="42.372928" lon="1.760889">
        <ele>1026.491</ele>
        <time>2019-05-31T06:56:10Z</time>
      </trkpt>
      <trkpt lat="42.373001" lon="1.760583">
        <ele>1026.449</ele>
        <time>2019-05-31T06:56:16Z</time>
      </trkpt>
      <trkpt lat="42.373121" lon="1.760188">
        <ele>1027.223</ele>
        <time>2019-05-31T06:56:24Z</time>
      </trkpt>
      <trkpt lat="42.373135" lon="1.760136">
        <ele>1027.488</ele>
        <time>2019-05-31T06:56:25Z</time>
      </trkpt>
      <trkpt lat="42.373257" lon="1.759692">
        <ele>1028.442</ele>
        <time>2019-05-31T06:56:34Z</time>
      </trkpt>
      <trkpt lat="42.373352" lon="1.759266">
        <ele>1029.698</ele>
        <time>2019-05-31T06:56:43Z</time>
      </trkpt>
      <trkpt lat="42.373360" lon="1.759217">
        <ele>1030.036</ele>
        <time>2019-05-31T06:56:44Z</time>
      </trkpt>
      <trkpt lat="42.373399" lon="1.758812">
        <ele>1030.817</ele>
        <time>2019-05-31T06:56:52Z</time>
      </trkpt>
      <trkpt lat="42.373400" lon="1.758762">
        <ele>1030.818</ele>
        <time>2019-05-31T06:56:53Z</time>
      </trkpt>
      <trkpt lat="42.373397" lon="1.758310">
        <ele>1031.608</ele>
        <time>2019-05-31T06:57:02Z</time>
      </trkpt>
      <trkpt lat="42.373377" lon="1.758097">
        <ele>1032.036</ele>
        <time>2019-05-31T06:57:06Z</time>
      </trkpt>
      <trkpt lat="42.373330" lon="1.757722">
        <ele>1032.640</ele>
        <time>2019-05-31T06:57:13Z</time>
      </trkpt>
      <trkpt lat="42.373276" lon="1.757396">
        <ele>1033.256</ele>
        <time>2019-05-31T06:57:19Z</time>
      </trkpt>
      <trkpt lat="42.373246" lon="1.757171">
        <ele>1033.054</ele>
        <time>2019-05-31T06:57:23Z</time>
      </trkpt>
      <trkpt lat="42.373215" lon="1.756946">
        <ele>1033.298</ele>
        <time>2019-05-31T06:57:27Z</time>
      </trkpt>
      <trkpt lat="42.373197" lon="1.756804">
        <ele>1033.493</ele>
        <time>2019-05-31T06:57:30Z</time>
      </trkpt>
      <trkpt lat="42.373198" lon="1.756765">
        <ele>1033.637</ele>
        <time>2019-05-31T06:57:31Z</time>
      </trkpt>
      <trkpt lat="42.373193" lon="1.756633">
        <ele>1034.213</ele>
        <time>2019-05-31T06:57:35Z</time>
      </trkpt>
      <trkpt lat="42.373157" lon="1.756507">
        <ele>1034.445</ele>
        <time>2019-05-31T06:57:40Z</time>
      </trkpt>
      <trkpt lat="42.373076" lon="1.756316">
        <ele>1034.847</ele>
        <time>2019-05-31T06:57:45Z</time>
      </trkpt>
      <trkpt lat="42.373015" lon="1.755966">
        <ele>1034.611</ele>
        <time>2019-05-31T06:57:52Z</time>
      </trkpt>
      <trkpt lat="42.373038" lon="1.755806">
        <ele>1034.208</ele>
        <time>2019-05-31T06:57:55Z</time>
      </trkpt>
      <trkpt lat="42.373062" lon="1.755641">
        <ele>1035.087</ele>
        <time>2019-05-31T06:57:58Z</time>
      </trkpt>
      <trkpt lat="42.373060" lon="1.755582">
        <ele>1035.051</ele>
        <time>2019-05-31T06:57:59Z</time>
      </trkpt>
      <trkpt lat="42.373012" lon="1.755477">
        <ele>1034.877</ele>
        <time>2019-05-31T06:58:01Z</time>
      </trkpt>
      <trkpt lat="42.372923" lon="1.755377">
        <ele>1033.845</ele>
        <time>2019-05-31T06:58:03Z</time>
      </trkpt>
      <trkpt lat="42.372878" lon="1.755318">
        <ele>1033.089</ele>
        <time>2019-05-31T06:58:04Z</time>
      </trkpt>
      <trkpt lat="42.372838" lon="1.755255">
        <ele>1032.444</ele>
        <time>2019-05-31T06:58:05Z</time>
      </trkpt>
      <trkpt lat="42.372810" lon="1.755181">
        <ele>1031.848</ele>
        <time>2019-05-31T06:58:06Z</time>
      </trkpt>
      <trkpt lat="42.372781" lon="1.755003">
        <ele>1030.834</ele>
        <time>2019-05-31T06:58:08Z</time>
      </trkpt>
      <trkpt lat="42.372773" lon="1.754913">
        <ele>1030.084</ele>
        <time>2019-05-31T06:58:09Z</time>
      </trkpt>
      <trkpt lat="42.372764" lon="1.754820">
        <ele>1029.007</ele>
        <time>2019-05-31T06:58:10Z</time>
      </trkpt>
      <trkpt lat="42.372758" lon="1.754637">
        <ele>1027.417</ele>
        <time>2019-05-31T06:58:12Z</time>
      </trkpt>
      <trkpt lat="42.372779" lon="1.754553">
        <ele>1026.808</ele>
        <time>2019-05-31T06:58:13Z</time>
      </trkpt>
      <trkpt lat="42.372814" lon="1.754467">
        <ele>1026.081</ele>
        <time>2019-05-31T06:58:14Z</time>
      </trkpt>
      <trkpt lat="42.372838" lon="1.754372">
        <ele>1024.845</ele>
        <time>2019-05-31T06:58:15Z</time>
      </trkpt>
      <trkpt lat="42.372839" lon="1.754281">
        <ele>1023.621</ele>
        <time>2019-05-31T06:58:16Z</time>
      </trkpt>
      <trkpt lat="42.372826" lon="1.754192">
        <ele>1022.669</ele>
        <time>2019-05-31T06:58:17Z</time>
      </trkpt>
      <trkpt lat="42.372813" lon="1.754107">
        <ele>1021.873</ele>
        <time>2019-05-31T06:58:18Z</time>
      </trkpt>
      <trkpt lat="42.372799" lon="1.754029">
        <ele>1021.458</ele>
        <time>2019-05-31T06:58:19Z</time>
      </trkpt>
      <trkpt lat="42.372784" lon="1.753949">
        <ele>1020.262</ele>
        <time>2019-05-31T06:58:20Z</time>
      </trkpt>
      <trkpt lat="42.372758" lon="1.753781">
        <ele>1018.658</ele>
        <time>2019-05-31T06:58:22Z</time>
      </trkpt>
      <trkpt lat="42.372731" lon="1.753625">
        <ele>1017.469</ele>
        <time>2019-05-31T06:58:24Z</time>
      </trkpt>
      <trkpt lat="42.372695" lon="1.753470">
        <ele>1016.004</ele>
        <time>2019-05-31T06:58:26Z</time>
      </trkpt>
      <trkpt lat="42.372659" lon="1.753320">
        <ele>1014.624</ele>
        <time>2019-05-31T06:58:28Z</time>
      </trkpt>
      <trkpt lat="42.372625" lon="1.753171">
        <ele>1013.408</ele>
        <time>2019-05-31T06:58:30Z</time>
      </trkpt>
      <trkpt lat="42.372593" lon="1.753016">
        <ele>1012.039</ele>
        <time>2019-05-31T06:58:32Z</time>
      </trkpt>
      <trkpt lat="42.372582" lon="1.752936">
        <ele>1011.443</ele>
        <time>2019-05-31T06:58:33Z</time>
      </trkpt>
      <trkpt lat="42.372571" lon="1.752853">
        <ele>1010.669</ele>
        <time>2019-05-31T06:58:34Z</time>
      </trkpt>
      <trkpt lat="42.372551" lon="1.752679">
        <ele>1009.257</ele>
        <time>2019-05-31T06:58:36Z</time>
      </trkpt>
      <trkpt lat="42.372542" lon="1.752494">
        <ele>1007.811</ele>
        <time>2019-05-31T06:58:38Z</time>
      </trkpt>
      <trkpt lat="42.372547" lon="1.752401">
        <ele>1007.096</ele>
        <time>2019-05-31T06:58:39Z</time>
      </trkpt>
      <trkpt lat="42.372555" lon="1.752307">
        <ele>1006.070</ele>
        <time>2019-05-31T06:58:40Z</time>
      </trkpt>
      <trkpt lat="42.372542" lon="1.751908">
        <ele>1003.896</ele>
        <time>2019-05-31T06:58:44Z</time>
      </trkpt>
      <trkpt lat="42.372503" lon="1.751315">
        <ele>1002.269</ele>
        <time>2019-05-31T06:58:50Z</time>
      </trkpt>
      <trkpt lat="42.372490" lon="1.751127">
        <ele>1002.204</ele>
        <time>2019-05-31T06:58:52Z</time>
      </trkpt>
      <trkpt lat="42.372495" lon="1.750572">
        <ele>1002.224</ele>
        <time>2019-05-31T06:58:58Z</time>
      </trkpt>
      <trkpt lat="42.372540" lon="1.749965">
        <ele>1001.608</ele>
        <time>2019-05-31T06:59:05Z</time>
      </trkpt>
      <trkpt lat="42.372559" lon="1.749393">
        <ele>1001.499</ele>
        <time>2019-05-31T06:59:12Z</time>
      </trkpt>
      <trkpt lat="42.372543" lon="1.749149">
        <ele>1001.253</ele>
        <time>2019-05-31T06:59:15Z</time>
      </trkpt>
      <trkpt lat="42.372532" lon="1.748899">
        <ele>1000.699</ele>
        <time>2019-05-31T06:59:18Z</time>
      </trkpt>
      <trkpt lat="42.372506" lon="1.748335">
        <ele>1000.297</ele>
        <time>2019-05-31T06:59:25Z</time>
      </trkpt>
      <trkpt lat="42.372496" lon="1.748185">
        <ele>1000.861</ele>
        <time>2019-05-31T06:59:27Z</time>
      </trkpt>
      <trkpt lat="42.372452" lon="1.747973">
        <ele>1001.246</ele>
        <time>2019-05-31T06:59:30Z</time>
      </trkpt>
      <trkpt lat="42.372432" lon="1.747912">
        <ele>1001.280</ele>
        <time>2019-05-31T06:59:31Z</time>
      </trkpt>
      <trkpt lat="42.372411" lon="1.747846">
        <ele>1001.216</ele>
        <time>2019-05-31T06:59:32Z</time>
      </trkpt>
      <trkpt lat="42.372351" lon="1.747664">
        <ele>1001.666</ele>
        <time>2019-05-31T06:59:35Z</time>
      </trkpt>
      <trkpt lat="42.372278" lon="1.747440">
        <ele>1002.429</ele>
        <time>2019-05-31T06:59:39Z</time>
      </trkpt>
      <trkpt lat="42.372254" lon="1.747323">
        <ele>1002.821</ele>
        <time>2019-05-31T06:59:41Z</time>
      </trkpt>
      <trkpt lat="42.372230" lon="1.747150">
        <ele>1003.608</ele>
        <time>2019-05-31T06:59:44Z</time>
      </trkpt>
      <trkpt lat="42.372203" lon="1.746997">
        <ele>1004.229</ele>
        <time>2019-05-31T06:59:47Z</time>
      </trkpt>
      <trkpt lat="42.372175" lon="1.746854">
        <ele>1004.813</ele>
        <time>2019-05-31T06:59:50Z</time>
      </trkpt>
      <trkpt lat="42.372114" lon="1.746673">
        <ele>1005.439</ele>
        <time>2019-05-31T06:59:54Z</time>
      </trkpt>
      <trkpt lat="42.372076" lon="1.746580">
        <ele>1006.077</ele>
        <time>2019-05-31T06:59:56Z</time>
      </trkpt>
      <trkpt lat="42.371965" lon="1.746308">
        <ele>1006.061</ele>
        <time>2019-05-31T07:00:02Z</time>
      </trkpt>
      <trkpt lat="42.371854" lon="1.746034">
        <ele>1007.266</ele>
        <time>2019-05-31T07:00:08Z</time>
      </trkpt>
      <trkpt lat="42.371878" lon="1.745853">
        <ele>1007.610</ele>
        <time>2019-05-31T07:00:12Z</time>
      </trkpt>
      <trkpt lat="42.371979" lon="1.745729">
        <ele>1008.086</ele>
        <time>2019-05-31T07:00:16Z</time>
      </trkpt>
      <trkpt lat="42.372007" lon="1.745718">
        <ele>1008.073</ele>
        <time>2019-05-31T07:00:17Z</time>
      </trkpt>
      <trkpt lat="42.372057" lon="1.745704">
        <ele>1008.485</ele>
        <time>2019-05-31T07:00:19Z</time>
      </trkpt>
      <trkpt lat="42.372079" lon="1.745699">
        <ele>1009.013</ele>
        <time>2019-05-31T07:00:20Z</time>
      </trkpt>
      <trkpt lat="42.372125" lon="1.745695">
        <ele>1009.408</ele>
        <time>2019-05-31T07:00:22Z</time>
      </trkpt>
      <trkpt lat="42.372226" lon="1.745669">
        <ele>1010.420</ele>
        <time>2019-05-31T07:00:27Z</time>
      </trkpt>
      <trkpt lat="42.372245" lon="1.745661">
        <ele>1010.664</ele>
        <time>2019-05-31T07:00:28Z</time>
      </trkpt>
      <trkpt lat="42.372343" lon="1.745626">
        <ele>1011.610</ele>
        <time>2019-05-31T07:00:33Z</time>
      </trkpt>
      <trkpt lat="42.372401" lon="1.745598">
        <ele>1012.298</ele>
        <time>2019-05-31T07:00:36Z</time>
      </trkpt>
      <trkpt lat="42.372453" lon="1.745567">
        <ele>1012.652</ele>
        <time>2019-05-31T07:00:39Z</time>
      </trkpt>
      <trkpt lat="42.372534" lon="1.745504">
        <ele>1013.827</ele>
        <time>2019-05-31T07:00:44Z</time>
      </trkpt>
      <trkpt lat="42.372550" lon="1.745494">
        <ele>1014.021</ele>
        <time>2019-05-31T07:00:45Z</time>
      </trkpt>
      <trkpt lat="42.372602" lon="1.745427">
        <ele>1015.287</ele>
        <time>2019-05-31T07:00:50Z</time>
      </trkpt>
      <trkpt lat="42.372628" lon="1.745395">
        <ele>1015.654</ele>
        <time>2019-05-31T07:00:52Z</time>
      </trkpt>
      <trkpt lat="42.372686" lon="1.745361">
        <ele>1016.456</ele>
        <time>2019-05-31T07:00:56Z</time>
      </trkpt>
      <trkpt lat="42.372719" lon="1.745322">
        <ele>1016.811</ele>
        <time>2019-05-31T07:00:59Z</time>
      </trkpt>
      <trkpt lat="42.372740" lon="1.745271">
        <ele>1017.608</ele>
        <time>2019-05-31T07:01:02Z</time>
      </trkpt>
      <trkpt lat="42.372753" lon="1.745180">
        <ele>1018.428</ele>
        <time>2019-05-31T07:01:06Z</time>
      </trkpt>
      <trkpt lat="42.372754" lon="1.745130">
        <ele>1018.662</ele>
        <time>2019-05-31T07:01:08Z</time>
      </trkpt>
      <trkpt lat="42.372759" lon="1.744990">
        <ele>1019.068</ele>
        <time>2019-05-31T07:01:13Z</time>
      </trkpt>
      <trkpt lat="42.372843" lon="1.744892">
        <ele>1019.226</ele>
        <time>2019-05-31T07:01:18Z</time>
      </trkpt>
      <trkpt lat="42.373006" lon="1.744851">
        <ele>1018.450</ele>
        <time>2019-05-31T07:01:23Z</time>
      </trkpt>
      <trkpt lat="42.373107" lon="1.744798">
        <ele>1019.655</ele>
        <time>2019-05-31T07:01:28Z</time>
      </trkpt>
      <trkpt lat="42.373119" lon="1.744779">
        <ele>1019.859</ele>
        <time>2019-05-31T07:01:29Z</time>
      </trkpt>
      <trkpt lat="42.373165" lon="1.744711">
        <ele>1021.075</ele>
        <time>2019-05-31T07:01:33Z</time>
      </trkpt>
      <trkpt lat="42.373191" lon="1.744676">
        <ele>1021.461</ele>
        <time>2019-05-31T07:01:35Z</time>
      </trkpt>
      <trkpt lat="42.373235" lon="1.744599">
        <ele>1022.221</ele>
        <time>2019-05-31T07:01:39Z</time>
      </trkpt>
      <trkpt lat="42.373280" lon="1.744492">
        <ele>1023.013</ele>
        <time>2019-05-31T07:01:44Z</time>
      </trkpt>
      <trkpt lat="42.373288" lon="1.744468">
        <ele>1023.208</ele>
        <time>2019-05-31T07:01:45Z</time>
      </trkpt>
      <trkpt lat="42.373346" lon="1.744284">
        <ele>1024.269</ele>
        <time>2019-05-31T07:01:53Z</time>
      </trkpt>
      <trkpt lat="42.373353" lon="1.744262">
        <ele>1024.273</ele>
        <time>2019-05-31T07:01:54Z</time>
      </trkpt>
      <trkpt lat="42.373395" lon="1.744119">
        <ele>1025.289</ele>
        <time>2019-05-31T07:02:00Z</time>
      </trkpt>
      <trkpt lat="42.373431" lon="1.743982">
        <ele>1026.097</ele>
        <time>2019-05-31T07:02:06Z</time>
      </trkpt>
      <trkpt lat="42.373451" lon="1.743915">
        <ele>1026.221</ele>
        <time>2019-05-31T07:02:09Z</time>
      </trkpt>
      <trkpt lat="42.373489" lon="1.743783">
        <ele>1027.236</ele>
        <time>2019-05-31T07:02:15Z</time>
      </trkpt>
      <trkpt lat="42.373496" lon="1.743757">
        <ele>1027.250</ele>
        <time>2019-05-31T07:02:16Z</time>
      </trkpt>
      <trkpt lat="42.373531" lon="1.743615">
        <ele>1028.426</ele>
        <time>2019-05-31T07:02:22Z</time>
      </trkpt>
      <trkpt lat="42.373551" lon="1.743513">
        <ele>1028.252</ele>
        <time>2019-05-31T07:02:26Z</time>
      </trkpt>
      <trkpt lat="42.373571" lon="1.743430">
        <ele>1029.453</ele>
        <time>2019-05-31T07:02:29Z</time>
      </trkpt>
      <trkpt lat="42.373608" lon="1.743298">
        <ele>1029.608</ele>
        <time>2019-05-31T07:02:34Z</time>
      </trkpt>
      <trkpt lat="42.373674" lon="1.743050">
        <ele>1030.408</ele>
        <time>2019-05-31T07:02:43Z</time>
      </trkpt>
      <trkpt lat="42.373680" lon="1.743025">
        <ele>1030.688</ele>
        <time>2019-05-31T07:02:44Z</time>
      </trkpt>
      <trkpt lat="42.373734" lon="1.742797">
        <ele>1031.642</ele>
        <time>2019-05-31T07:02:52Z</time>
      </trkpt>
      <trkpt lat="42.373793" lon="1.742549">
        <ele>1032.428</ele>
        <time>2019-05-31T07:03:01Z</time>
      </trkpt>
      <trkpt lat="42.373799" lon="1.742519">
        <ele>1032.666</ele>
        <time>2019-05-31T07:03:02Z</time>
      </trkpt>
      <trkpt lat="42.373851" lon="1.742323">
        <ele>1033.810</ele>
        <time>2019-05-31T07:03:09Z</time>
      </trkpt>
      <trkpt lat="42.373937" lon="1.742057">
        <ele>1034.615</ele>
        <time>2019-05-31T07:03:18Z</time>
      </trkpt>
      <trkpt lat="42.373960" lon="1.741998">
        <ele>1035.049</ele>
        <time>2019-05-31T07:03:20Z</time>
      </trkpt>
      <trkpt lat="42.374033" lon="1.741829">
        <ele>1036.025</ele>
        <time>2019-05-31T07:03:26Z</time>
      </trkpt>
      <trkpt lat="42.374141" lon="1.741641">
        <ele>1036.857</ele>
        <time>2019-05-31T07:03:33Z</time>
      </trkpt>
      <trkpt lat="42.374155" lon="1.741616">
        <ele>1037.000</ele>
        <time>2019-05-31T07:03:34Z</time>
      </trkpt>
      <trkpt lat="42.374371" lon="1.741399">
        <ele>1038.020</ele>
        <time>2019-05-31T07:03:45Z</time>
      </trkpt>
      <trkpt lat="42.374414" lon="1.741367">
        <ele>1038.208</ele>
        <time>2019-05-31T07:03:47Z</time>
      </trkpt>
      <trkpt lat="42.374618" lon="1.741222">
        <ele>1038.618</ele>
        <time>2019-05-31T07:03:56Z</time>
      </trkpt>
      <trkpt lat="42.374786" lon="1.741139">
        <ele>1039.272</ele>
        <time>2019-05-31T07:04:03Z</time>
      </trkpt>
      <trkpt lat="42.374858" lon="1.741114">
        <ele>1039.868</ele>
        <time>2019-05-31T07:04:06Z</time>
      </trkpt>
      <trkpt lat="42.374953" lon="1.741133">
        <ele>1040.266</ele>
        <time>2019-05-31T07:04:10Z</time>
      </trkpt>
      <trkpt lat="42.374980" lon="1.741176">
        <ele>1040.870</ele>
        <time>2019-05-31T07:04:12Z</time>
      </trkpt>
      <trkpt lat="42.374982" lon="1.741250">
        <ele>1041.465</ele>
        <time>2019-05-31T07:04:15Z</time>
      </trkpt>
      <trkpt lat="42.374963" lon="1.741300">
        <ele>1042.059</ele>
        <time>2019-05-31T07:04:17Z</time>
      </trkpt>
      <trkpt lat="42.374944" lon="1.741318">
        <ele>1042.295</ele>
        <time>2019-05-31T07:04:18Z</time>
      </trkpt>
      <trkpt lat="42.374924" lon="1.741334">
        <ele>1042.485</ele>
        <time>2019-05-31T07:04:19Z</time>
      </trkpt>
      <trkpt lat="42.374873" lon="1.741378">
        <ele>1043.289</ele>
        <time>2019-05-31T07:04:22Z</time>
      </trkpt>
      <trkpt lat="42.374811" lon="1.741415">
        <ele>1043.417</ele>
        <time>2019-05-31T07:04:25Z</time>
      </trkpt>
      <trkpt lat="42.374673" lon="1.741519">
        <ele>1044.008</ele>
        <time>2019-05-31T07:04:32Z</time>
      </trkpt>
      <trkpt lat="42.374499" lon="1.741718">
        <ele>1044.481</ele>
        <time>2019-05-31T07:04:42Z</time>
      </trkpt>
      <trkpt lat="42.374486" lon="1.741739">
        <ele>1044.655</ele>
        <time>2019-05-31T07:04:43Z</time>
      </trkpt>
      <trkpt lat="42.374405" lon="1.741937">
        <ele>1045.461</ele>
        <time>2019-05-31T07:04:51Z</time>
      </trkpt>
      <trkpt lat="42.374397" lon="1.741989">
        <ele>1045.819</ele>
        <time>2019-05-31T07:04:53Z</time>
      </trkpt>
      <trkpt lat="42.374378" lon="1.742165">
        <ele>1046.073</ele>
        <time>2019-05-31T07:04:59Z</time>
      </trkpt>
      <trkpt lat="42.374384" lon="1.742314">
        <ele>1046.868</ele>
        <time>2019-05-31T07:05:04Z</time>
      </trkpt>
      <trkpt lat="42.374401" lon="1.742411">
        <ele>1047.212</ele>
        <time>2019-05-31T07:05:07Z</time>
      </trkpt>
      <trkpt lat="42.374443" lon="1.742586">
        <ele>1048.078</ele>
        <time>2019-05-31T07:05:13Z</time>
      </trkpt>
      <trkpt lat="42.374466" lon="1.742677">
        <ele>1048.437</ele>
        <time>2019-05-31T07:05:16Z</time>
      </trkpt>
      <trkpt lat="42.374483" lon="1.742754">
        <ele>1049.049</ele>
        <time>2019-05-31T07:05:19Z</time>
      </trkpt>
      <trkpt lat="42.374487" lon="1.742851">
        <ele>1049.413</ele>
        <time>2019-05-31T07:05:23Z</time>
      </trkpt>
      <trkpt lat="42.374481" lon="1.742993">
        <ele>1050.008</ele>
        <time>2019-05-31T07:05:28Z</time>
      </trkpt>
      <trkpt lat="42.374472" lon="1.743063">
        <ele>1050.616</ele>
        <time>2019-05-31T07:05:31Z</time>
      </trkpt>
      <trkpt lat="42.374467" lon="1.743140">
        <ele>1051.270</ele>
        <time>2019-05-31T07:05:34Z</time>
      </trkpt>
      <trkpt lat="42.374468" lon="1.743329">
        <ele>1052.216</ele>
        <time>2019-05-31T07:05:41Z</time>
      </trkpt>
      <trkpt lat="42.374476" lon="1.743351">
        <ele>1052.424</ele>
        <time>2019-05-31T07:05:42Z</time>
      </trkpt>
      <trkpt lat="42.374573" lon="1.743451">
        <ele>1053.438</ele>
        <time>2019-05-31T07:05:48Z</time>
      </trkpt>
      <trkpt lat="42.374666" lon="1.743426">
        <ele>1054.463</ele>
        <time>2019-05-31T07:05:53Z</time>
      </trkpt>
      <trkpt lat="42.374681" lon="1.743414">
        <ele>1054.667</ele>
        <time>2019-05-31T07:05:54Z</time>
      </trkpt>
      <trkpt lat="42.374747" lon="1.743319">
        <ele>1055.433</ele>
        <time>2019-05-31T07:05:59Z</time>
      </trkpt>
      <trkpt lat="42.374758" lon="1.743297">
        <ele>1055.611</ele>
        <time>2019-05-31T07:06:00Z</time>
      </trkpt>
      <trkpt lat="42.374793" lon="1.743182">
        <ele>1056.621</ele>
        <time>2019-05-31T07:06:05Z</time>
      </trkpt>
      <trkpt lat="42.374813" lon="1.743111">
        <ele>1056.803</ele>
        <time>2019-05-31T07:06:08Z</time>
      </trkpt>
      <trkpt lat="42.374844" lon="1.743006">
        <ele>1057.608</ele>
        <time>2019-05-31T07:06:13Z</time>
      </trkpt>
      <trkpt lat="42.374852" lon="1.742984">
        <ele>1057.824</ele>
        <time>2019-05-31T07:06:14Z</time>
      </trkpt>
      <trkpt lat="42.374906" lon="1.742856">
        <ele>1058.688</ele>
        <time>2019-05-31T07:06:20Z</time>
      </trkpt>
      <trkpt lat="42.374936" lon="1.742793">
        <ele>1059.244</ele>
        <time>2019-05-31T07:06:23Z</time>
      </trkpt>
      <trkpt lat="42.374989" lon="1.742692">
        <ele>1059.692</ele>
        <time>2019-05-31T07:06:28Z</time>
      </trkpt>
      <trkpt lat="42.375035" lon="1.742624">
        <ele>1060.456</ele>
        <time>2019-05-31T07:06:32Z</time>
      </trkpt>
      <trkpt lat="42.375071" lon="1.742573">
        <ele>1060.811</ele>
        <time>2019-05-31T07:06:35Z</time>
      </trkpt>
      <trkpt lat="42.375115" lon="1.742507">
        <ele>1061.655</ele>
        <time>2019-05-31T07:06:39Z</time>
      </trkpt>
      <trkpt lat="42.375140" lon="1.742471">
        <ele>1061.821</ele>
        <time>2019-05-31T07:06:41Z</time>
      </trkpt>
      <trkpt lat="42.375216" lon="1.742363">
        <ele>1063.089</ele>
        <time>2019-05-31T07:06:47Z</time>
      </trkpt>
      <trkpt lat="42.375299" lon="1.742251">
        <ele>1064.006</ele>
        <time>2019-05-31T07:06:54Z</time>
      </trkpt>
      <trkpt lat="42.375325" lon="1.742217">
        <ele>1064.426</ele>
        <time>2019-05-31T07:06:56Z</time>
      </trkpt>
      <trkpt lat="42.375399" lon="1.742146">
        <ele>1065.208</ele>
        <time>2019-05-31T07:07:01Z</time>
      </trkpt>
      <trkpt lat="42.375456" lon="1.742090">
        <ele>1065.871</ele>
        <time>2019-05-31T07:07:05Z</time>
      </trkpt>
      <trkpt lat="42.375503" lon="1.742048">
        <ele>1066.285</ele>
        <time>2019-05-31T07:07:08Z</time>
      </trkpt>
      <trkpt lat="42.375596" lon="1.741956">
        <ele>1067.231</ele>
        <time>2019-05-31T07:07:14Z</time>
      </trkpt>
      <trkpt lat="42.375609" lon="1.741941">
        <ele>1067.229</ele>
        <time>2019-05-31T07:07:15Z</time>
      </trkpt>
      <trkpt lat="42.375709" lon="1.741850">
        <ele>1068.223</ele>
        <time>2019-05-31T07:07:22Z</time>
      </trkpt>
      <trkpt lat="42.375741" lon="1.741829">
        <ele>1068.428</ele>
        <time>2019-05-31T07:07:24Z</time>
      </trkpt>
      <trkpt lat="42.375840" lon="1.741773">
        <ele>1069.462</ele>
        <time>2019-05-31T07:07:30Z</time>
      </trkpt>
      <trkpt lat="42.375857" lon="1.741766">
        <ele>1069.498</ele>
        <time>2019-05-31T07:07:31Z</time>
      </trkpt>
      <trkpt lat="42.375941" lon="1.741729">
        <ele>1070.497</ele>
        <time>2019-05-31T07:07:36Z</time>
      </trkpt>
      <trkpt lat="42.375961" lon="1.741722">
        <ele>1070.423</ele>
        <time>2019-05-31T07:07:37Z</time>
      </trkpt>
      <trkpt lat="42.376073" lon="1.741686">
        <ele>1071.425</ele>
        <time>2019-05-31T07:07:43Z</time>
      </trkpt>
      <trkpt lat="42.376199" lon="1.741653">
        <ele>1072.408</ele>
        <time>2019-05-31T07:07:50Z</time>
      </trkpt>
      <trkpt lat="42.376231" lon="1.741635">
        <ele>1072.652</ele>
        <time>2019-05-31T07:07:52Z</time>
      </trkpt>
      <trkpt lat="42.376327" lon="1.741626">
        <ele>1073.696</ele>
        <time>2019-05-31T07:07:57Z</time>
      </trkpt>
      <trkpt lat="42.376362" lon="1.741622">
        <ele>1074.092</ele>
        <time>2019-05-31T07:07:59Z</time>
      </trkpt>
      <trkpt lat="42.376467" lon="1.741600">
        <ele>1074.810</ele>
        <time>2019-05-31T07:08:05Z</time>
      </trkpt>
      <trkpt lat="42.376646" lon="1.741566">
        <ele>1075.874</ele>
        <time>2019-05-31T07:08:14Z</time>
      </trkpt>
      <trkpt lat="42.376782" lon="1.741548">
        <ele>1076.459</ele>
        <time>2019-05-31T07:08:20Z</time>
      </trkpt>
      <trkpt lat="42.376960" lon="1.741504">
        <ele>1076.613</ele>
        <time>2019-05-31T07:08:28Z</time>
      </trkpt>
      <trkpt lat="42.376975" lon="1.741484">
        <ele>1076.819</ele>
        <time>2019-05-31T07:08:29Z</time>
      </trkpt>
      <trkpt lat="42.377008" lon="1.741445">
        <ele>1077.039</ele>
        <time>2019-05-31T07:08:31Z</time>
      </trkpt>
      <trkpt lat="42.377032" lon="1.741392">
        <ele>1077.201</ele>
        <time>2019-05-31T07:08:33Z</time>
      </trkpt>
      <trkpt lat="42.377028" lon="1.741256">
        <ele>1077.421</ele>
        <time>2019-05-31T07:08:38Z</time>
      </trkpt>
      <trkpt lat="42.377003" lon="1.741177">
        <ele>1078.008</ele>
        <time>2019-05-31T07:08:41Z</time>
      </trkpt>
      <trkpt lat="42.376974" lon="1.741043">
        <ele>1078.816</ele>
        <time>2019-05-31T07:08:46Z</time>
      </trkpt>
      <trkpt lat="42.376971" lon="1.740988">
        <ele>1079.020</ele>
        <time>2019-05-31T07:08:48Z</time>
      </trkpt>
      <trkpt lat="42.376955" lon="1.740884">
        <ele>1079.676</ele>
        <time>2019-05-31T07:08:52Z</time>
      </trkpt>
      <trkpt lat="42.376961" lon="1.740777">
        <ele>1080.084</ele>
        <time>2019-05-31T07:08:56Z</time>
      </trkpt>
      <trkpt lat="42.376975" lon="1.740680">
        <ele>1080.838</ele>
        <time>2019-05-31T07:09:00Z</time>
      </trkpt>
      <trkpt lat="42.376990" lon="1.740631">
        <ele>1081.083</ele>
        <time>2019-05-31T07:09:02Z</time>
      </trkpt>
      <trkpt lat="42.377029" lon="1.740453">
        <ele>1081.457</ele>
        <time>2019-05-31T07:09:08Z</time>
      </trkpt>
      <trkpt lat="42.377123" lon="1.740280">
        <ele>1082.083</ele>
        <time>2019-05-31T07:09:15Z</time>
      </trkpt>
      <trkpt lat="42.377211" lon="1.740182">
        <ele>1082.277</ele>
        <time>2019-05-31T07:09:20Z</time>
      </trkpt>
      <trkpt lat="42.377264" lon="1.740143">
        <ele>1082.461</ele>
        <time>2019-05-31T07:09:23Z</time>
      </trkpt>
      <trkpt lat="42.377399" lon="1.740030">
        <ele>1083.027</ele>
        <time>2019-05-31T07:09:30Z</time>
      </trkpt>
      <trkpt lat="42.377438" lon="1.740002">
        <ele>1083.208</ele>
        <time>2019-05-31T07:09:32Z</time>
      </trkpt>
      <trkpt lat="42.377552" lon="1.739908">
        <ele>1084.080</ele>
        <time>2019-05-31T07:09:38Z</time>
      </trkpt>
      <trkpt lat="42.377595" lon="1.739873">
        <ele>1084.284</ele>
        <time>2019-05-31T07:09:40Z</time>
      </trkpt>
      <trkpt lat="42.377678" lon="1.739777">
        <ele>1085.010</ele>
        <time>2019-05-31T07:09:45Z</time>
      </trkpt>
      <trkpt lat="42.377693" lon="1.739753">
        <ele>1085.228</ele>
        <time>2019-05-31T07:09:46Z</time>
      </trkpt>
      <trkpt lat="42.377752" lon="1.739605">
        <ele>1086.042</ele>
        <time>2019-05-31T07:09:52Z</time>
      </trkpt>
      <trkpt lat="42.377754" lon="1.739552">
        <ele>1086.427</ele>
        <time>2019-05-31T07:09:54Z</time>
      </trkpt>
      <trkpt lat="42.377732" lon="1.739413">
        <ele>1087.231</ele>
        <time>2019-05-31T07:09:59Z</time>
      </trkpt>
      <trkpt lat="42.377719" lon="1.739363">
        <ele>1087.497</ele>
        <time>2019-05-31T07:10:01Z</time>
      </trkpt>
      <trkpt lat="42.377646" lon="1.739212">
        <ele>1088.688</ele>
        <time>2019-05-31T07:10:08Z</time>
      </trkpt>
      <trkpt lat="42.377559" lon="1.739087">
        <ele>1089.624</ele>
        <time>2019-05-31T07:10:15Z</time>
      </trkpt>
      <trkpt lat="42.377549" lon="1.739068">
        <ele>1089.826</ele>
        <time>2019-05-31T07:10:16Z</time>
      </trkpt>
      <trkpt lat="42.377517" lon="1.738954">
        <ele>1090.808</ele>
        <time>2019-05-31T07:10:21Z</time>
      </trkpt>
      <trkpt lat="42.377517" lon="1.738854">
        <ele>1091.621</ele>
        <time>2019-05-31T07:10:25Z</time>
      </trkpt>
      <trkpt lat="42.377519" lon="1.738802">
        <ele>1091.825</ele>
        <time>2019-05-31T07:10:27Z</time>
      </trkpt>
      <trkpt lat="42.377557" lon="1.738678">
        <ele>1092.491</ele>
        <time>2019-05-31T07:10:32Z</time>
      </trkpt>
      <trkpt lat="42.377587" lon="1.738583">
        <ele>1092.819</ele>
        <time>2019-05-31T07:10:36Z</time>
      </trkpt>
      <trkpt lat="42.377635" lon="1.738446">
        <ele>1093.683</ele>
        <time>2019-05-31T07:10:42Z</time>
      </trkpt>
      <trkpt lat="42.377660" lon="1.738389">
        <ele>1094.248</ele>
        <time>2019-05-31T07:10:45Z</time>
      </trkpt>
      <trkpt lat="42.377692" lon="1.738340">
        <ele>1094.642</ele>
        <time>2019-05-31T07:10:48Z</time>
      </trkpt>
      <trkpt lat="42.377724" lon="1.738301">
        <ele>1095.288</ele>
        <time>2019-05-31T07:10:51Z</time>
      </trkpt>
      <trkpt lat="42.377786" lon="1.738302">
        <ele>1095.883</ele>
        <time>2019-05-31T07:10:55Z</time>
      </trkpt>
      <trkpt lat="42.377796" lon="1.738318">
        <ele>1096.225</ele>
        <time>2019-05-31T07:10:56Z</time>
      </trkpt>
      <trkpt lat="42.377803" lon="1.738339">
        <ele>1096.217</ele>
        <time>2019-05-31T07:10:57Z</time>
      </trkpt>
      <trkpt lat="42.377799" lon="1.738385">
        <ele>1096.808</ele>
        <time>2019-05-31T07:10:59Z</time>
      </trkpt>
      <trkpt lat="42.377768" lon="1.738463">
        <ele>1097.461</ele>
        <time>2019-05-31T07:11:03Z</time>
      </trkpt>
      <trkpt lat="42.377752" lon="1.738503">
        <ele>1097.625</ele>
        <time>2019-05-31T07:11:05Z</time>
      </trkpt>
      <trkpt lat="42.377703" lon="1.738641">
        <ele>1097.811</ele>
        <time>2019-05-31T07:11:12Z</time>
      </trkpt>
      <trkpt lat="42.377705" lon="1.738664">
        <ele>1098.659</ele>
        <time>2019-05-31T07:11:13Z</time>
      </trkpt>
      <trkpt lat="42.377720" lon="1.738756">
        <ele>1099.053</ele>
        <time>2019-05-31T07:11:17Z</time>
      </trkpt>
      <trkpt lat="42.377796" lon="1.738820">
        <ele>1099.468</ele>
        <time>2019-05-31T07:11:22Z</time>
      </trkpt>
      <trkpt lat="42.377851" lon="1.738797">
        <ele>1099.652</ele>
        <time>2019-05-31T07:11:25Z</time>
      </trkpt>
      <trkpt lat="42.377864" lon="1.738786">
        <ele>1099.878</ele>
        <time>2019-05-31T07:11:26Z</time>
      </trkpt>
      <trkpt lat="42.377891" lon="1.738763">
        <ele>1100.271</ele>
        <time>2019-05-31T07:11:28Z</time>
      </trkpt>
      <trkpt lat="42.377902" lon="1.738740">
        <ele>1100.441</ele>
        <time>2019-05-31T07:11:29Z</time>
      </trkpt>
      <trkpt lat="42.377928" lon="1.738682">
        <ele>1100.815</ele>
        <time>2019-05-31T07:11:32Z</time>
      </trkpt>
      <trkpt lat="42.377944" lon="1.738646">
        <ele>1101.008</ele>
        <time>2019-05-31T07:11:34Z</time>
      </trkpt>
      <trkpt lat="42.377987" lon="1.738505">
        <ele>1102.010</ele>
        <time>2019-05-31T07:11:41Z</time>
      </trkpt>
      <trkpt lat="42.377996" lon="1.738486">
        <ele>1102.294</ele>
        <time>2019-05-31T07:11:42Z</time>
      </trkpt>
      <trkpt lat="42.378032" lon="1.738370">
        <ele>1103.030</ele>
        <time>2019-05-31T07:11:48Z</time>
      </trkpt>
      <trkpt lat="42.378042" lon="1.738334">
        <ele>1103.238</ele>
        <time>2019-05-31T07:11:50Z</time>
      </trkpt>
      <trkpt lat="42.378096" lon="1.738197">
        <ele>1104.032</ele>
        <time>2019-05-31T07:11:57Z</time>
      </trkpt>
      <trkpt lat="42.378129" lon="1.738172">
        <ele>1104.677</ele>
        <time>2019-05-31T07:12:00Z</time>
      </trkpt>
      <trkpt lat="42.378149" lon="1.738167">
        <ele>1104.871</ele>
        <time>2019-05-31T07:12:02Z</time>
      </trkpt>
      <trkpt lat="42.378161" lon="1.738171">
        <ele>1105.237</ele>
        <time>2019-05-31T07:12:03Z</time>
      </trkpt>
      <trkpt lat="42.378251" lon="1.738165">
        <ele>1105.852</ele>
        <time>2019-05-31T07:12:09Z</time>
      </trkpt>
      <trkpt lat="42.378283" lon="1.738168">
        <ele>1106.253</ele>
        <time>2019-05-31T07:12:11Z</time>
      </trkpt>
      <trkpt lat="42.378333" lon="1.738179">
        <ele>1106.408</ele>
        <time>2019-05-31T07:12:14Z</time>
      </trkpt>
      <trkpt lat="42.378443" lon="1.738207">
        <ele>1107.608</ele>
        <time>2019-05-31T07:12:21Z</time>
      </trkpt>
      <trkpt lat="42.378572" lon="1.738225">
        <ele>1108.418</ele>
        <time>2019-05-31T07:12:28Z</time>
      </trkpt>
      <trkpt lat="42.378588" lon="1.738235">
        <ele>1108.652</ele>
        <time>2019-05-31T07:12:29Z</time>
      </trkpt>
      <trkpt lat="42.378690" lon="1.738264">
        <ele>1109.258</ele>
        <time>2019-05-31T07:12:34Z</time>
      </trkpt>
      <trkpt lat="42.378707" lon="1.738266">
        <ele>1109.226</ele>
        <time>2019-05-31T07:12:35Z</time>
      </trkpt>
      <trkpt lat="42.378841" lon="1.738255">
        <ele>1109.640</ele>
        <time>2019-05-31T07:12:42Z</time>
      </trkpt>
      <trkpt lat="42.378927" lon="1.738260">
        <ele>1109.675</ele>
        <time>2019-05-31T07:12:46Z</time>
      </trkpt>
      <trkpt lat="42.378988" lon="1.738269">
        <ele>1109.859</ele>
        <time>2019-05-31T07:12:49Z</time>
      </trkpt>
      <trkpt lat="42.379091" lon="1.738227">
        <ele>1109.815</ele>
        <time>2019-05-31T07:12:52Z</time>
      </trkpt>
      <trkpt lat="42.379123" lon="1.738215">
        <ele>1109.832</ele>
        <time>2019-05-31T07:12:53Z</time>
      </trkpt>
      <trkpt lat="42.379186" lon="1.738145">
        <ele>1109.692</ele>
        <time>2019-05-31T07:12:56Z</time>
      </trkpt>
      <trkpt lat="42.379189" lon="1.738113">
        <ele>1109.411</ele>
        <time>2019-05-31T07:12:57Z</time>
      </trkpt>
      <trkpt lat="42.379143" lon="1.737961">
        <ele>1108.808</ele>
        <time>2019-05-31T07:13:01Z</time>
      </trkpt>
      <trkpt lat="42.379127" lon="1.737914">
        <ele>1108.646</ele>
        <time>2019-05-31T07:13:02Z</time>
      </trkpt>
      <trkpt lat="42.379095" lon="1.737801">
        <ele>1107.440</ele>
        <time>2019-05-31T07:13:04Z</time>
      </trkpt>
      <trkpt lat="42.379086" lon="1.737742">
        <ele>1107.246</ele>
        <time>2019-05-31T07:13:05Z</time>
      </trkpt>
      <trkpt lat="42.379094" lon="1.737677">
        <ele>1106.844</ele>
        <time>2019-05-31T07:13:06Z</time>
      </trkpt>
      <trkpt lat="42.379158" lon="1.737561">
        <ele>1108.058</ele>
        <time>2019-05-31T07:13:09Z</time>
      </trkpt>
      <trkpt lat="42.379177" lon="1.737532">
        <ele>1108.443</ele>
        <time>2019-05-31T07:13:10Z</time>
      </trkpt>
      <trkpt lat="42.379196" lon="1.737516">
        <ele>1108.887</ele>
        <time>2019-05-31T07:13:11Z</time>
      </trkpt>
      <trkpt lat="42.379249" lon="1.737458">
        <ele>1110.093</ele>
        <time>2019-05-31T07:13:15Z</time>
      </trkpt>
      <trkpt lat="42.379345" lon="1.737333">
        <ele>1110.866</ele>
        <time>2019-05-31T07:13:20Z</time>
      </trkpt>
      <trkpt lat="42.379359" lon="1.737314">
        <ele>1111.029</ele>
        <time>2019-05-31T07:13:21Z</time>
      </trkpt>
      <trkpt lat="42.379472" lon="1.737121">
        <ele>1111.621</ele>
        <time>2019-05-31T07:13:27Z</time>
      </trkpt>
      <trkpt lat="42.379631" lon="1.736949">
        <ele>1111.808</ele>
        <time>2019-05-31T07:13:34Z</time>
      </trkpt>
      <trkpt lat="42.379678" lon="1.736908">
        <ele>1112.459</ele>
        <time>2019-05-31T07:13:37Z</time>
      </trkpt>
      <trkpt lat="42.379684" lon="1.736889">
        <ele>1112.813</ele>
        <time>2019-05-31T07:13:38Z</time>
      </trkpt>
      <trkpt lat="42.379722" lon="1.736848">
        <ele>1113.689</ele>
        <time>2019-05-31T07:13:41Z</time>
      </trkpt>
      <trkpt lat="42.379750" lon="1.736830">
        <ele>1114.687</ele>
        <time>2019-05-31T07:13:43Z</time>
      </trkpt>
      <trkpt lat="42.379765" lon="1.736830">
        <ele>1114.891</ele>
        <time>2019-05-31T07:13:44Z</time>
      </trkpt>
      <trkpt lat="42.379811" lon="1.736884">
        <ele>1115.656</ele>
        <time>2019-05-31T07:13:49Z</time>
      </trkpt>
      <trkpt lat="42.379818" lon="1.736901">
        <ele>1116.060</ele>
        <time>2019-05-31T07:13:50Z</time>
      </trkpt>
      <trkpt lat="42.379818" lon="1.736938">
        <ele>1116.696</ele>
        <time>2019-05-31T07:13:52Z</time>
      </trkpt>
      <trkpt lat="42.379813" lon="1.736977">
        <ele>1117.083</ele>
        <time>2019-05-31T07:13:54Z</time>
      </trkpt>
      <trkpt lat="42.379809" lon="1.736994">
        <ele>1117.425</ele>
        <time>2019-05-31T07:13:55Z</time>
      </trkpt>
      <trkpt lat="42.379812" lon="1.737028">
        <ele>1118.017</ele>
        <time>2019-05-31T07:13:57Z</time>
      </trkpt>
      <trkpt lat="42.379809" lon="1.737102">
        <ele>1119.208</ele>
        <time>2019-05-31T07:14:01Z</time>
      </trkpt>
      <trkpt lat="42.379816" lon="1.737198">
        <ele>1120.221</ele>
        <time>2019-05-31T07:14:06Z</time>
      </trkpt>
      <trkpt lat="42.379825" lon="1.737234">
        <ele>1120.885</ele>
        <time>2019-05-31T07:14:08Z</time>
      </trkpt>
      <trkpt lat="42.379826" lon="1.737270">
        <ele>1121.221</ele>
        <time>2019-05-31T07:14:10Z</time>
      </trkpt>
      <trkpt lat="42.379832" lon="1.737339">
        <ele>1122.039</ele>
        <time>2019-05-31T07:14:14Z</time>
      </trkpt>
      <trkpt lat="42.379832" lon="1.737357">
        <ele>1122.473</ele>
        <time>2019-05-31T07:14:15Z</time>
      </trkpt>
      <trkpt lat="42.379847" lon="1.737455">
        <ele>1123.648</ele>
        <time>2019-05-31T07:14:21Z</time>
      </trkpt>
      <trkpt lat="42.379824" lon="1.737549">
        <ele>1125.032</ele>
        <time>2019-05-31T07:14:27Z</time>
      </trkpt>
      <trkpt lat="42.379859" lon="1.737604">
        <ele>1126.298</ele>
        <time>2019-05-31T07:14:31Z</time>
      </trkpt>
      <trkpt lat="42.379866" lon="1.737616">
        <ele>1126.455</ele>
        <time>2019-05-31T07:14:32Z</time>
      </trkpt>
      <trkpt lat="42.379879" lon="1.737664">
        <ele>1127.007</ele>
        <time>2019-05-31T07:14:35Z</time>
      </trkpt>
      <trkpt lat="42.379880" lon="1.737679">
        <ele>1127.417</ele>
        <time>2019-05-31T07:14:36Z</time>
      </trkpt>
      <trkpt lat="42.379896" lon="1.737729">
        <ele>1128.008</ele>
        <time>2019-05-31T07:14:39Z</time>
      </trkpt>
      <trkpt lat="42.379907" lon="1.737738">
        <ele>1128.468</ele>
        <time>2019-05-31T07:14:40Z</time>
      </trkpt>
      <trkpt lat="42.379943" lon="1.737799">
        <ele>1129.292</ele>
        <time>2019-05-31T07:14:45Z</time>
      </trkpt>
      <trkpt lat="42.379948" lon="1.737809">
        <ele>1129.448</ele>
        <time>2019-05-31T07:14:46Z</time>
      </trkpt>
      <trkpt lat="42.379994" lon="1.737871">
        <ele>1129.816</ele>
        <time>2019-05-31T07:14:51Z</time>
      </trkpt>
      <trkpt lat="42.380020" lon="1.737914">
        <ele>1130.010</ele>
        <time>2019-05-31T07:14:54Z</time>
      </trkpt>
      <trkpt lat="42.380077" lon="1.737972">
        <ele>1130.485</ele>
        <time>2019-05-31T07:14:59Z</time>
      </trkpt>
      <trkpt lat="42.380123" lon="1.738048">
        <ele>1131.029</ele>
        <time>2019-05-31T07:15:04Z</time>
      </trkpt>
      <trkpt lat="42.380168" lon="1.738106">
        <ele>1131.495</ele>
        <time>2019-05-31T07:15:09Z</time>
      </trkpt>
      <trkpt lat="42.380192" lon="1.738123">
        <ele>1132.027</ele>
        <time>2019-05-31T07:15:11Z</time>
      </trkpt>
      <trkpt lat="42.380252" lon="1.738183">
        <ele>1132.668</ele>
        <time>2019-05-31T07:15:16Z</time>
      </trkpt>
      <trkpt lat="42.380289" lon="1.738225">
        <ele>1133.014</ele>
        <time>2019-05-31T07:15:20Z</time>
      </trkpt>
      <trkpt lat="42.380330" lon="1.738271">
        <ele>1133.608</ele>
        <time>2019-05-31T07:15:24Z</time>
      </trkpt>
      <trkpt lat="42.380367" lon="1.738312">
        <ele>1134.285</ele>
        <time>2019-05-31T07:15:28Z</time>
      </trkpt>
      <trkpt lat="42.380400" lon="1.738340">
        <ele>1134.899</ele>
        <time>2019-05-31T07:15:31Z</time>
      </trkpt>
      <trkpt lat="42.380443" lon="1.738368">
        <ele>1135.465</ele>
        <time>2019-05-31T07:15:35Z</time>
      </trkpt>
      <trkpt lat="42.380454" lon="1.738370">
        <ele>1135.693</ele>
        <time>2019-05-31T07:15:36Z</time>
      </trkpt>
      <trkpt lat="42.380476" lon="1.738364">
        <ele>1136.067</ele>
        <time>2019-05-31T07:15:38Z</time>
      </trkpt>
      <trkpt lat="42.380498" lon="1.738343">
        <ele>1136.422</ele>
        <time>2019-05-31T07:15:40Z</time>
      </trkpt>
      <trkpt lat="42.380525" lon="1.738298">
        <ele>1136.896</ele>
        <time>2019-05-31T07:15:42Z</time>
      </trkpt>
      <trkpt lat="42.380545" lon="1.738253">
        <ele>1137.082</ele>
        <time>2019-05-31T07:15:45Z</time>
      </trkpt>
      <trkpt lat="42.380565" lon="1.738163">
        <ele>1137.833</ele>
        <time>2019-05-31T07:15:50Z</time>
      </trkpt>
      <trkpt lat="42.380557" lon="1.738115">
        <ele>1137.823</ele>
        <time>2019-05-31T07:15:53Z</time>
      </trkpt>
      <trkpt lat="42.380543" lon="1.738082">
        <ele>1138.215</ele>
        <time>2019-05-31T07:15:55Z</time>
      </trkpt>
      <trkpt lat="42.380533" lon="1.738066">
        <ele>1138.208</ele>
        <time>2019-05-31T07:15:56Z</time>
      </trkpt>
      <trkpt lat="42.380470" lon="1.737913">
        <ele>1139.056</ele>
        <time>2019-05-31T07:16:05Z</time>
      </trkpt>
      <trkpt lat="42.380469" lon="1.737897">
        <ele>1139.290</ele>
        <time>2019-05-31T07:16:06Z</time>
      </trkpt>
      <trkpt lat="42.380453" lon="1.737842">
        <ele>1139.446</ele>
        <time>2019-05-31T07:16:09Z</time>
      </trkpt>
      <trkpt lat="42.380449" lon="1.737800">
        <ele>1139.644</ele>
        <time>2019-05-31T07:16:11Z</time>
      </trkpt>
      <trkpt lat="42.380449" lon="1.737691">
        <ele>1140.418</ele>
        <time>2019-05-31T07:16:16Z</time>
      </trkpt>
      <trkpt lat="42.380459" lon="1.737647">
        <ele>1140.663</ele>
        <time>2019-05-31T07:16:18Z</time>
      </trkpt>
      <trkpt lat="42.380510" lon="1.737465">
        <ele>1141.057</ele>
        <time>2019-05-31T07:16:26Z</time>
      </trkpt>
      <trkpt lat="42.380542" lon="1.737385">
        <ele>1141.473</ele>
        <time>2019-05-31T07:16:30Z</time>
      </trkpt>
      <trkpt lat="42.380585" lon="1.737300">
        <ele>1141.699</ele>
        <time>2019-05-31T07:16:34Z</time>
      </trkpt>
      <trkpt lat="42.380666" lon="1.737207">
        <ele>1142.407</ele>
        <time>2019-05-31T07:16:40Z</time>
      </trkpt>
      <trkpt lat="42.380679" lon="1.737193">
        <ele>1142.627</ele>
        <time>2019-05-31T07:16:41Z</time>
      </trkpt>
      <trkpt lat="42.380762" lon="1.737083">
        <ele>1143.408</ele>
        <time>2019-05-31T07:16:48Z</time>
      </trkpt>
      <trkpt lat="42.380771" lon="1.737064">
        <ele>1143.622</ele>
        <time>2019-05-31T07:16:49Z</time>
      </trkpt>
      <trkpt lat="42.380834" lon="1.736913">
        <ele>1144.626</ele>
        <time>2019-05-31T07:16:56Z</time>
      </trkpt>
      <trkpt lat="42.380856" lon="1.736841">
        <ele>1144.862</ele>
        <time>2019-05-31T07:16:59Z</time>
      </trkpt>
      <trkpt lat="42.380917" lon="1.736690">
        <ele>1145.220</ele>
        <time>2019-05-31T07:17:06Z</time>
      </trkpt>
      <trkpt lat="42.380929" lon="1.736647">
        <ele>1145.684</ele>
        <time>2019-05-31T07:17:08Z</time>
      </trkpt>
      <trkpt lat="42.380989" lon="1.736498">
        <ele>1146.489</ele>
        <time>2019-05-31T07:17:15Z</time>
      </trkpt>
      <trkpt lat="42.381025" lon="1.736432">
        <ele>1146.693</ele>
        <time>2019-05-31T07:17:18Z</time>
      </trkpt>
      <trkpt lat="42.381093" lon="1.736318">
        <ele>1147.239</ele>
        <time>2019-05-31T07:17:24Z</time>
      </trkpt>
      <trkpt lat="42.381141" lon="1.736230">
        <ele>1147.877</ele>
        <time>2019-05-31T07:17:28Z</time>
      </trkpt>
      <trkpt lat="42.381245" lon="1.736132">
        <ele>1148.861</ele>
        <time>2019-05-31T07:17:35Z</time>
      </trkpt>
      <trkpt lat="42.381380" lon="1.736060">
        <ele>1150.027</ele>
        <time>2019-05-31T07:17:43Z</time>
      </trkpt>
      <trkpt lat="42.381518" lon="1.735975">
        <ele>1150.808</ele>
        <time>2019-05-31T07:17:51Z</time>
      </trkpt>
      <trkpt lat="42.381549" lon="1.735926">
        <ele>1151.040</ele>
        <time>2019-05-31T07:17:53Z</time>
      </trkpt>
      <trkpt lat="42.381588" lon="1.735811">
        <ele>1151.264</ele>
        <time>2019-05-31T07:17:57Z</time>
      </trkpt>
      <trkpt lat="42.381567" lon="1.735672">
        <ele>1151.660</ele>
        <time>2019-05-31T07:18:02Z</time>
      </trkpt>
      <trkpt lat="42.381518" lon="1.735436">
        <ele>1152.228</ele>
        <time>2019-05-31T07:18:10Z</time>
      </trkpt>
      <trkpt lat="42.381513" lon="1.735405">
        <ele>1152.222</ele>
        <time>2019-05-31T07:18:11Z</time>
      </trkpt>
      <trkpt lat="42.381521" lon="1.735114">
        <ele>1153.277</ele>
        <time>2019-05-31T07:18:21Z</time>
      </trkpt>
      <trkpt lat="42.381583" lon="1.734931">
        <ele>1154.491</ele>
        <time>2019-05-31T07:18:28Z</time>
      </trkpt>
      <trkpt lat="42.381616" lon="1.734895">
        <ele>1154.427</ele>
        <time>2019-05-31T07:18:30Z</time>
      </trkpt>
      <trkpt lat="42.381734" lon="1.734813">
        <ele>1155.413</ele>
        <time>2019-05-31T07:18:37Z</time>
      </trkpt>
      <trkpt lat="42.381754" lon="1.734806">
        <ele>1155.443</ele>
        <time>2019-05-31T07:18:38Z</time>
      </trkpt>
      <trkpt lat="42.381895" lon="1.734731">
        <ele>1156.607</ele>
        <time>2019-05-31T07:18:46Z</time>
      </trkpt>
      <trkpt lat="42.381930" lon="1.734716">
        <ele>1156.808</ele>
        <time>2019-05-31T07:18:48Z</time>
      </trkpt>
      <trkpt lat="42.382011" lon="1.734694">
        <ele>1157.644</ele>
        <time>2019-05-31T07:18:52Z</time>
      </trkpt>
      <trkpt lat="42.382122" lon="1.734664">
        <ele>1158.288</ele>
        <time>2019-05-31T07:18:58Z</time>
      </trkpt>
      <trkpt lat="42.382176" lon="1.734648">
        <ele>1158.674</ele>
        <time>2019-05-31T07:19:01Z</time>
      </trkpt>
      <trkpt lat="42.382260" lon="1.734601">
        <ele>1159.282</ele>
        <time>2019-05-31T07:19:06Z</time>
      </trkpt>
      <trkpt lat="42.382284" lon="1.734530">
        <ele>1159.846</ele>
        <time>2019-05-31T07:19:09Z</time>
      </trkpt>
      <trkpt lat="42.382289" lon="1.734452">
        <ele>1160.471</ele>
        <time>2019-05-31T07:19:12Z</time>
      </trkpt>
      <trkpt lat="42.382276" lon="1.734406">
        <ele>1160.825</ele>
        <time>2019-05-31T07:19:14Z</time>
      </trkpt>
      <trkpt lat="42.382250" lon="1.734308">
        <ele>1161.461</ele>
        <time>2019-05-31T07:19:18Z</time>
      </trkpt>
      <trkpt lat="42.382218" lon="1.734240">
        <ele>1161.865</ele>
        <time>2019-05-31T07:19:21Z</time>
      </trkpt>
      <trkpt lat="42.382160" lon="1.734147">
        <ele>1162.868</ele>
        <time>2019-05-31T07:19:26Z</time>
      </trkpt>
      <trkpt lat="42.382097" lon="1.734017">
        <ele>1163.814</ele>
        <time>2019-05-31T07:19:32Z</time>
      </trkpt>
      <trkpt lat="42.382087" lon="1.733998">
        <ele>1164.008</ele>
        <time>2019-05-31T07:19:33Z</time>
      </trkpt>
      <trkpt lat="42.382037" lon="1.733877">
        <ele>1165.069</ele>
        <time>2019-05-31T07:19:39Z</time>
      </trkpt>
      <trkpt lat="42.382021" lon="1.733831">
        <ele>1165.213</ele>
        <time>2019-05-31T07:19:41Z</time>
      </trkpt>
      <trkpt lat="42.382006" lon="1.733695">
        <ele>1166.029</ele>
        <time>2019-05-31T07:19:47Z</time>
      </trkpt>
      <trkpt lat="42.382008" lon="1.733673">
        <ele>1166.287</ele>
        <time>2019-05-31T07:19:48Z</time>
      </trkpt>
      <trkpt lat="42.382020" lon="1.733584">
        <ele>1167.071</ele>
        <time>2019-05-31T07:19:53Z</time>
      </trkpt>
      <trkpt lat="42.382015" lon="1.733531">
        <ele>1167.636</ele>
        <time>2019-05-31T07:19:56Z</time>
      </trkpt>
      <trkpt lat="42.382029" lon="1.733479">
        <ele>1168.230</ele>
        <time>2019-05-31T07:19:59Z</time>
      </trkpt>
      <trkpt lat="42.382059" lon="1.733418">
        <ele>1168.836</ele>
        <time>2019-05-31T07:20:03Z</time>
      </trkpt>
      <trkpt lat="42.382075" lon="1.733387">
        <ele>1169.297</ele>
        <time>2019-05-31T07:20:05Z</time>
      </trkpt>
      <trkpt lat="42.382140" lon="1.733285">
        <ele>1170.023</ele>
        <time>2019-05-31T07:20:12Z</time>
      </trkpt>
      <trkpt lat="42.382163" lon="1.733254">
        <ele>1170.225</ele>
        <time>2019-05-31T07:20:14Z</time>
      </trkpt>
      <trkpt lat="42.382220" lon="1.733162">
        <ele>1171.008</ele>
        <time>2019-05-31T07:20:20Z</time>
      </trkpt>
      <trkpt lat="42.382246" lon="1.733135">
        <ele>1171.282</ele>
        <time>2019-05-31T07:20:22Z</time>
      </trkpt>
      <trkpt lat="42.382298" lon="1.733059">
        <ele>1172.076</ele>
        <time>2019-05-31T07:20:27Z</time>
      </trkpt>
      <trkpt lat="42.382340" lon="1.733004">
        <ele>1172.432</ele>
        <time>2019-05-31T07:20:31Z</time>
      </trkpt>
      <trkpt lat="42.382399" lon="1.732941">
        <ele>1173.010</ele>
        <time>2019-05-31T07:20:36Z</time>
      </trkpt>
      <trkpt lat="42.382439" lon="1.732879">
        <ele>1173.614</ele>
        <time>2019-05-31T07:20:40Z</time>
      </trkpt>
      <trkpt lat="42.382480" lon="1.732819">
        <ele>1173.899</ele>
        <time>2019-05-31T07:20:44Z</time>
      </trkpt>
      <trkpt lat="42.382555" lon="1.732712">
        <ele>1174.653</ele>
        <time>2019-05-31T07:20:51Z</time>
      </trkpt>
      <trkpt lat="42.382568" lon="1.732696">
        <ele>1174.869</ele>
        <time>2019-05-31T07:20:52Z</time>
      </trkpt>
      <trkpt lat="42.382658" lon="1.732571">
        <ele>1175.625</ele>
        <time>2019-05-31T07:21:00Z</time>
      </trkpt>
      <trkpt lat="42.382669" lon="1.732556">
        <ele>1175.826</ele>
        <time>2019-05-31T07:21:01Z</time>
      </trkpt>
      <trkpt lat="42.382766" lon="1.732439">
        <ele>1176.408</ele>
        <time>2019-05-31T07:21:08Z</time>
      </trkpt>
      <trkpt lat="42.382840" lon="1.732351">
        <ele>1176.808</ele>
        <time>2019-05-31T07:21:14Z</time>
      </trkpt>
      <trkpt lat="42.382851" lon="1.732337">
        <ele>1176.815</ele>
        <time>2019-05-31T07:21:15Z</time>
      </trkpt>
      <trkpt lat="42.382933" lon="1.732231">
        <ele>1177.469</ele>
        <time>2019-05-31T07:21:22Z</time>
      </trkpt>
      <trkpt lat="42.383017" lon="1.732130">
        <ele>1177.845</ele>
        <time>2019-05-31T07:21:28Z</time>
      </trkpt>
      <trkpt lat="42.383042" lon="1.732094">
        <ele>1178.023</ele>
        <time>2019-05-31T07:21:30Z</time>
      </trkpt>
      <trkpt lat="42.383167" lon="1.731945">
        <ele>1178.647</ele>
        <time>2019-05-31T07:21:39Z</time>
      </trkpt>
      <trkpt lat="42.383198" lon="1.731915">
        <ele>1178.882</ele>
        <time>2019-05-31T07:21:41Z</time>
      </trkpt>
      <trkpt lat="42.383254" lon="1.731849">
        <ele>1179.266</ele>
        <time>2019-05-31T07:21:45Z</time>
      </trkpt>
      <trkpt lat="42.383364" lon="1.731728">
        <ele>1179.852</ele>
        <time>2019-05-31T07:21:53Z</time>
      </trkpt>
      <trkpt lat="42.383374" lon="1.731712">
        <ele>1179.835</ele>
        <time>2019-05-31T07:21:54Z</time>
      </trkpt>
      <trkpt lat="42.383479" lon="1.731588">
        <ele>1180.686</ele>
        <time>2019-05-31T07:22:01Z</time>
      </trkpt>
      <trkpt lat="42.383554" lon="1.731527">
        <ele>1180.814</ele>
        <time>2019-05-31T07:22:06Z</time>
      </trkpt>
      <trkpt lat="42.383579" lon="1.731492">
        <ele>1181.208</ele>
        <time>2019-05-31T07:22:08Z</time>
      </trkpt>
      <trkpt lat="42.383686" lon="1.731394">
        <ele>1181.876</ele>
        <time>2019-05-31T07:22:15Z</time>
      </trkpt>
      <trkpt lat="42.383761" lon="1.731328">
        <ele>1182.020</ele>
        <time>2019-05-31T07:22:20Z</time>
      </trkpt>
      <trkpt lat="42.383782" lon="1.731314">
        <ele>1182.476</ele>
        <time>2019-05-31T07:22:22Z</time>
      </trkpt>
      <trkpt lat="42.383797" lon="1.731294">
        <ele>1182.484</ele>
        <time>2019-05-31T07:22:23Z</time>
      </trkpt>
      <trkpt lat="42.383852" lon="1.731244">
        <ele>1182.848</ele>
        <time>2019-05-31T07:22:27Z</time>
      </trkpt>
      <trkpt lat="42.383895" lon="1.731209">
        <ele>1183.213</ele>
        <time>2019-05-31T07:22:30Z</time>
      </trkpt>
      <trkpt lat="42.383963" lon="1.731162">
        <ele>1183.687</ele>
        <time>2019-05-31T07:22:34Z</time>
      </trkpt>
      <trkpt lat="42.384050" lon="1.731096">
        <ele>1184.273</ele>
        <time>2019-05-31T07:22:39Z</time>
      </trkpt>
      <trkpt lat="42.384068" lon="1.731082">
        <ele>1184.499</ele>
        <time>2019-05-31T07:22:40Z</time>
      </trkpt>
      <trkpt lat="42.384156" lon="1.731028">
        <ele>1185.407</ele>
        <time>2019-05-31T07:22:45Z</time>
      </trkpt>
      <trkpt lat="42.384207" lon="1.731000">
        <ele>1185.627</ele>
        <time>2019-05-31T07:22:48Z</time>
      </trkpt>
      <trkpt lat="42.384272" lon="1.730969">
        <ele>1186.408</ele>
        <time>2019-05-31T07:22:52Z</time>
      </trkpt>
      <trkpt lat="42.384329" lon="1.730945">
        <ele>1186.832</ele>
        <time>2019-05-31T07:22:55Z</time>
      </trkpt>
      <trkpt lat="42.384405" lon="1.730909">
        <ele>1187.456</ele>
        <time>2019-05-31T07:23:00Z</time>
      </trkpt>
      <trkpt lat="42.384450" lon="1.730890">
        <ele>1188.082</ele>
        <time>2019-05-31T07:23:03Z</time>
      </trkpt>
      <trkpt lat="42.384509" lon="1.730850">
        <ele>1188.610</ele>
        <time>2019-05-31T07:23:07Z</time>
      </trkpt>
      <trkpt lat="42.384588" lon="1.730803">
        <ele>1189.464</ele>
        <time>2019-05-31T07:23:12Z</time>
      </trkpt>
      <trkpt lat="42.384637" lon="1.730774">
        <ele>1189.639</ele>
        <time>2019-05-31T07:23:15Z</time>
      </trkpt>
      <trkpt lat="42.384757" lon="1.730704">
        <ele>1190.683</ele>
        <time>2019-05-31T07:23:23Z</time>
      </trkpt>
      <trkpt lat="42.384773" lon="1.730702">
        <ele>1190.849</ele>
        <time>2019-05-31T07:23:24Z</time>
      </trkpt>
      <trkpt lat="42.384877" lon="1.730673">
        <ele>1191.692</ele>
        <time>2019-05-31T07:23:30Z</time>
      </trkpt>
      <trkpt lat="42.384907" lon="1.730680">
        <ele>1191.873</ele>
        <time>2019-05-31T07:23:32Z</time>
      </trkpt>
      <trkpt lat="42.384995" lon="1.730684">
        <ele>1192.820</ele>
        <time>2019-05-31T07:23:37Z</time>
      </trkpt>
      <trkpt lat="42.385013" lon="1.730690">
        <ele>1193.008</ele>
        <time>2019-05-31T07:23:38Z</time>
      </trkpt>
      <trkpt lat="42.385092" lon="1.730680">
        <ele>1193.682</ele>
        <time>2019-05-31T07:23:43Z</time>
      </trkpt>
      <trkpt lat="42.385121" lon="1.730687">
        <ele>1194.056</ele>
        <time>2019-05-31T07:23:45Z</time>
      </trkpt>
      <trkpt lat="42.385192" lon="1.730688">
        <ele>1194.672</ele>
        <time>2019-05-31T07:23:50Z</time>
      </trkpt>
      <trkpt lat="42.385247" lon="1.730695">
        <ele>1195.080</ele>
        <time>2019-05-31T07:23:54Z</time>
      </trkpt>
      <trkpt lat="42.385275" lon="1.730693">
        <ele>1195.484</ele>
        <time>2019-05-31T07:23:56Z</time>
      </trkpt>
      <trkpt lat="42.385346" lon="1.730679">
        <ele>1196.299</ele>
        <time>2019-05-31T07:24:01Z</time>
      </trkpt>
      <trkpt lat="42.385360" lon="1.730677">
        <ele>1196.243</ele>
        <time>2019-05-31T07:24:02Z</time>
      </trkpt>
      <trkpt lat="42.385467" lon="1.730654">
        <ele>1197.229</ele>
        <time>2019-05-31T07:24:09Z</time>
      </trkpt>
      <trkpt lat="42.385480" lon="1.730656">
        <ele>1197.247</ele>
        <time>2019-05-31T07:24:10Z</time>
      </trkpt>
      <trkpt lat="42.385491" lon="1.730650">
        <ele>1197.429</ele>
        <time>2019-05-31T07:24:11Z</time>
      </trkpt>
      <trkpt lat="42.385561" lon="1.730629">
        <ele>1198.021</ele>
        <time>2019-05-31T07:24:16Z</time>
      </trkpt>
      <trkpt lat="42.385589" lon="1.730623">
        <ele>1198.408</ele>
        <time>2019-05-31T07:24:18Z</time>
      </trkpt>
      <trkpt lat="42.385643" lon="1.730614">
        <ele>1198.697</ele>
        <time>2019-05-31T07:24:22Z</time>
      </trkpt>
      <trkpt lat="42.385675" lon="1.730605">
        <ele>1198.841</ele>
        <time>2019-05-31T07:24:24Z</time>
      </trkpt>
      <trkpt lat="42.385728" lon="1.730600">
        <ele>1199.447</ele>
        <time>2019-05-31T07:24:28Z</time>
      </trkpt>
      <trkpt lat="42.385778" lon="1.730589">
        <ele>1199.615</ele>
        <time>2019-05-31T07:24:31Z</time>
      </trkpt>
      <trkpt lat="42.385889" lon="1.730561">
        <ele>1200.469</ele>
        <time>2019-05-31T07:24:38Z</time>
      </trkpt>
      <trkpt lat="42.386012" lon="1.730549">
        <ele>1201.294</ele>
        <time>2019-05-31T07:24:45Z</time>
      </trkpt>
      <trkpt lat="42.386031" lon="1.730546">
        <ele>1201.428</ele>
        <time>2019-05-31T07:24:46Z</time>
      </trkpt>
      <trkpt lat="42.386155" lon="1.730539">
        <ele>1202.014</ele>
        <time>2019-05-31T07:24:53Z</time>
      </trkpt>
      <trkpt lat="42.386228" lon="1.730526">
        <ele>1202.678</ele>
        <time>2019-05-31T07:24:57Z</time>
      </trkpt>
      <trkpt lat="42.386279" lon="1.730519">
        <ele>1202.633</ele>
        <time>2019-05-31T07:25:00Z</time>
      </trkpt>
      <trkpt lat="42.386393" lon="1.730469">
        <ele>1203.226</ele>
        <time>2019-05-31T07:25:07Z</time>
      </trkpt>
      <trkpt lat="42.386420" lon="1.730445">
        <ele>1203.608</ele>
        <time>2019-05-31T07:25:09Z</time>
      </trkpt>
      <trkpt lat="42.386471" lon="1.730373">
        <ele>1203.850</ele>
        <time>2019-05-31T07:25:13Z</time>
      </trkpt>
      <trkpt lat="42.386493" lon="1.730333">
        <ele>1204.244</ele>
        <time>2019-05-31T07:25:15Z</time>
      </trkpt>
      <trkpt lat="42.386516" lon="1.730275">
        <ele>1204.620</ele>
        <time>2019-05-31T07:25:18Z</time>
      </trkpt>
      <trkpt lat="42.386534" lon="1.730212">
        <ele>1204.858</ele>
        <time>2019-05-31T07:25:21Z</time>
      </trkpt>
      <trkpt lat="42.386550" lon="1.730136">
        <ele>1206.222</ele>
        <time>2019-05-31T07:25:24Z</time>
      </trkpt>
      <trkpt lat="42.386559" lon="1.730063">
        <ele>1205.867</ele>
        <time>2019-05-31T07:25:27Z</time>
      </trkpt>
      <trkpt lat="42.386555" lon="1.730033">
        <ele>1205.841</ele>
        <time>2019-05-31T07:25:28Z</time>
      </trkpt>
      <trkpt lat="42.386551" lon="1.729870">
        <ele>1207.237</ele>
        <time>2019-05-31T07:25:36Z</time>
      </trkpt>
      <trkpt lat="42.386548" lon="1.729828">
        <ele>1207.489</ele>
        <time>2019-05-31T07:25:38Z</time>
      </trkpt>
      <trkpt lat="42.386531" lon="1.729686">
        <ele>1208.206</ele>
        <time>2019-05-31T07:25:45Z</time>
      </trkpt>
      <trkpt lat="42.386526" lon="1.729642">
        <ele>1208.626</ele>
        <time>2019-05-31T07:25:47Z</time>
      </trkpt>
      <trkpt lat="42.386514" lon="1.729516">
        <ele>1209.208</ele>
        <time>2019-05-31T07:25:53Z</time>
      </trkpt>
      <trkpt lat="42.386511" lon="1.729456">
        <ele>1209.691</ele>
        <time>2019-05-31T07:25:56Z</time>
      </trkpt>
      <trkpt lat="42.386509" lon="1.729350">
        <ele>1210.475</ele>
        <time>2019-05-31T07:26:01Z</time>
      </trkpt>
      <trkpt lat="42.386502" lon="1.729293">
        <ele>1210.811</ele>
        <time>2019-05-31T07:26:04Z</time>
      </trkpt>
      <trkpt lat="42.386491" lon="1.729191">
        <ele>1211.639</ele>
        <time>2019-05-31T07:26:09Z</time>
      </trkpt>
      <trkpt lat="42.386491" lon="1.729149">
        <ele>1211.833</ele>
        <time>2019-05-31T07:26:11Z</time>
      </trkpt>
      <trkpt lat="42.386484" lon="1.728990">
        <ele>1212.628</ele>
        <time>2019-05-31T07:26:19Z</time>
      </trkpt>
      <trkpt lat="42.386480" lon="1.728951">
        <ele>1213.042</ele>
        <time>2019-05-31T07:26:21Z</time>
      </trkpt>
      <trkpt lat="42.386472" lon="1.728812">
        <ele>1214.088</ele>
        <time>2019-05-31T07:26:28Z</time>
      </trkpt>
      <trkpt lat="42.386469" lon="1.728791">
        <ele>1214.276</ele>
        <time>2019-05-31T07:26:29Z</time>
      </trkpt>
      <trkpt lat="42.386443" lon="1.728657">
        <ele>1215.090</ele>
        <time>2019-05-31T07:26:36Z</time>
      </trkpt>
      <trkpt lat="42.386436" lon="1.728636">
        <ele>1215.219</ele>
        <time>2019-05-31T07:26:37Z</time>
      </trkpt>
      <trkpt lat="42.386380" lon="1.728463">
        <ele>1216.408</ele>
        <time>2019-05-31T07:26:46Z</time>
      </trkpt>
      <trkpt lat="42.386348" lon="1.728324">
        <ele>1217.650</ele>
        <time>2019-05-31T07:26:53Z</time>
      </trkpt>
      <trkpt lat="42.386325" lon="1.728274">
        <ele>1217.844</ele>
        <time>2019-05-31T07:26:56Z</time>
      </trkpt>
      <trkpt lat="42.386311" lon="1.728199">
        <ele>1218.670</ele>
        <time>2019-05-31T07:27:00Z</time>
      </trkpt>
      <trkpt lat="42.386291" lon="1.728142">
        <ele>1219.018</ele>
        <time>2019-05-31T07:27:03Z</time>
      </trkpt>
      <trkpt lat="42.386267" lon="1.728067">
        <ele>1219.692</ele>
        <time>2019-05-31T07:27:07Z</time>
      </trkpt>
      <trkpt lat="42.386232" lon="1.727988">
        <ele>1220.427</ele>
        <time>2019-05-31T07:27:12Z</time>
      </trkpt>
      <trkpt lat="42.386216" lon="1.727955">
        <ele>1220.821</ele>
        <time>2019-05-31T07:27:14Z</time>
      </trkpt>
      <trkpt lat="42.386170" lon="1.727857">
        <ele>1221.427</ele>
        <time>2019-05-31T07:27:20Z</time>
      </trkpt>
      <trkpt lat="42.386135" lon="1.727798">
        <ele>1221.848</ele>
        <time>2019-05-31T07:27:24Z</time>
      </trkpt>
      <trkpt lat="42.386111" lon="1.727747">
        <ele>1222.461</ele>
        <time>2019-05-31T07:27:27Z</time>
      </trkpt>
      <trkpt lat="42.386070" lon="1.727674">
        <ele>1222.817</ele>
        <time>2019-05-31T07:27:32Z</time>
      </trkpt>
      <trkpt lat="42.386044" lon="1.727627">
        <ele>1223.408</ele>
        <time>2019-05-31T07:27:35Z</time>
      </trkpt>
      <trkpt lat="42.386009" lon="1.727569">
        <ele>1224.057</ele>
        <time>2019-05-31T07:27:39Z</time>
      </trkpt>
      <trkpt lat="42.385987" lon="1.727523">
        <ele>1224.431</ele>
        <time>2019-05-31T07:27:42Z</time>
      </trkpt>
      <trkpt lat="42.385915" lon="1.727427">
        <ele>1225.217</ele>
        <time>2019-05-31T07:27:49Z</time>
      </trkpt>
      <trkpt lat="42.385907" lon="1.727410">
        <ele>1225.265</ele>
        <time>2019-05-31T07:27:50Z</time>
      </trkpt>
      <trkpt lat="42.385837" lon="1.727317">
        <ele>1226.249</ele>
        <time>2019-05-31T07:27:57Z</time>
      </trkpt>
      <trkpt lat="42.385753" lon="1.727220">
        <ele>1227.264</ele>
        <time>2019-05-31T07:28:05Z</time>
      </trkpt>
      <trkpt lat="42.385680" lon="1.727136">
        <ele>1228.098</ele>
        <time>2019-05-31T07:28:12Z</time>
      </trkpt>
      <trkpt lat="42.385656" lon="1.727115">
        <ele>1228.444</ele>
        <time>2019-05-31T07:28:14Z</time>
      </trkpt>
      <trkpt lat="42.385576" lon="1.727038">
        <ele>1229.047</ele>
        <time>2019-05-31T07:28:21Z</time>
      </trkpt>
      <trkpt lat="42.385563" lon="1.727028">
        <ele>1229.429</ele>
        <time>2019-05-31T07:28:22Z</time>
      </trkpt>
      <trkpt lat="42.385469" lon="1.726945">
        <ele>1230.421</ele>
        <time>2019-05-31T07:28:30Z</time>
      </trkpt>
      <trkpt lat="42.385400" lon="1.726848">
        <ele>1231.408</ele>
        <time>2019-05-31T07:28:37Z</time>
      </trkpt>
      <trkpt lat="42.385321" lon="1.726735">
        <ele>1232.417</ele>
        <time>2019-05-31T07:28:45Z</time>
      </trkpt>
      <trkpt lat="42.385305" lon="1.726697">
        <ele>1232.831</ele>
        <time>2019-05-31T07:28:47Z</time>
      </trkpt>
      <trkpt lat="42.385289" lon="1.726618">
        <ele>1233.467</ele>
        <time>2019-05-31T07:28:51Z</time>
      </trkpt>
      <trkpt lat="42.385244" lon="1.726456">
        <ele>1234.615</ele>
        <time>2019-05-31T07:29:00Z</time>
      </trkpt>
      <trkpt lat="42.385239" lon="1.726412">
        <ele>1234.899</ele>
        <time>2019-05-31T07:29:02Z</time>
      </trkpt>
      <trkpt lat="42.385221" lon="1.726282">
        <ele>1235.644</ele>
        <time>2019-05-31T07:29:09Z</time>
      </trkpt>
      <trkpt lat="42.385214" lon="1.726122">
        <ele>1236.668</ele>
        <time>2019-05-31T07:29:17Z</time>
      </trkpt>
      <trkpt lat="42.385207" lon="1.726063">
        <ele>1236.864</ele>
        <time>2019-05-31T07:29:20Z</time>
      </trkpt>
      <trkpt lat="42.385193" lon="1.725902">
        <ele>1237.672</ele>
        <time>2019-05-31T07:29:28Z</time>
      </trkpt>
      <trkpt lat="42.385186" lon="1.725861">
        <ele>1237.813</ele>
        <time>2019-05-31T07:29:30Z</time>
      </trkpt>
      <trkpt lat="42.385178" lon="1.725705">
        <ele>1238.814</ele>
        <time>2019-05-31T07:29:37Z</time>
      </trkpt>
      <trkpt lat="42.385184" lon="1.725512">
        <ele>1239.808</ele>
        <time>2019-05-31T07:29:46Z</time>
      </trkpt>
      <trkpt lat="42.385190" lon="1.725492">
        <ele>1240.020</ele>
        <time>2019-05-31T07:29:47Z</time>
      </trkpt>
      <trkpt lat="42.385205" lon="1.725401">
        <ele>1240.434</ele>
        <time>2019-05-31T07:29:52Z</time>
      </trkpt>
      <trkpt lat="42.385221" lon="1.725370">
        <ele>1240.840</ele>
        <time>2019-05-31T07:29:54Z</time>
      </trkpt>
      <trkpt lat="42.385243" lon="1.725311">
        <ele>1241.238</ele>
        <time>2019-05-31T07:29:57Z</time>
      </trkpt>
      <trkpt lat="42.385259" lon="1.725260">
        <ele>1241.692</ele>
        <time>2019-05-31T07:30:00Z</time>
      </trkpt>
      <trkpt lat="42.385282" lon="1.725213">
        <ele>1242.047</ele>
        <time>2019-05-31T07:30:03Z</time>
      </trkpt>
      <trkpt lat="42.385300" lon="1.725186">
        <ele>1242.211</ele>
        <time>2019-05-31T07:30:05Z</time>
      </trkpt>
      <trkpt lat="42.385360" lon="1.725058">
        <ele>1242.827</ele>
        <time>2019-05-31T07:30:13Z</time>
      </trkpt>
      <trkpt lat="42.385374" lon="1.725027">
        <ele>1243.279</ele>
        <time>2019-05-31T07:30:15Z</time>
      </trkpt>
      <trkpt lat="42.385414" lon="1.724948">
        <ele>1243.805</ele>
        <time>2019-05-31T07:30:20Z</time>
      </trkpt>
      <trkpt lat="42.385446" lon="1.724883">
        <ele>1244.225</ele>
        <time>2019-05-31T07:30:24Z</time>
      </trkpt>
      <trkpt lat="42.385489" lon="1.724830">
        <ele>1244.608</ele>
        <time>2019-05-31T07:30:28Z</time>
      </trkpt>
      <trkpt lat="42.385565" lon="1.724708">
        <ele>1244.810</ele>
        <time>2019-05-31T07:30:36Z</time>
      </trkpt>
      <trkpt lat="42.385577" lon="1.724696">
        <ele>1245.874</ele>
        <time>2019-05-31T07:30:37Z</time>
      </trkpt>
      <trkpt lat="42.385652" lon="1.724577">
        <ele>1246.690</ele>
        <time>2019-05-31T07:30:45Z</time>
      </trkpt>
      <trkpt lat="42.385676" lon="1.724555">
        <ele>1247.098</ele>
        <time>2019-05-31T07:30:47Z</time>
      </trkpt>
      <trkpt lat="42.385733" lon="1.724487">
        <ele>1247.662</ele>
        <time>2019-05-31T07:30:52Z</time>
      </trkpt>
      <trkpt lat="42.385781" lon="1.724414">
        <ele>1248.267</ele>
        <time>2019-05-31T07:30:57Z</time>
      </trkpt>
      <trkpt lat="42.385802" lon="1.724385">
        <ele>1248.421</ele>
        <time>2019-05-31T07:30:59Z</time>
      </trkpt>
      <trkpt lat="42.385886" lon="1.724270">
        <ele>1249.237</ele>
        <time>2019-05-31T07:31:07Z</time>
      </trkpt>
      <trkpt lat="42.385952" lon="1.724165">
        <ele>1250.226</ele>
        <time>2019-05-31T07:31:14Z</time>
      </trkpt>
      <trkpt lat="42.385961" lon="1.724149">
        <ele>1250.447</ele>
        <time>2019-05-31T07:31:15Z</time>
      </trkpt>
      <trkpt lat="42.386003" lon="1.724048">
        <ele>1251.211</ele>
        <time>2019-05-31T07:31:21Z</time>
      </trkpt>
      <trkpt lat="42.386009" lon="1.724032">
        <ele>1251.408</ele>
        <time>2019-05-31T07:31:22Z</time>
      </trkpt>
      <trkpt lat="42.386062" lon="1.723913">
        <ele>1252.475</ele>
        <time>2019-05-31T07:31:29Z</time>
      </trkpt>
      <trkpt lat="42.386071" lon="1.723897">
        <ele>1252.659</ele>
        <time>2019-05-31T07:31:30Z</time>
      </trkpt>
      <trkpt lat="42.386122" lon="1.723808">
        <ele>1253.685</ele>
        <time>2019-05-31T07:31:36Z</time>
      </trkpt>
      <trkpt lat="42.386144" lon="1.723782">
        <ele>1253.643</ele>
        <time>2019-05-31T07:31:38Z</time>
      </trkpt>
      <trkpt lat="42.386199" lon="1.723697">
        <ele>1254.487</ele>
        <time>2019-05-31T07:31:44Z</time>
      </trkpt>
      <trkpt lat="42.386216" lon="1.723663">
        <ele>1254.682</ele>
        <time>2019-05-31T07:31:46Z</time>
      </trkpt>
      <trkpt lat="42.386279" lon="1.723581">
        <ele>1255.226</ele>
        <time>2019-05-31T07:31:52Z</time>
      </trkpt>
      <trkpt lat="42.386319" lon="1.723527">
        <ele>1255.622</ele>
        <time>2019-05-31T07:31:56Z</time>
      </trkpt>
      <trkpt lat="42.386327" lon="1.723511">
        <ele>1255.863</ele>
        <time>2019-05-31T07:31:57Z</time>
      </trkpt>
      <trkpt lat="42.386367" lon="1.723461">
        <ele>1256.444</ele>
        <time>2019-05-31T07:32:01Z</time>
      </trkpt>
      <trkpt lat="42.386397" lon="1.723418">
        <ele>1256.818</ele>
        <time>2019-05-31T07:32:04Z</time>
      </trkpt>
      <trkpt lat="42.386466" lon="1.723334">
        <ele>1257.408</ele>
        <time>2019-05-31T07:32:10Z</time>
      </trkpt>
      <trkpt lat="42.386496" lon="1.723292">
        <ele>1257.889</ele>
        <time>2019-05-31T07:32:13Z</time>
      </trkpt>
      <trkpt lat="42.386541" lon="1.723244">
        <ele>1258.473</ele>
        <time>2019-05-31T07:32:17Z</time>
      </trkpt>
      <trkpt lat="42.386590" lon="1.723181">
        <ele>1259.019</ele>
        <time>2019-05-31T07:32:22Z</time>
      </trkpt>
      <trkpt lat="42.386598" lon="1.723173">
        <ele>1259.297</ele>
        <time>2019-05-31T07:32:23Z</time>
      </trkpt>
      <trkpt lat="42.386678" lon="1.723124">
        <ele>1260.081</ele>
        <time>2019-05-31T07:32:29Z</time>
      </trkpt>
      <trkpt lat="42.386754" lon="1.723063">
        <ele>1260.846</ele>
        <time>2019-05-31T07:32:35Z</time>
      </trkpt>
      <trkpt lat="42.386782" lon="1.723042">
        <ele>1261.050</ele>
        <time>2019-05-31T07:32:37Z</time>
      </trkpt>
      <trkpt lat="42.386844" lon="1.722997">
        <ele>1261.676</ele>
        <time>2019-05-31T07:32:42Z</time>
      </trkpt>
      <trkpt lat="42.386880" lon="1.722981">
        <ele>1262.038</ele>
        <time>2019-05-31T07:32:45Z</time>
      </trkpt>
      <trkpt lat="42.386958" lon="1.722936">
        <ele>1262.870</ele>
        <time>2019-05-31T07:32:51Z</time>
      </trkpt>
      <trkpt lat="42.387012" lon="1.722906">
        <ele>1263.217</ele>
        <time>2019-05-31T07:32:55Z</time>
      </trkpt>
      <trkpt lat="42.387027" lon="1.722903">
        <ele>1263.408</ele>
        <time>2019-05-31T07:32:56Z</time>
      </trkpt>
      <trkpt lat="42.387040" lon="1.722898">
        <ele>1263.426</ele>
        <time>2019-05-31T07:32:57Z</time>
      </trkpt>
      <trkpt lat="42.387131" lon="1.722845">
        <ele>1264.240</ele>
        <time>2019-05-31T07:33:04Z</time>
      </trkpt>
      <trkpt lat="42.387231" lon="1.722797">
        <ele>1265.216</ele>
        <time>2019-05-31T07:33:11Z</time>
      </trkpt>
      <trkpt lat="42.387245" lon="1.722791">
        <ele>1265.474</ele>
        <time>2019-05-31T07:33:12Z</time>
      </trkpt>
      <trkpt lat="42.387332" lon="1.722744">
        <ele>1266.038</ele>
        <time>2019-05-31T07:33:19Z</time>
      </trkpt>
      <trkpt lat="42.387384" lon="1.722717">
        <ele>1266.423</ele>
        <time>2019-05-31T07:33:23Z</time>
      </trkpt>
      <trkpt lat="42.387448" lon="1.722685">
        <ele>1266.887</ele>
        <time>2019-05-31T07:33:28Z</time>
      </trkpt>
      <trkpt lat="42.387517" lon="1.722646">
        <ele>1267.473</ele>
        <time>2019-05-31T07:33:33Z</time>
      </trkpt>
      <trkpt lat="42.387541" lon="1.722627">
        <ele>1267.899</ele>
        <time>2019-05-31T07:33:35Z</time>
      </trkpt>
      <trkpt lat="42.387608" lon="1.722584">
        <ele>1268.607</ele>
        <time>2019-05-31T07:33:40Z</time>
      </trkpt>
      <trkpt lat="42.387651" lon="1.722560">
        <ele>1268.627</ele>
        <time>2019-05-31T07:33:43Z</time>
      </trkpt>
      <trkpt lat="42.387739" lon="1.722492">
        <ele>1269.608</ele>
        <time>2019-05-31T07:33:50Z</time>
      </trkpt>
      <trkpt lat="42.387842" lon="1.722425">
        <ele>1270.482</ele>
        <time>2019-05-31T07:33:58Z</time>
      </trkpt>
      <trkpt lat="42.387856" lon="1.722419">
        <ele>1270.666</ele>
        <time>2019-05-31T07:33:59Z</time>
      </trkpt>
      <trkpt lat="42.387930" lon="1.722372">
        <ele>1271.012</ele>
        <time>2019-05-31T07:34:04Z</time>
      </trkpt>
      <trkpt lat="42.388016" lon="1.722332">
        <ele>1271.660</ele>
        <time>2019-05-31T07:34:10Z</time>
      </trkpt>
      <trkpt lat="42.388045" lon="1.722311">
        <ele>1272.044</ele>
        <time>2019-05-31T07:34:12Z</time>
      </trkpt>
      <trkpt lat="42.388072" lon="1.722294">
        <ele>1272.219</ele>
        <time>2019-05-31T07:34:14Z</time>
      </trkpt>
      <trkpt lat="42.388144" lon="1.722231">
        <ele>1272.643</ele>
        <time>2019-05-31T07:34:20Z</time>
      </trkpt>
      <trkpt lat="42.388157" lon="1.722222">
        <ele>1272.879</ele>
        <time>2019-05-31T07:34:21Z</time>
      </trkpt>
      <trkpt lat="42.388260" lon="1.722146">
        <ele>1273.874</ele>
        <time>2019-05-31T07:34:29Z</time>
      </trkpt>
      <trkpt lat="42.388378" lon="1.722074">
        <ele>1274.856</ele>
        <time>2019-05-31T07:34:38Z</time>
      </trkpt>
      <trkpt lat="42.388393" lon="1.722067">
        <ele>1275.021</ele>
        <time>2019-05-31T07:34:39Z</time>
      </trkpt>
      <trkpt lat="42.388516" lon="1.722041">
        <ele>1275.808</ele>
        <time>2019-05-31T07:34:47Z</time>
      </trkpt>
      <trkpt lat="42.388533" lon="1.722038">
        <ele>1276.090</ele>
        <time>2019-05-31T07:34:48Z</time>
      </trkpt>
      <trkpt lat="42.388628" lon="1.722023">
        <ele>1276.454</ele>
        <time>2019-05-31T07:34:54Z</time>
      </trkpt>
      <trkpt lat="42.388704" lon="1.722025">
        <ele>1277.080</ele>
        <time>2019-05-31T07:34:59Z</time>
      </trkpt>
      <trkpt lat="42.388734" lon="1.722024">
        <ele>1277.288</ele>
        <time>2019-05-31T07:35:01Z</time>
      </trkpt>
      <trkpt lat="42.388885" lon="1.722015">
        <ele>1278.042</ele>
        <time>2019-05-31T07:35:11Z</time>
      </trkpt>
      <trkpt lat="42.389004" lon="1.722027">
        <ele>1278.837</ele>
        <time>2019-05-31T07:35:18Z</time>
      </trkpt>
      <trkpt lat="42.389050" lon="1.722033">
        <ele>1279.271</ele>
        <time>2019-05-31T07:35:21Z</time>
      </trkpt>
      <trkpt lat="42.389111" lon="1.722045">
        <ele>1279.667</ele>
        <time>2019-05-31T07:35:25Z</time>
      </trkpt>
      <trkpt lat="42.389217" lon="1.722073">
        <ele>1280.015</ele>
        <time>2019-05-31T07:35:32Z</time>
      </trkpt>
      <trkpt lat="42.389265" lon="1.722087">
        <ele>1280.265</ele>
        <time>2019-05-31T07:35:35Z</time>
      </trkpt>
      <trkpt lat="42.389341" lon="1.722092">
        <ele>1280.611</ele>
        <time>2019-05-31T07:35:40Z</time>
      </trkpt>
      <trkpt lat="42.389451" lon="1.722098">
        <ele>1281.408</ele>
        <time>2019-05-31T07:35:47Z</time>
      </trkpt>
      <trkpt lat="42.389467" lon="1.722099">
        <ele>1281.494</ele>
        <time>2019-05-31T07:35:48Z</time>
      </trkpt>
      <trkpt lat="42.389577" lon="1.722098">
        <ele>1282.068</ele>
        <time>2019-05-31T07:35:55Z</time>
      </trkpt>
      <trkpt lat="42.389639" lon="1.722069">
        <ele>1282.444</ele>
        <time>2019-05-31T07:35:59Z</time>
      </trkpt>
      <trkpt lat="42.389716" lon="1.722031">
        <ele>1283.092</ele>
        <time>2019-05-31T07:36:04Z</time>
      </trkpt>
      <trkpt lat="42.389804" lon="1.721995">
        <ele>1283.636</ele>
        <time>2019-05-31T07:36:10Z</time>
      </trkpt>
      <trkpt lat="42.389820" lon="1.721988">
        <ele>1283.621</ele>
        <time>2019-05-31T07:36:11Z</time>
      </trkpt>
      <trkpt lat="42.389935" lon="1.721934">
        <ele>1284.675</ele>
        <time>2019-05-31T07:36:19Z</time>
      </trkpt>
      <trkpt lat="42.389948" lon="1.721928">
        <ele>1284.821</ele>
        <time>2019-05-31T07:36:20Z</time>
      </trkpt>
      <trkpt lat="42.390018" lon="1.721898">
        <ele>1285.243</ele>
        <time>2019-05-31T07:36:25Z</time>
      </trkpt>
      <trkpt lat="42.390094" lon="1.721855">
        <ele>1285.864</ele>
        <time>2019-05-31T07:36:31Z</time>
      </trkpt>
      <trkpt lat="42.390146" lon="1.721821">
        <ele>1286.210</ele>
        <time>2019-05-31T07:36:35Z</time>
      </trkpt>
      <trkpt lat="42.390222" lon="1.721777">
        <ele>1286.808</ele>
        <time>2019-05-31T07:36:41Z</time>
      </trkpt>
      <trkpt lat="42.390259" lon="1.721754">
        <ele>1287.217</ele>
        <time>2019-05-31T07:36:44Z</time>
      </trkpt>
      <trkpt lat="42.390343" lon="1.721719">
        <ele>1287.891</ele>
        <time>2019-05-31T07:36:50Z</time>
      </trkpt>
      <trkpt lat="42.390380" lon="1.721692">
        <ele>1288.257</ele>
        <time>2019-05-31T07:36:53Z</time>
      </trkpt>
      <trkpt lat="42.390456" lon="1.721649">
        <ele>1289.055</ele>
        <time>2019-05-31T07:36:59Z</time>
      </trkpt>
      <trkpt lat="42.390504" lon="1.721617">
        <ele>1289.029</ele>
        <time>2019-05-31T07:37:02Z</time>
      </trkpt>
      <trkpt lat="42.390627" lon="1.721471">
        <ele>1290.054</ele>
        <time>2019-05-31T07:37:11Z</time>
      </trkpt>
      <trkpt lat="42.390708" lon="1.721398">
        <ele>1290.648</ele>
        <time>2019-05-31T07:37:17Z</time>
      </trkpt>
      <trkpt lat="42.390788" lon="1.721380">
        <ele>1291.074</ele>
        <time>2019-05-31T07:37:23Z</time>
      </trkpt>
      <trkpt lat="42.390802" lon="1.721379">
        <ele>1291.047</ele>
        <time>2019-05-31T07:37:24Z</time>
      </trkpt>
      <trkpt lat="42.390893" lon="1.721340">
        <ele>1291.629</ele>
        <time>2019-05-31T07:37:31Z</time>
      </trkpt>
      <trkpt lat="42.391012" lon="1.721280">
        <ele>1292.621</ele>
        <time>2019-05-31T07:37:41Z</time>
      </trkpt>
      <trkpt lat="42.391029" lon="1.721264">
        <ele>1292.608</ele>
        <time>2019-05-31T07:37:42Z</time>
      </trkpt>
      <trkpt lat="42.391086" lon="1.721216">
        <ele>1293.267</ele>
        <time>2019-05-31T07:37:45Z</time>
      </trkpt>
      <trkpt lat="42.391143" lon="1.721159">
        <ele>1293.441</ele>
        <time>2019-05-31T07:37:48Z</time>
      </trkpt>
      <trkpt lat="42.391240" lon="1.721035">
        <ele>1294.277</ele>
        <time>2019-05-31T07:37:54Z</time>
      </trkpt>
      <trkpt lat="42.391254" lon="1.721017">
        <ele>1294.285</ele>
        <time>2019-05-31T07:37:55Z</time>
      </trkpt>
      <trkpt lat="42.391361" lon="1.720850">
        <ele>1295.089</ele>
        <time>2019-05-31T07:38:03Z</time>
      </trkpt>
      <trkpt lat="42.391401" lon="1.720795">
        <ele>1295.264</ele>
        <time>2019-05-31T07:38:06Z</time>
      </trkpt>
      <trkpt lat="42.391473" lon="1.720731">
        <ele>1295.838</ele>
        <time>2019-05-31T07:38:11Z</time>
      </trkpt>
      <trkpt lat="42.391577" lon="1.720631">
        <ele>1296.234</ele>
        <time>2019-05-31T07:38:17Z</time>
      </trkpt>
      <trkpt lat="42.391636" lon="1.720589">
        <ele>1296.498</ele>
        <time>2019-05-31T07:38:20Z</time>
      </trkpt>
      <trkpt lat="42.391673" lon="1.720576">
        <ele>1296.415</ele>
        <time>2019-05-31T07:38:22Z</time>
      </trkpt>
      <trkpt lat="42.391753" lon="1.720549">
        <ele>1296.026</ele>
        <time>2019-05-31T07:38:27Z</time>
      </trkpt>
      <trkpt lat="42.391832" lon="1.720459">
        <ele>1295.808</ele>
        <time>2019-05-31T07:38:30Z</time>
      </trkpt>
      <trkpt lat="42.391844" lon="1.720318">
        <ele>1296.612</ele>
        <time>2019-05-31T07:38:34Z</time>
      </trkpt>
      <trkpt lat="42.391802" lon="1.720221">
        <ele>1297.096</ele>
        <time>2019-05-31T07:38:38Z</time>
      </trkpt>
      <trkpt lat="42.391787" lon="1.720185">
        <ele>1297.482</ele>
        <time>2019-05-31T07:38:40Z</time>
      </trkpt>
      <trkpt lat="42.391774" lon="1.720170">
        <ele>1297.610</ele>
        <time>2019-05-31T07:38:41Z</time>
      </trkpt>
      <trkpt lat="42.391696" lon="1.720100">
        <ele>1298.064</ele>
        <time>2019-05-31T07:38:46Z</time>
      </trkpt>
      <trkpt lat="42.391610" lon="1.720082">
        <ele>1298.649</ele>
        <time>2019-05-31T07:38:51Z</time>
      </trkpt>
      <trkpt lat="42.391580" lon="1.720085">
        <ele>1298.643</ele>
        <time>2019-05-31T07:38:53Z</time>
      </trkpt>
      <trkpt lat="42.391446" lon="1.720101">
        <ele>1299.499</ele>
        <time>2019-05-31T07:39:01Z</time>
      </trkpt>
      <trkpt lat="42.391397" lon="1.720111">
        <ele>1299.693</ele>
        <time>2019-05-31T07:39:04Z</time>
      </trkpt>
      <trkpt lat="42.391365" lon="1.720117">
        <ele>1299.865</ele>
        <time>2019-05-31T07:39:06Z</time>
      </trkpt>
      <trkpt lat="42.391282" lon="1.720128">
        <ele>1300.421</ele>
        <time>2019-05-31T07:39:11Z</time>
      </trkpt>
      <trkpt lat="42.391250" lon="1.720137">
        <ele>1300.608</ele>
        <time>2019-05-31T07:39:13Z</time>
      </trkpt>
      <trkpt lat="42.391191" lon="1.720151">
        <ele>1301.012</ele>
        <time>2019-05-31T07:39:17Z</time>
      </trkpt>
      <trkpt lat="42.391143" lon="1.720163">
        <ele>1301.656</ele>
        <time>2019-05-31T07:39:20Z</time>
      </trkpt>
      <trkpt lat="42.391115" lon="1.720174">
        <ele>1300.462</ele>
        <time>2019-05-31T07:39:22Z</time>
      </trkpt>
      <trkpt lat="42.391087" lon="1.720185">
        <ele>1301.280</ele>
        <time>2019-05-31T07:39:24Z</time>
      </trkpt>
      <trkpt lat="42.391073" lon="1.720190">
        <ele>1302.834</ele>
        <time>2019-05-31T07:39:25Z</time>
      </trkpt>
      <trkpt lat="42.390958" lon="1.720206">
        <ele>1302.479</ele>
        <time>2019-05-31T07:39:33Z</time>
      </trkpt>
      <trkpt lat="42.390826" lon="1.720195">
        <ele>1303.623</ele>
        <time>2019-05-31T07:39:42Z</time>
      </trkpt>
      <trkpt lat="42.390788" lon="1.720175">
        <ele>1303.829</ele>
        <time>2019-05-31T07:39:45Z</time>
      </trkpt>
      <trkpt lat="42.390713" lon="1.720140">
        <ele>1304.435</ele>
        <time>2019-05-31T07:39:50Z</time>
      </trkpt>
      <trkpt lat="42.390662" lon="1.720129">
        <ele>1304.886</ele>
        <time>2019-05-31T07:39:54Z</time>
      </trkpt>
      <trkpt lat="42.390620" lon="1.720115">
        <ele>1305.414</ele>
        <time>2019-05-31T07:39:57Z</time>
      </trkpt>
      <trkpt lat="42.390518" lon="1.720091">
        <ele>1305.808</ele>
        <time>2019-05-31T07:40:04Z</time>
      </trkpt>
      <trkpt lat="42.390504" lon="1.720086">
        <ele>1306.036</ele>
        <time>2019-05-31T07:40:05Z</time>
      </trkpt>
      <trkpt lat="42.390416" lon="1.720079">
        <ele>1306.640</ele>
        <time>2019-05-31T07:40:11Z</time>
      </trkpt>
      <trkpt lat="42.390402" lon="1.720077">
        <ele>1306.826</ele>
        <time>2019-05-31T07:40:12Z</time>
      </trkpt>
      <trkpt lat="42.390389" lon="1.720079">
        <ele>1307.054</ele>
        <time>2019-05-31T07:40:13Z</time>
      </trkpt>
      <trkpt lat="42.390306" lon="1.720094">
        <ele>1307.448</ele>
        <time>2019-05-31T07:40:19Z</time>
      </trkpt>
      <trkpt lat="42.390275" lon="1.720095">
        <ele>1307.663</ele>
        <time>2019-05-31T07:40:21Z</time>
      </trkpt>
      <trkpt lat="42.390198" lon="1.720099">
        <ele>1308.097</ele>
        <time>2019-05-31T07:40:26Z</time>
      </trkpt>
      <trkpt lat="42.390153" lon="1.720098">
        <ele>1308.453</ele>
        <time>2019-05-31T07:40:29Z</time>
      </trkpt>
      <trkpt lat="42.390038" lon="1.720101">
        <ele>1308.834</ele>
        <time>2019-05-31T07:40:36Z</time>
      </trkpt>
      <trkpt lat="42.390024" lon="1.720097">
        <ele>1309.055</ele>
        <time>2019-05-31T07:40:37Z</time>
      </trkpt>
      <trkpt lat="42.389903" lon="1.720076">
        <ele>1309.810</ele>
        <time>2019-05-31T07:40:45Z</time>
      </trkpt>
      <trkpt lat="42.389873" lon="1.720067">
        <ele>1310.208</ele>
        <time>2019-05-31T07:40:47Z</time>
      </trkpt>
      <trkpt lat="42.389782" lon="1.720028">
        <ele>1311.086</ele>
        <time>2019-05-31T07:40:53Z</time>
      </trkpt>
      <trkpt lat="42.389769" lon="1.720013">
        <ele>1311.280</ele>
        <time>2019-05-31T07:40:54Z</time>
      </trkpt>
      <trkpt lat="42.389685" lon="1.719946">
        <ele>1311.466</ele>
        <time>2019-05-31T07:41:00Z</time>
      </trkpt>
      <trkpt lat="42.389602" lon="1.719831">
        <ele>1312.024</ele>
        <time>2019-05-31T07:41:07Z</time>
      </trkpt>
      <trkpt lat="42.389571" lon="1.719799">
        <ele>1312.278</ele>
        <time>2019-05-31T07:41:10Z</time>
      </trkpt>
      <trkpt lat="42.389513" lon="1.719740">
        <ele>1312.823</ele>
        <time>2019-05-31T07:41:14Z</time>
      </trkpt>
      <trkpt lat="42.389445" lon="1.719616">
        <ele>1313.237</ele>
        <time>2019-05-31T07:41:21Z</time>
      </trkpt>
      <trkpt lat="42.389416" lon="1.719579">
        <ele>1313.253</ele>
        <time>2019-05-31T07:41:23Z</time>
      </trkpt>
      <trkpt lat="42.389363" lon="1.719491">
        <ele>1313.633</ele>
        <time>2019-05-31T07:41:28Z</time>
      </trkpt>
      <trkpt lat="42.389253" lon="1.719390">
        <ele>1314.223</ele>
        <time>2019-05-31T07:41:35Z</time>
      </trkpt>
      <trkpt lat="42.389212" lon="1.719360">
        <ele>1314.215</ele>
        <time>2019-05-31T07:41:37Z</time>
      </trkpt>
      <trkpt lat="42.389111" lon="1.719304">
        <ele>1314.608</ele>
        <time>2019-05-31T07:41:42Z</time>
      </trkpt>
      <trkpt lat="42.389091" lon="1.719292">
        <ele>1314.646</ele>
        <time>2019-05-31T07:41:43Z</time>
      </trkpt>
      <trkpt lat="42.389021" lon="1.719241">
        <ele>1314.810</ele>
        <time>2019-05-31T07:41:47Z</time>
      </trkpt>
      <trkpt lat="42.388990" lon="1.719214">
        <ele>1315.286</ele>
        <time>2019-05-31T07:41:49Z</time>
      </trkpt>
      <trkpt lat="42.388975" lon="1.719205">
        <ele>1315.244</ele>
        <time>2019-05-31T07:41:50Z</time>
      </trkpt>
      <trkpt lat="42.388875" lon="1.719097">
        <ele>1316.268</ele>
        <time>2019-05-31T07:41:57Z</time>
      </trkpt>
      <trkpt lat="42.388863" lon="1.719081">
        <ele>1316.473</ele>
        <time>2019-05-31T07:41:58Z</time>
      </trkpt>
      <trkpt lat="42.388822" lon="1.718972">
        <ele>1316.867</ele>
        <time>2019-05-31T07:42:03Z</time>
      </trkpt>
      <trkpt lat="42.388812" lon="1.718798">
        <ele>1316.613</ele>
        <time>2019-05-31T07:42:10Z</time>
      </trkpt>
      <trkpt lat="42.388820" lon="1.718596">
        <ele>1317.039</ele>
        <time>2019-05-31T07:42:17Z</time>
      </trkpt>
      <trkpt lat="42.388831" lon="1.718547">
        <ele>1317.601</ele>
        <time>2019-05-31T07:42:19Z</time>
      </trkpt>
      <trkpt lat="42.388856" lon="1.718456">
        <ele>1318.421</ele>
        <time>2019-05-31T07:42:23Z</time>
      </trkpt>
      <trkpt lat="42.388862" lon="1.718435">
        <ele>1318.608</ele>
        <time>2019-05-31T07:42:24Z</time>
      </trkpt>
      <trkpt lat="42.388915" lon="1.718334">
        <ele>1319.286</ele>
        <time>2019-05-31T07:42:30Z</time>
      </trkpt>
      <trkpt lat="42.388943" lon="1.718281">
        <ele>1320.040</ele>
        <time>2019-05-31T07:42:33Z</time>
      </trkpt>
      <trkpt lat="42.388978" lon="1.718210">
        <ele>1318.866</ele>
        <time>2019-05-31T07:42:37Z</time>
      </trkpt>
      <trkpt lat="42.388985" lon="1.718193">
        <ele>1320.414</ele>
        <time>2019-05-31T07:42:38Z</time>
      </trkpt>
      <trkpt lat="42.389027" lon="1.718087">
        <ele>1321.268</ele>
        <time>2019-05-31T07:42:44Z</time>
      </trkpt>
      <trkpt lat="42.389054" lon="1.718036">
        <ele>1321.413</ele>
        <time>2019-05-31T07:42:47Z</time>
      </trkpt>
      <trkpt lat="42.389096" lon="1.717943">
        <ele>1321.847</ele>
        <time>2019-05-31T07:42:52Z</time>
      </trkpt>
      <trkpt lat="42.389125" lon="1.717829">
        <ele>1322.663</ele>
        <time>2019-05-31T07:42:58Z</time>
      </trkpt>
      <trkpt lat="42.389133" lon="1.717793">
        <ele>1322.675</ele>
        <time>2019-05-31T07:43:00Z</time>
      </trkpt>
      <trkpt lat="42.389147" lon="1.717655">
        <ele>1323.228</ele>
        <time>2019-05-31T07:43:07Z</time>
      </trkpt>
      <trkpt lat="42.389142" lon="1.717543">
        <ele>1323.420</ele>
        <time>2019-05-31T07:43:11Z</time>
      </trkpt>
      <trkpt lat="42.389139" lon="1.717407">
        <ele>1323.408</ele>
        <time>2019-05-31T07:43:16Z</time>
      </trkpt>
      <trkpt lat="42.389107" lon="1.717250">
        <ele>1323.680</ele>
        <time>2019-05-31T07:43:22Z</time>
      </trkpt>
      <trkpt lat="42.389084" lon="1.717191">
        <ele>1324.054</ele>
        <time>2019-05-31T07:43:25Z</time>
      </trkpt>
      <trkpt lat="42.388993" lon="1.716979">
        <ele>1324.440</ele>
        <time>2019-05-31T07:43:34Z</time>
      </trkpt>
      <trkpt lat="42.388897" lon="1.716821">
        <ele>1324.658</ele>
        <time>2019-05-31T07:43:42Z</time>
      </trkpt>
      <trkpt lat="42.388872" lon="1.716779">
        <ele>1324.892</ele>
        <time>2019-05-31T07:43:44Z</time>
      </trkpt>
      <trkpt lat="42.388803" lon="1.716663">
        <ele>1325.267</ele>
        <time>2019-05-31T07:43:50Z</time>
      </trkpt>
      <trkpt lat="42.388727" lon="1.716539">
        <ele>1325.821</ele>
        <time>2019-05-31T07:43:56Z</time>
      </trkpt>
      <trkpt lat="42.388702" lon="1.716505">
        <ele>1326.027</ele>
        <time>2019-05-31T07:43:58Z</time>
      </trkpt>
      <trkpt lat="42.388594" lon="1.716342">
        <ele>1326.831</ele>
        <time>2019-05-31T07:44:08Z</time>
      </trkpt>
      <trkpt lat="42.388585" lon="1.716324">
        <ele>1327.061</ele>
        <time>2019-05-31T07:44:09Z</time>
      </trkpt>
      <trkpt lat="42.388529" lon="1.716210">
        <ele>1327.607</ele>
        <time>2019-05-31T07:44:15Z</time>
      </trkpt>
      <trkpt lat="42.388495" lon="1.716142">
        <ele>1328.008</ele>
        <time>2019-05-31T07:44:18Z</time>
      </trkpt>
      <trkpt lat="42.388464" lon="1.716039">
        <ele>1328.496</ele>
        <time>2019-05-31T07:44:22Z</time>
      </trkpt>
      <trkpt lat="42.388454" lon="1.715994">
        <ele>1329.070</ele>
        <time>2019-05-31T07:44:24Z</time>
      </trkpt>
      <trkpt lat="42.388427" lon="1.715851">
        <ele>1329.826</ele>
        <time>2019-05-31T07:44:30Z</time>
      </trkpt>
      <trkpt lat="42.388424" lon="1.715821">
        <ele>1330.054</ele>
        <time>2019-05-31T07:44:31Z</time>
      </trkpt>
      <trkpt lat="42.388410" lon="1.715774">
        <ele>1329.028</ele>
        <time>2019-05-31T07:44:33Z</time>
      </trkpt>
      <trkpt lat="42.388389" lon="1.715713">
        <ele>1331.053</ele>
        <time>2019-05-31T07:44:36Z</time>
      </trkpt>
      <trkpt lat="42.388386" lon="1.715693">
        <ele>1331.027</ele>
        <time>2019-05-31T07:44:37Z</time>
      </trkpt>
      <trkpt lat="42.388318" lon="1.715568">
        <ele>1332.023</ele>
        <time>2019-05-31T07:44:45Z</time>
      </trkpt>
      <trkpt lat="42.388305" lon="1.715557">
        <ele>1332.086</ele>
        <time>2019-05-31T07:44:46Z</time>
      </trkpt>
      <trkpt lat="42.388192" lon="1.715499">
        <ele>1332.860</ele>
        <time>2019-05-31T07:44:53Z</time>
      </trkpt>
      <trkpt lat="42.388036" lon="1.715487">
        <ele>1333.026</ele>
        <time>2019-05-31T07:45:01Z</time>
      </trkpt>
      <trkpt lat="42.388001" lon="1.715486">
        <ele>1333.208</ele>
        <time>2019-05-31T07:45:03Z</time>
      </trkpt>
      <trkpt lat="42.387871" lon="1.715476">
        <ele>1333.211</ele>
        <time>2019-05-31T07:45:09Z</time>
      </trkpt>
      <trkpt lat="42.387801" lon="1.715436">
        <ele>1333.835</ele>
        <time>2019-05-31T07:45:13Z</time>
      </trkpt>
      <trkpt lat="42.387797" lon="1.715409">
        <ele>1334.061</ele>
        <time>2019-05-31T07:45:14Z</time>
      </trkpt>
      <trkpt lat="42.387874" lon="1.715328">
        <ele>1333.449</ele>
        <time>2019-05-31T07:45:18Z</time>
      </trkpt>
      <trkpt lat="42.387915" lon="1.715315">
        <ele>1333.053</ele>
        <time>2019-05-31T07:45:19Z</time>
      </trkpt>
      <trkpt lat="42.388101" lon="1.715268">
        <ele>1332.218</ele>
        <time>2019-05-31T07:45:23Z</time>
      </trkpt>
      <trkpt lat="42.388145" lon="1.715253">
        <ele>1331.812</ele>
        <time>2019-05-31T07:45:24Z</time>
      </trkpt>
      <trkpt lat="42.388316" lon="1.715191">
        <ele>1331.218</ele>
        <time>2019-05-31T07:45:28Z</time>
      </trkpt>
      <trkpt lat="42.388355" lon="1.715169">
        <ele>1331.021</ele>
        <time>2019-05-31T07:45:29Z</time>
      </trkpt>
      <trkpt lat="42.388567" lon="1.715084">
        <ele>1331.841</ele>
        <time>2019-05-31T07:45:35Z</time>
      </trkpt>
      <trkpt lat="42.388733" lon="1.715070">
        <ele>1332.605</ele>
        <time>2019-05-31T07:45:41Z</time>
      </trkpt>
      <trkpt lat="42.388758" lon="1.715069">
        <ele>1332.808</ele>
        <time>2019-05-31T07:45:42Z</time>
      </trkpt>
      <trkpt lat="42.388948" lon="1.715056">
        <ele>1333.855</ele>
        <time>2019-05-31T07:45:50Z</time>
      </trkpt>
      <trkpt lat="42.388971" lon="1.715052">
        <ele>1333.829</ele>
        <time>2019-05-31T07:45:51Z</time>
      </trkpt>
      <trkpt lat="42.389153" lon="1.715028">
        <ele>1334.845</ele>
        <time>2019-05-31T07:45:59Z</time>
      </trkpt>
      <trkpt lat="42.389172" lon="1.715024">
        <ele>1335.093</ele>
        <time>2019-05-31T07:46:00Z</time>
      </trkpt>
      <trkpt lat="42.389351" lon="1.714993">
        <ele>1336.077</ele>
        <time>2019-05-31T07:46:08Z</time>
      </trkpt>
      <trkpt lat="42.389373" lon="1.714990">
        <ele>1336.052</ele>
        <time>2019-05-31T07:46:09Z</time>
      </trkpt>
      <trkpt lat="42.389532" lon="1.714955">
        <ele>1337.096</ele>
        <time>2019-05-31T07:46:16Z</time>
      </trkpt>
      <trkpt lat="42.389601" lon="1.714944">
        <ele>1337.412</ele>
        <time>2019-05-31T07:46:19Z</time>
      </trkpt>
      <trkpt lat="42.389716" lon="1.714926">
        <ele>1338.215</ele>
        <time>2019-05-31T07:46:24Z</time>
      </trkpt>
      <trkpt lat="42.389810" lon="1.714905">
        <ele>1338.865</ele>
        <time>2019-05-31T07:46:29Z</time>
      </trkpt>
      <trkpt lat="42.389877" lon="1.714893">
        <ele>1339.211</ele>
        <time>2019-05-31T07:46:32Z</time>
      </trkpt>
      <trkpt lat="42.389944" lon="1.714883">
        <ele>1339.608</ele>
        <time>2019-05-31T07:46:35Z</time>
      </trkpt>
      <trkpt lat="42.390148" lon="1.714848">
        <ele>1340.294</ele>
        <time>2019-05-31T07:46:44Z</time>
      </trkpt>
      <trkpt lat="42.390175" lon="1.714847">
        <ele>1340.418</ele>
        <time>2019-05-31T07:46:45Z</time>
      </trkpt>
      <trkpt lat="42.390399" lon="1.714859">
        <ele>1340.874</ele>
        <time>2019-05-31T07:46:54Z</time>
      </trkpt>
      <trkpt lat="42.390538" lon="1.714912">
        <ele>1340.082</ele>
        <time>2019-05-31T07:46:58Z</time>
      </trkpt>
      <trkpt lat="42.390583" lon="1.714937">
        <ele>1339.656</ele>
        <time>2019-05-31T07:46:59Z</time>
      </trkpt>
      <trkpt lat="42.390631" lon="1.714967">
        <ele>1339.221</ele>
        <time>2019-05-31T07:47:00Z</time>
      </trkpt>
      <trkpt lat="42.390785" lon="1.715061">
        <ele>1338.215</ele>
        <time>2019-05-31T07:47:03Z</time>
      </trkpt>
      <trkpt lat="42.390896" lon="1.715117">
        <ele>1337.831</ele>
        <time>2019-05-31T07:47:05Z</time>
      </trkpt>
      <trkpt lat="42.391011" lon="1.715149">
        <ele>1337.644</ele>
        <time>2019-05-31T07:47:07Z</time>
      </trkpt>
      <trkpt lat="42.391114" lon="1.715141">
        <ele>1337.805</ele>
        <time>2019-05-31T07:47:09Z</time>
      </trkpt>
      <trkpt lat="42.391287" lon="1.715048">
        <ele>1339.015</ele>
        <time>2019-05-31T07:47:13Z</time>
      </trkpt>
      <trkpt lat="42.391428" lon="1.714925">
        <ele>1339.608</ele>
        <time>2019-05-31T07:47:17Z</time>
      </trkpt>
      <trkpt lat="42.391519" lon="1.714853">
        <ele>1340.477</ele>
        <time>2019-05-31T07:47:20Z</time>
      </trkpt>
      <trkpt lat="42.391546" lon="1.714828">
        <ele>1340.831</ele>
        <time>2019-05-31T07:47:21Z</time>
      </trkpt>
      <trkpt lat="42.391680" lon="1.714712">
        <ele>1341.847</ele>
        <time>2019-05-31T07:47:26Z</time>
      </trkpt>
      <trkpt lat="42.391732" lon="1.714651">
        <ele>1342.055</ele>
        <time>2019-05-31T07:47:28Z</time>
      </trkpt>
      <trkpt lat="42.391931" lon="1.714492">
        <ele>1342.819</ele>
        <time>2019-05-31T07:47:35Z</time>
      </trkpt>
      <trkpt lat="42.391959" lon="1.714479">
        <ele>1343.024</ele>
        <time>2019-05-31T07:47:36Z</time>
      </trkpt>
      <trkpt lat="42.392198" lon="1.714352">
        <ele>1343.498</ele>
        <time>2019-05-31T07:47:44Z</time>
      </trkpt>
      <trkpt lat="42.392376" lon="1.714114">
        <ele>1343.654</ele>
        <time>2019-05-31T07:47:51Z</time>
      </trkpt>
      <trkpt lat="42.392453" lon="1.713979">
        <ele>1344.057</ele>
        <time>2019-05-31T07:47:55Z</time>
      </trkpt>
      <trkpt lat="42.392483" lon="1.713933">
        <ele>1344.600</ele>
        <time>2019-05-31T07:47:57Z</time>
      </trkpt>
      <trkpt lat="42.392517" lon="1.713881">
        <ele>1345.220</ele>
        <time>2019-05-31T07:48:00Z</time>
      </trkpt>
      <trkpt lat="42.392557" lon="1.713833">
        <ele>1345.808</ele>
        <time>2019-05-31T07:48:03Z</time>
      </trkpt>
      <trkpt lat="42.392601" lon="1.713797">
        <ele>1346.448</ele>
        <time>2019-05-31T07:48:06Z</time>
      </trkpt>
      <trkpt lat="42.392721" lon="1.713741">
        <ele>1347.292</ele>
        <time>2019-05-31T07:48:13Z</time>
      </trkpt>
      <trkpt lat="42.392738" lon="1.713741">
        <ele>1347.458</ele>
        <time>2019-05-31T07:48:14Z</time>
      </trkpt>
      <trkpt lat="42.392863" lon="1.713771">
        <ele>1348.246</ele>
        <time>2019-05-31T07:48:21Z</time>
      </trkpt>
      <trkpt lat="42.392922" lon="1.713782">
        <ele>1348.430</ele>
        <time>2019-05-31T07:48:24Z</time>
      </trkpt>
      <trkpt lat="42.393007" lon="1.713807">
        <ele>1348.415</ele>
        <time>2019-05-31T07:48:28Z</time>
      </trkpt>
      <trkpt lat="42.393171" lon="1.713824">
        <ele>1348.499</ele>
        <time>2019-05-31T07:48:35Z</time>
      </trkpt>
      <trkpt lat="42.393339" lon="1.713818">
        <ele>1348.285</ele>
        <time>2019-05-31T07:48:41Z</time>
      </trkpt>
      <trkpt lat="42.393527" lon="1.713764">
        <ele>1349.258</ele>
        <time>2019-05-31T07:48:49Z</time>
      </trkpt>
      <trkpt lat="42.393566" lon="1.713751">
        <ele>1349.652</ele>
        <time>2019-05-31T07:48:51Z</time>
      </trkpt>
      <trkpt lat="42.393687" lon="1.713725">
        <ele>1350.217</ele>
        <time>2019-05-31T07:48:57Z</time>
      </trkpt>
      <trkpt lat="42.393763" lon="1.713724">
        <ele>1350.608</ele>
        <time>2019-05-31T07:49:01Z</time>
      </trkpt>
      <trkpt lat="42.393820" lon="1.713743">
        <ele>1351.098</ele>
        <time>2019-05-31T07:49:04Z</time>
      </trkpt>
      <trkpt lat="42.393957" lon="1.713789">
        <ele>1351.632</ele>
        <time>2019-05-31T07:49:11Z</time>
      </trkpt>
      <trkpt lat="42.393994" lon="1.713788">
        <ele>1352.098</ele>
        <time>2019-05-31T07:49:13Z</time>
      </trkpt>
      <trkpt lat="42.394063" lon="1.713761">
        <ele>1352.876</ele>
        <time>2019-05-31T07:49:17Z</time>
      </trkpt>
      <trkpt lat="42.394103" lon="1.713713">
        <ele>1353.480</ele>
        <time>2019-05-31T07:49:20Z</time>
      </trkpt>
      <trkpt lat="42.394144" lon="1.713642">
        <ele>1353.815</ele>
        <time>2019-05-31T07:49:24Z</time>
      </trkpt>
      <trkpt lat="42.394207" lon="1.713559">
        <ele>1355.029</ele>
        <time>2019-05-31T07:49:29Z</time>
      </trkpt>
      <trkpt lat="42.394321" lon="1.713487">
        <ele>1356.085</ele>
        <time>2019-05-31T07:49:37Z</time>
      </trkpt>
      <trkpt lat="42.394338" lon="1.713478">
        <ele>1355.652</ele>
        <time>2019-05-31T07:49:38Z</time>
      </trkpt>
      <trkpt lat="42.394486" lon="1.713420">
        <ele>1356.653</ele>
        <time>2019-05-31T07:49:47Z</time>
      </trkpt>
      <trkpt lat="42.394510" lon="1.713395">
        <ele>1357.008</ele>
        <time>2019-05-31T07:49:49Z</time>
      </trkpt>
      <trkpt lat="42.394594" lon="1.713334">
        <ele>1357.408</ele>
        <time>2019-05-31T07:49:55Z</time>
      </trkpt>
      <trkpt lat="42.394644" lon="1.713287">
        <ele>1358.088</ele>
        <time>2019-05-31T07:49:59Z</time>
      </trkpt>
      <trkpt lat="42.394710" lon="1.713232">
        <ele>1358.632</ele>
        <time>2019-05-31T07:50:04Z</time>
      </trkpt>
      <trkpt lat="42.394750" lon="1.713202">
        <ele>1359.258</ele>
        <time>2019-05-31T07:50:07Z</time>
      </trkpt>
      <trkpt lat="42.394827" lon="1.713129">
        <ele>1359.856</ele>
        <time>2019-05-31T07:50:13Z</time>
      </trkpt>
      <trkpt lat="42.394869" lon="1.713097">
        <ele>1360.240</ele>
        <time>2019-05-31T07:50:16Z</time>
      </trkpt>
      <trkpt lat="42.394951" lon="1.713000">
        <ele>1361.295</ele>
        <time>2019-05-31T07:50:23Z</time>
      </trkpt>
      <trkpt lat="42.395033" lon="1.712939">
        <ele>1362.279</ele>
        <time>2019-05-31T07:50:29Z</time>
      </trkpt>
      <trkpt lat="42.395081" lon="1.712890">
        <ele>1362.855</ele>
        <time>2019-05-31T07:50:33Z</time>
      </trkpt>
      <trkpt lat="42.395106" lon="1.712869">
        <ele>1363.225</ele>
        <time>2019-05-31T07:50:35Z</time>
      </trkpt>
      <trkpt lat="42.395191" lon="1.712811">
        <ele>1364.226</ele>
        <time>2019-05-31T07:50:41Z</time>
      </trkpt>
      <trkpt lat="42.395218" lon="1.712791">
        <ele>1364.808</ele>
        <time>2019-05-31T07:50:43Z</time>
      </trkpt>
      <trkpt lat="42.395310" lon="1.712759">
        <ele>1365.208</ele>
        <time>2019-05-31T07:50:49Z</time>
      </trkpt>
      <trkpt lat="42.395410" lon="1.712747">
        <ele>1365.885</ele>
        <time>2019-05-31T07:50:56Z</time>
      </trkpt>
      <trkpt lat="42.395428" lon="1.712749">
        <ele>1365.819</ele>
        <time>2019-05-31T07:50:57Z</time>
      </trkpt>
      <trkpt lat="42.395550" lon="1.712779">
        <ele>1366.825</ele>
        <time>2019-05-31T07:51:05Z</time>
      </trkpt>
      <trkpt lat="42.395564" lon="1.712789">
        <ele>1366.823</ele>
        <time>2019-05-31T07:51:06Z</time>
      </trkpt>
      <trkpt lat="42.395642" lon="1.712819">
        <ele>1367.297</ele>
        <time>2019-05-31T07:51:12Z</time>
      </trkpt>
      <trkpt lat="42.395769" lon="1.712833">
        <ele>1367.662</ele>
        <time>2019-05-31T07:51:19Z</time>
      </trkpt>
      <trkpt lat="42.395852" lon="1.712752">
        <ele>1367.826</ele>
        <time>2019-05-31T07:51:24Z</time>
      </trkpt>
      <trkpt lat="42.395860" lon="1.712729">
        <ele>1368.062</ele>
        <time>2019-05-31T07:51:25Z</time>
      </trkpt>
      <trkpt lat="42.395901" lon="1.712602">
        <ele>1368.682</ele>
        <time>2019-05-31T07:51:31Z</time>
      </trkpt>
      <trkpt lat="42.395924" lon="1.712513">
        <ele>1369.043</ele>
        <time>2019-05-31T07:51:35Z</time>
      </trkpt>
      <trkpt lat="42.395948" lon="1.712437">
        <ele>1369.617</ele>
        <time>2019-05-31T07:51:39Z</time>
      </trkpt>
      <trkpt lat="42.395975" lon="1.712357">
        <ele>1370.008</ele>
        <time>2019-05-31T07:51:43Z</time>
      </trkpt>
      <trkpt lat="42.396021" lon="1.712264">
        <ele>1370.451</ele>
        <time>2019-05-31T07:51:48Z</time>
      </trkpt>
      <trkpt lat="42.396145" lon="1.712071">
        <ele>1370.815</ele>
        <time>2019-05-31T07:51:58Z</time>
      </trkpt>
      <trkpt lat="42.396173" lon="1.712033">
        <ele>1371.011</ele>
        <time>2019-05-31T07:52:00Z</time>
      </trkpt>
      <trkpt lat="42.396239" lon="1.711952">
        <ele>1371.269</ele>
        <time>2019-05-31T07:52:05Z</time>
      </trkpt>
      <trkpt lat="42.396293" lon="1.711896">
        <ele>1372.233</ele>
        <time>2019-05-31T07:52:09Z</time>
      </trkpt>
      <trkpt lat="42.396365" lon="1.711836">
        <ele>1372.418</ele>
        <time>2019-05-31T07:52:14Z</time>
      </trkpt>
      <trkpt lat="42.396381" lon="1.711825">
        <ele>1372.452</ele>
        <time>2019-05-31T07:52:15Z</time>
      </trkpt>
      <trkpt lat="42.396439" lon="1.711759">
        <ele>1373.218</ele>
        <time>2019-05-31T07:52:20Z</time>
      </trkpt>
      <trkpt lat="42.396450" lon="1.711754">
        <ele>1373.489</ele>
        <time>2019-05-31T07:52:21Z</time>
      </trkpt>
      <trkpt lat="42.396460" lon="1.711744">
        <ele>1373.406</ele>
        <time>2019-05-31T07:52:22Z</time>
      </trkpt>
      <trkpt lat="42.396497" lon="1.711719">
        <ele>1373.826</ele>
        <time>2019-05-31T07:52:25Z</time>
      </trkpt>
      <trkpt lat="42.396536" lon="1.711695">
        <ele>1374.008</ele>
        <time>2019-05-31T07:52:28Z</time>
      </trkpt>
      <trkpt lat="42.396548" lon="1.711687">
        <ele>1374.261</ele>
        <time>2019-05-31T07:52:29Z</time>
      </trkpt>
      <trkpt lat="42.396646" lon="1.711623">
        <ele>1375.095</ele>
        <time>2019-05-31T07:52:37Z</time>
      </trkpt>
      <trkpt lat="42.396674" lon="1.711605">
        <ele>1375.411</ele>
        <time>2019-05-31T07:52:39Z</time>
      </trkpt>
      <trkpt lat="42.396754" lon="1.711575">
        <ele>1376.299</ele>
        <time>2019-05-31T07:52:45Z</time>
      </trkpt>
      <trkpt lat="42.396807" lon="1.711550">
        <ele>1376.853</ele>
        <time>2019-05-31T07:52:49Z</time>
      </trkpt>
      <trkpt lat="42.396861" lon="1.711534">
        <ele>1377.238</ele>
        <time>2019-05-31T07:52:53Z</time>
      </trkpt>
      <trkpt lat="42.396910" lon="1.711508">
        <ele>1377.832</ele>
        <time>2019-05-31T07:52:57Z</time>
      </trkpt>
      <trkpt lat="42.396967" lon="1.711483">
        <ele>1378.248</ele>
        <time>2019-05-31T07:53:01Z</time>
      </trkpt>
      <trkpt lat="42.397037" lon="1.711465">
        <ele>1378.818</ele>
        <time>2019-05-31T07:53:06Z</time>
      </trkpt>
      <trkpt lat="42.397099" lon="1.711451">
        <ele>1379.498</ele>
        <time>2019-05-31T07:53:10Z</time>
      </trkpt>
      <trkpt lat="42.397142" lon="1.711445">
        <ele>1380.017</ele>
        <time>2019-05-31T07:53:13Z</time>
      </trkpt>
      <trkpt lat="42.397216" lon="1.711416">
        <ele>1380.808</ele>
        <time>2019-05-31T07:53:18Z</time>
      </trkpt>
      <trkpt lat="42.397277" lon="1.711409">
        <ele>1381.234</ele>
        <time>2019-05-31T07:53:22Z</time>
      </trkpt>
      <trkpt lat="42.397358" lon="1.711396">
        <ele>1381.858</ele>
        <time>2019-05-31T07:53:27Z</time>
      </trkpt>
      <trkpt lat="42.397420" lon="1.711386">
        <ele>1382.264</ele>
        <time>2019-05-31T07:53:31Z</time>
      </trkpt>
      <trkpt lat="42.397532" lon="1.711377">
        <ele>1383.072</ele>
        <time>2019-05-31T07:53:38Z</time>
      </trkpt>
      <trkpt lat="42.397564" lon="1.711380">
        <ele>1383.446</ele>
        <time>2019-05-31T07:53:40Z</time>
      </trkpt>
      <trkpt lat="42.397664" lon="1.711373">
        <ele>1384.041</ele>
        <time>2019-05-31T07:53:46Z</time>
      </trkpt>
      <trkpt lat="42.397786" lon="1.711370">
        <ele>1384.455</ele>
        <time>2019-05-31T07:53:53Z</time>
      </trkpt>
      <trkpt lat="42.397805" lon="1.711378">
        <ele>1384.431</ele>
        <time>2019-05-31T07:53:54Z</time>
      </trkpt>
      <trkpt lat="42.397930" lon="1.711394">
        <ele>1384.619</ele>
        <time>2019-05-31T07:54:01Z</time>
      </trkpt>
      <trkpt lat="42.398085" lon="1.711426">
        <ele>1385.009</ele>
        <time>2019-05-31T07:54:09Z</time>
      </trkpt>
      <trkpt lat="42.398211" lon="1.711469">
        <ele>1385.419</ele>
        <time>2019-05-31T07:54:16Z</time>
      </trkpt>
      <trkpt lat="42.398385" lon="1.711495">
        <ele>1385.408</ele>
        <time>2019-05-31T07:54:24Z</time>
      </trkpt>
      <trkpt lat="42.398435" lon="1.711482">
        <ele>1385.494</ele>
        <time>2019-05-31T07:54:26Z</time>
      </trkpt>
      <trkpt lat="42.398528" lon="1.711449">
        <ele>1386.048</ele>
        <time>2019-05-31T07:54:31Z</time>
      </trkpt>
      <trkpt lat="42.398585" lon="1.711424">
        <ele>1386.454</ele>
        <time>2019-05-31T07:54:34Z</time>
      </trkpt>
      <trkpt lat="42.398693" lon="1.711380">
        <ele>1386.882</ele>
        <time>2019-05-31T07:54:40Z</time>
      </trkpt>
      <trkpt lat="42.398796" lon="1.711315">
        <ele>1387.456</ele>
        <time>2019-05-31T07:54:46Z</time>
      </trkpt>
      <trkpt lat="42.398908" lon="1.711239">
        <ele>1388.611</ele>
        <time>2019-05-31T07:54:54Z</time>
      </trkpt>
      <trkpt lat="42.398923" lon="1.711229">
        <ele>1388.675</ele>
        <time>2019-05-31T07:54:55Z</time>
      </trkpt>
      <trkpt lat="42.399016" lon="1.711171">
        <ele>1389.671</ele>
        <time>2019-05-31T07:55:02Z</time>
      </trkpt>
      <trkpt lat="42.399060" lon="1.711144">
        <ele>1390.043</ele>
        <time>2019-05-31T07:55:05Z</time>
      </trkpt>
      <trkpt lat="42.399140" lon="1.711101">
        <ele>1390.664</ele>
        <time>2019-05-31T07:55:10Z</time>
      </trkpt>
      <trkpt lat="42.399211" lon="1.711053">
        <ele>1391.210</ele>
        <time>2019-05-31T07:55:15Z</time>
      </trkpt>
      <trkpt lat="42.399252" lon="1.711026">
        <ele>1391.608</ele>
        <time>2019-05-31T07:55:18Z</time>
      </trkpt>
      <trkpt lat="42.399357" lon="1.710972">
        <ele>1392.247</ele>
        <time>2019-05-31T07:55:26Z</time>
      </trkpt>
      <trkpt lat="42.399386" lon="1.710957">
        <ele>1392.891</ele>
        <time>2019-05-31T07:55:29Z</time>
      </trkpt>
      <trkpt lat="42.399434" lon="1.710939">
        <ele>1393.217</ele>
        <time>2019-05-31T07:55:33Z</time>
      </trkpt>
      <trkpt lat="42.399486" lon="1.710930">
        <ele>1393.835</ele>
        <time>2019-05-31T07:55:37Z</time>
      </trkpt>
      <trkpt lat="42.399494" lon="1.710918">
        <ele>1394.059</ele>
        <time>2019-05-31T07:55:38Z</time>
      </trkpt>
      <trkpt lat="42.399523" lon="1.710907">
        <ele>1394.294</ele>
        <time>2019-05-31T07:55:40Z</time>
      </trkpt>
      <trkpt lat="42.399561" lon="1.710909">
        <ele>1394.858</ele>
        <time>2019-05-31T07:55:43Z</time>
      </trkpt>
      <trkpt lat="42.399573" lon="1.710909">
        <ele>1394.824</ele>
        <time>2019-05-31T07:55:44Z</time>
      </trkpt>
      <trkpt lat="42.399624" lon="1.710898">
        <ele>1395.439</ele>
        <time>2019-05-31T07:55:48Z</time>
      </trkpt>
      <trkpt lat="42.399636" lon="1.710893">
        <ele>1395.601</ele>
        <time>2019-05-31T07:55:49Z</time>
      </trkpt>
      <trkpt lat="42.399677" lon="1.710881">
        <ele>1395.821</ele>
        <time>2019-05-31T07:55:52Z</time>
      </trkpt>
      <trkpt lat="42.399761" lon="1.710878">
        <ele>1396.408</ele>
        <time>2019-05-31T07:55:58Z</time>
      </trkpt>
      <trkpt lat="42.399798" lon="1.710873">
        <ele>1397.076</ele>
        <time>2019-05-31T07:56:01Z</time>
      </trkpt>
      <trkpt lat="42.399871" lon="1.710879">
        <ele>1397.650</ele>
        <time>2019-05-31T07:56:07Z</time>
      </trkpt>
      <trkpt lat="42.399917" lon="1.710877">
        <ele>1398.036</ele>
        <time>2019-05-31T07:56:11Z</time>
      </trkpt>
      <trkpt lat="42.399934" lon="1.710869">
        <ele>1398.474</ele>
        <time>2019-05-31T07:56:14Z</time>
      </trkpt>
      <trkpt lat="42.400069" lon="1.710840">
        <ele>1399.868</ele>
        <time>2019-05-31T07:56:25Z</time>
      </trkpt>
      <trkpt lat="42.400109" lon="1.710842">
        <ele>1400.253</ele>
        <time>2019-05-31T07:56:28Z</time>
      </trkpt>
      <trkpt lat="42.400161" lon="1.710834">
        <ele>1401.027</ele>
        <time>2019-05-31T07:56:32Z</time>
      </trkpt>
      <trkpt lat="42.400190" lon="1.710832">
        <ele>1401.233</ele>
        <time>2019-05-31T07:56:34Z</time>
      </trkpt>
      <trkpt lat="42.400300" lon="1.710784">
        <ele>1402.259</ele>
        <time>2019-05-31T07:56:40Z</time>
      </trkpt>
      <trkpt lat="42.400315" lon="1.710784">
        <ele>1402.403</ele>
        <time>2019-05-31T07:56:41Z</time>
      </trkpt>
      <trkpt lat="42.400350" lon="1.710797">
        <ele>1402.623</ele>
        <time>2019-05-31T07:56:43Z</time>
      </trkpt>
      <trkpt lat="42.400392" lon="1.710817">
        <ele>1403.008</ele>
        <time>2019-05-31T07:56:45Z</time>
      </trkpt>
      <trkpt lat="42.400421" lon="1.710830">
        <ele>1403.288</ele>
        <time>2019-05-31T07:56:47Z</time>
      </trkpt>
      <trkpt lat="42.400454" lon="1.710807">
        <ele>1403.822</ele>
        <time>2019-05-31T07:56:50Z</time>
      </trkpt>
      <trkpt lat="42.400479" lon="1.710808">
        <ele>1404.288</ele>
        <time>2019-05-31T07:56:52Z</time>
      </trkpt>
      <trkpt lat="42.400516" lon="1.710820">
        <ele>1404.646</ele>
        <time>2019-05-31T07:56:55Z</time>
      </trkpt>
      <trkpt lat="42.400599" lon="1.710831">
        <ele>1405.450</ele>
        <time>2019-05-31T07:57:01Z</time>
      </trkpt>
      <trkpt lat="42.400612" lon="1.710823">
        <ele>1405.695</ele>
        <time>2019-05-31T07:57:02Z</time>
      </trkpt>
      <trkpt lat="42.400709" lon="1.710813">
        <ele>1406.239</ele>
        <time>2019-05-31T07:57:08Z</time>
      </trkpt>
      <trkpt lat="42.400725" lon="1.710805">
        <ele>1406.435</ele>
        <time>2019-05-31T07:57:09Z</time>
      </trkpt>
      <trkpt lat="42.400806" lon="1.710801">
        <ele>1407.226</ele>
        <time>2019-05-31T07:57:15Z</time>
      </trkpt>
      <trkpt lat="42.400822" lon="1.710810">
        <ele>1407.447</ele>
        <time>2019-05-31T07:57:16Z</time>
      </trkpt>
      <trkpt lat="42.400866" lon="1.710792">
        <ele>1407.811</ele>
        <time>2019-05-31T07:57:19Z</time>
      </trkpt>
      <trkpt lat="42.400884" lon="1.710786">
        <ele>1408.008</ele>
        <time>2019-05-31T07:57:20Z</time>
      </trkpt>
      <trkpt lat="42.400930" lon="1.710795">
        <ele>1408.675</ele>
        <time>2019-05-31T07:57:23Z</time>
      </trkpt>
      <trkpt lat="42.400937" lon="1.710803">
        <ele>1408.639</ele>
        <time>2019-05-31T07:57:24Z</time>
      </trkpt>
      <trkpt lat="42.400968" lon="1.710811">
        <ele>1408.885</ele>
        <time>2019-05-31T07:57:26Z</time>
      </trkpt>
      <trkpt lat="42.401029" lon="1.710774">
        <ele>1409.673</ele>
        <time>2019-05-31T07:57:30Z</time>
      </trkpt>
      <trkpt lat="42.401061" lon="1.710773">
        <ele>1409.877</ele>
        <time>2019-05-31T07:57:32Z</time>
      </trkpt>
      <trkpt lat="42.401137" lon="1.710728">
        <ele>1410.612</ele>
        <time>2019-05-31T07:57:37Z</time>
      </trkpt>
      <trkpt lat="42.401168" lon="1.710707">
        <ele>1410.836</ele>
        <time>2019-05-31T07:57:39Z</time>
      </trkpt>
      <trkpt lat="42.401184" lon="1.710698">
        <ele>1411.092</ele>
        <time>2019-05-31T07:57:40Z</time>
      </trkpt>
      <trkpt lat="42.401235" lon="1.710668">
        <ele>1411.484</ele>
        <time>2019-05-31T07:57:43Z</time>
      </trkpt>
      <trkpt lat="42.401279" lon="1.710637">
        <ele>1411.607</ele>
        <time>2019-05-31T07:57:46Z</time>
      </trkpt>
      <trkpt lat="42.401294" lon="1.710628">
        <ele>1411.617</ele>
        <time>2019-05-31T07:57:47Z</time>
      </trkpt>
      <trkpt lat="42.401399" lon="1.710589">
        <ele>1412.208</ele>
        <time>2019-05-31T07:57:54Z</time>
      </trkpt>
      <trkpt lat="42.401499" lon="1.710536">
        <ele>1412.811</ele>
        <time>2019-05-31T07:58:01Z</time>
      </trkpt>
      <trkpt lat="42.401542" lon="1.710523">
        <ele>1412.855</ele>
        <time>2019-05-31T07:58:04Z</time>
      </trkpt>
      <trkpt lat="42.401650" lon="1.710494">
        <ele>1413.611</ele>
        <time>2019-05-31T07:58:11Z</time>
      </trkpt>
      <trkpt lat="42.401674" lon="1.710488">
        <ele>1413.829</ele>
        <time>2019-05-31T07:58:13Z</time>
      </trkpt>
      <trkpt lat="42.401782" lon="1.710462">
        <ele>1412.653</ele>
        <time>2019-05-31T07:58:19Z</time>
      </trkpt>
      <trkpt lat="42.401798" lon="1.710457">
        <ele>1414.898</ele>
        <time>2019-05-31T07:58:20Z</time>
      </trkpt>
      <trkpt lat="42.401938" lon="1.710416">
        <ele>1415.442</ele>
        <time>2019-05-31T07:58:30Z</time>
      </trkpt>
      <trkpt lat="42.401968" lon="1.710402">
        <ele>1415.898</ele>
        <time>2019-05-31T07:58:32Z</time>
      </trkpt>
      <trkpt lat="42.402043" lon="1.710411">
        <ele>1416.468</ele>
        <time>2019-05-31T07:58:37Z</time>
      </trkpt>
      <trkpt lat="42.402116" lon="1.710427">
        <ele>1417.042</ele>
        <time>2019-05-31T07:58:42Z</time>
      </trkpt>
      <trkpt lat="42.402154" lon="1.710435">
        <ele>1417.426</ele>
        <time>2019-05-31T07:58:45Z</time>
      </trkpt>
      <trkpt lat="42.402202" lon="1.710442">
        <ele>1418.008</ele>
        <time>2019-05-31T07:58:49Z</time>
      </trkpt>
      <trkpt lat="42.402227" lon="1.710452">
        <ele>1418.669</ele>
        <time>2019-05-31T07:58:51Z</time>
      </trkpt>
      <trkpt lat="42.402260" lon="1.710464">
        <ele>1419.093</ele>
        <time>2019-05-31T07:58:54Z</time>
      </trkpt>
      <trkpt lat="42.402320" lon="1.710454">
        <ele>1420.029</ele>
        <time>2019-05-31T07:58:59Z</time>
      </trkpt>
      <trkpt lat="42.402332" lon="1.710444">
        <ele>1420.287</ele>
        <time>2019-05-31T07:59:00Z</time>
      </trkpt>
      <trkpt lat="42.402368" lon="1.710476">
        <ele>1420.821</ele>
        <time>2019-05-31T07:59:04Z</time>
      </trkpt>
      <trkpt lat="42.402393" lon="1.710489">
        <ele>1421.046</ele>
        <time>2019-05-31T07:59:06Z</time>
      </trkpt>
      <trkpt lat="42.402402" lon="1.710487">
        <ele>1421.460</ele>
        <time>2019-05-31T07:59:07Z</time>
      </trkpt>
      <trkpt lat="42.402431" lon="1.710480">
        <ele>1422.086</ele>
        <time>2019-05-31T07:59:10Z</time>
      </trkpt>
      <trkpt lat="42.402669" lon="1.710519">
        <ele>1426.276</ele>
        <time>2019-05-31T07:59:36Z</time>
      </trkpt>
      <trkpt lat="42.402700" lon="1.710526">
        <ele>1426.690</ele>
        <time>2019-05-31T07:59:38Z</time>
      </trkpt>
      <trkpt lat="42.402752" lon="1.710561">
        <ele>1427.219</ele>
        <time>2019-05-31T07:59:42Z</time>
      </trkpt>
      <trkpt lat="42.402780" lon="1.710571">
        <ele>1427.808</ele>
        <time>2019-05-31T07:59:45Z</time>
      </trkpt>
      <trkpt lat="42.402833" lon="1.710564">
        <ele>1428.450</ele>
        <time>2019-05-31T07:59:49Z</time>
      </trkpt>
      <trkpt lat="42.402863" lon="1.710576">
        <ele>1428.614</ele>
        <time>2019-05-31T07:59:51Z</time>
      </trkpt>
      <trkpt lat="42.402952" lon="1.710638">
        <ele>1429.420</ele>
        <time>2019-05-31T07:59:58Z</time>
      </trkpt>
      <trkpt lat="42.402967" lon="1.710646">
        <ele>1429.658</ele>
        <time>2019-05-31T07:59:59Z</time>
      </trkpt>
      <trkpt lat="42.403066" lon="1.710682">
        <ele>1430.222</ele>
        <time>2019-05-31T08:00:06Z</time>
      </trkpt>
      <trkpt lat="42.403095" lon="1.710684">
        <ele>1430.477</ele>
        <time>2019-05-31T08:00:08Z</time>
      </trkpt>
      <trkpt lat="42.403205" lon="1.710663">
        <ele>1431.471</ele>
        <time>2019-05-31T08:00:15Z</time>
      </trkpt>
      <trkpt lat="42.403224" lon="1.710657">
        <ele>1431.657</ele>
        <time>2019-05-31T08:00:16Z</time>
      </trkpt>
      <trkpt lat="42.403295" lon="1.710638">
        <ele>1432.225</ele>
        <time>2019-05-31T08:00:21Z</time>
      </trkpt>
      <trkpt lat="42.403324" lon="1.710621">
        <ele>1432.626</ele>
        <time>2019-05-31T08:00:23Z</time>
      </trkpt>
      <trkpt lat="42.403370" lon="1.710611">
        <ele>1433.008</ele>
        <time>2019-05-31T08:00:26Z</time>
      </trkpt>
      <trkpt lat="42.403428" lon="1.710581">
        <ele>1433.608</ele>
        <time>2019-05-31T08:00:30Z</time>
      </trkpt>
      <trkpt lat="42.403469" lon="1.710558">
        <ele>1434.095</ele>
        <time>2019-05-31T08:00:33Z</time>
      </trkpt>
      <trkpt lat="42.403525" lon="1.710557">
        <ele>1434.879</ele>
        <time>2019-05-31T08:00:37Z</time>
      </trkpt>
      <trkpt lat="42.403629" lon="1.710522">
        <ele>1435.845</ele>
        <time>2019-05-31T08:00:44Z</time>
      </trkpt>
      <trkpt lat="42.403686" lon="1.710529">
        <ele>1436.273</ele>
        <time>2019-05-31T08:00:48Z</time>
      </trkpt>
      <trkpt lat="42.403773" lon="1.710528">
        <ele>1436.827</ele>
        <time>2019-05-31T08:00:54Z</time>
      </trkpt>
      <trkpt lat="42.403829" lon="1.710516">
        <ele>1437.442</ele>
        <time>2019-05-31T08:00:58Z</time>
      </trkpt>
      <trkpt lat="42.403919" lon="1.710501">
        <ele>1438.086</ele>
        <time>2019-05-31T08:01:04Z</time>
      </trkpt>
      <trkpt lat="42.403964" lon="1.710500">
        <ele>1438.442</ele>
        <time>2019-05-31T08:01:07Z</time>
      </trkpt>
      <trkpt lat="42.404039" lon="1.710479">
        <ele>1438.844</ele>
        <time>2019-05-31T08:01:13Z</time>
      </trkpt>
      <trkpt lat="42.404093" lon="1.710460">
        <ele>1439.005</ele>
        <time>2019-05-31T08:01:17Z</time>
      </trkpt>
      <trkpt lat="42.404117" lon="1.710455">
        <ele>1439.215</ele>
        <time>2019-05-31T08:01:19Z</time>
      </trkpt>
      <trkpt lat="42.404227" lon="1.710436">
        <ele>1440.008</ele>
        <time>2019-05-31T08:01:26Z</time>
      </trkpt>
      <trkpt lat="42.404241" lon="1.710429">
        <ele>1440.227</ele>
        <time>2019-05-31T08:01:27Z</time>
      </trkpt>
      <trkpt lat="42.404347" lon="1.710381">
        <ele>1440.851</ele>
        <time>2019-05-31T08:01:34Z</time>
      </trkpt>
      <trkpt lat="42.404398" lon="1.710378">
        <ele>1441.437</ele>
        <time>2019-05-31T08:01:38Z</time>
      </trkpt>
      <trkpt lat="42.404443" lon="1.710360">
        <ele>1441.855</ele>
        <time>2019-05-31T08:01:41Z</time>
      </trkpt>
      <trkpt lat="42.404494" lon="1.710324">
        <ele>1442.449</ele>
        <time>2019-05-31T08:01:45Z</time>
      </trkpt>
      <trkpt lat="42.404539" lon="1.710321">
        <ele>1442.854</ele>
        <time>2019-05-31T08:01:48Z</time>
      </trkpt>
      <trkpt lat="42.404602" lon="1.710332">
        <ele>1443.478</ele>
        <time>2019-05-31T08:01:52Z</time>
      </trkpt>
      <trkpt lat="42.404627" lon="1.710324">
        <ele>1443.694</ele>
        <time>2019-05-31T08:01:54Z</time>
      </trkpt>
      <trkpt lat="42.404733" lon="1.710325">
        <ele>1444.493</ele>
        <time>2019-05-31T08:02:01Z</time>
      </trkpt>
      <trkpt lat="42.404747" lon="1.710327">
        <ele>1444.665</ele>
        <time>2019-05-31T08:02:02Z</time>
      </trkpt>
      <trkpt lat="42.404841" lon="1.710314">
        <ele>1446.021</ele>
        <time>2019-05-31T08:02:09Z</time>
      </trkpt>
      <trkpt lat="42.404939" lon="1.710310">
        <ele>1446.208</ele>
        <time>2019-05-31T08:02:16Z</time>
      </trkpt>
      <trkpt lat="42.405038" lon="1.710278">
        <ele>1447.012</ele>
        <time>2019-05-31T08:02:23Z</time>
      </trkpt>
      <trkpt lat="42.405067" lon="1.710261">
        <ele>1447.266</ele>
        <time>2019-05-31T08:02:25Z</time>
      </trkpt>
      <trkpt lat="42.405155" lon="1.710222">
        <ele>1448.062</ele>
        <time>2019-05-31T08:02:31Z</time>
      </trkpt>
      <trkpt lat="42.405182" lon="1.710205">
        <ele>1448.230</ele>
        <time>2019-05-31T08:02:33Z</time>
      </trkpt>
      <trkpt lat="42.405247" lon="1.710166">
        <ele>1448.874</ele>
        <time>2019-05-31T08:02:38Z</time>
      </trkpt>
      <trkpt lat="42.405318" lon="1.710136">
        <ele>1449.429</ele>
        <time>2019-05-31T08:02:43Z</time>
      </trkpt>
      <trkpt lat="42.405332" lon="1.710130">
        <ele>1449.473</ele>
        <time>2019-05-31T08:02:44Z</time>
      </trkpt>
      <trkpt lat="42.405445" lon="1.710090">
        <ele>1450.499</ele>
        <time>2019-05-31T08:02:51Z</time>
      </trkpt>
      <trkpt lat="42.405517" lon="1.710081">
        <ele>1451.073</ele>
        <time>2019-05-31T08:02:56Z</time>
      </trkpt>
      <trkpt lat="42.405530" lon="1.710081">
        <ele>1451.085</ele>
        <time>2019-05-31T08:02:57Z</time>
      </trkpt>
      <trkpt lat="42.405571" lon="1.710082">
        <ele>1451.413</ele>
        <time>2019-05-31T08:03:00Z</time>
      </trkpt>
      <trkpt lat="42.405627" lon="1.710080">
        <ele>1451.808</ele>
        <time>2019-05-31T08:03:04Z</time>
      </trkpt>
      <trkpt lat="42.405752" lon="1.710032">
        <ele>1452.490</ele>
        <time>2019-05-31T08:03:13Z</time>
      </trkpt>
      <trkpt lat="42.405864" lon="1.709960">
        <ele>1453.414</ele>
        <time>2019-05-31T08:03:21Z</time>
      </trkpt>
      <trkpt lat="42.405889" lon="1.709938">
        <ele>1453.670</ele>
        <time>2019-05-31T08:03:23Z</time>
      </trkpt>
      <trkpt lat="42.405963" lon="1.709875">
        <ele>1454.648</ele>
        <time>2019-05-31T08:03:29Z</time>
      </trkpt>
      <trkpt lat="42.406025" lon="1.709828">
        <ele>1455.282</ele>
        <time>2019-05-31T08:03:34Z</time>
      </trkpt>
      <trkpt lat="42.406052" lon="1.709803">
        <ele>1455.677</ele>
        <time>2019-05-31T08:03:36Z</time>
      </trkpt>
      <trkpt lat="42.406148" lon="1.709759">
        <ele>1456.681</ele>
        <time>2019-05-31T08:03:43Z</time>
      </trkpt>
      <trkpt lat="42.406230" lon="1.709719">
        <ele>1457.637</ele>
        <time>2019-05-31T08:03:49Z</time>
      </trkpt>
      <trkpt lat="42.406259" lon="1.709707">
        <ele>1458.078</ele>
        <time>2019-05-31T08:03:51Z</time>
      </trkpt>
      <trkpt lat="42.406315" lon="1.709680">
        <ele>1458.833</ele>
        <time>2019-05-31T08:03:55Z</time>
      </trkpt>
      <trkpt lat="42.406359" lon="1.709674">
        <ele>1459.426</ele>
        <time>2019-05-31T08:03:58Z</time>
      </trkpt>
      <trkpt lat="42.406467" lon="1.709657">
        <ele>1459.608</ele>
        <time>2019-05-31T08:04:06Z</time>
      </trkpt>
      <trkpt lat="42.406494" lon="1.709658">
        <ele>1460.080</ele>
        <time>2019-05-31T08:04:08Z</time>
      </trkpt>
      <trkpt lat="42.406582" lon="1.709671">
        <ele>1460.684</ele>
        <time>2019-05-31T08:04:14Z</time>
      </trkpt>
      <trkpt lat="42.406628" lon="1.709670">
        <ele>1461.020</ele>
        <time>2019-05-31T08:04:17Z</time>
      </trkpt>
      <trkpt lat="42.406654" lon="1.709672">
        <ele>1462.078</ele>
        <time>2019-05-31T08:04:19Z</time>
      </trkpt>
      <trkpt lat="42.406679" lon="1.709667">
        <ele>1462.492</ele>
        <time>2019-05-31T08:04:21Z</time>
      </trkpt>
      <trkpt lat="42.406775" lon="1.709657">
        <ele>1462.487</ele>
        <time>2019-05-31T08:04:28Z</time>
      </trkpt>
      <trkpt lat="42.406846" lon="1.709637">
        <ele>1463.041</ele>
        <time>2019-05-31T08:04:33Z</time>
      </trkpt>
      <trkpt lat="42.406893" lon="1.709631">
        <ele>1463.667</ele>
        <time>2019-05-31T08:04:36Z</time>
      </trkpt>
      <trkpt lat="42.406988" lon="1.709594">
        <ele>1464.249</ele>
        <time>2019-05-31T08:04:43Z</time>
      </trkpt>
      <trkpt lat="42.407028" lon="1.709585">
        <ele>1464.402</ele>
        <time>2019-05-31T08:04:46Z</time>
      </trkpt>
      <trkpt lat="42.407124" lon="1.709532">
        <ele>1465.222</ele>
        <time>2019-05-31T08:04:53Z</time>
      </trkpt>
      <trkpt lat="42.407218" lon="1.709486">
        <ele>1466.208</ele>
        <time>2019-05-31T08:05:00Z</time>
      </trkpt>
      <trkpt lat="42.407244" lon="1.709473">
        <ele>1466.417</ele>
        <time>2019-05-31T08:05:02Z</time>
      </trkpt>
      <trkpt lat="42.407316" lon="1.709446">
        <ele>1466.831</ele>
        <time>2019-05-31T08:05:07Z</time>
      </trkpt>
      <trkpt lat="42.407399" lon="1.709459">
        <ele>1467.247</ele>
        <time>2019-05-31T08:05:13Z</time>
      </trkpt>
      <trkpt lat="42.407436" lon="1.709468">
        <ele>1467.415</ele>
        <time>2019-05-31T08:05:16Z</time>
      </trkpt>
      <trkpt lat="42.407477" lon="1.709481">
        <ele>1467.619</ele>
        <time>2019-05-31T08:05:19Z</time>
      </trkpt>
      <trkpt lat="42.407544" lon="1.709506">
        <ele>1468.054</ele>
        <time>2019-05-31T08:05:25Z</time>
      </trkpt>
      <trkpt lat="42.407624" lon="1.709541">
        <ele>1468.428</ele>
        <time>2019-05-31T08:05:31Z</time>
      </trkpt>
      <trkpt lat="42.407649" lon="1.709551">
        <ele>1468.654</ele>
        <time>2019-05-31T08:05:33Z</time>
      </trkpt>
      <trkpt lat="42.407756" lon="1.709591">
        <ele>1469.226</ele>
        <time>2019-05-31T08:05:41Z</time>
      </trkpt>
      <trkpt lat="42.407802" lon="1.709612">
        <ele>1469.647</ele>
        <time>2019-05-31T08:05:44Z</time>
      </trkpt>
      <trkpt lat="42.407899" lon="1.709684">
        <ele>1469.811</ele>
        <time>2019-05-31T08:05:51Z</time>
      </trkpt>
      <trkpt lat="42.408007" lon="1.709760">
        <ele>1470.408</ele>
        <time>2019-05-31T08:06:00Z</time>
      </trkpt>
      <trkpt lat="42.408021" lon="1.709771">
        <ele>1470.855</ele>
        <time>2019-05-31T08:06:02Z</time>
      </trkpt>
      <trkpt lat="42.408045" lon="1.709774">
        <ele>1470.899</ele>
        <time>2019-05-31T08:06:04Z</time>
      </trkpt>
      <trkpt lat="42.408145" lon="1.709763">
        <ele>1471.455</ele>
        <time>2019-05-31T08:06:11Z</time>
      </trkpt>
      <trkpt lat="42.408213" lon="1.709732">
        <ele>1471.883</ele>
        <time>2019-05-31T08:06:16Z</time>
      </trkpt>
      <trkpt lat="42.408250" lon="1.709708">
        <ele>1472.277</ele>
        <time>2019-05-31T08:06:19Z</time>
      </trkpt>
      <trkpt lat="42.408343" lon="1.709681">
        <ele>1473.032</ele>
        <time>2019-05-31T08:06:26Z</time>
      </trkpt>
      <trkpt lat="42.408375" lon="1.709675">
        <ele>1473.046</ele>
        <time>2019-05-31T08:06:28Z</time>
      </trkpt>
      <trkpt lat="42.408497" lon="1.709656">
        <ele>1473.872</ele>
        <time>2019-05-31T08:06:37Z</time>
      </trkpt>
      <trkpt lat="42.408511" lon="1.709650">
        <ele>1474.049</ele>
        <time>2019-05-31T08:06:38Z</time>
      </trkpt>
      <trkpt lat="42.408620" lon="1.709635">
        <ele>1474.802</ele>
        <time>2019-05-31T08:06:46Z</time>
      </trkpt>
      <trkpt lat="42.408647" lon="1.709631">
        <ele>1475.022</ele>
        <time>2019-05-31T08:06:48Z</time>
      </trkpt>
      <trkpt lat="42.408764" lon="1.709618">
        <ele>1476.008</ele>
        <time>2019-05-31T08:06:56Z</time>
      </trkpt>
      <trkpt lat="42.408790" lon="1.709613">
        <ele>1476.217</ele>
        <time>2019-05-31T08:06:58Z</time>
      </trkpt>
      <trkpt lat="42.408879" lon="1.709598">
        <ele>1476.831</ele>
        <time>2019-05-31T08:07:04Z</time>
      </trkpt>
      <trkpt lat="42.408904" lon="1.709597">
        <ele>1477.217</ele>
        <time>2019-05-31T08:07:06Z</time>
      </trkpt>
      <trkpt lat="42.408966" lon="1.709595">
        <ele>1477.885</ele>
        <time>2019-05-31T08:07:11Z</time>
      </trkpt>
      <trkpt lat="42.409019" lon="1.709595">
        <ele>1478.479</ele>
        <time>2019-05-31T08:07:15Z</time>
      </trkpt>
      <trkpt lat="42.409104" lon="1.709588">
        <ele>1479.054</ele>
        <time>2019-05-31T08:07:21Z</time>
      </trkpt>
      <trkpt lat="42.409146" lon="1.709582">
        <ele>1479.468</ele>
        <time>2019-05-31T08:07:24Z</time>
      </trkpt>
      <trkpt lat="42.409216" lon="1.709577">
        <ele>1480.094</ele>
        <time>2019-05-31T08:07:29Z</time>
      </trkpt>
      <trkpt lat="42.409247" lon="1.709560">
        <ele>1480.264</ele>
        <time>2019-05-31T08:07:31Z</time>
      </trkpt>
      <trkpt lat="42.409275" lon="1.709541">
        <ele>1480.406</ele>
        <time>2019-05-31T08:07:33Z</time>
      </trkpt>
      <trkpt lat="42.409305" lon="1.709538">
        <ele>1480.816</ele>
        <time>2019-05-31T08:07:35Z</time>
      </trkpt>
      <trkpt lat="42.409380" lon="1.709525">
        <ele>1481.408</ele>
        <time>2019-05-31T08:07:41Z</time>
      </trkpt>
      <trkpt lat="42.409393" lon="1.709520">
        <ele>1481.679</ele>
        <time>2019-05-31T08:07:42Z</time>
      </trkpt>
      <trkpt lat="42.409502" lon="1.709499">
        <ele>1482.633</ele>
        <time>2019-05-31T08:07:51Z</time>
      </trkpt>
      <trkpt lat="42.409599" lon="1.709466">
        <ele>1483.419</ele>
        <time>2019-05-31T08:07:58Z</time>
      </trkpt>
      <trkpt lat="42.409629" lon="1.709456">
        <ele>1483.657</ele>
        <time>2019-05-31T08:08:00Z</time>
      </trkpt>
      <trkpt lat="42.409698" lon="1.709454">
        <ele>1484.221</ele>
        <time>2019-05-31T08:08:05Z</time>
      </trkpt>
      <trkpt lat="42.409735" lon="1.709441">
        <ele>1484.866</ele>
        <time>2019-05-31T08:08:08Z</time>
      </trkpt>
      <trkpt lat="42.409786" lon="1.709436">
        <ele>1485.240</ele>
        <time>2019-05-31T08:08:13Z</time>
      </trkpt>
      <trkpt lat="42.409851" lon="1.709434">
        <ele>1485.856</ele>
        <time>2019-05-31T08:08:18Z</time>
      </trkpt>
      <trkpt lat="42.409894" lon="1.709441">
        <ele>1486.045</ele>
        <time>2019-05-31T08:08:22Z</time>
      </trkpt>
      <trkpt lat="42.409975" lon="1.709438">
        <ele>1486.847</ele>
        <time>2019-05-31T08:08:29Z</time>
      </trkpt>
      <trkpt lat="42.409987" lon="1.709433">
        <ele>1486.811</ele>
        <time>2019-05-31T08:08:30Z</time>
      </trkpt>
      <trkpt lat="42.410030" lon="1.709459">
        <ele>1487.408</ele>
        <time>2019-05-31T08:08:34Z</time>
      </trkpt>
      <trkpt lat="42.410140" lon="1.709495">
        <ele>1488.047</ele>
        <time>2019-05-31T08:08:40Z</time>
      </trkpt>
      <trkpt lat="42.410154" lon="1.709499">
        <ele>1488.081</ele>
        <time>2019-05-31T08:08:41Z</time>
      </trkpt>
      <trkpt lat="42.410268" lon="1.709540">
        <ele>1489.057</ele>
        <time>2019-05-31T08:08:49Z</time>
      </trkpt>
      <trkpt lat="42.410283" lon="1.709539">
        <ele>1489.225</ele>
        <time>2019-05-31T08:08:50Z</time>
      </trkpt>
      <trkpt lat="42.410356" lon="1.709560">
        <ele>1489.669</ele>
        <time>2019-05-31T08:08:56Z</time>
      </trkpt>
      <trkpt lat="42.410411" lon="1.709565">
        <ele>1490.294</ele>
        <time>2019-05-31T08:09:00Z</time>
      </trkpt>
      <trkpt lat="42.410463" lon="1.709592">
        <ele>1490.678</ele>
        <time>2019-05-31T08:09:04Z</time>
      </trkpt>
      <trkpt lat="42.410534" lon="1.709619">
        <ele>1491.474</ele>
        <time>2019-05-31T08:09:09Z</time>
      </trkpt>
      <trkpt lat="42.410590" lon="1.709636">
        <ele>1491.838</ele>
        <time>2019-05-31T08:09:13Z</time>
      </trkpt>
      <trkpt lat="42.410656" lon="1.709645">
        <ele>1492.470</ele>
        <time>2019-05-31T08:09:18Z</time>
      </trkpt>
      <trkpt lat="42.410699" lon="1.709659">
        <ele>1492.817</ele>
        <time>2019-05-31T08:09:21Z</time>
      </trkpt>
      <trkpt lat="42.410789" lon="1.709666">
        <ele>1493.608</ele>
        <time>2019-05-31T08:09:28Z</time>
      </trkpt>
      <trkpt lat="42.410803" lon="1.709670">
        <ele>1493.836</ele>
        <time>2019-05-31T08:09:29Z</time>
      </trkpt>
      <trkpt lat="42.410820" lon="1.709671">
        <ele>1493.850</ele>
        <time>2019-05-31T08:09:30Z</time>
      </trkpt>
      <trkpt lat="42.410905" lon="1.709682">
        <ele>1494.646</ele>
        <time>2019-05-31T08:09:36Z</time>
      </trkpt>
      <trkpt lat="42.410948" lon="1.709688">
        <ele>1495.094</ele>
        <time>2019-05-31T08:09:39Z</time>
      </trkpt>
      <trkpt lat="42.411026" lon="1.709686">
        <ele>1495.898</ele>
        <time>2019-05-31T08:09:45Z</time>
      </trkpt>
      <trkpt lat="42.411115" lon="1.709685">
        <ele>1496.863</ele>
        <time>2019-05-31T08:09:52Z</time>
      </trkpt>
      <trkpt lat="42.411128" lon="1.709692">
        <ele>1497.017</ele>
        <time>2019-05-31T08:09:53Z</time>
      </trkpt>
      <trkpt lat="42.411199" lon="1.709704">
        <ele>1497.643</ele>
        <time>2019-05-31T08:09:58Z</time>
      </trkpt>
      <trkpt lat="42.411226" lon="1.709706">
        <ele>1498.092</ele>
        <time>2019-05-31T08:10:00Z</time>
      </trkpt>
      <trkpt lat="42.411248" lon="1.709684">
        <ele>1498.673</ele>
        <time>2019-05-31T08:10:03Z</time>
      </trkpt>
      <trkpt lat="42.411280" lon="1.709718">
        <ele>1499.020</ele>
        <time>2019-05-31T08:10:06Z</time>
      </trkpt>
      <trkpt lat="42.411309" lon="1.709711">
        <ele>1499.408</ele>
        <time>2019-05-31T08:10:08Z</time>
      </trkpt>
      <trkpt lat="42.411364" lon="1.709719">
        <ele>1500.222</ele>
        <time>2019-05-31T08:10:12Z</time>
      </trkpt>
      <trkpt lat="42.411382" lon="1.709721">
        <ele>1500.476</ele>
        <time>2019-05-31T08:10:14Z</time>
      </trkpt>
      <trkpt lat="42.411612" lon="1.709732">
        <ele>1503.852</ele>
        <time>2019-05-31T08:10:34Z</time>
      </trkpt>
      <trkpt lat="42.411636" lon="1.709715">
        <ele>1503.820</ele>
        <time>2019-05-31T08:10:36Z</time>
      </trkpt>
      <trkpt lat="42.411680" lon="1.709718">
        <ele>1504.694</ele>
        <time>2019-05-31T08:10:41Z</time>
      </trkpt>
      <trkpt lat="42.411707" lon="1.709713">
        <ele>1504.879</ele>
        <time>2019-05-31T08:10:43Z</time>
      </trkpt>
      <trkpt lat="42.411749" lon="1.709706">
        <ele>1505.253</ele>
        <time>2019-05-31T08:10:46Z</time>
      </trkpt>
      <trkpt lat="42.411827" lon="1.709696">
        <ele>1505.879</ele>
        <time>2019-05-31T08:10:52Z</time>
      </trkpt>
      <trkpt lat="42.411844" lon="1.709695">
        <ele>1506.095</ele>
        <time>2019-05-31T08:10:53Z</time>
      </trkpt>
      <trkpt lat="42.411905" lon="1.709675">
        <ele>1506.649</ele>
        <time>2019-05-31T08:10:58Z</time>
      </trkpt>
      <trkpt lat="42.411946" lon="1.709678">
        <ele>1507.023</ele>
        <time>2019-05-31T08:11:02Z</time>
      </trkpt>
      <trkpt lat="42.411971" lon="1.709683">
        <ele>1507.208</ele>
        <time>2019-05-31T08:11:04Z</time>
      </trkpt>
      <trkpt lat="42.412023" lon="1.709667">
        <ele>1507.412</ele>
        <time>2019-05-31T08:11:08Z</time>
      </trkpt>
      <trkpt lat="42.412053" lon="1.709669">
        <ele>1507.646</ele>
        <time>2019-05-31T08:11:10Z</time>
      </trkpt>
      <trkpt lat="42.412098" lon="1.709644">
        <ele>1508.092</ele>
        <time>2019-05-31T08:11:14Z</time>
      </trkpt>
      <trkpt lat="42.412145" lon="1.709631">
        <ele>1508.260</ele>
        <time>2019-05-31T08:11:18Z</time>
      </trkpt>
      <trkpt lat="42.412168" lon="1.709622">
        <ele>1508.644</ele>
        <time>2019-05-31T08:11:20Z</time>
      </trkpt>
      <trkpt lat="42.412266" lon="1.709603">
        <ele>1509.039</ele>
        <time>2019-05-31T08:11:27Z</time>
      </trkpt>
      <trkpt lat="42.412365" lon="1.709573">
        <ele>1509.293</ele>
        <time>2019-05-31T08:11:33Z</time>
      </trkpt>
      <trkpt lat="42.412413" lon="1.709549">
        <ele>1509.469</ele>
        <time>2019-05-31T08:11:37Z</time>
      </trkpt>
      <trkpt lat="42.412445" lon="1.709548">
        <ele>1509.844</ele>
        <time>2019-05-31T08:11:39Z</time>
      </trkpt>
      <trkpt lat="42.412471" lon="1.709541">
        <ele>1509.605</ele>
        <time>2019-05-31T08:11:41Z</time>
      </trkpt>
      <trkpt lat="42.412485" lon="1.709526">
        <ele>1509.615</ele>
        <time>2019-05-31T08:11:42Z</time>
      </trkpt>
      <trkpt lat="42.412532" lon="1.709503">
        <ele>1510.008</ele>
        <time>2019-05-31T08:11:45Z</time>
      </trkpt>
      <trkpt lat="42.412545" lon="1.709498">
        <ele>1510.057</ele>
        <time>2019-05-31T08:11:46Z</time>
      </trkpt>
      <trkpt lat="42.412625" lon="1.709464">
        <ele>1510.421</ele>
        <time>2019-05-31T08:11:52Z</time>
      </trkpt>
      <trkpt lat="42.412708" lon="1.709420">
        <ele>1510.687</ele>
        <time>2019-05-31T08:11:58Z</time>
      </trkpt>
      <trkpt lat="42.412802" lon="1.709385">
        <ele>1511.085</ele>
        <time>2019-05-31T08:12:06Z</time>
      </trkpt>
      <trkpt lat="42.412875" lon="1.709346">
        <ele>1511.689</ele>
        <time>2019-05-31T08:12:12Z</time>
      </trkpt>
      <trkpt lat="42.412997" lon="1.709304">
        <ele>1512.044</ele>
        <time>2019-05-31T08:12:20Z</time>
      </trkpt>
      <trkpt lat="42.413032" lon="1.709282">
        <ele>1512.268</ele>
        <time>2019-05-31T08:12:22Z</time>
      </trkpt>
      <trkpt lat="42.413101" lon="1.709247">
        <ele>1512.414</ele>
        <time>2019-05-31T08:12:27Z</time>
      </trkpt>
      <trkpt lat="42.413138" lon="1.709227">
        <ele>1512.452</ele>
        <time>2019-05-31T08:12:29Z</time>
      </trkpt>
      <trkpt lat="42.413200" lon="1.709171">
        <ele>1512.653</ele>
        <time>2019-05-31T08:12:33Z</time>
      </trkpt>
      <trkpt lat="42.413206" lon="1.709144">
        <ele>1512.608</ele>
        <time>2019-05-31T08:12:34Z</time>
      </trkpt>
      <trkpt lat="42.413264" lon="1.709033">
        <ele>1513.208</ele>
        <time>2019-05-31T08:12:39Z</time>
      </trkpt>
      <trkpt lat="42.413295" lon="1.708898">
        <ele>1514.238</ele>
        <time>2019-05-31T08:12:44Z</time>
      </trkpt>
      <trkpt lat="42.413300" lon="1.708876">
        <ele>1514.682</ele>
        <time>2019-05-31T08:12:45Z</time>
      </trkpt>
      <trkpt lat="42.413341" lon="1.708796">
        <ele>1515.418</ele>
        <time>2019-05-31T08:12:49Z</time>
      </trkpt>
      <trkpt lat="42.413370" lon="1.708732">
        <ele>1516.486</ele>
        <time>2019-05-31T08:12:52Z</time>
      </trkpt>
      <trkpt lat="42.413376" lon="1.708711">
        <ele>1516.420</ele>
        <time>2019-05-31T08:12:53Z</time>
      </trkpt>
      <trkpt lat="42.413416" lon="1.708626">
        <ele>1517.615</ele>
        <time>2019-05-31T08:12:57Z</time>
      </trkpt>
      <trkpt lat="42.413428" lon="1.708586">
        <ele>1517.869</ele>
        <time>2019-05-31T08:12:59Z</time>
      </trkpt>
      <trkpt lat="42.413442" lon="1.708482">
        <ele>1518.695</ele>
        <time>2019-05-31T08:13:04Z</time>
      </trkpt>
      <trkpt lat="42.413432" lon="1.708423">
        <ele>1518.838</ele>
        <time>2019-05-31T08:13:07Z</time>
      </trkpt>
      <trkpt lat="42.413400" lon="1.708310">
        <ele>1519.070</ele>
        <time>2019-05-31T08:13:13Z</time>
      </trkpt>
      <trkpt lat="42.413345" lon="1.708132">
        <ele>1519.417</ele>
        <time>2019-05-31T08:13:23Z</time>
      </trkpt>
      <trkpt lat="42.413336" lon="1.708098">
        <ele>1519.408</ele>
        <time>2019-05-31T08:13:25Z</time>
      </trkpt>
      <trkpt lat="42.413322" lon="1.708061">
        <ele>1519.626</ele>
        <time>2019-05-31T08:13:27Z</time>
      </trkpt>
      <trkpt lat="42.413317" lon="1.708042">
        <ele>1519.690</ele>
        <time>2019-05-31T08:13:28Z</time>
      </trkpt>
      <trkpt lat="42.413317" lon="1.707866">
        <ele>1520.436</ele>
        <time>2019-05-31T08:13:37Z</time>
      </trkpt>
      <trkpt lat="42.413309" lon="1.707739">
        <ele>1520.814</ele>
        <time>2019-05-31T08:13:42Z</time>
      </trkpt>
      <trkpt lat="42.413298" lon="1.707689">
        <ele>1521.058</ele>
        <time>2019-05-31T08:13:44Z</time>
      </trkpt>
      <trkpt lat="42.413203" lon="1.707488">
        <ele>1520.263</ele>
        <time>2019-05-31T08:13:50Z</time>
      </trkpt>
      <trkpt lat="42.413177" lon="1.707445">
        <ele>1519.437</ele>
        <time>2019-05-31T08:13:51Z</time>
      </trkpt>
      <trkpt lat="42.413038" lon="1.707186">
        <ele>1519.023</ele>
        <time>2019-05-31T08:13:56Z</time>
      </trkpt>
      <trkpt lat="42.412892" lon="1.706897">
        <ele>1518.496</ele>
        <time>2019-05-31T08:14:01Z</time>
      </trkpt>
      <trkpt lat="42.412804" lon="1.706732">
        <ele>1518.031</ele>
        <time>2019-05-31T08:14:04Z</time>
      </trkpt>
      <trkpt lat="42.412770" lon="1.706685">
        <ele>1517.824</ele>
        <time>2019-05-31T08:14:05Z</time>
      </trkpt>
      <trkpt lat="42.412572" lon="1.706475">
        <ele>1518.208</ele>
        <time>2019-05-31T08:14:11Z</time>
      </trkpt>
      <trkpt lat="42.412445" lon="1.706340">
        <ele>1519.442</ele>
        <time>2019-05-31T08:14:17Z</time>
      </trkpt>
      <trkpt lat="42.412424" lon="1.706310">
        <ele>1519.446</ele>
        <time>2019-05-31T08:14:18Z</time>
      </trkpt>
      <trkpt lat="42.412322" lon="1.706177">
        <ele>1518.832</ele>
        <time>2019-05-31T08:14:22Z</time>
      </trkpt>
      <trkpt lat="42.412154" lon="1.705995">
        <ele>1519.020</ele>
        <time>2019-05-31T08:14:28Z</time>
      </trkpt>
      <trkpt lat="42.411967" lon="1.705868">
        <ele>1519.434</ele>
        <time>2019-05-31T08:14:36Z</time>
      </trkpt>
      <trkpt lat="42.411834" lon="1.705793">
        <ele>1520.639</ele>
        <time>2019-05-31T08:14:43Z</time>
      </trkpt>
      <trkpt lat="42.411737" lon="1.705765">
        <ele>1521.673</ele>
        <time>2019-05-31T08:14:49Z</time>
      </trkpt>
      <trkpt lat="42.411721" lon="1.705756">
        <ele>1522.049</ele>
        <time>2019-05-31T08:14:50Z</time>
      </trkpt>
      <trkpt lat="42.411644" lon="1.705731">
        <ele>1522.695</ele>
        <time>2019-05-31T08:14:55Z</time>
      </trkpt>
      <trkpt lat="42.411613" lon="1.705724">
        <ele>1522.849</ele>
        <time>2019-05-31T08:14:57Z</time>
      </trkpt>
      <trkpt lat="42.411493" lon="1.705698">
        <ele>1523.823</ele>
        <time>2019-05-31T08:15:05Z</time>
      </trkpt>
      <trkpt lat="42.411476" lon="1.705696">
        <ele>1524.008</ele>
        <time>2019-05-31T08:15:06Z</time>
      </trkpt>
      <trkpt lat="42.411366" lon="1.705667">
        <ele>1524.862</ele>
        <time>2019-05-31T08:15:13Z</time>
      </trkpt>
      <trkpt lat="42.411312" lon="1.705653">
        <ele>1525.236</ele>
        <time>2019-05-31T08:15:16Z</time>
      </trkpt>
      <trkpt lat="42.411213" lon="1.705622">
        <ele>1525.682</ele>
        <time>2019-05-31T08:15:22Z</time>
      </trkpt>
      <trkpt lat="42.411202" lon="1.705605">
        <ele>1525.880</ele>
        <time>2019-05-31T08:15:23Z</time>
      </trkpt>
      <trkpt lat="42.411194" lon="1.705586">
        <ele>1526.084</ele>
        <time>2019-05-31T08:15:24Z</time>
      </trkpt>
      <trkpt lat="42.411204" lon="1.705522">
        <ele>1526.689</ele>
        <time>2019-05-31T08:15:27Z</time>
      </trkpt>
      <trkpt lat="42.411265" lon="1.705495">
        <ele>1526.693</ele>
        <time>2019-05-31T08:15:31Z</time>
      </trkpt>
      <trkpt lat="42.411321" lon="1.705497">
        <ele>1526.449</ele>
        <time>2019-05-31T08:15:34Z</time>
      </trkpt>
      <trkpt lat="42.411424" lon="1.705496">
        <ele>1526.485</ele>
        <time>2019-05-31T08:15:39Z</time>
      </trkpt>
      <trkpt lat="42.411535" lon="1.705493">
        <ele>1527.089</ele>
        <time>2019-05-31T08:15:45Z</time>
      </trkpt>
      <trkpt lat="42.411552" lon="1.705489">
        <ele>1527.217</ele>
        <time>2019-05-31T08:15:46Z</time>
      </trkpt>
      <trkpt lat="42.411638" lon="1.705485">
        <ele>1527.008</ele>
        <time>2019-05-31T08:15:51Z</time>
      </trkpt>
      <trkpt lat="42.411675" lon="1.705500">
        <ele>1527.641</ele>
        <time>2019-05-31T08:21:51Z</time>
      </trkpt>
      <trkpt lat="42.411709" lon="1.705475">
        <ele>1527.065</ele>
        <time>2019-05-31T08:21:53Z</time>
      </trkpt>
      <trkpt lat="42.411829" lon="1.705470">
        <ele>1527.621</ele>
        <time>2019-05-31T08:22:01Z</time>
      </trkpt>
      <trkpt lat="42.411876" lon="1.705471">
        <ele>1528.079</ele>
        <time>2019-05-31T08:22:04Z</time>
      </trkpt>
      <trkpt lat="42.411918" lon="1.705477">
        <ele>1528.693</ele>
        <time>2019-05-31T08:22:07Z</time>
      </trkpt>
      <trkpt lat="42.411985" lon="1.705476">
        <ele>1529.088</ele>
        <time>2019-05-31T08:22:11Z</time>
      </trkpt>
      <trkpt lat="42.412032" lon="1.705486">
        <ele>1529.462</ele>
        <time>2019-05-31T08:22:14Z</time>
      </trkpt>
      <trkpt lat="42.412105" lon="1.705493">
        <ele>1530.298</ele>
        <time>2019-05-31T08:22:19Z</time>
      </trkpt>
      <trkpt lat="42.412121" lon="1.705492">
        <ele>1530.262</ele>
        <time>2019-05-31T08:22:20Z</time>
      </trkpt>
      <trkpt lat="42.412227" lon="1.705485">
        <ele>1531.683</ele>
        <time>2019-05-31T08:22:27Z</time>
      </trkpt>
      <trkpt lat="42.412241" lon="1.705488">
        <ele>1531.811</ele>
        <time>2019-05-31T08:22:28Z</time>
      </trkpt>
      <trkpt lat="42.412319" lon="1.705453">
        <ele>1532.408</ele>
        <time>2019-05-31T08:22:34Z</time>
      </trkpt>
      <trkpt lat="42.412349" lon="1.705447">
        <ele>1532.669</ele>
        <time>2019-05-31T08:22:36Z</time>
      </trkpt>
      <trkpt lat="42.412436" lon="1.705428">
        <ele>1532.833</ele>
        <time>2019-05-31T08:22:42Z</time>
      </trkpt>
      <trkpt lat="42.412524" lon="1.705427">
        <ele>1533.699</ele>
        <time>2019-05-31T08:22:48Z</time>
      </trkpt>
      <trkpt lat="42.412559" lon="1.705424">
        <ele>1533.627</ele>
        <time>2019-05-31T08:22:50Z</time>
      </trkpt>
      <trkpt lat="42.412633" lon="1.705432">
        <ele>1534.251</ele>
        <time>2019-05-31T08:22:55Z</time>
      </trkpt>
      <trkpt lat="42.412693" lon="1.705449">
        <ele>1534.686</ele>
        <time>2019-05-31T08:22:59Z</time>
      </trkpt>
      <trkpt lat="42.412742" lon="1.705444">
        <ele>1535.290</ele>
        <time>2019-05-31T08:23:02Z</time>
      </trkpt>
      <trkpt lat="42.412782" lon="1.705437">
        <ele>1535.846</ele>
        <time>2019-05-31T08:23:05Z</time>
      </trkpt>
      <trkpt lat="42.412871" lon="1.705441">
        <ele>1536.436</ele>
        <time>2019-05-31T08:23:11Z</time>
      </trkpt>
      <trkpt lat="42.412945" lon="1.705434">
        <ele>1536.817</ele>
        <time>2019-05-31T08:23:16Z</time>
      </trkpt>
      <trkpt lat="42.412971" lon="1.705431">
        <ele>1537.018</ele>
        <time>2019-05-31T08:23:18Z</time>
      </trkpt>
      <trkpt lat="42.413076" lon="1.705420">
        <ele>1537.608</ele>
        <time>2019-05-31T08:23:25Z</time>
      </trkpt>
      <trkpt lat="42.413119" lon="1.705416">
        <ele>1538.066</ele>
        <time>2019-05-31T08:23:28Z</time>
      </trkpt>
      <trkpt lat="42.413209" lon="1.705402">
        <ele>1538.430</ele>
        <time>2019-05-31T08:23:34Z</time>
      </trkpt>
      <trkpt lat="42.413304" lon="1.705391">
        <ele>1539.056</ele>
        <time>2019-05-31T08:23:40Z</time>
      </trkpt>
      <trkpt lat="42.413334" lon="1.705389">
        <ele>1539.224</ele>
        <time>2019-05-31T08:23:42Z</time>
      </trkpt>
      <trkpt lat="42.413461" lon="1.705371">
        <ele>1539.878</ele>
        <time>2019-05-31T08:23:50Z</time>
      </trkpt>
      <trkpt lat="42.413521" lon="1.705368">
        <ele>1540.063</ele>
        <time>2019-05-31T08:23:54Z</time>
      </trkpt>
      <trkpt lat="42.413570" lon="1.705355">
        <ele>1540.437</ele>
        <time>2019-05-31T08:23:57Z</time>
      </trkpt>
      <trkpt lat="42.413663" lon="1.705341">
        <ele>1541.063</ele>
        <time>2019-05-31T08:24:03Z</time>
      </trkpt>
      <trkpt lat="42.413680" lon="1.705337">
        <ele>1541.418</ele>
        <time>2019-05-31T08:24:04Z</time>
      </trkpt>
      <trkpt lat="42.413751" lon="1.705334">
        <ele>1542.298</ele>
        <time>2019-05-31T08:24:09Z</time>
      </trkpt>
      <trkpt lat="42.413786" lon="1.705335">
        <ele>1542.217</ele>
        <time>2019-05-31T08:24:11Z</time>
      </trkpt>
      <trkpt lat="42.413902" lon="1.705327">
        <ele>1543.208</ele>
        <time>2019-05-31T08:24:18Z</time>
      </trkpt>
      <trkpt lat="42.414014" lon="1.705319">
        <ele>1543.884</ele>
        <time>2019-05-31T08:24:25Z</time>
      </trkpt>
      <trkpt lat="42.414077" lon="1.705304">
        <ele>1544.438</ele>
        <time>2019-05-31T08:24:29Z</time>
      </trkpt>
      <trkpt lat="42.414121" lon="1.705296">
        <ele>1544.684</ele>
        <time>2019-05-31T08:24:32Z</time>
      </trkpt>
      <trkpt lat="42.414170" lon="1.705282">
        <ele>1544.682</ele>
        <time>2019-05-31T08:24:35Z</time>
      </trkpt>
      <trkpt lat="42.414207" lon="1.705278">
        <ele>1544.886</ele>
        <time>2019-05-31T08:24:37Z</time>
      </trkpt>
      <trkpt lat="42.414307" lon="1.705266">
        <ele>1545.291</ele>
        <time>2019-05-31T08:24:43Z</time>
      </trkpt>
      <trkpt lat="42.414322" lon="1.705265">
        <ele>1545.485</ele>
        <time>2019-05-31T08:24:44Z</time>
      </trkpt>
      <trkpt lat="42.414385" lon="1.705273">
        <ele>1545.691</ele>
        <time>2019-05-31T08:24:48Z</time>
      </trkpt>
      <trkpt lat="42.414411" lon="1.705268">
        <ele>1545.812</ele>
        <time>2019-05-31T08:24:50Z</time>
      </trkpt>
      <trkpt lat="42.414458" lon="1.705265">
        <ele>1546.232</ele>
        <time>2019-05-31T08:24:53Z</time>
      </trkpt>
      <trkpt lat="42.414505" lon="1.705267">
        <ele>1546.205</ele>
        <time>2019-05-31T08:24:56Z</time>
      </trkpt>
      <trkpt lat="42.414565" lon="1.705259">
        <ele>1546.408</ele>
        <time>2019-05-31T08:24:59Z</time>
      </trkpt>
      <trkpt lat="42.414745" lon="1.705239">
        <ele>1546.884</ele>
        <time>2019-05-31T08:25:07Z</time>
      </trkpt>
      <trkpt lat="42.414912" lon="1.705197">
        <ele>1547.418</ele>
        <time>2019-05-31T08:25:15Z</time>
      </trkpt>
      <trkpt lat="42.414934" lon="1.705192">
        <ele>1547.674</ele>
        <time>2019-05-31T08:25:16Z</time>
      </trkpt>
      <trkpt lat="42.415040" lon="1.705170">
        <ele>1547.852</ele>
        <time>2019-05-31T08:25:21Z</time>
      </trkpt>
      <trkpt lat="42.415189" lon="1.705140">
        <ele>1548.016</ele>
        <time>2019-05-31T08:25:27Z</time>
      </trkpt>
      <trkpt lat="42.415314" lon="1.705116">
        <ele>1548.011</ele>
        <time>2019-05-31T08:25:32Z</time>
      </trkpt>
      <trkpt lat="42.415359" lon="1.705113">
        <ele>1548.615</ele>
        <time>2019-05-31T08:25:34Z</time>
      </trkpt>
      <trkpt lat="42.415445" lon="1.705100">
        <ele>1549.071</ele>
        <time>2019-05-31T08:25:38Z</time>
      </trkpt>
      <trkpt lat="42.415554" lon="1.705058">
        <ele>1549.864</ele>
        <time>2019-05-31T08:25:43Z</time>
      </trkpt>
      <trkpt lat="42.415575" lon="1.705053">
        <ele>1549.806</ele>
        <time>2019-05-31T08:25:44Z</time>
      </trkpt>
      <trkpt lat="42.415681" lon="1.705011">
        <ele>1550.016</ele>
        <time>2019-05-31T08:25:49Z</time>
      </trkpt>
      <trkpt lat="42.415710" lon="1.705000">
        <ele>1550.008</ele>
        <time>2019-05-31T08:25:50Z</time>
      </trkpt>
      <trkpt lat="42.415744" lon="1.704988">
        <ele>1549.639</ele>
        <time>2019-05-31T08:25:51Z</time>
      </trkpt>
      <trkpt lat="42.415871" lon="1.704956">
        <ele>1549.273</ele>
        <time>2019-05-31T08:25:55Z</time>
      </trkpt>
      <trkpt lat="42.416026" lon="1.704919">
        <ele>1549.249</ele>
        <time>2019-05-31T08:26:00Z</time>
      </trkpt>
      <trkpt lat="42.416120" lon="1.704906">
        <ele>1548.477</ele>
        <time>2019-05-31T08:26:03Z</time>
      </trkpt>
      <trkpt lat="42.416258" lon="1.704859">
        <ele>1548.831</ele>
        <time>2019-05-31T08:26:07Z</time>
      </trkpt>
      <trkpt lat="42.416438" lon="1.704769">
        <ele>1547.276</ele>
        <time>2019-05-31T08:26:12Z</time>
      </trkpt>
      <trkpt lat="42.416476" lon="1.704755">
        <ele>1547.270</ele>
        <time>2019-05-31T08:26:13Z</time>
      </trkpt>
      <trkpt lat="42.416598" lon="1.704756">
        <ele>1546.876</ele>
        <time>2019-05-31T08:26:16Z</time>
      </trkpt>
      <trkpt lat="42.416636" lon="1.704765">
        <ele>1546.823</ele>
        <time>2019-05-31T08:26:17Z</time>
      </trkpt>
      <trkpt lat="42.416782" lon="1.704776">
        <ele>1546.683</ele>
        <time>2019-05-31T08:26:21Z</time>
      </trkpt>
      <trkpt lat="42.416815" lon="1.704771">
        <ele>1546.211</ele>
        <time>2019-05-31T08:26:22Z</time>
      </trkpt>
      <trkpt lat="42.416835" lon="1.704760">
        <ele>1546.008</ele>
        <time>2019-05-31T08:26:23Z</time>
      </trkpt>
      <trkpt lat="42.416887" lon="1.704750">
        <ele>1545.885</ele>
        <time>2019-05-31T08:26:25Z</time>
      </trkpt>
      <trkpt lat="42.416962" lon="1.704740">
        <ele>1544.889</ele>
        <time>2019-05-31T08:26:27Z</time>
      </trkpt>
      <trkpt lat="42.417003" lon="1.704735">
        <ele>1544.265</ele>
        <time>2019-05-31T08:26:28Z</time>
      </trkpt>
      <trkpt lat="42.417043" lon="1.704717">
        <ele>1543.833</ele>
        <time>2019-05-31T08:26:29Z</time>
      </trkpt>
      <trkpt lat="42.417083" lon="1.704696">
        <ele>1543.467</ele>
        <time>2019-05-31T08:26:30Z</time>
      </trkpt>
      <trkpt lat="42.417222" lon="1.704638">
        <ele>1542.052</ele>
        <time>2019-05-31T08:26:33Z</time>
      </trkpt>
      <trkpt lat="42.417308" lon="1.704613">
        <ele>1541.416</ele>
        <time>2019-05-31T08:26:35Z</time>
      </trkpt>
      <trkpt lat="42.417413" lon="1.704591">
        <ele>1540.632</ele>
        <time>2019-05-31T08:26:37Z</time>
      </trkpt>
      <trkpt lat="42.417566" lon="1.704546">
        <ele>1539.625</ele>
        <time>2019-05-31T08:26:40Z</time>
      </trkpt>
      <trkpt lat="42.417799" lon="1.704549">
        <ele>1539.426</ele>
        <time>2019-05-31T08:26:45Z</time>
      </trkpt>
      <trkpt lat="42.417950" lon="1.704574">
        <ele>1539.608</ele>
        <time>2019-05-31T08:26:49Z</time>
      </trkpt>
      <trkpt lat="42.418091" lon="1.704607">
        <ele>1539.608</ele>
        <time>2019-05-31T08:26:53Z</time>
      </trkpt>
      <trkpt lat="42.418298" lon="1.704634">
        <ele>1539.435</ele>
        <time>2019-05-31T08:26:58Z</time>
      </trkpt>
      <trkpt lat="42.418349" lon="1.704638">
        <ele>1538.889</ele>
        <time>2019-05-31T08:26:59Z</time>
      </trkpt>
      <trkpt lat="42.418405" lon="1.704646">
        <ele>1538.035</ele>
        <time>2019-05-31T08:27:00Z</time>
      </trkpt>
      <trkpt lat="42.418571" lon="1.704664">
        <ele>1537.433</ele>
        <time>2019-05-31T08:27:03Z</time>
      </trkpt>
      <trkpt lat="42.418614" lon="1.704664">
        <ele>1537.857</ele>
        <time>2019-05-31T08:27:04Z</time>
      </trkpt>
      <trkpt lat="42.418773" lon="1.704651">
        <ele>1538.652</ele>
        <time>2019-05-31T08:27:08Z</time>
      </trkpt>
      <trkpt lat="42.418917" lon="1.704598">
        <ele>1539.046</ele>
        <time>2019-05-31T08:27:13Z</time>
      </trkpt>
      <trkpt lat="42.419067" lon="1.704570">
        <ele>1540.442</ele>
        <time>2019-05-31T08:27:18Z</time>
      </trkpt>
      <trkpt lat="42.419203" lon="1.704561">
        <ele>1540.823</ele>
        <time>2019-05-31T08:27:22Z</time>
      </trkpt>
      <trkpt lat="42.419415" lon="1.704609">
        <ele>1540.483</ele>
        <time>2019-05-31T08:27:29Z</time>
      </trkpt>
      <trkpt lat="42.419504" lon="1.704642">
        <ele>1539.411</ele>
        <time>2019-05-31T08:27:32Z</time>
      </trkpt>
      <trkpt lat="42.419604" lon="1.704678">
        <ele>1538.608</ele>
        <time>2019-05-31T08:27:35Z</time>
      </trkpt>
      <trkpt lat="42.419646" lon="1.704682">
        <ele>1538.415</ele>
        <time>2019-05-31T08:27:37Z</time>
      </trkpt>
      <trkpt lat="42.419673" lon="1.704695">
        <ele>1538.299</ele>
        <time>2019-05-31T08:27:38Z</time>
      </trkpt>
      <trkpt lat="42.419741" lon="1.704708">
        <ele>1537.265</ele>
        <time>2019-05-31T08:27:40Z</time>
      </trkpt>
      <trkpt lat="42.419790" lon="1.704706">
        <ele>1536.223</ele>
        <time>2019-05-31T08:27:42Z</time>
      </trkpt>
      <trkpt lat="42.419819" lon="1.704709">
        <ele>1536.017</ele>
        <time>2019-05-31T08:27:43Z</time>
      </trkpt>
      <trkpt lat="42.419840" lon="1.704702">
        <ele>1536.032</ele>
        <time>2019-05-31T08:27:44Z</time>
      </trkpt>
      <trkpt lat="42.419889" lon="1.704705">
        <ele>1534.896</ele>
        <time>2019-05-31T08:27:46Z</time>
      </trkpt>
      <trkpt lat="42.419946" lon="1.704710">
        <ele>1533.642</ele>
        <time>2019-05-31T08:27:48Z</time>
      </trkpt>
      <trkpt lat="42.420027" lon="1.704721">
        <ele>1533.222</ele>
        <time>2019-05-31T08:27:51Z</time>
      </trkpt>
      <trkpt lat="42.420087" lon="1.704733">
        <ele>1532.462</ele>
        <time>2019-05-31T08:27:53Z</time>
      </trkpt>
      <trkpt lat="42.420138" lon="1.704758">
        <ele>1532.008</ele>
        <time>2019-05-31T08:27:55Z</time>
      </trkpt>
      <trkpt lat="42.420305" lon="1.704843">
        <ele>1531.608</ele>
        <time>2019-05-31T08:28:00Z</time>
      </trkpt>
      <trkpt lat="42.420390" lon="1.704855">
        <ele>1531.255</ele>
        <time>2019-05-31T08:28:02Z</time>
      </trkpt>
      <trkpt lat="42.420486" lon="1.704842">
        <ele>1530.659</ele>
        <time>2019-05-31T08:28:05Z</time>
      </trkpt>
      <trkpt lat="42.420611" lon="1.704842">
        <ele>1529.885</ele>
        <time>2019-05-31T08:28:09Z</time>
      </trkpt>
      <trkpt lat="42.420640" lon="1.704853">
        <ele>1529.293</ele>
        <time>2019-05-31T08:28:10Z</time>
      </trkpt>
      <trkpt lat="42.420679" lon="1.704848">
        <ele>1528.447</ele>
        <time>2019-05-31T08:28:11Z</time>
      </trkpt>
      <trkpt lat="42.420794" lon="1.704829">
        <ele>1527.052</ele>
        <time>2019-05-31T08:28:14Z</time>
      </trkpt>
      <trkpt lat="42.420870" lon="1.704842">
        <ele>1525.886</ele>
        <time>2019-05-31T08:28:16Z</time>
      </trkpt>
      <trkpt lat="42.420977" lon="1.704840">
        <ele>1524.852</ele>
        <time>2019-05-31T08:28:19Z</time>
      </trkpt>
      <trkpt lat="42.421006" lon="1.704845">
        <ele>1524.653</ele>
        <time>2019-05-31T08:28:20Z</time>
      </trkpt>
      <trkpt lat="42.421118" lon="1.704866">
        <ele>1523.604</ele>
        <time>2019-05-31T08:28:23Z</time>
      </trkpt>
      <trkpt lat="42.421165" lon="1.704852">
        <ele>1523.214</ele>
        <time>2019-05-31T08:28:24Z</time>
      </trkpt>
      <trkpt lat="42.421212" lon="1.704840">
        <ele>1522.408</ele>
        <time>2019-05-31T08:28:25Z</time>
      </trkpt>
      <trkpt lat="42.421294" lon="1.704846">
        <ele>1521.018</ele>
        <time>2019-05-31T08:28:28Z</time>
      </trkpt>
      <trkpt lat="42.421322" lon="1.704851">
        <ele>1520.652</ele>
        <time>2019-05-31T08:28:29Z</time>
      </trkpt>
      <trkpt lat="42.421402" lon="1.704845">
        <ele>1519.828</ele>
        <time>2019-05-31T08:28:31Z</time>
      </trkpt>
      <trkpt lat="42.421486" lon="1.704859">
        <ele>1518.866</ele>
        <time>2019-05-31T08:28:33Z</time>
      </trkpt>
      <trkpt lat="42.421573" lon="1.704870">
        <ele>1517.810</ele>
        <time>2019-05-31T08:28:35Z</time>
      </trkpt>
      <trkpt lat="42.421613" lon="1.704869">
        <ele>1517.855</ele>
        <time>2019-05-31T08:28:36Z</time>
      </trkpt>
      <trkpt lat="42.421740" lon="1.704837">
        <ele>1517.259</ele>
        <time>2019-05-31T08:28:40Z</time>
      </trkpt>
      <trkpt lat="42.421807" lon="1.704843">
        <ele>1516.635</ele>
        <time>2019-05-31T08:28:42Z</time>
      </trkpt>
      <trkpt lat="42.421887" lon="1.704852">
        <ele>1516.033</ele>
        <time>2019-05-31T08:28:44Z</time>
      </trkpt>
      <trkpt lat="42.421929" lon="1.704861">
        <ele>1515.423</ele>
        <time>2019-05-31T08:28:45Z</time>
      </trkpt>
      <trkpt lat="42.422002" lon="1.704868">
        <ele>1514.215</ele>
        <time>2019-05-31T08:28:47Z</time>
      </trkpt>
      <trkpt lat="42.422043" lon="1.704863">
        <ele>1513.608</ele>
        <time>2019-05-31T08:28:48Z</time>
      </trkpt>
      <trkpt lat="42.422075" lon="1.704858">
        <ele>1513.266</ele>
        <time>2019-05-31T08:28:49Z</time>
      </trkpt>
      <trkpt lat="42.422219" lon="1.704847">
        <ele>1512.410</ele>
        <time>2019-05-31T08:28:53Z</time>
      </trkpt>
      <trkpt lat="42.422259" lon="1.704848">
        <ele>1512.216</ele>
        <time>2019-05-31T08:28:54Z</time>
      </trkpt>
      <trkpt lat="42.422443" lon="1.704889">
        <ele>1511.254</ele>
        <time>2019-05-31T08:28:58Z</time>
      </trkpt>
      <trkpt lat="42.422490" lon="1.704894">
        <ele>1511.098</ele>
        <time>2019-05-31T08:28:59Z</time>
      </trkpt>
      <trkpt lat="42.422573" lon="1.704891">
        <ele>1510.813</ele>
        <time>2019-05-31T08:29:01Z</time>
      </trkpt>
      <trkpt lat="42.422665" lon="1.704894">
        <ele>1510.647</ele>
        <time>2019-05-31T08:29:03Z</time>
      </trkpt>
      <trkpt lat="42.422807" lon="1.704861">
        <ele>1510.683</ele>
        <time>2019-05-31T08:29:07Z</time>
      </trkpt>
      <trkpt lat="42.422856" lon="1.704864">
        <ele>1510.483</ele>
        <time>2019-05-31T08:29:08Z</time>
      </trkpt>
      <trkpt lat="42.422907" lon="1.704877">
        <ele>1510.025</ele>
        <time>2019-05-31T08:29:09Z</time>
      </trkpt>
      <trkpt lat="42.422957" lon="1.704888">
        <ele>1509.217</ele>
        <time>2019-05-31T08:29:10Z</time>
      </trkpt>
      <trkpt lat="42.423007" lon="1.704884">
        <ele>1508.608</ele>
        <time>2019-05-31T08:29:11Z</time>
      </trkpt>
      <trkpt lat="42.423104" lon="1.704864">
        <ele>1508.281</ele>
        <time>2019-05-31T08:29:13Z</time>
      </trkpt>
      <trkpt lat="42.423151" lon="1.704846">
        <ele>1508.295</ele>
        <time>2019-05-31T08:29:14Z</time>
      </trkpt>
      <trkpt lat="42.423351" lon="1.704795">
        <ele>1509.011</ele>
        <time>2019-05-31T08:29:19Z</time>
      </trkpt>
      <trkpt lat="42.423400" lon="1.704789">
        <ele>1509.649</ele>
        <time>2019-05-31T08:29:21Z</time>
      </trkpt>
      <trkpt lat="42.423459" lon="1.704808">
        <ele>1509.263</ele>
        <time>2019-05-31T08:29:23Z</time>
      </trkpt>
      <trkpt lat="42.423542" lon="1.704816">
        <ele>1508.488</ele>
        <time>2019-05-31T08:29:25Z</time>
      </trkpt>
      <trkpt lat="42.423628" lon="1.704780">
        <ele>1508.492</ele>
        <time>2019-05-31T08:29:27Z</time>
      </trkpt>
      <trkpt lat="42.423730" lon="1.704687">
        <ele>1509.438</ele>
        <time>2019-05-31T08:29:30Z</time>
      </trkpt>
      <trkpt lat="42.423760" lon="1.704673">
        <ele>1509.683</ele>
        <time>2019-05-31T08:29:31Z</time>
      </trkpt>
      <trkpt lat="42.423857" lon="1.704639">
        <ele>1509.825</ele>
        <time>2019-05-31T08:29:34Z</time>
      </trkpt>
      <trkpt lat="42.423914" lon="1.704596">
        <ele>1509.417</ele>
        <time>2019-05-31T08:29:36Z</time>
      </trkpt>
      <trkpt lat="42.424018" lon="1.704559">
        <ele>1510.008</ele>
        <time>2019-05-31T08:29:39Z</time>
      </trkpt>
      <trkpt lat="42.424098" lon="1.704551">
        <ele>1510.271</ele>
        <time>2019-05-31T08:29:41Z</time>
      </trkpt>
      <trkpt lat="42.424126" lon="1.704549">
        <ele>1510.475</ele>
        <time>2019-05-31T08:29:42Z</time>
      </trkpt>
      <trkpt lat="42.424157" lon="1.704548">
        <ele>1510.461</ele>
        <time>2019-05-31T08:29:43Z</time>
      </trkpt>
      <trkpt lat="42.424182" lon="1.704537">
        <ele>1510.249</ele>
        <time>2019-05-31T08:29:44Z</time>
      </trkpt>
      <trkpt lat="42.424268" lon="1.704502">
        <ele>1510.613</ele>
        <time>2019-05-31T08:29:47Z</time>
      </trkpt>
      <trkpt lat="42.424342" lon="1.704464">
        <ele>1511.458</ele>
        <time>2019-05-31T08:29:50Z</time>
      </trkpt>
      <trkpt lat="42.424362" lon="1.704452">
        <ele>1511.692</ele>
        <time>2019-05-31T08:29:51Z</time>
      </trkpt>
      <trkpt lat="42.424385" lon="1.704446">
        <ele>1511.858</ele>
        <time>2019-05-31T08:29:52Z</time>
      </trkpt>
      <trkpt lat="42.424410" lon="1.704442">
        <ele>1511.894</ele>
        <time>2019-05-31T08:29:53Z</time>
      </trkpt>
      <trkpt lat="42.424516" lon="1.704448">
        <ele>1512.457</ele>
        <time>2019-05-31T08:29:57Z</time>
      </trkpt>
      <trkpt lat="42.424633" lon="1.704458">
        <ele>1512.222</ele>
        <time>2019-05-31T08:30:01Z</time>
      </trkpt>
      <trkpt lat="42.424723" lon="1.704463">
        <ele>1512.208</ele>
        <time>2019-05-31T08:30:04Z</time>
      </trkpt>
      <trkpt lat="42.424919" lon="1.704489">
        <ele>1511.492</ele>
        <time>2019-05-31T08:30:10Z</time>
      </trkpt>
      <trkpt lat="42.424939" lon="1.704482">
        <ele>1511.666</ele>
        <time>2019-05-31T08:30:11Z</time>
      </trkpt>
      <trkpt lat="42.424974" lon="1.704447">
        <ele>1512.072</ele>
        <time>2019-05-31T08:30:13Z</time>
      </trkpt>
      <trkpt lat="42.424999" lon="1.704451">
        <ele>1512.290</ele>
        <time>2019-05-31T08:30:14Z</time>
      </trkpt>
      <trkpt lat="42.425119" lon="1.704444">
        <ele>1512.224</ele>
        <time>2019-05-31T08:30:17Z</time>
      </trkpt>
      <trkpt lat="42.425156" lon="1.704440">
        <ele>1512.449</ele>
        <time>2019-05-31T08:30:18Z</time>
      </trkpt>
      <trkpt lat="42.425283" lon="1.704442">
        <ele>1513.223</ele>
        <time>2019-05-31T08:30:23Z</time>
      </trkpt>
      <trkpt lat="42.425429" lon="1.704426">
        <ele>1514.029</ele>
        <time>2019-05-31T08:30:28Z</time>
      </trkpt>
      <trkpt lat="42.425555" lon="1.704415">
        <ele>1514.615</ele>
        <time>2019-05-31T08:30:34Z</time>
      </trkpt>
      <trkpt lat="42.425595" lon="1.704412">
        <ele>1515.065</ele>
        <time>2019-05-31T08:30:36Z</time>
      </trkpt>
      <trkpt lat="42.425684" lon="1.704411">
        <ele>1515.411</ele>
        <time>2019-05-31T08:30:41Z</time>
      </trkpt>
      <trkpt lat="42.425717" lon="1.704404">
        <ele>1515.808</ele>
        <time>2019-05-31T08:30:43Z</time>
      </trkpt>
      <trkpt lat="42.425746" lon="1.704404">
        <ele>1516.034</ele>
        <time>2019-05-31T08:30:45Z</time>
      </trkpt>
      <trkpt lat="42.425761" lon="1.704401">
        <ele>1516.238</ele>
        <time>2019-05-31T08:30:46Z</time>
      </trkpt>
      <trkpt lat="42.425773" lon="1.704399">
        <ele>1516.494</ele>
        <time>2019-05-31T08:30:47Z</time>
      </trkpt>
      <trkpt lat="42.425805" lon="1.704392">
        <ele>1516.842</ele>
        <time>2019-05-31T08:30:49Z</time>
      </trkpt>
      <trkpt lat="42.425822" lon="1.704392">
        <ele>1517.276</ele>
        <time>2019-05-31T08:30:50Z</time>
      </trkpt>
      <trkpt lat="42.425836" lon="1.704387">
        <ele>1517.261</ele>
        <time>2019-05-31T08:30:51Z</time>
      </trkpt>
      <trkpt lat="42.425871" lon="1.704381">
        <ele>1517.835</ele>
        <time>2019-05-31T08:30:53Z</time>
      </trkpt>
      <trkpt lat="42.425924" lon="1.704370">
        <ele>1518.271</ele>
        <time>2019-05-31T08:30:57Z</time>
      </trkpt>
      <trkpt lat="42.425951" lon="1.704359">
        <ele>1518.239</ele>
        <time>2019-05-31T08:30:59Z</time>
      </trkpt>
      <trkpt lat="42.426059" lon="1.704331">
        <ele>1519.001</ele>
        <time>2019-05-31T08:31:06Z</time>
      </trkpt>
      <trkpt lat="42.426101" lon="1.704323">
        <ele>1519.421</ele>
        <time>2019-05-31T08:31:09Z</time>
      </trkpt>
      <trkpt lat="42.426148" lon="1.704311">
        <ele>1519.608</ele>
        <time>2019-05-31T08:31:12Z</time>
      </trkpt>
      <trkpt lat="42.426276" lon="1.704266">
        <ele>1520.236</ele>
        <time>2019-05-31T08:31:20Z</time>
      </trkpt>
      <trkpt lat="42.426351" lon="1.704222">
        <ele>1520.450</ele>
        <time>2019-05-31T08:31:25Z</time>
      </trkpt>
      <trkpt lat="42.426416" lon="1.704199">
        <ele>1520.646</ele>
        <time>2019-05-31T08:31:29Z</time>
      </trkpt>
      <trkpt lat="42.426524" lon="1.704153">
        <ele>1521.234</ele>
        <time>2019-05-31T08:31:36Z</time>
      </trkpt>
      <trkpt lat="42.426559" lon="1.704142">
        <ele>1521.428</ele>
        <time>2019-05-31T08:31:38Z</time>
      </trkpt>
      <trkpt lat="42.426632" lon="1.704114">
        <ele>1522.083</ele>
        <time>2019-05-31T08:31:43Z</time>
      </trkpt>
      <trkpt lat="42.426673" lon="1.704096">
        <ele>1522.497</ele>
        <time>2019-05-31T08:31:46Z</time>
      </trkpt>
      <trkpt lat="42.426719" lon="1.704073">
        <ele>1522.813</ele>
        <time>2019-05-31T08:31:49Z</time>
      </trkpt>
      <trkpt lat="42.426783" lon="1.704056">
        <ele>1523.424</ele>
        <time>2019-05-31T08:31:53Z</time>
      </trkpt>
      <trkpt lat="42.426801" lon="1.704054">
        <ele>1523.604</ele>
        <time>2019-05-31T08:31:54Z</time>
      </trkpt>
      <trkpt lat="42.426888" lon="1.704045">
        <ele>1524.814</ele>
        <time>2019-05-31T08:31:59Z</time>
      </trkpt>
      <trkpt lat="42.426920" lon="1.704050">
        <ele>1525.208</ele>
        <time>2019-05-31T08:32:01Z</time>
      </trkpt>
      <trkpt lat="42.426948" lon="1.704039">
        <ele>1525.645</ele>
        <time>2019-05-31T08:32:03Z</time>
      </trkpt>
      <trkpt lat="42.426963" lon="1.704037">
        <ele>1526.039</ele>
        <time>2019-05-31T08:32:04Z</time>
      </trkpt>
      <trkpt lat="42.426990" lon="1.704034">
        <ele>1526.045</ele>
        <time>2019-05-31T08:32:06Z</time>
      </trkpt>
      <trkpt lat="42.427010" lon="1.704027">
        <ele>1526.073</ele>
        <time>2019-05-31T08:32:07Z</time>
      </trkpt>
      <trkpt lat="42.427041" lon="1.704009">
        <ele>1525.867</ele>
        <time>2019-05-31T08:32:09Z</time>
      </trkpt>
      <trkpt lat="42.427079" lon="1.703993">
        <ele>1526.092</ele>
        <time>2019-05-31T08:32:12Z</time>
      </trkpt>
      <trkpt lat="42.427167" lon="1.703924">
        <ele>1526.466</ele>
        <time>2019-05-31T08:32:18Z</time>
      </trkpt>
      <trkpt lat="42.427290" lon="1.703874">
        <ele>1526.012</ele>
        <time>2019-05-31T08:32:23Z</time>
      </trkpt>
      <trkpt lat="42.427437" lon="1.703815">
        <ele>1524.685</ele>
        <time>2019-05-31T08:32:28Z</time>
      </trkpt>
      <trkpt lat="42.427628" lon="1.703781">
        <ele>1524.089</ele>
        <time>2019-05-31T08:32:35Z</time>
      </trkpt>
      <trkpt lat="42.427768" lon="1.703760">
        <ele>1524.417</ele>
        <time>2019-05-31T08:32:41Z</time>
      </trkpt>
      <trkpt lat="42.427905" lon="1.703751">
        <ele>1525.208</ele>
        <time>2019-05-31T08:32:48Z</time>
      </trkpt>
      <trkpt lat="42.427942" lon="1.703744">
        <ele>1525.821</ele>
        <time>2019-05-31T08:32:50Z</time>
      </trkpt>
      <trkpt lat="42.427978" lon="1.703741">
        <ele>1526.695</ele>
        <time>2019-05-31T08:32:52Z</time>
      </trkpt>
      <trkpt lat="42.427999" lon="1.703736">
        <ele>1526.831</ele>
        <time>2019-05-31T08:32:53Z</time>
      </trkpt>
      <trkpt lat="42.428016" lon="1.703733">
        <ele>1527.099</ele>
        <time>2019-05-31T08:32:54Z</time>
      </trkpt>
      <trkpt lat="42.428091" lon="1.703727">
        <ele>1527.883</ele>
        <time>2019-05-31T08:32:59Z</time>
      </trkpt>
      <trkpt lat="42.428110" lon="1.703729">
        <ele>1528.088</ele>
        <time>2019-05-31T08:33:00Z</time>
      </trkpt>
      <trkpt lat="42.428389" lon="1.703673">
        <ele>1530.422</ele>
        <time>2019-05-31T08:33:19Z</time>
      </trkpt>
      <trkpt lat="42.428410" lon="1.703663">
        <ele>1530.658</ele>
        <time>2019-05-31T08:33:21Z</time>
      </trkpt>
      <trkpt lat="42.428496" lon="1.703663">
        <ele>1531.024</ele>
        <time>2019-05-31T08:33:26Z</time>
      </trkpt>
      <trkpt lat="42.428520" lon="1.703653">
        <ele>1531.004</ele>
        <time>2019-05-31T08:33:28Z</time>
      </trkpt>
      <trkpt lat="42.428553" lon="1.703645">
        <ele>1531.214</ele>
        <time>2019-05-31T08:33:30Z</time>
      </trkpt>
      <trkpt lat="42.428565" lon="1.703644">
        <ele>1531.408</ele>
        <time>2019-05-31T08:33:31Z</time>
      </trkpt>
      <trkpt lat="42.428612" lon="1.703622">
        <ele>1531.865</ele>
        <time>2019-05-31T08:33:34Z</time>
      </trkpt>
      <trkpt lat="42.428647" lon="1.703613">
        <ele>1532.099</ele>
        <time>2019-05-31T08:33:36Z</time>
      </trkpt>
      <trkpt lat="42.428690" lon="1.703594">
        <ele>1532.415</ele>
        <time>2019-05-31T08:33:39Z</time>
      </trkpt>
      <trkpt lat="42.428726" lon="1.703579">
        <ele>1533.083</ele>
        <time>2019-05-31T08:33:42Z</time>
      </trkpt>
      <trkpt lat="42.428757" lon="1.703571">
        <ele>1533.657</ele>
        <time>2019-05-31T08:33:44Z</time>
      </trkpt>
      <trkpt lat="42.428773" lon="1.703568">
        <ele>1533.622</ele>
        <time>2019-05-31T08:33:45Z</time>
      </trkpt>
      <trkpt lat="42.428816" lon="1.703557">
        <ele>1534.296</ele>
        <time>2019-05-31T08:33:48Z</time>
      </trkpt>
      <trkpt lat="42.428862" lon="1.703544">
        <ele>1534.682</ele>
        <time>2019-05-31T08:33:52Z</time>
      </trkpt>
      <trkpt lat="42.428890" lon="1.703529">
        <ele>1534.824</ele>
        <time>2019-05-31T08:33:54Z</time>
      </trkpt>
      <trkpt lat="42.428925" lon="1.703514">
        <ele>1535.004</ele>
        <time>2019-05-31T08:33:56Z</time>
      </trkpt>
      <trkpt lat="42.428994" lon="1.703443">
        <ele>1535.814</ele>
        <time>2019-05-31T08:34:02Z</time>
      </trkpt>
      <trkpt lat="42.429024" lon="1.703412">
        <ele>1536.208</ele>
        <time>2019-05-31T08:34:04Z</time>
      </trkpt>
      <trkpt lat="42.429075" lon="1.703370">
        <ele>1536.275</ele>
        <time>2019-05-31T08:34:07Z</time>
      </trkpt>
      <trkpt lat="42.429224" lon="1.703296">
        <ele>1535.659</ele>
        <time>2019-05-31T08:34:13Z</time>
      </trkpt>
      <trkpt lat="42.429251" lon="1.703292">
        <ele>1535.685</ele>
        <time>2019-05-31T08:34:14Z</time>
      </trkpt>
      <trkpt lat="42.429344" lon="1.703231">
        <ele>1535.263</ele>
        <time>2019-05-31T08:34:18Z</time>
      </trkpt>
      <trkpt lat="42.429366" lon="1.703211">
        <ele>1535.237</ele>
        <time>2019-05-31T08:34:19Z</time>
      </trkpt>
      <trkpt lat="42.429509" lon="1.703115">
        <ele>1535.862</ele>
        <time>2019-05-31T08:34:27Z</time>
      </trkpt>
      <trkpt lat="42.429571" lon="1.703044">
        <ele>1536.826</ele>
        <time>2019-05-31T08:34:31Z</time>
      </trkpt>
      <trkpt lat="42.429621" lon="1.702996">
        <ele>1537.422</ele>
        <time>2019-05-31T08:34:34Z</time>
      </trkpt>
      <trkpt lat="42.429643" lon="1.702989">
        <ele>1537.471</ele>
        <time>2019-05-31T08:34:35Z</time>
      </trkpt>
      <trkpt lat="42.429720" lon="1.702927">
        <ele>1537.041</ele>
        <time>2019-05-31T08:34:39Z</time>
      </trkpt>
      <trkpt lat="42.429826" lon="1.702818">
        <ele>1536.815</ele>
        <time>2019-05-31T08:34:45Z</time>
      </trkpt>
      <trkpt lat="42.429944" lon="1.702737">
        <ele>1536.008</ele>
        <time>2019-05-31T08:34:50Z</time>
      </trkpt>
      <trkpt lat="42.429976" lon="1.702722">
        <ele>1535.850</ele>
        <time>2019-05-31T08:34:51Z</time>
      </trkpt>
      <trkpt lat="42.430090" lon="1.702701">
        <ele>1535.634</ele>
        <time>2019-05-31T08:34:55Z</time>
      </trkpt>
      <trkpt lat="42.430241" lon="1.702676">
        <ele>1536.690</ele>
        <time>2019-05-31T08:35:02Z</time>
      </trkpt>
      <trkpt lat="42.430257" lon="1.702669">
        <ele>1536.898</ele>
        <time>2019-05-31T08:35:03Z</time>
      </trkpt>
      <trkpt lat="42.430290" lon="1.702655">
        <ele>1537.022</ele>
        <time>2019-05-31T08:35:05Z</time>
      </trkpt>
      <trkpt lat="42.430334" lon="1.702637">
        <ele>1537.267</ele>
        <time>2019-05-31T08:35:07Z</time>
      </trkpt>
      <trkpt lat="42.430429" lon="1.702600">
        <ele>1538.041</ele>
        <time>2019-05-31T08:35:11Z</time>
      </trkpt>
      <trkpt lat="42.430474" lon="1.702578">
        <ele>1538.257</ele>
        <time>2019-05-31T08:35:13Z</time>
      </trkpt>
      <trkpt lat="42.430547" lon="1.702585">
        <ele>1537.833</ele>
        <time>2019-05-31T08:35:16Z</time>
      </trkpt>
      <trkpt lat="42.430574" lon="1.702586">
        <ele>1537.823</ele>
        <time>2019-05-31T08:35:17Z</time>
      </trkpt>
      <trkpt lat="42.430726" lon="1.702535">
        <ele>1537.815</ele>
        <time>2019-05-31T08:35:23Z</time>
      </trkpt>
      <trkpt lat="42.430972" lon="1.702446">
        <ele>1538.608</ele>
        <time>2019-05-31T08:35:32Z</time>
      </trkpt>
      <trkpt lat="42.431033" lon="1.702427">
        <ele>1539.036</ele>
        <time>2019-05-31T08:35:35Z</time>
      </trkpt>
      <trkpt lat="42.431086" lon="1.702408">
        <ele>1539.610</ele>
        <time>2019-05-31T08:35:38Z</time>
      </trkpt>
      <trkpt lat="42.431156" lon="1.702369">
        <ele>1540.016</ele>
        <time>2019-05-31T08:35:42Z</time>
      </trkpt>
      <trkpt lat="42.431191" lon="1.702346">
        <ele>1540.294</ele>
        <time>2019-05-31T08:35:44Z</time>
      </trkpt>
      <trkpt lat="42.431320" lon="1.702280">
        <ele>1540.418</ele>
        <time>2019-05-31T08:35:51Z</time>
      </trkpt>
      <trkpt lat="42.431400" lon="1.702256">
        <ele>1541.263</ele>
        <time>2019-05-31T08:35:55Z</time>
      </trkpt>
      <trkpt lat="42.431407" lon="1.702242">
        <ele>1541.437</ele>
        <time>2019-05-31T08:35:56Z</time>
      </trkpt>
      <trkpt lat="42.431487" lon="1.702201">
        <ele>1542.243</ele>
        <time>2019-05-31T08:36:00Z</time>
      </trkpt>
      <trkpt lat="42.431507" lon="1.702194">
        <ele>1542.253</ele>
        <time>2019-05-31T08:36:01Z</time>
      </trkpt>
      <trkpt lat="42.431569" lon="1.702155">
        <ele>1542.204</ele>
        <time>2019-05-31T08:36:05Z</time>
      </trkpt>
      <trkpt lat="42.431684" lon="1.702121">
        <ele>1542.014</ele>
        <time>2019-05-31T08:36:10Z</time>
      </trkpt>
      <trkpt lat="42.431812" lon="1.702100">
        <ele>1542.408</ele>
        <time>2019-05-31T08:36:16Z</time>
      </trkpt>
      <trkpt lat="42.431848" lon="1.702097">
        <ele>1542.858</ele>
        <time>2019-05-31T08:36:18Z</time>
      </trkpt>
      <trkpt lat="42.431903" lon="1.702091">
        <ele>1543.082</ele>
        <time>2019-05-31T08:36:21Z</time>
      </trkpt>
      <trkpt lat="42.431925" lon="1.702089">
        <ele>1543.088</ele>
        <time>2019-05-31T08:36:22Z</time>
      </trkpt>
      <trkpt lat="42.431945" lon="1.702088">
        <ele>1543.236</ele>
        <time>2019-05-31T08:36:23Z</time>
      </trkpt>
      <trkpt lat="42.431983" lon="1.702060">
        <ele>1544.070</ele>
        <time>2019-05-31T08:36:26Z</time>
      </trkpt>
      <trkpt lat="42.432021" lon="1.702019">
        <ele>1544.455</ele>
        <time>2019-05-31T08:36:29Z</time>
      </trkpt>
      <trkpt lat="42.432069" lon="1.701993">
        <ele>1544.689</ele>
        <time>2019-05-31T08:36:32Z</time>
      </trkpt>
      <trkpt lat="42.432097" lon="1.701971">
        <ele>1545.215</ele>
        <time>2019-05-31T08:36:34Z</time>
      </trkpt>
      <trkpt lat="42.432131" lon="1.701952">
        <ele>1545.464</ele>
        <time>2019-05-31T08:36:36Z</time>
      </trkpt>
      <trkpt lat="42.432189" lon="1.701897">
        <ele>1546.006</ele>
        <time>2019-05-31T08:36:40Z</time>
      </trkpt>
      <trkpt lat="42.432247" lon="1.701834">
        <ele>1546.616</ele>
        <time>2019-05-31T08:36:45Z</time>
      </trkpt>
      <trkpt lat="42.432283" lon="1.701795">
        <ele>1546.808</ele>
        <time>2019-05-31T08:36:48Z</time>
      </trkpt>
      <trkpt lat="42.432374" lon="1.701693">
        <ele>1547.629</ele>
        <time>2019-05-31T08:36:56Z</time>
      </trkpt>
      <trkpt lat="42.432463" lon="1.701594">
        <ele>1548.623</ele>
        <time>2019-05-31T08:37:04Z</time>
      </trkpt>
      <trkpt lat="42.432547" lon="1.701536">
        <ele>1549.849</ele>
        <time>2019-05-31T08:37:10Z</time>
      </trkpt>
      <trkpt lat="42.432560" lon="1.701528">
        <ele>1550.057</ele>
        <time>2019-05-31T08:37:11Z</time>
      </trkpt>
      <trkpt lat="42.432611" lon="1.701495">
        <ele>1551.071</ele>
        <time>2019-05-31T08:37:15Z</time>
      </trkpt>
      <trkpt lat="42.432664" lon="1.701473">
        <ele>1551.686</ele>
        <time>2019-05-31T08:37:19Z</time>
      </trkpt>
      <trkpt lat="42.432702" lon="1.701459">
        <ele>1552.080</ele>
        <time>2019-05-31T08:37:22Z</time>
      </trkpt>
      <trkpt lat="42.432769" lon="1.701447">
        <ele>1552.876</ele>
        <time>2019-05-31T08:37:27Z</time>
      </trkpt>
      <trkpt lat="42.432782" lon="1.701451">
        <ele>1553.097</ele>
        <time>2019-05-31T08:37:28Z</time>
      </trkpt>
      <trkpt lat="42.433198" lon="1.701676">
        <ele>1556.623</ele>
        <time>2019-05-31T08:39:11Z</time>
      </trkpt>
      <trkpt lat="42.433259" lon="1.701703">
        <ele>1556.825</ele>
        <time>2019-05-31T08:39:15Z</time>
      </trkpt>
      <trkpt lat="42.433339" lon="1.701721">
        <ele>1556.808</ele>
        <time>2019-05-31T08:39:20Z</time>
      </trkpt>
      <trkpt lat="42.433443" lon="1.701744">
        <ele>1557.272</ele>
        <time>2019-05-31T08:39:26Z</time>
      </trkpt>
      <trkpt lat="42.433539" lon="1.701738">
        <ele>1557.456</ele>
        <time>2019-05-31T08:39:31Z</time>
      </trkpt>
      <trkpt lat="42.433601" lon="1.701722">
        <ele>1557.882</ele>
        <time>2019-05-31T08:39:34Z</time>
      </trkpt>
      <trkpt lat="42.433656" lon="1.701705">
        <ele>1558.020</ele>
        <time>2019-05-31T08:39:37Z</time>
      </trkpt>
      <trkpt lat="42.433697" lon="1.701690">
        <ele>1558.214</ele>
        <time>2019-05-31T08:39:39Z</time>
      </trkpt>
      <trkpt lat="42.433733" lon="1.701674">
        <ele>1559.029</ele>
        <time>2019-05-31T08:39:41Z</time>
      </trkpt>
      <trkpt lat="42.433779" lon="1.701643">
        <ele>1559.253</ele>
        <time>2019-05-31T08:39:44Z</time>
      </trkpt>
      <trkpt lat="42.433827" lon="1.701611">
        <ele>1560.049</ele>
        <time>2019-05-31T08:39:47Z</time>
      </trkpt>
      <trkpt lat="42.433881" lon="1.701604">
        <ele>1560.624</ele>
        <time>2019-05-31T08:39:51Z</time>
      </trkpt>
      <trkpt lat="42.433902" lon="1.701602">
        <ele>1561.204</ele>
        <time>2019-05-31T08:39:53Z</time>
      </trkpt>
      <trkpt lat="42.433939" lon="1.701608">
        <ele>1561.814</ele>
        <time>2019-05-31T08:39:56Z</time>
      </trkpt>
      <trkpt lat="42.434284" lon="1.701573">
        <ele>1566.008</ele>
        <time>2019-05-31T08:40:43Z</time>
      </trkpt>
      <trkpt lat="42.434323" lon="1.701567">
        <ele>1566.275</ele>
        <time>2019-05-31T08:40:46Z</time>
      </trkpt>
      <trkpt lat="42.434442" lon="1.701571">
        <ele>1567.029</ele>
        <time>2019-05-31T08:40:54Z</time>
      </trkpt>
      <trkpt lat="42.434459" lon="1.701572">
        <ele>1567.065</ele>
        <time>2019-05-31T08:40:55Z</time>
      </trkpt>
      <trkpt lat="42.434556" lon="1.701572">
        <ele>1567.433</ele>
        <time>2019-05-31T08:41:02Z</time>
      </trkpt>
      <trkpt lat="42.434627" lon="1.701573">
        <ele>1568.087</ele>
        <time>2019-05-31T08:41:07Z</time>
      </trkpt>
      <trkpt lat="42.434663" lon="1.701568">
        <ele>1568.432</ele>
        <time>2019-05-31T08:41:10Z</time>
      </trkpt>
      <trkpt lat="42.434749" lon="1.701560">
        <ele>1569.266</ele>
        <time>2019-05-31T08:41:16Z</time>
      </trkpt>
      <trkpt lat="42.434832" lon="1.701566">
        <ele>1569.842</ele>
        <time>2019-05-31T08:41:22Z</time>
      </trkpt>
      <trkpt lat="42.434862" lon="1.701563">
        <ele>1570.041</ele>
        <time>2019-05-31T08:41:24Z</time>
      </trkpt>
      <trkpt lat="42.434890" lon="1.701564">
        <ele>1570.281</ele>
        <time>2019-05-31T08:41:26Z</time>
      </trkpt>
      <trkpt lat="42.434961" lon="1.701568">
        <ele>1570.609</ele>
        <time>2019-05-31T08:41:31Z</time>
      </trkpt>
      <trkpt lat="42.434976" lon="1.701570">
        <ele>1571.008</ele>
        <time>2019-05-31T08:41:32Z</time>
      </trkpt>
      <trkpt lat="42.435008" lon="1.701575">
        <ele>1571.217</ele>
        <time>2019-05-31T08:41:34Z</time>
      </trkpt>
      <trkpt lat="42.435037" lon="1.701573">
        <ele>1571.441</ele>
        <time>2019-05-31T08:41:36Z</time>
      </trkpt>
      <trkpt lat="42.435080" lon="1.701571">
        <ele>1571.867</ele>
        <time>2019-05-31T08:41:39Z</time>
      </trkpt>
      <trkpt lat="42.435122" lon="1.701573">
        <ele>1572.435</ele>
        <time>2019-05-31T08:41:42Z</time>
      </trkpt>
      <trkpt lat="42.435175" lon="1.701577">
        <ele>1572.819</ele>
        <time>2019-05-31T08:41:46Z</time>
      </trkpt>
      <trkpt lat="42.435234" lon="1.701574">
        <ele>1573.414</ele>
        <time>2019-05-31T08:41:50Z</time>
      </trkpt>
      <trkpt lat="42.435271" lon="1.701563">
        <ele>1573.878</ele>
        <time>2019-05-31T08:41:53Z</time>
      </trkpt>
      <trkpt lat="42.435335" lon="1.701549">
        <ele>1574.444</ele>
        <time>2019-05-31T08:41:58Z</time>
      </trkpt>
      <trkpt lat="42.435348" lon="1.701546">
        <ele>1574.488</ele>
        <time>2019-05-31T08:41:59Z</time>
      </trkpt>
      <trkpt lat="42.435429" lon="1.701523">
        <ele>1575.024</ele>
        <time>2019-05-31T08:42:04Z</time>
      </trkpt>
      <trkpt lat="42.435443" lon="1.701518">
        <ele>1575.226</ele>
        <time>2019-05-31T08:42:05Z</time>
      </trkpt>
      <trkpt lat="42.435453" lon="1.701513">
        <ele>1575.408</ele>
        <time>2019-05-31T08:42:06Z</time>
      </trkpt>
      <trkpt lat="42.435538" lon="1.701488">
        <ele>1576.011</ele>
        <time>2019-05-31T08:42:12Z</time>
      </trkpt>
      <trkpt lat="42.435585" lon="1.701462">
        <ele>1576.465</ele>
        <time>2019-05-31T08:42:16Z</time>
      </trkpt>
      <trkpt lat="42.435624" lon="1.701449">
        <ele>1576.631</ele>
        <time>2019-05-31T08:42:19Z</time>
      </trkpt>
      <trkpt lat="42.435720" lon="1.701403">
        <ele>1577.419</ele>
        <time>2019-05-31T08:42:26Z</time>
      </trkpt>
      <trkpt lat="42.435744" lon="1.701395">
        <ele>1577.693</ele>
        <time>2019-05-31T08:42:28Z</time>
      </trkpt>
      <trkpt lat="42.435796" lon="1.701376">
        <ele>1578.028</ele>
        <time>2019-05-31T08:42:32Z</time>
      </trkpt>
      <trkpt lat="42.435851" lon="1.701355">
        <ele>1578.672</ele>
        <time>2019-05-31T08:42:36Z</time>
      </trkpt>
      <trkpt lat="42.435887" lon="1.701327">
        <ele>1578.818</ele>
        <time>2019-05-31T08:42:39Z</time>
      </trkpt>
      <trkpt lat="42.435899" lon="1.701316">
        <ele>1579.036</ele>
        <time>2019-05-31T08:42:40Z</time>
      </trkpt>
      <trkpt lat="42.435935" lon="1.701283">
        <ele>1579.617</ele>
        <time>2019-05-31T08:42:44Z</time>
      </trkpt>
      <trkpt lat="42.435952" lon="1.701285">
        <ele>1579.818</ele>
        <time>2019-05-31T08:42:45Z</time>
      </trkpt>
      <trkpt lat="42.435968" lon="1.701281">
        <ele>1579.808</ele>
        <time>2019-05-31T08:42:46Z</time>
      </trkpt>
      <trkpt lat="42.435982" lon="1.701275">
        <ele>1580.066</ele>
        <time>2019-05-31T08:42:47Z</time>
      </trkpt>
      <trkpt lat="42.436010" lon="1.701268">
        <ele>1580.080</ele>
        <time>2019-05-31T08:42:49Z</time>
      </trkpt>
      <trkpt lat="42.436050" lon="1.701247">
        <ele>1580.886</ele>
        <time>2019-05-31T08:42:52Z</time>
      </trkpt>
      <trkpt lat="42.436078" lon="1.701239">
        <ele>1581.064</ele>
        <time>2019-05-31T08:42:54Z</time>
      </trkpt>
      <trkpt lat="42.436159" lon="1.701241">
        <ele>1581.488</ele>
        <time>2019-05-31T08:43:00Z</time>
      </trkpt>
      <trkpt lat="42.436173" lon="1.701239">
        <ele>1582.033</ele>
        <time>2019-05-31T08:43:01Z</time>
      </trkpt>
      <trkpt lat="42.436253" lon="1.701222">
        <ele>1582.277</ele>
        <time>2019-05-31T08:43:07Z</time>
      </trkpt>
      <trkpt lat="42.436305" lon="1.701222">
        <ele>1582.663</ele>
        <time>2019-05-31T08:43:11Z</time>
      </trkpt>
      <trkpt lat="42.436330" lon="1.701226">
        <ele>1583.079</ele>
        <time>2019-05-31T08:43:13Z</time>
      </trkpt>
      <trkpt lat="42.436383" lon="1.701234">
        <ele>1583.605</ele>
        <time>2019-05-31T08:43:17Z</time>
      </trkpt>
      <trkpt lat="42.436416" lon="1.701243">
        <ele>1584.025</ele>
        <time>2019-05-31T08:43:20Z</time>
      </trkpt>
      <trkpt lat="42.436461" lon="1.701255">
        <ele>1584.608</ele>
        <time>2019-05-31T08:43:24Z</time>
      </trkpt>
      <trkpt lat="42.436481" lon="1.701265">
        <ele>1584.860</ele>
        <time>2019-05-31T08:43:26Z</time>
      </trkpt>
      <trkpt lat="42.436513" lon="1.701276">
        <ele>1585.234</ele>
        <time>2019-05-31T08:43:28Z</time>
      </trkpt>
      <trkpt lat="42.436538" lon="1.701282">
        <ele>1585.640</ele>
        <time>2019-05-31T08:43:30Z</time>
      </trkpt>
      <trkpt lat="42.436562" lon="1.701284">
        <ele>1585.628</ele>
        <time>2019-05-31T08:43:32Z</time>
      </trkpt>
      <trkpt lat="42.436596" lon="1.701287">
        <ele>1586.262</ele>
        <time>2019-05-31T08:43:35Z</time>
      </trkpt>
      <trkpt lat="42.436633" lon="1.701305">
        <ele>1584.687</ele>
        <time>2019-05-31T08:43:38Z</time>
      </trkpt>
      <trkpt lat="42.436672" lon="1.701308">
        <ele>1587.031</ele>
        <time>2019-05-31T08:43:41Z</time>
      </trkpt>
      <trkpt lat="42.436716" lon="1.701320">
        <ele>1587.647</ele>
        <time>2019-05-31T08:43:45Z</time>
      </trkpt>
      <trkpt lat="42.436752" lon="1.701339">
        <ele>1587.827</ele>
        <time>2019-05-31T08:43:48Z</time>
      </trkpt>
      <trkpt lat="42.436782" lon="1.701351">
        <ele>1588.068</ele>
        <time>2019-05-31T08:43:50Z</time>
      </trkpt>
      <trkpt lat="42.436849" lon="1.701367">
        <ele>1588.814</ele>
        <time>2019-05-31T08:43:56Z</time>
      </trkpt>
      <trkpt lat="42.436885" lon="1.701377">
        <ele>1589.208</ele>
        <time>2019-05-31T08:43:59Z</time>
      </trkpt>
      <trkpt lat="42.436925" lon="1.701392">
        <ele>1589.695</ele>
        <time>2019-05-31T08:44:03Z</time>
      </trkpt>
      <trkpt lat="42.436971" lon="1.701402">
        <ele>1590.219</ele>
        <time>2019-05-31T08:44:07Z</time>
      </trkpt>
      <trkpt lat="42.437004" lon="1.701410">
        <ele>1590.685</ele>
        <time>2019-05-31T08:44:10Z</time>
      </trkpt>
      <trkpt lat="42.437047" lon="1.701415">
        <ele>1591.283</ele>
        <time>2019-05-31T08:44:14Z</time>
      </trkpt>
      <trkpt lat="42.437058" lon="1.701421">
        <ele>1591.497</ele>
        <time>2019-05-31T08:44:15Z</time>
      </trkpt>
      <trkpt lat="42.437122" lon="1.701441">
        <ele>1592.092</ele>
        <time>2019-05-31T08:44:21Z</time>
      </trkpt>
      <trkpt lat="42.437134" lon="1.701442">
        <ele>1592.216</ele>
        <time>2019-05-31T08:44:22Z</time>
      </trkpt>
      <trkpt lat="42.437154" lon="1.701441">
        <ele>1592.432</ele>
        <time>2019-05-31T08:44:24Z</time>
      </trkpt>
      <trkpt lat="42.437208" lon="1.701464">
        <ele>1593.489</ele>
        <time>2019-05-31T08:44:29Z</time>
      </trkpt>
      <trkpt lat="42.437219" lon="1.701466">
        <ele>1593.406</ele>
        <time>2019-05-31T08:44:30Z</time>
      </trkpt>
      <trkpt lat="42.437269" lon="1.701499">
        <ele>1594.226</ele>
        <time>2019-05-31T08:44:35Z</time>
      </trkpt>
      <trkpt lat="42.438076" lon="1.701679">
        <ele>1604.208</ele>
        <time>2019-05-31T08:54:12Z</time>
      </trkpt>
      <trkpt lat="42.438103" lon="1.701557">
        <ele>1603.081</ele>
        <time>2019-05-31T08:54:18Z</time>
      </trkpt>
      <trkpt lat="42.438123" lon="1.701520">
        <ele>1602.625</ele>
        <time>2019-05-31T08:54:20Z</time>
      </trkpt>
      <trkpt lat="42.438192" lon="1.701468">
        <ele>1601.861</ele>
        <time>2019-05-31T08:54:24Z</time>
      </trkpt>
      <trkpt lat="42.438326" lon="1.701427">
        <ele>1600.699</ele>
        <time>2019-05-31T08:54:29Z</time>
      </trkpt>
      <trkpt lat="42.438359" lon="1.701420">
        <ele>1600.283</ele>
        <time>2019-05-31T08:54:30Z</time>
      </trkpt>
      <trkpt lat="42.438499" lon="1.701383">
        <ele>1599.838</ele>
        <time>2019-05-31T08:54:36Z</time>
      </trkpt>
      <trkpt lat="42.438547" lon="1.701369">
        <ele>1599.652</ele>
        <time>2019-05-31T08:54:39Z</time>
      </trkpt>
      <trkpt lat="42.438579" lon="1.701361">
        <ele>1599.698</ele>
        <time>2019-05-31T08:54:41Z</time>
      </trkpt>
      <trkpt lat="42.438707" lon="1.701349">
        <ele>1598.883</ele>
        <time>2019-05-31T08:54:47Z</time>
      </trkpt>
      <trkpt lat="42.438847" lon="1.701281">
        <ele>1598.825</ele>
        <time>2019-05-31T08:54:53Z</time>
      </trkpt>
      <trkpt lat="42.438903" lon="1.701247">
        <ele>1598.417</ele>
        <time>2019-05-31T08:54:55Z</time>
      </trkpt>
      <trkpt lat="42.438998" lon="1.701222">
        <ele>1598.008</ele>
        <time>2019-05-31T08:54:58Z</time>
      </trkpt>
      <trkpt lat="42.439172" lon="1.701125">
        <ele>1597.211</ele>
        <time>2019-05-31T08:55:03Z</time>
      </trkpt>
      <trkpt lat="42.439434" lon="1.701005">
        <ele>1596.665</ele>
        <time>2019-05-31T08:55:10Z</time>
      </trkpt>
      <trkpt lat="42.439457" lon="1.700879">
        <ele>1597.211</ele>
        <time>2019-05-31T08:55:14Z</time>
      </trkpt>
      <trkpt lat="42.439468" lon="1.700804">
        <ele>1597.249</ele>
        <time>2019-05-31T08:55:28Z</time>
      </trkpt>
      <trkpt lat="42.439494" lon="1.700640">
        <ele>1597.823</ele>
        <time>2019-05-31T08:55:34Z</time>
      </trkpt>
      <trkpt lat="42.439502" lon="1.700607">
        <ele>1598.288</ele>
        <time>2019-05-31T08:55:36Z</time>
      </trkpt>
      <trkpt lat="42.439515" lon="1.700589">
        <ele>1598.452</ele>
        <time>2019-05-31T08:55:37Z</time>
      </trkpt>
      <trkpt lat="42.439525" lon="1.700549">
        <ele>1599.448</ele>
        <time>2019-05-31T08:55:40Z</time>
      </trkpt>
      <trkpt lat="42.439524" lon="1.700466">
        <ele>1600.456</ele>
        <time>2019-05-31T08:55:45Z</time>
      </trkpt>
      <trkpt lat="42.439532" lon="1.700452">
        <ele>1600.859</ele>
        <time>2019-05-31T08:55:46Z</time>
      </trkpt>
      <trkpt lat="42.439534" lon="1.700437">
        <ele>1601.014</ele>
        <time>2019-05-31T08:55:47Z</time>
      </trkpt>
      <trkpt lat="42.439536" lon="1.700394">
        <ele>1601.608</ele>
        <time>2019-05-31T08:55:50Z</time>
      </trkpt>
      <trkpt lat="42.439537" lon="1.700341">
        <ele>1602.658</ele>
        <time>2019-05-31T08:55:53Z</time>
      </trkpt>
      <trkpt lat="42.439526" lon="1.700313">
        <ele>1602.812</ele>
        <time>2019-05-31T08:55:55Z</time>
      </trkpt>
      <trkpt lat="42.439516" lon="1.700303">
        <ele>1602.868</ele>
        <time>2019-05-31T08:55:56Z</time>
      </trkpt>
      <trkpt lat="42.439481" lon="1.700236">
        <ele>1603.866</ele>
        <time>2019-05-31T08:56:01Z</time>
      </trkpt>
      <trkpt lat="42.439474" lon="1.700200">
        <ele>1603.850</ele>
        <time>2019-05-31T08:56:03Z</time>
      </trkpt>
      <trkpt lat="42.439450" lon="1.700052">
        <ele>1604.835</ele>
        <time>2019-05-31T08:56:11Z</time>
      </trkpt>
      <trkpt lat="42.439449" lon="1.700038">
        <ele>1604.899</ele>
        <time>2019-05-31T08:56:12Z</time>
      </trkpt>
      <trkpt lat="42.439447" lon="1.699914">
        <ele>1605.615</ele>
        <time>2019-05-31T08:56:18Z</time>
      </trkpt>
      <trkpt lat="42.439443" lon="1.699794">
        <ele>1606.062</ele>
        <time>2019-05-31T08:56:24Z</time>
      </trkpt>
      <trkpt lat="42.439442" lon="1.699756">
        <ele>1606.483</ele>
        <time>2019-05-31T08:56:26Z</time>
      </trkpt>
      <trkpt lat="42.439476" lon="1.699606">
        <ele>1606.811</ele>
        <time>2019-05-31T08:56:34Z</time>
      </trkpt>
      <trkpt lat="42.439517" lon="1.699570">
        <ele>1607.008</ele>
        <time>2019-05-31T08:56:37Z</time>
      </trkpt>
      <trkpt lat="42.439554" lon="1.699546">
        <ele>1607.459</ele>
        <time>2019-05-31T08:56:40Z</time>
      </trkpt>
      <trkpt lat="42.439587" lon="1.699495">
        <ele>1608.213</ele>
        <time>2019-05-31T08:56:44Z</time>
      </trkpt>
      <trkpt lat="42.439582" lon="1.699478">
        <ele>1608.469</ele>
        <time>2019-05-31T08:56:45Z</time>
      </trkpt>
      <trkpt lat="42.439577" lon="1.699463">
        <ele>1608.687</ele>
        <time>2019-05-31T08:56:46Z</time>
      </trkpt>
      <trkpt lat="42.439486" lon="1.699372">
        <ele>1608.071</ele>
        <time>2019-05-31T08:56:51Z</time>
      </trkpt>
      <trkpt lat="42.439367" lon="1.699339">
        <ele>1607.496</ele>
        <time>2019-05-31T08:56:56Z</time>
      </trkpt>
      <trkpt lat="42.439347" lon="1.699334">
        <ele>1607.080</ele>
        <time>2019-05-31T08:56:57Z</time>
      </trkpt>
      <trkpt lat="42.439259" lon="1.699305">
        <ele>1605.696</ele>
        <time>2019-05-31T08:57:01Z</time>
      </trkpt>
      <trkpt lat="42.439206" lon="1.699302">
        <ele>1604.425</ele>
        <time>2019-05-31T08:57:03Z</time>
      </trkpt>
      <trkpt lat="42.439117" lon="1.699284">
        <ele>1603.226</ele>
        <time>2019-05-31T08:57:06Z</time>
      </trkpt>
      <trkpt lat="42.439063" lon="1.699247">
        <ele>1602.408</ele>
        <time>2019-05-31T08:57:08Z</time>
      </trkpt>
      <trkpt lat="42.439040" lon="1.699232">
        <ele>1602.008</ele>
        <time>2019-05-31T08:57:09Z</time>
      </trkpt>
      <trkpt lat="42.438964" lon="1.699166">
        <ele>1600.675</ele>
        <time>2019-05-31T08:57:12Z</time>
      </trkpt>
      <trkpt lat="42.438907" lon="1.699113">
        <ele>1599.889</ele>
        <time>2019-05-31T08:57:14Z</time>
      </trkpt>
      <trkpt lat="42.438878" lon="1.699088">
        <ele>1599.475</ele>
        <time>2019-05-31T08:57:15Z</time>
      </trkpt>
      <trkpt lat="42.438765" lon="1.698980">
        <ele>1597.443</ele>
        <time>2019-05-31T08:57:18Z</time>
      </trkpt>
      <trkpt lat="42.438692" lon="1.698873">
        <ele>1596.837</ele>
        <time>2019-05-31T08:57:20Z</time>
      </trkpt>
      <trkpt lat="42.438572" lon="1.698754">
        <ele>1596.492</ele>
        <time>2019-05-31T08:57:23Z</time>
      </trkpt>
      <trkpt lat="42.438530" lon="1.698749">
        <ele>1596.236</ele>
        <time>2019-05-31T08:57:24Z</time>
      </trkpt>
      <trkpt lat="42.438484" lon="1.698742">
        <ele>1596.042</ele>
        <time>2019-05-31T08:57:25Z</time>
      </trkpt>
      <trkpt lat="42.438330" lon="1.698768">
        <ele>1594.888</ele>
        <time>2019-05-31T08:57:29Z</time>
      </trkpt>
      <trkpt lat="42.438287" lon="1.698763">
        <ele>1594.024</ele>
        <time>2019-05-31T08:57:30Z</time>
      </trkpt>
      <trkpt lat="42.438249" lon="1.698766">
        <ele>1593.226</ele>
        <time>2019-05-31T08:57:31Z</time>
      </trkpt>
      <trkpt lat="42.438133" lon="1.698777">
        <ele>1591.808</ele>
        <time>2019-05-31T08:57:34Z</time>
      </trkpt>
      <trkpt lat="42.438063" lon="1.698810">
        <ele>1590.891</ele>
        <time>2019-05-31T08:57:36Z</time>
      </trkpt>
      <trkpt lat="42.437931" lon="1.698948">
        <ele>1589.615</ele>
        <time>2019-05-31T08:57:41Z</time>
      </trkpt>
      <trkpt lat="42.437897" lon="1.698976">
        <ele>1588.471</ele>
        <time>2019-05-31T08:57:42Z</time>
      </trkpt>
      <trkpt lat="42.437795" lon="1.699059">
        <ele>1586.839</ele>
        <time>2019-05-31T08:57:45Z</time>
      </trkpt>
      <trkpt lat="42.437723" lon="1.699103">
        <ele>1585.873</ele>
        <time>2019-05-31T08:57:47Z</time>
      </trkpt>
      <trkpt lat="42.437614" lon="1.699157">
        <ele>1584.668</ele>
        <time>2019-05-31T08:57:50Z</time>
      </trkpt>
      <trkpt lat="42.437544" lon="1.699215">
        <ele>1583.642</ele>
        <time>2019-05-31T08:57:52Z</time>
      </trkpt>
      <trkpt lat="42.437506" lon="1.699233">
        <ele>1582.888</ele>
        <time>2019-05-31T08:57:53Z</time>
      </trkpt>
      <trkpt lat="42.437431" lon="1.699281">
        <ele>1581.832</ele>
        <time>2019-05-31T08:57:55Z</time>
      </trkpt>
      <trkpt lat="42.437388" lon="1.699291">
        <ele>1581.492</ele>
        <time>2019-05-31T08:57:56Z</time>
      </trkpt>
      <trkpt lat="42.437315" lon="1.699298">
        <ele>1580.211</ele>
        <time>2019-05-31T08:57:58Z</time>
      </trkpt>
      <trkpt lat="42.437281" lon="1.699293">
        <ele>1579.808</ele>
        <time>2019-05-31T08:57:59Z</time>
      </trkpt>
      <trkpt lat="42.437191" lon="1.699263">
        <ele>1579.496</ele>
        <time>2019-05-31T08:58:01Z</time>
      </trkpt>
      <trkpt lat="42.437087" lon="1.699198">
        <ele>1579.080</ele>
        <time>2019-05-31T08:58:03Z</time>
      </trkpt>
      <trkpt lat="42.437031" lon="1.699157">
        <ele>1578.046</ele>
        <time>2019-05-31T08:58:04Z</time>
      </trkpt>
      <trkpt lat="42.436975" lon="1.699123">
        <ele>1576.644</ele>
        <time>2019-05-31T08:58:05Z</time>
      </trkpt>
      <trkpt lat="42.436915" lon="1.699093">
        <ele>1575.238</ele>
        <time>2019-05-31T08:58:06Z</time>
      </trkpt>
      <trkpt lat="42.436855" lon="1.699074">
        <ele>1575.293</ele>
        <time>2019-05-31T08:58:07Z</time>
      </trkpt>
      <trkpt lat="42.436792" lon="1.699073">
        <ele>1574.697</ele>
        <time>2019-05-31T08:58:08Z</time>
      </trkpt>
      <trkpt lat="42.436724" lon="1.699081">
        <ele>1574.293</ele>
        <time>2019-05-31T08:58:09Z</time>
      </trkpt>
      <trkpt lat="42.436655" lon="1.699084">
        <ele>1573.019</ele>
        <time>2019-05-31T08:58:10Z</time>
      </trkpt>
      <trkpt lat="42.436452" lon="1.699094">
        <ele>1573.009</ele>
        <time>2019-05-31T08:58:13Z</time>
      </trkpt>
      <trkpt lat="42.436388" lon="1.699110">
        <ele>1573.419</ele>
        <time>2019-05-31T08:58:14Z</time>
      </trkpt>
      <trkpt lat="42.436236" lon="1.699218">
        <ele>1573.408</ele>
        <time>2019-05-31T08:58:17Z</time>
      </trkpt>
      <trkpt lat="42.436189" lon="1.699253">
        <ele>1573.294</ele>
        <time>2019-05-31T08:58:18Z</time>
      </trkpt>
      <trkpt lat="42.436023" lon="1.699362">
        <ele>1573.868</ele>
        <time>2019-05-31T08:58:22Z</time>
      </trkpt>
      <trkpt lat="42.435975" lon="1.699363">
        <ele>1573.654</ele>
        <time>2019-05-31T08:58:23Z</time>
      </trkpt>
      <trkpt lat="42.435719" lon="1.699331">
        <ele>1571.622</ele>
        <time>2019-05-31T08:58:28Z</time>
      </trkpt>
      <trkpt lat="42.435671" lon="1.699340">
        <ele>1571.296</ele>
        <time>2019-05-31T08:58:29Z</time>
      </trkpt>
      <trkpt lat="42.435627" lon="1.699354">
        <ele>1570.231</ele>
        <time>2019-05-31T08:58:30Z</time>
      </trkpt>
      <trkpt lat="42.435549" lon="1.699368">
        <ele>1569.455</ele>
        <time>2019-05-31T08:58:32Z</time>
      </trkpt>
      <trkpt lat="42.435412" lon="1.699358">
        <ele>1568.281</ele>
        <time>2019-05-31T08:58:37Z</time>
      </trkpt>
      <trkpt lat="42.435374" lon="1.699346">
        <ele>1566.869</ele>
        <time>2019-05-31T08:58:39Z</time>
      </trkpt>
      <trkpt lat="42.435346" lon="1.699337">
        <ele>1568.404</ele>
        <time>2019-05-31T08:58:40Z</time>
      </trkpt>
      <trkpt lat="42.435263" lon="1.699300">
        <ele>1568.224</ele>
        <time>2019-05-31T08:58:42Z</time>
      </trkpt>
      <trkpt lat="42.435168" lon="1.699279">
        <ele>1567.208</ele>
        <time>2019-05-31T08:58:44Z</time>
      </trkpt>
      <trkpt lat="42.435113" lon="1.699285">
        <ele>1567.289</ele>
        <time>2019-05-31T08:58:45Z</time>
      </trkpt>
      <trkpt lat="42.435011" lon="1.699286">
        <ele>1566.653</ele>
        <time>2019-05-31T08:58:47Z</time>
      </trkpt>
      <trkpt lat="42.434865" lon="1.699285">
        <ele>1566.419</ele>
        <time>2019-05-31T08:58:50Z</time>
      </trkpt>
      <trkpt lat="42.434773" lon="1.699271">
        <ele>1566.867</ele>
        <time>2019-05-31T08:58:52Z</time>
      </trkpt>
      <trkpt lat="42.434723" lon="1.699266">
        <ele>1566.811</ele>
        <time>2019-05-31T08:58:53Z</time>
      </trkpt>
      <trkpt lat="42.434617" lon="1.699237">
        <ele>1566.266</ele>
        <time>2019-05-31T08:58:55Z</time>
      </trkpt>
      <trkpt lat="42.434518" lon="1.699170">
        <ele>1565.230</ele>
        <time>2019-05-31T08:58:57Z</time>
      </trkpt>
      <trkpt lat="42.434472" lon="1.699130">
        <ele>1565.226</ele>
        <time>2019-05-31T08:58:58Z</time>
      </trkpt>
      <trkpt lat="42.434186" lon="1.698906">
        <ele>1564.639</ele>
        <time>2019-05-31T08:59:04Z</time>
      </trkpt>
      <trkpt lat="42.434138" lon="1.698858">
        <ele>1564.401</ele>
        <time>2019-05-31T08:59:05Z</time>
      </trkpt>
      <trkpt lat="42.434082" lon="1.698820">
        <ele>1564.221</ele>
        <time>2019-05-31T08:59:06Z</time>
      </trkpt>
      <trkpt lat="42.434029" lon="1.698787">
        <ele>1563.808</ele>
        <time>2019-05-31T08:59:07Z</time>
      </trkpt>
      <trkpt lat="42.433972" lon="1.698762">
        <ele>1563.666</ele>
        <time>2019-05-31T08:59:08Z</time>
      </trkpt>
      <trkpt lat="42.433853" lon="1.698731">
        <ele>1562.850</ele>
        <time>2019-05-31T08:59:10Z</time>
      </trkpt>
      <trkpt lat="42.433717" lon="1.698723">
        <ele>1563.096</ele>
        <time>2019-05-31T08:59:13Z</time>
      </trkpt>
      <trkpt lat="42.433696" lon="1.698731">
        <ele>1563.254</ele>
        <time>2019-05-31T08:59:14Z</time>
      </trkpt>
      <trkpt lat="42.433627" lon="1.698742">
        <ele>1563.688</ele>
        <time>2019-05-31T08:59:49Z</time>
      </trkpt>
      <trkpt lat="42.433552" lon="1.698760">
        <ele>1563.073</ele>
        <time>2019-05-31T08:59:52Z</time>
      </trkpt>
      <trkpt lat="42.433524" lon="1.698775">
        <ele>1562.497</ele>
        <time>2019-05-31T08:59:53Z</time>
      </trkpt>
      <trkpt lat="42.433446" lon="1.698788">
        <ele>1561.423</ele>
        <time>2019-05-31T08:59:56Z</time>
      </trkpt>
      <trkpt lat="42.433428" lon="1.698798">
        <ele>1561.275</ele>
        <time>2019-05-31T08:59:57Z</time>
      </trkpt>
      <trkpt lat="42.433346" lon="1.698857">
        <ele>1560.028</ele>
        <time>2019-05-31T09:00:00Z</time>
      </trkpt>
      <trkpt lat="42.433295" lon="1.698898">
        <ele>1559.420</ele>
        <time>2019-05-31T09:00:02Z</time>
      </trkpt>
      <trkpt lat="42.433242" lon="1.698948">
        <ele>1559.008</ele>
        <time>2019-05-31T09:00:04Z</time>
      </trkpt>
      <trkpt lat="42.433139" lon="1.698978">
        <ele>1557.410</ele>
        <time>2019-05-31T09:00:07Z</time>
      </trkpt>
      <trkpt lat="42.433109" lon="1.698987">
        <ele>1557.434</ele>
        <time>2019-05-31T09:00:08Z</time>
      </trkpt>
      <trkpt lat="42.432990" lon="1.698997">
        <ele>1556.240</ele>
        <time>2019-05-31T09:00:11Z</time>
      </trkpt>
      <trkpt lat="42.432918" lon="1.699001">
        <ele>1554.668</ele>
        <time>2019-05-31T09:00:13Z</time>
      </trkpt>
      <trkpt lat="42.432798" lon="1.698996">
        <ele>1553.412</ele>
        <time>2019-05-31T09:00:16Z</time>
      </trkpt>
      <trkpt lat="42.432683" lon="1.698995">
        <ele>1552.217</ele>
        <time>2019-05-31T09:00:19Z</time>
      </trkpt>
      <trkpt lat="42.432648" lon="1.698990">
        <ele>1552.291</ele>
        <time>2019-05-31T09:00:20Z</time>
      </trkpt>
      <trkpt lat="42.432495" lon="1.698987">
        <ele>1550.827</ele>
        <time>2019-05-31T09:00:24Z</time>
      </trkpt>
      <trkpt lat="42.432397" lon="1.698964">
        <ele>1549.848</ele>
        <time>2019-05-31T09:00:26Z</time>
      </trkpt>
      <trkpt lat="42.432335" lon="1.698961">
        <ele>1549.061</ele>
        <time>2019-05-31T09:00:27Z</time>
      </trkpt>
      <trkpt lat="42.432275" lon="1.698965">
        <ele>1548.617</ele>
        <time>2019-05-31T09:00:28Z</time>
      </trkpt>
      <trkpt lat="42.432213" lon="1.698977">
        <ele>1548.008</ele>
        <time>2019-05-31T09:00:29Z</time>
      </trkpt>
      <trkpt lat="42.432153" lon="1.698997">
        <ele>1547.247</ele>
        <time>2019-05-31T09:00:30Z</time>
      </trkpt>
      <trkpt lat="42.432092" lon="1.699020">
        <ele>1545.841</ele>
        <time>2019-05-31T09:00:31Z</time>
      </trkpt>
      <trkpt lat="42.431979" lon="1.699072">
        <ele>1545.417</ele>
        <time>2019-05-31T09:00:33Z</time>
      </trkpt>
      <trkpt lat="42.431881" lon="1.699135">
        <ele>1545.285</ele>
        <time>2019-05-31T09:00:35Z</time>
      </trkpt>
      <trkpt lat="42.431833" lon="1.699177">
        <ele>1544.859</ele>
        <time>2019-05-31T09:00:36Z</time>
      </trkpt>
      <trkpt lat="42.431785" lon="1.699223">
        <ele>1544.694</ele>
        <time>2019-05-31T09:00:37Z</time>
      </trkpt>
      <trkpt lat="42.431664" lon="1.699312">
        <ele>1544.088</ele>
        <time>2019-05-31T09:00:39Z</time>
      </trkpt>
      <trkpt lat="42.431596" lon="1.699350">
        <ele>1543.494</ele>
        <time>2019-05-31T09:00:40Z</time>
      </trkpt>
      <trkpt lat="42.431534" lon="1.699385">
        <ele>1543.094</ele>
        <time>2019-05-31T09:00:41Z</time>
      </trkpt>
      <trkpt lat="42.431468" lon="1.699403">
        <ele>1542.257</ele>
        <time>2019-05-31T09:00:42Z</time>
      </trkpt>
      <trkpt lat="42.431348" lon="1.699451">
        <ele>1541.622</ele>
        <time>2019-05-31T09:00:44Z</time>
      </trkpt>
      <trkpt lat="42.431213" lon="1.699566">
        <ele>1540.608</ele>
        <time>2019-05-31T09:00:47Z</time>
      </trkpt>
      <trkpt lat="42.431171" lon="1.699602">
        <ele>1540.472</ele>
        <time>2019-05-31T09:00:48Z</time>
      </trkpt>
      <trkpt lat="42.431127" lon="1.699634">
        <ele>1540.046</ele>
        <time>2019-05-31T09:00:49Z</time>
      </trkpt>
      <trkpt lat="42.430979" lon="1.699699">
        <ele>1539.612</ele>
        <time>2019-05-31T09:00:52Z</time>
      </trkpt>
      <trkpt lat="42.430928" lon="1.699708">
        <ele>1538.860</ele>
        <time>2019-05-31T09:00:53Z</time>
      </trkpt>
      <trkpt lat="42.430882" lon="1.699710">
        <ele>1537.684</ele>
        <time>2019-05-31T09:00:54Z</time>
      </trkpt>
      <trkpt lat="42.430798" lon="1.699708">
        <ele>1536.259</ele>
        <time>2019-05-31T09:00:56Z</time>
      </trkpt>
      <trkpt lat="42.430762" lon="1.699699">
        <ele>1536.033</ele>
        <time>2019-05-31T09:00:57Z</time>
      </trkpt>
      <trkpt lat="42.430680" lon="1.699710">
        <ele>1535.029</ele>
        <time>2019-05-31T09:00:59Z</time>
      </trkpt>
      <trkpt lat="42.430610" lon="1.699762">
        <ele>1534.417</ele>
        <time>2019-05-31T09:01:01Z</time>
      </trkpt>
      <trkpt lat="42.430562" lon="1.699854">
        <ele>1533.687</ele>
        <time>2019-05-31T09:01:03Z</time>
      </trkpt>
      <trkpt lat="42.430536" lon="1.699960">
        <ele>1533.015</ele>
        <time>2019-05-31T09:01:05Z</time>
      </trkpt>
      <trkpt lat="42.430497" lon="1.700052">
        <ele>1531.808</ele>
        <time>2019-05-31T09:01:07Z</time>
      </trkpt>
      <trkpt lat="42.430473" lon="1.700096">
        <ele>1531.014</ele>
        <time>2019-05-31T09:01:08Z</time>
      </trkpt>
      <trkpt lat="42.430447" lon="1.700139">
        <ele>1530.428</ele>
        <time>2019-05-31T09:01:09Z</time>
      </trkpt>
      <trkpt lat="42.430415" lon="1.700181">
        <ele>1530.274</ele>
        <time>2019-05-31T09:01:10Z</time>
      </trkpt>
      <trkpt lat="42.430376" lon="1.700216">
        <ele>1529.632</ele>
        <time>2019-05-31T09:01:11Z</time>
      </trkpt>
      <trkpt lat="42.430341" lon="1.700247">
        <ele>1529.236</ele>
        <time>2019-05-31T09:01:12Z</time>
      </trkpt>
      <trkpt lat="42.430257" lon="1.700281">
        <ele>1528.211</ele>
        <time>2019-05-31T09:01:14Z</time>
      </trkpt>
      <trkpt lat="42.430212" lon="1.700302">
        <ele>1527.895</ele>
        <time>2019-05-31T09:01:15Z</time>
      </trkpt>
      <trkpt lat="42.430131" lon="1.700354">
        <ele>1527.281</ele>
        <time>2019-05-31T09:01:17Z</time>
      </trkpt>
      <trkpt lat="42.430090" lon="1.700373">
        <ele>1526.431</ele>
        <time>2019-05-31T09:01:18Z</time>
      </trkpt>
      <trkpt lat="42.429948" lon="1.700405">
        <ele>1524.861</ele>
        <time>2019-05-31T09:01:21Z</time>
      </trkpt>
      <trkpt lat="42.429899" lon="1.700413">
        <ele>1524.407</ele>
        <time>2019-05-31T09:01:23Z</time>
      </trkpt>
      <trkpt lat="42.429850" lon="1.700387">
        <ele>1524.408</ele>
        <time>2019-05-31T09:01:50Z</time>
      </trkpt>
      <trkpt lat="42.429738" lon="1.700368">
        <ele>1523.496</ele>
        <time>2019-05-31T09:01:54Z</time>
      </trkpt>
      <trkpt lat="42.429707" lon="1.700363">
        <ele>1523.690</ele>
        <time>2019-05-31T09:01:55Z</time>
      </trkpt>
      <trkpt lat="42.429557" lon="1.700316">
        <ele>1522.266</ele>
        <time>2019-05-31T09:01:59Z</time>
      </trkpt>
      <trkpt lat="42.429399" lon="1.700150">
        <ele>1521.254</ele>
        <time>2019-05-31T09:02:03Z</time>
      </trkpt>
      <trkpt lat="42.429364" lon="1.700108">
        <ele>1521.278</ele>
        <time>2019-05-31T09:02:04Z</time>
      </trkpt>
      <trkpt lat="42.429330" lon="1.700070">
        <ele>1521.053</ele>
        <time>2019-05-31T09:02:05Z</time>
      </trkpt>
      <trkpt lat="42.429181" lon="1.699938">
        <ele>1521.217</ele>
        <time>2019-05-31T09:02:09Z</time>
      </trkpt>
      <trkpt lat="42.429097" lon="1.699867">
        <ele>1521.293</ele>
        <time>2019-05-31T09:02:11Z</time>
      </trkpt>
      <trkpt lat="42.428964" lon="1.699746">
        <ele>1520.663</ele>
        <time>2019-05-31T09:02:14Z</time>
      </trkpt>
      <trkpt lat="42.428920" lon="1.699708">
        <ele>1520.644</ele>
        <time>2019-05-31T09:02:15Z</time>
      </trkpt>
      <trkpt lat="42.428792" lon="1.699533">
        <ele>1520.818</ele>
        <time>2019-05-31T09:02:19Z</time>
      </trkpt>
      <trkpt lat="42.428713" lon="1.699370">
        <ele>1522.408</ele>
        <time>2019-05-31T09:02:23Z</time>
      </trkpt>
      <trkpt lat="42.428701" lon="1.699333">
        <ele>1522.689</ele>
        <time>2019-05-31T09:02:24Z</time>
      </trkpt>
      <trkpt lat="42.428642" lon="1.699209">
        <ele>1523.693</ele>
        <time>2019-05-31T09:02:28Z</time>
      </trkpt>
      <trkpt lat="42.428621" lon="1.699194">
        <ele>1523.819</ele>
        <time>2019-05-31T09:02:29Z</time>
      </trkpt>
      <trkpt lat="42.428557" lon="1.699175">
        <ele>1524.217</ele>
        <time>2019-05-31T09:02:32Z</time>
      </trkpt>
      <trkpt lat="42.428490" lon="1.699193">
        <ele>1524.651</ele>
        <time>2019-05-31T09:02:35Z</time>
      </trkpt>
      <trkpt lat="42.428467" lon="1.699200">
        <ele>1524.856</ele>
        <time>2019-05-31T09:02:36Z</time>
      </trkpt>
      <trkpt lat="42.428374" lon="1.699214">
        <ele>1525.080</ele>
        <time>2019-05-31T09:02:40Z</time>
      </trkpt>
      <trkpt lat="42.428350" lon="1.699210">
        <ele>1525.266</ele>
        <time>2019-05-31T09:02:41Z</time>
      </trkpt>
      <trkpt lat="42.428283" lon="1.699187">
        <ele>1525.684</ele>
        <time>2019-05-31T09:02:44Z</time>
      </trkpt>
      <trkpt lat="42.428236" lon="1.699174">
        <ele>1525.807</ele>
        <time>2019-05-31T09:02:46Z</time>
      </trkpt>
      <trkpt lat="42.428094" lon="1.699137">
        <ele>1526.617</ele>
        <time>2019-05-31T09:02:52Z</time>
      </trkpt>
      <trkpt lat="42.428027" lon="1.699109">
        <ele>1527.208</ele>
        <time>2019-05-31T09:02:55Z</time>
      </trkpt>
      <trkpt lat="42.427915" lon="1.699068">
        <ele>1527.811</ele>
        <time>2019-05-31T09:03:00Z</time>
      </trkpt>
      <trkpt lat="42.427869" lon="1.699053">
        <ele>1528.045</ele>
        <time>2019-05-31T09:03:02Z</time>
      </trkpt>
      <trkpt lat="42.427719" lon="1.699017">
        <ele>1528.671</ele>
        <time>2019-05-31T09:03:09Z</time>
      </trkpt>
      <trkpt lat="42.427699" lon="1.699013">
        <ele>1528.899</ele>
        <time>2019-05-31T09:03:10Z</time>
      </trkpt>
      <trkpt lat="42.427615" lon="1.699018">
        <ele>1529.253</ele>
        <time>2019-05-31T09:03:14Z</time>
      </trkpt>
      <trkpt lat="42.427593" lon="1.699019">
        <ele>1530.048</ele>
        <time>2019-05-31T09:03:15Z</time>
      </trkpt>
      <trkpt lat="42.427493" lon="1.698989">
        <ele>1530.072</ele>
        <time>2019-05-31T09:03:20Z</time>
      </trkpt>
      <trkpt lat="42.427381" lon="1.698956">
        <ele>1530.828</ele>
        <time>2019-05-31T09:03:26Z</time>
      </trkpt>
      <trkpt lat="42.427302" lon="1.698973">
        <ele>1531.076</ele>
        <time>2019-05-31T09:03:30Z</time>
      </trkpt>
      <trkpt lat="42.427263" lon="1.699001">
        <ele>1531.290</ele>
        <time>2019-05-31T09:03:32Z</time>
      </trkpt>
      <trkpt lat="42.427158" lon="1.699003">
        <ele>1531.819</ele>
        <time>2019-05-31T09:03:37Z</time>
      </trkpt>
      <trkpt lat="42.427092" lon="1.699004">
        <ele>1532.208</ele>
        <time>2019-05-31T09:03:40Z</time>
      </trkpt>
      <trkpt lat="42.426987" lon="1.699003">
        <ele>1532.660</ele>
        <time>2019-05-31T09:03:45Z</time>
      </trkpt>
      <trkpt lat="42.426945" lon="1.698998">
        <ele>1533.264</ele>
        <time>2019-05-31T09:03:47Z</time>
      </trkpt>
      <trkpt lat="42.426858" lon="1.699002">
        <ele>1533.280</ele>
        <time>2019-05-31T09:03:51Z</time>
      </trkpt>
      <trkpt lat="42.426742" lon="1.698944">
        <ele>1534.268</ele>
        <time>2019-05-31T09:03:57Z</time>
      </trkpt>
      <trkpt lat="42.426612" lon="1.698841">
        <ele>1535.092</ele>
        <time>2019-05-31T09:04:04Z</time>
      </trkpt>
      <trkpt lat="42.426523" lon="1.698779">
        <ele>1535.257</ele>
        <time>2019-05-31T09:04:08Z</time>
      </trkpt>
      <trkpt lat="42.426500" lon="1.698769">
        <ele>1535.281</ele>
        <time>2019-05-31T09:04:09Z</time>
      </trkpt>
      <trkpt lat="42.426340" lon="1.698744">
        <ele>1535.817</ele>
        <time>2019-05-31T09:04:16Z</time>
      </trkpt>
      <trkpt lat="42.426256" lon="1.698807">
        <ele>1535.649</ele>
        <time>2019-05-31T09:04:21Z</time>
      </trkpt>
      <trkpt lat="42.426245" lon="1.698836">
        <ele>1535.202</ele>
        <time>2019-05-31T09:04:22Z</time>
      </trkpt>
      <trkpt lat="42.426196" lon="1.698903">
        <ele>1535.822</ele>
        <time>2019-05-31T09:04:25Z</time>
      </trkpt>
      <trkpt lat="42.426100" lon="1.698941">
        <ele>1536.408</ele>
        <time>2019-05-31T09:04:29Z</time>
      </trkpt>
      <trkpt lat="42.426015" lon="1.698955">
        <ele>1536.877</ele>
        <time>2019-05-31T09:04:32Z</time>
      </trkpt>
      <trkpt lat="42.425861" lon="1.698955">
        <ele>1537.061</ele>
        <time>2019-05-31T09:04:38Z</time>
      </trkpt>
      <trkpt lat="42.425670" lon="1.698966">
        <ele>1537.697</ele>
        <time>2019-05-31T09:04:46Z</time>
      </trkpt>
      <trkpt lat="42.425645" lon="1.698963">
        <ele>1537.825</ele>
        <time>2019-05-31T09:04:47Z</time>
      </trkpt>
      <trkpt lat="42.425448" lon="1.698911">
        <ele>1538.629</ele>
        <time>2019-05-31T09:04:55Z</time>
      </trkpt>
      <trkpt lat="42.425260" lon="1.698852">
        <ele>1538.614</ele>
        <time>2019-05-31T09:05:02Z</time>
      </trkpt>
      <trkpt lat="42.425010" lon="1.698835">
        <ele>1537.638</ele>
        <time>2019-05-31T09:05:10Z</time>
      </trkpt>
      <trkpt lat="42.424766" lon="1.698714">
        <ele>1537.484</ele>
        <time>2019-05-31T09:05:17Z</time>
      </trkpt>
      <trkpt lat="42.424549" lon="1.698621">
        <ele>1537.431</ele>
        <time>2019-05-31T09:05:23Z</time>
      </trkpt>
      <trkpt lat="42.424399" lon="1.698497">
        <ele>1538.061</ele>
        <time>2019-05-31T09:05:28Z</time>
      </trkpt>
      <trkpt lat="42.424208" lon="1.698293">
        <ele>1538.407</ele>
        <time>2019-05-31T09:05:35Z</time>
      </trkpt>
      <trkpt lat="42.424132" lon="1.698242">
        <ele>1539.008</ele>
        <time>2019-05-31T09:05:38Z</time>
      </trkpt>
      <trkpt lat="42.424070" lon="1.698223">
        <ele>1539.826</ele>
        <time>2019-05-31T09:05:41Z</time>
      </trkpt>
      <trkpt lat="42.424050" lon="1.698219">
        <ele>1540.040</ele>
        <time>2019-05-31T09:05:42Z</time>
      </trkpt>
      <trkpt lat="42.423945" lon="1.698208">
        <ele>1541.276</ele>
        <time>2019-05-31T09:05:48Z</time>
      </trkpt>
      <trkpt lat="42.423851" lon="1.698243">
        <ele>1542.054</ele>
        <time>2019-05-31T09:05:54Z</time>
      </trkpt>
      <trkpt lat="42.423820" lon="1.698260">
        <ele>1542.288</ele>
        <time>2019-05-31T09:05:56Z</time>
      </trkpt>
      <trkpt lat="42.423754" lon="1.698268">
        <ele>1543.033</ele>
        <time>2019-05-31T09:06:00Z</time>
      </trkpt>
      <trkpt lat="42.423738" lon="1.698268">
        <ele>1543.227</ele>
        <time>2019-05-31T09:06:01Z</time>
      </trkpt>
      <trkpt lat="42.423628" lon="1.698242">
        <ele>1543.843</ele>
        <time>2019-05-31T09:06:07Z</time>
      </trkpt>
      <trkpt lat="42.423522" lon="1.698192">
        <ele>1544.294</ele>
        <time>2019-05-31T09:06:13Z</time>
      </trkpt>
      <trkpt lat="42.423486" lon="1.698179">
        <ele>1544.257</ele>
        <time>2019-05-31T09:06:15Z</time>
      </trkpt>
      <trkpt lat="42.423396" lon="1.698146">
        <ele>1544.822</ele>
        <time>2019-05-31T09:06:20Z</time>
      </trkpt>
      <trkpt lat="42.423287" lon="1.698097">
        <ele>1545.208</ele>
        <time>2019-05-31T09:06:26Z</time>
      </trkpt>
      <trkpt lat="42.423252" lon="1.698078">
        <ele>1545.482</ele>
        <time>2019-05-31T09:06:28Z</time>
      </trkpt>
      <trkpt lat="42.423146" lon="1.698017">
        <ele>1545.886</ele>
        <time>2019-05-31T09:06:34Z</time>
      </trkpt>
      <trkpt lat="42.423081" lon="1.697977">
        <ele>1546.482</ele>
        <time>2019-05-31T09:06:38Z</time>
      </trkpt>
      <trkpt lat="42.423003" lon="1.697916">
        <ele>1546.650</ele>
        <time>2019-05-31T09:06:43Z</time>
      </trkpt>
      <trkpt lat="42.422858" lon="1.697838">
        <ele>1547.044</ele>
        <time>2019-05-31T09:06:51Z</time>
      </trkpt>
      <trkpt lat="42.422760" lon="1.697809">
        <ele>1547.439</ele>
        <time>2019-05-31T09:06:56Z</time>
      </trkpt>
      <trkpt lat="42.422721" lon="1.697784">
        <ele>1547.483</ele>
        <time>2019-05-31T09:06:58Z</time>
      </trkpt>
      <trkpt lat="42.422543" lon="1.697698">
        <ele>1547.499</ele>
        <time>2019-05-31T09:07:06Z</time>
      </trkpt>
      <trkpt lat="42.422354" lon="1.697579">
        <ele>1548.437</ele>
        <time>2019-05-31T09:07:15Z</time>
      </trkpt>
      <trkpt lat="42.422334" lon="1.697568">
        <ele>1548.449</ele>
        <time>2019-05-31T09:07:16Z</time>
      </trkpt>
      <trkpt lat="42.422226" lon="1.697519">
        <ele>1549.013</ele>
        <time>2019-05-31T09:07:21Z</time>
      </trkpt>
      <trkpt lat="42.422096" lon="1.697456">
        <ele>1549.408</ele>
        <time>2019-05-31T09:07:27Z</time>
      </trkpt>
      <trkpt lat="42.422074" lon="1.697443">
        <ele>1549.656</ele>
        <time>2019-05-31T09:07:28Z</time>
      </trkpt>
      <trkpt lat="42.422052" lon="1.697427">
        <ele>1549.670</ele>
        <time>2019-05-31T09:07:29Z</time>
      </trkpt>
      <trkpt lat="42.421942" lon="1.697358">
        <ele>1550.246</ele>
        <time>2019-05-31T09:07:34Z</time>
      </trkpt>
      <trkpt lat="42.421841" lon="1.697286">
        <ele>1550.494</ele>
        <time>2019-05-31T09:07:39Z</time>
      </trkpt>
      <trkpt lat="42.421819" lon="1.697270">
        <ele>1550.438</ele>
        <time>2019-05-31T09:07:40Z</time>
      </trkpt>
      <trkpt lat="42.421663" lon="1.697189">
        <ele>1551.233</ele>
        <time>2019-05-31T09:07:47Z</time>
      </trkpt>
      <trkpt lat="42.421621" lon="1.697170">
        <ele>1551.667</ele>
        <time>2019-05-31T09:07:49Z</time>
      </trkpt>
      <trkpt lat="42.421496" lon="1.697090">
        <ele>1551.463</ele>
        <time>2019-05-31T09:07:55Z</time>
      </trkpt>
      <trkpt lat="42.421307" lon="1.697081">
        <ele>1552.013</ele>
        <time>2019-05-31T09:08:03Z</time>
      </trkpt>
      <trkpt lat="42.421141" lon="1.697044">
        <ele>1552.443</ele>
        <time>2019-05-31T09:08:10Z</time>
      </trkpt>
      <trkpt lat="42.421118" lon="1.697033">
        <ele>1552.607</ele>
        <time>2019-05-31T09:08:11Z</time>
      </trkpt>
      <trkpt lat="42.421010" lon="1.696971">
        <ele>1553.008</ele>
        <time>2019-05-31T09:08:16Z</time>
      </trkpt>
      <trkpt lat="42.420844" lon="1.696925">
        <ele>1553.624</ele>
        <time>2019-05-31T09:08:23Z</time>
      </trkpt>
      <trkpt lat="42.420821" lon="1.696922">
        <ele>1553.828</ele>
        <time>2019-05-31T09:08:24Z</time>
      </trkpt>
      <trkpt lat="42.420706" lon="1.696909">
        <ele>1554.014</ele>
        <time>2019-05-31T09:08:29Z</time>
      </trkpt>
      <trkpt lat="42.420543" lon="1.696892">
        <ele>1554.242</ele>
        <time>2019-05-31T09:08:36Z</time>
      </trkpt>
      <trkpt lat="42.420399" lon="1.696897">
        <ele>1554.876</ele>
        <time>2019-05-31T09:08:42Z</time>
      </trkpt>
      <trkpt lat="42.420374" lon="1.696904">
        <ele>1554.841</ele>
        <time>2019-05-31T09:08:43Z</time>
      </trkpt>
      <trkpt lat="42.420230" lon="1.696923">
        <ele>1555.445</ele>
        <time>2019-05-31T09:08:49Z</time>
      </trkpt>
      <trkpt lat="42.420012" lon="1.696967">
        <ele>1555.671</ele>
        <time>2019-05-31T09:08:58Z</time>
      </trkpt>
      <trkpt lat="42.419892" lon="1.696971">
        <ele>1555.824</ele>
        <time>2019-05-31T09:09:03Z</time>
      </trkpt>
      <trkpt lat="42.419842" lon="1.696966">
        <ele>1556.004</ele>
        <time>2019-05-31T09:09:05Z</time>
      </trkpt>
      <trkpt lat="42.419742" lon="1.696948">
        <ele>1556.214</ele>
        <time>2019-05-31T09:09:09Z</time>
      </trkpt>
      <trkpt lat="42.419618" lon="1.696917">
        <ele>1556.408</ele>
        <time>2019-05-31T09:09:14Z</time>
      </trkpt>
      <trkpt lat="42.419462" lon="1.696867">
        <ele>1557.045</ele>
        <time>2019-05-31T09:09:20Z</time>
      </trkpt>
      <trkpt lat="42.419437" lon="1.696858">
        <ele>1557.079</ele>
        <time>2019-05-31T09:09:21Z</time>
      </trkpt>
      <trkpt lat="42.419288" lon="1.696848">
        <ele>1557.275</ele>
        <time>2019-05-31T09:09:27Z</time>
      </trkpt>
      <trkpt lat="42.419215" lon="1.696830">
        <ele>1558.243</ele>
        <time>2019-05-31T09:09:30Z</time>
      </trkpt>
      <trkpt lat="42.419189" lon="1.696820">
        <ele>1557.057</ele>
        <time>2019-05-31T09:09:31Z</time>
      </trkpt>
      <trkpt lat="42.419121" lon="1.696795">
        <ele>1558.212</ele>
        <time>2019-05-31T09:09:34Z</time>
      </trkpt>
      <trkpt lat="42.418968" lon="1.696741">
        <ele>1557.826</ele>
        <time>2019-05-31T09:09:41Z</time>
      </trkpt>
      <trkpt lat="42.418807" lon="1.696713">
        <ele>1558.282</ele>
        <time>2019-05-31T09:09:48Z</time>
      </trkpt>
      <trkpt lat="42.418606" lon="1.696694">
        <ele>1559.236</ele>
        <time>2019-05-31T09:09:57Z</time>
      </trkpt>
      <trkpt lat="42.418427" lon="1.696676">
        <ele>1559.817</ele>
        <time>2019-05-31T09:10:05Z</time>
      </trkpt>
      <trkpt lat="42.418383" lon="1.696654">
        <ele>1560.218</ele>
        <time>2019-05-31T09:10:07Z</time>
      </trkpt>
      <trkpt lat="42.418300" lon="1.696635">
        <ele>1560.408</ele>
        <time>2019-05-31T09:10:11Z</time>
      </trkpt>
      <trkpt lat="42.418191" lon="1.696609">
        <ele>1560.816</ele>
        <time>2019-05-31T09:10:16Z</time>
      </trkpt>
      <trkpt lat="42.418126" lon="1.696596">
        <ele>1561.260</ele>
        <time>2019-05-31T09:10:19Z</time>
      </trkpt>
      <trkpt lat="42.418081" lon="1.696598">
        <ele>1561.266</ele>
        <time>2019-05-31T09:10:21Z</time>
      </trkpt>
      <trkpt lat="42.417905" lon="1.696576">
        <ele>1562.224</ele>
        <time>2019-05-31T09:10:29Z</time>
      </trkpt>
      <trkpt lat="42.417881" lon="1.696574">
        <ele>1562.418</ele>
        <time>2019-05-31T09:10:30Z</time>
      </trkpt>
      <trkpt lat="42.417769" lon="1.696557">
        <ele>1561.483</ele>
        <time>2019-05-31T09:10:35Z</time>
      </trkpt>
      <trkpt lat="42.417746" lon="1.696550">
        <ele>1562.697</ele>
        <time>2019-05-31T09:10:36Z</time>
      </trkpt>
      <trkpt lat="42.417702" lon="1.696546">
        <ele>1564.273</ele>
        <time>2019-05-31T09:10:38Z</time>
      </trkpt>
      <trkpt lat="42.417680" lon="1.696544">
        <ele>1563.061</ele>
        <time>2019-05-31T09:10:39Z</time>
      </trkpt>
      <trkpt lat="42.417635" lon="1.696545">
        <ele>1563.021</ele>
        <time>2019-05-31T09:10:41Z</time>
      </trkpt>
      <trkpt lat="42.417543" lon="1.696522">
        <ele>1563.013</ele>
        <time>2019-05-31T09:10:45Z</time>
      </trkpt>
      <trkpt lat="42.417499" lon="1.696511">
        <ele>1563.008</ele>
        <time>2019-05-31T09:10:47Z</time>
      </trkpt>
      <trkpt lat="42.417351" lon="1.696501">
        <ele>1563.229</ele>
        <time>2019-05-31T09:10:53Z</time>
      </trkpt>
      <trkpt lat="42.417264" lon="1.696497">
        <ele>1563.263</ele>
        <time>2019-05-31T09:10:57Z</time>
      </trkpt>
      <trkpt lat="42.417105" lon="1.696475">
        <ele>1563.489</ele>
        <time>2019-05-31T09:11:04Z</time>
      </trkpt>
      <trkpt lat="42.416995" lon="1.696448">
        <ele>1564.297</ele>
        <time>2019-05-31T09:11:09Z</time>
      </trkpt>
      <trkpt lat="42.416934" lon="1.696421">
        <ele>1564.431</ele>
        <time>2019-05-31T09:11:12Z</time>
      </trkpt>
      <trkpt lat="42.416781" lon="1.696389">
        <ele>1564.466</ele>
        <time>2019-05-31T09:11:19Z</time>
      </trkpt>
      <trkpt lat="42.416683" lon="1.696368">
        <ele>1564.890</ele>
        <time>2019-05-31T09:11:24Z</time>
      </trkpt>
      <trkpt lat="42.416602" lon="1.696359">
        <ele>1565.266</ele>
        <time>2019-05-31T09:11:28Z</time>
      </trkpt>
      <trkpt lat="42.416508" lon="1.696340">
        <ele>1565.865</ele>
        <time>2019-05-31T09:11:33Z</time>
      </trkpt>
      <trkpt lat="42.416408" lon="1.696323">
        <ele>1566.268</ele>
        <time>2019-05-31T09:11:39Z</time>
      </trkpt>
      <trkpt lat="42.416371" lon="1.696332">
        <ele>1566.414</ele>
        <time>2019-05-31T09:11:41Z</time>
      </trkpt>
      <trkpt lat="42.416336" lon="1.696324">
        <ele>1567.408</ele>
        <time>2019-05-31T09:11:43Z</time>
      </trkpt>
      <trkpt lat="42.416273" lon="1.696257">
        <ele>1568.259</ele>
        <time>2019-05-31T09:11:47Z</time>
      </trkpt>
      <trkpt lat="42.416191" lon="1.696131">
        <ele>1568.413</ele>
        <time>2019-05-31T09:11:53Z</time>
      </trkpt>
      <trkpt lat="42.416035" lon="1.696066">
        <ele>1566.849</ele>
        <time>2019-05-31T09:11:59Z</time>
      </trkpt>
      <trkpt lat="42.415825" lon="1.696008">
        <ele>1567.847</ele>
        <time>2019-05-31T09:12:06Z</time>
      </trkpt>
      <trkpt lat="42.415675" lon="1.696004">
        <ele>1565.861</ele>
        <time>2019-05-31T09:12:10Z</time>
      </trkpt>
      <trkpt lat="42.415634" lon="1.696011">
        <ele>1565.256</ele>
        <time>2019-05-31T09:12:11Z</time>
      </trkpt>
      <trkpt lat="42.415520" lon="1.696034">
        <ele>1564.630</ele>
        <time>2019-05-31T09:12:14Z</time>
      </trkpt>
      <trkpt lat="42.415463" lon="1.696037">
        <ele>1564.636</ele>
        <time>2019-05-31T09:12:16Z</time>
      </trkpt>
      <trkpt lat="42.415446" lon="1.696019">
        <ele>1564.866</ele>
        <time>2019-05-31T09:12:17Z</time>
      </trkpt>
      <trkpt lat="42.415455" lon="1.695969">
        <ele>1565.029</ele>
        <time>2019-05-31T09:12:19Z</time>
      </trkpt>
      <trkpt lat="42.415543" lon="1.695837">
        <ele>1563.621</ele>
        <time>2019-05-31T09:12:23Z</time>
      </trkpt>
      <trkpt lat="42.415642" lon="1.695737">
        <ele>1562.408</ele>
        <time>2019-05-31T09:12:26Z</time>
      </trkpt>
      <trkpt lat="42.415709" lon="1.695666">
        <ele>1561.269</ele>
        <time>2019-05-31T09:12:28Z</time>
      </trkpt>
      <trkpt lat="42.415774" lon="1.695609">
        <ele>1560.483</ele>
        <time>2019-05-31T09:12:30Z</time>
      </trkpt>
      <trkpt lat="42.415806" lon="1.695589">
        <ele>1560.039</ele>
        <time>2019-05-31T09:12:31Z</time>
      </trkpt>
      <trkpt lat="42.415887" lon="1.695457">
        <ele>1559.227</ele>
        <time>2019-05-31T09:12:35Z</time>
      </trkpt>
      <trkpt lat="42.415914" lon="1.695380">
        <ele>1558.811</ele>
        <time>2019-05-31T09:12:37Z</time>
      </trkpt>
      <trkpt lat="42.415950" lon="1.695302">
        <ele>1558.476</ele>
        <time>2019-05-31T09:12:39Z</time>
      </trkpt>
      <trkpt lat="42.415955" lon="1.695143">
        <ele>1557.850</ele>
        <time>2019-05-31T09:12:43Z</time>
      </trkpt>
      <trkpt lat="42.415939" lon="1.695109">
        <ele>1557.676</ele>
        <time>2019-05-31T09:12:44Z</time>
      </trkpt>
      <trkpt lat="42.415780" lon="1.694869">
        <ele>1557.651</ele>
        <time>2019-05-31T09:12:51Z</time>
      </trkpt>
      <trkpt lat="42.415669" lon="1.694745">
        <ele>1558.801</ele>
        <time>2019-05-31T09:12:57Z</time>
      </trkpt>
      <trkpt lat="42.415564" lon="1.694639">
        <ele>1560.011</ele>
        <time>2019-05-31T09:13:03Z</time>
      </trkpt>
      <trkpt lat="42.415491" lon="1.694579">
        <ele>1561.208</ele>
        <time>2019-05-31T09:13:09Z</time>
      </trkpt>
      <trkpt lat="42.415479" lon="1.694566">
        <ele>1561.288</ele>
        <time>2019-05-31T09:13:10Z</time>
      </trkpt>
      <trkpt lat="42.415413" lon="1.694480">
        <ele>1560.812</ele>
        <time>2019-05-31T09:13:16Z</time>
      </trkpt>
      <trkpt lat="42.415389" lon="1.694461">
        <ele>1562.478</ele>
        <time>2019-05-31T09:13:18Z</time>
      </trkpt>
      <trkpt lat="42.415297" lon="1.694369">
        <ele>1563.486</ele>
        <time>2019-05-31T09:13:25Z</time>
      </trkpt>
      <trkpt lat="42.415177" lon="1.694324">
        <ele>1563.620</ele>
        <time>2019-05-31T09:13:31Z</time>
      </trkpt>
      <trkpt lat="42.415010" lon="1.694257">
        <ele>1564.275</ele>
        <time>2019-05-31T09:13:39Z</time>
      </trkpt>
      <trkpt lat="42.414882" lon="1.694232">
        <ele>1564.479</ele>
        <time>2019-05-31T09:13:45Z</time>
      </trkpt>
      <trkpt lat="42.414821" lon="1.694221">
        <ele>1565.055</ele>
        <time>2019-05-31T09:13:48Z</time>
      </trkpt>
      <trkpt lat="42.414693" lon="1.694211">
        <ele>1565.479</ele>
        <time>2019-05-31T09:13:55Z</time>
      </trkpt>
      <trkpt lat="42.414677" lon="1.694207">
        <ele>1565.605</ele>
        <time>2019-05-31T09:13:56Z</time>
      </trkpt>
      <trkpt lat="42.414568" lon="1.694195">
        <ele>1566.425</ele>
        <time>2019-05-31T09:14:02Z</time>
      </trkpt>
      <trkpt lat="42.414535" lon="1.694187">
        <ele>1566.808</ele>
        <time>2019-05-31T09:14:04Z</time>
      </trkpt>
      <trkpt lat="42.414473" lon="1.694198">
        <ele>1566.850</ele>
        <time>2019-05-31T09:14:08Z</time>
      </trkpt>
      <trkpt lat="42.414400" lon="1.694212">
        <ele>1568.014</ele>
        <time>2019-05-31T09:14:13Z</time>
      </trkpt>
      <trkpt lat="42.414367" lon="1.694212">
        <ele>1568.280</ele>
        <time>2019-05-31T09:14:15Z</time>
      </trkpt>
      <trkpt lat="42.414353" lon="1.694213">
        <ele>1568.268</ele>
        <time>2019-05-31T09:14:16Z</time>
      </trkpt>
      <trkpt lat="42.414306" lon="1.694224">
        <ele>1569.012</ele>
        <time>2019-05-31T09:14:19Z</time>
      </trkpt>
      <trkpt lat="42.414249" lon="1.694232">
        <ele>1569.677</ele>
        <time>2019-05-31T09:14:23Z</time>
      </trkpt>
      <trkpt lat="42.414148" lon="1.694229">
        <ele>1570.031</ele>
        <time>2019-05-31T09:14:30Z</time>
      </trkpt>
      <trkpt lat="42.414135" lon="1.694224">
        <ele>1570.237</ele>
        <time>2019-05-31T09:14:31Z</time>
      </trkpt>
      <trkpt lat="42.414082" lon="1.694206">
        <ele>1570.835</ele>
        <time>2019-05-31T09:14:35Z</time>
      </trkpt>
      <trkpt lat="42.414036" lon="1.694200">
        <ele>1571.486</ele>
        <time>2019-05-31T09:14:38Z</time>
      </trkpt>
      <trkpt lat="42.413955" lon="1.694184">
        <ele>1572.014</ele>
        <time>2019-05-31T09:14:44Z</time>
      </trkpt>
      <trkpt lat="42.413914" lon="1.694170">
        <ele>1572.408</ele>
        <time>2019-05-31T09:14:47Z</time>
      </trkpt>
      <trkpt lat="42.413872" lon="1.694170">
        <ele>1573.076</ele>
        <time>2019-05-31T09:14:50Z</time>
      </trkpt>
      <trkpt lat="42.413839" lon="1.694160">
        <ele>1573.630</ele>
        <time>2019-05-31T09:14:53Z</time>
      </trkpt>
      <trkpt lat="42.413786" lon="1.694151">
        <ele>1574.216</ele>
        <time>2019-05-31T09:14:57Z</time>
      </trkpt>
      <trkpt lat="42.413760" lon="1.694146">
        <ele>1574.644</ele>
        <time>2019-05-31T09:14:59Z</time>
      </trkpt>
      <trkpt lat="42.413733" lon="1.694145">
        <ele>1575.028</ele>
        <time>2019-05-31T09:15:01Z</time>
      </trkpt>
      <trkpt lat="42.413696" lon="1.694136">
        <ele>1575.233</ele>
        <time>2019-05-31T09:15:04Z</time>
      </trkpt>
      <trkpt lat="42.413662" lon="1.694128">
        <ele>1575.827</ele>
        <time>2019-05-31T09:15:07Z</time>
      </trkpt>
      <trkpt lat="42.413602" lon="1.694105">
        <ele>1575.893</ele>
        <time>2019-05-31T09:15:11Z</time>
      </trkpt>
      <trkpt lat="42.413587" lon="1.694104">
        <ele>1575.624</ele>
        <time>2019-05-31T09:15:12Z</time>
      </trkpt>
      <trkpt lat="42.413539" lon="1.694085">
        <ele>1576.404</ele>
        <time>2019-05-31T09:15:16Z</time>
      </trkpt>
      <trkpt lat="42.413504" lon="1.694062">
        <ele>1576.814</ele>
        <time>2019-05-31T09:15:19Z</time>
      </trkpt>
      <trkpt lat="42.413453" lon="1.694039">
        <ele>1577.608</ele>
        <time>2019-05-31T09:15:23Z</time>
      </trkpt>
      <trkpt lat="42.413442" lon="1.694032">
        <ele>1577.875</ele>
        <time>2019-05-31T09:15:24Z</time>
      </trkpt>
      <trkpt lat="42.413431" lon="1.694024">
        <ele>1578.069</ele>
        <time>2019-05-31T09:15:25Z</time>
      </trkpt>
      <trkpt lat="42.413408" lon="1.694012">
        <ele>1578.245</ele>
        <time>2019-05-31T09:15:27Z</time>
      </trkpt>
      <trkpt lat="42.413380" lon="1.693984">
        <ele>1578.863</ele>
        <time>2019-05-31T09:15:30Z</time>
      </trkpt>
      <trkpt lat="42.413359" lon="1.693961">
        <ele>1579.277</ele>
        <time>2019-05-31T09:15:32Z</time>
      </trkpt>
      <trkpt lat="42.413333" lon="1.693936">
        <ele>1579.422</ele>
        <time>2019-05-31T09:15:34Z</time>
      </trkpt>
      <trkpt lat="42.413313" lon="1.693908">
        <ele>1579.486</ele>
        <time>2019-05-31T09:15:36Z</time>
      </trkpt>
      <trkpt lat="42.413237" lon="1.693803">
        <ele>1580.432</ele>
        <time>2019-05-31T09:15:44Z</time>
      </trkpt>
      <trkpt lat="42.413190" lon="1.693729">
        <ele>1581.017</ele>
        <time>2019-05-31T09:15:49Z</time>
      </trkpt>
      <trkpt lat="42.413163" lon="1.693652">
        <ele>1581.487</ele>
        <time>2019-05-31T09:15:54Z</time>
      </trkpt>
      <trkpt lat="42.413157" lon="1.693619">
        <ele>1581.415</ele>
        <time>2019-05-31T09:15:56Z</time>
      </trkpt>
      <trkpt lat="42.413152" lon="1.693588">
        <ele>1581.608</ele>
        <time>2019-05-31T09:15:58Z</time>
      </trkpt>
      <trkpt lat="42.413119" lon="1.693509">
        <ele>1582.084</ele>
        <time>2019-05-31T09:16:03Z</time>
      </trkpt>
      <trkpt lat="42.413073" lon="1.693443">
        <ele>1582.478</ele>
        <time>2019-05-31T09:16:08Z</time>
      </trkpt>
      <trkpt lat="42.413062" lon="1.693434">
        <ele>1582.614</ele>
        <time>2019-05-31T09:16:09Z</time>
      </trkpt>
      <trkpt lat="42.412990" lon="1.693347">
        <ele>1583.432</ele>
        <time>2019-05-31T09:16:16Z</time>
      </trkpt>
      <trkpt lat="42.412939" lon="1.693330">
        <ele>1583.646</ele>
        <time>2019-05-31T09:16:20Z</time>
      </trkpt>
      <trkpt lat="42.412898" lon="1.693311">
        <ele>1583.891</ele>
        <time>2019-05-31T09:16:23Z</time>
      </trkpt>
      <trkpt lat="42.412816" lon="1.693262">
        <ele>1584.865</ele>
        <time>2019-05-31T09:16:30Z</time>
      </trkpt>
      <trkpt lat="42.412802" lon="1.693259">
        <ele>1584.891</ele>
        <time>2019-05-31T09:16:31Z</time>
      </trkpt>
      <trkpt lat="42.412746" lon="1.693234">
        <ele>1584.483</ele>
        <time>2019-05-31T09:16:35Z</time>
      </trkpt>
      <trkpt lat="42.412707" lon="1.693226">
        <ele>1585.825</ele>
        <time>2019-05-31T09:16:38Z</time>
      </trkpt>
      <trkpt lat="42.412680" lon="1.693222">
        <ele>1585.617</ele>
        <time>2019-05-31T09:16:40Z</time>
      </trkpt>
      <trkpt lat="42.412592" lon="1.693238">
        <ele>1586.008</ele>
        <time>2019-05-31T09:16:46Z</time>
      </trkpt>
      <trkpt lat="42.412519" lon="1.693262">
        <ele>1586.851</ele>
        <time>2019-05-31T09:16:52Z</time>
      </trkpt>
      <trkpt lat="42.412490" lon="1.693273">
        <ele>1586.875</ele>
        <time>2019-05-31T09:16:54Z</time>
      </trkpt>
      <trkpt lat="42.412406" lon="1.693284">
        <ele>1587.851</ele>
        <time>2019-05-31T09:17:01Z</time>
      </trkpt>
      <trkpt lat="42.412394" lon="1.693290">
        <ele>1587.819</ele>
        <time>2019-05-31T09:17:02Z</time>
      </trkpt>
      <trkpt lat="42.412358" lon="1.693281">
        <ele>1588.233</ele>
        <time>2019-05-31T09:17:05Z</time>
      </trkpt>
      <trkpt lat="42.412333" lon="1.693266">
        <ele>1588.678</ele>
        <time>2019-05-31T09:17:07Z</time>
      </trkpt>
      <trkpt lat="42.412323" lon="1.693261">
        <ele>1588.862</ele>
        <time>2019-05-31T09:17:08Z</time>
      </trkpt>
      <trkpt lat="42.412289" lon="1.693242">
        <ele>1589.038</ele>
        <time>2019-05-31T09:17:11Z</time>
      </trkpt>
      <trkpt lat="42.412240" lon="1.693229">
        <ele>1589.221</ele>
        <time>2019-05-31T09:17:15Z</time>
      </trkpt>
      <trkpt lat="42.412184" lon="1.693211">
        <ele>1590.041</ele>
        <time>2019-05-31T09:17:20Z</time>
      </trkpt>
      <trkpt lat="42.412171" lon="1.693204">
        <ele>1590.005</ele>
        <time>2019-05-31T09:17:21Z</time>
      </trkpt>
      <trkpt lat="42.412108" lon="1.693193">
        <ele>1590.408</ele>
        <time>2019-05-31T09:17:26Z</time>
      </trkpt>
      <trkpt lat="42.412096" lon="1.693191">
        <ele>1590.655</ele>
        <time>2019-05-31T09:17:27Z</time>
      </trkpt>
      <trkpt lat="42.412071" lon="1.693188">
        <ele>1590.899</ele>
        <time>2019-05-31T09:17:29Z</time>
      </trkpt>
      <trkpt lat="42.412003" lon="1.693210">
        <ele>1591.055</ele>
        <time>2019-05-31T09:17:34Z</time>
      </trkpt>
      <trkpt lat="42.411932" lon="1.693283">
        <ele>1592.093</ele>
        <time>2019-05-31T09:17:41Z</time>
      </trkpt>
      <trkpt lat="42.411882" lon="1.693380">
        <ele>1592.887</ele>
        <time>2019-05-31T09:17:48Z</time>
      </trkpt>
      <trkpt lat="42.411867" lon="1.693425">
        <ele>1593.212</ele>
        <time>2019-05-31T09:17:51Z</time>
      </trkpt>
      <trkpt lat="42.411852" lon="1.693470">
        <ele>1593.416</ele>
        <time>2019-05-31T09:17:54Z</time>
      </trkpt>
      <trkpt lat="42.411826" lon="1.693522">
        <ele>1594.042</ele>
        <time>2019-05-31T09:17:58Z</time>
      </trkpt>
      <trkpt lat="42.411821" lon="1.693552">
        <ele>1594.277</ele>
        <time>2019-05-31T09:18:00Z</time>
      </trkpt>
      <trkpt lat="42.411768" lon="1.693665">
        <ele>1595.261</ele>
        <time>2019-05-31T09:18:08Z</time>
      </trkpt>
      <trkpt lat="42.411760" lon="1.693677">
        <ele>1595.427</ele>
        <time>2019-05-31T09:18:09Z</time>
      </trkpt>
      <trkpt lat="42.411712" lon="1.693764">
        <ele>1596.008</ele>
        <time>2019-05-31T09:18:15Z</time>
      </trkpt>
      <trkpt lat="42.411686" lon="1.693804">
        <ele>1596.470</ele>
        <time>2019-05-31T09:18:18Z</time>
      </trkpt>
      <trkpt lat="42.411647" lon="1.693863">
        <ele>1597.034</ele>
        <time>2019-05-31T09:18:23Z</time>
      </trkpt>
      <trkpt lat="42.411632" lon="1.693891">
        <ele>1597.490</ele>
        <time>2019-05-31T09:18:25Z</time>
      </trkpt>
      <trkpt lat="42.411572" lon="1.693955">
        <ele>1597.888</ele>
        <time>2019-05-31T09:18:31Z</time>
      </trkpt>
      <trkpt lat="42.411521" lon="1.693994">
        <ele>1597.862</ele>
        <time>2019-05-31T09:18:36Z</time>
      </trkpt>
      <trkpt lat="42.411472" lon="1.694047">
        <ele>1598.457</ele>
        <time>2019-05-31T09:18:41Z</time>
      </trkpt>
      <trkpt lat="42.411454" lon="1.694070">
        <ele>1598.821</ele>
        <time>2019-05-31T09:18:43Z</time>
      </trkpt>
      <trkpt lat="42.411390" lon="1.694167">
        <ele>1599.477</ele>
        <time>2019-05-31T09:18:51Z</time>
      </trkpt>
      <trkpt lat="42.411385" lon="1.694178">
        <ele>1599.692</ele>
        <time>2019-05-31T09:18:52Z</time>
      </trkpt>
      <trkpt lat="42.411340" lon="1.694296">
        <ele>1600.473</ele>
        <time>2019-05-31T09:18:59Z</time>
      </trkpt>
      <trkpt lat="42.411339" lon="1.694317">
        <ele>1600.620</ele>
        <time>2019-05-31T09:19:00Z</time>
      </trkpt>
      <trkpt lat="42.411341" lon="1.694335">
        <ele>1600.808</ele>
        <time>2019-05-31T09:19:01Z</time>
      </trkpt>
      <trkpt lat="42.411320" lon="1.694398">
        <ele>1601.042</ele>
        <time>2019-05-31T09:19:05Z</time>
      </trkpt>
      <trkpt lat="42.411297" lon="1.694421">
        <ele>1601.426</ele>
        <time>2019-05-31T09:19:07Z</time>
      </trkpt>
      <trkpt lat="42.411257" lon="1.694442">
        <ele>1601.812</ele>
        <time>2019-05-31T09:19:10Z</time>
      </trkpt>
      <trkpt lat="42.411234" lon="1.694432">
        <ele>1602.040</ele>
        <time>2019-05-31T09:19:12Z</time>
      </trkpt>
      <trkpt lat="42.411226" lon="1.694418">
        <ele>1602.254</ele>
        <time>2019-05-31T09:19:13Z</time>
      </trkpt>
      <trkpt lat="42.411196" lon="1.694351">
        <ele>1602.699</ele>
        <time>2019-05-31T09:19:17Z</time>
      </trkpt>
      <trkpt lat="42.411189" lon="1.694336">
        <ele>1602.813</ele>
        <time>2019-05-31T09:19:18Z</time>
      </trkpt>
      <trkpt lat="42.411178" lon="1.694301">
        <ele>1603.429</ele>
        <time>2019-05-31T09:19:20Z</time>
      </trkpt>
      <trkpt lat="42.411174" lon="1.694269">
        <ele>1603.875</ele>
        <time>2019-05-31T09:19:22Z</time>
      </trkpt>
      <trkpt lat="42.411171" lon="1.694234">
        <ele>1603.828</ele>
        <time>2019-05-31T09:19:24Z</time>
      </trkpt>
      <trkpt lat="42.411165" lon="1.694180">
        <ele>1603.820</ele>
        <time>2019-05-31T09:19:27Z</time>
      </trkpt>
      <trkpt lat="42.411162" lon="1.694139">
        <ele>1604.008</ele>
        <time>2019-05-31T09:19:29Z</time>
      </trkpt>
      <trkpt lat="42.411157" lon="1.694100">
        <ele>1604.280</ele>
        <time>2019-05-31T09:19:31Z</time>
      </trkpt>
      <trkpt lat="42.411138" lon="1.694014">
        <ele>1605.034</ele>
        <time>2019-05-31T09:19:36Z</time>
      </trkpt>
      <trkpt lat="42.411133" lon="1.693973">
        <ele>1605.250</ele>
        <time>2019-05-31T09:19:38Z</time>
      </trkpt>
      <trkpt lat="42.411114" lon="1.693888">
        <ele>1605.838</ele>
        <time>2019-05-31T09:19:43Z</time>
      </trkpt>
      <trkpt lat="42.411109" lon="1.693875">
        <ele>1606.292</ele>
        <time>2019-05-31T09:19:44Z</time>
      </trkpt>
      <trkpt lat="42.411075" lon="1.693727">
        <ele>1607.047</ele>
        <time>2019-05-31T09:19:52Z</time>
      </trkpt>
      <trkpt lat="42.411073" lon="1.693708">
        <ele>1607.271</ele>
        <time>2019-05-31T09:19:53Z</time>
      </trkpt>
      <trkpt lat="42.411039" lon="1.693604">
        <ele>1607.687</ele>
        <time>2019-05-31T09:19:59Z</time>
      </trkpt>
      <trkpt lat="42.410979" lon="1.693422">
        <ele>1608.038</ele>
        <time>2019-05-31T09:20:07Z</time>
      </trkpt>
      <trkpt lat="42.410972" lon="1.693404">
        <ele>1608.470</ele>
        <time>2019-05-31T09:20:08Z</time>
      </trkpt>
      <trkpt lat="42.410906" lon="1.693233">
        <ele>1609.017</ele>
        <time>2019-05-31T09:20:16Z</time>
      </trkpt>
      <trkpt lat="42.410857" lon="1.693157">
        <ele>1609.408</ele>
        <time>2019-05-31T09:20:20Z</time>
      </trkpt>
      <trkpt lat="42.410825" lon="1.693125">
        <ele>1609.236</ele>
        <time>2019-05-31T09:20:22Z</time>
      </trkpt>
      <trkpt lat="42.410737" lon="1.693107">
        <ele>1609.080</ele>
        <time>2019-05-31T09:20:27Z</time>
      </trkpt>
      <trkpt lat="42.410611" lon="1.693065">
        <ele>1608.836</ele>
        <time>2019-05-31T09:20:33Z</time>
      </trkpt>
      <trkpt lat="42.410492" lon="1.692992">
        <ele>1608.654</ele>
        <time>2019-05-31T09:20:39Z</time>
      </trkpt>
      <trkpt lat="42.410462" lon="1.692977">
        <ele>1608.278</ele>
        <time>2019-05-31T09:20:40Z</time>
      </trkpt>
      <trkpt lat="42.410342" lon="1.692965">
        <ele>1607.683</ele>
        <time>2019-05-31T09:20:44Z</time>
      </trkpt>
      <trkpt lat="42.410278" lon="1.692933">
        <ele>1607.297</ele>
        <time>2019-05-31T09:20:46Z</time>
      </trkpt>
      <trkpt lat="42.410228" lon="1.692867">
        <ele>1606.893</ele>
        <time>2019-05-31T09:20:48Z</time>
      </trkpt>
      <trkpt lat="42.410185" lon="1.692673">
        <ele>1606.237</ele>
        <time>2019-05-31T09:20:52Z</time>
      </trkpt>
      <trkpt lat="42.410182" lon="1.692623">
        <ele>1605.849</ele>
        <time>2019-05-31T09:20:53Z</time>
      </trkpt>
      <trkpt lat="42.410200" lon="1.692514">
        <ele>1605.813</ele>
        <time>2019-05-31T09:20:55Z</time>
      </trkpt>
      <trkpt lat="42.410252" lon="1.692434">
        <ele>1605.608</ele>
        <time>2019-05-31T09:20:57Z</time>
      </trkpt>
      <trkpt lat="42.410411" lon="1.692295">
        <ele>1605.026</ele>
        <time>2019-05-31T09:21:03Z</time>
      </trkpt>
      <trkpt lat="42.410482" lon="1.692264">
        <ele>1603.840</ele>
        <time>2019-05-31T09:21:05Z</time>
      </trkpt>
      <trkpt lat="42.410527" lon="1.692250">
        <ele>1603.636</ele>
        <time>2019-05-31T09:21:06Z</time>
      </trkpt>
      <trkpt lat="42.410576" lon="1.692236">
        <ele>1603.664</ele>
        <time>2019-05-31T09:21:07Z</time>
      </trkpt>
      <trkpt lat="42.410664" lon="1.692199">
        <ele>1602.488</ele>
        <time>2019-05-31T09:21:09Z</time>
      </trkpt>
      <trkpt lat="42.410745" lon="1.692131">
        <ele>1601.873</ele>
        <time>2019-05-31T09:21:11Z</time>
      </trkpt>
      <trkpt lat="42.410819" lon="1.692050">
        <ele>1601.227</ele>
        <time>2019-05-31T09:21:13Z</time>
      </trkpt>
      <trkpt lat="42.410864" lon="1.692009">
        <ele>1600.873</ele>
        <time>2019-05-31T09:21:14Z</time>
      </trkpt>
      <trkpt lat="42.410965" lon="1.691918">
        <ele>1600.092</ele>
        <time>2019-05-31T09:21:16Z</time>
      </trkpt>
      <trkpt lat="42.411008" lon="1.691861">
        <ele>1599.873</ele>
        <time>2019-05-31T09:21:17Z</time>
      </trkpt>
      <trkpt lat="42.411069" lon="1.691723">
        <ele>1599.220</ele>
        <time>2019-05-31T09:21:19Z</time>
      </trkpt>
      <trkpt lat="42.411077" lon="1.691650">
        <ele>1598.608</ele>
        <time>2019-05-31T09:21:20Z</time>
      </trkpt>
      <trkpt lat="42.411085" lon="1.691582">
        <ele>1598.222</ele>
        <time>2019-05-31T09:21:21Z</time>
      </trkpt>
      <trkpt lat="42.411093" lon="1.691519">
        <ele>1598.276</ele>
        <time>2019-05-31T09:21:22Z</time>
      </trkpt>
      <trkpt lat="42.411100" lon="1.691455">
        <ele>1597.612</ele>
        <time>2019-05-31T09:21:23Z</time>
      </trkpt>
      <trkpt lat="42.411110" lon="1.691394">
        <ele>1597.240</ele>
        <time>2019-05-31T09:21:24Z</time>
      </trkpt>
      <trkpt lat="42.411121" lon="1.691332">
        <ele>1596.694</ele>
        <time>2019-05-31T09:21:25Z</time>
      </trkpt>
      <trkpt lat="42.411158" lon="1.691146">
        <ele>1595.489</ele>
        <time>2019-05-31T09:21:28Z</time>
      </trkpt>
      <trkpt lat="42.411173" lon="1.691035">
        <ele>1593.863</ele>
        <time>2019-05-31T09:21:30Z</time>
      </trkpt>
      <trkpt lat="42.411175" lon="1.690979">
        <ele>1593.499</ele>
        <time>2019-05-31T09:21:31Z</time>
      </trkpt>
      <trkpt lat="42.411183" lon="1.690871">
        <ele>1593.293</ele>
        <time>2019-05-31T09:21:33Z</time>
      </trkpt>
      <trkpt lat="42.411195" lon="1.690818">
        <ele>1592.665</ele>
        <time>2019-05-31T09:21:34Z</time>
      </trkpt>
      <trkpt lat="42.411217" lon="1.690712">
        <ele>1591.421</ele>
        <time>2019-05-31T09:21:36Z</time>
      </trkpt>
      <trkpt lat="42.411235" lon="1.690602">
        <ele>1590.208</ele>
        <time>2019-05-31T09:21:38Z</time>
      </trkpt>
      <trkpt lat="42.411249" lon="1.690486">
        <ele>1589.832</ele>
        <time>2019-05-31T09:21:40Z</time>
      </trkpt>
      <trkpt lat="42.411264" lon="1.690432">
        <ele>1589.896</ele>
        <time>2019-05-31T09:21:41Z</time>
      </trkpt>
      <trkpt lat="42.411292" lon="1.690312">
        <ele>1588.692</ele>
        <time>2019-05-31T09:21:43Z</time>
      </trkpt>
      <trkpt lat="42.411304" lon="1.690253">
        <ele>1588.240</ele>
        <time>2019-05-31T09:21:44Z</time>
      </trkpt>
      <trkpt lat="42.411325" lon="1.690126">
        <ele>1587.444</ele>
        <time>2019-05-31T09:21:46Z</time>
      </trkpt>
      <trkpt lat="42.411375" lon="1.689917">
        <ele>1586.649</ele>
        <time>2019-05-31T09:21:49Z</time>
      </trkpt>
      <trkpt lat="42.411390" lon="1.689845">
        <ele>1585.863</ele>
        <time>2019-05-31T09:21:50Z</time>
      </trkpt>
      <trkpt lat="42.411397" lon="1.689770">
        <ele>1585.219</ele>
        <time>2019-05-31T09:21:51Z</time>
      </trkpt>
      <trkpt lat="42.411375" lon="1.689605">
        <ele>1584.291</ele>
        <time>2019-05-31T09:21:53Z</time>
      </trkpt>
      <trkpt lat="42.411368" lon="1.689347">
        <ele>1583.081</ele>
        <time>2019-05-31T09:21:56Z</time>
      </trkpt>
      <trkpt lat="42.411369" lon="1.689258">
        <ele>1582.819</ele>
        <time>2019-05-31T09:21:57Z</time>
      </trkpt>
      <trkpt lat="42.411371" lon="1.688999">
        <ele>1581.808</ele>
        <time>2019-05-31T09:22:00Z</time>
      </trkpt>
      <trkpt lat="42.411389" lon="1.688773">
        <ele>1582.082</ele>
        <time>2019-05-31T09:22:03Z</time>
      </trkpt>
      <trkpt lat="42.411423" lon="1.688604">
        <ele>1583.286</ele>
        <time>2019-05-31T09:22:06Z</time>
      </trkpt>
      <trkpt lat="42.411439" lon="1.688516">
        <ele>1584.272</ele>
        <time>2019-05-31T09:22:08Z</time>
      </trkpt>
      <trkpt lat="42.411450" lon="1.688453">
        <ele>1585.220</ele>
        <time>2019-05-31T09:22:10Z</time>
      </trkpt>
      <trkpt lat="42.411459" lon="1.688406">
        <ele>1586.244</ele>
        <time>2019-05-31T09:22:12Z</time>
      </trkpt>
      <trkpt lat="42.411463" lon="1.688379">
        <ele>1586.259</ele>
        <time>2019-05-31T09:22:13Z</time>
      </trkpt>
      <trkpt lat="42.411499" lon="1.688153">
        <ele>1587.013</ele>
        <time>2019-05-31T09:22:21Z</time>
      </trkpt>
      <trkpt lat="42.411523" lon="1.688056">
        <ele>1587.419</ele>
        <time>2019-05-31T09:22:25Z</time>
      </trkpt>
      <trkpt lat="42.411539" lon="1.688009">
        <ele>1587.843</ele>
        <time>2019-05-31T09:22:27Z</time>
      </trkpt>
      <trkpt lat="42.411594" lon="1.687909">
        <ele>1588.664</ele>
        <time>2019-05-31T09:22:32Z</time>
      </trkpt>
      <trkpt lat="42.411633" lon="1.687822">
        <ele>1589.410</ele>
        <time>2019-05-31T09:22:37Z</time>
      </trkpt>
      <trkpt lat="42.411658" lon="1.687745">
        <ele>1589.608</ele>
        <time>2019-05-31T09:22:40Z</time>
      </trkpt>
      <trkpt lat="42.411668" lon="1.687732">
        <ele>1589.897</ele>
        <time>2019-05-31T09:22:41Z</time>
      </trkpt>
      <trkpt lat="42.411685" lon="1.687688">
        <ele>1590.091</ele>
        <time>2019-05-31T09:22:43Z</time>
      </trkpt>
      <trkpt lat="42.411696" lon="1.687663">
        <ele>1589.817</ele>
        <time>2019-05-31T09:22:44Z</time>
      </trkpt>
      <trkpt lat="42.411715" lon="1.687541">
        <ele>1589.635</ele>
        <time>2019-05-31T09:22:48Z</time>
      </trkpt>
      <trkpt lat="42.411769" lon="1.687336">
        <ele>1589.889</ele>
        <time>2019-05-31T09:22:55Z</time>
      </trkpt>
      <trkpt lat="42.411843" lon="1.687120">
        <ele>1590.644</ele>
        <time>2019-05-31T09:23:03Z</time>
      </trkpt>
      <trkpt lat="42.411854" lon="1.687098">
        <ele>1590.648</ele>
        <time>2019-05-31T09:23:04Z</time>
      </trkpt>
      <trkpt lat="42.411934" lon="1.686939">
        <ele>1591.634</ele>
        <time>2019-05-31T09:23:12Z</time>
      </trkpt>
      <trkpt lat="42.411944" lon="1.686921">
        <ele>1591.425</ele>
        <time>2019-05-31T09:23:13Z</time>
      </trkpt>
      <trkpt lat="42.412032" lon="1.686751">
        <ele>1592.226</ele>
        <time>2019-05-31T09:23:22Z</time>
      </trkpt>
      <trkpt lat="42.412051" lon="1.686695">
        <ele>1592.608</ele>
        <time>2019-05-31T09:23:25Z</time>
      </trkpt>
      <trkpt lat="42.412091" lon="1.686600">
        <ele>1592.808</ele>
        <time>2019-05-31T09:23:30Z</time>
      </trkpt>
      <trkpt lat="42.412162" lon="1.686435">
        <ele>1593.435</ele>
        <time>2019-05-31T09:23:39Z</time>
      </trkpt>
      <trkpt lat="42.412173" lon="1.686419">
        <ele>1593.649</ele>
        <time>2019-05-31T09:23:40Z</time>
      </trkpt>
      <trkpt lat="42.412214" lon="1.686326">
        <ele>1594.235</ele>
        <time>2019-05-31T09:23:45Z</time>
      </trkpt>
      <trkpt lat="42.412231" lon="1.686298">
        <ele>1594.693</ele>
        <time>2019-05-31T09:23:47Z</time>
      </trkpt>
      <trkpt lat="42.412263" lon="1.686209">
        <ele>1595.697</ele>
        <time>2019-05-31T09:23:52Z</time>
      </trkpt>
      <trkpt lat="42.412291" lon="1.686172">
        <ele>1595.812</ele>
        <time>2019-05-31T09:23:55Z</time>
      </trkpt>
      <trkpt lat="42.412314" lon="1.686140">
        <ele>1596.856</ele>
        <time>2019-05-31T09:23:58Z</time>
      </trkpt>
      <trkpt lat="42.412351" lon="1.686034">
        <ele>1597.612</ele>
        <time>2019-05-31T09:24:04Z</time>
      </trkpt>
      <trkpt lat="42.412359" lon="1.686016">
        <ele>1597.819</ele>
        <time>2019-05-31T09:24:05Z</time>
      </trkpt>
      <trkpt lat="42.412408" lon="1.685936">
        <ele>1598.609</ele>
        <time>2019-05-31T09:24:11Z</time>
      </trkpt>
      <trkpt lat="42.412417" lon="1.685924">
        <ele>1599.019</ele>
        <time>2019-05-31T09:24:12Z</time>
      </trkpt>
      <trkpt lat="42.412444" lon="1.685883">
        <ele>1599.408</ele>
        <time>2019-05-31T09:24:15Z</time>
      </trkpt>
      <trkpt lat="42.412467" lon="1.685859">
        <ele>1599.864</ele>
        <time>2019-05-31T09:24:17Z</time>
      </trkpt>
      <trkpt lat="42.412491" lon="1.685826">
        <ele>1600.078</ele>
        <time>2019-05-31T09:24:20Z</time>
      </trkpt>
      <trkpt lat="42.412506" lon="1.685791">
        <ele>1600.634</ele>
        <time>2019-05-31T09:24:23Z</time>
      </trkpt>
      <trkpt lat="42.412515" lon="1.685779">
        <ele>1600.812</ele>
        <time>2019-05-31T09:24:24Z</time>
      </trkpt>
      <trkpt lat="42.412536" lon="1.685760">
        <ele>1601.256</ele>
        <time>2019-05-31T09:24:26Z</time>
      </trkpt>
      <trkpt lat="42.412578" lon="1.685720">
        <ele>1601.681</ele>
        <time>2019-05-31T09:24:30Z</time>
      </trkpt>
      <trkpt lat="42.412618" lon="1.685677">
        <ele>1602.255</ele>
        <time>2019-05-31T09:24:34Z</time>
      </trkpt>
      <trkpt lat="42.412639" lon="1.685663">
        <ele>1602.251</ele>
        <time>2019-05-31T09:24:36Z</time>
      </trkpt>
      <trkpt lat="42.412685" lon="1.685566">
        <ele>1603.037</ele>
        <time>2019-05-31T09:24:42Z</time>
      </trkpt>
      <trkpt lat="42.412686" lon="1.685486">
        <ele>1603.449</ele>
        <time>2019-05-31T09:24:47Z</time>
      </trkpt>
      <trkpt lat="42.412684" lon="1.685459">
        <ele>1603.413</ele>
        <time>2019-05-31T09:24:49Z</time>
      </trkpt>
      <trkpt lat="42.412662" lon="1.685366">
        <ele>1602.608</ele>
        <time>2019-05-31T09:24:56Z</time>
      </trkpt>
      <trkpt lat="42.412632" lon="1.685292">
        <ele>1604.446</ele>
        <time>2019-05-31T09:25:00Z</time>
      </trkpt>
      <trkpt lat="42.412608" lon="1.685235">
        <ele>1604.680</ele>
        <time>2019-05-31T09:25:03Z</time>
      </trkpt>
      <trkpt lat="42.412542" lon="1.685129">
        <ele>1605.426</ele>
        <time>2019-05-31T09:25:09Z</time>
      </trkpt>
      <trkpt lat="42.412514" lon="1.685083">
        <ele>1605.664</ele>
        <time>2019-05-31T09:25:12Z</time>
      </trkpt>
      <trkpt lat="42.412453" lon="1.684985">
        <ele>1606.438</ele>
        <time>2019-05-31T09:25:19Z</time>
      </trkpt>
      <trkpt lat="42.412447" lon="1.684974">
        <ele>1606.893</ele>
        <time>2019-05-31T09:25:20Z</time>
      </trkpt>
      <trkpt lat="42.412435" lon="1.684942">
        <ele>1607.287</ele>
        <time>2019-05-31T09:25:22Z</time>
      </trkpt>
      <trkpt lat="42.412414" lon="1.684923">
        <ele>1607.633</ele>
        <time>2019-05-31T09:25:24Z</time>
      </trkpt>
      <trkpt lat="42.412402" lon="1.684913">
        <ele>1607.874</ele>
        <time>2019-05-31T09:25:25Z</time>
      </trkpt>
      <trkpt lat="42.412391" lon="1.684904">
        <ele>1607.856</ele>
        <time>2019-05-31T09:25:26Z</time>
      </trkpt>
      <trkpt lat="42.412357" lon="1.684849">
        <ele>1608.421</ele>
        <time>2019-05-31T09:25:30Z</time>
      </trkpt>
      <trkpt lat="42.412350" lon="1.684834">
        <ele>1608.608</ele>
        <time>2019-05-31T09:25:31Z</time>
      </trkpt>
      <trkpt lat="42.412342" lon="1.684820">
        <ele>1608.690</ele>
        <time>2019-05-31T09:25:32Z</time>
      </trkpt>
      <trkpt lat="42.412285" lon="1.684739">
        <ele>1609.624</ele>
        <time>2019-05-31T09:25:38Z</time>
      </trkpt>
      <trkpt lat="42.412247" lon="1.684664">
        <ele>1610.840</ele>
        <time>2019-05-31T09:25:43Z</time>
      </trkpt>
      <trkpt lat="42.412237" lon="1.684614">
        <ele>1611.288</ele>
        <time>2019-05-31T09:25:46Z</time>
      </trkpt>
      <trkpt lat="42.412211" lon="1.684544">
        <ele>1612.042</ele>
        <time>2019-05-31T09:25:51Z</time>
      </trkpt>
      <trkpt lat="42.412213" lon="1.684528">
        <ele>1612.037</ele>
        <time>2019-05-31T09:25:52Z</time>
      </trkpt>
      <trkpt lat="42.412210" lon="1.684514">
        <ele>1612.241</ele>
        <time>2019-05-31T09:25:53Z</time>
      </trkpt>
      <trkpt lat="42.412196" lon="1.684414">
        <ele>1612.857</ele>
        <time>2019-05-31T09:25:59Z</time>
      </trkpt>
      <trkpt lat="42.412191" lon="1.684402">
        <ele>1612.862</ele>
        <time>2019-05-31T09:26:00Z</time>
      </trkpt>
      <trkpt lat="42.412188" lon="1.684386">
        <ele>1613.083</ele>
        <time>2019-05-31T09:26:01Z</time>
      </trkpt>
      <trkpt lat="42.412181" lon="1.684325">
        <ele>1613.811</ele>
        <time>2019-05-31T09:26:06Z</time>
      </trkpt>
      <trkpt lat="42.412177" lon="1.684320">
        <ele>1614.208</ele>
        <time>2019-05-31T09:26:07Z</time>
      </trkpt>
      <trkpt lat="42.412066" lon="1.683827">
        <ele>1617.049</ele>
        <time>2019-05-31T09:26:59Z</time>
      </trkpt>
      <trkpt lat="42.412061" lon="1.683808">
        <ele>1617.253</ele>
        <time>2019-05-31T09:27:00Z</time>
      </trkpt>
      <trkpt lat="42.412052" lon="1.683752">
        <ele>1617.639</ele>
        <time>2019-05-31T09:27:03Z</time>
      </trkpt>
      <trkpt lat="42.412050" lon="1.683723">
        <ele>1618.087</ele>
        <time>2019-05-31T09:27:05Z</time>
      </trkpt>
      <trkpt lat="42.412044" lon="1.683692">
        <ele>1618.241</ele>
        <time>2019-05-31T09:27:07Z</time>
      </trkpt>
      <trkpt lat="42.412040" lon="1.683677">
        <ele>1618.256</ele>
        <time>2019-05-31T09:27:08Z</time>
      </trkpt>
      <trkpt lat="42.412035" lon="1.683592">
        <ele>1619.030</ele>
        <time>2019-05-31T09:27:13Z</time>
      </trkpt>
      <trkpt lat="42.412033" lon="1.683575">
        <ele>1619.256</ele>
        <time>2019-05-31T09:27:14Z</time>
      </trkpt>
      <trkpt lat="42.412024" lon="1.683538">
        <ele>1619.447</ele>
        <time>2019-05-31T09:27:16Z</time>
      </trkpt>
      <trkpt lat="42.412015" lon="1.683499">
        <ele>1620.229</ele>
        <time>2019-05-31T09:27:19Z</time>
      </trkpt>
      <trkpt lat="42.412010" lon="1.683457">
        <ele>1620.621</ele>
        <time>2019-05-31T09:27:21Z</time>
      </trkpt>
      <trkpt lat="42.412007" lon="1.683440">
        <ele>1620.608</ele>
        <time>2019-05-31T09:27:22Z</time>
      </trkpt>
      <trkpt lat="42.411994" lon="1.683307">
        <ele>1621.447</ele>
        <time>2019-05-31T09:27:30Z</time>
      </trkpt>
      <trkpt lat="42.411982" lon="1.683163">
        <ele>1621.861</ele>
        <time>2019-05-31T09:27:37Z</time>
      </trkpt>
      <trkpt lat="42.411920" lon="1.682946">
        <ele>1621.627</ele>
        <time>2019-05-31T09:27:43Z</time>
      </trkpt>
      <trkpt lat="42.411843" lon="1.682725">
        <ele>1620.835</ele>
        <time>2019-05-31T09:27:48Z</time>
      </trkpt>
      <trkpt lat="42.411778" lon="1.682429">
        <ele>1620.629</ele>
        <time>2019-05-31T09:27:54Z</time>
      </trkpt>
      <trkpt lat="42.411738" lon="1.682274">
        <ele>1621.294</ele>
        <time>2019-05-31T09:27:59Z</time>
      </trkpt>
      <trkpt lat="42.411705" lon="1.682190">
        <ele>1621.458</ele>
        <time>2019-05-31T09:28:02Z</time>
      </trkpt>
      <trkpt lat="42.411672" lon="1.682114">
        <ele>1621.694</ele>
        <time>2019-05-31T09:28:05Z</time>
      </trkpt>
      <trkpt lat="42.411609" lon="1.682024">
        <ele>1622.473</ele>
        <time>2019-05-31T09:28:11Z</time>
      </trkpt>
      <trkpt lat="42.411597" lon="1.682016">
        <ele>1622.685</ele>
        <time>2019-05-31T09:28:12Z</time>
      </trkpt>
      <trkpt lat="42.411582" lon="1.682016">
        <ele>1622.813</ele>
        <time>2019-05-31T09:28:13Z</time>
      </trkpt>
      <trkpt lat="42.411537" lon="1.682011">
        <ele>1623.208</ele>
        <time>2019-05-31T09:28:16Z</time>
      </trkpt>
      <trkpt lat="42.411493" lon="1.682015">
        <ele>1623.470</ele>
        <time>2019-05-31T09:28:19Z</time>
      </trkpt>
      <trkpt lat="42.411481" lon="1.682020">
        <ele>1623.634</ele>
        <time>2019-05-31T09:28:20Z</time>
      </trkpt>
      <trkpt lat="42.411386" lon="1.682058">
        <ele>1624.690</ele>
        <time>2019-05-31T09:28:27Z</time>
      </trkpt>
      <trkpt lat="42.411302" lon="1.682065">
        <ele>1625.498</ele>
        <time>2019-05-31T09:28:33Z</time>
      </trkpt>
      <trkpt lat="42.411272" lon="1.682055">
        <ele>1626.492</ele>
        <time>2019-05-31T09:28:35Z</time>
      </trkpt>
      <trkpt lat="42.411225" lon="1.682024">
        <ele>1625.267</ele>
        <time>2019-05-31T09:28:38Z</time>
      </trkpt>
      <trkpt lat="42.411168" lon="1.681998">
        <ele>1625.841</ele>
        <time>2019-05-31T09:28:41Z</time>
      </trkpt>
      <trkpt lat="42.411084" lon="1.681923">
        <ele>1626.487</ele>
        <time>2019-05-31T09:28:45Z</time>
      </trkpt>
      <trkpt lat="42.411065" lon="1.681899">
        <ele>1625.295</ele>
        <time>2019-05-31T09:28:46Z</time>
      </trkpt>
      <trkpt lat="42.411040" lon="1.681876">
        <ele>1624.849</ele>
        <time>2019-05-31T09:28:47Z</time>
      </trkpt>
      <trkpt lat="42.411008" lon="1.681848">
        <ele>1624.223</ele>
        <time>2019-05-31T09:28:48Z</time>
      </trkpt>
      <trkpt lat="42.410969" lon="1.681823">
        <ele>1623.608</ele>
        <time>2019-05-31T09:28:49Z</time>
      </trkpt>
      <trkpt lat="42.410922" lon="1.681799">
        <ele>1623.022</ele>
        <time>2019-05-31T09:28:50Z</time>
      </trkpt>
      <trkpt lat="42.410869" lon="1.681778">
        <ele>1622.676</ele>
        <time>2019-05-31T09:28:51Z</time>
      </trkpt>
      <trkpt lat="42.410812" lon="1.681762">
        <ele>1621.842</ele>
        <time>2019-05-31T09:28:52Z</time>
      </trkpt>
      <trkpt lat="42.410683" lon="1.681754">
        <ele>1620.440</ele>
        <time>2019-05-31T09:28:54Z</time>
      </trkpt>
      <trkpt lat="42.410618" lon="1.681753">
        <ele>1620.274</ele>
        <time>2019-05-31T09:28:55Z</time>
      </trkpt>
      <trkpt lat="42.410430" lon="1.681743">
        <ele>1619.839</ele>
        <time>2019-05-31T09:28:58Z</time>
      </trkpt>
      <trkpt lat="42.410261" lon="1.681730">
        <ele>1619.853</ele>
        <time>2019-05-31T09:29:01Z</time>
      </trkpt>
      <trkpt lat="42.410100" lon="1.681634">
        <ele>1621.079</ele>
        <time>2019-05-31T09:29:05Z</time>
      </trkpt>
      <trkpt lat="42.410075" lon="1.681613">
        <ele>1621.024</ele>
        <time>2019-05-31T09:29:06Z</time>
      </trkpt>
      <trkpt lat="42.410028" lon="1.681551">
        <ele>1621.404</ele>
        <time>2019-05-31T09:29:09Z</time>
      </trkpt>
      <trkpt lat="42.410010" lon="1.681532">
        <ele>1621.614</ele>
        <time>2019-05-31T09:29:10Z</time>
      </trkpt>
      <trkpt lat="42.409939" lon="1.681399">
        <ele>1622.408</ele>
        <time>2019-05-31T09:29:16Z</time>
      </trkpt>
      <trkpt lat="42.409906" lon="1.681262">
        <ele>1622.685</ele>
        <time>2019-05-31T09:29:21Z</time>
      </trkpt>
      <trkpt lat="42.409887" lon="1.681157">
        <ele>1622.069</ele>
        <time>2019-05-31T09:29:24Z</time>
      </trkpt>
      <trkpt lat="42.409850" lon="1.680942">
        <ele>1622.875</ele>
        <time>2019-05-31T09:29:31Z</time>
      </trkpt>
      <trkpt lat="42.409799" lon="1.680717">
        <ele>1623.483</ele>
        <time>2019-05-31T09:29:39Z</time>
      </trkpt>
      <trkpt lat="42.409777" lon="1.680639">
        <ele>1623.857</ele>
        <time>2019-05-31T09:29:42Z</time>
      </trkpt>
      <trkpt lat="42.409765" lon="1.680590">
        <ele>1624.092</ele>
        <time>2019-05-31T09:29:45Z</time>
      </trkpt>
      <trkpt lat="42.409736" lon="1.680493">
        <ele>1624.696</ele>
        <time>2019-05-31T09:31:59Z</time>
      </trkpt>
      <trkpt lat="42.409732" lon="1.680471">
        <ele>1624.452</ele>
        <time>2019-05-31T09:32:00Z</time>
      </trkpt>
      <trkpt lat="42.409679" lon="1.680278">
        <ele>1623.816</ele>
        <time>2019-05-31T09:32:05Z</time>
      </trkpt>
      <trkpt lat="42.409596" lon="1.680054">
        <ele>1622.676</ele>
        <time>2019-05-31T09:32:09Z</time>
      </trkpt>
      <trkpt lat="42.409555" lon="1.679927">
        <ele>1621.213</ele>
        <time>2019-05-31T09:32:11Z</time>
      </trkpt>
      <trkpt lat="42.409429" lon="1.679536">
        <ele>1620.408</ele>
        <time>2019-05-31T09:32:17Z</time>
      </trkpt>
      <trkpt lat="42.409331" lon="1.679238">
        <ele>1621.854</ele>
        <time>2019-05-31T09:32:23Z</time>
      </trkpt>
      <trkpt lat="42.409217" lon="1.679017">
        <ele>1622.488</ele>
        <time>2019-05-31T09:32:29Z</time>
      </trkpt>
      <trkpt lat="42.409105" lon="1.678860">
        <ele>1623.264</ele>
        <time>2019-05-31T09:32:35Z</time>
      </trkpt>
      <trkpt lat="42.409073" lon="1.678827">
        <ele>1623.472</ele>
        <time>2019-05-31T09:32:37Z</time>
      </trkpt>
      <trkpt lat="42.408995" lon="1.678768">
        <ele>1623.226</ele>
        <time>2019-05-31T09:32:42Z</time>
      </trkpt>
      <trkpt lat="42.408940" lon="1.678753">
        <ele>1625.451</ele>
        <time>2019-05-31T09:32:45Z</time>
      </trkpt>
      <trkpt lat="42.408871" lon="1.678737">
        <ele>1625.625</ele>
        <time>2019-05-31T09:32:49Z</time>
      </trkpt>
      <trkpt lat="42.408760" lon="1.678720">
        <ele>1626.491</ele>
        <time>2019-05-31T09:32:55Z</time>
      </trkpt>
      <trkpt lat="42.408614" lon="1.678713">
        <ele>1626.631</ele>
        <time>2019-05-31T09:33:02Z</time>
      </trkpt>
      <trkpt lat="42.408569" lon="1.678692">
        <ele>1627.261</ele>
        <time>2019-05-31T09:33:05Z</time>
      </trkpt>
      <trkpt lat="42.408572" lon="1.678655">
        <ele>1627.407</ele>
        <time>2019-05-31T09:33:07Z</time>
      </trkpt>
      <trkpt lat="42.408620" lon="1.678617">
        <ele>1627.808</ele>
        <time>2019-05-31T09:33:11Z</time>
      </trkpt>
      <trkpt lat="42.408633" lon="1.678610">
        <ele>1628.046</ele>
        <time>2019-05-31T09:33:12Z</time>
      </trkpt>
      <trkpt lat="42.408680" lon="1.678586">
        <ele>1628.610</ele>
        <time>2019-05-31T09:33:16Z</time>
      </trkpt>
      <trkpt lat="42.408759" lon="1.678520">
        <ele>1629.696</ele>
        <time>2019-05-31T09:33:23Z</time>
      </trkpt>
      <trkpt lat="42.408846" lon="1.678433">
        <ele>1630.634</ele>
        <time>2019-05-31T09:33:31Z</time>
      </trkpt>
      <trkpt lat="42.408855" lon="1.678419">
        <ele>1630.838</ele>
        <time>2019-05-31T09:33:32Z</time>
      </trkpt>
      <trkpt lat="42.408932" lon="1.678366">
        <ele>1631.653</ele>
        <time>2019-05-31T09:33:38Z</time>
      </trkpt>
      <trkpt lat="42.408954" lon="1.678345">
        <ele>1632.067</ele>
        <time>2019-05-31T09:33:40Z</time>
      </trkpt>
      <trkpt lat="42.409021" lon="1.678277">
        <ele>1633.083</ele>
        <time>2019-05-31T09:33:46Z</time>
      </trkpt>
      <trkpt lat="42.409102" lon="1.678223">
        <ele>1634.229</ele>
        <time>2019-05-31T09:33:53Z</time>
      </trkpt>
      <trkpt lat="42.409113" lon="1.678212">
        <ele>1634.400</ele>
        <time>2019-05-31T09:33:54Z</time>
      </trkpt>
      <trkpt lat="42.409179" lon="1.678188">
        <ele>1635.220</ele>
        <time>2019-05-31T09:33:59Z</time>
      </trkpt>
      <trkpt lat="42.409204" lon="1.678173">
        <ele>1635.408</ele>
        <time>2019-05-31T09:34:01Z</time>
      </trkpt>
      <trkpt lat="42.409252" lon="1.678140">
        <ele>1636.285</ele>
        <time>2019-05-31T09:34:05Z</time>
      </trkpt>
      <trkpt lat="42.409299" lon="1.678104">
        <ele>1636.889</ele>
        <time>2019-05-31T09:34:09Z</time>
      </trkpt>
      <trkpt lat="42.409312" lon="1.678100">
        <ele>1637.245</ele>
        <time>2019-05-31T09:34:10Z</time>
      </trkpt>
      <trkpt lat="42.409384" lon="1.678050">
        <ele>1638.253</ele>
        <time>2019-05-31T09:34:16Z</time>
      </trkpt>
      <trkpt lat="42.409395" lon="1.678044">
        <ele>1638.667</ele>
        <time>2019-05-31T09:34:17Z</time>
      </trkpt>
      <trkpt lat="42.409474" lon="1.678001">
        <ele>1639.622</ele>
        <time>2019-05-31T09:34:24Z</time>
      </trkpt>
      <trkpt lat="42.409486" lon="1.677992">
        <ele>1639.696</ele>
        <time>2019-05-31T09:34:25Z</time>
      </trkpt>
      <trkpt lat="42.409554" lon="1.677942">
        <ele>1640.672</ele>
        <time>2019-05-31T09:34:31Z</time>
      </trkpt>
      <trkpt lat="42.409578" lon="1.677924">
        <ele>1641.016</ele>
        <time>2019-05-31T09:34:33Z</time>
      </trkpt>
      <trkpt lat="42.409650" lon="1.677881">
        <ele>1641.876</ele>
        <time>2019-05-31T09:34:39Z</time>
      </trkpt>
      <trkpt lat="42.409661" lon="1.677874">
        <ele>1642.013</ele>
        <time>2019-05-31T09:34:40Z</time>
      </trkpt>
      <trkpt lat="42.409732" lon="1.677824">
        <ele>1643.008</ele>
        <time>2019-05-31T09:34:46Z</time>
      </trkpt>
      <trkpt lat="42.409777" lon="1.677791">
        <ele>1643.444</ele>
        <time>2019-05-31T09:34:50Z</time>
      </trkpt>
      <trkpt lat="42.409816" lon="1.677779">
        <ele>1644.058</ele>
        <time>2019-05-31T09:34:53Z</time>
      </trkpt>
      <trkpt lat="42.409889" lon="1.677724">
        <ele>1644.864</ele>
        <time>2019-05-31T09:34:59Z</time>
      </trkpt>
      <trkpt lat="42.409911" lon="1.677708">
        <ele>1645.252</ele>
        <time>2019-05-31T09:35:01Z</time>
      </trkpt>
      <trkpt lat="42.410017" lon="1.677671">
        <ele>1646.046</ele>
        <time>2019-05-31T09:35:09Z</time>
      </trkpt>
      <trkpt lat="42.410056" lon="1.677663">
        <ele>1646.231</ele>
        <time>2019-05-31T09:35:12Z</time>
      </trkpt>
      <trkpt lat="42.410153" lon="1.677673">
        <ele>1646.875</ele>
        <time>2019-05-31T09:35:19Z</time>
      </trkpt>
      <trkpt lat="42.410194" lon="1.677683">
        <ele>1647.421</ele>
        <time>2019-05-31T09:35:22Z</time>
      </trkpt>
      <trkpt lat="42.410267" lon="1.677729">
        <ele>1648.054</ele>
        <time>2019-05-31T09:35:28Z</time>
      </trkpt>
      <trkpt lat="42.410290" lon="1.677745">
        <ele>1648.456</ele>
        <time>2019-05-31T09:35:30Z</time>
      </trkpt>
      <trkpt lat="42.410349" lon="1.677824">
        <ele>1649.011</ele>
        <time>2019-05-31T09:35:36Z</time>
      </trkpt>
      <trkpt lat="42.410371" lon="1.677871">
        <ele>1649.408</ele>
        <time>2019-05-31T09:35:39Z</time>
      </trkpt>
      <trkpt lat="42.410395" lon="1.677934">
        <ele>1649.828</ele>
        <time>2019-05-31T09:35:43Z</time>
      </trkpt>
      <trkpt lat="42.410420" lon="1.678007">
        <ele>1650.692</ele>
        <time>2019-05-31T09:35:47Z</time>
      </trkpt>
      <trkpt lat="42.410429" lon="1.678046">
        <ele>1650.818</ele>
        <time>2019-05-31T09:35:49Z</time>
      </trkpt>
      <trkpt lat="42.410436" lon="1.678176">
        <ele>1651.416</ele>
        <time>2019-05-31T09:35:56Z</time>
      </trkpt>
      <trkpt lat="42.410438" lon="1.678196">
        <ele>1651.490</ele>
        <time>2019-05-31T09:35:57Z</time>
      </trkpt>
      <trkpt lat="42.410436" lon="1.678234">
        <ele>1651.815</ele>
        <time>2019-05-31T09:35:59Z</time>
      </trkpt>
      <trkpt lat="42.410424" lon="1.678352">
        <ele>1652.079</ele>
        <time>2019-05-31T09:36:05Z</time>
      </trkpt>
      <trkpt lat="42.410448" lon="1.678504">
        <ele>1652.665</ele>
        <time>2019-05-31T09:36:13Z</time>
      </trkpt>
      <trkpt lat="42.410449" lon="1.678523">
        <ele>1652.811</ele>
        <time>2019-05-31T09:36:14Z</time>
      </trkpt>
      <trkpt lat="42.410488" lon="1.678631">
        <ele>1653.421</ele>
        <time>2019-05-31T09:36:20Z</time>
      </trkpt>
      <trkpt lat="42.410502" lon="1.678680">
        <ele>1654.003</ele>
        <time>2019-05-31T09:36:23Z</time>
      </trkpt>
      <trkpt lat="42.410568" lon="1.678757">
        <ele>1655.008</ele>
        <time>2019-05-31T09:36:29Z</time>
      </trkpt>
      <trkpt lat="42.410583" lon="1.678763">
        <ele>1655.094</ele>
        <time>2019-05-31T09:36:30Z</time>
      </trkpt>
      <trkpt lat="42.410667" lon="1.678719">
        <ele>1656.078</ele>
        <time>2019-05-31T09:36:37Z</time>
      </trkpt>
      <trkpt lat="42.410711" lon="1.678617">
        <ele>1657.294</ele>
        <time>2019-05-31T09:36:43Z</time>
      </trkpt>
      <trkpt lat="42.410728" lon="1.678585">
        <ele>1657.492</ele>
        <time>2019-05-31T09:36:45Z</time>
      </trkpt>
      <trkpt lat="42.410770" lon="1.678482">
        <ele>1658.226</ele>
        <time>2019-05-31T09:36:51Z</time>
      </trkpt>
      <trkpt lat="42.410784" lon="1.678452">
        <ele>1658.651</ele>
        <time>2019-05-31T09:36:53Z</time>
      </trkpt>
      <trkpt lat="42.410807" lon="1.678363">
        <ele>1659.245</ele>
        <time>2019-05-31T09:36:58Z</time>
      </trkpt>
      <trkpt lat="42.410818" lon="1.678329">
        <ele>1659.681</ele>
        <time>2019-05-31T09:37:00Z</time>
      </trkpt>
      <trkpt lat="42.410869" lon="1.678195">
        <ele>1660.672</ele>
        <time>2019-05-31T09:37:08Z</time>
      </trkpt>
      <trkpt lat="42.410873" lon="1.678179">
        <ele>1660.613</ele>
        <time>2019-05-31T09:37:09Z</time>
      </trkpt>
      <trkpt lat="42.410934" lon="1.678005">
        <ele>1661.414</ele>
        <time>2019-05-31T09:37:19Z</time>
      </trkpt>
      <trkpt lat="42.410939" lon="1.677989">
        <ele>1661.608</ele>
        <time>2019-05-31T09:37:20Z</time>
      </trkpt>
      <trkpt lat="42.411004" lon="1.677841">
        <ele>1662.680</ele>
        <time>2019-05-31T09:37:29Z</time>
      </trkpt>
      <trkpt lat="42.411063" lon="1.677698">
        <ele>1663.684</ele>
        <time>2019-05-31T09:37:38Z</time>
      </trkpt>
      <trkpt lat="42.411068" lon="1.677682">
        <ele>1663.860</ele>
        <time>2019-05-31T09:37:39Z</time>
      </trkpt>
      <trkpt lat="42.411111" lon="1.677546">
        <ele>1664.868</ele>
        <time>2019-05-31T09:37:47Z</time>
      </trkpt>
      <trkpt lat="42.411126" lon="1.677519">
        <ele>1665.062</ele>
        <time>2019-05-31T09:37:49Z</time>
      </trkpt>
      <trkpt lat="42.411160" lon="1.677481">
        <ele>1665.477</ele>
        <time>2019-05-31T09:37:53Z</time>
      </trkpt>
      <trkpt lat="42.411176" lon="1.677460">
        <ele>1665.691</ele>
        <time>2019-05-31T09:37:55Z</time>
      </trkpt>
      <trkpt lat="42.411185" lon="1.677452">
        <ele>1665.897</ele>
        <time>2019-05-31T09:37:56Z</time>
      </trkpt>
      <trkpt lat="42.411205" lon="1.677448">
        <ele>1666.233</ele>
        <time>2019-05-31T09:37:58Z</time>
      </trkpt>
      <trkpt lat="42.411248" lon="1.677446">
        <ele>1666.823</ele>
        <time>2019-05-31T09:38:02Z</time>
      </trkpt>
      <trkpt lat="42.411256" lon="1.677447">
        <ele>1667.015</ele>
        <time>2019-05-31T09:38:03Z</time>
      </trkpt>
      <trkpt lat="42.411268" lon="1.677459">
        <ele>1667.208</ele>
        <time>2019-05-31T09:38:04Z</time>
      </trkpt>
      <trkpt lat="42.411292" lon="1.677517">
        <ele>1667.646</ele>
        <time>2019-05-31T09:38:08Z</time>
      </trkpt>
      <trkpt lat="42.411308" lon="1.677542">
        <ele>1668.050</ele>
        <time>2019-05-31T09:38:10Z</time>
      </trkpt>
      <trkpt lat="42.411316" lon="1.677561">
        <ele>1668.236</ele>
        <time>2019-05-31T09:38:11Z</time>
      </trkpt>
      <trkpt lat="42.411310" lon="1.677610">
        <ele>1668.824</ele>
        <time>2019-05-31T09:38:14Z</time>
      </trkpt>
      <trkpt lat="42.411305" lon="1.677660">
        <ele>1669.088</ele>
        <time>2019-05-31T09:38:17Z</time>
      </trkpt>
      <trkpt lat="42.411298" lon="1.677676">
        <ele>1669.213</ele>
        <time>2019-05-31T09:38:18Z</time>
      </trkpt>
      <trkpt lat="42.411271" lon="1.677729">
        <ele>1669.427</ele>
        <time>2019-05-31T09:38:22Z</time>
      </trkpt>
      <trkpt lat="42.411233" lon="1.677852">
        <ele>1670.013</ele>
        <time>2019-05-31T09:38:30Z</time>
      </trkpt>
      <trkpt lat="42.411234" lon="1.677869">
        <ele>1670.264</ele>
        <time>2019-05-31T09:38:31Z</time>
      </trkpt>
      <trkpt lat="42.411224" lon="1.677914">
        <ele>1670.406</ele>
        <time>2019-05-31T09:38:34Z</time>
      </trkpt>
      <trkpt lat="42.411220" lon="1.677929">
        <ele>1670.616</ele>
        <time>2019-05-31T09:38:35Z</time>
      </trkpt>
      <trkpt lat="42.411212" lon="1.677944">
        <ele>1670.608</ele>
        <time>2019-05-31T09:38:36Z</time>
      </trkpt>
      <trkpt lat="42.411191" lon="1.678052">
        <ele>1671.279</ele>
        <time>2019-05-31T09:38:43Z</time>
      </trkpt>
      <trkpt lat="42.411182" lon="1.678112">
        <ele>1671.423</ele>
        <time>2019-05-31T09:38:47Z</time>
      </trkpt>
      <trkpt lat="42.411169" lon="1.678225">
        <ele>1672.229</ele>
        <time>2019-05-31T09:38:54Z</time>
      </trkpt>
      <trkpt lat="42.411153" lon="1.678272">
        <ele>1672.677</ele>
        <time>2019-05-31T09:38:57Z</time>
      </trkpt>
      <trkpt lat="42.411147" lon="1.678369">
        <ele>1673.221</ele>
        <time>2019-05-31T09:39:03Z</time>
      </trkpt>
      <trkpt lat="42.411141" lon="1.678418">
        <ele>1673.686</ele>
        <time>2019-05-31T09:39:06Z</time>
      </trkpt>
      <trkpt lat="42.411144" lon="1.678536">
        <ele>1674.270</ele>
        <time>2019-05-31T09:39:13Z</time>
      </trkpt>
      <trkpt lat="42.411151" lon="1.678638">
        <ele>1674.836</ele>
        <time>2019-05-31T09:39:19Z</time>
      </trkpt>
      <trkpt lat="42.411158" lon="1.678702">
        <ele>1675.214</ele>
        <time>2019-05-31T09:39:23Z</time>
      </trkpt>
      <trkpt lat="42.411182" lon="1.678798">
        <ele>1675.854</ele>
        <time>2019-05-31T09:39:29Z</time>
      </trkpt>
      <trkpt lat="42.411205" lon="1.678882">
        <ele>1676.209</ele>
        <time>2019-05-31T09:39:34Z</time>
      </trkpt>
      <trkpt lat="42.411242" lon="1.678995">
        <ele>1676.808</ele>
        <time>2019-05-31T09:39:41Z</time>
      </trkpt>
      <trkpt lat="42.411293" lon="1.679102">
        <ele>1678.044</ele>
        <time>2019-05-31T09:39:48Z</time>
      </trkpt>
      <trkpt lat="42.411315" lon="1.679128">
        <ele>1678.248</ele>
        <time>2019-05-31T09:39:50Z</time>
      </trkpt>
      <trkpt lat="42.411371" lon="1.679185">
        <ele>1679.094</ele>
        <time>2019-05-31T09:39:56Z</time>
      </trkpt>
      <trkpt lat="42.411393" lon="1.679206">
        <ele>1679.222</ele>
        <time>2019-05-31T09:39:58Z</time>
      </trkpt>
      <trkpt lat="42.411407" lon="1.679208">
        <ele>1679.426</ele>
        <time>2019-05-31T09:39:59Z</time>
      </trkpt>
      <trkpt lat="42.411473" lon="1.679216">
        <ele>1680.031</ele>
        <time>2019-05-31T09:40:04Z</time>
      </trkpt>
      <trkpt lat="42.411484" lon="1.679214">
        <ele>1680.275</ele>
        <time>2019-05-31T09:40:05Z</time>
      </trkpt>
      <trkpt lat="42.411583" lon="1.679220">
        <ele>1680.871</ele>
        <time>2019-05-31T09:40:12Z</time>
      </trkpt>
      <trkpt lat="42.411608" lon="1.679219">
        <ele>1681.212</ele>
        <time>2019-05-31T09:40:14Z</time>
      </trkpt>
      <trkpt lat="42.411685" lon="1.679199">
        <ele>1681.832</ele>
        <time>2019-05-31T09:40:20Z</time>
      </trkpt>
      <trkpt lat="42.411771" lon="1.679166">
        <ele>1682.405</ele>
        <time>2019-05-31T09:40:26Z</time>
      </trkpt>
      <trkpt lat="42.411808" lon="1.679145">
        <ele>1683.408</ele>
        <time>2019-05-31T09:40:29Z</time>
      </trkpt>
      <trkpt lat="42.411822" lon="1.679136">
        <ele>1681.294</ele>
        <time>2019-05-31T09:40:30Z</time>
      </trkpt>
      <trkpt lat="42.411837" lon="1.679130">
        <ele>1679.628</ele>
        <time>2019-05-31T09:40:31Z</time>
      </trkpt>
      <trkpt lat="42.411866" lon="1.679116">
        <ele>1682.854</ele>
        <time>2019-05-31T09:40:33Z</time>
      </trkpt>
      <trkpt lat="42.411882" lon="1.679110">
        <ele>1684.212</ele>
        <time>2019-05-31T09:40:34Z</time>
      </trkpt>
      <trkpt lat="42.411892" lon="1.679100">
        <ele>1682.896</ele>
        <time>2019-05-31T09:40:35Z</time>
      </trkpt>
      <trkpt lat="42.411899" lon="1.679080">
        <ele>1682.851</ele>
        <time>2019-05-31T09:40:36Z</time>
      </trkpt>
      <trkpt lat="42.411973" lon="1.679043">
        <ele>1683.225</ele>
        <time>2019-05-31T09:40:42Z</time>
      </trkpt>
      <trkpt lat="42.411988" lon="1.679037">
        <ele>1683.481</ele>
        <time>2019-05-31T09:40:43Z</time>
      </trkpt>
      <trkpt lat="42.412042" lon="1.678988">
        <ele>1684.048</ele>
        <time>2019-05-31T09:40:47Z</time>
      </trkpt>
      <trkpt lat="42.412079" lon="1.678957">
        <ele>1684.261</ele>
        <time>2019-05-31T09:40:50Z</time>
      </trkpt>
      <trkpt lat="42.412161" lon="1.678893">
        <ele>1685.017</ele>
        <time>2019-05-31T09:40:56Z</time>
      </trkpt>
      <trkpt lat="42.412198" lon="1.678850">
        <ele>1685.608</ele>
        <time>2019-05-31T09:40:59Z</time>
      </trkpt>
      <trkpt lat="42.412214" lon="1.678821">
        <ele>1685.877</ele>
        <time>2019-05-31T09:41:01Z</time>
      </trkpt>
      <trkpt lat="42.412241" lon="1.678789">
        <ele>1686.011</ele>
        <time>2019-05-31T09:41:04Z</time>
      </trkpt>
      <trkpt lat="42.412267" lon="1.678746">
        <ele>1686.497</ele>
        <time>2019-05-31T09:41:07Z</time>
      </trkpt>
      <trkpt lat="42.412278" lon="1.678738">
        <ele>1686.435</ele>
        <time>2019-05-31T09:41:08Z</time>
      </trkpt>
      <trkpt lat="42.412335" lon="1.678721">
        <ele>1687.029</ele>
        <time>2019-05-31T09:41:13Z</time>
      </trkpt>
      <trkpt lat="42.412340" lon="1.678707">
        <ele>1687.094</ele>
        <time>2019-05-31T09:41:14Z</time>
      </trkpt>
      <trkpt lat="42.412349" lon="1.678693">
        <ele>1687.278</ele>
        <time>2019-05-31T09:41:15Z</time>
      </trkpt>
      <trkpt lat="42.412391" lon="1.678631">
        <ele>1687.824</ele>
        <time>2019-05-31T09:41:20Z</time>
      </trkpt>
      <trkpt lat="42.412405" lon="1.678630">
        <ele>1687.898</ele>
        <time>2019-05-31T09:41:21Z</time>
      </trkpt>
      <trkpt lat="42.412447" lon="1.678610">
        <ele>1687.015</ele>
        <time>2019-05-31T09:41:25Z</time>
      </trkpt>
      <trkpt lat="42.412453" lon="1.678596">
        <ele>1688.626</ele>
        <time>2019-05-31T09:41:26Z</time>
      </trkpt>
      <trkpt lat="42.412467" lon="1.678569">
        <ele>1688.808</ele>
        <time>2019-05-31T09:41:28Z</time>
      </trkpt>
      <trkpt lat="42.412514" lon="1.678552">
        <ele>1689.232</ele>
        <time>2019-05-31T09:41:32Z</time>
      </trkpt>
      <trkpt lat="42.412524" lon="1.678540">
        <ele>1689.296</ele>
        <time>2019-05-31T09:41:33Z</time>
      </trkpt>
      <trkpt lat="42.412530" lon="1.678525">
        <ele>1689.222</ele>
        <time>2019-05-31T09:41:34Z</time>
      </trkpt>
      <trkpt lat="42.412556" lon="1.678489">
        <ele>1689.670</ele>
        <time>2019-05-31T09:41:37Z</time>
      </trkpt>
      <trkpt lat="42.412590" lon="1.678467">
        <ele>1689.864</ele>
        <time>2019-05-31T09:41:40Z</time>
      </trkpt>
      <trkpt lat="42.412638" lon="1.678435">
        <ele>1690.299</ele>
        <time>2019-05-31T09:41:44Z</time>
      </trkpt>
      <trkpt lat="42.412661" lon="1.678422">
        <ele>1690.613</ele>
        <time>2019-05-31T09:41:46Z</time>
      </trkpt>
      <trkpt lat="42.412669" lon="1.678407">
        <ele>1691.019</ele>
        <time>2019-05-31T09:41:47Z</time>
      </trkpt>
      <trkpt lat="42.412712" lon="1.678376">
        <ele>1691.212</ele>
        <time>2019-05-31T09:41:51Z</time>
      </trkpt>
      <trkpt lat="42.412726" lon="1.678370">
        <ele>1691.432</ele>
        <time>2019-05-31T09:41:52Z</time>
      </trkpt>
      <trkpt lat="42.412790" lon="1.678310">
        <ele>1692.205</ele>
        <time>2019-05-31T09:41:58Z</time>
      </trkpt>
      <trkpt lat="42.412803" lon="1.678300">
        <ele>1692.208</ele>
        <time>2019-05-31T09:41:59Z</time>
      </trkpt>
      <trkpt lat="42.412841" lon="1.678292">
        <ele>1692.444</ele>
        <time>2019-05-31T09:42:02Z</time>
      </trkpt>
      <trkpt lat="42.412890" lon="1.678266">
        <ele>1692.878</ele>
        <time>2019-05-31T09:42:06Z</time>
      </trkpt>
      <trkpt lat="42.412908" lon="1.678236">
        <ele>1693.234</ele>
        <time>2019-05-31T09:42:08Z</time>
      </trkpt>
      <trkpt lat="42.412973" lon="1.678221">
        <ele>1693.882</ele>
        <time>2019-05-31T09:42:13Z</time>
      </trkpt>
      <trkpt lat="42.413016" lon="1.678189">
        <ele>1694.236</ele>
        <time>2019-05-31T09:42:17Z</time>
      </trkpt>
      <trkpt lat="42.413044" lon="1.678157">
        <ele>1694.681</ele>
        <time>2019-05-31T09:42:20Z</time>
      </trkpt>
      <trkpt lat="42.413117" lon="1.678129">
        <ele>1695.475</ele>
        <time>2019-05-31T09:42:26Z</time>
      </trkpt>
      <trkpt lat="42.413128" lon="1.678117">
        <ele>1695.421</ele>
        <time>2019-05-31T09:42:27Z</time>
      </trkpt>
      <trkpt lat="42.413176" lon="1.678051">
        <ele>1696.224</ele>
        <time>2019-05-31T09:42:32Z</time>
      </trkpt>
      <trkpt lat="42.413197" lon="1.678027">
        <ele>1696.404</ele>
        <time>2019-05-31T09:42:34Z</time>
      </trkpt>
      <trkpt lat="42.413224" lon="1.678024">
        <ele>1696.614</ele>
        <time>2019-05-31T09:42:36Z</time>
      </trkpt>
      <trkpt lat="42.413273" lon="1.678011">
        <ele>1697.008</ele>
        <time>2019-05-31T09:42:40Z</time>
      </trkpt>
      <trkpt lat="42.413286" lon="1.677980">
        <ele>1697.435</ele>
        <time>2019-05-31T09:42:42Z</time>
      </trkpt>
      <trkpt lat="42.413320" lon="1.677926">
        <ele>1697.839</ele>
        <time>2019-05-31T09:42:46Z</time>
      </trkpt>
      <trkpt lat="42.413384" lon="1.677932">
        <ele>1698.485</ele>
        <time>2019-05-31T09:42:51Z</time>
      </trkpt>
      <trkpt lat="42.413393" lon="1.677920">
        <ele>1698.613</ele>
        <time>2019-05-31T09:42:52Z</time>
      </trkpt>
      <trkpt lat="42.413413" lon="1.677869">
        <ele>1699.067</ele>
        <time>2019-05-31T09:42:55Z</time>
      </trkpt>
      <trkpt lat="42.413449" lon="1.677822">
        <ele>1699.472</ele>
        <time>2019-05-31T09:42:59Z</time>
      </trkpt>
      <trkpt lat="42.413462" lon="1.677826">
        <ele>1699.466</ele>
        <time>2019-05-31T09:43:00Z</time>
      </trkpt>
      <trkpt lat="42.413490" lon="1.677834">
        <ele>1699.652</ele>
        <time>2019-05-31T09:43:02Z</time>
      </trkpt>
      <trkpt lat="42.413517" lon="1.677824">
        <ele>1699.663</ele>
        <time>2019-05-31T09:43:04Z</time>
      </trkpt>
      <trkpt lat="42.413529" lon="1.677784">
        <ele>1700.244</ele>
        <time>2019-05-31T09:43:06Z</time>
      </trkpt>
      <trkpt lat="42.413542" lon="1.677724">
        <ele>1700.618</ele>
        <time>2019-05-31T09:43:09Z</time>
      </trkpt>
      <trkpt lat="42.413555" lon="1.677717">
        <ele>1700.608</ele>
        <time>2019-05-31T09:43:10Z</time>
      </trkpt>
      <trkpt lat="42.413580" lon="1.677718">
        <ele>1700.889</ele>
        <time>2019-05-31T09:43:12Z</time>
      </trkpt>
      <trkpt lat="42.413636" lon="1.677718">
        <ele>1701.213</ele>
        <time>2019-05-31T09:43:16Z</time>
      </trkpt>
      <trkpt lat="42.413641" lon="1.677700">
        <ele>1701.299</ele>
        <time>2019-05-31T09:43:17Z</time>
      </trkpt>
      <trkpt lat="42.413659" lon="1.677640">
        <ele>1701.847</ele>
        <time>2019-05-31T09:43:20Z</time>
      </trkpt>
      <trkpt lat="42.413683" lon="1.677600">
        <ele>1702.061</ele>
        <time>2019-05-31T09:43:23Z</time>
      </trkpt>
      <trkpt lat="42.413752" lon="1.677595">
        <ele>1702.626</ele>
        <time>2019-05-31T09:43:28Z</time>
      </trkpt>
      <trkpt lat="42.413770" lon="1.677565">
        <ele>1702.890</ele>
        <time>2019-05-31T09:43:30Z</time>
      </trkpt>
      <trkpt lat="42.413813" lon="1.677548">
        <ele>1703.266</ele>
        <time>2019-05-31T09:43:33Z</time>
      </trkpt>
      <trkpt lat="42.413881" lon="1.677485">
        <ele>1704.041</ele>
        <time>2019-05-31T09:43:39Z</time>
      </trkpt>
      <trkpt lat="42.413916" lon="1.677451">
        <ele>1704.481</ele>
        <time>2019-05-31T09:43:42Z</time>
      </trkpt>
      <trkpt lat="42.413959" lon="1.677368">
        <ele>1704.809</ele>
        <time>2019-05-31T09:43:47Z</time>
      </trkpt>
      <trkpt lat="42.413973" lon="1.677363">
        <ele>1705.008</ele>
        <time>2019-05-31T09:43:48Z</time>
      </trkpt>
      <trkpt lat="42.414054" lon="1.677299">
        <ele>1706.047</ele>
        <time>2019-05-31T09:43:55Z</time>
      </trkpt>
      <trkpt lat="42.414060" lon="1.677280">
        <ele>1706.251</ele>
        <time>2019-05-31T09:43:56Z</time>
      </trkpt>
      <trkpt lat="42.414065" lon="1.677261">
        <ele>1706.277</ele>
        <time>2019-05-31T09:43:57Z</time>
      </trkpt>
      <trkpt lat="42.414127" lon="1.677222">
        <ele>1706.425</ele>
        <time>2019-05-31T09:44:02Z</time>
      </trkpt>
      <trkpt lat="42.414140" lon="1.677229">
        <ele>1706.649</ele>
        <time>2019-05-31T09:44:03Z</time>
      </trkpt>
      <trkpt lat="42.414182" lon="1.677187">
        <ele>1707.234</ele>
        <time>2019-05-31T09:44:07Z</time>
      </trkpt>
      <trkpt lat="42.414188" lon="1.677167">
        <ele>1707.428</ele>
        <time>2019-05-31T09:44:08Z</time>
      </trkpt>
      <trkpt lat="42.414201" lon="1.677133">
        <ele>1707.814</ele>
        <time>2019-05-31T09:44:10Z</time>
      </trkpt>
      <trkpt lat="42.414239" lon="1.677119">
        <ele>1707.864</ele>
        <time>2019-05-31T09:44:13Z</time>
      </trkpt>
      <trkpt lat="42.414266" lon="1.677099">
        <ele>1708.006</ele>
        <time>2019-05-31T09:44:15Z</time>
      </trkpt>
      <trkpt lat="42.414277" lon="1.677087">
        <ele>1708.216</ele>
        <time>2019-05-31T09:44:16Z</time>
      </trkpt>
      <trkpt lat="42.414323" lon="1.677046">
        <ele>1708.408</ele>
        <time>2019-05-31T09:44:20Z</time>
      </trkpt>
      <trkpt lat="42.414423" lon="1.676961">
        <ele>1709.229</ele>
        <time>2019-05-31T09:44:28Z</time>
      </trkpt>
      <trkpt lat="42.414489" lon="1.676880">
        <ele>1710.073</ele>
        <time>2019-05-31T09:44:34Z</time>
      </trkpt>
      <trkpt lat="42.414531" lon="1.676843">
        <ele>1710.469</ele>
        <time>2019-05-31T09:44:38Z</time>
      </trkpt>
      <trkpt lat="42.414539" lon="1.676829">
        <ele>1712.037</ele>
        <time>2019-05-31T09:44:39Z</time>
      </trkpt>
      <trkpt lat="42.414545" lon="1.676814">
        <ele>1713.081</ele>
        <time>2019-05-31T09:44:40Z</time>
      </trkpt>
      <trkpt lat="42.414574" lon="1.676776">
        <ele>1710.816</ele>
        <time>2019-05-31T09:44:43Z</time>
      </trkpt>
      <trkpt lat="42.414642" lon="1.676698">
        <ele>1711.240</ele>
        <time>2019-05-31T09:44:49Z</time>
      </trkpt>
      <trkpt lat="42.414679" lon="1.676640">
        <ele>1711.266</ele>
        <time>2019-05-31T09:44:53Z</time>
      </trkpt>
      <trkpt lat="42.414711" lon="1.676603">
        <ele>1711.663</ele>
        <time>2019-05-31T09:44:56Z</time>
      </trkpt>
      <trkpt lat="42.414752" lon="1.676549">
        <ele>1712.044</ele>
        <time>2019-05-31T09:45:00Z</time>
      </trkpt>
      <trkpt lat="42.414803" lon="1.676481">
        <ele>1712.018</ele>
        <time>2019-05-31T09:45:05Z</time>
      </trkpt>
      <trkpt lat="42.414871" lon="1.676409">
        <ele>1712.808</ele>
        <time>2019-05-31T09:45:12Z</time>
      </trkpt>
      <trkpt lat="42.414919" lon="1.676326">
        <ele>1713.049</ele>
        <time>2019-05-31T09:45:16Z</time>
      </trkpt>
      <trkpt lat="42.414943" lon="1.676294">
        <ele>1713.293</ele>
        <time>2019-05-31T09:45:18Z</time>
      </trkpt>
      <trkpt lat="42.414994" lon="1.676185">
        <ele>1713.689</ele>
        <time>2019-05-31T09:45:24Z</time>
      </trkpt>
      <trkpt lat="42.415068" lon="1.676078">
        <ele>1713.837</ele>
        <time>2019-05-31T09:45:31Z</time>
      </trkpt>
      <trkpt lat="42.415103" lon="1.676015">
        <ele>1714.251</ele>
        <time>2019-05-31T09:45:35Z</time>
      </trkpt>
      <trkpt lat="42.415141" lon="1.675943">
        <ele>1714.026</ele>
        <time>2019-05-31T09:45:39Z</time>
      </trkpt>
      <trkpt lat="42.415223" lon="1.675805">
        <ele>1714.890</ele>
        <time>2019-05-31T09:45:47Z</time>
      </trkpt>
      <trkpt lat="42.415301" lon="1.675690">
        <ele>1715.066</ele>
        <time>2019-05-31T09:45:54Z</time>
      </trkpt>
      <trkpt lat="42.415330" lon="1.675640">
        <ele>1715.276</ele>
        <time>2019-05-31T09:45:58Z</time>
      </trkpt>
      <trkpt lat="42.415349" lon="1.675597">
        <ele>1715.290</ele>
        <time>2019-05-31T09:46:00Z</time>
      </trkpt>
      <trkpt lat="42.415417" lon="1.675492">
        <ele>1715.419</ele>
        <time>2019-05-31T09:46:05Z</time>
      </trkpt>
      <trkpt lat="42.415496" lon="1.675326">
        <ele>1715.608</ele>
        <time>2019-05-31T09:46:11Z</time>
      </trkpt>
      <trkpt lat="42.415633" lon="1.675147">
        <ele>1715.840</ele>
        <time>2019-05-31T09:46:17Z</time>
      </trkpt>
      <trkpt lat="42.415695" lon="1.675077">
        <ele>1716.294</ele>
        <time>2019-05-31T09:46:20Z</time>
      </trkpt>
      <trkpt lat="42.415752" lon="1.675019">
        <ele>1716.430</ele>
        <time>2019-05-31T09:46:23Z</time>
      </trkpt>
      <trkpt lat="42.415900" lon="1.674834">
        <ele>1716.698</ele>
        <time>2019-05-31T09:46:31Z</time>
      </trkpt>
      <trkpt lat="42.416033" lon="1.674623">
        <ele>1717.282</ele>
        <time>2019-05-31T09:46:40Z</time>
      </trkpt>
      <trkpt lat="42.416047" lon="1.674598">
        <ele>1717.237</ele>
        <time>2019-05-31T09:46:41Z</time>
      </trkpt>
      <trkpt lat="42.416144" lon="1.674455">
        <ele>1718.011</ele>
        <time>2019-05-31T09:46:48Z</time>
      </trkpt>
      <trkpt lat="42.416192" lon="1.674399">
        <ele>1718.037</ele>
        <time>2019-05-31T09:46:51Z</time>
      </trkpt>
      <trkpt lat="42.416216" lon="1.674363">
        <ele>1718.248</ele>
        <time>2019-05-31T09:46:53Z</time>
      </trkpt>
      <trkpt lat="42.416236" lon="1.674320">
        <ele>1717.661</ele>
        <time>2019-05-31T09:46:55Z</time>
      </trkpt>
      <trkpt lat="42.416269" lon="1.674266">
        <ele>1719.817</ele>
        <time>2019-05-31T09:46:58Z</time>
      </trkpt>
      <trkpt lat="42.416343" lon="1.674169">
        <ele>1719.408</ele>
        <time>2019-05-31T09:47:04Z</time>
      </trkpt>
      <trkpt lat="42.416447" lon="1.674025">
        <ele>1720.487</ele>
        <time>2019-05-31T09:47:14Z</time>
      </trkpt>
      <trkpt lat="42.416476" lon="1.673970">
        <ele>1720.851</ele>
        <time>2019-05-31T09:47:17Z</time>
      </trkpt>
      <trkpt lat="42.416554" lon="1.673860">
        <ele>1721.677</ele>
        <time>2019-05-31T09:47:25Z</time>
      </trkpt>
      <trkpt lat="42.416566" lon="1.673846">
        <ele>1721.855</ele>
        <time>2019-05-31T09:47:26Z</time>
      </trkpt>
      <trkpt lat="42.416607" lon="1.673720">
        <ele>1722.859</ele>
        <time>2019-05-31T09:47:34Z</time>
      </trkpt>
      <trkpt lat="42.416614" lon="1.673706">
        <ele>1723.044</ele>
        <time>2019-05-31T09:47:35Z</time>
      </trkpt>
      <trkpt lat="42.416645" lon="1.673642">
        <ele>1723.618</ele>
        <time>2019-05-31T09:47:39Z</time>
      </trkpt>
      <trkpt lat="42.416663" lon="1.673619">
        <ele>1723.814</ele>
        <time>2019-05-31T09:47:41Z</time>
      </trkpt>
      <trkpt lat="42.416666" lon="1.673603">
        <ele>1724.081</ele>
        <time>2019-05-31T09:47:42Z</time>
      </trkpt>
      <trkpt lat="42.416700" lon="1.673506">
        <ele>1725.061</ele>
        <time>2019-05-31T09:47:48Z</time>
      </trkpt>
      <trkpt lat="42.416709" lon="1.673489">
        <ele>1725.017</ele>
        <time>2019-05-31T09:47:49Z</time>
      </trkpt>
      <trkpt lat="42.416778" lon="1.673386">
        <ele>1726.208</ele>
        <time>2019-05-31T09:47:57Z</time>
      </trkpt>
      <trkpt lat="42.416847" lon="1.673281">
        <ele>1726.811</ele>
        <time>2019-05-31T09:48:05Z</time>
      </trkpt>
      <trkpt lat="42.416870" lon="1.673238">
        <ele>1727.295</ele>
        <time>2019-05-31T09:48:08Z</time>
      </trkpt>
      <trkpt lat="42.416936" lon="1.673169">
        <ele>1728.071</ele>
        <time>2019-05-31T09:48:14Z</time>
      </trkpt>
      <trkpt lat="42.416970" lon="1.673140">
        <ele>1728.269</ele>
        <time>2019-05-31T09:48:17Z</time>
      </trkpt>
      <trkpt lat="42.417040" lon="1.673057">
        <ele>1729.053</ele>
        <time>2019-05-31T09:48:24Z</time>
      </trkpt>
      <trkpt lat="42.417052" lon="1.673046">
        <ele>1729.228</ele>
        <time>2019-05-31T09:48:25Z</time>
      </trkpt>
      <trkpt lat="42.417146" lon="1.672973">
        <ele>1730.082</ele>
        <time>2019-05-31T09:48:33Z</time>
      </trkpt>
      <trkpt lat="42.417184" lon="1.672946">
        <ele>1730.648</ele>
        <time>2019-05-31T09:48:36Z</time>
      </trkpt>
      <trkpt lat="42.417241" lon="1.672903">
        <ele>1731.235</ele>
        <time>2019-05-31T09:48:41Z</time>
      </trkpt>
      <trkpt lat="42.417254" lon="1.672898">
        <ele>1731.486</ele>
        <time>2019-05-31T09:48:42Z</time>
      </trkpt>
      <trkpt lat="42.417294" lon="1.672872">
        <ele>1731.614</ele>
        <time>2019-05-31T09:48:45Z</time>
      </trkpt>
      <trkpt lat="42.417350" lon="1.672843">
        <ele>1730.408</ele>
        <time>2019-05-31T09:48:49Z</time>
      </trkpt>
      <trkpt lat="42.417362" lon="1.672834">
        <ele>1731.646</ele>
        <time>2019-05-31T09:48:50Z</time>
      </trkpt>
      <trkpt lat="42.417373" lon="1.672819">
        <ele>1732.250</ele>
        <time>2019-05-31T09:48:51Z</time>
      </trkpt>
      <trkpt lat="42.417381" lon="1.672805">
        <ele>1733.076</ele>
        <time>2019-05-31T09:48:52Z</time>
      </trkpt>
      <trkpt lat="42.417455" lon="1.672758">
        <ele>1733.224</ele>
        <time>2019-05-31T09:48:58Z</time>
      </trkpt>
      <trkpt lat="42.417509" lon="1.672713">
        <ele>1734.068</ele>
        <time>2019-05-31T09:49:03Z</time>
      </trkpt>
      <trkpt lat="42.417552" lon="1.672678">
        <ele>1734.493</ele>
        <time>2019-05-31T09:49:07Z</time>
      </trkpt>
      <trkpt lat="42.417631" lon="1.672632">
        <ele>1735.047</ele>
        <time>2019-05-31T09:49:13Z</time>
      </trkpt>
      <trkpt lat="42.417646" lon="1.672631">
        <ele>1735.213</ele>
        <time>2019-05-31T09:49:14Z</time>
      </trkpt>
      <trkpt lat="42.417742" lon="1.672610">
        <ele>1736.281</ele>
        <time>2019-05-31T09:49:22Z</time>
      </trkpt>
      <trkpt lat="42.417765" lon="1.672599">
        <ele>1736.661</ele>
        <time>2019-05-31T09:49:24Z</time>
      </trkpt>
      <trkpt lat="42.417806" lon="1.672589">
        <ele>1737.217</ele>
        <time>2019-05-31T09:49:28Z</time>
      </trkpt>
      <trkpt lat="42.417819" lon="1.672593">
        <ele>1737.208</ele>
        <time>2019-05-31T09:49:29Z</time>
      </trkpt>
      <trkpt lat="42.417858" lon="1.672594">
        <ele>1737.641</ele>
        <time>2019-05-31T09:49:32Z</time>
      </trkpt>
      <trkpt lat="42.417880" lon="1.672576">
        <ele>1737.875</ele>
        <time>2019-05-31T09:49:34Z</time>
      </trkpt>
      <trkpt lat="42.417913" lon="1.672569">
        <ele>1738.491</ele>
        <time>2019-05-31T09:49:37Z</time>
      </trkpt>
      <trkpt lat="42.417947" lon="1.672582">
        <ele>1738.839</ele>
        <time>2019-05-31T09:49:40Z</time>
      </trkpt>
      <trkpt lat="42.418011" lon="1.672553">
        <ele>1739.443</ele>
        <time>2019-05-31T09:49:46Z</time>
      </trkpt>
      <trkpt lat="42.418023" lon="1.672551">
        <ele>1739.698</ele>
        <time>2019-05-31T09:49:47Z</time>
      </trkpt>
      <trkpt lat="42.418072" lon="1.672564">
        <ele>1740.442</ele>
        <time>2019-05-31T09:49:52Z</time>
      </trkpt>
      <trkpt lat="42.418110" lon="1.672545">
        <ele>1740.628</ele>
        <time>2019-05-31T09:49:55Z</time>
      </trkpt>
      <trkpt lat="42.418153" lon="1.672551">
        <ele>1741.217</ele>
        <time>2019-05-31T09:49:59Z</time>
      </trkpt>
      <trkpt lat="42.418172" lon="1.672537">
        <ele>1741.687</ele>
        <time>2019-05-31T09:50:01Z</time>
      </trkpt>
      <trkpt lat="42.418255" lon="1.672545">
        <ele>1742.215</ele>
        <time>2019-05-31T09:50:08Z</time>
      </trkpt>
      <trkpt lat="42.418292" lon="1.672545">
        <ele>1742.608</ele>
        <time>2019-05-31T09:50:11Z</time>
      </trkpt>
      <trkpt lat="42.418314" lon="1.672543">
        <ele>1743.284</ele>
        <time>2019-05-31T09:50:13Z</time>
      </trkpt>
      <trkpt lat="42.418324" lon="1.672538">
        <ele>1743.238</ele>
        <time>2019-05-31T09:50:14Z</time>
      </trkpt>
      <trkpt lat="42.418374" lon="1.672526">
        <ele>1743.644</ele>
        <time>2019-05-31T09:50:19Z</time>
      </trkpt>
      <trkpt lat="42.418383" lon="1.672525">
        <ele>1743.812</ele>
        <time>2019-05-31T09:50:20Z</time>
      </trkpt>
      <trkpt lat="42.418433" lon="1.672514">
        <ele>1743.456</ele>
        <time>2019-05-31T09:50:25Z</time>
      </trkpt>
      <trkpt lat="42.418442" lon="1.672504">
        <ele>1745.091</ele>
        <time>2019-05-31T09:50:26Z</time>
      </trkpt>
      <trkpt lat="42.418495" lon="1.672501">
        <ele>1745.025</ele>
        <time>2019-05-31T09:50:31Z</time>
      </trkpt>
      <trkpt lat="42.418506" lon="1.672505">
        <ele>1745.211</ele>
        <time>2019-05-31T09:50:32Z</time>
      </trkpt>
      <trkpt lat="42.418528" lon="1.672508">
        <ele>1745.455</ele>
        <time>2019-05-31T09:50:34Z</time>
      </trkpt>
      <trkpt lat="42.418567" lon="1.672465">
        <ele>1745.807</ele>
        <time>2019-05-31T09:50:39Z</time>
      </trkpt>
      <trkpt lat="42.418597" lon="1.672448">
        <ele>1746.217</ele>
        <time>2019-05-31T09:50:42Z</time>
      </trkpt>
      <trkpt lat="42.418643" lon="1.672464">
        <ele>1746.608</ele>
        <time>2019-05-31T09:50:46Z</time>
      </trkpt>
      <trkpt lat="42.419067" lon="1.672177">
        <ele>1751.098</ele>
        <time>2019-05-31T09:51:38Z</time>
      </trkpt>
      <trkpt lat="42.419078" lon="1.672173">
        <ele>1751.232</ele>
        <time>2019-05-31T09:51:39Z</time>
      </trkpt>
      <trkpt lat="42.419162" lon="1.672110">
        <ele>1752.218</ele>
        <time>2019-05-31T09:51:48Z</time>
      </trkpt>
      <trkpt lat="42.419178" lon="1.672085">
        <ele>1752.676</ele>
        <time>2019-05-31T09:51:50Z</time>
      </trkpt>
      <trkpt lat="42.419246" lon="1.672023">
        <ele>1753.410</ele>
        <time>2019-05-31T09:51:57Z</time>
      </trkpt>
      <trkpt lat="42.419269" lon="1.672015">
        <ele>1753.625</ele>
        <time>2019-05-31T09:51:59Z</time>
      </trkpt>
      <trkpt lat="42.419345" lon="1.671925">
        <ele>1754.419</ele>
        <time>2019-05-31T09:52:07Z</time>
      </trkpt>
      <trkpt lat="42.419355" lon="1.671920">
        <ele>1753.455</ele>
        <time>2019-05-31T09:52:08Z</time>
      </trkpt>
      <trkpt lat="42.419386" lon="1.671909">
        <ele>1756.224</ele>
        <time>2019-05-31T09:52:11Z</time>
      </trkpt>
      <trkpt lat="42.419397" lon="1.671902">
        <ele>1756.604</ele>
        <time>2019-05-31T09:52:12Z</time>
      </trkpt>
      <trkpt lat="42.419423" lon="1.671870">
        <ele>1755.414</ele>
        <time>2019-05-31T09:52:15Z</time>
      </trkpt>
      <trkpt lat="42.419516" lon="1.671852">
        <ele>1756.408</ele>
        <time>2019-05-31T09:52:23Z</time>
      </trkpt>
      <trkpt lat="42.419580" lon="1.671807">
        <ele>1757.095</ele>
        <time>2019-05-31T09:52:29Z</time>
      </trkpt>
      <trkpt lat="42.419628" lon="1.671805">
        <ele>1757.299</ele>
        <time>2019-05-31T09:52:33Z</time>
      </trkpt>
      <trkpt lat="42.419669" lon="1.671782">
        <ele>1758.015</ele>
        <time>2019-05-31T09:52:37Z</time>
      </trkpt>
      <trkpt lat="42.419722" lon="1.671760">
        <ele>1758.413</ele>
        <time>2019-05-31T09:52:42Z</time>
      </trkpt>
      <trkpt lat="42.419745" lon="1.671767">
        <ele>1758.857</ele>
        <time>2019-05-31T09:52:44Z</time>
      </trkpt>
      <trkpt lat="42.419768" lon="1.671770">
        <ele>1759.072</ele>
        <time>2019-05-31T09:52:46Z</time>
      </trkpt>
      <trkpt lat="42.419795" lon="1.671745">
        <ele>1759.456</ele>
        <time>2019-05-31T09:52:49Z</time>
      </trkpt>
      <trkpt lat="42.419806" lon="1.671736">
        <ele>1759.612</ele>
        <time>2019-05-31T09:52:50Z</time>
      </trkpt>
      <trkpt lat="42.419903" lon="1.671711">
        <ele>1760.479</ele>
        <time>2019-05-31T09:52:58Z</time>
      </trkpt>
      <trkpt lat="42.419912" lon="1.671706">
        <ele>1760.405</ele>
        <time>2019-05-31T09:52:59Z</time>
      </trkpt>
      <trkpt lat="42.419922" lon="1.671698">
        <ele>1760.825</ele>
        <time>2019-05-31T09:53:00Z</time>
      </trkpt>
      <trkpt lat="42.419951" lon="1.671664">
        <ele>1761.208</ele>
        <time>2019-05-31T09:53:03Z</time>
      </trkpt>
      <trkpt lat="42.420005" lon="1.671667">
        <ele>1761.690</ele>
        <time>2019-05-31T09:53:08Z</time>
      </trkpt>
      <trkpt lat="42.420017" lon="1.671663">
        <ele>1761.824</ele>
        <time>2019-05-31T09:53:09Z</time>
      </trkpt>
      <trkpt lat="42.420045" lon="1.671645">
        <ele>1762.290</ele>
        <time>2019-05-31T09:53:12Z</time>
      </trkpt>
      <trkpt lat="42.420072" lon="1.671619">
        <ele>1762.638</ele>
        <time>2019-05-31T09:53:15Z</time>
      </trkpt>
      <trkpt lat="42.420093" lon="1.671613">
        <ele>1762.862</ele>
        <time>2019-05-31T09:53:17Z</time>
      </trkpt>
      <trkpt lat="42.420105" lon="1.671620">
        <ele>1762.817</ele>
        <time>2019-05-31T09:53:18Z</time>
      </trkpt>
      <trkpt lat="42.420157" lon="1.671633">
        <ele>1763.441</ele>
        <time>2019-05-31T09:53:22Z</time>
      </trkpt>
      <trkpt lat="42.420171" lon="1.671627">
        <ele>1763.487</ele>
        <time>2019-05-31T09:53:23Z</time>
      </trkpt>
      <trkpt lat="42.420203" lon="1.671598">
        <ele>1764.026</ele>
        <time>2019-05-31T09:53:26Z</time>
      </trkpt>
      <trkpt lat="42.420211" lon="1.671587">
        <ele>1764.047</ele>
        <time>2019-05-31T09:53:27Z</time>
      </trkpt>
      <trkpt lat="42.420240" lon="1.671558">
        <ele>1764.411</ele>
        <time>2019-05-31T09:53:30Z</time>
      </trkpt>
      <trkpt lat="42.420273" lon="1.671560">
        <ele>1764.608</ele>
        <time>2019-05-31T09:53:33Z</time>
      </trkpt>
      <trkpt lat="42.420299" lon="1.671561">
        <ele>1765.015</ele>
        <time>2019-05-31T09:53:35Z</time>
      </trkpt>
      <trkpt lat="42.420327" lon="1.671541">
        <ele>1765.469</ele>
        <time>2019-05-31T09:53:38Z</time>
      </trkpt>
      <trkpt lat="42.420337" lon="1.671531">
        <ele>1765.645</ele>
        <time>2019-05-31T09:53:39Z</time>
      </trkpt>
      <trkpt lat="42.420348" lon="1.671521">
        <ele>1765.693</ele>
        <time>2019-05-31T09:53:40Z</time>
      </trkpt>
      <trkpt lat="42.420392" lon="1.671488">
        <ele>1766.257</ele>
        <time>2019-05-31T09:53:44Z</time>
      </trkpt>
      <trkpt lat="42.420428" lon="1.671491">
        <ele>1766.432</ele>
        <time>2019-05-31T09:53:47Z</time>
      </trkpt>
      <trkpt lat="42.420487" lon="1.671465">
        <ele>1767.246</ele>
        <time>2019-05-31T09:53:52Z</time>
      </trkpt>
      <trkpt lat="42.420503" lon="1.671438">
        <ele>1767.462</ele>
        <time>2019-05-31T09:53:54Z</time>
      </trkpt>
      <trkpt lat="42.420584" lon="1.671394">
        <ele>1768.258</ele>
        <time>2019-05-31T09:54:02Z</time>
      </trkpt>
      <trkpt lat="42.420597" lon="1.671394">
        <ele>1768.452</ele>
        <time>2019-05-31T09:54:03Z</time>
      </trkpt>
      <trkpt lat="42.422369" lon="1.670173">
        <ele>1794.817</ele>
        <time>2019-05-31T10:03:34Z</time>
      </trkpt>
      <trkpt lat="42.422335" lon="1.670148">
        <ele>1795.008</ele>
        <time>2019-05-31T10:03:37Z</time>
      </trkpt>
      <trkpt lat="42.422281" lon="1.670106">
        <ele>1795.638</ele>
        <time>2019-05-31T10:03:42Z</time>
      </trkpt>
      <trkpt lat="42.422243" lon="1.670087">
        <ele>1795.682</ele>
        <time>2019-05-31T10:03:45Z</time>
      </trkpt>
      <trkpt lat="42.422219" lon="1.670074">
        <ele>1796.028</ele>
        <time>2019-05-31T10:03:47Z</time>
      </trkpt>
      <trkpt lat="42.422165" lon="1.670048">
        <ele>1796.616</ele>
        <time>2019-05-31T10:03:52Z</time>
      </trkpt>
      <trkpt lat="42.422112" lon="1.670015">
        <ele>1797.030</ele>
        <time>2019-05-31T10:03:57Z</time>
      </trkpt>
      <trkpt lat="42.422088" lon="1.670006">
        <ele>1797.255</ele>
        <time>2019-05-31T10:03:59Z</time>
      </trkpt>
      <trkpt lat="42.421995" lon="1.669967">
        <ele>1798.059</ele>
        <time>2019-05-31T10:04:07Z</time>
      </trkpt>
      <trkpt lat="42.421961" lon="1.669946">
        <ele>1798.455</ele>
        <time>2019-05-31T10:04:10Z</time>
      </trkpt>
      <trkpt lat="42.421923" lon="1.669944">
        <ele>1798.883</ele>
        <time>2019-05-31T10:04:13Z</time>
      </trkpt>
      <trkpt lat="42.421910" lon="1.669935">
        <ele>1798.825</ele>
        <time>2019-05-31T10:04:14Z</time>
      </trkpt>
      <trkpt lat="42.421836" lon="1.669904">
        <ele>1799.017</ele>
        <time>2019-05-31T10:04:20Z</time>
      </trkpt>
      <trkpt lat="42.421811" lon="1.669897">
        <ele>1799.408</ele>
        <time>2019-05-31T10:04:22Z</time>
      </trkpt>
      <trkpt lat="42.421776" lon="1.669875">
        <ele>1799.641</ele>
        <time>2019-05-31T10:04:25Z</time>
      </trkpt>
      <trkpt lat="42.421725" lon="1.669860">
        <ele>1799.845</ele>
        <time>2019-05-31T10:04:29Z</time>
      </trkpt>
      <trkpt lat="42.421686" lon="1.669855">
        <ele>1800.071</ele>
        <time>2019-05-31T10:04:32Z</time>
      </trkpt>
      <trkpt lat="42.421652" lon="1.669845">
        <ele>1800.219</ele>
        <time>2019-05-31T10:04:35Z</time>
      </trkpt>
      <trkpt lat="42.421528" lon="1.669825">
        <ele>1800.863</ele>
        <time>2019-05-31T10:04:44Z</time>
      </trkpt>
      <trkpt lat="42.421445" lon="1.669817">
        <ele>1800.868</ele>
        <time>2019-05-31T10:04:51Z</time>
      </trkpt>
      <trkpt lat="42.421419" lon="1.669817">
        <ele>1801.262</ele>
        <time>2019-05-31T10:04:53Z</time>
      </trkpt>
      <trkpt lat="42.421349" lon="1.669810">
        <ele>1801.898</ele>
        <time>2019-05-31T10:04:59Z</time>
      </trkpt>
      <trkpt lat="42.421272" lon="1.669817">
        <ele>1802.284</ele>
        <time>2019-05-31T10:05:05Z</time>
      </trkpt>
      <trkpt lat="42.421258" lon="1.669812">
        <ele>1802.207</ele>
        <time>2019-05-31T10:05:06Z</time>
      </trkpt>
      <trkpt lat="42.421194" lon="1.669809">
        <ele>1802.217</ele>
        <time>2019-05-31T10:05:11Z</time>
      </trkpt>
      <trkpt lat="42.421113" lon="1.669802">
        <ele>1802.608</ele>
        <time>2019-05-31T10:05:18Z</time>
      </trkpt>
      <trkpt lat="42.421027" lon="1.669802">
        <ele>1803.291</ele>
        <time>2019-05-31T10:05:25Z</time>
      </trkpt>
      <trkpt lat="42.420973" lon="1.669809">
        <ele>1803.245</ele>
        <time>2019-05-31T10:05:29Z</time>
      </trkpt>
      <trkpt lat="42.420949" lon="1.669806">
        <ele>1803.611</ele>
        <time>2019-05-31T10:05:31Z</time>
      </trkpt>
      <trkpt lat="42.420898" lon="1.669818">
        <ele>1803.639</ele>
        <time>2019-05-31T10:05:35Z</time>
      </trkpt>
      <trkpt lat="42.420859" lon="1.669822">
        <ele>1803.423</ele>
        <time>2019-05-31T10:05:38Z</time>
      </trkpt>
      <trkpt lat="42.420783" lon="1.669824">
        <ele>1804.048</ele>
        <time>2019-05-31T10:05:44Z</time>
      </trkpt>
      <trkpt lat="42.420688" lon="1.669840">
        <ele>1804.452</ele>
        <time>2019-05-31T10:05:51Z</time>
      </trkpt>
      <trkpt lat="42.420588" lon="1.669856">
        <ele>1804.658</ele>
        <time>2019-05-31T10:05:59Z</time>
      </trkpt>
      <trkpt lat="42.420503" lon="1.669874">
        <ele>1805.066</ele>
        <time>2019-05-31T10:06:05Z</time>
      </trkpt>
      <trkpt lat="42.420464" lon="1.669881">
        <ele>1805.429</ele>
        <time>2019-05-31T10:06:08Z</time>
      </trkpt>
      <trkpt lat="42.420437" lon="1.669885">
        <ele>1805.621</ele>
        <time>2019-05-31T10:06:10Z</time>
      </trkpt>
      <trkpt lat="42.420426" lon="1.669885">
        <ele>1805.608</ele>
        <time>2019-05-31T10:06:11Z</time>
      </trkpt>
      <trkpt lat="42.420411" lon="1.669893">
        <ele>1805.659</ele>
        <time>2019-05-31T10:06:12Z</time>
      </trkpt>
      <trkpt lat="42.420345" lon="1.669910">
        <ele>1806.223</ele>
        <time>2019-05-31T10:06:17Z</time>
      </trkpt>
      <trkpt lat="42.420302" lon="1.669905">
        <ele>1806.499</ele>
        <time>2019-05-31T10:06:21Z</time>
      </trkpt>
      <trkpt lat="42.420231" lon="1.669898">
        <ele>1806.817</ele>
        <time>2019-05-31T10:06:26Z</time>
      </trkpt>
      <trkpt lat="42.420164" lon="1.669827">
        <ele>1807.471</ele>
        <time>2019-05-31T10:06:33Z</time>
      </trkpt>
      <trkpt lat="42.420116" lon="1.669707">
        <ele>1808.456</ele>
        <time>2019-05-31T10:06:41Z</time>
      </trkpt>
      <trkpt lat="42.420102" lon="1.669677">
        <ele>1808.860</ele>
        <time>2019-05-31T10:06:43Z</time>
      </trkpt>
      <trkpt lat="42.420085" lon="1.669559">
        <ele>1809.476</ele>
        <time>2019-05-31T10:06:50Z</time>
      </trkpt>
      <trkpt lat="42.420088" lon="1.669508">
        <ele>1809.822</ele>
        <time>2019-05-31T10:06:53Z</time>
      </trkpt>
      <trkpt lat="42.420103" lon="1.669462">
        <ele>1810.462</ele>
        <time>2019-05-31T10:06:56Z</time>
      </trkpt>
      <trkpt lat="42.420108" lon="1.669446">
        <ele>1810.608</ele>
        <time>2019-05-31T10:06:57Z</time>
      </trkpt>
      <trkpt lat="42.420115" lon="1.669417">
        <ele>1811.208</ele>
        <time>2019-05-31T10:06:59Z</time>
      </trkpt>
      <trkpt lat="42.420148" lon="1.669356">
        <ele>1811.855</ele>
        <time>2019-05-31T10:07:04Z</time>
      </trkpt>
      <trkpt lat="42.420181" lon="1.669329">
        <ele>1812.249</ele>
        <time>2019-05-31T10:07:07Z</time>
      </trkpt>
      <trkpt lat="42.420205" lon="1.669305">
        <ele>1812.665</ele>
        <time>2019-05-31T10:07:10Z</time>
      </trkpt>
      <trkpt lat="42.420239" lon="1.669273">
        <ele>1813.463</ele>
        <time>2019-05-31T10:07:14Z</time>
      </trkpt>
      <trkpt lat="42.420282" lon="1.669254">
        <ele>1813.687</ele>
        <time>2019-05-31T10:07:18Z</time>
      </trkpt>
      <trkpt lat="42.420340" lon="1.669234">
        <ele>1814.462</ele>
        <time>2019-05-31T10:07:24Z</time>
      </trkpt>
      <trkpt lat="42.420348" lon="1.669225">
        <ele>1814.696</ele>
        <time>2019-05-31T10:07:25Z</time>
      </trkpt>
      <trkpt lat="42.420354" lon="1.669214">
        <ele>1814.852</ele>
        <time>2019-05-31T10:07:26Z</time>
      </trkpt>
      <trkpt lat="42.420364" lon="1.669211">
        <ele>1814.854</ele>
        <time>2019-05-31T10:07:27Z</time>
      </trkpt>
      <trkpt lat="42.420410" lon="1.669192">
        <ele>1815.256</ele>
        <time>2019-05-31T10:07:32Z</time>
      </trkpt>
      <trkpt lat="42.420438" lon="1.669190">
        <ele>1815.611</ele>
        <time>2019-05-31T10:07:35Z</time>
      </trkpt>
      <trkpt lat="42.420482" lon="1.669175">
        <ele>1816.208</ele>
        <time>2019-05-31T10:07:39Z</time>
      </trkpt>
      <trkpt lat="42.420518" lon="1.669142">
        <ele>1816.818</ele>
        <time>2019-05-31T10:07:43Z</time>
      </trkpt>
      <trkpt lat="42.420537" lon="1.669136">
        <ele>1817.042</ele>
        <time>2019-05-31T10:07:45Z</time>
      </trkpt>
      <trkpt lat="42.420600" lon="1.669102">
        <ele>1817.828</ele>
        <time>2019-05-31T10:07:51Z</time>
      </trkpt>
      <trkpt lat="42.420614" lon="1.669102">
        <ele>1817.846</ele>
        <time>2019-05-31T10:07:52Z</time>
      </trkpt>
      <trkpt lat="42.420643" lon="1.669094">
        <ele>1818.090</ele>
        <time>2019-05-31T10:07:55Z</time>
      </trkpt>
      <trkpt lat="42.420674" lon="1.669079">
        <ele>1818.625</ele>
        <time>2019-05-31T10:07:58Z</time>
      </trkpt>
      <trkpt lat="42.420693" lon="1.669072">
        <ele>1818.839</ele>
        <time>2019-05-31T10:08:00Z</time>
      </trkpt>
      <trkpt lat="42.420722" lon="1.669064">
        <ele>1819.025</ele>
        <time>2019-05-31T10:08:03Z</time>
      </trkpt>
      <trkpt lat="42.420754" lon="1.669052">
        <ele>1819.425</ele>
        <time>2019-05-31T10:08:06Z</time>
      </trkpt>
      <trkpt lat="42.420802" lon="1.669034">
        <ele>1819.826</ele>
        <time>2019-05-31T10:08:11Z</time>
      </trkpt>
      <trkpt lat="42.420834" lon="1.669016">
        <ele>1820.208</ele>
        <time>2019-05-31T10:08:14Z</time>
      </trkpt>
      <trkpt lat="42.420879" lon="1.668985">
        <ele>1821.008</ele>
        <time>2019-05-31T10:08:19Z</time>
      </trkpt>
      <trkpt lat="42.420924" lon="1.668982">
        <ele>1821.485</ele>
        <time>2019-05-31T10:08:23Z</time>
      </trkpt>
      <trkpt lat="42.420988" lon="1.668939">
        <ele>1822.019</ele>
        <time>2019-05-31T10:08:30Z</time>
      </trkpt>
      <trkpt lat="42.420999" lon="1.668935">
        <ele>1822.035</ele>
        <time>2019-05-31T10:08:31Z</time>
      </trkpt>
      <trkpt lat="42.421076" lon="1.668897">
        <ele>1822.823</ele>
        <time>2019-05-31T10:08:39Z</time>
      </trkpt>
      <trkpt lat="42.421120" lon="1.668880">
        <ele>1823.027</ele>
        <time>2019-05-31T10:08:43Z</time>
      </trkpt>
      <trkpt lat="42.421158" lon="1.668859">
        <ele>1823.482</ele>
        <time>2019-05-31T10:08:47Z</time>
      </trkpt>
      <trkpt lat="42.421184" lon="1.668835">
        <ele>1823.886</ele>
        <time>2019-05-31T10:08:50Z</time>
      </trkpt>
      <trkpt lat="42.421229" lon="1.668821">
        <ele>1824.042</ele>
        <time>2019-05-31T10:08:54Z</time>
      </trkpt>
      <trkpt lat="42.421239" lon="1.668817">
        <ele>1824.288</ele>
        <time>2019-05-31T10:08:55Z</time>
      </trkpt>
      <trkpt lat="42.421308" lon="1.668784">
        <ele>1825.024</ele>
        <time>2019-05-31T10:09:02Z</time>
      </trkpt>
      <trkpt lat="42.421328" lon="1.668772">
        <ele>1825.026</ele>
        <time>2019-05-31T10:09:04Z</time>
      </trkpt>
      <trkpt lat="42.421337" lon="1.668763">
        <ele>1825.208</ele>
        <time>2019-05-31T10:09:05Z</time>
      </trkpt>
      <trkpt lat="42.421382" lon="1.668738">
        <ele>1825.841</ele>
        <time>2019-05-31T10:09:10Z</time>
      </trkpt>
      <trkpt lat="42.421430" lon="1.668724">
        <ele>1826.255</ele>
        <time>2019-05-31T10:09:15Z</time>
      </trkpt>
      <trkpt lat="42.421449" lon="1.668716">
        <ele>1826.681</ele>
        <time>2019-05-31T10:09:17Z</time>
      </trkpt>
      <trkpt lat="42.421503" lon="1.668696">
        <ele>1827.289</ele>
        <time>2019-05-31T10:09:23Z</time>
      </trkpt>
      <trkpt lat="42.421510" lon="1.668693">
        <ele>1827.423</ele>
        <time>2019-05-31T10:09:24Z</time>
      </trkpt>
      <trkpt lat="42.421573" lon="1.668668">
        <ele>1828.028</ele>
        <time>2019-05-31T10:09:30Z</time>
      </trkpt>
      <trkpt lat="42.421600" lon="1.668655">
        <ele>1828.222</ele>
        <time>2019-05-31T10:09:32Z</time>
      </trkpt>
      <trkpt lat="42.421669" lon="1.668634">
        <ele>1828.688</ele>
        <time>2019-05-31T10:09:38Z</time>
      </trkpt>
      <trkpt lat="42.421721" lon="1.668630">
        <ele>1829.265</ele>
        <time>2019-05-31T10:09:44Z</time>
      </trkpt>
      <trkpt lat="42.421731" lon="1.668626">
        <ele>1829.468</ele>
        <time>2019-05-31T10:09:45Z</time>
      </trkpt>
      <trkpt lat="42.421827" lon="1.668639">
        <ele>1830.214</ele>
        <time>2019-05-31T10:09:53Z</time>
      </trkpt>
      <trkpt lat="42.421910" lon="1.668627">
        <ele>1831.408</ele>
        <time>2019-05-31T10:10:01Z</time>
      </trkpt>
      <trkpt lat="42.421925" lon="1.668626">
        <ele>1831.459</ele>
        <time>2019-05-31T10:10:02Z</time>
      </trkpt>
      <trkpt lat="42.421983" lon="1.668609">
        <ele>1832.463</ele>
        <time>2019-05-31T10:10:08Z</time>
      </trkpt>
      <trkpt lat="42.422469" lon="1.668247">
        <ele>1841.429</ele>
        <time>2019-05-31T10:11:34Z</time>
      </trkpt>
      <trkpt lat="42.422437" lon="1.668247">
        <ele>1841.617</ele>
        <time>2019-05-31T10:11:37Z</time>
      </trkpt>
      <trkpt lat="42.422425" lon="1.668248">
        <ele>1841.631</ele>
        <time>2019-05-31T10:11:38Z</time>
      </trkpt>
      <trkpt lat="42.422338" lon="1.668219">
        <ele>1842.256</ele>
        <time>2019-05-31T10:11:45Z</time>
      </trkpt>
      <trkpt lat="42.422304" lon="1.668217">
        <ele>1842.650</ele>
        <time>2019-05-31T10:11:48Z</time>
      </trkpt>
      <trkpt lat="42.422235" lon="1.668206">
        <ele>1843.056</ele>
        <time>2019-05-31T10:11:54Z</time>
      </trkpt>
      <trkpt lat="42.422156" lon="1.668176">
        <ele>1843.657</ele>
        <time>2019-05-31T10:12:01Z</time>
      </trkpt>
      <trkpt lat="42.422147" lon="1.668172">
        <ele>1843.800</ele>
        <time>2019-05-31T10:12:02Z</time>
      </trkpt>
      <trkpt lat="42.422064" lon="1.668154">
        <ele>1844.020</ele>
        <time>2019-05-31T10:12:09Z</time>
      </trkpt>
      <trkpt lat="42.422000" lon="1.668113">
        <ele>1844.608</ele>
        <time>2019-05-31T10:12:15Z</time>
      </trkpt>
      <trkpt lat="42.421962" lon="1.668089">
        <ele>1845.048</ele>
        <time>2019-05-31T10:12:19Z</time>
      </trkpt>
      <trkpt lat="42.421925" lon="1.668034">
        <ele>1845.262</ele>
        <time>2019-05-31T10:12:24Z</time>
      </trkpt>
      <trkpt lat="42.421906" lon="1.668010">
        <ele>1845.218</ele>
        <time>2019-05-31T10:12:26Z</time>
      </trkpt>
      <trkpt lat="42.421887" lon="1.667989">
        <ele>1845.656</ele>
        <time>2019-05-31T10:12:28Z</time>
      </trkpt>
      <trkpt lat="42.421851" lon="1.667930">
        <ele>1846.010</ele>
        <time>2019-05-31T10:12:33Z</time>
      </trkpt>
      <trkpt lat="42.421816" lon="1.667872">
        <ele>1846.695</ele>
        <time>2019-05-31T10:12:38Z</time>
      </trkpt>
      <trkpt lat="42.421804" lon="1.667843">
        <ele>1846.889</ele>
        <time>2019-05-31T10:12:40Z</time>
      </trkpt>
      <trkpt lat="42.421768" lon="1.667710">
        <ele>1847.635</ele>
        <time>2019-05-31T10:12:49Z</time>
      </trkpt>
      <trkpt lat="42.421758" lon="1.667685">
        <ele>1847.616</ele>
        <time>2019-05-31T10:12:51Z</time>
      </trkpt>
      <trkpt lat="42.421739" lon="1.667560">
        <ele>1848.276</ele>
        <time>2019-05-31T10:12:59Z</time>
      </trkpt>
      <trkpt lat="42.421757" lon="1.667447">
        <ele>1849.413</ele>
        <time>2019-05-31T10:13:07Z</time>
      </trkpt>
      <trkpt lat="42.421766" lon="1.667414">
        <ele>1850.408</ele>
        <time>2019-05-31T10:13:09Z</time>
      </trkpt>
      <trkpt lat="42.421773" lon="1.667400">
        <ele>1850.684</ele>
        <time>2019-05-31T10:13:10Z</time>
      </trkpt>
      <trkpt lat="42.421786" lon="1.667378">
        <ele>1849.468</ele>
        <time>2019-05-31T10:13:12Z</time>
      </trkpt>
      <trkpt lat="42.421791" lon="1.667369">
        <ele>1849.454</ele>
        <time>2019-05-31T10:13:13Z</time>
      </trkpt>
      <trkpt lat="42.421832" lon="1.667306">
        <ele>1849.812</ele>
        <time>2019-05-31T10:13:19Z</time>
      </trkpt>
      <trkpt lat="42.421862" lon="1.667246">
        <ele>1850.446</ele>
        <time>2019-05-31T10:13:24Z</time>
      </trkpt>
      <trkpt lat="42.421876" lon="1.667222">
        <ele>1850.611</ele>
        <time>2019-05-31T10:13:26Z</time>
      </trkpt>
      <trkpt lat="42.421934" lon="1.667116">
        <ele>1851.435</ele>
        <time>2019-05-31T10:13:34Z</time>
      </trkpt>
      <trkpt lat="42.421951" lon="1.667086">
        <ele>1851.661</ele>
        <time>2019-05-31T10:13:37Z</time>
      </trkpt>
      <trkpt lat="42.421987" lon="1.667029">
        <ele>1852.268</ele>
        <time>2019-05-31T10:13:42Z</time>
      </trkpt>
      <trkpt lat="42.422035" lon="1.666954">
        <ele>1852.642</ele>
        <time>2019-05-31T10:13:49Z</time>
      </trkpt>
      <trkpt lat="42.422039" lon="1.666943">
        <ele>1852.826</ele>
        <time>2019-05-31T10:13:50Z</time>
      </trkpt>
      <trkpt lat="42.422049" lon="1.666935">
        <ele>1853.008</ele>
        <time>2019-05-31T10:13:51Z</time>
      </trkpt>
      <trkpt lat="42.422131" lon="1.666840">
        <ele>1853.819</ele>
        <time>2019-05-31T10:14:01Z</time>
      </trkpt>
      <trkpt lat="42.422202" lon="1.666747">
        <ele>1854.663</ele>
        <time>2019-05-31T10:14:09Z</time>
      </trkpt>
      <trkpt lat="42.422214" lon="1.666721">
        <ele>1855.029</ele>
        <time>2019-05-31T10:14:11Z</time>
      </trkpt>
      <trkpt lat="42.422262" lon="1.666693">
        <ele>1855.417</ele>
        <time>2019-05-31T10:14:16Z</time>
      </trkpt>
      <trkpt lat="42.422302" lon="1.666664">
        <ele>1856.091</ele>
        <time>2019-05-31T10:14:20Z</time>
      </trkpt>
      <trkpt lat="42.422337" lon="1.666637">
        <ele>1856.446</ele>
        <time>2019-05-31T10:14:24Z</time>
      </trkpt>
      <trkpt lat="42.422394" lon="1.666579">
        <ele>1857.270</ele>
        <time>2019-05-31T10:14:30Z</time>
      </trkpt>
      <trkpt lat="42.422404" lon="1.666575">
        <ele>1857.266</ele>
        <time>2019-05-31T10:14:31Z</time>
      </trkpt>
      <trkpt lat="42.422476" lon="1.666511">
        <ele>1858.268</ele>
        <time>2019-05-31T10:14:39Z</time>
      </trkpt>
      <trkpt lat="42.422550" lon="1.666460">
        <ele>1858.842</ele>
        <time>2019-05-31T10:14:47Z</time>
      </trkpt>
      <trkpt lat="42.422569" lon="1.666439">
        <ele>1859.426</ele>
        <time>2019-05-31T10:14:49Z</time>
      </trkpt>
      <trkpt lat="42.422629" lon="1.666376">
        <ele>1860.008</ele>
        <time>2019-05-31T10:14:56Z</time>
      </trkpt>
      <trkpt lat="42.422653" lon="1.666354">
        <ele>1860.429</ele>
        <time>2019-05-31T10:14:59Z</time>
      </trkpt>
      <trkpt lat="42.422706" lon="1.666282">
        <ele>1861.473</ele>
        <time>2019-05-31T10:15:05Z</time>
      </trkpt>
      <trkpt lat="42.422714" lon="1.666269">
        <ele>1861.469</ele>
        <time>2019-05-31T10:15:06Z</time>
      </trkpt>
      <trkpt lat="42.422772" lon="1.666192">
        <ele>1862.237</ele>
        <time>2019-05-31T10:15:13Z</time>
      </trkpt>
      <trkpt lat="42.422792" lon="1.666180">
        <ele>1862.441</ele>
        <time>2019-05-31T10:15:15Z</time>
      </trkpt>
      <trkpt lat="42.422802" lon="1.666173">
        <ele>1862.416</ele>
        <time>2019-05-31T10:15:16Z</time>
      </trkpt>
      <trkpt lat="42.422847" lon="1.666144">
        <ele>1862.870</ele>
        <time>2019-05-31T10:15:20Z</time>
      </trkpt>
      <trkpt lat="42.422881" lon="1.666127">
        <ele>1863.466</ele>
        <time>2019-05-31T10:15:24Z</time>
      </trkpt>
      <trkpt lat="42.422905" lon="1.666132">
        <ele>1863.675</ele>
        <time>2019-05-31T10:15:26Z</time>
      </trkpt>
      <trkpt lat="42.422990" lon="1.666156">
        <ele>1864.628</ele>
        <time>2019-05-31T10:15:33Z</time>
      </trkpt>
      <trkpt lat="42.423002" lon="1.666189">
        <ele>1864.820</ele>
        <time>2019-05-31T10:15:35Z</time>
      </trkpt>
      <trkpt lat="42.423027" lon="1.666237">
        <ele>1865.208</ele>
        <time>2019-05-31T10:15:38Z</time>
      </trkpt>
      <trkpt lat="42.423035" lon="1.666324">
        <ele>1865.830</ele>
        <time>2019-05-31T10:15:44Z</time>
      </trkpt>
      <trkpt lat="42.423036" lon="1.666362">
        <ele>1866.044</ele>
        <time>2019-05-31T10:15:46Z</time>
      </trkpt>
      <trkpt lat="42.423033" lon="1.666395">
        <ele>1866.050</ele>
        <time>2019-05-31T10:15:48Z</time>
      </trkpt>
      <trkpt lat="42.423001" lon="1.667250">
        <ele>1870.288</ele>
        <time>2019-05-31T10:16:48Z</time>
      </trkpt>
      <trkpt lat="42.423051" lon="1.667274">
        <ele>1870.632</ele>
        <time>2019-05-31T10:16:52Z</time>
      </trkpt>
      <trkpt lat="42.423086" lon="1.667287">
        <ele>1870.867</ele>
        <time>2019-05-31T10:16:55Z</time>
      </trkpt>
      <trkpt lat="42.423131" lon="1.667294">
        <ele>1871.231</ele>
        <time>2019-05-31T10:16:59Z</time>
      </trkpt>
      <trkpt lat="42.423173" lon="1.667280">
        <ele>1871.627</ele>
        <time>2019-05-31T10:17:02Z</time>
      </trkpt>
      <trkpt lat="42.423195" lon="1.667278">
        <ele>1871.881</ele>
        <time>2019-05-31T10:17:04Z</time>
      </trkpt>
      <trkpt lat="42.423241" lon="1.667238">
        <ele>1872.461</ele>
        <time>2019-05-31T10:17:09Z</time>
      </trkpt>
      <trkpt lat="42.423320" lon="1.667178">
        <ele>1873.217</ele>
        <time>2019-05-31T10:17:16Z</time>
      </trkpt>
      <trkpt lat="42.423336" lon="1.667152">
        <ele>1873.408</ele>
        <time>2019-05-31T10:17:18Z</time>
      </trkpt>
      <trkpt lat="42.423383" lon="1.667095">
        <ele>1873.651</ele>
        <time>2019-05-31T10:17:23Z</time>
      </trkpt>
      <trkpt lat="42.423400" lon="1.667076">
        <ele>1874.495</ele>
        <time>2019-05-31T10:17:25Z</time>
      </trkpt>
      <trkpt lat="42.423433" lon="1.667025">
        <ele>1875.011</ele>
        <time>2019-05-31T10:17:29Z</time>
      </trkpt>
      <trkpt lat="42.423528" lon="1.666948">
        <ele>1875.279</ele>
        <time>2019-05-31T10:17:38Z</time>
      </trkpt>
      <trkpt lat="42.423533" lon="1.666941">
        <ele>1875.453</ele>
        <time>2019-05-31T10:17:39Z</time>
      </trkpt>
      <trkpt lat="42.423548" lon="1.666927">
        <ele>1875.448</ele>
        <time>2019-05-31T10:17:41Z</time>
      </trkpt>
      <trkpt lat="42.423583" lon="1.666902">
        <ele>1875.882</ele>
        <time>2019-05-31T10:17:45Z</time>
      </trkpt>
      <trkpt lat="42.423630" lon="1.666850">
        <ele>1876.458</ele>
        <time>2019-05-31T10:17:50Z</time>
      </trkpt>
      <trkpt lat="42.423647" lon="1.666829">
        <ele>1876.685</ele>
        <time>2019-05-31T10:17:52Z</time>
      </trkpt>
      <trkpt lat="42.423732" lon="1.666744">
        <ele>1877.289</ele>
        <time>2019-05-31T10:18:00Z</time>
      </trkpt>
      <trkpt lat="42.423751" lon="1.666725">
        <ele>1877.417</ele>
        <time>2019-05-31T10:18:02Z</time>
      </trkpt>
      <trkpt lat="42.423808" lon="1.666657">
        <ele>1877.808</ele>
        <time>2019-05-31T10:18:08Z</time>
      </trkpt>
      <trkpt lat="42.423881" lon="1.666579">
        <ele>1878.271</ele>
        <time>2019-05-31T10:18:15Z</time>
      </trkpt>
      <trkpt lat="42.423925" lon="1.666536">
        <ele>1878.445</ele>
        <time>2019-05-31T10:18:19Z</time>
      </trkpt>
      <trkpt lat="42.423962" lon="1.666502">
        <ele>1878.841</ele>
        <time>2019-05-31T10:18:22Z</time>
      </trkpt>
      <trkpt lat="42.425122" lon="1.664071">
        <ele>1902.649</ele>
        <time>2019-05-31T10:23:41Z</time>
      </trkpt>
      <trkpt lat="42.425145" lon="1.664088">
        <ele>1902.873</ele>
        <time>2019-05-31T10:23:43Z</time>
      </trkpt>
      <trkpt lat="42.425244" lon="1.664125">
        <ele>1903.858</ele>
        <time>2019-05-31T10:23:52Z</time>
      </trkpt>
      <trkpt lat="42.425350" lon="1.664109">
        <ele>1904.422</ele>
        <time>2019-05-31T10:24:01Z</time>
      </trkpt>
      <trkpt lat="42.425370" lon="1.664100">
        <ele>1904.828</ele>
        <time>2019-05-31T10:24:03Z</time>
      </trkpt>
      <trkpt lat="42.425391" lon="1.664089">
        <ele>1904.845</ele>
        <time>2019-05-31T10:24:05Z</time>
      </trkpt>
      <trkpt lat="42.425440" lon="1.664061">
        <ele>1905.247</ele>
        <time>2019-05-31T10:24:09Z</time>
      </trkpt>
      <trkpt lat="42.425493" lon="1.664018">
        <ele>1905.811</ele>
        <time>2019-05-31T10:24:14Z</time>
      </trkpt>
      <trkpt lat="42.425523" lon="1.663990">
        <ele>1906.208</ele>
        <time>2019-05-31T10:24:17Z</time>
      </trkpt>
      <trkpt lat="42.425602" lon="1.663898">
        <ele>1906.677</ele>
        <time>2019-05-31T10:24:26Z</time>
      </trkpt>
      <trkpt lat="42.425611" lon="1.663886">
        <ele>1906.881</ele>
        <time>2019-05-31T10:24:27Z</time>
      </trkpt>
      <trkpt lat="42.425677" lon="1.663811">
        <ele>1907.237</ele>
        <time>2019-05-31T10:24:34Z</time>
      </trkpt>
      <trkpt lat="42.425709" lon="1.663769">
        <ele>1908.045</ele>
        <time>2019-05-31T10:24:38Z</time>
      </trkpt>
      <trkpt lat="42.425726" lon="1.663744">
        <ele>1909.299</ele>
        <time>2019-05-31T10:24:40Z</time>
      </trkpt>
      <trkpt lat="42.425750" lon="1.663730">
        <ele>1908.264</ele>
        <time>2019-05-31T10:24:42Z</time>
      </trkpt>
      <trkpt lat="42.425831" lon="1.663640">
        <ele>1909.298</ele>
        <time>2019-05-31T10:24:51Z</time>
      </trkpt>
      <trkpt lat="42.425880" lon="1.663589">
        <ele>1909.834</ele>
        <time>2019-05-31T10:24:56Z</time>
      </trkpt>
      <trkpt lat="42.425898" lon="1.663565">
        <ele>1909.818</ele>
        <time>2019-05-31T10:24:58Z</time>
      </trkpt>
      <trkpt lat="42.425922" lon="1.663528">
        <ele>1910.298</ele>
        <time>2019-05-31T10:25:01Z</time>
      </trkpt>
      <trkpt lat="42.425976" lon="1.663455">
        <ele>1911.017</ele>
        <time>2019-05-31T10:25:07Z</time>
      </trkpt>
      <trkpt lat="42.426004" lon="1.663415">
        <ele>1911.408</ele>
        <time>2019-05-31T10:25:10Z</time>
      </trkpt>
      <trkpt lat="42.426051" lon="1.663358">
        <ele>1911.884</ele>
        <time>2019-05-31T10:25:15Z</time>
      </trkpt>
      <trkpt lat="42.426106" lon="1.663281">
        <ele>1912.438</ele>
        <time>2019-05-31T10:25:21Z</time>
      </trkpt>
      <trkpt lat="42.426144" lon="1.663235">
        <ele>1912.474</ele>
        <time>2019-05-31T10:25:25Z</time>
      </trkpt>
      <trkpt lat="42.426194" lon="1.663180">
        <ele>1913.492</ele>
        <time>2019-05-31T10:25:30Z</time>
      </trkpt>
      <trkpt lat="42.426237" lon="1.663136">
        <ele>1913.466</ele>
        <time>2019-05-31T10:25:34Z</time>
      </trkpt>
      <trkpt lat="42.426309" lon="1.663056">
        <ele>1914.441</ele>
        <time>2019-05-31T10:25:41Z</time>
      </trkpt>
      <trkpt lat="42.426334" lon="1.663036">
        <ele>1915.265</ele>
        <time>2019-05-31T10:25:43Z</time>
      </trkpt>
      <trkpt lat="42.426403" lon="1.662993">
        <ele>1915.481</ele>
        <time>2019-05-31T10:25:49Z</time>
      </trkpt>
      <trkpt lat="42.426415" lon="1.662981">
        <ele>1915.624</ele>
        <time>2019-05-31T10:25:50Z</time>
      </trkpt>
      <trkpt lat="42.426426" lon="1.662973">
        <ele>1915.804</ele>
        <time>2019-05-31T10:25:51Z</time>
      </trkpt>
      <trkpt lat="42.426531" lon="1.662896">
        <ele>1916.014</ele>
        <time>2019-05-31T10:26:00Z</time>
      </trkpt>
      <trkpt lat="42.426649" lon="1.662820">
        <ele>1916.608</ele>
        <time>2019-05-31T10:26:10Z</time>
      </trkpt>
      <trkpt lat="42.426664" lon="1.662816">
        <ele>1916.655</ele>
        <time>2019-05-31T10:26:11Z</time>
      </trkpt>
      <trkpt lat="42.426756" lon="1.662773">
        <ele>1917.019</ele>
        <time>2019-05-31T10:26:18Z</time>
      </trkpt>
      <trkpt lat="42.426866" lon="1.662743">
        <ele>1917.465</ele>
        <time>2019-05-31T10:26:27Z</time>
      </trkpt>
      <trkpt lat="42.426932" lon="1.662729">
        <ele>1917.683</ele>
        <time>2019-05-31T10:26:32Z</time>
      </trkpt>
      <trkpt lat="42.426983" lon="1.662736">
        <ele>1918.097</ele>
        <time>2019-05-31T10:26:36Z</time>
      </trkpt>
      <trkpt lat="42.427092" lon="1.662739">
        <ele>1918.832</ele>
        <time>2019-05-31T10:26:44Z</time>
      </trkpt>
      <trkpt lat="42.427203" lon="1.662755">
        <ele>1919.416</ele>
        <time>2019-05-31T10:26:52Z</time>
      </trkpt>
      <trkpt lat="42.427242" lon="1.662765">
        <ele>1919.862</ele>
        <time>2019-05-31T10:26:55Z</time>
      </trkpt>
      <trkpt lat="42.427318" lon="1.662790">
        <ele>1920.419</ele>
        <time>2019-05-31T10:27:01Z</time>
      </trkpt>
      <trkpt lat="42.427345" lon="1.662800">
        <ele>1920.409</ele>
        <time>2019-05-31T10:27:03Z</time>
      </trkpt>
      <trkpt lat="42.427383" lon="1.662801">
        <ele>1920.819</ele>
        <time>2019-05-31T10:27:06Z</time>
      </trkpt>
      <trkpt lat="42.427395" lon="1.662802">
        <ele>1921.008</ele>
        <time>2019-05-31T10:27:07Z</time>
      </trkpt>
      <trkpt lat="42.427508" lon="1.662855">
        <ele>1921.654</ele>
        <time>2019-05-31T10:27:16Z</time>
      </trkpt>
      <trkpt lat="42.427531" lon="1.662868">
        <ele>1922.058</ele>
        <time>2019-05-31T10:27:18Z</time>
      </trkpt>
      <trkpt lat="42.427544" lon="1.662874">
        <ele>1922.084</ele>
        <time>2019-05-31T10:27:19Z</time>
      </trkpt>
      <trkpt lat="42.427588" lon="1.662903">
        <ele>1922.262</ele>
        <time>2019-05-31T10:27:23Z</time>
      </trkpt>
      <trkpt lat="42.427665" lon="1.662946">
        <ele>1923.076</ele>
        <time>2019-05-31T10:27:29Z</time>
      </trkpt>
      <trkpt lat="42.427681" lon="1.662949">
        <ele>1923.251</ele>
        <time>2019-05-31T10:27:30Z</time>
      </trkpt>
      <trkpt lat="42.427778" lon="1.663028">
        <ele>1923.875</ele>
        <time>2019-05-31T10:27:38Z</time>
      </trkpt>
      <trkpt lat="42.427839" lon="1.663099">
        <ele>1924.081</ele>
        <time>2019-05-31T10:27:44Z</time>
      </trkpt>
      <trkpt lat="42.427895" lon="1.663134">
        <ele>1924.264</ele>
        <time>2019-05-31T10:27:48Z</time>
      </trkpt>
      <trkpt lat="42.427923" lon="1.663160">
        <ele>1924.206</ele>
        <time>2019-05-31T10:27:50Z</time>
      </trkpt>
      <trkpt lat="42.428065" lon="1.663278">
        <ele>1924.616</ele>
        <time>2019-05-31T10:27:58Z</time>
      </trkpt>
      <trkpt lat="42.428137" lon="1.663359">
        <ele>1924.608</ele>
        <time>2019-05-31T10:28:04Z</time>
      </trkpt>
      <trkpt lat="42.428248" lon="1.663452">
        <ele>1924.849</ele>
        <time>2019-05-31T10:28:11Z</time>
      </trkpt>
      <trkpt lat="42.428330" lon="1.663557">
        <ele>1925.013</ele>
        <time>2019-05-31T10:28:17Z</time>
      </trkpt>
      <trkpt lat="42.428341" lon="1.663575">
        <ele>1925.239</ele>
        <time>2019-05-31T10:28:18Z</time>
      </trkpt>
      <trkpt lat="42.428400" lon="1.663670">
        <ele>1925.287</ele>
        <time>2019-05-31T10:28:23Z</time>
      </trkpt>
      <trkpt lat="42.428511" lon="1.663807">
        <ele>1924.861</ele>
        <time>2019-05-31T10:28:29Z</time>
      </trkpt>
      <trkpt lat="42.428616" lon="1.663946">
        <ele>1924.886</ele>
        <time>2019-05-31T10:28:36Z</time>
      </trkpt>
      <trkpt lat="42.428705" lon="1.664109">
        <ele>1925.230</ele>
        <time>2019-05-31T10:28:43Z</time>
      </trkpt>
      <trkpt lat="42.428822" lon="1.664313">
        <ele>1925.896</ele>
        <time>2019-05-31T10:28:53Z</time>
      </trkpt>
      <trkpt lat="42.428931" lon="1.664420">
        <ele>1926.252</ele>
        <time>2019-05-31T10:29:01Z</time>
      </trkpt>
      <trkpt lat="42.428959" lon="1.664448">
        <ele>1926.453</ele>
        <time>2019-05-31T10:29:03Z</time>
      </trkpt>
      <trkpt lat="42.429045" lon="1.664514">
        <ele>1926.808</ele>
        <time>2019-05-31T10:29:09Z</time>
      </trkpt>
      <trkpt lat="42.429156" lon="1.664577">
        <ele>1927.408</ele>
        <time>2019-05-31T10:29:16Z</time>
      </trkpt>
      <trkpt lat="42.429168" lon="1.664584">
        <ele>1927.448</ele>
        <time>2019-05-31T10:29:17Z</time>
      </trkpt>
      <trkpt lat="42.429272" lon="1.664621">
        <ele>1927.882</ele>
        <time>2019-05-31T10:29:23Z</time>
      </trkpt>
      <trkpt lat="42.429349" lon="1.664645">
        <ele>1928.498</ele>
        <time>2019-05-31T10:29:28Z</time>
      </trkpt>
      <trkpt lat="42.429378" lon="1.664664">
        <ele>1928.686</ele>
        <time>2019-05-31T10:29:30Z</time>
      </trkpt>
      <trkpt lat="42.429482" lon="1.664712">
        <ele>1929.030</ele>
        <time>2019-05-31T10:29:37Z</time>
      </trkpt>
      <trkpt lat="42.429544" lon="1.664764">
        <ele>1929.485</ele>
        <time>2019-05-31T10:29:42Z</time>
      </trkpt>
      <trkpt lat="42.429581" lon="1.664792">
        <ele>1930.019</ele>
        <time>2019-05-31T10:29:45Z</time>
      </trkpt>
      <trkpt lat="42.429645" lon="1.664836">
        <ele>1930.455</ele>
        <time>2019-05-31T10:29:50Z</time>
      </trkpt>
      <trkpt lat="42.429682" lon="1.664873">
        <ele>1931.013</ele>
        <time>2019-05-31T10:29:53Z</time>
      </trkpt>
      <trkpt lat="42.429721" lon="1.664912">
        <ele>1931.243</ele>
        <time>2019-05-31T10:29:56Z</time>
      </trkpt>
      <trkpt lat="42.429746" lon="1.664942">
        <ele>1931.407</ele>
        <time>2019-05-31T10:29:58Z</time>
      </trkpt>
      <trkpt lat="42.429759" lon="1.664958">
        <ele>1931.408</ele>
        <time>2019-05-31T10:29:59Z</time>
      </trkpt>
      <trkpt lat="42.429791" lon="1.665017">
        <ele>1931.664</ele>
        <time>2019-05-31T10:30:02Z</time>
      </trkpt>
      <trkpt lat="42.429845" lon="1.665119">
        <ele>1932.058</ele>
        <time>2019-05-31T10:30:07Z</time>
      </trkpt>
      <trkpt lat="42.429908" lon="1.665232">
        <ele>1932.094</ele>
        <time>2019-05-31T10:30:13Z</time>
      </trkpt>
      <trkpt lat="42.429931" lon="1.665279">
        <ele>1932.442</ele>
        <time>2019-05-31T10:30:15Z</time>
      </trkpt>
      <trkpt lat="42.429999" lon="1.665387">
        <ele>1932.886</ele>
        <time>2019-05-31T10:30:20Z</time>
      </trkpt>
      <trkpt lat="42.430057" lon="1.665511">
        <ele>1933.241</ele>
        <time>2019-05-31T10:30:26Z</time>
      </trkpt>
      <trkpt lat="42.430124" lon="1.665666">
        <ele>1933.255</ele>
        <time>2019-05-31T10:30:33Z</time>
      </trkpt>
      <trkpt lat="42.430147" lon="1.665729">
        <ele>1933.651</ele>
        <time>2019-05-31T10:30:36Z</time>
      </trkpt>
      <trkpt lat="42.430214" lon="1.665840">
        <ele>1933.859</ele>
        <time>2019-05-31T10:30:42Z</time>
      </trkpt>
      <trkpt lat="42.430278" lon="1.665964">
        <ele>1930.803</ele>
        <time>2019-05-31T10:30:48Z</time>
      </trkpt>
      <trkpt lat="42.430292" lon="1.665984">
        <ele>1933.423</ele>
        <time>2019-05-31T10:30:49Z</time>
      </trkpt>
      <trkpt lat="42.430325" lon="1.666011">
        <ele>1936.608</ele>
        <time>2019-05-31T10:30:51Z</time>
      </trkpt>
      <trkpt lat="42.430340" lon="1.666029">
        <ele>1934.848</ele>
        <time>2019-05-31T10:30:52Z</time>
      </trkpt>
      <trkpt lat="42.430366" lon="1.666061">
        <ele>1934.422</ele>
        <time>2019-05-31T10:30:54Z</time>
      </trkpt>
      <trkpt lat="42.430454" lon="1.666152">
        <ele>1934.658</ele>
        <time>2019-05-31T10:30:59Z</time>
      </trkpt>
      <trkpt lat="42.430569" lon="1.666240">
        <ele>1934.866</ele>
        <time>2019-05-31T10:31:05Z</time>
      </trkpt>
      <trkpt lat="42.430732" lon="1.666392">
        <ele>1935.480</ele>
        <time>2019-05-31T10:31:13Z</time>
      </trkpt>
      <trkpt lat="42.430804" lon="1.666513">
        <ele>1935.865</ele>
        <time>2019-05-31T10:31:18Z</time>
      </trkpt>
      <trkpt lat="42.430819" lon="1.666567">
        <ele>1936.259</ele>
        <time>2019-05-31T10:31:20Z</time>
      </trkpt>
      <trkpt lat="42.430859" lon="1.666750">
        <ele>1935.255</ele>
        <time>2019-05-31T10:31:27Z</time>
      </trkpt>
      <trkpt lat="42.430864" lon="1.666771">
        <ele>1934.821</ele>
        <time>2019-05-31T10:31:28Z</time>
      </trkpt>
      <trkpt lat="42.430867" lon="1.666794">
        <ele>1936.241</ele>
        <time>2019-05-31T10:31:29Z</time>
      </trkpt>
      <trkpt lat="42.430869" lon="1.666819">
        <ele>1937.205</ele>
        <time>2019-05-31T10:31:30Z</time>
      </trkpt>
      <trkpt lat="42.430881" lon="1.666906">
        <ele>1937.408</ele>
        <time>2019-05-31T10:31:33Z</time>
      </trkpt>
      <trkpt lat="42.430907" lon="1.667048">
        <ele>1937.295</ele>
        <time>2019-05-31T10:31:38Z</time>
      </trkpt>
      <trkpt lat="42.430943" lon="1.667161">
        <ele>1937.679</ele>
        <time>2019-05-31T10:31:43Z</time>
      </trkpt>
      <trkpt lat="42.430989" lon="1.667247">
        <ele>1938.025</ele>
        <time>2019-05-31T10:31:48Z</time>
      </trkpt>
      <trkpt lat="42.430990" lon="1.667258">
        <ele>1938.293</ele>
        <time>2019-05-31T10:31:49Z</time>
      </trkpt>
      <trkpt lat="42.431040" lon="1.667256">
        <ele>1938.077</ele>
        <time>2019-05-31T10:31:58Z</time>
      </trkpt>
      <trkpt lat="42.431058" lon="1.667266">
        <ele>1938.092</ele>
        <time>2019-05-31T10:31:59Z</time>
      </trkpt>
      <trkpt lat="42.431158" lon="1.667348">
        <ele>1938.476</ele>
        <time>2019-05-31T10:32:05Z</time>
      </trkpt>
      <trkpt lat="42.431262" lon="1.667432">
        <ele>1938.852</ele>
        <time>2019-05-31T10:32:11Z</time>
      </trkpt>
      <trkpt lat="42.431349" lon="1.667493">
        <ele>1939.235</ele>
        <time>2019-05-31T10:32:16Z</time>
      </trkpt>
      <trkpt lat="42.431380" lon="1.667528">
        <ele>1939.686</ele>
        <time>2019-05-31T10:32:18Z</time>
      </trkpt>
      <trkpt lat="42.431379" lon="1.667549">
        <ele>1939.614</ele>
        <time>2019-05-31T10:32:19Z</time>
      </trkpt>
      <trkpt lat="42.431362" lon="1.667559">
        <ele>1939.608</ele>
        <time>2019-05-31T10:32:21Z</time>
      </trkpt>
      <trkpt lat="42.431339" lon="1.667532">
        <ele>1939.616</ele>
        <time>2019-05-31T10:32:24Z</time>
      </trkpt>
      <trkpt lat="42.431304" lon="1.667491">
        <ele>1939.420</ele>
        <time>2019-05-31T10:32:26Z</time>
      </trkpt>
      <trkpt lat="42.431134" lon="1.667334">
        <ele>1938.446</ele>
        <time>2019-05-31T10:32:32Z</time>
      </trkpt>
      <trkpt lat="42.431103" lon="1.667310">
        <ele>1938.244</ele>
        <time>2019-05-31T10:32:33Z</time>
      </trkpt>
      <trkpt lat="42.430991" lon="1.667249">
        <ele>1937.698</ele>
        <time>2019-05-31T10:32:37Z</time>
      </trkpt>
      <trkpt lat="42.430971" lon="1.667284">
        <ele>1937.433</ele>
        <time>2019-05-31T10:32:38Z</time>
      </trkpt>
      <trkpt lat="42.430964" lon="1.667356">
        <ele>1937.297</ele>
        <time>2019-05-31T10:32:40Z</time>
      </trkpt>
      <trkpt lat="42.430990" lon="1.667501">
        <ele>1937.873</ele>
        <time>2019-05-31T10:32:44Z</time>
      </trkpt>
      <trkpt lat="42.430998" lon="1.667546">
        <ele>1937.857</ele>
        <time>2019-05-31T10:32:45Z</time>
      </trkpt>
      <trkpt lat="42.431046" lon="1.667797">
        <ele>1938.800</ele>
        <time>2019-05-31T10:32:51Z</time>
      </trkpt>
      <trkpt lat="42.431056" lon="1.667916">
        <ele>1939.220</ele>
        <time>2019-05-31T10:32:54Z</time>
      </trkpt>
      <trkpt lat="42.431081" lon="1.668043">
        <ele>1939.208</ele>
        <time>2019-05-31T10:32:58Z</time>
      </trkpt>
      <trkpt lat="42.431163" lon="1.668186">
        <ele>1939.228</ele>
        <time>2019-05-31T10:33:04Z</time>
      </trkpt>
      <trkpt lat="42.431177" lon="1.668221">
        <ele>1939.232</ele>
        <time>2019-05-31T10:33:06Z</time>
      </trkpt>
      <trkpt lat="42.431089" lon="1.668073">
        <ele>1939.278</ele>
        <time>2019-05-31T10:34:22Z</time>
      </trkpt>
      <trkpt lat="42.431061" lon="1.668035">
        <ele>1939.416</ele>
        <time>2019-05-31T10:34:25Z</time>
      </trkpt>
      <trkpt lat="42.430898" lon="1.667926">
        <ele>1939.470</ele>
        <time>2019-05-31T10:34:36Z</time>
      </trkpt>
      <trkpt lat="42.431106" lon="1.668076">
        <ele>1938.845</ele>
        <time>2019-05-31T10:36:56Z</time>
      </trkpt>
      <trkpt lat="42.431104" lon="1.668066">
        <ele>1938.849</ele>
        <time>2019-05-31T10:36:57Z</time>
      </trkpt>
      <trkpt lat="42.431083" lon="1.667919">
        <ele>1939.895</ele>
        <time>2019-05-31T10:48:46Z</time>
      </trkpt>
      <trkpt lat="42.431080" lon="1.667894">
        <ele>1939.874</ele>
        <time>2019-05-31T10:48:47Z</time>
      </trkpt>
      <trkpt lat="42.431066" lon="1.667714">
        <ele>1939.256</ele>
        <time>2019-05-31T10:48:52Z</time>
      </trkpt>
      <trkpt lat="42.431047" lon="1.667609">
        <ele>1938.821</ele>
        <time>2019-05-31T10:48:54Z</time>
      </trkpt>
      <trkpt lat="42.430993" lon="1.667384">
        <ele>1938.208</ele>
        <time>2019-05-31T10:48:58Z</time>
      </trkpt>
      <trkpt lat="42.430992" lon="1.667287">
        <ele>1937.880</ele>
        <time>2019-05-31T10:49:00Z</time>
      </trkpt>
      <trkpt lat="42.431012" lon="1.667253">
        <ele>1938.044</ele>
        <time>2019-05-31T10:49:01Z</time>
      </trkpt>
      <trkpt lat="42.431093" lon="1.667255">
        <ele>1938.280</ele>
        <time>2019-05-31T10:49:04Z</time>
      </trkpt>
      <trkpt lat="42.431211" lon="1.667352">
        <ele>1938.678</ele>
        <time>2019-05-31T10:49:09Z</time>
      </trkpt>
      <trkpt lat="42.431233" lon="1.667372">
        <ele>1938.642</ele>
        <time>2019-05-31T10:49:10Z</time>
      </trkpt>
      <trkpt lat="42.431362" lon="1.667486">
        <ele>1939.247</ele>
        <time>2019-05-31T10:49:16Z</time>
      </trkpt>
      <trkpt lat="42.431380" lon="1.667505">
        <ele>1939.491</ele>
        <time>2019-05-31T10:49:17Z</time>
      </trkpt>
      <trkpt lat="42.431513" lon="1.667642">
        <ele>1940.297</ele>
        <time>2019-05-31T10:49:24Z</time>
      </trkpt>
      <trkpt lat="42.431536" lon="1.667654">
        <ele>1940.441</ele>
        <time>2019-05-31T10:49:25Z</time>
      </trkpt>
      <trkpt lat="42.431585" lon="1.667686">
        <ele>1941.281</ele>
        <time>2019-05-31T10:49:29Z</time>
      </trkpt>
      <trkpt lat="42.431584" lon="1.667686">
        <ele>1941.409</ele>
        <time>2019-05-31T10:49:30Z</time>
      </trkpt>
      <trkpt lat="42.431565" lon="1.667741">
        <ele>1941.608</ele>
        <time>2019-05-31T10:51:43Z</time>
      </trkpt>
      <trkpt lat="42.431528" lon="1.667796">
        <ele>1941.217</ele>
        <time>2019-05-31T10:51:47Z</time>
      </trkpt>
      <trkpt lat="42.431495" lon="1.667859">
        <ele>1941.271</ele>
        <time>2019-05-31T10:51:50Z</time>
      </trkpt>
      <trkpt lat="42.431452" lon="1.668006">
        <ele>1941.437</ele>
        <time>2019-05-31T10:51:57Z</time>
      </trkpt>
      <trkpt lat="42.431445" lon="1.668028">
        <ele>1944.225</ele>
        <time>2019-05-31T10:51:58Z</time>
      </trkpt>
      <trkpt lat="42.431430" lon="1.668098">
        <ele>1941.659</ele>
        <time>2019-05-31T10:52:01Z</time>
      </trkpt>
      <trkpt lat="42.431427" lon="1.668122">
        <ele>1943.844</ele>
        <time>2019-05-31T10:52:02Z</time>
      </trkpt>
      <trkpt lat="42.431422" lon="1.668163">
        <ele>1944.098</ele>
        <time>2019-05-31T10:52:04Z</time>
      </trkpt>
      <trkpt lat="42.431417" lon="1.668183">
        <ele>1942.694</ele>
        <time>2019-05-31T10:52:05Z</time>
      </trkpt>
      <trkpt lat="42.431391" lon="1.668330">
        <ele>1942.866</ele>
        <time>2019-05-31T10:52:12Z</time>
      </trkpt>
      <trkpt lat="42.431376" lon="1.668507">
        <ele>1943.829</ele>
        <time>2019-05-31T10:52:20Z</time>
      </trkpt>
      <trkpt lat="42.431376" lon="1.668548">
        <ele>1944.221</ele>
        <time>2019-05-31T10:52:22Z</time>
      </trkpt>
      <trkpt lat="42.431371" lon="1.668663">
        <ele>1944.808</ele>
        <time>2019-05-31T10:52:27Z</time>
      </trkpt>
      <trkpt lat="42.431363" lon="1.668732">
        <ele>1944.829</ele>
        <time>2019-05-31T10:52:30Z</time>
      </trkpt>
      <trkpt lat="42.431352" lon="1.668886">
        <ele>1946.013</ele>
        <time>2019-05-31T10:52:38Z</time>
      </trkpt>
      <trkpt lat="42.431364" lon="1.669046">
        <ele>1946.849</ele>
        <time>2019-05-31T10:52:46Z</time>
      </trkpt>
      <trkpt lat="42.431369" lon="1.669085">
        <ele>1947.057</ele>
        <time>2019-05-31T10:52:48Z</time>
      </trkpt>
      <trkpt lat="42.431377" lon="1.669184">
        <ele>1947.211</ele>
        <time>2019-05-31T10:52:53Z</time>
      </trkpt>
      <trkpt lat="42.431380" lon="1.669317">
        <ele>1947.896</ele>
        <time>2019-05-31T10:53:00Z</time>
      </trkpt>
      <trkpt lat="42.431380" lon="1.669335">
        <ele>1948.070</ele>
        <time>2019-05-31T10:53:01Z</time>
      </trkpt>
      <trkpt lat="42.431366" lon="1.669439">
        <ele>1947.816</ele>
        <time>2019-05-31T10:53:07Z</time>
      </trkpt>
      <trkpt lat="42.431371" lon="1.669477">
        <ele>1949.229</ele>
        <time>2019-05-31T10:53:09Z</time>
      </trkpt>
      <trkpt lat="42.431362" lon="1.669574">
        <ele>1950.200</ele>
        <time>2019-05-31T10:53:14Z</time>
      </trkpt>
      <trkpt lat="42.431361" lon="1.669596">
        <ele>1950.220</ele>
        <time>2019-05-31T10:53:15Z</time>
      </trkpt>
      <trkpt lat="42.431340" lon="1.669774">
        <ele>1950.608</ele>
        <time>2019-05-31T10:53:24Z</time>
      </trkpt>
      <trkpt lat="42.431318" lon="1.669939">
        <ele>1951.495</ele>
        <time>2019-05-31T10:53:32Z</time>
      </trkpt>
      <trkpt lat="42.431286" lon="1.670067">
        <ele>1952.069</ele>
        <time>2019-05-31T10:53:39Z</time>
      </trkpt>
      <trkpt lat="42.431263" lon="1.670226">
        <ele>1951.865</ele>
        <time>2019-05-31T10:53:46Z</time>
      </trkpt>
      <trkpt lat="42.431250" lon="1.670297">
        <ele>1952.673</ele>
        <time>2019-05-31T10:53:50Z</time>
      </trkpt>
      <trkpt lat="42.431230" lon="1.670363">
        <ele>1953.297</ele>
        <time>2019-05-31T10:53:54Z</time>
      </trkpt>
      <trkpt lat="42.431215" lon="1.670416">
        <ele>1953.692</ele>
        <time>2019-05-31T10:53:57Z</time>
      </trkpt>
      <trkpt lat="42.431190" lon="1.670501">
        <ele>1953.886</ele>
        <time>2019-05-31T10:54:02Z</time>
      </trkpt>
      <trkpt lat="42.431166" lon="1.670649">
        <ele>1954.222</ele>
        <time>2019-05-31T10:54:10Z</time>
      </trkpt>
      <trkpt lat="42.431150" lon="1.670740">
        <ele>1954.895</ele>
        <time>2019-05-31T10:54:15Z</time>
      </trkpt>
      <trkpt lat="42.431143" lon="1.670795">
        <ele>1955.049</ele>
        <time>2019-05-31T10:54:18Z</time>
      </trkpt>
      <trkpt lat="42.431122" lon="1.670903">
        <ele>1955.823</ele>
        <time>2019-05-31T10:54:24Z</time>
      </trkpt>
      <trkpt lat="42.431117" lon="1.670920">
        <ele>1956.008</ele>
        <time>2019-05-31T10:54:25Z</time>
      </trkpt>
      <trkpt lat="42.431086" lon="1.671070">
        <ele>1956.832</ele>
        <time>2019-05-31T10:54:33Z</time>
      </trkpt>
      <trkpt lat="42.431078" lon="1.671110">
        <ele>1957.046</ele>
        <time>2019-05-31T10:54:35Z</time>
      </trkpt>
      <trkpt lat="42.431064" lon="1.671232">
        <ele>1957.822</ele>
        <time>2019-05-31T10:54:42Z</time>
      </trkpt>
      <trkpt lat="42.431058" lon="1.671316">
        <ele>1958.060</ele>
        <time>2019-05-31T10:54:47Z</time>
      </trkpt>
      <trkpt lat="42.431054" lon="1.671359">
        <ele>1958.244</ele>
        <time>2019-05-31T10:54:49Z</time>
      </trkpt>
      <trkpt lat="42.431021" lon="1.671557">
        <ele>1959.039</ele>
        <time>2019-05-31T10:54:58Z</time>
      </trkpt>
      <trkpt lat="42.431016" lon="1.671575">
        <ele>1959.213</ele>
        <time>2019-05-31T10:54:59Z</time>
      </trkpt>
      <trkpt lat="42.431002" lon="1.671729">
        <ele>1960.059</ele>
        <time>2019-05-31T10:55:07Z</time>
      </trkpt>
      <trkpt lat="42.430999" lon="1.671802">
        <ele>1960.025</ele>
        <time>2019-05-31T10:55:11Z</time>
      </trkpt>
      <trkpt lat="42.430997" lon="1.671941">
        <ele>1960.826</ele>
        <time>2019-05-31T10:55:18Z</time>
      </trkpt>
      <trkpt lat="42.431003" lon="1.672067">
        <ele>1961.208</ele>
        <time>2019-05-31T10:55:24Z</time>
      </trkpt>
      <trkpt lat="42.431002" lon="1.672088">
        <ele>1961.208</ele>
        <time>2019-05-31T10:55:25Z</time>
      </trkpt>
      <trkpt lat="42.431004" lon="1.672107">
        <ele>1961.445</ele>
        <time>2019-05-31T10:55:26Z</time>
      </trkpt>
      <trkpt lat="42.431005" lon="1.672255">
        <ele>1961.889</ele>
        <time>2019-05-31T10:55:34Z</time>
      </trkpt>
      <trkpt lat="42.431003" lon="1.672294">
        <ele>1962.225</ele>
        <time>2019-05-31T10:55:36Z</time>
      </trkpt>
      <trkpt lat="42.431002" lon="1.672336">
        <ele>1960.673</ele>
        <time>2019-05-31T10:55:38Z</time>
      </trkpt>
      <trkpt lat="42.431005" lon="1.672373">
        <ele>1962.087</ele>
        <time>2019-05-31T10:55:40Z</time>
      </trkpt>
      <trkpt lat="42.431011" lon="1.672454">
        <ele>1962.842</ele>
        <time>2019-05-31T10:55:44Z</time>
      </trkpt>
      <trkpt lat="42.431005" lon="1.672553">
        <ele>1963.026</ele>
        <time>2019-05-31T10:55:49Z</time>
      </trkpt>
      <trkpt lat="42.430999" lon="1.672629">
        <ele>1963.442</ele>
        <time>2019-05-31T10:55:53Z</time>
      </trkpt>
      <trkpt lat="42.431004" lon="1.672688">
        <ele>1963.634</ele>
        <time>2019-05-31T10:55:56Z</time>
      </trkpt>
      <trkpt lat="42.431005" lon="1.672777">
        <ele>1964.055</ele>
        <time>2019-05-31T10:56:01Z</time>
      </trkpt>
      <trkpt lat="42.430998" lon="1.672833">
        <ele>1964.010</ele>
        <time>2019-05-31T10:56:04Z</time>
      </trkpt>
      <trkpt lat="42.430988" lon="1.672931">
        <ele>1964.808</ele>
        <time>2019-05-31T10:56:09Z</time>
      </trkpt>
      <trkpt lat="42.430992" lon="1.673005">
        <ele>1965.266</ele>
        <time>2019-05-31T10:56:13Z</time>
      </trkpt>
      <trkpt lat="42.430989" lon="1.673042">
        <ele>1965.420</ele>
        <time>2019-05-31T10:56:15Z</time>
      </trkpt>
      <trkpt lat="42.430993" lon="1.673061">
        <ele>1965.456</ele>
        <time>2019-05-31T10:56:16Z</time>
      </trkpt>
      <trkpt lat="42.430987" lon="1.673130">
        <ele>1965.844</ele>
        <time>2019-05-31T10:56:20Z</time>
      </trkpt>
      <trkpt lat="42.430978" lon="1.673201">
        <ele>1966.278</ele>
        <time>2019-05-31T10:56:24Z</time>
      </trkpt>
      <trkpt lat="42.430965" lon="1.673301">
        <ele>1966.493</ele>
        <time>2019-05-31T10:56:29Z</time>
      </trkpt>
      <trkpt lat="42.430953" lon="1.673383">
        <ele>1966.617</ele>
        <time>2019-05-31T10:56:33Z</time>
      </trkpt>
      <trkpt lat="42.430946" lon="1.673439">
        <ele>1966.873</ele>
        <time>2019-05-31T10:56:36Z</time>
      </trkpt>
      <trkpt lat="42.430942" lon="1.673458">
        <ele>1967.052</ele>
        <time>2019-05-31T10:56:37Z</time>
      </trkpt>
      <trkpt lat="42.430939" lon="1.673503">
        <ele>1967.453</ele>
        <time>2019-05-31T10:56:39Z</time>
      </trkpt>
      <trkpt lat="42.430937" lon="1.673601">
        <ele>1967.608</ele>
        <time>2019-05-31T10:56:44Z</time>
      </trkpt>
      <trkpt lat="42.430940" lon="1.673642">
        <ele>1968.008</ele>
        <time>2019-05-31T10:56:46Z</time>
      </trkpt>
      <trkpt lat="42.430944" lon="1.673725">
        <ele>1968.268</ele>
        <time>2019-05-31T10:56:50Z</time>
      </trkpt>
      <trkpt lat="42.430944" lon="1.673764">
        <ele>1968.452</ele>
        <time>2019-05-31T10:56:52Z</time>
      </trkpt>
      <trkpt lat="42.430932" lon="1.673844">
        <ele>1968.698</ele>
        <time>2019-05-31T10:56:56Z</time>
      </trkpt>
      <trkpt lat="42.430931" lon="1.673865">
        <ele>1968.856</ele>
        <time>2019-05-31T10:56:57Z</time>
      </trkpt>
      <trkpt lat="42.430956" lon="1.673964">
        <ele>1969.230</ele>
        <time>2019-05-31T10:57:02Z</time>
      </trkpt>
      <trkpt lat="42.430961" lon="1.673982">
        <ele>1969.495</ele>
        <time>2019-05-31T10:57:03Z</time>
      </trkpt>
      <trkpt lat="42.430970" lon="1.674019">
        <ele>1969.649</ele>
        <time>2019-05-31T10:57:05Z</time>
      </trkpt>
      <trkpt lat="42.430967" lon="1.674043">
        <ele>1969.835</ele>
        <time>2019-05-31T10:57:06Z</time>
      </trkpt>
      <trkpt lat="42.430960" lon="1.674105">
        <ele>1969.697</ele>
        <time>2019-05-31T10:57:09Z</time>
      </trkpt>
      <trkpt lat="42.430962" lon="1.674145">
        <ele>1969.623</ele>
        <time>2019-05-31T10:57:11Z</time>
      </trkpt>
      <trkpt lat="42.430953" lon="1.674237">
        <ele>1970.425</ele>
        <time>2019-05-31T10:57:16Z</time>
      </trkpt>
      <trkpt lat="42.430953" lon="1.674257">
        <ele>1970.608</ele>
        <time>2019-05-31T10:57:17Z</time>
      </trkpt>
      <trkpt lat="42.430947" lon="1.674393">
        <ele>1971.032</ele>
        <time>2019-05-31T10:57:24Z</time>
      </trkpt>
      <trkpt lat="42.430941" lon="1.674494">
        <ele>1971.656</ele>
        <time>2019-05-31T10:57:29Z</time>
      </trkpt>
      <trkpt lat="42.430941" lon="1.674558">
        <ele>1971.812</ele>
        <time>2019-05-31T10:57:32Z</time>
      </trkpt>
      <trkpt lat="42.430929" lon="1.674709">
        <ele>1972.420</ele>
        <time>2019-05-31T10:57:40Z</time>
      </trkpt>
      <trkpt lat="42.430925" lon="1.674749">
        <ele>1972.874</ele>
        <time>2019-05-31T10:57:42Z</time>
      </trkpt>
      <trkpt lat="42.430927" lon="1.674806">
        <ele>1972.839</ele>
        <time>2019-05-31T10:57:45Z</time>
      </trkpt>
      <trkpt lat="42.430942" lon="1.674882">
        <ele>1973.433</ele>
        <time>2019-05-31T10:57:49Z</time>
      </trkpt>
      <trkpt lat="42.430941" lon="1.674921">
        <ele>1973.649</ele>
        <time>2019-05-31T10:57:51Z</time>
      </trkpt>
      <trkpt lat="42.430939" lon="1.674961">
        <ele>1973.879</ele>
        <time>2019-05-31T10:57:53Z</time>
      </trkpt>
      <trkpt lat="42.430946" lon="1.675059">
        <ele>1974.205</ele>
        <time>2019-05-31T10:57:58Z</time>
      </trkpt>
      <trkpt lat="42.430935" lon="1.675096">
        <ele>1974.425</ele>
        <time>2019-05-31T10:58:00Z</time>
      </trkpt>
      <trkpt lat="42.430921" lon="1.675189">
        <ele>1974.808</ele>
        <time>2019-05-31T10:58:05Z</time>
      </trkpt>
      <trkpt lat="42.430921" lon="1.675207">
        <ele>1974.880</ele>
        <time>2019-05-31T10:58:06Z</time>
      </trkpt>
      <trkpt lat="42.430917" lon="1.675226">
        <ele>1975.064</ele>
        <time>2019-05-31T10:58:07Z</time>
      </trkpt>
      <trkpt lat="42.430908" lon="1.675265">
        <ele>1975.290</ele>
        <time>2019-05-31T10:58:09Z</time>
      </trkpt>
      <trkpt lat="42.430909" lon="1.675346">
        <ele>1975.678</ele>
        <time>2019-05-31T10:58:13Z</time>
      </trkpt>
      <trkpt lat="42.430911" lon="1.675398">
        <ele>1976.032</ele>
        <time>2019-05-31T10:58:16Z</time>
      </trkpt>
      <trkpt lat="42.430908" lon="1.675479">
        <ele>1976.697</ele>
        <time>2019-05-31T10:58:20Z</time>
      </trkpt>
      <trkpt lat="42.430907" lon="1.675500">
        <ele>1976.611</ele>
        <time>2019-05-31T10:58:21Z</time>
      </trkpt>
      <trkpt lat="42.430901" lon="1.675541">
        <ele>1976.687</ele>
        <time>2019-05-31T10:58:23Z</time>
      </trkpt>
      <trkpt lat="42.430897" lon="1.675575">
        <ele>1976.882</ele>
        <time>2019-05-31T10:58:25Z</time>
      </trkpt>
      <trkpt lat="42.430894" lon="1.675593">
        <ele>1977.043</ele>
        <time>2019-05-31T10:58:26Z</time>
      </trkpt>
      <trkpt lat="42.430897" lon="1.675680">
        <ele>1977.217</ele>
        <time>2019-05-31T10:58:31Z</time>
      </trkpt>
      <trkpt lat="42.430923" lon="1.675775">
        <ele>1977.608</ele>
        <time>2019-05-31T10:58:36Z</time>
      </trkpt>
      <trkpt lat="42.430921" lon="1.675813">
        <ele>1977.831</ele>
        <time>2019-05-31T10:58:38Z</time>
      </trkpt>
      <trkpt lat="42.430918" lon="1.675848">
        <ele>1978.065</ele>
        <time>2019-05-31T10:58:40Z</time>
      </trkpt>
      <trkpt lat="42.430922" lon="1.675865">
        <ele>1978.011</ele>
        <time>2019-05-31T10:58:41Z</time>
      </trkpt>
      <trkpt lat="42.430925" lon="1.675886">
        <ele>1978.279</ele>
        <time>2019-05-31T10:58:42Z</time>
      </trkpt>
      <trkpt lat="42.430929" lon="1.675957">
        <ele>1978.693</ele>
        <time>2019-05-31T10:58:46Z</time>
      </trkpt>
      <trkpt lat="42.430937" lon="1.676012">
        <ele>1978.868</ele>
        <time>2019-05-31T10:58:49Z</time>
      </trkpt>
      <trkpt lat="42.430937" lon="1.676049">
        <ele>1979.032</ele>
        <time>2019-05-31T10:58:51Z</time>
      </trkpt>
      <trkpt lat="42.430937" lon="1.676111">
        <ele>1979.258</ele>
        <time>2019-05-31T10:58:54Z</time>
      </trkpt>
      <trkpt lat="42.430939" lon="1.676130">
        <ele>1979.283</ele>
        <time>2019-05-31T10:58:55Z</time>
      </trkpt>
      <trkpt lat="42.430943" lon="1.676211">
        <ele>1979.625</ele>
        <time>2019-05-31T10:58:59Z</time>
      </trkpt>
      <trkpt lat="42.430942" lon="1.676274">
        <ele>1979.817</ele>
        <time>2019-05-31T10:59:02Z</time>
      </trkpt>
      <trkpt lat="42.430941" lon="1.676313">
        <ele>1980.208</ele>
        <time>2019-05-31T10:59:04Z</time>
      </trkpt>
      <trkpt lat="42.430938" lon="1.676351">
        <ele>1980.451</ele>
        <time>2019-05-31T10:59:06Z</time>
      </trkpt>
      <trkpt lat="42.430926" lon="1.676370">
        <ele>1980.625</ele>
        <time>2019-05-31T10:59:07Z</time>
      </trkpt>
      <trkpt lat="42.430924" lon="1.676389">
        <ele>1980.661</ele>
        <time>2019-05-31T10:59:08Z</time>
      </trkpt>
      <trkpt lat="42.430904" lon="1.676497">
        <ele>1981.099</ele>
        <time>2019-05-31T10:59:13Z</time>
      </trkpt>
      <trkpt lat="42.430901" lon="1.676538">
        <ele>1981.273</ele>
        <time>2019-05-31T10:59:15Z</time>
      </trkpt>
      <trkpt lat="42.430898" lon="1.676608">
        <ele>1981.698</ele>
        <time>2019-05-31T10:59:19Z</time>
      </trkpt>
      <trkpt lat="42.430903" lon="1.676631">
        <ele>1981.812</ele>
        <time>2019-05-31T10:59:20Z</time>
      </trkpt>
      <trkpt lat="42.430899" lon="1.676711">
        <ele>1982.038</ele>
        <time>2019-05-31T10:59:25Z</time>
      </trkpt>
      <trkpt lat="42.430898" lon="1.676732">
        <ele>1982.295</ele>
        <time>2019-05-31T10:59:26Z</time>
      </trkpt>
      <trkpt lat="42.430897" lon="1.676772">
        <ele>1982.449</ele>
        <time>2019-05-31T10:59:28Z</time>
      </trkpt>
      <trkpt lat="42.430912" lon="1.676850">
        <ele>1983.023</ele>
        <time>2019-05-31T10:59:32Z</time>
      </trkpt>
      <trkpt lat="42.430936" lon="1.676947">
        <ele>1983.408</ele>
        <time>2019-05-31T10:59:37Z</time>
      </trkpt>
      <trkpt lat="42.430935" lon="1.676964">
        <ele>1983.422</ele>
        <time>2019-05-31T10:59:38Z</time>
      </trkpt>
      <trkpt lat="42.430965" lon="1.677072">
        <ele>1984.266</ele>
        <time>2019-05-31T10:59:44Z</time>
      </trkpt>
      <trkpt lat="42.430982" lon="1.677105">
        <ele>1984.662</ele>
        <time>2019-05-31T10:59:46Z</time>
      </trkpt>
      <trkpt lat="42.431041" lon="1.677233">
        <ele>1985.070</ele>
        <time>2019-05-31T10:59:53Z</time>
      </trkpt>
      <trkpt lat="42.431065" lon="1.677312">
        <ele>1985.694</ele>
        <time>2019-05-31T10:59:57Z</time>
      </trkpt>
      <trkpt lat="42.431069" lon="1.677403">
        <ele>1986.029</ele>
        <time>2019-05-31T11:00:01Z</time>
      </trkpt>
      <trkpt lat="42.431063" lon="1.677498">
        <ele>1986.683</ele>
        <time>2019-05-31T11:00:05Z</time>
      </trkpt>
      <trkpt lat="42.431073" lon="1.677586">
        <ele>1986.889</ele>
        <time>2019-05-31T11:00:09Z</time>
      </trkpt>
      <trkpt lat="42.431106" lon="1.677748">
        <ele>1987.412</ele>
        <time>2019-05-31T11:00:17Z</time>
      </trkpt>
      <trkpt lat="42.431110" lon="1.677788">
        <ele>1987.832</ele>
        <time>2019-05-31T11:00:19Z</time>
      </trkpt>
      <trkpt lat="42.431118" lon="1.677824">
        <ele>1988.005</ele>
        <time>2019-05-31T11:00:21Z</time>
      </trkpt>
      <trkpt lat="42.431133" lon="1.677860">
        <ele>1988.208</ele>
        <time>2019-05-31T11:00:23Z</time>
      </trkpt>
      <trkpt lat="42.431162" lon="1.677952">
        <ele>1988.654</ele>
        <time>2019-05-31T11:00:28Z</time>
      </trkpt>
      <trkpt lat="42.431175" lon="1.677965">
        <ele>1988.858</ele>
        <time>2019-05-31T11:00:29Z</time>
      </trkpt>
      <trkpt lat="42.431191" lon="1.677997">
        <ele>1988.874</ele>
        <time>2019-05-31T11:00:31Z</time>
      </trkpt>
      <trkpt lat="42.431212" lon="1.678040">
        <ele>1989.262</ele>
        <time>2019-05-31T11:00:34Z</time>
      </trkpt>
      <trkpt lat="42.431223" lon="1.678078">
        <ele>1989.896</ele>
        <time>2019-05-31T11:00:36Z</time>
      </trkpt>
      <trkpt lat="42.431231" lon="1.678094">
        <ele>1990.011</ele>
        <time>2019-05-31T11:00:37Z</time>
      </trkpt>
      <trkpt lat="42.431291" lon="1.678187">
        <ele>1990.895</ele>
        <time>2019-05-31T11:00:44Z</time>
      </trkpt>
      <trkpt lat="42.431300" lon="1.678197">
        <ele>1991.041</ele>
        <time>2019-05-31T11:00:45Z</time>
      </trkpt>
      <trkpt lat="42.431382" lon="1.678247">
        <ele>1991.664</ele>
        <time>2019-05-31T11:00:52Z</time>
      </trkpt>
      <trkpt lat="42.431441" lon="1.678258">
        <ele>1992.206</ele>
        <time>2019-05-31T11:00:57Z</time>
      </trkpt>
      <trkpt lat="42.431468" lon="1.678259">
        <ele>1992.416</ele>
        <time>2019-05-31T11:00:59Z</time>
      </trkpt>
      <trkpt lat="42.432180" lon="1.678197">
        <ele>1998.408</ele>
        <time>2019-05-31T11:01:53Z</time>
      </trkpt>
      <trkpt lat="42.432207" lon="1.678181">
        <ele>1998.489</ele>
        <time>2019-05-31T11:01:55Z</time>
      </trkpt>
      <trkpt lat="42.432547" lon="1.678097">
        <ele>2001.293</ele>
        <time>2019-05-31T11:02:21Z</time>
      </trkpt>
      <trkpt lat="42.432636" lon="1.678033">
        <ele>2001.879</ele>
        <time>2019-05-31T11:02:27Z</time>
      </trkpt>
      <trkpt lat="42.432666" lon="1.677996">
        <ele>2002.247</ele>
        <time>2019-05-31T11:02:30Z</time>
      </trkpt>
      <trkpt lat="42.432716" lon="1.677970">
        <ele>2002.881</ele>
        <time>2019-05-31T11:02:35Z</time>
      </trkpt>
      <trkpt lat="42.432746" lon="1.677947">
        <ele>2003.216</ele>
        <time>2019-05-31T11:02:38Z</time>
      </trkpt>
      <trkpt lat="42.432800" lon="1.677913">
        <ele>2003.430</ele>
        <time>2019-05-31T11:02:42Z</time>
      </trkpt>
      <trkpt lat="42.432815" lon="1.677907">
        <ele>2003.496</ele>
        <time>2019-05-31T11:02:43Z</time>
      </trkpt>
      <trkpt lat="42.433576" lon="1.677610">
        <ele>2010.697</ele>
        <time>2019-05-31T11:03:45Z</time>
      </trkpt>
      <trkpt lat="42.433592" lon="1.677603">
        <ele>2010.823</ele>
        <time>2019-05-31T11:03:46Z</time>
      </trkpt>
      <trkpt lat="42.433650" lon="1.677590">
        <ele>2011.225</ele>
        <time>2019-05-31T11:03:52Z</time>
      </trkpt>
      <trkpt lat="42.434835" lon="1.677515">
        <ele>2020.808</ele>
        <time>2019-05-31T11:05:21Z</time>
      </trkpt>
      <trkpt lat="42.434884" lon="1.677506">
        <ele>2020.882</ele>
        <time>2019-05-31T11:05:24Z</time>
      </trkpt>
      <trkpt lat="42.434969" lon="1.677462">
        <ele>2022.096</ele>
        <time>2019-05-31T11:05:31Z</time>
      </trkpt>
      <trkpt lat="42.434984" lon="1.677453">
        <ele>2022.092</ele>
        <time>2019-05-31T11:05:32Z</time>
      </trkpt>
      <trkpt lat="42.435088" lon="1.677417">
        <ele>2022.410</ele>
        <time>2019-05-31T11:05:40Z</time>
      </trkpt>
      <trkpt lat="42.435175" lon="1.677394">
        <ele>2024.234</ele>
        <time>2019-05-31T11:05:47Z</time>
      </trkpt>
      <trkpt lat="42.435268" lon="1.677348">
        <ele>2023.839</ele>
        <time>2019-05-31T11:05:54Z</time>
      </trkpt>
      <trkpt lat="42.435355" lon="1.677316">
        <ele>2024.483</ele>
        <time>2019-05-31T11:06:01Z</time>
      </trkpt>
      <trkpt lat="42.435458" lon="1.677279">
        <ele>2025.099</ele>
        <time>2019-05-31T11:06:09Z</time>
      </trkpt>
      <trkpt lat="42.435483" lon="1.677270">
        <ele>2025.499</ele>
        <time>2019-05-31T11:06:11Z</time>
      </trkpt>
      <trkpt lat="42.435559" lon="1.677245">
        <ele>2025.807</ele>
        <time>2019-05-31T11:06:16Z</time>
      </trkpt>
      <trkpt lat="42.435622" lon="1.677216">
        <ele>2026.427</ele>
        <time>2019-05-31T11:06:21Z</time>
      </trkpt>
      <trkpt lat="42.435660" lon="1.677210">
        <ele>2026.808</ele>
        <time>2019-05-31T11:06:24Z</time>
      </trkpt>
      <trkpt lat="42.435753" lon="1.677172">
        <ele>2027.492</ele>
        <time>2019-05-31T11:06:31Z</time>
      </trkpt>
      <trkpt lat="42.435769" lon="1.677163">
        <ele>2027.676</ele>
        <time>2019-05-31T11:06:32Z</time>
      </trkpt>
      <trkpt lat="42.435853" lon="1.677105">
        <ele>2028.492</ele>
        <time>2019-05-31T11:06:39Z</time>
      </trkpt>
      <trkpt lat="42.435896" lon="1.677065">
        <ele>2028.450</ele>
        <time>2019-05-31T11:06:43Z</time>
      </trkpt>
      <trkpt lat="42.435922" lon="1.677046">
        <ele>2028.654</ele>
        <time>2019-05-31T11:06:45Z</time>
      </trkpt>
      <trkpt lat="42.436012" lon="1.676930">
        <ele>2029.069</ele>
        <time>2019-05-31T11:06:53Z</time>
      </trkpt>
      <trkpt lat="42.436061" lon="1.676822">
        <ele>2029.473</ele>
        <time>2019-05-31T11:06:59Z</time>
      </trkpt>
      <trkpt lat="42.436079" lon="1.676788">
        <ele>2029.669</ele>
        <time>2019-05-31T11:07:01Z</time>
      </trkpt>
      <trkpt lat="42.436139" lon="1.676683">
        <ele>2030.069</ele>
        <time>2019-05-31T11:07:07Z</time>
      </trkpt>
      <trkpt lat="42.436204" lon="1.676582">
        <ele>2030.404</ele>
        <time>2019-05-31T11:07:13Z</time>
      </trkpt>
      <trkpt lat="42.436253" lon="1.676513">
        <ele>2030.624</ele>
        <time>2019-05-31T11:07:17Z</time>
      </trkpt>
      <trkpt lat="42.436278" lon="1.676469">
        <ele>2030.808</ele>
        <time>2019-05-31T11:07:19Z</time>
      </trkpt>
      <trkpt lat="42.436347" lon="1.676341">
        <ele>2031.289</ele>
        <time>2019-05-31T11:07:25Z</time>
      </trkpt>
      <trkpt lat="42.436367" lon="1.676300">
        <ele>2031.633</ele>
        <time>2019-05-31T11:07:27Z</time>
      </trkpt>
      <trkpt lat="42.436441" lon="1.676165">
        <ele>2031.889</ele>
        <time>2019-05-31T11:07:34Z</time>
      </trkpt>
      <trkpt lat="42.436518" lon="1.676026">
        <ele>2032.417</ele>
        <time>2019-05-31T11:07:43Z</time>
      </trkpt>
      <trkpt lat="42.436518" lon="1.675968">
        <ele>2032.831</ele>
        <time>2019-05-31T11:07:46Z</time>
      </trkpt>
      <trkpt lat="42.436543" lon="1.675926">
        <ele>2032.896</ele>
        <time>2019-05-31T11:07:49Z</time>
      </trkpt>
      <trkpt lat="42.436618" lon="1.675809">
        <ele>2033.410</ele>
        <time>2019-05-31T11:07:56Z</time>
      </trkpt>
      <trkpt lat="42.436668" lon="1.675744">
        <ele>2033.816</ele>
        <time>2019-05-31T11:08:00Z</time>
      </trkpt>
      <trkpt lat="42.436690" lon="1.675704">
        <ele>2034.088</ele>
        <time>2019-05-31T11:08:03Z</time>
      </trkpt>
      <trkpt lat="42.436720" lon="1.675621">
        <ele>2034.624</ele>
        <time>2019-05-31T11:08:09Z</time>
      </trkpt>
      <trkpt lat="42.436741" lon="1.675573">
        <ele>2034.826</ele>
        <time>2019-05-31T11:08:13Z</time>
      </trkpt>
      <trkpt lat="42.436759" lon="1.675521">
        <ele>2035.208</ele>
        <time>2019-05-31T11:08:17Z</time>
      </trkpt>
      <trkpt lat="42.437092" lon="1.675187">
        <ele>2038.661</ele>
        <time>2019-05-31T11:08:45Z</time>
      </trkpt>
      <trkpt lat="42.437103" lon="1.675180">
        <ele>2038.815</ele>
        <time>2019-05-31T11:08:46Z</time>
      </trkpt>
      <trkpt lat="42.437155" lon="1.675104">
        <ele>2039.691</ele>
        <time>2019-05-31T11:08:52Z</time>
      </trkpt>
      <trkpt lat="42.437166" lon="1.675073">
        <ele>2039.879</ele>
        <time>2019-05-31T11:08:54Z</time>
      </trkpt>
      <trkpt lat="42.437273" lon="1.674785">
        <ele>2042.093</ele>
        <time>2019-05-31T11:09:14Z</time>
      </trkpt>
      <trkpt lat="42.437354" lon="1.674732">
        <ele>2042.498</ele>
        <time>2019-05-31T11:09:18Z</time>
      </trkpt>
      <trkpt lat="42.437384" lon="1.674682">
        <ele>2042.262</ele>
        <time>2019-05-31T11:09:21Z</time>
      </trkpt>
      <trkpt lat="42.437401" lon="1.674638">
        <ele>2043.058</ele>
        <time>2019-05-31T11:09:24Z</time>
      </trkpt>
      <trkpt lat="42.437419" lon="1.674579">
        <ele>2044.491</ele>
        <time>2019-05-31T11:09:28Z</time>
      </trkpt>
      <trkpt lat="42.437426" lon="1.674551">
        <ele>2044.481</ele>
        <time>2019-05-31T11:09:30Z</time>
      </trkpt>
      <trkpt lat="42.437451" lon="1.674439">
        <ele>2044.819</ele>
        <time>2019-05-31T11:09:37Z</time>
      </trkpt>
      <trkpt lat="42.437436" lon="1.674367">
        <ele>2045.208</ele>
        <time>2019-05-31T11:09:41Z</time>
      </trkpt>
      <trkpt lat="42.437441" lon="1.674327">
        <ele>2045.252</ele>
        <time>2019-05-31T11:09:43Z</time>
      </trkpt>
      <trkpt lat="42.437451" lon="1.674281">
        <ele>2045.636</ele>
        <time>2019-05-31T11:09:46Z</time>
      </trkpt>
      <trkpt lat="42.437463" lon="1.674247">
        <ele>2045.642</ele>
        <time>2019-05-31T11:09:48Z</time>
      </trkpt>
      <trkpt lat="42.437550" lon="1.674119">
        <ele>2046.210</ele>
        <time>2019-05-31T11:09:55Z</time>
      </trkpt>
      <trkpt lat="42.437564" lon="1.674104">
        <ele>2047.094</ele>
        <time>2019-05-31T11:09:56Z</time>
      </trkpt>
      <trkpt lat="42.437597" lon="1.674052">
        <ele>2047.089</ele>
        <time>2019-05-31T11:09:59Z</time>
      </trkpt>
      <trkpt lat="42.437632" lon="1.673976">
        <ele>2046.843</ele>
        <time>2019-05-31T11:10:03Z</time>
      </trkpt>
      <trkpt lat="42.437641" lon="1.673952">
        <ele>2047.039</ele>
        <time>2019-05-31T11:10:04Z</time>
      </trkpt>
      <trkpt lat="42.437656" lon="1.673883">
        <ele>2047.487</ele>
        <time>2019-05-31T11:10:08Z</time>
      </trkpt>
      <trkpt lat="42.437640" lon="1.673742">
        <ele>2048.042</ele>
        <time>2019-05-31T11:10:15Z</time>
      </trkpt>
      <trkpt lat="42.437657" lon="1.673728">
        <ele>2048.226</ele>
        <time>2019-05-31T11:10:16Z</time>
      </trkpt>
      <trkpt lat="42.437739" lon="1.673638">
        <ele>2048.208</ele>
        <time>2019-05-31T11:10:21Z</time>
      </trkpt>
      <trkpt lat="42.437751" lon="1.673621">
        <ele>2048.221</ele>
        <time>2019-05-31T11:10:22Z</time>
      </trkpt>
      <trkpt lat="42.437829" lon="1.673484">
        <ele>2048.445</ele>
        <time>2019-05-31T11:10:29Z</time>
      </trkpt>
      <trkpt lat="42.437861" lon="1.673365">
        <ele>2048.871</ele>
        <time>2019-05-31T11:10:35Z</time>
      </trkpt>
      <trkpt lat="42.437875" lon="1.673286">
        <ele>2049.279</ele>
        <time>2019-05-31T11:10:39Z</time>
      </trkpt>
      <trkpt lat="42.437886" lon="1.673230">
        <ele>2049.653</ele>
        <time>2019-05-31T11:10:42Z</time>
      </trkpt>
      <trkpt lat="42.437891" lon="1.673104">
        <ele>2050.278</ele>
        <time>2019-05-31T11:10:48Z</time>
      </trkpt>
      <trkpt lat="42.437894" lon="1.673087">
        <ele>2050.252</ele>
        <time>2019-05-31T11:10:49Z</time>
      </trkpt>
      <trkpt lat="42.437933" lon="1.672947">
        <ele>2050.828</ele>
        <time>2019-05-31T11:10:56Z</time>
      </trkpt>
      <trkpt lat="42.437966" lon="1.672840">
        <ele>2051.278</ele>
        <time>2019-05-31T11:11:02Z</time>
      </trkpt>
      <trkpt lat="42.437980" lon="1.672808">
        <ele>2051.633</ele>
        <time>2019-05-31T11:11:04Z</time>
      </trkpt>
      <trkpt lat="42.438031" lon="1.672700">
        <ele>2052.226</ele>
        <time>2019-05-31T11:11:11Z</time>
      </trkpt>
      <trkpt lat="42.438060" lon="1.672663">
        <ele>2052.408</ele>
        <time>2019-05-31T11:11:14Z</time>
      </trkpt>
      <trkpt lat="42.438104" lon="1.672629">
        <ele>2053.010</ele>
        <time>2019-05-31T11:11:18Z</time>
      </trkpt>
      <trkpt lat="42.438174" lon="1.672600">
        <ele>2053.674</ele>
        <time>2019-05-31T11:11:24Z</time>
      </trkpt>
      <trkpt lat="42.438183" lon="1.672593">
        <ele>2053.640</ele>
        <time>2019-05-31T11:11:25Z</time>
      </trkpt>
      <trkpt lat="42.438252" lon="1.672573">
        <ele>2054.028</ele>
        <time>2019-05-31T11:11:30Z</time>
      </trkpt>
      <trkpt lat="42.438289" lon="1.672561">
        <ele>2054.632</ele>
        <time>2019-05-31T11:11:33Z</time>
      </trkpt>
      <trkpt lat="42.438345" lon="1.672535">
        <ele>2054.847</ele>
        <time>2019-05-31T11:11:38Z</time>
      </trkpt>
      <trkpt lat="42.438371" lon="1.672528">
        <ele>2055.041</ele>
        <time>2019-05-31T11:11:40Z</time>
      </trkpt>
      <trkpt lat="42.438415" lon="1.672503">
        <ele>2055.047</ele>
        <time>2019-05-31T11:11:44Z</time>
      </trkpt>
      <trkpt lat="42.438459" lon="1.672480">
        <ele>2055.892</ele>
        <time>2019-05-31T11:11:48Z</time>
      </trkpt>
      <trkpt lat="42.438475" lon="1.672477">
        <ele>2055.873</ele>
        <time>2019-05-31T11:11:49Z</time>
      </trkpt>
      <trkpt lat="42.438505" lon="1.672468">
        <ele>2055.820</ele>
        <time>2019-05-31T11:11:51Z</time>
      </trkpt>
      <trkpt lat="42.438547" lon="1.672460">
        <ele>2056.008</ele>
        <time>2019-05-31T11:11:54Z</time>
      </trkpt>
      <trkpt lat="42.438599" lon="1.672445">
        <ele>2056.432</ele>
        <time>2019-05-31T11:11:58Z</time>
      </trkpt>
      <trkpt lat="42.438655" lon="1.672427">
        <ele>2057.086</ele>
        <time>2019-05-31T11:12:02Z</time>
      </trkpt>
      <trkpt lat="42.438694" lon="1.672410">
        <ele>2057.242</ele>
        <time>2019-05-31T11:12:05Z</time>
      </trkpt>
      <trkpt lat="42.438787" lon="1.672379">
        <ele>2057.840</ele>
        <time>2019-05-31T11:12:12Z</time>
      </trkpt>
      <trkpt lat="42.438799" lon="1.672380">
        <ele>2058.084</ele>
        <time>2019-05-31T11:12:13Z</time>
      </trkpt>
      <trkpt lat="42.438861" lon="1.672361">
        <ele>2058.459</ele>
        <time>2019-05-31T11:12:18Z</time>
      </trkpt>
      <trkpt lat="42.438925" lon="1.672354">
        <ele>2059.073</ele>
        <time>2019-05-31T11:12:22Z</time>
      </trkpt>
      <trkpt lat="42.438986" lon="1.672361">
        <ele>2059.669</ele>
        <time>2019-05-31T11:12:27Z</time>
      </trkpt>
      <trkpt lat="42.439054" lon="1.672368">
        <ele>2060.215</ele>
        <time>2019-05-31T11:12:32Z</time>
      </trkpt>
      <trkpt lat="42.439065" lon="1.672359">
        <ele>2060.465</ele>
        <time>2019-05-31T11:12:33Z</time>
      </trkpt>
      <trkpt lat="42.439083" lon="1.672336">
        <ele>2060.811</ele>
        <time>2019-05-31T11:12:35Z</time>
      </trkpt>
      <trkpt lat="42.439115" lon="1.672289">
        <ele>2061.208</ele>
        <time>2019-05-31T11:12:38Z</time>
      </trkpt>
      <trkpt lat="42.439122" lon="1.672267">
        <ele>2061.424</ele>
        <time>2019-05-31T11:12:39Z</time>
      </trkpt>
      <trkpt lat="42.439132" lon="1.672250">
        <ele>2061.478</ele>
        <time>2019-05-31T11:12:40Z</time>
      </trkpt>
      <trkpt lat="42.439121" lon="1.672116">
        <ele>2061.224</ele>
        <time>2019-05-31T11:12:47Z</time>
      </trkpt>
      <trkpt lat="42.439067" lon="1.672020">
        <ele>2061.642</ele>
        <time>2019-05-31T11:12:54Z</time>
      </trkpt>
      <trkpt lat="42.439000" lon="1.671935">
        <ele>2062.246</ele>
        <time>2019-05-31T11:13:00Z</time>
      </trkpt>
      <trkpt lat="42.438983" lon="1.671910">
        <ele>2062.451</ele>
        <time>2019-05-31T11:13:02Z</time>
      </trkpt>
      <trkpt lat="42.438952" lon="1.671849">
        <ele>2062.275</ele>
        <time>2019-05-31T11:13:06Z</time>
      </trkpt>
      <trkpt lat="42.438908" lon="1.671745">
        <ele>2063.281</ele>
        <time>2019-05-31T11:13:12Z</time>
      </trkpt>
      <trkpt lat="42.438899" lon="1.671706">
        <ele>2063.624</ele>
        <time>2019-05-31T11:13:14Z</time>
      </trkpt>
      <trkpt lat="42.438883" lon="1.671578">
        <ele>2064.404</ele>
        <time>2019-05-31T11:13:20Z</time>
      </trkpt>
      <trkpt lat="42.438888" lon="1.671491">
        <ele>2064.614</ele>
        <time>2019-05-31T11:13:24Z</time>
      </trkpt>
      <trkpt lat="42.438890" lon="1.671381">
        <ele>2064.008</ele>
        <time>2019-05-31T11:13:29Z</time>
      </trkpt>
      <trkpt lat="42.438906" lon="1.671232">
        <ele>2064.655</ele>
        <time>2019-05-31T11:13:35Z</time>
      </trkpt>
      <trkpt lat="42.438940" lon="1.670966">
        <ele>2064.859</ele>
        <time>2019-05-31T11:13:44Z</time>
      </trkpt>
      <trkpt lat="42.438957" lon="1.670743">
        <ele>2065.415</ele>
        <time>2019-05-31T11:13:52Z</time>
      </trkpt>
      <trkpt lat="42.438959" lon="1.670716">
        <ele>2065.493</ele>
        <time>2019-05-31T11:13:53Z</time>
      </trkpt>
      <trkpt lat="42.438956" lon="1.670588">
        <ele>2065.677</ele>
        <time>2019-05-31T11:13:57Z</time>
      </trkpt>
      <trkpt lat="42.438954" lon="1.670553">
        <ele>2065.632</ele>
        <time>2019-05-31T11:13:58Z</time>
      </trkpt>
      <trkpt lat="42.438983" lon="1.670264">
        <ele>2065.636</ele>
        <time>2019-05-31T11:14:06Z</time>
      </trkpt>
      <trkpt lat="42.439034" lon="1.670002">
        <ele>2066.092</ele>
        <time>2019-05-31T11:14:13Z</time>
      </trkpt>
      <trkpt lat="42.439082" lon="1.669772">
        <ele>2066.268</ele>
        <time>2019-05-31T11:14:20Z</time>
      </trkpt>
      <trkpt lat="42.439088" lon="1.669738">
        <ele>2066.642</ele>
        <time>2019-05-31T11:14:21Z</time>
      </trkpt>
      <trkpt lat="42.439109" lon="1.669517">
        <ele>2065.626</ele>
        <time>2019-05-31T11:14:28Z</time>
      </trkpt>
      <trkpt lat="42.439137" lon="1.669304">
        <ele>2066.208</ele>
        <time>2019-05-31T11:14:34Z</time>
      </trkpt>
      <trkpt lat="42.439195" lon="1.668994">
        <ele>2066.449</ele>
        <time>2019-05-31T11:14:42Z</time>
      </trkpt>
      <trkpt lat="42.439217" lon="1.668853">
        <ele>2066.653</ele>
        <time>2019-05-31T11:14:45Z</time>
      </trkpt>
      <trkpt lat="42.439251" lon="1.668634">
        <ele>2067.089</ele>
        <time>2019-05-31T11:14:50Z</time>
      </trkpt>
      <trkpt lat="42.439296" lon="1.668335">
        <ele>2067.257</ele>
        <time>2019-05-31T11:14:57Z</time>
      </trkpt>
      <trkpt lat="42.439367" lon="1.668019">
        <ele>2067.221</ele>
        <time>2019-05-31T11:15:05Z</time>
      </trkpt>
      <trkpt lat="42.439466" lon="1.667743">
        <ele>2067.696</ele>
        <time>2019-05-31T11:15:13Z</time>
      </trkpt>
      <trkpt lat="42.439566" lon="1.667486">
        <ele>2068.260</ele>
        <time>2019-05-31T11:15:20Z</time>
      </trkpt>
      <trkpt lat="42.439640" lon="1.667258">
        <ele>2068.676</ele>
        <time>2019-05-31T11:15:26Z</time>
      </trkpt>
      <trkpt lat="42.439677" lon="1.667178">
        <ele>2068.819</ele>
        <time>2019-05-31T11:15:28Z</time>
      </trkpt>
      <trkpt lat="42.439753" lon="1.666951">
        <ele>2069.209</ele>
        <time>2019-05-31T11:15:34Z</time>
      </trkpt>
      <trkpt lat="42.439868" lon="1.666740">
        <ele>2069.219</ele>
        <time>2019-05-31T11:15:41Z</time>
      </trkpt>
      <trkpt lat="42.439938" lon="1.666644">
        <ele>2069.608</ele>
        <time>2019-05-31T11:15:45Z</time>
      </trkpt>
      <trkpt lat="42.439973" lon="1.666588">
        <ele>2069.834</ele>
        <time>2019-05-31T11:15:47Z</time>
      </trkpt>
      <trkpt lat="42.440131" lon="1.666394">
        <ele>2070.048</ele>
        <time>2019-05-31T11:15:54Z</time>
      </trkpt>
      <trkpt lat="42.440316" lon="1.666200">
        <ele>2070.024</ele>
        <time>2019-05-31T11:16:02Z</time>
      </trkpt>
      <trkpt lat="42.440417" lon="1.666001">
        <ele>2070.482</ele>
        <time>2019-05-31T11:16:09Z</time>
      </trkpt>
      <trkpt lat="42.440476" lon="1.665848">
        <ele>2070.466</ele>
        <time>2019-05-31T11:16:15Z</time>
      </trkpt>
      <trkpt lat="42.440489" lon="1.665805">
        <ele>2070.891</ele>
        <time>2019-05-31T11:16:17Z</time>
      </trkpt>
      <trkpt lat="42.440527" lon="1.665697">
        <ele>2070.845</ele>
        <time>2019-05-31T11:16:21Z</time>
      </trkpt>
      <trkpt lat="42.440601" lon="1.665490">
        <ele>2071.421</ele>
        <time>2019-05-31T11:16:29Z</time>
      </trkpt>
      <trkpt lat="42.440655" lon="1.665296">
        <ele>2071.495</ele>
        <time>2019-05-31T11:16:36Z</time>
      </trkpt>
      <trkpt lat="42.440720" lon="1.665052">
        <ele>2072.049</ele>
        <time>2019-05-31T11:16:45Z</time>
      </trkpt>
      <trkpt lat="42.440772" lon="1.664849">
        <ele>2072.223</ele>
        <time>2019-05-31T11:16:52Z</time>
      </trkpt>
      <trkpt lat="42.440796" lon="1.664603">
        <ele>2072.608</ele>
        <time>2019-05-31T11:17:00Z</time>
      </trkpt>
      <trkpt lat="42.440808" lon="1.664519">
        <ele>2073.022</ele>
        <time>2019-05-31T11:17:03Z</time>
      </trkpt>
      <trkpt lat="42.440816" lon="1.664409">
        <ele>2073.666</ele>
        <time>2019-05-31T11:17:07Z</time>
      </trkpt>
      <trkpt lat="42.440822" lon="1.664276">
        <ele>2074.032</ele>
        <time>2019-05-31T11:17:12Z</time>
      </trkpt>
      <trkpt lat="42.440808" lon="1.664207">
        <ele>2074.430</ele>
        <time>2019-05-31T11:17:15Z</time>
      </trkpt>
      <trkpt lat="42.440768" lon="1.664076">
        <ele>2074.254</ele>
        <time>2019-05-31T11:17:21Z</time>
      </trkpt>
      <trkpt lat="42.440697" lon="1.663928">
        <ele>2074.849</ele>
        <time>2019-05-31T11:17:29Z</time>
      </trkpt>
      <trkpt lat="42.440682" lon="1.663886">
        <ele>2075.033</ele>
        <time>2019-05-31T11:17:31Z</time>
      </trkpt>
      <trkpt lat="42.440639" lon="1.663763">
        <ele>2075.249</ele>
        <time>2019-05-31T11:17:37Z</time>
      </trkpt>
      <trkpt lat="42.440604" lon="1.663594">
        <ele>2075.866</ele>
        <time>2019-05-31T11:17:44Z</time>
      </trkpt>
      <trkpt lat="42.440591" lon="1.663503">
        <ele>2076.229</ele>
        <time>2019-05-31T11:17:48Z</time>
      </trkpt>
      <trkpt lat="42.440576" lon="1.663430">
        <ele>2076.221</ele>
        <time>2019-05-31T11:17:51Z</time>
      </trkpt>
      <trkpt lat="42.440540" lon="1.663272">
        <ele>2076.808</ele>
        <time>2019-05-31T11:17:58Z</time>
      </trkpt>
      <trkpt lat="42.440462" lon="1.663149">
        <ele>2076.639</ele>
        <time>2019-05-31T11:18:04Z</time>
      </trkpt>
      <trkpt lat="42.440381" lon="1.663020">
        <ele>2077.273</ele>
        <time>2019-05-31T11:18:11Z</time>
      </trkpt>
      <trkpt lat="42.440355" lon="1.662981">
        <ele>2077.229</ele>
        <time>2019-05-31T11:18:13Z</time>
      </trkpt>
      <trkpt lat="42.440264" lon="1.662835">
        <ele>2077.887</ele>
        <time>2019-05-31T11:18:20Z</time>
      </trkpt>
      <trkpt lat="42.440221" lon="1.662645">
        <ele>2077.841</ele>
        <time>2019-05-31T11:18:27Z</time>
      </trkpt>
      <trkpt lat="42.440198" lon="1.662477">
        <ele>2078.276</ele>
        <time>2019-05-31T11:18:33Z</time>
      </trkpt>
      <trkpt lat="42.440193" lon="1.662449">
        <ele>2078.450</ele>
        <time>2019-05-31T11:18:34Z</time>
      </trkpt>
      <trkpt lat="42.440135" lon="1.662235">
        <ele>2078.826</ele>
        <time>2019-05-31T11:18:42Z</time>
      </trkpt>
      <trkpt lat="42.440118" lon="1.662148">
        <ele>2079.426</ele>
        <time>2019-05-31T11:18:45Z</time>
      </trkpt>
      <trkpt lat="42.440102" lon="1.661980">
        <ele>2079.447</ele>
        <time>2019-05-31T11:18:51Z</time>
      </trkpt>
      <trkpt lat="42.440109" lon="1.661779">
        <ele>2079.811</ele>
        <time>2019-05-31T11:18:58Z</time>
      </trkpt>
      <trkpt lat="42.440145" lon="1.661620">
        <ele>2080.408</ele>
        <time>2019-05-31T11:19:04Z</time>
      </trkpt>
      <trkpt lat="42.440156" lon="1.661603">
        <ele>2080.465</ele>
        <time>2019-05-31T11:19:05Z</time>
      </trkpt>
      <trkpt lat="42.440188" lon="1.661573">
        <ele>2080.469</ele>
        <time>2019-05-31T11:19:07Z</time>
      </trkpt>
      <trkpt lat="42.440232" lon="1.661546">
        <ele>2080.445</ele>
        <time>2019-05-31T11:19:09Z</time>
      </trkpt>
      <trkpt lat="42.440363" lon="1.661435">
        <ele>2080.453</ele>
        <time>2019-05-31T11:19:15Z</time>
      </trkpt>
      <trkpt lat="42.440463" lon="1.661340">
        <ele>2080.437</ele>
        <time>2019-05-31T11:19:20Z</time>
      </trkpt>
      <trkpt lat="42.440487" lon="1.661332">
        <ele>2080.462</ele>
        <time>2019-05-31T11:19:21Z</time>
      </trkpt>
      <trkpt lat="42.440613" lon="1.661256">
        <ele>2080.246</ele>
        <time>2019-05-31T11:19:25Z</time>
      </trkpt>
      <trkpt lat="42.440644" lon="1.661231">
        <ele>2080.252</ele>
        <time>2019-05-31T11:19:26Z</time>
      </trkpt>
      <trkpt lat="42.440731" lon="1.661103">
        <ele>2080.059</ele>
        <time>2019-05-31T11:19:30Z</time>
      </trkpt>
      <trkpt lat="42.440745" lon="1.660933">
        <ele>2079.603</ele>
        <time>2019-05-31T11:19:34Z</time>
      </trkpt>
      <trkpt lat="42.440754" lon="1.660778">
        <ele>2079.223</ele>
        <time>2019-05-31T11:19:38Z</time>
      </trkpt>
      <trkpt lat="42.440767" lon="1.660689">
        <ele>2079.208</ele>
        <time>2019-05-31T11:19:40Z</time>
      </trkpt>
      <trkpt lat="42.440800" lon="1.660474">
        <ele>2078.278</ele>
        <time>2019-05-31T11:19:44Z</time>
      </trkpt>
      <trkpt lat="42.440818" lon="1.660302">
        <ele>2078.062</ele>
        <time>2019-05-31T11:19:47Z</time>
      </trkpt>
      <trkpt lat="42.440810" lon="1.660023">
        <ele>2077.648</ele>
        <time>2019-05-31T11:19:52Z</time>
      </trkpt>
      <trkpt lat="42.440811" lon="1.659962">
        <ele>2077.866</ele>
        <time>2019-05-31T11:19:53Z</time>
      </trkpt>
      <trkpt lat="42.440825" lon="1.659838">
        <ele>2076.460</ele>
        <time>2019-05-31T11:19:55Z</time>
      </trkpt>
      <trkpt lat="42.440851" lon="1.659708">
        <ele>2079.285</ele>
        <time>2019-05-31T11:19:57Z</time>
      </trkpt>
      <trkpt lat="42.440863" lon="1.659647">
        <ele>2078.049</ele>
        <time>2019-05-31T11:19:58Z</time>
      </trkpt>
      <trkpt lat="42.440880" lon="1.659582">
        <ele>2078.285</ele>
        <time>2019-05-31T11:19:59Z</time>
      </trkpt>
      <trkpt lat="42.440898" lon="1.659518">
        <ele>2076.485</ele>
        <time>2019-05-31T11:20:00Z</time>
      </trkpt>
      <trkpt lat="42.440950" lon="1.659237">
        <ele>2075.289</ele>
        <time>2019-05-31T11:20:04Z</time>
      </trkpt>
      <trkpt lat="42.440960" lon="1.659089">
        <ele>2075.017</ele>
        <time>2019-05-31T11:20:06Z</time>
      </trkpt>
      <trkpt lat="42.440939" lon="1.658777">
        <ele>2073.808</ele>
        <time>2019-05-31T11:20:10Z</time>
      </trkpt>
      <trkpt lat="42.440936" lon="1.658696">
        <ele>2073.641</ele>
        <time>2019-05-31T11:20:11Z</time>
      </trkpt>
      <trkpt lat="42.440920" lon="1.658613">
        <ele>2073.645</ele>
        <time>2019-05-31T11:20:12Z</time>
      </trkpt>
      <trkpt lat="42.440854" lon="1.658366">
        <ele>2073.091</ele>
        <time>2019-05-31T11:20:15Z</time>
      </trkpt>
      <trkpt lat="42.440835" lon="1.658279">
        <ele>2072.829</ele>
        <time>2019-05-31T11:20:16Z</time>
      </trkpt>
      <trkpt lat="42.440823" lon="1.658190">
        <ele>2072.413</ele>
        <time>2019-05-31T11:20:17Z</time>
      </trkpt>
      <trkpt lat="42.440764" lon="1.658012">
        <ele>2071.488</ele>
        <time>2019-05-31T11:20:19Z</time>
      </trkpt>
      <trkpt lat="42.440629" lon="1.657767">
        <ele>2070.032</ele>
        <time>2019-05-31T11:20:22Z</time>
      </trkpt>
      <trkpt lat="42.440588" lon="1.657688">
        <ele>2070.248</ele>
        <time>2019-05-31T11:20:23Z</time>
      </trkpt>
      <trkpt lat="42.440319" lon="1.657263">
        <ele>2069.678</ele>
        <time>2019-05-31T11:20:29Z</time>
      </trkpt>
      <trkpt lat="42.440028" lon="1.656812">
        <ele>2069.833</ele>
        <time>2019-05-31T11:20:36Z</time>
      </trkpt>
      <trkpt lat="42.439986" lon="1.656757">
        <ele>2069.826</ele>
        <time>2019-05-31T11:20:37Z</time>
      </trkpt>
      <trkpt lat="42.439777" lon="1.656428">
        <ele>2069.608</ele>
        <time>2019-05-31T11:20:43Z</time>
      </trkpt>
      <trkpt lat="42.439673" lon="1.656206">
        <ele>2069.610</ele>
        <time>2019-05-31T11:20:47Z</time>
      </trkpt>
      <trkpt lat="42.439637" lon="1.656101">
        <ele>2069.894</ele>
        <time>2019-05-31T11:20:49Z</time>
      </trkpt>
      <trkpt lat="42.439616" lon="1.655987">
        <ele>2069.810</ele>
        <time>2019-05-31T11:20:51Z</time>
      </trkpt>
      <trkpt lat="42.439576" lon="1.655818">
        <ele>2070.018</ele>
        <time>2019-05-31T11:20:54Z</time>
      </trkpt>
      <trkpt lat="42.439532" lon="1.655580">
        <ele>2069.282</ele>
        <time>2019-05-31T11:20:58Z</time>
      </trkpt>
      <trkpt lat="42.439512" lon="1.655393">
        <ele>2069.627</ele>
        <time>2019-05-31T11:21:01Z</time>
      </trkpt>
      <trkpt lat="42.439502" lon="1.655158">
        <ele>2069.851</ele>
        <time>2019-05-31T11:21:05Z</time>
      </trkpt>
      <trkpt lat="42.439496" lon="1.654947">
        <ele>2070.037</ele>
        <time>2019-05-31T11:21:09Z</time>
      </trkpt>
      <trkpt lat="42.439508" lon="1.654615">
        <ele>2070.275</ele>
        <time>2019-05-31T11:21:16Z</time>
      </trkpt>
      <trkpt lat="42.439553" lon="1.654365">
        <ele>2071.028</ele>
        <time>2019-05-31T11:21:22Z</time>
      </trkpt>
      <trkpt lat="42.439559" lon="1.654324">
        <ele>2071.220</ele>
        <time>2019-05-31T11:21:23Z</time>
      </trkpt>
      <trkpt lat="42.439593" lon="1.654037">
        <ele>2071.408</ele>
        <time>2019-05-31T11:21:31Z</time>
      </trkpt>
      <trkpt lat="42.439626" lon="1.653814">
        <ele>2072.080</ele>
        <time>2019-05-31T11:21:38Z</time>
      </trkpt>
      <trkpt lat="42.439640" lon="1.653753">
        <ele>2072.264</ele>
        <time>2019-05-31T11:21:40Z</time>
      </trkpt>
      <trkpt lat="42.439665" lon="1.653526">
        <ele>2073.260</ele>
        <time>2019-05-31T11:21:47Z</time>
      </trkpt>
      <trkpt lat="42.439668" lon="1.653490">
        <ele>2073.438</ele>
        <time>2019-05-31T11:21:48Z</time>
      </trkpt>
      <trkpt lat="42.439706" lon="1.653234">
        <ele>2074.052</ele>
        <time>2019-05-31T11:21:56Z</time>
      </trkpt>
      <trkpt lat="42.439725" lon="1.653104">
        <ele>2074.467</ele>
        <time>2019-05-31T11:22:00Z</time>
      </trkpt>
      <trkpt lat="42.439739" lon="1.653013">
        <ele>2074.671</ele>
        <time>2019-05-31T11:22:03Z</time>
      </trkpt>
      <trkpt lat="42.439770" lon="1.652793">
        <ele>2075.497</ele>
        <time>2019-05-31T11:22:11Z</time>
      </trkpt>
      <trkpt lat="42.439772" lon="1.652768">
        <ele>2075.641</ele>
        <time>2019-05-31T11:22:12Z</time>
      </trkpt>
      <trkpt lat="42.439776" lon="1.652651">
        <ele>2076.681</ele>
        <time>2019-05-31T11:22:17Z</time>
      </trkpt>
      <trkpt lat="42.439786" lon="1.652533">
        <ele>2076.809</ele>
        <time>2019-05-31T11:22:22Z</time>
      </trkpt>
      <trkpt lat="42.439789" lon="1.652388">
        <ele>2077.608</ele>
        <time>2019-05-31T11:22:29Z</time>
      </trkpt>
      <trkpt lat="42.439791" lon="1.652370">
        <ele>2077.697</ele>
        <time>2019-05-31T11:22:30Z</time>
      </trkpt>
      <trkpt lat="42.439828" lon="1.652186">
        <ele>2078.441</ele>
        <time>2019-05-31T11:22:39Z</time>
      </trkpt>
      <trkpt lat="42.439839" lon="1.652105">
        <ele>2078.847</ele>
        <time>2019-05-31T11:22:43Z</time>
      </trkpt>
      <trkpt lat="42.439855" lon="1.652044">
        <ele>2079.035</ele>
        <time>2019-05-31T11:22:46Z</time>
      </trkpt>
      <trkpt lat="42.439892" lon="1.651952">
        <ele>2079.639</ele>
        <time>2019-05-31T11:22:51Z</time>
      </trkpt>
      <trkpt lat="42.439896" lon="1.651930">
        <ele>2079.684</ele>
        <time>2019-05-31T11:22:52Z</time>
      </trkpt>
      <trkpt lat="42.439905" lon="1.651892">
        <ele>2079.898</ele>
        <time>2019-05-31T11:22:54Z</time>
      </trkpt>
      <trkpt lat="42.439916" lon="1.651857">
        <ele>2080.254</ele>
        <time>2019-05-31T11:22:56Z</time>
      </trkpt>
      <trkpt lat="42.439931" lon="1.651785">
        <ele>2080.688</ele>
        <time>2019-05-31T11:23:00Z</time>
      </trkpt>
      <trkpt lat="42.439941" lon="1.651729">
        <ele>2081.024</ele>
        <time>2019-05-31T11:23:03Z</time>
      </trkpt>
      <trkpt lat="42.439964" lon="1.651661">
        <ele>2081.026</ele>
        <time>2019-05-31T11:23:07Z</time>
      </trkpt>
      <trkpt lat="42.439972" lon="1.651642">
        <ele>2081.408</ele>
        <time>2019-05-31T11:23:08Z</time>
      </trkpt>
      <trkpt lat="42.439999" lon="1.651544">
        <ele>2082.011</ele>
        <time>2019-05-31T11:23:13Z</time>
      </trkpt>
      <trkpt lat="42.440017" lon="1.651481">
        <ele>2082.265</ele>
        <time>2019-05-31T11:23:16Z</time>
      </trkpt>
      <trkpt lat="42.440078" lon="1.651329">
        <ele>2082.691</ele>
        <time>2019-05-31T11:23:24Z</time>
      </trkpt>
      <trkpt lat="42.440086" lon="1.651311">
        <ele>2083.229</ele>
        <time>2019-05-31T11:23:25Z</time>
      </trkpt>
      <trkpt lat="42.440132" lon="1.651207">
        <ele>2083.243</ele>
        <time>2019-05-31T11:23:31Z</time>
      </trkpt>
      <trkpt lat="42.440141" lon="1.651187">
        <ele>2083.428</ele>
        <time>2019-05-31T11:23:32Z</time>
      </trkpt>
      <trkpt lat="42.440183" lon="1.651101">
        <ele>2083.882</ele>
        <time>2019-05-31T11:23:37Z</time>
      </trkpt>
      <trkpt lat="42.440202" lon="1.651067">
        <ele>2084.078</ele>
        <time>2019-05-31T11:23:39Z</time>
      </trkpt>
      <trkpt lat="42.440236" lon="1.651017">
        <ele>2084.439</ele>
        <time>2019-05-31T11:23:42Z</time>
      </trkpt>
      <trkpt lat="42.440285" lon="1.650950">
        <ele>2084.801</ele>
        <time>2019-05-31T11:23:47Z</time>
      </trkpt>
      <trkpt lat="42.440301" lon="1.650921">
        <ele>2084.821</ele>
        <time>2019-05-31T11:23:49Z</time>
      </trkpt>
      <trkpt lat="42.440333" lon="1.650853">
        <ele>2085.208</ele>
        <time>2019-05-31T11:23:53Z</time>
      </trkpt>
      <trkpt lat="42.440344" lon="1.650837">
        <ele>2085.446</ele>
        <time>2019-05-31T11:23:54Z</time>
      </trkpt>
      <trkpt lat="42.440396" lon="1.650675">
        <ele>2086.280</ele>
        <time>2019-05-31T11:24:03Z</time>
      </trkpt>
      <trkpt lat="42.440406" lon="1.650640">
        <ele>2086.646</ele>
        <time>2019-05-31T11:24:05Z</time>
      </trkpt>
      <trkpt lat="42.440458" lon="1.650516">
        <ele>2087.054</ele>
        <time>2019-05-31T11:24:12Z</time>
      </trkpt>
      <trkpt lat="42.440515" lon="1.650410">
        <ele>2087.658</ele>
        <time>2019-05-31T11:24:18Z</time>
      </trkpt>
      <trkpt lat="42.440524" lon="1.650390">
        <ele>2087.633</ele>
        <time>2019-05-31T11:24:19Z</time>
      </trkpt>
      <trkpt lat="42.440577" lon="1.650280">
        <ele>2088.237</ele>
        <time>2019-05-31T11:24:26Z</time>
      </trkpt>
      <trkpt lat="42.440631" lon="1.650173">
        <ele>2088.623</ele>
        <time>2019-05-31T11:24:32Z</time>
      </trkpt>
      <trkpt lat="42.440702" lon="1.650057">
        <ele>2089.471</ele>
        <time>2019-05-31T11:24:39Z</time>
      </trkpt>
      <trkpt lat="42.440734" lon="1.650007">
        <ele>2089.841</ele>
        <time>2019-05-31T11:24:43Z</time>
      </trkpt>
      <trkpt lat="42.440784" lon="1.649954">
        <ele>2090.015</ele>
        <time>2019-05-31T11:24:47Z</time>
      </trkpt>
      <trkpt lat="42.440884" lon="1.649877">
        <ele>2090.408</ele>
        <time>2019-05-31T11:24:55Z</time>
      </trkpt>
      <trkpt lat="42.440932" lon="1.649779">
        <ele>2091.040</ele>
        <time>2019-05-31T11:25:00Z</time>
      </trkpt>
      <trkpt lat="42.440935" lon="1.649763">
        <ele>2090.894</ele>
        <time>2019-05-31T11:25:01Z</time>
      </trkpt>
      <trkpt lat="42.440989" lon="1.649652">
        <ele>2091.430</ele>
        <time>2019-05-31T11:25:08Z</time>
      </trkpt>
      <trkpt lat="42.440996" lon="1.649639">
        <ele>2091.698</ele>
        <time>2019-05-31T11:25:09Z</time>
      </trkpt>
      <trkpt lat="42.441048" lon="1.649559">
        <ele>2092.092</ele>
        <time>2019-05-31T11:25:15Z</time>
      </trkpt>
      <trkpt lat="42.441123" lon="1.649425">
        <ele>2093.037</ele>
        <time>2019-05-31T11:25:24Z</time>
      </trkpt>
      <trkpt lat="42.441140" lon="1.649393">
        <ele>2093.221</ele>
        <time>2019-05-31T11:25:26Z</time>
      </trkpt>
      <trkpt lat="42.441210" lon="1.649273">
        <ele>2094.077</ele>
        <time>2019-05-31T11:25:34Z</time>
      </trkpt>
      <trkpt lat="42.441224" lon="1.649260">
        <ele>2094.214</ele>
        <time>2019-05-31T11:25:35Z</time>
      </trkpt>
      <trkpt lat="42.441256" lon="1.649211">
        <ele>2094.254</ele>
        <time>2019-05-31T11:25:38Z</time>
      </trkpt>
      <trkpt lat="42.441278" lon="1.649163">
        <ele>2094.809</ele>
        <time>2019-05-31T11:25:41Z</time>
      </trkpt>
      <trkpt lat="42.441342" lon="1.649094">
        <ele>2095.208</ele>
        <time>2019-05-31T11:25:47Z</time>
      </trkpt>
      <trkpt lat="42.441347" lon="1.649080">
        <ele>2095.474</ele>
        <time>2019-05-31T11:25:48Z</time>
      </trkpt>
      <trkpt lat="42.441546" lon="1.648781">
        <ele>2097.098</ele>
        <time>2019-05-31T11:26:09Z</time>
      </trkpt>
      <trkpt lat="42.441586" lon="1.648734">
        <ele>2097.624</ele>
        <time>2019-05-31T11:26:13Z</time>
      </trkpt>
      <trkpt lat="42.441594" lon="1.648722">
        <ele>2097.692</ele>
        <time>2019-05-31T11:26:14Z</time>
      </trkpt>
      <trkpt lat="42.441678" lon="1.648639">
        <ele>2098.066</ele>
        <time>2019-05-31T11:26:20Z</time>
      </trkpt>
      <trkpt lat="42.441696" lon="1.648621">
        <ele>2098.241</ele>
        <time>2019-05-31T11:26:21Z</time>
      </trkpt>
      <trkpt lat="42.441775" lon="1.648513">
        <ele>2098.635</ele>
        <time>2019-05-31T11:26:28Z</time>
      </trkpt>
      <trkpt lat="42.441830" lon="1.648434">
        <ele>2099.251</ele>
        <time>2019-05-31T11:26:33Z</time>
      </trkpt>
      <trkpt lat="42.441839" lon="1.648420">
        <ele>2099.287</ele>
        <time>2019-05-31T11:26:34Z</time>
      </trkpt>
      <trkpt lat="42.441921" lon="1.648331">
        <ele>2099.442</ele>
        <time>2019-05-31T11:26:40Z</time>
      </trkpt>
      <trkpt lat="42.442003" lon="1.648205">
        <ele>2099.826</ele>
        <time>2019-05-31T11:26:47Z</time>
      </trkpt>
      <trkpt lat="42.442037" lon="1.648156">
        <ele>2100.208</ele>
        <time>2019-05-31T11:26:50Z</time>
      </trkpt>
      <trkpt lat="42.442084" lon="1.648091">
        <ele>2098.651</ele>
        <time>2019-05-31T11:26:54Z</time>
      </trkpt>
      <trkpt lat="42.442095" lon="1.648073">
        <ele>2100.295</ele>
        <time>2019-05-31T11:26:55Z</time>
      </trkpt>
      <trkpt lat="42.442186" lon="1.647930">
        <ele>2102.421</ele>
        <time>2019-05-31T11:27:03Z</time>
      </trkpt>
      <trkpt lat="42.442226" lon="1.647873">
        <ele>2101.289</ele>
        <time>2019-05-31T11:27:06Z</time>
      </trkpt>
      <trkpt lat="42.442278" lon="1.647791">
        <ele>2101.213</ele>
        <time>2019-05-31T11:27:10Z</time>
      </trkpt>
      <trkpt lat="42.442380" lon="1.647597">
        <ele>2101.838</ele>
        <time>2019-05-31T11:27:19Z</time>
      </trkpt>
      <trkpt lat="42.442458" lon="1.647418">
        <ele>2101.882</ele>
        <time>2019-05-31T11:27:25Z</time>
      </trkpt>
      <trkpt lat="42.442521" lon="1.647195">
        <ele>2101.828</ele>
        <time>2019-05-31T11:27:31Z</time>
      </trkpt>
      <trkpt lat="42.442499" lon="1.646997">
        <ele>2102.058</ele>
        <time>2019-05-31T11:27:36Z</time>
      </trkpt>
      <trkpt lat="42.442397" lon="1.646848">
        <ele>2101.452</ele>
        <time>2019-05-31T11:27:41Z</time>
      </trkpt>
      <trkpt lat="42.442287" lon="1.646683">
        <ele>2101.617</ele>
        <time>2019-05-31T11:27:47Z</time>
      </trkpt>
      <trkpt lat="42.442260" lon="1.646527">
        <ele>2102.008</ele>
        <time>2019-05-31T11:27:52Z</time>
      </trkpt>
      <trkpt lat="42.442276" lon="1.646377">
        <ele>2102.428</ele>
        <time>2019-05-31T11:27:59Z</time>
      </trkpt>
      <trkpt lat="42.442278" lon="1.646404">
        <ele>2103.052</ele>
        <time>2019-05-31T11:34:58Z</time>
      </trkpt>
      <trkpt lat="42.442312" lon="1.646356">
        <ele>2102.648</ele>
        <time>2019-05-31T11:35:01Z</time>
      </trkpt>
      <trkpt lat="42.442324" lon="1.646340">
        <ele>2102.686</ele>
        <time>2019-05-31T11:35:02Z</time>
      </trkpt>
      <trkpt lat="42.442390" lon="1.646238">
        <ele>2102.650</ele>
        <time>2019-05-31T11:35:07Z</time>
      </trkpt>
      <trkpt lat="42.442508" lon="1.646050">
        <ele>2102.625</ele>
        <time>2019-05-31T11:35:14Z</time>
      </trkpt>
      <trkpt lat="42.442507" lon="1.645969">
        <ele>2102.629</ele>
        <time>2019-05-31T11:35:16Z</time>
      </trkpt>
      <trkpt lat="42.442494" lon="1.645887">
        <ele>2102.625</ele>
        <time>2019-05-31T11:35:18Z</time>
      </trkpt>
      <trkpt lat="42.442454" lon="1.645753">
        <ele>2102.655</ele>
        <time>2019-05-31T11:35:22Z</time>
      </trkpt>
      <trkpt lat="42.442433" lon="1.645686">
        <ele>2102.607</ele>
        <time>2019-05-31T11:35:24Z</time>
      </trkpt>
      <trkpt lat="42.442360" lon="1.645503">
        <ele>2102.817</ele>
        <time>2019-05-31T11:35:30Z</time>
      </trkpt>
      <trkpt lat="42.442317" lon="1.645358">
        <ele>2103.608</ele>
        <time>2019-05-31T11:35:34Z</time>
      </trkpt>
      <trkpt lat="42.442310" lon="1.645239">
        <ele>2103.258</ele>
        <time>2019-05-31T11:35:37Z</time>
      </trkpt>
      <trkpt lat="42.442377" lon="1.645032">
        <ele>2103.212</ele>
        <time>2019-05-31T11:35:43Z</time>
      </trkpt>
      <trkpt lat="42.442496" lon="1.644887">
        <ele>2104.028</ele>
        <time>2019-05-31T11:35:49Z</time>
      </trkpt>
      <trkpt lat="42.442689" lon="1.644739">
        <ele>2104.246</ele>
        <time>2019-05-31T11:35:57Z</time>
      </trkpt>
      <trkpt lat="42.442750" lon="1.644673">
        <ele>2104.680</ele>
        <time>2019-05-31T11:36:00Z</time>
      </trkpt>
      <trkpt lat="42.442866" lon="1.644571">
        <ele>2104.825</ele>
        <time>2019-05-31T11:36:05Z</time>
      </trkpt>
      <trkpt lat="42.443054" lon="1.644419">
        <ele>2105.079</ele>
        <time>2019-05-31T11:36:13Z</time>
      </trkpt>
      <trkpt lat="42.443229" lon="1.644313">
        <ele>2105.815</ele>
        <time>2019-05-31T11:36:20Z</time>
      </trkpt>
      <trkpt lat="42.443410" lon="1.644203">
        <ele>2106.428</ele>
        <time>2019-05-31T11:36:27Z</time>
      </trkpt>
      <trkpt lat="42.443455" lon="1.644184">
        <ele>2106.889</ele>
        <time>2019-05-31T11:36:29Z</time>
      </trkpt>
      <trkpt lat="42.443520" lon="1.644124">
        <ele>2107.017</ele>
        <time>2019-05-31T11:36:32Z</time>
      </trkpt>
      <trkpt lat="42.443622" lon="1.643953">
        <ele>2107.808</ele>
        <time>2019-05-31T11:36:39Z</time>
      </trkpt>
      <trkpt lat="42.443730" lon="1.643797">
        <ele>2108.885</ele>
        <time>2019-05-31T11:36:46Z</time>
      </trkpt>
      <trkpt lat="42.443758" lon="1.643753">
        <ele>2108.869</ele>
        <time>2019-05-31T11:36:48Z</time>
      </trkpt>
      <trkpt lat="42.443837" lon="1.643601">
        <ele>2109.235</ele>
        <time>2019-05-31T11:36:54Z</time>
      </trkpt>
      <trkpt lat="42.443870" lon="1.643401">
        <ele>2109.893</ele>
        <time>2019-05-31T11:37:01Z</time>
      </trkpt>
      <trkpt lat="42.443854" lon="1.643308">
        <ele>2110.437</ele>
        <time>2019-05-31T11:37:04Z</time>
      </trkpt>
      <trkpt lat="42.443824" lon="1.643219">
        <ele>2109.242</ele>
        <time>2019-05-31T11:37:07Z</time>
      </trkpt>
      <trkpt lat="42.443812" lon="1.643191">
        <ele>2108.816</ele>
        <time>2019-05-31T11:37:08Z</time>
      </trkpt>
      <trkpt lat="42.443790" lon="1.643134">
        <ele>2111.292</ele>
        <time>2019-05-31T11:37:10Z</time>
      </trkpt>
      <trkpt lat="42.443775" lon="1.642967">
        <ele>2110.694</ele>
        <time>2019-05-31T11:37:15Z</time>
      </trkpt>
      <trkpt lat="42.443785" lon="1.642750">
        <ele>2111.257</ele>
        <time>2019-05-31T11:37:22Z</time>
      </trkpt>
      <trkpt lat="42.443783" lon="1.642563">
        <ele>2111.422</ele>
        <time>2019-05-31T11:37:28Z</time>
      </trkpt>
      <trkpt lat="42.443785" lon="1.642363">
        <ele>2111.608</ele>
        <time>2019-05-31T11:37:35Z</time>
      </trkpt>
      <trkpt lat="42.443797" lon="1.642112">
        <ele>2112.012</ele>
        <time>2019-05-31T11:37:43Z</time>
      </trkpt>
      <trkpt lat="42.443831" lon="1.641990">
        <ele>2112.296</ele>
        <time>2019-05-31T11:37:47Z</time>
      </trkpt>
      <trkpt lat="42.443872" lon="1.641881">
        <ele>2111.822</ele>
        <time>2019-05-31T11:37:50Z</time>
      </trkpt>
      <trkpt lat="42.443954" lon="1.641677">
        <ele>2111.290</ele>
        <time>2019-05-31T11:37:55Z</time>
      </trkpt>
      <trkpt lat="42.443961" lon="1.641638">
        <ele>2111.284</ele>
        <time>2019-05-31T11:37:56Z</time>
      </trkpt>
      <trkpt lat="42.443991" lon="1.641477">
        <ele>2111.669</ele>
        <time>2019-05-31T11:38:00Z</time>
      </trkpt>
      <trkpt lat="42.444055" lon="1.641188">
        <ele>2111.653</ele>
        <time>2019-05-31T11:38:07Z</time>
      </trkpt>
      <trkpt lat="42.444125" lon="1.640833">
        <ele>2111.829</ele>
        <time>2019-05-31T11:38:15Z</time>
      </trkpt>
      <trkpt lat="42.444239" lon="1.640543">
        <ele>2111.679</ele>
        <time>2019-05-31T11:38:22Z</time>
      </trkpt>
      <trkpt lat="42.444362" lon="1.640338">
        <ele>2109.805</ele>
        <time>2019-05-31T11:38:28Z</time>
      </trkpt>
      <trkpt lat="42.444382" lon="1.640307">
        <ele>2111.825</ele>
        <time>2019-05-31T11:38:29Z</time>
      </trkpt>
      <trkpt lat="42.444519" lon="1.640116">
        <ele>2111.608</ele>
        <time>2019-05-31T11:38:35Z</time>
      </trkpt>
      <trkpt lat="42.444680" lon="1.639892">
        <ele>2111.820</ele>
        <time>2019-05-31T11:38:41Z</time>
      </trkpt>
      <trkpt lat="42.444686" lon="1.639666">
        <ele>2111.064</ele>
        <time>2019-05-31T11:38:46Z</time>
      </trkpt>
      <trkpt lat="42.444622" lon="1.639357">
        <ele>2111.650</ele>
        <time>2019-05-31T11:38:53Z</time>
      </trkpt>
      <trkpt lat="42.444640" lon="1.639136">
        <ele>2110.688</ele>
        <time>2019-05-31T11:38:57Z</time>
      </trkpt>
      <trkpt lat="42.444641" lon="1.639075">
        <ele>2110.852</ele>
        <time>2019-05-31T11:38:58Z</time>
      </trkpt>
      <trkpt lat="42.444590" lon="1.638923">
        <ele>2111.017</ele>
        <time>2019-05-31T11:39:01Z</time>
      </trkpt>
      <trkpt lat="42.444518" lon="1.638867">
        <ele>2110.491</ele>
        <time>2019-05-31T11:39:03Z</time>
      </trkpt>
      <trkpt lat="42.444450" lon="1.638843">
        <ele>2109.837</ele>
        <time>2019-05-31T11:39:05Z</time>
      </trkpt>
      <trkpt lat="42.444317" lon="1.638719">
        <ele>2110.454</ele>
        <time>2019-05-31T11:39:10Z</time>
      </trkpt>
      <trkpt lat="42.444166" lon="1.638525">
        <ele>2110.456</ele>
        <time>2019-05-31T11:39:16Z</time>
      </trkpt>
      <trkpt lat="42.443975" lon="1.638418">
        <ele>2110.011</ele>
        <time>2019-05-31T11:39:22Z</time>
      </trkpt>
      <trkpt lat="42.443813" lon="1.638385">
        <ele>2109.808</ele>
        <time>2019-05-31T11:39:27Z</time>
      </trkpt>
      <trkpt lat="42.443644" lon="1.638311">
        <ele>2110.038</ele>
        <time>2019-05-31T11:39:32Z</time>
      </trkpt>
      <trkpt lat="42.443550" lon="1.638148">
        <ele>2109.882</ele>
        <time>2019-05-31T11:39:36Z</time>
      </trkpt>
      <trkpt lat="42.443531" lon="1.638095">
        <ele>2109.628</ele>
        <time>2019-05-31T11:39:37Z</time>
      </trkpt>
      <trkpt lat="42.443473" lon="1.637936">
        <ele>2109.236</ele>
        <time>2019-05-31T11:39:40Z</time>
      </trkpt>
      <trkpt lat="42.443434" lon="1.637841">
        <ele>2109.650</ele>
        <time>2019-05-31T11:39:42Z</time>
      </trkpt>
      <trkpt lat="42.443280" lon="1.637556">
        <ele>2109.655</ele>
        <time>2019-05-31T11:39:49Z</time>
      </trkpt>
      <trkpt lat="42.443048" lon="1.637431">
        <ele>2109.689</ele>
        <time>2019-05-31T11:39:56Z</time>
      </trkpt>
      <trkpt lat="42.442712" lon="1.637303">
        <ele>2109.455</ele>
        <time>2019-05-31T11:40:05Z</time>
      </trkpt>
      <trkpt lat="42.442626" lon="1.637283">
        <ele>2109.277</ele>
        <time>2019-05-31T11:40:07Z</time>
      </trkpt>
      <trkpt lat="42.442411" lon="1.637249">
        <ele>2109.261</ele>
        <time>2019-05-31T11:40:12Z</time>
      </trkpt>
      <trkpt lat="42.442273" lon="1.637236">
        <ele>2108.627</ele>
        <time>2019-05-31T11:40:15Z</time>
      </trkpt>
      <trkpt lat="42.442031" lon="1.637211">
        <ele>2108.208</ele>
        <time>2019-05-31T11:40:20Z</time>
      </trkpt>
      <trkpt lat="42.441987" lon="1.637205">
        <ele>2108.490</ele>
        <time>2019-05-31T11:40:21Z</time>
      </trkpt>
      <trkpt lat="42.441818" lon="1.637180">
        <ele>2107.654</ele>
        <time>2019-05-31T11:40:25Z</time>
      </trkpt>
      <trkpt lat="42.441778" lon="1.637179">
        <ele>2107.480</ele>
        <time>2019-05-31T11:40:26Z</time>
      </trkpt>
      <trkpt lat="42.441737" lon="1.637178">
        <ele>2107.468</ele>
        <time>2019-05-31T11:40:27Z</time>
      </trkpt>
      <trkpt lat="42.441617" lon="1.637144">
        <ele>2107.012</ele>
        <time>2019-05-31T11:40:30Z</time>
      </trkpt>
      <trkpt lat="42.441505" lon="1.637094">
        <ele>2106.677</ele>
        <time>2019-05-31T11:40:33Z</time>
      </trkpt>
      <trkpt lat="42.441436" lon="1.637048">
        <ele>2107.421</ele>
        <time>2019-05-31T11:40:35Z</time>
      </trkpt>
      <trkpt lat="42.441260" lon="1.636944">
        <ele>2108.697</ele>
        <time>2019-05-31T11:40:40Z</time>
      </trkpt>
      <trkpt lat="42.441011" lon="1.636830">
        <ele>2108.633</ele>
        <time>2019-05-31T11:40:47Z</time>
      </trkpt>
      <trkpt lat="42.440814" lon="1.636757">
        <ele>2108.223</ele>
        <time>2019-05-31T11:40:52Z</time>
      </trkpt>
      <trkpt lat="42.440672" lon="1.636650">
        <ele>2108.415</ele>
        <time>2019-05-31T11:40:56Z</time>
      </trkpt>
      <trkpt lat="42.440406" lon="1.636409">
        <ele>2107.808</ele>
        <time>2019-05-31T11:41:03Z</time>
      </trkpt>
      <trkpt lat="42.440333" lon="1.636335">
        <ele>2107.476</ele>
        <time>2019-05-31T11:41:05Z</time>
      </trkpt>
      <trkpt lat="42.440273" lon="1.636244">
        <ele>2107.280</ele>
        <time>2019-05-31T11:41:07Z</time>
      </trkpt>
      <trkpt lat="42.440201" lon="1.636096">
        <ele>2107.476</ele>
        <time>2019-05-31T11:41:10Z</time>
      </trkpt>
      <trkpt lat="42.440183" lon="1.636047">
        <ele>2107.244</ele>
        <time>2019-05-31T11:41:11Z</time>
      </trkpt>
      <trkpt lat="42.440169" lon="1.635996">
        <ele>2107.688</ele>
        <time>2019-05-31T11:41:12Z</time>
      </trkpt>
      <trkpt lat="42.440147" lon="1.635739">
        <ele>2107.413</ele>
        <time>2019-05-31T11:41:17Z</time>
      </trkpt>
      <trkpt lat="42.440146" lon="1.635634">
        <ele>2107.447</ele>
        <time>2019-05-31T11:41:19Z</time>
      </trkpt>
      <trkpt lat="42.440154" lon="1.635526">
        <ele>2107.293</ele>
        <time>2019-05-31T11:41:21Z</time>
      </trkpt>
      <trkpt lat="42.440139" lon="1.635155">
        <ele>2108.287</ele>
        <time>2019-05-31T11:41:28Z</time>
      </trkpt>
      <trkpt lat="42.440150" lon="1.634848">
        <ele>2108.442</ele>
        <time>2019-05-31T11:41:34Z</time>
      </trkpt>
      <trkpt lat="42.440157" lon="1.634484">
        <ele>2108.626</ele>
        <time>2019-05-31T11:41:41Z</time>
      </trkpt>
      <trkpt lat="42.440201" lon="1.634242">
        <ele>2109.608</ele>
        <time>2019-05-31T11:41:46Z</time>
      </trkpt>
      <trkpt lat="42.440231" lon="1.634155">
        <ele>2109.611</ele>
        <time>2019-05-31T11:41:48Z</time>
      </trkpt>
      <trkpt lat="42.440345" lon="1.633733">
        <ele>2109.895</ele>
        <time>2019-05-31T11:41:57Z</time>
      </trkpt>
      <trkpt lat="42.440401" lon="1.633512">
        <ele>2110.451</ele>
        <time>2019-05-31T11:42:02Z</time>
      </trkpt>
      <trkpt lat="42.440450" lon="1.633330">
        <ele>2110.699</ele>
        <time>2019-05-31T11:42:06Z</time>
      </trkpt>
      <trkpt lat="42.440474" lon="1.633240">
        <ele>2110.893</ele>
        <time>2019-05-31T11:42:08Z</time>
      </trkpt>
      <trkpt lat="42.440544" lon="1.632965">
        <ele>2111.218</ele>
        <time>2019-05-31T11:42:14Z</time>
      </trkpt>
      <trkpt lat="42.440563" lon="1.632721">
        <ele>2111.842</ele>
        <time>2019-05-31T11:42:19Z</time>
      </trkpt>
      <trkpt lat="42.440563" lon="1.632672">
        <ele>2111.858</ele>
        <time>2019-05-31T11:42:20Z</time>
      </trkpt>
      <trkpt lat="42.440565" lon="1.632394">
        <ele>2111.695</ele>
        <time>2019-05-31T11:42:26Z</time>
      </trkpt>
      <trkpt lat="42.440582" lon="1.632152">
        <ele>2112.249</ele>
        <time>2019-05-31T11:42:31Z</time>
      </trkpt>
      <trkpt lat="42.440610" lon="1.631824">
        <ele>2112.023</ele>
        <time>2019-05-31T11:42:37Z</time>
      </trkpt>
      <trkpt lat="42.440627" lon="1.631494">
        <ele>2111.608</ele>
        <time>2019-05-31T11:42:43Z</time>
      </trkpt>
      <trkpt lat="42.440625" lon="1.631102">
        <ele>2111.472</ele>
        <time>2019-05-31T11:42:50Z</time>
      </trkpt>
      <trkpt lat="42.440610" lon="1.630583">
        <ele>2112.016</ele>
        <time>2019-05-31T11:42:59Z</time>
      </trkpt>
      <trkpt lat="42.440606" lon="1.630528">
        <ele>2110.682</ele>
        <time>2019-05-31T11:43:00Z</time>
      </trkpt>
      <trkpt lat="42.440595" lon="1.630348">
        <ele>2111.620</ele>
        <time>2019-05-31T11:43:03Z</time>
      </trkpt>
      <trkpt lat="42.440578" lon="1.630226">
        <ele>2111.074</ele>
        <time>2019-05-31T11:43:05Z</time>
      </trkpt>
      <trkpt lat="42.440561" lon="1.630105">
        <ele>2111.299</ele>
        <time>2019-05-31T11:43:07Z</time>
      </trkpt>
      <trkpt lat="42.440514" lon="1.629849">
        <ele>2111.243</ele>
        <time>2019-05-31T11:43:11Z</time>
      </trkpt>
      <trkpt lat="42.440462" lon="1.629671">
        <ele>2110.679</ele>
        <time>2019-05-31T11:43:14Z</time>
      </trkpt>
      <trkpt lat="42.440310" lon="1.629351">
        <ele>2111.881</ele>
        <time>2019-05-31T11:43:20Z</time>
      </trkpt>
      <trkpt lat="42.440208" lon="1.629135">
        <ele>2111.661</ele>
        <time>2019-05-31T11:43:25Z</time>
      </trkpt>
      <trkpt lat="42.440105" lon="1.628858">
        <ele>2111.617</ele>
        <time>2019-05-31T11:43:31Z</time>
      </trkpt>
      <trkpt lat="42.440039" lon="1.628596">
        <ele>2112.008</ele>
        <time>2019-05-31T11:43:36Z</time>
      </trkpt>
      <trkpt lat="42.440014" lon="1.628305">
        <ele>2112.091</ele>
        <time>2019-05-31T11:43:41Z</time>
      </trkpt>
      <trkpt lat="42.440013" lon="1.628065">
        <ele>2112.075</ele>
        <time>2019-05-31T11:43:46Z</time>
      </trkpt>
      <trkpt lat="42.440052" lon="1.627756">
        <ele>2111.491</ele>
        <time>2019-05-31T11:43:52Z</time>
      </trkpt>
      <trkpt lat="42.440104" lon="1.627472">
        <ele>2111.219</ele>
        <time>2019-05-31T11:43:57Z</time>
      </trkpt>
      <trkpt lat="42.440165" lon="1.627170">
        <ele>2111.413</ele>
        <time>2019-05-31T11:44:03Z</time>
      </trkpt>
      <trkpt lat="42.440245" lon="1.626783">
        <ele>2111.468</ele>
        <time>2019-05-31T11:44:11Z</time>
      </trkpt>
      <trkpt lat="42.440333" lon="1.626384">
        <ele>2111.882</ele>
        <time>2019-05-31T11:44:20Z</time>
      </trkpt>
      <trkpt lat="42.440357" lon="1.626123">
        <ele>2112.218</ele>
        <time>2019-05-31T11:44:26Z</time>
      </trkpt>
      <trkpt lat="42.440355" lon="1.625808">
        <ele>2111.852</ele>
        <time>2019-05-31T11:44:32Z</time>
      </trkpt>
      <trkpt lat="42.440336" lon="1.625489">
        <ele>2111.653</ele>
        <time>2019-05-31T11:44:38Z</time>
      </trkpt>
      <trkpt lat="42.440375" lon="1.625256">
        <ele>2112.008</ele>
        <time>2019-05-31T11:44:43Z</time>
      </trkpt>
      <trkpt lat="42.440429" lon="1.625011">
        <ele>2111.208</ele>
        <time>2019-05-31T11:44:48Z</time>
      </trkpt>
      <trkpt lat="42.440528" lon="1.624672">
        <ele>2110.668</ele>
        <time>2019-05-31T11:44:54Z</time>
      </trkpt>
      <trkpt lat="42.440555" lon="1.624546">
        <ele>2110.642</ele>
        <time>2019-05-31T11:44:56Z</time>
      </trkpt>
      <trkpt lat="42.440690" lon="1.624065">
        <ele>2109.838</ele>
        <time>2019-05-31T11:45:04Z</time>
      </trkpt>
      <trkpt lat="42.440824" lon="1.623752">
        <ele>2109.836</ele>
        <time>2019-05-31T11:45:10Z</time>
      </trkpt>
      <trkpt lat="42.440859" lon="1.623715">
        <ele>2110.050</ele>
        <time>2019-05-31T11:45:11Z</time>
      </trkpt>
      <trkpt lat="42.440925" lon="1.623644">
        <ele>2109.655</ele>
        <time>2019-05-31T11:45:13Z</time>
      </trkpt>
      <trkpt lat="42.440953" lon="1.623602">
        <ele>2109.679</ele>
        <time>2019-05-31T11:45:14Z</time>
      </trkpt>
      <trkpt lat="42.441050" lon="1.623494">
        <ele>2109.475</ele>
        <time>2019-05-31T11:45:17Z</time>
      </trkpt>
      <trkpt lat="42.441115" lon="1.623426">
        <ele>2109.057</ele>
        <time>2019-05-31T11:45:19Z</time>
      </trkpt>
      <trkpt lat="42.441178" lon="1.623343">
        <ele>2108.400</ele>
        <time>2019-05-31T11:45:21Z</time>
      </trkpt>
      <trkpt lat="42.441292" lon="1.623235">
        <ele>2108.420</ele>
        <time>2019-05-31T11:45:24Z</time>
      </trkpt>
      <trkpt lat="42.441372" lon="1.623155">
        <ele>2108.208</ele>
        <time>2019-05-31T11:45:26Z</time>
      </trkpt>
      <trkpt lat="42.441450" lon="1.623067">
        <ele>2107.458</ele>
        <time>2019-05-31T11:45:28Z</time>
      </trkpt>
      <trkpt lat="42.441665" lon="1.622863">
        <ele>2107.242</ele>
        <time>2019-05-31T11:45:33Z</time>
      </trkpt>
      <trkpt lat="42.441850" lon="1.622690">
        <ele>2106.458</ele>
        <time>2019-05-31T11:45:37Z</time>
      </trkpt>
      <trkpt lat="42.441992" lon="1.622564">
        <ele>2106.266</ele>
        <time>2019-05-31T11:45:40Z</time>
      </trkpt>
      <trkpt lat="42.442323" lon="1.622369">
        <ele>2106.470</ele>
        <time>2019-05-31T11:45:47Z</time>
      </trkpt>
      <trkpt lat="42.442536" lon="1.622267">
        <ele>2106.295</ele>
        <time>2019-05-31T11:45:52Z</time>
      </trkpt>
      <trkpt lat="42.442599" lon="1.622198">
        <ele>2105.869</ele>
        <time>2019-05-31T11:45:54Z</time>
      </trkpt>
      <trkpt lat="42.442724" lon="1.622106">
        <ele>2106.615</ele>
        <time>2019-05-31T11:45:58Z</time>
      </trkpt>
      <trkpt lat="42.442759" lon="1.622097">
        <ele>2106.655</ele>
        <time>2019-05-31T11:45:59Z</time>
      </trkpt>
      <trkpt lat="42.442801" lon="1.622096">
        <ele>2106.607</ele>
        <time>2019-05-31T11:46:00Z</time>
      </trkpt>
      <trkpt lat="42.442916" lon="1.622049">
        <ele>2106.017</ele>
        <time>2019-05-31T11:46:03Z</time>
      </trkpt>
      <trkpt lat="42.443010" lon="1.621946">
        <ele>2106.408</ele>
        <time>2019-05-31T11:46:06Z</time>
      </trkpt>
      <trkpt lat="42.443038" lon="1.621905">
        <ele>2106.018</ele>
        <time>2019-05-31T11:46:07Z</time>
      </trkpt>
      <trkpt lat="42.443190" lon="1.621765">
        <ele>2106.212</ele>
        <time>2019-05-31T11:46:12Z</time>
      </trkpt>
      <trkpt lat="42.443460" lon="1.621589">
        <ele>2106.048</ele>
        <time>2019-05-31T11:46:19Z</time>
      </trkpt>
      <trkpt lat="42.443550" lon="1.621453">
        <ele>2105.436</ele>
        <time>2019-05-31T11:46:22Z</time>
      </trkpt>
      <trkpt lat="42.443590" lon="1.621364">
        <ele>2105.680</ele>
        <time>2019-05-31T11:46:24Z</time>
      </trkpt>
      <trkpt lat="42.443754" lon="1.621161">
        <ele>2106.015</ele>
        <time>2019-05-31T11:46:30Z</time>
      </trkpt>
      <trkpt lat="42.443950" lon="1.620963">
        <ele>2105.429</ele>
        <time>2019-05-31T11:46:36Z</time>
      </trkpt>
      <trkpt lat="42.444182" lon="1.620555">
        <ele>2106.665</ele>
        <time>2019-05-31T11:46:45Z</time>
      </trkpt>
      <trkpt lat="42.444338" lon="1.620185">
        <ele>2107.286</ele>
        <time>2019-05-31T11:46:53Z</time>
      </trkpt>
      <trkpt lat="42.444349" lon="1.620036">
        <ele>2107.460</ele>
        <time>2019-05-31T11:46:56Z</time>
      </trkpt>
      <trkpt lat="42.444358" lon="1.619934">
        <ele>2107.626</ele>
        <time>2019-05-31T11:46:58Z</time>
      </trkpt>
      <trkpt lat="42.444383" lon="1.619539">
        <ele>2108.208</ele>
        <time>2019-05-31T11:47:06Z</time>
      </trkpt>
      <trkpt lat="42.444390" lon="1.619405">
        <ele>2108.631</ele>
        <time>2019-05-31T11:47:09Z</time>
      </trkpt>
      <trkpt lat="42.444401" lon="1.619319">
        <ele>2107.615</ele>
        <time>2019-05-31T11:47:11Z</time>
      </trkpt>
      <trkpt lat="42.444409" lon="1.619275">
        <ele>2108.261</ele>
        <time>2019-05-31T11:47:12Z</time>
      </trkpt>
      <trkpt lat="42.444457" lon="1.619072">
        <ele>2108.659</ele>
        <time>2019-05-31T11:47:18Z</time>
      </trkpt>
      <trkpt lat="42.444494" lon="1.619006">
        <ele>2108.863</ele>
        <time>2019-05-31T11:47:20Z</time>
      </trkpt>
      <trkpt lat="42.444512" lon="1.618968">
        <ele>2108.838</ele>
        <time>2019-05-31T11:47:21Z</time>
      </trkpt>
      <trkpt lat="42.444559" lon="1.618828">
        <ele>2109.482</ele>
        <time>2019-05-31T11:47:25Z</time>
      </trkpt>
      <trkpt lat="42.444570" lon="1.618795">
        <ele>2109.288</ele>
        <time>2019-05-31T11:47:26Z</time>
      </trkpt>
      <trkpt lat="42.444617" lon="1.618623">
        <ele>2109.636</ele>
        <time>2019-05-31T11:47:31Z</time>
      </trkpt>
      <trkpt lat="42.444657" lon="1.618535">
        <ele>2109.817</ele>
        <time>2019-05-31T11:47:34Z</time>
      </trkpt>
      <trkpt lat="42.444668" lon="1.618507">
        <ele>2110.818</ele>
        <time>2019-05-31T11:47:35Z</time>
      </trkpt>
      <trkpt lat="42.444725" lon="1.618361">
        <ele>2110.608</ele>
        <time>2019-05-31T11:47:40Z</time>
      </trkpt>
      <trkpt lat="42.444875" lon="1.618166">
        <ele>2110.836</ele>
        <time>2019-05-31T11:47:48Z</time>
      </trkpt>
      <trkpt lat="42.444983" lon="1.618090">
        <ele>2111.280</ele>
        <time>2019-05-31T11:47:53Z</time>
      </trkpt>
      <trkpt lat="42.445101" lon="1.618011">
        <ele>2111.256</ele>
        <time>2019-05-31T11:47:58Z</time>
      </trkpt>
      <trkpt lat="42.445268" lon="1.617846">
        <ele>2111.064</ele>
        <time>2019-05-31T11:48:05Z</time>
      </trkpt>
      <trkpt lat="42.445453" lon="1.617562">
        <ele>2111.648</ele>
        <time>2019-05-31T11:48:14Z</time>
      </trkpt>
      <trkpt lat="42.445493" lon="1.617491">
        <ele>2111.893</ele>
        <time>2019-05-31T11:48:16Z</time>
      </trkpt>
      <trkpt lat="42.445625" lon="1.617254">
        <ele>2111.867</ele>
        <time>2019-05-31T11:48:23Z</time>
      </trkpt>
      <trkpt lat="42.445728" lon="1.617024">
        <ele>2112.423</ele>
        <time>2019-05-31T11:48:30Z</time>
      </trkpt>
      <trkpt lat="42.445833" lon="1.616737">
        <ele>2112.614</ele>
        <time>2019-05-31T11:48:39Z</time>
      </trkpt>
      <trkpt lat="42.445842" lon="1.616673">
        <ele>2112.854</ele>
        <time>2019-05-31T11:48:41Z</time>
      </trkpt>
      <trkpt lat="42.445867" lon="1.616511">
        <ele>2113.409</ele>
        <time>2019-05-31T11:48:46Z</time>
      </trkpt>
      <trkpt lat="42.445931" lon="1.616260">
        <ele>2113.608</ele>
        <time>2019-05-31T11:48:53Z</time>
      </trkpt>
      <trkpt lat="42.446025" lon="1.616028">
        <ele>2113.674</ele>
        <time>2019-05-31T11:48:59Z</time>
      </trkpt>
      <trkpt lat="42.446055" lon="1.615959">
        <ele>2114.028</ele>
        <time>2019-05-31T11:49:01Z</time>
      </trkpt>
      <trkpt lat="42.446140" lon="1.615793">
        <ele>2113.864</ele>
        <time>2019-05-31T11:49:06Z</time>
      </trkpt>
      <trkpt lat="42.446244" lon="1.615508">
        <ele>2114.642</ele>
        <time>2019-05-31T11:49:14Z</time>
      </trkpt>
      <trkpt lat="42.446343" lon="1.615208">
        <ele>2115.026</ele>
        <time>2019-05-31T11:49:21Z</time>
      </trkpt>
      <trkpt lat="42.446362" lon="1.615112">
        <ele>2115.241</ele>
        <time>2019-05-31T11:49:23Z</time>
      </trkpt>
      <trkpt lat="42.446434" lon="1.614778">
        <ele>2115.635</ele>
        <time>2019-05-31T11:49:31Z</time>
      </trkpt>
      <trkpt lat="42.446451" lon="1.614662">
        <ele>2116.081</ele>
        <time>2019-05-31T11:49:34Z</time>
      </trkpt>
      <trkpt lat="42.446468" lon="1.614539">
        <ele>2116.638</ele>
        <time>2019-05-31T11:49:37Z</time>
      </trkpt>
      <trkpt lat="42.446476" lon="1.614387">
        <ele>2117.070</ele>
        <time>2019-05-31T11:49:41Z</time>
      </trkpt>
      <trkpt lat="42.446469" lon="1.614319">
        <ele>2117.017</ele>
        <time>2019-05-31T11:49:43Z</time>
      </trkpt>
      <trkpt lat="42.446453" lon="1.614156">
        <ele>2117.808</ele>
        <time>2019-05-31T11:49:48Z</time>
      </trkpt>
      <trkpt lat="42.446451" lon="1.614091">
        <ele>2118.246</ele>
        <time>2019-05-31T11:49:50Z</time>
      </trkpt>
      <trkpt lat="42.446484" lon="1.613908">
        <ele>2118.240</ele>
        <time>2019-05-31T11:49:55Z</time>
      </trkpt>
      <trkpt lat="42.446505" lon="1.613707">
        <ele>2118.836</ele>
        <time>2019-05-31T11:50:01Z</time>
      </trkpt>
      <trkpt lat="42.446536" lon="1.613469">
        <ele>2119.044</ele>
        <time>2019-05-31T11:50:08Z</time>
      </trkpt>
      <trkpt lat="42.446568" lon="1.613385">
        <ele>2119.298</ele>
        <time>2019-05-31T11:50:11Z</time>
      </trkpt>
      <trkpt lat="42.446628" lon="1.613266">
        <ele>2119.473</ele>
        <time>2019-05-31T11:50:15Z</time>
      </trkpt>
      <trkpt lat="42.446762" lon="1.613007">
        <ele>2120.297</ele>
        <time>2019-05-31T11:50:24Z</time>
      </trkpt>
      <trkpt lat="42.446790" lon="1.612940">
        <ele>2120.273</ele>
        <time>2019-05-31T11:50:26Z</time>
      </trkpt>
      <trkpt lat="42.446841" lon="1.612793">
        <ele>2120.475</ele>
        <time>2019-05-31T11:50:30Z</time>
      </trkpt>
      <trkpt lat="42.446870" lon="1.612505">
        <ele>2120.428</ele>
        <time>2019-05-31T11:50:37Z</time>
      </trkpt>
      <trkpt lat="42.446860" lon="1.612206">
        <ele>2121.420</ele>
        <time>2019-05-31T11:50:45Z</time>
      </trkpt>
      <trkpt lat="42.446778" lon="1.612012">
        <ele>2121.608</ele>
        <time>2019-05-31T11:50:51Z</time>
      </trkpt>
      <trkpt lat="42.446728" lon="1.611775">
        <ele>2122.230</ele>
        <time>2019-05-31T11:50:59Z</time>
      </trkpt>
      <trkpt lat="42.446726" lon="1.611747">
        <ele>2122.414</ele>
        <time>2019-05-31T11:51:00Z</time>
      </trkpt>
      <trkpt lat="42.446732" lon="1.611522">
        <ele>2123.450</ele>
        <time>2019-05-31T11:51:08Z</time>
      </trkpt>
      <trkpt lat="42.446733" lon="1.611490">
        <ele>2123.428</ele>
        <time>2019-05-31T11:51:09Z</time>
      </trkpt>
      <trkpt lat="42.446781" lon="1.611270">
        <ele>2124.012</ele>
        <time>2019-05-31T11:51:16Z</time>
      </trkpt>
      <trkpt lat="42.446892" lon="1.611061">
        <ele>2124.047</ele>
        <time>2019-05-31T11:51:23Z</time>
      </trkpt>
      <trkpt lat="42.446997" lon="1.610925">
        <ele>2123.871</ele>
        <time>2019-05-31T11:51:28Z</time>
      </trkpt>
      <trkpt lat="42.447047" lon="1.610706">
        <ele>2123.897</ele>
        <time>2019-05-31T11:51:34Z</time>
      </trkpt>
      <trkpt lat="42.447056" lon="1.610550">
        <ele>2123.682</ele>
        <time>2019-05-31T11:51:39Z</time>
      </trkpt>
      <trkpt lat="42.447030" lon="1.610351">
        <ele>2123.043</ele>
        <time>2019-05-31T11:51:44Z</time>
      </trkpt>
      <trkpt lat="42.446990" lon="1.610138">
        <ele>2122.217</ele>
        <time>2019-05-31T11:51:48Z</time>
      </trkpt>
      <trkpt lat="42.446961" lon="1.610086">
        <ele>2121.808</ele>
        <time>2019-05-31T11:51:49Z</time>
      </trkpt>
      <trkpt lat="42.446839" lon="1.609961">
        <ele>2120.811</ele>
        <time>2019-05-31T11:51:52Z</time>
      </trkpt>
      <trkpt lat="42.446804" lon="1.609935">
        <ele>2120.615</ele>
        <time>2019-05-31T11:51:53Z</time>
      </trkpt>
      <trkpt lat="42.446759" lon="1.609893">
        <ele>2121.041</ele>
        <time>2019-05-31T11:51:55Z</time>
      </trkpt>
      <trkpt lat="42.446740" lon="1.609855">
        <ele>2121.239</ele>
        <time>2019-05-31T11:51:57Z</time>
      </trkpt>
      <trkpt lat="42.446681" lon="1.609824">
        <ele>2120.493</ele>
        <time>2019-05-31T11:56:16Z</time>
      </trkpt>
      <trkpt lat="42.446662" lon="1.609831">
        <ele>2120.488</ele>
        <time>2019-05-31T11:56:17Z</time>
      </trkpt>
      <trkpt lat="42.446533" lon="1.609858">
        <ele>2120.242</ele>
        <time>2019-05-31T11:56:23Z</time>
      </trkpt>
      <trkpt lat="42.446477" lon="1.609871">
        <ele>2119.878</ele>
        <time>2019-05-31T11:56:25Z</time>
      </trkpt>
      <trkpt lat="42.446390" lon="1.609860">
        <ele>2119.612</ele>
        <time>2019-05-31T11:56:28Z</time>
      </trkpt>
      <trkpt lat="42.446332" lon="1.609800">
        <ele>2120.032</ele>
        <time>2019-05-31T11:56:32Z</time>
      </trkpt>
      <trkpt lat="42.446298" lon="1.609746">
        <ele>2121.005</ele>
        <time>2019-05-31T11:56:36Z</time>
      </trkpt>
      <trkpt lat="42.446290" lon="1.609713">
        <ele>2121.208</ele>
        <time>2019-05-31T11:56:38Z</time>
      </trkpt>
      <trkpt lat="42.446282" lon="1.609696">
        <ele>2121.264</ele>
        <time>2019-05-31T11:56:40Z</time>
      </trkpt>
      <trkpt lat="42.446257" lon="1.609678">
        <ele>2121.248</ele>
        <time>2019-05-31T11:56:42Z</time>
      </trkpt>
      <trkpt lat="42.446219" lon="1.609630">
        <ele>2121.814</ele>
        <time>2019-05-31T11:56:46Z</time>
      </trkpt>
      <trkpt lat="42.446209" lon="1.609597">
        <ele>2122.252</ele>
        <time>2019-05-31T11:56:48Z</time>
      </trkpt>
      <trkpt lat="42.446207" lon="1.609562">
        <ele>2122.446</ele>
        <time>2019-05-31T11:56:50Z</time>
      </trkpt>
      <trkpt lat="42.446177" lon="1.609449">
        <ele>2123.431</ele>
        <time>2019-05-31T11:56:57Z</time>
      </trkpt>
      <trkpt lat="42.446185" lon="1.609332">
        <ele>2124.025</ele>
        <time>2019-05-31T11:57:04Z</time>
      </trkpt>
      <trkpt lat="42.446189" lon="1.609320">
        <ele>2124.031</ele>
        <time>2019-05-31T11:57:05Z</time>
      </trkpt>
      <trkpt lat="42.446192" lon="1.609287">
        <ele>2124.465</ele>
        <time>2019-05-31T11:57:07Z</time>
      </trkpt>
      <trkpt lat="42.446214" lon="1.609253">
        <ele>2124.868</ele>
        <time>2019-05-31T11:57:10Z</time>
      </trkpt>
      <trkpt lat="42.446224" lon="1.609246">
        <ele>2125.014</ele>
        <time>2019-05-31T11:57:11Z</time>
      </trkpt>
      <trkpt lat="42.446245" lon="1.609236">
        <ele>2125.008</ele>
        <time>2019-05-31T11:57:13Z</time>
      </trkpt>
      <trkpt lat="42.446285" lon="1.609241">
        <ele>2125.479</ele>
        <time>2019-05-31T11:57:16Z</time>
      </trkpt>
      <trkpt lat="42.446307" lon="1.609254">
        <ele>2125.663</ele>
        <time>2019-05-31T11:57:18Z</time>
      </trkpt>
      <trkpt lat="42.446405" lon="1.609346">
        <ele>2125.859</ele>
        <time>2019-05-31T11:57:27Z</time>
      </trkpt>
      <trkpt lat="42.446428" lon="1.609378">
        <ele>2126.667</ele>
        <time>2019-05-31T11:57:30Z</time>
      </trkpt>
      <trkpt lat="42.446486" lon="1.609423">
        <ele>2126.861</ele>
        <time>2019-05-31T11:57:35Z</time>
      </trkpt>
      <trkpt lat="42.446518" lon="1.609449">
        <ele>2127.626</ele>
        <time>2019-05-31T11:57:38Z</time>
      </trkpt>
      <trkpt lat="42.446567" lon="1.609459">
        <ele>2128.020</ele>
        <time>2019-05-31T11:57:43Z</time>
      </trkpt>
      <trkpt lat="42.446653" lon="1.609435">
        <ele>2128.686</ele>
        <time>2019-05-31T11:57:50Z</time>
      </trkpt>
      <trkpt lat="42.446665" lon="1.609427">
        <ele>2128.685</ele>
        <time>2019-05-31T11:57:51Z</time>
      </trkpt>
      <trkpt lat="42.446715" lon="1.609386">
        <ele>2129.289</ele>
        <time>2019-05-31T11:57:56Z</time>
      </trkpt>
      <trkpt lat="42.446738" lon="1.609377">
        <ele>2129.417</ele>
        <time>2019-05-31T11:57:58Z</time>
      </trkpt>
      <trkpt lat="42.446756" lon="1.609356">
        <ele>2129.608</ele>
        <time>2019-05-31T11:58:00Z</time>
      </trkpt>
      <trkpt lat="42.446805" lon="1.609319">
        <ele>2130.251</ele>
        <time>2019-05-31T11:58:05Z</time>
      </trkpt>
      <trkpt lat="42.446859" lon="1.609285">
        <ele>2130.845</ele>
        <time>2019-05-31T11:58:10Z</time>
      </trkpt>
      <trkpt lat="42.446890" lon="1.609261">
        <ele>2131.091</ele>
        <time>2019-05-31T11:58:13Z</time>
      </trkpt>
      <trkpt lat="42.446982" lon="1.609194">
        <ele>2131.869</ele>
        <time>2019-05-31T11:58:22Z</time>
      </trkpt>
      <trkpt lat="42.447031" lon="1.609131">
        <ele>2132.413</ele>
        <time>2019-05-31T11:58:28Z</time>
      </trkpt>
      <trkpt lat="42.447053" lon="1.609111">
        <ele>2132.638</ele>
        <time>2019-05-31T11:58:30Z</time>
      </trkpt>
      <trkpt lat="42.447075" lon="1.609077">
        <ele>2132.842</ele>
        <time>2019-05-31T11:58:33Z</time>
      </trkpt>
      <trkpt lat="42.447095" lon="1.609054">
        <ele>2133.098</ele>
        <time>2019-05-31T11:58:35Z</time>
      </trkpt>
      <trkpt lat="42.447122" lon="1.609017">
        <ele>2133.648</ele>
        <time>2019-05-31T11:58:38Z</time>
      </trkpt>
      <trkpt lat="42.447193" lon="1.608938">
        <ele>2134.061</ele>
        <time>2019-05-31T11:58:45Z</time>
      </trkpt>
      <trkpt lat="42.447201" lon="1.608926">
        <ele>2134.217</ele>
        <time>2019-05-31T11:58:46Z</time>
      </trkpt>
      <trkpt lat="42.447278" lon="1.608857">
        <ele>2134.808</ele>
        <time>2019-05-31T11:58:53Z</time>
      </trkpt>
      <trkpt lat="42.447321" lon="1.608816">
        <ele>2135.077</ele>
        <time>2019-05-31T11:58:57Z</time>
      </trkpt>
      <trkpt lat="42.447379" lon="1.608792">
        <ele>2135.441</ele>
        <time>2019-05-31T11:59:02Z</time>
      </trkpt>
      <trkpt lat="42.447490" lon="1.608781">
        <ele>2135.637</ele>
        <time>2019-05-31T11:59:10Z</time>
      </trkpt>
      <trkpt lat="42.447518" lon="1.608786">
        <ele>2136.085</ele>
        <time>2019-05-31T11:59:12Z</time>
      </trkpt>
      <trkpt lat="42.447554" lon="1.608798">
        <ele>2136.249</ele>
        <time>2019-05-31T11:59:15Z</time>
      </trkpt>
      <trkpt lat="42.447580" lon="1.608807">
        <ele>2136.464</ele>
        <time>2019-05-31T11:59:17Z</time>
      </trkpt>
      <trkpt lat="42.447644" lon="1.608820">
        <ele>2136.878</ele>
        <time>2019-05-31T11:59:22Z</time>
      </trkpt>
      <trkpt lat="42.447669" lon="1.608814">
        <ele>2137.044</ele>
        <time>2019-05-31T11:59:24Z</time>
      </trkpt>
      <trkpt lat="42.447766" lon="1.608802">
        <ele>2138.225</ele>
        <time>2019-05-31T11:59:32Z</time>
      </trkpt>
      <trkpt lat="42.447780" lon="1.608806">
        <ele>2138.226</ele>
        <time>2019-05-31T11:59:33Z</time>
      </trkpt>
      <trkpt lat="42.447841" lon="1.608810">
        <ele>2138.808</ele>
        <time>2019-05-31T11:59:38Z</time>
      </trkpt>
      <trkpt lat="42.447874" lon="1.608835">
        <ele>2139.008</ele>
        <time>2019-05-31T11:59:41Z</time>
      </trkpt>
      <trkpt lat="42.447887" lon="1.608845">
        <ele>2139.285</ele>
        <time>2019-05-31T11:59:42Z</time>
      </trkpt>
      <trkpt lat="42.447925" lon="1.608880">
        <ele>2139.429</ele>
        <time>2019-05-31T11:59:45Z</time>
      </trkpt>
      <trkpt lat="42.447993" lon="1.608979">
        <ele>2139.825</ele>
        <time>2019-05-31T11:59:52Z</time>
      </trkpt>
      <trkpt lat="42.448025" lon="1.609050">
        <ele>2140.273</ele>
        <time>2019-05-31T11:59:56Z</time>
      </trkpt>
      <trkpt lat="42.448057" lon="1.609102">
        <ele>2140.217</ele>
        <time>2019-05-31T12:00:00Z</time>
      </trkpt>
      <trkpt lat="42.448119" lon="1.609205">
        <ele>2140.892</ele>
        <time>2019-05-31T12:00:07Z</time>
      </trkpt>
      <trkpt lat="42.448147" lon="1.609232">
        <ele>2141.256</ele>
        <time>2019-05-31T12:00:10Z</time>
      </trkpt>
      <trkpt lat="42.448168" lon="1.609240">
        <ele>2141.252</ele>
        <time>2019-05-31T12:00:12Z</time>
      </trkpt>
      <trkpt lat="42.448189" lon="1.609244">
        <ele>2141.456</ele>
        <time>2019-05-31T12:00:14Z</time>
      </trkpt>
      <trkpt lat="42.448250" lon="1.609235">
        <ele>2142.459</ele>
        <time>2019-05-31T12:00:19Z</time>
      </trkpt>
      <trkpt lat="42.448284" lon="1.609207">
        <ele>2142.814</ele>
        <time>2019-05-31T12:00:22Z</time>
      </trkpt>
      <trkpt lat="42.448349" lon="1.609110">
        <ele>2143.008</ele>
        <time>2019-05-31T12:00:30Z</time>
      </trkpt>
      <trkpt lat="42.448370" lon="1.609065">
        <ele>2143.438</ele>
        <time>2019-05-31T12:00:33Z</time>
      </trkpt>
      <trkpt lat="42.448377" lon="1.609051">
        <ele>2143.612</ele>
        <time>2019-05-31T12:00:34Z</time>
      </trkpt>
      <trkpt lat="42.448412" lon="1.608988">
        <ele>2143.858</ele>
        <time>2019-05-31T12:00:38Z</time>
      </trkpt>
      <trkpt lat="42.448448" lon="1.608888">
        <ele>2144.086</ele>
        <time>2019-05-31T12:00:44Z</time>
      </trkpt>
      <trkpt lat="42.448479" lon="1.608775">
        <ele>2144.440</ele>
        <time>2019-05-31T12:00:51Z</time>
      </trkpt>
      <trkpt lat="42.448489" lon="1.608742">
        <ele>2144.685</ele>
        <time>2019-05-31T12:00:53Z</time>
      </trkpt>
      <trkpt lat="42.448512" lon="1.608639">
        <ele>2145.039</ele>
        <time>2019-05-31T12:00:59Z</time>
      </trkpt>
      <trkpt lat="42.448539" lon="1.608500">
        <ele>2145.655</ele>
        <time>2019-05-31T12:01:07Z</time>
      </trkpt>
      <trkpt lat="42.448545" lon="1.608485">
        <ele>2145.849</ele>
        <time>2019-05-31T12:01:08Z</time>
      </trkpt>
      <trkpt lat="42.448566" lon="1.608367">
        <ele>2146.402</ele>
        <time>2019-05-31T12:01:16Z</time>
      </trkpt>
      <trkpt lat="42.448564" lon="1.608272">
        <ele>2146.822</ele>
        <time>2019-05-31T12:01:21Z</time>
      </trkpt>
      <trkpt lat="42.448552" lon="1.608219">
        <ele>2147.408</ele>
        <time>2019-05-31T12:01:24Z</time>
      </trkpt>
      <trkpt lat="42.448542" lon="1.608172">
        <ele>2147.667</ele>
        <time>2019-05-31T12:01:27Z</time>
      </trkpt>
      <trkpt lat="42.448529" lon="1.608122">
        <ele>2147.861</ele>
        <time>2019-05-31T12:01:30Z</time>
      </trkpt>
      <trkpt lat="42.448526" lon="1.608109">
        <ele>2148.027</ele>
        <time>2019-05-31T12:01:31Z</time>
      </trkpt>
      <trkpt lat="42.448499" lon="1.608017">
        <ele>2148.885</ele>
        <time>2019-05-31T12:01:37Z</time>
      </trkpt>
      <trkpt lat="42.448492" lon="1.608002">
        <ele>2149.039</ele>
        <time>2019-05-31T12:01:38Z</time>
      </trkpt>
      <trkpt lat="42.448457" lon="1.607890">
        <ele>2149.424</ele>
        <time>2019-05-31T12:01:45Z</time>
      </trkpt>
      <trkpt lat="42.448453" lon="1.607832">
        <ele>2150.038</ele>
        <time>2019-05-31T12:01:49Z</time>
      </trkpt>
      <trkpt lat="42.448442" lon="1.607787">
        <ele>2150.014</ele>
        <time>2019-05-31T12:01:52Z</time>
      </trkpt>
      <trkpt lat="42.448427" lon="1.607661">
        <ele>2150.816</ele>
        <time>2019-05-31T12:02:00Z</time>
      </trkpt>
      <trkpt lat="42.448422" lon="1.607592">
        <ele>2151.076</ele>
        <time>2019-05-31T12:02:04Z</time>
      </trkpt>
      <trkpt lat="42.448416" lon="1.607547">
        <ele>2151.413</ele>
        <time>2019-05-31T12:02:07Z</time>
      </trkpt>
      <trkpt lat="42.448411" lon="1.607443">
        <ele>2151.808</ele>
        <time>2019-05-31T12:02:12Z</time>
      </trkpt>
      <trkpt lat="42.448409" lon="1.607421">
        <ele>2151.854</ele>
        <time>2019-05-31T12:02:13Z</time>
      </trkpt>
      <trkpt lat="42.448398" lon="1.607378">
        <ele>2152.088</ele>
        <time>2019-05-31T12:02:15Z</time>
      </trkpt>
      <trkpt lat="42.448394" lon="1.607360">
        <ele>2152.054</ele>
        <time>2019-05-31T12:02:16Z</time>
      </trkpt>
      <trkpt lat="42.448386" lon="1.607307">
        <ele>2152.482</ele>
        <time>2019-05-31T12:02:19Z</time>
      </trkpt>
      <trkpt lat="42.448373" lon="1.607211">
        <ele>2153.056</ele>
        <time>2019-05-31T12:02:25Z</time>
      </trkpt>
      <trkpt lat="42.448368" lon="1.607180">
        <ele>2153.071</ele>
        <time>2019-05-31T12:02:27Z</time>
      </trkpt>
      <trkpt lat="42.448371" lon="1.607165">
        <ele>2153.215</ele>
        <time>2019-05-31T12:02:28Z</time>
      </trkpt>
      <trkpt lat="42.448369" lon="1.607098">
        <ele>2153.431</ele>
        <time>2019-05-31T12:02:32Z</time>
      </trkpt>
      <trkpt lat="42.448345" lon="1.606968">
        <ele>2154.067</ele>
        <time>2019-05-31T12:02:39Z</time>
      </trkpt>
      <trkpt lat="42.448341" lon="1.606949">
        <ele>2154.081</ele>
        <time>2019-05-31T12:02:40Z</time>
      </trkpt>
      <trkpt lat="42.448338" lon="1.606895">
        <ele>2154.219</ele>
        <time>2019-05-31T12:02:43Z</time>
      </trkpt>
      <trkpt lat="42.448339" lon="1.606824">
        <ele>2154.608</ele>
        <time>2019-05-31T12:02:47Z</time>
      </trkpt>
      <trkpt lat="42.448342" lon="1.606724">
        <ele>2155.449</ele>
        <time>2019-05-31T12:02:53Z</time>
      </trkpt>
      <trkpt lat="42.448344" lon="1.606715">
        <ele>2155.443</ele>
        <time>2019-05-31T12:02:54Z</time>
      </trkpt>
      <trkpt lat="42.448355" lon="1.606610">
        <ele>2156.079</ele>
        <time>2019-05-31T12:03:01Z</time>
      </trkpt>
      <trkpt lat="42.448353" lon="1.606552">
        <ele>2156.487</ele>
        <time>2019-05-31T12:03:04Z</time>
      </trkpt>
      <trkpt lat="42.448350" lon="1.606461">
        <ele>2156.851</ele>
        <time>2019-05-31T12:03:09Z</time>
      </trkpt>
      <trkpt lat="42.448348" lon="1.606394">
        <ele>2157.446</ele>
        <time>2019-05-31T12:03:13Z</time>
      </trkpt>
      <trkpt lat="42.448345" lon="1.606316">
        <ele>2157.810</ele>
        <time>2019-05-31T12:03:17Z</time>
      </trkpt>
      <trkpt lat="42.448338" lon="1.606212">
        <ele>2158.436</ele>
        <time>2019-05-31T12:03:24Z</time>
      </trkpt>
      <trkpt lat="42.448323" lon="1.606137">
        <ele>2158.676</ele>
        <time>2019-05-31T12:03:28Z</time>
      </trkpt>
      <trkpt lat="42.448321" lon="1.606111">
        <ele>2158.890</ele>
        <time>2019-05-31T12:03:30Z</time>
      </trkpt>
      <trkpt lat="42.448301" lon="1.606017">
        <ele>2159.619</ele>
        <time>2019-05-31T12:03:37Z</time>
      </trkpt>
      <trkpt lat="42.448294" lon="1.606000">
        <ele>2159.608</ele>
        <time>2019-05-31T12:03:38Z</time>
      </trkpt>
      <trkpt lat="42.448260" lon="1.605894">
        <ele>2160.480</ele>
        <time>2019-05-31T12:03:46Z</time>
      </trkpt>
      <trkpt lat="42.448249" lon="1.605855">
        <ele>2160.684</ele>
        <time>2019-05-31T12:03:48Z</time>
      </trkpt>
      <trkpt lat="42.448234" lon="1.605792">
        <ele>2161.230</ele>
        <time>2019-05-31T12:03:52Z</time>
      </trkpt>
      <trkpt lat="42.448196" lon="1.605718">
        <ele>2161.858</ele>
        <time>2019-05-31T12:03:58Z</time>
      </trkpt>
      <trkpt lat="42.448181" lon="1.605687">
        <ele>2161.822</ele>
        <time>2019-05-31T12:04:00Z</time>
      </trkpt>
      <trkpt lat="42.448131" lon="1.605619">
        <ele>2162.847</ele>
        <time>2019-05-31T12:04:06Z</time>
      </trkpt>
      <trkpt lat="42.448052" lon="1.605541">
        <ele>2163.861</ele>
        <time>2019-05-31T12:04:13Z</time>
      </trkpt>
      <trkpt lat="42.448030" lon="1.605500">
        <ele>2164.437</ele>
        <time>2019-05-31T12:04:16Z</time>
      </trkpt>
      <trkpt lat="42.448030" lon="1.605467">
        <ele>2164.651</ele>
        <time>2019-05-31T12:04:18Z</time>
      </trkpt>
      <trkpt lat="42.448040" lon="1.605410">
        <ele>2164.801</ele>
        <time>2019-05-31T12:04:21Z</time>
      </trkpt>
      <trkpt lat="42.448044" lon="1.605393">
        <ele>2164.811</ele>
        <time>2019-05-31T12:04:22Z</time>
      </trkpt>
      <trkpt lat="42.448104" lon="1.605325">
        <ele>2166.008</ele>
        <time>2019-05-31T12:04:28Z</time>
      </trkpt>
      <trkpt lat="42.448117" lon="1.605326">
        <ele>2166.068</ele>
        <time>2019-05-31T12:04:29Z</time>
      </trkpt>
      <trkpt lat="42.448137" lon="1.605324">
        <ele>2166.242</ele>
        <time>2019-05-31T12:04:31Z</time>
      </trkpt>
      <trkpt lat="42.448168" lon="1.605324">
        <ele>2166.498</ele>
        <time>2019-05-31T12:04:34Z</time>
      </trkpt>
      <trkpt lat="42.448220" lon="1.605354">
        <ele>2167.026</ele>
        <time>2019-05-31T12:04:39Z</time>
      </trkpt>
      <trkpt lat="42.448248" lon="1.605382">
        <ele>2167.090</ele>
        <time>2019-05-31T12:04:42Z</time>
      </trkpt>
      <trkpt lat="42.448308" lon="1.605493">
        <ele>2168.085</ele>
        <time>2019-05-31T12:04:50Z</time>
      </trkpt>
      <trkpt lat="42.448315" lon="1.605503">
        <ele>2168.269</ele>
        <time>2019-05-31T12:04:51Z</time>
      </trkpt>
      <trkpt lat="42.448348" lon="1.605576">
        <ele>2168.885</ele>
        <time>2019-05-31T12:04:57Z</time>
      </trkpt>
      <trkpt lat="42.448355" lon="1.605590">
        <ele>2168.872</ele>
        <time>2019-05-31T12:04:58Z</time>
      </trkpt>
      <trkpt lat="42.448397" lon="1.605645">
        <ele>2169.213</ele>
        <time>2019-05-31T12:05:03Z</time>
      </trkpt>
      <trkpt lat="42.448465" lon="1.605731">
        <ele>2169.814</ele>
        <time>2019-05-31T12:05:10Z</time>
      </trkpt>
      <trkpt lat="42.448509" lon="1.605773">
        <ele>2170.208</ele>
        <time>2019-05-31T12:05:15Z</time>
      </trkpt>
      <trkpt lat="42.448540" lon="1.605795">
        <ele>2170.640</ele>
        <time>2019-05-31T12:05:18Z</time>
      </trkpt>
      <trkpt lat="42.448603" lon="1.605861">
        <ele>2171.014</ele>
        <time>2019-05-31T12:05:25Z</time>
      </trkpt>
      <trkpt lat="42.448621" lon="1.605874">
        <ele>2171.280</ele>
        <time>2019-05-31T12:05:27Z</time>
      </trkpt>
      <trkpt lat="42.448679" lon="1.605910">
        <ele>2171.828</ele>
        <time>2019-05-31T12:05:32Z</time>
      </trkpt>
      <trkpt lat="42.448719" lon="1.605943">
        <ele>2172.452</ele>
        <time>2019-05-31T12:05:36Z</time>
      </trkpt>
      <trkpt lat="42.448757" lon="1.605987">
        <ele>2173.037</ele>
        <time>2019-05-31T12:05:40Z</time>
      </trkpt>
      <trkpt lat="42.448800" lon="1.606009">
        <ele>2173.421</ele>
        <time>2019-05-31T12:05:44Z</time>
      </trkpt>
      <trkpt lat="42.448809" lon="1.606021">
        <ele>2173.497</ele>
        <time>2019-05-31T12:05:45Z</time>
      </trkpt>
      <trkpt lat="42.448827" lon="1.606033">
        <ele>2174.085</ele>
        <time>2019-05-31T12:05:47Z</time>
      </trkpt>
      <trkpt lat="42.448888" lon="1.606104">
        <ele>2174.489</ele>
        <time>2019-05-31T12:05:54Z</time>
      </trkpt>
      <trkpt lat="42.448896" lon="1.606113">
        <ele>2174.417</ele>
        <time>2019-05-31T12:05:55Z</time>
      </trkpt>
      <trkpt lat="42.448971" lon="1.606186">
        <ele>2175.408</ele>
        <time>2019-05-31T12:06:03Z</time>
      </trkpt>
      <trkpt lat="42.448980" lon="1.606197">
        <ele>2175.671</ele>
        <time>2019-05-31T12:06:04Z</time>
      </trkpt>
      <trkpt lat="42.449036" lon="1.606241">
        <ele>2176.015</ele>
        <time>2019-05-31T12:06:10Z</time>
      </trkpt>
      <trkpt lat="42.449085" lon="1.606267">
        <ele>2176.691</ele>
        <time>2019-05-31T12:06:14Z</time>
      </trkpt>
      <trkpt lat="42.449130" lon="1.606266">
        <ele>2177.019</ele>
        <time>2019-05-31T12:06:18Z</time>
      </trkpt>
      <trkpt lat="42.449211" lon="1.606270">
        <ele>2177.863</ele>
        <time>2019-05-31T12:06:25Z</time>
      </trkpt>
      <trkpt lat="42.449232" lon="1.606265">
        <ele>2177.868</ele>
        <time>2019-05-31T12:06:27Z</time>
      </trkpt>
      <trkpt lat="42.449305" lon="1.606247">
        <ele>2178.412</ele>
        <time>2019-05-31T12:06:34Z</time>
      </trkpt>
      <trkpt lat="42.449360" lon="1.606225">
        <ele>2178.858</ele>
        <time>2019-05-31T12:06:39Z</time>
      </trkpt>
      <trkpt lat="42.449377" lon="1.606218">
        <ele>2179.255</ele>
        <time>2019-05-31T12:06:41Z</time>
      </trkpt>
      <trkpt lat="42.449397" lon="1.606209">
        <ele>2179.407</ele>
        <time>2019-05-31T12:06:43Z</time>
      </trkpt>
      <trkpt lat="42.449463" lon="1.606175">
        <ele>2180.017</ele>
        <time>2019-05-31T12:06:49Z</time>
      </trkpt>
      <trkpt lat="42.449483" lon="1.606159">
        <ele>2180.008</ele>
        <time>2019-05-31T12:06:51Z</time>
      </trkpt>
      <trkpt lat="42.449539" lon="1.606125">
        <ele>2180.688</ele>
        <time>2019-05-31T12:06:56Z</time>
      </trkpt>
      <trkpt lat="42.449580" lon="1.606087">
        <ele>2180.842</ele>
        <time>2019-05-31T12:07:00Z</time>
      </trkpt>
      <trkpt lat="42.449607" lon="1.606053">
        <ele>2180.698</ele>
        <time>2019-05-31T12:07:03Z</time>
      </trkpt>
      <trkpt lat="42.449617" lon="1.606044">
        <ele>2181.096</ele>
        <time>2019-05-31T12:07:04Z</time>
      </trkpt>
      <trkpt lat="42.449673" lon="1.605973">
        <ele>2181.460</ele>
        <time>2019-05-31T12:07:11Z</time>
      </trkpt>
      <trkpt lat="42.449720" lon="1.605919">
        <ele>2182.055</ele>
        <time>2019-05-31T12:07:16Z</time>
      </trkpt>
      <trkpt lat="42.449748" lon="1.605882">
        <ele>2182.299</ele>
        <time>2019-05-31T12:07:19Z</time>
      </trkpt>
      <trkpt lat="42.449812" lon="1.605818">
        <ele>2183.075</ele>
        <time>2019-05-31T12:07:27Z</time>
      </trkpt>
      <trkpt lat="42.449843" lon="1.605762">
        <ele>2183.236</ele>
        <time>2019-05-31T12:07:32Z</time>
      </trkpt>
      <trkpt lat="42.449854" lon="1.605738">
        <ele>2183.617</ele>
        <time>2019-05-31T12:07:34Z</time>
      </trkpt>
      <trkpt lat="42.449899" lon="1.605673">
        <ele>2184.018</ele>
        <time>2019-05-31T12:07:39Z</time>
      </trkpt>
      <trkpt lat="42.449918" lon="1.605646">
        <ele>2184.008</ele>
        <time>2019-05-31T12:07:41Z</time>
      </trkpt>
      <trkpt lat="42.449928" lon="1.605634">
        <ele>2184.026</ele>
        <time>2019-05-31T12:07:42Z</time>
      </trkpt>
      <trkpt lat="42.449975" lon="1.605578">
        <ele>2184.420</ele>
        <time>2019-05-31T12:07:47Z</time>
      </trkpt>
      <trkpt lat="42.449995" lon="1.605563">
        <ele>2184.696</ele>
        <time>2019-05-31T12:07:49Z</time>
      </trkpt>
      <trkpt lat="42.450031" lon="1.605519">
        <ele>2185.064</ele>
        <time>2019-05-31T12:07:53Z</time>
      </trkpt>
      <trkpt lat="42.450048" lon="1.605508">
        <ele>2185.068</ele>
        <time>2019-05-31T12:07:55Z</time>
      </trkpt>
      <trkpt lat="42.450056" lon="1.605498">
        <ele>2185.053</ele>
        <time>2019-05-31T12:07:56Z</time>
      </trkpt>
      <trkpt lat="42.450068" lon="1.605495">
        <ele>2185.297</ele>
        <time>2019-05-31T12:07:57Z</time>
      </trkpt>
      <trkpt lat="42.450121" lon="1.605463">
        <ele>2185.883</ele>
        <time>2019-05-31T12:08:02Z</time>
      </trkpt>
      <trkpt lat="42.450174" lon="1.605422">
        <ele>2186.424</ele>
        <time>2019-05-31T12:08:07Z</time>
      </trkpt>
      <trkpt lat="42.450184" lon="1.605421">
        <ele>2186.404</ele>
        <time>2019-05-31T12:08:08Z</time>
      </trkpt>
      <trkpt lat="42.450251" lon="1.605388">
        <ele>2186.814</ele>
        <time>2019-05-31T12:08:14Z</time>
      </trkpt>
      <trkpt lat="42.450271" lon="1.605369">
        <ele>2187.008</ele>
        <time>2019-05-31T12:08:16Z</time>
      </trkpt>
      <trkpt lat="42.450312" lon="1.605342">
        <ele>2187.445</ele>
        <time>2019-05-31T12:08:20Z</time>
      </trkpt>
      <trkpt lat="42.450325" lon="1.605343">
        <ele>2187.699</ele>
        <time>2019-05-31T12:08:21Z</time>
      </trkpt>
      <trkpt lat="42.450336" lon="1.605341">
        <ele>2187.625</ele>
        <time>2019-05-31T12:08:22Z</time>
      </trkpt>
      <trkpt lat="42.450400" lon="1.605285">
        <ele>2188.493</ele>
        <time>2019-05-31T12:08:29Z</time>
      </trkpt>
      <trkpt lat="42.450412" lon="1.605287">
        <ele>2188.627</ele>
        <time>2019-05-31T12:08:30Z</time>
      </trkpt>
      <trkpt lat="42.450497" lon="1.605262">
        <ele>2189.242</ele>
        <time>2019-05-31T12:08:37Z</time>
      </trkpt>
      <trkpt lat="42.450523" lon="1.605230">
        <ele>2189.466</ele>
        <time>2019-05-31T12:08:40Z</time>
      </trkpt>
      <trkpt lat="42.450557" lon="1.605178">
        <ele>2189.832</ele>
        <time>2019-05-31T12:08:44Z</time>
      </trkpt>
      <trkpt lat="42.450551" lon="1.605136">
        <ele>2190.086</ele>
        <time>2019-05-31T12:08:47Z</time>
      </trkpt>
      <trkpt lat="42.450527" lon="1.605094">
        <ele>2190.060</ele>
        <time>2019-05-31T12:08:50Z</time>
      </trkpt>
      <trkpt lat="42.450483" lon="1.605080">
        <ele>2190.826</ele>
        <time>2019-05-31T12:08:54Z</time>
      </trkpt>
      <trkpt lat="42.450457" lon="1.605095">
        <ele>2190.808</ele>
        <time>2019-05-31T12:08:56Z</time>
      </trkpt>
      <trkpt lat="42.450388" lon="1.605151">
        <ele>2191.211</ele>
        <time>2019-05-31T12:09:04Z</time>
      </trkpt>
      <trkpt lat="42.450338" lon="1.605185">
        <ele>2191.865</ele>
        <time>2019-05-31T12:09:09Z</time>
      </trkpt>
      <trkpt lat="42.450324" lon="1.605184">
        <ele>2191.881</ele>
        <time>2019-05-31T12:09:10Z</time>
      </trkpt>
      <trkpt lat="42.450299" lon="1.605188">
        <ele>2191.879</ele>
        <time>2019-05-31T12:09:12Z</time>
      </trkpt>
      <trkpt lat="42.450227" lon="1.605218">
        <ele>2192.023</ele>
        <time>2019-05-31T12:09:17Z</time>
      </trkpt>
      <trkpt lat="42.450137" lon="1.605216">
        <ele>2192.648</ele>
        <time>2019-05-31T12:09:24Z</time>
      </trkpt>
      <trkpt lat="42.450029" lon="1.605205">
        <ele>2192.882</ele>
        <time>2019-05-31T12:09:32Z</time>
      </trkpt>
      <trkpt lat="42.449944" lon="1.605211">
        <ele>2193.668</ele>
        <time>2019-05-31T12:09:39Z</time>
      </trkpt>
      <trkpt lat="42.449871" lon="1.605220">
        <ele>2194.033</ele>
        <time>2019-05-31T12:09:45Z</time>
      </trkpt>
      <trkpt lat="42.449838" lon="1.605232">
        <ele>2194.023</ele>
        <time>2019-05-31T12:09:48Z</time>
      </trkpt>
      <trkpt lat="42.449740" lon="1.605257">
        <ele>2194.615</ele>
        <time>2019-05-31T12:09:56Z</time>
      </trkpt>
      <trkpt lat="42.449677" lon="1.605262">
        <ele>2195.008</ele>
        <time>2019-05-31T12:10:01Z</time>
      </trkpt>
      <trkpt lat="42.449637" lon="1.605258">
        <ele>2195.296</ele>
        <time>2019-05-31T12:10:04Z</time>
      </trkpt>
      <trkpt lat="42.449549" lon="1.605250">
        <ele>2196.080</ele>
        <time>2019-05-31T12:10:11Z</time>
      </trkpt>
      <trkpt lat="42.449538" lon="1.605247">
        <ele>2196.226</ele>
        <time>2019-05-31T12:10:12Z</time>
      </trkpt>
      <trkpt lat="42.449439" lon="1.605221">
        <ele>2196.814</ele>
        <time>2019-05-31T12:10:21Z</time>
      </trkpt>
      <trkpt lat="42.449373" lon="1.605189">
        <ele>2197.438</ele>
        <time>2019-05-31T12:10:27Z</time>
      </trkpt>
      <trkpt lat="42.449348" lon="1.605182">
        <ele>2197.433</ele>
        <time>2019-05-31T12:10:29Z</time>
      </trkpt>
      <trkpt lat="42.449296" lon="1.605155">
        <ele>2198.097</ele>
        <time>2019-05-31T12:10:34Z</time>
      </trkpt>
      <trkpt lat="42.449272" lon="1.605140">
        <ele>2198.433</ele>
        <time>2019-05-31T12:10:36Z</time>
      </trkpt>
      <trkpt lat="42.449261" lon="1.605132">
        <ele>2198.668</ele>
        <time>2019-05-31T12:10:37Z</time>
      </trkpt>
      <trkpt lat="42.449199" lon="1.605113">
        <ele>2198.642</ele>
        <time>2019-05-31T12:10:43Z</time>
      </trkpt>
      <trkpt lat="42.449121" lon="1.605066">
        <ele>2199.426</ele>
        <time>2019-05-31T12:10:51Z</time>
      </trkpt>
      <trkpt lat="42.449038" lon="1.605019">
        <ele>2200.008</ele>
        <time>2019-05-31T12:10:59Z</time>
      </trkpt>
      <trkpt lat="42.448961" lon="1.604973">
        <ele>2200.659</ele>
        <time>2019-05-31T12:11:05Z</time>
      </trkpt>
      <trkpt lat="42.448941" lon="1.604952">
        <ele>2200.813</ele>
        <time>2019-05-31T12:11:07Z</time>
      </trkpt>
      <trkpt lat="42.448871" lon="1.604917">
        <ele>2200.699</ele>
        <time>2019-05-31T12:11:13Z</time>
      </trkpt>
      <trkpt lat="42.448784" lon="1.604842">
        <ele>2201.467</ele>
        <time>2019-05-31T12:11:22Z</time>
      </trkpt>
      <trkpt lat="42.448753" lon="1.604795">
        <ele>2201.611</ele>
        <time>2019-05-31T12:11:26Z</time>
      </trkpt>
      <trkpt lat="42.448745" lon="1.604735">
        <ele>2202.476</ele>
        <time>2019-05-31T12:11:30Z</time>
      </trkpt>
      <trkpt lat="42.448747" lon="1.604714">
        <ele>2202.620</ele>
        <time>2019-05-31T12:11:31Z</time>
      </trkpt>
      <trkpt lat="42.448757" lon="1.604694">
        <ele>2202.866</ele>
        <time>2019-05-31T12:11:32Z</time>
      </trkpt>
      <trkpt lat="42.448785" lon="1.604656">
        <ele>2202.251</ele>
        <time>2019-05-31T12:11:35Z</time>
      </trkpt>
      <trkpt lat="42.448800" lon="1.604651">
        <ele>2202.201</ele>
        <time>2019-05-31T12:11:36Z</time>
      </trkpt>
      <trkpt lat="42.448868" lon="1.604647">
        <ele>2202.811</ele>
        <time>2019-05-31T12:11:41Z</time>
      </trkpt>
      <trkpt lat="42.448902" lon="1.604647">
        <ele>2202.608</ele>
        <time>2019-05-31T12:11:44Z</time>
      </trkpt>
      <trkpt lat="42.448913" lon="1.604667">
        <ele>2202.658</ele>
        <time>2019-05-31T12:11:45Z</time>
      </trkpt>
      <trkpt lat="42.448940" lon="1.604680">
        <ele>2202.662</ele>
        <time>2019-05-31T12:11:47Z</time>
      </trkpt>
      <trkpt lat="42.449018" lon="1.604740">
        <ele>2203.098</ele>
        <time>2019-05-31T12:11:53Z</time>
      </trkpt>
      <trkpt lat="42.449079" lon="1.604774">
        <ele>2203.226</ele>
        <time>2019-05-31T12:11:58Z</time>
      </trkpt>
      <trkpt lat="42.449155" lon="1.604804">
        <ele>2204.450</ele>
        <time>2019-05-31T12:12:04Z</time>
      </trkpt>
      <trkpt lat="42.449184" lon="1.604808">
        <ele>2202.895</ele>
        <time>2019-05-31T12:12:06Z</time>
      </trkpt>
      <trkpt lat="42.449199" lon="1.604810">
        <ele>2202.849</ele>
        <time>2019-05-31T12:12:07Z</time>
      </trkpt>
      <trkpt lat="42.449225" lon="1.604817">
        <ele>2204.095</ele>
        <time>2019-05-31T12:12:09Z</time>
      </trkpt>
      <trkpt lat="42.449308" lon="1.604817">
        <ele>2204.219</ele>
        <time>2019-05-31T12:12:15Z</time>
      </trkpt>
      <trkpt lat="42.449416" lon="1.604801">
        <ele>2204.609</ele>
        <time>2019-05-31T12:12:23Z</time>
      </trkpt>
      <trkpt lat="42.449479" lon="1.604782">
        <ele>2205.019</ele>
        <time>2019-05-31T12:12:28Z</time>
      </trkpt>
      <trkpt lat="42.449519" lon="1.604778">
        <ele>2205.208</ele>
        <time>2019-05-31T12:12:31Z</time>
      </trkpt>
      <trkpt lat="42.449607" lon="1.604748">
        <ele>2205.654</ele>
        <time>2019-05-31T12:12:39Z</time>
      </trkpt>
      <trkpt lat="42.449652" lon="1.604739">
        <ele>2206.028</ele>
        <time>2019-05-31T12:12:43Z</time>
      </trkpt>
      <trkpt lat="42.449683" lon="1.604726">
        <ele>2206.264</ele>
        <time>2019-05-31T12:12:46Z</time>
      </trkpt>
      <trkpt lat="42.449706" lon="1.604711">
        <ele>2206.482</ele>
        <time>2019-05-31T12:12:48Z</time>
      </trkpt>
      <trkpt lat="42.449761" lon="1.604685">
        <ele>2206.876</ele>
        <time>2019-05-31T12:12:53Z</time>
      </trkpt>
      <trkpt lat="42.449775" lon="1.604669">
        <ele>2207.051</ele>
        <time>2019-05-31T12:12:55Z</time>
      </trkpt>
      <trkpt lat="42.449783" lon="1.604665">
        <ele>2207.255</ele>
        <time>2019-05-31T12:12:56Z</time>
      </trkpt>
      <trkpt lat="42.449802" lon="1.604625">
        <ele>2207.491</ele>
        <time>2019-05-31T12:12:59Z</time>
      </trkpt>
      <trkpt lat="42.449867" lon="1.604550">
        <ele>2208.279</ele>
        <time>2019-05-31T12:13:06Z</time>
      </trkpt>
      <trkpt lat="42.449874" lon="1.604540">
        <ele>2208.205</ele>
        <time>2019-05-31T12:13:07Z</time>
      </trkpt>
      <trkpt lat="42.449901" lon="1.604506">
        <ele>2208.425</ele>
        <time>2019-05-31T12:13:10Z</time>
      </trkpt>
      <trkpt lat="42.449951" lon="1.604440">
        <ele>2209.208</ele>
        <time>2019-05-31T12:13:15Z</time>
      </trkpt>
      <trkpt lat="42.449984" lon="1.604402">
        <ele>2209.270</ele>
        <time>2019-05-31T12:13:19Z</time>
      </trkpt>
      <trkpt lat="42.450033" lon="1.604361">
        <ele>2209.654</ele>
        <time>2019-05-31T12:13:24Z</time>
      </trkpt>
      <trkpt lat="42.450107" lon="1.604289">
        <ele>2210.230</ele>
        <time>2019-05-31T12:13:32Z</time>
      </trkpt>
      <trkpt lat="42.450183" lon="1.604238">
        <ele>2211.248</ele>
        <time>2019-05-31T12:13:39Z</time>
      </trkpt>
      <trkpt lat="42.450206" lon="1.604220">
        <ele>2211.432</ele>
        <time>2019-05-31T12:13:41Z</time>
      </trkpt>
      <trkpt lat="42.450266" lon="1.604179">
        <ele>2212.037</ele>
        <time>2019-05-31T12:13:47Z</time>
      </trkpt>
      <trkpt lat="42.450313" lon="1.604149">
        <ele>2212.271</ele>
        <time>2019-05-31T12:13:52Z</time>
      </trkpt>
      <trkpt lat="42.450321" lon="1.604140">
        <ele>2212.467</ele>
        <time>2019-05-31T12:13:53Z</time>
      </trkpt>
      <trkpt lat="42.450328" lon="1.604136">
        <ele>2212.621</ele>
        <time>2019-05-31T12:13:54Z</time>
      </trkpt>
      <trkpt lat="42.450399" lon="1.604057">
        <ele>2213.241</ele>
        <time>2019-05-31T12:14:02Z</time>
      </trkpt>
      <trkpt lat="42.450405" lon="1.604049">
        <ele>2213.405</ele>
        <time>2019-05-31T12:14:03Z</time>
      </trkpt>
      <trkpt lat="42.450455" lon="1.603984">
        <ele>2213.808</ele>
        <time>2019-05-31T12:14:10Z</time>
      </trkpt>
      <trkpt lat="42.450483" lon="1.603944">
        <ele>2214.275</ele>
        <time>2019-05-31T12:14:13Z</time>
      </trkpt>
      <trkpt lat="42.450497" lon="1.603935">
        <ele>2214.469</ele>
        <time>2019-05-31T12:14:15Z</time>
      </trkpt>
      <trkpt lat="42.450503" lon="1.603923">
        <ele>2214.465</ele>
        <time>2019-05-31T12:14:16Z</time>
      </trkpt>
      <trkpt lat="42.450519" lon="1.603859">
        <ele>2214.473</ele>
        <time>2019-05-31T12:14:20Z</time>
      </trkpt>
      <trkpt lat="42.450522" lon="1.603819">
        <ele>2214.657</ele>
        <time>2019-05-31T12:14:22Z</time>
      </trkpt>
      <trkpt lat="42.450550" lon="1.603794">
        <ele>2214.882</ele>
        <time>2019-05-31T12:14:25Z</time>
      </trkpt>
      <trkpt lat="42.450584" lon="1.603769">
        <ele>2215.296</ele>
        <time>2019-05-31T12:14:29Z</time>
      </trkpt>
      <trkpt lat="42.450602" lon="1.603750">
        <ele>2215.432</ele>
        <time>2019-05-31T12:14:31Z</time>
      </trkpt>
      <trkpt lat="42.450659" lon="1.603694">
        <ele>2215.664</ele>
        <time>2019-05-31T12:14:36Z</time>
      </trkpt>
      <trkpt lat="42.450688" lon="1.603668">
        <ele>2216.006</ele>
        <time>2019-05-31T12:14:39Z</time>
      </trkpt>
      <trkpt lat="42.450721" lon="1.603623">
        <ele>2216.416</ele>
        <time>2019-05-31T12:14:43Z</time>
      </trkpt>
      <trkpt lat="42.450729" lon="1.603609">
        <ele>2216.408</ele>
        <time>2019-05-31T12:14:44Z</time>
      </trkpt>
      <trkpt lat="42.450790" lon="1.603535">
        <ele>2217.459</ele>
        <time>2019-05-31T12:14:51Z</time>
      </trkpt>
      <trkpt lat="42.450796" lon="1.603528">
        <ele>2217.413</ele>
        <time>2019-05-31T12:14:52Z</time>
      </trkpt>
      <trkpt lat="42.450829" lon="1.603485">
        <ele>2217.859</ele>
        <time>2019-05-31T12:14:56Z</time>
      </trkpt>
      <trkpt lat="42.450839" lon="1.603478">
        <ele>2217.827</ele>
        <time>2019-05-31T12:14:57Z</time>
      </trkpt>
      <trkpt lat="42.450902" lon="1.603392">
        <ele>2218.451</ele>
        <time>2019-05-31T12:15:05Z</time>
      </trkpt>
      <trkpt lat="42.450912" lon="1.603379">
        <ele>2218.656</ele>
        <time>2019-05-31T12:15:06Z</time>
      </trkpt>
      <trkpt lat="42.450944" lon="1.603340">
        <ele>2218.840</ele>
        <time>2019-05-31T12:15:09Z</time>
      </trkpt>
      <trkpt lat="42.450956" lon="1.603329">
        <ele>2219.096</ele>
        <time>2019-05-31T12:15:10Z</time>
      </trkpt>
      <trkpt lat="42.450984" lon="1.603299">
        <ele>2219.012</ele>
        <time>2019-05-31T12:15:13Z</time>
      </trkpt>
      <trkpt lat="42.451051" lon="1.603230">
        <ele>2219.632</ele>
        <time>2019-05-31T12:15:20Z</time>
      </trkpt>
      <trkpt lat="42.451069" lon="1.603211">
        <ele>2219.805</ele>
        <time>2019-05-31T12:15:22Z</time>
      </trkpt>
      <trkpt lat="42.451102" lon="1.603154">
        <ele>2220.208</ele>
        <time>2019-05-31T12:15:27Z</time>
      </trkpt>
      <trkpt lat="42.451111" lon="1.603125">
        <ele>2220.454</ele>
        <time>2019-05-31T12:15:29Z</time>
      </trkpt>
      <trkpt lat="42.451094" lon="1.603028">
        <ele>2220.658</ele>
        <time>2019-05-31T12:15:35Z</time>
      </trkpt>
      <trkpt lat="42.451030" lon="1.603007">
        <ele>2221.454</ele>
        <time>2019-05-31T12:15:41Z</time>
      </trkpt>
      <trkpt lat="42.450974" lon="1.603035">
        <ele>2221.632</ele>
        <time>2019-05-31T12:15:46Z</time>
      </trkpt>
      <trkpt lat="42.450958" lon="1.603056">
        <ele>2222.076</ele>
        <time>2019-05-31T12:15:48Z</time>
      </trkpt>
      <trkpt lat="42.450895" lon="1.603147">
        <ele>2222.691</ele>
        <time>2019-05-31T12:15:57Z</time>
      </trkpt>
      <trkpt lat="42.450887" lon="1.603159">
        <ele>2222.885</ele>
        <time>2019-05-31T12:15:58Z</time>
      </trkpt>
      <trkpt lat="42.450834" lon="1.603228">
        <ele>2223.231</ele>
        <time>2019-05-31T12:16:04Z</time>
      </trkpt>
      <trkpt lat="42.450797" lon="1.603259">
        <ele>2223.887</ele>
        <time>2019-05-31T12:16:08Z</time>
      </trkpt>
      <trkpt lat="42.450754" lon="1.603283">
        <ele>2224.042</ele>
        <time>2019-05-31T12:16:12Z</time>
      </trkpt>
      <trkpt lat="42.450645" lon="1.603338">
        <ele>2224.626</ele>
        <time>2019-05-31T12:16:22Z</time>
      </trkpt>
      <trkpt lat="42.450627" lon="1.603354">
        <ele>2225.008</ele>
        <time>2019-05-31T12:16:24Z</time>
      </trkpt>
      <trkpt lat="42.450583" lon="1.603375">
        <ele>2225.291</ele>
        <time>2019-05-31T12:16:28Z</time>
      </trkpt>
      <trkpt lat="42.450527" lon="1.603405">
        <ele>2226.015</ele>
        <time>2019-05-31T12:16:33Z</time>
      </trkpt>
      <trkpt lat="42.450514" lon="1.603411">
        <ele>2226.231</ele>
        <time>2019-05-31T12:16:34Z</time>
      </trkpt>
      <trkpt lat="42.450502" lon="1.603414">
        <ele>2226.299</ele>
        <time>2019-05-31T12:16:35Z</time>
      </trkpt>
      <trkpt lat="42.450410" lon="1.603446">
        <ele>2226.883</ele>
        <time>2019-05-31T12:16:43Z</time>
      </trkpt>
      <trkpt lat="42.450360" lon="1.603463">
        <ele>2227.238</ele>
        <time>2019-05-31T12:16:47Z</time>
      </trkpt>
      <trkpt lat="42.450342" lon="1.603478">
        <ele>2227.452</ele>
        <time>2019-05-31T12:16:49Z</time>
      </trkpt>
      <trkpt lat="42.450326" lon="1.603492">
        <ele>2227.428</ele>
        <time>2019-05-31T12:16:51Z</time>
      </trkpt>
      <trkpt lat="42.450276" lon="1.603520">
        <ele>2227.656</ele>
        <time>2019-05-31T12:16:55Z</time>
      </trkpt>
      <trkpt lat="42.450242" lon="1.603544">
        <ele>2227.659</ele>
        <time>2019-05-31T12:16:58Z</time>
      </trkpt>
      <trkpt lat="42.450199" lon="1.603579">
        <ele>2227.814</ele>
        <time>2019-05-31T12:17:02Z</time>
      </trkpt>
      <trkpt lat="42.450166" lon="1.603596">
        <ele>2228.208</ele>
        <time>2019-05-31T12:17:05Z</time>
      </trkpt>
      <trkpt lat="42.450117" lon="1.603610">
        <ele>2228.648</ele>
        <time>2019-05-31T12:17:09Z</time>
      </trkpt>
      <trkpt lat="42.450106" lon="1.603613">
        <ele>2228.632</ele>
        <time>2019-05-31T12:17:10Z</time>
      </trkpt>
      <trkpt lat="42.450052" lon="1.603627">
        <ele>2229.048</ele>
        <time>2019-05-31T12:17:15Z</time>
      </trkpt>
      <trkpt lat="42.449986" lon="1.603627">
        <ele>2229.296</ele>
        <time>2019-05-31T12:17:20Z</time>
      </trkpt>
      <trkpt lat="42.449961" lon="1.603627">
        <ele>2229.440</ele>
        <time>2019-05-31T12:17:22Z</time>
      </trkpt>
      <trkpt lat="42.449888" lon="1.603641">
        <ele>2229.685</ele>
        <time>2019-05-31T12:17:29Z</time>
      </trkpt>
      <trkpt lat="42.449784" lon="1.603641">
        <ele>2230.489</ele>
        <time>2019-05-31T12:17:37Z</time>
      </trkpt>
      <trkpt lat="42.449772" lon="1.603638">
        <ele>2230.885</ele>
        <time>2019-05-31T12:17:38Z</time>
      </trkpt>
      <trkpt lat="42.449697" lon="1.603591">
        <ele>2231.425</ele>
        <time>2019-05-31T12:17:45Z</time>
      </trkpt>
      <trkpt lat="42.449648" lon="1.603561">
        <ele>2231.426</ele>
        <time>2019-05-31T12:17:50Z</time>
      </trkpt>
      <trkpt lat="42.449635" lon="1.603558">
        <ele>2231.608</ele>
        <time>2019-05-31T12:17:51Z</time>
      </trkpt>
      <trkpt lat="42.449549" lon="1.603510">
        <ele>2232.408</ele>
        <time>2019-05-31T12:17:58Z</time>
      </trkpt>
      <trkpt lat="42.449539" lon="1.603503">
        <ele>2232.655</ele>
        <time>2019-05-31T12:17:59Z</time>
      </trkpt>
      <trkpt lat="42.449449" lon="1.603444">
        <ele>2233.019</ele>
        <time>2019-05-31T12:18:07Z</time>
      </trkpt>
      <trkpt lat="42.449383" lon="1.603401">
        <ele>2233.615</ele>
        <time>2019-05-31T12:18:13Z</time>
      </trkpt>
      <trkpt lat="42.449349" lon="1.603377">
        <ele>2233.873</ele>
        <time>2019-05-31T12:18:16Z</time>
      </trkpt>
      <trkpt lat="42.449291" lon="1.603306">
        <ele>2234.677</ele>
        <time>2019-05-31T12:18:23Z</time>
      </trkpt>
      <trkpt lat="42.449283" lon="1.603293">
        <ele>2234.612</ele>
        <time>2019-05-31T12:18:24Z</time>
      </trkpt>
      <trkpt lat="42.449278" lon="1.603263">
        <ele>2235.096</ele>
        <time>2019-05-31T12:18:26Z</time>
      </trkpt>
      <trkpt lat="42.449278" lon="1.603220">
        <ele>2235.272</ele>
        <time>2019-05-31T12:18:29Z</time>
      </trkpt>
      <trkpt lat="42.449285" lon="1.603208">
        <ele>2235.466</ele>
        <time>2019-05-31T12:18:30Z</time>
      </trkpt>
      <trkpt lat="42.449302" lon="1.603185">
        <ele>2235.629</ele>
        <time>2019-05-31T12:18:32Z</time>
      </trkpt>
      <trkpt lat="42.449310" lon="1.603175">
        <ele>2235.821</ele>
        <time>2019-05-31T12:18:33Z</time>
      </trkpt>
      <trkpt lat="42.449321" lon="1.603173">
        <ele>2235.808</ele>
        <time>2019-05-31T12:18:34Z</time>
      </trkpt>
      <trkpt lat="42.449345" lon="1.603176">
        <ele>2236.059</ele>
        <time>2019-05-31T12:18:36Z</time>
      </trkpt>
      <trkpt lat="42.449419" lon="1.603208">
        <ele>2235.083</ele>
        <time>2019-05-31T12:18:43Z</time>
      </trkpt>
      <trkpt lat="42.449430" lon="1.603212">
        <ele>2237.069</ele>
        <time>2019-05-31T12:18:44Z</time>
      </trkpt>
      <trkpt lat="42.449452" lon="1.603222">
        <ele>2237.477</ele>
        <time>2019-05-31T12:18:46Z</time>
      </trkpt>
      <trkpt lat="42.449509" lon="1.603244">
        <ele>2237.661</ele>
        <time>2019-05-31T12:18:51Z</time>
      </trkpt>
      <trkpt lat="42.449609" lon="1.603273">
        <ele>2238.016</ele>
        <time>2019-05-31T12:19:00Z</time>
      </trkpt>
      <trkpt lat="42.449632" lon="1.603277">
        <ele>2238.460</ele>
        <time>2019-05-31T12:19:02Z</time>
      </trkpt>
      <trkpt lat="42.449673" lon="1.603276">
        <ele>2238.216</ele>
        <time>2019-05-31T12:19:06Z</time>
      </trkpt>
      <trkpt lat="42.449682" lon="1.603275">
        <ele>2238.265</ele>
        <time>2019-05-31T12:19:07Z</time>
      </trkpt>
      <trkpt lat="42.449724" lon="1.603265">
        <ele>2238.868</ele>
        <time>2019-05-31T12:19:11Z</time>
      </trkpt>
      <trkpt lat="42.449735" lon="1.603262">
        <ele>2238.814</ele>
        <time>2019-05-31T12:19:12Z</time>
      </trkpt>
      <trkpt lat="42.449761" lon="1.603250">
        <ele>2239.208</ele>
        <time>2019-05-31T12:19:15Z</time>
      </trkpt>
      <trkpt lat="42.449802" lon="1.603232">
        <ele>2239.629</ele>
        <time>2019-05-31T12:19:19Z</time>
      </trkpt>
      <trkpt lat="42.449864" lon="1.603198">
        <ele>2240.273</ele>
        <time>2019-05-31T12:19:25Z</time>
      </trkpt>
      <trkpt lat="42.449892" lon="1.603181">
        <ele>2240.489</ele>
        <time>2019-05-31T12:19:28Z</time>
      </trkpt>
      <trkpt lat="42.449965" lon="1.603111">
        <ele>2241.067</ele>
        <time>2019-05-31T12:19:36Z</time>
      </trkpt>
      <trkpt lat="42.449973" lon="1.603105">
        <ele>2241.241</ele>
        <time>2019-05-31T12:19:37Z</time>
      </trkpt>
      <trkpt lat="42.449981" lon="1.603096">
        <ele>2241.456</ele>
        <time>2019-05-31T12:19:38Z</time>
      </trkpt>
      <trkpt lat="42.450010" lon="1.603056">
        <ele>2241.450</ele>
        <time>2019-05-31T12:19:42Z</time>
      </trkpt>
      <trkpt lat="42.450062" lon="1.603001">
        <ele>2241.896</ele>
        <time>2019-05-31T12:19:48Z</time>
      </trkpt>
      <trkpt lat="42.450071" lon="1.602992">
        <ele>2242.043</ele>
        <time>2019-05-31T12:19:49Z</time>
      </trkpt>
      <trkpt lat="42.450132" lon="1.602920">
        <ele>2242.464</ele>
        <time>2019-05-31T12:19:56Z</time>
      </trkpt>
      <trkpt lat="42.450139" lon="1.602910">
        <ele>2242.410</ele>
        <time>2019-05-31T12:19:57Z</time>
      </trkpt>
      <trkpt lat="42.450196" lon="1.602846">
        <ele>2243.008</ele>
        <time>2019-05-31T12:20:04Z</time>
      </trkpt>
      <trkpt lat="42.450224" lon="1.602821">
        <ele>2243.077</ele>
        <time>2019-05-31T12:20:07Z</time>
      </trkpt>
      <trkpt lat="42.450245" lon="1.602773">
        <ele>2243.641</ele>
        <time>2019-05-31T12:20:11Z</time>
      </trkpt>
      <trkpt lat="42.450305" lon="1.602679">
        <ele>2244.087</ele>
        <time>2019-05-31T12:20:19Z</time>
      </trkpt>
      <trkpt lat="42.450335" lon="1.602618">
        <ele>2244.485</ele>
        <time>2019-05-31T12:20:24Z</time>
      </trkpt>
      <trkpt lat="42.450348" lon="1.602601">
        <ele>2244.449</ele>
        <time>2019-05-31T12:20:26Z</time>
      </trkpt>
      <trkpt lat="42.450372" lon="1.602566">
        <ele>2244.664</ele>
        <time>2019-05-31T12:20:29Z</time>
      </trkpt>
      <trkpt lat="42.450399" lon="1.602510">
        <ele>2244.858</ele>
        <time>2019-05-31T12:20:33Z</time>
      </trkpt>
      <trkpt lat="42.450461" lon="1.602414">
        <ele>2245.234</ele>
        <time>2019-05-31T12:20:41Z</time>
      </trkpt>
      <trkpt lat="42.450486" lon="1.602354">
        <ele>2245.667</ele>
        <time>2019-05-31T12:20:46Z</time>
      </trkpt>
      <trkpt lat="42.450503" lon="1.602333">
        <ele>2245.881</ele>
        <time>2019-05-31T12:20:48Z</time>
      </trkpt>
      <trkpt lat="42.450511" lon="1.602319">
        <ele>2245.819</ele>
        <time>2019-05-31T12:20:49Z</time>
      </trkpt>
      <trkpt lat="42.450553" lon="1.602222">
        <ele>2246.008</ele>
        <time>2019-05-31T12:20:55Z</time>
      </trkpt>
      <trkpt lat="42.450578" lon="1.602110">
        <ele>2246.659</ele>
        <time>2019-05-31T12:21:00Z</time>
      </trkpt>
      <trkpt lat="42.450591" lon="1.602071">
        <ele>2246.853</ele>
        <time>2019-05-31T12:21:02Z</time>
      </trkpt>
      <trkpt lat="42.450617" lon="1.601997">
        <ele>2247.049</ele>
        <time>2019-05-31T12:21:06Z</time>
      </trkpt>
      <trkpt lat="42.450623" lon="1.601982">
        <ele>2247.287</ele>
        <time>2019-05-31T12:21:07Z</time>
      </trkpt>
      <trkpt lat="42.450677" lon="1.601866">
        <ele>2247.451</ele>
        <time>2019-05-31T12:21:15Z</time>
      </trkpt>
      <trkpt lat="42.450697" lon="1.601824">
        <ele>2247.896</ele>
        <time>2019-05-31T12:21:18Z</time>
      </trkpt>
      <trkpt lat="42.450743" lon="1.601764">
        <ele>2248.080</ele>
        <time>2019-05-31T12:21:23Z</time>
      </trkpt>
      <trkpt lat="42.450824" lon="1.601696">
        <ele>2248.216</ele>
        <time>2019-05-31T12:21:31Z</time>
      </trkpt>
      <trkpt lat="42.450880" lon="1.601660">
        <ele>2248.697</ele>
        <time>2019-05-31T12:21:37Z</time>
      </trkpt>
      <trkpt lat="42.450890" lon="1.601651">
        <ele>2248.823</ele>
        <time>2019-05-31T12:21:38Z</time>
      </trkpt>
      <trkpt lat="42.450972" lon="1.601574">
        <ele>2249.425</ele>
        <time>2019-05-31T12:21:46Z</time>
      </trkpt>
      <trkpt lat="42.450999" lon="1.601545">
        <ele>2249.808</ele>
        <time>2019-05-31T12:21:49Z</time>
      </trkpt>
      <trkpt lat="42.451033" lon="1.601492">
        <ele>2250.272</ele>
        <time>2019-05-31T12:21:53Z</time>
      </trkpt>
      <trkpt lat="42.451087" lon="1.601429">
        <ele>2250.486</ele>
        <time>2019-05-31T12:21:59Z</time>
      </trkpt>
      <trkpt lat="42.451094" lon="1.601419">
        <ele>2250.422</ele>
        <time>2019-05-31T12:22:00Z</time>
      </trkpt>
      <trkpt lat="42.451110" lon="1.601395">
        <ele>2251.050</ele>
        <time>2019-05-31T12:22:02Z</time>
      </trkpt>
      <trkpt lat="42.451120" lon="1.601386">
        <ele>2251.274</ele>
        <time>2019-05-31T12:22:03Z</time>
      </trkpt>
      <trkpt lat="42.451148" lon="1.601366">
        <ele>2251.459</ele>
        <time>2019-05-31T12:22:06Z</time>
      </trkpt>
      <trkpt lat="42.451190" lon="1.601297">
        <ele>2252.293</ele>
        <time>2019-05-31T12:22:12Z</time>
      </trkpt>
      <trkpt lat="42.451201" lon="1.601287">
        <ele>2252.229</ele>
        <time>2019-05-31T12:22:13Z</time>
      </trkpt>
      <trkpt lat="42.451207" lon="1.601272">
        <ele>2252.463</ele>
        <time>2019-05-31T12:22:14Z</time>
      </trkpt>
      <trkpt lat="42.451260" lon="1.601208">
        <ele>2252.244</ele>
        <time>2019-05-31T12:22:20Z</time>
      </trkpt>
      <trkpt lat="42.451357" lon="1.601141">
        <ele>2252.818</ele>
        <time>2019-05-31T12:22:28Z</time>
      </trkpt>
      <trkpt lat="42.451416" lon="1.601105">
        <ele>2253.208</ele>
        <time>2019-05-31T12:22:33Z</time>
      </trkpt>
      <trkpt lat="42.451439" lon="1.601086">
        <ele>2253.229</ele>
        <time>2019-05-31T12:22:35Z</time>
      </trkpt>
      <trkpt lat="42.451519" lon="1.601020">
        <ele>2253.423</ele>
        <time>2019-05-31T12:22:42Z</time>
      </trkpt>
      <trkpt lat="42.451615" lon="1.600962">
        <ele>2253.619</ele>
        <time>2019-05-31T12:22:49Z</time>
      </trkpt>
      <trkpt lat="42.451751" lon="1.600884">
        <ele>2254.277</ele>
        <time>2019-05-31T12:22:57Z</time>
      </trkpt>
      <trkpt lat="42.451805" lon="1.600857">
        <ele>2254.271</ele>
        <time>2019-05-31T12:23:00Z</time>
      </trkpt>
      <trkpt lat="42.451901" lon="1.600838">
        <ele>2254.056</ele>
        <time>2019-05-31T12:23:05Z</time>
      </trkpt>
      <trkpt lat="42.452026" lon="1.600893">
        <ele>2254.860</ele>
        <time>2019-05-31T12:23:12Z</time>
      </trkpt>
      <trkpt lat="42.452088" lon="1.600969">
        <ele>2255.686</ele>
        <time>2019-05-31T12:23:18Z</time>
      </trkpt>
      <trkpt lat="42.452177" lon="1.601044">
        <ele>2256.498</ele>
        <time>2019-05-31T12:23:25Z</time>
      </trkpt>
      <trkpt lat="42.452189" lon="1.601056">
        <ele>2256.615</ele>
        <time>2019-05-31T12:23:26Z</time>
      </trkpt>
      <trkpt lat="42.452289" lon="1.601092">
        <ele>2256.826</ele>
        <time>2019-05-31T12:23:32Z</time>
      </trkpt>
      <trkpt lat="42.452380" lon="1.601063">
        <ele>2257.608</ele>
        <time>2019-05-31T12:23:38Z</time>
      </trkpt>
      <trkpt lat="42.452394" lon="1.601059">
        <ele>2257.632</ele>
        <time>2019-05-31T12:23:39Z</time>
      </trkpt>
      <trkpt lat="42.452501" lon="1.600986">
        <ele>2258.296</ele>
        <time>2019-05-31T12:23:47Z</time>
      </trkpt>
      <trkpt lat="42.452527" lon="1.600972">
        <ele>2258.692</ele>
        <time>2019-05-31T12:23:49Z</time>
      </trkpt>
      <trkpt lat="42.452617" lon="1.600895">
        <ele>2259.050</ele>
        <time>2019-05-31T12:23:57Z</time>
      </trkpt>
      <trkpt lat="42.452666" lon="1.600860">
        <ele>2259.634</ele>
        <time>2019-05-31T12:24:01Z</time>
      </trkpt>
      <trkpt lat="42.452711" lon="1.600824">
        <ele>2259.819</ele>
        <time>2019-05-31T12:24:05Z</time>
      </trkpt>
      <trkpt lat="42.452776" lon="1.600766">
        <ele>2260.873</ele>
        <time>2019-05-31T12:24:11Z</time>
      </trkpt>
      <trkpt lat="42.452858" lon="1.600695">
        <ele>2261.449</ele>
        <time>2019-05-31T12:24:19Z</time>
      </trkpt>
      <trkpt lat="42.452910" lon="1.600639">
        <ele>2261.865</ele>
        <time>2019-05-31T12:24:24Z</time>
      </trkpt>
      <trkpt lat="42.452922" lon="1.600631">
        <ele>2262.068</ele>
        <time>2019-05-31T12:24:25Z</time>
      </trkpt>
      <trkpt lat="42.453028" lon="1.600559">
        <ele>2262.814</ele>
        <time>2019-05-31T12:24:34Z</time>
      </trkpt>
      <trkpt lat="42.453040" lon="1.600551">
        <ele>2262.808</ele>
        <time>2019-05-31T12:24:35Z</time>
      </trkpt>
      <trkpt lat="42.453115" lon="1.600501">
        <ele>2263.629</ele>
        <time>2019-05-31T12:24:42Z</time>
      </trkpt>
      <trkpt lat="42.453159" lon="1.600474">
        <ele>2263.823</ele>
        <time>2019-05-31T12:24:46Z</time>
      </trkpt>
      <trkpt lat="42.453168" lon="1.600468">
        <ele>2264.019</ele>
        <time>2019-05-31T12:24:47Z</time>
      </trkpt>
      <trkpt lat="42.453182" lon="1.600459">
        <ele>2264.017</ele>
        <time>2019-05-31T12:24:48Z</time>
      </trkpt>
      <trkpt lat="42.453260" lon="1.600397">
        <ele>2264.641</ele>
        <time>2019-05-31T12:24:55Z</time>
      </trkpt>
      <trkpt lat="42.453298" lon="1.600366">
        <ele>2265.026</ele>
        <time>2019-05-31T12:24:59Z</time>
      </trkpt>
      <trkpt lat="42.453313" lon="1.600346">
        <ele>2265.030</ele>
        <time>2019-05-31T12:25:01Z</time>
      </trkpt>
      <trkpt lat="42.453397" lon="1.600273">
        <ele>2265.626</ele>
        <time>2019-05-31T12:25:09Z</time>
      </trkpt>
      <trkpt lat="42.453404" lon="1.600259">
        <ele>2265.833</ele>
        <time>2019-05-31T12:25:10Z</time>
      </trkpt>
      <trkpt lat="42.453455" lon="1.600225">
        <ele>2266.223</ele>
        <time>2019-05-31T12:25:15Z</time>
      </trkpt>
      <trkpt lat="42.453491" lon="1.600204">
        <ele>2266.215</ele>
        <time>2019-05-31T12:25:18Z</time>
      </trkpt>
      <trkpt lat="42.453521" lon="1.600185">
        <ele>2266.808</ele>
        <time>2019-05-31T12:25:21Z</time>
      </trkpt>
      <trkpt lat="42.453550" lon="1.600149">
        <ele>2266.866</ele>
        <time>2019-05-31T12:25:25Z</time>
      </trkpt>
      <trkpt lat="42.453575" lon="1.600115">
        <ele>2267.220</ele>
        <time>2019-05-31T12:25:28Z</time>
      </trkpt>
      <trkpt lat="42.453610" lon="1.600068">
        <ele>2267.466</ele>
        <time>2019-05-31T12:25:32Z</time>
      </trkpt>
      <trkpt lat="42.453623" lon="1.600047">
        <ele>2267.654</ele>
        <time>2019-05-31T12:25:34Z</time>
      </trkpt>
      <trkpt lat="42.453678" lon="1.599992">
        <ele>2268.248</ele>
        <time>2019-05-31T12:25:40Z</time>
      </trkpt>
      <trkpt lat="42.453687" lon="1.599980">
        <ele>2268.423</ele>
        <time>2019-05-31T12:25:41Z</time>
      </trkpt>
      <trkpt lat="42.453735" lon="1.599865">
        <ele>2268.887</ele>
        <time>2019-05-31T12:25:49Z</time>
      </trkpt>
      <trkpt lat="42.453745" lon="1.599836">
        <ele>2269.033</ele>
        <time>2019-05-31T12:25:51Z</time>
      </trkpt>
      <trkpt lat="42.453760" lon="1.599792">
        <ele>2269.066</ele>
        <time>2019-05-31T12:25:54Z</time>
      </trkpt>
      <trkpt lat="42.453774" lon="1.599764">
        <ele>2269.429</ele>
        <time>2019-05-31T12:25:56Z</time>
      </trkpt>
      <trkpt lat="42.453784" lon="1.599725">
        <ele>2269.421</ele>
        <time>2019-05-31T12:25:58Z</time>
      </trkpt>
      <trkpt lat="42.453793" lon="1.599693">
        <ele>2269.608</ele>
        <time>2019-05-31T12:26:00Z</time>
      </trkpt>
      <trkpt lat="42.453802" lon="1.599659">
        <ele>2269.899</ele>
        <time>2019-05-31T12:26:02Z</time>
      </trkpt>
      <trkpt lat="42.453824" lon="1.599600">
        <ele>2270.473</ele>
        <time>2019-05-31T12:26:06Z</time>
      </trkpt>
      <trkpt lat="42.453831" lon="1.599587">
        <ele>2270.489</ele>
        <time>2019-05-31T12:26:07Z</time>
      </trkpt>
      <trkpt lat="42.453845" lon="1.599539">
        <ele>2270.627</ele>
        <time>2019-05-31T12:26:10Z</time>
      </trkpt>
      <trkpt lat="42.453878" lon="1.599467">
        <ele>2271.021</ele>
        <time>2019-05-31T12:26:15Z</time>
      </trkpt>
      <trkpt lat="42.453896" lon="1.599441">
        <ele>2271.886</ele>
        <time>2019-05-31T12:26:17Z</time>
      </trkpt>
      <trkpt lat="42.453943" lon="1.599357">
        <ele>2271.040</ele>
        <time>2019-05-31T12:26:23Z</time>
      </trkpt>
      <trkpt lat="42.453969" lon="1.599318">
        <ele>2271.446</ele>
        <time>2019-05-31T12:26:26Z</time>
      </trkpt>
      <trkpt lat="42.453994" lon="1.599282">
        <ele>2272.086</ele>
        <time>2019-05-31T12:26:29Z</time>
      </trkpt>
      <trkpt lat="42.454019" lon="1.599230">
        <ele>2272.260</ele>
        <time>2019-05-31T12:26:33Z</time>
      </trkpt>
      <trkpt lat="42.454033" lon="1.599178">
        <ele>2272.226</ele>
        <time>2019-05-31T12:26:36Z</time>
      </trkpt>
      <trkpt lat="42.454085" lon="1.599048">
        <ele>2272.408</ele>
        <time>2019-05-31T12:26:45Z</time>
      </trkpt>
      <trkpt lat="42.454121" lon="1.598997">
        <ele>2272.861</ele>
        <time>2019-05-31T12:26:49Z</time>
      </trkpt>
      <trkpt lat="42.454134" lon="1.598992">
        <ele>2273.035</ele>
        <time>2019-05-31T12:26:50Z</time>
      </trkpt>
      <trkpt lat="42.454170" lon="1.598980">
        <ele>2273.681</ele>
        <time>2019-05-31T12:26:53Z</time>
      </trkpt>
      <trkpt lat="42.454191" lon="1.598963">
        <ele>2274.479</ele>
        <time>2019-05-31T12:26:55Z</time>
      </trkpt>
      <trkpt lat="42.454201" lon="1.598952">
        <ele>2273.423</ele>
        <time>2019-05-31T12:26:56Z</time>
      </trkpt>
      <trkpt lat="42.454246" lon="1.598918">
        <ele>2273.618</ele>
        <time>2019-05-31T12:27:00Z</time>
      </trkpt>
      <trkpt lat="42.454301" lon="1.598879">
        <ele>2274.632</ele>
        <time>2019-05-31T12:27:05Z</time>
      </trkpt>
      <trkpt lat="42.454311" lon="1.598871">
        <ele>2274.838</ele>
        <time>2019-05-31T12:27:06Z</time>
      </trkpt>
      <trkpt lat="42.454346" lon="1.598830">
        <ele>2274.639</ele>
        <time>2019-05-31T12:27:10Z</time>
      </trkpt>
      <trkpt lat="42.454381" lon="1.598802">
        <ele>2275.001</ele>
        <time>2019-05-31T12:27:13Z</time>
      </trkpt>
      <trkpt lat="42.454402" lon="1.598778">
        <ele>2275.421</ele>
        <time>2019-05-31T12:27:15Z</time>
      </trkpt>
      <trkpt lat="42.454445" lon="1.598721">
        <ele>2275.808</ele>
        <time>2019-05-31T12:27:20Z</time>
      </trkpt>
      <trkpt lat="42.454455" lon="1.598706">
        <ele>2275.826</ele>
        <time>2019-05-31T12:27:21Z</time>
      </trkpt>
      <trkpt lat="42.454492" lon="1.598602">
        <ele>2276.680</ele>
        <time>2019-05-31T12:27:28Z</time>
      </trkpt>
      <trkpt lat="42.454499" lon="1.598573">
        <ele>2276.686</ele>
        <time>2019-05-31T12:27:30Z</time>
      </trkpt>
      <trkpt lat="42.454511" lon="1.598541">
        <ele>2276.844</ele>
        <time>2019-05-31T12:27:32Z</time>
      </trkpt>
      <trkpt lat="42.454520" lon="1.598523">
        <ele>2276.848</ele>
        <time>2019-05-31T12:27:33Z</time>
      </trkpt>
      <trkpt lat="42.454542" lon="1.598414">
        <ele>2276.633</ele>
        <time>2019-05-31T12:27:39Z</time>
      </trkpt>
      <trkpt lat="42.454575" lon="1.598323">
        <ele>2277.087</ele>
        <time>2019-05-31T12:27:44Z</time>
      </trkpt>
      <trkpt lat="42.454587" lon="1.598307">
        <ele>2277.043</ele>
        <time>2019-05-31T12:27:45Z</time>
      </trkpt>
      <trkpt lat="42.454648" lon="1.598206">
        <ele>2277.419</ele>
        <time>2019-05-31T12:27:53Z</time>
      </trkpt>
      <trkpt lat="42.454699" lon="1.598153">
        <ele>2277.209</ele>
        <time>2019-05-31T12:27:57Z</time>
      </trkpt>
      <trkpt lat="42.454724" lon="1.598127">
        <ele>2277.219</ele>
        <time>2019-05-31T12:27:59Z</time>
      </trkpt>
      <trkpt lat="42.454781" lon="1.598084">
        <ele>2277.408</ele>
        <time>2019-05-31T12:28:03Z</time>
      </trkpt>
      <trkpt lat="42.454840" lon="1.598060">
        <ele>2277.034</ele>
        <time>2019-05-31T12:28:07Z</time>
      </trkpt>
      <trkpt lat="42.454935" lon="1.598014">
        <ele>2277.698</ele>
        <time>2019-05-31T12:28:13Z</time>
      </trkpt>
      <trkpt lat="42.455061" lon="1.597914">
        <ele>2277.474</ele>
        <time>2019-05-31T12:28:21Z</time>
      </trkpt>
      <trkpt lat="42.455150" lon="1.597857">
        <ele>2277.692</ele>
        <time>2019-05-31T12:28:27Z</time>
      </trkpt>
      <trkpt lat="42.455203" lon="1.597794">
        <ele>2277.876</ele>
        <time>2019-05-31T12:28:31Z</time>
      </trkpt>
      <trkpt lat="42.455236" lon="1.597766">
        <ele>2278.031</ele>
        <time>2019-05-31T12:28:33Z</time>
      </trkpt>
      <trkpt lat="42.455392" lon="1.597652">
        <ele>2278.265</ele>
        <time>2019-05-31T12:28:42Z</time>
      </trkpt>
      <trkpt lat="42.455503" lon="1.597580">
        <ele>2278.681</ele>
        <time>2019-05-31T12:28:49Z</time>
      </trkpt>
      <trkpt lat="42.455527" lon="1.597564">
        <ele>2278.851</ele>
        <time>2019-05-31T12:28:51Z</time>
      </trkpt>
      <trkpt lat="42.455594" lon="1.597494">
        <ele>2279.401</ele>
        <time>2019-05-31T12:28:57Z</time>
      </trkpt>
      <trkpt lat="42.455617" lon="1.597474">
        <ele>2279.611</ele>
        <time>2019-05-31T12:28:59Z</time>
      </trkpt>
      <trkpt lat="42.455664" lon="1.597446">
        <ele>2279.608</ele>
        <time>2019-05-31T12:29:03Z</time>
      </trkpt>
      <trkpt lat="42.455672" lon="1.597436">
        <ele>2279.848</ele>
        <time>2019-05-31T12:29:04Z</time>
      </trkpt>
      <trkpt lat="42.455693" lon="1.597416">
        <ele>2280.082</ele>
        <time>2019-05-31T12:29:06Z</time>
      </trkpt>
      <trkpt lat="42.455738" lon="1.597398">
        <ele>2280.268</ele>
        <time>2019-05-31T12:29:09Z</time>
      </trkpt>
      <trkpt lat="42.455776" lon="1.597381">
        <ele>2280.456</ele>
        <time>2019-05-31T12:29:12Z</time>
      </trkpt>
      <trkpt lat="42.455799" lon="1.597354">
        <ele>2280.840</ele>
        <time>2019-05-31T12:29:15Z</time>
      </trkpt>
      <trkpt lat="42.455808" lon="1.597344">
        <ele>2281.085</ele>
        <time>2019-05-31T12:29:16Z</time>
      </trkpt>
      <trkpt lat="42.455916" lon="1.597294">
        <ele>2281.699</ele>
        <time>2019-05-31T12:29:25Z</time>
      </trkpt>
      <trkpt lat="42.455947" lon="1.597280">
        <ele>2282.025</ele>
        <time>2019-05-31T12:29:28Z</time>
      </trkpt>
      <trkpt lat="42.455984" lon="1.597256">
        <ele>2282.299</ele>
        <time>2019-05-31T12:29:31Z</time>
      </trkpt>
      <trkpt lat="42.456042" lon="1.597197">
        <ele>2282.607</ele>
        <time>2019-05-31T12:29:37Z</time>
      </trkpt>
      <trkpt lat="42.456051" lon="1.597189">
        <ele>2282.627</ele>
        <time>2019-05-31T12:29:38Z</time>
      </trkpt>
      <trkpt lat="42.456067" lon="1.597172">
        <ele>2283.208</ele>
        <time>2019-05-31T12:29:40Z</time>
      </trkpt>
      <trkpt lat="42.456126" lon="1.597108">
        <ele>2283.692</ele>
        <time>2019-05-31T12:29:46Z</time>
      </trkpt>
      <trkpt lat="42.456224" lon="1.597041">
        <ele>2284.086</ele>
        <time>2019-05-31T12:29:54Z</time>
      </trkpt>
      <trkpt lat="42.456235" lon="1.597033">
        <ele>2284.222</ele>
        <time>2019-05-31T12:29:55Z</time>
      </trkpt>
      <trkpt lat="42.456251" lon="1.597012">
        <ele>2284.250</ele>
        <time>2019-05-31T12:29:57Z</time>
      </trkpt>
      <trkpt lat="42.456278" lon="1.596971">
        <ele>2284.654</ele>
        <time>2019-05-31T12:30:01Z</time>
      </trkpt>
      <trkpt lat="42.456334" lon="1.596872">
        <ele>2285.049</ele>
        <time>2019-05-31T12:30:09Z</time>
      </trkpt>
      <trkpt lat="42.456349" lon="1.596828">
        <ele>2285.243</ele>
        <time>2019-05-31T12:30:12Z</time>
      </trkpt>
      <trkpt lat="42.456379" lon="1.596757">
        <ele>2285.619</ele>
        <time>2019-05-31T12:30:17Z</time>
      </trkpt>
      <trkpt lat="42.456397" lon="1.596675">
        <ele>2286.067</ele>
        <time>2019-05-31T12:30:22Z</time>
      </trkpt>
      <trkpt lat="42.456402" lon="1.596661">
        <ele>2285.881</ele>
        <time>2019-05-31T12:30:23Z</time>
      </trkpt>
      <trkpt lat="42.456408" lon="1.596632">
        <ele>2285.819</ele>
        <time>2019-05-31T12:30:25Z</time>
      </trkpt>
      <trkpt lat="42.456408" lon="1.596548">
        <ele>2286.208</ele>
        <time>2019-05-31T12:30:30Z</time>
      </trkpt>
      <trkpt lat="42.456401" lon="1.596504">
        <ele>2286.479</ele>
        <time>2019-05-31T12:30:33Z</time>
      </trkpt>
      <trkpt lat="42.456393" lon="1.596492">
        <ele>2286.473</ele>
        <time>2019-05-31T12:30:34Z</time>
      </trkpt>
      <trkpt lat="42.456370" lon="1.596447">
        <ele>2286.689</ele>
        <time>2019-05-31T12:30:37Z</time>
      </trkpt>
      <trkpt lat="42.456312" lon="1.596357">
        <ele>2287.057</ele>
        <time>2019-05-31T12:30:44Z</time>
      </trkpt>
      <trkpt lat="42.456279" lon="1.596318">
        <ele>2286.881</ele>
        <time>2019-05-31T12:30:47Z</time>
      </trkpt>
      <trkpt lat="42.456246" lon="1.596292">
        <ele>2287.016</ele>
        <time>2019-05-31T12:30:50Z</time>
      </trkpt>
      <trkpt lat="42.456202" lon="1.596255">
        <ele>2287.280</ele>
        <time>2019-05-31T12:30:54Z</time>
      </trkpt>
      <trkpt lat="42.456168" lon="1.596223">
        <ele>2287.476</ele>
        <time>2019-05-31T12:30:57Z</time>
      </trkpt>
      <trkpt lat="42.456100" lon="1.596170">
        <ele>2287.813</ele>
        <time>2019-05-31T12:31:04Z</time>
      </trkpt>
      <trkpt lat="42.456041" lon="1.596080">
        <ele>2288.443</ele>
        <time>2019-05-31T12:31:12Z</time>
      </trkpt>
      <trkpt lat="42.456032" lon="1.596058">
        <ele>2288.407</ele>
        <time>2019-05-31T12:31:14Z</time>
      </trkpt>
      <trkpt lat="42.456029" lon="1.596044">
        <ele>2288.808</ele>
        <time>2019-05-31T12:31:15Z</time>
      </trkpt>
      <trkpt lat="42.456013" lon="1.596000">
        <ele>2289.084</ele>
        <time>2019-05-31T12:31:18Z</time>
      </trkpt>
      <trkpt lat="42.456000" lon="1.595885">
        <ele>2289.438</ele>
        <time>2019-05-31T12:31:25Z</time>
      </trkpt>
      <trkpt lat="42.456000" lon="1.595867">
        <ele>2289.484</ele>
        <time>2019-05-31T12:31:26Z</time>
      </trkpt>
      <trkpt lat="42.455987" lon="1.595775">
        <ele>2290.082</ele>
        <time>2019-05-31T12:31:31Z</time>
      </trkpt>
      <trkpt lat="42.455974" lon="1.595718">
        <ele>2290.416</ele>
        <time>2019-05-31T12:31:35Z</time>
      </trkpt>
      <trkpt lat="42.455966" lon="1.595697">
        <ele>2290.481</ele>
        <time>2019-05-31T12:31:37Z</time>
      </trkpt>
      <trkpt lat="42.455963" lon="1.595671">
        <ele>2290.685</ele>
        <time>2019-05-31T12:31:39Z</time>
      </trkpt>
      <trkpt lat="42.455983" lon="1.595629">
        <ele>2290.861</ele>
        <time>2019-05-31T12:31:42Z</time>
      </trkpt>
      <trkpt lat="42.455991" lon="1.595614">
        <ele>2291.045</ele>
        <time>2019-05-31T12:31:43Z</time>
      </trkpt>
      <trkpt lat="42.455995" lon="1.595600">
        <ele>2291.247</ele>
        <time>2019-05-31T12:31:44Z</time>
      </trkpt>
      <trkpt lat="42.456040" lon="1.595546">
        <ele>2291.611</ele>
        <time>2019-05-31T12:31:49Z</time>
      </trkpt>
      <trkpt lat="42.456048" lon="1.595533">
        <ele>2291.808</ele>
        <time>2019-05-31T12:31:50Z</time>
      </trkpt>
      <trkpt lat="42.456122" lon="1.595479">
        <ele>2292.297</ele>
        <time>2019-05-31T12:31:56Z</time>
      </trkpt>
      <trkpt lat="42.456211" lon="1.595454">
        <ele>2292.831</ele>
        <time>2019-05-31T12:32:02Z</time>
      </trkpt>
      <trkpt lat="42.456290" lon="1.595473">
        <ele>2293.457</ele>
        <time>2019-05-31T12:32:08Z</time>
      </trkpt>
      <trkpt lat="42.456351" lon="1.595511">
        <ele>2293.865</ele>
        <time>2019-05-31T12:32:13Z</time>
      </trkpt>
      <trkpt lat="42.456361" lon="1.595523">
        <ele>2293.899</ele>
        <time>2019-05-31T12:32:14Z</time>
      </trkpt>
      <trkpt lat="42.456374" lon="1.595533">
        <ele>2294.064</ele>
        <time>2019-05-31T12:32:15Z</time>
      </trkpt>
      <trkpt lat="42.456416" lon="1.595595">
        <ele>2294.038</ele>
        <time>2019-05-31T12:32:19Z</time>
      </trkpt>
      <trkpt lat="42.456424" lon="1.595609">
        <ele>2294.064</ele>
        <time>2019-05-31T12:32:20Z</time>
      </trkpt>
      <trkpt lat="42.456492" lon="1.595783">
        <ele>2294.095</ele>
        <time>2019-05-31T12:32:28Z</time>
      </trkpt>
      <trkpt lat="42.456562" lon="1.595929">
        <ele>2294.249</ele>
        <time>2019-05-31T12:32:36Z</time>
      </trkpt>
      <trkpt lat="42.456611" lon="1.596020">
        <ele>2294.423</ele>
        <time>2019-05-31T12:32:41Z</time>
      </trkpt>
      <trkpt lat="42.456622" lon="1.596035">
        <ele>2294.608</ele>
        <time>2019-05-31T12:32:42Z</time>
      </trkpt>
      <trkpt lat="42.456661" lon="1.596117">
        <ele>2295.072</ele>
        <time>2019-05-31T12:32:47Z</time>
      </trkpt>
      <trkpt lat="42.456695" lon="1.596189">
        <ele>2295.066</ele>
        <time>2019-05-31T12:32:51Z</time>
      </trkpt>
      <trkpt lat="42.456756" lon="1.596316">
        <ele>2295.622</ele>
        <time>2019-05-31T12:32:59Z</time>
      </trkpt>
      <trkpt lat="42.456773" lon="1.596390">
        <ele>2296.010</ele>
        <time>2019-05-31T12:33:04Z</time>
      </trkpt>
      <trkpt lat="42.456784" lon="1.596436">
        <ele>2296.424</ele>
        <time>2019-05-31T12:33:07Z</time>
      </trkpt>
      <trkpt lat="42.456778" lon="1.596534">
        <ele>2297.219</ele>
        <time>2019-05-31T12:33:14Z</time>
      </trkpt>
      <trkpt lat="42.456777" lon="1.596550">
        <ele>2297.693</ele>
        <time>2019-05-31T12:33:15Z</time>
      </trkpt>
      <trkpt lat="42.456766" lon="1.596679">
        <ele>2298.039</ele>
        <time>2019-05-31T12:33:23Z</time>
      </trkpt>
      <trkpt lat="42.456764" lon="1.596693">
        <ele>2298.232</ele>
        <time>2019-05-31T12:33:24Z</time>
      </trkpt>
      <trkpt lat="42.456770" lon="1.596820">
        <ele>2299.092</ele>
        <time>2019-05-31T12:33:32Z</time>
      </trkpt>
      <trkpt lat="42.456761" lon="1.596905">
        <ele>2299.211</ele>
        <time>2019-05-31T12:33:38Z</time>
      </trkpt>
      <trkpt lat="42.456753" lon="1.596935">
        <ele>2299.608</ele>
        <time>2019-05-31T12:33:40Z</time>
      </trkpt>
      <trkpt lat="42.456756" lon="1.597000">
        <ele>2300.066</ele>
        <time>2019-05-31T12:33:44Z</time>
      </trkpt>
      <trkpt lat="42.456756" lon="1.597045">
        <ele>2300.230</ele>
        <time>2019-05-31T12:33:47Z</time>
      </trkpt>
      <trkpt lat="42.456756" lon="1.597060">
        <ele>2300.466</ele>
        <time>2019-05-31T12:33:48Z</time>
      </trkpt>
      <trkpt lat="42.456776" lon="1.597176">
        <ele>2301.014</ele>
        <time>2019-05-31T12:33:56Z</time>
      </trkpt>
      <trkpt lat="42.456779" lon="1.597239">
        <ele>2301.488</ele>
        <time>2019-05-31T12:34:00Z</time>
      </trkpt>
      <trkpt lat="42.456787" lon="1.597294">
        <ele>2301.813</ele>
        <time>2019-05-31T12:34:04Z</time>
      </trkpt>
      <trkpt lat="42.456788" lon="1.597351">
        <ele>2302.237</ele>
        <time>2019-05-31T12:34:08Z</time>
      </trkpt>
      <trkpt lat="42.456786" lon="1.597383">
        <ele>2302.463</ele>
        <time>2019-05-31T12:34:10Z</time>
      </trkpt>
      <trkpt lat="42.456787" lon="1.597399">
        <ele>2302.652</ele>
        <time>2019-05-31T12:34:11Z</time>
      </trkpt>
      <trkpt lat="42.456777" lon="1.597489">
        <ele>2303.253</ele>
        <time>2019-05-31T12:34:17Z</time>
      </trkpt>
      <trkpt lat="42.456774" lon="1.597501">
        <ele>2303.208</ele>
        <time>2019-05-31T12:34:18Z</time>
      </trkpt>
      <trkpt lat="42.456763" lon="1.597512">
        <ele>2303.008</ele>
        <time>2019-05-31T12:34:19Z</time>
      </trkpt>
      <trkpt lat="42.456747" lon="1.597551">
        <ele>2303.668</ele>
        <time>2019-05-31T12:34:22Z</time>
      </trkpt>
      <trkpt lat="42.456741" lon="1.597566">
        <ele>2303.832</ele>
        <time>2019-05-31T12:34:23Z</time>
      </trkpt>
      <trkpt lat="42.456722" lon="1.597599">
        <ele>2303.878</ele>
        <time>2019-05-31T12:34:26Z</time>
      </trkpt>
      <trkpt lat="42.456696" lon="1.597632">
        <ele>2304.236</ele>
        <time>2019-05-31T12:34:29Z</time>
      </trkpt>
      <trkpt lat="42.456686" lon="1.597638">
        <ele>2304.460</ele>
        <time>2019-05-31T12:34:30Z</time>
      </trkpt>
      <trkpt lat="42.456654" lon="1.597667">
        <ele>2304.615</ele>
        <time>2019-05-31T12:34:33Z</time>
      </trkpt>
      <trkpt lat="42.456646" lon="1.597680">
        <ele>2304.819</ele>
        <time>2019-05-31T12:34:34Z</time>
      </trkpt>
      <trkpt lat="42.456624" lon="1.597707">
        <ele>2305.035</ele>
        <time>2019-05-31T12:34:37Z</time>
      </trkpt>
      <trkpt lat="42.456594" lon="1.597740">
        <ele>2305.683</ele>
        <time>2019-05-31T12:34:41Z</time>
      </trkpt>
      <trkpt lat="42.456589" lon="1.597757">
        <ele>2305.825</ele>
        <time>2019-05-31T12:34:42Z</time>
      </trkpt>
      <trkpt lat="42.456574" lon="1.597779">
        <ele>2306.017</ele>
        <time>2019-05-31T12:34:44Z</time>
      </trkpt>
      <trkpt lat="42.456519" lon="1.597819">
        <ele>2306.808</ele>
        <time>2019-05-31T12:34:50Z</time>
      </trkpt>
      <trkpt lat="42.456473" lon="1.597883">
        <ele>2307.651</ele>
        <time>2019-05-31T12:34:56Z</time>
      </trkpt>
      <trkpt lat="42.456489" lon="1.597955">
        <ele>2307.885</ele>
        <time>2019-05-31T12:35:01Z</time>
      </trkpt>
      <trkpt lat="42.456510" lon="1.597976">
        <ele>2308.071</ele>
        <time>2019-05-31T12:35:03Z</time>
      </trkpt>
      <trkpt lat="42.456566" lon="1.597987">
        <ele>2308.439</ele>
        <time>2019-05-31T12:35:09Z</time>
      </trkpt>
      <trkpt lat="42.456578" lon="1.597983">
        <ele>2308.693</ele>
        <time>2019-05-31T12:35:10Z</time>
      </trkpt>
      <trkpt lat="42.456620" lon="1.597947">
        <ele>2308.898</ele>
        <time>2019-05-31T12:35:14Z</time>
      </trkpt>
      <trkpt lat="42.456643" lon="1.597939">
        <ele>2309.212</ele>
        <time>2019-05-31T12:35:16Z</time>
      </trkpt>
      <trkpt lat="42.456702" lon="1.597912">
        <ele>2309.658</ele>
        <time>2019-05-31T12:35:21Z</time>
      </trkpt>
      <trkpt lat="42.456719" lon="1.597892">
        <ele>2309.639</ele>
        <time>2019-05-31T12:35:23Z</time>
      </trkpt>
      <trkpt lat="42.456734" lon="1.597873">
        <ele>2310.001</ele>
        <time>2019-05-31T12:35:25Z</time>
      </trkpt>
      <trkpt lat="42.456763" lon="1.597850">
        <ele>2310.421</ele>
        <time>2019-05-31T12:35:28Z</time>
      </trkpt>
      <trkpt lat="42.456769" lon="1.597837">
        <ele>2310.208</ele>
        <time>2019-05-31T12:35:29Z</time>
      </trkpt>
      <trkpt lat="42.456804" lon="1.597793">
        <ele>2310.656</ele>
        <time>2019-05-31T12:35:33Z</time>
      </trkpt>
      <trkpt lat="42.456836" lon="1.597747">
        <ele>2311.060</ele>
        <time>2019-05-31T12:35:37Z</time>
      </trkpt>
      <trkpt lat="42.456861" lon="1.597713">
        <ele>2311.256</ele>
        <time>2019-05-31T12:35:40Z</time>
      </trkpt>
      <trkpt lat="42.456871" lon="1.597705">
        <ele>2311.484</ele>
        <time>2019-05-31T12:35:41Z</time>
      </trkpt>
      <trkpt lat="42.456883" lon="1.597698">
        <ele>2311.438</ele>
        <time>2019-05-31T12:35:42Z</time>
      </trkpt>
      <trkpt lat="42.456914" lon="1.597657">
        <ele>2311.893</ele>
        <time>2019-05-31T12:35:46Z</time>
      </trkpt>
      <trkpt lat="42.456922" lon="1.597644">
        <ele>2312.017</ele>
        <time>2019-05-31T12:35:47Z</time>
      </trkpt>
      <trkpt lat="42.456939" lon="1.597624">
        <ele>2312.233</ele>
        <time>2019-05-31T12:35:49Z</time>
      </trkpt>
      <trkpt lat="42.456946" lon="1.597609">
        <ele>2312.282</ele>
        <time>2019-05-31T12:35:50Z</time>
      </trkpt>
      <trkpt lat="42.456970" lon="1.597581">
        <ele>2312.643</ele>
        <time>2019-05-31T12:35:53Z</time>
      </trkpt>
      <trkpt lat="42.457007" lon="1.597486">
        <ele>2313.017</ele>
        <time>2019-05-31T12:36:00Z</time>
      </trkpt>
      <trkpt lat="42.457013" lon="1.597470">
        <ele>2313.208</ele>
        <time>2019-05-31T12:36:01Z</time>
      </trkpt>
      <trkpt lat="42.457045" lon="1.597435">
        <ele>2313.821</ele>
        <time>2019-05-31T12:36:05Z</time>
      </trkpt>
      <trkpt lat="42.457051" lon="1.597424">
        <ele>2314.095</ele>
        <time>2019-05-31T12:36:06Z</time>
      </trkpt>
      <trkpt lat="42.457062" lon="1.597415">
        <ele>2314.071</ele>
        <time>2019-05-31T12:36:07Z</time>
      </trkpt>
      <trkpt lat="42.457073" lon="1.597389">
        <ele>2314.299</ele>
        <time>2019-05-31T12:36:09Z</time>
      </trkpt>
      <trkpt lat="42.457081" lon="1.597361">
        <ele>2314.423</ele>
        <time>2019-05-31T12:36:11Z</time>
      </trkpt>
      <trkpt lat="42.457099" lon="1.597263">
        <ele>2315.228</ele>
        <time>2019-05-31T12:36:18Z</time>
      </trkpt>
      <trkpt lat="42.457104" lon="1.597162">
        <ele>2316.062</ele>
        <time>2019-05-31T12:36:25Z</time>
      </trkpt>
      <trkpt lat="42.457107" lon="1.597137">
        <ele>2315.888</ele>
        <time>2019-05-31T12:36:27Z</time>
      </trkpt>
      <trkpt lat="42.457112" lon="1.597109">
        <ele>2316.861</ele>
        <time>2019-05-31T12:36:29Z</time>
      </trkpt>
      <trkpt lat="42.457129" lon="1.597085">
        <ele>2317.021</ele>
        <time>2019-05-31T12:36:31Z</time>
      </trkpt>
      <trkpt lat="42.457160" lon="1.597035">
        <ele>2317.413</ele>
        <time>2019-05-31T12:36:35Z</time>
      </trkpt>
      <trkpt lat="42.457194" lon="1.597019">
        <ele>2317.808</ele>
        <time>2019-05-31T12:36:38Z</time>
      </trkpt>
      <trkpt lat="42.457256" lon="1.597088">
        <ele>2318.229</ele>
        <time>2019-05-31T12:36:45Z</time>
      </trkpt>
      <trkpt lat="42.457277" lon="1.597147">
        <ele>2318.673</ele>
        <time>2019-05-31T12:36:49Z</time>
      </trkpt>
      <trkpt lat="42.457286" lon="1.597196">
        <ele>2318.689</ele>
        <time>2019-05-31T12:36:52Z</time>
      </trkpt>
      <trkpt lat="42.457289" lon="1.597206">
        <ele>2318.857</ele>
        <time>2019-05-31T12:36:53Z</time>
      </trkpt>
      <trkpt lat="42.457289" lon="1.597244">
        <ele>2319.041</ele>
        <time>2019-05-31T12:36:56Z</time>
      </trkpt>
      <trkpt lat="42.457290" lon="1.597279">
        <ele>2319.276</ele>
        <time>2019-05-31T12:36:59Z</time>
      </trkpt>
      <trkpt lat="42.457287" lon="1.597363">
        <ele>2319.690</ele>
        <time>2019-05-31T12:37:05Z</time>
      </trkpt>
      <trkpt lat="42.457270" lon="1.597428">
        <ele>2319.896</ele>
        <time>2019-05-31T12:37:09Z</time>
      </trkpt>
      <trkpt lat="42.457254" lon="1.597474">
        <ele>2320.236</ele>
        <time>2019-05-31T12:37:12Z</time>
      </trkpt>
      <trkpt lat="42.457213" lon="1.597579">
        <ele>2320.217</ele>
        <time>2019-05-31T12:37:19Z</time>
      </trkpt>
      <trkpt lat="42.457189" lon="1.597689">
        <ele>2320.818</ele>
        <time>2019-05-31T12:37:26Z</time>
      </trkpt>
      <trkpt lat="42.457176" lon="1.597740">
        <ele>2320.808</ele>
        <time>2019-05-31T12:37:29Z</time>
      </trkpt>
      <trkpt lat="42.457177" lon="1.597794">
        <ele>2321.276</ele>
        <time>2019-05-31T12:37:33Z</time>
      </trkpt>
      <trkpt lat="42.457175" lon="1.597809">
        <ele>2321.260</ele>
        <time>2019-05-31T12:37:34Z</time>
      </trkpt>
      <trkpt lat="42.457131" lon="1.597928">
        <ele>2321.676</ele>
        <time>2019-05-31T12:37:43Z</time>
      </trkpt>
      <trkpt lat="42.457111" lon="1.597987">
        <ele>2321.814</ele>
        <time>2019-05-31T12:37:47Z</time>
      </trkpt>
      <trkpt lat="42.457100" lon="1.598018">
        <ele>2322.078</ele>
        <time>2019-05-31T12:37:49Z</time>
      </trkpt>
      <trkpt lat="42.457094" lon="1.598034">
        <ele>2322.063</ele>
        <time>2019-05-31T12:37:50Z</time>
      </trkpt>
      <trkpt lat="42.457085" lon="1.598065">
        <ele>2321.897</ele>
        <time>2019-05-31T12:37:52Z</time>
      </trkpt>
      <trkpt lat="42.457058" lon="1.598138">
        <ele>2322.293</ele>
        <time>2019-05-31T12:37:57Z</time>
      </trkpt>
      <trkpt lat="42.457007" lon="1.598253">
        <ele>2322.822</ele>
        <time>2019-05-31T12:38:05Z</time>
      </trkpt>
      <trkpt lat="42.456966" lon="1.598342">
        <ele>2323.262</ele>
        <time>2019-05-31T12:38:11Z</time>
      </trkpt>
      <trkpt lat="42.456951" lon="1.598368">
        <ele>2323.408</ele>
        <time>2019-05-31T12:38:13Z</time>
      </trkpt>
      <trkpt lat="42.456896" lon="1.598467">
        <ele>2323.808</ele>
        <time>2019-05-31T12:38:20Z</time>
      </trkpt>
      <trkpt lat="42.456847" lon="1.598548">
        <ele>2324.245</ele>
        <time>2019-05-31T12:38:26Z</time>
      </trkpt>
      <trkpt lat="42.456837" lon="1.598561">
        <ele>2324.449</ele>
        <time>2019-05-31T12:38:27Z</time>
      </trkpt>
      <trkpt lat="42.456773" lon="1.598652">
        <ele>2324.465</ele>
        <time>2019-05-31T12:38:33Z</time>
      </trkpt>
      <trkpt lat="42.456723" lon="1.598725">
        <ele>2325.053</ele>
        <time>2019-05-31T12:38:38Z</time>
      </trkpt>
      <trkpt lat="42.456666" lon="1.598811">
        <ele>2325.487</ele>
        <time>2019-05-31T12:38:44Z</time>
      </trkpt>
      <trkpt lat="42.456663" lon="1.598830">
        <ele>2325.462</ele>
        <time>2019-05-31T12:38:45Z</time>
      </trkpt>
      <trkpt lat="42.456612" lon="1.598933">
        <ele>2325.416</ele>
        <time>2019-05-31T12:38:51Z</time>
      </trkpt>
      <trkpt lat="42.456528" lon="1.598988">
        <ele>2325.012</ele>
        <time>2019-05-31T12:38:57Z</time>
      </trkpt>
      <trkpt lat="42.456892" lon="1.598391">
        <ele>2323.099</ele>
        <time>2019-05-31T13:08:33Z</time>
      </trkpt>
      <trkpt lat="42.456954" lon="1.598357">
        <ele>2322.807</ele>
        <time>2019-05-31T13:08:38Z</time>
      </trkpt>
      <trkpt lat="42.456974" lon="1.598352">
        <ele>2322.627</ele>
        <time>2019-05-31T13:08:40Z</time>
      </trkpt>
      <trkpt lat="42.457011" lon="1.598278">
        <ele>2321.408</ele>
        <time>2019-05-31T13:08:45Z</time>
      </trkpt>
      <trkpt lat="42.457021" lon="1.598253">
        <ele>2321.892</ele>
        <time>2019-05-31T13:08:46Z</time>
      </trkpt>
      <trkpt lat="42.457040" lon="1.598200">
        <ele>2322.476</ele>
        <time>2019-05-31T13:08:48Z</time>
      </trkpt>
      <trkpt lat="42.457081" lon="1.598073">
        <ele>2321.432</ele>
        <time>2019-05-31T13:08:53Z</time>
      </trkpt>
      <trkpt lat="42.457120" lon="1.597944">
        <ele>2320.410</ele>
        <time>2019-05-31T13:08:59Z</time>
      </trkpt>
      <trkpt lat="42.457127" lon="1.597918">
        <ele>2320.224</ele>
        <time>2019-05-31T13:09:00Z</time>
      </trkpt>
      <trkpt lat="42.457176" lon="1.597795">
        <ele>2320.669</ele>
        <time>2019-05-31T13:09:06Z</time>
      </trkpt>
      <trkpt lat="42.457226" lon="1.597620">
        <ele>2320.233</ele>
        <time>2019-05-31T13:09:13Z</time>
      </trkpt>
      <trkpt lat="42.457267" lon="1.597450">
        <ele>2319.649</ele>
        <time>2019-05-31T13:09:19Z</time>
      </trkpt>
      <trkpt lat="42.457285" lon="1.597281">
        <ele>2318.887</ele>
        <time>2019-05-31T13:09:25Z</time>
      </trkpt>
      <trkpt lat="42.457285" lon="1.597248">
        <ele>2318.842</ele>
        <time>2019-05-31T13:09:26Z</time>
      </trkpt>
      <trkpt lat="42.457249" lon="1.597092">
        <ele>2318.026</ele>
        <time>2019-05-31T13:09:32Z</time>
      </trkpt>
      <trkpt lat="42.457234" lon="1.597077">
        <ele>2317.808</ele>
        <time>2019-05-31T13:09:33Z</time>
      </trkpt>
      <trkpt lat="42.457195" lon="1.597067">
        <ele>2317.471</ele>
        <time>2019-05-31T13:09:36Z</time>
      </trkpt>
      <trkpt lat="42.457179" lon="1.597073">
        <ele>2317.445</ele>
        <time>2019-05-31T13:09:37Z</time>
      </trkpt>
      <trkpt lat="42.457148" lon="1.597138">
        <ele>2316.841</ele>
        <time>2019-05-31T13:09:40Z</time>
      </trkpt>
      <trkpt lat="42.457139" lon="1.597162">
        <ele>2316.629</ele>
        <time>2019-05-31T13:09:41Z</time>
      </trkpt>
      <trkpt lat="42.457118" lon="1.597236">
        <ele>2316.233</ele>
        <time>2019-05-31T13:09:44Z</time>
      </trkpt>
      <trkpt lat="42.457106" lon="1.597281">
        <ele>2315.468</ele>
        <time>2019-05-31T13:09:46Z</time>
      </trkpt>
      <trkpt lat="42.457103" lon="1.597302">
        <ele>2315.212</ele>
        <time>2019-05-31T13:09:47Z</time>
      </trkpt>
      <trkpt lat="42.457086" lon="1.597378">
        <ele>2314.288</ele>
        <time>2019-05-31T13:09:50Z</time>
      </trkpt>
      <trkpt lat="42.457071" lon="1.597434">
        <ele>2314.075</ele>
        <time>2019-05-31T13:09:52Z</time>
      </trkpt>
      <trkpt lat="42.457030" lon="1.597526">
        <ele>2313.028</ele>
        <time>2019-05-31T13:09:56Z</time>
      </trkpt>
      <trkpt lat="42.457014" lon="1.597567">
        <ele>2312.820</ele>
        <time>2019-05-31T13:09:58Z</time>
      </trkpt>
      <trkpt lat="42.456940" lon="1.597683">
        <ele>2312.008</ele>
        <time>2019-05-31T13:10:04Z</time>
      </trkpt>
      <trkpt lat="42.456925" lon="1.597700">
        <ele>2312.040</ele>
        <time>2019-05-31T13:10:05Z</time>
      </trkpt>
      <trkpt lat="42.456861" lon="1.597786">
        <ele>2310.824</ele>
        <time>2019-05-31T13:10:09Z</time>
      </trkpt>
      <trkpt lat="42.456798" lon="1.597853">
        <ele>2310.280</ele>
        <time>2019-05-31T13:10:12Z</time>
      </trkpt>
      <trkpt lat="42.456711" lon="1.597922">
        <ele>2309.618</ele>
        <time>2019-05-31T13:10:16Z</time>
      </trkpt>
      <trkpt lat="42.456674" lon="1.597953">
        <ele>2309.422</ele>
        <time>2019-05-31T13:10:18Z</time>
      </trkpt>
      <trkpt lat="42.456598" lon="1.597988">
        <ele>2308.657</ele>
        <time>2019-05-31T13:10:22Z</time>
      </trkpt>
      <trkpt lat="42.456576" lon="1.597984">
        <ele>2308.211</ele>
        <time>2019-05-31T13:10:23Z</time>
      </trkpt>
      <trkpt lat="42.456555" lon="1.597979">
        <ele>2307.847</ele>
        <time>2019-05-31T13:10:24Z</time>
      </trkpt>
      <trkpt lat="42.456514" lon="1.597960">
        <ele>2307.875</ele>
        <time>2019-05-31T13:10:26Z</time>
      </trkpt>
      <trkpt lat="42.456490" lon="1.597886">
        <ele>2307.628</ele>
        <time>2019-05-31T13:10:29Z</time>
      </trkpt>
      <trkpt lat="42.456507" lon="1.597837">
        <ele>2307.220</ele>
        <time>2019-05-31T13:10:31Z</time>
      </trkpt>
      <trkpt lat="42.456539" lon="1.597796">
        <ele>2307.008</ele>
        <time>2019-05-31T13:10:33Z</time>
      </trkpt>
      <trkpt lat="42.456575" lon="1.597763">
        <ele>2306.450</ele>
        <time>2019-05-31T13:10:35Z</time>
      </trkpt>
      <trkpt lat="42.456598" lon="1.597741">
        <ele>2306.284</ele>
        <time>2019-05-31T13:10:36Z</time>
      </trkpt>
      <trkpt lat="42.456639" lon="1.597700">
        <ele>2305.670</ele>
        <time>2019-05-31T13:10:38Z</time>
      </trkpt>
      <trkpt lat="42.456652" lon="1.597674">
        <ele>2305.498</ele>
        <time>2019-05-31T13:10:39Z</time>
      </trkpt>
      <trkpt lat="42.456707" lon="1.597599">
        <ele>2305.062</ele>
        <time>2019-05-31T13:10:42Z</time>
      </trkpt>
      <trkpt lat="42.456737" lon="1.597554">
        <ele>2304.467</ele>
        <time>2019-05-31T13:10:44Z</time>
      </trkpt>
      <trkpt lat="42.456772" lon="1.597504">
        <ele>2303.611</ele>
        <time>2019-05-31T13:10:46Z</time>
      </trkpt>
      <trkpt lat="42.456811" lon="1.597402">
        <ele>2303.097</ele>
        <time>2019-05-31T13:10:50Z</time>
      </trkpt>
      <trkpt lat="42.456809" lon="1.597311">
        <ele>2302.678</ele>
        <time>2019-05-31T13:10:53Z</time>
      </trkpt>
      <trkpt lat="42.456793" lon="1.597225">
        <ele>2302.033</ele>
        <time>2019-05-31T13:10:56Z</time>
      </trkpt>
      <trkpt lat="42.456776" lon="1.597177">
        <ele>2301.426</ele>
        <time>2019-05-31T13:10:58Z</time>
      </trkpt>
      <trkpt lat="42.456763" lon="1.597090">
        <ele>2301.008</ele>
        <time>2019-05-31T13:11:01Z</time>
      </trkpt>
      <trkpt lat="42.456753" lon="1.596930">
        <ele>2300.210</ele>
        <time>2019-05-31T13:11:06Z</time>
      </trkpt>
      <trkpt lat="42.456777" lon="1.596755">
        <ele>2299.684</ele>
        <time>2019-05-31T13:11:12Z</time>
      </trkpt>
      <trkpt lat="42.456784" lon="1.596693">
        <ele>2299.240</ele>
        <time>2019-05-31T13:11:14Z</time>
      </trkpt>
      <trkpt lat="42.456790" lon="1.596535">
        <ele>2298.068</ele>
        <time>2019-05-31T13:11:19Z</time>
      </trkpt>
      <trkpt lat="42.456797" lon="1.596426">
        <ele>2297.052</ele>
        <time>2019-05-31T13:11:23Z</time>
      </trkpt>
      <trkpt lat="42.456785" lon="1.596373">
        <ele>2296.647</ele>
        <time>2019-05-31T13:11:25Z</time>
      </trkpt>
      <trkpt lat="42.456751" lon="1.596269">
        <ele>2296.031</ele>
        <time>2019-05-31T13:11:29Z</time>
      </trkpt>
      <trkpt lat="42.456709" lon="1.596194">
        <ele>2296.287</ele>
        <time>2019-05-31T13:11:32Z</time>
      </trkpt>
      <trkpt lat="42.456619" lon="1.596024">
        <ele>2295.612</ele>
        <time>2019-05-31T13:11:38Z</time>
      </trkpt>
      <trkpt lat="42.456546" lon="1.595882">
        <ele>2294.832</ele>
        <time>2019-05-31T13:11:43Z</time>
      </trkpt>
      <trkpt lat="42.456517" lon="1.595813">
        <ele>2294.405</ele>
        <time>2019-05-31T13:11:45Z</time>
      </trkpt>
      <trkpt lat="42.456468" lon="1.595712">
        <ele>2293.608</ele>
        <time>2019-05-31T13:11:48Z</time>
      </trkpt>
      <trkpt lat="42.456445" lon="1.595668">
        <ele>2292.224</ele>
        <time>2019-05-31T13:11:50Z</time>
      </trkpt>
      <trkpt lat="42.456435" lon="1.595649">
        <ele>2294.078</ele>
        <time>2019-05-31T13:11:51Z</time>
      </trkpt>
      <trkpt lat="42.456420" lon="1.595617">
        <ele>2297.444</ele>
        <time>2019-05-31T13:11:53Z</time>
      </trkpt>
      <trkpt lat="42.456412" lon="1.595602">
        <ele>2295.872</ele>
        <time>2019-05-31T13:11:54Z</time>
      </trkpt>
      <trkpt lat="42.456397" lon="1.595586">
        <ele>2295.456</ele>
        <time>2019-05-31T13:11:57Z</time>
      </trkpt>
      <trkpt lat="42.456332" lon="1.595534">
        <ele>2294.611</ele>
        <time>2019-05-31T13:12:10Z</time>
      </trkpt>
      <trkpt lat="42.456296" lon="1.595513">
        <ele>2294.245</ele>
        <time>2019-05-31T13:12:12Z</time>
      </trkpt>
      <trkpt lat="42.456149" lon="1.595520">
        <ele>2293.871</ele>
        <time>2019-05-31T13:12:18Z</time>
      </trkpt>
      <trkpt lat="42.456124" lon="1.595532">
        <ele>2294.034</ele>
        <time>2019-05-31T13:12:19Z</time>
      </trkpt>
      <trkpt lat="42.456039" lon="1.595595">
        <ele>2293.255</ele>
        <time>2019-05-31T13:12:23Z</time>
      </trkpt>
      <trkpt lat="42.456012" lon="1.595640">
        <ele>2293.410</ele>
        <time>2019-05-31T13:12:25Z</time>
      </trkpt>
      <trkpt lat="42.455960" lon="1.595780">
        <ele>2292.608</ele>
        <time>2019-05-31T13:12:30Z</time>
      </trkpt>
      <trkpt lat="42.455960" lon="1.595870">
        <ele>2291.646</ele>
        <time>2019-05-31T13:12:33Z</time>
      </trkpt>
      <trkpt lat="42.455966" lon="1.595939">
        <ele>2291.050</ele>
        <time>2019-05-31T13:12:35Z</time>
      </trkpt>
      <trkpt lat="42.456040" lon="1.596105">
        <ele>2290.896</ele>
        <time>2019-05-31T13:12:41Z</time>
      </trkpt>
      <trkpt lat="42.456057" lon="1.596131">
        <ele>2290.684</ele>
        <time>2019-05-31T13:12:42Z</time>
      </trkpt>
      <trkpt lat="42.456122" lon="1.596209">
        <ele>2289.468</ele>
        <time>2019-05-31T13:12:45Z</time>
      </trkpt>
      <trkpt lat="42.456178" lon="1.596259">
        <ele>2289.043</ele>
        <time>2019-05-31T13:12:47Z</time>
      </trkpt>
      <trkpt lat="42.456240" lon="1.596306">
        <ele>2288.297</ele>
        <time>2019-05-31T13:12:49Z</time>
      </trkpt>
      <trkpt lat="42.456381" lon="1.596461">
        <ele>2287.423</ele>
        <time>2019-05-31T13:12:54Z</time>
      </trkpt>
      <trkpt lat="42.456442" lon="1.596674">
        <ele>2287.684</ele>
        <time>2019-05-31T13:12:59Z</time>
      </trkpt>
      <trkpt lat="42.456432" lon="1.596713">
        <ele>2287.207</ele>
        <time>2019-05-31T13:13:00Z</time>
      </trkpt>
      <trkpt lat="42.456393" lon="1.596823">
        <ele>2285.817</ele>
        <time>2019-05-31T13:13:03Z</time>
      </trkpt>
      <trkpt lat="42.456374" lon="1.596858">
        <ele>2285.808</ele>
        <time>2019-05-31T13:13:04Z</time>
      </trkpt>
      <trkpt lat="42.456255" lon="1.597050">
        <ele>2284.881</ele>
        <time>2019-05-31T13:13:10Z</time>
      </trkpt>
      <trkpt lat="42.456130" lon="1.597157">
        <ele>2284.225</ele>
        <time>2019-05-31T13:13:15Z</time>
      </trkpt>
      <trkpt lat="42.456107" lon="1.597176">
        <ele>2283.871</ele>
        <time>2019-05-31T13:13:16Z</time>
      </trkpt>
      <trkpt lat="42.456086" lon="1.597197">
        <ele>2283.629</ele>
        <time>2019-05-31T13:13:17Z</time>
      </trkpt>
      <trkpt lat="42.455907" lon="1.597331">
        <ele>2282.673</ele>
        <time>2019-05-31T13:13:24Z</time>
      </trkpt>
      <trkpt lat="42.455719" lon="1.597444">
        <ele>2281.298</ele>
        <time>2019-05-31T13:13:31Z</time>
      </trkpt>
      <trkpt lat="42.455585" lon="1.597544">
        <ele>2280.082</ele>
        <time>2019-05-31T13:13:35Z</time>
      </trkpt>
      <trkpt lat="42.455511" lon="1.597600">
        <ele>2280.018</ele>
        <time>2019-05-31T13:13:37Z</time>
      </trkpt>
      <trkpt lat="42.455384" lon="1.597691">
        <ele>2280.275</ele>
        <time>2019-05-31T13:13:40Z</time>
      </trkpt>
      <trkpt lat="42.455255" lon="1.597791">
        <ele>2278.828</ele>
        <time>2019-05-31T13:13:43Z</time>
      </trkpt>
      <trkpt lat="42.454881" lon="1.598073">
        <ele>2278.220</ele>
        <time>2019-05-31T13:13:52Z</time>
      </trkpt>
      <trkpt lat="42.454694" lon="1.598239">
        <ele>2278.408</ele>
        <time>2019-05-31T13:13:58Z</time>
      </trkpt>
      <trkpt lat="42.454669" lon="1.598271">
        <ele>2278.670</ele>
        <time>2019-05-31T13:13:59Z</time>
      </trkpt>
      <trkpt lat="42.454561" lon="1.598485">
        <ele>2278.634</ele>
        <time>2019-05-31T13:14:04Z</time>
      </trkpt>
      <trkpt lat="42.454505" lon="1.598677">
        <ele>2277.860</ele>
        <time>2019-05-31T13:14:08Z</time>
      </trkpt>
      <trkpt lat="42.454448" lon="1.598801">
        <ele>2278.288</ele>
        <time>2019-05-31T13:14:11Z</time>
      </trkpt>
      <trkpt lat="42.454289" lon="1.598924">
        <ele>2276.872</ele>
        <time>2019-05-31T13:14:16Z</time>
      </trkpt>
      <trkpt lat="42.454255" lon="1.598952">
        <ele>2276.687</ele>
        <time>2019-05-31T13:14:17Z</time>
      </trkpt>
      <trkpt lat="42.454187" lon="1.599018">
        <ele>2275.631</ele>
        <time>2019-05-31T13:14:19Z</time>
      </trkpt>
      <trkpt lat="42.454100" lon="1.599146">
        <ele>2274.467</ele>
        <time>2019-05-31T13:14:22Z</time>
      </trkpt>
      <trkpt lat="42.453941" lon="1.599453">
        <ele>2273.851</ele>
        <time>2019-05-31T13:14:29Z</time>
      </trkpt>
      <trkpt lat="42.453913" lon="1.599487">
        <ele>2273.201</ele>
        <time>2019-05-31T13:14:30Z</time>
      </trkpt>
      <trkpt lat="42.453850" lon="1.599610">
        <ele>2272.211</ele>
        <time>2019-05-31T13:14:33Z</time>
      </trkpt>
      <trkpt lat="42.453831" lon="1.599654">
        <ele>2272.008</ele>
        <time>2019-05-31T13:14:34Z</time>
      </trkpt>
      <trkpt lat="42.453758" lon="1.599894">
        <ele>2270.458</ele>
        <time>2019-05-31T13:14:39Z</time>
      </trkpt>
      <trkpt lat="42.453717" lon="1.599984">
        <ele>2269.642</ele>
        <time>2019-05-31T13:14:41Z</time>
      </trkpt>
      <trkpt lat="42.453581" lon="1.600160">
        <ele>2269.298</ele>
        <time>2019-05-31T13:14:46Z</time>
      </trkpt>
      <trkpt lat="42.453548" lon="1.600191">
        <ele>2268.876</ele>
        <time>2019-05-31T13:14:47Z</time>
      </trkpt>
      <trkpt lat="42.453485" lon="1.600251">
        <ele>2267.810</ele>
        <time>2019-05-31T13:14:49Z</time>
      </trkpt>
      <trkpt lat="42.453282" lon="1.600416">
        <ele>2266.445</ele>
        <time>2019-05-31T13:14:55Z</time>
      </trkpt>
      <trkpt lat="42.453169" lon="1.600503">
        <ele>2265.439</ele>
        <time>2019-05-31T13:14:58Z</time>
      </trkpt>
      <trkpt lat="42.453092" lon="1.600556">
        <ele>2265.295</ele>
        <time>2019-05-31T13:15:00Z</time>
      </trkpt>
      <trkpt lat="42.452985" lon="1.600644">
        <ele>2264.267</ele>
        <time>2019-05-31T13:15:03Z</time>
      </trkpt>
      <trkpt lat="42.452912" lon="1.600703">
        <ele>2263.481</ele>
        <time>2019-05-31T13:15:05Z</time>
      </trkpt>
      <trkpt lat="42.452840" lon="1.600765">
        <ele>2263.019</ele>
        <time>2019-05-31T13:15:07Z</time>
      </trkpt>
      <trkpt lat="42.452694" lon="1.600880">
        <ele>2261.808</ele>
        <time>2019-05-31T13:15:11Z</time>
      </trkpt>
      <trkpt lat="42.452652" lon="1.600904">
        <ele>2261.289</ele>
        <time>2019-05-31T13:15:12Z</time>
      </trkpt>
      <trkpt lat="42.452613" lon="1.600930">
        <ele>2260.453</ele>
        <time>2019-05-31T13:15:13Z</time>
      </trkpt>
      <trkpt lat="42.452464" lon="1.601038">
        <ele>2258.819</ele>
        <time>2019-05-31T13:15:17Z</time>
      </trkpt>
      <trkpt lat="42.452425" lon="1.601063">
        <ele>2258.857</ele>
        <time>2019-05-31T13:15:18Z</time>
      </trkpt>
      <trkpt lat="42.452383" lon="1.601078">
        <ele>2259.451</ele>
        <time>2019-05-31T13:15:19Z</time>
      </trkpt>
      <trkpt lat="42.452302" lon="1.601093">
        <ele>2258.816</ele>
        <time>2019-05-31T13:15:21Z</time>
      </trkpt>
      <trkpt lat="42.452258" lon="1.601086">
        <ele>2258.810</ele>
        <time>2019-05-31T13:15:22Z</time>
      </trkpt>
      <trkpt lat="42.452108" lon="1.600969">
        <ele>2258.286</ele>
        <time>2019-05-31T13:15:26Z</time>
      </trkpt>
      <trkpt lat="42.452071" lon="1.600929">
        <ele>2257.618</ele>
        <time>2019-05-31T13:15:27Z</time>
      </trkpt>
      <trkpt lat="42.451923" lon="1.600856">
        <ele>2256.498</ele>
        <time>2019-05-31T13:15:30Z</time>
      </trkpt>
      <trkpt lat="42.451820" lon="1.600880">
        <ele>2255.217</ele>
        <time>2019-05-31T13:15:32Z</time>
      </trkpt>
      <trkpt lat="42.451725" lon="1.600916">
        <ele>2255.008</ele>
        <time>2019-05-31T13:15:34Z</time>
      </trkpt>
      <trkpt lat="42.451682" lon="1.600942">
        <ele>2254.864</ele>
        <time>2019-05-31T13:15:35Z</time>
      </trkpt>
      <trkpt lat="42.451595" lon="1.601001">
        <ele>2254.288</ele>
        <time>2019-05-31T13:15:37Z</time>
      </trkpt>
      <trkpt lat="42.451505" lon="1.601060">
        <ele>2253.834</ele>
        <time>2019-05-31T13:15:39Z</time>
      </trkpt>
      <trkpt lat="42.451462" lon="1.601096">
        <ele>2254.082</ele>
        <time>2019-05-31T13:15:40Z</time>
      </trkpt>
      <trkpt lat="42.451186" lon="1.601353">
        <ele>2253.466</ele>
        <time>2019-05-31T13:15:47Z</time>
      </trkpt>
      <trkpt lat="42.451118" lon="1.601425">
        <ele>2253.611</ele>
        <time>2019-05-31T13:15:49Z</time>
      </trkpt>
      <trkpt lat="42.451083" lon="1.601467">
        <ele>2253.065</ele>
        <time>2019-05-31T13:15:50Z</time>
      </trkpt>
      <trkpt lat="42.450974" lon="1.601612">
        <ele>2252.021</ele>
        <time>2019-05-31T13:15:53Z</time>
      </trkpt>
      <trkpt lat="42.450936" lon="1.601656">
        <ele>2251.629</ele>
        <time>2019-05-31T13:15:54Z</time>
      </trkpt>
      <trkpt lat="42.450858" lon="1.601745">
        <ele>2250.800</ele>
        <time>2019-05-31T13:15:56Z</time>
      </trkpt>
      <trkpt lat="42.450820" lon="1.601782">
        <ele>2250.220</ele>
        <time>2019-05-31T13:15:57Z</time>
      </trkpt>
      <trkpt lat="42.450756" lon="1.601865">
        <ele>2249.408</ele>
        <time>2019-05-31T13:15:59Z</time>
      </trkpt>
      <trkpt lat="42.450680" lon="1.602014">
        <ele>2249.415</ele>
        <time>2019-05-31T13:16:02Z</time>
      </trkpt>
      <trkpt lat="42.450623" lon="1.602176">
        <ele>2248.099</ele>
        <time>2019-05-31T13:16:05Z</time>
      </trkpt>
      <trkpt lat="42.450561" lon="1.602332">
        <ele>2247.445</ele>
        <time>2019-05-31T13:16:08Z</time>
      </trkpt>
      <trkpt lat="42.450518" lon="1.602420">
        <ele>2247.273</ele>
        <time>2019-05-31T13:16:10Z</time>
      </trkpt>
      <trkpt lat="42.450439" lon="1.602542">
        <ele>2246.677</ele>
        <time>2019-05-31T13:16:13Z</time>
      </trkpt>
      <trkpt lat="42.450308" lon="1.602750">
        <ele>2246.062</ele>
        <time>2019-05-31T13:16:18Z</time>
      </trkpt>
      <trkpt lat="42.450261" lon="1.602829">
        <ele>2245.616</ele>
        <time>2019-05-31T13:16:20Z</time>
      </trkpt>
      <trkpt lat="42.450237" lon="1.602869">
        <ele>2245.072</ele>
        <time>2019-05-31T13:16:21Z</time>
      </trkpt>
      <trkpt lat="42.450206" lon="1.602904">
        <ele>2244.633</ele>
        <time>2019-05-31T13:16:22Z</time>
      </trkpt>
      <trkpt lat="42.450144" lon="1.602971">
        <ele>2244.623</ele>
        <time>2019-05-31T13:16:24Z</time>
      </trkpt>
      <trkpt lat="42.449989" lon="1.603132">
        <ele>2243.415</ele>
        <time>2019-05-31T13:16:29Z</time>
      </trkpt>
      <trkpt lat="42.449930" lon="1.603188">
        <ele>2242.608</ele>
        <time>2019-05-31T13:16:31Z</time>
      </trkpt>
      <trkpt lat="42.449831" lon="1.603248">
        <ele>2242.216</ele>
        <time>2019-05-31T13:16:34Z</time>
      </trkpt>
      <trkpt lat="42.449718" lon="1.603284">
        <ele>2241.230</ele>
        <time>2019-05-31T13:16:37Z</time>
      </trkpt>
      <trkpt lat="42.449682" lon="1.603279">
        <ele>2240.696</ele>
        <time>2019-05-31T13:16:38Z</time>
      </trkpt>
      <trkpt lat="42.449542" lon="1.603240">
        <ele>2239.864</ele>
        <time>2019-05-31T13:16:42Z</time>
      </trkpt>
      <trkpt lat="42.449470" lon="1.603207">
        <ele>2238.838</ele>
        <time>2019-05-31T13:16:44Z</time>
      </trkpt>
      <trkpt lat="42.449349" lon="1.603196">
        <ele>2238.663</ele>
        <time>2019-05-31T13:16:48Z</time>
      </trkpt>
      <trkpt lat="42.449325" lon="1.603217">
        <ele>2238.427</ele>
        <time>2019-05-31T13:16:49Z</time>
      </trkpt>
      <trkpt lat="42.449301" lon="1.603275">
        <ele>2237.683</ele>
        <time>2019-05-31T13:16:51Z</time>
      </trkpt>
      <trkpt lat="42.449307" lon="1.603337">
        <ele>2237.262</ele>
        <time>2019-05-31T13:16:53Z</time>
      </trkpt>
      <trkpt lat="42.449381" lon="1.603417">
        <ele>2236.483</ele>
        <time>2019-05-31T13:16:57Z</time>
      </trkpt>
      <trkpt lat="42.449507" lon="1.603536">
        <ele>2235.811</ele>
        <time>2019-05-31T13:17:02Z</time>
      </trkpt>
      <trkpt lat="42.449533" lon="1.603558">
        <ele>2235.208</ele>
        <time>2019-05-31T13:17:03Z</time>
      </trkpt>
      <trkpt lat="42.449675" lon="1.603640">
        <ele>2234.059</ele>
        <time>2019-05-31T13:17:08Z</time>
      </trkpt>
      <trkpt lat="42.449837" lon="1.603697">
        <ele>2233.093</ele>
        <time>2019-05-31T13:17:13Z</time>
      </trkpt>
      <trkpt lat="42.449905" lon="1.603699">
        <ele>2232.029</ele>
        <time>2019-05-31T13:17:15Z</time>
      </trkpt>
      <trkpt lat="42.450140" lon="1.603664">
        <ele>2231.077</ele>
        <time>2019-05-31T13:17:21Z</time>
      </trkpt>
      <trkpt lat="42.450176" lon="1.603651">
        <ele>2230.861</ele>
        <time>2019-05-31T13:17:22Z</time>
      </trkpt>
      <trkpt lat="42.450301" lon="1.603584">
        <ele>2229.696</ele>
        <time>2019-05-31T13:17:26Z</time>
      </trkpt>
      <trkpt lat="42.450363" lon="1.603550">
        <ele>2229.280</ele>
        <time>2019-05-31T13:17:28Z</time>
      </trkpt>
      <trkpt lat="42.450431" lon="1.603526">
        <ele>2228.466</ele>
        <time>2019-05-31T13:17:30Z</time>
      </trkpt>
      <trkpt lat="42.450578" lon="1.603467">
        <ele>2228.228</ele>
        <time>2019-05-31T13:17:34Z</time>
      </trkpt>
      <trkpt lat="42.450709" lon="1.603390">
        <ele>2227.089</ele>
        <time>2019-05-31T13:17:38Z</time>
      </trkpt>
      <trkpt lat="42.450738" lon="1.603367">
        <ele>2227.017</ele>
        <time>2019-05-31T13:17:39Z</time>
      </trkpt>
      <trkpt lat="42.450851" lon="1.603264">
        <ele>2226.008</ele>
        <time>2019-05-31T13:17:43Z</time>
      </trkpt>
      <trkpt lat="42.450928" lon="1.603164">
        <ele>2225.215</ele>
        <time>2019-05-31T13:17:46Z</time>
      </trkpt>
      <trkpt lat="42.451001" lon="1.603094">
        <ele>2224.499</ele>
        <time>2019-05-31T13:17:49Z</time>
      </trkpt>
      <trkpt lat="42.451035" lon="1.603051">
        <ele>2223.465</ele>
        <time>2019-05-31T13:17:51Z</time>
      </trkpt>
      <trkpt lat="42.451049" lon="1.603043">
        <ele>2223.683</ele>
        <time>2019-05-31T13:17:52Z</time>
      </trkpt>
      <trkpt lat="42.451063" lon="1.603054">
        <ele>2223.297</ele>
        <time>2019-05-31T13:17:53Z</time>
      </trkpt>
      <trkpt lat="42.451091" lon="1.603121">
        <ele>2222.852</ele>
        <time>2019-05-31T13:17:55Z</time>
      </trkpt>
      <trkpt lat="42.451058" lon="1.603254">
        <ele>2222.246</ele>
        <time>2019-05-31T13:17:59Z</time>
      </trkpt>
      <trkpt lat="42.451031" lon="1.603277">
        <ele>2222.072</ele>
        <time>2019-05-31T13:18:00Z</time>
      </trkpt>
      <trkpt lat="42.450898" lon="1.603441">
        <ele>2221.034</ele>
        <time>2019-05-31T13:18:05Z</time>
      </trkpt>
      <trkpt lat="42.450772" lon="1.603611">
        <ele>2220.055</ele>
        <time>2019-05-31T13:18:10Z</time>
      </trkpt>
      <trkpt lat="42.450746" lon="1.603644">
        <ele>2219.610</ele>
        <time>2019-05-31T13:18:11Z</time>
      </trkpt>
      <trkpt lat="42.450640" lon="1.603773">
        <ele>2218.208</ele>
        <time>2019-05-31T13:18:15Z</time>
      </trkpt>
      <trkpt lat="42.450587" lon="1.603844">
        <ele>2217.686</ele>
        <time>2019-05-31T13:18:17Z</time>
      </trkpt>
      <trkpt lat="42.450521" lon="1.603961">
        <ele>2217.280</ele>
        <time>2019-05-31T13:18:20Z</time>
      </trkpt>
      <trkpt lat="42.450466" lon="1.604037">
        <ele>2215.646</ele>
        <time>2019-05-31T13:18:22Z</time>
      </trkpt>
      <trkpt lat="42.450341" lon="1.604176">
        <ele>2214.234</ele>
        <time>2019-05-31T13:18:26Z</time>
      </trkpt>
      <trkpt lat="42.450266" lon="1.604238">
        <ele>2213.868</ele>
        <time>2019-05-31T13:18:28Z</time>
      </trkpt>
      <trkpt lat="42.450163" lon="1.604323">
        <ele>2212.823</ele>
        <time>2019-05-31T13:18:31Z</time>
      </trkpt>
      <trkpt lat="42.450063" lon="1.604399">
        <ele>2211.837</ele>
        <time>2019-05-31T13:18:34Z</time>
      </trkpt>
      <trkpt lat="42.450034" lon="1.604425">
        <ele>2211.653</ele>
        <time>2019-05-31T13:18:35Z</time>
      </trkpt>
      <trkpt lat="42.449941" lon="1.604512">
        <ele>2210.448</ele>
        <time>2019-05-31T13:18:38Z</time>
      </trkpt>
      <trkpt lat="42.449846" lon="1.604610">
        <ele>2209.261</ele>
        <time>2019-05-31T13:18:41Z</time>
      </trkpt>
      <trkpt lat="42.449779" lon="1.604673">
        <ele>2208.217</ele>
        <time>2019-05-31T13:18:43Z</time>
      </trkpt>
      <trkpt lat="42.449664" lon="1.604749">
        <ele>2207.808</ele>
        <time>2019-05-31T13:18:46Z</time>
      </trkpt>
      <trkpt lat="42.449446" lon="1.604815">
        <ele>2207.217</ele>
        <time>2019-05-31T13:18:52Z</time>
      </trkpt>
      <trkpt lat="42.449409" lon="1.604821">
        <ele>2207.081</ele>
        <time>2019-05-31T13:18:53Z</time>
      </trkpt>
      <trkpt lat="42.449227" lon="1.604826">
        <ele>2206.067</ele>
        <time>2019-05-31T13:18:58Z</time>
      </trkpt>
      <trkpt lat="42.449191" lon="1.604820">
        <ele>2205.685</ele>
        <time>2019-05-31T13:18:59Z</time>
      </trkpt>
      <trkpt lat="42.449074" lon="1.604781">
        <ele>2205.629</ele>
        <time>2019-05-31T13:19:02Z</time>
      </trkpt>
      <trkpt lat="42.448997" lon="1.604733">
        <ele>2204.864</ele>
        <time>2019-05-31T13:19:04Z</time>
      </trkpt>
      <trkpt lat="42.448861" lon="1.604652">
        <ele>2204.458</ele>
        <time>2019-05-31T13:19:08Z</time>
      </trkpt>
      <trkpt lat="42.448828" lon="1.604658">
        <ele>2204.414</ele>
        <time>2019-05-31T13:19:09Z</time>
      </trkpt>
      <trkpt lat="42.448770" lon="1.604752">
        <ele>2204.613</ele>
        <time>2019-05-31T13:19:12Z</time>
      </trkpt>
      <trkpt lat="42.448814" lon="1.604864">
        <ele>2204.043</ele>
        <time>2019-05-31T13:19:15Z</time>
      </trkpt>
      <trkpt lat="42.448912" lon="1.604942">
        <ele>2203.607</ele>
        <time>2019-05-31T13:19:18Z</time>
      </trkpt>
      <trkpt lat="42.448946" lon="1.604965">
        <ele>2202.808</ele>
        <time>2019-05-31T13:19:19Z</time>
      </trkpt>
      <trkpt lat="42.448981" lon="1.604992">
        <ele>2202.634</ele>
        <time>2019-05-31T13:19:20Z</time>
      </trkpt>
      <trkpt lat="42.449143" lon="1.605103">
        <ele>2201.698</ele>
        <time>2019-05-31T13:19:25Z</time>
      </trkpt>
      <trkpt lat="42.449209" lon="1.605142">
        <ele>2201.294</ele>
        <time>2019-05-31T13:19:27Z</time>
      </trkpt>
      <trkpt lat="42.449393" lon="1.605233">
        <ele>2200.412</ele>
        <time>2019-05-31T13:19:32Z</time>
      </trkpt>
      <trkpt lat="42.449432" lon="1.605250">
        <ele>2199.676</ele>
        <time>2019-05-31T13:19:33Z</time>
      </trkpt>
      <trkpt lat="42.449472" lon="1.605266">
        <ele>2199.251</ele>
        <time>2019-05-31T13:19:34Z</time>
      </trkpt>
      <trkpt lat="42.449513" lon="1.605275">
        <ele>2199.265</ele>
        <time>2019-05-31T13:19:35Z</time>
      </trkpt>
      <trkpt lat="42.449681" lon="1.605299">
        <ele>2198.231</ele>
        <time>2019-05-31T13:19:39Z</time>
      </trkpt>
      <trkpt lat="42.449796" lon="1.605286">
        <ele>2197.828</ele>
        <time>2019-05-31T13:19:42Z</time>
      </trkpt>
      <trkpt lat="42.449875" lon="1.605265">
        <ele>2197.689</ele>
        <time>2019-05-31T13:19:44Z</time>
      </trkpt>
      <trkpt lat="42.449959" lon="1.605249">
        <ele>2196.617</ele>
        <time>2019-05-31T13:19:46Z</time>
      </trkpt>
      <trkpt lat="42.449999" lon="1.605247">
        <ele>2196.208</ele>
        <time>2019-05-31T13:19:47Z</time>
      </trkpt>
      <trkpt lat="42.450149" lon="1.605246">
        <ele>2195.435</ele>
        <time>2019-05-31T13:19:51Z</time>
      </trkpt>
      <trkpt lat="42.450274" lon="1.605226">
        <ele>2194.699</ele>
        <time>2019-05-31T13:19:54Z</time>
      </trkpt>
      <trkpt lat="42.450353" lon="1.605197">
        <ele>2195.075</ele>
        <time>2019-05-31T13:19:56Z</time>
      </trkpt>
      <trkpt lat="42.450481" lon="1.605104">
        <ele>2194.413</ele>
        <time>2019-05-31T13:20:00Z</time>
      </trkpt>
      <trkpt lat="42.450512" lon="1.605087">
        <ele>2193.817</ele>
        <time>2019-05-31T13:20:01Z</time>
      </trkpt>
      <trkpt lat="42.450586" lon="1.605126">
        <ele>2193.262</ele>
        <time>2019-05-31T13:20:04Z</time>
      </trkpt>
      <trkpt lat="42.450583" lon="1.605242">
        <ele>2192.666</ele>
        <time>2019-05-31T13:20:08Z</time>
      </trkpt>
      <trkpt lat="42.450516" lon="1.605289">
        <ele>2192.012</ele>
        <time>2019-05-31T13:20:11Z</time>
      </trkpt>
      <trkpt lat="42.450432" lon="1.605323">
        <ele>2191.272</ele>
        <time>2019-05-31T13:20:14Z</time>
      </trkpt>
      <trkpt lat="42.450402" lon="1.605341">
        <ele>2190.613</ele>
        <time>2019-05-31T13:20:15Z</time>
      </trkpt>
      <trkpt lat="42.450293" lon="1.605398">
        <ele>2188.814</ele>
        <time>2019-05-31T13:20:19Z</time>
      </trkpt>
      <trkpt lat="42.450263" lon="1.605415">
        <ele>2188.808</ele>
        <time>2019-05-31T13:20:20Z</time>
      </trkpt>
      <trkpt lat="42.450112" lon="1.605511">
        <ele>2188.650</ele>
        <time>2019-05-31T13:20:25Z</time>
      </trkpt>
      <trkpt lat="42.450017" lon="1.605579">
        <ele>2187.884</ele>
        <time>2019-05-31T13:20:28Z</time>
      </trkpt>
      <trkpt lat="42.449936" lon="1.605675">
        <ele>2186.630</ele>
        <time>2019-05-31T13:20:31Z</time>
      </trkpt>
      <trkpt lat="42.449752" lon="1.605909">
        <ele>2185.058</ele>
        <time>2019-05-31T13:20:38Z</time>
      </trkpt>
      <trkpt lat="42.449707" lon="1.605966">
        <ele>2184.422</ele>
        <time>2019-05-31T13:20:40Z</time>
      </trkpt>
      <trkpt lat="42.449657" lon="1.606028">
        <ele>2183.827</ele>
        <time>2019-05-31T13:20:42Z</time>
      </trkpt>
      <trkpt lat="42.449549" lon="1.606139">
        <ele>2183.231</ele>
        <time>2019-05-31T13:20:46Z</time>
      </trkpt>
      <trkpt lat="42.449521" lon="1.606160">
        <ele>2182.827</ele>
        <time>2019-05-31T13:20:47Z</time>
      </trkpt>
      <trkpt lat="42.449398" lon="1.606210">
        <ele>2181.622</ele>
        <time>2019-05-31T13:20:51Z</time>
      </trkpt>
      <trkpt lat="42.449361" lon="1.606215">
        <ele>2181.862</ele>
        <time>2019-05-31T13:20:52Z</time>
      </trkpt>
      <trkpt lat="42.449263" lon="1.606238">
        <ele>2180.208</ele>
        <time>2019-05-31T13:20:55Z</time>
      </trkpt>
      <trkpt lat="42.449198" lon="1.606239">
        <ele>2180.008</ele>
        <time>2019-05-31T13:20:57Z</time>
      </trkpt>
      <trkpt lat="42.449043" lon="1.606191">
        <ele>2179.465</ele>
        <time>2019-05-31T13:21:02Z</time>
      </trkpt>
      <trkpt lat="42.448982" lon="1.606150">
        <ele>2178.879</ele>
        <time>2019-05-31T13:21:04Z</time>
      </trkpt>
      <trkpt lat="42.448924" lon="1.606105">
        <ele>2177.895</ele>
        <time>2019-05-31T13:21:06Z</time>
      </trkpt>
      <trkpt lat="42.448837" lon="1.606029">
        <ele>2176.813</ele>
        <time>2019-05-31T13:21:09Z</time>
      </trkpt>
      <trkpt lat="42.448782" lon="1.605983">
        <ele>2176.867</ele>
        <time>2019-05-31T13:21:11Z</time>
      </trkpt>
      <trkpt lat="42.448694" lon="1.605918">
        <ele>2175.622</ele>
        <time>2019-05-31T13:21:14Z</time>
      </trkpt>
      <trkpt lat="42.448633" lon="1.605864">
        <ele>2175.416</ele>
        <time>2019-05-31T13:21:16Z</time>
      </trkpt>
      <trkpt lat="42.448571" lon="1.605812">
        <ele>2174.012</ele>
        <time>2019-05-31T13:21:18Z</time>
      </trkpt>
      <trkpt lat="42.448463" lon="1.605710">
        <ele>2172.263</ele>
        <time>2019-05-31T13:21:22Z</time>
      </trkpt>
      <trkpt lat="42.448417" lon="1.605656">
        <ele>2172.044</ele>
        <time>2019-05-31T13:21:24Z</time>
      </trkpt>
      <trkpt lat="42.448292" lon="1.605453">
        <ele>2170.618</ele>
        <time>2019-05-31T13:21:30Z</time>
      </trkpt>
      <trkpt lat="42.448268" lon="1.605415">
        <ele>2170.208</ele>
        <time>2019-05-31T13:21:31Z</time>
      </trkpt>
      <trkpt lat="42.448147" lon="1.605327">
        <ele>2169.639</ele>
        <time>2019-05-31T13:21:35Z</time>
      </trkpt>
      <trkpt lat="42.448085" lon="1.605356">
        <ele>2168.663</ele>
        <time>2019-05-31T13:21:37Z</time>
      </trkpt>
      <trkpt lat="42.448046" lon="1.605416">
        <ele>2168.249</ele>
        <time>2019-05-31T13:21:39Z</time>
      </trkpt>
      <trkpt lat="42.448061" lon="1.605534">
        <ele>2168.097</ele>
        <time>2019-05-31T13:21:43Z</time>
      </trkpt>
      <trkpt lat="42.448074" lon="1.605557">
        <ele>2167.491</ele>
        <time>2019-05-31T13:21:44Z</time>
      </trkpt>
      <trkpt lat="42.448116" lon="1.605601">
        <ele>2166.456</ele>
        <time>2019-05-31T13:21:46Z</time>
      </trkpt>
      <trkpt lat="42.448162" lon="1.605647">
        <ele>2165.840</ele>
        <time>2019-05-31T13:21:48Z</time>
      </trkpt>
      <trkpt lat="42.448202" lon="1.605717">
        <ele>2165.286</ele>
        <time>2019-05-31T13:21:50Z</time>
      </trkpt>
      <trkpt lat="42.448245" lon="1.605844">
        <ele>2164.477</ele>
        <time>2019-05-31T13:21:53Z</time>
      </trkpt>
      <trkpt lat="42.448256" lon="1.605885">
        <ele>2164.261</ele>
        <time>2019-05-31T13:21:54Z</time>
      </trkpt>
      <trkpt lat="42.448282" lon="1.605965">
        <ele>2163.027</ele>
        <time>2019-05-31T13:21:56Z</time>
      </trkpt>
      <trkpt lat="42.448321" lon="1.606104">
        <ele>2162.408</ele>
        <time>2019-05-31T13:21:59Z</time>
      </trkpt>
      <trkpt lat="42.448343" lon="1.606198">
        <ele>2161.620</ele>
        <time>2019-05-31T13:22:01Z</time>
      </trkpt>
      <trkpt lat="42.448362" lon="1.606366">
        <ele>2160.654</ele>
        <time>2019-05-31T13:22:05Z</time>
      </trkpt>
      <trkpt lat="42.448364" lon="1.606458">
        <ele>2160.460</ele>
        <time>2019-05-31T13:22:07Z</time>
      </trkpt>
      <trkpt lat="42.448361" lon="1.606508">
        <ele>2159.448</ele>
        <time>2019-05-31T13:22:08Z</time>
      </trkpt>
      <trkpt lat="42.448352" lon="1.606664">
        <ele>2158.822</ele>
        <time>2019-05-31T13:22:11Z</time>
      </trkpt>
      <trkpt lat="42.448337" lon="1.606818">
        <ele>2157.897</ele>
        <time>2019-05-31T13:22:15Z</time>
      </trkpt>
      <trkpt lat="42.448345" lon="1.606972">
        <ele>2157.281</ele>
        <time>2019-05-31T13:22:18Z</time>
      </trkpt>
      <trkpt lat="42.448359" lon="1.607178">
        <ele>2156.677</ele>
        <time>2019-05-31T13:22:22Z</time>
      </trkpt>
      <trkpt lat="42.448374" lon="1.607324">
        <ele>2155.873</ele>
        <time>2019-05-31T13:22:25Z</time>
      </trkpt>
      <trkpt lat="42.448385" lon="1.607431">
        <ele>2155.285</ele>
        <time>2019-05-31T13:22:27Z</time>
      </trkpt>
      <trkpt lat="42.448419" lon="1.607628">
        <ele>2154.013</ele>
        <time>2019-05-31T13:22:31Z</time>
      </trkpt>
      <trkpt lat="42.448459" lon="1.607899">
        <ele>2153.408</ele>
        <time>2019-05-31T13:22:37Z</time>
      </trkpt>
      <trkpt lat="42.448478" lon="1.607990">
        <ele>2152.830</ele>
        <time>2019-05-31T13:22:39Z</time>
      </trkpt>
      <trkpt lat="42.448535" lon="1.608173">
        <ele>2151.824</ele>
        <time>2019-05-31T13:22:43Z</time>
      </trkpt>
      <trkpt lat="42.448563" lon="1.608311">
        <ele>2150.450</ele>
        <time>2019-05-31T13:22:46Z</time>
      </trkpt>
      <trkpt lat="42.448556" lon="1.608451">
        <ele>2150.268</ele>
        <time>2019-05-31T13:22:49Z</time>
      </trkpt>
      <trkpt lat="42.448528" lon="1.608591">
        <ele>2149.262</ele>
        <time>2019-05-31T13:22:52Z</time>
      </trkpt>
      <trkpt lat="42.448489" lon="1.608783">
        <ele>2148.487</ele>
        <time>2019-05-31T13:22:56Z</time>
      </trkpt>
      <trkpt lat="42.448477" lon="1.608830">
        <ele>2147.691</ele>
        <time>2019-05-31T13:22:57Z</time>
      </trkpt>
      <trkpt lat="42.448416" lon="1.609011">
        <ele>2146.617</ele>
        <time>2019-05-31T13:23:01Z</time>
      </trkpt>
      <trkpt lat="42.448380" lon="1.609084">
        <ele>2147.078</ele>
        <time>2019-05-31T13:23:03Z</time>
      </trkpt>
      <trkpt lat="42.448283" lon="1.609234">
        <ele>2146.233</ele>
        <time>2019-05-31T13:23:08Z</time>
      </trkpt>
      <trkpt lat="42.448190" lon="1.609267">
        <ele>2145.026</ele>
        <time>2019-05-31T13:23:11Z</time>
      </trkpt>
      <trkpt lat="42.448125" lon="1.609247">
        <ele>2144.408</ele>
        <time>2019-05-31T13:23:13Z</time>
      </trkpt>
      <trkpt lat="42.448030" lon="1.609109">
        <ele>2144.230</ele>
        <time>2019-05-31T13:23:17Z</time>
      </trkpt>
      <trkpt lat="42.447992" lon="1.609010">
        <ele>2143.654</ele>
        <time>2019-05-31T13:23:19Z</time>
      </trkpt>
      <trkpt lat="42.447937" lon="1.608884">
        <ele>2143.460</ele>
        <time>2019-05-31T13:23:22Z</time>
      </trkpt>
      <trkpt lat="42.447859" lon="1.608804">
        <ele>2141.838</ele>
        <time>2019-05-31T13:23:25Z</time>
      </trkpt>
      <trkpt lat="42.447794" lon="1.608793">
        <ele>2140.872</ele>
        <time>2019-05-31T13:23:27Z</time>
      </trkpt>
      <trkpt lat="42.447646" lon="1.608809">
        <ele>2139.837</ele>
        <time>2019-05-31T13:23:31Z</time>
      </trkpt>
      <trkpt lat="42.447608" lon="1.608802">
        <ele>2138.851</ele>
        <time>2019-05-31T13:23:32Z</time>
      </trkpt>
      <trkpt lat="42.447441" lon="1.608792">
        <ele>2138.297</ele>
        <time>2019-05-31T13:23:36Z</time>
      </trkpt>
      <trkpt lat="42.447399" lon="1.608809">
        <ele>2137.863</ele>
        <time>2019-05-31T13:23:37Z</time>
      </trkpt>
      <trkpt lat="42.447265" lon="1.608920">
        <ele>2137.244</ele>
        <time>2019-05-31T13:23:41Z</time>
      </trkpt>
      <trkpt lat="42.447145" lon="1.609051">
        <ele>2136.218</ele>
        <time>2019-05-31T13:23:45Z</time>
      </trkpt>
      <trkpt lat="42.447118" lon="1.609083">
        <ele>2136.408</ele>
        <time>2019-05-31T13:23:46Z</time>
      </trkpt>
      <trkpt lat="42.447089" lon="1.609116">
        <ele>2136.499</ele>
        <time>2019-05-31T13:23:47Z</time>
      </trkpt>
      <trkpt lat="42.446995" lon="1.609211">
        <ele>2135.013</ele>
        <time>2019-05-31T13:23:50Z</time>
      </trkpt>
      <trkpt lat="42.446931" lon="1.609256">
        <ele>2134.849</ele>
        <time>2019-05-31T13:23:52Z</time>
      </trkpt>
      <trkpt lat="42.446844" lon="1.609314">
        <ele>2133.657</ele>
        <time>2019-05-31T13:23:55Z</time>
      </trkpt>
      <trkpt lat="42.446754" lon="1.609383">
        <ele>2133.091</ele>
        <time>2019-05-31T13:23:58Z</time>
      </trkpt>
      <trkpt lat="42.446627" lon="1.609446">
        <ele>2132.446</ele>
        <time>2019-05-31T13:24:02Z</time>
      </trkpt>
      <trkpt lat="42.446560" lon="1.609435">
        <ele>2131.680</ele>
        <time>2019-05-31T13:24:04Z</time>
      </trkpt>
      <trkpt lat="42.446490" lon="1.609411">
        <ele>2131.066</ele>
        <time>2019-05-31T13:24:06Z</time>
      </trkpt>
      <trkpt lat="42.446405" lon="1.609331">
        <ele>2130.047</ele>
        <time>2019-05-31T13:24:09Z</time>
      </trkpt>
      <trkpt lat="42.446305" lon="1.609245">
        <ele>2128.829</ele>
        <time>2019-05-31T13:24:13Z</time>
      </trkpt>
      <trkpt lat="42.446280" lon="1.609237">
        <ele>2128.821</ele>
        <time>2019-05-31T13:24:14Z</time>
      </trkpt>
      <trkpt lat="42.446232" lon="1.609258">
        <ele>2128.208</ele>
        <time>2019-05-31T13:24:16Z</time>
      </trkpt>
      <trkpt lat="42.446197" lon="1.609316">
        <ele>2127.867</ele>
        <time>2019-05-31T13:24:18Z</time>
      </trkpt>
      <trkpt lat="42.446186" lon="1.609461">
        <ele>2127.011</ele>
        <time>2019-05-31T13:24:22Z</time>
      </trkpt>
      <trkpt lat="42.446191" lon="1.609492">
        <ele>2126.627</ele>
        <time>2019-05-31T13:24:23Z</time>
      </trkpt>
      <trkpt lat="42.446225" lon="1.609617">
        <ele>2125.685</ele>
        <time>2019-05-31T13:24:27Z</time>
      </trkpt>
      <trkpt lat="42.446239" lon="1.609638">
        <ele>2125.429</ele>
        <time>2019-05-31T13:24:28Z</time>
      </trkpt>
      <trkpt lat="42.446296" lon="1.609726">
        <ele>2124.644</ele>
        <time>2019-05-31T13:24:34Z</time>
      </trkpt>
      <trkpt lat="42.446307" lon="1.609754">
        <ele>2124.288</ele>
        <time>2019-05-31T13:24:35Z</time>
      </trkpt>
      <trkpt lat="42.446389" lon="1.609865">
        <ele>2123.474</ele>
        <time>2019-05-31T13:24:40Z</time>
      </trkpt>
      <trkpt lat="42.446432" lon="1.609920">
        <ele>2123.213</ele>
        <time>2019-05-31T13:24:43Z</time>
      </trkpt>
      <trkpt lat="42.446449" lon="1.609966">
        <ele>2122.843</ele>
        <time>2019-05-31T13:24:45Z</time>
      </trkpt>
      <trkpt lat="42.446444" lon="1.609993">
        <ele>2122.807</ele>
        <time>2019-05-31T13:24:46Z</time>
      </trkpt>
      <trkpt lat="42.446357" lon="1.610060">
        <ele>2122.008</ele>
        <time>2019-05-31T13:24:50Z</time>
      </trkpt>
      <trkpt lat="42.446210" lon="1.609987">
        <ele>2120.814</ele>
        <time>2019-05-31T13:24:54Z</time>
      </trkpt>
      <trkpt lat="42.446125" lon="1.609875">
        <ele>2119.498</ele>
        <time>2019-05-31T13:24:57Z</time>
      </trkpt>
      <trkpt lat="42.446098" lon="1.609841">
        <ele>2119.424</ele>
        <time>2019-05-31T13:24:58Z</time>
      </trkpt>
      <trkpt lat="42.446073" lon="1.609821">
        <ele>2119.222</ele>
        <time>2019-05-31T13:24:59Z</time>
      </trkpt>
      <trkpt lat="42.446049" lon="1.609824">
        <ele>2119.046</ele>
        <time>2019-05-31T13:25:00Z</time>
      </trkpt>
      <trkpt lat="42.446012" lon="1.609897">
        <ele>2118.411</ele>
        <time>2019-05-31T13:25:02Z</time>
      </trkpt>
      <trkpt lat="42.446022" lon="1.610049">
        <ele>2117.285</ele>
        <time>2019-05-31T13:25:05Z</time>
      </trkpt>
      <trkpt lat="42.446041" lon="1.610088">
        <ele>2117.021</ele>
        <time>2019-05-31T13:25:06Z</time>
      </trkpt>
      <trkpt lat="42.446129" lon="1.610227">
        <ele>2116.218</ele>
        <time>2019-05-31T13:25:10Z</time>
      </trkpt>
      <trkpt lat="42.446137" lon="1.610271">
        <ele>2116.298</ele>
        <time>2019-05-31T13:25:11Z</time>
      </trkpt>
      <trkpt lat="42.446107" lon="1.610385">
        <ele>2115.017</ele>
        <time>2019-05-31T13:25:14Z</time>
      </trkpt>
      <trkpt lat="42.446009" lon="1.610418">
        <ele>2114.008</ele>
        <time>2019-05-31T13:25:17Z</time>
      </trkpt>
      <trkpt lat="42.445853" lon="1.610424">
        <ele>2113.074</ele>
        <time>2019-05-31T13:25:21Z</time>
      </trkpt>
      <trkpt lat="42.445809" lon="1.610426">
        <ele>2112.218</ele>
        <time>2019-05-31T13:25:22Z</time>
      </trkpt>
      <trkpt lat="42.445595" lon="1.610442">
        <ele>2111.874</ele>
        <time>2019-05-31T13:25:27Z</time>
      </trkpt>
      <trkpt lat="42.445554" lon="1.610449">
        <ele>2111.412</ele>
        <time>2019-05-31T13:25:28Z</time>
      </trkpt>
      <trkpt lat="42.445399" lon="1.610494">
        <ele>2111.036</ele>
        <time>2019-05-31T13:25:32Z</time>
      </trkpt>
      <trkpt lat="42.445330" lon="1.610529">
        <ele>2110.841</ele>
        <time>2019-05-31T13:25:34Z</time>
      </trkpt>
      <trkpt lat="42.445115" lon="1.610659">
        <ele>2111.845</ele>
        <time>2019-05-31T13:25:41Z</time>
      </trkpt>
      <trkpt lat="42.444987" lon="1.610741">
        <ele>2112.281</ele>
        <time>2019-05-31T13:25:46Z</time>
      </trkpt>
      <trkpt lat="42.444939" lon="1.610761">
        <ele>2113.016</ele>
        <time>2019-05-31T13:25:48Z</time>
      </trkpt>
      <trkpt lat="42.444897" lon="1.610783">
        <ele>2113.476</ele>
        <time>2019-05-31T13:25:50Z</time>
      </trkpt>
      <trkpt lat="42.444840" lon="1.610825">
        <ele>2113.813</ele>
        <time>2019-05-31T13:25:53Z</time>
      </trkpt>
      <trkpt lat="42.444787" lon="1.610873">
        <ele>2114.208</ele>
        <time>2019-05-31T13:25:56Z</time>
      </trkpt>
      <trkpt lat="42.444751" lon="1.610898">
        <ele>2114.484</ele>
        <time>2019-05-31T13:25:58Z</time>
      </trkpt>
      <trkpt lat="42.444657" lon="1.610942">
        <ele>2115.858</ele>
        <time>2019-05-31T13:26:03Z</time>
      </trkpt>
      <trkpt lat="42.444623" lon="1.610955">
        <ele>2115.244</ele>
        <time>2019-05-31T13:26:05Z</time>
      </trkpt>
      <trkpt lat="42.444514" lon="1.611006">
        <ele>2115.272</ele>
        <time>2019-05-31T13:26:11Z</time>
      </trkpt>
      <trkpt lat="42.444345" lon="1.611097">
        <ele>2115.256</ele>
        <time>2019-05-31T13:26:18Z</time>
      </trkpt>
      <trkpt lat="42.444238" lon="1.611187">
        <ele>2114.461</ele>
        <time>2019-05-31T13:26:21Z</time>
      </trkpt>
      <trkpt lat="42.444158" lon="1.611270">
        <ele>2113.445</ele>
        <time>2019-05-31T13:26:23Z</time>
      </trkpt>
      <trkpt lat="42.444029" lon="1.611392">
        <ele>2112.091</ele>
        <time>2019-05-31T13:26:26Z</time>
      </trkpt>
      <trkpt lat="42.443983" lon="1.611428">
        <ele>2111.693</ele>
        <time>2019-05-31T13:26:27Z</time>
      </trkpt>
      <trkpt lat="42.443896" lon="1.611509">
        <ele>2111.465</ele>
        <time>2019-05-31T13:26:29Z</time>
      </trkpt>
      <trkpt lat="42.443806" lon="1.611596">
        <ele>2111.421</ele>
        <time>2019-05-31T13:26:31Z</time>
      </trkpt>
      <trkpt lat="42.443728" lon="1.611709">
        <ele>2110.808</ele>
        <time>2019-05-31T13:26:33Z</time>
      </trkpt>
      <trkpt lat="42.443655" lon="1.611822">
        <ele>2110.872</ele>
        <time>2019-05-31T13:26:35Z</time>
      </trkpt>
      <trkpt lat="42.443411" lon="1.612243">
        <ele>2110.856</ele>
        <time>2019-05-31T13:26:42Z</time>
      </trkpt>
      <trkpt lat="42.443117" lon="1.612649">
        <ele>2109.862</ele>
        <time>2019-05-31T13:26:49Z</time>
      </trkpt>
      <trkpt lat="42.442953" lon="1.612873">
        <ele>2109.630</ele>
        <time>2019-05-31T13:26:53Z</time>
      </trkpt>
      <trkpt lat="42.442872" lon="1.612973">
        <ele>2110.294</ele>
        <time>2019-05-31T13:26:55Z</time>
      </trkpt>
      <trkpt lat="42.442792" lon="1.613067">
        <ele>2111.069</ele>
        <time>2019-05-31T13:26:57Z</time>
      </trkpt>
      <trkpt lat="42.442694" lon="1.613194">
        <ele>2112.013</ele>
        <time>2019-05-31T13:27:00Z</time>
      </trkpt>
      <trkpt lat="42.442648" lon="1.613266">
        <ele>2112.889</ele>
        <time>2019-05-31T13:27:02Z</time>
      </trkpt>
      <trkpt lat="42.442613" lon="1.613324">
        <ele>2113.463</ele>
        <time>2019-05-31T13:27:04Z</time>
      </trkpt>
      <trkpt lat="42.442561" lon="1.613389">
        <ele>2114.244</ele>
        <time>2019-05-31T13:27:07Z</time>
      </trkpt>
      <trkpt lat="42.442534" lon="1.613433">
        <ele>2114.418</ele>
        <time>2019-05-31T13:27:09Z</time>
      </trkpt>
      <trkpt lat="42.442457" lon="1.613525">
        <ele>2114.808</ele>
        <time>2019-05-31T13:27:14Z</time>
      </trkpt>
      <trkpt lat="42.442389" lon="1.613585">
        <ele>2115.449</ele>
        <time>2019-05-31T13:27:18Z</time>
      </trkpt>
      <trkpt lat="42.442357" lon="1.613621">
        <ele>2115.673</ele>
        <time>2019-05-31T13:27:20Z</time>
      </trkpt>
      <trkpt lat="42.442340" lon="1.613637">
        <ele>2115.879</ele>
        <time>2019-05-31T13:27:21Z</time>
      </trkpt>
      <trkpt lat="42.442251" lon="1.613743">
        <ele>2116.427</ele>
        <time>2019-05-31T13:27:27Z</time>
      </trkpt>
      <trkpt lat="42.442136" lon="1.613839">
        <ele>2117.061</ele>
        <time>2019-05-31T13:27:35Z</time>
      </trkpt>
      <trkpt lat="42.442042" lon="1.613890">
        <ele>2117.636</ele>
        <time>2019-05-31T13:27:41Z</time>
      </trkpt>
      <trkpt lat="42.441912" lon="1.613898">
        <ele>2118.430</ele>
        <time>2019-05-31T13:27:49Z</time>
      </trkpt>
      <trkpt lat="42.441852" lon="1.613885">
        <ele>2118.886</ele>
        <time>2019-05-31T13:27:53Z</time>
      </trkpt>
      <trkpt lat="42.441819" lon="1.613879">
        <ele>2119.248</ele>
        <time>2019-05-31T13:27:55Z</time>
      </trkpt>
      <trkpt lat="42.441802" lon="1.613877">
        <ele>2119.461</ele>
        <time>2019-05-31T13:27:56Z</time>
      </trkpt>
      <trkpt lat="42.441781" lon="1.613845">
        <ele>2119.817</ele>
        <time>2019-05-31T13:27:58Z</time>
      </trkpt>
      <trkpt lat="42.441767" lon="1.613773">
        <ele>2120.008</ele>
        <time>2019-05-31T13:28:01Z</time>
      </trkpt>
      <trkpt lat="42.441700" lon="1.613541">
        <ele>2120.217</ele>
        <time>2019-05-31T13:28:08Z</time>
      </trkpt>
      <trkpt lat="42.441608" lon="1.613491">
        <ele>2119.851</ele>
        <time>2019-05-31T13:28:11Z</time>
      </trkpt>
      <trkpt lat="42.441577" lon="1.613494">
        <ele>2119.697</ele>
        <time>2019-05-31T13:28:12Z</time>
      </trkpt>
      <trkpt lat="42.441442" lon="1.613601">
        <ele>2119.435</ele>
        <time>2019-05-31T13:28:17Z</time>
      </trkpt>
      <trkpt lat="42.441294" lon="1.613776">
        <ele>2119.699</ele>
        <time>2019-05-31T13:28:23Z</time>
      </trkpt>
      <trkpt lat="42.441126" lon="1.614041">
        <ele>2120.424</ele>
        <time>2019-05-31T13:28:31Z</time>
      </trkpt>
      <trkpt lat="42.440977" lon="1.614330">
        <ele>2120.228</ele>
        <time>2019-05-31T13:28:39Z</time>
      </trkpt>
      <trkpt lat="42.440888" lon="1.614536">
        <ele>2121.074</ele>
        <time>2019-05-31T13:28:45Z</time>
      </trkpt>
      <trkpt lat="42.440807" lon="1.614762">
        <ele>2121.837</ele>
        <time>2019-05-31T13:28:53Z</time>
      </trkpt>
      <trkpt lat="42.440796" lon="1.614790">
        <ele>2122.049</ele>
        <time>2019-05-31T13:28:54Z</time>
      </trkpt>
      <trkpt lat="42.440747" lon="1.614957">
        <ele>2122.613</ele>
        <time>2019-05-31T13:29:00Z</time>
      </trkpt>
      <trkpt lat="42.440719" lon="1.615019">
        <ele>2123.008</ele>
        <time>2019-05-31T13:29:03Z</time>
      </trkpt>
      <trkpt lat="42.440692" lon="1.615130">
        <ele>2123.056</ele>
        <time>2019-05-31T13:29:07Z</time>
      </trkpt>
      <trkpt lat="42.440626" lon="1.615281">
        <ele>2123.410</ele>
        <time>2019-05-31T13:29:13Z</time>
      </trkpt>
      <trkpt lat="42.440550" lon="1.615501">
        <ele>2124.016</ele>
        <time>2019-05-31T13:29:22Z</time>
      </trkpt>
      <trkpt lat="42.440538" lon="1.615526">
        <ele>2124.294</ele>
        <time>2019-05-31T13:29:23Z</time>
      </trkpt>
      <trkpt lat="42.440446" lon="1.615705">
        <ele>2124.478</ele>
        <time>2019-05-31T13:29:30Z</time>
      </trkpt>
      <trkpt lat="42.440296" lon="1.615815">
        <ele>2124.453</ele>
        <time>2019-05-31T13:29:36Z</time>
      </trkpt>
      <trkpt lat="42.440094" lon="1.615854">
        <ele>2123.837</ele>
        <time>2019-05-31T13:29:42Z</time>
      </trkpt>
      <trkpt lat="42.439882" lon="1.615756">
        <ele>2123.213</ele>
        <time>2019-05-31T13:29:49Z</time>
      </trkpt>
      <trkpt lat="42.439854" lon="1.615733">
        <ele>2123.032</ele>
        <time>2019-05-31T13:29:50Z</time>
      </trkpt>
      <trkpt lat="42.439707" lon="1.615604">
        <ele>2122.692</ele>
        <time>2019-05-31T13:29:55Z</time>
      </trkpt>
      <trkpt lat="42.439479" lon="1.615383">
        <ele>2122.011</ele>
        <time>2019-05-31T13:30:03Z</time>
      </trkpt>
      <trkpt lat="42.439442" lon="1.615349">
        <ele>2121.808</ele>
        <time>2019-05-31T13:30:04Z</time>
      </trkpt>
      <trkpt lat="42.439324" lon="1.615232">
        <ele>2120.696</ele>
        <time>2019-05-31T13:30:07Z</time>
      </trkpt>
      <trkpt lat="42.439234" lon="1.615172">
        <ele>2120.480</ele>
        <time>2019-05-31T13:30:09Z</time>
      </trkpt>
      <trkpt lat="42.439017" lon="1.615195">
        <ele>2119.836</ele>
        <time>2019-05-31T13:30:13Z</time>
      </trkpt>
      <trkpt lat="42.438965" lon="1.615208">
        <ele>2119.424</ele>
        <time>2019-05-31T13:30:14Z</time>
      </trkpt>
      <trkpt lat="42.438833" lon="1.615240">
        <ele>2120.088</ele>
        <time>2019-05-31T13:30:17Z</time>
      </trkpt>
      <trkpt lat="42.438795" lon="1.615246">
        <ele>2120.243</ele>
        <time>2019-05-31T13:30:18Z</time>
      </trkpt>
      <trkpt lat="42.438662" lon="1.615272">
        <ele>2120.667</ele>
        <time>2019-05-31T13:30:22Z</time>
      </trkpt>
      <trkpt lat="42.438573" lon="1.615279">
        <ele>2120.893</ele>
        <time>2019-05-31T13:30:25Z</time>
      </trkpt>
      <trkpt lat="42.438471" lon="1.615285">
        <ele>2121.827</ele>
        <time>2019-05-31T13:30:29Z</time>
      </trkpt>
      <trkpt lat="42.438402" lon="1.615275">
        <ele>2121.268</ele>
        <time>2019-05-31T13:30:32Z</time>
      </trkpt>
      <trkpt lat="42.438309" lon="1.615267">
        <ele>2123.014</ele>
        <time>2019-05-31T13:30:36Z</time>
      </trkpt>
      <trkpt lat="42.438233" lon="1.615251">
        <ele>2122.408</ele>
        <time>2019-05-31T13:30:40Z</time>
      </trkpt>
      <trkpt lat="42.438114" lon="1.615236">
        <ele>2123.275</ele>
        <time>2019-05-31T13:30:47Z</time>
      </trkpt>
      <trkpt lat="42.437992" lon="1.615213">
        <ele>2123.839</ele>
        <time>2019-05-31T13:30:55Z</time>
      </trkpt>
      <trkpt lat="42.437976" lon="1.615208">
        <ele>2124.265</ele>
        <time>2019-05-31T13:30:56Z</time>
      </trkpt>
      <trkpt lat="42.437860" lon="1.615181">
        <ele>2125.083</ele>
        <time>2019-05-31T13:31:03Z</time>
      </trkpt>
      <trkpt lat="42.437824" lon="1.615172">
        <ele>2125.447</ele>
        <time>2019-05-31T13:31:05Z</time>
      </trkpt>
      <trkpt lat="42.437712" lon="1.615172">
        <ele>2126.442</ele>
        <time>2019-05-31T13:31:11Z</time>
      </trkpt>
      <trkpt lat="42.437587" lon="1.615196">
        <ele>2127.016</ele>
        <time>2019-05-31T13:31:17Z</time>
      </trkpt>
      <trkpt lat="42.437444" lon="1.615254">
        <ele>2127.012</ele>
        <time>2019-05-31T13:31:25Z</time>
      </trkpt>
      <trkpt lat="42.437403" lon="1.615288">
        <ele>2127.471</ele>
        <time>2019-05-31T13:31:28Z</time>
      </trkpt>
      <trkpt lat="42.437370" lon="1.615330">
        <ele>2127.841</ele>
        <time>2019-05-31T13:31:31Z</time>
      </trkpt>
      <trkpt lat="42.437297" lon="1.615442">
        <ele>2128.415</ele>
        <time>2019-05-31T13:31:38Z</time>
      </trkpt>
      <trkpt lat="42.437254" lon="1.615528">
        <ele>2128.608</ele>
        <time>2019-05-31T13:31:42Z</time>
      </trkpt>
      <trkpt lat="42.437204" lon="1.615624">
        <ele>2129.070</ele>
        <time>2019-05-31T13:31:47Z</time>
      </trkpt>
      <trkpt lat="42.437135" lon="1.615735">
        <ele>2129.264</ele>
        <time>2019-05-31T13:31:54Z</time>
      </trkpt>
      <trkpt lat="42.437052" lon="1.615822">
        <ele>2129.640</ele>
        <time>2019-05-31T13:32:01Z</time>
      </trkpt>
      <trkpt lat="42.437038" lon="1.615830">
        <ele>2129.818</ele>
        <time>2019-05-31T13:32:02Z</time>
      </trkpt>
      <trkpt lat="42.436946" lon="1.615904">
        <ele>2130.482</ele>
        <time>2019-05-31T13:32:09Z</time>
      </trkpt>
      <trkpt lat="42.436915" lon="1.615916">
        <ele>2130.617</ele>
        <time>2019-05-31T13:32:11Z</time>
      </trkpt>
      <trkpt lat="42.436802" lon="1.615943">
        <ele>2131.241</ele>
        <time>2019-05-31T13:32:18Z</time>
      </trkpt>
      <trkpt lat="42.436659" lon="1.615914">
        <ele>2131.287</ele>
        <time>2019-05-31T13:32:25Z</time>
      </trkpt>
      <trkpt lat="42.436488" lon="1.615774">
        <ele>2130.273</ele>
        <time>2019-05-31T13:32:31Z</time>
      </trkpt>
      <trkpt lat="42.436454" lon="1.615729">
        <ele>2129.885</ele>
        <time>2019-05-31T13:32:32Z</time>
      </trkpt>
      <trkpt lat="42.436415" lon="1.615681">
        <ele>2129.013</ele>
        <time>2019-05-31T13:32:33Z</time>
      </trkpt>
      <trkpt lat="42.436338" lon="1.615573">
        <ele>2128.208</ele>
        <time>2019-05-31T13:32:35Z</time>
      </trkpt>
      <trkpt lat="42.436293" lon="1.615528">
        <ele>2127.840</ele>
        <time>2019-05-31T13:32:36Z</time>
      </trkpt>
      <trkpt lat="42.436144" lon="1.615419">
        <ele>2127.234</ele>
        <time>2019-05-31T13:32:39Z</time>
      </trkpt>
      <trkpt lat="42.436091" lon="1.615400">
        <ele>2126.820</ele>
        <time>2019-05-31T13:32:40Z</time>
      </trkpt>
      <trkpt lat="42.435945" lon="1.615311">
        <ele>2126.098</ele>
        <time>2019-05-31T13:32:43Z</time>
      </trkpt>
      <trkpt lat="42.435901" lon="1.615271">
        <ele>2125.872</ele>
        <time>2019-05-31T13:32:44Z</time>
      </trkpt>
      <trkpt lat="42.435777" lon="1.615135">
        <ele>2126.847</ele>
        <time>2019-05-31T13:32:47Z</time>
      </trkpt>
      <trkpt lat="42.435688" lon="1.615061">
        <ele>2126.621</ele>
        <time>2019-05-31T13:32:49Z</time>
      </trkpt>
      <trkpt lat="42.435643" lon="1.615033">
        <ele>2126.447</ele>
        <time>2019-05-31T13:32:50Z</time>
      </trkpt>
      <trkpt lat="42.435470" lon="1.615008">
        <ele>2127.242</ele>
        <time>2019-05-31T13:32:54Z</time>
      </trkpt>
      <trkpt lat="42.435435" lon="1.615013">
        <ele>2127.022</ele>
        <time>2019-05-31T13:32:55Z</time>
      </trkpt>
      <trkpt lat="42.435317" lon="1.615102">
        <ele>2127.014</ele>
        <time>2019-05-31T13:32:59Z</time>
      </trkpt>
      <trkpt lat="42.435201" lon="1.615297">
        <ele>2127.808</ele>
        <time>2019-05-31T13:33:05Z</time>
      </trkpt>
      <trkpt lat="42.435154" lon="1.615400">
        <ele>2128.047</ele>
        <time>2019-05-31T13:33:08Z</time>
      </trkpt>
      <trkpt lat="42.435077" lon="1.615612">
        <ele>2128.221</ele>
        <time>2019-05-31T13:33:14Z</time>
      </trkpt>
      <trkpt lat="42.435021" lon="1.615841">
        <ele>2128.697</ele>
        <time>2019-05-31T13:33:21Z</time>
      </trkpt>
      <trkpt lat="42.435017" lon="1.615870">
        <ele>2129.255</ele>
        <time>2019-05-31T13:33:22Z</time>
      </trkpt>
      <trkpt lat="42.434974" lon="1.616069">
        <ele>2130.039</ele>
        <time>2019-05-31T13:33:29Z</time>
      </trkpt>
      <trkpt lat="42.434878" lon="1.616266">
        <ele>2129.854</ele>
        <time>2019-05-31T13:33:37Z</time>
      </trkpt>
      <trkpt lat="42.434858" lon="1.616286">
        <ele>2130.248</ele>
        <time>2019-05-31T13:33:38Z</time>
      </trkpt>
      <trkpt lat="42.434712" lon="1.616408">
        <ele>2130.614</ele>
        <time>2019-05-31T13:33:45Z</time>
      </trkpt>
      <trkpt lat="42.434581" lon="1.616533">
        <ele>2131.667</ele>
        <time>2019-05-31T13:33:51Z</time>
      </trkpt>
      <trkpt lat="42.434565" lon="1.616555">
        <ele>2131.281</ele>
        <time>2019-05-31T13:33:52Z</time>
      </trkpt>
      <trkpt lat="42.434524" lon="1.616602">
        <ele>2130.419</ele>
        <time>2019-05-31T13:33:54Z</time>
      </trkpt>
      <trkpt lat="42.434504" lon="1.616630">
        <ele>2131.408</ele>
        <time>2019-05-31T13:33:55Z</time>
      </trkpt>
      <trkpt lat="42.434421" lon="1.616741">
        <ele>2130.639</ele>
        <time>2019-05-31T13:33:59Z</time>
      </trkpt>
      <trkpt lat="42.434376" lon="1.616798">
        <ele>2130.493</ele>
        <time>2019-05-31T13:34:01Z</time>
      </trkpt>
      <trkpt lat="42.434288" lon="1.616900">
        <ele>2130.229</ele>
        <time>2019-05-31T13:34:05Z</time>
      </trkpt>
      <trkpt lat="42.434072" lon="1.617158">
        <ele>2129.427</ele>
        <time>2019-05-31T13:34:13Z</time>
      </trkpt>
      <trkpt lat="42.434044" lon="1.617197">
        <ele>2129.011</ele>
        <time>2019-05-31T13:34:14Z</time>
      </trkpt>
      <trkpt lat="42.433969" lon="1.617321">
        <ele>2128.026</ele>
        <time>2019-05-31T13:34:17Z</time>
      </trkpt>
      <trkpt lat="42.433917" lon="1.617402">
        <ele>2127.060</ele>
        <time>2019-05-31T13:34:19Z</time>
      </trkpt>
      <trkpt lat="42.433882" lon="1.617433">
        <ele>2127.066</ele>
        <time>2019-05-31T13:34:20Z</time>
      </trkpt>
      <trkpt lat="42.433843" lon="1.617452">
        <ele>2126.416</ele>
        <time>2019-05-31T13:34:21Z</time>
      </trkpt>
      <trkpt lat="42.433761" lon="1.617449">
        <ele>2126.676</ele>
        <time>2019-05-31T13:34:23Z</time>
      </trkpt>
      <trkpt lat="42.433668" lon="1.617349">
        <ele>2125.213</ele>
        <time>2019-05-31T13:34:26Z</time>
      </trkpt>
      <trkpt lat="42.433648" lon="1.617295">
        <ele>2124.808</ele>
        <time>2019-05-31T13:34:27Z</time>
      </trkpt>
      <trkpt lat="42.433628" lon="1.617235">
        <ele>2124.634</ele>
        <time>2019-05-31T13:34:28Z</time>
      </trkpt>
      <trkpt lat="42.433609" lon="1.617162">
        <ele>2124.258</ele>
        <time>2019-05-31T13:34:29Z</time>
      </trkpt>
      <trkpt lat="42.433521" lon="1.616979">
        <ele>2122.624</ele>
        <time>2019-05-31T13:34:32Z</time>
      </trkpt>
      <trkpt lat="42.433440" lon="1.616888">
        <ele>2121.292</ele>
        <time>2019-05-31T13:34:34Z</time>
      </trkpt>
      <trkpt lat="42.433351" lon="1.616819">
        <ele>2120.036</ele>
        <time>2019-05-31T13:34:36Z</time>
      </trkpt>
      <trkpt lat="42.433216" lon="1.616745">
        <ele>2119.281</ele>
        <time>2019-05-31T13:34:39Z</time>
      </trkpt>
      <trkpt lat="42.433169" lon="1.616723">
        <ele>2118.875</ele>
        <time>2019-05-31T13:34:40Z</time>
      </trkpt>
      <trkpt lat="42.433080" lon="1.616692">
        <ele>2118.061</ele>
        <time>2019-05-31T13:34:42Z</time>
      </trkpt>
      <trkpt lat="42.433033" lon="1.616673">
        <ele>2117.876</ele>
        <time>2019-05-31T13:34:43Z</time>
      </trkpt>
      <trkpt lat="42.432903" lon="1.616588">
        <ele>2116.690</ele>
        <time>2019-05-31T13:34:46Z</time>
      </trkpt>
      <trkpt lat="42.432860" lon="1.616559">
        <ele>2116.019</ele>
        <time>2019-05-31T13:34:47Z</time>
      </trkpt>
      <trkpt lat="42.432782" lon="1.616489">
        <ele>2114.808</ele>
        <time>2019-05-31T13:34:49Z</time>
      </trkpt>
      <trkpt lat="42.432710" lon="1.616409">
        <ele>2113.610</ele>
        <time>2019-05-31T13:34:51Z</time>
      </trkpt>
      <trkpt lat="42.432633" lon="1.616344">
        <ele>2113.654</ele>
        <time>2019-05-31T13:34:53Z</time>
      </trkpt>
      <trkpt lat="42.432547" lon="1.616284">
        <ele>2111.830</ele>
        <time>2019-05-31T13:34:55Z</time>
      </trkpt>
      <trkpt lat="42.432458" lon="1.616218">
        <ele>2110.678</ele>
        <time>2019-05-31T13:34:57Z</time>
      </trkpt>
      <trkpt lat="42.432413" lon="1.616182">
        <ele>2109.622</ele>
        <time>2019-05-31T13:34:58Z</time>
      </trkpt>
      <trkpt lat="42.432367" lon="1.616142">
        <ele>2108.417</ele>
        <time>2019-05-31T13:34:59Z</time>
      </trkpt>
      <trkpt lat="42.432273" lon="1.616062">
        <ele>2106.851</ele>
        <time>2019-05-31T13:35:01Z</time>
      </trkpt>
      <trkpt lat="42.432128" lon="1.615941">
        <ele>2105.667</ele>
        <time>2019-05-31T13:35:04Z</time>
      </trkpt>
      <trkpt lat="42.432080" lon="1.615908">
        <ele>2104.449</ele>
        <time>2019-05-31T13:35:05Z</time>
      </trkpt>
      <trkpt lat="42.431971" lon="1.615842">
        <ele>2102.802</ele>
        <time>2019-05-31T13:35:07Z</time>
      </trkpt>
      <trkpt lat="42.431913" lon="1.615816">
        <ele>2101.822</ele>
        <time>2019-05-31T13:35:08Z</time>
      </trkpt>
      <trkpt lat="42.431847" lon="1.615800">
        <ele>2101.008</ele>
        <time>2019-05-31T13:35:09Z</time>
      </trkpt>
      <trkpt lat="42.431781" lon="1.615791">
        <ele>2100.427</ele>
        <time>2019-05-31T13:35:10Z</time>
      </trkpt>
      <trkpt lat="42.431719" lon="1.615781">
        <ele>2100.461</ele>
        <time>2019-05-31T13:35:11Z</time>
      </trkpt>
      <trkpt lat="42.431597" lon="1.615768">
        <ele>2099.457</ele>
        <time>2019-05-31T13:35:13Z</time>
      </trkpt>
      <trkpt lat="42.431417" lon="1.615742">
        <ele>2098.245</ele>
        <time>2019-05-31T13:35:16Z</time>
      </trkpt>
      <trkpt lat="42.431293" lon="1.615727">
        <ele>2097.239</ele>
        <time>2019-05-31T13:35:18Z</time>
      </trkpt>
      <trkpt lat="42.431159" lon="1.615711">
        <ele>2096.084</ele>
        <time>2019-05-31T13:35:20Z</time>
      </trkpt>
      <trkpt lat="42.431032" lon="1.615691">
        <ele>2094.278</ele>
        <time>2019-05-31T13:35:22Z</time>
      </trkpt>
      <trkpt lat="42.430903" lon="1.615682">
        <ele>2093.274</ele>
        <time>2019-05-31T13:35:24Z</time>
      </trkpt>
      <trkpt lat="42.430793" lon="1.615679">
        <ele>2093.021</ele>
        <time>2019-05-31T13:35:26Z</time>
      </trkpt>
      <trkpt lat="42.430753" lon="1.615698">
        <ele>2093.241</ele>
        <time>2019-05-31T13:35:27Z</time>
      </trkpt>
      <trkpt lat="42.430724" lon="1.615731">
        <ele>2092.805</ele>
        <time>2019-05-31T13:35:28Z</time>
      </trkpt>
      <trkpt lat="42.430696" lon="1.615826">
        <ele>2091.808</ele>
        <time>2019-05-31T13:35:30Z</time>
      </trkpt>
      <trkpt lat="42.430698" lon="1.615885">
        <ele>2091.615</ele>
        <time>2019-05-31T13:35:31Z</time>
      </trkpt>
      <trkpt lat="42.430702" lon="1.615952">
        <ele>2091.099</ele>
        <time>2019-05-31T13:35:32Z</time>
      </trkpt>
      <trkpt lat="42.430710" lon="1.616024">
        <ele>2090.465</ele>
        <time>2019-05-31T13:35:33Z</time>
      </trkpt>
      <trkpt lat="42.430745" lon="1.616087">
        <ele>2090.033</ele>
        <time>2019-05-31T13:35:34Z</time>
      </trkpt>
      <trkpt lat="42.430779" lon="1.616157">
        <ele>2089.287</ele>
        <time>2019-05-31T13:35:35Z</time>
      </trkpt>
      <trkpt lat="42.430849" lon="1.616298">
        <ele>2088.092</ele>
        <time>2019-05-31T13:35:37Z</time>
      </trkpt>
      <trkpt lat="42.430990" lon="1.616563">
        <ele>2086.496</ele>
        <time>2019-05-31T13:35:41Z</time>
      </trkpt>
      <trkpt lat="42.431054" lon="1.616690">
        <ele>2085.412</ele>
        <time>2019-05-31T13:35:43Z</time>
      </trkpt>
      <trkpt lat="42.431089" lon="1.616755">
        <ele>2084.821</ele>
        <time>2019-05-31T13:35:44Z</time>
      </trkpt>
      <trkpt lat="42.431112" lon="1.616818">
        <ele>2084.241</ele>
        <time>2019-05-31T13:35:45Z</time>
      </trkpt>
      <trkpt lat="42.431166" lon="1.617007">
        <ele>2083.005</ele>
        <time>2019-05-31T13:35:48Z</time>
      </trkpt>
      <trkpt lat="42.431216" lon="1.617192">
        <ele>2082.008</ele>
        <time>2019-05-31T13:35:51Z</time>
      </trkpt>
      <trkpt lat="42.431272" lon="1.617371">
        <ele>2080.895</ele>
        <time>2019-05-31T13:35:54Z</time>
      </trkpt>
      <trkpt lat="42.431308" lon="1.617510">
        <ele>2079.499</ele>
        <time>2019-05-31T13:35:57Z</time>
      </trkpt>
      <trkpt lat="42.431320" lon="1.617599">
        <ele>2079.045</ele>
        <time>2019-05-31T13:35:59Z</time>
      </trkpt>
      <trkpt lat="42.431308" lon="1.617640">
        <ele>2078.663</ele>
        <time>2019-05-31T13:36:00Z</time>
      </trkpt>
      <trkpt lat="42.431290" lon="1.617686">
        <ele>2078.227</ele>
        <time>2019-05-31T13:36:01Z</time>
      </trkpt>
      <trkpt lat="42.431272" lon="1.617731">
        <ele>2077.882</ele>
        <time>2019-05-31T13:36:02Z</time>
      </trkpt>
      <trkpt lat="42.431223" lon="1.617795">
        <ele>2077.256</ele>
        <time>2019-05-31T13:36:04Z</time>
      </trkpt>
      <trkpt lat="42.431193" lon="1.617825">
        <ele>2076.812</ele>
        <time>2019-05-31T13:36:05Z</time>
      </trkpt>
      <trkpt lat="42.431122" lon="1.617858">
        <ele>2076.054</ele>
        <time>2019-05-31T13:36:07Z</time>
      </trkpt>
      <trkpt lat="42.431062" lon="1.617912">
        <ele>2075.056</ele>
        <time>2019-05-31T13:36:09Z</time>
      </trkpt>
      <trkpt lat="42.430998" lon="1.617947">
        <ele>2074.011</ele>
        <time>2019-05-31T13:36:11Z</time>
      </trkpt>
      <trkpt lat="42.430966" lon="1.617984">
        <ele>2074.008</ele>
        <time>2019-05-31T13:36:12Z</time>
      </trkpt>
      <trkpt lat="42.430836" lon="1.618067">
        <ele>2073.068</ele>
        <time>2019-05-31T13:36:16Z</time>
      </trkpt>
      <trkpt lat="42.430761" lon="1.618115">
        <ele>2071.852</ele>
        <time>2019-05-31T13:36:18Z</time>
      </trkpt>
      <trkpt lat="42.430685" lon="1.618168">
        <ele>2070.078</ele>
        <time>2019-05-31T13:36:20Z</time>
      </trkpt>
      <trkpt lat="42.430564" lon="1.618238">
        <ele>2069.046</ele>
        <time>2019-05-31T13:36:23Z</time>
      </trkpt>
      <trkpt lat="42.430443" lon="1.618274">
        <ele>2068.250</ele>
        <time>2019-05-31T13:36:26Z</time>
      </trkpt>
      <trkpt lat="42.430401" lon="1.618273">
        <ele>2067.445</ele>
        <time>2019-05-31T13:36:27Z</time>
      </trkpt>
      <trkpt lat="42.430233" lon="1.618267">
        <ele>2066.679</ele>
        <time>2019-05-31T13:36:31Z</time>
      </trkpt>
      <trkpt lat="42.430189" lon="1.618250">
        <ele>2066.215</ele>
        <time>2019-05-31T13:36:32Z</time>
      </trkpt>
      <trkpt lat="42.430045" lon="1.618188">
        <ele>2064.647</ele>
        <time>2019-05-31T13:36:35Z</time>
      </trkpt>
      <trkpt lat="42.430000" lon="1.618161">
        <ele>2064.429</ele>
        <time>2019-05-31T13:36:36Z</time>
      </trkpt>
      <trkpt lat="42.429912" lon="1.618108">
        <ele>2064.221</ele>
        <time>2019-05-31T13:36:38Z</time>
      </trkpt>
      <trkpt lat="42.429813" lon="1.618054">
        <ele>2063.408</ele>
        <time>2019-05-31T13:36:40Z</time>
      </trkpt>
      <trkpt lat="42.429708" lon="1.617993">
        <ele>2062.257</ele>
        <time>2019-05-31T13:36:42Z</time>
      </trkpt>
      <trkpt lat="42.429603" lon="1.617931">
        <ele>2061.681</ele>
        <time>2019-05-31T13:36:44Z</time>
      </trkpt>
      <trkpt lat="42.429496" lon="1.617891">
        <ele>2060.847</ele>
        <time>2019-05-31T13:36:46Z</time>
      </trkpt>
      <trkpt lat="42.429435" lon="1.617880">
        <ele>2060.435</ele>
        <time>2019-05-31T13:36:47Z</time>
      </trkpt>
      <trkpt lat="42.429375" lon="1.617876">
        <ele>2059.429</ele>
        <time>2019-05-31T13:36:48Z</time>
      </trkpt>
      <trkpt lat="42.429315" lon="1.617874">
        <ele>2059.044</ele>
        <time>2019-05-31T13:36:49Z</time>
      </trkpt>
      <trkpt lat="42.429257" lon="1.617875">
        <ele>2058.418</ele>
        <time>2019-05-31T13:36:50Z</time>
      </trkpt>
      <trkpt lat="42.428993" lon="1.617905">
        <ele>2057.634</ele>
        <time>2019-05-31T13:36:55Z</time>
      </trkpt>
      <trkpt lat="42.428949" lon="1.617916">
        <ele>2057.063</ele>
        <time>2019-05-31T13:36:56Z</time>
      </trkpt>
      <trkpt lat="42.428838" lon="1.617955">
        <ele>2055.844</ele>
        <time>2019-05-31T13:36:59Z</time>
      </trkpt>
      <trkpt lat="42.428752" lon="1.618054">
        <ele>2054.818</ele>
        <time>2019-05-31T13:37:02Z</time>
      </trkpt>
      <trkpt lat="42.428727" lon="1.618095">
        <ele>2054.408</ele>
        <time>2019-05-31T13:37:03Z</time>
      </trkpt>
      <trkpt lat="42.428707" lon="1.618146">
        <ele>2053.669</ele>
        <time>2019-05-31T13:37:04Z</time>
      </trkpt>
      <trkpt lat="42.428679" lon="1.618349">
        <ele>2052.443</ele>
        <time>2019-05-31T13:37:07Z</time>
      </trkpt>
      <trkpt lat="42.428685" lon="1.618408">
        <ele>2051.889</ele>
        <time>2019-05-31T13:37:08Z</time>
      </trkpt>
      <trkpt lat="42.428692" lon="1.618462">
        <ele>2051.487</ele>
        <time>2019-05-31T13:37:09Z</time>
      </trkpt>
      <trkpt lat="42.428694" lon="1.618517">
        <ele>2050.841</ele>
        <time>2019-05-31T13:37:10Z</time>
      </trkpt>
      <trkpt lat="42.428705" lon="1.618573">
        <ele>2050.666</ele>
        <time>2019-05-31T13:37:11Z</time>
      </trkpt>
      <trkpt lat="42.428720" lon="1.618622">
        <ele>2050.430</ele>
        <time>2019-05-31T13:37:12Z</time>
      </trkpt>
      <trkpt lat="42.428763" lon="1.618701">
        <ele>2049.246</ele>
        <time>2019-05-31T13:37:14Z</time>
      </trkpt>
      <trkpt lat="42.428791" lon="1.618746">
        <ele>2049.072</ele>
        <time>2019-05-31T13:37:15Z</time>
      </trkpt>
      <trkpt lat="42.428849" lon="1.618832">
        <ele>2048.213</ele>
        <time>2019-05-31T13:37:17Z</time>
      </trkpt>
      <trkpt lat="42.428875" lon="1.618884">
        <ele>2047.414</ele>
        <time>2019-05-31T13:37:18Z</time>
      </trkpt>
      <trkpt lat="42.428904" lon="1.618981">
        <ele>2047.008</ele>
        <time>2019-05-31T13:37:20Z</time>
      </trkpt>
      <trkpt lat="42.428913" lon="1.619035">
        <ele>2046.450</ele>
        <time>2019-05-31T13:37:21Z</time>
      </trkpt>
      <trkpt lat="42.428920" lon="1.619079">
        <ele>2045.824</ele>
        <time>2019-05-31T13:37:22Z</time>
      </trkpt>
      <trkpt lat="42.428927" lon="1.619135">
        <ele>2045.890</ele>
        <time>2019-05-31T13:37:23Z</time>
      </trkpt>
      <trkpt lat="42.428944" lon="1.619251">
        <ele>2045.048</ele>
        <time>2019-05-31T13:37:25Z</time>
      </trkpt>
      <trkpt lat="42.428959" lon="1.619316">
        <ele>2044.612</ele>
        <time>2019-05-31T13:37:26Z</time>
      </trkpt>
      <trkpt lat="42.428977" lon="1.619369">
        <ele>2044.647</ele>
        <time>2019-05-31T13:37:27Z</time>
      </trkpt>
      <trkpt lat="42.429062" lon="1.619487">
        <ele>2044.031</ele>
        <time>2019-05-31T13:37:30Z</time>
      </trkpt>
      <trkpt lat="42.429101" lon="1.619500">
        <ele>2043.227</ele>
        <time>2019-05-31T13:37:31Z</time>
      </trkpt>
      <trkpt lat="42.429167" lon="1.619539">
        <ele>2042.446</ele>
        <time>2019-05-31T13:37:33Z</time>
      </trkpt>
      <trkpt lat="42.429189" lon="1.619575">
        <ele>2042.688</ele>
        <time>2019-05-31T13:37:34Z</time>
      </trkpt>
      <trkpt lat="42.429190" lon="1.619695">
        <ele>2042.416</ele>
        <time>2019-05-31T13:37:37Z</time>
      </trkpt>
      <trkpt lat="42.429168" lon="1.619709">
        <ele>2042.208</ele>
        <time>2019-05-31T13:37:38Z</time>
      </trkpt>
      <trkpt lat="42.429124" lon="1.619707">
        <ele>2041.817</ele>
        <time>2019-05-31T13:37:40Z</time>
      </trkpt>
      <trkpt lat="42.429093" lon="1.619700">
        <ele>2041.251</ele>
        <time>2019-05-31T13:37:41Z</time>
      </trkpt>
      <trkpt lat="42.429060" lon="1.619701">
        <ele>2040.857</ele>
        <time>2019-05-31T13:37:42Z</time>
      </trkpt>
      <trkpt lat="42.428987" lon="1.619696">
        <ele>2039.645</ele>
        <time>2019-05-31T13:37:44Z</time>
      </trkpt>
      <trkpt lat="42.428946" lon="1.619699">
        <ele>2039.679</ele>
        <time>2019-05-31T13:37:45Z</time>
      </trkpt>
      <trkpt lat="42.428907" lon="1.619708">
        <ele>2039.094</ele>
        <time>2019-05-31T13:37:46Z</time>
      </trkpt>
      <trkpt lat="42.428787" lon="1.619737">
        <ele>2038.498</ele>
        <time>2019-05-31T13:37:49Z</time>
      </trkpt>
      <trkpt lat="42.428706" lon="1.619741">
        <ele>2038.054</ele>
        <time>2019-05-31T13:37:51Z</time>
      </trkpt>
      <trkpt lat="42.428583" lon="1.619716">
        <ele>2036.863</ele>
        <time>2019-05-31T13:37:54Z</time>
      </trkpt>
      <trkpt lat="42.428505" lon="1.619684">
        <ele>2036.444</ele>
        <time>2019-05-31T13:37:56Z</time>
      </trkpt>
      <trkpt lat="42.428466" lon="1.619657">
        <ele>2036.218</ele>
        <time>2019-05-31T13:37:57Z</time>
      </trkpt>
      <trkpt lat="42.428386" lon="1.619606">
        <ele>2035.608</ele>
        <time>2019-05-31T13:37:59Z</time>
      </trkpt>
      <trkpt lat="42.428309" lon="1.619550">
        <ele>2035.069</ele>
        <time>2019-05-31T13:38:01Z</time>
      </trkpt>
      <trkpt lat="42.428270" lon="1.619515">
        <ele>2034.613</ele>
        <time>2019-05-31T13:38:02Z</time>
      </trkpt>
      <trkpt lat="42.428231" lon="1.619475">
        <ele>2034.489</ele>
        <time>2019-05-31T13:38:03Z</time>
      </trkpt>
      <trkpt lat="42.428084" lon="1.619373">
        <ele>2033.487</ele>
        <time>2019-05-31T13:38:07Z</time>
      </trkpt>
      <trkpt lat="42.427919" lon="1.619309">
        <ele>2032.251</ele>
        <time>2019-05-31T13:38:11Z</time>
      </trkpt>
      <trkpt lat="42.427880" lon="1.619289">
        <ele>2031.636</ele>
        <time>2019-05-31T13:38:12Z</time>
      </trkpt>
      <trkpt lat="42.427804" lon="1.619262">
        <ele>2030.850</ele>
        <time>2019-05-31T13:38:14Z</time>
      </trkpt>
      <trkpt lat="42.427658" lon="1.619202">
        <ele>2029.416</ele>
        <time>2019-05-31T13:38:18Z</time>
      </trkpt>
      <trkpt lat="42.427556" lon="1.619167">
        <ele>2028.451</ele>
        <time>2019-05-31T13:38:21Z</time>
      </trkpt>
      <trkpt lat="42.427420" lon="1.619135">
        <ele>2027.401</ele>
        <time>2019-05-31T13:38:25Z</time>
      </trkpt>
      <trkpt lat="42.427384" lon="1.619123">
        <ele>2026.611</ele>
        <time>2019-05-31T13:38:26Z</time>
      </trkpt>
      <trkpt lat="42.427273" lon="1.619108">
        <ele>2025.608</ele>
        <time>2019-05-31T13:38:29Z</time>
      </trkpt>
      <trkpt lat="42.427205" lon="1.619109">
        <ele>2024.628</ele>
        <time>2019-05-31T13:38:31Z</time>
      </trkpt>
      <trkpt lat="42.427065" lon="1.619217">
        <ele>2023.032</ele>
        <time>2019-05-31T13:38:36Z</time>
      </trkpt>
      <trkpt lat="42.427012" lon="1.619283">
        <ele>2021.818</ele>
        <time>2019-05-31T13:38:38Z</time>
      </trkpt>
      <trkpt lat="42.426920" lon="1.619380">
        <ele>2021.416</ele>
        <time>2019-05-31T13:38:41Z</time>
      </trkpt>
      <trkpt lat="42.426857" lon="1.619432">
        <ele>2020.290</ele>
        <time>2019-05-31T13:38:43Z</time>
      </trkpt>
      <trkpt lat="42.426791" lon="1.619460">
        <ele>2019.255</ele>
        <time>2019-05-31T13:38:45Z</time>
      </trkpt>
      <trkpt lat="42.426758" lon="1.619465">
        <ele>2019.059</ele>
        <time>2019-05-31T13:38:46Z</time>
      </trkpt>
      <trkpt lat="42.426653" lon="1.619432">
        <ele>2017.875</ele>
        <time>2019-05-31T13:38:49Z</time>
      </trkpt>
      <trkpt lat="42.426617" lon="1.619408">
        <ele>2017.686</ele>
        <time>2019-05-31T13:38:50Z</time>
      </trkpt>
      <trkpt lat="42.426546" lon="1.619284">
        <ele>2017.260</ele>
        <time>2019-05-31T13:38:53Z</time>
      </trkpt>
      <trkpt lat="42.426529" lon="1.619230">
        <ele>2017.026</ele>
        <time>2019-05-31T13:38:54Z</time>
      </trkpt>
      <trkpt lat="42.426509" lon="1.619170">
        <ele>2016.408</ele>
        <time>2019-05-31T13:38:55Z</time>
      </trkpt>
      <trkpt lat="42.426484" lon="1.619115">
        <ele>2015.671</ele>
        <time>2019-05-31T13:38:56Z</time>
      </trkpt>
      <trkpt lat="42.426457" lon="1.619070">
        <ele>2014.445</ele>
        <time>2019-05-31T13:38:57Z</time>
      </trkpt>
      <trkpt lat="42.426395" lon="1.618974">
        <ele>2014.221</ele>
        <time>2019-05-31T13:38:59Z</time>
      </trkpt>
      <trkpt lat="42.426367" lon="1.618923">
        <ele>2014.279</ele>
        <time>2019-05-31T13:39:00Z</time>
      </trkpt>
      <trkpt lat="42.426228" lon="1.618630">
        <ele>2011.663</ele>
        <time>2019-05-31T13:39:05Z</time>
      </trkpt>
      <trkpt lat="42.426204" lon="1.618568">
        <ele>2011.688</ele>
        <time>2019-05-31T13:39:06Z</time>
      </trkpt>
      <trkpt lat="42.426187" lon="1.618504">
        <ele>2011.452</ele>
        <time>2019-05-31T13:39:07Z</time>
      </trkpt>
      <trkpt lat="42.426115" lon="1.618314">
        <ele>2010.498</ele>
        <time>2019-05-31T13:39:10Z</time>
      </trkpt>
      <trkpt lat="42.426076" lon="1.618264">
        <ele>2010.676</ele>
        <time>2019-05-31T13:39:11Z</time>
      </trkpt>
      <trkpt lat="42.425897" lon="1.618112">
        <ele>2009.290</ele>
        <time>2019-05-31T13:39:15Z</time>
      </trkpt>
      <trkpt lat="42.425843" lon="1.618094">
        <ele>2008.819</ele>
        <time>2019-05-31T13:39:16Z</time>
      </trkpt>
      <trkpt lat="42.425729" lon="1.618087">
        <ele>2008.008</ele>
        <time>2019-05-31T13:39:18Z</time>
      </trkpt>
      <trkpt lat="42.425674" lon="1.618089">
        <ele>2007.680</ele>
        <time>2019-05-31T13:39:19Z</time>
      </trkpt>
      <trkpt lat="42.425622" lon="1.618097">
        <ele>2007.264</ele>
        <time>2019-05-31T13:39:20Z</time>
      </trkpt>
      <trkpt lat="42.425573" lon="1.618105">
        <ele>2007.060</ele>
        <time>2019-05-31T13:39:21Z</time>
      </trkpt>
      <trkpt lat="42.425472" lon="1.618128">
        <ele>2005.828</ele>
        <time>2019-05-31T13:39:23Z</time>
      </trkpt>
      <trkpt lat="42.425423" lon="1.618145">
        <ele>2005.272</ele>
        <time>2019-05-31T13:39:24Z</time>
      </trkpt>
      <trkpt lat="42.425373" lon="1.618163">
        <ele>2004.617</ele>
        <time>2019-05-31T13:39:25Z</time>
      </trkpt>
      <trkpt lat="42.425324" lon="1.618185">
        <ele>2004.241</ele>
        <time>2019-05-31T13:39:26Z</time>
      </trkpt>
      <trkpt lat="42.425269" lon="1.618199">
        <ele>2004.467</ele>
        <time>2019-05-31T13:39:27Z</time>
      </trkpt>
      <trkpt lat="42.425152" lon="1.618204">
        <ele>2003.227</ele>
        <time>2019-05-31T13:39:29Z</time>
      </trkpt>
      <trkpt lat="42.425034" lon="1.618199">
        <ele>2002.068</ele>
        <time>2019-05-31T13:39:31Z</time>
      </trkpt>
      <trkpt lat="42.424966" lon="1.618177">
        <ele>2001.214</ele>
        <time>2019-05-31T13:39:32Z</time>
      </trkpt>
      <trkpt lat="42.424899" lon="1.618150">
        <ele>2000.608</ele>
        <time>2019-05-31T13:39:33Z</time>
      </trkpt>
      <trkpt lat="42.424769" lon="1.618068">
        <ele>2000.675</ele>
        <time>2019-05-31T13:39:35Z</time>
      </trkpt>
      <trkpt lat="42.424709" lon="1.618030">
        <ele>2000.259</ele>
        <time>2019-05-31T13:39:36Z</time>
      </trkpt>
      <trkpt lat="42.424588" lon="1.617936">
        <ele>1998.885</ele>
        <time>2019-05-31T13:39:38Z</time>
      </trkpt>
      <trkpt lat="42.424478" lon="1.617871">
        <ele>1998.413</ele>
        <time>2019-05-31T13:39:40Z</time>
      </trkpt>
      <trkpt lat="42.424425" lon="1.617858">
        <ele>1998.657</ele>
        <time>2019-05-31T13:39:41Z</time>
      </trkpt>
      <trkpt lat="42.424280" lon="1.617884">
        <ele>1997.422</ele>
        <time>2019-05-31T13:39:44Z</time>
      </trkpt>
      <trkpt lat="42.424235" lon="1.617912">
        <ele>1997.096</ele>
        <time>2019-05-31T13:39:45Z</time>
      </trkpt>
      <trkpt lat="42.424148" lon="1.617976">
        <ele>1996.812</ele>
        <time>2019-05-31T13:39:47Z</time>
      </trkpt>
      <trkpt lat="42.424059" lon="1.618026">
        <ele>1996.056</ele>
        <time>2019-05-31T13:39:49Z</time>
      </trkpt>
      <trkpt lat="42.424025" lon="1.618060">
        <ele>1995.659</ele>
        <time>2019-05-31T13:39:50Z</time>
      </trkpt>
      <trkpt lat="42.423986" lon="1.618080">
        <ele>1994.814</ele>
        <time>2019-05-31T13:39:51Z</time>
      </trkpt>
      <trkpt lat="42.423921" lon="1.618131">
        <ele>1993.808</ele>
        <time>2019-05-31T13:39:53Z</time>
      </trkpt>
      <trkpt lat="42.423838" lon="1.618218">
        <ele>1992.668</ele>
        <time>2019-05-31T13:39:56Z</time>
      </trkpt>
      <trkpt lat="42.423819" lon="1.618259">
        <ele>1992.662</ele>
        <time>2019-05-31T13:39:57Z</time>
      </trkpt>
      <trkpt lat="42.423804" lon="1.618414">
        <ele>1991.458</ele>
        <time>2019-05-31T13:40:00Z</time>
      </trkpt>
      <trkpt lat="42.423808" lon="1.618469">
        <ele>1990.466</ele>
        <time>2019-05-31T13:40:01Z</time>
      </trkpt>
      <trkpt lat="42.423862" lon="1.618691">
        <ele>1989.020</ele>
        <time>2019-05-31T13:40:05Z</time>
      </trkpt>
      <trkpt lat="42.423882" lon="1.618739">
        <ele>1988.295</ele>
        <time>2019-05-31T13:40:06Z</time>
      </trkpt>
      <trkpt lat="42.423900" lon="1.618785">
        <ele>1987.879</ele>
        <time>2019-05-31T13:40:07Z</time>
      </trkpt>
      <trkpt lat="42.423982" lon="1.618953">
        <ele>1986.695</ele>
        <time>2019-05-31T13:40:11Z</time>
      </trkpt>
      <trkpt lat="42.424002" lon="1.619005">
        <ele>1986.012</ele>
        <time>2019-05-31T13:40:12Z</time>
      </trkpt>
      <trkpt lat="42.424018" lon="1.619054">
        <ele>1985.232</ele>
        <time>2019-05-31T13:40:13Z</time>
      </trkpt>
      <trkpt lat="42.424040" lon="1.619145">
        <ele>1984.005</ele>
        <time>2019-05-31T13:40:15Z</time>
      </trkpt>
      <trkpt lat="42.424029" lon="1.619238">
        <ele>1983.208</ele>
        <time>2019-05-31T13:40:17Z</time>
      </trkpt>
      <trkpt lat="42.423989" lon="1.619323">
        <ele>1982.894</ele>
        <time>2019-05-31T13:40:19Z</time>
      </trkpt>
      <trkpt lat="42.423941" lon="1.619382">
        <ele>1981.888</ele>
        <time>2019-05-31T13:40:21Z</time>
      </trkpt>
      <trkpt lat="42.423889" lon="1.619431">
        <ele>1980.624</ele>
        <time>2019-05-31T13:40:23Z</time>
      </trkpt>
      <trkpt lat="42.423857" lon="1.619455">
        <ele>1980.432</ele>
        <time>2019-05-31T13:40:24Z</time>
      </trkpt>
      <trkpt lat="42.423746" lon="1.619566">
        <ele>1980.036</ele>
        <time>2019-05-31T13:40:28Z</time>
      </trkpt>
      <trkpt lat="42.423682" lon="1.619674">
        <ele>1979.411</ele>
        <time>2019-05-31T13:40:31Z</time>
      </trkpt>
      <trkpt lat="42.423640" lon="1.619782">
        <ele>1978.215</ele>
        <time>2019-05-31T13:40:34Z</time>
      </trkpt>
      <trkpt lat="42.423596" lon="1.619878">
        <ele>1977.641</ele>
        <time>2019-05-31T13:40:39Z</time>
      </trkpt>
      <trkpt lat="42.423576" lon="1.619950">
        <ele>1977.245</ele>
        <time>2019-05-31T13:40:42Z</time>
      </trkpt>
      <trkpt lat="42.423560" lon="1.619972">
        <ele>1977.047</ele>
        <time>2019-05-31T13:40:43Z</time>
      </trkpt>
      <trkpt lat="42.423534" lon="1.620024">
        <ele>1976.611</ele>
        <time>2019-05-31T13:40:45Z</time>
      </trkpt>
      <trkpt lat="42.423559" lon="1.620116">
        <ele>1975.608</ele>
        <time>2019-05-31T13:41:46Z</time>
      </trkpt>
      <trkpt lat="42.423569" lon="1.620194">
        <ele>1974.427</ele>
        <time>2019-05-31T13:41:48Z</time>
      </trkpt>
      <trkpt lat="42.423585" lon="1.620264">
        <ele>1974.041</ele>
        <time>2019-05-31T13:41:50Z</time>
      </trkpt>
      <trkpt lat="42.423609" lon="1.620409">
        <ele>1973.087</ele>
        <time>2019-05-31T13:41:54Z</time>
      </trkpt>
      <trkpt lat="42.423626" lon="1.620493">
        <ele>1972.635</ele>
        <time>2019-05-31T13:41:56Z</time>
      </trkpt>
      <trkpt lat="42.423640" lon="1.620538">
        <ele>1972.049</ele>
        <time>2019-05-31T13:41:57Z</time>
      </trkpt>
      <trkpt lat="42.423665" lon="1.620648">
        <ele>1970.894</ele>
        <time>2019-05-31T13:41:59Z</time>
      </trkpt>
      <trkpt lat="42.423682" lon="1.620761">
        <ele>1969.228</ele>
        <time>2019-05-31T13:42:01Z</time>
      </trkpt>
      <trkpt lat="42.423694" lon="1.620949">
        <ele>1967.694</ele>
        <time>2019-05-31T13:42:04Z</time>
      </trkpt>
      <trkpt lat="42.423706" lon="1.621084">
        <ele>1966.848</ele>
        <time>2019-05-31T13:42:06Z</time>
      </trkpt>
      <trkpt lat="42.423707" lon="1.621155">
        <ele>1966.461</ele>
        <time>2019-05-31T13:42:07Z</time>
      </trkpt>
      <trkpt lat="42.423704" lon="1.621293">
        <ele>1965.417</ele>
        <time>2019-05-31T13:42:09Z</time>
      </trkpt>
      <trkpt lat="42.423700" lon="1.621418">
        <ele>1962.208</ele>
        <time>2019-05-31T13:42:11Z</time>
      </trkpt>
      <trkpt lat="42.423698" lon="1.621539">
        <ele>1962.247</ele>
        <time>2019-05-31T13:42:13Z</time>
      </trkpt>
      <trkpt lat="42.423694" lon="1.621795">
        <ele>1960.811</ele>
        <time>2019-05-31T13:42:17Z</time>
      </trkpt>
      <trkpt lat="42.423692" lon="1.621919">
        <ele>1959.457</ele>
        <time>2019-05-31T13:42:19Z</time>
      </trkpt>
      <trkpt lat="42.423695" lon="1.622045">
        <ele>1958.825</ele>
        <time>2019-05-31T13:42:21Z</time>
      </trkpt>
      <trkpt lat="42.423703" lon="1.622110">
        <ele>1958.879</ele>
        <time>2019-05-31T13:42:22Z</time>
      </trkpt>
      <trkpt lat="42.423718" lon="1.622172">
        <ele>1957.864</ele>
        <time>2019-05-31T13:42:23Z</time>
      </trkpt>
      <trkpt lat="42.423741" lon="1.622299">
        <ele>1956.488</ele>
        <time>2019-05-31T13:42:25Z</time>
      </trkpt>
      <trkpt lat="42.423743" lon="1.622370">
        <ele>1956.414</ele>
        <time>2019-05-31T13:42:26Z</time>
      </trkpt>
      <trkpt lat="42.423742" lon="1.622506">
        <ele>1955.025</ele>
        <time>2019-05-31T13:42:28Z</time>
      </trkpt>
      <trkpt lat="42.423736" lon="1.622570">
        <ele>1954.226</ele>
        <time>2019-05-31T13:42:29Z</time>
      </trkpt>
      <trkpt lat="42.423733" lon="1.622635">
        <ele>1953.608</ele>
        <time>2019-05-31T13:42:30Z</time>
      </trkpt>
      <trkpt lat="42.423731" lon="1.622763">
        <ele>1953.008</ele>
        <time>2019-05-31T13:42:32Z</time>
      </trkpt>
      <trkpt lat="42.423728" lon="1.622826">
        <ele>1952.695</ele>
        <time>2019-05-31T13:42:33Z</time>
      </trkpt>
      <trkpt lat="42.423719" lon="1.622956">
        <ele>1951.019</ele>
        <time>2019-05-31T13:42:35Z</time>
      </trkpt>
      <trkpt lat="42.423713" lon="1.623164">
        <ele>1950.055</ele>
        <time>2019-05-31T13:42:38Z</time>
      </trkpt>
      <trkpt lat="42.423716" lon="1.623329">
        <ele>1949.093</ele>
        <time>2019-05-31T13:42:40Z</time>
      </trkpt>
      <trkpt lat="42.423721" lon="1.623410">
        <ele>1949.067</ele>
        <time>2019-05-31T13:42:41Z</time>
      </trkpt>
      <trkpt lat="42.423748" lon="1.623623">
        <ele>1947.862</ele>
        <time>2019-05-31T13:42:44Z</time>
      </trkpt>
      <trkpt lat="42.423768" lon="1.623768">
        <ele>1947.846</ele>
        <time>2019-05-31T13:42:46Z</time>
      </trkpt>
      <trkpt lat="42.423802" lon="1.623986">
        <ele>1946.672</ele>
        <time>2019-05-31T13:42:49Z</time>
      </trkpt>
      <trkpt lat="42.423827" lon="1.624219">
        <ele>1947.069</ele>
        <time>2019-05-31T13:42:52Z</time>
      </trkpt>
      <trkpt lat="42.423826" lon="1.624302">
        <ele>1946.604</ele>
        <time>2019-05-31T13:42:53Z</time>
      </trkpt>
      <trkpt lat="42.423835" lon="1.624466">
        <ele>1945.224</ele>
        <time>2019-05-31T13:42:55Z</time>
      </trkpt>
      <trkpt lat="42.423845" lon="1.624630">
        <ele>1944.208</ele>
        <time>2019-05-31T13:42:57Z</time>
      </trkpt>
      <trkpt lat="42.423842" lon="1.624710">
        <ele>1944.039</ele>
        <time>2019-05-31T13:42:58Z</time>
      </trkpt>
      <trkpt lat="42.423855" lon="1.624879">
        <ele>1942.413</ele>
        <time>2019-05-31T13:43:00Z</time>
      </trkpt>
      <trkpt lat="42.423853" lon="1.624963">
        <ele>1941.439</ele>
        <time>2019-05-31T13:43:01Z</time>
      </trkpt>
      <trkpt lat="42.423864" lon="1.625048">
        <ele>1940.257</ele>
        <time>2019-05-31T13:43:02Z</time>
      </trkpt>
      <trkpt lat="42.423864" lon="1.625135">
        <ele>1939.491</ele>
        <time>2019-05-31T13:43:03Z</time>
      </trkpt>
      <trkpt lat="42.423870" lon="1.625231">
        <ele>1939.416</ele>
        <time>2019-05-31T13:43:04Z</time>
      </trkpt>
      <trkpt lat="42.423899" lon="1.625422">
        <ele>1938.650</ele>
        <time>2019-05-31T13:43:06Z</time>
      </trkpt>
      <trkpt lat="42.423934" lon="1.625614">
        <ele>1938.026</ele>
        <time>2019-05-31T13:43:08Z</time>
      </trkpt>
      <trkpt lat="42.424015" lon="1.626084">
        <ele>1938.243</ele>
        <time>2019-05-31T13:43:13Z</time>
      </trkpt>
      <trkpt lat="42.424104" lon="1.626467">
        <ele>1938.464</ele>
        <time>2019-05-31T13:43:18Z</time>
      </trkpt>
      <trkpt lat="42.424127" lon="1.626533">
        <ele>1938.810</ele>
        <time>2019-05-31T13:43:19Z</time>
      </trkpt>
      <trkpt lat="42.424173" lon="1.626645">
        <ele>1938.608</ele>
        <time>2019-05-31T13:43:21Z</time>
      </trkpt>
      <trkpt lat="42.424215" lon="1.626731">
        <ele>1938.867</ele>
        <time>2019-05-31T13:43:23Z</time>
      </trkpt>
      <trkpt lat="42.424269" lon="1.626804">
        <ele>1938.261</ele>
        <time>2019-05-31T13:43:25Z</time>
      </trkpt>
      <trkpt lat="42.424327" lon="1.626865">
        <ele>1937.467</ele>
        <time>2019-05-31T13:43:27Z</time>
      </trkpt>
      <trkpt lat="42.424370" lon="1.626888">
        <ele>1936.885</ele>
        <time>2019-05-31T13:43:28Z</time>
      </trkpt>
      <trkpt lat="42.424461" lon="1.626921">
        <ele>1936.219</ele>
        <time>2019-05-31T13:43:30Z</time>
      </trkpt>
      <trkpt lat="42.424560" lon="1.626956">
        <ele>1935.094</ele>
        <time>2019-05-31T13:43:32Z</time>
      </trkpt>
      <trkpt lat="42.424713" lon="1.626981">
        <ele>1933.848</ele>
        <time>2019-05-31T13:43:35Z</time>
      </trkpt>
      <trkpt lat="42.424858" lon="1.626993">
        <ele>1932.684</ele>
        <time>2019-05-31T13:43:38Z</time>
      </trkpt>
      <trkpt lat="42.424907" lon="1.626994">
        <ele>1932.476</ele>
        <time>2019-05-31T13:43:39Z</time>
      </trkpt>
      <trkpt lat="42.425004" lon="1.627003">
        <ele>1931.490</ele>
        <time>2019-05-31T13:43:41Z</time>
      </trkpt>
      <trkpt lat="42.425105" lon="1.627020">
        <ele>1930.219</ele>
        <time>2019-05-31T13:43:43Z</time>
      </trkpt>
      <trkpt lat="42.425192" lon="1.627064">
        <ele>1929.808</ele>
        <time>2019-05-31T13:43:45Z</time>
      </trkpt>
      <trkpt lat="42.425301" lon="1.627105">
        <ele>1928.680</ele>
        <time>2019-05-31T13:43:47Z</time>
      </trkpt>
      <trkpt lat="42.425393" lon="1.627193">
        <ele>1927.844</ele>
        <time>2019-05-31T13:43:49Z</time>
      </trkpt>
      <trkpt lat="42.425418" lon="1.627248">
        <ele>1927.410</ele>
        <time>2019-05-31T13:43:50Z</time>
      </trkpt>
      <trkpt lat="42.425431" lon="1.627368">
        <ele>1926.678</ele>
        <time>2019-05-31T13:43:52Z</time>
      </trkpt>
      <trkpt lat="42.425393" lon="1.627512">
        <ele>1926.822</ele>
        <time>2019-05-31T13:43:55Z</time>
      </trkpt>
      <trkpt lat="42.425335" lon="1.627598">
        <ele>1926.087</ele>
        <time>2019-05-31T13:43:57Z</time>
      </trkpt>
      <trkpt lat="42.425237" lon="1.627728">
        <ele>1924.291</ele>
        <time>2019-05-31T13:44:00Z</time>
      </trkpt>
      <trkpt lat="42.425173" lon="1.627820">
        <ele>1923.017</ele>
        <time>2019-05-31T13:44:02Z</time>
      </trkpt>
      <trkpt lat="42.425077" lon="1.627953">
        <ele>1921.438</ele>
        <time>2019-05-31T13:44:05Z</time>
      </trkpt>
      <trkpt lat="42.425043" lon="1.627997">
        <ele>1921.070</ele>
        <time>2019-05-31T13:44:06Z</time>
      </trkpt>
      <trkpt lat="42.425008" lon="1.628042">
        <ele>1920.017</ele>
        <time>2019-05-31T13:44:07Z</time>
      </trkpt>
      <trkpt lat="42.424975" lon="1.628094">
        <ele>1919.608</ele>
        <time>2019-05-31T13:44:08Z</time>
      </trkpt>
      <trkpt lat="42.424911" lon="1.628203">
        <ele>1918.466</ele>
        <time>2019-05-31T13:44:10Z</time>
      </trkpt>
      <trkpt lat="42.424855" lon="1.628312">
        <ele>1917.240</ele>
        <time>2019-05-31T13:44:12Z</time>
      </trkpt>
      <trkpt lat="42.424829" lon="1.628370">
        <ele>1916.856</ele>
        <time>2019-05-31T13:44:13Z</time>
      </trkpt>
      <trkpt lat="42.424793" lon="1.628426">
        <ele>1916.894</ele>
        <time>2019-05-31T13:44:14Z</time>
      </trkpt>
      <trkpt lat="42.424740" lon="1.628564">
        <ele>1915.848</ele>
        <time>2019-05-31T13:44:16Z</time>
      </trkpt>
      <trkpt lat="42.424711" lon="1.628634">
        <ele>1914.823</ele>
        <time>2019-05-31T13:44:17Z</time>
      </trkpt>
      <trkpt lat="42.424629" lon="1.628876">
        <ele>1914.447</ele>
        <time>2019-05-31T13:44:20Z</time>
      </trkpt>
      <trkpt lat="42.424590" lon="1.629058">
        <ele>1913.833</ele>
        <time>2019-05-31T13:44:22Z</time>
      </trkpt>
      <trkpt lat="42.424560" lon="1.629244">
        <ele>1912.667</ele>
        <time>2019-05-31T13:44:24Z</time>
      </trkpt>
      <trkpt lat="42.424555" lon="1.629339">
        <ele>1912.081</ele>
        <time>2019-05-31T13:44:25Z</time>
      </trkpt>
      <trkpt lat="42.424548" lon="1.629435">
        <ele>1911.619</ele>
        <time>2019-05-31T13:44:26Z</time>
      </trkpt>
      <trkpt lat="42.424557" lon="1.629530">
        <ele>1911.208</ele>
        <time>2019-05-31T13:44:27Z</time>
      </trkpt>
      <trkpt lat="42.424559" lon="1.629624">
        <ele>1911.269</ele>
        <time>2019-05-31T13:44:28Z</time>
      </trkpt>
      <trkpt lat="42.424576" lon="1.629797">
        <ele>1910.453</ele>
        <time>2019-05-31T13:44:30Z</time>
      </trkpt>
      <trkpt lat="42.424609" lon="1.630157">
        <ele>1910.249</ele>
        <time>2019-05-31T13:44:34Z</time>
      </trkpt>
      <trkpt lat="42.424633" lon="1.630431">
        <ele>1910.257</ele>
        <time>2019-05-31T13:44:37Z</time>
      </trkpt>
      <trkpt lat="42.424588" lon="1.630601">
        <ele>1910.061</ele>
        <time>2019-05-31T13:44:39Z</time>
      </trkpt>
      <trkpt lat="42.424507" lon="1.630743">
        <ele>1909.226</ele>
        <time>2019-05-31T13:44:41Z</time>
      </trkpt>
      <trkpt lat="42.424451" lon="1.630878">
        <ele>1909.040</ele>
        <time>2019-05-31T13:44:43Z</time>
      </trkpt>
      <trkpt lat="42.424441" lon="1.630957">
        <ele>1909.026</ele>
        <time>2019-05-31T13:44:44Z</time>
      </trkpt>
      <trkpt lat="42.424445" lon="1.631114">
        <ele>1908.027</ele>
        <time>2019-05-31T13:44:46Z</time>
      </trkpt>
      <trkpt lat="42.424470" lon="1.631264">
        <ele>1906.668</ele>
        <time>2019-05-31T13:44:48Z</time>
      </trkpt>
      <trkpt lat="42.424476" lon="1.631417">
        <ele>1905.614</ele>
        <time>2019-05-31T13:44:50Z</time>
      </trkpt>
      <trkpt lat="42.424459" lon="1.631504">
        <ele>1904.608</ele>
        <time>2019-05-31T13:44:51Z</time>
      </trkpt>
      <trkpt lat="42.424384" lon="1.631682">
        <ele>1902.845</ele>
        <time>2019-05-31T13:44:53Z</time>
      </trkpt>
      <trkpt lat="42.424275" lon="1.631850">
        <ele>1901.089</ele>
        <time>2019-05-31T13:44:55Z</time>
      </trkpt>
      <trkpt lat="42.424221" lon="1.631936">
        <ele>1900.255</ele>
        <time>2019-05-31T13:44:56Z</time>
      </trkpt>
      <trkpt lat="42.424167" lon="1.632023">
        <ele>1899.883</ele>
        <time>2019-05-31T13:44:57Z</time>
      </trkpt>
      <trkpt lat="42.423921" lon="1.632521">
        <ele>1898.427</ele>
        <time>2019-05-31T13:45:02Z</time>
      </trkpt>
      <trkpt lat="42.423869" lon="1.632627">
        <ele>1897.432</ele>
        <time>2019-05-31T13:45:03Z</time>
      </trkpt>
      <trkpt lat="42.423768" lon="1.632841">
        <ele>1895.656</ele>
        <time>2019-05-31T13:45:05Z</time>
      </trkpt>
      <trkpt lat="42.423565" lon="1.633306">
        <ele>1894.222</ele>
        <time>2019-05-31T13:45:09Z</time>
      </trkpt>
      <trkpt lat="42.423489" lon="1.633569">
        <ele>1892.898</ele>
        <time>2019-05-31T13:45:11Z</time>
      </trkpt>
      <trkpt lat="42.423433" lon="1.633783">
        <ele>1891.815</ele>
        <time>2019-05-31T13:45:13Z</time>
      </trkpt>
      <trkpt lat="42.423278" lon="1.634294">
        <ele>1891.426</ele>
        <time>2019-05-31T13:45:18Z</time>
      </trkpt>
      <trkpt lat="42.423233" lon="1.634384">
        <ele>1890.408</ele>
        <time>2019-05-31T13:45:19Z</time>
      </trkpt>
      <trkpt lat="42.423092" lon="1.634601">
        <ele>1890.042</ele>
        <time>2019-05-31T13:45:22Z</time>
      </trkpt>
      <trkpt lat="42.423054" lon="1.634668">
        <ele>1888.836</ele>
        <time>2019-05-31T13:45:23Z</time>
      </trkpt>
      <trkpt lat="42.422924" lon="1.634888">
        <ele>1887.492</ele>
        <time>2019-05-31T13:45:27Z</time>
      </trkpt>
      <trkpt lat="42.422861" lon="1.634991">
        <ele>1885.890</ele>
        <time>2019-05-31T13:45:29Z</time>
      </trkpt>
      <trkpt lat="42.422815" lon="1.635037">
        <ele>1884.844</ele>
        <time>2019-05-31T13:45:30Z</time>
      </trkpt>
      <trkpt lat="42.422718" lon="1.635129">
        <ele>1883.279</ele>
        <time>2019-05-31T13:45:32Z</time>
      </trkpt>
      <trkpt lat="42.422640" lon="1.635227">
        <ele>1883.043</ele>
        <time>2019-05-31T13:45:34Z</time>
      </trkpt>
      <trkpt lat="42.422580" lon="1.635335">
        <ele>1881.899</ele>
        <time>2019-05-31T13:45:36Z</time>
      </trkpt>
      <trkpt lat="42.422551" lon="1.635390">
        <ele>1880.813</ele>
        <time>2019-05-31T13:45:37Z</time>
      </trkpt>
      <trkpt lat="42.422533" lon="1.635437">
        <ele>1879.843</ele>
        <time>2019-05-31T13:45:38Z</time>
      </trkpt>
      <trkpt lat="42.422516" lon="1.635477">
        <ele>1879.607</ele>
        <time>2019-05-31T13:45:39Z</time>
      </trkpt>
      <trkpt lat="42.422494" lon="1.635538">
        <ele>1879.608</ele>
        <time>2019-05-31T13:45:41Z</time>
      </trkpt>
      <trkpt lat="42.422460" lon="1.635744">
        <ele>1878.614</ele>
        <time>2019-05-31T13:45:45Z</time>
      </trkpt>
      <trkpt lat="42.422441" lon="1.635806">
        <ele>1878.088</ele>
        <time>2019-05-31T13:45:46Z</time>
      </trkpt>
      <trkpt lat="42.422417" lon="1.635871">
        <ele>1876.844</ele>
        <time>2019-05-31T13:45:47Z</time>
      </trkpt>
      <trkpt lat="42.422373" lon="1.636026">
        <ele>1875.292</ele>
        <time>2019-05-31T13:45:49Z</time>
      </trkpt>
      <trkpt lat="42.422358" lon="1.636113">
        <ele>1874.466</ele>
        <time>2019-05-31T13:45:50Z</time>
      </trkpt>
      <trkpt lat="42.422344" lon="1.636204">
        <ele>1873.641</ele>
        <time>2019-05-31T13:45:51Z</time>
      </trkpt>
      <trkpt lat="42.422339" lon="1.636307">
        <ele>1872.655</ele>
        <time>2019-05-31T13:45:52Z</time>
      </trkpt>
      <trkpt lat="42.422346" lon="1.636419">
        <ele>1871.681</ele>
        <time>2019-05-31T13:45:53Z</time>
      </trkpt>
      <trkpt lat="42.422363" lon="1.636521">
        <ele>1870.611</ele>
        <time>2019-05-31T13:45:54Z</time>
      </trkpt>
      <trkpt lat="42.422380" lon="1.636631">
        <ele>1869.421</ele>
        <time>2019-05-31T13:45:55Z</time>
      </trkpt>
      <trkpt lat="42.422431" lon="1.636863">
        <ele>1868.203</ele>
        <time>2019-05-31T13:45:57Z</time>
      </trkpt>
      <trkpt lat="42.422494" lon="1.637115">
        <ele>1866.608</ele>
        <time>2019-05-31T13:45:59Z</time>
      </trkpt>
      <trkpt lat="42.422530" lon="1.637246">
        <ele>1865.664</ele>
        <time>2019-05-31T13:46:00Z</time>
      </trkpt>
      <trkpt lat="42.422567" lon="1.637381">
        <ele>1864.648</ele>
        <time>2019-05-31T13:46:01Z</time>
      </trkpt>
      <trkpt lat="42.422599" lon="1.637506">
        <ele>1863.494</ele>
        <time>2019-05-31T13:46:02Z</time>
      </trkpt>
      <trkpt lat="42.422630" lon="1.637630">
        <ele>1862.432</ele>
        <time>2019-05-31T13:46:03Z</time>
      </trkpt>
      <trkpt lat="42.422666" lon="1.637754">
        <ele>1861.476</ele>
        <time>2019-05-31T13:46:04Z</time>
      </trkpt>
      <trkpt lat="42.422707" lon="1.637875">
        <ele>1860.651</ele>
        <time>2019-05-31T13:46:05Z</time>
      </trkpt>
      <trkpt lat="42.422787" lon="1.638100">
        <ele>1859.225</ele>
        <time>2019-05-31T13:46:07Z</time>
      </trkpt>
      <trkpt lat="42.422837" lon="1.638195">
        <ele>1858.661</ele>
        <time>2019-05-31T13:46:08Z</time>
      </trkpt>
      <trkpt lat="42.422875" lon="1.638311">
        <ele>1858.066</ele>
        <time>2019-05-31T13:46:09Z</time>
      </trkpt>
      <trkpt lat="42.422918" lon="1.638538">
        <ele>1856.029</ele>
        <time>2019-05-31T13:46:11Z</time>
      </trkpt>
      <trkpt lat="42.422935" lon="1.638632">
        <ele>1854.221</ele>
        <time>2019-05-31T13:46:12Z</time>
      </trkpt>
      <trkpt lat="42.422929" lon="1.638814">
        <ele>1853.008</ele>
        <time>2019-05-31T13:46:14Z</time>
      </trkpt>
      <trkpt lat="42.422896" lon="1.638922">
        <ele>1852.699</ele>
        <time>2019-05-31T13:46:15Z</time>
      </trkpt>
      <trkpt lat="42.422689" lon="1.639208">
        <ele>1851.823</ele>
        <time>2019-05-31T13:46:17Z</time>
      </trkpt>
      <trkpt lat="42.422295" lon="1.639822">
        <ele>1851.299</ele>
        <time>2019-05-31T13:46:22Z</time>
      </trkpt>
      <trkpt lat="42.422225" lon="1.639887">
        <ele>1850.857</ele>
        <time>2019-05-31T13:46:23Z</time>
      </trkpt>
      <trkpt lat="42.422081" lon="1.639905">
        <ele>1851.661</ele>
        <time>2019-05-31T13:46:25Z</time>
      </trkpt>
      <trkpt lat="42.421961" lon="1.639885">
        <ele>1852.836</ele>
        <time>2019-05-31T13:46:27Z</time>
      </trkpt>
      <trkpt lat="42.421907" lon="1.639901">
        <ele>1853.290</ele>
        <time>2019-05-31T13:46:28Z</time>
      </trkpt>
      <trkpt lat="42.421760" lon="1.640036">
        <ele>1853.446</ele>
        <time>2019-05-31T13:46:31Z</time>
      </trkpt>
      <trkpt lat="42.421711" lon="1.640089">
        <ele>1853.042</ele>
        <time>2019-05-31T13:46:32Z</time>
      </trkpt>
      <trkpt lat="42.421617" lon="1.640209">
        <ele>1852.222</ele>
        <time>2019-05-31T13:46:34Z</time>
      </trkpt>
      <trkpt lat="42.421566" lon="1.640373">
        <ele>1851.014</ele>
        <time>2019-05-31T13:46:36Z</time>
      </trkpt>
      <trkpt lat="42.421547" lon="1.640540">
        <ele>1849.408</ele>
        <time>2019-05-31T13:46:38Z</time>
      </trkpt>
      <trkpt lat="42.421538" lon="1.640675">
        <ele>1849.047</ele>
        <time>2019-05-31T13:46:40Z</time>
      </trkpt>
      <trkpt lat="42.421515" lon="1.640794">
        <ele>1848.411</ele>
        <time>2019-05-31T13:46:42Z</time>
      </trkpt>
      <trkpt lat="42.421500" lon="1.640958">
        <ele>1847.267</ele>
        <time>2019-05-31T13:46:44Z</time>
      </trkpt>
      <trkpt lat="42.421530" lon="1.641143">
        <ele>1845.635</ele>
        <time>2019-05-31T13:46:46Z</time>
      </trkpt>
      <trkpt lat="42.421556" lon="1.641240">
        <ele>1844.669</ele>
        <time>2019-05-31T13:46:47Z</time>
      </trkpt>
      <trkpt lat="42.421582" lon="1.641343">
        <ele>1843.644</ele>
        <time>2019-05-31T13:46:48Z</time>
      </trkpt>
      <trkpt lat="42.421650" lon="1.641558">
        <ele>1841.898</ele>
        <time>2019-05-31T13:46:50Z</time>
      </trkpt>
      <trkpt lat="42.421731" lon="1.641779">
        <ele>1840.274</ele>
        <time>2019-05-31T13:46:52Z</time>
      </trkpt>
      <trkpt lat="42.421815" lon="1.642009">
        <ele>1839.082</ele>
        <time>2019-05-31T13:46:54Z</time>
      </trkpt>
      <trkpt lat="42.421839" lon="1.642136">
        <ele>1838.443</ele>
        <time>2019-05-31T13:46:55Z</time>
      </trkpt>
      <trkpt lat="42.421853" lon="1.642267">
        <ele>1838.017</ele>
        <time>2019-05-31T13:46:56Z</time>
      </trkpt>
      <trkpt lat="42.421857" lon="1.642401">
        <ele>1837.408</ele>
        <time>2019-05-31T13:46:57Z</time>
      </trkpt>
      <trkpt lat="42.421857" lon="1.642668">
        <ele>1836.481</ele>
        <time>2019-05-31T13:46:59Z</time>
      </trkpt>
      <trkpt lat="42.421853" lon="1.642800">
        <ele>1835.865</ele>
        <time>2019-05-31T13:47:00Z</time>
      </trkpt>
      <trkpt lat="42.421847" lon="1.642934">
        <ele>1835.431</ele>
        <time>2019-05-31T13:47:01Z</time>
      </trkpt>
      <trkpt lat="42.421806" lon="1.643350">
        <ele>1834.099</ele>
        <time>2019-05-31T13:47:04Z</time>
      </trkpt>
      <trkpt lat="42.421780" lon="1.643636">
        <ele>1831.863</ele>
        <time>2019-05-31T13:47:06Z</time>
      </trkpt>
      <trkpt lat="42.421776" lon="1.643785">
        <ele>1830.658</ele>
        <time>2019-05-31T13:47:07Z</time>
      </trkpt>
      <trkpt lat="42.421776" lon="1.644093">
        <ele>1829.482</ele>
        <time>2019-05-31T13:47:09Z</time>
      </trkpt>
      <trkpt lat="42.421764" lon="1.644416">
        <ele>1828.028</ele>
        <time>2019-05-31T13:47:11Z</time>
      </trkpt>
      <trkpt lat="42.421724" lon="1.644746">
        <ele>1826.022</ele>
        <time>2019-05-31T13:47:13Z</time>
      </trkpt>
      <trkpt lat="42.421696" lon="1.644908">
        <ele>1824.262</ele>
        <time>2019-05-31T13:47:14Z</time>
      </trkpt>
      <trkpt lat="42.421666" lon="1.645070">
        <ele>1822.608</ele>
        <time>2019-05-31T13:47:15Z</time>
      </trkpt>
      <trkpt lat="42.421614" lon="1.645396">
        <ele>1821.208</ele>
        <time>2019-05-31T13:47:17Z</time>
      </trkpt>
      <trkpt lat="42.421567" lon="1.645728">
        <ele>1819.475</ele>
        <time>2019-05-31T13:47:19Z</time>
      </trkpt>
      <trkpt lat="42.421549" lon="1.645893">
        <ele>1818.229</ele>
        <time>2019-05-31T13:47:20Z</time>
      </trkpt>
      <trkpt lat="42.421518" lon="1.646226">
        <ele>1816.685</ele>
        <time>2019-05-31T13:47:22Z</time>
      </trkpt>
      <trkpt lat="42.421484" lon="1.646566">
        <ele>1814.023</ele>
        <time>2019-05-31T13:47:24Z</time>
      </trkpt>
      <trkpt lat="42.421470" lon="1.646737">
        <ele>1812.867</ele>
        <time>2019-05-31T13:47:25Z</time>
      </trkpt>
      <trkpt lat="42.421460" lon="1.646908">
        <ele>1811.692</ele>
        <time>2019-05-31T13:47:26Z</time>
      </trkpt>
      <trkpt lat="42.421445" lon="1.647236">
        <ele>1810.426</ele>
        <time>2019-05-31T13:47:28Z</time>
      </trkpt>
      <trkpt lat="42.421431" lon="1.647402">
        <ele>1810.252</ele>
        <time>2019-05-31T13:47:29Z</time>
      </trkpt>
      <trkpt lat="42.421378" lon="1.647867">
        <ele>1808.468</ele>
        <time>2019-05-31T13:47:32Z</time>
      </trkpt>
      <trkpt lat="42.421349" lon="1.648018">
        <ele>1807.642</ele>
        <time>2019-05-31T13:47:33Z</time>
      </trkpt>
      <trkpt lat="42.421327" lon="1.648159">
        <ele>1806.826</ele>
        <time>2019-05-31T13:47:34Z</time>
      </trkpt>
      <trkpt lat="42.421275" lon="1.648521">
        <ele>1805.808</ele>
        <time>2019-05-31T13:47:37Z</time>
      </trkpt>
      <trkpt lat="42.421274" lon="1.648631">
        <ele>1805.439</ele>
        <time>2019-05-31T13:47:38Z</time>
      </trkpt>
      <trkpt lat="42.421293" lon="1.648723">
        <ele>1805.033</ele>
        <time>2019-05-31T13:47:39Z</time>
      </trkpt>
      <trkpt lat="42.421330" lon="1.648782">
        <ele>1804.899</ele>
        <time>2019-05-31T13:47:40Z</time>
      </trkpt>
      <trkpt lat="42.421389" lon="1.648889">
        <ele>1804.237</ele>
        <time>2019-05-31T13:47:42Z</time>
      </trkpt>
      <trkpt lat="42.421426" lon="1.648958">
        <ele>1803.251</ele>
        <time>2019-05-31T13:47:44Z</time>
      </trkpt>
      <trkpt lat="42.421448" lon="1.649014">
        <ele>1802.246</ele>
        <time>2019-05-31T13:47:46Z</time>
      </trkpt>
      <trkpt lat="42.421477" lon="1.649093">
        <ele>1800.490</ele>
        <time>2019-05-31T13:47:48Z</time>
      </trkpt>
      <trkpt lat="42.421507" lon="1.649106">
        <ele>1800.036</ele>
        <time>2019-05-31T13:47:49Z</time>
      </trkpt>
      <trkpt lat="42.421503" lon="1.649114">
        <ele>1800.089</ele>
        <time>2019-05-31T13:47:50Z</time>
      </trkpt>
      <trkpt lat="42.421508" lon="1.649086">
        <ele>1798.806</ele>
        <time>2019-05-31T13:47:52Z</time>
      </trkpt>
      <trkpt lat="42.421488" lon="1.649085">
        <ele>1798.226</ele>
        <time>2019-05-31T13:47:53Z</time>
      </trkpt>
      <trkpt lat="42.421458" lon="1.649071">
        <ele>1797.608</ele>
        <time>2019-05-31T13:47:54Z</time>
      </trkpt>
      <trkpt lat="42.421422" lon="1.649061">
        <ele>1797.261</ele>
        <time>2019-05-31T13:47:55Z</time>
      </trkpt>
      <trkpt lat="42.421385" lon="1.649041">
        <ele>1796.445</ele>
        <time>2019-05-31T13:47:57Z</time>
      </trkpt>
      <trkpt lat="42.421371" lon="1.649061">
        <ele>1796.291</ele>
        <time>2019-05-31T13:47:58Z</time>
      </trkpt>
      <trkpt lat="42.421363" lon="1.649146">
        <ele>1794.839</ele>
        <time>2019-05-31T13:48:00Z</time>
      </trkpt>
      <trkpt lat="42.421376" lon="1.649199">
        <ele>1794.053</ele>
        <time>2019-05-31T13:48:01Z</time>
      </trkpt>
      <trkpt lat="42.421383" lon="1.649255">
        <ele>1793.858</ele>
        <time>2019-05-31T13:48:02Z</time>
      </trkpt>
      <trkpt lat="42.421379" lon="1.649302">
        <ele>1793.662</ele>
        <time>2019-05-31T13:48:03Z</time>
      </trkpt>
      <trkpt lat="42.421539" lon="1.649331">
        <ele>1792.668</ele>
        <time>2019-05-31T13:48:05Z</time>
      </trkpt>
      <trkpt lat="42.421568" lon="1.649355">
        <ele>1791.692</ele>
        <time>2019-05-31T13:48:06Z</time>
      </trkpt>
      <trkpt lat="42.421598" lon="1.649379">
        <ele>1790.273</ele>
        <time>2019-05-31T13:48:07Z</time>
      </trkpt>
      <trkpt lat="42.421589" lon="1.649462">
        <ele>1789.220</ele>
        <time>2019-05-31T13:48:08Z</time>
      </trkpt>
      <trkpt lat="42.421556" lon="1.649628">
        <ele>1787.808</ele>
        <time>2019-05-31T13:48:10Z</time>
      </trkpt>
      <trkpt lat="42.421511" lon="1.649784">
        <ele>1784.842</ele>
        <time>2019-05-31T13:48:12Z</time>
      </trkpt>
      <trkpt lat="42.421419" lon="1.649952">
        <ele>1783.856</ele>
        <time>2019-05-31T13:48:14Z</time>
      </trkpt>
      <trkpt lat="42.421370" lon="1.650056">
        <ele>1782.622</ele>
        <time>2019-05-31T13:48:16Z</time>
      </trkpt>
      <trkpt lat="42.421348" lon="1.650109">
        <ele>1781.690</ele>
        <time>2019-05-31T13:48:17Z</time>
      </trkpt>
      <trkpt lat="42.421307" lon="1.650174">
        <ele>1780.834</ele>
        <time>2019-05-31T13:48:18Z</time>
      </trkpt>
      <trkpt lat="42.421230" lon="1.650263">
        <ele>1780.439</ele>
        <time>2019-05-31T13:48:19Z</time>
      </trkpt>
      <trkpt lat="42.421144" lon="1.650403">
        <ele>1779.033</ele>
        <time>2019-05-31T13:48:21Z</time>
      </trkpt>
      <trkpt lat="42.421092" lon="1.650468">
        <ele>1777.669</ele>
        <time>2019-05-31T13:48:22Z</time>
      </trkpt>
      <trkpt lat="42.421049" lon="1.650521">
        <ele>1776.254</ele>
        <time>2019-05-31T13:48:23Z</time>
      </trkpt>
      <trkpt lat="42.420980" lon="1.650578">
        <ele>1774.656</ele>
        <time>2019-05-31T13:48:24Z</time>
      </trkpt>
      <trkpt lat="42.420822" lon="1.650669">
        <ele>1773.011</ele>
        <time>2019-05-31T13:48:26Z</time>
      </trkpt>
      <trkpt lat="42.420632" lon="1.650723">
        <ele>1771.408</ele>
        <time>2019-05-31T13:48:28Z</time>
      </trkpt>
      <trkpt lat="42.420555" lon="1.650755">
        <ele>1770.628</ele>
        <time>2019-05-31T13:48:29Z</time>
      </trkpt>
      <trkpt lat="42.420471" lon="1.650794">
        <ele>1770.082</ele>
        <time>2019-05-31T13:48:30Z</time>
      </trkpt>
      <trkpt lat="42.420389" lon="1.650823">
        <ele>1769.488</ele>
        <time>2019-05-31T13:48:31Z</time>
      </trkpt>
      <trkpt lat="42.420304" lon="1.650830">
        <ele>1768.876</ele>
        <time>2019-05-31T13:48:32Z</time>
      </trkpt>
      <trkpt lat="42.420208" lon="1.650811">
        <ele>1767.610</ele>
        <time>2019-05-31T13:48:33Z</time>
      </trkpt>
      <trkpt lat="42.420100" lon="1.650774">
        <ele>1766.235</ele>
        <time>2019-05-31T13:48:34Z</time>
      </trkpt>
      <trkpt lat="42.419989" lon="1.650719">
        <ele>1764.449</ele>
        <time>2019-05-31T13:48:35Z</time>
      </trkpt>
      <trkpt lat="42.419880" lon="1.650656">
        <ele>1761.875</ele>
        <time>2019-05-31T13:48:36Z</time>
      </trkpt>
      <trkpt lat="42.419777" lon="1.650596">
        <ele>1760.878</ele>
        <time>2019-05-31T13:48:37Z</time>
      </trkpt>
      <trkpt lat="42.419675" lon="1.650543">
        <ele>1760.233</ele>
        <time>2019-05-31T13:48:38Z</time>
      </trkpt>
      <trkpt lat="42.419337" lon="1.650328">
        <ele>1760.026</ele>
        <time>2019-05-31T13:48:42Z</time>
      </trkpt>
      <trkpt lat="42.419218" lon="1.650259">
        <ele>1761.608</ele>
        <time>2019-05-31T13:48:44Z</time>
      </trkpt>
      <trkpt lat="42.419066" lon="1.650241">
        <ele>1760.480</ele>
        <time>2019-05-31T13:48:46Z</time>
      </trkpt>
      <trkpt lat="42.418904" lon="1.650256">
        <ele>1759.644</ele>
        <time>2019-05-31T13:48:48Z</time>
      </trkpt>
      <trkpt lat="42.418821" lon="1.650268">
        <ele>1759.260</ele>
        <time>2019-05-31T13:48:49Z</time>
      </trkpt>
      <trkpt lat="42.418666" lon="1.650289">
        <ele>1758.278</ele>
        <time>2019-05-31T13:48:51Z</time>
      </trkpt>
      <trkpt lat="42.418504" lon="1.650320">
        <ele>1756.862</ele>
        <time>2019-05-31T13:48:53Z</time>
      </trkpt>
      <trkpt lat="42.418336" lon="1.650348">
        <ele>1755.457</ele>
        <time>2019-05-31T13:48:55Z</time>
      </trkpt>
      <trkpt lat="42.418166" lon="1.650407">
        <ele>1754.071</ele>
        <time>2019-05-31T13:48:57Z</time>
      </trkpt>
      <trkpt lat="42.418079" lon="1.650452">
        <ele>1753.037</ele>
        <time>2019-05-31T13:48:58Z</time>
      </trkpt>
      <trkpt lat="42.417991" lon="1.650514">
        <ele>1752.286</ele>
        <time>2019-05-31T13:48:59Z</time>
      </trkpt>
      <trkpt lat="42.417903" lon="1.650584">
        <ele>1751.060</ele>
        <time>2019-05-31T13:49:00Z</time>
      </trkpt>
      <trkpt lat="42.417815" lon="1.650668">
        <ele>1750.026</ele>
        <time>2019-05-31T13:49:01Z</time>
      </trkpt>
      <trkpt lat="42.417728" lon="1.650760">
        <ele>1748.808</ele>
        <time>2019-05-31T13:49:02Z</time>
      </trkpt>
      <trkpt lat="42.417638" lon="1.650855">
        <ele>1747.071</ele>
        <time>2019-05-31T13:49:03Z</time>
      </trkpt>
      <trkpt lat="42.417544" lon="1.650947">
        <ele>1745.665</ele>
        <time>2019-05-31T13:49:04Z</time>
      </trkpt>
      <trkpt lat="42.417445" lon="1.651037">
        <ele>1743.841</ele>
        <time>2019-05-31T13:49:05Z</time>
      </trkpt>
      <trkpt lat="42.417342" lon="1.651128">
        <ele>1742.889</ele>
        <time>2019-05-31T13:49:06Z</time>
      </trkpt>
      <trkpt lat="42.417240" lon="1.651221">
        <ele>1741.213</ele>
        <time>2019-05-31T13:49:07Z</time>
      </trkpt>
      <trkpt lat="42.417134" lon="1.651319">
        <ele>1740.258</ele>
        <time>2019-05-31T13:49:08Z</time>
      </trkpt>
      <trkpt lat="42.417024" lon="1.651422">
        <ele>1739.252</ele>
        <time>2019-05-31T13:49:09Z</time>
      </trkpt>
      <trkpt lat="42.416909" lon="1.651526">
        <ele>1737.898</ele>
        <time>2019-05-31T13:49:10Z</time>
      </trkpt>
      <trkpt lat="42.416791" lon="1.651631">
        <ele>1736.422</ele>
        <time>2019-05-31T13:49:11Z</time>
      </trkpt>
      <trkpt lat="42.416670" lon="1.651740">
        <ele>1734.662</ele>
        <time>2019-05-31T13:49:12Z</time>
      </trkpt>
      <trkpt lat="42.416550" lon="1.651844">
        <ele>1733.008</ele>
        <time>2019-05-31T13:49:13Z</time>
      </trkpt>
      <trkpt lat="42.416452" lon="1.651935">
        <ele>1731.608</ele>
        <time>2019-05-31T13:49:14Z</time>
      </trkpt>
      <trkpt lat="42.416350" lon="1.652025">
        <ele>1730.845</ele>
        <time>2019-05-31T13:49:15Z</time>
      </trkpt>
      <trkpt lat="42.416250" lon="1.652117">
        <ele>1730.479</ele>
        <time>2019-05-31T13:49:16Z</time>
      </trkpt>
      <trkpt lat="42.416066" lon="1.652287">
        <ele>1729.285</ele>
        <time>2019-05-31T13:49:18Z</time>
      </trkpt>
      <trkpt lat="42.415985" lon="1.652358">
        <ele>1728.413</ele>
        <time>2019-05-31T13:49:19Z</time>
      </trkpt>
      <trkpt lat="42.415917" lon="1.652419">
        <ele>1728.017</ele>
        <time>2019-05-31T13:49:20Z</time>
      </trkpt>
      <trkpt lat="42.415857" lon="1.652486">
        <ele>1727.822</ele>
        <time>2019-05-31T13:49:21Z</time>
      </trkpt>
      <trkpt lat="42.415755" lon="1.652638">
        <ele>1727.266</ele>
        <time>2019-05-31T13:49:23Z</time>
      </trkpt>
      <trkpt lat="42.415707" lon="1.652715">
        <ele>1726.482</ele>
        <time>2019-05-31T13:49:24Z</time>
      </trkpt>
      <trkpt lat="42.415558" lon="1.652918">
        <ele>1725.079</ele>
        <time>2019-05-31T13:49:27Z</time>
      </trkpt>
      <trkpt lat="42.415503" lon="1.652946">
        <ele>1724.405</ele>
        <time>2019-05-31T13:49:28Z</time>
      </trkpt>
      <trkpt lat="42.415438" lon="1.652914">
        <ele>1724.025</ele>
        <time>2019-05-31T13:49:29Z</time>
      </trkpt>
      <trkpt lat="42.415379" lon="1.652874">
        <ele>1723.408</ele>
        <time>2019-05-31T13:49:30Z</time>
      </trkpt>
      <trkpt lat="42.415289" lon="1.652717">
        <ele>1722.090</ele>
        <time>2019-05-31T13:49:32Z</time>
      </trkpt>
      <trkpt lat="42.415247" lon="1.652622">
        <ele>1721.224</ele>
        <time>2019-05-31T13:49:33Z</time>
      </trkpt>
      <trkpt lat="42.415203" lon="1.652522">
        <ele>1720.470</ele>
        <time>2019-05-31T13:49:34Z</time>
      </trkpt>
      <trkpt lat="42.415128" lon="1.652318">
        <ele>1718.898</ele>
        <time>2019-05-31T13:49:36Z</time>
      </trkpt>
      <trkpt lat="42.415119" lon="1.651994">
        <ele>1717.672</ele>
        <time>2019-05-31T13:49:39Z</time>
      </trkpt>
      <trkpt lat="42.415182" lon="1.651793">
        <ele>1716.467</ele>
        <time>2019-05-31T13:49:41Z</time>
      </trkpt>
      <trkpt lat="42.415229" lon="1.651695">
        <ele>1716.281</ele>
        <time>2019-05-31T13:49:42Z</time>
      </trkpt>
      <trkpt lat="42.415278" lon="1.651598">
        <ele>1715.657</ele>
        <time>2019-05-31T13:49:43Z</time>
      </trkpt>
      <trkpt lat="42.415336" lon="1.651493">
        <ele>1714.829</ele>
        <time>2019-05-31T13:49:44Z</time>
      </trkpt>
      <trkpt lat="42.415451" lon="1.651271">
        <ele>1712.800</ele>
        <time>2019-05-31T13:49:46Z</time>
      </trkpt>
      <trkpt lat="42.415512" lon="1.651154">
        <ele>1712.020</ele>
        <time>2019-05-31T13:49:47Z</time>
      </trkpt>
      <trkpt lat="42.415572" lon="1.651035">
        <ele>1710.608</ele>
        <time>2019-05-31T13:49:48Z</time>
      </trkpt>
      <trkpt lat="42.415682" lon="1.650802">
        <ele>1708.845</ele>
        <time>2019-05-31T13:49:50Z</time>
      </trkpt>
      <trkpt lat="42.415779" lon="1.650550">
        <ele>1707.059</ele>
        <time>2019-05-31T13:49:52Z</time>
      </trkpt>
      <trkpt lat="42.415833" lon="1.650421">
        <ele>1706.085</ele>
        <time>2019-05-31T13:49:53Z</time>
      </trkpt>
      <trkpt lat="42.415894" lon="1.650291">
        <ele>1704.853</ele>
        <time>2019-05-31T13:49:54Z</time>
      </trkpt>
      <trkpt lat="42.416030" lon="1.650038">
        <ele>1702.837</ele>
        <time>2019-05-31T13:49:56Z</time>
      </trkpt>
      <trkpt lat="42.416151" lon="1.649793">
        <ele>1700.862</ele>
        <time>2019-05-31T13:49:58Z</time>
      </trkpt>
      <trkpt lat="42.416247" lon="1.649545">
        <ele>1699.896</ele>
        <time>2019-05-31T13:50:00Z</time>
      </trkpt>
      <trkpt lat="42.416306" lon="1.649312">
        <ele>1698.452</ele>
        <time>2019-05-31T13:50:02Z</time>
      </trkpt>
      <trkpt lat="42.416319" lon="1.649203">
        <ele>1697.414</ele>
        <time>2019-05-31T13:50:03Z</time>
      </trkpt>
      <trkpt lat="42.416316" lon="1.649100">
        <ele>1696.854</ele>
        <time>2019-05-31T13:50:04Z</time>
      </trkpt>
      <trkpt lat="42.416246" lon="1.648907">
        <ele>1695.809</ele>
        <time>2019-05-31T13:50:06Z</time>
      </trkpt>
      <trkpt lat="42.416104" lon="1.648764">
        <ele>1694.008</ele>
        <time>2019-05-31T13:50:08Z</time>
      </trkpt>
      <trkpt lat="42.416028" lon="1.648698">
        <ele>1693.254</ele>
        <time>2019-05-31T13:50:09Z</time>
      </trkpt>
      <trkpt lat="42.415949" lon="1.648629">
        <ele>1692.428</ele>
        <time>2019-05-31T13:50:10Z</time>
      </trkpt>
      <trkpt lat="42.415792" lon="1.648483">
        <ele>1689.844</ele>
        <time>2019-05-31T13:50:12Z</time>
      </trkpt>
      <trkpt lat="42.415714" lon="1.648404">
        <ele>1688.832</ele>
        <time>2019-05-31T13:50:13Z</time>
      </trkpt>
      <trkpt lat="42.415563" lon="1.648225">
        <ele>1687.836</ele>
        <time>2019-05-31T13:50:15Z</time>
      </trkpt>
      <trkpt lat="42.415494" lon="1.648121">
        <ele>1687.281</ele>
        <time>2019-05-31T13:50:16Z</time>
      </trkpt>
      <trkpt lat="42.415363" lon="1.647897">
        <ele>1685.685</ele>
        <time>2019-05-31T13:50:18Z</time>
      </trkpt>
      <trkpt lat="42.415246" lon="1.647645">
        <ele>1683.621</ele>
        <time>2019-05-31T13:50:20Z</time>
      </trkpt>
      <trkpt lat="42.415192" lon="1.647509">
        <ele>1682.685</ele>
        <time>2019-05-31T13:50:21Z</time>
      </trkpt>
      <trkpt lat="42.415090" lon="1.647224">
        <ele>1680.489</ele>
        <time>2019-05-31T13:50:23Z</time>
      </trkpt>
      <trkpt lat="42.415041" lon="1.647079">
        <ele>1678.617</ele>
        <time>2019-05-31T13:50:24Z</time>
      </trkpt>
      <trkpt lat="42.414991" lon="1.646933">
        <ele>1677.008</ele>
        <time>2019-05-31T13:50:25Z</time>
      </trkpt>
      <trkpt lat="42.414903" lon="1.646655">
        <ele>1675.821</ele>
        <time>2019-05-31T13:50:27Z</time>
      </trkpt>
      <trkpt lat="42.414772" lon="1.646238">
        <ele>1674.095</ele>
        <time>2019-05-31T13:50:30Z</time>
      </trkpt>
      <trkpt lat="42.414681" lon="1.645982">
        <ele>1671.891</ele>
        <time>2019-05-31T13:50:32Z</time>
      </trkpt>
      <trkpt lat="42.414605" lon="1.645744">
        <ele>1670.449</ele>
        <time>2019-05-31T13:50:34Z</time>
      </trkpt>
      <trkpt lat="42.414583" lon="1.645622">
        <ele>1670.293</ele>
        <time>2019-05-31T13:50:35Z</time>
      </trkpt>
      <trkpt lat="42.414573" lon="1.645354">
        <ele>1669.238</ele>
        <time>2019-05-31T13:50:37Z</time>
      </trkpt>
      <trkpt lat="42.414581" lon="1.645210">
        <ele>1668.242</ele>
        <time>2019-05-31T13:50:38Z</time>
      </trkpt>
      <trkpt lat="42.414594" lon="1.645059">
        <ele>1667.268</ele>
        <time>2019-05-31T13:50:39Z</time>
      </trkpt>
      <trkpt lat="42.414614" lon="1.644898">
        <ele>1666.253</ele>
        <time>2019-05-31T13:50:40Z</time>
      </trkpt>
      <trkpt lat="42.414638" lon="1.644736">
        <ele>1664.804</ele>
        <time>2019-05-31T13:50:41Z</time>
      </trkpt>
      <trkpt lat="42.414670" lon="1.644572">
        <ele>1663.214</ele>
        <time>2019-05-31T13:50:42Z</time>
      </trkpt>
      <trkpt lat="42.414710" lon="1.644407">
        <ele>1661.408</ele>
        <time>2019-05-31T13:50:43Z</time>
      </trkpt>
      <trkpt lat="42.414755" lon="1.644245">
        <ele>1659.898</ele>
        <time>2019-05-31T13:50:44Z</time>
      </trkpt>
      <trkpt lat="42.414803" lon="1.644094">
        <ele>1658.832</ele>
        <time>2019-05-31T13:50:45Z</time>
      </trkpt>
      <trkpt lat="42.414857" lon="1.643949">
        <ele>1657.858</ele>
        <time>2019-05-31T13:50:46Z</time>
      </trkpt>
      <trkpt lat="42.414920" lon="1.643809">
        <ele>1656.896</ele>
        <time>2019-05-31T13:50:47Z</time>
      </trkpt>
      <trkpt lat="42.414990" lon="1.643683">
        <ele>1655.690</ele>
        <time>2019-05-31T13:50:48Z</time>
      </trkpt>
      <trkpt lat="42.415135" lon="1.643474">
        <ele>1654.435</ele>
        <time>2019-05-31T13:50:50Z</time>
      </trkpt>
      <trkpt lat="42.415205" lon="1.643389">
        <ele>1654.259</ele>
        <time>2019-05-31T13:50:51Z</time>
      </trkpt>
      <trkpt lat="42.415321" lon="1.643239">
        <ele>1653.685</ele>
        <time>2019-05-31T13:50:53Z</time>
      </trkpt>
      <trkpt lat="42.415383" lon="1.643092">
        <ele>1653.476</ele>
        <time>2019-05-31T13:50:55Z</time>
      </trkpt>
      <trkpt lat="42.415346" lon="1.642958">
        <ele>1653.090</ele>
        <time>2019-05-31T13:50:57Z</time>
      </trkpt>
      <trkpt lat="42.415244" lon="1.642936">
        <ele>1652.419</ele>
        <time>2019-05-31T13:50:59Z</time>
      </trkpt>
      <trkpt lat="42.415190" lon="1.642974">
        <ele>1650.408</ele>
        <time>2019-05-31T13:51:00Z</time>
      </trkpt>
      <trkpt lat="42.415139" lon="1.643030">
        <ele>1649.230</ele>
        <time>2019-05-31T13:51:01Z</time>
      </trkpt>
      <trkpt lat="42.415084" lon="1.643096">
        <ele>1648.464</ele>
        <time>2019-05-31T13:51:02Z</time>
      </trkpt>
      <trkpt lat="42.415028" lon="1.643166">
        <ele>1647.010</ele>
        <time>2019-05-31T13:51:03Z</time>
      </trkpt>
      <trkpt lat="42.414919" lon="1.643296">
        <ele>1645.888</ele>
        <time>2019-05-31T13:51:05Z</time>
      </trkpt>
      <trkpt lat="42.414812" lon="1.643412">
        <ele>1644.022</ele>
        <time>2019-05-31T13:51:07Z</time>
      </trkpt>
      <trkpt lat="42.414757" lon="1.643473">
        <ele>1642.267</ele>
        <time>2019-05-31T13:51:08Z</time>
      </trkpt>
      <trkpt lat="42.414705" lon="1.643544">
        <ele>1642.041</ele>
        <time>2019-05-31T13:51:09Z</time>
      </trkpt>
      <trkpt lat="42.414541" lon="1.643825">
        <ele>1641.027</ele>
        <time>2019-05-31T13:51:12Z</time>
      </trkpt>
      <trkpt lat="42.414484" lon="1.643936">
        <ele>1639.866</ele>
        <time>2019-05-31T13:51:13Z</time>
      </trkpt>
      <trkpt lat="42.414424" lon="1.644049">
        <ele>1638.629</ele>
        <time>2019-05-31T13:51:14Z</time>
      </trkpt>
      <trkpt lat="42.414364" lon="1.644162">
        <ele>1637.221</ele>
        <time>2019-05-31T13:51:15Z</time>
      </trkpt>
      <trkpt lat="42.414302" lon="1.644280">
        <ele>1636.208</ele>
        <time>2019-05-31T13:51:16Z</time>
      </trkpt>
      <trkpt lat="42.414234" lon="1.644404">
        <ele>1635.039</ele>
        <time>2019-05-31T13:51:17Z</time>
      </trkpt>
      <trkpt lat="42.414163" lon="1.644531">
        <ele>1633.853</ele>
        <time>2019-05-31T13:51:18Z</time>
      </trkpt>
      <trkpt lat="42.414091" lon="1.644654">
        <ele>1632.219</ele>
        <time>2019-05-31T13:51:19Z</time>
      </trkpt>
      <trkpt lat="42.414025" lon="1.644780">
        <ele>1630.617</ele>
        <time>2019-05-31T13:51:20Z</time>
      </trkpt>
      <trkpt lat="42.413965" lon="1.644913">
        <ele>1629.211</ele>
        <time>2019-05-31T13:51:21Z</time>
      </trkpt>
      <trkpt lat="42.413914" lon="1.645058">
        <ele>1628.026</ele>
        <time>2019-05-31T13:51:22Z</time>
      </trkpt>
      <trkpt lat="42.413869" lon="1.645209">
        <ele>1626.650</ele>
        <time>2019-05-31T13:51:23Z</time>
      </trkpt>
      <trkpt lat="42.413828" lon="1.645365">
        <ele>1623.026</ele>
        <time>2019-05-31T13:51:24Z</time>
      </trkpt>
      <trkpt lat="42.413791" lon="1.645523">
        <ele>1621.212</ele>
        <time>2019-05-31T13:51:25Z</time>
      </trkpt>
      <trkpt lat="42.413759" lon="1.645686">
        <ele>1619.632</ele>
        <time>2019-05-31T13:51:26Z</time>
      </trkpt>
      <trkpt lat="42.413735" lon="1.645851">
        <ele>1618.605</ele>
        <time>2019-05-31T13:51:27Z</time>
      </trkpt>
      <trkpt lat="42.413722" lon="1.646017">
        <ele>1618.208</ele>
        <time>2019-05-31T13:51:28Z</time>
      </trkpt>
      <trkpt lat="42.413722" lon="1.646355">
        <ele>1617.474</ele>
        <time>2019-05-31T13:51:30Z</time>
      </trkpt>
      <trkpt lat="42.413727" lon="1.646523">
        <ele>1616.618</ele>
        <time>2019-05-31T13:51:31Z</time>
      </trkpt>
      <trkpt lat="42.413735" lon="1.646686">
        <ele>1615.694</ele>
        <time>2019-05-31T13:51:32Z</time>
      </trkpt>
      <trkpt lat="42.413733" lon="1.646972">
        <ele>1615.432</ele>
        <time>2019-05-31T13:51:34Z</time>
      </trkpt>
      <trkpt lat="42.413717" lon="1.647086">
        <ele>1615.636</ele>
        <time>2019-05-31T13:51:35Z</time>
      </trkpt>
      <trkpt lat="42.413619" lon="1.647256">
        <ele>1615.071</ele>
        <time>2019-05-31T13:51:37Z</time>
      </trkpt>
      <trkpt lat="42.413544" lon="1.647312">
        <ele>1614.485</ele>
        <time>2019-05-31T13:51:38Z</time>
      </trkpt>
      <trkpt lat="42.413371" lon="1.647385">
        <ele>1612.651</ele>
        <time>2019-05-31T13:51:40Z</time>
      </trkpt>
      <trkpt lat="42.413289" lon="1.647433">
        <ele>1611.457</ele>
        <time>2019-05-31T13:51:41Z</time>
      </trkpt>
      <trkpt lat="42.413136" lon="1.647587">
        <ele>1610.000</ele>
        <time>2019-05-31T13:51:43Z</time>
      </trkpt>
      <trkpt lat="42.413071" lon="1.647693">
        <ele>1609.020</ele>
        <time>2019-05-31T13:51:44Z</time>
      </trkpt>
      <trkpt lat="42.413013" lon="1.647808">
        <ele>1607.808</ele>
        <time>2019-05-31T13:51:45Z</time>
      </trkpt>
      <trkpt lat="42.412960" lon="1.647934">
        <ele>1606.238</ele>
        <time>2019-05-31T13:51:46Z</time>
      </trkpt>
      <trkpt lat="42.412914" lon="1.648074">
        <ele>1605.292</ele>
        <time>2019-05-31T13:51:47Z</time>
      </trkpt>
      <trkpt lat="42.412874" lon="1.648222">
        <ele>1603.458</ele>
        <time>2019-05-31T13:51:48Z</time>
      </trkpt>
      <trkpt lat="42.412843" lon="1.648376">
        <ele>1602.456</ele>
        <time>2019-05-31T13:51:49Z</time>
      </trkpt>
      <trkpt lat="42.412817" lon="1.648536">
        <ele>1601.230</ele>
        <time>2019-05-31T13:51:50Z</time>
      </trkpt>
      <trkpt lat="42.412794" lon="1.648699">
        <ele>1600.215</ele>
        <time>2019-05-31T13:51:51Z</time>
      </trkpt>
      <trkpt lat="42.412768" lon="1.648861">
        <ele>1599.089</ele>
        <time>2019-05-31T13:51:52Z</time>
      </trkpt>
      <trkpt lat="42.412738" lon="1.649024">
        <ele>1598.075</ele>
        <time>2019-05-31T13:51:53Z</time>
      </trkpt>
      <trkpt lat="42.412668" lon="1.649349">
        <ele>1596.228</ele>
        <time>2019-05-31T13:51:55Z</time>
      </trkpt>
      <trkpt lat="42.412621" lon="1.649510">
        <ele>1595.489</ele>
        <time>2019-05-31T13:51:56Z</time>
      </trkpt>
      <trkpt lat="42.412565" lon="1.649669">
        <ele>1594.417</ele>
        <time>2019-05-31T13:51:57Z</time>
      </trkpt>
      <trkpt lat="42.412508" lon="1.649829">
        <ele>1593.208</ele>
        <time>2019-05-31T13:51:58Z</time>
      </trkpt>
      <trkpt lat="42.412403" lon="1.650158">
        <ele>1591.435</ele>
        <time>2019-05-31T13:52:00Z</time>
      </trkpt>
      <trkpt lat="42.412359" lon="1.650326">
        <ele>1590.039</ele>
        <time>2019-05-31T13:52:01Z</time>
      </trkpt>
      <trkpt lat="42.412316" lon="1.650495">
        <ele>1588.615</ele>
        <time>2019-05-31T13:52:02Z</time>
      </trkpt>
      <trkpt lat="42.412276" lon="1.650664">
        <ele>1587.223</ele>
        <time>2019-05-31T13:52:03Z</time>
      </trkpt>
      <trkpt lat="42.412238" lon="1.650833">
        <ele>1586.287</ele>
        <time>2019-05-31T13:52:04Z</time>
      </trkpt>
      <trkpt lat="42.412197" lon="1.651002">
        <ele>1585.052</ele>
        <time>2019-05-31T13:52:05Z</time>
      </trkpt>
      <trkpt lat="42.412120" lon="1.651346">
        <ele>1583.836</ele>
        <time>2019-05-31T13:52:07Z</time>
      </trkpt>
      <trkpt lat="42.412085" lon="1.651519">
        <ele>1582.852</ele>
        <time>2019-05-31T13:52:08Z</time>
      </trkpt>
      <trkpt lat="42.412049" lon="1.651694">
        <ele>1581.848</ele>
        <time>2019-05-31T13:52:09Z</time>
      </trkpt>
      <trkpt lat="42.411968" lon="1.652026">
        <ele>1580.261</ele>
        <time>2019-05-31T13:52:11Z</time>
      </trkpt>
      <trkpt lat="42.411925" lon="1.652181">
        <ele>1578.817</ele>
        <time>2019-05-31T13:52:12Z</time>
      </trkpt>
      <trkpt lat="42.411832" lon="1.652440">
        <ele>1578.808</ele>
        <time>2019-05-31T13:52:14Z</time>
      </trkpt>
      <trkpt lat="42.411774" lon="1.652545">
        <ele>1579.047</ele>
        <time>2019-05-31T13:52:15Z</time>
      </trkpt>
      <trkpt lat="42.411623" lon="1.652715">
        <ele>1577.471</ele>
        <time>2019-05-31T13:52:17Z</time>
      </trkpt>
      <trkpt lat="42.411537" lon="1.652792">
        <ele>1576.257</ele>
        <time>2019-05-31T13:52:18Z</time>
      </trkpt>
      <trkpt lat="42.411454" lon="1.652882">
        <ele>1575.485</ele>
        <time>2019-05-31T13:52:19Z</time>
      </trkpt>
      <trkpt lat="42.411382" lon="1.652985">
        <ele>1574.869</ele>
        <time>2019-05-31T13:52:20Z</time>
      </trkpt>
      <trkpt lat="42.411325" lon="1.653106">
        <ele>1574.294</ele>
        <time>2019-05-31T13:52:21Z</time>
      </trkpt>
      <trkpt lat="42.411283" lon="1.653241">
        <ele>1573.848</ele>
        <time>2019-05-31T13:52:22Z</time>
      </trkpt>
      <trkpt lat="42.411248" lon="1.653384">
        <ele>1573.264</ele>
        <time>2019-05-31T13:52:23Z</time>
      </trkpt>
      <trkpt lat="42.411204" lon="1.653528">
        <ele>1572.447</ele>
        <time>2019-05-31T13:52:24Z</time>
      </trkpt>
      <trkpt lat="42.411079" lon="1.653792">
        <ele>1570.429</ele>
        <time>2019-05-31T13:52:26Z</time>
      </trkpt>
      <trkpt lat="42.411009" lon="1.653921">
        <ele>1569.621</ele>
        <time>2019-05-31T13:52:27Z</time>
      </trkpt>
      <trkpt lat="42.410934" lon="1.654046">
        <ele>1568.808</ele>
        <time>2019-05-31T13:52:28Z</time>
      </trkpt>
      <trkpt lat="42.410783" lon="1.654295">
        <ele>1567.067</ele>
        <time>2019-05-31T13:52:30Z</time>
      </trkpt>
      <trkpt lat="42.410655" lon="1.654514">
        <ele>1565.621</ele>
        <time>2019-05-31T13:52:32Z</time>
      </trkpt>
      <trkpt lat="42.410389" lon="1.654870">
        <ele>1563.827</ele>
        <time>2019-05-31T13:52:36Z</time>
      </trkpt>
      <trkpt lat="42.410310" lon="1.654950">
        <ele>1562.885</ele>
        <time>2019-05-31T13:52:37Z</time>
      </trkpt>
      <trkpt lat="42.410229" lon="1.655031">
        <ele>1562.269</ele>
        <time>2019-05-31T13:52:38Z</time>
      </trkpt>
      <trkpt lat="42.410085" lon="1.655207">
        <ele>1560.834</ele>
        <time>2019-05-31T13:52:40Z</time>
      </trkpt>
      <trkpt lat="42.410026" lon="1.655308">
        <ele>1560.218</ele>
        <time>2019-05-31T13:52:41Z</time>
      </trkpt>
      <trkpt lat="42.409974" lon="1.655414">
        <ele>1559.454</ele>
        <time>2019-05-31T13:52:42Z</time>
      </trkpt>
      <trkpt lat="42.409821" lon="1.655736">
        <ele>1558.632</ele>
        <time>2019-05-31T13:52:45Z</time>
      </trkpt>
      <trkpt lat="42.409764" lon="1.655836">
        <ele>1558.492</ele>
        <time>2019-05-31T13:52:46Z</time>
      </trkpt>
      <trkpt lat="42.409528" lon="1.656194">
        <ele>1558.011</ele>
        <time>2019-05-31T13:52:50Z</time>
      </trkpt>
      <trkpt lat="42.409299" lon="1.656444">
        <ele>1558.408</ele>
        <time>2019-05-31T13:52:54Z</time>
      </trkpt>
      <trkpt lat="42.409238" lon="1.656678">
        <ele>1557.866</ele>
        <time>2019-05-31T13:52:57Z</time>
      </trkpt>
      <trkpt lat="42.409222" lon="1.656837">
        <ele>1557.410</ele>
        <time>2019-05-31T13:52:59Z</time>
      </trkpt>
      <trkpt lat="42.409227" lon="1.656910">
        <ele>1556.846</ele>
        <time>2019-05-31T13:53:00Z</time>
      </trkpt>
      <trkpt lat="42.409238" lon="1.656977">
        <ele>1556.664</ele>
        <time>2019-05-31T13:53:01Z</time>
      </trkpt>
      <trkpt lat="42.409255" lon="1.657040">
        <ele>1555.688</ele>
        <time>2019-05-31T13:53:02Z</time>
      </trkpt>
      <trkpt lat="42.409294" lon="1.657156">
        <ele>1554.823</ele>
        <time>2019-05-31T13:53:04Z</time>
      </trkpt>
      <trkpt lat="42.409322" lon="1.657267">
        <ele>1554.417</ele>
        <time>2019-05-31T13:53:06Z</time>
      </trkpt>
      <trkpt lat="42.409345" lon="1.657396">
        <ele>1554.653</ele>
        <time>2019-05-31T13:53:08Z</time>
      </trkpt>
      <trkpt lat="42.409351" lon="1.657549">
        <ele>1553.476</ele>
        <time>2019-05-31T13:53:10Z</time>
      </trkpt>
      <trkpt lat="42.409369" lon="1.657713">
        <ele>1552.490</ele>
        <time>2019-05-31T13:53:12Z</time>
      </trkpt>
      <trkpt lat="42.409424" lon="1.657873">
        <ele>1551.419</ele>
        <time>2019-05-31T13:53:14Z</time>
      </trkpt>
      <trkpt lat="42.409459" lon="1.657951">
        <ele>1550.008</ele>
        <time>2019-05-31T13:53:15Z</time>
      </trkpt>
      <trkpt lat="42.409575" lon="1.658281">
        <ele>1548.490</ele>
        <time>2019-05-31T13:53:19Z</time>
      </trkpt>
      <trkpt lat="42.409599" lon="1.658377">
        <ele>1547.484</ele>
        <time>2019-05-31T13:53:20Z</time>
      </trkpt>
      <trkpt lat="42.409624" lon="1.658474">
        <ele>1546.890</ele>
        <time>2019-05-31T13:53:21Z</time>
      </trkpt>
      <trkpt lat="42.409670" lon="1.658667">
        <ele>1545.488</ele>
        <time>2019-05-31T13:53:23Z</time>
      </trkpt>
      <trkpt lat="42.409692" lon="1.658761">
        <ele>1544.212</ele>
        <time>2019-05-31T13:53:24Z</time>
      </trkpt>
      <trkpt lat="42.409755" lon="1.659017">
        <ele>1543.457</ele>
        <time>2019-05-31T13:53:27Z</time>
      </trkpt>
      <trkpt lat="42.409775" lon="1.659100">
        <ele>1543.051</ele>
        <time>2019-05-31T13:53:28Z</time>
      </trkpt>
      <trkpt lat="42.409814" lon="1.659270">
        <ele>1542.077</ele>
        <time>2019-05-31T13:53:30Z</time>
      </trkpt>
      <trkpt lat="42.409846" lon="1.659442">
        <ele>1541.016</ele>
        <time>2019-05-31T13:53:32Z</time>
      </trkpt>
      <trkpt lat="42.409879" lon="1.659606">
        <ele>1540.276</ele>
        <time>2019-05-31T13:53:34Z</time>
      </trkpt>
      <trkpt lat="42.409901" lon="1.659684">
        <ele>1539.813</ele>
        <time>2019-05-31T13:53:35Z</time>
      </trkpt>
      <trkpt lat="42.409974" lon="1.659817">
        <ele>1538.608</ele>
        <time>2019-05-31T13:53:37Z</time>
      </trkpt>
      <trkpt lat="42.410025" lon="1.659866">
        <ele>1537.844</ele>
        <time>2019-05-31T13:53:38Z</time>
      </trkpt>
      <trkpt lat="42.410079" lon="1.659905">
        <ele>1537.478</ele>
        <time>2019-05-31T13:53:39Z</time>
      </trkpt>
      <trkpt lat="42.410268" lon="1.659969">
        <ele>1536.814</ele>
        <time>2019-05-31T13:53:42Z</time>
      </trkpt>
      <trkpt lat="42.410341" lon="1.659982">
        <ele>1536.212</ele>
        <time>2019-05-31T13:53:43Z</time>
      </trkpt>
      <trkpt lat="42.410417" lon="1.659986">
        <ele>1535.426</ele>
        <time>2019-05-31T13:53:44Z</time>
      </trkpt>
      <trkpt lat="42.410494" lon="1.659988">
        <ele>1535.061</ele>
        <time>2019-05-31T13:53:45Z</time>
      </trkpt>
      <trkpt lat="42.410653" lon="1.659994">
        <ele>1534.415</ele>
        <time>2019-05-31T13:53:47Z</time>
      </trkpt>
      <trkpt lat="42.410734" lon="1.660012">
        <ele>1533.241</ele>
        <time>2019-05-31T13:53:48Z</time>
      </trkpt>
      <trkpt lat="42.410900" lon="1.660068">
        <ele>1532.079</ele>
        <time>2019-05-31T13:53:50Z</time>
      </trkpt>
      <trkpt lat="42.411064" lon="1.660156">
        <ele>1531.005</ele>
        <time>2019-05-31T13:53:52Z</time>
      </trkpt>
      <trkpt lat="42.411147" lon="1.660203">
        <ele>1530.825</ele>
        <time>2019-05-31T13:53:53Z</time>
      </trkpt>
      <trkpt lat="42.411411" lon="1.660354">
        <ele>1529.408</ele>
        <time>2019-05-31T13:53:56Z</time>
      </trkpt>
      <trkpt lat="42.411601" lon="1.660462">
        <ele>1528.010</ele>
        <time>2019-05-31T13:53:58Z</time>
      </trkpt>
      <trkpt lat="42.411697" lon="1.660516">
        <ele>1527.284</ele>
        <time>2019-05-31T13:53:59Z</time>
      </trkpt>
      <trkpt lat="42.411795" lon="1.660567">
        <ele>1526.480</ele>
        <time>2019-05-31T13:54:00Z</time>
      </trkpt>
      <trkpt lat="42.411989" lon="1.660662">
        <ele>1525.228</ele>
        <time>2019-05-31T13:54:02Z</time>
      </trkpt>
      <trkpt lat="42.412172" lon="1.660769">
        <ele>1523.682</ele>
        <time>2019-05-31T13:54:04Z</time>
      </trkpt>
      <trkpt lat="42.412262" lon="1.660831">
        <ele>1522.887</ele>
        <time>2019-05-31T13:54:05Z</time>
      </trkpt>
      <trkpt lat="42.412351" lon="1.660901">
        <ele>1522.421</ele>
        <time>2019-05-31T13:54:06Z</time>
      </trkpt>
      <trkpt lat="42.412622" lon="1.661101">
        <ele>1521.297</ele>
        <time>2019-05-31T13:54:09Z</time>
      </trkpt>
      <trkpt lat="42.412709" lon="1.661148">
        <ele>1520.884</ele>
        <time>2019-05-31T13:54:10Z</time>
      </trkpt>
      <trkpt lat="42.412917" lon="1.661236">
        <ele>1521.007</ele>
        <time>2019-05-31T13:54:13Z</time>
      </trkpt>
      <trkpt lat="42.413076" lon="1.661330">
        <ele>1521.017</ele>
        <time>2019-05-31T13:54:16Z</time>
      </trkpt>
      <trkpt lat="42.413112" lon="1.661375">
        <ele>1520.808</ele>
        <time>2019-05-31T13:54:17Z</time>
      </trkpt>
      <trkpt lat="42.413106" lon="1.661525">
        <ele>1519.851</ele>
        <time>2019-05-31T13:54:20Z</time>
      </trkpt>
      <trkpt lat="42.413012" lon="1.661564">
        <ele>1518.225</ele>
        <time>2019-05-31T13:54:22Z</time>
      </trkpt>
      <trkpt lat="42.412881" lon="1.661512">
        <ele>1516.831</ele>
        <time>2019-05-31T13:54:24Z</time>
      </trkpt>
      <trkpt lat="42.412809" lon="1.661479">
        <ele>1516.019</ele>
        <time>2019-05-31T13:54:25Z</time>
      </trkpt>
      <trkpt lat="42.412733" lon="1.661447">
        <ele>1514.873</ele>
        <time>2019-05-31T13:54:26Z</time>
      </trkpt>
      <trkpt lat="42.412587" lon="1.661385">
        <ele>1512.838</ele>
        <time>2019-05-31T13:54:28Z</time>
      </trkpt>
      <trkpt lat="42.412433" lon="1.661331">
        <ele>1511.462</ele>
        <time>2019-05-31T13:54:30Z</time>
      </trkpt>
      <trkpt lat="42.412351" lon="1.661307">
        <ele>1510.698</ele>
        <time>2019-05-31T13:54:31Z</time>
      </trkpt>
      <trkpt lat="42.412268" lon="1.661283">
        <ele>1510.272</ele>
        <time>2019-05-31T13:54:32Z</time>
      </trkpt>
      <trkpt lat="42.412033" lon="1.661233">
        <ele>1508.813</ele>
        <time>2019-05-31T13:54:35Z</time>
      </trkpt>
      <trkpt lat="42.411959" lon="1.661224">
        <ele>1507.414</ele>
        <time>2019-05-31T13:54:36Z</time>
      </trkpt>
      <trkpt lat="42.411890" lon="1.661219">
        <ele>1506.808</ele>
        <time>2019-05-31T13:54:37Z</time>
      </trkpt>
      <trkpt lat="42.411767" lon="1.661213">
        <ele>1506.050</ele>
        <time>2019-05-31T13:54:39Z</time>
      </trkpt>
      <trkpt lat="42.411581" lon="1.661204">
        <ele>1504.874</ele>
        <time>2019-05-31T13:54:42Z</time>
      </trkpt>
      <trkpt lat="42.411357" lon="1.661175">
        <ele>1503.240</ele>
        <time>2019-05-31T13:54:45Z</time>
      </trkpt>
      <trkpt lat="42.411211" lon="1.661155">
        <ele>1502.038</ele>
        <time>2019-05-31T13:54:47Z</time>
      </trkpt>
      <trkpt lat="42.411139" lon="1.661152">
        <ele>1501.272</ele>
        <time>2019-05-31T13:54:48Z</time>
      </trkpt>
      <trkpt lat="42.411069" lon="1.661161">
        <ele>1501.017</ele>
        <time>2019-05-31T13:54:49Z</time>
      </trkpt>
      <trkpt lat="42.410996" lon="1.661177">
        <ele>1500.441</ele>
        <time>2019-05-31T13:54:50Z</time>
      </trkpt>
      <trkpt lat="42.410839" lon="1.661218">
        <ele>1498.887</ele>
        <time>2019-05-31T13:54:52Z</time>
      </trkpt>
      <trkpt lat="42.410670" lon="1.661266">
        <ele>1497.629</ele>
        <time>2019-05-31T13:54:54Z</time>
      </trkpt>
      <trkpt lat="42.410490" lon="1.661320">
        <ele>1496.200</ele>
        <time>2019-05-31T13:54:56Z</time>
      </trkpt>
      <trkpt lat="42.410321" lon="1.661371">
        <ele>1494.420</ele>
        <time>2019-05-31T13:54:58Z</time>
      </trkpt>
      <trkpt lat="42.410247" lon="1.661392">
        <ele>1494.008</ele>
        <time>2019-05-31T13:54:59Z</time>
      </trkpt>
      <trkpt lat="42.409978" lon="1.661465">
        <ele>1493.435</ele>
        <time>2019-05-31T13:55:03Z</time>
      </trkpt>
      <trkpt lat="42.409834" lon="1.661512">
        <ele>1492.249</ele>
        <time>2019-05-31T13:55:05Z</time>
      </trkpt>
      <trkpt lat="42.409690" lon="1.661566">
        <ele>1491.065</ele>
        <time>2019-05-31T13:55:07Z</time>
      </trkpt>
      <trkpt lat="42.409544" lon="1.661639">
        <ele>1489.813</ele>
        <time>2019-05-31T13:55:09Z</time>
      </trkpt>
      <trkpt lat="42.409473" lon="1.661677">
        <ele>1489.287</ele>
        <time>2019-05-31T13:55:10Z</time>
      </trkpt>
      <trkpt lat="42.409404" lon="1.661713">
        <ele>1488.682</ele>
        <time>2019-05-31T13:55:11Z</time>
      </trkpt>
      <trkpt lat="42.409206" lon="1.661831">
        <ele>1487.616</ele>
        <time>2019-05-31T13:55:14Z</time>
      </trkpt>
      <trkpt lat="42.409145" lon="1.661880">
        <ele>1486.652</ele>
        <time>2019-05-31T13:55:15Z</time>
      </trkpt>
      <trkpt lat="42.409090" lon="1.661934">
        <ele>1485.892</ele>
        <time>2019-05-31T13:55:16Z</time>
      </trkpt>
      <trkpt lat="42.409038" lon="1.661984">
        <ele>1485.073</ele>
        <time>2019-05-31T13:55:17Z</time>
      </trkpt>
      <trkpt lat="42.408988" lon="1.662030">
        <ele>1484.620</ele>
        <time>2019-05-31T13:55:18Z</time>
      </trkpt>
      <trkpt lat="42.408853" lon="1.662136">
        <ele>1483.608</ele>
        <time>2019-05-31T13:55:21Z</time>
      </trkpt>
      <trkpt lat="42.408807" lon="1.662168">
        <ele>1483.442</ele>
        <time>2019-05-31T13:55:22Z</time>
      </trkpt>
      <trkpt lat="42.408659" lon="1.662249">
        <ele>1482.456</ele>
        <time>2019-05-31T13:55:25Z</time>
      </trkpt>
      <trkpt lat="42.408617" lon="1.662277">
        <ele>1482.012</ele>
        <time>2019-05-31T13:55:26Z</time>
      </trkpt>
      <trkpt lat="42.408573" lon="1.662294">
        <ele>1482.080</ele>
        <time>2019-05-31T13:55:27Z</time>
      </trkpt>
      <trkpt lat="42.408450" lon="1.662296">
        <ele>1481.234</ele>
        <time>2019-05-31T13:55:30Z</time>
      </trkpt>
      <trkpt lat="42.408413" lon="1.662285">
        <ele>1481.029</ele>
        <time>2019-05-31T13:55:31Z</time>
      </trkpt>
      <trkpt lat="42.408283" lon="1.662192">
        <ele>1480.053</ele>
        <time>2019-05-31T13:55:35Z</time>
      </trkpt>
      <trkpt lat="42.408259" lon="1.662169">
        <ele>1479.419</ele>
        <time>2019-05-31T13:55:36Z</time>
      </trkpt>
      <trkpt lat="42.408204" lon="1.662139">
        <ele>1479.818</ele>
        <time>2019-05-31T13:55:39Z</time>
      </trkpt>
      <trkpt lat="42.408186" lon="1.662151">
        <ele>1479.698</ele>
        <time>2019-05-31T13:55:40Z</time>
      </trkpt>
      <trkpt lat="42.408078" lon="1.662295">
        <ele>1478.617</ele>
        <time>2019-05-31T13:55:44Z</time>
      </trkpt>
      <trkpt lat="42.408051" lon="1.662339">
        <ele>1478.008</ele>
        <time>2019-05-31T13:55:45Z</time>
      </trkpt>
      <trkpt lat="42.408008" lon="1.662425">
        <ele>1477.464</ele>
        <time>2019-05-31T13:55:47Z</time>
      </trkpt>
      <trkpt lat="42.407976" lon="1.662516">
        <ele>1476.878</ele>
        <time>2019-05-31T13:55:49Z</time>
      </trkpt>
      <trkpt lat="42.407973" lon="1.662556">
        <ele>1476.864</ele>
        <time>2019-05-31T13:55:50Z</time>
      </trkpt>
      <trkpt lat="42.407994" lon="1.662640">
        <ele>1477.072</ele>
        <time>2019-05-31T13:55:52Z</time>
      </trkpt>
      <trkpt lat="42.408030" lon="1.662760">
        <ele>1477.076</ele>
        <time>2019-05-31T13:55:56Z</time>
      </trkpt>
      <trkpt lat="42.408091" lon="1.662832">
        <ele>1477.061</ele>
        <time>2019-05-31T13:56:01Z</time>
      </trkpt>
      <trkpt lat="42.408132" lon="1.662772">
        <ele>1477.035</ele>
        <time>2019-05-31T13:56:05Z</time>
      </trkpt>
      <trkpt lat="42.408138" lon="1.662755">
        <ele>1477.061</ele>
        <time>2019-05-31T13:56:06Z</time>
      </trkpt>
      <trkpt lat="42.408160" lon="1.662677">
        <ele>1477.067</ele>
        <time>2019-05-31T13:56:11Z</time>
      </trkpt>
      <trkpt lat="42.408198" lon="1.662681">
        <ele>1476.881</ele>
        <time>2019-05-31T13:56:14Z</time>
      </trkpt>
      <trkpt lat="42.408203" lon="1.662692">
        <ele>1476.819</ele>
        <time>2019-05-31T13:56:15Z</time>
      </trkpt>
      <trkpt lat="42.408163" lon="1.662746">
        <ele>1476.808</ele>
        <time>2019-05-31T13:56:48Z</time>
      </trkpt>
      <trkpt lat="42.408113" lon="1.662791">
        <ele>1476.239</ele>
        <time>2019-05-31T13:56:51Z</time>
      </trkpt>
      <trkpt lat="42.408047" lon="1.662850">
        <ele>1476.683</ele>
        <time>2019-05-31T13:56:54Z</time>
      </trkpt>
      <trkpt lat="42.407996" lon="1.662877">
        <ele>1476.079</ele>
        <time>2019-05-31T13:56:56Z</time>
      </trkpt>
      <trkpt lat="42.407903" lon="1.662939">
        <ele>1476.677</ele>
        <time>2019-05-31T13:57:00Z</time>
      </trkpt>
      <trkpt lat="42.407779" lon="1.663091">
        <ele>1476.871</ele>
        <time>2019-05-31T13:57:07Z</time>
      </trkpt>
      <trkpt lat="42.407652" lon="1.663131">
        <ele>1476.026</ele>
        <time>2019-05-31T13:57:13Z</time>
      </trkpt>
      <trkpt lat="42.407599" lon="1.663135">
        <ele>1475.210</ele>
        <time>2019-05-31T13:57:15Z</time>
      </trkpt>
      <trkpt lat="42.407495" lon="1.663135">
        <ele>1474.046</ele>
        <time>2019-05-31T13:57:18Z</time>
      </trkpt>
      <trkpt lat="42.407458" lon="1.663139">
        <ele>1473.615</ele>
        <time>2019-05-31T13:57:19Z</time>
      </trkpt>
      <trkpt lat="42.407374" lon="1.663144">
        <ele>1472.865</ele>
        <time>2019-05-31T13:57:21Z</time>
      </trkpt>
      <trkpt lat="42.407269" lon="1.663181">
        <ele>1471.411</ele>
        <time>2019-05-31T13:57:24Z</time>
      </trkpt>
      <trkpt lat="42.407166" lon="1.663248">
        <ele>1470.408</ele>
        <time>2019-05-31T13:57:27Z</time>
      </trkpt>
      <trkpt lat="42.407086" lon="1.663294">
        <ele>1469.484</ele>
        <time>2019-05-31T13:57:29Z</time>
      </trkpt>
      <trkpt lat="42.407044" lon="1.663317">
        <ele>1469.028</ele>
        <time>2019-05-31T13:57:30Z</time>
      </trkpt>
      <trkpt lat="42.406965" lon="1.663370">
        <ele>1468.294</ele>
        <time>2019-05-31T13:57:32Z</time>
      </trkpt>
      <trkpt lat="42.406887" lon="1.663438">
        <ele>1467.282</ele>
        <time>2019-05-31T13:57:34Z</time>
      </trkpt>
      <trkpt lat="42.406852" lon="1.663479">
        <ele>1466.816</ele>
        <time>2019-05-31T13:57:35Z</time>
      </trkpt>
      <trkpt lat="42.406824" lon="1.663522">
        <ele>1466.481</ele>
        <time>2019-05-31T13:57:36Z</time>
      </trkpt>
      <trkpt lat="42.406767" lon="1.663608">
        <ele>1465.875</ele>
        <time>2019-05-31T13:57:38Z</time>
      </trkpt>
      <trkpt lat="42.406740" lon="1.663653">
        <ele>1465.471</ele>
        <time>2019-05-31T13:57:39Z</time>
      </trkpt>
      <trkpt lat="42.406690" lon="1.663795">
        <ele>1465.225</ele>
        <time>2019-05-31T13:57:42Z</time>
      </trkpt>
      <trkpt lat="42.406646" lon="1.663883">
        <ele>1464.426</ele>
        <time>2019-05-31T13:57:44Z</time>
      </trkpt>
      <trkpt lat="42.406569" lon="1.663914">
        <ele>1463.408</ele>
        <time>2019-05-31T13:57:46Z</time>
      </trkpt>
      <trkpt lat="42.406535" lon="1.663899">
        <ele>1462.808</ele>
        <time>2019-05-31T13:57:47Z</time>
      </trkpt>
      <trkpt lat="42.406502" lon="1.663811">
        <ele>1462.095</ele>
        <time>2019-05-31T13:57:49Z</time>
      </trkpt>
      <trkpt lat="42.406525" lon="1.663708">
        <ele>1461.469</ele>
        <time>2019-05-31T13:57:51Z</time>
      </trkpt>
      <trkpt lat="42.406542" lon="1.663655">
        <ele>1461.215</ele>
        <time>2019-05-31T13:57:52Z</time>
      </trkpt>
      <trkpt lat="42.406638" lon="1.663429">
        <ele>1460.243</ele>
        <time>2019-05-31T13:57:56Z</time>
      </trkpt>
      <trkpt lat="42.406698" lon="1.663320">
        <ele>1459.657</ele>
        <time>2019-05-31T13:57:58Z</time>
      </trkpt>
      <trkpt lat="42.406893" lon="1.662970">
        <ele>1459.052</ele>
        <time>2019-05-31T13:58:04Z</time>
      </trkpt>
      <trkpt lat="42.406947" lon="1.662868">
        <ele>1459.226</ele>
        <time>2019-05-31T13:58:06Z</time>
      </trkpt>
      <trkpt lat="42.407084" lon="1.662602">
        <ele>1457.872</ele>
        <time>2019-05-31T13:58:11Z</time>
      </trkpt>
      <trkpt lat="42.407136" lon="1.662489">
        <ele>1456.843</ele>
        <time>2019-05-31T13:58:13Z</time>
      </trkpt>
      <trkpt lat="42.407210" lon="1.662341">
        <ele>1455.864</ele>
        <time>2019-05-31T13:58:16Z</time>
      </trkpt>
      <trkpt lat="42.407235" lon="1.662304">
        <ele>1455.410</ele>
        <time>2019-05-31T13:58:17Z</time>
      </trkpt>
      <trkpt lat="42.407255" lon="1.662268">
        <ele>1455.208</ele>
        <time>2019-05-31T13:58:18Z</time>
      </trkpt>
      <trkpt lat="42.407240" lon="1.662166">
        <ele>1455.057</ele>
        <time>2019-05-31T13:58:21Z</time>
      </trkpt>
      <trkpt lat="42.407144" lon="1.662152">
        <ele>1454.211</ele>
        <time>2019-05-31T13:58:24Z</time>
      </trkpt>
      <trkpt lat="42.407090" lon="1.662224">
        <ele>1453.017</ele>
        <time>2019-05-31T13:58:26Z</time>
      </trkpt>
      <trkpt lat="42.407044" lon="1.662306">
        <ele>1452.435</ele>
        <time>2019-05-31T13:58:28Z</time>
      </trkpt>
      <trkpt lat="42.407021" lon="1.662351">
        <ele>1452.079</ele>
        <time>2019-05-31T13:58:29Z</time>
      </trkpt>
      <trkpt lat="42.406979" lon="1.662442">
        <ele>1451.234</ele>
        <time>2019-05-31T13:58:31Z</time>
      </trkpt>
      <trkpt lat="42.406920" lon="1.662522">
        <ele>1450.838</ele>
        <time>2019-05-31T13:58:33Z</time>
      </trkpt>
      <trkpt lat="42.406886" lon="1.662562">
        <ele>1450.644</ele>
        <time>2019-05-31T13:58:34Z</time>
      </trkpt>
      <trkpt lat="42.406786" lon="1.662685">
        <ele>1449.642</ele>
        <time>2019-05-31T13:58:37Z</time>
      </trkpt>
      <trkpt lat="42.406720" lon="1.662756">
        <ele>1449.022</ele>
        <time>2019-05-31T13:58:39Z</time>
      </trkpt>
      <trkpt lat="42.406610" lon="1.662867">
        <ele>1448.414</ele>
        <time>2019-05-31T13:58:42Z</time>
      </trkpt>
      <trkpt lat="42.406501" lon="1.662985">
        <ele>1446.808</ele>
        <time>2019-05-31T13:58:45Z</time>
      </trkpt>
      <trkpt lat="42.406387" lon="1.663098">
        <ele>1445.837</ele>
        <time>2019-05-31T13:58:48Z</time>
      </trkpt>
      <trkpt lat="42.406317" lon="1.663189">
        <ele>1444.891</ele>
        <time>2019-05-31T13:58:50Z</time>
      </trkpt>
      <trkpt lat="42.406203" lon="1.663341">
        <ele>1443.477</ele>
        <time>2019-05-31T13:58:53Z</time>
      </trkpt>
      <trkpt lat="42.406043" lon="1.663552">
        <ele>1442.435</ele>
        <time>2019-05-31T13:58:57Z</time>
      </trkpt>
      <trkpt lat="42.405977" lon="1.663649">
        <ele>1442.089</ele>
        <time>2019-05-31T13:58:59Z</time>
      </trkpt>
      <trkpt lat="42.405896" lon="1.663733">
        <ele>1440.634</ele>
        <time>2019-05-31T13:59:01Z</time>
      </trkpt>
      <trkpt lat="42.405861" lon="1.663774">
        <ele>1440.258</ele>
        <time>2019-05-31T13:59:02Z</time>
      </trkpt>
      <trkpt lat="42.405758" lon="1.663883">
        <ele>1440.064</ele>
        <time>2019-05-31T13:59:05Z</time>
      </trkpt>
      <trkpt lat="42.405688" lon="1.663973">
        <ele>1439.065</ele>
        <time>2019-05-31T13:59:07Z</time>
      </trkpt>
      <trkpt lat="42.405655" lon="1.664025">
        <ele>1438.868</ele>
        <time>2019-05-31T13:59:08Z</time>
      </trkpt>
      <trkpt lat="42.405586" lon="1.664130">
        <ele>1437.814</ele>
        <time>2019-05-31T13:59:10Z</time>
      </trkpt>
      <trkpt lat="42.405501" lon="1.664309">
        <ele>1436.608</ele>
        <time>2019-05-31T13:59:13Z</time>
      </trkpt>
      <trkpt lat="42.405469" lon="1.664538">
        <ele>1435.479</ele>
        <time>2019-05-31T13:59:16Z</time>
      </trkpt>
      <trkpt lat="42.405464" lon="1.664616">
        <ele>1434.823</ele>
        <time>2019-05-31T13:59:17Z</time>
      </trkpt>
      <trkpt lat="42.405461" lon="1.664693">
        <ele>1434.299</ele>
        <time>2019-05-31T13:59:18Z</time>
      </trkpt>
      <trkpt lat="42.405460" lon="1.664847">
        <ele>1433.657</ele>
        <time>2019-05-31T13:59:20Z</time>
      </trkpt>
      <trkpt lat="42.405475" lon="1.664977">
        <ele>1433.271</ele>
        <time>2019-05-31T13:59:22Z</time>
      </trkpt>
      <trkpt lat="42.405432" lon="1.665145">
        <ele>1432.826</ele>
        <time>2019-05-31T13:59:26Z</time>
      </trkpt>
      <trkpt lat="42.405361" lon="1.665140">
        <ele>1432.230</ele>
        <time>2019-05-31T13:59:28Z</time>
      </trkpt>
      <trkpt lat="42.405335" lon="1.665105">
        <ele>1431.866</ele>
        <time>2019-05-31T13:59:29Z</time>
      </trkpt>
      <trkpt lat="42.405318" lon="1.664941">
        <ele>1431.292</ele>
        <time>2019-05-31T13:59:32Z</time>
      </trkpt>
      <trkpt lat="42.405326" lon="1.664882">
        <ele>1430.473</ele>
        <time>2019-05-31T13:59:33Z</time>
      </trkpt>
      <trkpt lat="42.405338" lon="1.664751">
        <ele>1429.220</ele>
        <time>2019-05-31T13:59:35Z</time>
      </trkpt>
      <trkpt lat="42.405340" lon="1.664680">
        <ele>1429.008</ele>
        <time>2019-05-31T13:59:36Z</time>
      </trkpt>
      <trkpt lat="42.405341" lon="1.664609">
        <ele>1428.652</ele>
        <time>2019-05-31T13:59:37Z</time>
      </trkpt>
      <trkpt lat="42.405321" lon="1.664304">
        <ele>1427.836</ele>
        <time>2019-05-31T13:59:42Z</time>
      </trkpt>
      <trkpt lat="42.405322" lon="1.664239">
        <ele>1427.652</ele>
        <time>2019-05-31T13:59:43Z</time>
      </trkpt>
      <trkpt lat="42.405340" lon="1.664024">
        <ele>1427.290</ele>
        <time>2019-05-31T13:59:46Z</time>
      </trkpt>
      <trkpt lat="42.405352" lon="1.663950">
        <ele>1426.664</ele>
        <time>2019-05-31T13:59:47Z</time>
      </trkpt>
      <trkpt lat="42.405372" lon="1.663878">
        <ele>1426.439</ele>
        <time>2019-05-31T13:59:48Z</time>
      </trkpt>
      <trkpt lat="42.405399" lon="1.663810">
        <ele>1426.243</ele>
        <time>2019-05-31T13:59:49Z</time>
      </trkpt>
      <trkpt lat="42.405498" lon="1.663610">
        <ele>1425.459</ele>
        <time>2019-05-31T13:59:52Z</time>
      </trkpt>
      <trkpt lat="42.405638" lon="1.663348">
        <ele>1424.448</ele>
        <time>2019-05-31T13:59:56Z</time>
      </trkpt>
      <trkpt lat="42.405672" lon="1.663281">
        <ele>1424.061</ele>
        <time>2019-05-31T13:59:57Z</time>
      </trkpt>
      <trkpt lat="42.405816" lon="1.662986">
        <ele>1423.017</ele>
        <time>2019-05-31T14:00:01Z</time>
      </trkpt>
      <trkpt lat="42.405935" lon="1.662746">
        <ele>1422.208</ele>
        <time>2019-05-31T14:00:04Z</time>
      </trkpt>
      <trkpt lat="42.405978" lon="1.662666">
        <ele>1421.887</ele>
        <time>2019-05-31T14:00:05Z</time>
      </trkpt>
      <trkpt lat="42.406170" lon="1.662335">
        <ele>1420.611</ele>
        <time>2019-05-31T14:00:09Z</time>
      </trkpt>
      <trkpt lat="42.406215" lon="1.662261">
        <ele>1420.297</ele>
        <time>2019-05-31T14:00:10Z</time>
      </trkpt>
      <trkpt lat="42.406331" lon="1.662093">
        <ele>1420.445</ele>
        <time>2019-05-31T14:00:13Z</time>
      </trkpt>
      <trkpt lat="42.406362" lon="1.662045">
        <ele>1419.839</ele>
        <time>2019-05-31T14:00:14Z</time>
      </trkpt>
      <trkpt lat="42.406380" lon="1.661991">
        <ele>1419.444</ele>
        <time>2019-05-31T14:00:15Z</time>
      </trkpt>
      <trkpt lat="42.406346" lon="1.661899">
        <ele>1419.058</ele>
        <time>2019-05-31T14:00:17Z</time>
      </trkpt>
      <trkpt lat="42.406252" lon="1.661887">
        <ele>1418.484</ele>
        <time>2019-05-31T14:00:19Z</time>
      </trkpt>
      <trkpt lat="42.406137" lon="1.662056">
        <ele>1417.091</ele>
        <time>2019-05-31T14:00:22Z</time>
      </trkpt>
      <trkpt lat="42.406059" lon="1.662183">
        <ele>1416.281</ele>
        <time>2019-05-31T14:00:24Z</time>
      </trkpt>
      <trkpt lat="42.406020" lon="1.662246">
        <ele>1415.619</ele>
        <time>2019-05-31T14:00:25Z</time>
      </trkpt>
      <trkpt lat="42.405934" lon="1.662368">
        <ele>1414.208</ele>
        <time>2019-05-31T14:00:27Z</time>
      </trkpt>
      <trkpt lat="42.405720" lon="1.662680">
        <ele>1413.052</ele>
        <time>2019-05-31T14:00:32Z</time>
      </trkpt>
      <trkpt lat="42.405625" lon="1.662796">
        <ele>1412.486</ele>
        <time>2019-05-31T14:00:34Z</time>
      </trkpt>
      <trkpt lat="42.405577" lon="1.662850">
        <ele>1412.032</ele>
        <time>2019-05-31T14:00:35Z</time>
      </trkpt>
      <trkpt lat="42.405479" lon="1.662963">
        <ele>1411.060</ele>
        <time>2019-05-31T14:00:37Z</time>
      </trkpt>
      <trkpt lat="42.405327" lon="1.663145">
        <ele>1409.894</ele>
        <time>2019-05-31T14:00:40Z</time>
      </trkpt>
      <trkpt lat="42.405178" lon="1.663335">
        <ele>1408.649</ele>
        <time>2019-05-31T14:00:43Z</time>
      </trkpt>
      <trkpt lat="42.405128" lon="1.663406">
        <ele>1408.423</ele>
        <time>2019-05-31T14:00:44Z</time>
      </trkpt>
      <trkpt lat="42.404979" lon="1.663636">
        <ele>1407.059</ele>
        <time>2019-05-31T14:00:47Z</time>
      </trkpt>
      <trkpt lat="42.404930" lon="1.663714">
        <ele>1406.233</ele>
        <time>2019-05-31T14:00:48Z</time>
      </trkpt>
      <trkpt lat="42.404880" lon="1.663792">
        <ele>1405.423</ele>
        <time>2019-05-31T14:00:49Z</time>
      </trkpt>
      <trkpt lat="42.404780" lon="1.663942">
        <ele>1404.415</ele>
        <time>2019-05-31T14:00:51Z</time>
      </trkpt>
      <trkpt lat="42.404683" lon="1.664083">
        <ele>1403.208</ele>
        <time>2019-05-31T14:00:53Z</time>
      </trkpt>
      <trkpt lat="42.404593" lon="1.664207">
        <ele>1402.876</ele>
        <time>2019-05-31T14:00:55Z</time>
      </trkpt>
      <trkpt lat="42.404504" lon="1.664316">
        <ele>1401.830</ele>
        <time>2019-05-31T14:00:57Z</time>
      </trkpt>
      <trkpt lat="42.404326" lon="1.664501">
        <ele>1400.216</ele>
        <time>2019-05-31T14:01:01Z</time>
      </trkpt>
      <trkpt lat="42.404238" lon="1.664597">
        <ele>1398.854</ele>
        <time>2019-05-31T14:01:03Z</time>
      </trkpt>
      <trkpt lat="42.404141" lon="1.664699">
        <ele>1397.458</ele>
        <time>2019-05-31T14:01:05Z</time>
      </trkpt>
      <trkpt lat="42.404000" lon="1.664852">
        <ele>1397.483</ele>
        <time>2019-05-31T14:01:08Z</time>
      </trkpt>
      <trkpt lat="42.403962" lon="1.664907">
        <ele>1397.077</ele>
        <time>2019-05-31T14:01:09Z</time>
      </trkpt>
      <trkpt lat="42.403932" lon="1.664966">
        <ele>1396.443</ele>
        <time>2019-05-31T14:01:10Z</time>
      </trkpt>
      <trkpt lat="42.403907" lon="1.665091">
        <ele>1396.073</ele>
        <time>2019-05-31T14:01:12Z</time>
      </trkpt>
      <trkpt lat="42.403939" lon="1.665217">
        <ele>1394.885</ele>
        <time>2019-05-31T14:01:14Z</time>
      </trkpt>
      <trkpt lat="42.403971" lon="1.665279">
        <ele>1394.013</ele>
        <time>2019-05-31T14:01:15Z</time>
      </trkpt>
      <trkpt lat="42.404010" lon="1.665340">
        <ele>1393.608</ele>
        <time>2019-05-31T14:01:16Z</time>
      </trkpt>
      <trkpt lat="42.404052" lon="1.665402">
        <ele>1393.470</ele>
        <time>2019-05-31T14:01:17Z</time>
      </trkpt>
      <trkpt lat="42.404189" lon="1.665548">
        <ele>1392.094</ele>
        <time>2019-05-31T14:01:20Z</time>
      </trkpt>
      <trkpt lat="42.404277" lon="1.665623">
        <ele>1390.460</ele>
        <time>2019-05-31T14:01:22Z</time>
      </trkpt>
      <trkpt lat="42.404317" lon="1.665647">
        <ele>1390.288</ele>
        <time>2019-05-31T14:01:23Z</time>
      </trkpt>
      <trkpt lat="42.404354" lon="1.665671">
        <ele>1390.212</ele>
        <time>2019-05-31T14:01:24Z</time>
      </trkpt>
      <trkpt lat="42.404442" lon="1.665803">
        <ele>1389.467</ele>
        <time>2019-05-31T14:01:28Z</time>
      </trkpt>
      <trkpt lat="42.404380" lon="1.665908">
        <ele>1388.291</ele>
        <time>2019-05-31T14:01:31Z</time>
      </trkpt>
      <trkpt lat="42.404251" lon="1.665860">
        <ele>1386.677</ele>
        <time>2019-05-31T14:01:34Z</time>
      </trkpt>
      <trkpt lat="42.404158" lon="1.665793">
        <ele>1385.426</ele>
        <time>2019-05-31T14:01:36Z</time>
      </trkpt>
      <trkpt lat="42.404067" lon="1.665724">
        <ele>1384.047</ele>
        <time>2019-05-31T14:01:38Z</time>
      </trkpt>
      <trkpt lat="42.403979" lon="1.665667">
        <ele>1383.211</ele>
        <time>2019-05-31T14:01:40Z</time>
      </trkpt>
      <trkpt lat="42.403936" lon="1.665638">
        <ele>1382.208</ele>
        <time>2019-05-31T14:01:41Z</time>
      </trkpt>
      <trkpt lat="42.403810" lon="1.665547">
        <ele>1381.245</ele>
        <time>2019-05-31T14:01:44Z</time>
      </trkpt>
      <trkpt lat="42.403726" lon="1.665480">
        <ele>1380.049</ele>
        <time>2019-05-31T14:01:46Z</time>
      </trkpt>
      <trkpt lat="42.403632" lon="1.665417">
        <ele>1378.825</ele>
        <time>2019-05-31T14:01:48Z</time>
      </trkpt>
      <trkpt lat="42.403541" lon="1.665366">
        <ele>1377.613</ele>
        <time>2019-05-31T14:01:50Z</time>
      </trkpt>
      <trkpt lat="42.403496" lon="1.665344">
        <ele>1377.227</ele>
        <time>2019-05-31T14:01:51Z</time>
      </trkpt>
      <trkpt lat="42.403411" lon="1.665297">
        <ele>1376.272</ele>
        <time>2019-05-31T14:01:53Z</time>
      </trkpt>
      <trkpt lat="42.403275" lon="1.665226">
        <ele>1374.836</ele>
        <time>2019-05-31T14:01:56Z</time>
      </trkpt>
      <trkpt lat="42.403186" lon="1.665193">
        <ele>1374.292</ele>
        <time>2019-05-31T14:01:58Z</time>
      </trkpt>
      <trkpt lat="42.403096" lon="1.665156">
        <ele>1373.699</ele>
        <time>2019-05-31T14:02:00Z</time>
      </trkpt>
      <trkpt lat="42.403019" lon="1.665094">
        <ele>1372.807</ele>
        <time>2019-05-31T14:02:02Z</time>
      </trkpt>
      <trkpt lat="42.402989" lon="1.665056">
        <ele>1372.227</ele>
        <time>2019-05-31T14:02:03Z</time>
      </trkpt>
      <trkpt lat="42.402959" lon="1.665015">
        <ele>1372.008</ele>
        <time>2019-05-31T14:02:04Z</time>
      </trkpt>
      <trkpt lat="42.402924" lon="1.664979">
        <ele>1371.682</ele>
        <time>2019-05-31T14:02:05Z</time>
      </trkpt>
      <trkpt lat="42.402885" lon="1.664943">
        <ele>1371.056</ele>
        <time>2019-05-31T14:02:06Z</time>
      </trkpt>
      <trkpt lat="42.402839" lon="1.664911">
        <ele>1370.212</ele>
        <time>2019-05-31T14:02:07Z</time>
      </trkpt>
      <trkpt lat="42.402790" lon="1.664881">
        <ele>1369.830</ele>
        <time>2019-05-31T14:02:08Z</time>
      </trkpt>
      <trkpt lat="42.402677" lon="1.664830">
        <ele>1367.874</ele>
        <time>2019-05-31T14:02:10Z</time>
      </trkpt>
      <trkpt lat="42.402611" lon="1.664823">
        <ele>1367.479</ele>
        <time>2019-05-31T14:02:11Z</time>
      </trkpt>
      <trkpt lat="42.402468" lon="1.664837">
        <ele>1366.033</ele>
        <time>2019-05-31T14:02:13Z</time>
      </trkpt>
      <trkpt lat="42.402262" lon="1.664826">
        <ele>1364.859</ele>
        <time>2019-05-31T14:02:16Z</time>
      </trkpt>
      <trkpt lat="42.402139" lon="1.664806">
        <ele>1363.863</ele>
        <time>2019-05-31T14:02:18Z</time>
      </trkpt>
      <trkpt lat="42.401952" lon="1.664782">
        <ele>1363.644</ele>
        <time>2019-05-31T14:02:21Z</time>
      </trkpt>
      <trkpt lat="42.401898" lon="1.664758">
        <ele>1363.018</ele>
        <time>2019-05-31T14:02:22Z</time>
      </trkpt>
      <trkpt lat="42.401788" lon="1.664726">
        <ele>1362.408</ele>
        <time>2019-05-31T14:02:24Z</time>
      </trkpt>
      <trkpt lat="42.401679" lon="1.664729">
        <ele>1361.269</ele>
        <time>2019-05-31T14:02:26Z</time>
      </trkpt>
      <trkpt lat="42.401579" lon="1.664781">
        <ele>1360.213</ele>
        <time>2019-05-31T14:02:28Z</time>
      </trkpt>
      <trkpt lat="42.401489" lon="1.664901">
        <ele>1359.299</ele>
        <time>2019-05-31T14:02:30Z</time>
      </trkpt>
      <trkpt lat="42.401436" lon="1.664958">
        <ele>1358.687</ele>
        <time>2019-05-31T14:02:31Z</time>
      </trkpt>
      <trkpt lat="42.401324" lon="1.665076">
        <ele>1357.291</ele>
        <time>2019-05-31T14:02:33Z</time>
      </trkpt>
      <trkpt lat="42.401264" lon="1.665130">
        <ele>1356.656</ele>
        <time>2019-05-31T14:02:34Z</time>
      </trkpt>
      <trkpt lat="42.401153" lon="1.665222">
        <ele>1356.410</ele>
        <time>2019-05-31T14:02:36Z</time>
      </trkpt>
      <trkpt lat="42.401098" lon="1.665255">
        <ele>1356.276</ele>
        <time>2019-05-31T14:02:37Z</time>
      </trkpt>
      <trkpt lat="42.400940" lon="1.665370">
        <ele>1355.494</ele>
        <time>2019-05-31T14:02:40Z</time>
      </trkpt>
      <trkpt lat="42.400891" lon="1.665411">
        <ele>1355.057</ele>
        <time>2019-05-31T14:02:41Z</time>
      </trkpt>
      <trkpt lat="42.400837" lon="1.665446">
        <ele>1355.022</ele>
        <time>2019-05-31T14:02:42Z</time>
      </trkpt>
      <trkpt lat="42.400728" lon="1.665492">
        <ele>1354.608</ele>
        <time>2019-05-31T14:02:44Z</time>
      </trkpt>
      <trkpt lat="42.400673" lon="1.665519">
        <ele>1354.012</ele>
        <time>2019-05-31T14:02:45Z</time>
      </trkpt>
      <trkpt lat="42.400616" lon="1.665546">
        <ele>1353.476</ele>
        <time>2019-05-31T14:02:46Z</time>
      </trkpt>
      <trkpt lat="42.400558" lon="1.665578">
        <ele>1352.622</ele>
        <time>2019-05-31T14:02:47Z</time>
      </trkpt>
      <trkpt lat="42.400430" lon="1.665631">
        <ele>1351.620</ele>
        <time>2019-05-31T14:02:49Z</time>
      </trkpt>
      <trkpt lat="42.400358" lon="1.665648">
        <ele>1351.074</ele>
        <time>2019-05-31T14:02:50Z</time>
      </trkpt>
      <trkpt lat="42.400152" lon="1.665670">
        <ele>1349.859</ele>
        <time>2019-05-31T14:02:53Z</time>
      </trkpt>
      <trkpt lat="42.400084" lon="1.665679">
        <ele>1349.673</ele>
        <time>2019-05-31T14:02:54Z</time>
      </trkpt>
      <trkpt lat="42.399889" lon="1.665716">
        <ele>1348.439</ele>
        <time>2019-05-31T14:02:57Z</time>
      </trkpt>
      <trkpt lat="42.399707" lon="1.665756">
        <ele>1347.043</ele>
        <time>2019-05-31T14:03:00Z</time>
      </trkpt>
      <trkpt lat="42.399581" lon="1.665787">
        <ele>1345.864</ele>
        <time>2019-05-31T14:03:02Z</time>
      </trkpt>
      <trkpt lat="42.399385" lon="1.665858">
        <ele>1344.410</ele>
        <time>2019-05-31T14:03:05Z</time>
      </trkpt>
      <trkpt lat="42.399273" lon="1.665948">
        <ele>1343.208</ele>
        <time>2019-05-31T14:03:07Z</time>
      </trkpt>
      <trkpt lat="42.398984" lon="1.666159">
        <ele>1343.077</ele>
        <time>2019-05-31T14:03:12Z</time>
      </trkpt>
      <trkpt lat="42.398919" lon="1.666179">
        <ele>1342.651</ele>
        <time>2019-05-31T14:03:13Z</time>
      </trkpt>
      <trkpt lat="42.398855" lon="1.666197">
        <ele>1340.227</ele>
        <time>2019-05-31T14:03:14Z</time>
      </trkpt>
      <trkpt lat="42.398662" lon="1.666246">
        <ele>1342.685</ele>
        <time>2019-05-31T14:03:17Z</time>
      </trkpt>
      <trkpt lat="42.398539" lon="1.666271">
        <ele>1342.239</ele>
        <time>2019-05-31T14:03:19Z</time>
      </trkpt>
      <trkpt lat="42.398421" lon="1.666298">
        <ele>1341.494</ele>
        <time>2019-05-31T14:03:21Z</time>
      </trkpt>
      <trkpt lat="42.398305" lon="1.666318">
        <ele>1341.088</ele>
        <time>2019-05-31T14:03:23Z</time>
      </trkpt>
      <trkpt lat="42.398194" lon="1.666327">
        <ele>1340.464</ele>
        <time>2019-05-31T14:03:25Z</time>
      </trkpt>
      <trkpt lat="42.397868" lon="1.666354">
        <ele>1340.041</ele>
        <time>2019-05-31T14:03:31Z</time>
      </trkpt>
      <trkpt lat="42.397808" lon="1.666364">
        <ele>1339.281</ele>
        <time>2019-05-31T14:03:32Z</time>
      </trkpt>
      <trkpt lat="42.397550" lon="1.666396">
        <ele>1338.009</ele>
        <time>2019-05-31T14:03:36Z</time>
      </trkpt>
      <trkpt lat="42.397482" lon="1.666407">
        <ele>1337.808</ele>
        <time>2019-05-31T14:03:37Z</time>
      </trkpt>
      <trkpt lat="42.397186" lon="1.666426">
        <ele>1337.237</ele>
        <time>2019-05-31T14:03:41Z</time>
      </trkpt>
      <trkpt lat="42.397110" lon="1.666412">
        <ele>1336.821</ele>
        <time>2019-05-31T14:03:42Z</time>
      </trkpt>
      <trkpt lat="42.396881" lon="1.666381">
        <ele>1335.477</ele>
        <time>2019-05-31T14:03:45Z</time>
      </trkpt>
      <trkpt lat="42.396808" lon="1.666405">
        <ele>1335.455</ele>
        <time>2019-05-31T14:03:46Z</time>
      </trkpt>
      <trkpt lat="42.396622" lon="1.666548">
        <ele>1335.679</ele>
        <time>2019-05-31T14:03:49Z</time>
      </trkpt>
      <trkpt lat="42.396454" lon="1.666709">
        <ele>1335.464</ele>
        <time>2019-05-31T14:03:52Z</time>
      </trkpt>
      <trkpt lat="42.396269" lon="1.666822">
        <ele>1334.678</ele>
        <time>2019-05-31T14:03:55Z</time>
      </trkpt>
      <trkpt lat="42.396203" lon="1.666845">
        <ele>1334.494</ele>
        <time>2019-05-31T14:03:56Z</time>
      </trkpt>
      <trkpt lat="42.396011" lon="1.666896">
        <ele>1334.468</ele>
        <time>2019-05-31T14:03:59Z</time>
      </trkpt>
      <trkpt lat="42.395784" lon="1.666912">
        <ele>1334.642</ele>
        <time>2019-05-31T14:04:03Z</time>
      </trkpt>
      <trkpt lat="42.395737" lon="1.666874">
        <ele>1334.226</ele>
        <time>2019-05-31T14:04:04Z</time>
      </trkpt>
      <trkpt lat="42.395653" lon="1.666675">
        <ele>1334.208</ele>
        <time>2019-05-31T14:04:07Z</time>
      </trkpt>
      <trkpt lat="42.395631" lon="1.666500">
        <ele>1333.829</ele>
        <time>2019-05-31T14:04:09Z</time>
      </trkpt>
      <trkpt lat="42.395600" lon="1.666166">
        <ele>1333.693</ele>
        <time>2019-05-31T14:04:13Z</time>
      </trkpt>
      <trkpt lat="42.395616" lon="1.666006">
        <ele>1333.289</ele>
        <time>2019-05-31T14:04:15Z</time>
      </trkpt>
      <trkpt lat="42.395645" lon="1.665875">
        <ele>1333.667</ele>
        <time>2019-05-31T14:04:17Z</time>
      </trkpt>
      <trkpt lat="42.395645" lon="1.665816">
        <ele>1333.881</ele>
        <time>2019-05-31T14:04:18Z</time>
      </trkpt>
      <trkpt lat="42.395632" lon="1.665725">
        <ele>1333.496</ele>
        <time>2019-05-31T14:04:20Z</time>
      </trkpt>
      <trkpt lat="42.395510" lon="1.665668">
        <ele>1333.840</ele>
        <time>2019-05-31T14:04:23Z</time>
      </trkpt>
      <trkpt lat="42.395415" lon="1.665704">
        <ele>1333.426</ele>
        <time>2019-05-31T14:04:25Z</time>
      </trkpt>
      <trkpt lat="42.395376" lon="1.665735">
        <ele>1333.282</ele>
        <time>2019-05-31T14:04:26Z</time>
      </trkpt>
      <trkpt lat="42.395340" lon="1.665769">
        <ele>1333.643</ele>
        <time>2019-05-31T14:04:27Z</time>
      </trkpt>
      <trkpt lat="42.395203" lon="1.665917">
        <ele>1333.817</ele>
        <time>2019-05-31T14:04:31Z</time>
      </trkpt>
      <trkpt lat="42.395139" lon="1.666004">
        <ele>1333.808</ele>
        <time>2019-05-31T14:04:33Z</time>
      </trkpt>
      <trkpt lat="42.395022" lon="1.666125">
        <ele>1333.681</ele>
        <time>2019-05-31T14:04:36Z</time>
      </trkpt>
      <trkpt lat="42.394955" lon="1.666234">
        <ele>1333.265</ele>
        <time>2019-05-31T14:04:38Z</time>
      </trkpt>
      <trkpt lat="42.394892" lon="1.666422">
        <ele>1332.621</ele>
        <time>2019-05-31T14:04:41Z</time>
      </trkpt>
      <trkpt lat="42.394882" lon="1.666486">
        <ele>1333.049</ele>
        <time>2019-05-31T14:04:42Z</time>
      </trkpt>
      <trkpt lat="42.394828" lon="1.666706">
        <ele>1333.883</ele>
        <time>2019-05-31T14:04:46Z</time>
      </trkpt>
      <trkpt lat="42.394797" lon="1.666798">
        <ele>1334.498</ele>
        <time>2019-05-31T14:04:48Z</time>
      </trkpt>
      <trkpt lat="42.394760" lon="1.666876">
        <ele>1334.662</ele>
        <time>2019-05-31T14:04:50Z</time>
      </trkpt>
      <trkpt lat="42.394742" lon="1.666912">
        <ele>1334.818</ele>
        <time>2019-05-31T14:04:51Z</time>
      </trkpt>
      <trkpt lat="42.394679" lon="1.667055">
        <ele>1335.251</ele>
        <time>2019-05-31T14:04:55Z</time>
      </trkpt>
      <trkpt lat="42.394667" lon="1.667089">
        <ele>1335.401</ele>
        <time>2019-05-31T14:04:56Z</time>
      </trkpt>
      <trkpt lat="42.394601" lon="1.667199">
        <ele>1336.011</ele>
        <time>2019-05-31T14:05:00Z</time>
      </trkpt>
      <trkpt lat="42.394582" lon="1.667222">
        <ele>1336.208</ele>
        <time>2019-05-31T14:05:01Z</time>
      </trkpt>
      <trkpt lat="42.394566" lon="1.667241">
        <ele>1336.458</ele>
        <time>2019-05-31T14:05:02Z</time>
      </trkpt>
      <trkpt lat="42.394474" lon="1.667334">
        <ele>1337.052</ele>
        <time>2019-05-31T14:05:08Z</time>
      </trkpt>
      <trkpt lat="42.394378" lon="1.667391">
        <ele>1334.838</ele>
        <time>2019-05-31T14:05:13Z</time>
      </trkpt>
      <trkpt lat="42.394359" lon="1.667405">
        <ele>1336.056</ele>
        <time>2019-05-31T14:05:14Z</time>
      </trkpt>
      <trkpt lat="42.394340" lon="1.667417">
        <ele>1337.240</ele>
        <time>2019-05-31T14:05:15Z</time>
      </trkpt>
      <trkpt lat="42.394324" lon="1.667430">
        <ele>1338.655</ele>
        <time>2019-05-31T14:05:16Z</time>
      </trkpt>
      <trkpt lat="42.394248" lon="1.667523">
        <ele>1338.429</ele>
        <time>2019-05-31T14:05:21Z</time>
      </trkpt>
      <trkpt lat="42.394229" lon="1.667533">
        <ele>1338.495</ele>
        <time>2019-05-31T14:05:22Z</time>
      </trkpt>
      <trkpt lat="42.394168" lon="1.667557">
        <ele>1338.827</ele>
        <time>2019-05-31T14:05:25Z</time>
      </trkpt>
      <trkpt lat="42.394140" lon="1.667577">
        <ele>1339.268</ele>
        <time>2019-05-31T14:05:27Z</time>
      </trkpt>
      <trkpt lat="42.394101" lon="1.667615">
        <ele>1339.614</ele>
        <time>2019-05-31T14:05:30Z</time>
      </trkpt>
      <trkpt lat="42.394087" lon="1.667627">
        <ele>1339.808</ele>
        <time>2019-05-31T14:05:31Z</time>
      </trkpt>
      <trkpt lat="42.393970" lon="1.667717">
        <ele>1340.695</ele>
        <time>2019-05-31T14:05:39Z</time>
      </trkpt>
      <trkpt lat="42.393957" lon="1.667728">
        <ele>1340.629</ele>
        <time>2019-05-31T14:05:40Z</time>
      </trkpt>
      <trkpt lat="42.393853" lon="1.667831">
        <ele>1341.245</ele>
        <time>2019-05-31T14:05:45Z</time>
      </trkpt>
      <trkpt lat="42.393817" lon="1.667871">
        <ele>1341.633</ele>
        <time>2019-05-31T14:05:47Z</time>
      </trkpt>
      <trkpt lat="42.393786" lon="1.667899">
        <ele>1342.017</ele>
        <time>2019-05-31T14:05:49Z</time>
      </trkpt>
      <trkpt lat="42.393754" lon="1.667937">
        <ele>1342.282</ele>
        <time>2019-05-31T14:05:51Z</time>
      </trkpt>
      <trkpt lat="42.393606" lon="1.668097">
        <ele>1343.036</ele>
        <time>2019-05-31T14:06:00Z</time>
      </trkpt>
      <trkpt lat="42.393503" lon="1.668254">
        <ele>1343.842</ele>
        <time>2019-05-31T14:06:08Z</time>
      </trkpt>
      <trkpt lat="42.393487" lon="1.668272">
        <ele>1344.037</ele>
        <time>2019-05-31T14:06:09Z</time>
      </trkpt>
      <trkpt lat="42.393377" lon="1.668328">
        <ele>1345.849</ele>
        <time>2019-05-31T14:06:15Z</time>
      </trkpt>
      <trkpt lat="42.393359" lon="1.668337">
        <ele>1344.413</ele>
        <time>2019-05-31T14:06:16Z</time>
      </trkpt>
      <trkpt lat="42.393339" lon="1.668343">
        <ele>1344.408</ele>
        <time>2019-05-31T14:06:17Z</time>
      </trkpt>
      <trkpt lat="42.393239" lon="1.668356">
        <ele>1344.666</ele>
        <time>2019-05-31T14:06:23Z</time>
      </trkpt>
      <trkpt lat="42.393113" lon="1.668380">
        <ele>1345.410</ele>
        <time>2019-05-31T14:06:30Z</time>
      </trkpt>
      <trkpt lat="42.392985" lon="1.668395">
        <ele>1345.846</ele>
        <time>2019-05-31T14:06:37Z</time>
      </trkpt>
      <trkpt lat="42.392866" lon="1.668408">
        <ele>1346.034</ele>
        <time>2019-05-31T14:06:43Z</time>
      </trkpt>
      <trkpt lat="42.392761" lon="1.668403">
        <ele>1346.428</ele>
        <time>2019-05-31T14:06:48Z</time>
      </trkpt>
      <trkpt lat="42.392667" lon="1.668414">
        <ele>1346.893</ele>
        <time>2019-05-31T14:06:53Z</time>
      </trkpt>
      <trkpt lat="42.392544" lon="1.668429">
        <ele>1347.057</ele>
        <time>2019-05-31T14:06:59Z</time>
      </trkpt>
      <trkpt lat="42.392390" lon="1.668458">
        <ele>1347.433</ele>
        <time>2019-05-31T14:07:08Z</time>
      </trkpt>
      <trkpt lat="42.392355" lon="1.668472">
        <ele>1347.413</ele>
        <time>2019-05-31T14:07:10Z</time>
      </trkpt>
      <trkpt lat="42.392301" lon="1.668486">
        <ele>1347.843</ele>
        <time>2019-05-31T14:07:14Z</time>
      </trkpt>
      <trkpt lat="42.392200" lon="1.668483">
        <ele>1348.607</ele>
        <time>2019-05-31T14:07:21Z</time>
      </trkpt>
      <trkpt lat="42.392112" lon="1.668497">
        <ele>1349.608</ele>
        <time>2019-05-31T14:07:28Z</time>
      </trkpt>
      <trkpt lat="42.392069" lon="1.668507">
        <ele>1349.854</ele>
        <time>2019-05-31T14:07:31Z</time>
      </trkpt>
      <trkpt lat="42.392017" lon="1.668506">
        <ele>1350.248</ele>
        <time>2019-05-31T14:07:35Z</time>
      </trkpt>
      <trkpt lat="42.391949" lon="1.668508">
        <ele>1350.894</ele>
        <time>2019-05-31T14:07:40Z</time>
      </trkpt>
      <trkpt lat="42.391923" lon="1.668503">
        <ele>1351.242</ele>
        <time>2019-05-31T14:07:42Z</time>
      </trkpt>
      <trkpt lat="42.391874" lon="1.668482">
        <ele>1349.266</ele>
        <time>2019-05-31T14:07:46Z</time>
      </trkpt>
      <trkpt lat="42.391861" lon="1.668480">
        <ele>1349.841</ele>
        <time>2019-05-31T14:07:47Z</time>
      </trkpt>
      <trkpt lat="42.391838" lon="1.668483">
        <ele>1352.045</ele>
        <time>2019-05-31T14:07:49Z</time>
      </trkpt>
      <trkpt lat="42.391791" lon="1.668456">
        <ele>1351.641</ele>
        <time>2019-05-31T14:07:53Z</time>
      </trkpt>
      <trkpt lat="42.391759" lon="1.668436">
        <ele>1352.445</ele>
        <time>2019-05-31T14:07:56Z</time>
      </trkpt>
      <trkpt lat="42.391708" lon="1.668386">
        <ele>1353.047</ele>
        <time>2019-05-31T14:08:01Z</time>
      </trkpt>
      <trkpt lat="42.391688" lon="1.668355">
        <ele>1353.211</ele>
        <time>2019-05-31T14:08:03Z</time>
      </trkpt>
      <trkpt lat="42.391645" lon="1.668237">
        <ele>1353.408</ele>
        <time>2019-05-31T14:08:10Z</time>
      </trkpt>
      <trkpt lat="42.391618" lon="1.668179">
        <ele>1354.047</ele>
        <time>2019-05-31T14:08:13Z</time>
      </trkpt>
      <trkpt lat="42.391597" lon="1.668138">
        <ele>1354.061</ele>
        <time>2019-05-31T14:08:15Z</time>
      </trkpt>
      <trkpt lat="42.391568" lon="1.668082">
        <ele>1354.247</ele>
        <time>2019-05-31T14:08:18Z</time>
      </trkpt>
      <trkpt lat="42.391478" lon="1.667969">
        <ele>1354.885</ele>
        <time>2019-05-31T14:08:25Z</time>
      </trkpt>
      <trkpt lat="42.391449" lon="1.667957">
        <ele>1355.029</ele>
        <time>2019-05-31T14:08:27Z</time>
      </trkpt>
      <trkpt lat="42.391263" lon="1.667929">
        <ele>1355.824</ele>
        <time>2019-05-31T14:08:42Z</time>
      </trkpt>
      <trkpt lat="42.391174" lon="1.667890">
        <ele>1356.048</ele>
        <time>2019-05-31T14:08:46Z</time>
      </trkpt>
      <trkpt lat="42.391151" lon="1.667882">
        <ele>1356.084</ele>
        <time>2019-05-31T14:08:47Z</time>
      </trkpt>
      <trkpt lat="42.390996" lon="1.667883">
        <ele>1356.659</ele>
        <time>2019-05-31T14:08:54Z</time>
      </trkpt>
      <trkpt lat="42.390862" lon="1.667914">
        <ele>1356.803</ele>
        <time>2019-05-31T14:09:01Z</time>
      </trkpt>
      <trkpt lat="42.390823" lon="1.667928">
        <ele>1357.023</ele>
        <time>2019-05-31T14:09:03Z</time>
      </trkpt>
      <trkpt lat="42.390722" lon="1.667949">
        <ele>1357.608</ele>
        <time>2019-05-31T14:09:08Z</time>
      </trkpt>
      <trkpt lat="42.390564" lon="1.667998">
        <ele>1358.058</ele>
        <time>2019-05-31T14:09:15Z</time>
      </trkpt>
      <trkpt lat="42.390539" lon="1.668003">
        <ele>1358.242</ele>
        <time>2019-05-31T14:09:16Z</time>
      </trkpt>
      <trkpt lat="42.390390" lon="1.668027">
        <ele>1357.848</ele>
        <time>2019-05-31T14:09:22Z</time>
      </trkpt>
      <trkpt lat="42.390182" lon="1.668051">
        <ele>1358.246</ele>
        <time>2019-05-31T14:09:30Z</time>
      </trkpt>
      <trkpt lat="42.390058" lon="1.668091">
        <ele>1359.060</ele>
        <time>2019-05-31T14:09:36Z</time>
      </trkpt>
      <trkpt lat="42.389927" lon="1.668121">
        <ele>1358.885</ele>
        <time>2019-05-31T14:09:42Z</time>
      </trkpt>
      <trkpt lat="42.389786" lon="1.668164">
        <ele>1359.259</ele>
        <time>2019-05-31T14:09:48Z</time>
      </trkpt>
      <trkpt lat="42.389710" lon="1.668183">
        <ele>1359.445</ele>
        <time>2019-05-31T14:09:51Z</time>
      </trkpt>
      <trkpt lat="42.389530" lon="1.668238">
        <ele>1359.299</ele>
        <time>2019-05-31T14:09:58Z</time>
      </trkpt>
      <trkpt lat="42.389343" lon="1.668360">
        <ele>1359.607</ele>
        <time>2019-05-31T14:10:06Z</time>
      </trkpt>
      <trkpt lat="42.389249" lon="1.668574">
        <ele>1358.827</ele>
        <time>2019-05-31T14:10:12Z</time>
      </trkpt>
      <trkpt lat="42.389188" lon="1.668788">
        <ele>1358.208</ele>
        <time>2019-05-31T14:10:16Z</time>
      </trkpt>
      <trkpt lat="42.389162" lon="1.668846">
        <ele>1357.862</ele>
        <time>2019-05-31T14:10:17Z</time>
      </trkpt>
      <trkpt lat="42.389133" lon="1.668914">
        <ele>1357.236</ele>
        <time>2019-05-31T14:10:18Z</time>
      </trkpt>
      <trkpt lat="42.389092" lon="1.668972">
        <ele>1356.882</ele>
        <time>2019-05-31T14:10:19Z</time>
      </trkpt>
      <trkpt lat="42.388995" lon="1.669067">
        <ele>1356.410</ele>
        <time>2019-05-31T14:10:21Z</time>
      </trkpt>
      <trkpt lat="42.388940" lon="1.669102">
        <ele>1356.014</ele>
        <time>2019-05-31T14:10:22Z</time>
      </trkpt>
      <trkpt lat="42.388824" lon="1.669152">
        <ele>1355.689</ele>
        <time>2019-05-31T14:10:24Z</time>
      </trkpt>
      <trkpt lat="42.388766" lon="1.669165">
        <ele>1355.493</ele>
        <time>2019-05-31T14:10:25Z</time>
      </trkpt>
      <trkpt lat="42.388489" lon="1.669158">
        <ele>1355.059</ele>
        <time>2019-05-31T14:10:30Z</time>
      </trkpt>
      <trkpt lat="42.388437" lon="1.669142">
        <ele>1354.642</ele>
        <time>2019-05-31T14:10:31Z</time>
      </trkpt>
      <trkpt lat="42.388387" lon="1.669120">
        <ele>1354.422</ele>
        <time>2019-05-31T14:10:32Z</time>
      </trkpt>
      <trkpt lat="42.388239" lon="1.669067">
        <ele>1355.014</ele>
        <time>2019-05-31T14:10:35Z</time>
      </trkpt>
      <trkpt lat="42.387989" lon="1.669068">
        <ele>1355.008</ele>
        <time>2019-05-31T14:10:41Z</time>
      </trkpt>
      <trkpt lat="42.387843" lon="1.669138">
        <ele>1355.237</ele>
        <time>2019-05-31T14:10:46Z</time>
      </trkpt>
      <trkpt lat="42.387670" lon="1.669182">
        <ele>1355.411</ele>
        <time>2019-05-31T14:10:53Z</time>
      </trkpt>
      <trkpt lat="42.387602" lon="1.669176">
        <ele>1355.677</ele>
        <time>2019-05-31T14:10:55Z</time>
      </trkpt>
      <trkpt lat="42.387431" lon="1.669157">
        <ele>1355.645</ele>
        <time>2019-05-31T14:10:59Z</time>
      </trkpt>
      <trkpt lat="42.387164" lon="1.669155">
        <ele>1355.659</ele>
        <time>2019-05-31T14:11:05Z</time>
      </trkpt>
      <trkpt lat="42.387035" lon="1.669159">
        <ele>1355.434</ele>
        <time>2019-05-31T14:11:08Z</time>
      </trkpt>
      <trkpt lat="42.386950" lon="1.669143">
        <ele>1355.238</ele>
        <time>2019-05-31T14:11:10Z</time>
      </trkpt>
      <trkpt lat="42.386863" lon="1.669109">
        <ele>1354.494</ele>
        <time>2019-05-31T14:11:12Z</time>
      </trkpt>
      <trkpt lat="42.386822" lon="1.669086">
        <ele>1354.434</ele>
        <time>2019-05-31T14:11:13Z</time>
      </trkpt>
      <trkpt lat="42.386687" lon="1.669021">
        <ele>1354.055</ele>
        <time>2019-05-31T14:11:16Z</time>
      </trkpt>
      <trkpt lat="42.386546" lon="1.668956">
        <ele>1353.210</ele>
        <time>2019-05-31T14:11:19Z</time>
      </trkpt>
      <trkpt lat="42.386317" lon="1.668828">
        <ele>1352.808</ele>
        <time>2019-05-31T14:11:24Z</time>
      </trkpt>
      <trkpt lat="42.386114" lon="1.668717">
        <ele>1352.216</ele>
        <time>2019-05-31T14:11:28Z</time>
      </trkpt>
      <trkpt lat="42.385995" lon="1.668711">
        <ele>1351.630</ele>
        <time>2019-05-31T14:11:30Z</time>
      </trkpt>
      <trkpt lat="42.385843" lon="1.668782">
        <ele>1351.426</ele>
        <time>2019-05-31T14:11:33Z</time>
      </trkpt>
      <trkpt lat="42.385793" lon="1.668806">
        <ele>1351.254</ele>
        <time>2019-05-31T14:11:34Z</time>
      </trkpt>
      <trkpt lat="42.385693" lon="1.668841">
        <ele>1351.448</ele>
        <time>2019-05-31T14:11:36Z</time>
      </trkpt>
      <trkpt lat="42.385544" lon="1.668829">
        <ele>1351.233</ele>
        <time>2019-05-31T14:11:39Z</time>
      </trkpt>
      <trkpt lat="42.385496" lon="1.668819">
        <ele>1351.227</ele>
        <time>2019-05-31T14:11:40Z</time>
      </trkpt>
      <trkpt lat="42.385450" lon="1.668805">
        <ele>1351.073</ele>
        <time>2019-05-31T14:11:41Z</time>
      </trkpt>
      <trkpt lat="42.385305" lon="1.668765">
        <ele>1350.896</ele>
        <time>2019-05-31T14:11:44Z</time>
      </trkpt>
      <trkpt lat="42.385254" lon="1.668764">
        <ele>1350.831</ele>
        <time>2019-05-31T14:11:45Z</time>
      </trkpt>
      <trkpt lat="42.385077" lon="1.668808">
        <ele>1351.024</ele>
        <time>2019-05-31T14:11:49Z</time>
      </trkpt>
      <trkpt lat="42.385036" lon="1.668811">
        <ele>1351.008</ele>
        <time>2019-05-31T14:11:50Z</time>
      </trkpt>
      <trkpt lat="42.384802" lon="1.668811">
        <ele>1352.022</ele>
        <time>2019-05-31T14:11:56Z</time>
      </trkpt>
      <trkpt lat="42.384725" lon="1.668806">
        <ele>1351.646</ele>
        <time>2019-05-31T14:11:58Z</time>
      </trkpt>
      <trkpt lat="42.384649" lon="1.668778">
        <ele>1350.822</ele>
        <time>2019-05-31T14:12:00Z</time>
      </trkpt>
      <trkpt lat="42.384611" lon="1.668750">
        <ele>1350.610</ele>
        <time>2019-05-31T14:12:01Z</time>
      </trkpt>
      <trkpt lat="42.384540" lon="1.668679">
        <ele>1350.684</ele>
        <time>2019-05-31T14:12:03Z</time>
      </trkpt>
      <trkpt lat="42.384437" lon="1.668546">
        <ele>1349.669</ele>
        <time>2019-05-31T14:12:06Z</time>
      </trkpt>
      <trkpt lat="42.384412" lon="1.668488">
        <ele>1349.483</ele>
        <time>2019-05-31T14:12:07Z</time>
      </trkpt>
      <trkpt lat="42.384366" lon="1.668359">
        <ele>1349.249</ele>
        <time>2019-05-31T14:12:09Z</time>
      </trkpt>
      <trkpt lat="42.384333" lon="1.668225">
        <ele>1348.818</ele>
        <time>2019-05-31T14:12:11Z</time>
      </trkpt>
      <trkpt lat="42.384327" lon="1.668157">
        <ele>1348.698</ele>
        <time>2019-05-31T14:12:12Z</time>
      </trkpt>
      <trkpt lat="42.384314" lon="1.668016">
        <ele>1347.417</ele>
        <time>2019-05-31T14:12:14Z</time>
      </trkpt>
      <trkpt lat="42.384319" lon="1.667885">
        <ele>1346.208</ele>
        <time>2019-05-31T14:12:16Z</time>
      </trkpt>
      <trkpt lat="42.384340" lon="1.667666">
        <ele>1345.034</ele>
        <time>2019-05-31T14:12:19Z</time>
      </trkpt>
      <trkpt lat="42.384371" lon="1.667476">
        <ele>1343.288</ele>
        <time>2019-05-31T14:12:21Z</time>
      </trkpt>
      <trkpt lat="42.384403" lon="1.667269">
        <ele>1341.854</ele>
        <time>2019-05-31T14:12:23Z</time>
      </trkpt>
      <trkpt lat="42.384415" lon="1.667066">
        <ele>1341.012</ele>
        <time>2019-05-31T14:12:25Z</time>
      </trkpt>
      <trkpt lat="42.384407" lon="1.666968">
        <ele>1340.666</ele>
        <time>2019-05-31T14:12:26Z</time>
      </trkpt>
      <trkpt lat="42.384399" lon="1.666869">
        <ele>1340.421</ele>
        <time>2019-05-31T14:12:27Z</time>
      </trkpt>
      <trkpt lat="42.384382" lon="1.666772">
        <ele>1340.265</ele>
        <time>2019-05-31T14:12:28Z</time>
      </trkpt>
      <trkpt lat="42.384285" lon="1.666536">
        <ele>1340.441</ele>
        <time>2019-05-31T14:12:31Z</time>
      </trkpt>
      <trkpt lat="42.384211" lon="1.666400">
        <ele>1341.037</ele>
        <time>2019-05-31T14:12:33Z</time>
      </trkpt>
      <trkpt lat="42.384170" lon="1.666340">
        <ele>1341.249</ele>
        <time>2019-05-31T14:12:34Z</time>
      </trkpt>
      <trkpt lat="42.384076" lon="1.666248">
        <ele>1341.413</ele>
        <time>2019-05-31T14:12:36Z</time>
      </trkpt>
      <trkpt lat="42.383981" lon="1.666167">
        <ele>1341.608</ele>
        <time>2019-05-31T14:12:38Z</time>
      </trkpt>
      <trkpt lat="42.383795" lon="1.666008">
        <ele>1340.436</ele>
        <time>2019-05-31T14:12:42Z</time>
      </trkpt>
      <trkpt lat="42.383751" lon="1.665974">
        <ele>1340.210</ele>
        <time>2019-05-31T14:12:43Z</time>
      </trkpt>
      <trkpt lat="42.383701" lon="1.665945">
        <ele>1340.436</ele>
        <time>2019-05-31T14:12:44Z</time>
      </trkpt>
      <trkpt lat="42.383566" lon="1.665903">
        <ele>1339.444</ele>
        <time>2019-05-31T14:12:47Z</time>
      </trkpt>
      <trkpt lat="42.383527" lon="1.665898">
        <ele>1339.228</ele>
        <time>2019-05-31T14:12:48Z</time>
      </trkpt>
      <trkpt lat="42.383341" lon="1.665891">
        <ele>1338.253</ele>
        <time>2019-05-31T14:12:52Z</time>
      </trkpt>
      <trkpt lat="42.383239" lon="1.665880">
        <ele>1337.057</ele>
        <time>2019-05-31T14:12:54Z</time>
      </trkpt>
      <trkpt lat="42.383049" lon="1.665855">
        <ele>1336.053</ele>
        <time>2019-05-31T14:12:58Z</time>
      </trkpt>
      <trkpt lat="42.383004" lon="1.665853">
        <ele>1336.021</ele>
        <time>2019-05-31T14:12:59Z</time>
      </trkpt>
      <trkpt lat="42.382859" lon="1.665800">
        <ele>1334.641</ele>
        <time>2019-05-31T14:13:02Z</time>
      </trkpt>
      <trkpt lat="42.382811" lon="1.665772">
        <ele>1334.005</ele>
        <time>2019-05-31T14:13:03Z</time>
      </trkpt>
      <trkpt lat="42.382766" lon="1.665743">
        <ele>1333.408</ele>
        <time>2019-05-31T14:13:04Z</time>
      </trkpt>
      <trkpt lat="42.382730" lon="1.665704">
        <ele>1333.065</ele>
        <time>2019-05-31T14:13:05Z</time>
      </trkpt>
      <trkpt lat="42.382666" lon="1.665644">
        <ele>1332.839</ele>
        <time>2019-05-31T14:13:07Z</time>
      </trkpt>
      <trkpt lat="42.382591" lon="1.665606">
        <ele>1332.465</ele>
        <time>2019-05-31T14:13:09Z</time>
      </trkpt>
      <trkpt lat="42.382475" lon="1.665523">
        <ele>1330.653</ele>
        <time>2019-05-31T14:13:12Z</time>
      </trkpt>
      <trkpt lat="42.382399" lon="1.665451">
        <ele>1328.867</ele>
        <time>2019-05-31T14:13:14Z</time>
      </trkpt>
      <trkpt lat="42.382317" lon="1.665379">
        <ele>1327.652</ele>
        <time>2019-05-31T14:13:16Z</time>
      </trkpt>
      <trkpt lat="42.382199" lon="1.665295">
        <ele>1326.856</ele>
        <time>2019-05-31T14:13:19Z</time>
      </trkpt>
      <trkpt lat="42.382157" lon="1.665282">
        <ele>1326.812</ele>
        <time>2019-05-31T14:13:20Z</time>
      </trkpt>
      <trkpt lat="42.382072" lon="1.665268">
        <ele>1326.673</ele>
        <time>2019-05-31T14:13:22Z</time>
      </trkpt>
      <trkpt lat="42.381985" lon="1.665272">
        <ele>1326.085</ele>
        <time>2019-05-31T14:13:24Z</time>
      </trkpt>
      <trkpt lat="42.381906" lon="1.665285">
        <ele>1325.613</ele>
        <time>2019-05-31T14:13:26Z</time>
      </trkpt>
      <trkpt lat="42.381775" lon="1.665343">
        <ele>1326.408</ele>
        <time>2019-05-31T14:13:30Z</time>
      </trkpt>
      <trkpt lat="42.381730" lon="1.665322">
        <ele>1326.690</ele>
        <time>2019-05-31T14:13:31Z</time>
      </trkpt>
      <trkpt lat="42.381688" lon="1.665312">
        <ele>1326.634</ele>
        <time>2019-05-31T14:13:32Z</time>
      </trkpt>
      <trkpt lat="42.381598" lon="1.665349">
        <ele>1326.230</ele>
        <time>2019-05-31T14:13:35Z</time>
      </trkpt>
      <trkpt lat="42.381571" lon="1.665362">
        <ele>1325.818</ele>
        <time>2019-05-31T14:13:36Z</time>
      </trkpt>
      <trkpt lat="42.381463" lon="1.665459">
        <ele>1325.212</ele>
        <time>2019-05-31T14:13:40Z</time>
      </trkpt>
      <trkpt lat="42.381435" lon="1.665482">
        <ele>1325.227</ele>
        <time>2019-05-31T14:13:41Z</time>
      </trkpt>
      <trkpt lat="42.381314" lon="1.665513">
        <ele>1324.861</ele>
        <time>2019-05-31T14:13:46Z</time>
      </trkpt>
      <trkpt lat="42.381300" lon="1.665491">
        <ele>1324.497</ele>
        <time>2019-05-31T14:13:47Z</time>
      </trkpt>
      <trkpt lat="42.381288" lon="1.665457">
        <ele>1324.039</ele>
        <time>2019-05-31T14:13:48Z</time>
      </trkpt>
      <trkpt lat="42.381251" lon="1.665309">
        <ele>1321.801</ele>
        <time>2019-05-31T14:13:51Z</time>
      </trkpt>
      <trkpt lat="42.381161" lon="1.665159">
        <ele>1320.821</ele>
        <time>2019-05-31T14:13:54Z</time>
      </trkpt>
      <trkpt lat="42.381113" lon="1.665115">
        <ele>1320.008</ele>
        <time>2019-05-31T14:13:55Z</time>
      </trkpt>
      <trkpt lat="42.381057" lon="1.665077">
        <ele>1319.646</ele>
        <time>2019-05-31T14:13:56Z</time>
      </trkpt>
      <trkpt lat="42.380882" lon="1.665007">
        <ele>1319.070</ele>
        <time>2019-05-31T14:13:59Z</time>
      </trkpt>
      <trkpt lat="42.380773" lon="1.664990">
        <ele>1318.686</ele>
        <time>2019-05-31T14:14:01Z</time>
      </trkpt>
      <trkpt lat="42.380723" lon="1.664994">
        <ele>1318.244</ele>
        <time>2019-05-31T14:14:02Z</time>
      </trkpt>
      <trkpt lat="42.380633" lon="1.665016">
        <ele>1318.238</ele>
        <time>2019-05-31T14:14:04Z</time>
      </trkpt>
      <trkpt lat="42.380495" lon="1.665177">
        <ele>1317.833</ele>
        <time>2019-05-31T14:14:08Z</time>
      </trkpt>
      <trkpt lat="42.380454" lon="1.665417">
        <ele>1318.047</ele>
        <time>2019-05-31T14:14:12Z</time>
      </trkpt>
      <trkpt lat="42.380476" lon="1.665667">
        <ele>1317.023</ele>
        <time>2019-05-31T14:14:16Z</time>
      </trkpt>
      <trkpt lat="42.380480" lon="1.665728">
        <ele>1317.089</ele>
        <time>2019-05-31T14:14:17Z</time>
      </trkpt>
      <trkpt lat="42.380488" lon="1.665790">
        <ele>1316.806</ele>
        <time>2019-05-31T14:14:18Z</time>
      </trkpt>
      <trkpt lat="42.380486" lon="1.665896">
        <ele>1316.426</ele>
        <time>2019-05-31T14:14:20Z</time>
      </trkpt>
      <trkpt lat="42.380470" lon="1.665981">
        <ele>1316.608</ele>
        <time>2019-05-31T14:14:22Z</time>
      </trkpt>
      <trkpt lat="42.380401" lon="1.666186">
        <ele>1317.031</ele>
        <time>2019-05-31T14:14:27Z</time>
      </trkpt>
      <trkpt lat="42.380347" lon="1.666401">
        <ele>1315.875</ele>
        <time>2019-05-31T14:14:31Z</time>
      </trkpt>
      <trkpt lat="42.380311" lon="1.666511">
        <ele>1314.621</ele>
        <time>2019-05-31T14:14:33Z</time>
      </trkpt>
      <trkpt lat="42.380229" lon="1.666731">
        <ele>1313.639</ele>
        <time>2019-05-31T14:14:37Z</time>
      </trkpt>
      <trkpt lat="42.380177" lon="1.666838">
        <ele>1312.463</ele>
        <time>2019-05-31T14:14:39Z</time>
      </trkpt>
      <trkpt lat="42.380063" lon="1.666978">
        <ele>1311.058</ele>
        <time>2019-05-31T14:14:42Z</time>
      </trkpt>
      <trkpt lat="42.379986" lon="1.667062">
        <ele>1310.892</ele>
        <time>2019-05-31T14:14:44Z</time>
      </trkpt>
      <trkpt lat="42.379909" lon="1.667137">
        <ele>1310.058</ele>
        <time>2019-05-31T14:14:46Z</time>
      </trkpt>
      <trkpt lat="42.379768" lon="1.667281">
        <ele>1307.891</ele>
        <time>2019-05-31T14:14:50Z</time>
      </trkpt>
      <trkpt lat="42.379733" lon="1.667321">
        <ele>1307.681</ele>
        <time>2019-05-31T14:14:51Z</time>
      </trkpt>
      <trkpt lat="42.379613" lon="1.667460">
        <ele>1306.819</ele>
        <time>2019-05-31T14:14:54Z</time>
      </trkpt>
      <trkpt lat="42.379528" lon="1.667558">
        <ele>1305.608</ele>
        <time>2019-05-31T14:14:56Z</time>
      </trkpt>
      <trkpt lat="42.379362" lon="1.667745">
        <ele>1304.262</ele>
        <time>2019-05-31T14:15:00Z</time>
      </trkpt>
      <trkpt lat="42.379280" lon="1.667844">
        <ele>1302.666</ele>
        <time>2019-05-31T14:15:02Z</time>
      </trkpt>
      <trkpt lat="42.379239" lon="1.667896">
        <ele>1301.662</ele>
        <time>2019-05-31T14:15:03Z</time>
      </trkpt>
      <trkpt lat="42.379198" lon="1.667945">
        <ele>1301.250</ele>
        <time>2019-05-31T14:15:04Z</time>
      </trkpt>
      <trkpt lat="42.379154" lon="1.667984">
        <ele>1300.424</ele>
        <time>2019-05-31T14:15:05Z</time>
      </trkpt>
      <trkpt lat="42.379054" lon="1.668043">
        <ele>1299.269</ele>
        <time>2019-05-31T14:15:07Z</time>
      </trkpt>
      <trkpt lat="42.379001" lon="1.668067">
        <ele>1298.683</ele>
        <time>2019-05-31T14:15:08Z</time>
      </trkpt>
      <trkpt lat="42.378954" lon="1.668067">
        <ele>1298.049</ele>
        <time>2019-05-31T14:15:09Z</time>
      </trkpt>
      <trkpt lat="42.378885" lon="1.667987">
        <ele>1297.299</ele>
        <time>2019-05-31T14:15:11Z</time>
      </trkpt>
      <trkpt lat="42.378862" lon="1.667916">
        <ele>1296.607</ele>
        <time>2019-05-31T14:15:12Z</time>
      </trkpt>
      <trkpt lat="42.378818" lon="1.667752">
        <ele>1295.227</ele>
        <time>2019-05-31T14:15:14Z</time>
      </trkpt>
      <trkpt lat="42.378783" lon="1.667570">
        <ele>1293.808</ele>
        <time>2019-05-31T14:15:16Z</time>
      </trkpt>
      <trkpt lat="42.378755" lon="1.667431">
        <ele>1293.472</ele>
        <time>2019-05-31T14:15:18Z</time>
      </trkpt>
      <trkpt lat="42.378736" lon="1.667370">
        <ele>1293.476</ele>
        <time>2019-05-31T14:15:19Z</time>
      </trkpt>
      <trkpt lat="42.378663" lon="1.667296">
        <ele>1292.812</ele>
        <time>2019-05-31T14:15:21Z</time>
      </trkpt>
      <trkpt lat="42.378615" lon="1.667303">
        <ele>1292.260</ele>
        <time>2019-05-31T14:15:22Z</time>
      </trkpt>
      <trkpt lat="42.378567" lon="1.667337">
        <ele>1291.654</ele>
        <time>2019-05-31T14:15:23Z</time>
      </trkpt>
      <trkpt lat="42.378518" lon="1.667386">
        <ele>1290.849</ele>
        <time>2019-05-31T14:15:24Z</time>
      </trkpt>
      <trkpt lat="42.378468" lon="1.667445">
        <ele>1289.883</ele>
        <time>2019-05-31T14:15:25Z</time>
      </trkpt>
      <trkpt lat="42.378416" lon="1.667511">
        <ele>1288.819</ele>
        <time>2019-05-31T14:15:26Z</time>
      </trkpt>
      <trkpt lat="42.378356" lon="1.667577">
        <ele>1287.076</ele>
        <time>2019-05-31T14:15:27Z</time>
      </trkpt>
      <trkpt lat="42.378243" lon="1.667702">
        <ele>1285.490</ele>
        <time>2019-05-31T14:15:29Z</time>
      </trkpt>
      <trkpt lat="42.378200" lon="1.667769">
        <ele>1285.019</ele>
        <time>2019-05-31T14:15:30Z</time>
      </trkpt>
      <trkpt lat="42.378124" lon="1.667900">
        <ele>1284.608</ele>
        <time>2019-05-31T14:15:32Z</time>
      </trkpt>
      <trkpt lat="42.378083" lon="1.667966">
        <ele>1284.270</ele>
        <time>2019-05-31T14:15:33Z</time>
      </trkpt>
      <trkpt lat="42.377975" lon="1.668161">
        <ele>1283.264</ele>
        <time>2019-05-31T14:15:36Z</time>
      </trkpt>
      <trkpt lat="42.377909" lon="1.668272">
        <ele>1281.820</ele>
        <time>2019-05-31T14:15:38Z</time>
      </trkpt>
      <trkpt lat="42.377816" lon="1.668443">
        <ele>1280.638</ele>
        <time>2019-05-31T14:15:41Z</time>
      </trkpt>
      <trkpt lat="42.377744" lon="1.668552">
        <ele>1279.882</ele>
        <time>2019-05-31T14:15:43Z</time>
      </trkpt>
      <trkpt lat="42.377701" lon="1.668604">
        <ele>1279.477</ele>
        <time>2019-05-31T14:15:44Z</time>
      </trkpt>
      <trkpt lat="42.377654" lon="1.668651">
        <ele>1279.071</ele>
        <time>2019-05-31T14:15:45Z</time>
      </trkpt>
      <trkpt lat="42.377557" lon="1.668729">
        <ele>1277.877</ele>
        <time>2019-05-31T14:15:47Z</time>
      </trkpt>
      <trkpt lat="42.377453" lon="1.668792">
        <ele>1276.896</ele>
        <time>2019-05-31T14:15:49Z</time>
      </trkpt>
      <trkpt lat="42.377402" lon="1.668828">
        <ele>1276.231</ele>
        <time>2019-05-31T14:15:50Z</time>
      </trkpt>
      <trkpt lat="42.377353" lon="1.668854">
        <ele>1275.424</ele>
        <time>2019-05-31T14:15:51Z</time>
      </trkpt>
      <trkpt lat="42.377196" lon="1.668894">
        <ele>1274.608</ele>
        <time>2019-05-31T14:15:54Z</time>
      </trkpt>
      <trkpt lat="42.377141" lon="1.668905">
        <ele>1274.232</ele>
        <time>2019-05-31T14:15:55Z</time>
      </trkpt>
      <trkpt lat="42.377084" lon="1.668908">
        <ele>1273.686</ele>
        <time>2019-05-31T14:15:56Z</time>
      </trkpt>
      <trkpt lat="42.376971" lon="1.668901">
        <ele>1273.082</ele>
        <time>2019-05-31T14:15:58Z</time>
      </trkpt>
      <trkpt lat="42.376861" lon="1.668884">
        <ele>1272.880</ele>
        <time>2019-05-31T14:16:00Z</time>
      </trkpt>
      <trkpt lat="42.376688" lon="1.668873">
        <ele>1271.834</ele>
        <time>2019-05-31T14:16:03Z</time>
      </trkpt>
      <trkpt lat="42.376628" lon="1.668882">
        <ele>1271.699</ele>
        <time>2019-05-31T14:16:04Z</time>
      </trkpt>
      <trkpt lat="42.376506" lon="1.668919">
        <ele>1270.823</ele>
        <time>2019-05-31T14:16:06Z</time>
      </trkpt>
      <trkpt lat="42.376444" lon="1.668945">
        <ele>1270.299</ele>
        <time>2019-05-31T14:16:07Z</time>
      </trkpt>
      <trkpt lat="42.376202" lon="1.669070">
        <ele>1269.091</ele>
        <time>2019-05-31T14:16:11Z</time>
      </trkpt>
      <trkpt lat="42.376161" lon="1.669092">
        <ele>1269.081</ele>
        <time>2019-05-31T14:16:12Z</time>
      </trkpt>
      <trkpt lat="42.376041" lon="1.669170">
        <ele>1269.419</ele>
        <time>2019-05-31T14:16:16Z</time>
      </trkpt>
      <trkpt lat="42.375971" lon="1.669207">
        <ele>1267.408</ele>
        <time>2019-05-31T14:16:18Z</time>
      </trkpt>
      <trkpt lat="42.375799" lon="1.669323">
        <ele>1266.672</ele>
        <time>2019-05-31T14:16:23Z</time>
      </trkpt>
      <trkpt lat="42.375688" lon="1.669409">
        <ele>1267.636</ele>
        <time>2019-05-31T14:16:26Z</time>
      </trkpt>
      <trkpt lat="42.375555" lon="1.669505">
        <ele>1266.662</ele>
        <time>2019-05-31T14:16:29Z</time>
      </trkpt>
      <trkpt lat="42.375506" lon="1.669541">
        <ele>1266.490</ele>
        <time>2019-05-31T14:16:30Z</time>
      </trkpt>
      <trkpt lat="42.375399" lon="1.669605">
        <ele>1265.824</ele>
        <time>2019-05-31T14:16:32Z</time>
      </trkpt>
      <trkpt lat="42.375290" lon="1.669663">
        <ele>1265.019</ele>
        <time>2019-05-31T14:16:34Z</time>
      </trkpt>
      <trkpt lat="42.375108" lon="1.669891">
        <ele>1263.823</ele>
        <time>2019-05-31T14:16:38Z</time>
      </trkpt>
      <trkpt lat="42.375063" lon="1.669953">
        <ele>1262.679</ele>
        <time>2019-05-31T14:16:39Z</time>
      </trkpt>
      <trkpt lat="42.374914" lon="1.670135">
        <ele>1262.015</ele>
        <time>2019-05-31T14:16:42Z</time>
      </trkpt>
      <trkpt lat="42.374853" lon="1.670183">
        <ele>1261.665</ele>
        <time>2019-05-31T14:16:43Z</time>
      </trkpt>
      <trkpt lat="42.374793" lon="1.670230">
        <ele>1260.811</ele>
        <time>2019-05-31T14:16:44Z</time>
      </trkpt>
      <trkpt lat="42.374735" lon="1.670271">
        <ele>1260.408</ele>
        <time>2019-05-31T14:16:45Z</time>
      </trkpt>
      <trkpt lat="42.374547" lon="1.670391">
        <ele>1259.294</ele>
        <time>2019-05-31T14:16:48Z</time>
      </trkpt>
      <trkpt lat="42.374484" lon="1.670446">
        <ele>1258.868</ele>
        <time>2019-05-31T14:16:49Z</time>
      </trkpt>
      <trkpt lat="42.374353" lon="1.670580">
        <ele>1257.884</ele>
        <time>2019-05-31T14:16:51Z</time>
      </trkpt>
      <trkpt lat="42.374217" lon="1.670727">
        <ele>1256.652</ele>
        <time>2019-05-31T14:16:53Z</time>
      </trkpt>
      <trkpt lat="42.374146" lon="1.670804">
        <ele>1256.056</ele>
        <time>2019-05-31T14:16:54Z</time>
      </trkpt>
      <trkpt lat="42.374079" lon="1.670876">
        <ele>1255.481</ele>
        <time>2019-05-31T14:16:55Z</time>
      </trkpt>
      <trkpt lat="42.373937" lon="1.671023">
        <ele>1254.615</ele>
        <time>2019-05-31T14:16:57Z</time>
      </trkpt>
      <trkpt lat="42.373868" lon="1.671093">
        <ele>1254.221</ele>
        <time>2019-05-31T14:16:58Z</time>
      </trkpt>
      <trkpt lat="42.373740" lon="1.671228">
        <ele>1253.289</ele>
        <time>2019-05-31T14:17:00Z</time>
      </trkpt>
      <trkpt lat="42.373683" lon="1.671304">
        <ele>1252.606</ele>
        <time>2019-05-31T14:17:01Z</time>
      </trkpt>
      <trkpt lat="42.373583" lon="1.671477">
        <ele>1251.026</ele>
        <time>2019-05-31T14:17:03Z</time>
      </trkpt>
      <trkpt lat="42.373534" lon="1.671570">
        <ele>1250.608</ele>
        <time>2019-05-31T14:17:04Z</time>
      </trkpt>
      <trkpt lat="42.373369" lon="1.671977">
        <ele>1250.021</ele>
        <time>2019-05-31T14:17:08Z</time>
      </trkpt>
      <trkpt lat="42.373327" lon="1.672084">
        <ele>1249.695</ele>
        <time>2019-05-31T14:17:09Z</time>
      </trkpt>
      <trkpt lat="42.373249" lon="1.672293">
        <ele>1248.821</ele>
        <time>2019-05-31T14:17:11Z</time>
      </trkpt>
      <trkpt lat="42.373136" lon="1.672610">
        <ele>1247.659</ele>
        <time>2019-05-31T14:17:14Z</time>
      </trkpt>
      <trkpt lat="42.373036" lon="1.672902">
        <ele>1247.023</ele>
        <time>2019-05-31T14:17:17Z</time>
      </trkpt>
      <trkpt lat="42.372952" lon="1.673201">
        <ele>1247.488</ele>
        <time>2019-05-31T14:17:21Z</time>
      </trkpt>
      <trkpt lat="42.372945" lon="1.673264">
        <ele>1247.432</ele>
        <time>2019-05-31T14:17:22Z</time>
      </trkpt>
      <trkpt lat="42.372984" lon="1.673372">
        <ele>1247.648</ele>
        <time>2019-05-31T14:17:24Z</time>
      </trkpt>
      <trkpt lat="42.373134" lon="1.673441">
        <ele>1246.228</ele>
        <time>2019-05-31T14:17:27Z</time>
      </trkpt>
      <trkpt lat="42.373262" lon="1.673437">
        <ele>1244.889</ele>
        <time>2019-05-31T14:17:29Z</time>
      </trkpt>
      <trkpt lat="42.373404" lon="1.673424">
        <ele>1243.617</ele>
        <time>2019-05-31T14:17:31Z</time>
      </trkpt>
      <trkpt lat="42.373484" lon="1.673430">
        <ele>1242.808</ele>
        <time>2019-05-31T14:17:32Z</time>
      </trkpt>
      <trkpt lat="42.373558" lon="1.673444">
        <ele>1242.215</ele>
        <time>2019-05-31T14:17:33Z</time>
      </trkpt>
      <trkpt lat="42.373694" lon="1.673497">
        <ele>1241.469</ele>
        <time>2019-05-31T14:17:35Z</time>
      </trkpt>
      <trkpt lat="42.373756" lon="1.673523">
        <ele>1240.835</ele>
        <time>2019-05-31T14:17:36Z</time>
      </trkpt>
      <trkpt lat="42.373820" lon="1.673537">
        <ele>1240.283</ele>
        <time>2019-05-31T14:17:37Z</time>
      </trkpt>
      <trkpt lat="42.373885" lon="1.673546">
        <ele>1239.847</ele>
        <time>2019-05-31T14:17:38Z</time>
      </trkpt>
      <trkpt lat="42.374021" lon="1.673561">
        <ele>1238.842</ele>
        <time>2019-05-31T14:17:40Z</time>
      </trkpt>
      <trkpt lat="42.374088" lon="1.673567">
        <ele>1238.656</ele>
        <time>2019-05-31T14:17:41Z</time>
      </trkpt>
      <trkpt lat="42.374295" lon="1.673571">
        <ele>1237.252</ele>
        <time>2019-05-31T14:17:44Z</time>
      </trkpt>
      <trkpt lat="42.374449" lon="1.673578">
        <ele>1236.032</ele>
        <time>2019-05-31T14:17:46Z</time>
      </trkpt>
      <trkpt lat="42.374527" lon="1.673602">
        <ele>1235.492</ele>
        <time>2019-05-31T14:17:47Z</time>
      </trkpt>
      <trkpt lat="42.374604" lon="1.673634">
        <ele>1234.611</ele>
        <time>2019-05-31T14:17:48Z</time>
      </trkpt>
      <trkpt lat="42.374762" lon="1.673673">
        <ele>1233.208</ele>
        <time>2019-05-31T14:17:50Z</time>
      </trkpt>
      <trkpt lat="42.374844" lon="1.673689">
        <ele>1232.226</ele>
        <time>2019-05-31T14:17:51Z</time>
      </trkpt>
      <trkpt lat="42.375077" lon="1.673755">
        <ele>1230.820</ele>
        <time>2019-05-31T14:17:54Z</time>
      </trkpt>
      <trkpt lat="42.375230" lon="1.673787">
        <ele>1229.276</ele>
        <time>2019-05-31T14:17:56Z</time>
      </trkpt>
      <trkpt lat="42.375307" lon="1.673787">
        <ele>1228.474</ele>
        <time>2019-05-31T14:17:57Z</time>
      </trkpt>
      <trkpt lat="42.375386" lon="1.673778">
        <ele>1227.688</ele>
        <time>2019-05-31T14:17:58Z</time>
      </trkpt>
      <trkpt lat="42.375545" lon="1.673729">
        <ele>1226.273</ele>
        <time>2019-05-31T14:18:00Z</time>
      </trkpt>
      <trkpt lat="42.375623" lon="1.673685">
        <ele>1225.077</ele>
        <time>2019-05-31T14:18:01Z</time>
      </trkpt>
      <trkpt lat="42.375701" lon="1.673636">
        <ele>1224.493</ele>
        <time>2019-05-31T14:18:02Z</time>
      </trkpt>
      <trkpt lat="42.375781" lon="1.673579">
        <ele>1223.611</ele>
        <time>2019-05-31T14:18:03Z</time>
      </trkpt>
      <trkpt lat="42.375943" lon="1.673452">
        <ele>1222.421</ele>
        <time>2019-05-31T14:18:05Z</time>
      </trkpt>
      <trkpt lat="42.376021" lon="1.673384">
        <ele>1221.803</ele>
        <time>2019-05-31T14:18:06Z</time>
      </trkpt>
      <trkpt lat="42.376097" lon="1.673320">
        <ele>1221.208</ele>
        <time>2019-05-31T14:18:07Z</time>
      </trkpt>
      <trkpt lat="42.376296" lon="1.673138">
        <ele>1220.084</ele>
        <time>2019-05-31T14:18:10Z</time>
      </trkpt>
      <trkpt lat="42.376350" lon="1.673071">
        <ele>1219.658</ele>
        <time>2019-05-31T14:18:11Z</time>
      </trkpt>
      <trkpt lat="42.376447" lon="1.672963">
        <ele>1219.064</ele>
        <time>2019-05-31T14:18:13Z</time>
      </trkpt>
      <trkpt lat="42.376511" lon="1.672917">
        <ele>1218.832</ele>
        <time>2019-05-31T14:18:14Z</time>
      </trkpt>
      <trkpt lat="42.376573" lon="1.672866">
        <ele>1217.686</ele>
        <time>2019-05-31T14:18:15Z</time>
      </trkpt>
      <trkpt lat="42.376773" lon="1.672716">
        <ele>1216.221</ele>
        <time>2019-05-31T14:18:18Z</time>
      </trkpt>
      <trkpt lat="42.376830" lon="1.672676">
        <ele>1216.075</ele>
        <time>2019-05-31T14:18:19Z</time>
      </trkpt>
      <trkpt lat="42.376950" lon="1.672586">
        <ele>1215.271</ele>
        <time>2019-05-31T14:18:21Z</time>
      </trkpt>
      <trkpt lat="42.377064" lon="1.672499">
        <ele>1214.029</ele>
        <time>2019-05-31T14:18:23Z</time>
      </trkpt>
      <trkpt lat="42.377118" lon="1.672473">
        <ele>1213.600</ele>
        <time>2019-05-31T14:18:24Z</time>
      </trkpt>
      <trkpt lat="42.377240" lon="1.672489">
        <ele>1213.020</ele>
        <time>2019-05-31T14:18:26Z</time>
      </trkpt>
      <trkpt lat="42.377297" lon="1.672528">
        <ele>1212.608</ele>
        <time>2019-05-31T14:18:27Z</time>
      </trkpt>
      <trkpt lat="42.377375" lon="1.672725">
        <ele>1211.895</ele>
        <time>2019-05-31T14:18:30Z</time>
      </trkpt>
      <trkpt lat="42.377372" lon="1.672982">
        <ele>1210.699</ele>
        <time>2019-05-31T14:18:33Z</time>
      </trkpt>
      <trkpt lat="42.377366" lon="1.673074">
        <ele>1210.225</ele>
        <time>2019-05-31T14:18:34Z</time>
      </trkpt>
      <trkpt lat="42.377355" lon="1.673173">
        <ele>1209.633</ele>
        <time>2019-05-31T14:18:35Z</time>
      </trkpt>
      <trkpt lat="42.377367" lon="1.673347">
        <ele>1209.097</ele>
        <time>2019-05-31T14:18:37Z</time>
      </trkpt>
      <trkpt lat="42.377406" lon="1.673397">
        <ele>1208.842</ele>
        <time>2019-05-31T14:18:38Z</time>
      </trkpt>
      <trkpt lat="42.377439" lon="1.673426">
        <ele>1208.426</ele>
        <time>2019-05-31T14:18:39Z</time>
      </trkpt>
      <trkpt lat="42.377532" lon="1.673384">
        <ele>1207.452</ele>
        <time>2019-05-31T14:18:41Z</time>
      </trkpt>
      <trkpt lat="42.377575" lon="1.673332">
        <ele>1207.094</ele>
        <time>2019-05-31T14:18:42Z</time>
      </trkpt>
      <trkpt lat="42.377679" lon="1.673281">
        <ele>1206.457</ele>
        <time>2019-05-31T14:18:44Z</time>
      </trkpt>
      <trkpt lat="42.377743" lon="1.673288">
        <ele>1206.022</ele>
        <time>2019-05-31T14:18:45Z</time>
      </trkpt>
      <trkpt lat="42.377858" lon="1.673365">
        <ele>1205.408</ele>
        <time>2019-05-31T14:18:47Z</time>
      </trkpt>
      <trkpt lat="42.377907" lon="1.673429">
        <ele>1204.852</ele>
        <time>2019-05-31T14:18:48Z</time>
      </trkpt>
      <trkpt lat="42.377988" lon="1.673567">
        <ele>1204.216</ele>
        <time>2019-05-31T14:18:50Z</time>
      </trkpt>
      <trkpt lat="42.378074" lon="1.673695">
        <ele>1203.412</ele>
        <time>2019-05-31T14:18:52Z</time>
      </trkpt>
      <trkpt lat="42.378166" lon="1.673811">
        <ele>1202.210</ele>
        <time>2019-05-31T14:18:54Z</time>
      </trkpt>
      <trkpt lat="42.378272" lon="1.673913">
        <ele>1201.284</ele>
        <time>2019-05-31T14:18:56Z</time>
      </trkpt>
      <trkpt lat="42.378325" lon="1.673968">
        <ele>1200.829</ele>
        <time>2019-05-31T14:18:57Z</time>
      </trkpt>
      <trkpt lat="42.378375" lon="1.674033">
        <ele>1200.213</ele>
        <time>2019-05-31T14:18:58Z</time>
      </trkpt>
      <trkpt lat="42.378477" lon="1.674156">
        <ele>1199.449</ele>
        <time>2019-05-31T14:19:00Z</time>
      </trkpt>
      <trkpt lat="42.378532" lon="1.674204">
        <ele>1199.282</ele>
        <time>2019-05-31T14:19:01Z</time>
      </trkpt>
      <trkpt lat="42.378650" lon="1.674273">
        <ele>1198.243</ele>
        <time>2019-05-31T14:19:03Z</time>
      </trkpt>
      <trkpt lat="42.378763" lon="1.674338">
        <ele>1197.217</ele>
        <time>2019-05-31T14:19:05Z</time>
      </trkpt>
      <trkpt lat="42.378953" lon="1.674393">
        <ele>1195.808</ele>
        <time>2019-05-31T14:19:08Z</time>
      </trkpt>
      <trkpt lat="42.379099" lon="1.674400">
        <ele>1195.261</ele>
        <time>2019-05-31T14:19:10Z</time>
      </trkpt>
      <trkpt lat="42.379354" lon="1.674409">
        <ele>1194.865</ele>
        <time>2019-05-31T14:19:14Z</time>
      </trkpt>
      <trkpt lat="42.379470" lon="1.674421">
        <ele>1194.611</ele>
        <time>2019-05-31T14:19:16Z</time>
      </trkpt>
      <trkpt lat="42.379597" lon="1.674431">
        <ele>1193.299</ele>
        <time>2019-05-31T14:19:18Z</time>
      </trkpt>
      <trkpt lat="42.379729" lon="1.674444">
        <ele>1191.833</ele>
        <time>2019-05-31T14:19:20Z</time>
      </trkpt>
      <trkpt lat="42.379861" lon="1.674448">
        <ele>1190.458</ele>
        <time>2019-05-31T14:19:22Z</time>
      </trkpt>
      <trkpt lat="42.379996" lon="1.674431">
        <ele>1189.052</ele>
        <time>2019-05-31T14:19:24Z</time>
      </trkpt>
      <trkpt lat="42.380129" lon="1.674385">
        <ele>1187.628</ele>
        <time>2019-05-31T14:19:26Z</time>
      </trkpt>
      <trkpt lat="42.380200" lon="1.674367">
        <ele>1186.497</ele>
        <time>2019-05-31T14:19:27Z</time>
      </trkpt>
      <trkpt lat="42.380277" lon="1.674359">
        <ele>1185.823</ele>
        <time>2019-05-31T14:19:28Z</time>
      </trkpt>
      <trkpt lat="42.380352" lon="1.674357">
        <ele>1185.425</ele>
        <time>2019-05-31T14:19:29Z</time>
      </trkpt>
      <trkpt lat="42.380483" lon="1.674375">
        <ele>1185.008</ele>
        <time>2019-05-31T14:19:31Z</time>
      </trkpt>
      <trkpt lat="42.380621" lon="1.674503">
        <ele>1184.462</ele>
        <time>2019-05-31T14:19:34Z</time>
      </trkpt>
      <trkpt lat="42.380691" lon="1.674645">
        <ele>1183.866</ele>
        <time>2019-05-31T14:19:36Z</time>
      </trkpt>
      <trkpt lat="42.380730" lon="1.674710">
        <ele>1183.242</ele>
        <time>2019-05-31T14:19:37Z</time>
      </trkpt>
      <trkpt lat="42.380779" lon="1.674766">
        <ele>1182.460</ele>
        <time>2019-05-31T14:19:38Z</time>
      </trkpt>
      <trkpt lat="42.380833" lon="1.674822">
        <ele>1182.044</ele>
        <time>2019-05-31T14:19:39Z</time>
      </trkpt>
      <trkpt lat="42.381022" lon="1.674901">
        <ele>1180.829</ele>
        <time>2019-05-31T14:19:42Z</time>
      </trkpt>
      <trkpt lat="42.381086" lon="1.674918">
        <ele>1180.663</ele>
        <time>2019-05-31T14:19:43Z</time>
      </trkpt>
      <trkpt lat="42.381153" lon="1.674947">
        <ele>1180.259</ele>
        <time>2019-05-31T14:19:44Z</time>
      </trkpt>
      <trkpt lat="42.381217" lon="1.674978">
        <ele>1179.821</ele>
        <time>2019-05-31T14:19:45Z</time>
      </trkpt>
      <trkpt lat="42.381322" lon="1.675005">
        <ele>1179.041</ele>
        <time>2019-05-31T14:19:47Z</time>
      </trkpt>
      <trkpt lat="42.381374" lon="1.675001">
        <ele>1178.605</ele>
        <time>2019-05-31T14:19:48Z</time>
      </trkpt>
      <trkpt lat="42.381525" lon="1.675011">
        <ele>1178.008</ele>
        <time>2019-05-31T14:19:51Z</time>
      </trkpt>
      <trkpt lat="42.381570" lon="1.675127">
        <ele>1177.625</ele>
        <time>2019-05-31T14:19:53Z</time>
      </trkpt>
      <trkpt lat="42.381537" lon="1.675252">
        <ele>1177.659</ele>
        <time>2019-05-31T14:19:55Z</time>
      </trkpt>
      <trkpt lat="42.381491" lon="1.675296">
        <ele>1177.875</ele>
        <time>2019-05-31T14:19:56Z</time>
      </trkpt>
      <trkpt lat="42.381351" lon="1.675330">
        <ele>1177.893</ele>
        <time>2019-05-31T14:19:59Z</time>
      </trkpt>
      <trkpt lat="42.381311" lon="1.675344">
        <ele>1177.677</ele>
        <time>2019-05-31T14:20:00Z</time>
      </trkpt>
      <trkpt lat="42.381127" lon="1.675381">
        <ele>1178.252</ele>
        <time>2019-05-31T14:20:05Z</time>
      </trkpt>
      <trkpt lat="42.380776" lon="1.675524">
        <ele>1178.426</ele>
        <time>2019-05-31T14:20:15Z</time>
      </trkpt>
      <trkpt lat="42.380710" lon="1.675549">
        <ele>1178.672</ele>
        <time>2019-05-31T14:20:17Z</time>
      </trkpt>
      <trkpt lat="42.380588" lon="1.675621">
        <ele>1178.423</ele>
        <time>2019-05-31T14:20:21Z</time>
      </trkpt>
      <trkpt lat="42.380429" lon="1.675773">
        <ele>1178.683</ele>
        <time>2019-05-31T14:20:27Z</time>
      </trkpt>
      <trkpt lat="42.380320" lon="1.675848">
        <ele>1179.611</ele>
        <time>2019-05-31T14:20:32Z</time>
      </trkpt>
      <trkpt lat="42.380306" lon="1.675864">
        <ele>1179.808</ele>
        <time>2019-05-31T14:20:33Z</time>
      </trkpt>
      <trkpt lat="42.380238" lon="1.675880">
        <ele>1180.635</ele>
        <time>2019-05-31T14:20:37Z</time>
      </trkpt>
      <trkpt lat="42.380206" lon="1.675887">
        <ele>1180.869</ele>
        <time>2019-05-31T14:20:39Z</time>
      </trkpt>
      <trkpt lat="42.380118" lon="1.675903">
        <ele>1181.475</ele>
        <time>2019-05-31T14:20:45Z</time>
      </trkpt>
      <trkpt lat="42.380002" lon="1.675948">
        <ele>1182.083</ele>
        <time>2019-05-31T14:20:52Z</time>
      </trkpt>
      <trkpt lat="42.379894" lon="1.676010">
        <ele>1183.037</ele>
        <time>2019-05-31T14:21:00Z</time>
      </trkpt>
      <trkpt lat="42.379879" lon="1.676018">
        <ele>1183.052</ele>
        <time>2019-05-31T14:21:01Z</time>
      </trkpt>
      <trkpt lat="42.379774" lon="1.676045">
        <ele>1183.886</ele>
        <time>2019-05-31T14:21:08Z</time>
      </trkpt>
      <trkpt lat="42.379721" lon="1.676060">
        <ele>1184.272</ele>
        <time>2019-05-31T14:21:11Z</time>
      </trkpt>
      <trkpt lat="42.379617" lon="1.676103">
        <ele>1184.849</ele>
        <time>2019-05-31T14:21:18Z</time>
      </trkpt>
      <trkpt lat="42.379583" lon="1.676115">
        <ele>1185.202</ele>
        <time>2019-05-31T14:21:20Z</time>
      </trkpt>
      <trkpt lat="42.379483" lon="1.676164">
        <ele>1185.822</ele>
        <time>2019-05-31T14:21:26Z</time>
      </trkpt>
      <trkpt lat="42.379342" lon="1.676244">
        <ele>1186.208</ele>
        <time>2019-05-31T14:21:34Z</time>
      </trkpt>
      <trkpt lat="42.379202" lon="1.676364">
        <ele>1186.827</ele>
        <time>2019-05-31T14:21:42Z</time>
      </trkpt>
      <trkpt lat="42.379099" lon="1.676471">
        <ele>1186.821</ele>
        <time>2019-05-31T14:21:48Z</time>
      </trkpt>
      <trkpt lat="42.378975" lon="1.676573">
        <ele>1187.017</ele>
        <time>2019-05-31T14:21:55Z</time>
      </trkpt>
      <trkpt lat="42.378893" lon="1.676654">
        <ele>1187.225</ele>
        <time>2019-05-31T14:22:00Z</time>
      </trkpt>
      <trkpt lat="42.378822" lon="1.676708">
        <ele>1187.499</ele>
        <time>2019-05-31T14:22:04Z</time>
      </trkpt>
      <trkpt lat="42.378705" lon="1.676850">
        <ele>1187.854</ele>
        <time>2019-05-31T14:22:12Z</time>
      </trkpt>
      <trkpt lat="42.378648" lon="1.676908">
        <ele>1188.488</ele>
        <time>2019-05-31T14:22:16Z</time>
      </trkpt>
      <trkpt lat="42.378602" lon="1.676982">
        <ele>1188.424</ele>
        <time>2019-05-31T14:22:20Z</time>
      </trkpt>
      <trkpt lat="42.378493" lon="1.677136">
        <ele>1189.247</ele>
        <time>2019-05-31T14:22:29Z</time>
      </trkpt>
      <trkpt lat="42.378484" lon="1.677157">
        <ele>1189.429</ele>
        <time>2019-05-31T14:22:30Z</time>
      </trkpt>
      <trkpt lat="42.378439" lon="1.677263">
        <ele>1190.221</ele>
        <time>2019-05-31T14:22:36Z</time>
      </trkpt>
      <trkpt lat="42.378422" lon="1.677338">
        <ele>1190.408</ele>
        <time>2019-05-31T14:22:40Z</time>
      </trkpt>
      <trkpt lat="42.378427" lon="1.677359">
        <ele>1190.857</ele>
        <time>2019-05-31T14:22:41Z</time>
      </trkpt>
      <trkpt lat="42.378429" lon="1.677376">
        <ele>1191.051</ele>
        <time>2019-05-31T14:22:42Z</time>
      </trkpt>
      <trkpt lat="42.378426" lon="1.677514">
        <ele>1191.637</ele>
        <time>2019-05-31T14:22:49Z</time>
      </trkpt>
      <trkpt lat="42.378424" lon="1.677560">
        <ele>1191.645</ele>
        <time>2019-05-31T14:22:51Z</time>
      </trkpt>
      <trkpt lat="42.378408" lon="1.677650">
        <ele>1192.239</ele>
        <time>2019-05-31T14:22:56Z</time>
      </trkpt>
      <trkpt lat="42.378405" lon="1.677664">
        <ele>1192.464</ele>
        <time>2019-05-31T14:22:57Z</time>
      </trkpt>
      <trkpt lat="42.378396" lon="1.677696">
        <ele>1192.638</ele>
        <time>2019-05-31T14:22:59Z</time>
      </trkpt>
      <trkpt lat="42.378375" lon="1.677798">
        <ele>1193.474</ele>
        <time>2019-05-31T14:23:04Z</time>
      </trkpt>
      <trkpt lat="42.378363" lon="1.677887">
        <ele>1193.647</ele>
        <time>2019-05-31T14:23:08Z</time>
      </trkpt>
      <trkpt lat="42.378348" lon="1.677954">
        <ele>1194.029</ele>
        <time>2019-05-31T14:23:11Z</time>
      </trkpt>
      <trkpt lat="42.378309" lon="1.678122">
        <ele>1193.821</ele>
        <time>2019-05-31T14:23:17Z</time>
      </trkpt>
      <trkpt lat="42.378256" lon="1.678336">
        <ele>1192.408</ele>
        <time>2019-05-31T14:23:21Z</time>
      </trkpt>
      <trkpt lat="42.378128" lon="1.678654">
        <ele>1191.417</ele>
        <time>2019-05-31T14:23:27Z</time>
      </trkpt>
      <trkpt lat="42.378067" lon="1.678756">
        <ele>1190.421</ele>
        <time>2019-05-31T14:23:29Z</time>
      </trkpt>
      <trkpt lat="42.378029" lon="1.678805">
        <ele>1190.057</ele>
        <time>2019-05-31T14:23:30Z</time>
      </trkpt>
      <trkpt lat="42.377944" lon="1.678896">
        <ele>1189.085</ele>
        <time>2019-05-31T14:23:32Z</time>
      </trkpt>
      <trkpt lat="42.377745" lon="1.679058">
        <ele>1187.899</ele>
        <time>2019-05-31T14:23:36Z</time>
      </trkpt>
      <trkpt lat="42.377688" lon="1.679108">
        <ele>1187.434</ele>
        <time>2019-05-31T14:23:37Z</time>
      </trkpt>
      <trkpt lat="42.377569" lon="1.679209">
        <ele>1186.468</ele>
        <time>2019-05-31T14:23:39Z</time>
      </trkpt>
      <trkpt lat="42.377381" lon="1.679359">
        <ele>1185.014</ele>
        <time>2019-05-31T14:23:42Z</time>
      </trkpt>
      <trkpt lat="42.377262" lon="1.679451">
        <ele>1184.422</ele>
        <time>2019-05-31T14:23:44Z</time>
      </trkpt>
      <trkpt lat="42.377089" lon="1.679589">
        <ele>1183.862</ele>
        <time>2019-05-31T14:23:47Z</time>
      </trkpt>
      <trkpt lat="42.376928" lon="1.679727">
        <ele>1183.008</ele>
        <time>2019-05-31T14:23:50Z</time>
      </trkpt>
      <trkpt lat="42.376871" lon="1.679757">
        <ele>1182.408</ele>
        <time>2019-05-31T14:23:51Z</time>
      </trkpt>
      <trkpt lat="42.376772" lon="1.679791">
        <ele>1181.055</ele>
        <time>2019-05-31T14:23:53Z</time>
      </trkpt>
      <trkpt lat="42.376721" lon="1.679760">
        <ele>1180.419</ele>
        <time>2019-05-31T14:23:54Z</time>
      </trkpt>
      <trkpt lat="42.376666" lon="1.679730">
        <ele>1180.065</ele>
        <time>2019-05-31T14:23:55Z</time>
      </trkpt>
      <trkpt lat="42.376530" lon="1.679652">
        <ele>1178.433</ele>
        <time>2019-05-31T14:23:57Z</time>
      </trkpt>
      <trkpt lat="42.376449" lon="1.679620">
        <ele>1177.667</ele>
        <time>2019-05-31T14:23:58Z</time>
      </trkpt>
      <trkpt lat="42.376374" lon="1.679588">
        <ele>1177.062</ele>
        <time>2019-05-31T14:23:59Z</time>
      </trkpt>
      <trkpt lat="42.376286" lon="1.679570">
        <ele>1176.626</ele>
        <time>2019-05-31T14:24:00Z</time>
      </trkpt>
      <trkpt lat="42.376195" lon="1.679563">
        <ele>1176.032</ele>
        <time>2019-05-31T14:24:01Z</time>
      </trkpt>
      <trkpt lat="42.376107" lon="1.679564">
        <ele>1175.614</ele>
        <time>2019-05-31T14:24:02Z</time>
      </trkpt>
      <trkpt lat="42.375933" lon="1.679589">
        <ele>1174.454</ele>
        <time>2019-05-31T14:24:04Z</time>
      </trkpt>
      <trkpt lat="42.375853" lon="1.679605">
        <ele>1174.009</ele>
        <time>2019-05-31T14:24:05Z</time>
      </trkpt>
      <trkpt lat="42.375770" lon="1.679625">
        <ele>1173.608</ele>
        <time>2019-05-31T14:24:06Z</time>
      </trkpt>
      <trkpt lat="42.375684" lon="1.679661">
        <ele>1173.414</ele>
        <time>2019-05-31T14:24:07Z</time>
      </trkpt>
      <trkpt lat="42.375516" lon="1.679762">
        <ele>1172.068</ele>
        <time>2019-05-31T14:24:09Z</time>
      </trkpt>
      <trkpt lat="42.375432" lon="1.679817">
        <ele>1171.014</ele>
        <time>2019-05-31T14:24:10Z</time>
      </trkpt>
      <trkpt lat="42.375337" lon="1.679866">
        <ele>1170.682</ele>
        <time>2019-05-31T14:24:11Z</time>
      </trkpt>
      <trkpt lat="42.375151" lon="1.679961">
        <ele>1168.876</ele>
        <time>2019-05-31T14:24:13Z</time>
      </trkpt>
      <trkpt lat="42.374970" lon="1.680047">
        <ele>1166.891</ele>
        <time>2019-05-31T14:24:15Z</time>
      </trkpt>
      <trkpt lat="42.374626" lon="1.680173">
        <ele>1165.635</ele>
        <time>2019-05-31T14:24:19Z</time>
      </trkpt>
      <trkpt lat="42.374452" lon="1.680215">
        <ele>1164.091</ele>
        <time>2019-05-31T14:24:21Z</time>
      </trkpt>
      <trkpt lat="42.374363" lon="1.680212">
        <ele>1163.289</ele>
        <time>2019-05-31T14:24:22Z</time>
      </trkpt>
      <trkpt lat="42.374272" lon="1.680206">
        <ele>1162.806</ele>
        <time>2019-05-31T14:24:23Z</time>
      </trkpt>
      <trkpt lat="42.374179" lon="1.680215">
        <ele>1162.226</ele>
        <time>2019-05-31T14:24:24Z</time>
      </trkpt>
      <trkpt lat="42.374099" lon="1.680232">
        <ele>1161.808</ele>
        <time>2019-05-31T14:24:25Z</time>
      </trkpt>
      <trkpt lat="42.374027" lon="1.680253">
        <ele>1161.641</ele>
        <time>2019-05-31T14:24:26Z</time>
      </trkpt>
      <trkpt lat="42.373909" lon="1.680314">
        <ele>1161.445</ele>
        <time>2019-05-31T14:24:28Z</time>
      </trkpt>
      <trkpt lat="42.373863" lon="1.680373">
        <ele>1161.231</ele>
        <time>2019-05-31T14:24:29Z</time>
      </trkpt>
      <trkpt lat="42.373806" lon="1.680536">
        <ele>1160.669</ele>
        <time>2019-05-31T14:24:31Z</time>
      </trkpt>
      <trkpt lat="42.373786" lon="1.680636">
        <ele>1159.683</ele>
        <time>2019-05-31T14:24:32Z</time>
      </trkpt>
      <trkpt lat="42.373766" lon="1.680739">
        <ele>1158.878</ele>
        <time>2019-05-31T14:24:33Z</time>
      </trkpt>
      <trkpt lat="42.373754" lon="1.680849">
        <ele>1158.282</ele>
        <time>2019-05-31T14:24:34Z</time>
      </trkpt>
      <trkpt lat="42.373750" lon="1.680966">
        <ele>1157.428</ele>
        <time>2019-05-31T14:24:35Z</time>
      </trkpt>
      <trkpt lat="42.373755" lon="1.681090">
        <ele>1156.886</ele>
        <time>2019-05-31T14:24:36Z</time>
      </trkpt>
      <trkpt lat="42.373758" lon="1.681202">
        <ele>1156.260</ele>
        <time>2019-05-31T14:24:37Z</time>
      </trkpt>
      <trkpt lat="42.373778" lon="1.681519">
        <ele>1154.426</ele>
        <time>2019-05-31T14:24:40Z</time>
      </trkpt>
      <trkpt lat="42.373776" lon="1.681622">
        <ele>1153.808</ele>
        <time>2019-05-31T14:24:41Z</time>
      </trkpt>
      <trkpt lat="42.373767" lon="1.681721">
        <ele>1153.691</ele>
        <time>2019-05-31T14:24:42Z</time>
      </trkpt>
      <trkpt lat="42.373745" lon="1.681821">
        <ele>1153.435</ele>
        <time>2019-05-31T14:24:43Z</time>
      </trkpt>
      <trkpt lat="42.373692" lon="1.682014">
        <ele>1152.471</ele>
        <time>2019-05-31T14:24:45Z</time>
      </trkpt>
      <trkpt lat="42.373614" lon="1.682187">
        <ele>1150.449</ele>
        <time>2019-05-31T14:24:47Z</time>
      </trkpt>
      <trkpt lat="42.373540" lon="1.682244">
        <ele>1149.443</ele>
        <time>2019-05-31T14:24:48Z</time>
      </trkpt>
      <trkpt lat="42.373460" lon="1.682295">
        <ele>1148.698</ele>
        <time>2019-05-31T14:24:49Z</time>
      </trkpt>
      <trkpt lat="42.373380" lon="1.682353">
        <ele>1147.892</ele>
        <time>2019-05-31T14:24:50Z</time>
      </trkpt>
      <trkpt lat="42.373220" lon="1.682463">
        <ele>1146.658</ele>
        <time>2019-05-31T14:24:52Z</time>
      </trkpt>
      <trkpt lat="42.372967" lon="1.682677">
        <ele>1144.815</ele>
        <time>2019-05-31T14:24:55Z</time>
      </trkpt>
      <trkpt lat="42.372830" lon="1.682796">
        <ele>1143.665</ele>
        <time>2019-05-31T14:24:57Z</time>
      </trkpt>
      <trkpt lat="42.372767" lon="1.682829">
        <ele>1143.411</ele>
        <time>2019-05-31T14:24:58Z</time>
      </trkpt>
      <trkpt lat="42.372668" lon="1.682876">
        <ele>1142.408</ele>
        <time>2019-05-31T14:25:00Z</time>
      </trkpt>
      <trkpt lat="42.372617" lon="1.682910">
        <ele>1142.034</ele>
        <time>2019-05-31T14:25:01Z</time>
      </trkpt>
      <trkpt lat="42.372550" lon="1.682913">
        <ele>1142.028</ele>
        <time>2019-05-31T14:25:02Z</time>
      </trkpt>
      <trkpt lat="42.372384" lon="1.682891">
        <ele>1140.414</ele>
        <time>2019-05-31T14:25:04Z</time>
      </trkpt>
      <trkpt lat="42.372213" lon="1.682850">
        <ele>1140.022</ele>
        <time>2019-05-31T14:25:06Z</time>
      </trkpt>
      <trkpt lat="42.372056" lon="1.682820">
        <ele>1139.426</ele>
        <time>2019-05-31T14:25:08Z</time>
      </trkpt>
      <trkpt lat="42.371971" lon="1.682831">
        <ele>1139.021</ele>
        <time>2019-05-31T14:25:09Z</time>
      </trkpt>
      <trkpt lat="42.371891" lon="1.682860">
        <ele>1138.475</ele>
        <time>2019-05-31T14:25:10Z</time>
      </trkpt>
      <trkpt lat="42.371811" lon="1.682889">
        <ele>1138.081</ele>
        <time>2019-05-31T14:25:11Z</time>
      </trkpt>
      <trkpt lat="42.371659" lon="1.682933">
        <ele>1137.074</ele>
        <time>2019-05-31T14:25:13Z</time>
      </trkpt>
      <trkpt lat="42.371594" lon="1.682976">
        <ele>1136.456</ele>
        <time>2019-05-31T14:25:14Z</time>
      </trkpt>
      <trkpt lat="42.371541" lon="1.683038">
        <ele>1135.821</ele>
        <time>2019-05-31T14:25:15Z</time>
      </trkpt>
      <trkpt lat="42.371471" lon="1.683225">
        <ele>1134.408</ele>
        <time>2019-05-31T14:25:17Z</time>
      </trkpt>
      <trkpt lat="42.371437" lon="1.683330">
        <ele>1133.670</ele>
        <time>2019-05-31T14:25:18Z</time>
      </trkpt>
      <trkpt lat="42.371402" lon="1.683443">
        <ele>1132.434</ele>
        <time>2019-05-31T14:25:19Z</time>
      </trkpt>
      <trkpt lat="42.371360" lon="1.683556">
        <ele>1131.460</ele>
        <time>2019-05-31T14:25:20Z</time>
      </trkpt>
      <trkpt lat="42.371275" lon="1.683770">
        <ele>1130.478</ele>
        <time>2019-05-31T14:25:22Z</time>
      </trkpt>
      <trkpt lat="42.371233" lon="1.683878">
        <ele>1129.632</ele>
        <time>2019-05-31T14:25:23Z</time>
      </trkpt>
      <trkpt lat="42.371190" lon="1.683975">
        <ele>1129.067</ele>
        <time>2019-05-31T14:25:24Z</time>
      </trkpt>
      <trkpt lat="42.371144" lon="1.684072">
        <ele>1127.661</ele>
        <time>2019-05-31T14:25:25Z</time>
      </trkpt>
      <trkpt lat="42.371001" lon="1.684332">
        <ele>1128.827</ele>
        <time>2019-05-31T14:25:28Z</time>
      </trkpt>
      <trkpt lat="42.370841" lon="1.684596">
        <ele>1127.435</ele>
        <time>2019-05-31T14:25:31Z</time>
      </trkpt>
      <trkpt lat="42.370767" lon="1.684650">
        <ele>1127.086</ele>
        <time>2019-05-31T14:25:32Z</time>
      </trkpt>
      <trkpt lat="42.370686" lon="1.684659">
        <ele>1127.014</ele>
        <time>2019-05-31T14:25:33Z</time>
      </trkpt>
      <trkpt lat="42.370454" lon="1.684704">
        <ele>1126.808</ele>
        <time>2019-05-31T14:25:36Z</time>
      </trkpt>
      <trkpt lat="42.370373" lon="1.684728">
        <ele>1126.446</ele>
        <time>2019-05-31T14:25:37Z</time>
      </trkpt>
      <trkpt lat="42.370209" lon="1.684751">
        <ele>1125.470</ele>
        <time>2019-05-31T14:25:39Z</time>
      </trkpt>
      <trkpt lat="42.370127" lon="1.684745">
        <ele>1124.896</ele>
        <time>2019-05-31T14:25:40Z</time>
      </trkpt>
      <trkpt lat="42.370050" lon="1.684731">
        <ele>1124.074</ele>
        <time>2019-05-31T14:25:41Z</time>
      </trkpt>
      <trkpt lat="42.369905" lon="1.684688">
        <ele>1123.058</ele>
        <time>2019-05-31T14:25:43Z</time>
      </trkpt>
      <trkpt lat="42.369759" lon="1.684615">
        <ele>1122.033</ele>
        <time>2019-05-31T14:25:45Z</time>
      </trkpt>
      <trkpt lat="42.369689" lon="1.684570">
        <ele>1121.247</ele>
        <time>2019-05-31T14:25:46Z</time>
      </trkpt>
      <trkpt lat="42.369475" lon="1.684482">
        <ele>1121.293</ele>
        <time>2019-05-31T14:25:49Z</time>
      </trkpt>
      <trkpt lat="42.369392" lon="1.684491">
        <ele>1121.459</ele>
        <time>2019-05-31T14:25:50Z</time>
      </trkpt>
      <trkpt lat="42.369227" lon="1.684560">
        <ele>1119.203</ele>
        <time>2019-05-31T14:25:52Z</time>
      </trkpt>
      <trkpt lat="42.369044" lon="1.684643">
        <ele>1117.623</ele>
        <time>2019-05-31T14:25:54Z</time>
      </trkpt>
      <trkpt lat="42.368861" lon="1.684744">
        <ele>1115.808</ele>
        <time>2019-05-31T14:25:56Z</time>
      </trkpt>
      <trkpt lat="42.368768" lon="1.684790">
        <ele>1114.668</ele>
        <time>2019-05-31T14:25:57Z</time>
      </trkpt>
      <trkpt lat="42.368502" lon="1.684900">
        <ele>1113.892</ele>
        <time>2019-05-31T14:26:00Z</time>
      </trkpt>
      <trkpt lat="42.368251" lon="1.685058">
        <ele>1113.468</ele>
        <time>2019-05-31T14:26:03Z</time>
      </trkpt>
      <trkpt lat="42.368095" lon="1.685159">
        <ele>1112.626</ele>
        <time>2019-05-31T14:26:05Z</time>
      </trkpt>
      <trkpt lat="42.368016" lon="1.685175">
        <ele>1112.060</ele>
        <time>2019-05-31T14:26:06Z</time>
      </trkpt>
      <trkpt lat="42.367858" lon="1.685179">
        <ele>1111.035</ele>
        <time>2019-05-31T14:26:08Z</time>
      </trkpt>
      <trkpt lat="42.367776" lon="1.685167">
        <ele>1110.839</ele>
        <time>2019-05-31T14:26:09Z</time>
      </trkpt>
      <trkpt lat="42.367692" lon="1.685165">
        <ele>1110.675</ele>
        <time>2019-05-31T14:26:10Z</time>
      </trkpt>
      <trkpt lat="42.367528" lon="1.685186">
        <ele>1109.841</ele>
        <time>2019-05-31T14:26:12Z</time>
      </trkpt>
      <trkpt lat="42.367451" lon="1.685222">
        <ele>1109.481</ele>
        <time>2019-05-31T14:26:13Z</time>
      </trkpt>
      <trkpt lat="42.367287" lon="1.685312">
        <ele>1108.409</ele>
        <time>2019-05-31T14:26:15Z</time>
      </trkpt>
      <trkpt lat="42.367204" lon="1.685360">
        <ele>1107.408</ele>
        <time>2019-05-31T14:26:16Z</time>
      </trkpt>
      <trkpt lat="42.367122" lon="1.685413">
        <ele>1106.827</ele>
        <time>2019-05-31T14:26:17Z</time>
      </trkpt>
      <trkpt lat="42.366959" lon="1.685540">
        <ele>1105.661</ele>
        <time>2019-05-31T14:26:19Z</time>
      </trkpt>
      <trkpt lat="42.366804" lon="1.685653">
        <ele>1104.657</ele>
        <time>2019-05-31T14:26:21Z</time>
      </trkpt>
      <trkpt lat="42.366676" lon="1.685769">
        <ele>1104.625</ele>
        <time>2019-05-31T14:26:23Z</time>
      </trkpt>
      <trkpt lat="42.366600" lon="1.685892">
        <ele>1105.049</ele>
        <time>2019-05-31T14:26:25Z</time>
      </trkpt>
      <trkpt lat="42.366495" lon="1.685919">
        <ele>1105.044</ele>
        <time>2019-05-31T14:26:28Z</time>
      </trkpt>
      <trkpt lat="42.366479" lon="1.685785">
        <ele>1104.458</ele>
        <time>2019-05-31T14:26:30Z</time>
      </trkpt>
      <trkpt lat="42.366562" lon="1.685675">
        <ele>1103.434</ele>
        <time>2019-05-31T14:26:32Z</time>
      </trkpt>
      <trkpt lat="42.366735" lon="1.685557">
        <ele>1102.465</ele>
        <time>2019-05-31T14:26:35Z</time>
      </trkpt>
      <trkpt lat="42.366795" lon="1.685506">
        <ele>1101.868</ele>
        <time>2019-05-31T14:26:36Z</time>
      </trkpt>
      <trkpt lat="42.366910" lon="1.685385">
        <ele>1100.814</ele>
        <time>2019-05-31T14:26:38Z</time>
      </trkpt>
      <trkpt lat="42.367023" lon="1.685253">
        <ele>1099.608</ele>
        <time>2019-05-31T14:26:40Z</time>
      </trkpt>
      <trkpt lat="42.367137" lon="1.685114">
        <ele>1099.279</ele>
        <time>2019-05-31T14:26:42Z</time>
      </trkpt>
      <trkpt lat="42.367304" lon="1.684921">
        <ele>1098.263</ele>
        <time>2019-05-31T14:26:45Z</time>
      </trkpt>
      <trkpt lat="42.367431" lon="1.684803">
        <ele>1097.429</ele>
        <time>2019-05-31T14:26:47Z</time>
      </trkpt>
      <trkpt lat="42.367502" lon="1.684743">
        <ele>1097.297</ele>
        <time>2019-05-31T14:26:48Z</time>
      </trkpt>
      <trkpt lat="42.367731" lon="1.684606">
        <ele>1095.831</ele>
        <time>2019-05-31T14:26:51Z</time>
      </trkpt>
      <trkpt lat="42.367809" lon="1.684574">
        <ele>1095.076</ele>
        <time>2019-05-31T14:26:52Z</time>
      </trkpt>
      <trkpt lat="42.367887" lon="1.684538">
        <ele>1094.070</ele>
        <time>2019-05-31T14:26:53Z</time>
      </trkpt>
      <trkpt lat="42.368050" lon="1.684444">
        <ele>1092.666</ele>
        <time>2019-05-31T14:26:55Z</time>
      </trkpt>
      <trkpt lat="42.368214" lon="1.684216">
        <ele>1091.095</ele>
        <time>2019-05-31T14:26:57Z</time>
      </trkpt>
      <trkpt lat="42.368357" lon="1.684021">
        <ele>1090.049</ele>
        <time>2019-05-31T14:26:59Z</time>
      </trkpt>
      <trkpt lat="42.368566" lon="1.683803">
        <ele>1089.223</ele>
        <time>2019-05-31T14:27:02Z</time>
      </trkpt>
      <trkpt lat="42.368874" lon="1.683616">
        <ele>1089.608</ele>
        <time>2019-05-31T14:27:06Z</time>
      </trkpt>
      <trkpt lat="42.369294" lon="1.683375">
        <ele>1089.082</ele>
        <time>2019-05-31T14:27:12Z</time>
      </trkpt>
      <trkpt lat="42.369363" lon="1.683341">
        <ele>1088.216</ele>
        <time>2019-05-31T14:27:13Z</time>
      </trkpt>
      <trkpt lat="42.369512" lon="1.683301">
        <ele>1087.632</ele>
        <time>2019-05-31T14:27:15Z</time>
      </trkpt>
      <trkpt lat="42.369735" lon="1.683246">
        <ele>1086.020</ele>
        <time>2019-05-31T14:27:18Z</time>
      </trkpt>
      <trkpt lat="42.369809" lon="1.683245">
        <ele>1085.444</ele>
        <time>2019-05-31T14:27:19Z</time>
      </trkpt>
      <trkpt lat="42.370005" lon="1.683247">
        <ele>1084.649</ele>
        <time>2019-05-31T14:27:22Z</time>
      </trkpt>
      <trkpt lat="42.370126" lon="1.683278">
        <ele>1083.493</ele>
        <time>2019-05-31T14:27:24Z</time>
      </trkpt>
      <trkpt lat="42.370261" lon="1.683314">
        <ele>1082.069</ele>
        <time>2019-05-31T14:27:26Z</time>
      </trkpt>
      <trkpt lat="42.370413" lon="1.683225">
        <ele>1081.874</ele>
        <time>2019-05-31T14:27:29Z</time>
      </trkpt>
      <trkpt lat="42.370391" lon="1.683168">
        <ele>1081.056</ele>
        <time>2019-05-31T14:27:32Z</time>
      </trkpt>
      <trkpt lat="42.370264" lon="1.683159">
        <ele>1079.821</ele>
        <time>2019-05-31T14:27:34Z</time>
      </trkpt>
      <trkpt lat="42.370185" lon="1.683164">
        <ele>1079.008</ele>
        <time>2019-05-31T14:27:35Z</time>
      </trkpt>
      <trkpt lat="42.370105" lon="1.683168">
        <ele>1078.040</ele>
        <time>2019-05-31T14:27:36Z</time>
      </trkpt>
      <trkpt lat="42.369772" lon="1.683162">
        <ele>1075.894</ele>
        <time>2019-05-31T14:27:40Z</time>
      </trkpt>
      <trkpt lat="42.369693" lon="1.683154">
        <ele>1074.810</ele>
        <time>2019-05-31T14:27:41Z</time>
      </trkpt>
      <trkpt lat="42.369397" lon="1.683135">
        <ele>1074.448</ele>
        <time>2019-05-31T14:27:45Z</time>
      </trkpt>
      <trkpt lat="42.369244" lon="1.683171">
        <ele>1074.472</ele>
        <time>2019-05-31T14:27:47Z</time>
      </trkpt>
      <trkpt lat="42.369074" lon="1.683271">
        <ele>1074.667</ele>
        <time>2019-05-31T14:27:49Z</time>
      </trkpt>
      <trkpt lat="42.368921" lon="1.683331">
        <ele>1074.081</ele>
        <time>2019-05-31T14:27:51Z</time>
      </trkpt>
      <trkpt lat="42.368842" lon="1.683356">
        <ele>1072.877</ele>
        <time>2019-05-31T14:27:52Z</time>
      </trkpt>
      <trkpt lat="42.368702" lon="1.683379">
        <ele>1071.663</ele>
        <time>2019-05-31T14:27:54Z</time>
      </trkpt>
      <trkpt lat="42.368567" lon="1.683384">
        <ele>1071.444</ele>
        <time>2019-05-31T14:27:56Z</time>
      </trkpt>
      <trkpt lat="42.368413" lon="1.683405">
        <ele>1070.418</ele>
        <time>2019-05-31T14:27:58Z</time>
      </trkpt>
      <trkpt lat="42.368323" lon="1.683442">
        <ele>1069.408</ele>
        <time>2019-05-31T14:27:59Z</time>
      </trkpt>
      <trkpt lat="42.368239" lon="1.683499">
        <ele>1068.449</ele>
        <time>2019-05-31T14:28:00Z</time>
      </trkpt>
      <trkpt lat="42.368164" lon="1.683562">
        <ele>1067.853</ele>
        <time>2019-05-31T14:28:01Z</time>
      </trkpt>
      <trkpt lat="42.368033" lon="1.683695">
        <ele>1067.039</ele>
        <time>2019-05-31T14:28:03Z</time>
      </trkpt>
      <trkpt lat="42.367961" lon="1.683756">
        <ele>1067.027</ele>
        <time>2019-05-31T14:28:04Z</time>
      </trkpt>
      <trkpt lat="42.367708" lon="1.683901">
        <ele>1068.211</ele>
        <time>2019-05-31T14:28:08Z</time>
      </trkpt>
      <trkpt lat="42.367350" lon="1.683924">
        <ele>1068.236</ele>
        <time>2019-05-31T14:28:13Z</time>
      </trkpt>
      <trkpt lat="42.367281" lon="1.683924">
        <ele>1068.240</ele>
        <time>2019-05-31T14:28:14Z</time>
      </trkpt>
      <trkpt lat="42.367149" lon="1.683915">
        <ele>1068.016</ele>
        <time>2019-05-31T14:28:16Z</time>
      </trkpt>
      <trkpt lat="42.367024" lon="1.683921">
        <ele>1067.859</ele>
        <time>2019-05-31T14:28:18Z</time>
      </trkpt>
      <trkpt lat="42.366820" lon="1.684069">
        <ele>1067.803</ele>
        <time>2019-05-31T14:28:22Z</time>
      </trkpt>
      <trkpt lat="42.366766" lon="1.684203">
        <ele>1067.223</ele>
        <time>2019-05-31T14:28:24Z</time>
      </trkpt>
      <trkpt lat="42.366699" lon="1.684333">
        <ele>1067.208</ele>
        <time>2019-05-31T14:28:26Z</time>
      </trkpt>
      <trkpt lat="42.366601" lon="1.684442">
        <ele>1066.478</ele>
        <time>2019-05-31T14:28:28Z</time>
      </trkpt>
      <trkpt lat="42.366494" lon="1.684538">
        <ele>1065.452</ele>
        <time>2019-05-31T14:28:30Z</time>
      </trkpt>
      <trkpt lat="42.366430" lon="1.684573">
        <ele>1065.078</ele>
        <time>2019-05-31T14:28:31Z</time>
      </trkpt>
      <trkpt lat="42.366307" lon="1.684645">
        <ele>1063.896</ele>
        <time>2019-05-31T14:28:33Z</time>
      </trkpt>
      <trkpt lat="42.366243" lon="1.684675">
        <ele>1063.280</ele>
        <time>2019-05-31T14:28:34Z</time>
      </trkpt>
      <trkpt lat="42.366181" lon="1.684697">
        <ele>1062.885</ele>
        <time>2019-05-31T14:28:35Z</time>
      </trkpt>
      <trkpt lat="42.366115" lon="1.684702">
        <ele>1061.819</ele>
        <time>2019-05-31T14:28:36Z</time>
      </trkpt>
      <trkpt lat="42.366045" lon="1.684683">
        <ele>1061.255</ele>
        <time>2019-05-31T14:28:37Z</time>
      </trkpt>
      <trkpt lat="42.365969" lon="1.684660">
        <ele>1061.024</ele>
        <time>2019-05-31T14:28:38Z</time>
      </trkpt>
      <trkpt lat="42.365725" lon="1.684605">
        <ele>1060.804</ele>
        <time>2019-05-31T14:28:41Z</time>
      </trkpt>
      <trkpt lat="42.365566" lon="1.684612">
        <ele>1059.614</ele>
        <time>2019-05-31T14:28:43Z</time>
      </trkpt>
      <trkpt lat="42.365338" lon="1.684662">
        <ele>1058.008</ele>
        <time>2019-05-31T14:28:46Z</time>
      </trkpt>
      <trkpt lat="42.365267" lon="1.684691">
        <ele>1057.695</ele>
        <time>2019-05-31T14:28:47Z</time>
      </trkpt>
      <trkpt lat="42.365191" lon="1.684725">
        <ele>1056.899</ele>
        <time>2019-05-31T14:28:48Z</time>
      </trkpt>
      <trkpt lat="42.365044" lon="1.684823">
        <ele>1054.685</ele>
        <time>2019-05-31T14:28:50Z</time>
      </trkpt>
      <trkpt lat="42.364900" lon="1.684940">
        <ele>1052.863</ele>
        <time>2019-05-31T14:28:52Z</time>
      </trkpt>
      <trkpt lat="42.364764" lon="1.685070">
        <ele>1051.477</ele>
        <time>2019-05-31T14:28:54Z</time>
      </trkpt>
      <trkpt lat="42.364647" lon="1.685218">
        <ele>1050.462</ele>
        <time>2019-05-31T14:28:56Z</time>
      </trkpt>
      <trkpt lat="42.364586" lon="1.685283">
        <ele>1050.076</ele>
        <time>2019-05-31T14:28:57Z</time>
      </trkpt>
      <trkpt lat="42.364518" lon="1.685335">
        <ele>1049.632</ele>
        <time>2019-05-31T14:28:58Z</time>
      </trkpt>
      <trkpt lat="42.364368" lon="1.685392">
        <ele>1049.238</ele>
        <time>2019-05-31T14:29:00Z</time>
      </trkpt>
      <trkpt lat="42.364197" lon="1.685419">
        <ele>1048.070</ele>
        <time>2019-05-31T14:29:02Z</time>
      </trkpt>
      <trkpt lat="42.364025" lon="1.685429">
        <ele>1047.017</ele>
        <time>2019-05-31T14:29:04Z</time>
      </trkpt>
      <trkpt lat="42.363935" lon="1.685418">
        <ele>1046.408</ele>
        <time>2019-05-31T14:29:05Z</time>
      </trkpt>
      <trkpt lat="42.363845" lon="1.685404">
        <ele>1045.496</ele>
        <time>2019-05-31T14:29:06Z</time>
      </trkpt>
      <trkpt lat="42.363751" lon="1.685386">
        <ele>1044.210</ele>
        <time>2019-05-31T14:29:07Z</time>
      </trkpt>
      <trkpt lat="42.363663" lon="1.685364">
        <ele>1043.266</ele>
        <time>2019-05-31T14:29:08Z</time>
      </trkpt>
      <trkpt lat="42.363261" lon="1.685285">
        <ele>1042.894</ele>
        <time>2019-05-31T14:29:13Z</time>
      </trkpt>
      <trkpt lat="42.363057" lon="1.685292">
        <ele>1041.618</ele>
        <time>2019-05-31T14:29:16Z</time>
      </trkpt>
      <trkpt lat="42.362991" lon="1.685311">
        <ele>1041.273</ele>
        <time>2019-05-31T14:29:17Z</time>
      </trkpt>
      <trkpt lat="42.362931" lon="1.685354">
        <ele>1040.877</ele>
        <time>2019-05-31T14:29:18Z</time>
      </trkpt>
      <trkpt lat="42.362842" lon="1.685476">
        <ele>1040.233</ele>
        <time>2019-05-31T14:29:20Z</time>
      </trkpt>
      <trkpt lat="42.362806" lon="1.685552">
        <ele>1039.867</ele>
        <time>2019-05-31T14:29:21Z</time>
      </trkpt>
      <trkpt lat="42.362773" lon="1.685633">
        <ele>1039.081</ele>
        <time>2019-05-31T14:29:22Z</time>
      </trkpt>
      <trkpt lat="42.362751" lon="1.685811">
        <ele>1037.419</ele>
        <time>2019-05-31T14:29:24Z</time>
      </trkpt>
      <trkpt lat="42.362772" lon="1.685904">
        <ele>1036.808</ele>
        <time>2019-05-31T14:29:25Z</time>
      </trkpt>
      <trkpt lat="42.362804" lon="1.685986">
        <ele>1036.469</ele>
        <time>2019-05-31T14:29:26Z</time>
      </trkpt>
      <trkpt lat="42.362836" lon="1.686072">
        <ele>1036.033</ele>
        <time>2019-05-31T14:29:27Z</time>
      </trkpt>
      <trkpt lat="42.362865" lon="1.686153">
        <ele>1034.419</ele>
        <time>2019-05-31T14:29:28Z</time>
      </trkpt>
      <trkpt lat="42.362863" lon="1.686246">
        <ele>1034.057</ele>
        <time>2019-05-31T14:29:29Z</time>
      </trkpt>
      <trkpt lat="42.362790" lon="1.686383">
        <ele>1033.841</ele>
        <time>2019-05-31T14:29:31Z</time>
      </trkpt>
      <trkpt lat="42.362740" lon="1.686427">
        <ele>1033.226</ele>
        <time>2019-05-31T14:29:32Z</time>
      </trkpt>
      <trkpt lat="42.362631" lon="1.686534">
        <ele>1032.650</ele>
        <time>2019-05-31T14:29:34Z</time>
      </trkpt>
      <trkpt lat="42.362580" lon="1.686598">
        <ele>1032.036</ele>
        <time>2019-05-31T14:29:35Z</time>
      </trkpt>
      <trkpt lat="42.362488" lon="1.686740">
        <ele>1030.845</ele>
        <time>2019-05-31T14:29:37Z</time>
      </trkpt>
      <trkpt lat="42.362410" lon="1.686911">
        <ele>1029.447</ele>
        <time>2019-05-31T14:29:39Z</time>
      </trkpt>
      <trkpt lat="42.362295" lon="1.687197">
        <ele>1028.011</ele>
        <time>2019-05-31T14:29:42Z</time>
      </trkpt>
      <trkpt lat="42.362202" lon="1.687396">
        <ele>1027.008</ele>
        <time>2019-05-31T14:29:44Z</time>
      </trkpt>
      <trkpt lat="42.362148" lon="1.687491">
        <ele>1026.627</ele>
        <time>2019-05-31T14:29:45Z</time>
      </trkpt>
      <trkpt lat="42.362043" lon="1.687664">
        <ele>1026.041</ele>
        <time>2019-05-31T14:29:47Z</time>
      </trkpt>
      <trkpt lat="42.361928" lon="1.687800">
        <ele>1026.227</ele>
        <time>2019-05-31T14:29:49Z</time>
      </trkpt>
      <trkpt lat="42.361659" lon="1.687967">
        <ele>1025.025</ele>
        <time>2019-05-31T14:29:53Z</time>
      </trkpt>
      <trkpt lat="42.361598" lon="1.688004">
        <ele>1024.879</ele>
        <time>2019-05-31T14:29:54Z</time>
      </trkpt>
      <trkpt lat="42.361542" lon="1.688056">
        <ele>1024.814</ele>
        <time>2019-05-31T14:29:55Z</time>
      </trkpt>
      <trkpt lat="42.361442" lon="1.688205">
        <ele>1023.898</ele>
        <time>2019-05-31T14:29:57Z</time>
      </trkpt>
      <trkpt lat="42.361405" lon="1.688422">
        <ele>1022.264</ele>
        <time>2019-05-31T14:29:59Z</time>
      </trkpt>
      <trkpt lat="42.361392" lon="1.688533">
        <ele>1021.628</ele>
        <time>2019-05-31T14:30:00Z</time>
      </trkpt>
      <trkpt lat="42.361384" lon="1.688640">
        <ele>1020.689</ele>
        <time>2019-05-31T14:30:01Z</time>
      </trkpt>
      <trkpt lat="42.361363" lon="1.688856">
        <ele>1019.017</ele>
        <time>2019-05-31T14:30:03Z</time>
      </trkpt>
      <trkpt lat="42.361307" lon="1.689119">
        <ele>1017.808</ele>
        <time>2019-05-31T14:30:06Z</time>
      </trkpt>
      <trkpt lat="42.361252" lon="1.689258">
        <ele>1016.655</ele>
        <time>2019-05-31T14:30:08Z</time>
      </trkpt>
      <trkpt lat="42.361217" lon="1.689418">
        <ele>1015.869</ele>
        <time>2019-05-31T14:30:10Z</time>
      </trkpt>
      <trkpt lat="42.361220" lon="1.689494">
        <ele>1015.225</ele>
        <time>2019-05-31T14:30:11Z</time>
      </trkpt>
      <trkpt lat="42.361266" lon="1.689657">
        <ele>1014.233</ele>
        <time>2019-05-31T14:30:13Z</time>
      </trkpt>
      <trkpt lat="42.361294" lon="1.689731">
        <ele>1013.867</ele>
        <time>2019-05-31T14:30:14Z</time>
      </trkpt>
      <trkpt lat="42.361319" lon="1.689801">
        <ele>1013.072</ele>
        <time>2019-05-31T14:30:15Z</time>
      </trkpt>
      <trkpt lat="42.361321" lon="1.689866">
        <ele>1011.816</ele>
        <time>2019-05-31T14:30:16Z</time>
      </trkpt>
      <trkpt lat="42.361293" lon="1.689923">
        <ele>1011.412</ele>
        <time>2019-05-31T14:30:17Z</time>
      </trkpt>
      <trkpt lat="42.361194" lon="1.689979">
        <ele>1010.479</ele>
        <time>2019-05-31T14:30:19Z</time>
      </trkpt>
      <trkpt lat="42.361139" lon="1.690006">
        <ele>1009.605</ele>
        <time>2019-05-31T14:30:20Z</time>
      </trkpt>
      <trkpt lat="42.361090" lon="1.690023">
        <ele>1008.825</ele>
        <time>2019-05-31T14:30:21Z</time>
      </trkpt>
      <trkpt lat="42.361000" lon="1.690067">
        <ele>1007.608</ele>
        <time>2019-05-31T14:30:23Z</time>
      </trkpt>
      <trkpt lat="42.360900" lon="1.690114">
        <ele>1006.090</ele>
        <time>2019-05-31T14:30:25Z</time>
      </trkpt>
      <trkpt lat="42.360845" lon="1.690108">
        <ele>1005.414</ele>
        <time>2019-05-31T14:30:26Z</time>
      </trkpt>
      <trkpt lat="42.360797" lon="1.690074">
        <ele>1005.080</ele>
        <time>2019-05-31T14:30:27Z</time>
      </trkpt>
      <trkpt lat="42.360758" lon="1.690024">
        <ele>1004.428</ele>
        <time>2019-05-31T14:30:28Z</time>
      </trkpt>
      <trkpt lat="42.360738" lon="1.689950">
        <ele>1003.842</ele>
        <time>2019-05-31T14:30:29Z</time>
      </trkpt>
      <trkpt lat="42.360729" lon="1.689817">
        <ele>1003.487</ele>
        <time>2019-05-31T14:30:31Z</time>
      </trkpt>
      <trkpt lat="42.360725" lon="1.689759">
        <ele>1003.211</ele>
        <time>2019-05-31T14:30:32Z</time>
      </trkpt>
      <trkpt lat="42.360730" lon="1.689700">
        <ele>1003.027</ele>
        <time>2019-05-31T14:30:33Z</time>
      </trkpt>
      <trkpt lat="42.360733" lon="1.689641">
        <ele>1002.672</ele>
        <time>2019-05-31T14:30:34Z</time>
      </trkpt>
      <trkpt lat="42.360729" lon="1.689581">
        <ele>1002.213</ele>
        <time>2019-05-31T14:30:35Z</time>
      </trkpt>
      <trkpt lat="42.360722" lon="1.689529">
        <ele>1002.014</ele>
        <time>2019-05-31T14:30:36Z</time>
      </trkpt>
      <trkpt lat="42.360718" lon="1.689440">
        <ele>1002.208</ele>
        <time>2019-05-31T14:30:40Z</time>
      </trkpt>
      <trkpt lat="42.360679" lon="1.689346">
        <ele>1001.660</ele>
        <time>2019-05-31T14:31:10Z</time>
      </trkpt>
      <trkpt lat="42.360652" lon="1.689329">
        <ele>1001.474</ele>
        <time>2019-05-31T14:31:11Z</time>
      </trkpt>
      <trkpt lat="42.360582" lon="1.689330">
        <ele>1001.260</ele>
        <time>2019-05-31T14:31:15Z</time>
      </trkpt>
      <trkpt lat="42.360553" lon="1.689379">
        <ele>1001.248</ele>
        <time>2019-05-31T14:31:21Z</time>
      </trkpt>
      <trkpt lat="42.360539" lon="1.689408">
        <ele>1001.442</ele>
        <time>2019-05-31T14:31:22Z</time>
      </trkpt>
      <trkpt lat="42.360495" lon="1.689597">
        <ele>1000.657</ele>
        <time>2019-05-31T14:31:26Z</time>
      </trkpt>
      <trkpt lat="42.360485" lon="1.689655">
        <ele>1000.431</ele>
        <time>2019-05-31T14:31:27Z</time>
      </trkpt>
      <trkpt lat="42.360483" lon="1.689717">
        <ele>999.857</ele>
        <time>2019-05-31T14:31:28Z</time>
      </trkpt>
      <trkpt lat="42.360477" lon="1.689845">
        <ele>999.635</ele>
        <time>2019-05-31T14:31:30Z</time>
      </trkpt>
      <trkpt lat="42.360470" lon="1.689911">
        <ele>999.686</ele>
        <time>2019-05-31T14:31:31Z</time>
      </trkpt>
      <trkpt lat="42.360461" lon="1.690053">
        <ele>997.814</ele>
        <time>2019-05-31T14:31:33Z</time>
      </trkpt>
      <trkpt lat="42.360440" lon="1.690276">
        <ele>1000.208</ele>
        <time>2019-05-31T14:31:36Z</time>
      </trkpt>
      <trkpt lat="42.360427" lon="1.690428">
        <ele>998.626</ele>
        <time>2019-05-31T14:31:38Z</time>
      </trkpt>
      <trkpt lat="42.360403" lon="1.690570">
        <ele>994.620</ele>
        <time>2019-05-31T14:31:40Z</time>
      </trkpt>
      <trkpt lat="42.360386" lon="1.690644">
        <ele>996.216</ele>
        <time>2019-05-31T14:31:41Z</time>
      </trkpt>
      <trkpt lat="42.360348" lon="1.690795">
        <ele>999.254</ele>
        <time>2019-05-31T14:31:43Z</time>
      </trkpt>
      <trkpt lat="42.360325" lon="1.690869">
        <ele>997.278</ele>
        <time>2019-05-31T14:31:44Z</time>
      </trkpt>
      <trkpt lat="42.360161" lon="1.691276">
        <ele>997.433</ele>
        <time>2019-05-31T14:31:50Z</time>
      </trkpt>
      <trkpt lat="42.360132" lon="1.691334">
        <ele>997.487</ele>
        <time>2019-05-31T14:31:51Z</time>
      </trkpt>
      <trkpt lat="42.359912" lon="1.691743">
        <ele>997.443</ele>
        <time>2019-05-31T14:31:59Z</time>
      </trkpt>
      <trkpt lat="42.359767" lon="1.691920">
        <ele>998.082</ele>
        <time>2019-05-31T14:32:05Z</time>
      </trkpt>
      <trkpt lat="42.359753" lon="1.691938">
        <ele>998.443</ele>
        <time>2019-05-31T14:32:08Z</time>
      </trkpt>
      <trkpt lat="42.359717" lon="1.692008">
        <ele>998.817</ele>
        <time>2019-05-31T14:32:48Z</time>
      </trkpt>
      <trkpt lat="42.359680" lon="1.692083">
        <ele>998.808</ele>
        <time>2019-05-31T14:32:51Z</time>
      </trkpt>
      <trkpt lat="42.359568" lon="1.692296">
        <ele>998.641</ele>
        <time>2019-05-31T14:32:58Z</time>
      </trkpt>
      <trkpt lat="42.359422" lon="1.692376">
        <ele>999.075</ele>
        <time>2019-05-31T14:33:04Z</time>
      </trkpt>
      <trkpt lat="42.359346" lon="1.692324">
        <ele>999.041</ele>
        <time>2019-05-31T14:33:08Z</time>
      </trkpt>
      <trkpt lat="42.359286" lon="1.692194">
        <ele>999.469</ele>
        <time>2019-05-31T14:33:13Z</time>
      </trkpt>
      <trkpt lat="42.359269" lon="1.692138">
        <ele>999.693</ele>
        <time>2019-05-31T14:33:15Z</time>
      </trkpt>
      <trkpt lat="42.359205" lon="1.691908">
        <ele>999.838</ele>
        <time>2019-05-31T14:33:22Z</time>
      </trkpt>
      <trkpt lat="42.359099" lon="1.691545">
        <ele>1000.432</ele>
        <time>2019-05-31T14:33:32Z</time>
      </trkpt>
      <trkpt lat="42.359078" lon="1.691432">
        <ele>1000.498</ele>
        <time>2019-05-31T14:33:35Z</time>
      </trkpt>
      <trkpt lat="42.359078" lon="1.691270">
        <ele>1000.279</ele>
        <time>2019-05-31T14:33:39Z</time>
      </trkpt>
      <trkpt lat="42.359150" lon="1.691023">
        <ele>1000.805</ele>
        <time>2019-05-31T14:33:46Z</time>
      </trkpt>
      <trkpt lat="42.359232" lon="1.690754">
        <ele>1001.025</ele>
        <time>2019-05-31T14:33:54Z</time>
      </trkpt>
      <trkpt lat="42.359242" lon="1.690695">
        <ele>1001.408</ele>
        <time>2019-05-31T14:33:56Z</time>
      </trkpt>
      <trkpt lat="42.359303" lon="1.690494">
        <ele>1002.210</ele>
        <time>2019-05-31T14:34:03Z</time>
      </trkpt>
      <trkpt lat="42.359333" lon="1.690398">
        <ele>1002.464</ele>
        <time>2019-05-31T14:34:07Z</time>
      </trkpt>
      <trkpt lat="42.359358" lon="1.690333">
        <ele>1002.830</ele>
        <time>2019-05-31T14:34:10Z</time>
      </trkpt>
      <trkpt lat="42.359392" lon="1.690215">
        <ele>1003.648</ele>
        <time>2019-05-31T14:34:15Z</time>
      </trkpt>
      <trkpt lat="42.359401" lon="1.690171">
        <ele>1004.052</ele>
        <time>2019-05-31T14:34:17Z</time>
      </trkpt>
      <trkpt lat="42.359423" lon="1.690045">
        <ele>1004.687</ele>
        <time>2019-05-31T14:34:22Z</time>
      </trkpt>
      <trkpt lat="42.359441" lon="1.689979">
        <ele>1004.651</ele>
        <time>2019-05-31T14:34:25Z</time>
      </trkpt>
      <trkpt lat="42.359487" lon="1.689805">
        <ele>1005.267</ele>
        <time>2019-05-31T14:34:33Z</time>
      </trkpt>
      <trkpt lat="42.359511" lon="1.689704">
        <ele>1005.642</ele>
        <time>2019-05-31T14:34:38Z</time>
      </trkpt>
      <trkpt lat="42.359506" lon="1.689666">
        <ele>1005.822</ele>
        <time>2019-05-31T14:34:40Z</time>
      </trkpt>
      <trkpt lat="42.359503" lon="1.689643">
        <ele>1006.214</ele>
        <time>2019-05-31T14:34:41Z</time>
      </trkpt>
      <trkpt lat="42.359490" lon="1.689576">
        <ele>1006.808</ele>
        <time>2019-05-31T14:34:44Z</time>
      </trkpt>
      <trkpt lat="42.359475" lon="1.689472">
        <ele>1007.677</ele>
        <time>2019-05-31T14:34:49Z</time>
      </trkpt>
      <trkpt lat="42.359455" lon="1.689402">
        <ele>1007.861</ele>
        <time>2019-05-31T14:34:53Z</time>
      </trkpt>
      <trkpt lat="42.359438" lon="1.689338">
        <ele>1008.617</ele>
        <time>2019-05-31T14:34:56Z</time>
      </trkpt>
      <trkpt lat="42.359439" lon="1.689309">
        <ele>1008.665</ele>
        <time>2019-05-31T14:34:58Z</time>
      </trkpt>
      <trkpt lat="42.359421" lon="1.689257">
        <ele>1009.079</ele>
        <time>2019-05-31T14:35:01Z</time>
      </trkpt>
      <trkpt lat="42.359413" lon="1.689228">
        <ele>1009.254</ele>
        <time>2019-05-31T14:35:03Z</time>
      </trkpt>
      <trkpt lat="42.359400" lon="1.689191">
        <ele>1009.498</ele>
        <time>2019-05-31T14:35:05Z</time>
      </trkpt>
      <trkpt lat="42.359387" lon="1.689137">
        <ele>1009.844</ele>
        <time>2019-05-31T14:35:08Z</time>
      </trkpt>
      <trkpt lat="42.359366" lon="1.689063">
        <ele>1010.091</ele>
        <time>2019-05-31T14:35:13Z</time>
      </trkpt>
      <trkpt lat="42.359359" lon="1.689047">
        <ele>1010.081</ele>
        <time>2019-05-31T14:35:14Z</time>
      </trkpt>
      <trkpt lat="42.359352" lon="1.689030">
        <ele>1010.019</ele>
        <time>2019-05-31T14:35:15Z</time>
      </trkpt>
      <trkpt lat="42.359320" lon="1.688879">
        <ele>1011.208</ele>
        <time>2019-05-31T14:35:24Z</time>
      </trkpt>
      <trkpt lat="42.359293" lon="1.688771">
        <ele>1012.252</ele>
        <time>2019-05-31T14:35:30Z</time>
      </trkpt>
      <trkpt lat="42.359294" lon="1.688752">
        <ele>1012.066</ele>
        <time>2019-05-31T14:35:31Z</time>
      </trkpt>
      <trkpt lat="42.359264" lon="1.688652">
        <ele>1012.662</ele>
        <time>2019-05-31T14:35:37Z</time>
      </trkpt>
      <trkpt lat="42.359257" lon="1.688618">
        <ele>1013.010</ele>
        <time>2019-05-31T14:35:39Z</time>
      </trkpt>
      <trkpt lat="42.359254" lon="1.688585">
        <ele>1013.214</ele>
        <time>2019-05-31T14:35:41Z</time>
      </trkpt>
      <trkpt lat="42.359254" lon="1.688565">
        <ele>1013.059</ele>
        <time>2019-05-31T14:35:42Z</time>
      </trkpt>
      <trkpt lat="42.359230" lon="1.688490">
        <ele>1013.293</ele>
        <time>2019-05-31T14:35:47Z</time>
      </trkpt>
      <trkpt lat="42.359221" lon="1.688423">
        <ele>1013.879</ele>
        <time>2019-05-31T14:35:51Z</time>
      </trkpt>
      <trkpt lat="42.359209" lon="1.688391">
        <ele>1014.456</ele>
        <time>2019-05-31T14:35:53Z</time>
      </trkpt>
      <trkpt lat="42.359203" lon="1.688375">
        <ele>1014.659</ele>
        <time>2019-05-31T14:35:54Z</time>
      </trkpt>
      <trkpt lat="42.359163" lon="1.688264">
        <ele>1015.014</ele>
        <time>2019-05-31T14:36:02Z</time>
      </trkpt>
      <trkpt lat="42.359118" lon="1.688177">
        <ele>1015.408</ele>
        <time>2019-05-31T14:36:08Z</time>
      </trkpt>
      <trkpt lat="42.359103" lon="1.688149">
        <ele>1015.648</ele>
        <time>2019-05-31T14:36:10Z</time>
      </trkpt>
      <trkpt lat="42.359045" lon="1.688049">
        <ele>1016.682</ele>
        <time>2019-05-31T14:36:17Z</time>
      </trkpt>
      <trkpt lat="42.359035" lon="1.688040">
        <ele>1016.658</ele>
        <time>2019-05-31T14:36:18Z</time>
      </trkpt>
      <trkpt lat="42.358976" lon="1.687957">
        <ele>1017.436</ele>
        <time>2019-05-31T14:36:25Z</time>
      </trkpt>
      <trkpt lat="42.358965" lon="1.687947">
        <ele>1017.630</ele>
        <time>2019-05-31T14:36:26Z</time>
      </trkpt>
      <trkpt lat="42.358885" lon="1.687866">
        <ele>1018.215</ele>
        <time>2019-05-31T14:36:34Z</time>
      </trkpt>
      <trkpt lat="42.358820" lon="1.687822">
        <ele>1018.829</ele>
        <time>2019-05-31T14:36:40Z</time>
      </trkpt>
      <trkpt lat="42.358763" lon="1.687806">
        <ele>1019.425</ele>
        <time>2019-05-31T14:36:45Z</time>
      </trkpt>
      <trkpt lat="42.358725" lon="1.687791">
        <ele>1019.833</ele>
        <time>2019-05-31T14:36:48Z</time>
      </trkpt>
      <trkpt lat="42.358666" lon="1.687778">
        <ele>1020.223</ele>
        <time>2019-05-31T14:36:53Z</time>
      </trkpt>
      <trkpt lat="42.358600" lon="1.687769">
        <ele>1020.815</ele>
        <time>2019-05-31T14:36:58Z</time>
      </trkpt>
      <trkpt lat="42.358540" lon="1.687755">
        <ele>1021.408</ele>
        <time>2019-05-31T14:37:03Z</time>
      </trkpt>
      <trkpt lat="42.358480" lon="1.687732">
        <ele>1021.846</ele>
        <time>2019-05-31T14:37:08Z</time>
      </trkpt>
      <trkpt lat="42.358442" lon="1.687723">
        <ele>1022.450</ele>
        <time>2019-05-31T14:37:11Z</time>
      </trkpt>
      <trkpt lat="42.358363" lon="1.687699">
        <ele>1022.866</ele>
        <time>2019-05-31T14:37:17Z</time>
      </trkpt>
      <trkpt lat="42.358296" lon="1.687680">
        <ele>1023.074</ele>
        <time>2019-05-31T14:37:22Z</time>
      </trkpt>
      <trkpt lat="42.358272" lon="1.687680">
        <ele>1023.478</ele>
        <time>2019-05-31T14:37:24Z</time>
      </trkpt>
      <trkpt lat="42.358256" lon="1.687667">
        <ele>1023.663</ele>
        <time>2019-05-31T14:37:25Z</time>
      </trkpt>
      <trkpt lat="42.358196" lon="1.687627">
        <ele>1024.237</ele>
        <time>2019-05-31T14:37:29Z</time>
      </trkpt>
      <trkpt lat="42.358182" lon="1.687619">
        <ele>1024.443</ele>
        <time>2019-05-31T14:37:30Z</time>
      </trkpt>
      <trkpt lat="42.358119" lon="1.687558">
        <ele>1025.299</ele>
        <time>2019-05-31T14:37:36Z</time>
      </trkpt>
      <trkpt lat="42.358101" lon="1.687537">
        <ele>1025.607</ele>
        <time>2019-05-31T14:37:38Z</time>
      </trkpt>
      <trkpt lat="42.358031" lon="1.687466">
        <ele>1026.227</ele>
        <time>2019-05-31T14:37:45Z</time>
      </trkpt>
      <trkpt lat="42.357936" lon="1.687379">
        <ele>1027.208</ele>
        <time>2019-05-31T14:37:54Z</time>
      </trkpt>
      <trkpt lat="42.357928" lon="1.687369">
        <ele>1027.452</ele>
        <time>2019-05-31T14:37:55Z</time>
      </trkpt>
      <trkpt lat="42.357876" lon="1.687322">
        <ele>1027.886</ele>
        <time>2019-05-31T14:38:01Z</time>
      </trkpt>
      <trkpt lat="42.357815" lon="1.687273">
        <ele>1028.472</ele>
        <time>2019-05-31T14:38:07Z</time>
      </trkpt>
      <trkpt lat="42.357804" lon="1.687264">
        <ele>1028.630</ele>
        <time>2019-05-31T14:38:08Z</time>
      </trkpt>
      <trkpt lat="42.357704" lon="1.687219">
        <ele>1029.264</ele>
        <time>2019-05-31T14:38:16Z</time>
      </trkpt>
      <trkpt lat="42.357695" lon="1.687210">
        <ele>1029.259</ele>
        <time>2019-05-31T14:38:17Z</time>
      </trkpt>
      <trkpt lat="42.357686" lon="1.687202">
        <ele>1029.423</ele>
        <time>2019-05-31T14:38:18Z</time>
      </trkpt>
      <trkpt lat="42.357586" lon="1.687163">
        <ele>1028.299</ele>
        <time>2019-05-31T14:38:26Z</time>
      </trkpt>
      <trkpt lat="42.357551" lon="1.687152">
        <ele>1033.075</ele>
        <time>2019-05-31T14:38:29Z</time>
      </trkpt>
      <trkpt lat="42.357530" lon="1.687138">
        <ele>1032.628</ele>
        <time>2019-05-31T14:38:31Z</time>
      </trkpt>
      <trkpt lat="42.357519" lon="1.687133">
        <ele>1031.020</ele>
        <time>2019-05-31T14:38:32Z</time>
      </trkpt>
      <trkpt lat="42.357433" lon="1.687097">
        <ele>1031.808</ele>
        <time>2019-05-31T14:38:39Z</time>
      </trkpt>
      <trkpt lat="42.357410" lon="1.687084">
        <ele>1032.070</ele>
        <time>2019-05-31T14:38:41Z</time>
      </trkpt>
      <trkpt lat="42.357324" lon="1.687038">
        <ele>1032.864</ele>
        <time>2019-05-31T14:38:49Z</time>
      </trkpt>
      <trkpt lat="42.357286" lon="1.687016">
        <ele>1033.230</ele>
        <time>2019-05-31T14:38:52Z</time>
      </trkpt>
      <trkpt lat="42.357216" lon="1.686978">
        <ele>1034.088</ele>
        <time>2019-05-31T14:38:58Z</time>
      </trkpt>
      <trkpt lat="42.357180" lon="1.686968">
        <ele>1034.242</ele>
        <time>2019-05-31T14:39:01Z</time>
      </trkpt>
      <trkpt lat="42.357094" lon="1.686949">
        <ele>1035.267</ele>
        <time>2019-05-31T14:39:08Z</time>
      </trkpt>
      <trkpt lat="42.357003" lon="1.686929">
        <ele>1036.011</ele>
        <time>2019-05-31T14:39:16Z</time>
      </trkpt>
      <trkpt lat="42.356981" lon="1.686914">
        <ele>1036.237</ele>
        <time>2019-05-31T14:39:18Z</time>
      </trkpt>
      <trkpt lat="42.356898" lon="1.686893">
        <ele>1037.256</ele>
        <time>2019-05-31T14:39:25Z</time>
      </trkpt>
      <trkpt lat="42.356875" lon="1.686876">
        <ele>1037.459</ele>
        <time>2019-05-31T14:39:27Z</time>
      </trkpt>
      <trkpt lat="42.356819" lon="1.686850">
        <ele>1038.014</ele>
        <time>2019-05-31T14:39:32Z</time>
      </trkpt>
      <trkpt lat="42.356794" lon="1.686845">
        <ele>1038.408</ele>
        <time>2019-05-31T14:39:34Z</time>
      </trkpt>
      <trkpt lat="42.356731" lon="1.686827">
        <ele>1039.278</ele>
        <time>2019-05-31T14:39:39Z</time>
      </trkpt>
      <trkpt lat="42.356699" lon="1.686822">
        <ele>1039.442</ele>
        <time>2019-05-31T14:39:42Z</time>
      </trkpt>
      <trkpt lat="42.356637" lon="1.686851">
        <ele>1040.048</ele>
        <time>2019-05-31T14:39:47Z</time>
      </trkpt>
      <trkpt lat="42.356601" lon="1.686895">
        <ele>1040.476</ele>
        <time>2019-05-31T14:39:51Z</time>
      </trkpt>
      <trkpt lat="42.356574" lon="1.686927">
        <ele>1040.890</ele>
        <time>2019-05-31T14:39:54Z</time>
      </trkpt>
      <trkpt lat="42.356528" lon="1.687020">
        <ele>1041.275</ele>
        <time>2019-05-31T14:40:01Z</time>
      </trkpt>
      <trkpt lat="42.356514" lon="1.687067">
        <ele>1041.629</ele>
        <time>2019-05-31T14:40:04Z</time>
      </trkpt>
      <trkpt lat="42.356483" lon="1.687124">
        <ele>1041.855</ele>
        <time>2019-05-31T14:40:08Z</time>
      </trkpt>
      <trkpt lat="42.356434" lon="1.687243">
        <ele>1043.026</ele>
        <time>2019-05-31T14:40:17Z</time>
      </trkpt>
      <trkpt lat="42.356426" lon="1.687256">
        <ele>1043.247</ele>
        <time>2019-05-31T14:40:18Z</time>
      </trkpt>
      <trkpt lat="42.356392" lon="1.687326">
        <ele>1042.411</ele>
        <time>2019-05-31T14:40:23Z</time>
      </trkpt>
      <trkpt lat="42.356375" lon="1.687362">
        <ele>1044.208</ele>
        <time>2019-05-31T14:40:26Z</time>
      </trkpt>
      <trkpt lat="42.356340" lon="1.687440">
        <ele>1044.865</ele>
        <time>2019-05-31T14:40:32Z</time>
      </trkpt>
      <trkpt lat="42.356289" lon="1.687521">
        <ele>1045.289</ele>
        <time>2019-05-31T14:40:39Z</time>
      </trkpt>
      <trkpt lat="42.356223" lon="1.687629">
        <ele>1045.845</ele>
        <time>2019-05-31T14:40:48Z</time>
      </trkpt>
      <trkpt lat="42.356204" lon="1.687667">
        <ele>1046.483</ele>
        <time>2019-05-31T14:40:51Z</time>
      </trkpt>
      <trkpt lat="42.356158" lon="1.687747">
        <ele>1046.647</ele>
        <time>2019-05-31T14:40:57Z</time>
      </trkpt>
      <trkpt lat="42.356106" lon="1.687828">
        <ele>1047.432</ele>
        <time>2019-05-31T14:41:04Z</time>
      </trkpt>
      <trkpt lat="42.356086" lon="1.687868">
        <ele>1048.086</ele>
        <time>2019-05-31T14:41:07Z</time>
      </trkpt>
      <trkpt lat="42.356075" lon="1.687878">
        <ele>1048.232</ele>
        <time>2019-05-31T14:41:08Z</time>
      </trkpt>
      <trkpt lat="42.356065" lon="1.687887">
        <ele>1048.439</ele>
        <time>2019-05-31T14:41:09Z</time>
      </trkpt>
      <trkpt lat="42.355997" lon="1.687948">
        <ele>1048.801</ele>
        <time>2019-05-31T14:41:16Z</time>
      </trkpt>
      <trkpt lat="42.355951" lon="1.687976">
        <ele>1049.221</ele>
        <time>2019-05-31T14:41:20Z</time>
      </trkpt>
      <trkpt lat="42.355920" lon="1.688005">
        <ele>1049.408</ele>
        <time>2019-05-31T14:41:23Z</time>
      </trkpt>
      <trkpt lat="42.355911" lon="1.688013">
        <ele>1049.486</ele>
        <time>2019-05-31T14:41:24Z</time>
      </trkpt>
      <trkpt lat="42.355843" lon="1.688057">
        <ele>1050.260</ele>
        <time>2019-05-31T14:41:31Z</time>
      </trkpt>
      <trkpt lat="42.355812" lon="1.688080">
        <ele>1050.626</ele>
        <time>2019-05-31T14:41:34Z</time>
      </trkpt>
      <trkpt lat="42.355795" lon="1.688095">
        <ele>1050.644</ele>
        <time>2019-05-31T14:41:36Z</time>
      </trkpt>
      <trkpt lat="42.355756" lon="1.688132">
        <ele>1051.028</ele>
        <time>2019-05-31T14:41:40Z</time>
      </trkpt>
      <trkpt lat="42.355708" lon="1.688178">
        <ele>1051.633</ele>
        <time>2019-05-31T14:41:45Z</time>
      </trkpt>
      <trkpt lat="42.355698" lon="1.688187">
        <ele>1051.697</ele>
        <time>2019-05-31T14:41:46Z</time>
      </trkpt>
      <trkpt lat="42.355682" lon="1.688208">
        <ele>1051.853</ele>
        <time>2019-05-31T14:41:48Z</time>
      </trkpt>
      <trkpt lat="42.355599" lon="1.688303">
        <ele>1052.671</ele>
        <time>2019-05-31T14:41:57Z</time>
      </trkpt>
      <trkpt lat="42.355591" lon="1.688314">
        <ele>1052.841</ele>
        <time>2019-05-31T14:41:58Z</time>
      </trkpt>
      <trkpt lat="42.355529" lon="1.688407">
        <ele>1053.615</ele>
        <time>2019-05-31T14:42:06Z</time>
      </trkpt>
      <trkpt lat="42.355521" lon="1.688419">
        <ele>1053.808</ele>
        <time>2019-05-31T14:42:07Z</time>
      </trkpt>
      <trkpt lat="42.355467" lon="1.688501">
        <ele>1054.240</ele>
        <time>2019-05-31T14:42:14Z</time>
      </trkpt>
      <trkpt lat="42.355452" lon="1.688530">
        <ele>1054.434</ele>
        <time>2019-05-31T14:42:16Z</time>
      </trkpt>
      <trkpt lat="42.355425" lon="1.688574">
        <ele>1054.810</ele>
        <time>2019-05-31T14:42:20Z</time>
      </trkpt>
      <trkpt lat="42.355417" lon="1.688584">
        <ele>1055.098</ele>
        <time>2019-05-31T14:42:21Z</time>
      </trkpt>
      <trkpt lat="42.355341" lon="1.688682">
        <ele>1055.652</ele>
        <time>2019-05-31T14:42:29Z</time>
      </trkpt>
      <trkpt lat="42.355325" lon="1.688707">
        <ele>1055.857</ele>
        <time>2019-05-31T14:42:31Z</time>
      </trkpt>
      <trkpt lat="42.355312" lon="1.688713">
        <ele>1056.011</ele>
        <time>2019-05-31T14:42:32Z</time>
      </trkpt>
      <trkpt lat="42.355288" lon="1.688733">
        <ele>1056.297</ele>
        <time>2019-05-31T14:42:34Z</time>
      </trkpt>
      <trkpt lat="42.355242" lon="1.688775">
        <ele>1056.662</ele>
        <time>2019-05-31T14:42:38Z</time>
      </trkpt>
      <trkpt lat="42.355221" lon="1.688795">
        <ele>1057.083</ele>
        <time>2019-05-31T14:42:40Z</time>
      </trkpt>
      <trkpt lat="42.355170" lon="1.688830">
        <ele>1057.611</ele>
        <time>2019-05-31T14:42:44Z</time>
      </trkpt>
      <trkpt lat="42.355123" lon="1.688877">
        <ele>1058.008</ele>
        <time>2019-05-31T14:42:49Z</time>
      </trkpt>
      <trkpt lat="42.355105" lon="1.688888">
        <ele>1058.299</ele>
        <time>2019-05-31T14:42:51Z</time>
      </trkpt>
      <trkpt lat="42.355075" lon="1.688908">
        <ele>1058.473</ele>
        <time>2019-05-31T14:42:54Z</time>
      </trkpt>
      <trkpt lat="42.355030" lon="1.688955">
        <ele>1058.839</ele>
        <time>2019-05-31T14:42:59Z</time>
      </trkpt>
      <trkpt lat="42.355011" lon="1.688970">
        <ele>1059.057</ele>
        <time>2019-05-31T14:43:01Z</time>
      </trkpt>
      <trkpt lat="42.354958" lon="1.689028">
        <ele>1059.881</ele>
        <time>2019-05-31T14:43:07Z</time>
      </trkpt>
      <trkpt lat="42.354908" lon="1.689094">
        <ele>1060.046</ele>
        <time>2019-05-31T14:43:13Z</time>
      </trkpt>
      <trkpt lat="42.354880" lon="1.689121">
        <ele>1060.280</ele>
        <time>2019-05-31T14:43:16Z</time>
      </trkpt>
      <trkpt lat="42.354871" lon="1.689133">
        <ele>1060.216</ele>
        <time>2019-05-31T14:43:17Z</time>
      </trkpt>
      <trkpt lat="42.354843" lon="1.689170">
        <ele>1060.682</ele>
        <time>2019-05-31T14:43:20Z</time>
      </trkpt>
      <trkpt lat="42.354807" lon="1.689232">
        <ele>1061.043</ele>
        <time>2019-05-31T14:43:25Z</time>
      </trkpt>
      <trkpt lat="42.354799" lon="1.689244">
        <ele>1061.017</ele>
        <time>2019-05-31T14:43:26Z</time>
      </trkpt>
      <trkpt lat="42.354724" lon="1.689332">
        <ele>1061.808</ele>
        <time>2019-05-31T14:43:35Z</time>
      </trkpt>
      <trkpt lat="42.354697" lon="1.689368">
        <ele>1062.281</ele>
        <time>2019-05-31T14:43:38Z</time>
      </trkpt>
      <trkpt lat="42.354654" lon="1.689432">
        <ele>1062.475</ele>
        <time>2019-05-31T14:43:43Z</time>
      </trkpt>
      <trkpt lat="42.354587" lon="1.689502">
        <ele>1063.091</ele>
        <time>2019-05-31T14:43:50Z</time>
      </trkpt>
      <trkpt lat="42.354566" lon="1.689524">
        <ele>1063.229</ele>
        <time>2019-05-31T14:43:52Z</time>
      </trkpt>
      <trkpt lat="42.354518" lon="1.689579">
        <ele>1063.883</ele>
        <time>2019-05-31T14:43:57Z</time>
      </trkpt>
      <trkpt lat="42.354495" lon="1.689585">
        <ele>1064.068</ele>
        <time>2019-05-31T14:43:59Z</time>
      </trkpt>
      <trkpt lat="42.354446" lon="1.689600">
        <ele>1064.252</ele>
        <time>2019-05-31T14:44:03Z</time>
      </trkpt>
      <trkpt lat="42.354435" lon="1.689605">
        <ele>1064.288</ele>
        <time>2019-05-31T14:44:04Z</time>
      </trkpt>
      <trkpt lat="42.354352" lon="1.689630">
        <ele>1064.822</ele>
        <time>2019-05-31T14:44:11Z</time>
      </trkpt>
      <trkpt lat="42.354281" lon="1.689634">
        <ele>1065.462</ele>
        <time>2019-05-31T14:44:17Z</time>
      </trkpt>
      <trkpt lat="42.354235" lon="1.689619">
        <ele>1066.208</ele>
        <time>2019-05-31T14:44:21Z</time>
      </trkpt>
      <trkpt lat="42.354223" lon="1.689613">
        <ele>1066.608</ele>
        <time>2019-05-31T14:44:22Z</time>
      </trkpt>
      <trkpt lat="42.354116" lon="1.689577">
        <ele>1067.695</ele>
        <time>2019-05-31T14:44:32Z</time>
      </trkpt>
      <trkpt lat="42.354106" lon="1.689569">
        <ele>1067.699</ele>
        <time>2019-05-31T14:44:33Z</time>
      </trkpt>
      <trkpt lat="42.354031" lon="1.689547">
        <ele>1068.285</ele>
        <time>2019-05-31T14:44:40Z</time>
      </trkpt>
      <trkpt lat="42.353995" lon="1.689533">
        <ele>1068.873</ele>
        <time>2019-05-31T14:44:43Z</time>
      </trkpt>
      <trkpt lat="42.353947" lon="1.689527">
        <ele>1069.017</ele>
        <time>2019-05-31T14:44:47Z</time>
      </trkpt>
      <trkpt lat="42.353914" lon="1.689518">
        <ele>1069.232</ele>
        <time>2019-05-31T14:44:50Z</time>
      </trkpt>
      <trkpt lat="42.353872" lon="1.689497">
        <ele>1069.656</ele>
        <time>2019-05-31T14:44:54Z</time>
      </trkpt>
      <trkpt lat="42.353861" lon="1.689494">
        <ele>1069.892</ele>
        <time>2019-05-31T14:44:55Z</time>
      </trkpt>
      <trkpt lat="42.353797" lon="1.689488">
        <ele>1070.444</ele>
        <time>2019-05-31T14:45:01Z</time>
      </trkpt>
      <trkpt lat="42.353738" lon="1.689465">
        <ele>1071.005</ele>
        <time>2019-05-31T14:45:06Z</time>
      </trkpt>
      <trkpt lat="42.353720" lon="1.689454">
        <ele>1071.415</ele>
        <time>2019-05-31T14:45:08Z</time>
      </trkpt>
      <trkpt lat="42.353667" lon="1.689437">
        <ele>1072.008</ele>
        <time>2019-05-31T14:45:13Z</time>
      </trkpt>
      <trkpt lat="42.353632" lon="1.689427">
        <ele>1072.217</ele>
        <time>2019-05-31T14:45:16Z</time>
      </trkpt>
      <trkpt lat="42.353572" lon="1.689402">
        <ele>1073.011</ele>
        <time>2019-05-31T14:45:22Z</time>
      </trkpt>
      <trkpt lat="42.353539" lon="1.689393">
        <ele>1073.427</ele>
        <time>2019-05-31T14:45:25Z</time>
      </trkpt>
      <trkpt lat="42.353463" lon="1.689388">
        <ele>1074.215</ele>
        <time>2019-05-31T14:45:32Z</time>
      </trkpt>
      <trkpt lat="42.353425" lon="1.689392">
        <ele>1074.619</ele>
        <time>2019-05-31T14:45:35Z</time>
      </trkpt>
      <trkpt lat="42.353349" lon="1.689425">
        <ele>1075.224</ele>
        <time>2019-05-31T14:45:42Z</time>
      </trkpt>
      <trkpt lat="42.353338" lon="1.689430">
        <ele>1075.418</ele>
        <time>2019-05-31T14:45:43Z</time>
      </trkpt>
      <trkpt lat="42.353240" lon="1.689489">
        <ele>1076.224</ele>
        <time>2019-05-31T14:45:52Z</time>
      </trkpt>
      <trkpt lat="42.353220" lon="1.689498">
        <ele>1076.482</ele>
        <time>2019-05-31T14:45:54Z</time>
      </trkpt>
      <trkpt lat="42.353185" lon="1.689500">
        <ele>1076.643</ele>
        <time>2019-05-31T14:45:57Z</time>
      </trkpt>
      <trkpt lat="42.353150" lon="1.689509">
        <ele>1077.017</ele>
        <time>2019-05-31T14:46:00Z</time>
      </trkpt>
      <trkpt lat="42.353080" lon="1.689517">
        <ele>1077.608</ele>
        <time>2019-05-31T14:46:06Z</time>
      </trkpt>
      <trkpt lat="42.353057" lon="1.689509">
        <ele>1077.871</ele>
        <time>2019-05-31T14:46:08Z</time>
      </trkpt>
      <trkpt lat="42.352971" lon="1.689475">
        <ele>1078.465</ele>
        <time>2019-05-31T14:46:16Z</time>
      </trkpt>
      <trkpt lat="42.352950" lon="1.689467">
        <ele>1078.871</ele>
        <time>2019-05-31T14:46:18Z</time>
      </trkpt>
      <trkpt lat="42.352929" lon="1.689465">
        <ele>1078.899</ele>
        <time>2019-05-31T14:46:20Z</time>
      </trkpt>
      <trkpt lat="42.352907" lon="1.689455">
        <ele>1079.083</ele>
        <time>2019-05-31T14:46:22Z</time>
      </trkpt>
      <trkpt lat="42.352811" lon="1.689431">
        <ele>1079.868</ele>
        <time>2019-05-31T14:46:30Z</time>
      </trkpt>
      <trkpt lat="42.352777" lon="1.689428">
        <ele>1080.082</ele>
        <time>2019-05-31T14:46:33Z</time>
      </trkpt>
      <trkpt lat="42.352670" lon="1.689412">
        <ele>1081.048</ele>
        <time>2019-05-31T14:46:42Z</time>
      </trkpt>
      <trkpt lat="42.352648" lon="1.689412">
        <ele>1081.083</ele>
        <time>2019-05-31T14:46:44Z</time>
      </trkpt>
      <trkpt lat="42.352603" lon="1.689417">
        <ele>1081.225</ele>
        <time>2019-05-31T14:46:47Z</time>
      </trkpt>
      <trkpt lat="42.352591" lon="1.689421">
        <ele>1079.217</ele>
        <time>2019-05-31T14:46:48Z</time>
      </trkpt>
      <trkpt lat="42.352557" lon="1.689426">
        <ele>1081.808</ele>
        <time>2019-05-31T14:46:51Z</time>
      </trkpt>
      <trkpt lat="42.352499" lon="1.689427">
        <ele>1082.081</ele>
        <time>2019-05-31T14:46:56Z</time>
      </trkpt>
      <trkpt lat="42.352474" lon="1.689429">
        <ele>1082.245</ele>
        <time>2019-05-31T14:46:58Z</time>
      </trkpt>
      <trkpt lat="42.352410" lon="1.689449">
        <ele>1082.891</ele>
        <time>2019-05-31T14:47:04Z</time>
      </trkpt>
      <trkpt lat="42.352315" lon="1.689459">
        <ele>1083.649</ele>
        <time>2019-05-31T14:47:12Z</time>
      </trkpt>
      <trkpt lat="42.352272" lon="1.689465">
        <ele>1084.043</ele>
        <time>2019-05-31T14:47:16Z</time>
      </trkpt>
      <trkpt lat="42.352216" lon="1.689475">
        <ele>1084.458</ele>
        <time>2019-05-31T14:47:21Z</time>
      </trkpt>
      <trkpt lat="42.352140" lon="1.689486">
        <ele>1085.072</ele>
        <time>2019-05-31T14:47:28Z</time>
      </trkpt>
      <trkpt lat="42.352118" lon="1.689490">
        <ele>1085.218</ele>
        <time>2019-05-31T14:47:30Z</time>
      </trkpt>
      <trkpt lat="42.352062" lon="1.689491">
        <ele>1085.429</ele>
        <time>2019-05-31T14:47:35Z</time>
      </trkpt>
      <trkpt lat="42.352027" lon="1.689482">
        <ele>1085.800</ele>
        <time>2019-05-31T14:47:38Z</time>
      </trkpt>
      <trkpt lat="42.351994" lon="1.689472">
        <ele>1086.020</ele>
        <time>2019-05-31T14:47:41Z</time>
      </trkpt>
      <trkpt lat="42.351971" lon="1.689473">
        <ele>1086.208</ele>
        <time>2019-05-31T14:47:43Z</time>
      </trkpt>
      <trkpt lat="42.351939" lon="1.689474">
        <ele>1086.495</ele>
        <time>2019-05-31T14:47:46Z</time>
      </trkpt>
      <trkpt lat="42.351845" lon="1.689451">
        <ele>1087.219</ele>
        <time>2019-05-31T14:47:54Z</time>
      </trkpt>
      <trkpt lat="42.351834" lon="1.689450">
        <ele>1087.255</ele>
        <time>2019-05-31T14:47:55Z</time>
      </trkpt>
      <trkpt lat="42.351754" lon="1.689433">
        <ele>1087.833</ele>
        <time>2019-05-31T14:48:02Z</time>
      </trkpt>
      <trkpt lat="42.351705" lon="1.689426">
        <ele>1088.217</ele>
        <time>2019-05-31T14:48:06Z</time>
      </trkpt>
      <trkpt lat="42.351672" lon="1.689408">
        <ele>1088.672</ele>
        <time>2019-05-31T14:48:09Z</time>
      </trkpt>
      <trkpt lat="42.351616" lon="1.689389">
        <ele>1089.226</ele>
        <time>2019-05-31T14:48:14Z</time>
      </trkpt>
      <trkpt lat="42.351582" lon="1.689374">
        <ele>1089.642</ele>
        <time>2019-05-31T14:48:17Z</time>
      </trkpt>
      <trkpt lat="42.351493" lon="1.689336">
        <ele>1090.264</ele>
        <time>2019-05-31T14:48:25Z</time>
      </trkpt>
      <trkpt lat="42.351482" lon="1.689330">
        <ele>1090.406</ele>
        <time>2019-05-31T14:48:26Z</time>
      </trkpt>
      <trkpt lat="42.351473" lon="1.689322">
        <ele>1090.616</ele>
        <time>2019-05-31T14:48:27Z</time>
      </trkpt>
      <trkpt lat="42.351418" lon="1.689290">
        <ele>1091.008</ele>
        <time>2019-05-31T14:48:32Z</time>
      </trkpt>
      <trkpt lat="42.351356" lon="1.689253">
        <ele>1091.439</ele>
        <time>2019-05-31T14:48:37Z</time>
      </trkpt>
      <trkpt lat="42.351348" lon="1.689249">
        <ele>1091.673</ele>
        <time>2019-05-31T14:48:38Z</time>
      </trkpt>
      <trkpt lat="42.351243" lon="1.689222">
        <ele>1092.499</ele>
        <time>2019-05-31T14:48:47Z</time>
      </trkpt>
      <trkpt lat="42.351154" lon="1.689191">
        <ele>1093.097</ele>
        <time>2019-05-31T14:48:55Z</time>
      </trkpt>
      <trkpt lat="42.351065" lon="1.689144">
        <ele>1093.651</ele>
        <time>2019-05-31T14:49:03Z</time>
      </trkpt>
      <trkpt lat="42.350967" lon="1.689109">
        <ele>1094.616</ele>
        <time>2019-05-31T14:49:12Z</time>
      </trkpt>
      <trkpt lat="42.350874" lon="1.689087">
        <ele>1095.410</ele>
        <time>2019-05-31T14:49:20Z</time>
      </trkpt>
      <trkpt lat="42.350853" lon="1.689079">
        <ele>1095.656</ele>
        <time>2019-05-31T14:49:22Z</time>
      </trkpt>
      <trkpt lat="42.350780" lon="1.689065">
        <ele>1096.216</ele>
        <time>2019-05-31T14:49:28Z</time>
      </trkpt>
      <trkpt lat="42.350734" lon="1.689049">
        <ele>1096.876</ele>
        <time>2019-05-31T14:49:32Z</time>
      </trkpt>
      <trkpt lat="42.350676" lon="1.689061">
        <ele>1097.213</ele>
        <time>2019-05-31T14:49:37Z</time>
      </trkpt>
      <trkpt lat="42.350604" lon="1.689091">
        <ele>1097.808</ele>
        <time>2019-05-31T14:49:44Z</time>
      </trkpt>
      <trkpt lat="42.350584" lon="1.689100">
        <ele>1098.214</ele>
        <time>2019-05-31T14:49:46Z</time>
      </trkpt>
      <trkpt lat="42.350539" lon="1.689149">
        <ele>1098.618</ele>
        <time>2019-05-31T14:49:51Z</time>
      </trkpt>
      <trkpt lat="42.350529" lon="1.689159">
        <ele>1098.274</ele>
        <time>2019-05-31T14:49:52Z</time>
      </trkpt>
      <trkpt lat="42.350521" lon="1.689171">
        <ele>1098.422</ele>
        <time>2019-05-31T14:49:53Z</time>
      </trkpt>
      <trkpt lat="42.350504" lon="1.689195">
        <ele>1098.846</ele>
        <time>2019-05-31T14:49:55Z</time>
      </trkpt>
      <trkpt lat="42.350482" lon="1.689266">
        <ele>1099.251</ele>
        <time>2019-05-31T14:50:00Z</time>
      </trkpt>
      <trkpt lat="42.350471" lon="1.689388">
        <ele>1099.885</ele>
        <time>2019-05-31T14:50:07Z</time>
      </trkpt>
      <trkpt lat="42.350484" lon="1.689545">
        <ele>1100.871</ele>
        <time>2019-05-31T14:50:15Z</time>
      </trkpt>
      <trkpt lat="42.350498" lon="1.689666">
        <ele>1101.838</ele>
        <time>2019-05-31T14:50:21Z</time>
      </trkpt>
      <trkpt lat="42.350500" lon="1.689685">
        <ele>1102.070</ele>
        <time>2019-05-31T14:50:22Z</time>
      </trkpt>
      <trkpt lat="42.350501" lon="1.689700">
        <ele>1102.217</ele>
        <time>2019-05-31T14:50:23Z</time>
      </trkpt>
      <trkpt lat="42.350506" lon="1.689794">
        <ele>1102.608</ele>
        <time>2019-05-31T14:50:29Z</time>
      </trkpt>
      <trkpt lat="42.350509" lon="1.689825">
        <ele>1102.636</ele>
        <time>2019-05-31T14:50:31Z</time>
      </trkpt>
      <trkpt lat="42.350513" lon="1.689898">
        <ele>1103.080</ele>
        <time>2019-05-31T14:50:36Z</time>
      </trkpt>
      <trkpt lat="42.350521" lon="1.689981">
        <ele>1103.476</ele>
        <time>2019-05-31T14:50:41Z</time>
      </trkpt>
      <trkpt lat="42.350519" lon="1.690127">
        <ele>1104.084</ele>
        <time>2019-05-31T14:50:50Z</time>
      </trkpt>
      <trkpt lat="42.350520" lon="1.690143">
        <ele>1105.858</ele>
        <time>2019-05-31T14:50:51Z</time>
      </trkpt>
      <trkpt lat="42.350522" lon="1.690158">
        <ele>1104.053</ele>
        <time>2019-05-31T14:50:52Z</time>
      </trkpt>
      <trkpt lat="42.350517" lon="1.690207">
        <ele>1105.687</ele>
        <time>2019-05-31T14:50:55Z</time>
      </trkpt>
      <trkpt lat="42.350513" lon="1.690240">
        <ele>1104.663</ele>
        <time>2019-05-31T14:50:57Z</time>
      </trkpt>
      <trkpt lat="42.350513" lon="1.690258">
        <ele>1104.654</ele>
        <time>2019-05-31T14:50:58Z</time>
      </trkpt>
      <trkpt lat="42.350502" lon="1.690393">
        <ele>1105.456</ele>
        <time>2019-05-31T14:51:07Z</time>
      </trkpt>
      <trkpt lat="42.350504" lon="1.690407">
        <ele>1105.811</ele>
        <time>2019-05-31T14:51:08Z</time>
      </trkpt>
      <trkpt lat="42.350516" lon="1.690532">
        <ele>1106.208</ele>
        <time>2019-05-31T14:51:16Z</time>
      </trkpt>
      <trkpt lat="42.350532" lon="1.690658">
        <ele>1106.838</ele>
        <time>2019-05-31T14:51:24Z</time>
      </trkpt>
      <trkpt lat="42.350550" lon="1.690778">
        <ele>1107.832</ele>
        <time>2019-05-31T14:51:32Z</time>
      </trkpt>
      <trkpt lat="42.350557" lon="1.690793">
        <ele>1108.038</ele>
        <time>2019-05-31T14:51:33Z</time>
      </trkpt>
      <trkpt lat="42.350582" lon="1.690911">
        <ele>1108.696</ele>
        <time>2019-05-31T14:51:41Z</time>
      </trkpt>
      <trkpt lat="42.350596" lon="1.690988">
        <ele>1109.050</ele>
        <time>2019-05-31T14:51:46Z</time>
      </trkpt>
      <trkpt lat="42.350603" lon="1.691019">
        <ele>1109.265</ele>
        <time>2019-05-31T14:51:48Z</time>
      </trkpt>
      <trkpt lat="42.350605" lon="1.691113">
        <ele>1110.089</ele>
        <time>2019-05-31T14:51:53Z</time>
      </trkpt>
      <trkpt lat="42.350616" lon="1.691227">
        <ele>1110.465</ele>
        <time>2019-05-31T14:51:59Z</time>
      </trkpt>
      <trkpt lat="42.350613" lon="1.691311">
        <ele>1111.096</ele>
        <time>2019-05-31T14:52:04Z</time>
      </trkpt>
      <trkpt lat="42.350611" lon="1.691371">
        <ele>1111.431</ele>
        <time>2019-05-31T14:52:08Z</time>
      </trkpt>
      <trkpt lat="42.350587" lon="1.691473">
        <ele>1112.224</ele>
        <time>2019-05-31T14:52:15Z</time>
      </trkpt>
      <trkpt lat="42.350587" lon="1.691490">
        <ele>1112.208</ele>
        <time>2019-05-31T14:52:16Z</time>
      </trkpt>
      <trkpt lat="42.350586" lon="1.691593">
        <ele>1112.872</ele>
        <time>2019-05-31T14:52:23Z</time>
      </trkpt>
      <trkpt lat="42.350581" lon="1.691670">
        <ele>1113.236</ele>
        <time>2019-05-31T14:52:28Z</time>
      </trkpt>
      <trkpt lat="42.350585" lon="1.691731">
        <ele>1113.472</ele>
        <time>2019-05-31T14:52:32Z</time>
      </trkpt>
      <trkpt lat="42.350591" lon="1.691874">
        <ele>1112.420</ele>
        <time>2019-05-31T14:52:41Z</time>
      </trkpt>
      <trkpt lat="42.350592" lon="1.691907">
        <ele>1114.654</ele>
        <time>2019-05-31T14:52:43Z</time>
      </trkpt>
      <trkpt lat="42.350587" lon="1.691972">
        <ele>1114.459</ele>
        <time>2019-05-31T14:52:47Z</time>
      </trkpt>
      <trkpt lat="42.350597" lon="1.692097">
        <ele>1115.613</ele>
        <time>2019-05-31T14:52:55Z</time>
      </trkpt>
      <trkpt lat="42.350593" lon="1.692186">
        <ele>1115.819</ele>
        <time>2019-05-31T14:53:00Z</time>
      </trkpt>
      <trkpt lat="42.350603" lon="1.692247">
        <ele>1116.264</ele>
        <time>2019-05-31T14:53:04Z</time>
      </trkpt>
      <trkpt lat="42.350608" lon="1.692327">
        <ele>1116.806</ele>
        <time>2019-05-31T14:53:09Z</time>
      </trkpt>
      <trkpt lat="42.350604" lon="1.692377">
        <ele>1116.816</ele>
        <time>2019-05-31T14:53:12Z</time>
      </trkpt>
      <trkpt lat="42.350611" lon="1.692503">
        <ele>1117.208</ele>
        <time>2019-05-31T14:53:20Z</time>
      </trkpt>
      <trkpt lat="42.350618" lon="1.692601">
        <ele>1117.889</ele>
        <time>2019-05-31T14:53:26Z</time>
      </trkpt>
      <trkpt lat="42.350622" lon="1.692646">
        <ele>1118.033</ele>
        <time>2019-05-31T14:53:29Z</time>
      </trkpt>
      <trkpt lat="42.350617" lon="1.692775">
        <ele>1118.859</ele>
        <time>2019-05-31T14:53:37Z</time>
      </trkpt>
      <trkpt lat="42.350620" lon="1.692789">
        <ele>1119.017</ele>
        <time>2019-05-31T14:53:38Z</time>
      </trkpt>
      <trkpt lat="42.350629" lon="1.692879">
        <ele>1119.481</ele>
        <time>2019-05-31T14:53:44Z</time>
      </trkpt>
      <trkpt lat="42.350633" lon="1.692929">
        <ele>1120.036</ele>
        <time>2019-05-31T14:53:47Z</time>
      </trkpt>
      <trkpt lat="42.350633" lon="1.693023">
        <ele>1120.230</ele>
        <time>2019-05-31T14:53:53Z</time>
      </trkpt>
      <trkpt lat="42.350635" lon="1.693149">
        <ele>1120.896</ele>
        <time>2019-05-31T14:54:01Z</time>
      </trkpt>
      <trkpt lat="42.350641" lon="1.693176">
        <ele>1121.256</ele>
        <time>2019-05-31T14:54:03Z</time>
      </trkpt>
      <trkpt lat="42.350644" lon="1.693246">
        <ele>1121.459</ele>
        <time>2019-05-31T14:54:07Z</time>
      </trkpt>
      <trkpt lat="42.350652" lon="1.693369">
        <ele>1122.214</ele>
        <time>2019-05-31T14:54:14Z</time>
      </trkpt>
      <trkpt lat="42.350652" lon="1.693384">
        <ele>1122.408</ele>
        <time>2019-05-31T14:54:15Z</time>
      </trkpt>
      <trkpt lat="42.350654" lon="1.693504">
        <ele>1123.628</ele>
        <time>2019-05-31T14:54:22Z</time>
      </trkpt>
      <trkpt lat="42.350654" lon="1.693521">
        <ele>1123.472</ele>
        <time>2019-05-31T14:54:23Z</time>
      </trkpt>
      <trkpt lat="42.350660" lon="1.693598">
        <ele>1123.098</ele>
        <time>2019-05-31T14:54:28Z</time>
      </trkpt>
      <trkpt lat="42.350661" lon="1.693649">
        <ele>1123.436</ele>
        <time>2019-05-31T14:54:31Z</time>
      </trkpt>
      <trkpt lat="42.350662" lon="1.693797">
        <ele>1123.850</ele>
        <time>2019-05-31T14:54:40Z</time>
      </trkpt>
      <trkpt lat="42.350665" lon="1.693929">
        <ele>1124.285</ele>
        <time>2019-05-31T14:54:48Z</time>
      </trkpt>
      <trkpt lat="42.350675" lon="1.694052">
        <ele>1124.659</ele>
        <time>2019-05-31T14:54:55Z</time>
      </trkpt>
      <trkpt lat="42.350673" lon="1.694100">
        <ele>1124.855</ele>
        <time>2019-05-31T14:54:58Z</time>
      </trkpt>
      <trkpt lat="42.350679" lon="1.694183">
        <ele>1125.288</ele>
        <time>2019-05-31T14:55:03Z</time>
      </trkpt>
      <trkpt lat="42.350688" lon="1.694247">
        <ele>1125.224</ele>
        <time>2019-05-31T14:55:07Z</time>
      </trkpt>
      <trkpt lat="42.350697" lon="1.694350">
        <ele>1125.626</ele>
        <time>2019-05-31T14:55:13Z</time>
      </trkpt>
      <trkpt lat="42.350697" lon="1.694389">
        <ele>1125.408</ele>
        <time>2019-05-31T14:55:15Z</time>
      </trkpt>
      <trkpt lat="42.350694" lon="1.694448">
        <ele>1125.691</ele>
        <time>2019-05-31T14:55:18Z</time>
      </trkpt>
      <trkpt lat="42.350704" lon="1.694545">
        <ele>1126.025</ele>
        <time>2019-05-31T14:55:23Z</time>
      </trkpt>
      <trkpt lat="42.350721" lon="1.694680">
        <ele>1126.651</ele>
        <time>2019-05-31T14:55:30Z</time>
      </trkpt>
      <trkpt lat="42.350727" lon="1.694699">
        <ele>1126.619</ele>
        <time>2019-05-31T14:55:31Z</time>
      </trkpt>
      <trkpt lat="42.350753" lon="1.694818">
        <ele>1127.063</ele>
        <time>2019-05-31T14:55:37Z</time>
      </trkpt>
      <trkpt lat="42.350761" lon="1.694839">
        <ele>1127.268</ele>
        <time>2019-05-31T14:55:38Z</time>
      </trkpt>
      <trkpt lat="42.350771" lon="1.694922">
        <ele>1127.222</ele>
        <time>2019-05-31T14:55:42Z</time>
      </trkpt>
      <trkpt lat="42.350783" lon="1.694980">
        <ele>1127.488</ele>
        <time>2019-05-31T14:55:45Z</time>
      </trkpt>
      <trkpt lat="42.350797" lon="1.695013">
        <ele>1127.672</ele>
        <time>2019-05-31T14:55:47Z</time>
      </trkpt>
      <trkpt lat="42.350826" lon="1.695110">
        <ele>1128.013</ele>
        <time>2019-05-31T14:55:52Z</time>
      </trkpt>
      <trkpt lat="42.350864" lon="1.695245">
        <ele>1128.614</ele>
        <time>2019-05-31T14:55:58Z</time>
      </trkpt>
      <trkpt lat="42.350875" lon="1.695279">
        <ele>1128.808</ele>
        <time>2019-05-31T14:56:00Z</time>
      </trkpt>
      <trkpt lat="42.350904" lon="1.695360">
        <ele>1129.290</ele>
        <time>2019-05-31T14:56:05Z</time>
      </trkpt>
      <trkpt lat="42.350940" lon="1.695482">
        <ele>1129.874</ele>
        <time>2019-05-31T14:56:13Z</time>
      </trkpt>
      <trkpt lat="42.350946" lon="1.695497">
        <ele>1130.040</ele>
        <time>2019-05-31T14:56:14Z</time>
      </trkpt>
      <trkpt lat="42.350949" lon="1.695514">
        <ele>1130.038</ele>
        <time>2019-05-31T14:56:15Z</time>
      </trkpt>
      <trkpt lat="42.350970" lon="1.695609">
        <ele>1130.432</ele>
        <time>2019-05-31T14:56:21Z</time>
      </trkpt>
      <trkpt lat="42.350992" lon="1.695684">
        <ele>1130.817</ele>
        <time>2019-05-31T14:56:26Z</time>
      </trkpt>
      <trkpt lat="42.351003" lon="1.695735">
        <ele>1131.031</ele>
        <time>2019-05-31T14:56:29Z</time>
      </trkpt>
      <trkpt lat="42.351043" lon="1.695850">
        <ele>1131.667</ele>
        <time>2019-05-31T14:56:37Z</time>
      </trkpt>
      <trkpt lat="42.351057" lon="1.695896">
        <ele>1131.816</ele>
        <time>2019-05-31T14:56:40Z</time>
      </trkpt>
      <trkpt lat="42.351070" lon="1.695969">
        <ele>1132.676</ele>
        <time>2019-05-31T14:56:45Z</time>
      </trkpt>
      <trkpt lat="42.351102" lon="1.696057">
        <ele>1133.013</ele>
        <time>2019-05-31T14:56:51Z</time>
      </trkpt>
      <trkpt lat="42.351111" lon="1.696085">
        <ele>1133.208</ele>
        <time>2019-05-31T14:56:53Z</time>
      </trkpt>
      <trkpt lat="42.351147" lon="1.696207">
        <ele>1133.614</ele>
        <time>2019-05-31T14:57:01Z</time>
      </trkpt>
      <trkpt lat="42.351164" lon="1.696267">
        <ele>1134.068</ele>
        <time>2019-05-31T14:57:05Z</time>
      </trkpt>
      <trkpt lat="42.351183" lon="1.696325">
        <ele>1134.464</ele>
        <time>2019-05-31T14:57:09Z</time>
      </trkpt>
      <trkpt lat="42.351211" lon="1.696407">
        <ele>1135.052</ele>
        <time>2019-05-31T14:57:15Z</time>
      </trkpt>
      <trkpt lat="42.351213" lon="1.696439">
        <ele>1135.256</ele>
        <time>2019-05-31T14:57:17Z</time>
      </trkpt>
      <trkpt lat="42.351252" lon="1.696558">
        <ele>1135.891</ele>
        <time>2019-05-31T14:57:25Z</time>
      </trkpt>
      <trkpt lat="42.351276" lon="1.696635">
        <ele>1136.225</ele>
        <time>2019-05-31T14:57:30Z</time>
      </trkpt>
      <trkpt lat="42.351287" lon="1.696668">
        <ele>1136.451</ele>
        <time>2019-05-31T14:57:32Z</time>
      </trkpt>
      <trkpt lat="42.351327" lon="1.696800">
        <ele>1137.095</ele>
        <time>2019-05-31T14:57:41Z</time>
      </trkpt>
      <trkpt lat="42.351338" lon="1.696846">
        <ele>1137.449</ele>
        <time>2019-05-31T14:57:44Z</time>
      </trkpt>
      <trkpt lat="42.351370" lon="1.696950">
        <ele>1138.223</ele>
        <time>2019-05-31T14:57:51Z</time>
      </trkpt>
      <trkpt lat="42.351389" lon="1.697039">
        <ele>1138.408</ele>
        <time>2019-05-31T14:57:57Z</time>
      </trkpt>
      <trkpt lat="42.351397" lon="1.697073">
        <ele>1138.612</ele>
        <time>2019-05-31T14:57:59Z</time>
      </trkpt>
      <trkpt lat="42.351432" lon="1.697190">
        <ele>1139.286</ele>
        <time>2019-05-31T14:58:07Z</time>
      </trkpt>
      <trkpt lat="42.351440" lon="1.697218">
        <ele>1139.462</ele>
        <time>2019-05-31T14:58:09Z</time>
      </trkpt>
      <trkpt lat="42.351470" lon="1.697318">
        <ele>1140.210</ele>
        <time>2019-05-31T14:58:16Z</time>
      </trkpt>
      <trkpt lat="42.351478" lon="1.697344">
        <ele>1140.494</ele>
        <time>2019-05-31T14:58:18Z</time>
      </trkpt>
      <trkpt lat="42.351497" lon="1.697469">
        <ele>1141.429</ele>
        <time>2019-05-31T14:58:26Z</time>
      </trkpt>
      <trkpt lat="42.351505" lon="1.697501">
        <ele>1141.413</ele>
        <time>2019-05-31T14:58:28Z</time>
      </trkpt>
      <trkpt lat="42.351506" lon="1.697516">
        <ele>1141.459</ele>
        <time>2019-05-31T14:58:29Z</time>
      </trkpt>
      <trkpt lat="42.351522" lon="1.697591">
        <ele>1142.284</ele>
        <time>2019-05-31T14:58:34Z</time>
      </trkpt>
      <trkpt lat="42.351539" lon="1.697681">
        <ele>1142.607</ele>
        <time>2019-05-31T14:58:40Z</time>
      </trkpt>
      <trkpt lat="42.351543" lon="1.697712">
        <ele>1143.017</ele>
        <time>2019-05-31T14:58:42Z</time>
      </trkpt>
      <trkpt lat="42.351562" lon="1.697808">
        <ele>1143.608</ele>
        <time>2019-05-31T14:58:48Z</time>
      </trkpt>
      <trkpt lat="42.351571" lon="1.697852">
        <ele>1143.841</ele>
        <time>2019-05-31T14:58:51Z</time>
      </trkpt>
      <trkpt lat="42.351594" lon="1.697969">
        <ele>1144.655</ele>
        <time>2019-05-31T14:58:59Z</time>
      </trkpt>
      <trkpt lat="42.351599" lon="1.697983">
        <ele>1144.891</ele>
        <time>2019-05-31T14:59:00Z</time>
      </trkpt>
      <trkpt lat="42.351621" lon="1.698087">
        <ele>1145.429</ele>
        <time>2019-05-31T14:59:07Z</time>
      </trkpt>
      <trkpt lat="42.351642" lon="1.698181">
        <ele>1145.843</ele>
        <time>2019-05-31T14:59:14Z</time>
      </trkpt>
      <trkpt lat="42.351650" lon="1.698210">
        <ele>1146.088</ele>
        <time>2019-05-31T14:59:16Z</time>
      </trkpt>
      <trkpt lat="42.351673" lon="1.698318">
        <ele>1144.832</ele>
        <time>2019-05-31T14:59:23Z</time>
      </trkpt>
      <trkpt lat="42.351674" lon="1.698337">
        <ele>1146.438</ele>
        <time>2019-05-31T14:59:24Z</time>
      </trkpt>
      <trkpt lat="42.351678" lon="1.698368">
        <ele>1147.854</ele>
        <time>2019-05-31T14:59:26Z</time>
      </trkpt>
      <trkpt lat="42.351693" lon="1.698454">
        <ele>1147.856</ele>
        <time>2019-05-31T14:59:32Z</time>
      </trkpt>
      <trkpt lat="42.351717" lon="1.698570">
        <ele>1148.811</ele>
        <time>2019-05-31T14:59:40Z</time>
      </trkpt>
      <trkpt lat="42.351744" lon="1.698704">
        <ele>1149.808</ele>
        <time>2019-05-31T14:59:49Z</time>
      </trkpt>
      <trkpt lat="42.351752" lon="1.698733">
        <ele>1149.848</ele>
        <time>2019-05-31T14:59:51Z</time>
      </trkpt>
      <trkpt lat="42.351775" lon="1.698838">
        <ele>1150.462</ele>
        <time>2019-05-31T14:59:58Z</time>
      </trkpt>
      <trkpt lat="42.351790" lon="1.698909">
        <ele>1151.038</ele>
        <time>2019-05-31T15:00:03Z</time>
      </trkpt>
      <trkpt lat="42.351793" lon="1.698940">
        <ele>1151.286</ele>
        <time>2019-05-31T15:00:05Z</time>
      </trkpt>
      <trkpt lat="42.351799" lon="1.699003">
        <ele>1151.460</ele>
        <time>2019-05-31T15:00:09Z</time>
      </trkpt>
      <trkpt lat="42.351801" lon="1.699035">
        <ele>1151.835</ele>
        <time>2019-05-31T15:00:11Z</time>
      </trkpt>
      <trkpt lat="42.351804" lon="1.699048">
        <ele>1152.019</ele>
        <time>2019-05-31T15:00:12Z</time>
      </trkpt>
      <trkpt lat="42.351835" lon="1.699152">
        <ele>1152.835</ele>
        <time>2019-05-31T15:00:19Z</time>
      </trkpt>
      <trkpt lat="42.351846" lon="1.699210">
        <ele>1153.064</ele>
        <time>2019-05-31T15:00:23Z</time>
      </trkpt>
      <trkpt lat="42.351869" lon="1.699280">
        <ele>1153.406</ele>
        <time>2019-05-31T15:00:28Z</time>
      </trkpt>
      <trkpt lat="42.351880" lon="1.699366">
        <ele>1154.216</ele>
        <time>2019-05-31T15:00:34Z</time>
      </trkpt>
      <trkpt lat="42.351886" lon="1.699395">
        <ele>1154.408</ele>
        <time>2019-05-31T15:00:36Z</time>
      </trkpt>
      <trkpt lat="42.351920" lon="1.699510">
        <ele>1155.639</ele>
        <time>2019-05-31T15:00:44Z</time>
      </trkpt>
      <trkpt lat="42.351921" lon="1.699523">
        <ele>1155.213</ele>
        <time>2019-05-31T15:00:45Z</time>
      </trkpt>
      <trkpt lat="42.351938" lon="1.699604">
        <ele>1155.849</ele>
        <time>2019-05-31T15:00:50Z</time>
      </trkpt>
      <trkpt lat="42.351945" lon="1.699635">
        <ele>1155.877</ele>
        <time>2019-05-31T15:00:52Z</time>
      </trkpt>
      <trkpt lat="42.351968" lon="1.699771">
        <ele>1156.641</ele>
        <time>2019-05-31T15:01:01Z</time>
      </trkpt>
      <trkpt lat="42.351995" lon="1.699878">
        <ele>1157.826</ele>
        <time>2019-05-31T15:01:08Z</time>
      </trkpt>
      <trkpt lat="42.352005" lon="1.699907">
        <ele>1158.090</ele>
        <time>2019-05-31T15:01:10Z</time>
      </trkpt>
      <trkpt lat="42.352030" lon="1.699997">
        <ele>1158.856</ele>
        <time>2019-05-31T15:01:16Z</time>
      </trkpt>
      <trkpt lat="42.352041" lon="1.700040">
        <ele>1159.239</ele>
        <time>2019-05-31T15:01:19Z</time>
      </trkpt>
      <trkpt lat="42.352051" lon="1.700148">
        <ele>1159.601</ele>
        <time>2019-05-31T15:01:25Z</time>
      </trkpt>
      <trkpt lat="42.352043" lon="1.700200">
        <ele>1159.821</ele>
        <time>2019-05-31T15:01:28Z</time>
      </trkpt>
      <trkpt lat="42.352033" lon="1.700215">
        <ele>1160.008</ele>
        <time>2019-05-31T15:01:29Z</time>
      </trkpt>
      <trkpt lat="42.352011" lon="1.700236">
        <ele>1160.256</ele>
        <time>2019-05-31T15:01:31Z</time>
      </trkpt>
      <trkpt lat="42.351982" lon="1.700290">
        <ele>1160.090</ele>
        <time>2019-05-31T15:02:24Z</time>
      </trkpt>
      <trkpt lat="42.351908" lon="1.700432">
        <ele>1159.686</ele>
        <time>2019-05-31T15:02:30Z</time>
      </trkpt>
      <trkpt lat="42.351854" lon="1.700604">
        <ele>1158.684</ele>
        <time>2019-05-31T15:02:34Z</time>
      </trkpt>
      <trkpt lat="42.351843" lon="1.700660">
        <ele>1158.248</ele>
        <time>2019-05-31T15:02:35Z</time>
      </trkpt>
      <trkpt lat="42.351832" lon="1.700716">
        <ele>1157.623</ele>
        <time>2019-05-31T15:02:36Z</time>
      </trkpt>
      <trkpt lat="42.351809" lon="1.700902">
        <ele>1156.057</ele>
        <time>2019-05-31T15:02:39Z</time>
      </trkpt>
      <trkpt lat="42.351792" lon="1.701103">
        <ele>1154.873</ele>
        <time>2019-05-31T15:02:42Z</time>
      </trkpt>
      <trkpt lat="42.351777" lon="1.701247">
        <ele>1153.468</ele>
        <time>2019-05-31T15:02:44Z</time>
      </trkpt>
      <trkpt lat="42.351753" lon="1.701419">
        <ele>1152.242</ele>
        <time>2019-05-31T15:02:46Z</time>
      </trkpt>
      <trkpt lat="42.351736" lon="1.701512">
        <ele>1151.626</ele>
        <time>2019-05-31T15:02:47Z</time>
      </trkpt>
      <trkpt lat="42.351718" lon="1.701607">
        <ele>1150.808</ele>
        <time>2019-05-31T15:02:48Z</time>
      </trkpt>
      <trkpt lat="42.351676" lon="1.701796">
        <ele>1149.229</ele>
        <time>2019-05-31T15:02:50Z</time>
      </trkpt>
      <trkpt lat="42.351633" lon="1.702000">
        <ele>1148.053</ele>
        <time>2019-05-31T15:02:52Z</time>
      </trkpt>
      <trkpt lat="42.351590" lon="1.702198">
        <ele>1146.849</ele>
        <time>2019-05-31T15:02:54Z</time>
      </trkpt>
      <trkpt lat="42.351539" lon="1.702504">
        <ele>1145.627</ele>
        <time>2019-05-31T15:02:57Z</time>
      </trkpt>
      <trkpt lat="42.351483" lon="1.702687">
        <ele>1144.231</ele>
        <time>2019-05-31T15:02:59Z</time>
      </trkpt>
      <trkpt lat="42.351300" lon="1.703078">
        <ele>1143.236</ele>
        <time>2019-05-31T15:03:04Z</time>
      </trkpt>
      <trkpt lat="42.351268" lon="1.703161">
        <ele>1143.070</ele>
        <time>2019-05-31T15:03:05Z</time>
      </trkpt>
      <trkpt lat="42.351162" lon="1.703485">
        <ele>1142.256</ele>
        <time>2019-05-31T15:03:09Z</time>
      </trkpt>
      <trkpt lat="42.351135" lon="1.703559">
        <ele>1142.464</ele>
        <time>2019-05-31T15:03:10Z</time>
      </trkpt>
      <trkpt lat="42.351070" lon="1.703713">
        <ele>1142.006</ele>
        <time>2019-05-31T15:03:12Z</time>
      </trkpt>
      <trkpt lat="42.350989" lon="1.703862">
        <ele>1140.416</ele>
        <time>2019-05-31T15:03:14Z</time>
      </trkpt>
      <trkpt lat="42.350939" lon="1.703925">
        <ele>1140.208</ele>
        <time>2019-05-31T15:03:15Z</time>
      </trkpt>
      <trkpt lat="42.350807" lon="1.704132">
        <ele>1141.669</ele>
        <time>2019-05-31T15:03:19Z</time>
      </trkpt>
      <trkpt lat="42.350794" lon="1.704265">
        <ele>1142.683</ele>
        <time>2019-05-31T15:03:22Z</time>
      </trkpt>
      <trkpt lat="42.350799" lon="1.704306">
        <ele>1143.059</ele>
        <time>2019-05-31T15:03:23Z</time>
      </trkpt>
      <trkpt lat="42.350798" lon="1.704450">
        <ele>1143.487</ele>
        <time>2019-05-31T15:03:27Z</time>
      </trkpt>
      <trkpt lat="42.350801" lon="1.704515">
        <ele>1143.671</ele>
        <time>2019-05-31T15:03:29Z</time>
      </trkpt>
      <trkpt lat="42.350805" lon="1.704574">
        <ele>1144.076</ele>
        <time>2019-05-31T15:03:31Z</time>
      </trkpt>
      <trkpt lat="42.350800" lon="1.704787">
        <ele>1144.440</ele>
        <time>2019-05-31T15:03:38Z</time>
      </trkpt>
      <trkpt lat="42.350797" lon="1.704853">
        <ele>1144.496</ele>
        <time>2019-05-31T15:03:40Z</time>
      </trkpt>
      <trkpt lat="42.350776" lon="1.705065">
        <ele>1144.851</ele>
        <time>2019-05-31T15:03:47Z</time>
      </trkpt>
      <trkpt lat="42.350764" lon="1.705222">
        <ele>1145.201</ele>
        <time>2019-05-31T15:03:52Z</time>
      </trkpt>
      <trkpt lat="42.350753" lon="1.705412">
        <ele>1145.611</ele>
        <time>2019-05-31T15:03:58Z</time>
      </trkpt>
      <trkpt lat="42.350734" lon="1.705679">
        <ele>1145.408</ele>
        <time>2019-05-31T15:04:06Z</time>
      </trkpt>
      <trkpt lat="42.350690" lon="1.705923">
        <ele>1144.678</ele>
        <time>2019-05-31T15:04:12Z</time>
      </trkpt>
      <trkpt lat="42.350589" lon="1.706374">
        <ele>1144.442</ele>
        <time>2019-05-31T15:04:21Z</time>
      </trkpt>
      <trkpt lat="42.350577" lon="1.706435">
        <ele>1144.078</ele>
        <time>2019-05-31T15:04:22Z</time>
      </trkpt>
      <trkpt lat="42.350508" lon="1.706697">
        <ele>1142.666</ele>
        <time>2019-05-31T15:04:26Z</time>
      </trkpt>
      <trkpt lat="42.350475" lon="1.706750">
        <ele>1142.020</ele>
        <time>2019-05-31T15:04:27Z</time>
      </trkpt>
      <trkpt lat="42.350356" lon="1.706921">
        <ele>1141.875</ele>
        <time>2019-05-31T15:04:31Z</time>
      </trkpt>
      <trkpt lat="42.350359" lon="1.706986">
        <ele>1141.829</ele>
        <time>2019-05-31T15:04:32Z</time>
      </trkpt>
      <trkpt lat="42.350389" lon="1.707053">
        <ele>1142.455</ele>
        <time>2019-05-31T15:04:34Z</time>
      </trkpt>
      <trkpt lat="42.350439" lon="1.707099">
        <ele>1143.074</ele>
        <time>2019-05-31T15:04:36Z</time>
      </trkpt>
      <trkpt lat="42.350501" lon="1.707161">
        <ele>1143.456</ele>
        <time>2019-05-31T15:04:39Z</time>
      </trkpt>
      <trkpt lat="42.350532" lon="1.707191">
        <ele>1143.821</ele>
        <time>2019-05-31T15:04:41Z</time>
      </trkpt>
      <trkpt lat="42.350592" lon="1.707251">
        <ele>1144.808</ele>
        <time>2019-05-31T15:04:46Z</time>
      </trkpt>
      <trkpt lat="42.350680" lon="1.707336">
        <ele>1145.840</ele>
        <time>2019-05-31T15:04:53Z</time>
      </trkpt>
      <trkpt lat="42.350691" lon="1.707347">
        <ele>1146.054</ele>
        <time>2019-05-31T15:04:54Z</time>
      </trkpt>
      <trkpt lat="42.350770" lon="1.707452">
        <ele>1146.870</ele>
        <time>2019-05-31T15:05:01Z</time>
      </trkpt>
      <trkpt lat="42.350784" lon="1.707466">
        <ele>1147.248</ele>
        <time>2019-05-31T15:05:02Z</time>
      </trkpt>
      <trkpt lat="42.350820" lon="1.707519">
        <ele>1148.032</ele>
        <time>2019-05-31T15:05:06Z</time>
      </trkpt>
      <trkpt lat="42.350870" lon="1.707572">
        <ele>1148.867</ele>
        <time>2019-05-31T15:05:11Z</time>
      </trkpt>
      <trkpt lat="42.350889" lon="1.707598">
        <ele>1149.071</ele>
        <time>2019-05-31T15:05:13Z</time>
      </trkpt>
      <trkpt lat="42.350898" lon="1.707610">
        <ele>1149.277</ele>
        <time>2019-05-31T15:05:14Z</time>
      </trkpt>
      <trkpt lat="42.350948" lon="1.707666">
        <ele>1150.214</ele>
        <time>2019-05-31T15:05:20Z</time>
      </trkpt>
      <trkpt lat="42.351001" lon="1.707725">
        <ele>1150.854</ele>
        <time>2019-05-31T15:05:26Z</time>
      </trkpt>
      <trkpt lat="42.351017" lon="1.707746">
        <ele>1151.209</ele>
        <time>2019-05-31T15:05:28Z</time>
      </trkpt>
      <trkpt lat="42.351035" lon="1.707767">
        <ele>1151.408</ele>
        <time>2019-05-31T15:05:30Z</time>
      </trkpt>
      <trkpt lat="42.351076" lon="1.707823">
        <ele>1152.464</ele>
        <time>2019-05-31T15:05:35Z</time>
      </trkpt>
      <trkpt lat="42.351101" lon="1.707851">
        <ele>1152.638</ele>
        <time>2019-05-31T15:05:38Z</time>
      </trkpt>
      <trkpt lat="42.351142" lon="1.707910">
        <ele>1153.654</ele>
        <time>2019-05-31T15:05:43Z</time>
      </trkpt>
      <trkpt lat="42.351195" lon="1.708014">
        <ele>1153.872</ele>
        <time>2019-05-31T15:05:51Z</time>
      </trkpt>
      <trkpt lat="42.351232" lon="1.708126">
        <ele>1154.676</ele>
        <time>2019-05-31T15:05:59Z</time>
      </trkpt>
      <trkpt lat="42.351266" lon="1.708228">
        <ele>1155.211</ele>
        <time>2019-05-31T15:06:06Z</time>
      </trkpt>
      <trkpt lat="42.351293" lon="1.708297">
        <ele>1155.625</ele>
        <time>2019-05-31T15:06:11Z</time>
      </trkpt>
      <trkpt lat="42.351309" lon="1.708347">
        <ele>1155.871</ele>
        <time>2019-05-31T15:06:14Z</time>
      </trkpt>
      <trkpt lat="42.351313" lon="1.708379">
        <ele>1156.023</ele>
        <time>2019-05-31T15:06:16Z</time>
      </trkpt>
      <trkpt lat="42.351329" lon="1.708456">
        <ele>1156.683</ele>
        <time>2019-05-31T15:06:21Z</time>
      </trkpt>
      <trkpt lat="42.351330" lon="1.708473">
        <ele>1156.611</ele>
        <time>2019-05-31T15:06:22Z</time>
      </trkpt>
      <trkpt lat="42.351331" lon="1.708490">
        <ele>1156.808</ele>
        <time>2019-05-31T15:06:23Z</time>
      </trkpt>
      <trkpt lat="42.351358" lon="1.708621">
        <ele>1157.255</ele>
        <time>2019-05-31T15:06:32Z</time>
      </trkpt>
      <trkpt lat="42.351386" lon="1.708741">
        <ele>1157.819</ele>
        <time>2019-05-31T15:06:40Z</time>
      </trkpt>
      <trkpt lat="42.351389" lon="1.708757">
        <ele>1157.855</ele>
        <time>2019-05-31T15:06:41Z</time>
      </trkpt>
      <trkpt lat="42.351417" lon="1.708857">
        <ele>1158.463</ele>
        <time>2019-05-31T15:08:51Z</time>
      </trkpt>
      <trkpt lat="42.351424" lon="1.708975">
        <ele>1159.097</ele>
        <time>2019-05-31T15:08:57Z</time>
      </trkpt>
      <trkpt lat="42.351421" lon="1.709019">
        <ele>1159.442</ele>
        <time>2019-05-31T15:08:59Z</time>
      </trkpt>
      <trkpt lat="42.351441" lon="1.709206">
        <ele>1160.066</ele>
        <time>2019-05-31T15:09:07Z</time>
      </trkpt>
      <trkpt lat="42.351449" lon="1.709228">
        <ele>1160.472</ele>
        <time>2019-05-31T15:09:08Z</time>
      </trkpt>
      <trkpt lat="42.351531" lon="1.709364">
        <ele>1161.241</ele>
        <time>2019-05-31T15:09:14Z</time>
      </trkpt>
      <trkpt lat="42.351551" lon="1.709383">
        <ele>1161.281</ele>
        <time>2019-05-31T15:09:15Z</time>
      </trkpt>
      <trkpt lat="42.351672" lon="1.709467">
        <ele>1162.209</ele>
        <time>2019-05-31T15:09:21Z</time>
      </trkpt>
      <trkpt lat="42.351693" lon="1.709480">
        <ele>1162.208</ele>
        <time>2019-05-31T15:09:22Z</time>
      </trkpt>
      <trkpt lat="42.351866" lon="1.709641">
        <ele>1162.657</ele>
        <time>2019-05-31T15:09:31Z</time>
      </trkpt>
      <trkpt lat="42.351957" lon="1.709750">
        <ele>1163.441</ele>
        <time>2019-05-31T15:09:36Z</time>
      </trkpt>
      <trkpt lat="42.352049" lon="1.709863">
        <ele>1163.827</ele>
        <time>2019-05-31T15:09:41Z</time>
      </trkpt>
      <trkpt lat="42.352142" lon="1.709973">
        <ele>1164.435</ele>
        <time>2019-05-31T15:09:46Z</time>
      </trkpt>
      <trkpt lat="42.352212" lon="1.710045">
        <ele>1165.219</ele>
        <time>2019-05-31T15:09:50Z</time>
      </trkpt>
      <trkpt lat="42.352262" lon="1.710113">
        <ele>1165.634</ele>
        <time>2019-05-31T15:09:53Z</time>
      </trkpt>
      <trkpt lat="42.352360" lon="1.710229">
        <ele>1166.698</ele>
        <time>2019-05-31T15:09:58Z</time>
      </trkpt>
      <trkpt lat="42.352418" lon="1.710294">
        <ele>1167.064</ele>
        <time>2019-05-31T15:10:01Z</time>
      </trkpt>
      <trkpt lat="42.352514" lon="1.710409">
        <ele>1168.025</ele>
        <time>2019-05-31T15:10:06Z</time>
      </trkpt>
      <trkpt lat="42.352548" lon="1.710452">
        <ele>1168.426</ele>
        <time>2019-05-31T15:10:08Z</time>
      </trkpt>
      <trkpt lat="42.352619" lon="1.710528">
        <ele>1169.608</ele>
        <time>2019-05-31T15:10:12Z</time>
      </trkpt>
      <trkpt lat="42.352705" lon="1.710614">
        <ele>1169.608</ele>
        <time>2019-05-31T15:10:17Z</time>
      </trkpt>
      <trkpt lat="42.352775" lon="1.710675">
        <ele>1170.665</ele>
        <time>2019-05-31T15:10:21Z</time>
      </trkpt>
      <trkpt lat="42.352871" lon="1.710768">
        <ele>1171.439</ele>
        <time>2019-05-31T15:10:26Z</time>
      </trkpt>
      <trkpt lat="42.352916" lon="1.710800">
        <ele>1171.855</ele>
        <time>2019-05-31T15:10:28Z</time>
      </trkpt>
      <trkpt lat="42.353036" lon="1.710847">
        <ele>1172.413</ele>
        <time>2019-05-31T15:10:33Z</time>
      </trkpt>
      <trkpt lat="42.353083" lon="1.710859">
        <ele>1172.817</ele>
        <time>2019-05-31T15:10:35Z</time>
      </trkpt>
      <trkpt lat="42.353197" lon="1.710926">
        <ele>1173.052</ele>
        <time>2019-05-31T15:10:40Z</time>
      </trkpt>
      <trkpt lat="42.353384" lon="1.711046">
        <ele>1173.036</ele>
        <time>2019-05-31T15:10:48Z</time>
      </trkpt>
      <trkpt lat="42.353527" lon="1.711125">
        <ele>1173.882</ele>
        <time>2019-05-31T15:10:54Z</time>
      </trkpt>
      <trkpt lat="42.353571" lon="1.711143">
        <ele>1174.255</ele>
        <time>2019-05-31T15:10:56Z</time>
      </trkpt>
      <trkpt lat="42.353672" lon="1.711174">
        <ele>1175.207</ele>
        <time>2019-05-31T15:11:01Z</time>
      </trkpt>
      <trkpt lat="42.353726" lon="1.711201">
        <ele>1175.617</ele>
        <time>2019-05-31T15:11:04Z</time>
      </trkpt>
      <trkpt lat="42.353805" lon="1.711238">
        <ele>1176.408</ele>
        <time>2019-05-31T15:11:08Z</time>
      </trkpt>
      <trkpt lat="42.353858" lon="1.711283">
        <ele>1177.488</ele>
        <time>2019-05-31T15:11:11Z</time>
      </trkpt>
      <trkpt lat="42.353911" lon="1.711334">
        <ele>1177.482</ele>
        <time>2019-05-31T15:11:14Z</time>
      </trkpt>
      <trkpt lat="42.354005" lon="1.711426">
        <ele>1178.468</ele>
        <time>2019-05-31T15:11:19Z</time>
      </trkpt>
      <trkpt lat="42.354022" lon="1.711447">
        <ele>1178.646</ele>
        <time>2019-05-31T15:11:20Z</time>
      </trkpt>
      <trkpt lat="42.354122" lon="1.711543">
        <ele>1179.650</ele>
        <time>2019-05-31T15:11:26Z</time>
      </trkpt>
      <trkpt lat="42.354234" lon="1.711655">
        <ele>1180.615</ele>
        <time>2019-05-31T15:11:33Z</time>
      </trkpt>
      <trkpt lat="42.354282" lon="1.711708">
        <ele>1181.229</ele>
        <time>2019-05-31T15:11:36Z</time>
      </trkpt>
      <trkpt lat="42.354305" lon="1.711760">
        <ele>1181.675</ele>
        <time>2019-05-31T15:11:38Z</time>
      </trkpt>
      <trkpt lat="42.354345" lon="1.711865">
        <ele>1182.255</ele>
        <time>2019-05-31T15:11:42Z</time>
      </trkpt>
      <trkpt lat="42.354357" lon="1.711920">
        <ele>1182.807</ele>
        <time>2019-05-31T15:11:44Z</time>
      </trkpt>
      <trkpt lat="42.354375" lon="1.712037">
        <ele>1183.417</ele>
        <time>2019-05-31T15:11:48Z</time>
      </trkpt>
      <trkpt lat="42.354368" lon="1.712131">
        <ele>1183.808</ele>
        <time>2019-05-31T15:11:51Z</time>
      </trkpt>
      <trkpt lat="42.354368" lon="1.712163">
        <ele>1182.418</ele>
        <time>2019-05-31T15:11:52Z</time>
      </trkpt>
      <trkpt lat="42.354366" lon="1.712225">
        <ele>1182.682</ele>
        <time>2019-05-31T15:11:54Z</time>
      </trkpt>
      <trkpt lat="42.354366" lon="1.712262">
        <ele>1184.258</ele>
        <time>2019-05-31T15:11:55Z</time>
      </trkpt>
      <trkpt lat="42.354355" lon="1.712423">
        <ele>1183.626</ele>
        <time>2019-05-31T15:11:59Z</time>
      </trkpt>
      <trkpt lat="42.354329" lon="1.712639">
        <ele>1183.230</ele>
        <time>2019-05-31T15:12:04Z</time>
      </trkpt>
      <trkpt lat="42.354297" lon="1.712744">
        <ele>1182.625</ele>
        <time>2019-05-31T15:12:06Z</time>
      </trkpt>
      <trkpt lat="42.354265" lon="1.712873">
        <ele>1181.819</ele>
        <time>2019-05-31T15:12:08Z</time>
      </trkpt>
      <trkpt lat="42.354212" lon="1.713100">
        <ele>1181.065</ele>
        <time>2019-05-31T15:12:11Z</time>
      </trkpt>
      <trkpt lat="42.354199" lon="1.713188">
        <ele>1180.448</ele>
        <time>2019-05-31T15:12:12Z</time>
      </trkpt>
      <trkpt lat="42.354193" lon="1.713282">
        <ele>1179.661</ele>
        <time>2019-05-31T15:12:13Z</time>
      </trkpt>
      <trkpt lat="42.354187" lon="1.713377">
        <ele>1179.217</ele>
        <time>2019-05-31T15:12:14Z</time>
      </trkpt>
      <trkpt lat="42.354189" lon="1.713471">
        <ele>1178.808</ele>
        <time>2019-05-31T15:12:15Z</time>
      </trkpt>
      <trkpt lat="42.354232" lon="1.713661">
        <ele>1177.867</ele>
        <time>2019-05-31T15:12:17Z</time>
      </trkpt>
      <trkpt lat="42.354260" lon="1.713742">
        <ele>1177.661</ele>
        <time>2019-05-31T15:12:18Z</time>
      </trkpt>
      <trkpt lat="42.354403" lon="1.714031">
        <ele>1177.287</ele>
        <time>2019-05-31T15:12:22Z</time>
      </trkpt>
      <trkpt lat="42.354431" lon="1.714116">
        <ele>1176.815</ele>
        <time>2019-05-31T15:12:23Z</time>
      </trkpt>
      <trkpt lat="42.354459" lon="1.714203">
        <ele>1176.459</ele>
        <time>2019-05-31T15:12:24Z</time>
      </trkpt>
      <trkpt lat="42.354522" lon="1.714376">
        <ele>1175.474</ele>
        <time>2019-05-31T15:12:26Z</time>
      </trkpt>
      <trkpt lat="42.354551" lon="1.714463">
        <ele>1175.298</ele>
        <time>2019-05-31T15:12:27Z</time>
      </trkpt>
      <trkpt lat="42.354586" lon="1.714621">
        <ele>1174.674</ele>
        <time>2019-05-31T15:12:29Z</time>
      </trkpt>
      <trkpt lat="42.354594" lon="1.714715">
        <ele>1173.878</ele>
        <time>2019-05-31T15:12:30Z</time>
      </trkpt>
      <trkpt lat="42.354594" lon="1.714812">
        <ele>1173.033</ele>
        <time>2019-05-31T15:12:31Z</time>
      </trkpt>
      <trkpt lat="42.354583" lon="1.714903">
        <ele>1172.226</ele>
        <time>2019-05-31T15:12:32Z</time>
      </trkpt>
      <trkpt lat="42.354538" lon="1.715091">
        <ele>1171.408</ele>
        <time>2019-05-31T15:12:34Z</time>
      </trkpt>
      <trkpt lat="42.354504" lon="1.715180">
        <ele>1171.090</ele>
        <time>2019-05-31T15:12:35Z</time>
      </trkpt>
      <trkpt lat="42.354415" lon="1.715344">
        <ele>1170.064</ele>
        <time>2019-05-31T15:12:37Z</time>
      </trkpt>
      <trkpt lat="42.354366" lon="1.715416">
        <ele>1169.630</ele>
        <time>2019-05-31T15:12:38Z</time>
      </trkpt>
      <trkpt lat="42.354314" lon="1.715492">
        <ele>1169.268</ele>
        <time>2019-05-31T15:12:39Z</time>
      </trkpt>
      <trkpt lat="42.354253" lon="1.715562">
        <ele>1168.842</ele>
        <time>2019-05-31T15:12:40Z</time>
      </trkpt>
      <trkpt lat="42.354108" lon="1.715668">
        <ele>1167.497</ele>
        <time>2019-05-31T15:12:42Z</time>
      </trkpt>
      <trkpt lat="42.353931" lon="1.715707">
        <ele>1166.061</ele>
        <time>2019-05-31T15:12:44Z</time>
      </trkpt>
      <trkpt lat="42.353841" lon="1.715728">
        <ele>1164.687</ele>
        <time>2019-05-31T15:12:45Z</time>
      </trkpt>
      <trkpt lat="42.353526" lon="1.715835">
        <ele>1163.451</ele>
        <time>2019-05-31T15:12:49Z</time>
      </trkpt>
      <trkpt lat="42.353478" lon="1.715901">
        <ele>1163.001</ele>
        <time>2019-05-31T15:12:50Z</time>
      </trkpt>
      <trkpt lat="42.353447" lon="1.716082">
        <ele>1162.211</ele>
        <time>2019-05-31T15:12:52Z</time>
      </trkpt>
      <trkpt lat="42.353510" lon="1.716215">
        <ele>1161.608</ele>
        <time>2019-05-31T15:12:54Z</time>
      </trkpt>
      <trkpt lat="42.353626" lon="1.716346">
        <ele>1162.658</ele>
        <time>2019-05-31T15:12:57Z</time>
      </trkpt>
      <trkpt lat="42.353692" lon="1.716477">
        <ele>1162.212</ele>
        <time>2019-05-31T15:12:59Z</time>
      </trkpt>
      <trkpt lat="42.353747" lon="1.716629">
        <ele>1161.238</ele>
        <time>2019-05-31T15:13:01Z</time>
      </trkpt>
      <trkpt lat="42.353766" lon="1.716720">
        <ele>1160.856</ele>
        <time>2019-05-31T15:13:02Z</time>
      </trkpt>
      <trkpt lat="42.353770" lon="1.716810">
        <ele>1160.280</ele>
        <time>2019-05-31T15:13:03Z</time>
      </trkpt>
      <trkpt lat="42.353765" lon="1.716906">
        <ele>1159.035</ele>
        <time>2019-05-31T15:13:04Z</time>
      </trkpt>
      <trkpt lat="42.353751" lon="1.717006">
        <ele>1158.449</ele>
        <time>2019-05-31T15:13:05Z</time>
      </trkpt>
      <trkpt lat="42.353730" lon="1.717102">
        <ele>1157.865</ele>
        <time>2019-05-31T15:13:06Z</time>
      </trkpt>
      <trkpt lat="42.353664" lon="1.717290">
        <ele>1156.823</ele>
        <time>2019-05-31T15:13:08Z</time>
      </trkpt>
      <trkpt lat="42.353622" lon="1.717388">
        <ele>1155.483</ele>
        <time>2019-05-31T15:13:09Z</time>
      </trkpt>
      <trkpt lat="42.353538" lon="1.717582">
        <ele>1153.811</ele>
        <time>2019-05-31T15:13:11Z</time>
      </trkpt>
      <trkpt lat="42.353509" lon="1.717678">
        <ele>1153.408</ele>
        <time>2019-05-31T15:13:12Z</time>
      </trkpt>
      <trkpt lat="42.353453" lon="1.717871">
        <ele>1153.245</ele>
        <time>2019-05-31T15:13:14Z</time>
      </trkpt>
      <trkpt lat="42.353428" lon="1.717975">
        <ele>1152.059</ele>
        <time>2019-05-31T15:13:15Z</time>
      </trkpt>
      <trkpt lat="42.353410" lon="1.718085">
        <ele>1150.825</ele>
        <time>2019-05-31T15:13:16Z</time>
      </trkpt>
      <trkpt lat="42.353397" lon="1.718286">
        <ele>1149.423</ele>
        <time>2019-05-31T15:13:18Z</time>
      </trkpt>
      <trkpt lat="42.353377" lon="1.718448">
        <ele>1150.047</ele>
        <time>2019-05-31T15:13:20Z</time>
      </trkpt>
      <trkpt lat="42.353285" lon="1.718586">
        <ele>1149.052</ele>
        <time>2019-05-31T15:13:22Z</time>
      </trkpt>
      <trkpt lat="42.353229" lon="1.718664">
        <ele>1147.496</ele>
        <time>2019-05-31T15:13:23Z</time>
      </trkpt>
      <trkpt lat="42.353186" lon="1.718748">
        <ele>1146.872</ele>
        <time>2019-05-31T15:13:24Z</time>
      </trkpt>
      <trkpt lat="42.353159" lon="1.718842">
        <ele>1145.815</ele>
        <time>2019-05-31T15:13:25Z</time>
      </trkpt>
      <trkpt lat="42.353155" lon="1.718938">
        <ele>1145.265</ele>
        <time>2019-05-31T15:13:26Z</time>
      </trkpt>
      <trkpt lat="42.353159" lon="1.719030">
        <ele>1144.011</ele>
        <time>2019-05-31T15:13:27Z</time>
      </trkpt>
      <trkpt lat="42.353116" lon="1.719162">
        <ele>1143.008</ele>
        <time>2019-05-31T15:13:29Z</time>
      </trkpt>
      <trkpt lat="42.352984" lon="1.719246">
        <ele>1142.094</ele>
        <time>2019-05-31T15:13:31Z</time>
      </trkpt>
      <trkpt lat="42.352909" lon="1.719302">
        <ele>1140.648</ele>
        <time>2019-05-31T15:13:32Z</time>
      </trkpt>
      <trkpt lat="42.352833" lon="1.719369">
        <ele>1137.614</ele>
        <time>2019-05-31T15:13:33Z</time>
      </trkpt>
      <trkpt lat="42.352767" lon="1.719443">
        <ele>1136.672</ele>
        <time>2019-05-31T15:13:34Z</time>
      </trkpt>
      <trkpt lat="42.352708" lon="1.719527">
        <ele>1135.856</ele>
        <time>2019-05-31T15:13:35Z</time>
      </trkpt>
      <trkpt lat="42.352657" lon="1.719613">
        <ele>1134.441</ele>
        <time>2019-05-31T15:13:36Z</time>
      </trkpt>
      <trkpt lat="42.352608" lon="1.719717">
        <ele>1133.415</ele>
        <time>2019-05-31T15:13:37Z</time>
      </trkpt>
      <trkpt lat="42.352562" lon="1.719827">
        <ele>1131.611</ele>
        <time>2019-05-31T15:13:38Z</time>
      </trkpt>
      <trkpt lat="42.352522" lon="1.719940">
        <ele>1130.251</ele>
        <time>2019-05-31T15:13:39Z</time>
      </trkpt>
      <trkpt lat="42.352484" lon="1.720060">
        <ele>1128.601</ele>
        <time>2019-05-31T15:13:40Z</time>
      </trkpt>
      <trkpt lat="42.352447" lon="1.720188">
        <ele>1127.611</ele>
        <time>2019-05-31T15:13:41Z</time>
      </trkpt>
      <trkpt lat="42.352414" lon="1.720304">
        <ele>1126.008</ele>
        <time>2019-05-31T15:13:42Z</time>
      </trkpt>
      <trkpt lat="42.352388" lon="1.720422">
        <ele>1124.298</ele>
        <time>2019-05-31T15:13:43Z</time>
      </trkpt>
      <trkpt lat="42.352354" lon="1.720546">
        <ele>1122.842</ele>
        <time>2019-05-31T15:13:44Z</time>
      </trkpt>
      <trkpt lat="42.352310" lon="1.720669">
        <ele>1121.448</ele>
        <time>2019-05-31T15:13:45Z</time>
      </trkpt>
      <trkpt lat="42.352269" lon="1.720806">
        <ele>1120.076</ele>
        <time>2019-05-31T15:13:46Z</time>
      </trkpt>
      <trkpt lat="42.352239" lon="1.720930">
        <ele>1118.660</ele>
        <time>2019-05-31T15:13:47Z</time>
      </trkpt>
      <trkpt lat="42.352212" lon="1.721045">
        <ele>1117.225</ele>
        <time>2019-05-31T15:13:48Z</time>
      </trkpt>
      <trkpt lat="42.352136" lon="1.721276">
        <ele>1115.839</ele>
        <time>2019-05-31T15:13:50Z</time>
      </trkpt>
      <trkpt lat="42.352102" lon="1.721399">
        <ele>1114.825</ele>
        <time>2019-05-31T15:13:51Z</time>
      </trkpt>
      <trkpt lat="42.352075" lon="1.721516">
        <ele>1114.271</ele>
        <time>2019-05-31T15:13:52Z</time>
      </trkpt>
      <trkpt lat="42.352065" lon="1.721638">
        <ele>1113.641</ele>
        <time>2019-05-31T15:13:53Z</time>
      </trkpt>
      <trkpt lat="42.352070" lon="1.721763">
        <ele>1113.015</ele>
        <time>2019-05-31T15:13:54Z</time>
      </trkpt>
      <trkpt lat="42.352087" lon="1.721870">
        <ele>1112.208</ele>
        <time>2019-05-31T15:13:55Z</time>
      </trkpt>
      <trkpt lat="42.352092" lon="1.721974">
        <ele>1111.670</ele>
        <time>2019-05-31T15:13:56Z</time>
      </trkpt>
      <trkpt lat="42.352090" lon="1.722168">
        <ele>1110.214</ele>
        <time>2019-05-31T15:13:58Z</time>
      </trkpt>
      <trkpt lat="42.352082" lon="1.722246">
        <ele>1109.660</ele>
        <time>2019-05-31T15:13:59Z</time>
      </trkpt>
      <trkpt lat="42.352088" lon="1.722315">
        <ele>1109.088</ele>
        <time>2019-05-31T15:14:00Z</time>
      </trkpt>
      <trkpt lat="42.352139" lon="1.722375">
        <ele>1108.282</ele>
        <time>2019-05-31T15:14:02Z</time>
      </trkpt>
      <trkpt lat="42.352162" lon="1.722343">
        <ele>1107.827</ele>
        <time>2019-05-31T15:14:03Z</time>
      </trkpt>
      <trkpt lat="42.352197" lon="1.722288">
        <ele>1107.481</ele>
        <time>2019-05-31T15:14:04Z</time>
      </trkpt>
      <trkpt lat="42.352221" lon="1.722231">
        <ele>1106.837</ele>
        <time>2019-05-31T15:14:05Z</time>
      </trkpt>
      <trkpt lat="42.352231" lon="1.722095">
        <ele>1105.842</ele>
        <time>2019-05-31T15:14:07Z</time>
      </trkpt>
      <trkpt lat="42.352280" lon="1.722043">
        <ele>1104.822</ele>
        <time>2019-05-31T15:14:09Z</time>
      </trkpt>
      <trkpt lat="42.352309" lon="1.722069">
        <ele>1104.214</ele>
        <time>2019-05-31T15:14:10Z</time>
      </trkpt>
      <trkpt lat="42.352326" lon="1.722124">
        <ele>1103.608</ele>
        <time>2019-05-31T15:14:11Z</time>
      </trkpt>
      <trkpt lat="42.352328" lon="1.722198">
        <ele>1102.897</ele>
        <time>2019-05-31T15:14:12Z</time>
      </trkpt>
      <trkpt lat="42.352334" lon="1.722288">
        <ele>1101.471</ele>
        <time>2019-05-31T15:14:13Z</time>
      </trkpt>
      <trkpt lat="42.352334" lon="1.722386">
        <ele>1100.257</ele>
        <time>2019-05-31T15:14:14Z</time>
      </trkpt>
      <trkpt lat="42.352326" lon="1.722491">
        <ele>1098.665</ele>
        <time>2019-05-31T15:14:15Z</time>
      </trkpt>
      <trkpt lat="42.352308" lon="1.722593">
        <ele>1097.459</ele>
        <time>2019-05-31T15:14:16Z</time>
      </trkpt>
      <trkpt lat="42.352279" lon="1.722691">
        <ele>1096.054</ele>
        <time>2019-05-31T15:14:17Z</time>
      </trkpt>
      <trkpt lat="42.352238" lon="1.722792">
        <ele>1094.698</ele>
        <time>2019-05-31T15:14:18Z</time>
      </trkpt>
      <trkpt lat="42.352146" lon="1.722987">
        <ele>1092.854</ele>
        <time>2019-05-31T15:14:20Z</time>
      </trkpt>
      <trkpt lat="42.352095" lon="1.723080">
        <ele>1090.825</ele>
        <time>2019-05-31T15:14:21Z</time>
      </trkpt>
      <trkpt lat="42.352046" lon="1.723151">
        <ele>1090.026</ele>
        <time>2019-05-31T15:14:22Z</time>
      </trkpt>
      <trkpt lat="42.351982" lon="1.723204">
        <ele>1089.608</ele>
        <time>2019-05-31T15:14:23Z</time>
      </trkpt>
      <trkpt lat="42.351824" lon="1.723251">
        <ele>1087.608</ele>
        <time>2019-05-31T15:14:25Z</time>
      </trkpt>
      <trkpt lat="42.351735" lon="1.723258">
        <ele>1085.815</ele>
        <time>2019-05-31T15:14:26Z</time>
      </trkpt>
      <trkpt lat="42.351638" lon="1.723280">
        <ele>1084.649</ele>
        <time>2019-05-31T15:14:27Z</time>
      </trkpt>
      <trkpt lat="42.351474" lon="1.723401">
        <ele>1083.615</ele>
        <time>2019-05-31T15:14:29Z</time>
      </trkpt>
      <trkpt lat="42.351291" lon="1.723665">
        <ele>1083.623</ele>
        <time>2019-05-31T15:14:32Z</time>
      </trkpt>
      <trkpt lat="42.351183" lon="1.723866">
        <ele>1083.437</ele>
        <time>2019-05-31T15:14:34Z</time>
      </trkpt>
      <trkpt lat="42.350999" lon="1.724129">
        <ele>1083.672</ele>
        <time>2019-05-31T15:14:37Z</time>
      </trkpt>
      <trkpt lat="42.350819" lon="1.724342">
        <ele>1084.626</ele>
        <time>2019-05-31T15:14:40Z</time>
      </trkpt>
      <trkpt lat="42.350773" lon="1.724431">
        <ele>1084.892</ele>
        <time>2019-05-31T15:14:41Z</time>
      </trkpt>
      <trkpt lat="42.350737" lon="1.724523">
        <ele>1085.249</ele>
        <time>2019-05-31T15:14:42Z</time>
      </trkpt>
      <trkpt lat="42.350688" lon="1.724818">
        <ele>1085.202</ele>
        <time>2019-05-31T15:14:45Z</time>
      </trkpt>
      <trkpt lat="42.350696" lon="1.725019">
        <ele>1085.022</ele>
        <time>2019-05-31T15:14:47Z</time>
      </trkpt>
      <trkpt lat="42.350727" lon="1.725312">
        <ele>1085.008</ele>
        <time>2019-05-31T15:14:50Z</time>
      </trkpt>
      <trkpt lat="42.350868" lon="1.725816">
        <ele>1083.067</ele>
        <time>2019-05-31T15:14:55Z</time>
      </trkpt>
      <trkpt lat="42.351028" lon="1.726069">
        <ele>1082.281</ele>
        <time>2019-05-31T15:14:58Z</time>
      </trkpt>
      <trkpt lat="42.351223" lon="1.726183">
        <ele>1083.027</ele>
        <time>2019-05-31T15:15:01Z</time>
      </trkpt>
      <trkpt lat="42.351280" lon="1.726204">
        <ele>1084.085</ele>
        <time>2019-05-31T15:15:02Z</time>
      </trkpt>
      <trkpt lat="42.351380" lon="1.726219">
        <ele>1086.099</ele>
        <time>2019-05-31T15:15:04Z</time>
      </trkpt>
      <trkpt lat="42.351417" lon="1.726216">
        <ele>1086.834</ele>
        <time>2019-05-31T15:15:05Z</time>
      </trkpt>
      <trkpt lat="42.351450" lon="1.726220">
        <ele>1087.668</ele>
        <time>2019-05-31T15:15:06Z</time>
      </trkpt>
      <trkpt lat="42.351527" lon="1.726223">
        <ele>1089.234</ele>
        <time>2019-05-31T15:15:09Z</time>
      </trkpt>
      <trkpt lat="42.351550" lon="1.726218">
        <ele>1088.424</ele>
        <time>2019-05-31T15:15:10Z</time>
      </trkpt>
      <trkpt lat="42.351662" lon="1.726182">
        <ele>1091.004</ele>
        <time>2019-05-31T15:15:15Z</time>
      </trkpt>
      <trkpt lat="42.351703" lon="1.726176">
        <ele>1092.614</ele>
        <time>2019-05-31T15:15:17Z</time>
      </trkpt>
      <trkpt lat="42.351785" lon="1.726173">
        <ele>1091.408</ele>
        <time>2019-05-31T15:15:21Z</time>
      </trkpt>
      <trkpt lat="42.351879" lon="1.726141">
        <ele>1092.675</ele>
        <time>2019-05-31T15:15:26Z</time>
      </trkpt>
      <trkpt lat="42.351945" lon="1.726133">
        <ele>1093.089</ele>
        <time>2019-05-31T15:15:30Z</time>
      </trkpt>
      <trkpt lat="42.351997" lon="1.726128">
        <ele>1093.635</ele>
        <time>2019-05-31T15:15:33Z</time>
      </trkpt>
      <trkpt lat="42.352073" lon="1.726116">
        <ele>1094.033</ele>
        <time>2019-05-31T15:15:38Z</time>
      </trkpt>
      <trkpt lat="42.352180" lon="1.726110">
        <ele>1094.877</ele>
        <time>2019-05-31T15:15:45Z</time>
      </trkpt>
      <trkpt lat="42.352197" lon="1.726111">
        <ele>1095.022</ele>
        <time>2019-05-31T15:15:46Z</time>
      </trkpt>
      <trkpt lat="42.352328" lon="1.726118">
        <ele>1095.866</ele>
        <time>2019-05-31T15:15:54Z</time>
      </trkpt>
      <trkpt lat="42.352377" lon="1.726121">
        <ele>1096.452</ele>
        <time>2019-05-31T15:15:57Z</time>
      </trkpt>
      <trkpt lat="42.352476" lon="1.726147">
        <ele>1096.887</ele>
        <time>2019-05-31T15:16:03Z</time>
      </trkpt>
      <trkpt lat="42.352510" lon="1.726157">
        <ele>1097.042</ele>
        <time>2019-05-31T15:16:05Z</time>
      </trkpt>
      <trkpt lat="42.352669" lon="1.726207">
        <ele>1097.226</ele>
        <time>2019-05-31T15:16:13Z</time>
      </trkpt>
      <trkpt lat="42.352775" lon="1.726223">
        <ele>1097.808</ele>
        <time>2019-05-31T15:16:18Z</time>
      </trkpt>
      <trkpt lat="42.352856" lon="1.726250">
        <ele>1098.611</ele>
        <time>2019-05-31T15:16:22Z</time>
      </trkpt>
      <trkpt lat="42.352884" lon="1.726279">
        <ele>1099.065</ele>
        <time>2019-05-31T15:16:24Z</time>
      </trkpt>
      <trkpt lat="42.352951" lon="1.726347">
        <ele>1099.461</ele>
        <time>2019-05-31T15:16:29Z</time>
      </trkpt>
      <trkpt lat="42.353011" lon="1.726384">
        <ele>1100.099</ele>
        <time>2019-05-31T15:16:33Z</time>
      </trkpt>
      <trkpt lat="42.353056" lon="1.726414">
        <ele>1100.483</ele>
        <time>2019-05-31T15:16:36Z</time>
      </trkpt>
      <trkpt lat="42.353122" lon="1.726490">
        <ele>1101.268</ele>
        <time>2019-05-31T15:16:41Z</time>
      </trkpt>
      <trkpt lat="42.353160" lon="1.726528">
        <ele>1101.472</ele>
        <time>2019-05-31T15:16:44Z</time>
      </trkpt>
      <trkpt lat="42.353222" lon="1.726588">
        <ele>1102.278</ele>
        <time>2019-05-31T15:16:49Z</time>
      </trkpt>
      <trkpt lat="42.353268" lon="1.726635">
        <ele>1102.844</ele>
        <time>2019-05-31T15:16:53Z</time>
      </trkpt>
      <trkpt lat="42.353365" lon="1.726686">
        <ele>1104.005</ele>
        <time>2019-05-31T15:17:00Z</time>
      </trkpt>
      <trkpt lat="42.353376" lon="1.726681">
        <ele>1104.215</ele>
        <time>2019-05-31T15:17:01Z</time>
      </trkpt>
      <trkpt lat="42.353461" lon="1.726673">
        <ele>1105.208</ele>
        <time>2019-05-31T15:17:07Z</time>
      </trkpt>
      <trkpt lat="42.353475" lon="1.726671">
        <ele>1105.447</ele>
        <time>2019-05-31T15:17:08Z</time>
      </trkpt>
      <trkpt lat="42.353510" lon="1.726649">
        <ele>1106.211</ele>
        <time>2019-05-31T15:17:11Z</time>
      </trkpt>
      <trkpt lat="42.353546" lon="1.726627">
        <ele>1106.687</ele>
        <time>2019-05-31T15:17:14Z</time>
      </trkpt>
      <trkpt lat="42.353593" lon="1.726602">
        <ele>1107.225</ele>
        <time>2019-05-31T15:17:18Z</time>
      </trkpt>
      <trkpt lat="42.353674" lon="1.726596">
        <ele>1108.029</ele>
        <time>2019-05-31T15:17:24Z</time>
      </trkpt>
      <trkpt lat="42.353700" lon="1.726603">
        <ele>1108.234</ele>
        <time>2019-05-31T15:17:26Z</time>
      </trkpt>
      <trkpt lat="42.353773" lon="1.726635">
        <ele>1109.088</ele>
        <time>2019-05-31T15:17:32Z</time>
      </trkpt>
      <trkpt lat="42.353784" lon="1.726647">
        <ele>1109.294</ele>
        <time>2019-05-31T15:17:33Z</time>
      </trkpt>
      <trkpt lat="42.353832" lon="1.726715">
        <ele>1110.098</ele>
        <time>2019-05-31T15:17:39Z</time>
      </trkpt>
      <trkpt lat="42.353873" lon="1.726779">
        <ele>1110.415</ele>
        <time>2019-05-31T15:17:44Z</time>
      </trkpt>
      <trkpt lat="42.353892" lon="1.726795">
        <ele>1110.426</ele>
        <time>2019-05-31T15:17:46Z</time>
      </trkpt>
      <trkpt lat="42.353970" lon="1.726850">
        <ele>1111.808</ele>
        <time>2019-05-31T15:17:53Z</time>
      </trkpt>
      <trkpt lat="42.353985" lon="1.726858">
        <ele>1111.682</ele>
        <time>2019-05-31T15:17:54Z</time>
      </trkpt>
      <trkpt lat="42.354095" lon="1.726943">
        <ele>1112.826</ele>
        <time>2019-05-31T15:18:02Z</time>
      </trkpt>
      <trkpt lat="42.354108" lon="1.726957">
        <ele>1113.012</ele>
        <time>2019-05-31T15:18:03Z</time>
      </trkpt>
      <trkpt lat="42.354192" lon="1.727090">
        <ele>1113.010</ele>
        <time>2019-05-31T15:18:11Z</time>
      </trkpt>
      <trkpt lat="42.354297" lon="1.727195">
        <ele>1113.214</ele>
        <time>2019-05-31T15:18:18Z</time>
      </trkpt>
      <trkpt lat="42.354441" lon="1.727231">
        <ele>1113.819</ele>
        <time>2019-05-31T15:18:24Z</time>
      </trkpt>
      <trkpt lat="42.354630" lon="1.727239">
        <ele>1113.443</ele>
        <time>2019-05-31T15:18:30Z</time>
      </trkpt>
      <trkpt lat="42.354887" lon="1.727186">
        <ele>1112.639</ele>
        <time>2019-05-31T15:18:36Z</time>
      </trkpt>
      <trkpt lat="42.355017" lon="1.727123">
        <ele>1113.848</ele>
        <time>2019-05-31T15:18:41Z</time>
      </trkpt>
      <trkpt lat="42.355033" lon="1.727092">
        <ele>1114.261</ele>
        <time>2019-05-31T15:18:43Z</time>
      </trkpt>
      <trkpt lat="42.355085" lon="1.727058">
        <ele>1115.217</ele>
        <time>2019-05-31T15:18:47Z</time>
      </trkpt>
      <trkpt lat="42.355103" lon="1.727051">
        <ele>1115.408</ele>
        <time>2019-05-31T15:18:48Z</time>
      </trkpt>
      <trkpt lat="42.355187" lon="1.726996">
        <ele>1116.217</ele>
        <time>2019-05-31T15:18:55Z</time>
      </trkpt>
      <trkpt lat="42.355212" lon="1.726972">
        <ele>1116.671</ele>
        <time>2019-05-31T15:18:57Z</time>
      </trkpt>
      <trkpt lat="42.355301" lon="1.726909">
        <ele>1117.497</ele>
        <time>2019-05-31T15:19:03Z</time>
      </trkpt>
      <trkpt lat="42.355313" lon="1.726901">
        <ele>1117.695</ele>
        <time>2019-05-31T15:19:04Z</time>
      </trkpt>
      <trkpt lat="42.355399" lon="1.726833">
        <ele>1118.459</ele>
        <time>2019-05-31T15:19:10Z</time>
      </trkpt>
      <trkpt lat="42.355415" lon="1.726823">
        <ele>1118.654</ele>
        <time>2019-05-31T15:19:11Z</time>
      </trkpt>
      <trkpt lat="42.355540" lon="1.726711">
        <ele>1115.688</ele>
        <time>2019-05-31T15:19:18Z</time>
      </trkpt>
      <trkpt lat="42.355562" lon="1.726692">
        <ele>1117.024</ele>
        <time>2019-05-31T15:19:19Z</time>
      </trkpt>
      <trkpt lat="42.355608" lon="1.726650">
        <ele>1120.439</ele>
        <time>2019-05-31T15:19:21Z</time>
      </trkpt>
      <trkpt lat="42.355628" lon="1.726630">
        <ele>1119.001</ele>
        <time>2019-05-31T15:19:22Z</time>
      </trkpt>
      <trkpt lat="42.355721" lon="1.726499">
        <ele>1118.421</ele>
        <time>2019-05-31T15:19:27Z</time>
      </trkpt>
      <trkpt lat="42.355769" lon="1.726341">
        <ele>1118.008</ele>
        <time>2019-05-31T15:19:31Z</time>
      </trkpt>
      <trkpt lat="42.355781" lon="1.726293">
        <ele>1118.096</ele>
        <time>2019-05-31T15:19:32Z</time>
      </trkpt>
      <trkpt lat="42.355792" lon="1.726039">
        <ele>1117.670</ele>
        <time>2019-05-31T15:19:37Z</time>
      </trkpt>
      <trkpt lat="42.355852" lon="1.725621">
        <ele>1116.836</ele>
        <time>2019-05-31T15:19:44Z</time>
      </trkpt>
      <trkpt lat="42.355977" lon="1.725218">
        <ele>1116.234</ele>
        <time>2019-05-31T15:19:51Z</time>
      </trkpt>
      <trkpt lat="42.356143" lon="1.724853">
        <ele>1116.698</ele>
        <time>2019-05-31T15:19:58Z</time>
      </trkpt>
      <trkpt lat="42.356364" lon="1.724515">
        <ele>1117.223</ele>
        <time>2019-05-31T15:20:05Z</time>
      </trkpt>
      <trkpt lat="42.356398" lon="1.724477">
        <ele>1117.247</ele>
        <time>2019-05-31T15:20:06Z</time>
      </trkpt>
      <trkpt lat="42.356539" lon="1.724335">
        <ele>1116.843</ele>
        <time>2019-05-31T15:20:10Z</time>
      </trkpt>
      <trkpt lat="42.356834" lon="1.724174">
        <ele>1117.297</ele>
        <time>2019-05-31T15:20:17Z</time>
      </trkpt>
      <trkpt lat="42.357098" lon="1.724053">
        <ele>1117.623</ele>
        <time>2019-05-31T15:20:24Z</time>
      </trkpt>
      <trkpt lat="42.357169" lon="1.724025">
        <ele>1118.025</ele>
        <time>2019-05-31T15:20:26Z</time>
      </trkpt>
      <trkpt lat="42.357279" lon="1.723987">
        <ele>1118.808</ele>
        <time>2019-05-31T15:20:29Z</time>
      </trkpt>
      <trkpt lat="42.357415" lon="1.723975">
        <ele>1118.452</ele>
        <time>2019-05-31T15:20:32Z</time>
      </trkpt>
      <trkpt lat="42.357776" lon="1.723991">
        <ele>1117.436</ele>
        <time>2019-05-31T15:20:39Z</time>
      </trkpt>
      <trkpt lat="42.357989" lon="1.724045">
        <ele>1117.042</ele>
        <time>2019-05-31T15:20:43Z</time>
      </trkpt>
      <trkpt lat="42.358096" lon="1.724103">
        <ele>1116.450</ele>
        <time>2019-05-31T15:20:45Z</time>
      </trkpt>
      <trkpt lat="42.358151" lon="1.724135">
        <ele>1116.074</ele>
        <time>2019-05-31T15:20:46Z</time>
      </trkpt>
      <trkpt lat="42.358401" lon="1.724256">
        <ele>1114.219</ele>
        <time>2019-05-31T15:20:50Z</time>
      </trkpt>
      <trkpt lat="42.358541" lon="1.724338">
        <ele>1113.283</ele>
        <time>2019-05-31T15:20:52Z</time>
      </trkpt>
      <trkpt lat="42.358670" lon="1.724456">
        <ele>1112.499</ele>
        <time>2019-05-31T15:20:54Z</time>
      </trkpt>
      <trkpt lat="42.358767" lon="1.724602">
        <ele>1112.683</ele>
        <time>2019-05-31T15:20:56Z</time>
      </trkpt>
      <trkpt lat="42.358882" lon="1.724941">
        <ele>1112.425</ele>
        <time>2019-05-31T15:21:00Z</time>
      </trkpt>
      <trkpt lat="42.358925" lon="1.725028">
        <ele>1111.617</ele>
        <time>2019-05-31T15:21:01Z</time>
      </trkpt>
      <trkpt lat="42.359029" lon="1.725213">
        <ele>1109.808</ele>
        <time>2019-05-31T15:21:03Z</time>
      </trkpt>
      <trkpt lat="42.359080" lon="1.725292">
        <ele>1109.081</ele>
        <time>2019-05-31T15:21:04Z</time>
      </trkpt>
      <trkpt lat="42.359141" lon="1.725372">
        <ele>1108.285</ele>
        <time>2019-05-31T15:21:05Z</time>
      </trkpt>
      <trkpt lat="42.359258" lon="1.725518">
        <ele>1106.621</ele>
        <time>2019-05-31T15:21:07Z</time>
      </trkpt>
      <trkpt lat="42.359395" lon="1.725636">
        <ele>1103.829</ele>
        <time>2019-05-31T15:21:09Z</time>
      </trkpt>
      <trkpt lat="42.359472" lon="1.725691">
        <ele>1102.843</ele>
        <time>2019-05-31T15:21:10Z</time>
      </trkpt>
      <trkpt lat="42.359548" lon="1.725739">
        <ele>1101.688</ele>
        <time>2019-05-31T15:21:11Z</time>
      </trkpt>
      <trkpt lat="42.359628" lon="1.725778">
        <ele>1100.472</ele>
        <time>2019-05-31T15:21:12Z</time>
      </trkpt>
      <trkpt lat="42.359717" lon="1.725806">
        <ele>1099.438</ele>
        <time>2019-05-31T15:21:13Z</time>
      </trkpt>
      <trkpt lat="42.359797" lon="1.725813">
        <ele>1098.638</ele>
        <time>2019-05-31T15:21:14Z</time>
      </trkpt>
      <trkpt lat="42.360006" lon="1.725791">
        <ele>1097.670</ele>
        <time>2019-05-31T15:21:17Z</time>
      </trkpt>
      <trkpt lat="42.360083" lon="1.725800">
        <ele>1097.017</ele>
        <time>2019-05-31T15:21:18Z</time>
      </trkpt>
      <trkpt lat="42.360233" lon="1.725770">
        <ele>1095.208</ele>
        <time>2019-05-31T15:21:20Z</time>
      </trkpt>
      <trkpt lat="42.360313" lon="1.725733">
        <ele>1093.826</ele>
        <time>2019-05-31T15:21:21Z</time>
      </trkpt>
      <trkpt lat="42.360397" lon="1.725691">
        <ele>1092.860</ele>
        <time>2019-05-31T15:21:22Z</time>
      </trkpt>
      <trkpt lat="42.360484" lon="1.725654">
        <ele>1091.646</ele>
        <time>2019-05-31T15:21:23Z</time>
      </trkpt>
      <trkpt lat="42.360644" lon="1.725607">
        <ele>1090.614</ele>
        <time>2019-05-31T15:21:25Z</time>
      </trkpt>
      <trkpt lat="42.360796" lon="1.725611">
        <ele>1089.888</ele>
        <time>2019-05-31T15:21:27Z</time>
      </trkpt>
      <trkpt lat="42.360871" lon="1.725658">
        <ele>1089.213</ele>
        <time>2019-05-31T15:21:28Z</time>
      </trkpt>
      <trkpt lat="42.361005" lon="1.725844">
        <ele>1087.017</ele>
        <time>2019-05-31T15:21:30Z</time>
      </trkpt>
      <trkpt lat="42.361065" lon="1.725958">
        <ele>1085.423</ele>
        <time>2019-05-31T15:21:31Z</time>
      </trkpt>
      <trkpt lat="42.361128" lon="1.726077">
        <ele>1084.047</ele>
        <time>2019-05-31T15:21:32Z</time>
      </trkpt>
      <trkpt lat="42.361193" lon="1.726197">
        <ele>1081.829</ele>
        <time>2019-05-31T15:21:33Z</time>
      </trkpt>
      <trkpt lat="42.361262" lon="1.726317">
        <ele>1080.821</ele>
        <time>2019-05-31T15:21:34Z</time>
      </trkpt>
      <trkpt lat="42.361389" lon="1.726560">
        <ele>1079.208</ele>
        <time>2019-05-31T15:21:36Z</time>
      </trkpt>
      <trkpt lat="42.361576" lon="1.726998">
        <ele>1079.447</ele>
        <time>2019-05-31T15:21:40Z</time>
      </trkpt>
      <trkpt lat="42.361525" lon="1.727284">
        <ele>1079.411</ele>
        <time>2019-05-31T15:21:43Z</time>
      </trkpt>
      <trkpt lat="42.361336" lon="1.727468">
        <ele>1078.827</ele>
        <time>2019-05-31T15:21:46Z</time>
      </trkpt>
      <trkpt lat="42.361267" lon="1.727522">
        <ele>1078.665</ele>
        <time>2019-05-31T15:21:47Z</time>
      </trkpt>
      <trkpt lat="42.361055" lon="1.727680">
        <ele>1078.049</ele>
        <time>2019-05-31T15:21:50Z</time>
      </trkpt>
      <trkpt lat="42.360846" lon="1.727844">
        <ele>1078.084</ele>
        <time>2019-05-31T15:21:53Z</time>
      </trkpt>
      <trkpt lat="42.360344" lon="1.728276">
        <ele>1078.268</ele>
        <time>2019-05-31T15:22:01Z</time>
      </trkpt>
      <trkpt lat="42.360168" lon="1.728427">
        <ele>1079.244</ele>
        <time>2019-05-31T15:22:04Z</time>
      </trkpt>
      <trkpt lat="42.359943" lon="1.728601">
        <ele>1079.626</ele>
        <time>2019-05-31T15:22:08Z</time>
      </trkpt>
      <trkpt lat="42.359722" lon="1.728780">
        <ele>1080.247</ele>
        <time>2019-05-31T15:22:12Z</time>
      </trkpt>
      <trkpt lat="42.359471" lon="1.728986">
        <ele>1081.211</ele>
        <time>2019-05-31T15:22:17Z</time>
      </trkpt>
      <trkpt lat="42.359383" lon="1.729048">
        <ele>1081.408</ele>
        <time>2019-05-31T15:22:19Z</time>
      </trkpt>
      <trkpt lat="42.359229" lon="1.729150">
        <ele>1081.495</ele>
        <time>2019-05-31T15:22:23Z</time>
      </trkpt>
      <trkpt lat="42.359179" lon="1.729285">
        <ele>1081.469</ele>
        <time>2019-05-31T15:22:26Z</time>
      </trkpt>
      <trkpt lat="42.359182" lon="1.729349">
        <ele>1081.295</ele>
        <time>2019-05-31T15:22:27Z</time>
      </trkpt>
      <trkpt lat="42.359227" lon="1.729465">
        <ele>1080.483</ele>
        <time>2019-05-31T15:22:29Z</time>
      </trkpt>
      <trkpt lat="42.359268" lon="1.729509">
        <ele>1080.057</ele>
        <time>2019-05-31T15:22:30Z</time>
      </trkpt>
      <trkpt lat="42.359337" lon="1.729586">
        <ele>1079.892</ele>
        <time>2019-05-31T15:22:32Z</time>
      </trkpt>
      <trkpt lat="42.359394" lon="1.729719">
        <ele>1079.086</ele>
        <time>2019-05-31T15:22:35Z</time>
      </trkpt>
      <trkpt lat="42.359393" lon="1.729776">
        <ele>1079.082</ele>
        <time>2019-05-31T15:22:36Z</time>
      </trkpt>
      <trkpt lat="42.359361" lon="1.729892">
        <ele>1078.079</ele>
        <time>2019-05-31T15:22:38Z</time>
      </trkpt>
      <trkpt lat="42.359335" lon="1.729961">
        <ele>1077.205</ele>
        <time>2019-05-31T15:22:39Z</time>
      </trkpt>
      <trkpt lat="42.359308" lon="1.730035">
        <ele>1076.425</ele>
        <time>2019-05-31T15:22:40Z</time>
      </trkpt>
      <trkpt lat="42.359282" lon="1.730097">
        <ele>1075.608</ele>
        <time>2019-05-31T15:22:41Z</time>
      </trkpt>
      <trkpt lat="42.359259" lon="1.730159">
        <ele>1074.660</ele>
        <time>2019-05-31T15:22:42Z</time>
      </trkpt>
      <trkpt lat="42.359212" lon="1.730290">
        <ele>1073.214</ele>
        <time>2019-05-31T15:22:44Z</time>
      </trkpt>
      <trkpt lat="42.359154" lon="1.730450">
        <ele>1071.450</ele>
        <time>2019-05-31T15:22:46Z</time>
      </trkpt>
      <trkpt lat="42.359127" lon="1.730534">
        <ele>1070.298</ele>
        <time>2019-05-31T15:22:47Z</time>
      </trkpt>
      <trkpt lat="42.359092" lon="1.730625">
        <ele>1069.252</ele>
        <time>2019-05-31T15:22:48Z</time>
      </trkpt>
      <trkpt lat="42.359018" lon="1.730838">
        <ele>1066.837</ele>
        <time>2019-05-31T15:22:50Z</time>
      </trkpt>
      <trkpt lat="42.358982" lon="1.730950">
        <ele>1065.611</ele>
        <time>2019-05-31T15:22:51Z</time>
      </trkpt>
      <trkpt lat="42.358947" lon="1.731062">
        <ele>1064.467</ele>
        <time>2019-05-31T15:22:52Z</time>
      </trkpt>
      <trkpt lat="42.358867" lon="1.731261">
        <ele>1063.268</ele>
        <time>2019-05-31T15:22:54Z</time>
      </trkpt>
      <trkpt lat="42.358841" lon="1.731361">
        <ele>1063.242</ele>
        <time>2019-05-31T15:22:55Z</time>
      </trkpt>
      <trkpt lat="42.358836" lon="1.731452">
        <ele>1063.626</ele>
        <time>2019-05-31T15:22:56Z</time>
      </trkpt>
      <trkpt lat="42.358850" lon="1.731532">
        <ele>1064.208</ele>
        <time>2019-05-31T15:22:57Z</time>
      </trkpt>
      <trkpt lat="42.358885" lon="1.731631">
        <ele>1066.059</ele>
        <time>2019-05-31T15:22:59Z</time>
      </trkpt>
      <trkpt lat="42.358897" lon="1.731700">
        <ele>1067.263</ele>
        <time>2019-05-31T15:23:01Z</time>
      </trkpt>
      <trkpt lat="42.358902" lon="1.731731">
        <ele>1067.849</ele>
        <time>2019-05-31T15:23:02Z</time>
      </trkpt>
      <trkpt lat="42.358910" lon="1.731754">
        <ele>1068.217</ele>
        <time>2019-05-31T15:23:03Z</time>
      </trkpt>
      <trkpt lat="42.358918" lon="1.731775">
        <ele>1068.441</ele>
        <time>2019-05-31T15:23:04Z</time>
      </trkpt>
      <trkpt lat="42.358934" lon="1.731890">
        <ele>1069.666</ele>
        <time>2019-05-31T15:23:08Z</time>
      </trkpt>
      <trkpt lat="42.358939" lon="1.731985">
        <ele>1070.480</ele>
        <time>2019-05-31T15:23:11Z</time>
      </trkpt>
      <trkpt lat="42.358939" lon="1.732018">
        <ele>1070.846</ele>
        <time>2019-05-31T15:23:12Z</time>
      </trkpt>
      <trkpt lat="42.358956" lon="1.732158">
        <ele>1072.097</ele>
        <time>2019-05-31T15:23:17Z</time>
      </trkpt>
      <trkpt lat="42.358935" lon="1.732164">
        <ele>1072.223</ele>
        <time>2019-05-31T15:23:18Z</time>
      </trkpt>
      <trkpt lat="42.358887" lon="1.732109">
        <ele>1072.625</ele>
        <time>2019-05-31T15:23:21Z</time>
      </trkpt>
      <trkpt lat="42.358867" lon="1.732081">
        <ele>1072.808</ele>
        <time>2019-05-31T15:23:23Z</time>
      </trkpt>
      <trkpt lat="42.358860" lon="1.732070">
        <ele>1073.052</ele>
        <time>2019-05-31T15:23:24Z</time>
      </trkpt>
      <trkpt lat="42.358853" lon="1.732060">
        <ele>1071.626</ele>
        <time>2019-05-31T15:23:25Z</time>
      </trkpt>
      <trkpt lat="42.358519" lon="1.731993">
        <ele>983.239</ele>
        <time>2019-06-01T07:21:02Z</time>
      </trkpt>
      <trkpt lat="42.358662" lon="1.732005">
        <ele>983.201</ele>
        <time>2019-06-01T07:21:08Z</time>
      </trkpt>
      <trkpt lat="42.358780" lon="1.732113">
        <ele>983.421</ele>
        <time>2019-06-01T07:21:13Z</time>
      </trkpt>
      <trkpt lat="42.358887" lon="1.732233">
        <ele>982.408</ele>
        <time>2019-06-01T07:21:17Z</time>
      </trkpt>
      <trkpt lat="42.358914" lon="1.732275">
        <ele>981.896</ele>
        <time>2019-06-01T07:21:18Z</time>
      </trkpt>
      <trkpt lat="42.358974" lon="1.732397">
        <ele>982.420</ele>
        <time>2019-06-01T07:21:21Z</time>
      </trkpt>
      <trkpt lat="42.359053" lon="1.732557">
        <ele>983.426</ele>
        <time>2019-06-01T07:21:26Z</time>
      </trkpt>
      <trkpt lat="42.359118" lon="1.732765">
        <ele>985.084</ele>
        <time>2019-06-01T07:21:32Z</time>
      </trkpt>
      <trkpt lat="42.359095" lon="1.733024">
        <ele>984.478</ele>
        <time>2019-06-01T07:21:38Z</time>
      </trkpt>
      <trkpt lat="42.359082" lon="1.733078">
        <ele>983.665</ele>
        <time>2019-06-01T07:21:39Z</time>
      </trkpt>
      <trkpt lat="42.359013" lon="1.733289">
        <ele>982.283</ele>
        <time>2019-06-01T07:21:42Z</time>
      </trkpt>
      <trkpt lat="42.358983" lon="1.733370">
        <ele>980.234</ele>
        <time>2019-06-01T07:21:43Z</time>
      </trkpt>
      <trkpt lat="42.358846" lon="1.733765">
        <ele>978.621</ele>
        <time>2019-06-01T07:21:47Z</time>
      </trkpt>
      <trkpt lat="42.358820" lon="1.733870">
        <ele>977.841</ele>
        <time>2019-06-01T07:21:48Z</time>
      </trkpt>
      <trkpt lat="42.358795" lon="1.733973">
        <ele>977.205</ele>
        <time>2019-06-01T07:21:49Z</time>
      </trkpt>
      <trkpt lat="42.358757" lon="1.734159">
        <ele>978.008</ele>
        <time>2019-06-01T07:21:51Z</time>
      </trkpt>
      <trkpt lat="42.358743" lon="1.734244">
        <ele>978.485</ele>
        <time>2019-06-01T07:21:52Z</time>
      </trkpt>
      <trkpt lat="42.358707" lon="1.734386">
        <ele>979.899</ele>
        <time>2019-06-01T07:21:54Z</time>
      </trkpt>
      <trkpt lat="42.358699" lon="1.734436">
        <ele>980.235</ele>
        <time>2019-06-01T07:21:55Z</time>
      </trkpt>
      <trkpt lat="42.358694" lon="1.734478">
        <ele>981.063</ele>
        <time>2019-06-01T07:21:56Z</time>
      </trkpt>
      <trkpt lat="42.358684" lon="1.734546">
        <ele>982.637</ele>
        <time>2019-06-01T07:21:58Z</time>
      </trkpt>
      <trkpt lat="42.358677" lon="1.734582">
        <ele>983.074</ele>
        <time>2019-06-01T07:21:59Z</time>
      </trkpt>
      <trkpt lat="42.358657" lon="1.734661">
        <ele>984.092</ele>
        <time>2019-06-01T07:22:01Z</time>
      </trkpt>
      <trkpt lat="42.358648" lon="1.734708">
        <ele>984.633</ele>
        <time>2019-06-01T07:22:03Z</time>
      </trkpt>
      <trkpt lat="42.358643" lon="1.734744">
        <ele>985.297</ele>
        <time>2019-06-01T07:22:05Z</time>
      </trkpt>
      <trkpt lat="42.358633" lon="1.734809">
        <ele>986.423</ele>
        <time>2019-06-01T07:22:08Z</time>
      </trkpt>
      <trkpt lat="42.358633" lon="1.734855">
        <ele>987.025</ele>
        <time>2019-06-01T07:22:10Z</time>
      </trkpt>
      <trkpt lat="42.358628" lon="1.734875">
        <ele>987.408</ele>
        <time>2019-06-01T07:22:11Z</time>
      </trkpt>
      <trkpt lat="42.358616" lon="1.734893">
        <ele>987.672</ele>
        <time>2019-06-01T07:22:12Z</time>
      </trkpt>
      <trkpt lat="42.358586" lon="1.734921">
        <ele>988.266</ele>
        <time>2019-06-01T07:22:14Z</time>
      </trkpt>
      <trkpt lat="42.358570" lon="1.734935">
        <ele>988.862</ele>
        <time>2019-06-01T07:22:15Z</time>
      </trkpt>
      <trkpt lat="42.358546" lon="1.734981">
        <ele>989.450</ele>
        <time>2019-06-01T07:22:17Z</time>
      </trkpt>
      <trkpt lat="42.358542" lon="1.735004">
        <ele>989.814</ele>
        <time>2019-06-01T07:22:18Z</time>
      </trkpt>
      <trkpt lat="42.358539" lon="1.735028">
        <ele>990.051</ele>
        <time>2019-06-01T07:22:19Z</time>
      </trkpt>
      <trkpt lat="42.358495" lon="1.735138">
        <ele>991.249</ele>
        <time>2019-06-01T07:22:24Z</time>
      </trkpt>
      <trkpt lat="42.358480" lon="1.735157">
        <ele>991.440</ele>
        <time>2019-06-01T07:22:25Z</time>
      </trkpt>
      <trkpt lat="42.358425" lon="1.735283">
        <ele>992.414</ele>
        <time>2019-06-01T07:22:31Z</time>
      </trkpt>
      <trkpt lat="42.358446" lon="1.735288">
        <ele>992.654</ele>
        <time>2019-06-01T07:22:33Z</time>
      </trkpt>
      <trkpt lat="42.358390" lon="1.735387">
        <ele>993.409</ele>
        <time>2019-06-01T07:22:39Z</time>
      </trkpt>
      <trkpt lat="42.358380" lon="1.735425">
        <ele>993.808</ele>
        <time>2019-06-01T07:22:41Z</time>
      </trkpt>
      <trkpt lat="42.358351" lon="1.735495">
        <ele>994.614</ele>
        <time>2019-06-01T07:22:45Z</time>
      </trkpt>
      <trkpt lat="42.358316" lon="1.735542">
        <ele>995.038</ele>
        <time>2019-06-01T07:22:48Z</time>
      </trkpt>
      <trkpt lat="42.358263" lon="1.735623">
        <ele>995.614</ele>
        <time>2019-06-01T07:22:53Z</time>
      </trkpt>
      <trkpt lat="42.358255" lon="1.735644">
        <ele>995.832</ele>
        <time>2019-06-01T07:22:54Z</time>
      </trkpt>
      <trkpt lat="42.358235" lon="1.735672">
        <ele>996.086</ele>
        <time>2019-06-01T07:22:56Z</time>
      </trkpt>
      <trkpt lat="42.358208" lon="1.735741">
        <ele>996.883</ele>
        <time>2019-06-01T07:23:00Z</time>
      </trkpt>
      <trkpt lat="42.358217" lon="1.735810">
        <ele>997.011</ele>
        <time>2019-06-01T07:23:03Z</time>
      </trkpt>
      <trkpt lat="42.358258" lon="1.735981">
        <ele>997.652</ele>
        <time>2019-06-01T07:23:10Z</time>
      </trkpt>
      <trkpt lat="42.358262" lon="1.736010">
        <ele>997.696</ele>
        <time>2019-06-01T07:23:11Z</time>
      </trkpt>
      <trkpt lat="42.358269" lon="1.736036">
        <ele>997.831</ele>
        <time>2019-06-01T07:23:12Z</time>
      </trkpt>
      <trkpt lat="42.358295" lon="1.736150">
        <ele>998.224</ele>
        <time>2019-06-01T07:23:16Z</time>
      </trkpt>
      <trkpt lat="42.358337" lon="1.736293">
        <ele>998.808</ele>
        <time>2019-06-01T07:23:22Z</time>
      </trkpt>
      <trkpt lat="42.358349" lon="1.736380">
        <ele>999.282</ele>
        <time>2019-06-01T07:23:25Z</time>
      </trkpt>
      <trkpt lat="42.358373" lon="1.736429">
        <ele>999.626</ele>
        <time>2019-06-01T07:23:27Z</time>
      </trkpt>
      <trkpt lat="42.358390" lon="1.736482">
        <ele>999.882</ele>
        <time>2019-06-01T07:23:29Z</time>
      </trkpt>
      <trkpt lat="42.358450" lon="1.736645">
        <ele>1000.670</ele>
        <time>2019-06-01T07:23:35Z</time>
      </trkpt>
      <trkpt lat="42.358454" lon="1.736675">
        <ele>1001.054</ele>
        <time>2019-06-01T07:23:36Z</time>
      </trkpt>
      <trkpt lat="42.358494" lon="1.736837">
        <ele>1001.861</ele>
        <time>2019-06-01T07:23:42Z</time>
      </trkpt>
      <trkpt lat="42.358503" lon="1.736864">
        <ele>1002.019</ele>
        <time>2019-06-01T07:23:43Z</time>
      </trkpt>
      <trkpt lat="42.358562" lon="1.737084">
        <ele>1003.220</ele>
        <time>2019-06-01T07:23:51Z</time>
      </trkpt>
      <trkpt lat="42.358573" lon="1.737109">
        <ele>1003.448</ele>
        <time>2019-06-01T07:23:52Z</time>
      </trkpt>
      <trkpt lat="42.358648" lon="1.737324">
        <ele>1004.261</ele>
        <time>2019-06-01T07:24:00Z</time>
      </trkpt>
      <trkpt lat="42.358690" lon="1.737438">
        <ele>1004.417</ele>
        <time>2019-06-01T07:24:04Z</time>
      </trkpt>
      <trkpt lat="42.358713" lon="1.737534">
        <ele>1004.208</ele>
        <time>2019-06-01T07:24:07Z</time>
      </trkpt>
      <trkpt lat="42.358735" lon="1.737806">
        <ele>1004.097</ele>
        <time>2019-06-01T07:24:14Z</time>
      </trkpt>
      <trkpt lat="42.358721" lon="1.738076">
        <ele>1003.271</ele>
        <time>2019-06-01T07:24:19Z</time>
      </trkpt>
      <trkpt lat="42.358716" lon="1.738192">
        <ele>1003.077</ele>
        <time>2019-06-01T07:24:21Z</time>
      </trkpt>
      <trkpt lat="42.358718" lon="1.738378">
        <ele>1002.255</ele>
        <time>2019-06-01T07:24:24Z</time>
      </trkpt>
      <trkpt lat="42.358734" lon="1.738662">
        <ele>1002.039</ele>
        <time>2019-06-01T07:24:28Z</time>
      </trkpt>
      <trkpt lat="42.358771" lon="1.739112">
        <ele>1002.066</ele>
        <time>2019-06-01T07:24:35Z</time>
      </trkpt>
      <trkpt lat="42.358782" lon="1.739226">
        <ele>1002.444</ele>
        <time>2019-06-01T07:24:37Z</time>
      </trkpt>
      <trkpt lat="42.358854" lon="1.739364">
        <ele>1002.845</ele>
        <time>2019-06-01T07:24:40Z</time>
      </trkpt>
      <trkpt lat="42.358973" lon="1.739473">
        <ele>1002.095</ele>
        <time>2019-06-01T07:24:43Z</time>
      </trkpt>
      <trkpt lat="42.359058" lon="1.739572">
        <ele>1001.249</ele>
        <time>2019-06-01T07:24:45Z</time>
      </trkpt>
      <trkpt lat="42.359090" lon="1.739641">
        <ele>1000.823</ele>
        <time>2019-06-01T07:24:46Z</time>
      </trkpt>
      <trkpt lat="42.359143" lon="1.739795">
        <ele>1000.008</ele>
        <time>2019-06-01T07:24:48Z</time>
      </trkpt>
      <trkpt lat="42.359157" lon="1.739881">
        <ele>999.842</ele>
        <time>2019-06-01T07:24:49Z</time>
      </trkpt>
      <trkpt lat="42.359172" lon="1.740062">
        <ele>999.436</ele>
        <time>2019-06-01T07:24:51Z</time>
      </trkpt>
      <trkpt lat="42.359176" lon="1.740157">
        <ele>999.212</ele>
        <time>2019-06-01T07:24:52Z</time>
      </trkpt>
      <trkpt lat="42.359188" lon="1.740255">
        <ele>998.640</ele>
        <time>2019-06-01T07:24:53Z</time>
      </trkpt>
      <trkpt lat="42.359210" lon="1.740466">
        <ele>997.474</ele>
        <time>2019-06-01T07:24:55Z</time>
      </trkpt>
      <trkpt lat="42.359231" lon="1.740703">
        <ele>995.851</ele>
        <time>2019-06-01T07:24:57Z</time>
      </trkpt>
      <trkpt lat="42.359245" lon="1.740831">
        <ele>994.819</ele>
        <time>2019-06-01T07:24:58Z</time>
      </trkpt>
      <trkpt lat="42.359254" lon="1.740966">
        <ele>993.650</ele>
        <time>2019-06-01T07:24:59Z</time>
      </trkpt>
      <trkpt lat="42.359265" lon="1.741102">
        <ele>992.635</ele>
        <time>2019-06-01T07:25:00Z</time>
      </trkpt>
      <trkpt lat="42.359281" lon="1.741394">
        <ele>990.686</ele>
        <time>2019-06-01T07:25:02Z</time>
      </trkpt>
      <trkpt lat="42.359283" lon="1.741547">
        <ele>988.614</ele>
        <time>2019-06-01T07:25:03Z</time>
      </trkpt>
      <trkpt lat="42.359285" lon="1.741698">
        <ele>987.408</ele>
        <time>2019-06-01T07:25:04Z</time>
      </trkpt>
      <trkpt lat="42.359287" lon="1.741854">
        <ele>986.486</ele>
        <time>2019-06-01T07:25:05Z</time>
      </trkpt>
      <trkpt lat="42.359287" lon="1.742012">
        <ele>985.230</ele>
        <time>2019-06-01T07:25:06Z</time>
      </trkpt>
      <trkpt lat="42.359286" lon="1.742173">
        <ele>984.246</ele>
        <time>2019-06-01T07:25:07Z</time>
      </trkpt>
      <trkpt lat="42.359283" lon="1.742503">
        <ele>982.274</ele>
        <time>2019-06-01T07:25:09Z</time>
      </trkpt>
      <trkpt lat="42.359282" lon="1.742671">
        <ele>980.848</ele>
        <time>2019-06-01T07:25:10Z</time>
      </trkpt>
      <trkpt lat="42.359279" lon="1.742840">
        <ele>979.635</ele>
        <time>2019-06-01T07:25:11Z</time>
      </trkpt>
      <trkpt lat="42.359277" lon="1.743011">
        <ele>978.653</ele>
        <time>2019-06-01T07:25:12Z</time>
      </trkpt>
      <trkpt lat="42.359277" lon="1.743352">
        <ele>976.844</ele>
        <time>2019-06-01T07:25:14Z</time>
      </trkpt>
      <trkpt lat="42.359274" lon="1.743518">
        <ele>976.246</ele>
        <time>2019-06-01T07:25:15Z</time>
      </trkpt>
      <trkpt lat="42.359277" lon="1.743843">
        <ele>975.688</ele>
        <time>2019-06-01T07:25:17Z</time>
      </trkpt>
      <trkpt lat="42.359315" lon="1.744311">
        <ele>974.816</ele>
        <time>2019-06-01T07:25:20Z</time>
      </trkpt>
      <trkpt lat="42.359332" lon="1.744458">
        <ele>974.408</ele>
        <time>2019-06-01T07:25:21Z</time>
      </trkpt>
      <trkpt lat="42.359456" lon="1.745303">
        <ele>973.887</ele>
        <time>2019-06-01T07:25:27Z</time>
      </trkpt>
      <trkpt lat="42.359640" lon="1.745897">
        <ele>974.491</ele>
        <time>2019-06-01T07:25:32Z</time>
      </trkpt>
      <trkpt lat="42.359892" lon="1.746601">
        <ele>975.017</ele>
        <time>2019-06-01T07:25:39Z</time>
      </trkpt>
      <trkpt lat="42.359926" lon="1.746686">
        <ele>975.625</ele>
        <time>2019-06-01T07:25:40Z</time>
      </trkpt>
      <trkpt lat="42.360037" lon="1.747019">
        <ele>976.629</ele>
        <time>2019-06-01T07:25:44Z</time>
      </trkpt>
      <trkpt lat="42.360056" lon="1.747107">
        <ele>976.676</ele>
        <time>2019-06-01T07:25:45Z</time>
      </trkpt>
      <trkpt lat="42.360122" lon="1.747490">
        <ele>975.434</ele>
        <time>2019-06-01T07:25:49Z</time>
      </trkpt>
      <trkpt lat="42.360151" lon="1.747701">
        <ele>974.215</ele>
        <time>2019-06-01T07:25:51Z</time>
      </trkpt>
      <trkpt lat="42.360168" lon="1.747932">
        <ele>972.845</ele>
        <time>2019-06-01T07:25:53Z</time>
      </trkpt>
      <trkpt lat="42.360177" lon="1.748176">
        <ele>971.447</ele>
        <time>2019-06-01T07:25:55Z</time>
      </trkpt>
      <trkpt lat="42.360180" lon="1.748299">
        <ele>971.011</ele>
        <time>2019-06-01T07:25:56Z</time>
      </trkpt>
      <trkpt lat="42.360185" lon="1.748542">
        <ele>970.408</ele>
        <time>2019-06-01T07:25:58Z</time>
      </trkpt>
      <trkpt lat="42.360208" lon="1.749228">
        <ele>969.637</ele>
        <time>2019-06-01T07:26:04Z</time>
      </trkpt>
      <trkpt lat="42.360242" lon="1.749985">
        <ele>969.421</ele>
        <time>2019-06-01T07:26:11Z</time>
      </trkpt>
      <trkpt lat="42.360239" lon="1.750089">
        <ele>969.417</ele>
        <time>2019-06-01T07:26:12Z</time>
      </trkpt>
      <trkpt lat="42.360276" lon="1.750663">
        <ele>970.695</ele>
        <time>2019-06-01T07:26:18Z</time>
      </trkpt>
      <trkpt lat="42.360403" lon="1.751188">
        <ele>970.279</ele>
        <time>2019-06-01T07:26:24Z</time>
      </trkpt>
      <trkpt lat="42.360467" lon="1.751584">
        <ele>969.286</ele>
        <time>2019-06-01T07:26:28Z</time>
      </trkpt>
      <trkpt lat="42.360485" lon="1.751798">
        <ele>968.614</ele>
        <time>2019-06-01T07:26:30Z</time>
      </trkpt>
      <trkpt lat="42.360551" lon="1.752363">
        <ele>969.085</ele>
        <time>2019-06-01T07:26:36Z</time>
      </trkpt>
      <trkpt lat="42.360560" lon="1.752449">
        <ele>968.219</ele>
        <time>2019-06-01T07:26:37Z</time>
      </trkpt>
      <trkpt lat="42.360586" lon="1.752613">
        <ele>969.609</ele>
        <time>2019-06-01T07:26:39Z</time>
      </trkpt>
      <trkpt lat="42.360642" lon="1.752910">
        <ele>970.419</ele>
        <time>2019-06-01T07:26:43Z</time>
      </trkpt>
      <trkpt lat="42.360673" lon="1.753050">
        <ele>970.608</ele>
        <time>2019-06-01T07:26:45Z</time>
      </trkpt>
      <trkpt lat="42.360751" lon="1.753533">
        <ele>971.234</ele>
        <time>2019-06-01T07:26:52Z</time>
      </trkpt>
      <trkpt lat="42.360760" lon="1.753786">
        <ele>971.848</ele>
        <time>2019-06-01T07:26:56Z</time>
      </trkpt>
      <trkpt lat="42.360749" lon="1.753850">
        <ele>972.034</ele>
        <time>2019-06-01T07:26:57Z</time>
      </trkpt>
      <trkpt lat="42.360731" lon="1.753903">
        <ele>972.032</ele>
        <time>2019-06-01T07:26:58Z</time>
      </trkpt>
      <trkpt lat="42.360611" lon="1.753967">
        <ele>972.426</ele>
        <time>2019-06-01T07:27:01Z</time>
      </trkpt>
      <trkpt lat="42.360571" lon="1.753970">
        <ele>972.633</ele>
        <time>2019-06-01T07:27:02Z</time>
      </trkpt>
      <trkpt lat="42.360532" lon="1.753971">
        <ele>973.041</ele>
        <time>2019-06-01T07:27:03Z</time>
      </trkpt>
      <trkpt lat="42.360315" lon="1.753990">
        <ele>974.042</ele>
        <time>2019-06-01T07:27:09Z</time>
      </trkpt>
      <trkpt lat="42.360249" lon="1.753997">
        <ele>974.013</ele>
        <time>2019-06-01T07:27:11Z</time>
      </trkpt>
      <trkpt lat="42.360053" lon="1.754026">
        <ele>975.043</ele>
        <time>2019-06-01T07:27:17Z</time>
      </trkpt>
      <trkpt lat="42.359776" lon="1.754066">
        <ele>976.207</ele>
        <time>2019-06-01T07:27:26Z</time>
      </trkpt>
      <trkpt lat="42.359749" lon="1.754070">
        <ele>976.608</ele>
        <time>2019-06-01T07:27:27Z</time>
      </trkpt>
      <trkpt lat="42.359492" lon="1.754106">
        <ele>977.294</ele>
        <time>2019-06-01T07:27:36Z</time>
      </trkpt>
      <trkpt lat="42.359409" lon="1.754113">
        <ele>977.878</ele>
        <time>2019-06-01T07:27:39Z</time>
      </trkpt>
      <trkpt lat="42.359306" lon="1.754151">
        <ele>978.244</ele>
        <time>2019-06-01T07:27:43Z</time>
      </trkpt>
      <trkpt lat="42.359240" lon="1.754210">
        <ele>979.042</ele>
        <time>2019-06-01T07:27:46Z</time>
      </trkpt>
      <trkpt lat="42.359158" lon="1.754335">
        <ele>979.456</ele>
        <time>2019-06-01T07:27:51Z</time>
      </trkpt>
      <trkpt lat="42.359094" lon="1.754437">
        <ele>979.873</ele>
        <time>2019-06-01T07:27:55Z</time>
      </trkpt>
      <trkpt lat="42.359007" lon="1.754595">
        <ele>980.641</ele>
        <time>2019-06-01T07:28:01Z</time>
      </trkpt>
      <trkpt lat="42.358978" lon="1.754650">
        <ele>981.082</ele>
        <time>2019-06-01T07:28:03Z</time>
      </trkpt>
      <trkpt lat="42.358902" lon="1.754784">
        <ele>981.621</ele>
        <time>2019-06-01T07:28:08Z</time>
      </trkpt>
      <trkpt lat="42.358835" lon="1.754922">
        <ele>982.241</ele>
        <time>2019-06-01T07:28:13Z</time>
      </trkpt>
      <trkpt lat="42.358817" lon="1.754986">
        <ele>982.605</ele>
        <time>2019-06-01T07:28:15Z</time>
      </trkpt>
      <trkpt lat="42.358778" lon="1.755145">
        <ele>983.408</ele>
        <time>2019-06-01T07:28:20Z</time>
      </trkpt>
      <trkpt lat="42.358740" lon="1.755310">
        <ele>983.825</ele>
        <time>2019-06-01T07:28:25Z</time>
      </trkpt>
      <trkpt lat="42.358700" lon="1.755470">
        <ele>984.469</ele>
        <time>2019-06-01T07:28:30Z</time>
      </trkpt>
      <trkpt lat="42.358664" lon="1.755627">
        <ele>984.865</ele>
        <time>2019-06-01T07:28:35Z</time>
      </trkpt>
      <trkpt lat="42.358637" lon="1.755752">
        <ele>985.463</ele>
        <time>2019-06-01T07:28:39Z</time>
      </trkpt>
      <trkpt lat="42.358617" lon="1.755844">
        <ele>985.877</ele>
        <time>2019-06-01T07:28:42Z</time>
      </trkpt>
      <trkpt lat="42.358567" lon="1.756079">
        <ele>986.684</ele>
        <time>2019-06-01T07:28:49Z</time>
      </trkpt>
      <trkpt lat="42.358559" lon="1.756113">
        <ele>986.862</ele>
        <time>2019-06-01T07:28:50Z</time>
      </trkpt>
      <trkpt lat="42.358475" lon="1.756392">
        <ele>988.073</ele>
        <time>2019-06-01T07:28:59Z</time>
      </trkpt>
      <trkpt lat="42.358377" lon="1.756583">
        <ele>989.232</ele>
        <time>2019-06-01T07:29:07Z</time>
      </trkpt>
      <trkpt lat="42.358362" lon="1.756605">
        <ele>989.492</ele>
        <time>2019-06-01T07:29:08Z</time>
      </trkpt>
      <trkpt lat="42.358286" lon="1.756738">
        <ele>990.211</ele>
        <time>2019-06-01T07:29:14Z</time>
      </trkpt>
      <trkpt lat="42.358245" lon="1.756810">
        <ele>990.808</ele>
        <time>2019-06-01T07:29:17Z</time>
      </trkpt>
      <trkpt lat="42.358200" lon="1.756873">
        <ele>991.246</ele>
        <time>2019-06-01T07:29:20Z</time>
      </trkpt>
      <trkpt lat="42.358114" lon="1.756998">
        <ele>992.260</ele>
        <time>2019-06-01T07:29:26Z</time>
      </trkpt>
      <trkpt lat="42.358099" lon="1.757018">
        <ele>992.476</ele>
        <time>2019-06-01T07:29:27Z</time>
      </trkpt>
      <trkpt lat="42.358012" lon="1.757164">
        <ele>993.264</ele>
        <time>2019-06-01T07:29:34Z</time>
      </trkpt>
      <trkpt lat="42.358001" lon="1.757186">
        <ele>993.488</ele>
        <time>2019-06-01T07:29:35Z</time>
      </trkpt>
      <trkpt lat="42.357895" lon="1.757343">
        <ele>994.455</ele>
        <time>2019-06-01T07:29:43Z</time>
      </trkpt>
      <trkpt lat="42.357885" lon="1.757364">
        <ele>994.683</ele>
        <time>2019-06-01T07:29:44Z</time>
      </trkpt>
      <trkpt lat="42.357790" lon="1.757515">
        <ele>996.094</ele>
        <time>2019-06-01T07:29:52Z</time>
      </trkpt>
      <trkpt lat="42.357679" lon="1.757671">
        <ele>997.072</ele>
        <time>2019-06-01T07:30:00Z</time>
      </trkpt>
      <trkpt lat="42.357621" lon="1.757758">
        <ele>997.213</ele>
        <time>2019-06-01T07:30:04Z</time>
      </trkpt>
      <trkpt lat="42.357514" lon="1.757914">
        <ele>998.214</ele>
        <time>2019-06-01T07:30:11Z</time>
      </trkpt>
      <trkpt lat="42.357497" lon="1.757938">
        <ele>998.208</ele>
        <time>2019-06-01T07:30:12Z</time>
      </trkpt>
      <trkpt lat="42.357309" lon="1.758212">
        <ele>999.270</ele>
        <time>2019-06-01T07:30:23Z</time>
      </trkpt>
      <trkpt lat="42.357273" lon="1.758262">
        <ele>999.284</ele>
        <time>2019-06-01T07:30:25Z</time>
      </trkpt>
      <trkpt lat="42.357170" lon="1.758399">
        <ele>999.630</ele>
        <time>2019-06-01T07:30:31Z</time>
      </trkpt>
      <trkpt lat="42.356985" lon="1.758620">
        <ele>1000.488</ele>
        <time>2019-06-01T07:30:40Z</time>
      </trkpt>
      <trkpt lat="42.356808" lon="1.758852">
        <ele>1000.412</ele>
        <time>2019-06-01T07:30:48Z</time>
      </trkpt>
      <trkpt lat="42.356679" lon="1.758994">
        <ele>1001.069</ele>
        <time>2019-06-01T07:30:54Z</time>
      </trkpt>
      <trkpt lat="42.356475" lon="1.759274">
        <ele>1001.087</ele>
        <time>2019-06-01T07:31:02Z</time>
      </trkpt>
      <trkpt lat="42.356402" lon="1.759381">
        <ele>1001.468</ele>
        <time>2019-06-01T07:31:05Z</time>
      </trkpt>
      <trkpt lat="42.356246" lon="1.759572">
        <ele>1001.613</ele>
        <time>2019-06-01T07:31:11Z</time>
      </trkpt>
      <trkpt lat="42.356028" lon="1.759827">
        <ele>1002.043</ele>
        <time>2019-06-01T07:31:19Z</time>
      </trkpt>
      <trkpt lat="42.355919" lon="1.759951">
        <ele>1002.607</ele>
        <time>2019-06-01T07:31:23Z</time>
      </trkpt>
      <trkpt lat="42.355780" lon="1.760090">
        <ele>1003.408</ele>
        <time>2019-06-01T07:31:29Z</time>
      </trkpt>
      <trkpt lat="42.355736" lon="1.760144">
        <ele>1003.684</ele>
        <time>2019-06-01T07:31:31Z</time>
      </trkpt>
      <trkpt lat="42.355614" lon="1.760274">
        <ele>1004.258</ele>
        <time>2019-06-01T07:31:36Z</time>
      </trkpt>
      <trkpt lat="42.355497" lon="1.760394">
        <ele>1004.884</ele>
        <time>2019-06-01T07:31:41Z</time>
      </trkpt>
      <trkpt lat="42.355452" lon="1.760458">
        <ele>1005.042</ele>
        <time>2019-06-01T07:31:43Z</time>
      </trkpt>
      <trkpt lat="42.355267" lon="1.760647">
        <ele>1005.856</ele>
        <time>2019-06-01T07:31:50Z</time>
      </trkpt>
      <trkpt lat="42.355239" lon="1.760675">
        <ele>1005.843</ele>
        <time>2019-06-01T07:31:51Z</time>
      </trkpt>
      <trkpt lat="42.355087" lon="1.760819">
        <ele>1006.821</ele>
        <time>2019-06-01T07:31:57Z</time>
      </trkpt>
      <trkpt lat="42.355063" lon="1.760844">
        <ele>1007.022</ele>
        <time>2019-06-01T07:31:58Z</time>
      </trkpt>
      <trkpt lat="42.354863" lon="1.761040">
        <ele>1007.472</ele>
        <time>2019-06-01T07:32:07Z</time>
      </trkpt>
      <trkpt lat="42.354688" lon="1.761201">
        <ele>1008.013</ele>
        <time>2019-06-01T07:32:14Z</time>
      </trkpt>
      <trkpt lat="42.354451" lon="1.761430">
        <ele>1008.814</ele>
        <time>2019-06-01T07:32:24Z</time>
      </trkpt>
      <trkpt lat="42.354370" lon="1.761488">
        <ele>1009.008</ele>
        <time>2019-06-01T07:32:27Z</time>
      </trkpt>
      <trkpt lat="42.354262" lon="1.761554">
        <ele>1009.410</ele>
        <time>2019-06-01T07:32:31Z</time>
      </trkpt>
      <trkpt lat="42.354125" lon="1.761605">
        <ele>1010.054</ele>
        <time>2019-06-01T07:32:36Z</time>
      </trkpt>
      <trkpt lat="42.354079" lon="1.761632">
        <ele>1010.240</ele>
        <time>2019-06-01T07:32:38Z</time>
      </trkpt>
      <trkpt lat="42.353954" lon="1.761700">
        <ele>1011.288</ele>
        <time>2019-06-01T07:32:43Z</time>
      </trkpt>
      <trkpt lat="42.353797" lon="1.761728">
        <ele>1011.622</ele>
        <time>2019-06-01T07:32:49Z</time>
      </trkpt>
      <trkpt lat="42.353695" lon="1.761737">
        <ele>1012.459</ele>
        <time>2019-06-01T07:32:53Z</time>
      </trkpt>
      <trkpt lat="42.353594" lon="1.761748">
        <ele>1013.217</ele>
        <time>2019-06-01T07:32:57Z</time>
      </trkpt>
      <trkpt lat="42.353545" lon="1.761753">
        <ele>1013.428</ele>
        <time>2019-06-01T07:32:59Z</time>
      </trkpt>
      <trkpt lat="42.353397" lon="1.761802">
        <ele>1014.467</ele>
        <time>2019-06-01T07:33:05Z</time>
      </trkpt>
      <trkpt lat="42.353373" lon="1.761807">
        <ele>1014.681</ele>
        <time>2019-06-01T07:33:06Z</time>
      </trkpt>
      <trkpt lat="42.353317" lon="1.761848">
        <ele>1015.019</ele>
        <time>2019-06-01T07:33:09Z</time>
      </trkpt>
      <trkpt lat="42.353305" lon="1.761879">
        <ele>1015.008</ele>
        <time>2019-06-01T07:33:10Z</time>
      </trkpt>
      <trkpt lat="42.353270" lon="1.761976">
        <ele>1015.239</ele>
        <time>2019-06-01T07:33:13Z</time>
      </trkpt>
      <trkpt lat="42.353217" lon="1.762038">
        <ele>1015.423</ele>
        <time>2019-06-01T07:33:16Z</time>
      </trkpt>
      <trkpt lat="42.353146" lon="1.762074">
        <ele>1015.819</ele>
        <time>2019-06-01T07:33:19Z</time>
      </trkpt>
      <trkpt lat="42.353047" lon="1.762084">
        <ele>1015.677</ele>
        <time>2019-06-01T07:33:23Z</time>
      </trkpt>
      <trkpt lat="42.352898" lon="1.762138">
        <ele>1017.091</ele>
        <time>2019-06-01T07:33:29Z</time>
      </trkpt>
      <trkpt lat="42.352850" lon="1.762152">
        <ele>1017.268</ele>
        <time>2019-06-01T07:33:31Z</time>
      </trkpt>
      <trkpt lat="42.352722" lon="1.762247">
        <ele>1017.876</ele>
        <time>2019-06-01T07:33:37Z</time>
      </trkpt>
      <trkpt lat="42.352719" lon="1.762269">
        <ele>1018.027</ele>
        <time>2019-06-01T07:33:38Z</time>
      </trkpt>
      <trkpt lat="42.352709" lon="1.762482">
        <ele>1017.692</ele>
        <time>2019-06-01T07:33:43Z</time>
      </trkpt>
      <trkpt lat="42.352703" lon="1.762590">
        <ele>1017.073</ele>
        <time>2019-06-01T07:33:45Z</time>
      </trkpt>
      <trkpt lat="42.352687" lon="1.762851">
        <ele>1017.020</ele>
        <time>2019-06-01T07:33:50Z</time>
      </trkpt>
      <trkpt lat="42.352713" lon="1.763179">
        <ele>1017.408</ele>
        <time>2019-06-01T07:33:57Z</time>
      </trkpt>
      <trkpt lat="42.352838" lon="1.763301">
        <ele>1017.892</ele>
        <time>2019-06-01T07:34:03Z</time>
      </trkpt>
      <trkpt lat="42.352879" lon="1.763323">
        <ele>1018.076</ele>
        <time>2019-06-01T07:34:05Z</time>
      </trkpt>
      <trkpt lat="42.353017" lon="1.763392">
        <ele>1019.292</ele>
        <time>2019-06-01T07:34:11Z</time>
      </trkpt>
      <trkpt lat="42.353137" lon="1.763477">
        <ele>1020.260</ele>
        <time>2019-06-01T07:34:18Z</time>
      </trkpt>
      <trkpt lat="42.353214" lon="1.763552">
        <ele>1021.264</ele>
        <time>2019-06-01T07:34:23Z</time>
      </trkpt>
      <trkpt lat="42.353252" lon="1.763599">
        <ele>1021.451</ele>
        <time>2019-06-01T07:34:26Z</time>
      </trkpt>
      <trkpt lat="42.353322" lon="1.763672">
        <ele>1022.239</ele>
        <time>2019-06-01T07:34:31Z</time>
      </trkpt>
      <trkpt lat="42.353344" lon="1.763704">
        <ele>1022.650</ele>
        <time>2019-06-01T07:34:33Z</time>
      </trkpt>
      <trkpt lat="42.353392" lon="1.763755">
        <ele>1023.423</ele>
        <time>2019-06-01T07:34:37Z</time>
      </trkpt>
      <trkpt lat="42.353467" lon="1.763839">
        <ele>1024.483</ele>
        <time>2019-06-01T07:34:43Z</time>
      </trkpt>
      <trkpt lat="42.353494" lon="1.763858">
        <ele>1024.611</ele>
        <time>2019-06-01T07:34:45Z</time>
      </trkpt>
      <trkpt lat="42.353581" lon="1.763877">
        <ele>1025.408</ele>
        <time>2019-06-01T07:34:49Z</time>
      </trkpt>
      <trkpt lat="42.353639" lon="1.763920">
        <ele>1026.045</ele>
        <time>2019-06-01T07:34:53Z</time>
      </trkpt>
      <trkpt lat="42.353675" lon="1.763972">
        <ele>1026.669</ele>
        <time>2019-06-01T07:34:57Z</time>
      </trkpt>
      <trkpt lat="42.353706" lon="1.764037">
        <ele>1027.495</ele>
        <time>2019-06-01T07:35:01Z</time>
      </trkpt>
      <trkpt lat="42.353728" lon="1.764065">
        <ele>1027.643</ele>
        <time>2019-06-01T07:35:03Z</time>
      </trkpt>
      <trkpt lat="42.353765" lon="1.764129">
        <ele>1028.687</ele>
        <time>2019-06-01T07:35:07Z</time>
      </trkpt>
      <trkpt lat="42.353788" lon="1.764164">
        <ele>1028.854</ele>
        <time>2019-06-01T07:35:09Z</time>
      </trkpt>
      <trkpt lat="42.353846" lon="1.764271">
        <ele>1029.692</ele>
        <time>2019-06-01T07:35:15Z</time>
      </trkpt>
      <trkpt lat="42.353874" lon="1.764305">
        <ele>1029.873</ele>
        <time>2019-06-01T07:35:17Z</time>
      </trkpt>
      <trkpt lat="42.354029" lon="1.764461">
        <ele>1030.461</ele>
        <time>2019-06-01T07:35:27Z</time>
      </trkpt>
      <trkpt lat="42.354143" lon="1.764565">
        <ele>1030.621</ele>
        <time>2019-06-01T07:35:33Z</time>
      </trkpt>
      <trkpt lat="42.354158" lon="1.764592">
        <ele>1030.613</ele>
        <time>2019-06-01T07:35:34Z</time>
      </trkpt>
      <trkpt lat="42.354179" lon="1.764732">
        <ele>1031.208</ele>
        <time>2019-06-01T07:35:39Z</time>
      </trkpt>
      <trkpt lat="42.354178" lon="1.764757">
        <ele>1031.299</ele>
        <time>2019-06-01T07:35:40Z</time>
      </trkpt>
      <trkpt lat="42.354175" lon="1.764853">
        <ele>1031.883</ele>
        <time>2019-06-01T07:35:44Z</time>
      </trkpt>
      <trkpt lat="42.354159" lon="1.764926">
        <ele>1032.099</ele>
        <time>2019-06-01T07:35:47Z</time>
      </trkpt>
      <trkpt lat="42.354102" lon="1.765089">
        <ele>1033.097</ele>
        <time>2019-06-01T07:35:54Z</time>
      </trkpt>
      <trkpt lat="42.354025" lon="1.765293">
        <ele>1034.091</ele>
        <time>2019-06-01T07:36:03Z</time>
      </trkpt>
      <trkpt lat="42.353964" lon="1.765453">
        <ele>1035.028</ele>
        <time>2019-06-01T07:36:11Z</time>
      </trkpt>
      <trkpt lat="42.353957" lon="1.765473">
        <ele>1035.266</ele>
        <time>2019-06-01T07:36:12Z</time>
      </trkpt>
      <trkpt lat="42.353917" lon="1.765620">
        <ele>1036.267</ele>
        <time>2019-06-01T07:36:19Z</time>
      </trkpt>
      <trkpt lat="42.353910" lon="1.765639">
        <ele>1036.236</ele>
        <time>2019-06-01T07:36:20Z</time>
      </trkpt>
      <trkpt lat="42.353874" lon="1.765788">
        <ele>1037.217</ele>
        <time>2019-06-01T07:36:27Z</time>
      </trkpt>
      <trkpt lat="42.353869" lon="1.765809">
        <ele>1037.218</ele>
        <time>2019-06-01T07:36:28Z</time>
      </trkpt>
      <trkpt lat="42.353839" lon="1.765933">
        <ele>1038.208</ele>
        <time>2019-06-01T07:36:34Z</time>
      </trkpt>
      <trkpt lat="42.353829" lon="1.765992">
        <ele>1038.676</ele>
        <time>2019-06-01T07:36:37Z</time>
      </trkpt>
      <trkpt lat="42.353815" lon="1.766054">
        <ele>1039.430</ele>
        <time>2019-06-01T07:36:40Z</time>
      </trkpt>
      <trkpt lat="42.353798" lon="1.766166">
        <ele>1040.466</ele>
        <time>2019-06-01T07:36:45Z</time>
      </trkpt>
      <trkpt lat="42.353796" lon="1.766189">
        <ele>1040.424</ele>
        <time>2019-06-01T07:36:46Z</time>
      </trkpt>
      <trkpt lat="42.353784" lon="1.766343">
        <ele>1041.688</ele>
        <time>2019-06-01T07:36:53Z</time>
      </trkpt>
      <trkpt lat="42.353788" lon="1.766384">
        <ele>1041.835</ele>
        <time>2019-06-01T07:36:55Z</time>
      </trkpt>
      <trkpt lat="42.353793" lon="1.766533">
        <ele>1042.873</ele>
        <time>2019-06-01T07:37:02Z</time>
      </trkpt>
      <trkpt lat="42.353796" lon="1.766683">
        <ele>1043.814</ele>
        <time>2019-06-01T07:37:09Z</time>
      </trkpt>
      <trkpt lat="42.353797" lon="1.766728">
        <ele>1044.245</ele>
        <time>2019-06-01T07:37:11Z</time>
      </trkpt>
      <trkpt lat="42.353791" lon="1.766861">
        <ele>1044.847</ele>
        <time>2019-06-01T07:37:17Z</time>
      </trkpt>
      <trkpt lat="42.353785" lon="1.766912">
        <ele>1045.011</ele>
        <time>2019-06-01T07:37:19Z</time>
      </trkpt>
      <trkpt lat="42.353739" lon="1.767113">
        <ele>1045.608</ele>
        <time>2019-06-01T07:37:27Z</time>
      </trkpt>
      <trkpt lat="42.353713" lon="1.767289">
        <ele>1045.467</ele>
        <time>2019-06-01T07:37:33Z</time>
      </trkpt>
      <trkpt lat="42.353729" lon="1.767531">
        <ele>1045.671</ele>
        <time>2019-06-01T07:37:41Z</time>
      </trkpt>
      <trkpt lat="42.353732" lon="1.767592">
        <ele>1046.067</ele>
        <time>2019-06-01T07:37:43Z</time>
      </trkpt>
      <trkpt lat="42.353746" lon="1.767789">
        <ele>1045.875</ele>
        <time>2019-06-01T07:37:48Z</time>
      </trkpt>
      <trkpt lat="42.353768" lon="1.768009">
        <ele>1044.619</ele>
        <time>2019-06-01T07:37:52Z</time>
      </trkpt>
      <trkpt lat="42.353788" lon="1.768176">
        <ele>1044.486</ele>
        <time>2019-06-01T07:37:55Z</time>
      </trkpt>
      <trkpt lat="42.353836" lon="1.768494">
        <ele>1044.444</ele>
        <time>2019-06-01T07:38:01Z</time>
      </trkpt>
      <trkpt lat="42.353843" lon="1.768549">
        <ele>1044.625</ele>
        <time>2019-06-01T07:38:02Z</time>
      </trkpt>
      <trkpt lat="42.353861" lon="1.768793">
        <ele>1046.067</ele>
        <time>2019-06-01T07:38:08Z</time>
      </trkpt>
      <trkpt lat="42.353883" lon="1.768922">
        <ele>1047.081</ele>
        <time>2019-06-01T07:38:13Z</time>
      </trkpt>
      <trkpt lat="42.353900" lon="1.769026">
        <ele>1047.619</ele>
        <time>2019-06-01T07:38:17Z</time>
      </trkpt>
      <trkpt lat="42.353919" lon="1.769218">
        <ele>1048.008</ele>
        <time>2019-06-01T07:38:24Z</time>
      </trkpt>
      <trkpt lat="42.353923" lon="1.769285">
        <ele>1048.479</ele>
        <time>2019-06-01T07:38:26Z</time>
      </trkpt>
      <trkpt lat="42.353949" lon="1.769535">
        <ele>1048.613</ele>
        <time>2019-06-01T07:38:33Z</time>
      </trkpt>
      <trkpt lat="42.353943" lon="1.769811">
        <ele>1048.249</ele>
        <time>2019-06-01T07:38:40Z</time>
      </trkpt>
      <trkpt lat="42.353959" lon="1.769966">
        <ele>1047.427</ele>
        <time>2019-06-01T07:38:43Z</time>
      </trkpt>
      <trkpt lat="42.353975" lon="1.770024">
        <ele>1047.031</ele>
        <time>2019-06-01T07:38:44Z</time>
      </trkpt>
      <trkpt lat="42.354036" lon="1.770204">
        <ele>1045.868</ele>
        <time>2019-06-01T07:38:47Z</time>
      </trkpt>
      <trkpt lat="42.354083" lon="1.770338">
        <ele>1044.656</ele>
        <time>2019-06-01T07:38:49Z</time>
      </trkpt>
      <trkpt lat="42.354105" lon="1.770410">
        <ele>1044.067</ele>
        <time>2019-06-01T07:38:50Z</time>
      </trkpt>
      <trkpt lat="42.354131" lon="1.770484">
        <ele>1043.275</ele>
        <time>2019-06-01T07:38:51Z</time>
      </trkpt>
      <trkpt lat="42.354161" lon="1.770562">
        <ele>1042.028</ele>
        <time>2019-06-01T07:38:52Z</time>
      </trkpt>
      <trkpt lat="42.354227" lon="1.770705">
        <ele>1040.420</ele>
        <time>2019-06-01T07:38:54Z</time>
      </trkpt>
      <trkpt lat="42.354260" lon="1.770774">
        <ele>1039.808</ele>
        <time>2019-06-01T07:38:55Z</time>
      </trkpt>
      <trkpt lat="42.354289" lon="1.770846">
        <ele>1039.080</ele>
        <time>2019-06-01T07:38:56Z</time>
      </trkpt>
      <trkpt lat="42.354326" lon="1.771004">
        <ele>1037.624</ele>
        <time>2019-06-01T07:38:58Z</time>
      </trkpt>
      <trkpt lat="42.354329" lon="1.771086">
        <ele>1037.220</ele>
        <time>2019-06-01T07:38:59Z</time>
      </trkpt>
      <trkpt lat="42.354301" lon="1.771259">
        <ele>1036.218</ele>
        <time>2019-06-01T07:39:01Z</time>
      </trkpt>
      <trkpt lat="42.354277" lon="1.771356">
        <ele>1035.222</ele>
        <time>2019-06-01T07:39:02Z</time>
      </trkpt>
      <trkpt lat="42.354248" lon="1.771451">
        <ele>1033.899</ele>
        <time>2019-06-01T07:39:03Z</time>
      </trkpt>
      <trkpt lat="42.354224" lon="1.771543">
        <ele>1031.217</ele>
        <time>2019-06-01T07:39:04Z</time>
      </trkpt>
      <trkpt lat="42.354201" lon="1.771716">
        <ele>1029.818</ele>
        <time>2019-06-01T07:39:06Z</time>
      </trkpt>
      <trkpt lat="42.354248" lon="1.771904">
        <ele>1027.871</ele>
        <time>2019-06-01T07:39:08Z</time>
      </trkpt>
      <trkpt lat="42.354297" lon="1.772009">
        <ele>1026.241</ele>
        <time>2019-06-01T07:39:09Z</time>
      </trkpt>
      <trkpt lat="42.354353" lon="1.772124">
        <ele>1024.215</ele>
        <time>2019-06-01T07:39:10Z</time>
      </trkpt>
      <trkpt lat="42.354410" lon="1.772251">
        <ele>1021.808</ele>
        <time>2019-06-01T07:39:11Z</time>
      </trkpt>
      <trkpt lat="42.354464" lon="1.772391">
        <ele>1019.610</ele>
        <time>2019-06-01T07:39:12Z</time>
      </trkpt>
      <trkpt lat="42.354518" lon="1.772533">
        <ele>1018.014</ele>
        <time>2019-06-01T07:39:13Z</time>
      </trkpt>
      <trkpt lat="42.354571" lon="1.772669">
        <ele>1017.060</ele>
        <time>2019-06-01T07:39:14Z</time>
      </trkpt>
      <trkpt lat="42.354723" lon="1.773033">
        <ele>1017.278</ele>
        <time>2019-06-01T07:39:17Z</time>
      </trkpt>
      <trkpt lat="42.354777" lon="1.773129">
        <ele>1017.892</ele>
        <time>2019-06-01T07:39:18Z</time>
      </trkpt>
      <trkpt lat="42.354835" lon="1.773208">
        <ele>1018.819</ele>
        <time>2019-06-01T07:39:19Z</time>
      </trkpt>
      <trkpt lat="42.354892" lon="1.773275">
        <ele>1019.417</ele>
        <time>2019-06-01T07:39:20Z</time>
      </trkpt>
      <trkpt lat="42.354945" lon="1.773330">
        <ele>1020.278</ele>
        <time>2019-06-01T07:39:21Z</time>
      </trkpt>
      <trkpt lat="42.354999" lon="1.773378">
        <ele>1020.825</ele>
        <time>2019-06-01T07:39:22Z</time>
      </trkpt>
      <trkpt lat="42.355052" lon="1.773423">
        <ele>1021.226</ele>
        <time>2019-06-01T07:39:23Z</time>
      </trkpt>
      <trkpt lat="42.355104" lon="1.773464">
        <ele>1021.208</ele>
        <time>2019-06-01T07:39:24Z</time>
      </trkpt>
      <trkpt lat="42.355177" lon="1.773543">
        <ele>1020.808</ele>
        <time>2019-06-01T07:39:26Z</time>
      </trkpt>
      <trkpt lat="42.355210" lon="1.773630">
        <ele>1020.265</ele>
        <time>2019-06-01T07:39:28Z</time>
      </trkpt>
      <trkpt lat="42.355207" lon="1.773670">
        <ele>1019.669</ele>
        <time>2019-06-01T07:39:29Z</time>
      </trkpt>
      <trkpt lat="42.355198" lon="1.773705">
        <ele>1019.415</ele>
        <time>2019-06-01T07:39:31Z</time>
      </trkpt>
      <trkpt lat="42.355148" lon="1.773686">
        <ele>1020.613</ele>
        <time>2019-06-01T07:39:35Z</time>
      </trkpt>
      <trkpt lat="42.355130" lon="1.773685">
        <ele>1020.667</ele>
        <time>2019-06-01T07:39:36Z</time>
      </trkpt>
      <trkpt lat="42.355058" lon="1.773649">
        <ele>1021.624</ele>
        <time>2019-06-01T07:39:41Z</time>
      </trkpt>
      <trkpt lat="42.355025" lon="1.773637">
        <ele>1022.062</ele>
        <time>2019-06-01T07:39:43Z</time>
      </trkpt>
      <trkpt lat="42.354958" lon="1.773619">
        <ele>1022.823</ele>
        <time>2019-06-01T07:39:47Z</time>
      </trkpt>
      <trkpt lat="42.354908" lon="1.773609">
        <ele>1023.476</ele>
        <time>2019-06-01T07:39:50Z</time>
      </trkpt>
      <trkpt lat="42.354872" lon="1.773604">
        <ele>1023.890</ele>
        <time>2019-06-01T07:39:52Z</time>
      </trkpt>
      <trkpt lat="42.354740" lon="1.773585">
        <ele>1024.819</ele>
        <time>2019-06-01T07:39:59Z</time>
      </trkpt>
      <trkpt lat="42.354698" lon="1.773580">
        <ele>1025.208</ele>
        <time>2019-06-01T07:40:01Z</time>
      </trkpt>
      <trkpt lat="42.354485" lon="1.773589">
        <ele>1025.620</ele>
        <time>2019-06-01T07:40:10Z</time>
      </trkpt>
      <trkpt lat="42.354437" lon="1.773591">
        <ele>1026.084</ele>
        <time>2019-06-01T07:40:12Z</time>
      </trkpt>
      <trkpt lat="42.354237" lon="1.773615">
        <ele>1026.210</ele>
        <time>2019-06-01T07:40:19Z</time>
      </trkpt>
      <trkpt lat="42.353946" lon="1.773632">
        <ele>1025.478</ele>
        <time>2019-06-01T07:40:27Z</time>
      </trkpt>
      <trkpt lat="42.353826" lon="1.773649">
        <ele>1025.452</ele>
        <time>2019-06-01T07:40:30Z</time>
      </trkpt>
      <trkpt lat="42.353734" lon="1.773695">
        <ele>1024.429</ele>
        <time>2019-06-01T07:40:32Z</time>
      </trkpt>
      <trkpt lat="42.353685" lon="1.773744">
        <ele>1023.417</ele>
        <time>2019-06-01T07:40:33Z</time>
      </trkpt>
      <trkpt lat="42.353635" lon="1.773810">
        <ele>1022.298</ele>
        <time>2019-06-01T07:40:34Z</time>
      </trkpt>
      <trkpt lat="42.353590" lon="1.773882">
        <ele>1021.242</ele>
        <time>2019-06-01T07:40:35Z</time>
      </trkpt>
      <trkpt lat="42.353547" lon="1.773956">
        <ele>1020.822</ele>
        <time>2019-06-01T07:40:36Z</time>
      </trkpt>
      <trkpt lat="42.353472" lon="1.774113">
        <ele>1020.214</ele>
        <time>2019-06-01T07:40:38Z</time>
      </trkpt>
      <trkpt lat="42.353434" lon="1.774259">
        <ele>1019.808</ele>
        <time>2019-06-01T07:40:40Z</time>
      </trkpt>
      <trkpt lat="42.353417" lon="1.774446">
        <ele>1019.847</ele>
        <time>2019-06-01T07:40:44Z</time>
      </trkpt>
      <trkpt lat="42.353406" lon="1.774515">
        <ele>1020.021</ele>
        <time>2019-06-01T07:40:47Z</time>
      </trkpt>
      <trkpt lat="42.353412" lon="1.774536">
        <ele>1019.857</ele>
        <time>2019-06-01T07:40:48Z</time>
      </trkpt>
      <trkpt lat="42.353481" lon="1.774575">
        <ele>1020.085</ele>
        <time>2019-06-01T07:40:53Z</time>
      </trkpt>
      <trkpt lat="42.353498" lon="1.774580">
        <ele>1020.099</ele>
        <time>2019-06-01T07:40:54Z</time>
      </trkpt>
      <trkpt lat="42.353612" lon="1.774569">
        <ele>1020.236</ele>
        <time>2019-06-01T07:40:59Z</time>
      </trkpt>
      <trkpt lat="42.353754" lon="1.774568">
        <ele>1019.634</ele>
        <time>2019-06-01T07:41:05Z</time>
      </trkpt>
      <trkpt lat="42.353976" lon="1.774666">
        <ele>1019.235</ele>
        <time>2019-06-01T07:41:12Z</time>
      </trkpt>
      <trkpt lat="42.354174" lon="1.774778">
        <ele>1019.225</ele>
        <time>2019-06-01T07:41:18Z</time>
      </trkpt>
      <trkpt lat="42.354374" lon="1.774900">
        <ele>1018.826</ele>
        <time>2019-06-01T07:41:24Z</time>
      </trkpt>
      <trkpt lat="42.354522" lon="1.775009">
        <ele>1017.808</ele>
        <time>2019-06-01T07:41:27Z</time>
      </trkpt>
      <trkpt lat="42.354560" lon="1.775075">
        <ele>1017.408</ele>
        <time>2019-06-01T07:41:28Z</time>
      </trkpt>
      <trkpt lat="42.354586" lon="1.775151">
        <ele>1016.455</ele>
        <time>2019-06-01T07:41:29Z</time>
      </trkpt>
      <trkpt lat="42.354633" lon="1.775294">
        <ele>1016.079</ele>
        <time>2019-06-01T07:41:31Z</time>
      </trkpt>
      <trkpt lat="42.354660" lon="1.775348">
        <ele>1016.245</ele>
        <time>2019-06-01T07:41:32Z</time>
      </trkpt>
      <trkpt lat="42.354765" lon="1.775417">
        <ele>1016.063</ele>
        <time>2019-06-01T07:41:35Z</time>
      </trkpt>
      <trkpt lat="42.354837" lon="1.775446">
        <ele>1018.037</ele>
        <time>2019-06-01T07:41:37Z</time>
      </trkpt>
      <trkpt lat="42.355015" lon="1.775484">
        <ele>1017.894</ele>
        <time>2019-06-01T07:41:41Z</time>
      </trkpt>
      <trkpt lat="42.355185" lon="1.775501">
        <ele>1016.622</ele>
        <time>2019-06-01T07:41:44Z</time>
      </trkpt>
      <trkpt lat="42.355366" lon="1.775536">
        <ele>1015.493</ele>
        <time>2019-06-01T07:41:47Z</time>
      </trkpt>
      <trkpt lat="42.355428" lon="1.775545">
        <ele>1015.222</ele>
        <time>2019-06-01T07:41:48Z</time>
      </trkpt>
      <trkpt lat="42.355557" lon="1.775564">
        <ele>1014.462</ele>
        <time>2019-06-01T07:41:50Z</time>
      </trkpt>
      <trkpt lat="42.355622" lon="1.775581">
        <ele>1013.808</ele>
        <time>2019-06-01T07:41:51Z</time>
      </trkpt>
      <trkpt lat="42.355744" lon="1.775636">
        <ele>1012.008</ele>
        <time>2019-06-01T07:41:53Z</time>
      </trkpt>
      <trkpt lat="42.355911" lon="1.775701">
        <ele>1010.825</ele>
        <time>2019-06-01T07:41:56Z</time>
      </trkpt>
      <trkpt lat="42.356120" lon="1.775713">
        <ele>1010.489</ele>
        <time>2019-06-01T07:42:00Z</time>
      </trkpt>
      <trkpt lat="42.356201" lon="1.775854">
        <ele>1010.845</ele>
        <time>2019-06-01T07:42:03Z</time>
      </trkpt>
      <trkpt lat="42.356214" lon="1.775906">
        <ele>1011.213</ele>
        <time>2019-06-01T07:42:04Z</time>
      </trkpt>
      <trkpt lat="42.356220" lon="1.776002">
        <ele>1011.867</ele>
        <time>2019-06-01T07:42:06Z</time>
      </trkpt>
      <trkpt lat="42.356224" lon="1.776048">
        <ele>1012.274</ele>
        <time>2019-06-01T07:42:07Z</time>
      </trkpt>
      <trkpt lat="42.356228" lon="1.776090">
        <ele>1012.812</ele>
        <time>2019-06-01T07:42:08Z</time>
      </trkpt>
      <trkpt lat="42.356264" lon="1.776335">
        <ele>1013.893</ele>
        <time>2019-06-01T07:42:14Z</time>
      </trkpt>
      <trkpt lat="42.356303" lon="1.776686">
        <ele>1014.092</ele>
        <time>2019-06-01T07:42:23Z</time>
      </trkpt>
      <trkpt lat="42.356307" lon="1.776725">
        <ele>1014.873</ele>
        <time>2019-06-01T07:42:24Z</time>
      </trkpt>
      <trkpt lat="42.356328" lon="1.776848">
        <ele>1015.420</ele>
        <time>2019-06-01T07:42:28Z</time>
      </trkpt>
      <trkpt lat="42.356345" lon="1.777008">
        <ele>1015.808</ele>
        <time>2019-06-01T07:42:33Z</time>
      </trkpt>
      <trkpt lat="42.356392" lon="1.777214">
        <ele>1015.462</ele>
        <time>2019-06-01T07:42:39Z</time>
      </trkpt>
      <trkpt lat="42.356438" lon="1.777351">
        <ele>1014.636</ele>
        <time>2019-06-01T07:42:42Z</time>
      </trkpt>
      <trkpt lat="42.356438" lon="1.777465">
        <ele>1014.242</ele>
        <time>2019-06-01T07:42:44Z</time>
      </trkpt>
      <trkpt lat="42.356425" lon="1.777607">
        <ele>1014.450</ele>
        <time>2019-06-01T07:42:47Z</time>
      </trkpt>
      <trkpt lat="42.356415" lon="1.777684">
        <ele>1014.864</ele>
        <time>2019-06-01T07:42:49Z</time>
      </trkpt>
      <trkpt lat="42.356395" lon="1.777843">
        <ele>1015.841</ele>
        <time>2019-06-01T07:42:54Z</time>
      </trkpt>
      <trkpt lat="42.356385" lon="1.777900">
        <ele>1016.299</ele>
        <time>2019-06-01T07:42:56Z</time>
      </trkpt>
      <trkpt lat="42.356389" lon="1.778091">
        <ele>1017.010</ele>
        <time>2019-06-01T07:43:02Z</time>
      </trkpt>
      <trkpt lat="42.356403" lon="1.778152">
        <ele>1017.268</ele>
        <time>2019-06-01T07:43:04Z</time>
      </trkpt>
      <trkpt lat="42.356441" lon="1.778413">
        <ele>1017.442</ele>
        <time>2019-06-01T07:43:12Z</time>
      </trkpt>
      <trkpt lat="42.356444" lon="1.778702">
        <ele>1016.626</ele>
        <time>2019-06-01T07:43:18Z</time>
      </trkpt>
      <trkpt lat="42.356442" lon="1.778829">
        <ele>1015.808</ele>
        <time>2019-06-01T07:43:20Z</time>
      </trkpt>
      <trkpt lat="42.356441" lon="1.779116">
        <ele>1015.059</ele>
        <time>2019-06-01T07:43:24Z</time>
      </trkpt>
      <trkpt lat="42.356433" lon="1.779185">
        <ele>1014.623</ele>
        <time>2019-06-01T07:43:25Z</time>
      </trkpt>
      <trkpt lat="42.356403" lon="1.779347">
        <ele>1014.629</ele>
        <time>2019-06-01T07:43:28Z</time>
      </trkpt>
      <trkpt lat="42.356401" lon="1.779461">
        <ele>1015.617</ele>
        <time>2019-06-01T07:43:31Z</time>
      </trkpt>
      <trkpt lat="42.356402" lon="1.779494">
        <ele>1015.811</ele>
        <time>2019-06-01T07:43:32Z</time>
      </trkpt>
      <trkpt lat="42.356409" lon="1.779586">
        <ele>1016.658</ele>
        <time>2019-06-01T07:43:35Z</time>
      </trkpt>
      <trkpt lat="42.356418" lon="1.779676">
        <ele>1017.486</ele>
        <time>2019-06-01T07:43:39Z</time>
      </trkpt>
      <trkpt lat="42.356424" lon="1.779731">
        <ele>1017.817</ele>
        <time>2019-06-01T07:43:41Z</time>
      </trkpt>
      <trkpt lat="42.356439" lon="1.779950">
        <ele>1018.667</ele>
        <time>2019-06-01T07:43:49Z</time>
      </trkpt>
      <trkpt lat="42.356442" lon="1.780029">
        <ele>1018.881</ele>
        <time>2019-06-01T07:43:52Z</time>
      </trkpt>
      <trkpt lat="42.356449" lon="1.780193">
        <ele>1019.419</ele>
        <time>2019-06-01T07:43:58Z</time>
      </trkpt>
      <trkpt lat="42.356438" lon="1.780311">
        <ele>1020.008</ele>
        <time>2019-06-01T07:44:02Z</time>
      </trkpt>
      <trkpt lat="42.356429" lon="1.780330">
        <ele>1020.239</ele>
        <time>2019-06-01T07:44:03Z</time>
      </trkpt>
      <trkpt lat="42.356418" lon="1.780341">
        <ele>1020.413</ele>
        <time>2019-06-01T07:44:04Z</time>
      </trkpt>
      <trkpt lat="42.356381" lon="1.780333">
        <ele>1020.899</ele>
        <time>2019-06-01T07:44:07Z</time>
      </trkpt>
      <trkpt lat="42.356350" lon="1.780311">
        <ele>1020.897</ele>
        <time>2019-06-01T07:44:09Z</time>
      </trkpt>
      <trkpt lat="42.356320" lon="1.780288">
        <ele>1021.031</ele>
        <time>2019-06-01T07:44:11Z</time>
      </trkpt>
      <trkpt lat="42.356207" lon="1.780227">
        <ele>1022.458</ele>
        <time>2019-06-01T07:44:18Z</time>
      </trkpt>
      <trkpt lat="42.356171" lon="1.780205">
        <ele>1023.476</ele>
        <time>2019-06-01T07:44:20Z</time>
      </trkpt>
      <trkpt lat="42.356156" lon="1.780195">
        <ele>1023.447</ele>
        <time>2019-06-01T07:44:21Z</time>
      </trkpt>
      <trkpt lat="42.356080" lon="1.780163">
        <ele>1023.444</ele>
        <time>2019-06-01T07:44:26Z</time>
      </trkpt>
      <trkpt lat="42.355974" lon="1.780189">
        <ele>1024.605</ele>
        <time>2019-06-01T07:44:32Z</time>
      </trkpt>
      <trkpt lat="42.355923" lon="1.780225">
        <ele>1022.815</ele>
        <time>2019-06-01T07:44:35Z</time>
      </trkpt>
      <trkpt lat="42.355892" lon="1.780245">
        <ele>1024.608</ele>
        <time>2019-06-01T07:44:37Z</time>
      </trkpt>
      <trkpt lat="42.355875" lon="1.780251">
        <ele>1025.627</ele>
        <time>2019-06-01T07:44:38Z</time>
      </trkpt>
      <trkpt lat="42.355787" lon="1.780291">
        <ele>1025.691</ele>
        <time>2019-06-01T07:44:43Z</time>
      </trkpt>
      <trkpt lat="42.355710" lon="1.780316">
        <ele>1025.837</ele>
        <time>2019-06-01T07:44:47Z</time>
      </trkpt>
      <trkpt lat="42.355498" lon="1.780354">
        <ele>1026.645</ele>
        <time>2019-06-01T07:44:57Z</time>
      </trkpt>
      <trkpt lat="42.355478" lon="1.780356">
        <ele>1026.679</ele>
        <time>2019-06-01T07:44:58Z</time>
      </trkpt>
      <trkpt lat="42.355278" lon="1.780408">
        <ele>1027.456</ele>
        <time>2019-06-01T07:45:07Z</time>
      </trkpt>
      <trkpt lat="42.355178" lon="1.780426">
        <ele>1027.624</ele>
        <time>2019-06-01T07:45:11Z</time>
      </trkpt>
      <trkpt lat="42.355072" lon="1.780441">
        <ele>1027.885</ele>
        <time>2019-06-01T07:45:15Z</time>
      </trkpt>
      <trkpt lat="42.354846" lon="1.780478">
        <ele>1028.631</ele>
        <time>2019-06-01T07:45:24Z</time>
      </trkpt>
      <trkpt lat="42.354817" lon="1.780482">
        <ele>1028.861</ele>
        <time>2019-06-01T07:45:25Z</time>
      </trkpt>
      <trkpt lat="42.354660" lon="1.780472">
        <ele>1029.207</ele>
        <time>2019-06-01T07:45:31Z</time>
      </trkpt>
      <trkpt lat="42.354381" lon="1.780444">
        <ele>1029.608</ele>
        <time>2019-06-01T07:45:41Z</time>
      </trkpt>
      <trkpt lat="42.354292" lon="1.780447">
        <ele>1029.836</ele>
        <time>2019-06-01T07:45:44Z</time>
      </trkpt>
      <trkpt lat="42.354119" lon="1.780466">
        <ele>1030.420</ele>
        <time>2019-06-01T07:45:50Z</time>
      </trkpt>
      <trkpt lat="42.354016" lon="1.780500">
        <ele>1030.836</ele>
        <time>2019-06-01T07:45:54Z</time>
      </trkpt>
      <trkpt lat="42.353907" lon="1.780524">
        <ele>1031.224</ele>
        <time>2019-06-01T07:45:58Z</time>
      </trkpt>
      <trkpt lat="42.353689" lon="1.780542">
        <ele>1032.088</ele>
        <time>2019-06-01T07:46:06Z</time>
      </trkpt>
      <trkpt lat="42.353661" lon="1.780543">
        <ele>1032.085</ele>
        <time>2019-06-01T07:46:07Z</time>
      </trkpt>
      <trkpt lat="42.353451" lon="1.780592">
        <ele>1032.833</ele>
        <time>2019-06-01T07:46:15Z</time>
      </trkpt>
      <trkpt lat="42.353401" lon="1.780617">
        <ele>1033.014</ele>
        <time>2019-06-01T07:46:17Z</time>
      </trkpt>
      <trkpt lat="42.353280" lon="1.780664">
        <ele>1033.286</ele>
        <time>2019-06-01T07:46:22Z</time>
      </trkpt>
      <trkpt lat="42.353131" lon="1.780751">
        <ele>1033.660</ele>
        <time>2019-06-01T07:46:28Z</time>
      </trkpt>
      <trkpt lat="42.352932" lon="1.780851">
        <ele>1034.226</ele>
        <time>2019-06-01T07:46:36Z</time>
      </trkpt>
      <trkpt lat="42.352781" lon="1.780928">
        <ele>1034.608</ele>
        <time>2019-06-01T07:46:42Z</time>
      </trkpt>
      <trkpt lat="42.352573" lon="1.781072">
        <ele>1035.031</ele>
        <time>2019-06-01T07:46:50Z</time>
      </trkpt>
      <trkpt lat="42.352522" lon="1.781108">
        <ele>1035.475</ele>
        <time>2019-06-01T07:46:52Z</time>
      </trkpt>
      <trkpt lat="42.352321" lon="1.781262">
        <ele>1035.891</ele>
        <time>2019-06-01T07:47:00Z</time>
      </trkpt>
      <trkpt lat="42.352139" lon="1.781418">
        <ele>1035.239</ele>
        <time>2019-06-01T07:47:07Z</time>
      </trkpt>
      <trkpt lat="42.351967" lon="1.781525">
        <ele>1034.853</ele>
        <time>2019-06-01T07:47:12Z</time>
      </trkpt>
      <trkpt lat="42.351944" lon="1.781572">
        <ele>1035.030</ele>
        <time>2019-06-01T07:47:14Z</time>
      </trkpt>
      <trkpt lat="42.351941" lon="1.781585">
        <ele>1035.078</ele>
        <time>2019-06-01T07:47:15Z</time>
      </trkpt>
      <trkpt lat="42.351870" lon="1.781643">
        <ele>1035.029</ele>
        <time>2019-06-01T07:51:21Z</time>
      </trkpt>
      <trkpt lat="42.351855" lon="1.781656">
        <ele>1035.084</ele>
        <time>2019-06-01T07:51:22Z</time>
      </trkpt>
      <trkpt lat="42.351703" lon="1.781775">
        <ele>1035.607</ele>
        <time>2019-06-01T07:51:30Z</time>
      </trkpt>
      <trkpt lat="42.351592" lon="1.781849">
        <ele>1036.217</ele>
        <time>2019-06-01T07:51:36Z</time>
      </trkpt>
      <trkpt lat="42.351488" lon="1.781902">
        <ele>1033.808</ele>
        <time>2019-06-01T07:51:41Z</time>
      </trkpt>
      <trkpt lat="42.351466" lon="1.781910">
        <ele>1034.641</ele>
        <time>2019-06-01T07:51:42Z</time>
      </trkpt>
      <trkpt lat="42.351422" lon="1.781931">
        <ele>1036.615</ele>
        <time>2019-06-01T07:51:44Z</time>
      </trkpt>
      <trkpt lat="42.351402" lon="1.781943">
        <ele>1035.441</ele>
        <time>2019-06-01T07:51:45Z</time>
      </trkpt>
      <trkpt lat="42.351378" lon="1.781950">
        <ele>1037.099</ele>
        <time>2019-06-01T07:51:46Z</time>
      </trkpt>
      <trkpt lat="42.351330" lon="1.781972">
        <ele>1037.653</ele>
        <time>2019-06-01T07:51:48Z</time>
      </trkpt>
      <trkpt lat="42.351180" lon="1.782038">
        <ele>1037.080</ele>
        <time>2019-06-01T07:51:54Z</time>
      </trkpt>
      <trkpt lat="42.350965" lon="1.782089">
        <ele>1037.698</ele>
        <time>2019-06-01T07:52:01Z</time>
      </trkpt>
      <trkpt lat="42.350833" lon="1.782070">
        <ele>1038.079</ele>
        <time>2019-06-01T07:52:06Z</time>
      </trkpt>
      <trkpt lat="42.350784" lon="1.782043">
        <ele>1038.063</ele>
        <time>2019-06-01T07:52:08Z</time>
      </trkpt>
      <trkpt lat="42.350675" lon="1.781949">
        <ele>1038.444</ele>
        <time>2019-06-01T07:52:13Z</time>
      </trkpt>
      <trkpt lat="42.350502" lon="1.781854">
        <ele>1039.018</ele>
        <time>2019-06-01T07:52:19Z</time>
      </trkpt>
      <trkpt lat="42.350472" lon="1.781844">
        <ele>1039.008</ele>
        <time>2019-06-01T07:52:20Z</time>
      </trkpt>
      <trkpt lat="42.350272" lon="1.781779">
        <ele>1039.259</ele>
        <time>2019-06-01T07:52:27Z</time>
      </trkpt>
      <trkpt lat="42.350057" lon="1.781678">
        <ele>1040.043</ele>
        <time>2019-06-01T07:52:35Z</time>
      </trkpt>
      <trkpt lat="42.350001" lon="1.781655">
        <ele>1040.259</ele>
        <time>2019-06-01T07:52:37Z</time>
      </trkpt>
      <trkpt lat="42.349869" lon="1.781591">
        <ele>1040.657</ele>
        <time>2019-06-01T07:52:42Z</time>
      </trkpt>
      <trkpt lat="42.349696" lon="1.781514">
        <ele>1041.261</ele>
        <time>2019-06-01T07:52:49Z</time>
      </trkpt>
      <trkpt lat="42.349671" lon="1.781512">
        <ele>1041.418</ele>
        <time>2019-06-01T07:52:50Z</time>
      </trkpt>
      <trkpt lat="42.349554" lon="1.781475">
        <ele>1041.686</ele>
        <time>2019-06-01T07:52:55Z</time>
      </trkpt>
      <trkpt lat="42.349419" lon="1.781422">
        <ele>1042.057</ele>
        <time>2019-06-01T07:53:01Z</time>
      </trkpt>
      <trkpt lat="42.349399" lon="1.781416">
        <ele>1042.445</ele>
        <time>2019-06-01T07:53:02Z</time>
      </trkpt>
      <trkpt lat="42.349330" lon="1.781391">
        <ele>1043.447</ele>
        <time>2019-06-01T07:53:06Z</time>
      </trkpt>
      <trkpt lat="42.349309" lon="1.781385">
        <ele>1043.611</ele>
        <time>2019-06-01T07:53:07Z</time>
      </trkpt>
      <trkpt lat="42.349178" lon="1.781322">
        <ele>1044.408</ele>
        <time>2019-06-01T07:53:13Z</time>
      </trkpt>
      <trkpt lat="42.349161" lon="1.781308">
        <ele>1044.437</ele>
        <time>2019-06-01T07:53:14Z</time>
      </trkpt>
      <trkpt lat="42.349055" lon="1.781232">
        <ele>1045.251</ele>
        <time>2019-06-01T07:53:20Z</time>
      </trkpt>
      <trkpt lat="42.348995" lon="1.781185">
        <ele>1045.457</ele>
        <time>2019-06-01T07:53:24Z</time>
      </trkpt>
      <trkpt lat="42.348974" lon="1.781185">
        <ele>1045.675</ele>
        <time>2019-06-01T07:53:25Z</time>
      </trkpt>
      <trkpt lat="42.348859" lon="1.781160">
        <ele>1046.269</ele>
        <time>2019-06-01T07:53:31Z</time>
      </trkpt>
      <trkpt lat="42.348741" lon="1.781148">
        <ele>1046.456</ele>
        <time>2019-06-01T07:53:36Z</time>
      </trkpt>
      <trkpt lat="42.348676" lon="1.781163">
        <ele>1046.624</ele>
        <time>2019-06-01T07:53:39Z</time>
      </trkpt>
      <trkpt lat="42.348622" lon="1.781159">
        <ele>1046.855</ele>
        <time>2019-06-01T07:53:41Z</time>
      </trkpt>
      <trkpt lat="42.348520" lon="1.781131">
        <ele>1046.874</ele>
        <time>2019-06-01T07:53:46Z</time>
      </trkpt>
      <trkpt lat="42.348457" lon="1.781103">
        <ele>1046.856</ele>
        <time>2019-06-01T07:53:49Z</time>
      </trkpt>
      <trkpt lat="42.348384" lon="1.781082">
        <ele>1046.821</ele>
        <time>2019-06-01T07:53:52Z</time>
      </trkpt>
      <trkpt lat="42.348292" lon="1.781044">
        <ele>1047.608</ele>
        <time>2019-06-01T07:53:56Z</time>
      </trkpt>
      <trkpt lat="42.348224" lon="1.781026">
        <ele>1047.450</ele>
        <time>2019-06-01T07:53:59Z</time>
      </trkpt>
      <trkpt lat="42.348070" lon="1.780997">
        <ele>1048.054</ele>
        <time>2019-06-01T07:54:05Z</time>
      </trkpt>
      <trkpt lat="42.347900" lon="1.781002">
        <ele>1048.670</ele>
        <time>2019-06-01T07:54:12Z</time>
      </trkpt>
      <trkpt lat="42.347724" lon="1.780988">
        <ele>1049.088</ele>
        <time>2019-06-01T07:54:19Z</time>
      </trkpt>
      <trkpt lat="42.347458" lon="1.780990">
        <ele>1048.822</ele>
        <time>2019-06-01T07:54:28Z</time>
      </trkpt>
      <trkpt lat="42.347293" lon="1.780965">
        <ele>1049.299</ele>
        <time>2019-06-01T07:54:34Z</time>
      </trkpt>
      <trkpt lat="42.347160" lon="1.780967">
        <ele>1049.277</ele>
        <time>2019-06-01T07:54:39Z</time>
      </trkpt>
      <trkpt lat="42.346992" lon="1.780976">
        <ele>1049.478</ele>
        <time>2019-06-01T07:54:45Z</time>
      </trkpt>
      <trkpt lat="42.346966" lon="1.780964">
        <ele>1049.697</ele>
        <time>2019-06-01T07:54:46Z</time>
      </trkpt>
      <trkpt lat="42.346863" lon="1.780944">
        <ele>1049.823</ele>
        <time>2019-06-01T07:54:50Z</time>
      </trkpt>
      <trkpt lat="42.346652" lon="1.780906">
        <ele>1050.025</ele>
        <time>2019-06-01T07:54:59Z</time>
      </trkpt>
      <trkpt lat="42.346465" lon="1.780887">
        <ele>1050.608</ele>
        <time>2019-06-01T07:55:07Z</time>
      </trkpt>
      <trkpt lat="42.346439" lon="1.780891">
        <ele>1050.632</ele>
        <time>2019-06-01T07:55:08Z</time>
      </trkpt>
      <trkpt lat="42.346275" lon="1.780897">
        <ele>1050.886</ele>
        <time>2019-06-01T07:55:15Z</time>
      </trkpt>
      <trkpt lat="42.346152" lon="1.780903">
        <ele>1051.452</ele>
        <time>2019-06-01T07:55:20Z</time>
      </trkpt>
      <trkpt lat="42.346128" lon="1.780903">
        <ele>1051.430</ele>
        <time>2019-06-01T07:55:21Z</time>
      </trkpt>
      <trkpt lat="42.346002" lon="1.780910">
        <ele>1051.824</ele>
        <time>2019-06-01T07:55:26Z</time>
      </trkpt>
      <trkpt lat="42.345904" lon="1.780915">
        <ele>1052.261</ele>
        <time>2019-06-01T07:55:30Z</time>
      </trkpt>
      <trkpt lat="42.345740" lon="1.780908">
        <ele>1052.849</ele>
        <time>2019-06-01T07:55:37Z</time>
      </trkpt>
      <trkpt lat="42.345656" lon="1.780876">
        <ele>1054.250</ele>
        <time>2019-06-01T07:55:42Z</time>
      </trkpt>
      <trkpt lat="42.345640" lon="1.780871">
        <ele>1054.461</ele>
        <time>2019-06-01T07:55:43Z</time>
      </trkpt>
      <trkpt lat="42.345589" lon="1.780842">
        <ele>1055.221</ele>
        <time>2019-06-01T07:55:47Z</time>
      </trkpt>
      <trkpt lat="42.345574" lon="1.780831">
        <ele>1055.413</ele>
        <time>2019-06-01T07:55:48Z</time>
      </trkpt>
      <trkpt lat="42.345468" lon="1.780763">
        <ele>1056.408</ele>
        <time>2019-06-01T07:55:55Z</time>
      </trkpt>
      <trkpt lat="42.345450" lon="1.780766">
        <ele>1056.629</ele>
        <time>2019-06-01T07:55:56Z</time>
      </trkpt>
      <trkpt lat="42.345334" lon="1.780741">
        <ele>1056.883</ele>
        <time>2019-06-01T07:56:02Z</time>
      </trkpt>
      <trkpt lat="42.345202" lon="1.780720">
        <ele>1057.669</ele>
        <time>2019-06-01T07:56:08Z</time>
      </trkpt>
      <trkpt lat="42.345172" lon="1.780719">
        <ele>1057.697</ele>
        <time>2019-06-01T07:56:09Z</time>
      </trkpt>
      <trkpt lat="42.345106" lon="1.780716">
        <ele>1058.031</ele>
        <time>2019-06-01T07:56:13Z</time>
      </trkpt>
      <trkpt lat="42.345087" lon="1.780711">
        <ele>1058.268</ele>
        <time>2019-06-01T07:56:14Z</time>
      </trkpt>
      <trkpt lat="42.344990" lon="1.780703">
        <ele>1058.296</ele>
        <time>2019-06-01T07:56:18Z</time>
      </trkpt>
      <trkpt lat="42.344868" lon="1.780711">
        <ele>1058.657</ele>
        <time>2019-06-01T07:56:23Z</time>
      </trkpt>
      <trkpt lat="42.344852" lon="1.780707">
        <ele>1058.867</ele>
        <time>2019-06-01T07:56:24Z</time>
      </trkpt>
      <trkpt lat="42.344704" lon="1.780689">
        <ele>1059.081</ele>
        <time>2019-06-01T07:56:30Z</time>
      </trkpt>
      <trkpt lat="42.344554" lon="1.780652">
        <ele>1059.219</ele>
        <time>2019-06-01T07:56:37Z</time>
      </trkpt>
      <trkpt lat="42.344533" lon="1.780651">
        <ele>1059.408</ele>
        <time>2019-06-01T07:56:38Z</time>
      </trkpt>
      <trkpt lat="42.344491" lon="1.780642">
        <ele>1059.659</ele>
        <time>2019-06-01T07:56:40Z</time>
      </trkpt>
      <trkpt lat="42.344411" lon="1.780649">
        <ele>1060.083</ele>
        <time>2019-06-01T07:56:43Z</time>
      </trkpt>
      <trkpt lat="42.344166" lon="1.780652">
        <ele>1060.649</ele>
        <time>2019-06-01T07:56:52Z</time>
      </trkpt>
      <trkpt lat="42.344087" lon="1.780678">
        <ele>1060.847</ele>
        <time>2019-06-01T07:56:55Z</time>
      </trkpt>
      <trkpt lat="42.344044" lon="1.780685">
        <ele>1061.261</ele>
        <time>2019-06-01T07:56:57Z</time>
      </trkpt>
      <trkpt lat="42.343808" lon="1.780711">
        <ele>1061.858</ele>
        <time>2019-06-01T07:57:06Z</time>
      </trkpt>
      <trkpt lat="42.343783" lon="1.780712">
        <ele>1061.846</ele>
        <time>2019-06-01T07:57:07Z</time>
      </trkpt>
      <trkpt lat="42.343627" lon="1.780701">
        <ele>1062.687</ele>
        <time>2019-06-01T07:57:13Z</time>
      </trkpt>
      <trkpt lat="42.343464" lon="1.780651">
        <ele>1062.898</ele>
        <time>2019-06-01T07:57:21Z</time>
      </trkpt>
      <trkpt lat="42.343445" lon="1.780642">
        <ele>1062.815</ele>
        <time>2019-06-01T07:57:22Z</time>
      </trkpt>
      <trkpt lat="42.343244" lon="1.780590">
        <ele>1063.626</ele>
        <time>2019-06-01T07:57:29Z</time>
      </trkpt>
      <trkpt lat="42.343169" lon="1.780569">
        <ele>1064.008</ele>
        <time>2019-06-01T07:57:32Z</time>
      </trkpt>
      <trkpt lat="42.343024" lon="1.780522">
        <ele>1064.692</ele>
        <time>2019-06-01T07:57:38Z</time>
      </trkpt>
      <trkpt lat="42.342998" lon="1.780514">
        <ele>1064.846</ele>
        <time>2019-06-01T07:57:39Z</time>
      </trkpt>
      <trkpt lat="42.342854" lon="1.780488">
        <ele>1065.062</ele>
        <time>2019-06-01T07:57:44Z</time>
      </trkpt>
      <trkpt lat="42.342745" lon="1.780477">
        <ele>1065.280</ele>
        <time>2019-06-01T07:57:47Z</time>
      </trkpt>
      <trkpt lat="42.342454" lon="1.780455">
        <ele>1066.074</ele>
        <time>2019-06-01T07:57:57Z</time>
      </trkpt>
      <trkpt lat="42.342429" lon="1.780453">
        <ele>1066.091</ele>
        <time>2019-06-01T07:57:58Z</time>
      </trkpt>
      <trkpt lat="42.342299" lon="1.780436">
        <ele>1066.679</ele>
        <time>2019-06-01T07:58:03Z</time>
      </trkpt>
      <trkpt lat="42.342196" lon="1.780431">
        <ele>1067.090</ele>
        <time>2019-06-01T07:58:07Z</time>
      </trkpt>
      <trkpt lat="42.342125" lon="1.780420">
        <ele>1067.467</ele>
        <time>2019-06-01T07:58:10Z</time>
      </trkpt>
      <trkpt lat="42.341950" lon="1.780441">
        <ele>1068.281</ele>
        <time>2019-06-01T07:58:17Z</time>
      </trkpt>
      <trkpt lat="42.341927" lon="1.780445">
        <ele>1068.419</ele>
        <time>2019-06-01T07:58:18Z</time>
      </trkpt>
      <trkpt lat="42.341725" lon="1.780456">
        <ele>1069.008</ele>
        <time>2019-06-01T07:58:26Z</time>
      </trkpt>
      <trkpt lat="42.341673" lon="1.780456">
        <ele>1069.459</ele>
        <time>2019-06-01T07:58:28Z</time>
      </trkpt>
      <trkpt lat="42.341426" lon="1.780458">
        <ele>1070.213</ele>
        <time>2019-06-01T07:58:37Z</time>
      </trkpt>
      <trkpt lat="42.341280" lon="1.780487">
        <ele>1070.849</ele>
        <time>2019-06-01T07:58:43Z</time>
      </trkpt>
      <trkpt lat="42.341204" lon="1.780499">
        <ele>1071.027</ele>
        <time>2019-06-01T07:58:46Z</time>
      </trkpt>
      <trkpt lat="42.341076" lon="1.780525">
        <ele>1071.851</ele>
        <time>2019-06-01T07:58:52Z</time>
      </trkpt>
      <trkpt lat="42.341053" lon="1.780531">
        <ele>1072.088</ele>
        <time>2019-06-01T07:58:53Z</time>
      </trkpt>
      <trkpt lat="42.340868" lon="1.780487">
        <ele>1072.636</ele>
        <time>2019-06-01T07:59:01Z</time>
      </trkpt>
      <trkpt lat="42.340811" lon="1.780470">
        <ele>1073.077</ele>
        <time>2019-06-01T07:59:04Z</time>
      </trkpt>
      <trkpt lat="42.340750" lon="1.780471">
        <ele>1073.611</ele>
        <time>2019-06-01T07:59:07Z</time>
      </trkpt>
      <trkpt lat="42.340708" lon="1.780463">
        <ele>1074.621</ele>
        <time>2019-06-01T07:59:09Z</time>
      </trkpt>
      <trkpt lat="42.340609" lon="1.780449">
        <ele>1074.803</ele>
        <time>2019-06-01T07:59:14Z</time>
      </trkpt>
      <trkpt lat="42.340460" lon="1.780438">
        <ele>1075.608</ele>
        <time>2019-06-01T07:59:22Z</time>
      </trkpt>
      <trkpt lat="42.340334" lon="1.780437">
        <ele>1076.884</ele>
        <time>2019-06-01T07:59:30Z</time>
      </trkpt>
      <trkpt lat="42.340217" lon="1.780453">
        <ele>1077.838</ele>
        <time>2019-06-01T07:59:38Z</time>
      </trkpt>
      <trkpt lat="42.340203" lon="1.780460">
        <ele>1077.884</ele>
        <time>2019-06-01T07:59:39Z</time>
      </trkpt>
      <trkpt lat="42.340076" lon="1.780559">
        <ele>1078.812</ele>
        <time>2019-06-01T07:59:49Z</time>
      </trkpt>
      <trkpt lat="42.340066" lon="1.780572">
        <ele>1078.826</ele>
        <time>2019-06-01T07:59:50Z</time>
      </trkpt>
      <trkpt lat="42.339988" lon="1.780644">
        <ele>1079.453</ele>
        <time>2019-06-01T07:59:56Z</time>
      </trkpt>
      <trkpt lat="42.339934" lon="1.780702">
        <ele>1080.091</ele>
        <time>2019-06-01T08:00:00Z</time>
      </trkpt>
      <trkpt lat="42.339886" lon="1.780749">
        <ele>1080.422</ele>
        <time>2019-06-01T08:00:04Z</time>
      </trkpt>
      <trkpt lat="42.339813" lon="1.780806">
        <ele>1081.042</ele>
        <time>2019-06-01T08:00:09Z</time>
      </trkpt>
      <trkpt lat="42.339755" lon="1.780845">
        <ele>1081.422</ele>
        <time>2019-06-01T08:00:13Z</time>
      </trkpt>
      <trkpt lat="42.339671" lon="1.780895">
        <ele>1082.014</ele>
        <time>2019-06-01T08:00:19Z</time>
      </trkpt>
      <trkpt lat="42.339592" lon="1.780942">
        <ele>1082.408</ele>
        <time>2019-06-01T08:00:24Z</time>
      </trkpt>
      <trkpt lat="42.339479" lon="1.780990">
        <ele>1083.087</ele>
        <time>2019-06-01T08:00:31Z</time>
      </trkpt>
      <trkpt lat="42.339462" lon="1.780996">
        <ele>1083.071</ele>
        <time>2019-06-01T08:00:32Z</time>
      </trkpt>
      <trkpt lat="42.339342" lon="1.781068">
        <ele>1083.667</ele>
        <time>2019-06-01T08:00:40Z</time>
      </trkpt>
      <trkpt lat="42.339232" lon="1.781142">
        <ele>1084.225</ele>
        <time>2019-06-01T08:00:47Z</time>
      </trkpt>
      <trkpt lat="42.339103" lon="1.781196">
        <ele>1084.819</ele>
        <time>2019-06-01T08:00:55Z</time>
      </trkpt>
      <trkpt lat="42.339006" lon="1.781235">
        <ele>1085.226</ele>
        <time>2019-06-01T08:01:01Z</time>
      </trkpt>
      <trkpt lat="42.338975" lon="1.781249">
        <ele>1085.634</ele>
        <time>2019-06-01T08:01:03Z</time>
      </trkpt>
      <trkpt lat="42.338887" lon="1.781307">
        <ele>1086.255</ele>
        <time>2019-06-01T08:01:09Z</time>
      </trkpt>
      <trkpt lat="42.338821" lon="1.781324">
        <ele>1086.634</ele>
        <time>2019-06-01T08:01:13Z</time>
      </trkpt>
      <trkpt lat="42.338789" lon="1.781321">
        <ele>1087.055</ele>
        <time>2019-06-01T08:01:15Z</time>
      </trkpt>
      <trkpt lat="42.338759" lon="1.781332">
        <ele>1087.410</ele>
        <time>2019-06-01T08:01:17Z</time>
      </trkpt>
      <trkpt lat="42.338698" lon="1.781347">
        <ele>1087.608</ele>
        <time>2019-06-01T08:01:21Z</time>
      </trkpt>
      <trkpt lat="42.338682" lon="1.781353">
        <ele>1087.856</ele>
        <time>2019-06-01T08:01:22Z</time>
      </trkpt>
      <trkpt lat="42.338638" lon="1.781368">
        <ele>1088.440</ele>
        <time>2019-06-01T08:01:25Z</time>
      </trkpt>
      <trkpt lat="42.338567" lon="1.781397">
        <ele>1089.296</ele>
        <time>2019-06-01T08:01:30Z</time>
      </trkpt>
      <trkpt lat="42.338556" lon="1.781400">
        <ele>1089.484</ele>
        <time>2019-06-01T08:01:31Z</time>
      </trkpt>
      <trkpt lat="42.338484" lon="1.781441">
        <ele>1090.038</ele>
        <time>2019-06-01T08:01:36Z</time>
      </trkpt>
      <trkpt lat="42.338468" lon="1.781444">
        <ele>1090.285</ele>
        <time>2019-06-01T08:01:37Z</time>
      </trkpt>
      <trkpt lat="42.338426" lon="1.781469">
        <ele>1090.423</ele>
        <time>2019-06-01T08:01:40Z</time>
      </trkpt>
      <trkpt lat="42.338394" lon="1.781482">
        <ele>1090.824</ele>
        <time>2019-06-01T08:01:42Z</time>
      </trkpt>
      <trkpt lat="42.338370" lon="1.781502">
        <ele>1091.017</ele>
        <time>2019-06-01T08:01:44Z</time>
      </trkpt>
      <trkpt lat="42.338342" lon="1.781522">
        <ele>1091.487</ele>
        <time>2019-06-01T08:01:46Z</time>
      </trkpt>
      <trkpt lat="42.338301" lon="1.781556">
        <ele>1091.815</ele>
        <time>2019-06-01T08:01:49Z</time>
      </trkpt>
      <trkpt lat="42.338226" lon="1.781582">
        <ele>1092.408</ele>
        <time>2019-06-01T08:01:54Z</time>
      </trkpt>
      <trkpt lat="42.338196" lon="1.781598">
        <ele>1093.054</ele>
        <time>2019-06-01T08:01:56Z</time>
      </trkpt>
      <trkpt lat="42.338128" lon="1.781626">
        <ele>1093.618</ele>
        <time>2019-06-01T08:02:01Z</time>
      </trkpt>
      <trkpt lat="42.338099" lon="1.781634">
        <ele>1093.824</ele>
        <time>2019-06-01T08:02:03Z</time>
      </trkpt>
      <trkpt lat="42.338045" lon="1.781627">
        <ele>1094.422</ele>
        <time>2019-06-01T08:02:07Z</time>
      </trkpt>
      <trkpt lat="42.338023" lon="1.781632">
        <ele>1094.836</ele>
        <time>2019-06-01T08:02:09Z</time>
      </trkpt>
      <trkpt lat="42.337948" lon="1.781645">
        <ele>1096.043</ele>
        <time>2019-06-01T08:02:15Z</time>
      </trkpt>
      <trkpt lat="42.337932" lon="1.781645">
        <ele>1096.261</ele>
        <time>2019-06-01T08:02:16Z</time>
      </trkpt>
      <trkpt lat="42.337883" lon="1.781659">
        <ele>1096.422</ele>
        <time>2019-06-01T08:02:19Z</time>
      </trkpt>
      <trkpt lat="42.337843" lon="1.781680">
        <ele>1097.059</ele>
        <time>2019-06-01T08:02:22Z</time>
      </trkpt>
      <trkpt lat="42.337829" lon="1.781683">
        <ele>1097.203</ele>
        <time>2019-06-01T08:02:23Z</time>
      </trkpt>
      <trkpt lat="42.337766" lon="1.781706">
        <ele>1097.823</ele>
        <time>2019-06-01T08:02:29Z</time>
      </trkpt>
      <trkpt lat="42.337735" lon="1.781712">
        <ele>1098.008</ele>
        <time>2019-06-01T08:02:30Z</time>
      </trkpt>
      <trkpt lat="42.337645" lon="1.781740">
        <ele>1098.858</ele>
        <time>2019-06-01T08:02:36Z</time>
      </trkpt>
      <trkpt lat="42.337575" lon="1.781775">
        <ele>1099.282</ele>
        <time>2019-06-01T08:02:40Z</time>
      </trkpt>
      <trkpt lat="42.337500" lon="1.781815">
        <ele>1099.818</ele>
        <time>2019-06-01T08:02:45Z</time>
      </trkpt>
      <trkpt lat="42.337427" lon="1.781890">
        <ele>1100.256</ele>
        <time>2019-06-01T08:02:51Z</time>
      </trkpt>
      <trkpt lat="42.337415" lon="1.781903">
        <ele>1100.260</ele>
        <time>2019-06-01T08:02:52Z</time>
      </trkpt>
      <trkpt lat="42.337397" lon="1.781931">
        <ele>1100.447</ele>
        <time>2019-06-01T08:02:54Z</time>
      </trkpt>
      <trkpt lat="42.337359" lon="1.781971">
        <ele>1100.685</ele>
        <time>2019-06-01T08:02:57Z</time>
      </trkpt>
      <trkpt lat="42.337290" lon="1.782058">
        <ele>1101.086</ele>
        <time>2019-06-01T08:03:03Z</time>
      </trkpt>
      <trkpt lat="42.337242" lon="1.782120">
        <ele>1101.289</ele>
        <time>2019-06-01T08:03:07Z</time>
      </trkpt>
      <trkpt lat="42.337187" lon="1.782189">
        <ele>1101.806</ele>
        <time>2019-06-01T08:03:11Z</time>
      </trkpt>
      <trkpt lat="42.337108" lon="1.782299">
        <ele>1102.426</ele>
        <time>2019-06-01T08:03:18Z</time>
      </trkpt>
      <trkpt lat="42.337080" lon="1.782332">
        <ele>1102.408</ele>
        <time>2019-06-01T08:03:20Z</time>
      </trkpt>
      <trkpt lat="42.337045" lon="1.782377">
        <ele>1103.071</ele>
        <time>2019-06-01T08:03:23Z</time>
      </trkpt>
      <trkpt lat="42.337001" lon="1.782430">
        <ele>1103.425</ele>
        <time>2019-06-01T08:03:27Z</time>
      </trkpt>
      <trkpt lat="42.336953" lon="1.782478">
        <ele>1103.411</ele>
        <time>2019-06-01T08:03:30Z</time>
      </trkpt>
      <trkpt lat="42.336902" lon="1.782532">
        <ele>1104.479</ele>
        <time>2019-06-01T08:03:33Z</time>
      </trkpt>
      <trkpt lat="42.336850" lon="1.782582">
        <ele>1103.623</ele>
        <time>2019-06-01T08:03:36Z</time>
      </trkpt>
      <trkpt lat="42.336795" lon="1.782641">
        <ele>1104.470</ele>
        <time>2019-06-01T08:03:41Z</time>
      </trkpt>
      <trkpt lat="42.336718" lon="1.782768">
        <ele>1104.428</ele>
        <time>2019-06-01T08:03:47Z</time>
      </trkpt>
      <trkpt lat="42.336617" lon="1.782924">
        <ele>1104.099</ele>
        <time>2019-06-01T08:03:53Z</time>
      </trkpt>
      <trkpt lat="42.336505" lon="1.783061">
        <ele>1104.424</ele>
        <time>2019-06-01T08:03:59Z</time>
      </trkpt>
      <trkpt lat="42.336358" lon="1.783126">
        <ele>1104.604</ele>
        <time>2019-06-01T08:04:05Z</time>
      </trkpt>
      <trkpt lat="42.336188" lon="1.783055">
        <ele>1104.014</ele>
        <time>2019-06-01T08:04:11Z</time>
      </trkpt>
      <trkpt lat="42.336075" lon="1.782992">
        <ele>1104.208</ele>
        <time>2019-06-01T08:04:15Z</time>
      </trkpt>
      <trkpt lat="42.335953" lon="1.782974">
        <ele>1104.225</ele>
        <time>2019-06-01T08:04:19Z</time>
      </trkpt>
      <trkpt lat="42.335742" lon="1.782980">
        <ele>1104.879</ele>
        <time>2019-06-01T08:04:26Z</time>
      </trkpt>
      <trkpt lat="42.335720" lon="1.782987">
        <ele>1105.245</ele>
        <time>2019-06-01T08:04:27Z</time>
      </trkpt>
      <trkpt lat="42.335625" lon="1.783011">
        <ele>1105.243</ele>
        <time>2019-06-01T08:04:31Z</time>
      </trkpt>
      <trkpt lat="42.335559" lon="1.783023">
        <ele>1105.427</ele>
        <time>2019-06-01T08:04:34Z</time>
      </trkpt>
      <trkpt lat="42.335490" lon="1.783051">
        <ele>1105.644</ele>
        <time>2019-06-01T08:04:37Z</time>
      </trkpt>
      <trkpt lat="42.335409" lon="1.783088">
        <ele>1106.682</ele>
        <time>2019-06-01T08:04:41Z</time>
      </trkpt>
      <trkpt lat="42.335385" lon="1.783112">
        <ele>1106.863</ele>
        <time>2019-06-01T08:04:43Z</time>
      </trkpt>
      <trkpt lat="42.335263" lon="1.783165">
        <ele>1107.432</ele>
        <time>2019-06-01T08:04:48Z</time>
      </trkpt>
      <trkpt lat="42.335143" lon="1.783210">
        <ele>1107.892</ele>
        <time>2019-06-01T08:04:53Z</time>
      </trkpt>
      <trkpt lat="42.335124" lon="1.783222">
        <ele>1108.011</ele>
        <time>2019-06-01T08:04:54Z</time>
      </trkpt>
      <trkpt lat="42.335046" lon="1.783286">
        <ele>1108.008</ele>
        <time>2019-06-01T08:04:58Z</time>
      </trkpt>
      <trkpt lat="42.334997" lon="1.783310">
        <ele>1108.496</ele>
        <time>2019-06-01T08:05:00Z</time>
      </trkpt>
      <trkpt lat="42.334951" lon="1.783341">
        <ele>1108.870</ele>
        <time>2019-06-01T08:05:02Z</time>
      </trkpt>
      <trkpt lat="42.334857" lon="1.783374">
        <ele>1109.476</ele>
        <time>2019-06-01T08:05:06Z</time>
      </trkpt>
      <trkpt lat="42.334828" lon="1.783384">
        <ele>1109.874</ele>
        <time>2019-06-01T08:05:07Z</time>
      </trkpt>
      <trkpt lat="42.334704" lon="1.783440">
        <ele>1110.218</ele>
        <time>2019-06-01T08:05:12Z</time>
      </trkpt>
      <trkpt lat="42.334558" lon="1.783495">
        <ele>1111.095</ele>
        <time>2019-06-01T08:05:18Z</time>
      </trkpt>
      <trkpt lat="42.334420" lon="1.783540">
        <ele>1112.283</ele>
        <time>2019-06-01T08:05:24Z</time>
      </trkpt>
      <trkpt lat="42.334329" lon="1.783549">
        <ele>1113.064</ele>
        <time>2019-06-01T08:05:30Z</time>
      </trkpt>
      <trkpt lat="42.334310" lon="1.783543">
        <ele>1113.414</ele>
        <time>2019-06-01T08:05:31Z</time>
      </trkpt>
      <trkpt lat="42.334189" lon="1.783510">
        <ele>1114.454</ele>
        <time>2019-06-01T08:05:37Z</time>
      </trkpt>
      <trkpt lat="42.334171" lon="1.783500">
        <ele>1114.609</ele>
        <time>2019-06-01T08:05:38Z</time>
      </trkpt>
      <trkpt lat="42.334133" lon="1.783470">
        <ele>1115.008</ele>
        <time>2019-06-01T08:05:41Z</time>
      </trkpt>
      <trkpt lat="42.334117" lon="1.783467">
        <ele>1115.264</ele>
        <time>2019-06-01T08:05:42Z</time>
      </trkpt>
      <trkpt lat="42.334104" lon="1.783460">
        <ele>1115.658</ele>
        <time>2019-06-01T08:05:43Z</time>
      </trkpt>
      <trkpt lat="42.334045" lon="1.783435">
        <ele>1116.284</ele>
        <time>2019-06-01T08:05:47Z</time>
      </trkpt>
      <trkpt lat="42.334022" lon="1.783428">
        <ele>1116.482</ele>
        <time>2019-06-01T08:05:49Z</time>
      </trkpt>
      <trkpt lat="42.334009" lon="1.783425">
        <ele>1116.666</ele>
        <time>2019-06-01T08:05:50Z</time>
      </trkpt>
      <trkpt lat="42.333715" lon="1.783446">
        <ele>1120.833</ele>
        <time>2019-06-01T08:06:13Z</time>
      </trkpt>
      <trkpt lat="42.333568" lon="1.783515">
        <ele>1123.071</ele>
        <time>2019-06-01T08:06:25Z</time>
      </trkpt>
      <trkpt lat="42.333554" lon="1.783516">
        <ele>1123.012</ele>
        <time>2019-06-01T08:06:26Z</time>
      </trkpt>
      <trkpt lat="42.333490" lon="1.783545">
        <ele>1123.865</ele>
        <time>2019-06-01T08:06:30Z</time>
      </trkpt>
      <trkpt lat="42.333447" lon="1.783568">
        <ele>1124.068</ele>
        <time>2019-06-01T08:06:33Z</time>
      </trkpt>
      <trkpt lat="42.333428" lon="1.783575">
        <ele>1124.214</ele>
        <time>2019-06-01T08:06:34Z</time>
      </trkpt>
      <trkpt lat="42.333348" lon="1.783632">
        <ele>1124.808</ele>
        <time>2019-06-01T08:06:38Z</time>
      </trkpt>
      <trkpt lat="42.333288" lon="1.783660">
        <ele>1125.269</ele>
        <time>2019-06-01T08:06:41Z</time>
      </trkpt>
      <trkpt lat="42.333218" lon="1.783692">
        <ele>1126.093</ele>
        <time>2019-06-01T08:06:45Z</time>
      </trkpt>
      <trkpt lat="42.333177" lon="1.783712">
        <ele>1126.289</ele>
        <time>2019-06-01T08:06:47Z</time>
      </trkpt>
      <trkpt lat="42.333057" lon="1.783746">
        <ele>1126.887</ele>
        <time>2019-06-01T08:06:53Z</time>
      </trkpt>
      <trkpt lat="42.333011" lon="1.783760">
        <ele>1127.271</ele>
        <time>2019-06-01T08:06:56Z</time>
      </trkpt>
      <trkpt lat="42.332948" lon="1.783818">
        <ele>1128.248</ele>
        <time>2019-06-01T08:07:02Z</time>
      </trkpt>
      <trkpt lat="42.332937" lon="1.783825">
        <ele>1128.246</ele>
        <time>2019-06-01T08:07:03Z</time>
      </trkpt>
      <trkpt lat="42.332831" lon="1.783906">
        <ele>1129.227</ele>
        <time>2019-06-01T08:07:11Z</time>
      </trkpt>
      <trkpt lat="42.332823" lon="1.783924">
        <ele>1129.285</ele>
        <time>2019-06-01T08:07:12Z</time>
      </trkpt>
      <trkpt lat="42.332787" lon="1.783931">
        <ele>1129.489</ele>
        <time>2019-06-01T08:07:14Z</time>
      </trkpt>
      <trkpt lat="42.332723" lon="1.783952">
        <ele>1129.817</ele>
        <time>2019-06-01T08:07:17Z</time>
      </trkpt>
      <trkpt lat="42.332709" lon="1.783960">
        <ele>1129.808</ele>
        <time>2019-06-01T08:07:18Z</time>
      </trkpt>
      <trkpt lat="42.332677" lon="1.783975">
        <ele>1130.251</ele>
        <time>2019-06-01T08:07:20Z</time>
      </trkpt>
      <trkpt lat="42.332603" lon="1.783997">
        <ele>1130.855</ele>
        <time>2019-06-01T08:07:25Z</time>
      </trkpt>
      <trkpt lat="42.332587" lon="1.783996">
        <ele>1130.881</ele>
        <time>2019-06-01T08:07:26Z</time>
      </trkpt>
      <trkpt lat="42.332486" lon="1.783994">
        <ele>1131.279</ele>
        <time>2019-06-01T08:07:33Z</time>
      </trkpt>
      <trkpt lat="42.332442" lon="1.784003">
        <ele>1131.853</ele>
        <time>2019-06-01T08:07:36Z</time>
      </trkpt>
      <trkpt lat="42.332368" lon="1.784028">
        <ele>1132.090</ele>
        <time>2019-06-01T08:07:41Z</time>
      </trkpt>
      <trkpt lat="42.332329" lon="1.784041">
        <ele>1132.258</ele>
        <time>2019-06-01T08:07:44Z</time>
      </trkpt>
      <trkpt lat="42.332285" lon="1.784049">
        <ele>1132.699</ele>
        <time>2019-06-01T08:07:47Z</time>
      </trkpt>
      <trkpt lat="42.332272" lon="1.784053">
        <ele>1132.821</ele>
        <time>2019-06-01T08:07:48Z</time>
      </trkpt>
      <trkpt lat="42.332258" lon="1.784053">
        <ele>1132.841</ele>
        <time>2019-06-01T08:07:49Z</time>
      </trkpt>
      <trkpt lat="42.332205" lon="1.784049">
        <ele>1133.405</ele>
        <time>2019-06-01T08:07:53Z</time>
      </trkpt>
      <trkpt lat="42.332185" lon="1.784032">
        <ele>1133.608</ele>
        <time>2019-06-01T08:07:55Z</time>
      </trkpt>
      <trkpt lat="42.332165" lon="1.784031">
        <ele>1133.665</ele>
        <time>2019-06-01T08:07:56Z</time>
      </trkpt>
      <trkpt lat="42.332066" lon="1.783981">
        <ele>1133.059</ele>
        <time>2019-06-01T08:08:00Z</time>
      </trkpt>
      <trkpt lat="42.331920" lon="1.783921">
        <ele>1132.625</ele>
        <time>2019-06-01T08:08:04Z</time>
      </trkpt>
      <trkpt lat="42.331753" lon="1.783858">
        <ele>1132.813</ele>
        <time>2019-06-01T08:08:09Z</time>
      </trkpt>
      <trkpt lat="42.331634" lon="1.783851">
        <ele>1132.887</ele>
        <time>2019-06-01T08:08:12Z</time>
      </trkpt>
      <trkpt lat="42.331549" lon="1.783850">
        <ele>1132.834</ele>
        <time>2019-06-01T08:08:14Z</time>
      </trkpt>
      <trkpt lat="42.331508" lon="1.783858">
        <ele>1132.872</ele>
        <time>2019-06-01T08:08:15Z</time>
      </trkpt>
      <trkpt lat="42.331331" lon="1.783903">
        <ele>1133.813</ele>
        <time>2019-06-01T08:08:20Z</time>
      </trkpt>
      <trkpt lat="42.331297" lon="1.783911">
        <ele>1133.878</ele>
        <time>2019-06-01T08:08:21Z</time>
      </trkpt>
      <trkpt lat="42.331079" lon="1.783972">
        <ele>1134.233</ele>
        <time>2019-06-01T08:08:27Z</time>
      </trkpt>
      <trkpt lat="42.330945" lon="1.784006">
        <ele>1135.026</ele>
        <time>2019-06-01T08:08:32Z</time>
      </trkpt>
      <trkpt lat="42.330886" lon="1.784015">
        <ele>1135.208</ele>
        <time>2019-06-01T08:08:35Z</time>
      </trkpt>
      <trkpt lat="42.330797" lon="1.784002">
        <ele>1135.840</ele>
        <time>2019-06-01T08:08:42Z</time>
      </trkpt>
      <trkpt lat="42.330766" lon="1.783992">
        <ele>1136.214</ele>
        <time>2019-06-01T08:08:45Z</time>
      </trkpt>
      <trkpt lat="42.330712" lon="1.784015">
        <ele>1136.660</ele>
        <time>2019-06-01T08:08:49Z</time>
      </trkpt>
      <trkpt lat="42.330655" lon="1.784046">
        <ele>1137.258</ele>
        <time>2019-06-01T08:08:53Z</time>
      </trkpt>
      <trkpt lat="42.330600" lon="1.784097">
        <ele>1137.632</ele>
        <time>2019-06-01T08:08:58Z</time>
      </trkpt>
      <trkpt lat="42.330596" lon="1.784186">
        <ele>1138.269</ele>
        <time>2019-06-01T08:09:05Z</time>
      </trkpt>
      <trkpt lat="42.330542" lon="1.784265">
        <ele>1138.697</ele>
        <time>2019-06-01T08:09:11Z</time>
      </trkpt>
      <trkpt lat="42.330482" lon="1.784318">
        <ele>1139.498</ele>
        <time>2019-06-01T08:09:16Z</time>
      </trkpt>
      <trkpt lat="42.330444" lon="1.784347">
        <ele>1139.684</ele>
        <time>2019-06-01T08:09:19Z</time>
      </trkpt>
      <trkpt lat="42.330361" lon="1.784384">
        <ele>1140.407</ele>
        <time>2019-06-01T08:09:25Z</time>
      </trkpt>
      <trkpt lat="42.330346" lon="1.784398">
        <ele>1140.617</ele>
        <time>2019-06-01T08:09:26Z</time>
      </trkpt>
      <trkpt lat="42.330331" lon="1.784408">
        <ele>1140.608</ele>
        <time>2019-06-01T08:09:27Z</time>
      </trkpt>
      <trkpt lat="42.330287" lon="1.784430">
        <ele>1141.071</ele>
        <time>2019-06-01T08:09:31Z</time>
      </trkpt>
      <trkpt lat="42.330261" lon="1.784446">
        <ele>1141.625</ele>
        <time>2019-06-01T08:09:34Z</time>
      </trkpt>
      <trkpt lat="42.330218" lon="1.784431">
        <ele>1141.811</ele>
        <time>2019-06-01T08:09:38Z</time>
      </trkpt>
      <trkpt lat="42.330049" lon="1.784288">
        <ele>1146.499</ele>
        <time>2019-06-01T08:10:14Z</time>
      </trkpt>
      <trkpt lat="42.330023" lon="1.784295">
        <ele>1146.433</ele>
        <time>2019-06-01T08:10:16Z</time>
      </trkpt>
      <trkpt lat="42.329919" lon="1.784302">
        <ele>1147.440</ele>
        <time>2019-06-01T08:10:22Z</time>
      </trkpt>
      <trkpt lat="42.329898" lon="1.784297">
        <ele>1147.628</ele>
        <time>2019-06-01T08:10:23Z</time>
      </trkpt>
      <trkpt lat="42.329776" lon="1.784276">
        <ele>1148.679</ele>
        <time>2019-06-01T08:10:30Z</time>
      </trkpt>
      <trkpt lat="42.329685" lon="1.784319">
        <ele>1149.276</ele>
        <time>2019-06-01T08:10:36Z</time>
      </trkpt>
      <trkpt lat="42.329586" lon="1.784313">
        <ele>1149.890</ele>
        <time>2019-06-01T08:10:40Z</time>
      </trkpt>
      <trkpt lat="42.329517" lon="1.784309">
        <ele>1150.019</ele>
        <time>2019-06-01T08:10:43Z</time>
      </trkpt>
      <trkpt lat="42.329420" lon="1.784270">
        <ele>1150.808</ele>
        <time>2019-06-01T08:10:48Z</time>
      </trkpt>
      <trkpt lat="42.329388" lon="1.784251">
        <ele>1151.230</ele>
        <time>2019-06-01T08:10:50Z</time>
      </trkpt>
      <trkpt lat="42.329322" lon="1.784167">
        <ele>1152.064</ele>
        <time>2019-06-01T08:10:57Z</time>
      </trkpt>
      <trkpt lat="42.329274" lon="1.784106">
        <ele>1152.860</ele>
        <time>2019-06-01T08:11:04Z</time>
      </trkpt>
      <trkpt lat="42.329248" lon="1.784089">
        <ele>1153.068</ele>
        <time>2019-06-01T08:11:06Z</time>
      </trkpt>
      <trkpt lat="42.329171" lon="1.784045">
        <ele>1153.672</ele>
        <time>2019-06-01T08:11:10Z</time>
      </trkpt>
      <trkpt lat="42.329144" lon="1.784025">
        <ele>1153.879</ele>
        <time>2019-06-01T08:11:11Z</time>
      </trkpt>
      <trkpt lat="42.329110" lon="1.784001">
        <ele>1154.027</ele>
        <time>2019-06-01T08:11:12Z</time>
      </trkpt>
      <trkpt lat="42.328902" lon="1.783843">
        <ele>1155.018</ele>
        <time>2019-06-01T08:11:18Z</time>
      </trkpt>
      <trkpt lat="42.328818" lon="1.783736">
        <ele>1155.642</ele>
        <time>2019-06-01T08:11:24Z</time>
      </trkpt>
      <trkpt lat="42.328790" lon="1.783684">
        <ele>1156.222</ele>
        <time>2019-06-01T08:11:29Z</time>
      </trkpt>
      <trkpt lat="42.328781" lon="1.783645">
        <ele>1156.614</ele>
        <time>2019-06-01T08:11:32Z</time>
      </trkpt>
      <trkpt lat="42.328749" lon="1.783603">
        <ele>1157.208</ele>
        <time>2019-06-01T08:11:36Z</time>
      </trkpt>
      <trkpt lat="42.328712" lon="1.783571">
        <ele>1157.687</ele>
        <time>2019-06-01T08:11:40Z</time>
      </trkpt>
      <trkpt lat="42.328700" lon="1.783565">
        <ele>1157.841</ele>
        <time>2019-06-01T08:11:41Z</time>
      </trkpt>
      <trkpt lat="42.328654" lon="1.783531">
        <ele>1158.247</ele>
        <time>2019-06-01T08:11:46Z</time>
      </trkpt>
      <trkpt lat="42.328640" lon="1.783526">
        <ele>1158.435</ele>
        <time>2019-06-01T08:11:47Z</time>
      </trkpt>
      <trkpt lat="42.328590" lon="1.783517">
        <ele>1158.619</ele>
        <time>2019-06-01T08:11:51Z</time>
      </trkpt>
      <trkpt lat="42.328549" lon="1.783498">
        <ele>1159.046</ele>
        <time>2019-06-01T08:11:54Z</time>
      </trkpt>
      <trkpt lat="42.328516" lon="1.783476">
        <ele>1159.614</ele>
        <time>2019-06-01T08:11:56Z</time>
      </trkpt>
      <trkpt lat="42.328442" lon="1.783437">
        <ele>1160.025</ele>
        <time>2019-06-01T08:12:01Z</time>
      </trkpt>
      <trkpt lat="42.328380" lon="1.783410">
        <ele>1160.677</ele>
        <time>2019-06-01T08:12:05Z</time>
      </trkpt>
      <trkpt lat="42.328118" lon="1.783348">
        <ele>1161.061</ele>
        <time>2019-06-01T08:12:10Z</time>
      </trkpt>
      <trkpt lat="42.328082" lon="1.783349">
        <ele>1161.627</ele>
        <time>2019-06-01T08:12:14Z</time>
      </trkpt>
      <trkpt lat="42.328073" lon="1.783352">
        <ele>1162.008</ele>
        <time>2019-06-01T08:12:17Z</time>
      </trkpt>
      <trkpt lat="42.327996" lon="1.783310">
        <ele>1162.840</ele>
        <time>2019-06-01T08:12:20Z</time>
      </trkpt>
      <trkpt lat="42.327866" lon="1.783206">
        <ele>1163.484</ele>
        <time>2019-06-01T08:12:24Z</time>
      </trkpt>
      <trkpt lat="42.327826" lon="1.783162">
        <ele>1163.810</ele>
        <time>2019-06-01T08:12:26Z</time>
      </trkpt>
      <trkpt lat="42.327754" lon="1.783114">
        <ele>1164.448</ele>
        <time>2019-06-01T08:12:30Z</time>
      </trkpt>
      <trkpt lat="42.327695" lon="1.783074">
        <ele>1164.882</ele>
        <time>2019-06-01T08:12:34Z</time>
      </trkpt>
      <trkpt lat="42.327669" lon="1.783029">
        <ele>1165.219</ele>
        <time>2019-06-01T08:12:37Z</time>
      </trkpt>
      <trkpt lat="42.327636" lon="1.782986">
        <ele>1165.657</ele>
        <time>2019-06-01T08:12:40Z</time>
      </trkpt>
      <trkpt lat="42.327604" lon="1.782972">
        <ele>1165.838</ele>
        <time>2019-06-01T08:12:41Z</time>
      </trkpt>
      <trkpt lat="42.327556" lon="1.782945">
        <ele>1166.283</ele>
        <time>2019-06-01T08:12:43Z</time>
      </trkpt>
      <trkpt lat="42.327516" lon="1.782927">
        <ele>1166.825</ele>
        <time>2019-06-01T08:12:45Z</time>
      </trkpt>
      <trkpt lat="42.327439" lon="1.782904">
        <ele>1167.217</ele>
        <time>2019-06-01T08:12:49Z</time>
      </trkpt>
      <trkpt lat="42.327344" lon="1.782873">
        <ele>1168.008</ele>
        <time>2019-06-01T08:12:55Z</time>
      </trkpt>
      <trkpt lat="42.327335" lon="1.782870">
        <ele>1168.061</ele>
        <time>2019-06-01T08:12:56Z</time>
      </trkpt>
      <trkpt lat="42.327263" lon="1.782842">
        <ele>1168.625</ele>
        <time>2019-06-01T08:13:01Z</time>
      </trkpt>
      <trkpt lat="42.327237" lon="1.782827">
        <ele>1169.041</ele>
        <time>2019-06-01T08:13:03Z</time>
      </trkpt>
      <trkpt lat="42.327226" lon="1.782816">
        <ele>1169.029</ele>
        <time>2019-06-01T08:13:04Z</time>
      </trkpt>
      <trkpt lat="42.327177" lon="1.782761">
        <ele>1170.093</ele>
        <time>2019-06-01T08:13:09Z</time>
      </trkpt>
      <trkpt lat="42.327112" lon="1.782693">
        <ele>1171.020</ele>
        <time>2019-06-01T08:13:15Z</time>
      </trkpt>
      <trkpt lat="42.327086" lon="1.782673">
        <ele>1171.438</ele>
        <time>2019-06-01T08:13:17Z</time>
      </trkpt>
      <trkpt lat="42.327010" lon="1.782650">
        <ele>1172.279</ele>
        <time>2019-06-01T08:13:23Z</time>
      </trkpt>
      <trkpt lat="42.326894" lon="1.782690">
        <ele>1173.057</ele>
        <time>2019-06-01T08:13:30Z</time>
      </trkpt>
      <trkpt lat="42.326867" lon="1.782711">
        <ele>1173.200</ele>
        <time>2019-06-01T08:13:32Z</time>
      </trkpt>
      <trkpt lat="42.326805" lon="1.782763">
        <ele>1173.820</ele>
        <time>2019-06-01T08:13:37Z</time>
      </trkpt>
      <trkpt lat="42.326759" lon="1.782800">
        <ele>1174.208</ele>
        <time>2019-06-01T08:13:41Z</time>
      </trkpt>
      <trkpt lat="42.326721" lon="1.782823">
        <ele>1174.618</ele>
        <time>2019-06-01T08:13:44Z</time>
      </trkpt>
      <trkpt lat="42.326682" lon="1.782817">
        <ele>1174.882</ele>
        <time>2019-06-01T08:13:47Z</time>
      </trkpt>
      <trkpt lat="42.326637" lon="1.782823">
        <ele>1175.238</ele>
        <time>2019-06-01T08:13:50Z</time>
      </trkpt>
      <trkpt lat="42.326627" lon="1.782827">
        <ele>1175.416</ele>
        <time>2019-06-01T08:13:51Z</time>
      </trkpt>
      <trkpt lat="42.326544" lon="1.782825">
        <ele>1175.890</ele>
        <time>2019-06-01T08:13:56Z</time>
      </trkpt>
      <trkpt lat="42.326457" lon="1.782805">
        <ele>1176.477</ele>
        <time>2019-06-01T08:14:02Z</time>
      </trkpt>
      <trkpt lat="42.326423" lon="1.782792">
        <ele>1176.465</ele>
        <time>2019-06-01T08:14:04Z</time>
      </trkpt>
      <trkpt lat="42.326337" lon="1.782773">
        <ele>1177.266</ele>
        <time>2019-06-01T08:14:09Z</time>
      </trkpt>
      <trkpt lat="42.326291" lon="1.782752">
        <ele>1177.658</ele>
        <time>2019-06-01T08:14:12Z</time>
      </trkpt>
      <trkpt lat="42.326226" lon="1.782731">
        <ele>1178.252</ele>
        <time>2019-06-01T08:14:16Z</time>
      </trkpt>
      <trkpt lat="42.326181" lon="1.782722">
        <ele>1179.017</ele>
        <time>2019-06-01T08:14:19Z</time>
      </trkpt>
      <trkpt lat="42.326129" lon="1.782708">
        <ele>1179.608</ele>
        <time>2019-06-01T08:14:22Z</time>
      </trkpt>
      <trkpt lat="42.326071" lon="1.782681">
        <ele>1180.018</ele>
        <time>2019-06-01T08:14:26Z</time>
      </trkpt>
      <trkpt lat="42.326026" lon="1.782662">
        <ele>1180.242</ele>
        <time>2019-06-01T08:14:29Z</time>
      </trkpt>
      <trkpt lat="42.326010" lon="1.782659">
        <ele>1180.288</ele>
        <time>2019-06-01T08:14:30Z</time>
      </trkpt>
      <trkpt lat="42.325929" lon="1.782631">
        <ele>1180.886</ele>
        <time>2019-06-01T08:14:35Z</time>
      </trkpt>
      <trkpt lat="42.325906" lon="1.782606">
        <ele>1181.010</ele>
        <time>2019-06-01T08:14:37Z</time>
      </trkpt>
      <trkpt lat="42.325836" lon="1.782556">
        <ele>1181.857</ele>
        <time>2019-06-01T08:14:42Z</time>
      </trkpt>
      <trkpt lat="42.325809" lon="1.782536">
        <ele>1182.295</ele>
        <time>2019-06-01T08:14:44Z</time>
      </trkpt>
      <trkpt lat="42.325761" lon="1.782523">
        <ele>1182.866</ele>
        <time>2019-06-01T08:14:47Z</time>
      </trkpt>
      <trkpt lat="42.325707" lon="1.782513">
        <ele>1183.297</ele>
        <time>2019-06-01T08:14:51Z</time>
      </trkpt>
      <trkpt lat="42.325638" lon="1.782516">
        <ele>1184.023</ele>
        <time>2019-06-01T08:14:55Z</time>
      </trkpt>
      <trkpt lat="42.325589" lon="1.782524">
        <ele>1184.425</ele>
        <time>2019-06-01T08:14:58Z</time>
      </trkpt>
      <trkpt lat="42.325539" lon="1.782536">
        <ele>1185.008</ele>
        <time>2019-06-01T08:15:01Z</time>
      </trkpt>
      <trkpt lat="42.325481" lon="1.782563">
        <ele>1185.492</ele>
        <time>2019-06-01T08:15:04Z</time>
      </trkpt>
      <trkpt lat="42.325505" lon="1.782632">
        <ele>1185.616</ele>
        <time>2019-06-01T08:15:06Z</time>
      </trkpt>
      <trkpt lat="42.325435" lon="1.782666">
        <ele>1186.432</ele>
        <time>2019-06-01T08:15:11Z</time>
      </trkpt>
      <trkpt lat="42.325419" lon="1.782666">
        <ele>1186.410</ele>
        <time>2019-06-01T08:15:12Z</time>
      </trkpt>
      <trkpt lat="42.325346" lon="1.782669">
        <ele>1187.294</ele>
        <time>2019-06-01T08:15:16Z</time>
      </trkpt>
      <trkpt lat="42.325305" lon="1.782664">
        <ele>1187.611</ele>
        <time>2019-06-01T08:15:18Z</time>
      </trkpt>
      <trkpt lat="42.325239" lon="1.782666">
        <ele>1187.899</ele>
        <time>2019-06-01T08:15:21Z</time>
      </trkpt>
      <trkpt lat="42.325110" lon="1.782645">
        <ele>1188.290</ele>
        <time>2019-06-01T08:15:27Z</time>
      </trkpt>
      <trkpt lat="42.325076" lon="1.782662">
        <ele>1189.037</ele>
        <time>2019-06-01T08:15:30Z</time>
      </trkpt>
      <trkpt lat="42.325033" lon="1.782683">
        <ele>1190.249</ele>
        <time>2019-06-01T08:15:33Z</time>
      </trkpt>
      <trkpt lat="42.324921" lon="1.782715">
        <ele>1190.613</ele>
        <time>2019-06-01T08:15:39Z</time>
      </trkpt>
      <trkpt lat="42.324897" lon="1.782713">
        <ele>1190.808</ele>
        <time>2019-06-01T08:15:40Z</time>
      </trkpt>
      <trkpt lat="42.324860" lon="1.782756">
        <ele>1191.066</ele>
        <time>2019-06-01T08:15:43Z</time>
      </trkpt>
      <trkpt lat="42.324855" lon="1.782772">
        <ele>1191.260</ele>
        <time>2019-06-01T08:15:44Z</time>
      </trkpt>
      <trkpt lat="42.324810" lon="1.782836">
        <ele>1192.056</ele>
        <time>2019-06-01T08:15:49Z</time>
      </trkpt>
      <trkpt lat="42.324787" lon="1.782898">
        <ele>1192.274</ele>
        <time>2019-06-01T08:15:53Z</time>
      </trkpt>
      <trkpt lat="42.324779" lon="1.782928">
        <ele>1192.628</ele>
        <time>2019-06-01T08:15:55Z</time>
      </trkpt>
      <trkpt lat="42.324758" lon="1.782977">
        <ele>1193.255</ele>
        <time>2019-06-01T08:15:58Z</time>
      </trkpt>
      <trkpt lat="42.324723" lon="1.783046">
        <ele>1194.223</ele>
        <time>2019-06-01T08:16:03Z</time>
      </trkpt>
      <trkpt lat="42.324720" lon="1.783062">
        <ele>1194.494</ele>
        <time>2019-06-01T08:16:04Z</time>
      </trkpt>
      <trkpt lat="42.324719" lon="1.783167">
        <ele>1195.429</ele>
        <time>2019-06-01T08:16:09Z</time>
      </trkpt>
      <trkpt lat="42.324717" lon="1.783192">
        <ele>1195.600</ele>
        <time>2019-06-01T08:16:10Z</time>
      </trkpt>
      <trkpt lat="42.324701" lon="1.783230">
        <ele>1196.020</ele>
        <time>2019-06-01T08:16:12Z</time>
      </trkpt>
      <trkpt lat="42.324674" lon="1.783297">
        <ele>1196.808</ele>
        <time>2019-06-01T08:16:16Z</time>
      </trkpt>
      <trkpt lat="42.324665" lon="1.783311">
        <ele>1196.895</ele>
        <time>2019-06-01T08:16:17Z</time>
      </trkpt>
      <trkpt lat="42.324656" lon="1.783321">
        <ele>1197.029</ele>
        <time>2019-06-01T08:16:18Z</time>
      </trkpt>
      <trkpt lat="42.324598" lon="1.783355">
        <ele>1197.875</ele>
        <time>2019-06-01T08:16:23Z</time>
      </trkpt>
      <trkpt lat="42.324570" lon="1.783349">
        <ele>1198.053</ele>
        <time>2019-06-01T08:16:25Z</time>
      </trkpt>
      <trkpt lat="42.324547" lon="1.783333">
        <ele>1198.417</ele>
        <time>2019-06-01T08:16:27Z</time>
      </trkpt>
      <trkpt lat="42.324525" lon="1.783308">
        <ele>1198.664</ele>
        <time>2019-06-01T08:16:29Z</time>
      </trkpt>
      <trkpt lat="42.324493" lon="1.783238">
        <ele>1199.042</ele>
        <time>2019-06-01T08:16:33Z</time>
      </trkpt>
      <trkpt lat="42.324467" lon="1.783189">
        <ele>1198.223</ele>
        <time>2019-06-01T08:16:36Z</time>
      </trkpt>
      <trkpt lat="42.324388" lon="1.783112">
        <ele>1199.622</ele>
        <time>2019-06-01T08:16:43Z</time>
      </trkpt>
      <trkpt lat="42.324350" lon="1.783086">
        <ele>1200.062</ele>
        <time>2019-06-01T08:16:46Z</time>
      </trkpt>
      <trkpt lat="42.324299" lon="1.783044">
        <ele>1200.808</ele>
        <time>2019-06-01T08:16:51Z</time>
      </trkpt>
      <trkpt lat="42.324267" lon="1.783020">
        <ele>1201.208</ele>
        <time>2019-06-01T08:16:54Z</time>
      </trkpt>
      <trkpt lat="42.324215" lon="1.782997">
        <ele>1201.815</ele>
        <time>2019-06-01T08:16:59Z</time>
      </trkpt>
      <trkpt lat="42.324205" lon="1.783001">
        <ele>1202.049</ele>
        <time>2019-06-01T08:17:00Z</time>
      </trkpt>
      <trkpt lat="42.324188" lon="1.782987">
        <ele>1202.495</ele>
        <time>2019-06-01T08:17:02Z</time>
      </trkpt>
      <trkpt lat="42.324155" lon="1.782965">
        <ele>1203.053</ele>
        <time>2019-06-01T08:17:05Z</time>
      </trkpt>
      <trkpt lat="42.324140" lon="1.782950">
        <ele>1203.017</ele>
        <time>2019-06-01T08:17:06Z</time>
      </trkpt>
      <trkpt lat="42.324107" lon="1.782919">
        <ele>1203.644</ele>
        <time>2019-06-01T08:17:08Z</time>
      </trkpt>
      <trkpt lat="42.324070" lon="1.782900">
        <ele>1204.222</ele>
        <time>2019-06-01T08:17:11Z</time>
      </trkpt>
      <trkpt lat="42.324017" lon="1.782872">
        <ele>1204.873</ele>
        <time>2019-06-01T08:17:14Z</time>
      </trkpt>
      <trkpt lat="42.323941" lon="1.782810">
        <ele>1205.665</ele>
        <time>2019-06-01T08:17:19Z</time>
      </trkpt>
      <trkpt lat="42.323928" lon="1.782805">
        <ele>1205.868</ele>
        <time>2019-06-01T08:17:20Z</time>
      </trkpt>
      <trkpt lat="42.323857" lon="1.782723">
        <ele>1206.814</ele>
        <time>2019-06-01T08:17:27Z</time>
      </trkpt>
      <trkpt lat="42.323848" lon="1.782713">
        <ele>1207.008</ele>
        <time>2019-06-01T08:17:28Z</time>
      </trkpt>
      <trkpt lat="42.323775" lon="1.782652">
        <ele>1208.059</ele>
        <time>2019-06-01T08:17:34Z</time>
      </trkpt>
      <trkpt lat="42.323764" lon="1.782641">
        <ele>1208.033</ele>
        <time>2019-06-01T08:17:35Z</time>
      </trkpt>
      <trkpt lat="42.323728" lon="1.782587">
        <ele>1208.629</ele>
        <time>2019-06-01T08:17:39Z</time>
      </trkpt>
      <trkpt lat="42.323704" lon="1.782551">
        <ele>1208.877</ele>
        <time>2019-06-01T08:17:42Z</time>
      </trkpt>
      <trkpt lat="42.323695" lon="1.782540">
        <ele>1209.031</ele>
        <time>2019-06-01T08:17:43Z</time>
      </trkpt>
      <trkpt lat="42.323643" lon="1.782459">
        <ele>1210.098</ele>
        <time>2019-06-01T08:17:50Z</time>
      </trkpt>
      <trkpt lat="42.323635" lon="1.782447">
        <ele>1210.276</ele>
        <time>2019-06-01T08:17:51Z</time>
      </trkpt>
      <trkpt lat="42.323566" lon="1.782372">
        <ele>1211.257</ele>
        <time>2019-06-01T08:17:58Z</time>
      </trkpt>
      <trkpt lat="42.323554" lon="1.782359">
        <ele>1211.282</ele>
        <time>2019-06-01T08:17:59Z</time>
      </trkpt>
      <trkpt lat="42.323476" lon="1.782265">
        <ele>1212.043</ele>
        <time>2019-06-01T08:18:07Z</time>
      </trkpt>
      <trkpt lat="42.323413" lon="1.782205">
        <ele>1212.217</ele>
        <time>2019-06-01T08:18:12Z</time>
      </trkpt>
      <trkpt lat="42.323397" lon="1.782193">
        <ele>1212.408</ele>
        <time>2019-06-01T08:18:13Z</time>
      </trkpt>
      <trkpt lat="42.323275" lon="1.782114">
        <ele>1212.641</ele>
        <time>2019-06-01T08:18:21Z</time>
      </trkpt>
      <trkpt lat="42.323186" lon="1.782072">
        <ele>1213.065</ele>
        <time>2019-06-01T08:18:27Z</time>
      </trkpt>
      <trkpt lat="42.323086" lon="1.782077">
        <ele>1213.291</ele>
        <time>2019-06-01T08:18:33Z</time>
      </trkpt>
      <trkpt lat="42.322978" lon="1.782081">
        <ele>1213.639</ele>
        <time>2019-06-01T08:18:39Z</time>
      </trkpt>
      <trkpt lat="42.322909" lon="1.782075">
        <ele>1213.853</ele>
        <time>2019-06-01T08:18:43Z</time>
      </trkpt>
      <trkpt lat="42.322873" lon="1.782082">
        <ele>1214.080</ele>
        <time>2019-06-01T08:18:45Z</time>
      </trkpt>
      <trkpt lat="42.322778" lon="1.782103">
        <ele>1214.488</ele>
        <time>2019-06-01T08:18:50Z</time>
      </trkpt>
      <trkpt lat="42.322745" lon="1.782111">
        <ele>1214.459</ele>
        <time>2019-06-01T08:18:52Z</time>
      </trkpt>
      <trkpt lat="42.322632" lon="1.782136">
        <ele>1214.895</ele>
        <time>2019-06-01T08:18:58Z</time>
      </trkpt>
      <trkpt lat="42.322613" lon="1.782142">
        <ele>1214.849</ele>
        <time>2019-06-01T08:18:59Z</time>
      </trkpt>
      <trkpt lat="42.322460" lon="1.782168">
        <ele>1214.623</ele>
        <time>2019-06-01T08:19:07Z</time>
      </trkpt>
      <trkpt lat="42.322399" lon="1.782172">
        <ele>1215.408</ele>
        <time>2019-06-01T08:19:10Z</time>
      </trkpt>
      <trkpt lat="42.322321" lon="1.782167">
        <ele>1216.462</ele>
        <time>2019-06-01T08:19:14Z</time>
      </trkpt>
      <trkpt lat="42.322160" lon="1.782154">
        <ele>1216.026</ele>
        <time>2019-06-01T08:19:22Z</time>
      </trkpt>
      <trkpt lat="42.321998" lon="1.782115">
        <ele>1216.272</ele>
        <time>2019-06-01T08:19:29Z</time>
      </trkpt>
      <trkpt lat="42.321861" lon="1.781994">
        <ele>1216.030</ele>
        <time>2019-06-01T08:19:36Z</time>
      </trkpt>
      <trkpt lat="42.321767" lon="1.781903">
        <ele>1216.044</ele>
        <time>2019-06-01T08:19:41Z</time>
      </trkpt>
      <trkpt lat="42.321626" lon="1.781819">
        <ele>1215.841</ele>
        <time>2019-06-01T08:19:47Z</time>
      </trkpt>
      <trkpt lat="42.321487" lon="1.781816">
        <ele>1216.019</ele>
        <time>2019-06-01T08:19:52Z</time>
      </trkpt>
      <trkpt lat="42.321342" lon="1.781900">
        <ele>1216.210</ele>
        <time>2019-06-01T08:19:58Z</time>
      </trkpt>
      <trkpt lat="42.321221" lon="1.781956">
        <ele>1216.612</ele>
        <time>2019-06-01T08:20:03Z</time>
      </trkpt>
      <trkpt lat="42.321200" lon="1.781969">
        <ele>1216.632</ele>
        <time>2019-06-01T08:20:04Z</time>
      </trkpt>
      <trkpt lat="42.321083" lon="1.782065">
        <ele>1217.205</ele>
        <time>2019-06-01T08:20:10Z</time>
      </trkpt>
      <trkpt lat="42.321006" lon="1.782144">
        <ele>1217.608</ele>
        <time>2019-06-01T08:20:14Z</time>
      </trkpt>
      <trkpt lat="42.320970" lon="1.782179">
        <ele>1217.474</ele>
        <time>2019-06-01T08:20:16Z</time>
      </trkpt>
      <trkpt lat="42.320880" lon="1.782292">
        <ele>1218.478</ele>
        <time>2019-06-01T08:20:22Z</time>
      </trkpt>
      <trkpt lat="42.320844" lon="1.782316">
        <ele>1218.414</ele>
        <time>2019-06-01T08:20:24Z</time>
      </trkpt>
      <trkpt lat="42.320829" lon="1.782327">
        <ele>1218.642</ele>
        <time>2019-06-01T08:20:25Z</time>
      </trkpt>
      <trkpt lat="42.320712" lon="1.782414">
        <ele>1219.446</ele>
        <time>2019-06-01T08:20:32Z</time>
      </trkpt>
      <trkpt lat="42.320663" lon="1.782451">
        <ele>1219.623</ele>
        <time>2019-06-01T08:20:35Z</time>
      </trkpt>
      <trkpt lat="42.320622" lon="1.782492">
        <ele>1220.241</ele>
        <time>2019-06-01T08:20:38Z</time>
      </trkpt>
      <trkpt lat="42.320508" lon="1.782598">
        <ele>1220.652</ele>
        <time>2019-06-01T08:20:45Z</time>
      </trkpt>
      <trkpt lat="42.320493" lon="1.782614">
        <ele>1220.862</ele>
        <time>2019-06-01T08:20:46Z</time>
      </trkpt>
      <trkpt lat="42.320427" lon="1.782686">
        <ele>1221.483</ele>
        <time>2019-06-01T08:20:51Z</time>
      </trkpt>
      <trkpt lat="42.320369" lon="1.782700">
        <ele>1221.811</ele>
        <time>2019-06-01T08:20:55Z</time>
      </trkpt>
      <trkpt lat="42.320320" lon="1.782707">
        <ele>1222.208</ele>
        <time>2019-06-01T08:20:58Z</time>
      </trkpt>
      <trkpt lat="42.320231" lon="1.782662">
        <ele>1222.829</ele>
        <time>2019-06-01T08:21:04Z</time>
      </trkpt>
      <trkpt lat="42.320215" lon="1.782655">
        <ele>1223.033</ele>
        <time>2019-06-01T08:21:05Z</time>
      </trkpt>
      <trkpt lat="42.320099" lon="1.782615">
        <ele>1223.889</ele>
        <time>2019-06-01T08:21:12Z</time>
      </trkpt>
      <trkpt lat="42.320041" lon="1.782608">
        <ele>1224.037</ele>
        <time>2019-06-01T08:21:15Z</time>
      </trkpt>
      <trkpt lat="42.319941" lon="1.782609">
        <ele>1224.431</ele>
        <time>2019-06-01T08:21:21Z</time>
      </trkpt>
      <trkpt lat="42.319854" lon="1.782614">
        <ele>1225.088</ele>
        <time>2019-06-01T08:21:26Z</time>
      </trkpt>
      <trkpt lat="42.319819" lon="1.782617">
        <ele>1225.236</ele>
        <time>2019-06-01T08:21:28Z</time>
      </trkpt>
      <trkpt lat="42.319769" lon="1.782612">
        <ele>1225.657</ele>
        <time>2019-06-01T08:21:31Z</time>
      </trkpt>
      <trkpt lat="42.319706" lon="1.782606">
        <ele>1226.251</ele>
        <time>2019-06-01T08:21:35Z</time>
      </trkpt>
      <trkpt lat="42.319675" lon="1.782595">
        <ele>1226.201</ele>
        <time>2019-06-01T08:21:37Z</time>
      </trkpt>
      <trkpt lat="42.319573" lon="1.782564">
        <ele>1227.011</ele>
        <time>2019-06-01T08:21:44Z</time>
      </trkpt>
      <trkpt lat="42.319514" lon="1.782556">
        <ele>1227.408</ele>
        <time>2019-06-01T08:21:48Z</time>
      </trkpt>
      <trkpt lat="42.319423" lon="1.782533">
        <ele>1228.098</ele>
        <time>2019-06-01T08:21:54Z</time>
      </trkpt>
      <trkpt lat="42.319323" lon="1.782531">
        <ele>1227.272</ele>
        <time>2019-06-01T08:22:00Z</time>
      </trkpt>
      <trkpt lat="42.319308" lon="1.782530">
        <ele>1228.418</ele>
        <time>2019-06-01T08:22:01Z</time>
      </trkpt>
      <trkpt lat="42.319211" lon="1.782510">
        <ele>1229.266</ele>
        <time>2019-06-01T08:22:07Z</time>
      </trkpt>
      <trkpt lat="42.319181" lon="1.782525">
        <ele>1229.410</ele>
        <time>2019-06-01T08:22:09Z</time>
      </trkpt>
      <trkpt lat="42.319115" lon="1.782520">
        <ele>1229.657</ele>
        <time>2019-06-01T08:22:13Z</time>
      </trkpt>
      <trkpt lat="42.319012" lon="1.782484">
        <ele>1230.655</ele>
        <time>2019-06-01T08:22:20Z</time>
      </trkpt>
      <trkpt lat="42.318881" lon="1.782488">
        <ele>1231.266</ele>
        <time>2019-06-01T08:22:29Z</time>
      </trkpt>
      <trkpt lat="42.318863" lon="1.782500">
        <ele>1231.815</ele>
        <time>2019-06-01T08:22:31Z</time>
      </trkpt>
      <trkpt lat="42.318855" lon="1.782519">
        <ele>1232.065</ele>
        <time>2019-06-01T08:22:32Z</time>
      </trkpt>
      <trkpt lat="42.318826" lon="1.782530">
        <ele>1232.011</ele>
        <time>2019-06-01T08:22:34Z</time>
      </trkpt>
      <trkpt lat="42.318720" lon="1.782569">
        <ele>1232.808</ele>
        <time>2019-06-01T08:22:41Z</time>
      </trkpt>
      <trkpt lat="42.318689" lon="1.782590">
        <ele>1233.014</ele>
        <time>2019-06-01T08:22:43Z</time>
      </trkpt>
      <trkpt lat="42.318594" lon="1.782617">
        <ele>1233.628</ele>
        <time>2019-06-01T08:22:49Z</time>
      </trkpt>
      <trkpt lat="42.318560" lon="1.782635">
        <ele>1234.074</ele>
        <time>2019-06-01T08:22:52Z</time>
      </trkpt>
      <trkpt lat="42.318503" lon="1.782674">
        <ele>1234.452</ele>
        <time>2019-06-01T08:22:56Z</time>
      </trkpt>
      <trkpt lat="42.318412" lon="1.782706">
        <ele>1235.076</ele>
        <time>2019-06-01T08:23:02Z</time>
      </trkpt>
      <trkpt lat="42.318392" lon="1.782716">
        <ele>1234.843</ele>
        <time>2019-06-01T08:23:03Z</time>
      </trkpt>
      <trkpt lat="42.318333" lon="1.782735">
        <ele>1236.071</ele>
        <time>2019-06-01T08:23:08Z</time>
      </trkpt>
      <trkpt lat="42.318322" lon="1.782738">
        <ele>1236.482</ele>
        <time>2019-06-01T08:23:09Z</time>
      </trkpt>
      <trkpt lat="42.318295" lon="1.782736">
        <ele>1236.657</ele>
        <time>2019-06-01T08:23:11Z</time>
      </trkpt>
      <trkpt lat="42.318243" lon="1.782754">
        <ele>1237.200</ele>
        <time>2019-06-01T08:23:14Z</time>
      </trkpt>
      <trkpt lat="42.318224" lon="1.782756">
        <ele>1237.420</ele>
        <time>2019-06-01T08:23:15Z</time>
      </trkpt>
      <trkpt lat="42.318109" lon="1.782803">
        <ele>1237.408</ele>
        <time>2019-06-01T08:23:21Z</time>
      </trkpt>
      <trkpt lat="42.317999" lon="1.782838">
        <ele>1237.818</ele>
        <time>2019-06-01T08:23:26Z</time>
      </trkpt>
      <trkpt lat="42.317950" lon="1.782966">
        <ele>1238.212</ele>
        <time>2019-06-01T08:23:32Z</time>
      </trkpt>
      <trkpt lat="42.317944" lon="1.782986">
        <ele>1238.298</ele>
        <time>2019-06-01T08:23:33Z</time>
      </trkpt>
      <trkpt lat="42.317854" lon="1.783020">
        <ele>1238.656</ele>
        <time>2019-06-01T08:23:39Z</time>
      </trkpt>
      <trkpt lat="42.317760" lon="1.783009">
        <ele>1239.220</ele>
        <time>2019-06-01T08:23:45Z</time>
      </trkpt>
      <trkpt lat="42.317742" lon="1.783013">
        <ele>1239.417</ele>
        <time>2019-06-01T08:23:46Z</time>
      </trkpt>
      <trkpt lat="42.317613" lon="1.783009">
        <ele>1240.065</ele>
        <time>2019-06-01T08:23:54Z</time>
      </trkpt>
      <trkpt lat="42.317582" lon="1.783008">
        <ele>1240.476</ele>
        <time>2019-06-01T08:23:56Z</time>
      </trkpt>
      <trkpt lat="42.317466" lon="1.782977">
        <ele>1241.022</ele>
        <time>2019-06-01T08:24:03Z</time>
      </trkpt>
      <trkpt lat="42.317423" lon="1.782975">
        <ele>1241.462</ele>
        <time>2019-06-01T08:24:06Z</time>
      </trkpt>
      <trkpt lat="42.317341" lon="1.782960">
        <ele>1241.808</ele>
        <time>2019-06-01T08:24:11Z</time>
      </trkpt>
      <trkpt lat="42.317278" lon="1.782947">
        <ele>1242.208</ele>
        <time>2019-06-01T08:24:15Z</time>
      </trkpt>
      <trkpt lat="42.317249" lon="1.782939">
        <ele>1242.665</ele>
        <time>2019-06-01T08:24:17Z</time>
      </trkpt>
      <trkpt lat="42.317218" lon="1.782935">
        <ele>1242.669</ele>
        <time>2019-06-01T08:24:19Z</time>
      </trkpt>
      <trkpt lat="42.317144" lon="1.782922">
        <ele>1243.615</ele>
        <time>2019-06-01T08:24:24Z</time>
      </trkpt>
      <trkpt lat="42.317098" lon="1.782930">
        <ele>1244.023</ele>
        <time>2019-06-01T08:24:27Z</time>
      </trkpt>
      <trkpt lat="42.317031" lon="1.782919">
        <ele>1244.697</ele>
        <time>2019-06-01T08:24:32Z</time>
      </trkpt>
      <trkpt lat="42.316955" lon="1.782909">
        <ele>1245.424</ele>
        <time>2019-06-01T08:24:37Z</time>
      </trkpt>
      <trkpt lat="42.316913" lon="1.782908">
        <ele>1245.842</ele>
        <time>2019-06-01T08:24:40Z</time>
      </trkpt>
      <trkpt lat="42.316874" lon="1.782903">
        <ele>1246.083</ele>
        <time>2019-06-01T08:24:43Z</time>
      </trkpt>
      <trkpt lat="42.316782" lon="1.782909">
        <ele>1247.031</ele>
        <time>2019-06-01T08:24:49Z</time>
      </trkpt>
      <trkpt lat="42.316756" lon="1.782916">
        <ele>1247.261</ele>
        <time>2019-06-01T08:24:51Z</time>
      </trkpt>
      <trkpt lat="42.316651" lon="1.782943">
        <ele>1248.007</ele>
        <time>2019-06-01T08:24:59Z</time>
      </trkpt>
      <trkpt lat="42.316638" lon="1.782948">
        <ele>1248.208</ele>
        <time>2019-06-01T08:25:00Z</time>
      </trkpt>
      <trkpt lat="42.316527" lon="1.782987">
        <ele>1249.236</ele>
        <time>2019-06-01T08:25:08Z</time>
      </trkpt>
      <trkpt lat="42.316497" lon="1.782992">
        <ele>1249.430</ele>
        <time>2019-06-01T08:25:10Z</time>
      </trkpt>
      <trkpt lat="42.316412" lon="1.782990">
        <ele>1250.446</ele>
        <time>2019-06-01T08:25:16Z</time>
      </trkpt>
      <trkpt lat="42.316387" lon="1.782987">
        <ele>1250.694</ele>
        <time>2019-06-01T08:25:18Z</time>
      </trkpt>
      <trkpt lat="42.316311" lon="1.782971">
        <ele>1251.488</ele>
        <time>2019-06-01T08:25:23Z</time>
      </trkpt>
      <trkpt lat="42.316286" lon="1.782951">
        <ele>1251.815</ele>
        <time>2019-06-01T08:25:25Z</time>
      </trkpt>
      <trkpt lat="42.316257" lon="1.782926">
        <ele>1252.443</ele>
        <time>2019-06-01T08:25:28Z</time>
      </trkpt>
      <trkpt lat="42.316245" lon="1.782919">
        <ele>1252.494</ele>
        <time>2019-06-01T08:25:29Z</time>
      </trkpt>
      <trkpt lat="42.316220" lon="1.782911">
        <ele>1252.425</ele>
        <time>2019-06-01T08:25:31Z</time>
      </trkpt>
      <trkpt lat="42.316197" lon="1.782899">
        <ele>1253.226</ele>
        <time>2019-06-01T08:25:33Z</time>
      </trkpt>
      <trkpt lat="42.316178" lon="1.782877">
        <ele>1253.608</ele>
        <time>2019-06-01T08:25:35Z</time>
      </trkpt>
      <trkpt lat="42.316149" lon="1.782847">
        <ele>1254.008</ele>
        <time>2019-06-01T08:25:38Z</time>
      </trkpt>
      <trkpt lat="42.316135" lon="1.782825">
        <ele>1254.275</ele>
        <time>2019-06-01T08:25:40Z</time>
      </trkpt>
      <trkpt lat="42.316114" lon="1.782805">
        <ele>1254.699</ele>
        <time>2019-06-01T08:25:42Z</time>
      </trkpt>
      <trkpt lat="42.316085" lon="1.782767">
        <ele>1255.425</ele>
        <time>2019-06-01T08:25:45Z</time>
      </trkpt>
      <trkpt lat="42.316059" lon="1.782731">
        <ele>1255.653</ele>
        <time>2019-06-01T08:25:48Z</time>
      </trkpt>
      <trkpt lat="42.316019" lon="1.782664">
        <ele>1256.657</ele>
        <time>2019-06-01T08:25:54Z</time>
      </trkpt>
      <trkpt lat="42.316002" lon="1.782652">
        <ele>1256.884</ele>
        <time>2019-06-01T08:25:56Z</time>
      </trkpt>
      <trkpt lat="42.315940" lon="1.782641">
        <ele>1257.052</ele>
        <time>2019-06-01T08:26:00Z</time>
      </trkpt>
      <trkpt lat="42.315909" lon="1.782658">
        <ele>1257.013</ele>
        <time>2019-06-01T08:26:02Z</time>
      </trkpt>
      <trkpt lat="42.315895" lon="1.782671">
        <ele>1257.084</ele>
        <time>2019-06-01T08:26:03Z</time>
      </trkpt>
      <trkpt lat="42.315891" lon="1.782709">
        <ele>1257.207</ele>
        <time>2019-06-01T08:26:05Z</time>
      </trkpt>
      <trkpt lat="42.315906" lon="1.782756">
        <ele>1257.417</ele>
        <time>2019-06-01T08:26:07Z</time>
      </trkpt>
      <trkpt lat="42.315942" lon="1.782802">
        <ele>1257.408</ele>
        <time>2019-06-01T08:26:10Z</time>
      </trkpt>
      <trkpt lat="42.315985" lon="1.782861">
        <ele>1256.651</ele>
        <time>2019-06-01T08:26:14Z</time>
      </trkpt>
      <trkpt lat="42.316030" lon="1.782903">
        <ele>1258.295</ele>
        <time>2019-06-01T08:26:17Z</time>
      </trkpt>
      <trkpt lat="42.316076" lon="1.782952">
        <ele>1258.011</ele>
        <time>2019-06-01T08:26:21Z</time>
      </trkpt>
      <trkpt lat="42.316156" lon="1.783030">
        <ele>1258.479</ele>
        <time>2019-06-01T08:26:27Z</time>
      </trkpt>
      <trkpt lat="42.316234" lon="1.783101">
        <ele>1258.863</ele>
        <time>2019-06-01T08:26:33Z</time>
      </trkpt>
      <trkpt lat="42.316320" lon="1.783184">
        <ele>1259.280</ele>
        <time>2019-06-01T08:26:37Z</time>
      </trkpt>
      <trkpt lat="42.316335" lon="1.783199">
        <ele>1259.278</ele>
        <time>2019-06-01T08:26:38Z</time>
      </trkpt>
      <trkpt lat="42.316432" lon="1.783293">
        <ele>1259.819</ele>
        <time>2019-06-01T08:26:45Z</time>
      </trkpt>
      <trkpt lat="42.316518" lon="1.783363">
        <ele>1260.227</ele>
        <time>2019-06-01T08:26:51Z</time>
      </trkpt>
      <trkpt lat="42.316533" lon="1.783371">
        <ele>1260.268</ele>
        <time>2019-06-01T08:26:52Z</time>
      </trkpt>
      <trkpt lat="42.316666" lon="1.783453">
        <ele>1261.214</ele>
        <time>2019-06-01T08:27:01Z</time>
      </trkpt>
      <trkpt lat="42.316683" lon="1.783465">
        <ele>1261.208</ele>
        <time>2019-06-01T08:27:02Z</time>
      </trkpt>
      <trkpt lat="42.316771" lon="1.783523">
        <ele>1262.225</ele>
        <time>2019-06-01T08:27:09Z</time>
      </trkpt>
      <trkpt lat="42.316801" lon="1.783544">
        <ele>1262.219</ele>
        <time>2019-06-01T08:27:11Z</time>
      </trkpt>
      <trkpt lat="42.316820" lon="1.783554">
        <ele>1262.495</ele>
        <time>2019-06-01T08:27:12Z</time>
      </trkpt>
      <trkpt lat="42.316852" lon="1.783576">
        <ele>1262.613</ele>
        <time>2019-06-01T08:27:14Z</time>
      </trkpt>
      <trkpt lat="42.316943" lon="1.783594">
        <ele>1262.877</ele>
        <time>2019-06-01T08:27:19Z</time>
      </trkpt>
      <trkpt lat="42.317034" lon="1.783580">
        <ele>1263.414</ele>
        <time>2019-06-01T08:27:24Z</time>
      </trkpt>
      <trkpt lat="42.317070" lon="1.783571">
        <ele>1263.472</ele>
        <time>2019-06-01T08:27:26Z</time>
      </trkpt>
      <trkpt lat="42.317185" lon="1.783569">
        <ele>1263.673</ele>
        <time>2019-06-01T08:27:32Z</time>
      </trkpt>
      <trkpt lat="42.317292" lon="1.783560">
        <ele>1264.475</ele>
        <time>2019-06-01T08:27:37Z</time>
      </trkpt>
      <trkpt lat="42.317311" lon="1.783557">
        <ele>1264.628</ele>
        <time>2019-06-01T08:27:38Z</time>
      </trkpt>
      <trkpt lat="42.317424" lon="1.783538">
        <ele>1265.020</ele>
        <time>2019-06-01T08:27:44Z</time>
      </trkpt>
      <trkpt lat="42.317511" lon="1.783517">
        <ele>1265.608</ele>
        <time>2019-06-01T08:27:49Z</time>
      </trkpt>
      <trkpt lat="42.317548" lon="1.783518">
        <ele>1265.690</ele>
        <time>2019-06-01T08:27:51Z</time>
      </trkpt>
      <trkpt lat="42.317683" lon="1.783541">
        <ele>1266.274</ele>
        <time>2019-06-01T08:27:58Z</time>
      </trkpt>
      <trkpt lat="42.317761" lon="1.783549">
        <ele>1266.630</ele>
        <time>2019-06-01T08:28:02Z</time>
      </trkpt>
      <trkpt lat="42.317796" lon="1.783552">
        <ele>1266.848</ele>
        <time>2019-06-01T08:28:04Z</time>
      </trkpt>
      <trkpt lat="42.317908" lon="1.783579">
        <ele>1267.272</ele>
        <time>2019-06-01T08:28:09Z</time>
      </trkpt>
      <trkpt lat="42.317984" lon="1.783594">
        <ele>1267.629</ele>
        <time>2019-06-01T08:28:13Z</time>
      </trkpt>
      <trkpt lat="42.318031" lon="1.783617">
        <ele>1267.857</ele>
        <time>2019-06-01T08:28:15Z</time>
      </trkpt>
      <trkpt lat="42.318177" lon="1.783710">
        <ele>1268.668</ele>
        <time>2019-06-01T08:28:23Z</time>
      </trkpt>
      <trkpt lat="42.318213" lon="1.783735">
        <ele>1268.837</ele>
        <time>2019-06-01T08:28:25Z</time>
      </trkpt>
      <trkpt lat="42.318258" lon="1.783747">
        <ele>1268.849</ele>
        <time>2019-06-01T08:28:27Z</time>
      </trkpt>
      <trkpt lat="42.318284" lon="1.783742">
        <ele>1268.813</ele>
        <time>2019-06-01T08:28:28Z</time>
      </trkpt>
      <trkpt lat="42.318393" lon="1.783671">
        <ele>1269.008</ele>
        <time>2019-06-01T08:28:33Z</time>
      </trkpt>
      <trkpt lat="42.318455" lon="1.783567">
        <ele>1269.856</ele>
        <time>2019-06-01T08:28:38Z</time>
      </trkpt>
      <trkpt lat="42.318482" lon="1.783528">
        <ele>1270.250</ele>
        <time>2019-06-01T08:28:40Z</time>
      </trkpt>
      <trkpt lat="42.318600" lon="1.783470">
        <ele>1270.876</ele>
        <time>2019-06-01T08:28:46Z</time>
      </trkpt>
      <trkpt lat="42.318688" lon="1.783473">
        <ele>1270.814</ele>
        <time>2019-06-01T08:28:50Z</time>
      </trkpt>
      <trkpt lat="42.318735" lon="1.783481">
        <ele>1270.858</ele>
        <time>2019-06-01T08:28:52Z</time>
      </trkpt>
      <trkpt lat="42.318882" lon="1.783475">
        <ele>1271.685</ele>
        <time>2019-06-01T08:28:59Z</time>
      </trkpt>
      <trkpt lat="42.318918" lon="1.783472">
        <ele>1271.853</ele>
        <time>2019-06-01T08:29:01Z</time>
      </trkpt>
      <trkpt lat="42.319066" lon="1.783456">
        <ele>1272.244</ele>
        <time>2019-06-01T08:29:08Z</time>
      </trkpt>
      <trkpt lat="42.319231" lon="1.783441">
        <ele>1273.095</ele>
        <time>2019-06-01T08:29:16Z</time>
      </trkpt>
      <trkpt lat="42.319353" lon="1.783492">
        <ele>1273.449</ele>
        <time>2019-06-01T08:29:22Z</time>
      </trkpt>
      <trkpt lat="42.319427" lon="1.783555">
        <ele>1274.023</ele>
        <time>2019-06-01T08:29:27Z</time>
      </trkpt>
      <trkpt lat="42.319442" lon="1.783565">
        <ele>1274.008</ele>
        <time>2019-06-01T08:29:28Z</time>
      </trkpt>
      <trkpt lat="42.319528" lon="1.783627">
        <ele>1274.822</ele>
        <time>2019-06-01T08:29:34Z</time>
      </trkpt>
      <trkpt lat="42.319543" lon="1.783634">
        <ele>1274.836</ele>
        <time>2019-06-01T08:29:35Z</time>
      </trkpt>
      <trkpt lat="42.319589" lon="1.783666">
        <ele>1275.032</ele>
        <time>2019-06-01T08:29:38Z</time>
      </trkpt>
      <trkpt lat="42.319653" lon="1.783718">
        <ele>1275.240</ele>
        <time>2019-06-01T08:29:42Z</time>
      </trkpt>
      <trkpt lat="42.319759" lon="1.783799">
        <ele>1275.814</ele>
        <time>2019-06-01T08:29:49Z</time>
      </trkpt>
      <trkpt lat="42.319779" lon="1.783803">
        <ele>1276.021</ele>
        <time>2019-06-01T08:29:50Z</time>
      </trkpt>
      <trkpt lat="42.319816" lon="1.783809">
        <ele>1276.039</ele>
        <time>2019-06-01T08:29:52Z</time>
      </trkpt>
      <trkpt lat="42.319831" lon="1.783809">
        <ele>1276.010</ele>
        <time>2019-06-01T08:29:53Z</time>
      </trkpt>
      <trkpt lat="42.319893" lon="1.783829">
        <ele>1277.076</ele>
        <time>2019-06-01T08:29:57Z</time>
      </trkpt>
      <trkpt lat="42.319909" lon="1.783832">
        <ele>1277.090</ele>
        <time>2019-06-01T08:29:58Z</time>
      </trkpt>
      <trkpt lat="42.320021" lon="1.783886">
        <ele>1278.219</ele>
        <time>2019-06-01T08:30:06Z</time>
      </trkpt>
      <trkpt lat="42.320079" lon="1.783935">
        <ele>1278.808</ele>
        <time>2019-06-01T08:30:11Z</time>
      </trkpt>
      <trkpt lat="42.320101" lon="1.783960">
        <ele>1279.240</ele>
        <time>2019-06-01T08:30:13Z</time>
      </trkpt>
      <trkpt lat="42.320149" lon="1.784061">
        <ele>1280.424</ele>
        <time>2019-06-01T08:30:19Z</time>
      </trkpt>
      <trkpt lat="42.320160" lon="1.784103">
        <ele>1281.010</ele>
        <time>2019-06-01T08:30:21Z</time>
      </trkpt>
      <trkpt lat="42.320170" lon="1.784162">
        <ele>1281.468</ele>
        <time>2019-06-01T08:30:24Z</time>
      </trkpt>
      <trkpt lat="42.320178" lon="1.784222">
        <ele>1281.852</ele>
        <time>2019-06-01T08:30:27Z</time>
      </trkpt>
      <trkpt lat="42.320181" lon="1.784297">
        <ele>1282.669</ele>
        <time>2019-06-01T08:30:31Z</time>
      </trkpt>
      <trkpt lat="42.320185" lon="1.784330">
        <ele>1282.837</ele>
        <time>2019-06-01T08:30:33Z</time>
      </trkpt>
      <trkpt lat="42.320185" lon="1.784347">
        <ele>1283.098</ele>
        <time>2019-06-01T08:30:34Z</time>
      </trkpt>
      <trkpt lat="42.320197" lon="1.784402">
        <ele>1283.653</ele>
        <time>2019-06-01T08:30:38Z</time>
      </trkpt>
      <trkpt lat="42.320207" lon="1.784433">
        <ele>1284.004</ele>
        <time>2019-06-01T08:30:40Z</time>
      </trkpt>
      <trkpt lat="42.320236" lon="1.784464">
        <ele>1284.814</ele>
        <time>2019-06-01T08:30:43Z</time>
      </trkpt>
      <trkpt lat="42.320290" lon="1.784507">
        <ele>1285.608</ele>
        <time>2019-06-01T08:30:48Z</time>
      </trkpt>
      <trkpt lat="42.320300" lon="1.784521">
        <ele>1285.848</ele>
        <time>2019-06-01T08:30:49Z</time>
      </trkpt>
      <trkpt lat="42.320311" lon="1.784537">
        <ele>1286.052</ele>
        <time>2019-06-01T08:30:50Z</time>
      </trkpt>
      <trkpt lat="42.320337" lon="1.784570">
        <ele>1286.418</ele>
        <time>2019-06-01T08:30:53Z</time>
      </trkpt>
      <trkpt lat="42.320355" lon="1.784583">
        <ele>1286.476</ele>
        <time>2019-06-01T08:30:55Z</time>
      </trkpt>
      <trkpt lat="42.320378" lon="1.784605">
        <ele>1286.820</ele>
        <time>2019-06-01T08:30:57Z</time>
      </trkpt>
      <trkpt lat="42.320410" lon="1.784633">
        <ele>1287.467</ele>
        <time>2019-06-01T08:31:00Z</time>
      </trkpt>
      <trkpt lat="42.320434" lon="1.784681">
        <ele>1287.835</ele>
        <time>2019-06-01T08:31:03Z</time>
      </trkpt>
      <trkpt lat="42.320460" lon="1.784718">
        <ele>1288.436</ele>
        <time>2019-06-01T08:31:06Z</time>
      </trkpt>
      <trkpt lat="42.320481" lon="1.784759">
        <ele>1289.255</ele>
        <time>2019-06-01T08:31:09Z</time>
      </trkpt>
      <trkpt lat="42.320487" lon="1.784795">
        <ele>1289.607</ele>
        <time>2019-06-01T08:31:11Z</time>
      </trkpt>
      <trkpt lat="42.320500" lon="1.784836">
        <ele>1289.817</ele>
        <time>2019-06-01T08:31:13Z</time>
      </trkpt>
      <trkpt lat="42.320511" lon="1.784903">
        <ele>1290.408</ele>
        <time>2019-06-01T08:31:17Z</time>
      </trkpt>
      <trkpt lat="42.320516" lon="1.784953">
        <ele>1290.838</ele>
        <time>2019-06-01T08:31:20Z</time>
      </trkpt>
      <trkpt lat="42.320536" lon="1.785048">
        <ele>1291.442</ele>
        <time>2019-06-01T08:31:25Z</time>
      </trkpt>
      <trkpt lat="42.320551" lon="1.785095">
        <ele>1291.898</ele>
        <time>2019-06-01T08:31:28Z</time>
      </trkpt>
      <trkpt lat="42.320582" lon="1.785166">
        <ele>1292.686</ele>
        <time>2019-06-01T08:31:33Z</time>
      </trkpt>
      <trkpt lat="42.320590" lon="1.785180">
        <ele>1292.890</ele>
        <time>2019-06-01T08:31:34Z</time>
      </trkpt>
      <trkpt lat="42.320621" lon="1.785220">
        <ele>1292.887</ele>
        <time>2019-06-01T08:31:37Z</time>
      </trkpt>
      <trkpt lat="42.320653" lon="1.785268">
        <ele>1293.465</ele>
        <time>2019-06-01T08:31:41Z</time>
      </trkpt>
      <trkpt lat="42.320660" lon="1.785281">
        <ele>1293.626</ele>
        <time>2019-06-01T08:31:42Z</time>
      </trkpt>
      <trkpt lat="42.320690" lon="1.785324">
        <ele>1294.037</ele>
        <time>2019-06-01T08:31:45Z</time>
      </trkpt>
      <trkpt lat="42.320693" lon="1.785342">
        <ele>1294.249</ele>
        <time>2019-06-01T08:31:46Z</time>
      </trkpt>
      <trkpt lat="42.320717" lon="1.785400">
        <ele>1294.813</ele>
        <time>2019-06-01T08:31:50Z</time>
      </trkpt>
      <trkpt lat="42.320726" lon="1.785433">
        <ele>1295.008</ele>
        <time>2019-06-01T08:31:52Z</time>
      </trkpt>
      <trkpt lat="42.320738" lon="1.785528">
        <ele>1295.466</ele>
        <time>2019-06-01T08:31:57Z</time>
      </trkpt>
      <trkpt lat="42.320740" lon="1.785561">
        <ele>1295.880</ele>
        <time>2019-06-01T08:31:59Z</time>
      </trkpt>
      <trkpt lat="42.320735" lon="1.785574">
        <ele>1296.076</ele>
        <time>2019-06-01T08:32:00Z</time>
      </trkpt>
      <trkpt lat="42.320741" lon="1.785623">
        <ele>1296.084</ele>
        <time>2019-06-01T08:32:03Z</time>
      </trkpt>
      <trkpt lat="42.320742" lon="1.785638">
        <ele>1296.268</ele>
        <time>2019-06-01T08:32:04Z</time>
      </trkpt>
      <trkpt lat="42.320753" lon="1.785719">
        <ele>1296.615</ele>
        <time>2019-06-01T08:32:08Z</time>
      </trkpt>
      <trkpt lat="42.320765" lon="1.785756">
        <ele>1296.873</ele>
        <time>2019-06-01T08:32:10Z</time>
      </trkpt>
      <trkpt lat="42.320778" lon="1.785806">
        <ele>1297.094</ele>
        <time>2019-06-01T08:32:13Z</time>
      </trkpt>
      <trkpt lat="42.320813" lon="1.785870">
        <ele>1297.672</ele>
        <time>2019-06-01T08:32:18Z</time>
      </trkpt>
      <trkpt lat="42.320843" lon="1.785913">
        <ele>1298.213</ele>
        <time>2019-06-01T08:32:21Z</time>
      </trkpt>
      <trkpt lat="42.320884" lon="1.785964">
        <ele>1298.614</ele>
        <time>2019-06-01T08:32:25Z</time>
      </trkpt>
      <trkpt lat="42.320917" lon="1.786022">
        <ele>1299.208</ele>
        <time>2019-06-01T08:32:29Z</time>
      </trkpt>
      <trkpt lat="42.320930" lon="1.786058">
        <ele>1299.830</ele>
        <time>2019-06-01T08:32:32Z</time>
      </trkpt>
      <trkpt lat="42.320933" lon="1.786105">
        <ele>1300.274</ele>
        <time>2019-06-01T08:32:35Z</time>
      </trkpt>
      <trkpt lat="42.320930" lon="1.786136">
        <ele>1300.830</ele>
        <time>2019-06-01T08:32:37Z</time>
      </trkpt>
      <trkpt lat="42.320913" lon="1.786162">
        <ele>1301.088</ele>
        <time>2019-06-01T08:32:39Z</time>
      </trkpt>
      <trkpt lat="42.320885" lon="1.786164">
        <ele>1301.412</ele>
        <time>2019-06-01T08:32:41Z</time>
      </trkpt>
      <trkpt lat="42.320853" lon="1.786165">
        <ele>1301.669</ele>
        <time>2019-06-01T08:32:44Z</time>
      </trkpt>
      <trkpt lat="42.320803" lon="1.786149">
        <ele>1302.477</ele>
        <time>2019-06-01T08:32:48Z</time>
      </trkpt>
      <trkpt lat="42.320773" lon="1.786134">
        <ele>1302.618</ele>
        <time>2019-06-01T08:32:50Z</time>
      </trkpt>
      <trkpt lat="42.320707" lon="1.786080">
        <ele>1303.476</ele>
        <time>2019-06-01T08:32:56Z</time>
      </trkpt>
      <trkpt lat="42.320689" lon="1.786052">
        <ele>1303.690</ele>
        <time>2019-06-01T08:32:58Z</time>
      </trkpt>
      <trkpt lat="42.320628" lon="1.785977">
        <ele>1304.419</ele>
        <time>2019-06-01T08:33:04Z</time>
      </trkpt>
      <trkpt lat="42.320622" lon="1.785962">
        <ele>1304.608</ele>
        <time>2019-06-01T08:33:05Z</time>
      </trkpt>
      <trkpt lat="42.320614" lon="1.785948">
        <ele>1304.880</ele>
        <time>2019-06-01T08:33:06Z</time>
      </trkpt>
      <trkpt lat="42.320565" lon="1.785838">
        <ele>1305.454</ele>
        <time>2019-06-01T08:33:13Z</time>
      </trkpt>
      <trkpt lat="42.320559" lon="1.785822">
        <ele>1305.670</ele>
        <time>2019-06-01T08:33:14Z</time>
      </trkpt>
      <trkpt lat="42.320532" lon="1.785739">
        <ele>1306.248</ele>
        <time>2019-06-01T08:33:20Z</time>
      </trkpt>
      <trkpt lat="42.320519" lon="1.785694">
        <ele>1306.622</ele>
        <time>2019-06-01T08:33:23Z</time>
      </trkpt>
      <trkpt lat="42.320506" lon="1.785631">
        <ele>1307.079</ele>
        <time>2019-06-01T08:33:27Z</time>
      </trkpt>
      <trkpt lat="42.320484" lon="1.785557">
        <ele>1307.697</ele>
        <time>2019-06-01T08:33:32Z</time>
      </trkpt>
      <trkpt lat="42.320467" lon="1.785530">
        <ele>1307.858</ele>
        <time>2019-06-01T08:33:34Z</time>
      </trkpt>
      <trkpt lat="42.320408" lon="1.785429">
        <ele>1308.842</ele>
        <time>2019-06-01T08:33:41Z</time>
      </trkpt>
      <trkpt lat="42.320389" lon="1.785403">
        <ele>1309.022</ele>
        <time>2019-06-01T08:33:43Z</time>
      </trkpt>
      <trkpt lat="42.320276" lon="1.785319">
        <ele>1309.414</ele>
        <time>2019-06-01T08:33:52Z</time>
      </trkpt>
      <trkpt lat="42.320256" lon="1.785296">
        <ele>1309.808</ele>
        <time>2019-06-01T08:33:54Z</time>
      </trkpt>
      <trkpt lat="42.320193" lon="1.785200">
        <ele>1310.877</ele>
        <time>2019-06-01T08:34:01Z</time>
      </trkpt>
      <trkpt lat="42.320185" lon="1.785191">
        <ele>1311.041</ele>
        <time>2019-06-01T08:34:02Z</time>
      </trkpt>
      <trkpt lat="42.320133" lon="1.785138">
        <ele>1311.877</ele>
        <time>2019-06-01T08:34:08Z</time>
      </trkpt>
      <trkpt lat="42.320084" lon="1.785087">
        <ele>1312.065</ele>
        <time>2019-06-01T08:34:13Z</time>
      </trkpt>
      <trkpt lat="42.320067" lon="1.785072">
        <ele>1312.659</ele>
        <time>2019-06-01T08:34:15Z</time>
      </trkpt>
      <trkpt lat="42.320013" lon="1.785036">
        <ele>1313.026</ele>
        <time>2019-06-01T08:34:20Z</time>
      </trkpt>
      <trkpt lat="42.319941" lon="1.785004">
        <ele>1314.224</ele>
        <time>2019-06-01T08:34:26Z</time>
      </trkpt>
      <trkpt lat="42.319912" lon="1.784985">
        <ele>1314.645</ele>
        <time>2019-06-01T08:34:29Z</time>
      </trkpt>
      <trkpt lat="42.319883" lon="1.784972">
        <ele>1315.052</ele>
        <time>2019-06-01T08:34:32Z</time>
      </trkpt>
      <trkpt lat="42.319871" lon="1.784962">
        <ele>1315.253</ele>
        <time>2019-06-01T08:34:33Z</time>
      </trkpt>
      <trkpt lat="42.319833" lon="1.784927">
        <ele>1315.608</ele>
        <time>2019-06-01T08:34:37Z</time>
      </trkpt>
      <trkpt lat="42.319811" lon="1.784922">
        <ele>1316.208</ele>
        <time>2019-06-01T08:34:39Z</time>
      </trkpt>
      <trkpt lat="42.319763" lon="1.784886">
        <ele>1316.898</ele>
        <time>2019-06-01T08:34:44Z</time>
      </trkpt>
      <trkpt lat="42.319742" lon="1.784874">
        <ele>1317.262</ele>
        <time>2019-06-01T08:34:46Z</time>
      </trkpt>
      <trkpt lat="42.319674" lon="1.784852">
        <ele>1318.028</ele>
        <time>2019-06-01T08:34:52Z</time>
      </trkpt>
      <trkpt lat="42.319639" lon="1.784842">
        <ele>1318.426</ele>
        <time>2019-06-01T08:34:55Z</time>
      </trkpt>
      <trkpt lat="42.319571" lon="1.784824">
        <ele>1319.060</ele>
        <time>2019-06-01T08:35:01Z</time>
      </trkpt>
      <trkpt lat="42.319534" lon="1.784810">
        <ele>1319.467</ele>
        <time>2019-06-01T08:35:05Z</time>
      </trkpt>
      <trkpt lat="42.319485" lon="1.784790">
        <ele>1319.855</ele>
        <time>2019-06-01T08:35:09Z</time>
      </trkpt>
      <trkpt lat="42.319407" lon="1.784781">
        <ele>1320.496</ele>
        <time>2019-06-01T08:35:15Z</time>
      </trkpt>
      <trkpt lat="42.319394" lon="1.784781">
        <ele>1320.684</ele>
        <time>2019-06-01T08:35:16Z</time>
      </trkpt>
      <trkpt lat="42.319310" lon="1.784764">
        <ele>1321.407</ele>
        <time>2019-06-01T08:35:23Z</time>
      </trkpt>
      <trkpt lat="42.319278" lon="1.784760">
        <ele>1321.817</ele>
        <time>2019-06-01T08:35:26Z</time>
      </trkpt>
      <trkpt lat="42.319235" lon="1.784752">
        <ele>1322.008</ele>
        <time>2019-06-01T08:35:30Z</time>
      </trkpt>
      <trkpt lat="42.319141" lon="1.784737">
        <ele>1322.821</ele>
        <time>2019-06-01T08:35:38Z</time>
      </trkpt>
      <trkpt lat="42.319033" lon="1.784772">
        <ele>1323.655</ele>
        <time>2019-06-01T08:35:47Z</time>
      </trkpt>
      <trkpt lat="42.319001" lon="1.784793">
        <ele>1323.841</ele>
        <time>2019-06-01T08:35:49Z</time>
      </trkpt>
      <trkpt lat="42.318919" lon="1.784877">
        <ele>1324.659</ele>
        <time>2019-06-01T08:35:56Z</time>
      </trkpt>
      <trkpt lat="42.318902" lon="1.784909">
        <ele>1325.033</ele>
        <time>2019-06-01T08:35:58Z</time>
      </trkpt>
      <trkpt lat="42.318861" lon="1.784983">
        <ele>1325.880</ele>
        <time>2019-06-01T08:36:03Z</time>
      </trkpt>
      <trkpt lat="42.318852" lon="1.784999">
        <ele>1325.888</ele>
        <time>2019-06-01T08:36:04Z</time>
      </trkpt>
      <trkpt lat="42.318827" lon="1.785050">
        <ele>1326.039</ele>
        <time>2019-06-01T08:36:07Z</time>
      </trkpt>
      <trkpt lat="42.318820" lon="1.785066">
        <ele>1326.264</ele>
        <time>2019-06-01T08:36:08Z</time>
      </trkpt>
      <trkpt lat="42.318786" lon="1.785105">
        <ele>1326.606</ele>
        <time>2019-06-01T08:36:11Z</time>
      </trkpt>
      <trkpt lat="42.318745" lon="1.785147">
        <ele>1327.016</ele>
        <time>2019-06-01T08:36:15Z</time>
      </trkpt>
      <trkpt lat="42.318719" lon="1.785186">
        <ele>1327.408</ele>
        <time>2019-06-01T08:36:18Z</time>
      </trkpt>
      <trkpt lat="42.318689" lon="1.785228">
        <ele>1327.889</ele>
        <time>2019-06-01T08:36:21Z</time>
      </trkpt>
      <trkpt lat="42.318667" lon="1.785260">
        <ele>1328.223</ele>
        <time>2019-06-01T08:36:23Z</time>
      </trkpt>
      <trkpt lat="42.318649" lon="1.785285">
        <ele>1328.429</ele>
        <time>2019-06-01T08:36:25Z</time>
      </trkpt>
      <trkpt lat="42.318561" lon="1.785383">
        <ele>1328.877</ele>
        <time>2019-06-01T08:36:32Z</time>
      </trkpt>
      <trkpt lat="42.318537" lon="1.785393">
        <ele>1328.881</ele>
        <time>2019-06-01T08:36:34Z</time>
      </trkpt>
      <trkpt lat="42.318508" lon="1.785392">
        <ele>1329.268</ele>
        <time>2019-06-01T08:36:36Z</time>
      </trkpt>
      <trkpt lat="42.318491" lon="1.785393">
        <ele>1329.416</ele>
        <time>2019-06-01T08:36:37Z</time>
      </trkpt>
      <trkpt lat="42.318474" lon="1.785384">
        <ele>1329.697</ele>
        <time>2019-06-01T08:36:38Z</time>
      </trkpt>
      <trkpt lat="42.318418" lon="1.785370">
        <ele>1329.659</ele>
        <time>2019-06-01T08:36:42Z</time>
      </trkpt>
      <trkpt lat="42.318405" lon="1.785367">
        <ele>1329.803</ele>
        <time>2019-06-01T08:36:43Z</time>
      </trkpt>
      <trkpt lat="42.318344" lon="1.785378">
        <ele>1330.023</ele>
        <time>2019-06-01T08:36:47Z</time>
      </trkpt>
      <trkpt lat="42.318315" lon="1.785394">
        <ele>1330.408</ele>
        <time>2019-06-01T08:36:49Z</time>
      </trkpt>
      <trkpt lat="42.318290" lon="1.785412">
        <ele>1330.438</ele>
        <time>2019-06-01T08:36:51Z</time>
      </trkpt>
      <trkpt lat="42.318247" lon="1.785437">
        <ele>1330.412</ele>
        <time>2019-06-01T08:36:54Z</time>
      </trkpt>
      <trkpt lat="42.318172" lon="1.785471">
        <ele>1330.888</ele>
        <time>2019-06-01T08:37:01Z</time>
      </trkpt>
      <trkpt lat="42.318145" lon="1.785470">
        <ele>1330.886</ele>
        <time>2019-06-01T08:37:02Z</time>
      </trkpt>
      <trkpt lat="42.318070" lon="1.785443">
        <ele>1331.020</ele>
        <time>2019-06-01T08:37:06Z</time>
      </trkpt>
      <trkpt lat="42.318026" lon="1.785353">
        <ele>1331.647</ele>
        <time>2019-06-01T08:37:11Z</time>
      </trkpt>
      <trkpt lat="42.318015" lon="1.785320">
        <ele>1331.685</ele>
        <time>2019-06-01T08:37:13Z</time>
      </trkpt>
      <trkpt lat="42.317978" lon="1.785217">
        <ele>1332.096</ele>
        <time>2019-06-01T08:37:19Z</time>
      </trkpt>
      <trkpt lat="42.317961" lon="1.785124">
        <ele>1332.687</ele>
        <time>2019-06-01T08:37:24Z</time>
      </trkpt>
      <trkpt lat="42.317947" lon="1.785087">
        <ele>1332.842</ele>
        <time>2019-06-01T08:37:26Z</time>
      </trkpt>
      <trkpt lat="42.317900" lon="1.784965">
        <ele>1333.426</ele>
        <time>2019-06-01T08:37:33Z</time>
      </trkpt>
      <trkpt lat="42.317882" lon="1.784936">
        <ele>1333.608</ele>
        <time>2019-06-01T08:37:35Z</time>
      </trkpt>
      <trkpt lat="42.317834" lon="1.784866">
        <ele>1334.011</ele>
        <time>2019-06-01T08:37:40Z</time>
      </trkpt>
      <trkpt lat="42.317781" lon="1.784820">
        <ele>1334.875</ele>
        <time>2019-06-01T08:37:46Z</time>
      </trkpt>
      <trkpt lat="42.317771" lon="1.784814">
        <ele>1335.061</ele>
        <time>2019-06-01T08:37:47Z</time>
      </trkpt>
      <trkpt lat="42.317691" lon="1.784786">
        <ele>1336.019</ele>
        <time>2019-06-01T08:37:54Z</time>
      </trkpt>
      <trkpt lat="42.317597" lon="1.784779">
        <ele>1336.863</ele>
        <time>2019-06-01T08:38:01Z</time>
      </trkpt>
      <trkpt lat="42.317569" lon="1.784792">
        <ele>1337.020</ele>
        <time>2019-06-01T08:38:03Z</time>
      </trkpt>
      <trkpt lat="42.317521" lon="1.784851">
        <ele>1337.268</ele>
        <time>2019-06-01T08:38:08Z</time>
      </trkpt>
      <trkpt lat="42.317418" lon="1.784913">
        <ele>1337.849</ele>
        <time>2019-06-01T08:38:16Z</time>
      </trkpt>
      <trkpt lat="42.317399" lon="1.784931">
        <ele>1338.014</ele>
        <time>2019-06-01T08:38:18Z</time>
      </trkpt>
      <trkpt lat="42.317331" lon="1.784975">
        <ele>1338.854</ele>
        <time>2019-06-01T08:38:24Z</time>
      </trkpt>
      <trkpt lat="42.317296" lon="1.784998">
        <ele>1339.009</ele>
        <time>2019-06-01T08:38:27Z</time>
      </trkpt>
      <trkpt lat="42.317220" lon="1.785028">
        <ele>1339.608</ele>
        <time>2019-06-01T08:38:33Z</time>
      </trkpt>
      <trkpt lat="42.317134" lon="1.785065">
        <ele>1340.054</ele>
        <time>2019-06-01T08:38:39Z</time>
      </trkpt>
      <trkpt lat="42.317097" lon="1.785083">
        <ele>1340.438</ele>
        <time>2019-06-01T08:38:42Z</time>
      </trkpt>
      <trkpt lat="42.317018" lon="1.785127">
        <ele>1341.264</ele>
        <time>2019-06-01T08:38:49Z</time>
      </trkpt>
      <trkpt lat="42.317004" lon="1.785138">
        <ele>1341.232</ele>
        <time>2019-06-01T08:38:50Z</time>
      </trkpt>
      <trkpt lat="42.316952" lon="1.785228">
        <ele>1341.626</ele>
        <time>2019-06-01T08:38:56Z</time>
      </trkpt>
      <trkpt lat="42.316940" lon="1.785242">
        <ele>1341.683</ele>
        <time>2019-06-01T08:38:57Z</time>
      </trkpt>
      <trkpt lat="42.316848" lon="1.785319">
        <ele>1342.231</ele>
        <time>2019-06-01T08:39:03Z</time>
      </trkpt>
      <trkpt lat="42.316735" lon="1.785361">
        <ele>1343.092</ele>
        <time>2019-06-01T08:39:11Z</time>
      </trkpt>
      <trkpt lat="42.316703" lon="1.785374">
        <ele>1343.254</ele>
        <time>2019-06-01T08:39:13Z</time>
      </trkpt>
      <trkpt lat="42.316628" lon="1.785390">
        <ele>1343.456</ele>
        <time>2019-06-01T08:39:18Z</time>
      </trkpt>
      <trkpt lat="42.316490" lon="1.785380">
        <ele>1344.011</ele>
        <time>2019-06-01T08:39:27Z</time>
      </trkpt>
      <trkpt lat="42.316407" lon="1.785340">
        <ele>1344.408</ele>
        <time>2019-06-01T08:39:33Z</time>
      </trkpt>
      <trkpt lat="42.316307" lon="1.785304">
        <ele>1342.838</ele>
        <time>2019-06-01T08:39:39Z</time>
      </trkpt>
      <trkpt lat="42.316290" lon="1.785302">
        <ele>1344.052</ele>
        <time>2019-06-01T08:39:40Z</time>
      </trkpt>
      <trkpt lat="42.316135" lon="1.785317">
        <ele>1344.888</ele>
        <time>2019-06-01T08:39:49Z</time>
      </trkpt>
      <trkpt lat="42.316059" lon="1.785349">
        <ele>1345.216</ele>
        <time>2019-06-01T08:39:54Z</time>
      </trkpt>
      <trkpt lat="42.316033" lon="1.785360">
        <ele>1345.240</ele>
        <time>2019-06-01T08:39:56Z</time>
      </trkpt>
      <trkpt lat="42.315917" lon="1.785400">
        <ele>1345.837</ele>
        <time>2019-06-01T08:40:03Z</time>
      </trkpt>
      <trkpt lat="42.315779" lon="1.785456">
        <ele>1346.465</ele>
        <time>2019-06-01T08:40:10Z</time>
      </trkpt>
      <trkpt lat="42.315611" lon="1.785511">
        <ele>1346.896</ele>
        <time>2019-06-01T08:40:19Z</time>
      </trkpt>
      <trkpt lat="42.315458" lon="1.785539">
        <ele>1347.225</ele>
        <time>2019-06-01T08:40:27Z</time>
      </trkpt>
      <trkpt lat="42.315400" lon="1.785541">
        <ele>1347.426</ele>
        <time>2019-06-01T08:40:30Z</time>
      </trkpt>
      <trkpt lat="42.315342" lon="1.785530">
        <ele>1347.408</ele>
        <time>2019-06-01T08:40:33Z</time>
      </trkpt>
      <trkpt lat="42.315324" lon="1.785521">
        <ele>1347.608</ele>
        <time>2019-06-01T08:40:34Z</time>
      </trkpt>
      <trkpt lat="42.315226" lon="1.785415">
        <ele>1348.045</ele>
        <time>2019-06-01T08:40:40Z</time>
      </trkpt>
      <trkpt lat="42.315180" lon="1.785326">
        <ele>1348.469</ele>
        <time>2019-06-01T08:40:45Z</time>
      </trkpt>
      <trkpt lat="42.315160" lon="1.785294">
        <ele>1348.865</ele>
        <time>2019-06-01T08:40:47Z</time>
      </trkpt>
      <trkpt lat="42.315074" lon="1.785185">
        <ele>1346.813</ele>
        <time>2019-06-01T08:40:54Z</time>
      </trkpt>
      <trkpt lat="42.315060" lon="1.785173">
        <ele>1346.637</ele>
        <time>2019-06-01T08:40:55Z</time>
      </trkpt>
      <trkpt lat="42.315044" lon="1.785161">
        <ele>1348.664</ele>
        <time>2019-06-01T08:40:56Z</time>
      </trkpt>
      <trkpt lat="42.315030" lon="1.785147">
        <ele>1349.872</ele>
        <time>2019-06-01T08:40:57Z</time>
      </trkpt>
      <trkpt lat="42.314949" lon="1.785061">
        <ele>1350.253</ele>
        <time>2019-06-01T08:41:03Z</time>
      </trkpt>
      <trkpt lat="42.314893" lon="1.785018">
        <ele>1351.026</ele>
        <time>2019-06-01T08:41:07Z</time>
      </trkpt>
      <trkpt lat="42.314811" lon="1.784970">
        <ele>1351.447</ele>
        <time>2019-06-01T08:41:12Z</time>
      </trkpt>
      <trkpt lat="42.314664" lon="1.784942">
        <ele>1351.811</ele>
        <time>2019-06-01T08:41:20Z</time>
      </trkpt>
      <trkpt lat="42.314624" lon="1.784931">
        <ele>1352.008</ele>
        <time>2019-06-01T08:41:22Z</time>
      </trkpt>
      <trkpt lat="42.314544" lon="1.784870">
        <ele>1352.215</ele>
        <time>2019-06-01T08:41:26Z</time>
      </trkpt>
      <trkpt lat="42.314480" lon="1.784772">
        <ele>1352.689</ele>
        <time>2019-06-01T08:41:31Z</time>
      </trkpt>
      <trkpt lat="42.314450" lon="1.784687">
        <ele>1353.095</ele>
        <time>2019-06-01T08:41:34Z</time>
      </trkpt>
      <trkpt lat="42.314430" lon="1.784637">
        <ele>1353.063</ele>
        <time>2019-06-01T08:41:36Z</time>
      </trkpt>
      <trkpt lat="42.314380" lon="1.784522">
        <ele>1353.867</ele>
        <time>2019-06-01T08:41:42Z</time>
      </trkpt>
      <trkpt lat="42.314374" lon="1.784506">
        <ele>1354.044</ele>
        <time>2019-06-01T08:41:43Z</time>
      </trkpt>
      <trkpt lat="42.314354" lon="1.784476">
        <ele>1354.422</ele>
        <time>2019-06-01T08:41:45Z</time>
      </trkpt>
      <trkpt lat="42.314295" lon="1.784451">
        <ele>1354.843</ele>
        <time>2019-06-01T08:41:49Z</time>
      </trkpt>
      <trkpt lat="42.314258" lon="1.784465">
        <ele>1355.262</ele>
        <time>2019-06-01T08:41:52Z</time>
      </trkpt>
      <trkpt lat="42.314221" lon="1.784512">
        <ele>1355.883</ele>
        <time>2019-06-01T08:41:56Z</time>
      </trkpt>
      <trkpt lat="42.314208" lon="1.784539">
        <ele>1356.211</ele>
        <time>2019-06-01T08:41:58Z</time>
      </trkpt>
      <trkpt lat="42.314202" lon="1.784595">
        <ele>1356.608</ele>
        <time>2019-06-01T08:42:01Z</time>
      </trkpt>
      <trkpt lat="42.314243" lon="1.784677">
        <ele>1357.269</ele>
        <time>2019-06-01T08:42:06Z</time>
      </trkpt>
      <trkpt lat="42.314257" lon="1.784709">
        <ele>1357.463</ele>
        <time>2019-06-01T08:42:08Z</time>
      </trkpt>
      <trkpt lat="42.314330" lon="1.784820">
        <ele>1358.289</ele>
        <time>2019-06-01T08:42:16Z</time>
      </trkpt>
      <trkpt lat="42.314337" lon="1.784833">
        <ele>1358.437</ele>
        <time>2019-06-01T08:42:17Z</time>
      </trkpt>
      <trkpt lat="42.314381" lon="1.784940">
        <ele>1359.031</ele>
        <time>2019-06-01T08:42:24Z</time>
      </trkpt>
      <trkpt lat="42.314425" lon="1.785051">
        <ele>1359.498</ele>
        <time>2019-06-01T08:42:30Z</time>
      </trkpt>
      <trkpt lat="42.314438" lon="1.785084">
        <ele>1359.626</ele>
        <time>2019-06-01T08:42:32Z</time>
      </trkpt>
      <trkpt lat="42.314494" lon="1.785202">
        <ele>1360.467</ele>
        <time>2019-06-01T08:42:39Z</time>
      </trkpt>
      <trkpt lat="42.314505" lon="1.785217">
        <ele>1360.455</ele>
        <time>2019-06-01T08:42:40Z</time>
      </trkpt>
      <trkpt lat="42.314551" lon="1.785278">
        <ele>1361.007</ele>
        <time>2019-06-01T08:42:45Z</time>
      </trkpt>
      <trkpt lat="42.314633" lon="1.785337">
        <ele>1361.617</ele>
        <time>2019-06-01T08:42:51Z</time>
      </trkpt>
      <trkpt lat="42.314646" lon="1.785343">
        <ele>1361.808</ele>
        <time>2019-06-01T08:42:52Z</time>
      </trkpt>
      <trkpt lat="42.314725" lon="1.785375">
        <ele>1362.858</ele>
        <time>2019-06-01T08:42:58Z</time>
      </trkpt>
      <trkpt lat="42.314845" lon="1.785481">
        <ele>1363.832</ele>
        <time>2019-06-01T08:43:07Z</time>
      </trkpt>
      <trkpt lat="42.314856" lon="1.785495">
        <ele>1364.048</ele>
        <time>2019-06-01T08:43:08Z</time>
      </trkpt>
      <trkpt lat="42.314889" lon="1.785564">
        <ele>1364.036</ele>
        <time>2019-06-01T08:43:11Z</time>
      </trkpt>
      <trkpt lat="42.314912" lon="1.785612">
        <ele>1364.420</ele>
        <time>2019-06-01T08:43:14Z</time>
      </trkpt>
      <trkpt lat="42.314924" lon="1.785647">
        <ele>1364.497</ele>
        <time>2019-06-01T08:43:16Z</time>
      </trkpt>
      <trkpt lat="42.314995" lon="1.785940">
        <ele>1366.015</ele>
        <time>2019-06-01T08:43:31Z</time>
      </trkpt>
      <trkpt lat="42.315023" lon="1.785991">
        <ele>1366.216</ele>
        <time>2019-06-01T08:43:34Z</time>
      </trkpt>
      <trkpt lat="42.315087" lon="1.786082">
        <ele>1366.832</ele>
        <time>2019-06-01T08:43:41Z</time>
      </trkpt>
      <trkpt lat="42.315158" lon="1.786144">
        <ele>1367.292</ele>
        <time>2019-06-01T08:43:48Z</time>
      </trkpt>
      <trkpt lat="42.315282" lon="1.786160">
        <ele>1367.811</ele>
        <time>2019-06-01T08:43:56Z</time>
      </trkpt>
      <trkpt lat="42.315374" lon="1.786142">
        <ele>1368.208</ele>
        <time>2019-06-01T08:44:02Z</time>
      </trkpt>
      <trkpt lat="42.315484" lon="1.786105">
        <ele>1369.236</ele>
        <time>2019-06-01T08:44:10Z</time>
      </trkpt>
      <trkpt lat="42.315499" lon="1.786100">
        <ele>1369.210</ele>
        <time>2019-06-01T08:44:11Z</time>
      </trkpt>
      <trkpt lat="42.315596" lon="1.786075">
        <ele>1370.056</ele>
        <time>2019-06-01T08:44:18Z</time>
      </trkpt>
      <trkpt lat="42.315652" lon="1.786065">
        <ele>1370.634</ele>
        <time>2019-06-01T08:44:22Z</time>
      </trkpt>
      <trkpt lat="42.315696" lon="1.786064">
        <ele>1370.848</ele>
        <time>2019-06-01T08:44:25Z</time>
      </trkpt>
      <trkpt lat="42.315711" lon="1.786060">
        <ele>1370.835</ele>
        <time>2019-06-01T08:44:26Z</time>
      </trkpt>
      <trkpt lat="42.315773" lon="1.786042">
        <ele>1371.213</ele>
        <time>2019-06-01T08:44:30Z</time>
      </trkpt>
      <trkpt lat="42.315830" lon="1.786029">
        <ele>1371.844</ele>
        <time>2019-06-01T08:44:34Z</time>
      </trkpt>
      <trkpt lat="42.315873" lon="1.786028">
        <ele>1372.213</ele>
        <time>2019-06-01T08:44:37Z</time>
      </trkpt>
      <trkpt lat="42.315942" lon="1.786049">
        <ele>1372.843</ele>
        <time>2019-06-01T08:44:43Z</time>
      </trkpt>
      <trkpt lat="42.316013" lon="1.786075">
        <ele>1373.807</ele>
        <time>2019-06-01T08:44:48Z</time>
      </trkpt>
      <trkpt lat="42.316036" lon="1.786088">
        <ele>1374.008</ele>
        <time>2019-06-01T08:44:50Z</time>
      </trkpt>
      <trkpt lat="42.316098" lon="1.786126">
        <ele>1374.864</ele>
        <time>2019-06-01T08:44:55Z</time>
      </trkpt>
      <trkpt lat="42.316138" lon="1.786151">
        <ele>1375.028</ele>
        <time>2019-06-01T08:44:57Z</time>
      </trkpt>
      <trkpt lat="42.316183" lon="1.786193">
        <ele>1375.814</ele>
        <time>2019-06-01T08:45:01Z</time>
      </trkpt>
      <trkpt lat="42.316225" lon="1.786229">
        <ele>1376.222</ele>
        <time>2019-06-01T08:45:04Z</time>
      </trkpt>
      <trkpt lat="42.316300" lon="1.786314">
        <ele>1377.236</ele>
        <time>2019-06-01T08:45:10Z</time>
      </trkpt>
      <trkpt lat="42.316325" lon="1.786343">
        <ele>1377.413</ele>
        <time>2019-06-01T08:45:13Z</time>
      </trkpt>
      <trkpt lat="42.316408" lon="1.786365">
        <ele>1378.021</ele>
        <time>2019-06-01T08:45:19Z</time>
      </trkpt>
      <trkpt lat="42.316424" lon="1.786364">
        <ele>1378.022</ele>
        <time>2019-06-01T08:45:20Z</time>
      </trkpt>
      <trkpt lat="42.316441" lon="1.786361">
        <ele>1378.294</ele>
        <time>2019-06-01T08:45:21Z</time>
      </trkpt>
      <trkpt lat="42.316505" lon="1.786355">
        <ele>1379.057</ele>
        <time>2019-06-01T08:45:26Z</time>
      </trkpt>
      <trkpt lat="42.316541" lon="1.786353">
        <ele>1379.422</ele>
        <time>2019-06-01T08:45:30Z</time>
      </trkpt>
      <trkpt lat="42.316568" lon="1.786348">
        <ele>1379.608</ele>
        <time>2019-06-01T08:45:32Z</time>
      </trkpt>
      <trkpt lat="42.316616" lon="1.786335">
        <ele>1380.622</ele>
        <time>2019-06-01T08:45:36Z</time>
      </trkpt>
      <trkpt lat="42.316640" lon="1.786323">
        <ele>1380.856</ele>
        <time>2019-06-01T08:45:38Z</time>
      </trkpt>
      <trkpt lat="42.316725" lon="1.786290">
        <ele>1381.652</ele>
        <time>2019-06-01T08:45:45Z</time>
      </trkpt>
      <trkpt lat="42.316798" lon="1.786287">
        <ele>1382.640</ele>
        <time>2019-06-01T08:45:51Z</time>
      </trkpt>
      <trkpt lat="42.316812" lon="1.786289">
        <ele>1382.894</ele>
        <time>2019-06-01T08:45:52Z</time>
      </trkpt>
      <trkpt lat="42.316901" lon="1.786274">
        <ele>1384.071</ele>
        <time>2019-06-01T08:45:59Z</time>
      </trkpt>
      <trkpt lat="42.316976" lon="1.786267">
        <ele>1385.069</ele>
        <time>2019-06-01T08:46:05Z</time>
      </trkpt>
      <trkpt lat="42.316998" lon="1.786264">
        <ele>1385.250</ele>
        <time>2019-06-01T08:46:07Z</time>
      </trkpt>
      <trkpt lat="42.317049" lon="1.786261">
        <ele>1386.245</ele>
        <time>2019-06-01T08:46:11Z</time>
      </trkpt>
      <trkpt lat="42.317080" lon="1.786260">
        <ele>1386.847</ele>
        <time>2019-06-01T08:46:14Z</time>
      </trkpt>
      <trkpt lat="42.317111" lon="1.786264">
        <ele>1387.411</ele>
        <time>2019-06-01T08:46:17Z</time>
      </trkpt>
      <trkpt lat="42.317150" lon="1.786272">
        <ele>1387.408</ele>
        <time>2019-06-01T08:46:20Z</time>
      </trkpt>
      <trkpt lat="42.317202" lon="1.786309">
        <ele>1388.427</ele>
        <time>2019-06-01T08:46:25Z</time>
      </trkpt>
      <trkpt lat="42.317212" lon="1.786320">
        <ele>1388.411</ele>
        <time>2019-06-01T08:46:26Z</time>
      </trkpt>
      <trkpt lat="42.316424" lon="1.786891">
        <ele>1399.057</ele>
        <time>2019-06-01T08:47:54Z</time>
      </trkpt>
      <trkpt lat="42.316391" lon="1.786900">
        <ele>1398.875</ele>
        <time>2019-06-01T08:47:56Z</time>
      </trkpt>
      <trkpt lat="42.316363" lon="1.786907">
        <ele>1399.019</ele>
        <time>2019-06-01T08:47:58Z</time>
      </trkpt>
      <trkpt lat="42.316270" lon="1.786892">
        <ele>1399.826</ele>
        <time>2019-06-01T08:48:04Z</time>
      </trkpt>
      <trkpt lat="42.316207" lon="1.786890">
        <ele>1400.624</ele>
        <time>2019-06-01T08:48:09Z</time>
      </trkpt>
      <trkpt lat="42.316175" lon="1.786896">
        <ele>1401.285</ele>
        <time>2019-06-01T08:48:11Z</time>
      </trkpt>
      <trkpt lat="42.316077" lon="1.786916">
        <ele>1402.041</ele>
        <time>2019-06-01T08:48:18Z</time>
      </trkpt>
      <trkpt lat="42.316040" lon="1.786919">
        <ele>1399.681</ele>
        <time>2019-06-01T08:48:21Z</time>
      </trkpt>
      <trkpt lat="42.316031" lon="1.786918">
        <ele>1400.409</ele>
        <time>2019-06-01T08:48:22Z</time>
      </trkpt>
      <trkpt lat="42.316014" lon="1.786928">
        <ele>1401.408</ele>
        <time>2019-06-01T08:48:23Z</time>
      </trkpt>
      <trkpt lat="42.315985" lon="1.786932">
        <ele>1402.277</ele>
        <time>2019-06-01T08:48:25Z</time>
      </trkpt>
      <trkpt lat="42.315959" lon="1.786929">
        <ele>1402.421</ele>
        <time>2019-06-01T08:48:27Z</time>
      </trkpt>
      <trkpt lat="42.315911" lon="1.786933">
        <ele>1402.677</ele>
        <time>2019-06-01T08:48:30Z</time>
      </trkpt>
      <trkpt lat="42.315859" lon="1.786937">
        <ele>1402.875</ele>
        <time>2019-06-01T08:48:33Z</time>
      </trkpt>
      <trkpt lat="42.315843" lon="1.786934">
        <ele>1402.859</ele>
        <time>2019-06-01T08:48:34Z</time>
      </trkpt>
      <trkpt lat="42.315757" lon="1.786896">
        <ele>1403.466</ele>
        <time>2019-06-01T08:48:40Z</time>
      </trkpt>
      <trkpt lat="42.315733" lon="1.786886">
        <ele>1403.894</ele>
        <time>2019-06-01T08:48:42Z</time>
      </trkpt>
      <trkpt lat="42.315661" lon="1.786879">
        <ele>1404.615</ele>
        <time>2019-06-01T08:48:47Z</time>
      </trkpt>
      <trkpt lat="42.315623" lon="1.786868">
        <ele>1405.272</ele>
        <time>2019-06-01T08:48:50Z</time>
      </trkpt>
      <trkpt lat="42.315601" lon="1.786866">
        <ele>1405.413</ele>
        <time>2019-06-01T08:48:52Z</time>
      </trkpt>
      <trkpt lat="42.315574" lon="1.786863">
        <ele>1405.814</ele>
        <time>2019-06-01T08:48:54Z</time>
      </trkpt>
      <trkpt lat="42.315536" lon="1.786870">
        <ele>1406.208</ele>
        <time>2019-06-01T08:48:57Z</time>
      </trkpt>
      <trkpt lat="42.315495" lon="1.786875">
        <ele>1406.830</ele>
        <time>2019-06-01T08:49:00Z</time>
      </trkpt>
      <trkpt lat="42.315473" lon="1.786879">
        <ele>1407.294</ele>
        <time>2019-06-01T08:49:02Z</time>
      </trkpt>
      <trkpt lat="42.315440" lon="1.786890">
        <ele>1407.890</ele>
        <time>2019-06-01T08:49:05Z</time>
      </trkpt>
      <trkpt lat="42.315371" lon="1.786927">
        <ele>1408.678</ele>
        <time>2019-06-01T08:49:11Z</time>
      </trkpt>
      <trkpt lat="42.315358" lon="1.786926">
        <ele>1409.052</ele>
        <time>2019-06-01T08:49:12Z</time>
      </trkpt>
      <trkpt lat="42.315281" lon="1.786948">
        <ele>1409.659</ele>
        <time>2019-06-01T08:49:18Z</time>
      </trkpt>
      <trkpt lat="42.315228" lon="1.786950">
        <ele>1410.087</ele>
        <time>2019-06-01T08:49:22Z</time>
      </trkpt>
      <trkpt lat="42.315173" lon="1.786936">
        <ele>1410.658</ele>
        <time>2019-06-01T08:49:26Z</time>
      </trkpt>
      <trkpt lat="42.315144" lon="1.786933">
        <ele>1410.871</ele>
        <time>2019-06-01T08:49:28Z</time>
      </trkpt>
      <trkpt lat="42.315108" lon="1.786943">
        <ele>1410.641</ele>
        <time>2019-06-01T08:49:31Z</time>
      </trkpt>
      <trkpt lat="42.315096" lon="1.786940">
        <ele>1410.815</ele>
        <time>2019-06-01T08:49:32Z</time>
      </trkpt>
      <trkpt lat="42.315044" lon="1.786922">
        <ele>1411.208</ele>
        <time>2019-06-01T08:49:36Z</time>
      </trkpt>
      <trkpt lat="42.315023" lon="1.786909">
        <ele>1411.640</ele>
        <time>2019-06-01T08:49:38Z</time>
      </trkpt>
      <trkpt lat="42.315012" lon="1.786904">
        <ele>1411.664</ele>
        <time>2019-06-01T08:49:39Z</time>
      </trkpt>
      <trkpt lat="42.314937" lon="1.786866">
        <ele>1412.250</ele>
        <time>2019-06-01T08:49:45Z</time>
      </trkpt>
      <trkpt lat="42.314910" lon="1.786860">
        <ele>1412.488</ele>
        <time>2019-06-01T08:49:47Z</time>
      </trkpt>
      <trkpt lat="42.314829" lon="1.786863">
        <ele>1413.092</ele>
        <time>2019-06-01T08:49:54Z</time>
      </trkpt>
      <trkpt lat="42.314733" lon="1.786866">
        <ele>1413.269</ele>
        <time>2019-06-01T08:50:00Z</time>
      </trkpt>
      <trkpt lat="42.314634" lon="1.786876">
        <ele>1413.877</ele>
        <time>2019-06-01T08:50:07Z</time>
      </trkpt>
      <trkpt lat="42.314581" lon="1.786877">
        <ele>1414.038</ele>
        <time>2019-06-01T08:50:10Z</time>
      </trkpt>
      <trkpt lat="42.314552" lon="1.786881">
        <ele>1414.241</ele>
        <time>2019-06-01T08:50:12Z</time>
      </trkpt>
      <trkpt lat="42.314539" lon="1.786877">
        <ele>1414.481</ele>
        <time>2019-06-01T08:50:13Z</time>
      </trkpt>
      <trkpt lat="42.314490" lon="1.786883">
        <ele>1414.409</ele>
        <time>2019-06-01T08:50:17Z</time>
      </trkpt>
      <trkpt lat="42.314459" lon="1.786882">
        <ele>1414.808</ele>
        <time>2019-06-01T08:50:19Z</time>
      </trkpt>
      <trkpt lat="42.314385" lon="1.786897">
        <ele>1415.627</ele>
        <time>2019-06-01T08:50:24Z</time>
      </trkpt>
      <trkpt lat="42.314359" lon="1.786888">
        <ele>1415.881</ele>
        <time>2019-06-01T08:50:26Z</time>
      </trkpt>
      <trkpt lat="42.314279" lon="1.786880">
        <ele>1416.267</ele>
        <time>2019-06-01T08:50:32Z</time>
      </trkpt>
      <trkpt lat="42.314263" lon="1.786883">
        <ele>1416.475</ele>
        <time>2019-06-01T08:50:33Z</time>
      </trkpt>
      <trkpt lat="42.314234" lon="1.786878">
        <ele>1416.659</ele>
        <time>2019-06-01T08:50:35Z</time>
      </trkpt>
      <trkpt lat="42.314196" lon="1.786863">
        <ele>1416.886</ele>
        <time>2019-06-01T08:50:38Z</time>
      </trkpt>
      <trkpt lat="42.314131" lon="1.786858">
        <ele>1417.674</ele>
        <time>2019-06-01T08:50:43Z</time>
      </trkpt>
      <trkpt lat="42.314082" lon="1.786860">
        <ele>1418.015</ele>
        <time>2019-06-01T08:50:46Z</time>
      </trkpt>
      <trkpt lat="42.313985" lon="1.786836">
        <ele>1418.682</ele>
        <time>2019-06-01T08:50:53Z</time>
      </trkpt>
      <trkpt lat="42.313970" lon="1.786829">
        <ele>1418.843</ele>
        <time>2019-06-01T08:50:54Z</time>
      </trkpt>
      <trkpt lat="42.313898" lon="1.786788">
        <ele>1419.617</ele>
        <time>2019-06-01T08:51:00Z</time>
      </trkpt>
      <trkpt lat="42.313873" lon="1.786781">
        <ele>1419.808</ele>
        <time>2019-06-01T08:51:02Z</time>
      </trkpt>
      <trkpt lat="42.313815" lon="1.786770">
        <ele>1420.661</ele>
        <time>2019-06-01T08:51:07Z</time>
      </trkpt>
      <trkpt lat="42.313792" lon="1.786775">
        <ele>1420.865</ele>
        <time>2019-06-01T08:51:09Z</time>
      </trkpt>
      <trkpt lat="42.313738" lon="1.786818">
        <ele>1421.481</ele>
        <time>2019-06-01T08:51:14Z</time>
      </trkpt>
      <trkpt lat="42.313715" lon="1.786884">
        <ele>1421.849</ele>
        <time>2019-06-01T08:51:18Z</time>
      </trkpt>
      <trkpt lat="42.313708" lon="1.786932">
        <ele>1422.493</ele>
        <time>2019-06-01T08:51:21Z</time>
      </trkpt>
      <trkpt lat="42.313716" lon="1.786991">
        <ele>1423.050</ele>
        <time>2019-06-01T08:51:25Z</time>
      </trkpt>
      <trkpt lat="42.313725" lon="1.787022">
        <ele>1423.428</ele>
        <time>2019-06-01T08:51:27Z</time>
      </trkpt>
      <trkpt lat="42.313742" lon="1.787130">
        <ele>1424.039</ele>
        <time>2019-06-01T08:51:34Z</time>
      </trkpt>
      <trkpt lat="42.313747" lon="1.787142">
        <ele>1424.056</ele>
        <time>2019-06-01T08:51:35Z</time>
      </trkpt>
      <trkpt lat="42.313753" lon="1.787183">
        <ele>1424.859</ele>
        <time>2019-06-01T08:51:38Z</time>
      </trkpt>
      <trkpt lat="42.313766" lon="1.787225">
        <ele>1425.014</ele>
        <time>2019-06-01T08:51:41Z</time>
      </trkpt>
      <trkpt lat="42.313772" lon="1.787237">
        <ele>1425.408</ele>
        <time>2019-06-01T08:51:42Z</time>
      </trkpt>
      <trkpt lat="42.313780" lon="1.787283">
        <ele>1426.218</ele>
        <time>2019-06-01T08:51:45Z</time>
      </trkpt>
      <trkpt lat="42.313785" lon="1.787349">
        <ele>1426.432</ele>
        <time>2019-06-01T08:51:50Z</time>
      </trkpt>
      <trkpt lat="42.313791" lon="1.787473">
        <ele>1427.058</ele>
        <time>2019-06-01T08:51:58Z</time>
      </trkpt>
      <trkpt lat="42.313788" lon="1.787488">
        <ele>1427.296</ele>
        <time>2019-06-01T08:51:59Z</time>
      </trkpt>
      <trkpt lat="42.313783" lon="1.787538">
        <ele>1428.450</ele>
        <time>2019-06-01T08:52:02Z</time>
      </trkpt>
      <trkpt lat="42.313785" lon="1.787572">
        <ele>1428.867</ele>
        <time>2019-06-01T08:52:04Z</time>
      </trkpt>
      <trkpt lat="42.313792" lon="1.787619">
        <ele>1429.665</ele>
        <time>2019-06-01T08:52:07Z</time>
      </trkpt>
      <trkpt lat="42.313795" lon="1.787710">
        <ele>1430.496</ele>
        <time>2019-06-01T08:52:13Z</time>
      </trkpt>
      <trkpt lat="42.313798" lon="1.787725">
        <ele>1430.693</ele>
        <time>2019-06-01T08:52:14Z</time>
      </trkpt>
      <trkpt lat="42.313809" lon="1.787752">
        <ele>1431.065</ele>
        <time>2019-06-01T08:52:16Z</time>
      </trkpt>
      <trkpt lat="42.313831" lon="1.787791">
        <ele>1431.021</ele>
        <time>2019-06-01T08:52:19Z</time>
      </trkpt>
      <trkpt lat="42.313843" lon="1.787806">
        <ele>1431.008</ele>
        <time>2019-06-01T08:52:20Z</time>
      </trkpt>
      <trkpt lat="42.313876" lon="1.787853">
        <ele>1431.812</ele>
        <time>2019-06-01T08:52:24Z</time>
      </trkpt>
      <trkpt lat="42.313883" lon="1.787863">
        <ele>1431.816</ele>
        <time>2019-06-01T08:52:25Z</time>
      </trkpt>
      <trkpt lat="42.313931" lon="1.787959">
        <ele>1432.832</ele>
        <time>2019-06-01T08:52:32Z</time>
      </trkpt>
      <trkpt lat="42.313936" lon="1.787972">
        <ele>1432.850</ele>
        <time>2019-06-01T08:52:33Z</time>
      </trkpt>
      <trkpt lat="42.313965" lon="1.788070">
        <ele>1433.484</ele>
        <time>2019-06-01T08:52:40Z</time>
      </trkpt>
      <trkpt lat="42.313974" lon="1.788118">
        <ele>1433.861</ele>
        <time>2019-06-01T08:52:43Z</time>
      </trkpt>
      <trkpt lat="42.313985" lon="1.788131">
        <ele>1433.839</ele>
        <time>2019-06-01T08:52:44Z</time>
      </trkpt>
      <trkpt lat="42.313993" lon="1.788147">
        <ele>1434.090</ele>
        <time>2019-06-01T08:52:45Z</time>
      </trkpt>
      <trkpt lat="42.314004" lon="1.788218">
        <ele>1434.669</ele>
        <time>2019-06-01T08:52:50Z</time>
      </trkpt>
      <trkpt lat="42.314007" lon="1.788231">
        <ele>1434.804</ele>
        <time>2019-06-01T08:52:51Z</time>
      </trkpt>
      <trkpt lat="42.314011" lon="1.788248">
        <ele>1435.024</ele>
        <time>2019-06-01T08:52:52Z</time>
      </trkpt>
      <trkpt lat="42.314038" lon="1.788321">
        <ele>1435.808</ele>
        <time>2019-06-01T08:52:57Z</time>
      </trkpt>
      <trkpt lat="42.314041" lon="1.788336">
        <ele>1435.829</ele>
        <time>2019-06-01T08:52:58Z</time>
      </trkpt>
      <trkpt lat="42.314043" lon="1.788347">
        <ele>1436.063</ele>
        <time>2019-06-01T08:52:59Z</time>
      </trkpt>
      <trkpt lat="42.314073" lon="1.788431">
        <ele>1437.099</ele>
        <time>2019-06-01T08:53:05Z</time>
      </trkpt>
      <trkpt lat="42.314082" lon="1.788502">
        <ele>1437.417</ele>
        <time>2019-06-01T08:53:10Z</time>
      </trkpt>
      <trkpt lat="42.314084" lon="1.788515">
        <ele>1437.451</ele>
        <time>2019-06-01T08:53:11Z</time>
      </trkpt>
      <trkpt lat="42.314093" lon="1.788563">
        <ele>1438.018</ele>
        <time>2019-06-01T08:53:14Z</time>
      </trkpt>
      <trkpt lat="42.314091" lon="1.788583">
        <ele>1438.296</ele>
        <time>2019-06-01T08:53:15Z</time>
      </trkpt>
      <trkpt lat="42.314055" lon="1.788669">
        <ele>1439.267</ele>
        <time>2019-06-01T08:53:21Z</time>
      </trkpt>
      <trkpt lat="42.314027" lon="1.788688">
        <ele>1439.435</ele>
        <time>2019-06-01T08:53:23Z</time>
      </trkpt>
      <trkpt lat="42.313971" lon="1.788747">
        <ele>1440.286</ele>
        <time>2019-06-01T08:53:29Z</time>
      </trkpt>
      <trkpt lat="42.313948" lon="1.788753">
        <ele>1440.414</ele>
        <time>2019-06-01T08:53:31Z</time>
      </trkpt>
      <trkpt lat="42.313881" lon="1.788782">
        <ele>1441.008</ele>
        <time>2019-06-01T08:53:37Z</time>
      </trkpt>
      <trkpt lat="42.313798" lon="1.788819">
        <ele>1441.226</ele>
        <time>2019-06-01T08:53:44Z</time>
      </trkpt>
      <trkpt lat="42.313771" lon="1.788830">
        <ele>1441.470</ele>
        <time>2019-06-01T08:53:46Z</time>
      </trkpt>
      <trkpt lat="42.313683" lon="1.788878">
        <ele>1441.436</ele>
        <time>2019-06-01T08:53:53Z</time>
      </trkpt>
      <trkpt lat="42.313672" lon="1.788888">
        <ele>1441.234</ele>
        <time>2019-06-01T08:53:54Z</time>
      </trkpt>
      <trkpt lat="42.313630" lon="1.788924">
        <ele>1441.418</ele>
        <time>2019-06-01T08:53:57Z</time>
      </trkpt>
      <trkpt lat="42.313607" lon="1.788946">
        <ele>1441.415</ele>
        <time>2019-06-01T08:53:59Z</time>
      </trkpt>
      <trkpt lat="42.313564" lon="1.788974">
        <ele>1441.453</ele>
        <time>2019-06-01T08:54:02Z</time>
      </trkpt>
      <trkpt lat="42.313532" lon="1.788989">
        <ele>1441.674</ele>
        <time>2019-06-01T08:54:04Z</time>
      </trkpt>
      <trkpt lat="42.313477" lon="1.789023">
        <ele>1441.861</ele>
        <time>2019-06-01T08:54:08Z</time>
      </trkpt>
      <trkpt lat="42.313440" lon="1.789026">
        <ele>1441.821</ele>
        <time>2019-06-01T08:54:10Z</time>
      </trkpt>
      <trkpt lat="42.313338" lon="1.789053">
        <ele>1441.813</ele>
        <time>2019-06-01T08:54:15Z</time>
      </trkpt>
      <trkpt lat="42.313261" lon="1.789027">
        <ele>1442.008</ele>
        <time>2019-06-01T08:54:19Z</time>
      </trkpt>
      <trkpt lat="42.313240" lon="1.789023">
        <ele>1442.249</ele>
        <time>2019-06-01T08:54:20Z</time>
      </trkpt>
      <trkpt lat="42.313180" lon="1.789006">
        <ele>1442.623</ele>
        <time>2019-06-01T08:54:24Z</time>
      </trkpt>
      <trkpt lat="42.313160" lon="1.789005">
        <ele>1442.659</ele>
        <time>2019-06-01T08:54:26Z</time>
      </trkpt>
      <trkpt lat="42.313141" lon="1.789024">
        <ele>1442.847</ele>
        <time>2019-06-01T08:54:28Z</time>
      </trkpt>
      <trkpt lat="42.313093" lon="1.789064">
        <ele>1443.471</ele>
        <time>2019-06-01T08:54:32Z</time>
      </trkpt>
      <trkpt lat="42.313038" lon="1.789122">
        <ele>1443.698</ele>
        <time>2019-06-01T08:54:37Z</time>
      </trkpt>
      <trkpt lat="42.312995" lon="1.789230">
        <ele>1443.886</ele>
        <time>2019-06-01T08:54:43Z</time>
      </trkpt>
      <trkpt lat="42.312989" lon="1.789245">
        <ele>1444.097</ele>
        <time>2019-06-01T08:54:44Z</time>
      </trkpt>
      <trkpt lat="42.312962" lon="1.789313">
        <ele>1444.846</ele>
        <time>2019-06-01T08:54:48Z</time>
      </trkpt>
      <trkpt lat="42.312929" lon="1.789403">
        <ele>1445.288</ele>
        <time>2019-06-01T08:54:53Z</time>
      </trkpt>
      <trkpt lat="42.312891" lon="1.789463">
        <ele>1445.816</ele>
        <time>2019-06-01T08:54:58Z</time>
      </trkpt>
      <trkpt lat="42.312875" lon="1.789486">
        <ele>1445.808</ele>
        <time>2019-06-01T08:55:00Z</time>
      </trkpt>
      <trkpt lat="42.312822" lon="1.789610">
        <ele>1446.827</ele>
        <time>2019-06-01T08:55:09Z</time>
      </trkpt>
      <trkpt lat="42.312807" lon="1.789642">
        <ele>1447.061</ele>
        <time>2019-06-01T08:55:11Z</time>
      </trkpt>
      <trkpt lat="42.312782" lon="1.789729">
        <ele>1447.687</ele>
        <time>2019-06-01T08:55:16Z</time>
      </trkpt>
      <trkpt lat="42.312719" lon="1.789887">
        <ele>1447.895</ele>
        <time>2019-06-01T08:55:23Z</time>
      </trkpt>
      <trkpt lat="42.312677" lon="1.789947">
        <ele>1448.219</ele>
        <time>2019-06-01T08:55:28Z</time>
      </trkpt>
      <trkpt lat="42.312665" lon="1.789952">
        <ele>1448.436</ele>
        <time>2019-06-01T08:55:29Z</time>
      </trkpt>
      <trkpt lat="42.312640" lon="1.789962">
        <ele>1448.694</ele>
        <time>2019-06-01T08:55:31Z</time>
      </trkpt>
      <trkpt lat="42.312584" lon="1.789989">
        <ele>1448.845</ele>
        <time>2019-06-01T08:55:35Z</time>
      </trkpt>
      <trkpt lat="42.312512" lon="1.790003">
        <ele>1449.276</ele>
        <time>2019-06-01T08:55:40Z</time>
      </trkpt>
      <trkpt lat="42.312497" lon="1.790007">
        <ele>1449.290</ele>
        <time>2019-06-01T08:55:41Z</time>
      </trkpt>
      <trkpt lat="42.312454" lon="1.790035">
        <ele>1449.619</ele>
        <time>2019-06-01T08:55:44Z</time>
      </trkpt>
      <trkpt lat="42.312424" lon="1.790056">
        <ele>1449.608</ele>
        <time>2019-06-01T08:55:46Z</time>
      </trkpt>
      <trkpt lat="42.312342" lon="1.790113">
        <ele>1450.220</ele>
        <time>2019-06-01T08:55:52Z</time>
      </trkpt>
      <trkpt lat="42.312327" lon="1.790126">
        <ele>1450.274</ele>
        <time>2019-06-01T08:55:53Z</time>
      </trkpt>
      <trkpt lat="42.312258" lon="1.790185">
        <ele>1450.660</ele>
        <time>2019-06-01T08:55:59Z</time>
      </trkpt>
      <trkpt lat="42.312185" lon="1.790246">
        <ele>1451.248</ele>
        <time>2019-06-01T08:56:05Z</time>
      </trkpt>
      <trkpt lat="42.312173" lon="1.790258">
        <ele>1451.422</ele>
        <time>2019-06-01T08:56:06Z</time>
      </trkpt>
      <trkpt lat="42.312124" lon="1.790350">
        <ele>1451.869</ele>
        <time>2019-06-01T08:56:12Z</time>
      </trkpt>
      <trkpt lat="42.312091" lon="1.790464">
        <ele>1452.477</ele>
        <time>2019-06-01T08:56:18Z</time>
      </trkpt>
      <trkpt lat="42.312081" lon="1.790540">
        <ele>1453.048</ele>
        <time>2019-06-01T08:56:23Z</time>
      </trkpt>
      <trkpt lat="42.312080" lon="1.790572">
        <ele>1453.417</ele>
        <time>2019-06-01T08:56:25Z</time>
      </trkpt>
      <trkpt lat="42.312081" lon="1.790608">
        <ele>1453.687</ele>
        <time>2019-06-01T08:56:27Z</time>
      </trkpt>
      <trkpt lat="42.312092" lon="1.790671">
        <ele>1454.215</ele>
        <time>2019-06-01T08:56:31Z</time>
      </trkpt>
      <trkpt lat="42.312085" lon="1.790724">
        <ele>1454.408</ele>
        <time>2019-06-01T08:56:34Z</time>
      </trkpt>
      <trkpt lat="42.312084" lon="1.790741">
        <ele>1454.644</ele>
        <time>2019-06-01T08:56:35Z</time>
      </trkpt>
      <trkpt lat="42.312084" lon="1.791139">
        <ele>1457.238</ele>
        <time>2019-06-01T08:56:59Z</time>
      </trkpt>
      <trkpt lat="42.312087" lon="1.791197">
        <ele>1457.834</ele>
        <time>2019-06-01T08:57:03Z</time>
      </trkpt>
      <trkpt lat="42.312093" lon="1.791226">
        <ele>1458.062</ele>
        <time>2019-06-01T08:57:05Z</time>
      </trkpt>
      <trkpt lat="42.312096" lon="1.791276">
        <ele>1458.476</ele>
        <time>2019-06-01T08:57:08Z</time>
      </trkpt>
      <trkpt lat="42.312097" lon="1.791294">
        <ele>1458.683</ele>
        <time>2019-06-01T08:57:09Z</time>
      </trkpt>
      <trkpt lat="42.312100" lon="1.791329">
        <ele>1458.611</ele>
        <time>2019-06-01T08:57:11Z</time>
      </trkpt>
      <trkpt lat="42.312101" lon="1.791410">
        <ele>1459.622</ele>
        <time>2019-06-01T08:57:16Z</time>
      </trkpt>
      <trkpt lat="42.312093" lon="1.791441">
        <ele>1459.652</ele>
        <time>2019-06-01T08:57:18Z</time>
      </trkpt>
      <trkpt lat="42.312055" lon="1.791513">
        <ele>1460.653</ele>
        <time>2019-06-01T08:57:23Z</time>
      </trkpt>
      <trkpt lat="42.312042" lon="1.791522">
        <ele>1460.808</ele>
        <time>2019-06-01T08:57:25Z</time>
      </trkpt>
      <trkpt lat="42.312005" lon="1.791529">
        <ele>1461.008</ele>
        <time>2019-06-01T08:57:28Z</time>
      </trkpt>
      <trkpt lat="42.311981" lon="1.791520">
        <ele>1461.028</ele>
        <time>2019-06-01T08:57:30Z</time>
      </trkpt>
      <trkpt lat="42.311928" lon="1.791438">
        <ele>1461.872</ele>
        <time>2019-06-01T08:57:37Z</time>
      </trkpt>
      <trkpt lat="42.311881" lon="1.791353">
        <ele>1462.268</ele>
        <time>2019-06-01T08:57:43Z</time>
      </trkpt>
      <trkpt lat="42.311832" lon="1.791256">
        <ele>1462.816</ele>
        <time>2019-06-01T08:57:50Z</time>
      </trkpt>
      <trkpt lat="42.311777" lon="1.791184">
        <ele>1463.690</ele>
        <time>2019-06-01T08:57:56Z</time>
      </trkpt>
      <trkpt lat="42.311717" lon="1.791138">
        <ele>1464.017</ele>
        <time>2019-06-01T08:58:01Z</time>
      </trkpt>
      <trkpt lat="42.311698" lon="1.791116">
        <ele>1464.285</ele>
        <time>2019-06-01T08:58:03Z</time>
      </trkpt>
      <trkpt lat="42.311622" lon="1.791033">
        <ele>1465.066</ele>
        <time>2019-06-01T08:58:10Z</time>
      </trkpt>
      <trkpt lat="42.311516" lon="1.790966">
        <ele>1466.016</ele>
        <time>2019-06-01T08:58:19Z</time>
      </trkpt>
      <trkpt lat="42.311494" lon="1.790960">
        <ele>1466.276</ele>
        <time>2019-06-01T08:58:21Z</time>
      </trkpt>
      <trkpt lat="42.311439" lon="1.790962">
        <ele>1467.213</ele>
        <time>2019-06-01T08:58:26Z</time>
      </trkpt>
      <trkpt lat="42.311338" lon="1.790955">
        <ele>1467.808</ele>
        <time>2019-06-01T08:58:35Z</time>
      </trkpt>
      <trkpt lat="42.311307" lon="1.790945">
        <ele>1468.294</ele>
        <time>2019-06-01T08:58:38Z</time>
      </trkpt>
      <trkpt lat="42.311262" lon="1.790922">
        <ele>1468.628</ele>
        <time>2019-06-01T08:58:42Z</time>
      </trkpt>
      <trkpt lat="42.311223" lon="1.790873">
        <ele>1469.464</ele>
        <time>2019-06-01T08:58:47Z</time>
      </trkpt>
      <trkpt lat="42.311213" lon="1.790833">
        <ele>1470.062</ele>
        <time>2019-06-01T08:58:50Z</time>
      </trkpt>
      <trkpt lat="42.311214" lon="1.790767">
        <ele>1470.486</ele>
        <time>2019-06-01T08:58:54Z</time>
      </trkpt>
      <trkpt lat="42.311209" lon="1.790751">
        <ele>1470.453</ele>
        <time>2019-06-01T08:58:55Z</time>
      </trkpt>
      <trkpt lat="42.311216" lon="1.790709">
        <ele>1471.061</ele>
        <time>2019-06-01T08:58:58Z</time>
      </trkpt>
      <trkpt lat="42.311239" lon="1.790659">
        <ele>1471.482</ele>
        <time>2019-06-01T08:59:03Z</time>
      </trkpt>
      <trkpt lat="42.311242" lon="1.790642">
        <ele>1471.681</ele>
        <time>2019-06-01T08:59:04Z</time>
      </trkpt>
      <trkpt lat="42.311264" lon="1.790539">
        <ele>1472.461</ele>
        <time>2019-06-01T08:59:10Z</time>
      </trkpt>
      <trkpt lat="42.311270" lon="1.790526">
        <ele>1472.417</ele>
        <time>2019-06-01T08:59:11Z</time>
      </trkpt>
      <trkpt lat="42.311277" lon="1.790428">
        <ele>1473.208</ele>
        <time>2019-06-01T08:59:17Z</time>
      </trkpt>
      <trkpt lat="42.311277" lon="1.790390">
        <ele>1473.491</ele>
        <time>2019-06-01T08:59:19Z</time>
      </trkpt>
      <trkpt lat="42.311280" lon="1.790358">
        <ele>1473.445</ele>
        <time>2019-06-01T08:59:21Z</time>
      </trkpt>
      <trkpt lat="42.311287" lon="1.790328">
        <ele>1473.491</ele>
        <time>2019-06-01T08:59:23Z</time>
      </trkpt>
      <trkpt lat="42.311289" lon="1.790310">
        <ele>1473.639</ele>
        <time>2019-06-01T08:59:24Z</time>
      </trkpt>
      <trkpt lat="42.311271" lon="1.790204">
        <ele>1474.493</ele>
        <time>2019-06-01T08:59:29Z</time>
      </trkpt>
      <trkpt lat="42.311269" lon="1.790187">
        <ele>1474.450</ele>
        <time>2019-06-01T08:59:30Z</time>
      </trkpt>
      <trkpt lat="42.311259" lon="1.790089">
        <ele>1475.418</ele>
        <time>2019-06-01T08:59:36Z</time>
      </trkpt>
      <trkpt lat="42.311262" lon="1.789979">
        <ele>1476.429</ele>
        <time>2019-06-01T08:59:43Z</time>
      </trkpt>
      <trkpt lat="42.311268" lon="1.789965">
        <ele>1476.661</ele>
        <time>2019-06-01T08:59:44Z</time>
      </trkpt>
      <trkpt lat="42.311273" lon="1.789866">
        <ele>1477.221</ele>
        <time>2019-06-01T08:59:50Z</time>
      </trkpt>
      <trkpt lat="42.311279" lon="1.789839">
        <ele>1477.613</ele>
        <time>2019-06-01T08:59:52Z</time>
      </trkpt>
      <trkpt lat="42.311278" lon="1.789790">
        <ele>1478.008</ele>
        <time>2019-06-01T08:59:56Z</time>
      </trkpt>
      <trkpt lat="42.311282" lon="1.789748">
        <ele>1478.829</ele>
        <time>2019-06-01T08:59:59Z</time>
      </trkpt>
      <trkpt lat="42.311288" lon="1.789735">
        <ele>1478.883</ele>
        <time>2019-06-01T09:00:00Z</time>
      </trkpt>
      <trkpt lat="42.311288" lon="1.789706">
        <ele>1479.419</ele>
        <time>2019-06-01T09:00:02Z</time>
      </trkpt>
      <trkpt lat="42.311295" lon="1.789638">
        <ele>1479.867</ele>
        <time>2019-06-01T09:00:07Z</time>
      </trkpt>
      <trkpt lat="42.311292" lon="1.789613">
        <ele>1480.271</ele>
        <time>2019-06-01T09:00:09Z</time>
      </trkpt>
      <trkpt lat="42.311285" lon="1.789540">
        <ele>1480.888</ele>
        <time>2019-06-01T09:00:14Z</time>
      </trkpt>
      <trkpt lat="42.311285" lon="1.789530">
        <ele>1481.086</ele>
        <time>2019-06-01T09:00:15Z</time>
      </trkpt>
      <trkpt lat="42.311285" lon="1.789503">
        <ele>1481.027</ele>
        <time>2019-06-01T09:00:17Z</time>
      </trkpt>
      <trkpt lat="42.311287" lon="1.789412">
        <ele>1482.037</ele>
        <time>2019-06-01T09:00:23Z</time>
      </trkpt>
      <trkpt lat="42.311287" lon="1.789372">
        <ele>1482.849</ele>
        <time>2019-06-01T09:00:26Z</time>
      </trkpt>
      <trkpt lat="42.311282" lon="1.789343">
        <ele>1483.013</ele>
        <time>2019-06-01T09:00:28Z</time>
      </trkpt>
      <trkpt lat="42.311286" lon="1.789251">
        <ele>1483.808</ele>
        <time>2019-06-01T09:00:34Z</time>
      </trkpt>
      <trkpt lat="42.311290" lon="1.789187">
        <ele>1484.256</ele>
        <time>2019-06-01T09:00:38Z</time>
      </trkpt>
      <trkpt lat="42.311286" lon="1.789157">
        <ele>1484.610</ele>
        <time>2019-06-01T09:00:40Z</time>
      </trkpt>
      <trkpt lat="42.311289" lon="1.789109">
        <ele>1485.216</ele>
        <time>2019-06-01T09:00:43Z</time>
      </trkpt>
      <trkpt lat="42.311282" lon="1.789081">
        <ele>1485.444</ele>
        <time>2019-06-01T09:00:45Z</time>
      </trkpt>
      <trkpt lat="42.311273" lon="1.789055">
        <ele>1485.828</ele>
        <time>2019-06-01T09:00:47Z</time>
      </trkpt>
      <trkpt lat="42.311254" lon="1.789036">
        <ele>1486.495</ele>
        <time>2019-06-01T09:00:49Z</time>
      </trkpt>
      <trkpt lat="42.311200" lon="1.788976">
        <ele>1487.493</ele>
        <time>2019-06-01T09:00:54Z</time>
      </trkpt>
      <trkpt lat="42.311190" lon="1.788970">
        <ele>1487.614</ele>
        <time>2019-06-01T09:00:55Z</time>
      </trkpt>
      <trkpt lat="42.311135" lon="1.788976">
        <ele>1488.653</ele>
        <time>2019-06-01T09:01:00Z</time>
      </trkpt>
      <trkpt lat="42.311127" lon="1.788991">
        <ele>1488.804</ele>
        <time>2019-06-01T09:01:01Z</time>
      </trkpt>
      <trkpt lat="42.311105" lon="1.789003">
        <ele>1489.014</ele>
        <time>2019-06-01T09:01:03Z</time>
      </trkpt>
      <trkpt lat="42.311070" lon="1.789023">
        <ele>1489.608</ele>
        <time>2019-06-01T09:01:06Z</time>
      </trkpt>
      <trkpt lat="42.311065" lon="1.789034">
        <ele>1489.828</ele>
        <time>2019-06-01T09:01:07Z</time>
      </trkpt>
      <trkpt lat="42.311014" lon="1.789119">
        <ele>1490.852</ele>
        <time>2019-06-01T09:01:14Z</time>
      </trkpt>
      <trkpt lat="42.311005" lon="1.789129">
        <ele>1491.028</ele>
        <time>2019-06-01T09:01:15Z</time>
      </trkpt>
      <trkpt lat="42.310972" lon="1.789180">
        <ele>1491.826</ele>
        <time>2019-06-01T09:01:20Z</time>
      </trkpt>
      <trkpt lat="42.310955" lon="1.789216">
        <ele>1492.080</ele>
        <time>2019-06-01T09:01:23Z</time>
      </trkpt>
      <trkpt lat="42.310926" lon="1.789327">
        <ele>1492.627</ele>
        <time>2019-06-01T09:01:31Z</time>
      </trkpt>
      <trkpt lat="42.310911" lon="1.789383">
        <ele>1492.865</ele>
        <time>2019-06-01T09:01:35Z</time>
      </trkpt>
      <trkpt lat="42.310903" lon="1.789421">
        <ele>1493.246</ele>
        <time>2019-06-01T09:01:38Z</time>
      </trkpt>
      <trkpt lat="42.310884" lon="1.789503">
        <ele>1494.032</ele>
        <time>2019-06-01T09:01:44Z</time>
      </trkpt>
      <trkpt lat="42.310865" lon="1.789545">
        <ele>1494.492</ele>
        <time>2019-06-01T09:01:47Z</time>
      </trkpt>
      <trkpt lat="42.310847" lon="1.789585">
        <ele>1495.011</ele>
        <time>2019-06-01T09:01:50Z</time>
      </trkpt>
      <trkpt lat="42.310812" lon="1.789633">
        <ele>1495.208</ele>
        <time>2019-06-01T09:01:54Z</time>
      </trkpt>
      <trkpt lat="42.310786" lon="1.789689">
        <ele>1496.026</ele>
        <time>2019-06-01T09:01:58Z</time>
      </trkpt>
      <trkpt lat="42.310757" lon="1.789761">
        <ele>1496.410</ele>
        <time>2019-06-01T09:02:04Z</time>
      </trkpt>
      <trkpt lat="42.310737" lon="1.789814">
        <ele>1497.096</ele>
        <time>2019-06-01T09:02:08Z</time>
      </trkpt>
      <trkpt lat="42.310729" lon="1.789846">
        <ele>1497.034</ele>
        <time>2019-06-01T09:02:10Z</time>
      </trkpt>
      <trkpt lat="42.310726" lon="1.789857">
        <ele>1497.228</ele>
        <time>2019-06-01T09:02:11Z</time>
      </trkpt>
      <trkpt lat="42.310704" lon="1.789915">
        <ele>1498.245</ele>
        <time>2019-06-01T09:02:16Z</time>
      </trkpt>
      <trkpt lat="42.310696" lon="1.789940">
        <ele>1498.423</ele>
        <time>2019-06-01T09:02:18Z</time>
      </trkpt>
      <trkpt lat="42.310692" lon="1.789955">
        <ele>1498.674</ele>
        <time>2019-06-01T09:02:19Z</time>
      </trkpt>
      <trkpt lat="42.310681" lon="1.790001">
        <ele>1499.019</ele>
        <time>2019-06-01T09:02:22Z</time>
      </trkpt>
      <trkpt lat="42.310665" lon="1.790042">
        <ele>1499.209</ele>
        <time>2019-06-01T09:02:25Z</time>
      </trkpt>
      <trkpt lat="42.310647" lon="1.790125">
        <ele>1500.019</ele>
        <time>2019-06-01T09:02:31Z</time>
      </trkpt>
      <trkpt lat="42.310638" lon="1.790140">
        <ele>1500.008</ele>
        <time>2019-06-01T09:02:32Z</time>
      </trkpt>
      <trkpt lat="42.310630" lon="1.790162">
        <ele>1500.474</ele>
        <time>2019-06-01T09:02:34Z</time>
      </trkpt>
      <trkpt lat="42.310598" lon="1.790228">
        <ele>1501.418</ele>
        <time>2019-06-01T09:02:40Z</time>
      </trkpt>
      <trkpt lat="42.310592" lon="1.790242">
        <ele>1501.484</ele>
        <time>2019-06-01T09:02:41Z</time>
      </trkpt>
      <trkpt lat="42.310560" lon="1.790310">
        <ele>1502.422</ele>
        <time>2019-06-01T09:02:47Z</time>
      </trkpt>
      <trkpt lat="42.310549" lon="1.790332">
        <ele>1503.096</ele>
        <time>2019-06-01T09:02:49Z</time>
      </trkpt>
      <trkpt lat="42.310531" lon="1.790365">
        <ele>1503.423</ele>
        <time>2019-06-01T09:02:52Z</time>
      </trkpt>
      <trkpt lat="42.310503" lon="1.790412">
        <ele>1504.261</ele>
        <time>2019-06-01T09:02:56Z</time>
      </trkpt>
      <trkpt lat="42.310493" lon="1.790433">
        <ele>1504.692</ele>
        <time>2019-06-01T09:02:58Z</time>
      </trkpt>
      <trkpt lat="42.310485" lon="1.790458">
        <ele>1504.863</ele>
        <time>2019-06-01T09:03:00Z</time>
      </trkpt>
      <trkpt lat="42.310466" lon="1.790502">
        <ele>1505.244</ele>
        <time>2019-06-01T09:03:04Z</time>
      </trkpt>
      <trkpt lat="42.310456" lon="1.790523">
        <ele>1505.618</ele>
        <time>2019-06-01T09:03:06Z</time>
      </trkpt>
      <trkpt lat="42.310453" lon="1.790537">
        <ele>1505.808</ele>
        <time>2019-06-01T09:03:07Z</time>
      </trkpt>
      <trkpt lat="42.310433" lon="1.790569">
        <ele>1506.659</ele>
        <time>2019-06-01T09:03:11Z</time>
      </trkpt>
      <trkpt lat="42.310429" lon="1.790577">
        <ele>1506.853</ele>
        <time>2019-06-01T09:03:12Z</time>
      </trkpt>
      <trkpt lat="42.310412" lon="1.790617">
        <ele>1508.059</ele>
        <time>2019-06-01T09:03:16Z</time>
      </trkpt>
      <trkpt lat="42.310405" lon="1.790626">
        <ele>1508.027</ele>
        <time>2019-06-01T09:03:17Z</time>
      </trkpt>
      <trkpt lat="42.310387" lon="1.790656">
        <ele>1509.241</ele>
        <time>2019-06-01T09:03:21Z</time>
      </trkpt>
      <trkpt lat="42.310382" lon="1.790672">
        <ele>1509.698</ele>
        <time>2019-06-01T09:03:23Z</time>
      </trkpt>
      <trkpt lat="42.310338" lon="1.790697">
        <ele>1510.286</ele>
        <time>2019-06-01T09:03:29Z</time>
      </trkpt>
      <trkpt lat="42.310295" lon="1.790708">
        <ele>1511.067</ele>
        <time>2019-06-01T09:03:34Z</time>
      </trkpt>
      <trkpt lat="42.310286" lon="1.790707">
        <ele>1511.231</ele>
        <time>2019-06-01T09:03:35Z</time>
      </trkpt>
      <trkpt lat="42.310275" lon="1.790713">
        <ele>1511.261</ele>
        <time>2019-06-01T09:03:36Z</time>
      </trkpt>
      <trkpt lat="42.310240" lon="1.790701">
        <ele>1512.207</ele>
        <time>2019-06-01T09:03:40Z</time>
      </trkpt>
      <trkpt lat="42.310233" lon="1.790701">
        <ele>1512.208</ele>
        <time>2019-06-01T09:03:41Z</time>
      </trkpt>
      <trkpt lat="42.310177" lon="1.790671">
        <ele>1513.226</ele>
        <time>2019-06-01T09:03:48Z</time>
      </trkpt>
      <trkpt lat="42.310171" lon="1.790668">
        <ele>1513.410</ele>
        <time>2019-06-01T09:03:49Z</time>
      </trkpt>
      <trkpt lat="42.310128" lon="1.790610">
        <ele>1514.066</ele>
        <time>2019-06-01T09:03:56Z</time>
      </trkpt>
      <trkpt lat="42.310111" lon="1.790591">
        <ele>1514.244</ele>
        <time>2019-06-01T09:03:58Z</time>
      </trkpt>
      <trkpt lat="42.310103" lon="1.790586">
        <ele>1514.498</ele>
        <time>2019-06-01T09:03:59Z</time>
      </trkpt>
      <trkpt lat="42.310082" lon="1.790556">
        <ele>1514.885</ele>
        <time>2019-06-01T09:04:02Z</time>
      </trkpt>
      <trkpt lat="42.310053" lon="1.790476">
        <ele>1515.433</ele>
        <time>2019-06-01T09:04:08Z</time>
      </trkpt>
      <trkpt lat="42.310053" lon="1.790451">
        <ele>1515.664</ele>
        <time>2019-06-01T09:04:10Z</time>
      </trkpt>
      <trkpt lat="42.310052" lon="1.790329">
        <ele>1516.416</ele>
        <time>2019-06-01T09:04:19Z</time>
      </trkpt>
      <trkpt lat="42.310050" lon="1.790301">
        <ele>1516.876</ele>
        <time>2019-06-01T09:04:21Z</time>
      </trkpt>
      <trkpt lat="42.310063" lon="1.790234">
        <ele>1517.013</ele>
        <time>2019-06-01T09:04:25Z</time>
      </trkpt>
      <trkpt lat="42.310072" lon="1.790129">
        <ele>1517.408</ele>
        <time>2019-06-01T09:04:31Z</time>
      </trkpt>
      <trkpt lat="42.310076" lon="1.790035">
        <ele>1517.654</ele>
        <time>2019-06-01T09:04:37Z</time>
      </trkpt>
      <trkpt lat="42.310072" lon="1.789983">
        <ele>1517.838</ele>
        <time>2019-06-01T09:04:40Z</time>
      </trkpt>
      <trkpt lat="42.310048" lon="1.789850">
        <ele>1518.694</ele>
        <time>2019-06-01T09:04:49Z</time>
      </trkpt>
      <trkpt lat="42.310035" lon="1.789800">
        <ele>1518.892</ele>
        <time>2019-06-01T09:04:52Z</time>
      </trkpt>
      <trkpt lat="42.310007" lon="1.789744">
        <ele>1518.826</ele>
        <time>2019-06-01T09:04:56Z</time>
      </trkpt>
      <trkpt lat="42.309982" lon="1.789710">
        <ele>1519.443</ele>
        <time>2019-06-01T09:04:59Z</time>
      </trkpt>
      <trkpt lat="42.309958" lon="1.789704">
        <ele>1519.621</ele>
        <time>2019-06-01T09:05:01Z</time>
      </trkpt>
      <trkpt lat="42.309935" lon="1.789698">
        <ele>1520.032</ele>
        <time>2019-06-01T09:05:03Z</time>
      </trkpt>
      <trkpt lat="42.309897" lon="1.789710">
        <ele>1520.866</ele>
        <time>2019-06-01T09:05:07Z</time>
      </trkpt>
      <trkpt lat="42.309846" lon="1.789729">
        <ele>1521.629</ele>
        <time>2019-06-01T09:05:11Z</time>
      </trkpt>
      <trkpt lat="42.309825" lon="1.789726">
        <ele>1522.021</ele>
        <time>2019-06-01T09:05:13Z</time>
      </trkpt>
      <trkpt lat="42.309748" lon="1.789756">
        <ele>1523.008</ele>
        <time>2019-06-01T09:05:20Z</time>
      </trkpt>
      <trkpt lat="42.309706" lon="1.789779">
        <ele>1524.059</ele>
        <time>2019-06-01T09:05:24Z</time>
      </trkpt>
      <trkpt lat="42.309631" lon="1.789818">
        <ele>1525.253</ele>
        <time>2019-06-01T09:05:31Z</time>
      </trkpt>
      <trkpt lat="42.309620" lon="1.789822">
        <ele>1525.289</ele>
        <time>2019-06-01T09:05:32Z</time>
      </trkpt>
      <trkpt lat="42.309572" lon="1.789847">
        <ele>1526.217</ele>
        <time>2019-06-01T09:05:37Z</time>
      </trkpt>
      <trkpt lat="42.309538" lon="1.789877">
        <ele>1527.011</ele>
        <time>2019-06-01T09:05:41Z</time>
      </trkpt>
      <trkpt lat="42.309515" lon="1.789904">
        <ele>1527.498</ele>
        <time>2019-06-01T09:05:44Z</time>
      </trkpt>
      <trkpt lat="42.309477" lon="1.789952">
        <ele>1528.496</ele>
        <time>2019-06-01T09:05:49Z</time>
      </trkpt>
      <trkpt lat="42.309453" lon="1.790000">
        <ele>1529.237</ele>
        <time>2019-06-01T09:05:53Z</time>
      </trkpt>
      <trkpt lat="42.309450" lon="1.790012">
        <ele>1529.488</ele>
        <time>2019-06-01T09:05:54Z</time>
      </trkpt>
      <trkpt lat="42.309448" lon="1.790038">
        <ele>1529.824</ele>
        <time>2019-06-01T09:05:56Z</time>
      </trkpt>
      <trkpt lat="42.309440" lon="1.790074">
        <ele>1530.426</ele>
        <time>2019-06-01T09:05:59Z</time>
      </trkpt>
      <trkpt lat="42.309416" lon="1.790142">
        <ele>1531.408</ele>
        <time>2019-06-01T09:06:04Z</time>
      </trkpt>
      <trkpt lat="42.309409" lon="1.790154">
        <ele>1531.651</ele>
        <time>2019-06-01T09:06:05Z</time>
      </trkpt>
      <trkpt lat="42.309409" lon="1.790169">
        <ele>1531.865</ele>
        <time>2019-06-01T09:06:06Z</time>
      </trkpt>
      <trkpt lat="42.309402" lon="1.790225">
        <ele>1532.611</ele>
        <time>2019-06-01T09:06:10Z</time>
      </trkpt>
      <trkpt lat="42.309399" lon="1.790242">
        <ele>1532.689</ele>
        <time>2019-06-01T09:06:11Z</time>
      </trkpt>
      <trkpt lat="42.309400" lon="1.790257">
        <ele>1532.883</ele>
        <time>2019-06-01T09:06:12Z</time>
      </trkpt>
      <trkpt lat="42.309405" lon="1.790347">
        <ele>1533.280</ele>
        <time>2019-06-01T09:06:18Z</time>
      </trkpt>
      <trkpt lat="42.309418" lon="1.790389">
        <ele>1533.838</ele>
        <time>2019-06-01T09:06:21Z</time>
      </trkpt>
      <trkpt lat="42.309427" lon="1.790399">
        <ele>1534.059</ele>
        <time>2019-06-01T09:06:22Z</time>
      </trkpt>
      <trkpt lat="42.309334" lon="1.790618">
        <ele>1536.651</ele>
        <time>2019-06-01T09:14:14Z</time>
      </trkpt>
      <trkpt lat="42.309300" lon="1.790641">
        <ele>1536.601</ele>
        <time>2019-06-01T09:14:17Z</time>
      </trkpt>
      <trkpt lat="42.309223" lon="1.790692">
        <ele>1537.811</ele>
        <time>2019-06-01T09:14:24Z</time>
      </trkpt>
      <trkpt lat="42.309211" lon="1.790702">
        <ele>1537.808</ele>
        <time>2019-06-01T09:14:25Z</time>
      </trkpt>
      <trkpt lat="42.309182" lon="1.790737">
        <ele>1538.698</ele>
        <time>2019-06-01T09:14:28Z</time>
      </trkpt>
      <trkpt lat="42.309173" lon="1.790750">
        <ele>1538.892</ele>
        <time>2019-06-01T09:14:29Z</time>
      </trkpt>
      <trkpt lat="42.309158" lon="1.790798">
        <ele>1539.648</ele>
        <time>2019-06-01T09:14:32Z</time>
      </trkpt>
      <trkpt lat="42.309159" lon="1.790829">
        <ele>1540.076</ele>
        <time>2019-06-01T09:14:34Z</time>
      </trkpt>
      <trkpt lat="42.309175" lon="1.790994">
        <ele>1540.450</ele>
        <time>2019-06-01T09:14:43Z</time>
      </trkpt>
      <trkpt lat="42.309170" lon="1.791078">
        <ele>1538.417</ele>
        <time>2019-06-01T09:14:48Z</time>
      </trkpt>
      <trkpt lat="42.309165" lon="1.791098">
        <ele>1537.845</ele>
        <time>2019-06-01T09:14:49Z</time>
      </trkpt>
      <trkpt lat="42.309160" lon="1.791117">
        <ele>1539.626</ele>
        <time>2019-06-01T09:14:50Z</time>
      </trkpt>
      <trkpt lat="42.309154" lon="1.791136">
        <ele>1542.095</ele>
        <time>2019-06-01T09:14:51Z</time>
      </trkpt>
      <trkpt lat="42.309113" lon="1.791306">
        <ele>1541.449</ele>
        <time>2019-06-01T09:15:00Z</time>
      </trkpt>
      <trkpt lat="42.309078" lon="1.791442">
        <ele>1541.623</ele>
        <time>2019-06-01T09:15:07Z</time>
      </trkpt>
      <trkpt lat="42.309016" lon="1.791613">
        <ele>1542.808</ele>
        <time>2019-06-01T09:15:16Z</time>
      </trkpt>
      <trkpt lat="42.309001" lon="1.791715">
        <ele>1543.282</ele>
        <time>2019-06-01T09:15:21Z</time>
      </trkpt>
      <trkpt lat="42.308994" lon="1.791789">
        <ele>1543.636</ele>
        <time>2019-06-01T09:15:24Z</time>
      </trkpt>
      <trkpt lat="42.308993" lon="1.792031">
        <ele>1543.422</ele>
        <time>2019-06-01T09:15:32Z</time>
      </trkpt>
      <trkpt lat="42.308993" lon="1.792249">
        <ele>1542.650</ele>
        <time>2019-06-01T09:15:38Z</time>
      </trkpt>
      <trkpt lat="42.308969" lon="1.792443">
        <ele>1542.684</ele>
        <time>2019-06-01T09:15:43Z</time>
      </trkpt>
      <trkpt lat="42.308914" lon="1.792585">
        <ele>1542.871</ele>
        <time>2019-06-01T09:15:48Z</time>
      </trkpt>
      <trkpt lat="42.308816" lon="1.792622">
        <ele>1543.449</ele>
        <time>2019-06-01T09:15:53Z</time>
      </trkpt>
      <trkpt lat="42.308751" lon="1.792627">
        <ele>1544.250</ele>
        <time>2019-06-01T09:15:57Z</time>
      </trkpt>
      <trkpt lat="42.308695" lon="1.792628">
        <ele>1544.827</ele>
        <time>2019-06-01T09:16:01Z</time>
      </trkpt>
      <trkpt lat="42.308660" lon="1.792647">
        <ele>1545.268</ele>
        <time>2019-06-01T09:16:04Z</time>
      </trkpt>
      <trkpt lat="42.308608" lon="1.792669">
        <ele>1545.614</ele>
        <time>2019-06-01T09:16:08Z</time>
      </trkpt>
      <trkpt lat="42.308564" lon="1.792694">
        <ele>1546.208</ele>
        <time>2019-06-01T09:16:12Z</time>
      </trkpt>
      <trkpt lat="42.308515" lon="1.792743">
        <ele>1546.855</ele>
        <time>2019-06-01T09:16:17Z</time>
      </trkpt>
      <trkpt lat="42.308468" lon="1.792777">
        <ele>1547.459</ele>
        <time>2019-06-01T09:16:21Z</time>
      </trkpt>
      <trkpt lat="42.308438" lon="1.792803">
        <ele>1547.835</ele>
        <time>2019-06-01T09:16:24Z</time>
      </trkpt>
      <trkpt lat="42.308406" lon="1.792823">
        <ele>1548.423</ele>
        <time>2019-06-01T09:16:27Z</time>
      </trkpt>
      <trkpt lat="42.308366" lon="1.792848">
        <ele>1549.057</ele>
        <time>2019-06-01T09:16:31Z</time>
      </trkpt>
      <trkpt lat="42.308355" lon="1.792853">
        <ele>1549.264</ele>
        <time>2019-06-01T09:16:32Z</time>
      </trkpt>
      <trkpt lat="42.308330" lon="1.792857">
        <ele>1549.692</ele>
        <time>2019-06-01T09:16:34Z</time>
      </trkpt>
      <trkpt lat="42.308306" lon="1.792859">
        <ele>1549.873</ele>
        <time>2019-06-01T09:16:36Z</time>
      </trkpt>
      <trkpt lat="42.308285" lon="1.792864">
        <ele>1550.092</ele>
        <time>2019-06-01T09:16:38Z</time>
      </trkpt>
      <trkpt lat="42.308249" lon="1.792873">
        <ele>1550.673</ele>
        <time>2019-06-01T09:16:41Z</time>
      </trkpt>
      <trkpt lat="42.308217" lon="1.792873">
        <ele>1551.020</ele>
        <time>2019-06-01T09:16:43Z</time>
      </trkpt>
      <trkpt lat="42.308187" lon="1.792877">
        <ele>1551.208</ele>
        <time>2019-06-01T09:16:45Z</time>
      </trkpt>
      <trkpt lat="42.308140" lon="1.792906">
        <ele>1551.682</ele>
        <time>2019-06-01T09:16:49Z</time>
      </trkpt>
      <trkpt lat="42.308130" lon="1.792916">
        <ele>1551.626</ele>
        <time>2019-06-01T09:16:50Z</time>
      </trkpt>
      <trkpt lat="42.308108" lon="1.792923">
        <ele>1552.052</ele>
        <time>2019-06-01T09:16:52Z</time>
      </trkpt>
      <trkpt lat="42.308082" lon="1.792929">
        <ele>1552.230</ele>
        <time>2019-06-01T09:16:54Z</time>
      </trkpt>
      <trkpt lat="42.308061" lon="1.792934">
        <ele>1552.484</ele>
        <time>2019-06-01T09:16:56Z</time>
      </trkpt>
      <trkpt lat="42.308049" lon="1.792937">
        <ele>1552.861</ele>
        <time>2019-06-01T09:16:57Z</time>
      </trkpt>
      <trkpt lat="42.308030" lon="1.792952">
        <ele>1553.019</ele>
        <time>2019-06-01T09:16:59Z</time>
      </trkpt>
      <trkpt lat="42.307980" lon="1.792983">
        <ele>1553.430</ele>
        <time>2019-06-01T09:17:03Z</time>
      </trkpt>
      <trkpt lat="42.307970" lon="1.792995">
        <ele>1553.836</ele>
        <time>2019-06-01T09:17:04Z</time>
      </trkpt>
      <trkpt lat="42.307948" lon="1.793015">
        <ele>1554.017</ele>
        <time>2019-06-01T09:17:06Z</time>
      </trkpt>
      <trkpt lat="42.307890" lon="1.793051">
        <ele>1554.018</ele>
        <time>2019-06-01T09:17:11Z</time>
      </trkpt>
      <trkpt lat="42.307520" lon="1.793011">
        <ele>1558.008</ele>
        <time>2019-06-01T09:17:37Z</time>
      </trkpt>
      <trkpt lat="42.307498" lon="1.792990">
        <ele>1558.466</ele>
        <time>2019-06-01T09:17:39Z</time>
      </trkpt>
      <trkpt lat="42.307463" lon="1.792970">
        <ele>1559.020</ele>
        <time>2019-06-01T09:17:42Z</time>
      </trkpt>
      <trkpt lat="42.307414" lon="1.792942">
        <ele>1559.476</ele>
        <time>2019-06-01T09:17:46Z</time>
      </trkpt>
      <trkpt lat="42.307362" lon="1.792929">
        <ele>1560.264</ele>
        <time>2019-06-01T09:17:50Z</time>
      </trkpt>
      <trkpt lat="42.307328" lon="1.792935">
        <ele>1560.468</ele>
        <time>2019-06-01T09:17:53Z</time>
      </trkpt>
      <trkpt lat="42.307315" lon="1.792938">
        <ele>1560.485</ele>
        <time>2019-06-01T09:17:54Z</time>
      </trkpt>
      <trkpt lat="42.307291" lon="1.792947">
        <ele>1560.893</ele>
        <time>2019-06-01T09:17:56Z</time>
      </trkpt>
      <trkpt lat="42.307252" lon="1.792983">
        <ele>1561.254</ele>
        <time>2019-06-01T09:18:00Z</time>
      </trkpt>
      <trkpt lat="42.307234" lon="1.793004">
        <ele>1561.699</ele>
        <time>2019-06-01T09:18:02Z</time>
      </trkpt>
      <trkpt lat="42.307174" lon="1.793049">
        <ele>1562.407</ele>
        <time>2019-06-01T09:18:08Z</time>
      </trkpt>
      <trkpt lat="42.307156" lon="1.793068">
        <ele>1562.627</ele>
        <time>2019-06-01T09:18:10Z</time>
      </trkpt>
      <trkpt lat="42.307114" lon="1.793098">
        <ele>1563.608</ele>
        <time>2019-06-01T09:18:15Z</time>
      </trkpt>
      <trkpt lat="42.307078" lon="1.793125">
        <ele>1564.262</ele>
        <time>2019-06-01T09:18:19Z</time>
      </trkpt>
      <trkpt lat="42.307059" lon="1.793143">
        <ele>1564.626</ele>
        <time>2019-06-01T09:18:21Z</time>
      </trkpt>
      <trkpt lat="42.307028" lon="1.793198">
        <ele>1565.642</ele>
        <time>2019-06-01T09:18:27Z</time>
      </trkpt>
      <trkpt lat="42.307026" lon="1.793206">
        <ele>1565.850</ele>
        <time>2019-06-01T09:18:28Z</time>
      </trkpt>
      <trkpt lat="42.306881" lon="1.793763">
        <ele>1580.264</ele>
        <time>2019-06-01T09:20:11Z</time>
      </trkpt>
      <trkpt lat="42.306893" lon="1.793756">
        <ele>1580.461</ele>
        <time>2019-06-01T09:20:12Z</time>
      </trkpt>
      <trkpt lat="42.307205" lon="1.793724">
        <ele>1581.619</ele>
        <time>2019-06-01T09:20:32Z</time>
      </trkpt>
      <trkpt lat="42.307228" lon="1.793728">
        <ele>1581.640</ele>
        <time>2019-06-01T09:20:33Z</time>
      </trkpt>
      <trkpt lat="42.307288" lon="1.793762">
        <ele>1581.823</ele>
        <time>2019-06-01T09:20:37Z</time>
      </trkpt>
      <trkpt lat="42.307315" lon="1.793783">
        <ele>1581.883</ele>
        <time>2019-06-01T09:20:39Z</time>
      </trkpt>
      <trkpt lat="42.307411" lon="1.793903">
        <ele>1582.411</ele>
        <time>2019-06-01T09:20:47Z</time>
      </trkpt>
      <trkpt lat="42.307511" lon="1.793975">
        <ele>1582.608</ele>
        <time>2019-06-01T09:20:53Z</time>
      </trkpt>
      <trkpt lat="42.307557" lon="1.793996">
        <ele>1582.845</ele>
        <time>2019-06-01T09:20:55Z</time>
      </trkpt>
      <trkpt lat="42.307696" lon="1.794008">
        <ele>1583.289</ele>
        <time>2019-06-01T09:21:00Z</time>
      </trkpt>
      <trkpt lat="42.307780" lon="1.794011">
        <ele>1583.825</ele>
        <time>2019-06-01T09:21:05Z</time>
      </trkpt>
      <trkpt lat="42.307809" lon="1.794009">
        <ele>1584.083</ele>
        <time>2019-06-01T09:21:07Z</time>
      </trkpt>
      <trkpt lat="42.307860" lon="1.793992">
        <ele>1584.497</ele>
        <time>2019-06-01T09:21:11Z</time>
      </trkpt>
      <trkpt lat="42.307870" lon="1.793989">
        <ele>1584.484</ele>
        <time>2019-06-01T09:21:12Z</time>
      </trkpt>
      <trkpt lat="42.307905" lon="1.793986">
        <ele>1585.022</ele>
        <time>2019-06-01T09:21:15Z</time>
      </trkpt>
      <trkpt lat="42.307947" lon="1.793975">
        <ele>1585.673</ele>
        <time>2019-06-01T09:21:19Z</time>
      </trkpt>
      <trkpt lat="42.308037" lon="1.793933">
        <ele>1586.257</ele>
        <time>2019-06-01T09:21:26Z</time>
      </trkpt>
      <trkpt lat="42.308045" lon="1.793927">
        <ele>1586.400</ele>
        <time>2019-06-01T09:21:27Z</time>
      </trkpt>
      <trkpt lat="42.308075" lon="1.793914">
        <ele>1586.620</ele>
        <time>2019-06-01T09:21:30Z</time>
      </trkpt>
      <trkpt lat="42.308120" lon="1.793874">
        <ele>1587.008</ele>
        <time>2019-06-01T09:21:35Z</time>
      </trkpt>
      <trkpt lat="42.308128" lon="1.793860">
        <ele>1587.288</ele>
        <time>2019-06-01T09:21:36Z</time>
      </trkpt>
      <trkpt lat="42.308137" lon="1.793848">
        <ele>1587.242</ele>
        <time>2019-06-01T09:21:37Z</time>
      </trkpt>
      <trkpt lat="42.308210" lon="1.793762">
        <ele>1588.428</ele>
        <time>2019-06-01T09:21:44Z</time>
      </trkpt>
      <trkpt lat="42.308294" lon="1.793663">
        <ele>1589.226</ele>
        <time>2019-06-01T09:21:53Z</time>
      </trkpt>
      <trkpt lat="42.308307" lon="1.793660">
        <ele>1589.410</ele>
        <time>2019-06-01T09:21:54Z</time>
      </trkpt>
      <trkpt lat="42.308363" lon="1.793624">
        <ele>1589.817</ele>
        <time>2019-06-01T09:21:59Z</time>
      </trkpt>
      <trkpt lat="42.308396" lon="1.793605">
        <ele>1590.695</ele>
        <time>2019-06-01T09:22:02Z</time>
      </trkpt>
      <trkpt lat="42.308463" lon="1.793593">
        <ele>1591.266</ele>
        <time>2019-06-01T09:22:08Z</time>
      </trkpt>
      <trkpt lat="42.308497" lon="1.793588">
        <ele>1591.678</ele>
        <time>2019-06-01T09:22:11Z</time>
      </trkpt>
      <trkpt lat="42.308538" lon="1.793608">
        <ele>1592.033</ele>
        <time>2019-06-01T09:22:15Z</time>
      </trkpt>
      <trkpt lat="42.308612" lon="1.793632">
        <ele>1592.226</ele>
        <time>2019-06-01T09:22:21Z</time>
      </trkpt>
      <trkpt lat="42.308648" lon="1.793644">
        <ele>1592.608</ele>
        <time>2019-06-01T09:22:24Z</time>
      </trkpt>
      <trkpt lat="42.308678" lon="1.793667">
        <ele>1592.870</ele>
        <time>2019-06-01T09:22:27Z</time>
      </trkpt>
      <trkpt lat="42.308698" lon="1.793685">
        <ele>1593.054</ele>
        <time>2019-06-01T09:22:29Z</time>
      </trkpt>
      <trkpt lat="42.308733" lon="1.793696">
        <ele>1593.210</ele>
        <time>2019-06-01T09:22:33Z</time>
      </trkpt>
      <trkpt lat="42.309799" lon="1.794227">
        <ele>1605.498</ele>
        <time>2019-06-01T09:24:10Z</time>
      </trkpt>
      <trkpt lat="42.309846" lon="1.794248">
        <ele>1605.672</ele>
        <time>2019-06-01T09:24:14Z</time>
      </trkpt>
      <trkpt lat="42.309918" lon="1.794265">
        <ele>1606.429</ele>
        <time>2019-06-01T09:24:21Z</time>
      </trkpt>
      <trkpt lat="42.309996" lon="1.794283">
        <ele>1607.257</ele>
        <time>2019-06-01T09:24:28Z</time>
      </trkpt>
      <trkpt lat="42.310005" lon="1.794287">
        <ele>1607.418</ele>
        <time>2019-06-01T09:24:29Z</time>
      </trkpt>
      <trkpt lat="42.310059" lon="1.794298">
        <ele>1608.279</ele>
        <time>2019-06-01T09:24:34Z</time>
      </trkpt>
      <trkpt lat="42.310097" lon="1.794307">
        <ele>1608.205</ele>
        <time>2019-06-01T09:24:37Z</time>
      </trkpt>
      <trkpt lat="42.310133" lon="1.794316">
        <ele>1608.625</ele>
        <time>2019-06-01T09:24:40Z</time>
      </trkpt>
      <trkpt lat="42.310218" lon="1.794348">
        <ele>1609.608</ele>
        <time>2019-06-01T09:24:47Z</time>
      </trkpt>
      <trkpt lat="42.310289" lon="1.794371">
        <ele>1610.680</ele>
        <time>2019-06-01T09:24:53Z</time>
      </trkpt>
      <trkpt lat="42.310301" lon="1.794371">
        <ele>1610.814</ele>
        <time>2019-06-01T09:24:54Z</time>
      </trkpt>
      <trkpt lat="42.310358" lon="1.794434">
        <ele>1611.820</ele>
        <time>2019-06-01T09:25:00Z</time>
      </trkpt>
      <trkpt lat="42.310376" lon="1.794504">
        <ele>1612.688</ele>
        <time>2019-06-01T09:25:05Z</time>
      </trkpt>
      <trkpt lat="42.310370" lon="1.794538">
        <ele>1613.072</ele>
        <time>2019-06-01T09:25:07Z</time>
      </trkpt>
      <trkpt lat="42.310325" lon="1.794587">
        <ele>1613.659</ele>
        <time>2019-06-01T09:25:12Z</time>
      </trkpt>
      <trkpt lat="42.310313" lon="1.794595">
        <ele>1613.817</ele>
        <time>2019-06-01T09:25:13Z</time>
      </trkpt>
      <trkpt lat="42.310288" lon="1.794599">
        <ele>1614.088</ele>
        <time>2019-06-01T09:25:15Z</time>
      </trkpt>
      <trkpt lat="42.310247" lon="1.794616">
        <ele>1615.288</ele>
        <time>2019-06-01T09:25:19Z</time>
      </trkpt>
      <trkpt lat="42.310234" lon="1.794617">
        <ele>1615.424</ele>
        <time>2019-06-01T09:25:20Z</time>
      </trkpt>
      <trkpt lat="42.310181" lon="1.794622">
        <ele>1616.826</ele>
        <time>2019-06-01T09:25:25Z</time>
      </trkpt>
      <trkpt lat="42.310148" lon="1.794611">
        <ele>1616.608</ele>
        <time>2019-06-01T09:25:29Z</time>
      </trkpt>
      <trkpt lat="42.310087" lon="1.794620">
        <ele>1617.291</ele>
        <time>2019-06-01T09:25:35Z</time>
      </trkpt>
      <trkpt lat="42.310066" lon="1.794622">
        <ele>1617.695</ele>
        <time>2019-06-01T09:25:37Z</time>
      </trkpt>
      <trkpt lat="42.310056" lon="1.794630">
        <ele>1617.871</ele>
        <time>2019-06-01T09:25:38Z</time>
      </trkpt>
      <trkpt lat="42.310034" lon="1.794638">
        <ele>1618.289</ele>
        <time>2019-06-01T09:25:40Z</time>
      </trkpt>
      <trkpt lat="42.309958" lon="1.794663">
        <ele>1619.043</ele>
        <time>2019-06-01T09:25:48Z</time>
      </trkpt>
      <trkpt lat="42.309868" lon="1.794687">
        <ele>1620.010</ele>
        <time>2019-06-01T09:25:56Z</time>
      </trkpt>
      <trkpt lat="42.309812" lon="1.794699">
        <ele>1620.858</ele>
        <time>2019-06-01T09:26:02Z</time>
      </trkpt>
      <trkpt lat="42.309789" lon="1.794711">
        <ele>1621.459</ele>
        <time>2019-06-01T09:26:04Z</time>
      </trkpt>
      <trkpt lat="42.309739" lon="1.794731">
        <ele>1622.289</ele>
        <time>2019-06-01T09:26:08Z</time>
      </trkpt>
      <trkpt lat="42.309729" lon="1.794741">
        <ele>1622.406</ele>
        <time>2019-06-01T09:26:09Z</time>
      </trkpt>
      <trkpt lat="42.309676" lon="1.794780">
        <ele>1622.826</ele>
        <time>2019-06-01T09:26:15Z</time>
      </trkpt>
      <trkpt lat="42.309628" lon="1.794804">
        <ele>1623.608</ele>
        <time>2019-06-01T09:26:20Z</time>
      </trkpt>
      <trkpt lat="42.309600" lon="1.794821">
        <ele>1624.011</ele>
        <time>2019-06-01T09:26:23Z</time>
      </trkpt>
      <trkpt lat="42.309551" lon="1.794846">
        <ele>1624.675</ele>
        <time>2019-06-01T09:26:28Z</time>
      </trkpt>
      <trkpt lat="42.309541" lon="1.794853">
        <ele>1624.681</ele>
        <time>2019-06-01T09:26:29Z</time>
      </trkpt>
      <trkpt lat="42.309533" lon="1.794856">
        <ele>1624.869</ele>
        <time>2019-06-01T09:26:30Z</time>
      </trkpt>
      <trkpt lat="42.308782" lon="1.795223">
        <ele>1642.443</ele>
        <time>2019-06-01T09:28:47Z</time>
      </trkpt>
      <trkpt lat="42.308792" lon="1.795236">
        <ele>1642.470</ele>
        <time>2019-06-01T09:28:48Z</time>
      </trkpt>
      <trkpt lat="42.308826" lon="1.795280">
        <ele>1642.438</ele>
        <time>2019-06-01T09:28:51Z</time>
      </trkpt>
      <trkpt lat="42.308833" lon="1.795292">
        <ele>1642.679</ele>
        <time>2019-06-01T09:28:53Z</time>
      </trkpt>
      <trkpt lat="42.307619" lon="1.796547">
        <ele>1675.221</ele>
        <time>2019-06-01T09:33:15Z</time>
      </trkpt>
      <trkpt lat="42.307653" lon="1.796545">
        <ele>1675.641</ele>
        <time>2019-06-01T09:33:18Z</time>
      </trkpt>
      <trkpt lat="42.307708" lon="1.796561">
        <ele>1676.205</ele>
        <time>2019-06-01T09:33:25Z</time>
      </trkpt>
      <trkpt lat="42.307744" lon="1.796587">
        <ele>1676.408</ele>
        <time>2019-06-01T09:33:27Z</time>
      </trkpt>
      <trkpt lat="42.307782" lon="1.796597">
        <ele>1676.665</ele>
        <time>2019-06-01T09:33:30Z</time>
      </trkpt>
      <trkpt lat="42.308536" lon="1.797058">
        <ele>1683.639</ele>
        <time>2019-06-01T09:34:50Z</time>
      </trkpt>
      <trkpt lat="42.308555" lon="1.797043">
        <ele>1683.895</ele>
        <time>2019-06-01T09:34:52Z</time>
      </trkpt>
      <trkpt lat="42.308620" lon="1.797006">
        <ele>1684.683</ele>
        <time>2019-06-01T09:34:58Z</time>
      </trkpt>
      <trkpt lat="42.308644" lon="1.797000">
        <ele>1684.657</ele>
        <time>2019-06-01T09:35:00Z</time>
      </trkpt>
      <trkpt lat="42.308701" lon="1.796985">
        <ele>1685.214</ele>
        <time>2019-06-01T09:35:05Z</time>
      </trkpt>
      <trkpt lat="42.308762" lon="1.796959">
        <ele>1685.672</ele>
        <time>2019-06-01T09:35:10Z</time>
      </trkpt>
      <trkpt lat="42.308786" lon="1.796957">
        <ele>1685.823</ele>
        <time>2019-06-01T09:35:12Z</time>
      </trkpt>
      <trkpt lat="42.308845" lon="1.796960">
        <ele>1686.637</ele>
        <time>2019-06-01T09:35:17Z</time>
      </trkpt>
      <trkpt lat="42.308868" lon="1.796961">
        <ele>1687.049</ele>
        <time>2019-06-01T09:35:19Z</time>
      </trkpt>
      <trkpt lat="42.308963" lon="1.796981">
        <ele>1687.613</ele>
        <time>2019-06-01T09:35:27Z</time>
      </trkpt>
      <trkpt lat="42.308959" lon="1.796981">
        <ele>1687.808</ele>
        <time>2019-06-01T09:35:28Z</time>
      </trkpt>
      <trkpt lat="42.309021" lon="1.796997">
        <ele>1688.256</ele>
        <time>2019-06-01T09:35:32Z</time>
      </trkpt>
      <trkpt lat="42.309036" lon="1.796996">
        <ele>1688.460</ele>
        <time>2019-06-01T09:35:33Z</time>
      </trkpt>
      <trkpt lat="42.309085" lon="1.797017">
        <ele>1688.826</ele>
        <time>2019-06-01T09:35:37Z</time>
      </trkpt>
      <trkpt lat="42.309096" lon="1.797023">
        <ele>1689.024</ele>
        <time>2019-06-01T09:35:38Z</time>
      </trkpt>
      <trkpt lat="42.309168" lon="1.797037">
        <ele>1689.458</ele>
        <time>2019-06-01T09:35:44Z</time>
      </trkpt>
      <trkpt lat="42.309227" lon="1.797070">
        <ele>1690.075</ele>
        <time>2019-06-01T09:35:49Z</time>
      </trkpt>
      <trkpt lat="42.309242" lon="1.797072">
        <ele>1690.013</ele>
        <time>2019-06-01T09:35:50Z</time>
      </trkpt>
      <trkpt lat="42.309256" lon="1.797076">
        <ele>1690.214</ele>
        <time>2019-06-01T09:35:51Z</time>
      </trkpt>
      <trkpt lat="42.309308" lon="1.797117">
        <ele>1690.686</ele>
        <time>2019-06-01T09:35:55Z</time>
      </trkpt>
      <trkpt lat="42.309336" lon="1.797133">
        <ele>1690.660</ele>
        <time>2019-06-01T09:35:57Z</time>
      </trkpt>
      <trkpt lat="42.309346" lon="1.797145">
        <ele>1690.626</ele>
        <time>2019-06-01T09:35:58Z</time>
      </trkpt>
      <trkpt lat="42.309379" lon="1.797193">
        <ele>1690.808</ele>
        <time>2019-06-01T09:36:02Z</time>
      </trkpt>
      <trkpt lat="42.309390" lon="1.797202">
        <ele>1691.061</ele>
        <time>2019-06-01T09:36:03Z</time>
      </trkpt>
      <trkpt lat="42.309440" lon="1.797213">
        <ele>1691.035</ele>
        <time>2019-06-01T09:36:06Z</time>
      </trkpt>
      <trkpt lat="42.309457" lon="1.797219">
        <ele>1690.661</ele>
        <time>2019-06-01T09:36:07Z</time>
      </trkpt>
      <trkpt lat="42.309475" lon="1.797222">
        <ele>1692.429</ele>
        <time>2019-06-01T09:36:08Z</time>
      </trkpt>
      <trkpt lat="42.309530" lon="1.797233">
        <ele>1690.843</ele>
        <time>2019-06-01T09:36:12Z</time>
      </trkpt>
      <trkpt lat="42.309556" lon="1.797244">
        <ele>1690.890</ele>
        <time>2019-06-01T09:36:14Z</time>
      </trkpt>
      <trkpt lat="42.309670" lon="1.797305">
        <ele>1690.068</ele>
        <time>2019-06-01T09:36:19Z</time>
      </trkpt>
      <trkpt lat="42.309718" lon="1.797369">
        <ele>1689.429</ele>
        <time>2019-06-01T09:36:21Z</time>
      </trkpt>
      <trkpt lat="42.309791" lon="1.797476">
        <ele>1688.637</ele>
        <time>2019-06-01T09:36:24Z</time>
      </trkpt>
      <trkpt lat="42.309814" lon="1.797520">
        <ele>1688.449</ele>
        <time>2019-06-01T09:36:25Z</time>
      </trkpt>
      <trkpt lat="42.309858" lon="1.797618">
        <ele>1687.213</ele>
        <time>2019-06-01T09:36:27Z</time>
      </trkpt>
      <trkpt lat="42.309906" lon="1.797722">
        <ele>1686.608</ele>
        <time>2019-06-01T09:36:29Z</time>
      </trkpt>
      <trkpt lat="42.309930" lon="1.797775">
        <ele>1685.886</ele>
        <time>2019-06-01T09:36:30Z</time>
      </trkpt>
      <trkpt lat="42.309999" lon="1.797923">
        <ele>1684.690</ele>
        <time>2019-06-01T09:36:33Z</time>
      </trkpt>
      <trkpt lat="42.310021" lon="1.797972">
        <ele>1683.856</ele>
        <time>2019-06-01T09:36:34Z</time>
      </trkpt>
      <trkpt lat="42.310042" lon="1.798021">
        <ele>1683.454</ele>
        <time>2019-06-01T09:36:35Z</time>
      </trkpt>
      <trkpt lat="42.310068" lon="1.798075">
        <ele>1683.228</ele>
        <time>2019-06-01T09:36:36Z</time>
      </trkpt>
      <trkpt lat="42.310125" lon="1.798176">
        <ele>1682.875</ele>
        <time>2019-06-01T09:36:38Z</time>
      </trkpt>
      <trkpt lat="42.310160" lon="1.798227">
        <ele>1682.483</ele>
        <time>2019-06-01T09:36:39Z</time>
      </trkpt>
      <trkpt lat="42.310192" lon="1.798275">
        <ele>1682.044</ele>
        <time>2019-06-01T09:36:40Z</time>
      </trkpt>
      <trkpt lat="42.310266" lon="1.798422">
        <ele>1681.435</ele>
        <time>2019-06-01T09:36:43Z</time>
      </trkpt>
      <trkpt lat="42.310295" lon="1.798466">
        <ele>1680.886</ele>
        <time>2019-06-01T09:36:44Z</time>
      </trkpt>
      <trkpt lat="42.310355" lon="1.798535">
        <ele>1680.214</ele>
        <time>2019-06-01T09:36:46Z</time>
      </trkpt>
      <trkpt lat="42.310404" lon="1.798554">
        <ele>1679.808</ele>
        <time>2019-06-01T09:36:47Z</time>
      </trkpt>
      <trkpt lat="42.310471" lon="1.798564">
        <ele>1679.296</ele>
        <time>2019-06-01T09:36:48Z</time>
      </trkpt>
      <trkpt lat="42.310641" lon="1.798555">
        <ele>1678.290</ele>
        <time>2019-06-01T09:36:51Z</time>
      </trkpt>
      <trkpt lat="42.310695" lon="1.798546">
        <ele>1678.456</ele>
        <time>2019-06-01T09:36:52Z</time>
      </trkpt>
      <trkpt lat="42.310948" lon="1.798519">
        <ele>1677.844</ele>
        <time>2019-06-01T09:36:57Z</time>
      </trkpt>
      <trkpt lat="42.311202" lon="1.798522">
        <ele>1677.638</ele>
        <time>2019-06-01T09:37:03Z</time>
      </trkpt>
      <trkpt lat="42.311336" lon="1.798633">
        <ele>1677.485</ele>
        <time>2019-06-01T09:37:07Z</time>
      </trkpt>
      <trkpt lat="42.311475" lon="1.798831">
        <ele>1677.233</ele>
        <time>2019-06-01T09:37:12Z</time>
      </trkpt>
      <trkpt lat="42.311505" lon="1.798863">
        <ele>1677.294</ele>
        <time>2019-06-01T09:37:13Z</time>
      </trkpt>
      <trkpt lat="42.311603" lon="1.798947">
        <ele>1677.425</ele>
        <time>2019-06-01T09:37:17Z</time>
      </trkpt>
      <trkpt lat="42.311639" lon="1.798961">
        <ele>1677.026</ele>
        <time>2019-06-01T09:37:18Z</time>
      </trkpt>
      <trkpt lat="42.311736" lon="1.799040">
        <ele>1676.808</ele>
        <time>2019-06-01T09:37:21Z</time>
      </trkpt>
      <trkpt lat="42.311922" lon="1.799197">
        <ele>1676.608</ele>
        <time>2019-06-01T09:37:26Z</time>
      </trkpt>
      <trkpt lat="42.312003" lon="1.799268">
        <ele>1676.485</ele>
        <time>2019-06-01T09:37:28Z</time>
      </trkpt>
      <trkpt lat="42.312061" lon="1.799351">
        <ele>1676.679</ele>
        <time>2019-06-01T09:37:30Z</time>
      </trkpt>
      <trkpt lat="42.312116" lon="1.799479">
        <ele>1676.625</ele>
        <time>2019-06-01T09:37:33Z</time>
      </trkpt>
      <trkpt lat="42.312176" lon="1.799630">
        <ele>1676.063</ele>
        <time>2019-06-01T09:37:38Z</time>
      </trkpt>
      <trkpt lat="42.312204" lon="1.799667">
        <ele>1675.677</ele>
        <time>2019-06-01T09:37:39Z</time>
      </trkpt>
      <trkpt lat="42.312374" lon="1.799754">
        <ele>1675.244</ele>
        <time>2019-06-01T09:37:43Z</time>
      </trkpt>
      <trkpt lat="42.312471" lon="1.799755">
        <ele>1674.632</ele>
        <time>2019-06-01T09:37:45Z</time>
      </trkpt>
      <trkpt lat="42.312557" lon="1.799715">
        <ele>1674.083</ele>
        <time>2019-06-01T09:37:47Z</time>
      </trkpt>
      <trkpt lat="42.312597" lon="1.799677">
        <ele>1673.491</ele>
        <time>2019-06-01T09:37:48Z</time>
      </trkpt>
      <trkpt lat="42.312684" lon="1.799510">
        <ele>1672.481</ele>
        <time>2019-06-01T09:37:51Z</time>
      </trkpt>
      <trkpt lat="42.312738" lon="1.799324">
        <ele>1672.019</ele>
        <time>2019-06-01T09:37:54Z</time>
      </trkpt>
      <trkpt lat="42.312760" lon="1.799192">
        <ele>1671.208</ele>
        <time>2019-06-01T09:37:56Z</time>
      </trkpt>
      <trkpt lat="42.312787" lon="1.798995">
        <ele>1670.092</ele>
        <time>2019-06-01T09:37:59Z</time>
      </trkpt>
      <trkpt lat="42.312845" lon="1.798749">
        <ele>1670.246</ele>
        <time>2019-06-01T09:38:03Z</time>
      </trkpt>
      <trkpt lat="42.312894" lon="1.798638">
        <ele>1669.422</ele>
        <time>2019-06-01T09:38:05Z</time>
      </trkpt>
      <trkpt lat="42.312953" lon="1.798536">
        <ele>1669.690</ele>
        <time>2019-06-01T09:38:07Z</time>
      </trkpt>
      <trkpt lat="42.312986" lon="1.798488">
        <ele>1669.694</ele>
        <time>2019-06-01T09:38:08Z</time>
      </trkpt>
      <trkpt lat="42.313026" lon="1.798443">
        <ele>1669.461</ele>
        <time>2019-06-01T09:38:09Z</time>
      </trkpt>
      <trkpt lat="42.313145" lon="1.798345">
        <ele>1669.089</ele>
        <time>2019-06-01T09:38:12Z</time>
      </trkpt>
      <trkpt lat="42.313183" lon="1.798311">
        <ele>1669.430</ele>
        <time>2019-06-01T09:38:13Z</time>
      </trkpt>
      <trkpt lat="42.313276" lon="1.798149">
        <ele>1669.055</ele>
        <time>2019-06-01T09:38:16Z</time>
      </trkpt>
      <trkpt lat="42.313289" lon="1.798090">
        <ele>1669.007</ele>
        <time>2019-06-01T09:38:17Z</time>
      </trkpt>
      <trkpt lat="42.313300" lon="1.797960">
        <ele>1668.817</ele>
        <time>2019-06-01T09:38:19Z</time>
      </trkpt>
      <trkpt lat="42.313299" lon="1.797900">
        <ele>1668.408</ele>
        <time>2019-06-01T09:38:20Z</time>
      </trkpt>
      <trkpt lat="42.313279" lon="1.797663">
        <ele>1668.818</ele>
        <time>2019-06-01T09:38:24Z</time>
      </trkpt>
      <trkpt lat="42.313286" lon="1.797606">
        <ele>1668.882</ele>
        <time>2019-06-01T09:38:25Z</time>
      </trkpt>
      <trkpt lat="42.313355" lon="1.797445">
        <ele>1668.618</ele>
        <time>2019-06-01T09:38:28Z</time>
      </trkpt>
      <trkpt lat="42.313460" lon="1.797308">
        <ele>1667.886</ele>
        <time>2019-06-01T09:38:31Z</time>
      </trkpt>
      <trkpt lat="42.313497" lon="1.797265">
        <ele>1667.640</ele>
        <time>2019-06-01T09:38:32Z</time>
      </trkpt>
      <trkpt lat="42.313612" lon="1.797184">
        <ele>1667.097</ele>
        <time>2019-06-01T09:38:35Z</time>
      </trkpt>
      <trkpt lat="42.313652" lon="1.797155">
        <ele>1667.045</ele>
        <time>2019-06-01T09:38:36Z</time>
      </trkpt>
      <trkpt lat="42.313691" lon="1.797124">
        <ele>1666.466</ele>
        <time>2019-06-01T09:38:37Z</time>
      </trkpt>
      <trkpt lat="42.313728" lon="1.797084">
        <ele>1666.054</ele>
        <time>2019-06-01T09:38:38Z</time>
      </trkpt>
      <trkpt lat="42.313834" lon="1.796985">
        <ele>1666.056</ele>
        <time>2019-06-01T09:38:41Z</time>
      </trkpt>
      <trkpt lat="42.313995" lon="1.796911">
        <ele>1664.811</ele>
        <time>2019-06-01T09:38:46Z</time>
      </trkpt>
      <trkpt lat="42.314081" lon="1.796909">
        <ele>1664.608</ele>
        <time>2019-06-01T09:38:48Z</time>
      </trkpt>
      <trkpt lat="42.314167" lon="1.796886">
        <ele>1664.048</ele>
        <time>2019-06-01T09:38:50Z</time>
      </trkpt>
      <trkpt lat="42.314206" lon="1.796866">
        <ele>1663.632</ele>
        <time>2019-06-01T09:38:51Z</time>
      </trkpt>
      <trkpt lat="42.314332" lon="1.796777">
        <ele>1662.298</ele>
        <time>2019-06-01T09:38:54Z</time>
      </trkpt>
      <trkpt lat="42.314372" lon="1.796741">
        <ele>1662.276</ele>
        <time>2019-06-01T09:38:55Z</time>
      </trkpt>
      <trkpt lat="42.314458" lon="1.796663">
        <ele>1662.030</ele>
        <time>2019-06-01T09:38:57Z</time>
      </trkpt>
      <trkpt lat="42.314584" lon="1.796502">
        <ele>1661.277</ele>
        <time>2019-06-01T09:39:00Z</time>
      </trkpt>
      <trkpt lat="42.314722" lon="1.796179">
        <ele>1660.675</ele>
        <time>2019-06-01T09:39:05Z</time>
      </trkpt>
      <trkpt lat="42.314836" lon="1.796023">
        <ele>1661.246</ele>
        <time>2019-06-01T09:39:09Z</time>
      </trkpt>
      <trkpt lat="42.314865" lon="1.795998">
        <ele>1661.028</ele>
        <time>2019-06-01T09:39:10Z</time>
      </trkpt>
      <trkpt lat="42.314996" lon="1.795968">
        <ele>1660.689</ele>
        <time>2019-06-01T09:39:14Z</time>
      </trkpt>
      <trkpt lat="42.315060" lon="1.795982">
        <ele>1659.417</ele>
        <time>2019-06-01T09:39:16Z</time>
      </trkpt>
      <trkpt lat="42.315123" lon="1.796012">
        <ele>1658.408</ele>
        <time>2019-06-01T09:39:18Z</time>
      </trkpt>
      <trkpt lat="42.315182" lon="1.796037">
        <ele>1657.615</ele>
        <time>2019-06-01T09:39:20Z</time>
      </trkpt>
      <trkpt lat="42.315217" lon="1.796050">
        <ele>1657.229</ele>
        <time>2019-06-01T09:39:21Z</time>
      </trkpt>
      <trkpt lat="42.315295" lon="1.796079">
        <ele>1656.295</ele>
        <time>2019-06-01T09:39:23Z</time>
      </trkpt>
      <trkpt lat="42.315429" lon="1.796133">
        <ele>1655.283</ele>
        <time>2019-06-01T09:39:26Z</time>
      </trkpt>
      <trkpt lat="42.315678" lon="1.796319">
        <ele>1653.877</ele>
        <time>2019-06-01T09:39:33Z</time>
      </trkpt>
      <trkpt lat="42.315785" lon="1.796458">
        <ele>1652.864</ele>
        <time>2019-06-01T09:39:37Z</time>
      </trkpt>
      <trkpt lat="42.315847" lon="1.796529">
        <ele>1651.872</ele>
        <time>2019-06-01T09:39:39Z</time>
      </trkpt>
      <trkpt lat="42.315915" lon="1.796590">
        <ele>1651.273</ele>
        <time>2019-06-01T09:39:41Z</time>
      </trkpt>
      <trkpt lat="42.315994" lon="1.796637">
        <ele>1650.213</ele>
        <time>2019-06-01T09:39:43Z</time>
      </trkpt>
      <trkpt lat="42.316040" lon="1.796658">
        <ele>1650.243</ele>
        <time>2019-06-01T09:39:44Z</time>
      </trkpt>
      <trkpt lat="42.316087" lon="1.796678">
        <ele>1650.207</ele>
        <time>2019-06-01T09:39:45Z</time>
      </trkpt>
      <trkpt lat="42.316227" lon="1.796713">
        <ele>1649.208</ele>
        <time>2019-06-01T09:39:48Z</time>
      </trkpt>
      <trkpt lat="42.316316" lon="1.796743">
        <ele>1649.284</ele>
        <time>2019-06-01T09:39:50Z</time>
      </trkpt>
      <trkpt lat="42.316363" lon="1.796755">
        <ele>1648.888</ele>
        <time>2019-06-01T09:39:51Z</time>
      </trkpt>
      <trkpt lat="42.316450" lon="1.796783">
        <ele>1648.064</ele>
        <time>2019-06-01T09:39:53Z</time>
      </trkpt>
      <trkpt lat="42.316494" lon="1.796795">
        <ele>1647.882</ele>
        <time>2019-06-01T09:39:54Z</time>
      </trkpt>
      <trkpt lat="42.316530" lon="1.796812">
        <ele>1647.836</ele>
        <time>2019-06-01T09:39:55Z</time>
      </trkpt>
      <trkpt lat="42.316611" lon="1.796850">
        <ele>1647.643</ele>
        <time>2019-06-01T09:39:57Z</time>
      </trkpt>
      <trkpt lat="42.316723" lon="1.796922">
        <ele>1647.241</ele>
        <time>2019-06-01T09:40:00Z</time>
      </trkpt>
      <trkpt lat="42.316790" lon="1.796987">
        <ele>1646.682</ele>
        <time>2019-06-01T09:40:02Z</time>
      </trkpt>
      <trkpt lat="42.316888" lon="1.797071">
        <ele>1645.849</ele>
        <time>2019-06-01T09:40:05Z</time>
      </trkpt>
      <trkpt lat="42.316911" lon="1.797103">
        <ele>1645.202</ele>
        <time>2019-06-01T09:40:06Z</time>
      </trkpt>
      <trkpt lat="42.317040" lon="1.797258">
        <ele>1644.622</ele>
        <time>2019-06-01T09:40:10Z</time>
      </trkpt>
      <trkpt lat="42.317070" lon="1.797298">
        <ele>1644.208</ele>
        <time>2019-06-01T09:40:11Z</time>
      </trkpt>
      <trkpt lat="42.317191" lon="1.797490">
        <ele>1642.657</ele>
        <time>2019-06-01T09:40:15Z</time>
      </trkpt>
      <trkpt lat="42.317252" lon="1.797593">
        <ele>1642.071</ele>
        <time>2019-06-01T09:40:17Z</time>
      </trkpt>
      <trkpt lat="42.317398" lon="1.797809">
        <ele>1641.457</ele>
        <time>2019-06-01T09:40:21Z</time>
      </trkpt>
      <trkpt lat="42.317435" lon="1.797860">
        <ele>1641.425</ele>
        <time>2019-06-01T09:40:22Z</time>
      </trkpt>
      <trkpt lat="42.317541" lon="1.797999">
        <ele>1640.239</ele>
        <time>2019-06-01T09:40:25Z</time>
      </trkpt>
      <trkpt lat="42.317593" lon="1.798036">
        <ele>1640.486</ele>
        <time>2019-06-01T09:40:26Z</time>
      </trkpt>
      <trkpt lat="42.317765" lon="1.798107">
        <ele>1640.094</ele>
        <time>2019-06-01T09:40:29Z</time>
      </trkpt>
      <trkpt lat="42.317820" lon="1.798142">
        <ele>1639.435</ele>
        <time>2019-06-01T09:40:30Z</time>
      </trkpt>
      <trkpt lat="42.317877" lon="1.798175">
        <ele>1639.046</ele>
        <time>2019-06-01T09:40:31Z</time>
      </trkpt>
      <trkpt lat="42.317991" lon="1.798228">
        <ele>1638.088</ele>
        <time>2019-06-01T09:40:33Z</time>
      </trkpt>
      <trkpt lat="42.318177" lon="1.798294">
        <ele>1637.216</ele>
        <time>2019-06-01T09:40:36Z</time>
      </trkpt>
      <trkpt lat="42.318246" lon="1.798304">
        <ele>1636.408</ele>
        <time>2019-06-01T09:40:37Z</time>
      </trkpt>
      <trkpt lat="42.318392" lon="1.798276">
        <ele>1635.077</ele>
        <time>2019-06-01T09:40:39Z</time>
      </trkpt>
      <trkpt lat="42.318462" lon="1.798243">
        <ele>1634.041</ele>
        <time>2019-06-01T09:40:40Z</time>
      </trkpt>
      <trkpt lat="42.318585" lon="1.798176">
        <ele>1634.087</ele>
        <time>2019-06-01T09:40:42Z</time>
      </trkpt>
      <trkpt lat="42.318719" lon="1.798133">
        <ele>1634.835</ele>
        <time>2019-06-01T09:40:44Z</time>
      </trkpt>
      <trkpt lat="42.318784" lon="1.798135">
        <ele>1635.239</ele>
        <time>2019-06-01T09:40:45Z</time>
      </trkpt>
      <trkpt lat="42.319039" lon="1.798230">
        <ele>1635.296</ele>
        <time>2019-06-01T09:40:49Z</time>
      </trkpt>
      <trkpt lat="42.319316" lon="1.798349">
        <ele>1635.044</ele>
        <time>2019-06-01T09:40:54Z</time>
      </trkpt>
      <trkpt lat="42.319471" lon="1.798394">
        <ele>1634.815</ele>
        <time>2019-06-01T09:40:58Z</time>
      </trkpt>
      <trkpt lat="42.319706" lon="1.798476">
        <ele>1634.652</ele>
        <time>2019-06-01T09:41:04Z</time>
      </trkpt>
      <trkpt lat="42.319874" lon="1.798610">
        <ele>1634.053</ele>
        <time>2019-06-01T09:41:09Z</time>
      </trkpt>
      <trkpt lat="42.319893" lon="1.798633">
        <ele>1633.608</ele>
        <time>2019-06-01T09:41:10Z</time>
      </trkpt>
      <trkpt lat="42.319946" lon="1.798670">
        <ele>1633.808</ele>
        <time>2019-06-01T09:41:13Z</time>
      </trkpt>
      <trkpt lat="42.320033" lon="1.798661">
        <ele>1633.258</ele>
        <time>2019-06-01T09:41:17Z</time>
      </trkpt>
      <trkpt lat="42.320059" lon="1.798664">
        <ele>1633.022</ele>
        <time>2019-06-01T09:41:18Z</time>
      </trkpt>
      <trkpt lat="42.320115" lon="1.798662">
        <ele>1632.428</ele>
        <time>2019-06-01T09:41:20Z</time>
      </trkpt>
      <trkpt lat="42.320169" lon="1.798635">
        <ele>1632.256</ele>
        <time>2019-06-01T09:41:23Z</time>
      </trkpt>
      <trkpt lat="42.320259" lon="1.798588">
        <ele>1633.020</ele>
        <time>2019-06-01T09:41:29Z</time>
      </trkpt>
      <trkpt lat="42.320303" lon="1.798540">
        <ele>1633.677</ele>
        <time>2019-06-01T09:41:33Z</time>
      </trkpt>
      <trkpt lat="42.320322" lon="1.798521">
        <ele>1633.825</ele>
        <time>2019-06-01T09:41:35Z</time>
      </trkpt>
      <trkpt lat="42.320378" lon="1.798452">
        <ele>1634.696</ele>
        <time>2019-06-01T09:41:41Z</time>
      </trkpt>
      <trkpt lat="42.320384" lon="1.798440">
        <ele>1634.896</ele>
        <time>2019-06-01T09:41:42Z</time>
      </trkpt>
      <trkpt lat="42.320414" lon="1.798356">
        <ele>1635.031</ele>
        <time>2019-06-01T09:41:47Z</time>
      </trkpt>
      <trkpt lat="42.320420" lon="1.798334">
        <ele>1635.024</ele>
        <time>2019-06-01T09:41:48Z</time>
      </trkpt>
      <trkpt lat="42.320434" lon="1.798250">
        <ele>1635.608</ele>
        <time>2019-06-01T09:41:53Z</time>
      </trkpt>
      <trkpt lat="42.320508" lon="1.798085">
        <ele>1636.032</ele>
        <time>2019-06-01T09:42:00Z</time>
      </trkpt>
      <trkpt lat="42.320609" lon="1.797879">
        <ele>1636.056</ele>
        <time>2019-06-01T09:42:07Z</time>
      </trkpt>
      <trkpt lat="42.320702" lon="1.797691">
        <ele>1635.822</ele>
        <time>2019-06-01T09:42:15Z</time>
      </trkpt>
      <trkpt lat="42.320760" lon="1.797513">
        <ele>1636.660</ele>
        <time>2019-06-01T09:42:22Z</time>
      </trkpt>
      <trkpt lat="42.320766" lon="1.797489">
        <ele>1636.834</ele>
        <time>2019-06-01T09:42:23Z</time>
      </trkpt>
      <trkpt lat="42.320788" lon="1.797450">
        <ele>1637.021</ele>
        <time>2019-06-01T09:42:25Z</time>
      </trkpt>
      <trkpt lat="42.320810" lon="1.797411">
        <ele>1637.249</ele>
        <time>2019-06-01T09:42:27Z</time>
      </trkpt>
      <trkpt lat="42.320864" lon="1.797294">
        <ele>1637.860</ele>
        <time>2019-06-01T09:42:33Z</time>
      </trkpt>
      <trkpt lat="42.320868" lon="1.797272">
        <ele>1637.823</ele>
        <time>2019-06-01T09:42:34Z</time>
      </trkpt>
      <trkpt lat="42.320879" lon="1.797253">
        <ele>1637.883</ele>
        <time>2019-06-01T09:42:35Z</time>
      </trkpt>
      <trkpt lat="42.320917" lon="1.797164">
        <ele>1638.411</ele>
        <time>2019-06-01T09:42:39Z</time>
      </trkpt>
      <trkpt lat="42.320992" lon="1.797039">
        <ele>1639.008</ele>
        <time>2019-06-01T09:42:46Z</time>
      </trkpt>
      <trkpt lat="42.321062" lon="1.796910">
        <ele>1639.635</ele>
        <time>2019-06-01T09:42:53Z</time>
      </trkpt>
      <trkpt lat="42.321096" lon="1.796864">
        <ele>1640.019</ele>
        <time>2019-06-01T09:42:56Z</time>
      </trkpt>
      <trkpt lat="42.321118" lon="1.796840">
        <ele>1640.235</ele>
        <time>2019-06-01T09:42:58Z</time>
      </trkpt>
      <trkpt lat="42.321145" lon="1.796818">
        <ele>1640.433</ele>
        <time>2019-06-01T09:43:00Z</time>
      </trkpt>
      <trkpt lat="42.321199" lon="1.796793">
        <ele>1641.037</ele>
        <time>2019-06-01T09:43:04Z</time>
      </trkpt>
      <trkpt lat="42.321245" lon="1.796777">
        <ele>1641.474</ele>
        <time>2019-06-01T09:43:07Z</time>
      </trkpt>
      <trkpt lat="42.321307" lon="1.796726">
        <ele>1642.242</ele>
        <time>2019-06-01T09:43:12Z</time>
      </trkpt>
      <trkpt lat="42.321316" lon="1.796708">
        <ele>1642.493</ele>
        <time>2019-06-01T09:43:13Z</time>
      </trkpt>
      <trkpt lat="42.321372" lon="1.796652">
        <ele>1643.817</ele>
        <time>2019-06-01T09:43:18Z</time>
      </trkpt>
      <trkpt lat="42.321395" lon="1.796627">
        <ele>1643.887</ele>
        <time>2019-06-01T09:43:20Z</time>
      </trkpt>
      <trkpt lat="42.321475" lon="1.796519">
        <ele>1642.615</ele>
        <time>2019-06-01T09:43:24Z</time>
      </trkpt>
      <trkpt lat="42.321513" lon="1.796474">
        <ele>1641.808</ele>
        <time>2019-06-01T09:43:25Z</time>
      </trkpt>
      <trkpt lat="42.321548" lon="1.796442">
        <ele>1641.454</ele>
        <time>2019-06-01T09:43:26Z</time>
      </trkpt>
      <trkpt lat="42.321676" lon="1.796278">
        <ele>1640.618</ele>
        <time>2019-06-01T09:43:30Z</time>
      </trkpt>
      <trkpt lat="42.321707" lon="1.796222">
        <ele>1640.474</ele>
        <time>2019-06-01T09:43:31Z</time>
      </trkpt>
      <trkpt lat="42.321736" lon="1.796158">
        <ele>1640.292</ele>
        <time>2019-06-01T09:43:32Z</time>
      </trkpt>
      <trkpt lat="42.321837" lon="1.795948">
        <ele>1638.646</ele>
        <time>2019-06-01T09:43:35Z</time>
      </trkpt>
      <trkpt lat="42.321873" lon="1.795876">
        <ele>1638.413</ele>
        <time>2019-06-01T09:43:36Z</time>
      </trkpt>
      <trkpt lat="42.322009" lon="1.795586">
        <ele>1637.221</ele>
        <time>2019-06-01T09:43:40Z</time>
      </trkpt>
      <trkpt lat="42.322052" lon="1.795532">
        <ele>1637.862</ele>
        <time>2019-06-01T09:43:41Z</time>
      </trkpt>
      <trkpt lat="42.322093" lon="1.795513">
        <ele>1638.458</ele>
        <time>2019-06-01T09:43:42Z</time>
      </trkpt>
      <trkpt lat="42.322146" lon="1.795508">
        <ele>1638.252</ele>
        <time>2019-06-01T09:43:44Z</time>
      </trkpt>
      <trkpt lat="42.322231" lon="1.795478">
        <ele>1638.417</ele>
        <time>2019-06-01T09:43:49Z</time>
      </trkpt>
      <trkpt lat="42.322251" lon="1.795471">
        <ele>1638.408</ele>
        <time>2019-06-01T09:43:50Z</time>
      </trkpt>
      <trkpt lat="42.322338" lon="1.795382">
        <ele>1638.898</ele>
        <time>2019-06-01T09:43:56Z</time>
      </trkpt>
      <trkpt lat="42.322468" lon="1.795265">
        <ele>1639.272</ele>
        <time>2019-06-01T09:44:03Z</time>
      </trkpt>
      <trkpt lat="42.322500" lon="1.795232">
        <ele>1639.428</ele>
        <time>2019-06-01T09:44:05Z</time>
      </trkpt>
      <trkpt lat="42.322583" lon="1.795142">
        <ele>1639.816</ele>
        <time>2019-06-01T09:44:10Z</time>
      </trkpt>
      <trkpt lat="42.322613" lon="1.795094">
        <ele>1640.240</ele>
        <time>2019-06-01T09:44:13Z</time>
      </trkpt>
      <trkpt lat="42.322615" lon="1.795044">
        <ele>1640.477</ele>
        <time>2019-06-01T09:44:15Z</time>
      </trkpt>
      <trkpt lat="42.322618" lon="1.794969">
        <ele>1640.635</ele>
        <time>2019-06-01T09:44:18Z</time>
      </trkpt>
      <trkpt lat="42.322658" lon="1.794911">
        <ele>1640.626</ele>
        <time>2019-06-01T09:44:21Z</time>
      </trkpt>
      <trkpt lat="42.322675" lon="1.794899">
        <ele>1640.882</ele>
        <time>2019-06-01T09:44:22Z</time>
      </trkpt>
      <trkpt lat="42.322810" lon="1.794804">
        <ele>1641.043</ele>
        <time>2019-06-01T09:44:29Z</time>
      </trkpt>
      <trkpt lat="42.322984" lon="1.794748">
        <ele>1641.417</ele>
        <time>2019-06-01T09:44:37Z</time>
      </trkpt>
      <trkpt lat="42.323026" lon="1.794736">
        <ele>1641.608</ele>
        <time>2019-06-01T09:44:39Z</time>
      </trkpt>
      <trkpt lat="42.323171" lon="1.794698">
        <ele>1642.231</ele>
        <time>2019-06-01T09:44:46Z</time>
      </trkpt>
      <trkpt lat="42.323256" lon="1.794669">
        <ele>1642.625</ele>
        <time>2019-06-01T09:44:50Z</time>
      </trkpt>
      <trkpt lat="42.323361" lon="1.794622">
        <ele>1643.021</ele>
        <time>2019-06-01T09:44:55Z</time>
      </trkpt>
      <trkpt lat="42.323470" lon="1.794584">
        <ele>1643.879</ele>
        <time>2019-06-01T09:45:00Z</time>
      </trkpt>
      <trkpt lat="42.323523" lon="1.794564">
        <ele>1644.073</ele>
        <time>2019-06-01T09:45:03Z</time>
      </trkpt>
      <trkpt lat="42.323626" lon="1.794496">
        <ele>1644.810</ele>
        <time>2019-06-01T09:45:09Z</time>
      </trkpt>
      <trkpt lat="42.323681" lon="1.794470">
        <ele>1645.038</ele>
        <time>2019-06-01T09:45:12Z</time>
      </trkpt>
      <trkpt lat="42.323780" lon="1.794412">
        <ele>1645.669</ele>
        <time>2019-06-01T09:45:18Z</time>
      </trkpt>
      <trkpt lat="42.323836" lon="1.794389">
        <ele>1646.256</ele>
        <time>2019-06-01T09:45:21Z</time>
      </trkpt>
      <trkpt lat="42.323927" lon="1.794375">
        <ele>1646.259</ele>
        <time>2019-06-01T09:45:26Z</time>
      </trkpt>
      <trkpt lat="42.323941" lon="1.794389">
        <ele>1646.414</ele>
        <time>2019-06-01T09:45:27Z</time>
      </trkpt>
      <trkpt lat="42.324036" lon="1.794423">
        <ele>1646.408</ele>
        <time>2019-06-01T09:45:32Z</time>
      </trkpt>
      <trkpt lat="42.324059" lon="1.794424">
        <ele>1646.458</ele>
        <time>2019-06-01T09:45:33Z</time>
      </trkpt>
      <trkpt lat="42.324152" lon="1.794423">
        <ele>1646.662</ele>
        <time>2019-06-01T09:45:38Z</time>
      </trkpt>
      <trkpt lat="42.324329" lon="1.794387">
        <ele>1646.628</ele>
        <time>2019-06-01T09:45:46Z</time>
      </trkpt>
      <trkpt lat="42.324538" lon="1.794343">
        <ele>1647.016</ele>
        <time>2019-06-01T09:45:55Z</time>
      </trkpt>
      <trkpt lat="42.324558" lon="1.794338">
        <ele>1647.280</ele>
        <time>2019-06-01T09:45:56Z</time>
      </trkpt>
      <trkpt lat="42.324686" lon="1.794299">
        <ele>1647.627</ele>
        <time>2019-06-01T09:46:02Z</time>
      </trkpt>
      <trkpt lat="42.324780" lon="1.794256">
        <ele>1647.895</ele>
        <time>2019-06-01T09:46:07Z</time>
      </trkpt>
      <trkpt lat="42.324813" lon="1.794221">
        <ele>1648.266</ele>
        <time>2019-06-01T09:46:09Z</time>
      </trkpt>
      <trkpt lat="42.324908" lon="1.794156">
        <ele>1648.847</ele>
        <time>2019-06-01T09:46:14Z</time>
      </trkpt>
      <trkpt lat="42.325050" lon="1.794077">
        <ele>1649.429</ele>
        <time>2019-06-01T09:46:21Z</time>
      </trkpt>
      <trkpt lat="42.325179" lon="1.793960">
        <ele>1649.821</ele>
        <time>2019-06-01T09:46:28Z</time>
      </trkpt>
      <trkpt lat="42.325323" lon="1.793790">
        <ele>1650.208</ele>
        <time>2019-06-01T09:46:36Z</time>
      </trkpt>
      <trkpt lat="42.325350" lon="1.793737">
        <ele>1650.497</ele>
        <time>2019-06-01T09:46:38Z</time>
      </trkpt>
      <trkpt lat="42.325414" lon="1.793595">
        <ele>1650.451</ele>
        <time>2019-06-01T09:46:43Z</time>
      </trkpt>
      <trkpt lat="42.325460" lon="1.793446">
        <ele>1650.857</ele>
        <time>2019-06-01T09:46:49Z</time>
      </trkpt>
      <trkpt lat="42.325475" lon="1.793315">
        <ele>1650.455</ele>
        <time>2019-06-01T09:46:53Z</time>
      </trkpt>
      <trkpt lat="42.325473" lon="1.793252">
        <ele>1650.899</ele>
        <time>2019-06-01T09:46:55Z</time>
      </trkpt>
      <trkpt lat="42.325476" lon="1.793179">
        <ele>1650.656</ele>
        <time>2019-06-01T09:46:57Z</time>
      </trkpt>
      <trkpt lat="42.325487" lon="1.792945">
        <ele>1650.094</ele>
        <time>2019-06-01T09:47:03Z</time>
      </trkpt>
      <trkpt lat="42.325495" lon="1.792776">
        <ele>1649.055</ele>
        <time>2019-06-01T09:47:06Z</time>
      </trkpt>
      <trkpt lat="42.325477" lon="1.792666">
        <ele>1648.888</ele>
        <time>2019-06-01T09:47:08Z</time>
      </trkpt>
      <trkpt lat="42.325448" lon="1.792549">
        <ele>1648.024</ele>
        <time>2019-06-01T09:47:10Z</time>
      </trkpt>
      <trkpt lat="42.325399" lon="1.792461">
        <ele>1647.626</ele>
        <time>2019-06-01T09:47:12Z</time>
      </trkpt>
      <trkpt lat="42.325354" lon="1.792371">
        <ele>1647.408</ele>
        <time>2019-06-01T09:47:14Z</time>
      </trkpt>
      <trkpt lat="42.325309" lon="1.792262">
        <ele>1646.871</ele>
        <time>2019-06-01T09:47:16Z</time>
      </trkpt>
      <trkpt lat="42.325282" lon="1.792212">
        <ele>1646.665</ele>
        <time>2019-06-01T09:47:17Z</time>
      </trkpt>
      <trkpt lat="42.325177" lon="1.792069">
        <ele>1645.861</ele>
        <time>2019-06-01T09:47:20Z</time>
      </trkpt>
      <trkpt lat="42.325138" lon="1.792030">
        <ele>1645.619</ele>
        <time>2019-06-01T09:47:21Z</time>
      </trkpt>
      <trkpt lat="42.325073" lon="1.791967">
        <ele>1645.833</ele>
        <time>2019-06-01T09:47:23Z</time>
      </trkpt>
      <trkpt lat="42.325009" lon="1.791821">
        <ele>1645.450</ele>
        <time>2019-06-01T09:47:27Z</time>
      </trkpt>
      <trkpt lat="42.325024" lon="1.791649">
        <ele>1644.618</ele>
        <time>2019-06-01T09:47:30Z</time>
      </trkpt>
      <trkpt lat="42.325027" lon="1.791591">
        <ele>1644.479</ele>
        <time>2019-06-01T09:47:31Z</time>
      </trkpt>
      <trkpt lat="42.324974" lon="1.791461">
        <ele>1644.432</ele>
        <time>2019-06-01T09:47:34Z</time>
      </trkpt>
      <trkpt lat="42.324889" lon="1.791362">
        <ele>1644.692</ele>
        <time>2019-06-01T09:47:38Z</time>
      </trkpt>
      <trkpt lat="42.324861" lon="1.791307">
        <ele>1644.211</ele>
        <time>2019-06-01T09:47:43Z</time>
      </trkpt>
      <trkpt lat="42.324826" lon="1.791243">
        <ele>1644.008</ele>
        <time>2019-06-01T09:47:58Z</time>
      </trkpt>
      <trkpt lat="42.324805" lon="1.791210">
        <ele>1643.646</ele>
        <time>2019-06-01T09:47:59Z</time>
      </trkpt>
      <trkpt lat="42.324737" lon="1.791111">
        <ele>1642.690</ele>
        <time>2019-06-01T09:48:02Z</time>
      </trkpt>
      <trkpt lat="42.324707" lon="1.791100">
        <ele>1642.436</ele>
        <time>2019-06-01T09:48:03Z</time>
      </trkpt>
      <trkpt lat="42.324681" lon="1.791083">
        <ele>1642.234</ele>
        <time>2019-06-01T09:48:04Z</time>
      </trkpt>
      <trkpt lat="42.324685" lon="1.790989">
        <ele>1642.298</ele>
        <time>2019-06-01T09:48:08Z</time>
      </trkpt>
      <trkpt lat="42.324706" lon="1.790960">
        <ele>1642.275</ele>
        <time>2019-06-01T09:48:09Z</time>
      </trkpt>
      <trkpt lat="42.324763" lon="1.790880">
        <ele>1641.433</ele>
        <time>2019-06-01T09:48:12Z</time>
      </trkpt>
      <trkpt lat="42.324778" lon="1.790808">
        <ele>1640.884</ele>
        <time>2019-06-01T09:48:14Z</time>
      </trkpt>
      <trkpt lat="42.324776" lon="1.790765">
        <ele>1640.428</ele>
        <time>2019-06-01T09:48:15Z</time>
      </trkpt>
      <trkpt lat="42.324776" lon="1.790640">
        <ele>1639.889</ele>
        <time>2019-06-01T09:48:19Z</time>
      </trkpt>
      <trkpt lat="42.324757" lon="1.790569">
        <ele>1638.617</ele>
        <time>2019-06-01T09:55:57Z</time>
      </trkpt>
      <trkpt lat="42.324775" lon="1.790613">
        <ele>1638.608</ele>
        <time>2019-06-01T09:55:59Z</time>
      </trkpt>
      <trkpt lat="42.324774" lon="1.790640">
        <ele>1638.655</ele>
        <time>2019-06-01T09:56:00Z</time>
      </trkpt>
      <trkpt lat="42.324784" lon="1.790763">
        <ele>1638.479</ele>
        <time>2019-06-01T09:56:04Z</time>
      </trkpt>
      <trkpt lat="42.324755" lon="1.790899">
        <ele>1639.695</ele>
        <time>2019-06-01T09:56:10Z</time>
      </trkpt>
      <trkpt lat="42.324741" lon="1.790911">
        <ele>1639.883</ele>
        <time>2019-06-01T09:56:11Z</time>
      </trkpt>
      <trkpt lat="42.324692" lon="1.790969">
        <ele>1640.417</ele>
        <time>2019-06-01T09:56:15Z</time>
      </trkpt>
      <trkpt lat="42.324660" lon="1.791015">
        <ele>1641.074</ele>
        <time>2019-06-01T09:56:18Z</time>
      </trkpt>
      <trkpt lat="42.324651" lon="1.791044">
        <ele>1641.262</ele>
        <time>2019-06-01T09:56:20Z</time>
      </trkpt>
      <trkpt lat="42.324659" lon="1.791060">
        <ele>1641.283</ele>
        <time>2019-06-01T09:56:21Z</time>
      </trkpt>
      <trkpt lat="42.324733" lon="1.791102">
        <ele>1641.678</ele>
        <time>2019-06-01T09:56:26Z</time>
      </trkpt>
      <trkpt lat="42.324794" lon="1.791170">
        <ele>1642.033</ele>
        <time>2019-06-01T09:56:31Z</time>
      </trkpt>
      <trkpt lat="42.324803" lon="1.791186">
        <ele>1642.026</ele>
        <time>2019-06-01T09:56:32Z</time>
      </trkpt>
      <trkpt lat="42.324864" lon="1.791298">
        <ele>1643.008</ele>
        <time>2019-06-01T09:56:39Z</time>
      </trkpt>
      <trkpt lat="42.324873" lon="1.791314">
        <ele>1643.290</ele>
        <time>2019-06-01T09:56:40Z</time>
      </trkpt>
      <trkpt lat="42.324981" lon="1.791439">
        <ele>1643.454</ele>
        <time>2019-06-01T09:56:49Z</time>
      </trkpt>
      <trkpt lat="42.325025" lon="1.791561">
        <ele>1643.270</ele>
        <time>2019-06-01T09:56:54Z</time>
      </trkpt>
      <trkpt lat="42.325001" lon="1.791717">
        <ele>1644.098</ele>
        <time>2019-06-01T09:57:00Z</time>
      </trkpt>
      <trkpt lat="42.325000" lon="1.791742">
        <ele>1644.292</ele>
        <time>2019-06-01T09:57:01Z</time>
      </trkpt>
      <trkpt lat="42.325015" lon="1.791866">
        <ele>1645.019</ele>
        <time>2019-06-01T09:57:07Z</time>
      </trkpt>
      <trkpt lat="42.325093" lon="1.791955">
        <ele>1645.287</ele>
        <time>2019-06-01T09:57:12Z</time>
      </trkpt>
      <trkpt lat="42.325115" lon="1.791968">
        <ele>1645.268</ele>
        <time>2019-06-01T09:57:13Z</time>
      </trkpt>
      <trkpt lat="42.325235" lon="1.792091">
        <ele>1645.234</ele>
        <time>2019-06-01T09:57:20Z</time>
      </trkpt>
      <trkpt lat="42.325327" lon="1.792244">
        <ele>1645.855</ele>
        <time>2019-06-01T09:57:27Z</time>
      </trkpt>
      <trkpt lat="42.325373" lon="1.792321">
        <ele>1646.410</ele>
        <time>2019-06-01T09:57:31Z</time>
      </trkpt>
      <trkpt lat="42.325387" lon="1.792360">
        <ele>1646.408</ele>
        <time>2019-06-01T09:57:33Z</time>
      </trkpt>
      <trkpt lat="42.325408" lon="1.792380">
        <ele>1646.466</ele>
        <time>2019-06-01T09:57:34Z</time>
      </trkpt>
      <trkpt lat="42.325451" lon="1.792482">
        <ele>1646.670</ele>
        <time>2019-06-01T09:57:38Z</time>
      </trkpt>
      <trkpt lat="42.325466" lon="1.792586">
        <ele>1647.276</ele>
        <time>2019-06-01T09:57:42Z</time>
      </trkpt>
      <trkpt lat="42.325472" lon="1.792643">
        <ele>1647.474</ele>
        <time>2019-06-01T09:57:44Z</time>
      </trkpt>
      <trkpt lat="42.325478" lon="1.792671">
        <ele>1647.638</ele>
        <time>2019-06-01T09:57:45Z</time>
      </trkpt>
      <trkpt lat="42.325480" lon="1.792883">
        <ele>1648.485</ele>
        <time>2019-06-01T09:57:53Z</time>
      </trkpt>
      <trkpt lat="42.325486" lon="1.792968">
        <ele>1648.863</ele>
        <time>2019-06-01T09:57:57Z</time>
      </trkpt>
      <trkpt lat="42.325483" lon="1.792990">
        <ele>1648.814</ele>
        <time>2019-06-01T09:57:58Z</time>
      </trkpt>
      <trkpt lat="42.325487" lon="1.793061">
        <ele>1648.859</ele>
        <time>2019-06-01T09:58:01Z</time>
      </trkpt>
      <trkpt lat="42.325486" lon="1.793141">
        <ele>1649.203</ele>
        <time>2019-06-01T09:58:04Z</time>
      </trkpt>
      <trkpt lat="42.325493" lon="1.793296">
        <ele>1648.623</ele>
        <time>2019-06-01T09:58:09Z</time>
      </trkpt>
      <trkpt lat="42.325461" lon="1.793441">
        <ele>1649.408</ele>
        <time>2019-06-01T09:58:14Z</time>
      </trkpt>
      <trkpt lat="42.325455" lon="1.793476">
        <ele>1649.448</ele>
        <time>2019-06-01T09:58:15Z</time>
      </trkpt>
      <trkpt lat="42.325387" lon="1.793617">
        <ele>1649.252</ele>
        <time>2019-06-01T09:58:19Z</time>
      </trkpt>
      <trkpt lat="42.325287" lon="1.793808">
        <ele>1648.678</ele>
        <time>2019-06-01T09:58:24Z</time>
      </trkpt>
      <trkpt lat="42.325168" lon="1.793910">
        <ele>1648.466</ele>
        <time>2019-06-01T09:58:28Z</time>
      </trkpt>
      <trkpt lat="42.325026" lon="1.794033">
        <ele>1648.010</ele>
        <time>2019-06-01T09:58:33Z</time>
      </trkpt>
      <trkpt lat="42.324926" lon="1.794104">
        <ele>1647.457</ele>
        <time>2019-06-01T09:58:36Z</time>
      </trkpt>
      <trkpt lat="42.324832" lon="1.794175">
        <ele>1647.045</ele>
        <time>2019-06-01T09:58:39Z</time>
      </trkpt>
      <trkpt lat="42.324699" lon="1.794255">
        <ele>1646.426</ele>
        <time>2019-06-01T09:58:44Z</time>
      </trkpt>
      <trkpt lat="42.324581" lon="1.794315">
        <ele>1646.033</ele>
        <time>2019-06-01T09:58:48Z</time>
      </trkpt>
      <trkpt lat="42.324413" lon="1.794302">
        <ele>1645.823</ele>
        <time>2019-06-01T09:58:53Z</time>
      </trkpt>
      <trkpt lat="42.324189" lon="1.794219">
        <ele>1645.815</ele>
        <time>2019-06-01T09:59:00Z</time>
      </trkpt>
      <trkpt lat="42.324054" lon="1.794287">
        <ele>1645.208</ele>
        <time>2019-06-01T09:59:04Z</time>
      </trkpt>
      <trkpt lat="42.324022" lon="1.794307">
        <ele>1645.026</ele>
        <time>2019-06-01T09:59:05Z</time>
      </trkpt>
      <trkpt lat="42.323849" lon="1.794392">
        <ele>1645.220</ele>
        <time>2019-06-01T09:59:10Z</time>
      </trkpt>
      <trkpt lat="42.323774" lon="1.794429">
        <ele>1644.626</ele>
        <time>2019-06-01T09:59:12Z</time>
      </trkpt>
      <trkpt lat="42.323695" lon="1.794466">
        <ele>1644.024</ele>
        <time>2019-06-01T09:59:14Z</time>
      </trkpt>
      <trkpt lat="42.323522" lon="1.794572">
        <ele>1643.468</ele>
        <time>2019-06-01T09:59:18Z</time>
      </trkpt>
      <trkpt lat="42.323432" lon="1.794607">
        <ele>1643.235</ele>
        <time>2019-06-01T09:59:20Z</time>
      </trkpt>
      <trkpt lat="42.323387" lon="1.794625">
        <ele>1642.883</ele>
        <time>2019-06-01T09:59:21Z</time>
      </trkpt>
      <trkpt lat="42.323240" lon="1.794675">
        <ele>1642.214</ele>
        <time>2019-06-01T09:59:24Z</time>
      </trkpt>
      <trkpt lat="42.323144" lon="1.794701">
        <ele>1641.212</ele>
        <time>2019-06-01T09:59:26Z</time>
      </trkpt>
      <trkpt lat="42.322981" lon="1.794728">
        <ele>1640.032</ele>
        <time>2019-06-01T09:59:29Z</time>
      </trkpt>
      <trkpt lat="42.322867" lon="1.794755">
        <ele>1639.805</ele>
        <time>2019-06-01T09:59:31Z</time>
      </trkpt>
      <trkpt lat="42.322706" lon="1.794843">
        <ele>1639.608</ele>
        <time>2019-06-01T09:59:34Z</time>
      </trkpt>
      <trkpt lat="42.322614" lon="1.794926">
        <ele>1639.254</ele>
        <time>2019-06-01T09:59:36Z</time>
      </trkpt>
      <trkpt lat="42.322570" lon="1.794973">
        <ele>1638.668</ele>
        <time>2019-06-01T09:59:37Z</time>
      </trkpt>
      <trkpt lat="42.322253" lon="1.795254">
        <ele>1639.654</ele>
        <time>2019-06-01T09:59:44Z</time>
      </trkpt>
      <trkpt lat="42.322207" lon="1.795296">
        <ele>1639.632</ele>
        <time>2019-06-01T09:59:45Z</time>
      </trkpt>
      <trkpt lat="42.322117" lon="1.795394">
        <ele>1638.256</ele>
        <time>2019-06-01T09:59:47Z</time>
      </trkpt>
      <trkpt lat="42.322069" lon="1.795458">
        <ele>1637.223</ele>
        <time>2019-06-01T09:59:48Z</time>
      </trkpt>
      <trkpt lat="42.321983" lon="1.795600">
        <ele>1636.071</ele>
        <time>2019-06-01T09:59:50Z</time>
      </trkpt>
      <trkpt lat="42.321954" lon="1.795676">
        <ele>1635.812</ele>
        <time>2019-06-01T09:59:51Z</time>
      </trkpt>
      <trkpt lat="42.321884" lon="1.795863">
        <ele>1636.663</ele>
        <time>2019-06-01T09:59:54Z</time>
      </trkpt>
      <trkpt lat="42.321840" lon="1.795954">
        <ele>1637.444</ele>
        <time>2019-06-01T09:59:56Z</time>
      </trkpt>
      <trkpt lat="42.321777" lon="1.796068">
        <ele>1637.618</ele>
        <time>2019-06-01T09:59:59Z</time>
      </trkpt>
      <trkpt lat="42.321736" lon="1.796164">
        <ele>1638.608</ele>
        <time>2019-06-01T10:00:02Z</time>
      </trkpt>
      <trkpt lat="42.321701" lon="1.796208">
        <ele>1639.219</ele>
        <time>2019-06-01T10:00:04Z</time>
      </trkpt>
      <trkpt lat="42.321658" lon="1.796276">
        <ele>1639.813</ele>
        <time>2019-06-01T10:00:07Z</time>
      </trkpt>
      <trkpt lat="42.321595" lon="1.796359">
        <ele>1640.029</ele>
        <time>2019-06-01T10:00:11Z</time>
      </trkpt>
      <trkpt lat="42.321554" lon="1.796396">
        <ele>1640.277</ele>
        <time>2019-06-01T10:00:13Z</time>
      </trkpt>
      <trkpt lat="42.321500" lon="1.796472">
        <ele>1640.451</ele>
        <time>2019-06-01T10:00:17Z</time>
      </trkpt>
      <trkpt lat="42.321471" lon="1.796504">
        <ele>1641.028</ele>
        <time>2019-06-01T10:00:19Z</time>
      </trkpt>
      <trkpt lat="42.321422" lon="1.796557">
        <ele>1642.056</ele>
        <time>2019-06-01T10:00:23Z</time>
      </trkpt>
      <trkpt lat="42.321413" lon="1.796572">
        <ele>1642.217</ele>
        <time>2019-06-01T10:00:24Z</time>
      </trkpt>
      <trkpt lat="42.321353" lon="1.796597">
        <ele>1643.057</ele>
        <time>2019-06-01T10:00:28Z</time>
      </trkpt>
      <trkpt lat="42.321335" lon="1.796608">
        <ele>1642.800</ele>
        <time>2019-06-01T10:00:30Z</time>
      </trkpt>
      <trkpt lat="42.321324" lon="1.796685">
        <ele>1642.620</ele>
        <time>2019-06-01T10:02:04Z</time>
      </trkpt>
      <trkpt lat="42.321304" lon="1.796708">
        <ele>1642.208</ele>
        <time>2019-06-01T10:02:05Z</time>
      </trkpt>
      <trkpt lat="42.321278" lon="1.796738">
        <ele>1641.898</ele>
        <time>2019-06-01T10:02:06Z</time>
      </trkpt>
      <trkpt lat="42.321194" lon="1.796793">
        <ele>1641.482</ele>
        <time>2019-06-01T10:02:08Z</time>
      </trkpt>
      <trkpt lat="42.321099" lon="1.796876">
        <ele>1639.618</ele>
        <time>2019-06-01T10:02:10Z</time>
      </trkpt>
      <trkpt lat="42.321060" lon="1.796932">
        <ele>1638.696</ele>
        <time>2019-06-01T10:02:11Z</time>
      </trkpt>
      <trkpt lat="42.321022" lon="1.796991">
        <ele>1637.660</ele>
        <time>2019-06-01T10:02:12Z</time>
      </trkpt>
      <trkpt lat="42.320981" lon="1.797052">
        <ele>1637.447</ele>
        <time>2019-06-01T10:02:13Z</time>
      </trkpt>
      <trkpt lat="42.320823" lon="1.797333">
        <ele>1635.835</ele>
        <time>2019-06-01T10:02:17Z</time>
      </trkpt>
      <trkpt lat="42.320711" lon="1.797576">
        <ele>1634.836</ele>
        <time>2019-06-01T10:02:20Z</time>
      </trkpt>
      <trkpt lat="42.320660" lon="1.797640">
        <ele>1634.231</ele>
        <time>2019-06-01T10:02:21Z</time>
      </trkpt>
      <trkpt lat="42.320606" lon="1.797696">
        <ele>1634.061</ele>
        <time>2019-06-01T10:02:22Z</time>
      </trkpt>
      <trkpt lat="42.320498" lon="1.797798">
        <ele>1636.007</ele>
        <time>2019-06-01T10:02:25Z</time>
      </trkpt>
      <trkpt lat="42.320437" lon="1.797863">
        <ele>1637.208</ele>
        <time>2019-06-01T10:02:28Z</time>
      </trkpt>
      <trkpt lat="42.320416" lon="1.797909">
        <ele>1637.646</ele>
        <time>2019-06-01T10:02:30Z</time>
      </trkpt>
      <trkpt lat="42.320359" lon="1.798041">
        <ele>1637.050</ele>
        <time>2019-06-01T10:02:34Z</time>
      </trkpt>
      <trkpt lat="42.320310" lon="1.798169">
        <ele>1635.866</ele>
        <time>2019-06-01T10:02:37Z</time>
      </trkpt>
      <trkpt lat="42.320272" lon="1.798253">
        <ele>1635.034</ele>
        <time>2019-06-01T10:02:39Z</time>
      </trkpt>
      <trkpt lat="42.320227" lon="1.798338">
        <ele>1634.888</ele>
        <time>2019-06-01T10:02:41Z</time>
      </trkpt>
      <trkpt lat="42.320175" lon="1.798429">
        <ele>1634.675</ele>
        <time>2019-06-01T10:02:44Z</time>
      </trkpt>
      <trkpt lat="42.320134" lon="1.798501">
        <ele>1633.043</ele>
        <time>2019-06-01T10:02:46Z</time>
      </trkpt>
      <trkpt lat="42.320070" lon="1.798559">
        <ele>1631.874</ele>
        <time>2019-06-01T10:02:48Z</time>
      </trkpt>
      <trkpt lat="42.320035" lon="1.798577">
        <ele>1631.646</ele>
        <time>2019-06-01T10:02:49Z</time>
      </trkpt>
      <trkpt lat="42.319976" lon="1.798621">
        <ele>1631.488</ele>
        <time>2019-06-01T10:02:51Z</time>
      </trkpt>
      <trkpt lat="42.319948" lon="1.798701">
        <ele>1631.616</ele>
        <time>2019-06-01T10:02:53Z</time>
      </trkpt>
      <trkpt lat="42.319966" lon="1.798891">
        <ele>1630.408</ele>
        <time>2019-06-01T10:02:56Z</time>
      </trkpt>
      <trkpt lat="42.320007" lon="1.799040">
        <ele>1629.637</ele>
        <time>2019-06-01T10:02:58Z</time>
      </trkpt>
      <trkpt lat="42.320032" lon="1.799108">
        <ele>1629.071</ele>
        <time>2019-06-01T10:02:59Z</time>
      </trkpt>
      <trkpt lat="42.320056" lon="1.799174">
        <ele>1627.847</ele>
        <time>2019-06-01T10:03:00Z</time>
      </trkpt>
      <trkpt lat="42.320077" lon="1.799236">
        <ele>1627.485</ele>
        <time>2019-06-01T10:03:01Z</time>
      </trkpt>
      <trkpt lat="42.320171" lon="1.799507">
        <ele>1627.649</ele>
        <time>2019-06-01T10:03:06Z</time>
      </trkpt>
      <trkpt lat="42.320210" lon="1.799626">
        <ele>1626.276</ele>
        <time>2019-06-01T10:03:08Z</time>
      </trkpt>
      <trkpt lat="42.320269" lon="1.799814">
        <ele>1626.084</ele>
        <time>2019-06-01T10:03:11Z</time>
      </trkpt>
      <trkpt lat="42.320320" lon="1.799926">
        <ele>1625.285</ele>
        <time>2019-06-01T10:03:13Z</time>
      </trkpt>
      <trkpt lat="42.320386" lon="1.800022">
        <ele>1624.898</ele>
        <time>2019-06-01T10:03:15Z</time>
      </trkpt>
      <trkpt lat="42.320418" lon="1.800070">
        <ele>1623.815</ele>
        <time>2019-06-01T10:03:16Z</time>
      </trkpt>
      <trkpt lat="42.320535" lon="1.800256">
        <ele>1624.626</ele>
        <time>2019-06-01T10:03:20Z</time>
      </trkpt>
      <trkpt lat="42.320571" lon="1.800296">
        <ele>1625.408</ele>
        <time>2019-06-01T10:03:21Z</time>
      </trkpt>
      <trkpt lat="42.320609" lon="1.800337">
        <ele>1624.242</ele>
        <time>2019-06-01T10:03:22Z</time>
      </trkpt>
      <trkpt lat="42.320647" lon="1.800375">
        <ele>1622.896</ele>
        <time>2019-06-01T10:03:23Z</time>
      </trkpt>
      <trkpt lat="42.320929" lon="1.800634">
        <ele>1622.222</ele>
        <time>2019-06-01T10:03:30Z</time>
      </trkpt>
      <trkpt lat="42.320971" lon="1.800677">
        <ele>1621.840</ele>
        <time>2019-06-01T10:03:31Z</time>
      </trkpt>
      <trkpt lat="42.321052" lon="1.800769">
        <ele>1620.444</ele>
        <time>2019-06-01T10:03:33Z</time>
      </trkpt>
      <trkpt lat="42.321141" lon="1.800858">
        <ele>1620.821</ele>
        <time>2019-06-01T10:03:35Z</time>
      </trkpt>
      <trkpt lat="42.321188" lon="1.800896">
        <ele>1620.619</ele>
        <time>2019-06-01T10:03:36Z</time>
      </trkpt>
      <trkpt lat="42.321289" lon="1.800966">
        <ele>1618.880</ele>
        <time>2019-06-01T10:03:38Z</time>
      </trkpt>
      <trkpt lat="42.321498" lon="1.801084">
        <ele>1618.289</ele>
        <time>2019-06-01T10:03:42Z</time>
      </trkpt>
      <trkpt lat="42.321743" lon="1.801208">
        <ele>1618.006</ele>
        <time>2019-06-01T10:03:47Z</time>
      </trkpt>
      <trkpt lat="42.321791" lon="1.801238">
        <ele>1617.626</ele>
        <time>2019-06-01T10:03:48Z</time>
      </trkpt>
      <trkpt lat="42.321881" lon="1.801298">
        <ele>1617.808</ele>
        <time>2019-06-01T10:03:50Z</time>
      </trkpt>
      <trkpt lat="42.321994" lon="1.801509">
        <ele>1617.031</ele>
        <time>2019-06-01T10:03:54Z</time>
      </trkpt>
      <trkpt lat="42.321984" lon="1.801654">
        <ele>1616.695</ele>
        <time>2019-06-01T10:03:56Z</time>
      </trkpt>
      <trkpt lat="42.321968" lon="1.801728">
        <ele>1616.261</ele>
        <time>2019-06-01T10:03:57Z</time>
      </trkpt>
      <trkpt lat="42.321929" lon="1.801872">
        <ele>1615.429</ele>
        <time>2019-06-01T10:03:59Z</time>
      </trkpt>
      <trkpt lat="42.321851" lon="1.802099">
        <ele>1615.263</ele>
        <time>2019-06-01T10:04:02Z</time>
      </trkpt>
      <trkpt lat="42.321762" lon="1.802325">
        <ele>1613.870</ele>
        <time>2019-06-01T10:04:05Z</time>
      </trkpt>
      <trkpt lat="42.321702" lon="1.802446">
        <ele>1613.288</ele>
        <time>2019-06-01T10:04:07Z</time>
      </trkpt>
      <trkpt lat="42.321677" lon="1.802504">
        <ele>1613.689</ele>
        <time>2019-06-01T10:04:08Z</time>
      </trkpt>
      <trkpt lat="42.321578" lon="1.802756">
        <ele>1612.627</ele>
        <time>2019-06-01T10:04:12Z</time>
      </trkpt>
      <trkpt lat="42.321487" lon="1.802968">
        <ele>1611.268</ele>
        <time>2019-06-01T10:04:15Z</time>
      </trkpt>
      <trkpt lat="42.321401" lon="1.803185">
        <ele>1610.614</ele>
        <time>2019-06-01T10:04:18Z</time>
      </trkpt>
      <trkpt lat="42.321341" lon="1.803317">
        <ele>1610.008</ele>
        <time>2019-06-01T10:04:20Z</time>
      </trkpt>
      <trkpt lat="42.321211" lon="1.803614">
        <ele>1610.095</ele>
        <time>2019-06-01T10:04:25Z</time>
      </trkpt>
      <trkpt lat="42.321183" lon="1.803657">
        <ele>1610.089</ele>
        <time>2019-06-01T10:04:26Z</time>
      </trkpt>
      <trkpt lat="42.321070" lon="1.803743">
        <ele>1609.825</ele>
        <time>2019-06-01T10:04:29Z</time>
      </trkpt>
      <trkpt lat="42.320984" lon="1.803802">
        <ele>1609.033</ele>
        <time>2019-06-01T10:04:31Z</time>
      </trkpt>
      <trkpt lat="42.320906" lon="1.803875">
        <ele>1608.077</ele>
        <time>2019-06-01T10:04:33Z</time>
      </trkpt>
      <trkpt lat="42.320872" lon="1.803919">
        <ele>1608.244</ele>
        <time>2019-06-01T10:04:34Z</time>
      </trkpt>
      <trkpt lat="42.320811" lon="1.804001">
        <ele>1607.872</ele>
        <time>2019-06-01T10:04:36Z</time>
      </trkpt>
      <trkpt lat="42.320716" lon="1.804140">
        <ele>1607.273</ele>
        <time>2019-06-01T10:04:39Z</time>
      </trkpt>
      <trkpt lat="42.320630" lon="1.804289">
        <ele>1606.698</ele>
        <time>2019-06-01T10:04:42Z</time>
      </trkpt>
      <trkpt lat="42.320577" lon="1.804390">
        <ele>1606.415</ele>
        <time>2019-06-01T10:04:44Z</time>
      </trkpt>
      <trkpt lat="42.320472" lon="1.804552">
        <ele>1605.826</ele>
        <time>2019-06-01T10:04:47Z</time>
      </trkpt>
      <trkpt lat="42.320415" lon="1.804651">
        <ele>1605.608</ele>
        <time>2019-06-01T10:04:49Z</time>
      </trkpt>
      <trkpt lat="42.320404" lon="1.804920">
        <ele>1604.872</ele>
        <time>2019-06-01T10:04:53Z</time>
      </trkpt>
      <trkpt lat="42.320443" lon="1.805043">
        <ele>1604.846</ele>
        <time>2019-06-01T10:04:55Z</time>
      </trkpt>
      <trkpt lat="42.320487" lon="1.805172">
        <ele>1604.452</ele>
        <time>2019-06-01T10:04:57Z</time>
      </trkpt>
      <trkpt lat="42.320505" lon="1.805242">
        <ele>1604.220</ele>
        <time>2019-06-01T10:04:58Z</time>
      </trkpt>
      <trkpt lat="42.320518" lon="1.805313">
        <ele>1604.294</ele>
        <time>2019-06-01T10:04:59Z</time>
      </trkpt>
      <trkpt lat="42.320537" lon="1.805535">
        <ele>1603.231</ele>
        <time>2019-06-01T10:05:02Z</time>
      </trkpt>
      <trkpt lat="42.320526" lon="1.805762">
        <ele>1602.079</ele>
        <time>2019-06-01T10:05:05Z</time>
      </trkpt>
      <trkpt lat="42.320481" lon="1.806052">
        <ele>1601.270</ele>
        <time>2019-06-01T10:05:09Z</time>
      </trkpt>
      <trkpt lat="42.320477" lon="1.806124">
        <ele>1601.848</ele>
        <time>2019-06-01T10:05:10Z</time>
      </trkpt>
      <trkpt lat="42.320491" lon="1.806272">
        <ele>1601.061</ele>
        <time>2019-06-01T10:05:12Z</time>
      </trkpt>
      <trkpt lat="42.320545" lon="1.806405">
        <ele>1600.017</ele>
        <time>2019-06-01T10:05:14Z</time>
      </trkpt>
      <trkpt lat="42.320666" lon="1.806565">
        <ele>1599.008</ele>
        <time>2019-06-01T10:05:17Z</time>
      </trkpt>
      <trkpt lat="42.320706" lon="1.806620">
        <ele>1599.237</ele>
        <time>2019-06-01T10:05:18Z</time>
      </trkpt>
      <trkpt lat="42.320787" lon="1.806728">
        <ele>1599.041</ele>
        <time>2019-06-01T10:05:20Z</time>
      </trkpt>
      <trkpt lat="42.320818" lon="1.806794">
        <ele>1598.457</ele>
        <time>2019-06-01T10:05:21Z</time>
      </trkpt>
      <trkpt lat="42.320841" lon="1.806864">
        <ele>1598.445</ele>
        <time>2019-06-01T10:05:22Z</time>
      </trkpt>
      <trkpt lat="42.320831" lon="1.807079">
        <ele>1598.269</ele>
        <time>2019-06-01T10:05:25Z</time>
      </trkpt>
      <trkpt lat="42.320748" lon="1.807271">
        <ele>1597.816</ele>
        <time>2019-06-01T10:05:28Z</time>
      </trkpt>
      <trkpt lat="42.320715" lon="1.807333">
        <ele>1597.624</ele>
        <time>2019-06-01T10:05:29Z</time>
      </trkpt>
      <trkpt lat="42.320689" lon="1.807396">
        <ele>1597.815</ele>
        <time>2019-06-01T10:05:30Z</time>
      </trkpt>
      <trkpt lat="42.320664" lon="1.807541">
        <ele>1597.457</ele>
        <time>2019-06-01T10:05:32Z</time>
      </trkpt>
      <trkpt lat="42.320716" lon="1.807729">
        <ele>1597.000</ele>
        <time>2019-06-01T10:05:35Z</time>
      </trkpt>
      <trkpt lat="42.320788" lon="1.807830">
        <ele>1596.820</ele>
        <time>2019-06-01T10:05:37Z</time>
      </trkpt>
      <trkpt lat="42.320829" lon="1.807877">
        <ele>1596.008</ele>
        <time>2019-06-01T10:05:38Z</time>
      </trkpt>
      <trkpt lat="42.320918" lon="1.807969">
        <ele>1595.828</ele>
        <time>2019-06-01T10:05:40Z</time>
      </trkpt>
      <trkpt lat="42.321048" lon="1.808104">
        <ele>1596.082</ele>
        <time>2019-06-01T10:05:43Z</time>
      </trkpt>
      <trkpt lat="42.321155" lon="1.808256">
        <ele>1595.498</ele>
        <time>2019-06-01T10:05:46Z</time>
      </trkpt>
      <trkpt lat="42.321225" lon="1.808353">
        <ele>1595.026</ele>
        <time>2019-06-01T10:05:48Z</time>
      </trkpt>
      <trkpt lat="42.321346" lon="1.808567">
        <ele>1594.060</ele>
        <time>2019-06-01T10:05:52Z</time>
      </trkpt>
      <trkpt lat="42.321374" lon="1.808623">
        <ele>1593.837</ele>
        <time>2019-06-01T10:05:53Z</time>
      </trkpt>
      <trkpt lat="42.321493" lon="1.808851">
        <ele>1592.415</ele>
        <time>2019-06-01T10:05:57Z</time>
      </trkpt>
      <trkpt lat="42.321524" lon="1.808910">
        <ele>1594.696</ele>
        <time>2019-06-01T10:05:58Z</time>
      </trkpt>
      <trkpt lat="42.321550" lon="1.808970">
        <ele>1594.497</ele>
        <time>2019-06-01T10:05:59Z</time>
      </trkpt>
      <trkpt lat="42.321570" lon="1.809014">
        <ele>1595.623</ele>
        <time>2019-06-01T10:06:00Z</time>
      </trkpt>
      <trkpt lat="42.321586" lon="1.809046">
        <ele>1593.625</ele>
        <time>2019-06-01T10:06:01Z</time>
      </trkpt>
      <trkpt lat="42.321651" lon="1.809201">
        <ele>1594.208</ele>
        <time>2019-06-01T10:06:05Z</time>
      </trkpt>
      <trkpt lat="42.321717" lon="1.809419">
        <ele>1592.662</ele>
        <time>2019-06-01T10:06:09Z</time>
      </trkpt>
      <trkpt lat="42.321761" lon="1.809540">
        <ele>1591.016</ele>
        <time>2019-06-01T10:06:11Z</time>
      </trkpt>
      <trkpt lat="42.321868" lon="1.809871">
        <ele>1589.822</ele>
        <time>2019-06-01T10:06:16Z</time>
      </trkpt>
      <trkpt lat="42.321890" lon="1.809943">
        <ele>1589.460</ele>
        <time>2019-06-01T10:06:17Z</time>
      </trkpt>
      <trkpt lat="42.321935" lon="1.810095">
        <ele>1588.624</ele>
        <time>2019-06-01T10:06:19Z</time>
      </trkpt>
      <trkpt lat="42.322001" lon="1.810345">
        <ele>1587.481</ele>
        <time>2019-06-01T10:06:22Z</time>
      </trkpt>
      <trkpt lat="42.322019" lon="1.810425">
        <ele>1587.019</ele>
        <time>2019-06-01T10:06:23Z</time>
      </trkpt>
      <trkpt lat="42.322058" lon="1.810576">
        <ele>1586.290</ele>
        <time>2019-06-01T10:06:25Z</time>
      </trkpt>
      <trkpt lat="42.322148" lon="1.810898">
        <ele>1585.073</ele>
        <time>2019-06-01T10:06:29Z</time>
      </trkpt>
      <trkpt lat="42.322235" lon="1.811211">
        <ele>1583.685</ele>
        <time>2019-06-01T10:06:33Z</time>
      </trkpt>
      <trkpt lat="42.322287" lon="1.811428">
        <ele>1584.413</ele>
        <time>2019-06-01T10:06:36Z</time>
      </trkpt>
      <trkpt lat="42.322314" lon="1.811572">
        <ele>1584.208</ele>
        <time>2019-06-01T10:06:38Z</time>
      </trkpt>
      <trkpt lat="42.322341" lon="1.811863">
        <ele>1583.660</ele>
        <time>2019-06-01T10:06:42Z</time>
      </trkpt>
      <trkpt lat="42.322349" lon="1.812358">
        <ele>1582.654</ele>
        <time>2019-06-01T10:06:49Z</time>
      </trkpt>
      <trkpt lat="42.322349" lon="1.812428">
        <ele>1581.820</ele>
        <time>2019-06-01T10:06:50Z</time>
      </trkpt>
      <trkpt lat="42.322349" lon="1.812699">
        <ele>1582.038</ele>
        <time>2019-06-01T10:06:54Z</time>
      </trkpt>
      <trkpt lat="42.322340" lon="1.812761">
        <ele>1582.232</ele>
        <time>2019-06-01T10:06:55Z</time>
      </trkpt>
      <trkpt lat="42.322313" lon="1.812881">
        <ele>1582.059</ele>
        <time>2019-06-01T10:06:57Z</time>
      </trkpt>
      <trkpt lat="42.322244" lon="1.813102">
        <ele>1581.837</ele>
        <time>2019-06-01T10:07:01Z</time>
      </trkpt>
      <trkpt lat="42.322198" lon="1.813285">
        <ele>1580.848</ele>
        <time>2019-06-01T10:07:04Z</time>
      </trkpt>
      <trkpt lat="42.322106" lon="1.813537">
        <ele>1581.091</ele>
        <time>2019-06-01T10:07:08Z</time>
      </trkpt>
      <trkpt lat="42.322101" lon="1.813755">
        <ele>1581.081</ele>
        <time>2019-06-01T10:07:11Z</time>
      </trkpt>
      <trkpt lat="42.322107" lon="1.813821">
        <ele>1581.019</ele>
        <time>2019-06-01T10:07:12Z</time>
      </trkpt>
      <trkpt lat="42.322113" lon="1.814088">
        <ele>1579.808</ele>
        <time>2019-06-01T10:07:16Z</time>
      </trkpt>
      <trkpt lat="42.322109" lon="1.814156">
        <ele>1579.012</ele>
        <time>2019-06-01T10:07:17Z</time>
      </trkpt>
      <trkpt lat="42.322108" lon="1.814225">
        <ele>1579.216</ele>
        <time>2019-06-01T10:07:18Z</time>
      </trkpt>
      <trkpt lat="42.322108" lon="1.814292">
        <ele>1578.442</ele>
        <time>2019-06-01T10:07:19Z</time>
      </trkpt>
      <trkpt lat="42.322109" lon="1.814480">
        <ele>1577.840</ele>
        <time>2019-06-01T10:07:22Z</time>
      </trkpt>
      <trkpt lat="42.322131" lon="1.814624">
        <ele>1577.034</ele>
        <time>2019-06-01T10:07:25Z</time>
      </trkpt>
      <trkpt lat="42.322154" lon="1.814657">
        <ele>1576.681</ele>
        <time>2019-06-01T10:07:26Z</time>
      </trkpt>
      <trkpt lat="42.322267" lon="1.814714">
        <ele>1575.689</ele>
        <time>2019-06-01T10:07:29Z</time>
      </trkpt>
      <trkpt lat="42.322314" lon="1.814712">
        <ele>1574.850</ele>
        <time>2019-06-01T10:07:30Z</time>
      </trkpt>
      <trkpt lat="42.322361" lon="1.814702">
        <ele>1574.665</ele>
        <time>2019-06-01T10:07:31Z</time>
      </trkpt>
      <trkpt lat="42.322414" lon="1.814688">
        <ele>1574.268</ele>
        <time>2019-06-01T10:07:32Z</time>
      </trkpt>
      <trkpt lat="42.322528" lon="1.814666">
        <ele>1573.014</ele>
        <time>2019-06-01T10:07:34Z</time>
      </trkpt>
      <trkpt lat="42.322585" lon="1.814654">
        <ele>1572.008</ele>
        <time>2019-06-01T10:07:35Z</time>
      </trkpt>
      <trkpt lat="42.322640" lon="1.814638">
        <ele>1571.289</ele>
        <time>2019-06-01T10:07:36Z</time>
      </trkpt>
      <trkpt lat="42.322752" lon="1.814599">
        <ele>1570.883</ele>
        <time>2019-06-01T10:07:38Z</time>
      </trkpt>
      <trkpt lat="42.322880" lon="1.814573">
        <ele>1569.279</ele>
        <time>2019-06-01T10:07:40Z</time>
      </trkpt>
      <trkpt lat="42.322947" lon="1.814564">
        <ele>1569.237</ele>
        <time>2019-06-01T10:07:41Z</time>
      </trkpt>
      <trkpt lat="42.323150" lon="1.814534">
        <ele>1567.851</ele>
        <time>2019-06-01T10:07:44Z</time>
      </trkpt>
      <trkpt lat="42.323218" lon="1.814514">
        <ele>1567.688</ele>
        <time>2019-06-01T10:07:45Z</time>
      </trkpt>
      <trkpt lat="42.323284" lon="1.814491">
        <ele>1568.036</ele>
        <time>2019-06-01T10:07:46Z</time>
      </trkpt>
      <trkpt lat="42.323406" lon="1.814445">
        <ele>1566.447</ele>
        <time>2019-06-01T10:07:48Z</time>
      </trkpt>
      <trkpt lat="42.323463" lon="1.814428">
        <ele>1566.034</ele>
        <time>2019-06-01T10:07:49Z</time>
      </trkpt>
      <trkpt lat="42.323572" lon="1.814398">
        <ele>1566.255</ele>
        <time>2019-06-01T10:07:51Z</time>
      </trkpt>
      <trkpt lat="42.323720" lon="1.814362">
        <ele>1565.410</ele>
        <time>2019-06-01T10:07:54Z</time>
      </trkpt>
      <trkpt lat="42.323809" lon="1.814374">
        <ele>1564.608</ele>
        <time>2019-06-01T10:07:56Z</time>
      </trkpt>
      <trkpt lat="42.323952" lon="1.814503">
        <ele>1563.636</ele>
        <time>2019-06-01T10:08:00Z</time>
      </trkpt>
      <trkpt lat="42.324031" lon="1.814656">
        <ele>1562.650</ele>
        <time>2019-06-01T10:08:03Z</time>
      </trkpt>
      <trkpt lat="42.324057" lon="1.814707">
        <ele>1561.866</ele>
        <time>2019-06-01T10:08:04Z</time>
      </trkpt>
      <trkpt lat="42.324081" lon="1.814758">
        <ele>1561.074</ele>
        <time>2019-06-01T10:08:05Z</time>
      </trkpt>
      <trkpt lat="42.324156" lon="1.814916">
        <ele>1559.648</ele>
        <time>2019-06-01T10:08:08Z</time>
      </trkpt>
      <trkpt lat="42.324205" lon="1.815042">
        <ele>1558.235</ele>
        <time>2019-06-01T10:08:10Z</time>
      </trkpt>
      <trkpt lat="42.324248" lon="1.815171">
        <ele>1556.893</ele>
        <time>2019-06-01T10:08:12Z</time>
      </trkpt>
      <trkpt lat="42.324261" lon="1.815237">
        <ele>1556.244</ele>
        <time>2019-06-01T10:08:13Z</time>
      </trkpt>
      <trkpt lat="42.324270" lon="1.815305">
        <ele>1555.861</ele>
        <time>2019-06-01T10:08:14Z</time>
      </trkpt>
      <trkpt lat="42.324277" lon="1.815450">
        <ele>1554.821</ele>
        <time>2019-06-01T10:08:16Z</time>
      </trkpt>
      <trkpt lat="42.324295" lon="1.815674">
        <ele>1553.413</ele>
        <time>2019-06-01T10:08:19Z</time>
      </trkpt>
      <trkpt lat="42.324293" lon="1.815751">
        <ele>1552.608</ele>
        <time>2019-06-01T10:08:20Z</time>
      </trkpt>
      <trkpt lat="42.324283" lon="1.815824">
        <ele>1551.899</ele>
        <time>2019-06-01T10:08:21Z</time>
      </trkpt>
      <trkpt lat="42.324194" lon="1.816060">
        <ele>1550.813</ele>
        <time>2019-06-01T10:08:25Z</time>
      </trkpt>
      <trkpt lat="42.324174" lon="1.816109">
        <ele>1550.489</ele>
        <time>2019-06-01T10:08:26Z</time>
      </trkpt>
      <trkpt lat="42.324162" lon="1.816162">
        <ele>1550.017</ele>
        <time>2019-06-01T10:08:27Z</time>
      </trkpt>
      <trkpt lat="42.324172" lon="1.816248">
        <ele>1549.231</ele>
        <time>2019-06-01T10:08:29Z</time>
      </trkpt>
      <trkpt lat="42.324235" lon="1.816291">
        <ele>1547.878</ele>
        <time>2019-06-01T10:08:31Z</time>
      </trkpt>
      <trkpt lat="42.324278" lon="1.816292">
        <ele>1547.216</ele>
        <time>2019-06-01T10:08:32Z</time>
      </trkpt>
      <trkpt lat="42.324320" lon="1.816288">
        <ele>1545.627</ele>
        <time>2019-06-01T10:08:33Z</time>
      </trkpt>
      <trkpt lat="42.324363" lon="1.816284">
        <ele>1545.239</ele>
        <time>2019-06-01T10:08:34Z</time>
      </trkpt>
      <trkpt lat="42.324455" lon="1.816278">
        <ele>1544.001</ele>
        <time>2019-06-01T10:08:36Z</time>
      </trkpt>
      <trkpt lat="42.324503" lon="1.816268">
        <ele>1543.221</ele>
        <time>2019-06-01T10:08:37Z</time>
      </trkpt>
      <trkpt lat="42.324552" lon="1.816255">
        <ele>1542.408</ele>
        <time>2019-06-01T10:08:38Z</time>
      </trkpt>
      <trkpt lat="42.324734" lon="1.816171">
        <ele>1541.066</ele>
        <time>2019-06-01T10:08:42Z</time>
      </trkpt>
      <trkpt lat="42.324781" lon="1.816150">
        <ele>1541.010</ele>
        <time>2019-06-01T10:08:43Z</time>
      </trkpt>
      <trkpt lat="42.324926" lon="1.816075">
        <ele>1540.046</ele>
        <time>2019-06-01T10:08:46Z</time>
      </trkpt>
      <trkpt lat="42.324969" lon="1.816054">
        <ele>1539.234</ele>
        <time>2019-06-01T10:08:47Z</time>
      </trkpt>
      <trkpt lat="42.325010" lon="1.816040">
        <ele>1538.688</ele>
        <time>2019-06-01T10:08:48Z</time>
      </trkpt>
      <trkpt lat="42.325131" lon="1.816089">
        <ele>1537.435</ele>
        <time>2019-06-01T10:08:52Z</time>
      </trkpt>
      <trkpt lat="42.325186" lon="1.816212">
        <ele>1535.823</ele>
        <time>2019-06-01T10:08:55Z</time>
      </trkpt>
      <trkpt lat="42.325218" lon="1.816313">
        <ele>1534.414</ele>
        <time>2019-06-01T10:08:57Z</time>
      </trkpt>
      <trkpt lat="42.325245" lon="1.816528">
        <ele>1533.288</ele>
        <time>2019-06-01T10:09:01Z</time>
      </trkpt>
      <trkpt lat="42.325243" lon="1.816581">
        <ele>1532.624</ele>
        <time>2019-06-01T10:09:02Z</time>
      </trkpt>
      <trkpt lat="42.325230" lon="1.816696">
        <ele>1531.426</ele>
        <time>2019-06-01T10:09:04Z</time>
      </trkpt>
      <trkpt lat="42.325207" lon="1.816808">
        <ele>1530.008</ele>
        <time>2019-06-01T10:09:06Z</time>
      </trkpt>
      <trkpt lat="42.325191" lon="1.816863">
        <ele>1529.891</ele>
        <time>2019-06-01T10:09:07Z</time>
      </trkpt>
      <trkpt lat="42.325172" lon="1.816918">
        <ele>1529.015</ele>
        <time>2019-06-01T10:09:08Z</time>
      </trkpt>
      <trkpt lat="42.325128" lon="1.817024">
        <ele>1527.821</ele>
        <time>2019-06-01T10:09:10Z</time>
      </trkpt>
      <trkpt lat="42.325104" lon="1.817074">
        <ele>1527.459</ele>
        <time>2019-06-01T10:09:11Z</time>
      </trkpt>
      <trkpt lat="42.325055" lon="1.817165">
        <ele>1526.633</ele>
        <time>2019-06-01T10:09:13Z</time>
      </trkpt>
      <trkpt lat="42.325033" lon="1.817208">
        <ele>1526.490</ele>
        <time>2019-06-01T10:09:14Z</time>
      </trkpt>
      <trkpt lat="42.324961" lon="1.817435">
        <ele>1525.468</ele>
        <time>2019-06-01T10:09:18Z</time>
      </trkpt>
      <trkpt lat="42.324954" lon="1.817515">
        <ele>1525.049</ele>
        <time>2019-06-01T10:09:19Z</time>
      </trkpt>
      <trkpt lat="42.324964" lon="1.817702">
        <ele>1523.039</ele>
        <time>2019-06-01T10:09:21Z</time>
      </trkpt>
      <trkpt lat="42.324973" lon="1.817801">
        <ele>1522.201</ele>
        <time>2019-06-01T10:09:22Z</time>
      </trkpt>
      <trkpt lat="42.324984" lon="1.817904">
        <ele>1522.021</ele>
        <time>2019-06-01T10:09:23Z</time>
      </trkpt>
      <trkpt lat="42.324998" lon="1.818010">
        <ele>1520.808</ele>
        <time>2019-06-01T10:09:24Z</time>
      </trkpt>
      <trkpt lat="42.325087" lon="1.818663">
        <ele>1519.876</ele>
        <time>2019-06-01T10:09:30Z</time>
      </trkpt>
      <trkpt lat="42.325099" lon="1.818769">
        <ele>1519.640</ele>
        <time>2019-06-01T10:09:31Z</time>
      </trkpt>
      <trkpt lat="42.325165" lon="1.819216">
        <ele>1520.096</ele>
        <time>2019-06-01T10:09:36Z</time>
      </trkpt>
      <trkpt lat="42.325253" lon="1.819730">
        <ele>1520.224</ele>
        <time>2019-06-01T10:09:43Z</time>
      </trkpt>
      <trkpt lat="42.325283" lon="1.819860">
        <ele>1521.288</ele>
        <time>2019-06-01T10:09:45Z</time>
      </trkpt>
      <trkpt lat="42.325323" lon="1.819977">
        <ele>1521.275</ele>
        <time>2019-06-01T10:09:47Z</time>
      </trkpt>
      <trkpt lat="42.325348" lon="1.820029">
        <ele>1521.253</ele>
        <time>2019-06-01T10:09:48Z</time>
      </trkpt>
      <trkpt lat="42.325471" lon="1.820238">
        <ele>1522.464</ele>
        <time>2019-06-01T10:09:53Z</time>
      </trkpt>
      <trkpt lat="42.325494" lon="1.820271">
        <ele>1522.663</ele>
        <time>2019-06-01T10:09:54Z</time>
      </trkpt>
      <trkpt lat="42.325591" lon="1.820403">
        <ele>1523.444</ele>
        <time>2019-06-01T10:09:59Z</time>
      </trkpt>
      <trkpt lat="42.325609" lon="1.820426">
        <ele>1523.618</ele>
        <time>2019-06-01T10:10:00Z</time>
      </trkpt>
      <trkpt lat="42.325681" lon="1.820535">
        <ele>1524.408</ele>
        <time>2019-06-01T10:10:05Z</time>
      </trkpt>
      <trkpt lat="42.325722" lon="1.820642">
        <ele>1525.259</ele>
        <time>2019-06-01T10:10:09Z</time>
      </trkpt>
      <trkpt lat="42.325744" lon="1.820696">
        <ele>1525.683</ele>
        <time>2019-06-01T10:10:11Z</time>
      </trkpt>
      <trkpt lat="42.325839" lon="1.820901">
        <ele>1526.849</ele>
        <time>2019-06-01T10:10:19Z</time>
      </trkpt>
      <trkpt lat="42.325936" lon="1.821158">
        <ele>1527.897</ele>
        <time>2019-06-01T10:10:28Z</time>
      </trkpt>
      <trkpt lat="42.326031" lon="1.821351">
        <ele>1528.031</ele>
        <time>2019-06-01T10:10:35Z</time>
      </trkpt>
      <trkpt lat="42.326109" lon="1.821527">
        <ele>1528.098</ele>
        <time>2019-06-01T10:10:41Z</time>
      </trkpt>
      <trkpt lat="42.326227" lon="1.821791">
        <ele>1527.886</ele>
        <time>2019-06-01T10:10:49Z</time>
      </trkpt>
      <trkpt lat="42.326294" lon="1.821960">
        <ele>1526.467</ele>
        <time>2019-06-01T10:10:53Z</time>
      </trkpt>
      <trkpt lat="42.326335" lon="1.822058">
        <ele>1528.419</ele>
        <time>2019-06-01T10:10:55Z</time>
      </trkpt>
      <trkpt lat="42.326366" lon="1.822159">
        <ele>1526.609</ele>
        <time>2019-06-01T10:10:57Z</time>
      </trkpt>
      <trkpt lat="42.326433" lon="1.822360">
        <ele>1526.019</ele>
        <time>2019-06-01T10:11:01Z</time>
      </trkpt>
      <trkpt lat="42.326492" lon="1.822518">
        <ele>1526.608</ele>
        <time>2019-06-01T10:11:04Z</time>
      </trkpt>
      <trkpt lat="42.326555" lon="1.822682">
        <ele>1525.244</ele>
        <time>2019-06-01T10:11:07Z</time>
      </trkpt>
      <trkpt lat="42.326683" lon="1.823021">
        <ele>1525.038</ele>
        <time>2019-06-01T10:11:13Z</time>
      </trkpt>
      <trkpt lat="42.326699" lon="1.823078">
        <ele>1525.214</ele>
        <time>2019-06-01T10:11:14Z</time>
      </trkpt>
      <trkpt lat="42.326756" lon="1.823448">
        <ele>1524.872</ele>
        <time>2019-06-01T10:11:21Z</time>
      </trkpt>
      <trkpt lat="42.326761" lon="1.823826">
        <ele>1524.236</ele>
        <time>2019-06-01T10:11:28Z</time>
      </trkpt>
      <trkpt lat="42.326759" lon="1.823888">
        <ele>1524.083</ele>
        <time>2019-06-01T10:11:29Z</time>
      </trkpt>
      <trkpt lat="42.326759" lon="1.824071">
        <ele>1522.831</ele>
        <time>2019-06-01T10:11:32Z</time>
      </trkpt>
      <trkpt lat="42.326759" lon="1.824195">
        <ele>1521.642</ele>
        <time>2019-06-01T10:11:34Z</time>
      </trkpt>
      <trkpt lat="42.326765" lon="1.824439">
        <ele>1520.411</ele>
        <time>2019-06-01T10:11:38Z</time>
      </trkpt>
      <trkpt lat="42.326772" lon="1.824497">
        <ele>1520.021</ele>
        <time>2019-06-01T10:11:39Z</time>
      </trkpt>
      <trkpt lat="42.326784" lon="1.824554">
        <ele>1520.203</ele>
        <time>2019-06-01T10:11:40Z</time>
      </trkpt>
      <trkpt lat="42.326819" lon="1.824671">
        <ele>1519.808</ele>
        <time>2019-06-01T10:11:42Z</time>
      </trkpt>
      <trkpt lat="42.326843" lon="1.824730">
        <ele>1519.214</ele>
        <time>2019-06-01T10:11:43Z</time>
      </trkpt>
      <trkpt lat="42.326894" lon="1.824846">
        <ele>1517.288</ele>
        <time>2019-06-01T10:11:45Z</time>
      </trkpt>
      <trkpt lat="42.326922" lon="1.824903">
        <ele>1516.034</ele>
        <time>2019-06-01T10:11:46Z</time>
      </trkpt>
      <trkpt lat="42.327089" lon="1.825191">
        <ele>1515.022</ele>
        <time>2019-06-01T10:11:52Z</time>
      </trkpt>
      <trkpt lat="42.327118" lon="1.825230">
        <ele>1514.226</ele>
        <time>2019-06-01T10:11:53Z</time>
      </trkpt>
      <trkpt lat="42.327204" lon="1.825298">
        <ele>1513.813</ele>
        <time>2019-06-01T10:11:56Z</time>
      </trkpt>
      <trkpt lat="42.327229" lon="1.825316">
        <ele>1513.671</ele>
        <time>2019-06-01T10:11:57Z</time>
      </trkpt>
      <trkpt lat="42.327319" lon="1.825392">
        <ele>1513.472</ele>
        <time>2019-06-01T10:12:00Z</time>
      </trkpt>
      <trkpt lat="42.327356" lon="1.825416">
        <ele>1512.815</ele>
        <time>2019-06-01T10:12:01Z</time>
      </trkpt>
      <trkpt lat="42.327398" lon="1.825433">
        <ele>1512.465</ele>
        <time>2019-06-01T10:12:02Z</time>
      </trkpt>
      <trkpt lat="42.327444" lon="1.825447">
        <ele>1511.611</ele>
        <time>2019-06-01T10:12:03Z</time>
      </trkpt>
      <trkpt lat="42.327635" lon="1.825510">
        <ele>1510.608</ele>
        <time>2019-06-01T10:12:07Z</time>
      </trkpt>
      <trkpt lat="42.327735" lon="1.825525">
        <ele>1509.094</ele>
        <time>2019-06-01T10:12:09Z</time>
      </trkpt>
      <trkpt lat="42.327883" lon="1.825538">
        <ele>1507.698</ele>
        <time>2019-06-01T10:12:12Z</time>
      </trkpt>
      <trkpt lat="42.328075" lon="1.825550">
        <ele>1506.054</ele>
        <time>2019-06-01T10:12:16Z</time>
      </trkpt>
      <trkpt lat="42.328123" lon="1.825552">
        <ele>1505.632</ele>
        <time>2019-06-01T10:12:17Z</time>
      </trkpt>
      <trkpt lat="42.328170" lon="1.825548">
        <ele>1505.636</ele>
        <time>2019-06-01T10:12:18Z</time>
      </trkpt>
      <trkpt lat="42.328264" lon="1.825525">
        <ele>1504.883</ele>
        <time>2019-06-01T10:12:20Z</time>
      </trkpt>
      <trkpt lat="42.328361" lon="1.825482">
        <ele>1504.021</ele>
        <time>2019-06-01T10:12:22Z</time>
      </trkpt>
      <trkpt lat="42.328409" lon="1.825455">
        <ele>1503.472</ele>
        <time>2019-06-01T10:12:23Z</time>
      </trkpt>
      <trkpt lat="42.328453" lon="1.825425">
        <ele>1503.288</ele>
        <time>2019-06-01T10:12:24Z</time>
      </trkpt>
      <trkpt lat="42.328528" lon="1.825372">
        <ele>1502.424</ele>
        <time>2019-06-01T10:12:26Z</time>
      </trkpt>
      <trkpt lat="42.328553" lon="1.825344">
        <ele>1502.026</ele>
        <time>2019-06-01T10:12:27Z</time>
      </trkpt>
      <trkpt lat="42.328645" lon="1.825232">
        <ele>1501.208</ele>
        <time>2019-06-01T10:12:30Z</time>
      </trkpt>
      <trkpt lat="42.328681" lon="1.825181">
        <ele>1500.861</ele>
        <time>2019-06-01T10:12:31Z</time>
      </trkpt>
      <trkpt lat="42.328714" lon="1.825127">
        <ele>1500.035</ele>
        <time>2019-06-01T10:12:32Z</time>
      </trkpt>
      <trkpt lat="42.328750" lon="1.825067">
        <ele>1499.031</ele>
        <time>2019-06-01T10:12:33Z</time>
      </trkpt>
      <trkpt lat="42.328783" lon="1.824999">
        <ele>1498.449</ele>
        <time>2019-06-01T10:12:34Z</time>
      </trkpt>
      <trkpt lat="42.328837" lon="1.824876">
        <ele>1497.873</ele>
        <time>2019-06-01T10:12:36Z</time>
      </trkpt>
      <trkpt lat="42.328949" lon="1.824641">
        <ele>1496.690</ele>
        <time>2019-06-01T10:12:41Z</time>
      </trkpt>
      <trkpt lat="42.329019" lon="1.824589">
        <ele>1495.428</ele>
        <time>2019-06-01T10:12:43Z</time>
      </trkpt>
      <trkpt lat="42.329064" lon="1.824585">
        <ele>1494.669</ele>
        <time>2019-06-01T10:12:44Z</time>
      </trkpt>
      <trkpt lat="42.329109" lon="1.824596">
        <ele>1494.053</ele>
        <time>2019-06-01T10:12:45Z</time>
      </trkpt>
      <trkpt lat="42.329188" lon="1.824648">
        <ele>1493.004</ele>
        <time>2019-06-01T10:12:47Z</time>
      </trkpt>
      <trkpt lat="42.329222" lon="1.824683">
        <ele>1492.214</ele>
        <time>2019-06-01T10:12:48Z</time>
      </trkpt>
      <trkpt lat="42.329257" lon="1.824721">
        <ele>1491.608</ele>
        <time>2019-06-01T10:12:49Z</time>
      </trkpt>
      <trkpt lat="42.329288" lon="1.824762">
        <ele>1491.248</ele>
        <time>2019-06-01T10:12:50Z</time>
      </trkpt>
      <trkpt lat="42.329354" lon="1.824912">
        <ele>1490.282</ele>
        <time>2019-06-01T10:12:53Z</time>
      </trkpt>
      <trkpt lat="42.329365" lon="1.825047">
        <ele>1489.088</ele>
        <time>2019-06-01T10:12:55Z</time>
      </trkpt>
      <trkpt lat="42.329350" lon="1.825179">
        <ele>1487.436</ele>
        <time>2019-06-01T10:12:57Z</time>
      </trkpt>
      <trkpt lat="42.329324" lon="1.825490">
        <ele>1486.420</ele>
        <time>2019-06-01T10:13:02Z</time>
      </trkpt>
      <trkpt lat="42.329320" lon="1.825546">
        <ele>1486.627</ele>
        <time>2019-06-01T10:13:03Z</time>
      </trkpt>
      <trkpt lat="42.329300" lon="1.825774">
        <ele>1485.885</ele>
        <time>2019-06-01T10:13:07Z</time>
      </trkpt>
      <trkpt lat="42.329299" lon="1.825816">
        <ele>1485.466</ele>
        <time>2019-06-01T10:13:08Z</time>
      </trkpt>
      <trkpt lat="42.329292" lon="1.825861">
        <ele>1485.035</ele>
        <time>2019-06-01T10:13:09Z</time>
      </trkpt>
      <trkpt lat="42.329267" lon="1.826014">
        <ele>1484.486</ele>
        <time>2019-06-01T10:13:12Z</time>
      </trkpt>
      <trkpt lat="42.329262" lon="1.826073">
        <ele>1484.014</ele>
        <time>2019-06-01T10:13:13Z</time>
      </trkpt>
      <trkpt lat="42.329251" lon="1.826185">
        <ele>1482.808</ele>
        <time>2019-06-01T10:13:15Z</time>
      </trkpt>
      <trkpt lat="42.329223" lon="1.826283">
        <ele>1481.896</ele>
        <time>2019-06-01T10:13:17Z</time>
      </trkpt>
      <trkpt lat="42.329205" lon="1.826335">
        <ele>1481.680</ele>
        <time>2019-06-01T10:13:18Z</time>
      </trkpt>
      <trkpt lat="42.329151" lon="1.826445">
        <ele>1480.276</ele>
        <time>2019-06-01T10:13:20Z</time>
      </trkpt>
      <trkpt lat="42.329114" lon="1.826500">
        <ele>1479.234</ele>
        <time>2019-06-01T10:13:21Z</time>
      </trkpt>
      <trkpt lat="42.329076" lon="1.826553">
        <ele>1478.848</ele>
        <time>2019-06-01T10:13:22Z</time>
      </trkpt>
      <trkpt lat="42.328988" lon="1.826678">
        <ele>1478.225</ele>
        <time>2019-06-01T10:13:25Z</time>
      </trkpt>
      <trkpt lat="42.328959" lon="1.826714">
        <ele>1478.243</ele>
        <time>2019-06-01T10:13:26Z</time>
      </trkpt>
      <trkpt lat="42.328928" lon="1.826750">
        <ele>1478.054</ele>
        <time>2019-06-01T10:13:27Z</time>
      </trkpt>
      <trkpt lat="42.328846" lon="1.826822">
        <ele>1477.623</ele>
        <time>2019-06-01T10:13:29Z</time>
      </trkpt>
      <trkpt lat="42.328753" lon="1.826881">
        <ele>1476.883</ele>
        <time>2019-06-01T10:13:31Z</time>
      </trkpt>
      <trkpt lat="42.328662" lon="1.826927">
        <ele>1475.611</ele>
        <time>2019-06-01T10:13:33Z</time>
      </trkpt>
      <trkpt lat="42.328570" lon="1.826971">
        <ele>1474.208</ele>
        <time>2019-06-01T10:13:35Z</time>
      </trkpt>
      <trkpt lat="42.328486" lon="1.827018">
        <ele>1473.685</ele>
        <time>2019-06-01T10:13:37Z</time>
      </trkpt>
      <trkpt lat="42.328392" lon="1.827053">
        <ele>1473.069</ele>
        <time>2019-06-01T10:13:39Z</time>
      </trkpt>
      <trkpt lat="42.328279" lon="1.827049">
        <ele>1471.885</ele>
        <time>2019-06-01T10:13:41Z</time>
      </trkpt>
      <trkpt lat="42.328083" lon="1.827027">
        <ele>1470.283</ele>
        <time>2019-06-01T10:13:44Z</time>
      </trkpt>
      <trkpt lat="42.328010" lon="1.827021">
        <ele>1468.897</ele>
        <time>2019-06-01T10:13:45Z</time>
      </trkpt>
      <trkpt lat="42.327936" lon="1.827013">
        <ele>1467.884</ele>
        <time>2019-06-01T10:13:46Z</time>
      </trkpt>
      <trkpt lat="42.327865" lon="1.827003">
        <ele>1467.222</ele>
        <time>2019-06-01T10:13:47Z</time>
      </trkpt>
      <trkpt lat="42.327584" lon="1.826923">
        <ele>1465.883</ele>
        <time>2019-06-01T10:13:51Z</time>
      </trkpt>
      <trkpt lat="42.327468" lon="1.826903">
        <ele>1465.632</ele>
        <time>2019-06-01T10:13:53Z</time>
      </trkpt>
      <trkpt lat="42.327417" lon="1.826923">
        <ele>1465.492</ele>
        <time>2019-06-01T10:13:54Z</time>
      </trkpt>
      <trkpt lat="42.327321" lon="1.827018">
        <ele>1464.411</ele>
        <time>2019-06-01T10:13:56Z</time>
      </trkpt>
      <trkpt lat="42.327277" lon="1.827085">
        <ele>1463.608</ele>
        <time>2019-06-01T10:13:57Z</time>
      </trkpt>
      <trkpt lat="42.327240" lon="1.827155">
        <ele>1462.866</ele>
        <time>2019-06-01T10:13:58Z</time>
      </trkpt>
      <trkpt lat="42.327165" lon="1.827285">
        <ele>1462.460</ele>
        <time>2019-06-01T10:14:00Z</time>
      </trkpt>
      <trkpt lat="42.327125" lon="1.827341">
        <ele>1462.096</ele>
        <time>2019-06-01T10:14:01Z</time>
      </trkpt>
      <trkpt lat="42.327078" lon="1.827396">
        <ele>1461.414</ele>
        <time>2019-06-01T10:14:02Z</time>
      </trkpt>
      <trkpt lat="42.326977" lon="1.827485">
        <ele>1460.488</ele>
        <time>2019-06-01T10:14:04Z</time>
      </trkpt>
      <trkpt lat="42.326862" lon="1.827530">
        <ele>1459.445</ele>
        <time>2019-06-01T10:14:06Z</time>
      </trkpt>
      <trkpt lat="42.326800" lon="1.827537">
        <ele>1459.023</ele>
        <time>2019-06-01T10:14:07Z</time>
      </trkpt>
      <trkpt lat="42.326676" lon="1.827534">
        <ele>1457.454</ele>
        <time>2019-06-01T10:14:09Z</time>
      </trkpt>
      <trkpt lat="42.326615" lon="1.827523">
        <ele>1456.897</ele>
        <time>2019-06-01T10:14:10Z</time>
      </trkpt>
      <trkpt lat="42.326552" lon="1.827511">
        <ele>1456.423</ele>
        <time>2019-06-01T10:14:11Z</time>
      </trkpt>
      <trkpt lat="42.326418" lon="1.827490">
        <ele>1454.825</ele>
        <time>2019-06-01T10:14:13Z</time>
      </trkpt>
      <trkpt lat="42.326283" lon="1.827460">
        <ele>1453.808</ele>
        <time>2019-06-01T10:14:15Z</time>
      </trkpt>
      <trkpt lat="42.326214" lon="1.827452">
        <ele>1453.682</ele>
        <time>2019-06-01T10:14:16Z</time>
      </trkpt>
      <trkpt lat="42.326145" lon="1.827454">
        <ele>1453.236</ele>
        <time>2019-06-01T10:14:17Z</time>
      </trkpt>
      <trkpt lat="42.326077" lon="1.827471">
        <ele>1452.432</ele>
        <time>2019-06-01T10:14:18Z</time>
      </trkpt>
      <trkpt lat="42.325953" lon="1.827529">
        <ele>1451.870</ele>
        <time>2019-06-01T10:14:20Z</time>
      </trkpt>
      <trkpt lat="42.325895" lon="1.827566">
        <ele>1451.614</ele>
        <time>2019-06-01T10:14:21Z</time>
      </trkpt>
      <trkpt lat="42.325838" lon="1.827600">
        <ele>1451.491</ele>
        <time>2019-06-01T10:14:22Z</time>
      </trkpt>
      <trkpt lat="42.325718" lon="1.827678">
        <ele>1450.229</ele>
        <time>2019-06-01T10:14:24Z</time>
      </trkpt>
      <trkpt lat="42.325604" lon="1.827754">
        <ele>1449.460</ele>
        <time>2019-06-01T10:14:26Z</time>
      </trkpt>
      <trkpt lat="42.325550" lon="1.827793">
        <ele>1449.022</ele>
        <time>2019-06-01T10:14:27Z</time>
      </trkpt>
      <trkpt lat="42.325451" lon="1.827884">
        <ele>1447.862</ele>
        <time>2019-06-01T10:14:29Z</time>
      </trkpt>
      <trkpt lat="42.325361" lon="1.827989">
        <ele>1446.808</ele>
        <time>2019-06-01T10:14:31Z</time>
      </trkpt>
      <trkpt lat="42.325323" lon="1.828044">
        <ele>1446.608</ele>
        <time>2019-06-01T10:14:32Z</time>
      </trkpt>
      <trkpt lat="42.325260" lon="1.828167">
        <ele>1445.645</ele>
        <time>2019-06-01T10:14:34Z</time>
      </trkpt>
      <trkpt lat="42.325240" lon="1.828232">
        <ele>1445.219</ele>
        <time>2019-06-01T10:14:35Z</time>
      </trkpt>
      <trkpt lat="42.325250" lon="1.828391">
        <ele>1445.045</ele>
        <time>2019-06-01T10:14:38Z</time>
      </trkpt>
      <trkpt lat="42.325317" lon="1.828462">
        <ele>1444.623</ele>
        <time>2019-06-01T10:14:40Z</time>
      </trkpt>
      <trkpt lat="42.325366" lon="1.828469">
        <ele>1444.277</ele>
        <time>2019-06-01T10:14:41Z</time>
      </trkpt>
      <trkpt lat="42.325471" lon="1.828457">
        <ele>1443.644</ele>
        <time>2019-06-01T10:14:43Z</time>
      </trkpt>
      <trkpt lat="42.325525" lon="1.828443">
        <ele>1443.452</ele>
        <time>2019-06-01T10:14:44Z</time>
      </trkpt>
      <trkpt lat="42.325632" lon="1.828401">
        <ele>1444.063</ele>
        <time>2019-06-01T10:14:46Z</time>
      </trkpt>
      <trkpt lat="42.325999" lon="1.828192">
        <ele>1442.489</ele>
        <time>2019-06-01T10:14:53Z</time>
      </trkpt>
      <trkpt lat="42.326052" lon="1.828157">
        <ele>1442.406</ele>
        <time>2019-06-01T10:14:54Z</time>
      </trkpt>
      <trkpt lat="42.326161" lon="1.828097">
        <ele>1442.826</ele>
        <time>2019-06-01T10:14:56Z</time>
      </trkpt>
      <trkpt lat="42.326278" lon="1.828091">
        <ele>1442.008</ele>
        <time>2019-06-01T10:14:58Z</time>
      </trkpt>
      <trkpt lat="42.326386" lon="1.828126">
        <ele>1442.041</ele>
        <time>2019-06-01T10:15:00Z</time>
      </trkpt>
      <trkpt lat="42.326438" lon="1.828151">
        <ele>1442.285</ele>
        <time>2019-06-01T10:15:01Z</time>
      </trkpt>
      <trkpt lat="42.326488" lon="1.828181">
        <ele>1442.091</ele>
        <time>2019-06-01T10:15:02Z</time>
      </trkpt>
      <trkpt lat="42.326595" lon="1.828228">
        <ele>1441.479</ele>
        <time>2019-06-01T10:15:04Z</time>
      </trkpt>
      <trkpt lat="42.326823" lon="1.828288">
        <ele>1441.023</ele>
        <time>2019-06-01T10:15:08Z</time>
      </trkpt>
      <trkpt lat="42.326940" lon="1.828296">
        <ele>1440.640</ele>
        <time>2019-06-01T10:15:10Z</time>
      </trkpt>
      <trkpt lat="42.327113" lon="1.828287">
        <ele>1440.478</ele>
        <time>2019-06-01T10:15:13Z</time>
      </trkpt>
      <trkpt lat="42.327171" lon="1.828297">
        <ele>1440.239</ele>
        <time>2019-06-01T10:15:14Z</time>
      </trkpt>
      <trkpt lat="42.327318" lon="1.828430">
        <ele>1439.833</ele>
        <time>2019-06-01T10:15:17Z</time>
      </trkpt>
      <trkpt lat="42.327356" lon="1.828580">
        <ele>1439.423</ele>
        <time>2019-06-01T10:15:19Z</time>
      </trkpt>
      <trkpt lat="42.327366" lon="1.828653">
        <ele>1439.415</ele>
        <time>2019-06-01T10:15:20Z</time>
      </trkpt>
      <trkpt lat="42.327377" lon="1.828729">
        <ele>1439.208</ele>
        <time>2019-06-01T10:15:21Z</time>
      </trkpt>
      <trkpt lat="42.327413" lon="1.829096">
        <ele>1438.216</ele>
        <time>2019-06-01T10:15:26Z</time>
      </trkpt>
      <trkpt lat="42.327449" lon="1.829304">
        <ele>1437.280</ele>
        <time>2019-06-01T10:15:29Z</time>
      </trkpt>
      <trkpt lat="42.327479" lon="1.829365">
        <ele>1437.276</ele>
        <time>2019-06-01T10:15:30Z</time>
      </trkpt>
      <trkpt lat="42.327522" lon="1.829421">
        <ele>1436.664</ele>
        <time>2019-06-01T10:15:31Z</time>
      </trkpt>
      <trkpt lat="42.327632" lon="1.829517">
        <ele>1435.688</ele>
        <time>2019-06-01T10:15:33Z</time>
      </trkpt>
      <trkpt lat="42.327737" lon="1.829606">
        <ele>1434.895</ele>
        <time>2019-06-01T10:15:35Z</time>
      </trkpt>
      <trkpt lat="42.327792" lon="1.829644">
        <ele>1434.673</ele>
        <time>2019-06-01T10:15:36Z</time>
      </trkpt>
      <trkpt lat="42.327972" lon="1.829707">
        <ele>1433.814</ele>
        <time>2019-06-01T10:15:39Z</time>
      </trkpt>
      <trkpt lat="42.328030" lon="1.829723">
        <ele>1433.216</ele>
        <time>2019-06-01T10:15:40Z</time>
      </trkpt>
      <trkpt lat="42.328264" lon="1.829776">
        <ele>1432.076</ele>
        <time>2019-06-01T10:15:44Z</time>
      </trkpt>
      <trkpt lat="42.328324" lon="1.829776">
        <ele>1430.613</ele>
        <time>2019-06-01T10:15:45Z</time>
      </trkpt>
      <trkpt lat="42.328441" lon="1.829758">
        <ele>1429.008</ele>
        <time>2019-06-01T10:15:47Z</time>
      </trkpt>
      <trkpt lat="42.328553" lon="1.829714">
        <ele>1428.054</ele>
        <time>2019-06-01T10:15:49Z</time>
      </trkpt>
      <trkpt lat="42.328660" lon="1.829643">
        <ele>1426.678</ele>
        <time>2019-06-01T10:15:51Z</time>
      </trkpt>
      <trkpt lat="42.328769" lon="1.829532">
        <ele>1425.424</ele>
        <time>2019-06-01T10:15:53Z</time>
      </trkpt>
      <trkpt lat="42.328826" lon="1.829463">
        <ele>1424.432</ele>
        <time>2019-06-01T10:15:54Z</time>
      </trkpt>
      <trkpt lat="42.328936" lon="1.829302">
        <ele>1422.846</ele>
        <time>2019-06-01T10:15:56Z</time>
      </trkpt>
      <trkpt lat="42.328981" lon="1.829206">
        <ele>1422.423</ele>
        <time>2019-06-01T10:15:57Z</time>
      </trkpt>
      <trkpt lat="42.329142" lon="1.828895">
        <ele>1422.221</ele>
        <time>2019-06-01T10:16:00Z</time>
      </trkpt>
      <trkpt lat="42.329214" lon="1.828810">
        <ele>1421.632</ele>
        <time>2019-06-01T10:16:01Z</time>
      </trkpt>
      <trkpt lat="42.329544" lon="1.828437">
        <ele>1422.453</ele>
        <time>2019-06-01T10:16:06Z</time>
      </trkpt>
      <trkpt lat="42.329595" lon="1.828357">
        <ele>1422.804</ele>
        <time>2019-06-01T10:16:07Z</time>
      </trkpt>
      <trkpt lat="42.329954" lon="1.827805">
        <ele>1422.614</ele>
        <time>2019-06-01T10:16:14Z</time>
      </trkpt>
      <trkpt lat="42.330233" lon="1.827433">
        <ele>1422.608</ele>
        <time>2019-06-01T10:16:19Z</time>
      </trkpt>
      <trkpt lat="42.330297" lon="1.827376">
        <ele>1422.258</ele>
        <time>2019-06-01T10:16:20Z</time>
      </trkpt>
      <trkpt lat="42.330439" lon="1.827298">
        <ele>1421.612</ele>
        <time>2019-06-01T10:16:22Z</time>
      </trkpt>
      <trkpt lat="42.330649" lon="1.827300">
        <ele>1421.698</ele>
        <time>2019-06-01T10:16:25Z</time>
      </trkpt>
      <trkpt lat="42.330715" lon="1.827313">
        <ele>1421.896</ele>
        <time>2019-06-01T10:16:26Z</time>
      </trkpt>
      <trkpt lat="42.330943" lon="1.827366">
        <ele>1422.660</ele>
        <time>2019-06-01T10:16:30Z</time>
      </trkpt>
      <trkpt lat="42.330992" lon="1.827372">
        <ele>1423.447</ele>
        <time>2019-06-01T10:16:31Z</time>
      </trkpt>
      <trkpt lat="42.331032" lon="1.827378">
        <ele>1423.845</ele>
        <time>2019-06-01T10:16:32Z</time>
      </trkpt>
      <trkpt lat="42.331183" lon="1.827371">
        <ele>1423.846</ele>
        <time>2019-06-01T10:16:36Z</time>
      </trkpt>
      <trkpt lat="42.331219" lon="1.827364">
        <ele>1425.261</ele>
        <time>2019-06-01T10:16:37Z</time>
      </trkpt>
      <trkpt lat="42.331324" lon="1.827354">
        <ele>1424.021</ele>
        <time>2019-06-01T10:16:40Z</time>
      </trkpt>
      <trkpt lat="42.331426" lon="1.827354">
        <ele>1425.813</ele>
        <time>2019-06-01T10:16:43Z</time>
      </trkpt>
      <trkpt lat="42.331458" lon="1.827358">
        <ele>1425.208</ele>
        <time>2019-06-01T10:16:44Z</time>
      </trkpt>
      <trkpt lat="42.331619" lon="1.827446">
        <ele>1425.419</ele>
        <time>2019-06-01T10:16:50Z</time>
      </trkpt>
      <trkpt lat="42.331788" lon="1.827547">
        <ele>1425.673</ele>
        <time>2019-06-01T10:16:57Z</time>
      </trkpt>
      <trkpt lat="42.331862" lon="1.827580">
        <ele>1427.419</ele>
        <time>2019-06-01T10:17:00Z</time>
      </trkpt>
      <trkpt lat="42.331887" lon="1.827590">
        <ele>1428.887</ele>
        <time>2019-06-01T10:17:01Z</time>
      </trkpt>
      <trkpt lat="42.331936" lon="1.827624">
        <ele>1428.651</ele>
        <time>2019-06-01T10:17:03Z</time>
      </trkpt>
      <trkpt lat="42.331961" lon="1.827639">
        <ele>1427.258</ele>
        <time>2019-06-01T10:17:04Z</time>
      </trkpt>
      <trkpt lat="42.332124" lon="1.827715">
        <ele>1427.626</ele>
        <time>2019-06-01T10:17:10Z</time>
      </trkpt>
      <trkpt lat="42.332355" lon="1.827738">
        <ele>1427.467</ele>
        <time>2019-06-01T10:17:17Z</time>
      </trkpt>
      <trkpt lat="42.332595" lon="1.827662">
        <ele>1426.697</ele>
        <time>2019-06-01T10:17:23Z</time>
      </trkpt>
      <trkpt lat="42.332645" lon="1.827645">
        <ele>1426.223</ele>
        <time>2019-06-01T10:17:24Z</time>
      </trkpt>
      <trkpt lat="42.332804" lon="1.827592">
        <ele>1424.625</ele>
        <time>2019-06-01T10:17:27Z</time>
      </trkpt>
      <trkpt lat="42.332905" lon="1.827565">
        <ele>1423.608</ele>
        <time>2019-06-01T10:17:29Z</time>
      </trkpt>
      <trkpt lat="42.333238" lon="1.827496">
        <ele>1422.442</ele>
        <time>2019-06-01T10:17:35Z</time>
      </trkpt>
      <trkpt lat="42.333295" lon="1.827483">
        <ele>1422.416</ele>
        <time>2019-06-01T10:17:36Z</time>
      </trkpt>
      <trkpt lat="42.333596" lon="1.827353">
        <ele>1421.042</ele>
        <time>2019-06-01T10:17:42Z</time>
      </trkpt>
      <trkpt lat="42.333697" lon="1.827294">
        <ele>1419.830</ele>
        <time>2019-06-01T10:17:44Z</time>
      </trkpt>
      <trkpt lat="42.333753" lon="1.827250">
        <ele>1418.634</ele>
        <time>2019-06-01T10:17:45Z</time>
      </trkpt>
      <trkpt lat="42.333813" lon="1.827192">
        <ele>1417.411</ele>
        <time>2019-06-01T10:17:46Z</time>
      </trkpt>
      <trkpt lat="42.333874" lon="1.827128">
        <ele>1416.669</ele>
        <time>2019-06-01T10:17:47Z</time>
      </trkpt>
      <trkpt lat="42.333937" lon="1.827052">
        <ele>1415.670</ele>
        <time>2019-06-01T10:17:48Z</time>
      </trkpt>
      <trkpt lat="42.334062" lon="1.826874">
        <ele>1414.032</ele>
        <time>2019-06-01T10:17:50Z</time>
      </trkpt>
      <trkpt lat="42.334129" lon="1.826781">
        <ele>1413.892</ele>
        <time>2019-06-01T10:17:51Z</time>
      </trkpt>
      <trkpt lat="42.334200" lon="1.826686">
        <ele>1412.811</ele>
        <time>2019-06-01T10:17:52Z</time>
      </trkpt>
      <trkpt lat="42.334339" lon="1.826516">
        <ele>1411.008</ele>
        <time>2019-06-01T10:17:54Z</time>
      </trkpt>
      <trkpt lat="42.334473" lon="1.826382">
        <ele>1410.666</ele>
        <time>2019-06-01T10:17:56Z</time>
      </trkpt>
      <trkpt lat="42.334575" lon="1.826251">
        <ele>1411.040</ele>
        <time>2019-06-01T10:17:58Z</time>
      </trkpt>
      <trkpt lat="42.334631" lon="1.826096">
        <ele>1411.636</ele>
        <time>2019-06-01T10:18:00Z</time>
      </trkpt>
      <trkpt lat="42.334633" lon="1.825910">
        <ele>1409.464</ele>
        <time>2019-06-01T10:18:02Z</time>
      </trkpt>
      <trkpt lat="42.334611" lon="1.825813">
        <ele>1408.848</ele>
        <time>2019-06-01T10:18:03Z</time>
      </trkpt>
      <trkpt lat="42.334535" lon="1.825632">
        <ele>1408.055</ele>
        <time>2019-06-01T10:18:05Z</time>
      </trkpt>
      <trkpt lat="42.334436" lon="1.825451">
        <ele>1407.223</ele>
        <time>2019-06-01T10:18:07Z</time>
      </trkpt>
      <trkpt lat="42.334394" lon="1.825351">
        <ele>1406.634</ele>
        <time>2019-06-01T10:18:08Z</time>
      </trkpt>
      <trkpt lat="42.334357" lon="1.825240">
        <ele>1405.093</ele>
        <time>2019-06-01T10:18:09Z</time>
      </trkpt>
      <trkpt lat="42.334305" lon="1.825009">
        <ele>1403.065</ele>
        <time>2019-06-01T10:18:11Z</time>
      </trkpt>
      <trkpt lat="42.334284" lon="1.824892">
        <ele>1402.421</ele>
        <time>2019-06-01T10:18:12Z</time>
      </trkpt>
      <trkpt lat="42.334261" lon="1.824778">
        <ele>1401.608</ele>
        <time>2019-06-01T10:18:13Z</time>
      </trkpt>
      <trkpt lat="42.334232" lon="1.824678">
        <ele>1401.832</ele>
        <time>2019-06-01T10:18:14Z</time>
      </trkpt>
      <trkpt lat="42.334164" lon="1.824504">
        <ele>1400.426</ele>
        <time>2019-06-01T10:18:16Z</time>
      </trkpt>
      <trkpt lat="42.334078" lon="1.824371">
        <ele>1399.422</ele>
        <time>2019-06-01T10:18:18Z</time>
      </trkpt>
      <trkpt lat="42.334034" lon="1.824317">
        <ele>1400.260</ele>
        <time>2019-06-01T10:18:19Z</time>
      </trkpt>
      <trkpt lat="42.334002" lon="1.824257">
        <ele>1400.064</ele>
        <time>2019-06-01T10:18:20Z</time>
      </trkpt>
      <trkpt lat="42.333986" lon="1.824121">
        <ele>1398.891</ele>
        <time>2019-06-01T10:18:22Z</time>
      </trkpt>
      <trkpt lat="42.334060" lon="1.824019">
        <ele>1398.439</ele>
        <time>2019-06-01T10:18:24Z</time>
      </trkpt>
      <trkpt lat="42.334197" lon="1.823977">
        <ele>1396.680</ele>
        <time>2019-06-01T10:18:26Z</time>
      </trkpt>
      <trkpt lat="42.334271" lon="1.823963">
        <ele>1395.497</ele>
        <time>2019-06-01T10:18:27Z</time>
      </trkpt>
      <trkpt lat="42.334430" lon="1.823954">
        <ele>1393.423</ele>
        <time>2019-06-01T10:18:29Z</time>
      </trkpt>
      <trkpt lat="42.334581" lon="1.823966">
        <ele>1392.025</ele>
        <time>2019-06-01T10:18:31Z</time>
      </trkpt>
      <trkpt lat="42.334650" lon="1.823985">
        <ele>1392.008</ele>
        <time>2019-06-01T10:18:32Z</time>
      </trkpt>
      <trkpt lat="42.334788" lon="1.824050">
        <ele>1390.612</ele>
        <time>2019-06-01T10:18:34Z</time>
      </trkpt>
      <trkpt lat="42.334852" lon="1.824094">
        <ele>1390.246</ele>
        <time>2019-06-01T10:18:35Z</time>
      </trkpt>
      <trkpt lat="42.334916" lon="1.824134">
        <ele>1389.672</ele>
        <time>2019-06-01T10:18:36Z</time>
      </trkpt>
      <trkpt lat="42.334980" lon="1.824181">
        <ele>1388.890</ele>
        <time>2019-06-01T10:18:37Z</time>
      </trkpt>
      <trkpt lat="42.335046" lon="1.824231">
        <ele>1388.294</ele>
        <time>2019-06-01T10:18:38Z</time>
      </trkpt>
      <trkpt lat="42.335104" lon="1.824281">
        <ele>1387.241</ele>
        <time>2019-06-01T10:18:39Z</time>
      </trkpt>
      <trkpt lat="42.335158" lon="1.824331">
        <ele>1386.229</ele>
        <time>2019-06-01T10:18:40Z</time>
      </trkpt>
      <trkpt lat="42.335208" lon="1.824385">
        <ele>1385.440</ele>
        <time>2019-06-01T10:18:41Z</time>
      </trkpt>
      <trkpt lat="42.335253" lon="1.824441">
        <ele>1385.014</ele>
        <time>2019-06-01T10:18:42Z</time>
      </trkpt>
      <trkpt lat="42.335361" lon="1.824662">
        <ele>1383.654</ele>
        <time>2019-06-01T10:18:45Z</time>
      </trkpt>
      <trkpt lat="42.335384" lon="1.824754">
        <ele>1382.809</ele>
        <time>2019-06-01T10:18:46Z</time>
      </trkpt>
      <trkpt lat="42.335404" lon="1.824853">
        <ele>1382.208</ele>
        <time>2019-06-01T10:18:47Z</time>
      </trkpt>
      <trkpt lat="42.335426" lon="1.824958">
        <ele>1381.654</ele>
        <time>2019-06-01T10:18:48Z</time>
      </trkpt>
      <trkpt lat="42.335446" lon="1.825065">
        <ele>1381.018</ele>
        <time>2019-06-01T10:18:49Z</time>
      </trkpt>
      <trkpt lat="42.335461" lon="1.825173">
        <ele>1380.014</ele>
        <time>2019-06-01T10:18:50Z</time>
      </trkpt>
      <trkpt lat="42.335476" lon="1.825277">
        <ele>1379.092</ele>
        <time>2019-06-01T10:18:51Z</time>
      </trkpt>
      <trkpt lat="42.335494" lon="1.825377">
        <ele>1378.256</ele>
        <time>2019-06-01T10:18:52Z</time>
      </trkpt>
      <trkpt lat="42.335518" lon="1.825468">
        <ele>1378.053</ele>
        <time>2019-06-01T10:18:53Z</time>
      </trkpt>
      <trkpt lat="42.335600" lon="1.825606">
        <ele>1376.811</ele>
        <time>2019-06-01T10:18:55Z</time>
      </trkpt>
      <trkpt lat="42.335735" lon="1.825624">
        <ele>1375.642</ele>
        <time>2019-06-01T10:18:57Z</time>
      </trkpt>
      <trkpt lat="42.335884" lon="1.825574">
        <ele>1374.491</ele>
        <time>2019-06-01T10:18:59Z</time>
      </trkpt>
      <trkpt lat="42.336021" lon="1.825497">
        <ele>1374.081</ele>
        <time>2019-06-01T10:19:01Z</time>
      </trkpt>
      <trkpt lat="42.336083" lon="1.825457">
        <ele>1373.219</ele>
        <time>2019-06-01T10:19:02Z</time>
      </trkpt>
      <trkpt lat="42.336266" lon="1.825362">
        <ele>1374.208</ele>
        <time>2019-06-01T10:19:05Z</time>
      </trkpt>
      <trkpt lat="42.336403" lon="1.825331">
        <ele>1373.872</ele>
        <time>2019-06-01T10:19:07Z</time>
      </trkpt>
      <trkpt lat="42.336612" lon="1.825328">
        <ele>1372.646</ele>
        <time>2019-06-01T10:19:10Z</time>
      </trkpt>
      <trkpt lat="42.336683" lon="1.825331">
        <ele>1371.462</ele>
        <time>2019-06-01T10:19:11Z</time>
      </trkpt>
      <trkpt lat="42.336753" lon="1.825335">
        <ele>1370.020</ele>
        <time>2019-06-01T10:19:12Z</time>
      </trkpt>
      <trkpt lat="42.336905" lon="1.825355">
        <ele>1368.264</ele>
        <time>2019-06-01T10:19:14Z</time>
      </trkpt>
      <trkpt lat="42.336980" lon="1.825364">
        <ele>1367.281</ele>
        <time>2019-06-01T10:19:15Z</time>
      </trkpt>
      <trkpt lat="42.337126" lon="1.825380">
        <ele>1366.019</ele>
        <time>2019-06-01T10:19:17Z</time>
      </trkpt>
      <trkpt lat="42.337358" lon="1.825430">
        <ele>1365.210</ele>
        <time>2019-06-01T10:19:21Z</time>
      </trkpt>
      <trkpt lat="42.337415" lon="1.825467">
        <ele>1364.614</ele>
        <time>2019-06-01T10:19:22Z</time>
      </trkpt>
      <trkpt lat="42.337526" lon="1.825583">
        <ele>1363.454</ele>
        <time>2019-06-01T10:19:24Z</time>
      </trkpt>
      <trkpt lat="42.337580" lon="1.825644">
        <ele>1362.209</ele>
        <time>2019-06-01T10:19:25Z</time>
      </trkpt>
      <trkpt lat="42.337693" lon="1.825769">
        <ele>1360.608</ele>
        <time>2019-06-01T10:19:27Z</time>
      </trkpt>
      <trkpt lat="42.337799" lon="1.825902">
        <ele>1359.434</ele>
        <time>2019-06-01T10:19:29Z</time>
      </trkpt>
      <trkpt lat="42.337852" lon="1.825962">
        <ele>1359.268</ele>
        <time>2019-06-01T10:19:30Z</time>
      </trkpt>
      <trkpt lat="42.337967" lon="1.826091">
        <ele>1358.244</ele>
        <time>2019-06-01T10:19:32Z</time>
      </trkpt>
      <trkpt lat="42.338073" lon="1.826225">
        <ele>1356.892</ele>
        <time>2019-06-01T10:19:34Z</time>
      </trkpt>
      <trkpt lat="42.338116" lon="1.826298">
        <ele>1356.616</ele>
        <time>2019-06-01T10:19:35Z</time>
      </trkpt>
      <trkpt lat="42.338194" lon="1.826546">
        <ele>1355.643</ele>
        <time>2019-06-01T10:19:38Z</time>
      </trkpt>
      <trkpt lat="42.338199" lon="1.826638">
        <ele>1355.411</ele>
        <time>2019-06-01T10:19:39Z</time>
      </trkpt>
      <trkpt lat="42.338178" lon="1.826827">
        <ele>1354.282</ele>
        <time>2019-06-01T10:19:41Z</time>
      </trkpt>
      <trkpt lat="42.338159" lon="1.826914">
        <ele>1353.671</ele>
        <time>2019-06-01T10:19:42Z</time>
      </trkpt>
      <trkpt lat="42.338142" lon="1.827004">
        <ele>1353.041</ele>
        <time>2019-06-01T10:19:43Z</time>
      </trkpt>
      <trkpt lat="42.338133" lon="1.827099">
        <ele>1352.815</ele>
        <time>2019-06-01T10:19:44Z</time>
      </trkpt>
      <trkpt lat="42.338134" lon="1.827194">
        <ele>1351.808</ele>
        <time>2019-06-01T10:19:45Z</time>
      </trkpt>
      <trkpt lat="42.338147" lon="1.827386">
        <ele>1350.060</ele>
        <time>2019-06-01T10:19:47Z</time>
      </trkpt>
      <trkpt lat="42.338193" lon="1.827557">
        <ele>1348.874</ele>
        <time>2019-06-01T10:19:49Z</time>
      </trkpt>
      <trkpt lat="42.338260" lon="1.827719">
        <ele>1347.250</ele>
        <time>2019-06-01T10:19:51Z</time>
      </trkpt>
      <trkpt lat="42.338309" lon="1.827902">
        <ele>1346.438</ele>
        <time>2019-06-01T10:19:53Z</time>
      </trkpt>
      <trkpt lat="42.338326" lon="1.827995">
        <ele>1345.812</ele>
        <time>2019-06-01T10:19:54Z</time>
      </trkpt>
      <trkpt lat="42.338334" lon="1.828083">
        <ele>1345.289</ele>
        <time>2019-06-01T10:19:55Z</time>
      </trkpt>
      <trkpt lat="42.338338" lon="1.828169">
        <ele>1344.847</ele>
        <time>2019-06-01T10:19:56Z</time>
      </trkpt>
      <trkpt lat="42.338311" lon="1.828334">
        <ele>1344.818</ele>
        <time>2019-06-01T10:19:58Z</time>
      </trkpt>
      <trkpt lat="42.338174" lon="1.828567">
        <ele>1343.443</ele>
        <time>2019-06-01T10:20:01Z</time>
      </trkpt>
      <trkpt lat="42.338045" lon="1.828679">
        <ele>1341.464</ele>
        <time>2019-06-01T10:20:03Z</time>
      </trkpt>
      <trkpt lat="42.337925" lon="1.828797">
        <ele>1339.810</ele>
        <time>2019-06-01T10:20:05Z</time>
      </trkpt>
      <trkpt lat="42.337819" lon="1.828921">
        <ele>1338.408</ele>
        <time>2019-06-01T10:20:07Z</time>
      </trkpt>
      <trkpt lat="42.337736" lon="1.829038">
        <ele>1337.297</ele>
        <time>2019-06-01T10:20:09Z</time>
      </trkpt>
      <trkpt lat="42.337700" lon="1.829091">
        <ele>1337.251</ele>
        <time>2019-06-01T10:20:10Z</time>
      </trkpt>
      <trkpt lat="42.337672" lon="1.829138">
        <ele>1336.877</ele>
        <time>2019-06-01T10:20:11Z</time>
      </trkpt>
      <trkpt lat="42.337661" lon="1.829234">
        <ele>1336.445</ele>
        <time>2019-06-01T10:20:13Z</time>
      </trkpt>
      <trkpt lat="42.337674" lon="1.829282">
        <ele>1335.849</ele>
        <time>2019-06-01T10:20:14Z</time>
      </trkpt>
      <trkpt lat="42.337732" lon="1.829358">
        <ele>1334.656</ele>
        <time>2019-06-01T10:20:16Z</time>
      </trkpt>
      <trkpt lat="42.337834" lon="1.829326">
        <ele>1333.044</ele>
        <time>2019-06-01T10:20:19Z</time>
      </trkpt>
      <trkpt lat="42.337921" lon="1.829240">
        <ele>1332.015</ele>
        <time>2019-06-01T10:20:21Z</time>
      </trkpt>
      <trkpt lat="42.337970" lon="1.829179">
        <ele>1331.442</ele>
        <time>2019-06-01T10:20:22Z</time>
      </trkpt>
      <trkpt lat="42.338095" lon="1.829071">
        <ele>1331.222</ele>
        <time>2019-06-01T10:20:25Z</time>
      </trkpt>
      <trkpt lat="42.338139" lon="1.829040">
        <ele>1330.814</ele>
        <time>2019-06-01T10:20:26Z</time>
      </trkpt>
      <trkpt lat="42.338184" lon="1.829014">
        <ele>1330.008</ele>
        <time>2019-06-01T10:20:27Z</time>
      </trkpt>
      <trkpt lat="42.338232" lon="1.828981">
        <ele>1329.427</ele>
        <time>2019-06-01T10:20:28Z</time>
      </trkpt>
      <trkpt lat="42.338447" lon="1.828820">
        <ele>1328.211</ele>
        <time>2019-06-01T10:20:32Z</time>
      </trkpt>
      <trkpt lat="42.338498" lon="1.828762">
        <ele>1327.687</ele>
        <time>2019-06-01T10:20:33Z</time>
      </trkpt>
      <trkpt lat="42.338609" lon="1.828547">
        <ele>1327.235</ele>
        <time>2019-06-01T10:20:36Z</time>
      </trkpt>
      <trkpt lat="42.338626" lon="1.828466">
        <ele>1327.299</ele>
        <time>2019-06-01T10:20:37Z</time>
      </trkpt>
      <trkpt lat="42.338643" lon="1.828388">
        <ele>1326.826</ele>
        <time>2019-06-01T10:20:38Z</time>
      </trkpt>
      <trkpt lat="42.338673" lon="1.828241">
        <ele>1326.274</ele>
        <time>2019-06-01T10:20:40Z</time>
      </trkpt>
      <trkpt lat="42.338688" lon="1.828108">
        <ele>1326.845</ele>
        <time>2019-06-01T10:20:42Z</time>
      </trkpt>
      <trkpt lat="42.338703" lon="1.827910">
        <ele>1326.014</ele>
        <time>2019-06-01T10:20:45Z</time>
      </trkpt>
      <trkpt lat="42.338724" lon="1.827606">
        <ele>1324.854</ele>
        <time>2019-06-01T10:20:49Z</time>
      </trkpt>
      <trkpt lat="42.338748" lon="1.827452">
        <ele>1324.209</ele>
        <time>2019-06-01T10:20:51Z</time>
      </trkpt>
      <trkpt lat="42.338768" lon="1.827367">
        <ele>1323.808</ele>
        <time>2019-06-01T10:20:52Z</time>
      </trkpt>
      <trkpt lat="42.338807" lon="1.827205">
        <ele>1322.634</ele>
        <time>2019-06-01T10:20:54Z</time>
      </trkpt>
      <trkpt lat="42.338856" lon="1.827051">
        <ele>1321.668</ele>
        <time>2019-06-01T10:20:56Z</time>
      </trkpt>
      <trkpt lat="42.338913" lon="1.826897">
        <ele>1320.274</ele>
        <time>2019-06-01T10:20:58Z</time>
      </trkpt>
      <trkpt lat="42.338948" lon="1.826826">
        <ele>1319.852</ele>
        <time>2019-06-01T10:20:59Z</time>
      </trkpt>
      <trkpt lat="42.338975" lon="1.826761">
        <ele>1320.026</ele>
        <time>2019-06-01T10:21:00Z</time>
      </trkpt>
      <trkpt lat="42.339011" lon="1.826497">
        <ele>1319.873</ele>
        <time>2019-06-01T10:21:04Z</time>
      </trkpt>
      <trkpt lat="42.338982" lon="1.826373">
        <ele>1319.241</ele>
        <time>2019-06-01T10:21:06Z</time>
      </trkpt>
      <trkpt lat="42.338943" lon="1.826238">
        <ele>1318.452</ele>
        <time>2019-06-01T10:21:08Z</time>
      </trkpt>
      <trkpt lat="42.338922" lon="1.826175">
        <ele>1318.067</ele>
        <time>2019-06-01T10:21:09Z</time>
      </trkpt>
      <trkpt lat="42.338907" lon="1.826114">
        <ele>1317.481</ele>
        <time>2019-06-01T10:21:10Z</time>
      </trkpt>
      <trkpt lat="42.338884" lon="1.825996">
        <ele>1317.019</ele>
        <time>2019-06-01T10:21:12Z</time>
      </trkpt>
      <trkpt lat="42.338871" lon="1.825946">
        <ele>1316.608</ele>
        <time>2019-06-01T10:21:13Z</time>
      </trkpt>
      <trkpt lat="42.338875" lon="1.825847">
        <ele>1315.859</ele>
        <time>2019-06-01T10:21:15Z</time>
      </trkpt>
      <trkpt lat="42.338915" lon="1.825769">
        <ele>1315.423</ele>
        <time>2019-06-01T10:21:17Z</time>
      </trkpt>
      <trkpt lat="42.339022" lon="1.825760">
        <ele>1315.019</ele>
        <time>2019-06-01T10:21:20Z</time>
      </trkpt>
      <trkpt lat="42.339056" lon="1.825783">
        <ele>1314.257</ele>
        <time>2019-06-01T10:21:21Z</time>
      </trkpt>
      <trkpt lat="42.339109" lon="1.825878">
        <ele>1312.851</ele>
        <time>2019-06-01T10:21:23Z</time>
      </trkpt>
      <trkpt lat="42.339206" lon="1.826049">
        <ele>1311.268</ele>
        <time>2019-06-01T10:21:26Z</time>
      </trkpt>
      <trkpt lat="42.339239" lon="1.826117">
        <ele>1310.446</ele>
        <time>2019-06-01T10:21:27Z</time>
      </trkpt>
      <trkpt lat="42.339277" lon="1.826186">
        <ele>1309.827</ele>
        <time>2019-06-01T10:21:28Z</time>
      </trkpt>
      <trkpt lat="42.339415" lon="1.826464">
        <ele>1308.822</ele>
        <time>2019-06-01T10:21:32Z</time>
      </trkpt>
      <trkpt lat="42.339444" lon="1.826533">
        <ele>1308.662</ele>
        <time>2019-06-01T10:21:33Z</time>
      </trkpt>
      <trkpt lat="42.339541" lon="1.826787">
        <ele>1307.808</ele>
        <time>2019-06-01T10:21:37Z</time>
      </trkpt>
      <trkpt lat="42.339560" lon="1.826914">
        <ele>1307.608</ele>
        <time>2019-06-01T10:21:39Z</time>
      </trkpt>
      <trkpt lat="42.339575" lon="1.826973">
        <ele>1307.455</ele>
        <time>2019-06-01T10:21:40Z</time>
      </trkpt>
      <trkpt lat="42.339633" lon="1.827070">
        <ele>1307.479</ele>
        <time>2019-06-01T10:21:42Z</time>
      </trkpt>
      <trkpt lat="42.339711" lon="1.827135">
        <ele>1306.425</ele>
        <time>2019-06-01T10:21:44Z</time>
      </trkpt>
      <trkpt lat="42.339755" lon="1.827158">
        <ele>1305.293</ele>
        <time>2019-06-01T10:21:45Z</time>
      </trkpt>
      <trkpt lat="42.339801" lon="1.827174">
        <ele>1303.837</ele>
        <time>2019-06-01T10:21:46Z</time>
      </trkpt>
      <trkpt lat="42.339900" lon="1.827180">
        <ele>1302.634</ele>
        <time>2019-06-01T10:21:48Z</time>
      </trkpt>
      <trkpt lat="42.339957" lon="1.827176">
        <ele>1301.412</ele>
        <time>2019-06-01T10:21:49Z</time>
      </trkpt>
      <trkpt lat="42.340015" lon="1.827158">
        <ele>1300.613</ele>
        <time>2019-06-01T10:21:50Z</time>
      </trkpt>
      <trkpt lat="42.340077" lon="1.827140">
        <ele>1300.478</ele>
        <time>2019-06-01T10:21:51Z</time>
      </trkpt>
      <trkpt lat="42.340206" lon="1.827094">
        <ele>1298.833</ele>
        <time>2019-06-01T10:21:53Z</time>
      </trkpt>
      <trkpt lat="42.340328" lon="1.827031">
        <ele>1297.626</ele>
        <time>2019-06-01T10:21:55Z</time>
      </trkpt>
      <trkpt lat="42.340428" lon="1.826963">
        <ele>1296.408</ele>
        <time>2019-06-01T10:21:57Z</time>
      </trkpt>
      <trkpt lat="42.340510" lon="1.826893">
        <ele>1295.440</ele>
        <time>2019-06-01T10:21:59Z</time>
      </trkpt>
      <trkpt lat="42.340545" lon="1.826850">
        <ele>1295.274</ele>
        <time>2019-06-01T10:22:00Z</time>
      </trkpt>
      <trkpt lat="42.340589" lon="1.826696">
        <ele>1294.860</ele>
        <time>2019-06-01T10:22:03Z</time>
      </trkpt>
      <trkpt lat="42.340570" lon="1.826645">
        <ele>1294.458</ele>
        <time>2019-06-01T10:22:04Z</time>
      </trkpt>
      <trkpt lat="42.340499" lon="1.826573">
        <ele>1293.642</ele>
        <time>2019-06-01T10:22:06Z</time>
      </trkpt>
      <trkpt lat="42.340408" lon="1.826511">
        <ele>1293.099</ele>
        <time>2019-06-01T10:22:08Z</time>
      </trkpt>
      <trkpt lat="42.340295" lon="1.826463">
        <ele>1290.897</ele>
        <time>2019-06-01T10:22:10Z</time>
      </trkpt>
      <trkpt lat="42.340235" lon="1.826424">
        <ele>1290.268</ele>
        <time>2019-06-01T10:22:11Z</time>
      </trkpt>
      <trkpt lat="42.340179" lon="1.826376">
        <ele>1289.033</ele>
        <time>2019-06-01T10:22:12Z</time>
      </trkpt>
      <trkpt lat="42.340128" lon="1.826322">
        <ele>1288.623</ele>
        <time>2019-06-01T10:22:13Z</time>
      </trkpt>
      <trkpt lat="42.340082" lon="1.826263">
        <ele>1287.815</ele>
        <time>2019-06-01T10:22:14Z</time>
      </trkpt>
      <trkpt lat="42.340038" lon="1.826203">
        <ele>1287.208</ele>
        <time>2019-06-01T10:22:15Z</time>
      </trkpt>
      <trkpt lat="42.340000" lon="1.826141">
        <ele>1286.286</ele>
        <time>2019-06-01T10:22:16Z</time>
      </trkpt>
      <trkpt lat="42.339987" lon="1.826065">
        <ele>1285.470</ele>
        <time>2019-06-01T10:22:17Z</time>
      </trkpt>
      <trkpt lat="42.339996" lon="1.825819">
        <ele>1285.616</ele>
        <time>2019-06-01T10:22:20Z</time>
      </trkpt>
      <trkpt lat="42.340004" lon="1.825737">
        <ele>1285.444</ele>
        <time>2019-06-01T10:22:21Z</time>
      </trkpt>
      <trkpt lat="42.340014" lon="1.825660">
        <ele>1285.048</ele>
        <time>2019-06-01T10:22:22Z</time>
      </trkpt>
      <trkpt lat="42.340017" lon="1.825579">
        <ele>1284.865</ele>
        <time>2019-06-01T10:22:23Z</time>
      </trkpt>
      <trkpt lat="42.340009" lon="1.825430">
        <ele>1284.043</ele>
        <time>2019-06-01T10:22:25Z</time>
      </trkpt>
      <trkpt lat="42.339927" lon="1.825224">
        <ele>1283.434</ele>
        <time>2019-06-01T10:22:28Z</time>
      </trkpt>
      <trkpt lat="42.339878" lon="1.825157">
        <ele>1282.414</ele>
        <time>2019-06-01T10:22:29Z</time>
      </trkpt>
      <trkpt lat="42.339827" lon="1.825080">
        <ele>1281.854</ele>
        <time>2019-06-01T10:22:30Z</time>
      </trkpt>
      <trkpt lat="42.339775" lon="1.825003">
        <ele>1280.609</ele>
        <time>2019-06-01T10:22:31Z</time>
      </trkpt>
      <trkpt lat="42.339728" lon="1.824930">
        <ele>1279.608</ele>
        <time>2019-06-01T10:22:32Z</time>
      </trkpt>
      <trkpt lat="42.339680" lon="1.824862">
        <ele>1279.084</ele>
        <time>2019-06-01T10:22:33Z</time>
      </trkpt>
      <trkpt lat="42.339629" lon="1.824801">
        <ele>1277.868</ele>
        <time>2019-06-01T10:22:34Z</time>
      </trkpt>
      <trkpt lat="42.339573" lon="1.824748">
        <ele>1277.224</ele>
        <time>2019-06-01T10:22:35Z</time>
      </trkpt>
      <trkpt lat="42.339518" lon="1.824707">
        <ele>1276.642</ele>
        <time>2019-06-01T10:22:36Z</time>
      </trkpt>
      <trkpt lat="42.339463" lon="1.824665">
        <ele>1276.476</ele>
        <time>2019-06-01T10:22:37Z</time>
      </trkpt>
      <trkpt lat="42.339353" lon="1.824596">
        <ele>1276.483</ele>
        <time>2019-06-01T10:22:39Z</time>
      </trkpt>
      <trkpt lat="42.339234" lon="1.824532">
        <ele>1275.241</ele>
        <time>2019-06-01T10:22:41Z</time>
      </trkpt>
      <trkpt lat="42.339180" lon="1.824496">
        <ele>1275.032</ele>
        <time>2019-06-01T10:22:42Z</time>
      </trkpt>
      <trkpt lat="42.339090" lon="1.824427">
        <ele>1274.623</ele>
        <time>2019-06-01T10:22:44Z</time>
      </trkpt>
      <trkpt lat="42.339061" lon="1.824375">
        <ele>1274.083</ele>
        <time>2019-06-01T10:22:45Z</time>
      </trkpt>
      <trkpt lat="42.339046" lon="1.824307">
        <ele>1273.611</ele>
        <time>2019-06-01T10:22:46Z</time>
      </trkpt>
      <trkpt lat="42.339053" lon="1.824155">
        <ele>1272.808</ele>
        <time>2019-06-01T10:22:48Z</time>
      </trkpt>
      <trkpt lat="42.339074" lon="1.824077">
        <ele>1272.285</ele>
        <time>2019-06-01T10:22:49Z</time>
      </trkpt>
      <trkpt lat="42.339096" lon="1.823999">
        <ele>1271.629</ele>
        <time>2019-06-01T10:22:50Z</time>
      </trkpt>
      <trkpt lat="42.339133" lon="1.823839">
        <ele>1270.285</ele>
        <time>2019-06-01T10:22:52Z</time>
      </trkpt>
      <trkpt lat="42.339190" lon="1.823588">
        <ele>1269.043</ele>
        <time>2019-06-01T10:22:55Z</time>
      </trkpt>
      <trkpt lat="42.339228" lon="1.823413">
        <ele>1268.057</ele>
        <time>2019-06-01T10:22:57Z</time>
      </trkpt>
      <trkpt lat="42.339248" lon="1.823324">
        <ele>1266.294</ele>
        <time>2019-06-01T10:22:58Z</time>
      </trkpt>
      <trkpt lat="42.339280" lon="1.823148">
        <ele>1264.632</ele>
        <time>2019-06-01T10:23:01Z</time>
      </trkpt>
      <trkpt lat="42.339328" lon="1.822794">
        <ele>1262.883</ele>
        <time>2019-06-01T10:23:05Z</time>
      </trkpt>
      <trkpt lat="42.339337" lon="1.822627">
        <ele>1261.486</ele>
        <time>2019-06-01T10:23:07Z</time>
      </trkpt>
      <trkpt lat="42.339359" lon="1.822314">
        <ele>1259.860</ele>
        <time>2019-06-01T10:23:11Z</time>
      </trkpt>
      <trkpt lat="42.339309" lon="1.822118">
        <ele>1258.226</ele>
        <time>2019-06-01T10:23:14Z</time>
      </trkpt>
      <trkpt lat="42.339276" lon="1.822071">
        <ele>1257.608</ele>
        <time>2019-06-01T10:23:15Z</time>
      </trkpt>
      <trkpt lat="42.339235" lon="1.822031">
        <ele>1257.091</ele>
        <time>2019-06-01T10:23:16Z</time>
      </trkpt>
      <trkpt lat="42.339140" lon="1.821976">
        <ele>1256.685</ele>
        <time>2019-06-01T10:23:18Z</time>
      </trkpt>
      <trkpt lat="42.339086" lon="1.821952">
        <ele>1256.471</ele>
        <time>2019-06-01T10:23:19Z</time>
      </trkpt>
      <trkpt lat="42.339032" lon="1.821925">
        <ele>1255.819</ele>
        <time>2019-06-01T10:23:20Z</time>
      </trkpt>
      <trkpt lat="42.338901" lon="1.821860">
        <ele>1254.413</ele>
        <time>2019-06-01T10:23:22Z</time>
      </trkpt>
      <trkpt lat="42.338837" lon="1.821820">
        <ele>1252.430</ele>
        <time>2019-06-01T10:23:23Z</time>
      </trkpt>
      <trkpt lat="42.338708" lon="1.821734">
        <ele>1251.248</ele>
        <time>2019-06-01T10:23:25Z</time>
      </trkpt>
      <trkpt lat="42.338531" lon="1.821577">
        <ele>1249.039</ele>
        <time>2019-06-01T10:23:28Z</time>
      </trkpt>
      <trkpt lat="42.338424" lon="1.821476">
        <ele>1247.634</ele>
        <time>2019-06-01T10:23:30Z</time>
      </trkpt>
      <trkpt lat="42.338283" lon="1.821307">
        <ele>1247.055</ele>
        <time>2019-06-01T10:23:33Z</time>
      </trkpt>
      <trkpt lat="42.338197" lon="1.821207">
        <ele>1246.210</ele>
        <time>2019-06-01T10:23:35Z</time>
      </trkpt>
      <trkpt lat="42.338164" lon="1.821162">
        <ele>1245.608</ele>
        <time>2019-06-01T10:23:36Z</time>
      </trkpt>
      <trkpt lat="42.338140" lon="1.821111">
        <ele>1245.076</ele>
        <time>2019-06-01T10:23:37Z</time>
      </trkpt>
      <trkpt lat="42.338124" lon="1.821056">
        <ele>1244.230</ele>
        <time>2019-06-01T10:23:38Z</time>
      </trkpt>
      <trkpt lat="42.338122" lon="1.821003">
        <ele>1243.676</ele>
        <time>2019-06-01T10:23:39Z</time>
      </trkpt>
      <trkpt lat="42.338153" lon="1.820915">
        <ele>1242.664</ele>
        <time>2019-06-01T10:23:41Z</time>
      </trkpt>
      <trkpt lat="42.338182" lon="1.820884">
        <ele>1242.088</ele>
        <time>2019-06-01T10:23:42Z</time>
      </trkpt>
      <trkpt lat="42.338254" lon="1.820887">
        <ele>1241.275</ele>
        <time>2019-06-01T10:23:44Z</time>
      </trkpt>
      <trkpt lat="42.338292" lon="1.820916">
        <ele>1241.033</ele>
        <time>2019-06-01T10:23:45Z</time>
      </trkpt>
      <trkpt lat="42.338362" lon="1.820988">
        <ele>1238.894</ele>
        <time>2019-06-01T10:23:47Z</time>
      </trkpt>
      <trkpt lat="42.338396" lon="1.821026">
        <ele>1238.635</ele>
        <time>2019-06-01T10:23:48Z</time>
      </trkpt>
      <trkpt lat="42.338464" lon="1.821114">
        <ele>1237.486</ele>
        <time>2019-06-01T10:23:50Z</time>
      </trkpt>
      <trkpt lat="42.338501" lon="1.821153">
        <ele>1237.014</ele>
        <time>2019-06-01T10:23:51Z</time>
      </trkpt>
      <trkpt lat="42.338576" lon="1.821234">
        <ele>1236.208</ele>
        <time>2019-06-01T10:23:53Z</time>
      </trkpt>
      <trkpt lat="42.338616" lon="1.821272">
        <ele>1235.646</ele>
        <time>2019-06-01T10:23:54Z</time>
      </trkpt>
      <trkpt lat="42.338658" lon="1.821303">
        <ele>1235.080</ele>
        <time>2019-06-01T10:23:55Z</time>
      </trkpt>
      <trkpt lat="42.338752" lon="1.821357">
        <ele>1233.896</ele>
        <time>2019-06-01T10:23:57Z</time>
      </trkpt>
      <trkpt lat="42.338801" lon="1.821374">
        <ele>1233.414</ele>
        <time>2019-06-01T10:23:58Z</time>
      </trkpt>
      <trkpt lat="42.338852" lon="1.821385">
        <ele>1232.878</ele>
        <time>2019-06-01T10:23:59Z</time>
      </trkpt>
      <trkpt lat="42.338999" lon="1.821374">
        <ele>1231.655</ele>
        <time>2019-06-01T10:24:02Z</time>
      </trkpt>
      <trkpt lat="42.339051" lon="1.821364">
        <ele>1230.873</ele>
        <time>2019-06-01T10:24:03Z</time>
      </trkpt>
      <trkpt lat="42.339101" lon="1.821355">
        <ele>1230.034</ele>
        <time>2019-06-01T10:24:04Z</time>
      </trkpt>
      <trkpt lat="42.339202" lon="1.821349">
        <ele>1228.689</ele>
        <time>2019-06-01T10:24:06Z</time>
      </trkpt>
      <trkpt lat="42.339358" lon="1.821336">
        <ele>1227.406</ele>
        <time>2019-06-01T10:24:09Z</time>
      </trkpt>
      <trkpt lat="42.339413" lon="1.821332">
        <ele>1226.826</ele>
        <time>2019-06-01T10:24:10Z</time>
      </trkpt>
      <trkpt lat="42.339463" lon="1.821323">
        <ele>1225.608</ele>
        <time>2019-06-01T10:24:11Z</time>
      </trkpt>
      <trkpt lat="42.339559" lon="1.821293">
        <ele>1224.041</ele>
        <time>2019-06-01T10:24:13Z</time>
      </trkpt>
      <trkpt lat="42.339648" lon="1.821234">
        <ele>1222.895</ele>
        <time>2019-06-01T10:24:15Z</time>
      </trkpt>
      <trkpt lat="42.339777" lon="1.821137">
        <ele>1221.651</ele>
        <time>2019-06-01T10:24:18Z</time>
      </trkpt>
      <trkpt lat="42.339871" lon="1.821072">
        <ele>1221.449</ele>
        <time>2019-06-01T10:24:21Z</time>
      </trkpt>
      <trkpt lat="42.339956" lon="1.821030">
        <ele>1220.493</ele>
        <time>2019-06-01T10:24:24Z</time>
      </trkpt>
      <trkpt lat="42.340047" lon="1.821021">
        <ele>1219.630</ele>
        <time>2019-06-01T10:24:27Z</time>
      </trkpt>
      <trkpt lat="42.340081" lon="1.821027">
        <ele>1219.088</ele>
        <time>2019-06-01T10:24:28Z</time>
      </trkpt>
      <trkpt lat="42.340157" lon="1.821050">
        <ele>1217.819</ele>
        <time>2019-06-01T10:24:30Z</time>
      </trkpt>
      <trkpt lat="42.340236" lon="1.821100">
        <ele>1217.047</ele>
        <time>2019-06-01T10:24:32Z</time>
      </trkpt>
      <trkpt lat="42.340273" lon="1.821134">
        <ele>1216.629</ele>
        <time>2019-06-01T10:24:33Z</time>
      </trkpt>
      <trkpt lat="42.340345" lon="1.821207">
        <ele>1214.621</ele>
        <time>2019-06-01T10:24:35Z</time>
      </trkpt>
      <trkpt lat="42.340422" lon="1.821280">
        <ele>1214.008</ele>
        <time>2019-06-01T10:24:37Z</time>
      </trkpt>
      <trkpt lat="42.340460" lon="1.821318">
        <ele>1213.647</ele>
        <time>2019-06-01T10:24:38Z</time>
      </trkpt>
      <trkpt lat="42.340565" lon="1.821461">
        <ele>1211.831</ele>
        <time>2019-06-01T10:24:41Z</time>
      </trkpt>
      <trkpt lat="42.340613" lon="1.821596">
        <ele>1210.677</ele>
        <time>2019-06-01T10:24:43Z</time>
      </trkpt>
      <trkpt lat="42.340642" lon="1.821735">
        <ele>1209.425</ele>
        <time>2019-06-01T10:24:45Z</time>
      </trkpt>
      <trkpt lat="42.340650" lon="1.821932">
        <ele>1207.889</ele>
        <time>2019-06-01T10:24:48Z</time>
      </trkpt>
      <trkpt lat="42.340623" lon="1.822061">
        <ele>1207.456</ele>
        <time>2019-06-01T10:24:50Z</time>
      </trkpt>
      <trkpt lat="42.340588" lon="1.822190">
        <ele>1207.064</ele>
        <time>2019-06-01T10:24:52Z</time>
      </trkpt>
      <trkpt lat="42.340565" lon="1.822253">
        <ele>1206.675</ele>
        <time>2019-06-01T10:24:53Z</time>
      </trkpt>
      <trkpt lat="42.340496" lon="1.822440">
        <ele>1205.496</ele>
        <time>2019-06-01T10:24:56Z</time>
      </trkpt>
      <trkpt lat="42.340452" lon="1.822558">
        <ele>1204.031</ele>
        <time>2019-06-01T10:24:58Z</time>
      </trkpt>
      <trkpt lat="42.340428" lon="1.822662">
        <ele>1202.824</ele>
        <time>2019-06-01T10:25:00Z</time>
      </trkpt>
      <trkpt lat="42.340436" lon="1.822709">
        <ele>1202.408</ele>
        <time>2019-06-01T10:25:01Z</time>
      </trkpt>
      <trkpt lat="42.340492" lon="1.822767">
        <ele>1201.652</ele>
        <time>2019-06-01T10:25:03Z</time>
      </trkpt>
      <trkpt lat="42.340558" lon="1.822745">
        <ele>1200.226</ele>
        <time>2019-06-01T10:25:05Z</time>
      </trkpt>
      <trkpt lat="42.340594" lon="1.822711">
        <ele>1200.032</ele>
        <time>2019-06-01T10:25:06Z</time>
      </trkpt>
      <trkpt lat="42.340668" lon="1.822613">
        <ele>1199.220</ele>
        <time>2019-06-01T10:25:08Z</time>
      </trkpt>
      <trkpt lat="42.340730" lon="1.822516">
        <ele>1197.444</ele>
        <time>2019-06-01T10:25:10Z</time>
      </trkpt>
      <trkpt lat="42.340767" lon="1.822470">
        <ele>1196.691</ele>
        <time>2019-06-01T10:25:11Z</time>
      </trkpt>
      <trkpt lat="42.340809" lon="1.822430">
        <ele>1196.259</ele>
        <time>2019-06-01T10:25:12Z</time>
      </trkpt>
      <trkpt lat="42.340900" lon="1.822366">
        <ele>1195.080</ele>
        <time>2019-06-01T10:25:14Z</time>
      </trkpt>
      <trkpt lat="42.340950" lon="1.822341">
        <ele>1194.081</ele>
        <time>2019-06-01T10:25:15Z</time>
      </trkpt>
      <trkpt lat="42.340998" lon="1.822314">
        <ele>1192.861</ele>
        <time>2019-06-01T10:25:16Z</time>
      </trkpt>
      <trkpt lat="42.341135" lon="1.822230">
        <ele>1191.617</ele>
        <time>2019-06-01T10:25:19Z</time>
      </trkpt>
      <trkpt lat="42.341224" lon="1.822170">
        <ele>1190.208</ele>
        <time>2019-06-01T10:25:21Z</time>
      </trkpt>
      <trkpt lat="42.341308" lon="1.822105">
        <ele>1189.441</ele>
        <time>2019-06-01T10:25:23Z</time>
      </trkpt>
      <trkpt lat="42.341351" lon="1.822068">
        <ele>1188.475</ele>
        <time>2019-06-01T10:25:24Z</time>
      </trkpt>
      <trkpt lat="42.341442" lon="1.821995">
        <ele>1186.441</ele>
        <time>2019-06-01T10:25:26Z</time>
      </trkpt>
      <trkpt lat="42.341585" lon="1.821902">
        <ele>1184.639</ele>
        <time>2019-06-01T10:25:29Z</time>
      </trkpt>
      <trkpt lat="42.341682" lon="1.821866">
        <ele>1183.843</ele>
        <time>2019-06-01T10:25:31Z</time>
      </trkpt>
      <trkpt lat="42.341732" lon="1.821855">
        <ele>1183.650</ele>
        <time>2019-06-01T10:25:32Z</time>
      </trkpt>
      <trkpt lat="42.341830" lon="1.821844">
        <ele>1182.628</ele>
        <time>2019-06-01T10:25:34Z</time>
      </trkpt>
      <trkpt lat="42.341954" lon="1.821827">
        <ele>1181.469</ele>
        <time>2019-06-01T10:25:37Z</time>
      </trkpt>
      <trkpt lat="42.342034" lon="1.821767">
        <ele>1180.696</ele>
        <time>2019-06-01T10:25:39Z</time>
      </trkpt>
      <trkpt lat="42.342070" lon="1.821725">
        <ele>1180.231</ele>
        <time>2019-06-01T10:25:40Z</time>
      </trkpt>
      <trkpt lat="42.342141" lon="1.821577">
        <ele>1179.024</ele>
        <time>2019-06-01T10:25:43Z</time>
      </trkpt>
      <trkpt lat="42.342110" lon="1.821381">
        <ele>1177.608</ele>
        <time>2019-06-01T10:25:47Z</time>
      </trkpt>
      <trkpt lat="42.341988" lon="1.821315">
        <ele>1176.662</ele>
        <time>2019-06-01T10:25:50Z</time>
      </trkpt>
      <trkpt lat="42.341887" lon="1.821306">
        <ele>1176.466</ele>
        <time>2019-06-01T10:25:52Z</time>
      </trkpt>
      <trkpt lat="42.341778" lon="1.821310">
        <ele>1176.092</ele>
        <time>2019-06-01T10:25:54Z</time>
      </trkpt>
      <trkpt lat="42.341722" lon="1.821306">
        <ele>1175.650</ele>
        <time>2019-06-01T10:25:55Z</time>
      </trkpt>
      <trkpt lat="42.341670" lon="1.821308">
        <ele>1175.254</ele>
        <time>2019-06-01T10:25:56Z</time>
      </trkpt>
      <trkpt lat="42.341623" lon="1.821317">
        <ele>1175.241</ele>
        <time>2019-06-01T10:25:57Z</time>
      </trkpt>
      <trkpt lat="42.341474" lon="1.821332">
        <ele>1174.479</ele>
        <time>2019-06-01T10:26:00Z</time>
      </trkpt>
      <trkpt lat="42.341376" lon="1.821332">
        <ele>1173.880</ele>
        <time>2019-06-01T10:26:02Z</time>
      </trkpt>
      <trkpt lat="42.341246" lon="1.821277">
        <ele>1173.243</ele>
        <time>2019-06-01T10:26:05Z</time>
      </trkpt>
      <trkpt lat="42.341202" lon="1.821186">
        <ele>1172.664</ele>
        <time>2019-06-01T10:26:07Z</time>
      </trkpt>
      <trkpt lat="42.341196" lon="1.821131">
        <ele>1172.210</ele>
        <time>2019-06-01T10:26:08Z</time>
      </trkpt>
      <trkpt lat="42.341198" lon="1.821076">
        <ele>1171.408</ele>
        <time>2019-06-01T10:26:09Z</time>
      </trkpt>
      <trkpt lat="42.341246" lon="1.820979">
        <ele>1171.277</ele>
        <time>2019-06-01T10:26:11Z</time>
      </trkpt>
      <trkpt lat="42.341334" lon="1.820930">
        <ele>1169.841</ele>
        <time>2019-06-01T10:26:13Z</time>
      </trkpt>
      <trkpt lat="42.341378" lon="1.820902">
        <ele>1169.227</ele>
        <time>2019-06-01T10:26:14Z</time>
      </trkpt>
      <trkpt lat="42.341421" lon="1.820878">
        <ele>1168.455</ele>
        <time>2019-06-01T10:26:15Z</time>
      </trkpt>
      <trkpt lat="42.341514" lon="1.820840">
        <ele>1167.459</ele>
        <time>2019-06-01T10:26:17Z</time>
      </trkpt>
      <trkpt lat="42.341608" lon="1.820796">
        <ele>1166.066</ele>
        <time>2019-06-01T10:26:19Z</time>
      </trkpt>
      <trkpt lat="42.341657" lon="1.820784">
        <ele>1165.264</ele>
        <time>2019-06-01T10:26:20Z</time>
      </trkpt>
      <trkpt lat="42.341703" lon="1.820768">
        <ele>1164.425</ele>
        <time>2019-06-01T10:26:21Z</time>
      </trkpt>
      <trkpt lat="42.341792" lon="1.820751">
        <ele>1163.681</ele>
        <time>2019-06-01T10:26:23Z</time>
      </trkpt>
      <trkpt lat="42.341879" lon="1.820751">
        <ele>1163.061</ele>
        <time>2019-06-01T10:26:25Z</time>
      </trkpt>
      <trkpt lat="42.341923" lon="1.820757">
        <ele>1163.017</ele>
        <time>2019-06-01T10:26:26Z</time>
      </trkpt>
      <trkpt lat="42.341969" lon="1.820771">
        <ele>1162.608</ele>
        <time>2019-06-01T10:26:27Z</time>
      </trkpt>
      <trkpt lat="42.342019" lon="1.820782">
        <ele>1162.061</ele>
        <time>2019-06-01T10:26:28Z</time>
      </trkpt>
      <trkpt lat="42.342070" lon="1.820802">
        <ele>1161.425</ele>
        <time>2019-06-01T10:26:29Z</time>
      </trkpt>
      <trkpt lat="42.342121" lon="1.820825">
        <ele>1160.881</ele>
        <time>2019-06-01T10:26:30Z</time>
      </trkpt>
      <trkpt lat="42.342169" lon="1.820850">
        <ele>1160.499</ele>
        <time>2019-06-01T10:26:31Z</time>
      </trkpt>
      <trkpt lat="42.342217" lon="1.820876">
        <ele>1159.423</ele>
        <time>2019-06-01T10:26:32Z</time>
      </trkpt>
      <trkpt lat="42.342340" lon="1.820964">
        <ele>1157.880</ele>
        <time>2019-06-01T10:26:35Z</time>
      </trkpt>
      <trkpt lat="42.342445" lon="1.821058">
        <ele>1156.858</ele>
        <time>2019-06-01T10:26:38Z</time>
      </trkpt>
      <trkpt lat="42.342509" lon="1.821123">
        <ele>1155.849</ele>
        <time>2019-06-01T10:26:40Z</time>
      </trkpt>
      <trkpt lat="42.342579" lon="1.821239">
        <ele>1154.444</ele>
        <time>2019-06-01T10:26:43Z</time>
      </trkpt>
      <trkpt lat="42.342594" lon="1.821285">
        <ele>1154.205</ele>
        <time>2019-06-01T10:26:44Z</time>
      </trkpt>
      <trkpt lat="42.342606" lon="1.821336">
        <ele>1153.415</ele>
        <time>2019-06-01T10:26:45Z</time>
      </trkpt>
      <trkpt lat="42.342630" lon="1.821444">
        <ele>1152.408</ele>
        <time>2019-06-01T10:26:47Z</time>
      </trkpt>
      <trkpt lat="42.342667" lon="1.821601">
        <ele>1151.817</ele>
        <time>2019-06-01T10:26:50Z</time>
      </trkpt>
      <trkpt lat="42.342678" lon="1.821706">
        <ele>1151.081</ele>
        <time>2019-06-01T10:26:52Z</time>
      </trkpt>
      <trkpt lat="42.342678" lon="1.821761">
        <ele>1150.647</ele>
        <time>2019-06-01T10:26:53Z</time>
      </trkpt>
      <trkpt lat="42.342674" lon="1.821818">
        <ele>1149.895</ele>
        <time>2019-06-01T10:26:54Z</time>
      </trkpt>
      <trkpt lat="42.342669" lon="1.821873">
        <ele>1149.619</ele>
        <time>2019-06-01T10:26:55Z</time>
      </trkpt>
      <trkpt lat="42.342651" lon="1.822093">
        <ele>1148.286</ele>
        <time>2019-06-01T10:26:59Z</time>
      </trkpt>
      <trkpt lat="42.342625" lon="1.822234">
        <ele>1147.494</ele>
        <time>2019-06-01T10:27:02Z</time>
      </trkpt>
      <trkpt lat="42.342609" lon="1.822331">
        <ele>1146.675</ele>
        <time>2019-06-01T10:27:04Z</time>
      </trkpt>
      <trkpt lat="42.342553" lon="1.822406">
        <ele>1145.821</ele>
        <time>2019-06-01T10:27:06Z</time>
      </trkpt>
      <trkpt lat="42.342520" lon="1.822443">
        <ele>1145.241</ele>
        <time>2019-06-01T10:27:07Z</time>
      </trkpt>
      <trkpt lat="42.342482" lon="1.822475">
        <ele>1144.805</ele>
        <time>2019-06-01T10:27:08Z</time>
      </trkpt>
      <trkpt lat="42.342398" lon="1.822537">
        <ele>1144.208</ele>
        <time>2019-06-01T10:27:10Z</time>
      </trkpt>
      <trkpt lat="42.342362" lon="1.822570">
        <ele>1143.875</ele>
        <time>2019-06-01T10:27:11Z</time>
      </trkpt>
      <trkpt lat="42.342331" lon="1.822605">
        <ele>1143.669</ele>
        <time>2019-06-01T10:27:12Z</time>
      </trkpt>
      <trkpt lat="42.342283" lon="1.822692">
        <ele>1143.095</ele>
        <time>2019-06-01T10:27:14Z</time>
      </trkpt>
      <trkpt lat="42.342271" lon="1.822744">
        <ele>1142.873</ele>
        <time>2019-06-01T10:27:15Z</time>
      </trkpt>
      <trkpt lat="42.342290" lon="1.822904">
        <ele>1141.637</ele>
        <time>2019-06-01T10:27:18Z</time>
      </trkpt>
      <trkpt lat="42.342314" lon="1.822951">
        <ele>1141.244</ele>
        <time>2019-06-01T10:27:19Z</time>
      </trkpt>
      <trkpt lat="42.342375" lon="1.823040">
        <ele>1140.482</ele>
        <time>2019-06-01T10:27:21Z</time>
      </trkpt>
      <trkpt lat="42.342435" lon="1.823125">
        <ele>1139.283</ele>
        <time>2019-06-01T10:27:23Z</time>
      </trkpt>
      <trkpt lat="42.342468" lon="1.823168">
        <ele>1138.817</ele>
        <time>2019-06-01T10:27:24Z</time>
      </trkpt>
      <trkpt lat="42.342501" lon="1.823208">
        <ele>1138.287</ele>
        <time>2019-06-01T10:27:25Z</time>
      </trkpt>
      <trkpt lat="42.342566" lon="1.823298">
        <ele>1137.215</ele>
        <time>2019-06-01T10:27:27Z</time>
      </trkpt>
      <trkpt lat="42.342675" lon="1.823426">
        <ele>1135.808</ele>
        <time>2019-06-01T10:27:30Z</time>
      </trkpt>
      <trkpt lat="42.342717" lon="1.823455">
        <ele>1135.234</ele>
        <time>2019-06-01T10:27:31Z</time>
      </trkpt>
      <trkpt lat="42.342783" lon="1.823501">
        <ele>1134.448</ele>
        <time>2019-06-01T10:27:33Z</time>
      </trkpt>
      <trkpt lat="42.342815" lon="1.823521">
        <ele>1135.284</ele>
        <time>2019-06-01T10:27:34Z</time>
      </trkpt>
      <trkpt lat="42.342849" lon="1.823543">
        <ele>1135.652</ele>
        <time>2019-06-01T10:27:35Z</time>
      </trkpt>
      <trkpt lat="42.342881" lon="1.823568">
        <ele>1136.296</ele>
        <time>2019-06-01T10:27:36Z</time>
      </trkpt>
      <trkpt lat="42.342913" lon="1.823595">
        <ele>1131.613</ele>
        <time>2019-06-01T10:27:37Z</time>
      </trkpt>
      <trkpt lat="42.342942" lon="1.823624">
        <ele>1130.211</ele>
        <time>2019-06-01T10:27:38Z</time>
      </trkpt>
      <trkpt lat="42.342966" lon="1.823659">
        <ele>1128.412</ele>
        <time>2019-06-01T10:27:39Z</time>
      </trkpt>
      <trkpt lat="42.342989" lon="1.823698">
        <ele>1132.045</ele>
        <time>2019-06-01T10:27:40Z</time>
      </trkpt>
      <trkpt lat="42.343026" lon="1.823800">
        <ele>1133.047</ele>
        <time>2019-06-01T10:27:42Z</time>
      </trkpt>
      <trkpt lat="42.343091" lon="1.824020">
        <ele>1130.411</ele>
        <time>2019-06-01T10:27:45Z</time>
      </trkpt>
      <trkpt lat="42.343117" lon="1.824098">
        <ele>1129.808</ele>
        <time>2019-06-01T10:27:46Z</time>
      </trkpt>
      <trkpt lat="42.343147" lon="1.824177">
        <ele>1128.887</ele>
        <time>2019-06-01T10:27:47Z</time>
      </trkpt>
      <trkpt lat="42.343200" lon="1.824366">
        <ele>1127.661</ele>
        <time>2019-06-01T10:27:49Z</time>
      </trkpt>
      <trkpt lat="42.343218" lon="1.824465">
        <ele>1126.827</ele>
        <time>2019-06-01T10:27:50Z</time>
      </trkpt>
      <trkpt lat="42.343230" lon="1.824565">
        <ele>1126.035</ele>
        <time>2019-06-01T10:27:51Z</time>
      </trkpt>
      <trkpt lat="42.343246" lon="1.824777">
        <ele>1124.249</ele>
        <time>2019-06-01T10:27:53Z</time>
      </trkpt>
      <trkpt lat="42.343240" lon="1.824875">
        <ele>1123.616</ele>
        <time>2019-06-01T10:27:54Z</time>
      </trkpt>
      <trkpt lat="42.343225" lon="1.824975">
        <ele>1122.634</ele>
        <time>2019-06-01T10:27:55Z</time>
      </trkpt>
      <trkpt lat="42.343169" lon="1.825184">
        <ele>1121.435</ele>
        <time>2019-06-01T10:27:57Z</time>
      </trkpt>
      <trkpt lat="42.343139" lon="1.825291">
        <ele>1120.614</ele>
        <time>2019-06-01T10:27:58Z</time>
      </trkpt>
      <trkpt lat="42.343122" lon="1.825392">
        <ele>1120.054</ele>
        <time>2019-06-01T10:27:59Z</time>
      </trkpt>
      <trkpt lat="42.343114" lon="1.825613">
        <ele>1118.609</ele>
        <time>2019-06-01T10:28:01Z</time>
      </trkpt>
      <trkpt lat="42.343143" lon="1.825828">
        <ele>1117.608</ele>
        <time>2019-06-01T10:28:03Z</time>
      </trkpt>
      <trkpt lat="42.343155" lon="1.826032">
        <ele>1117.074</ele>
        <time>2019-06-01T10:28:05Z</time>
      </trkpt>
      <trkpt lat="42.343155" lon="1.826140">
        <ele>1116.258</ele>
        <time>2019-06-01T10:28:06Z</time>
      </trkpt>
      <trkpt lat="42.343145" lon="1.826252">
        <ele>1115.244</ele>
        <time>2019-06-01T10:28:07Z</time>
      </trkpt>
      <trkpt lat="42.343126" lon="1.826358">
        <ele>1114.262</ele>
        <time>2019-06-01T10:28:08Z</time>
      </trkpt>
      <trkpt lat="42.343109" lon="1.826469">
        <ele>1113.826</ele>
        <time>2019-06-01T10:28:09Z</time>
      </trkpt>
      <trkpt lat="42.343092" lon="1.826586">
        <ele>1112.883</ele>
        <time>2019-06-01T10:28:10Z</time>
      </trkpt>
      <trkpt lat="42.343082" lon="1.826711">
        <ele>1110.831</ele>
        <time>2019-06-01T10:28:11Z</time>
      </trkpt>
      <trkpt lat="42.343072" lon="1.826842">
        <ele>1109.682</ele>
        <time>2019-06-01T10:28:12Z</time>
      </trkpt>
      <trkpt lat="42.343059" lon="1.827084">
        <ele>1108.466</ele>
        <time>2019-06-01T10:28:14Z</time>
      </trkpt>
      <trkpt lat="42.343064" lon="1.827207">
        <ele>1108.029</ele>
        <time>2019-06-01T10:28:15Z</time>
      </trkpt>
      <trkpt lat="42.343076" lon="1.827319">
        <ele>1107.421</ele>
        <time>2019-06-01T10:28:16Z</time>
      </trkpt>
      <trkpt lat="42.343094" lon="1.827420">
        <ele>1106.808</ele>
        <time>2019-06-01T10:28:17Z</time>
      </trkpt>
      <trkpt lat="42.343113" lon="1.827522">
        <ele>1106.479</ele>
        <time>2019-06-01T10:28:18Z</time>
      </trkpt>
      <trkpt lat="42.343150" lon="1.827720">
        <ele>1105.493</ele>
        <time>2019-06-01T10:28:20Z</time>
      </trkpt>
      <trkpt lat="42.343163" lon="1.827915">
        <ele>1104.819</ele>
        <time>2019-06-01T10:28:22Z</time>
      </trkpt>
      <trkpt lat="42.343138" lon="1.828131">
        <ele>1104.087</ele>
        <time>2019-06-01T10:28:24Z</time>
      </trkpt>
      <trkpt lat="42.343102" lon="1.828343">
        <ele>1103.051</ele>
        <time>2019-06-01T10:28:26Z</time>
      </trkpt>
      <trkpt lat="42.343086" lon="1.828441">
        <ele>1102.678</ele>
        <time>2019-06-01T10:28:27Z</time>
      </trkpt>
      <trkpt lat="42.343081" lon="1.828539">
        <ele>1102.226</ele>
        <time>2019-06-01T10:28:28Z</time>
      </trkpt>
      <trkpt lat="42.343108" lon="1.828712">
        <ele>1102.017</ele>
        <time>2019-06-01T10:28:30Z</time>
      </trkpt>
      <trkpt lat="42.343158" lon="1.828868">
        <ele>1101.878</ele>
        <time>2019-06-01T10:28:32Z</time>
      </trkpt>
      <trkpt lat="42.343189" lon="1.829018">
        <ele>1102.233</ele>
        <time>2019-06-01T10:28:34Z</time>
      </trkpt>
      <trkpt lat="42.343200" lon="1.829086">
        <ele>1103.626</ele>
        <time>2019-06-01T10:28:35Z</time>
      </trkpt>
      <trkpt lat="42.343205" lon="1.829153">
        <ele>1104.008</ele>
        <time>2019-06-01T10:28:36Z</time>
      </trkpt>
      <trkpt lat="42.343217" lon="1.829276">
        <ele>1104.870</ele>
        <time>2019-06-01T10:28:38Z</time>
      </trkpt>
      <trkpt lat="42.343219" lon="1.829334">
        <ele>1105.454</ele>
        <time>2019-06-01T10:28:39Z</time>
      </trkpt>
      <trkpt lat="42.343202" lon="1.829489">
        <ele>1106.010</ele>
        <time>2019-06-01T10:28:42Z</time>
      </trkpt>
      <trkpt lat="42.343196" lon="1.829571">
        <ele>1106.858</ele>
        <time>2019-06-01T10:28:44Z</time>
      </trkpt>
      <trkpt lat="42.343185" lon="1.829612">
        <ele>1107.282</ele>
        <time>2019-06-01T10:28:45Z</time>
      </trkpt>
      <trkpt lat="42.343148" lon="1.829711">
        <ele>1107.819</ele>
        <time>2019-06-01T10:28:48Z</time>
      </trkpt>
      <trkpt lat="42.343136" lon="1.829744">
        <ele>1108.217</ele>
        <time>2019-06-01T10:28:49Z</time>
      </trkpt>
      <trkpt lat="42.343102" lon="1.829832">
        <ele>1108.888</ele>
        <time>2019-06-01T10:28:52Z</time>
      </trkpt>
      <trkpt lat="42.343091" lon="1.829861">
        <ele>1109.043</ele>
        <time>2019-06-01T10:28:53Z</time>
      </trkpt>
      <trkpt lat="42.343061" lon="1.829921">
        <ele>1109.464</ele>
        <time>2019-06-01T10:28:55Z</time>
      </trkpt>
      <trkpt lat="42.343035" lon="1.829974">
        <ele>1110.010</ele>
        <time>2019-06-01T10:28:57Z</time>
      </trkpt>
      <trkpt lat="42.343021" lon="1.830003">
        <ele>1110.208</ele>
        <time>2019-06-01T10:28:58Z</time>
      </trkpt>
      <trkpt lat="42.343009" lon="1.830026">
        <ele>1110.637</ele>
        <time>2019-06-01T10:28:59Z</time>
      </trkpt>
      <trkpt lat="42.342962" lon="1.830119">
        <ele>1111.421</ele>
        <time>2019-06-01T10:29:03Z</time>
      </trkpt>
      <trkpt lat="42.342939" lon="1.830143">
        <ele>1111.477</ele>
        <time>2019-06-01T10:29:04Z</time>
      </trkpt>
      <trkpt lat="42.342894" lon="1.830222">
        <ele>1111.835</ele>
        <time>2019-06-01T10:29:07Z</time>
      </trkpt>
      <trkpt lat="42.342868" lon="1.830272">
        <ele>1112.259</ele>
        <time>2019-06-01T10:29:09Z</time>
      </trkpt>
      <trkpt lat="42.342823" lon="1.830371">
        <ele>1113.076</ele>
        <time>2019-06-01T10:29:13Z</time>
      </trkpt>
      <trkpt lat="42.342803" lon="1.830471">
        <ele>1113.814</ele>
        <time>2019-06-01T10:29:16Z</time>
      </trkpt>
      <trkpt lat="42.342804" lon="1.830510">
        <ele>1114.265</ele>
        <time>2019-06-01T10:29:17Z</time>
      </trkpt>
      <trkpt lat="42.342845" lon="1.830632">
        <ele>1115.068</ele>
        <time>2019-06-01T10:29:21Z</time>
      </trkpt>
      <trkpt lat="42.342864" lon="1.830655">
        <ele>1115.442</ele>
        <time>2019-06-01T10:29:22Z</time>
      </trkpt>
      <trkpt lat="42.342973" lon="1.830712">
        <ele>1116.426</ele>
        <time>2019-06-01T10:29:27Z</time>
      </trkpt>
      <trkpt lat="42.343038" lon="1.830733">
        <ele>1116.608</ele>
        <time>2019-06-01T10:29:30Z</time>
      </trkpt>
      <trkpt lat="42.343098" lon="1.830734">
        <ele>1117.239</ele>
        <time>2019-06-01T10:29:33Z</time>
      </trkpt>
      <trkpt lat="42.343170" lon="1.830703">
        <ele>1117.643</ele>
        <time>2019-06-01T10:29:37Z</time>
      </trkpt>
      <trkpt lat="42.343251" lon="1.830672">
        <ele>1118.499</ele>
        <time>2019-06-01T10:29:41Z</time>
      </trkpt>
      <trkpt lat="42.343322" lon="1.830630">
        <ele>1118.897</ele>
        <time>2019-06-01T10:29:45Z</time>
      </trkpt>
      <trkpt lat="42.343369" lon="1.830597">
        <ele>1119.451</ele>
        <time>2019-06-01T10:29:48Z</time>
      </trkpt>
      <trkpt lat="42.343439" lon="1.830556">
        <ele>1119.838</ele>
        <time>2019-06-01T10:29:52Z</time>
      </trkpt>
      <trkpt lat="42.343501" lon="1.830511">
        <ele>1120.646</ele>
        <time>2019-06-01T10:29:56Z</time>
      </trkpt>
      <trkpt lat="42.343537" lon="1.830491">
        <ele>1121.037</ele>
        <time>2019-06-01T10:29:58Z</time>
      </trkpt>
      <trkpt lat="42.343663" lon="1.830432">
        <ele>1121.834</ele>
        <time>2019-06-01T10:30:05Z</time>
      </trkpt>
      <trkpt lat="42.343711" lon="1.830409">
        <ele>1122.055</ele>
        <time>2019-06-01T10:30:08Z</time>
      </trkpt>
      <trkpt lat="42.343785" lon="1.830369">
        <ele>1122.610</ele>
        <time>2019-06-01T10:30:12Z</time>
      </trkpt>
      <trkpt lat="42.343857" lon="1.830335">
        <ele>1123.208</ele>
        <time>2019-06-01T10:30:16Z</time>
      </trkpt>
      <trkpt lat="42.343937" lon="1.830288">
        <ele>1123.626</ele>
        <time>2019-06-01T10:30:21Z</time>
      </trkpt>
      <trkpt lat="42.343994" lon="1.830225">
        <ele>1124.210</ele>
        <time>2019-06-01T10:30:25Z</time>
      </trkpt>
      <trkpt lat="42.344012" lon="1.830187">
        <ele>1124.476</ele>
        <time>2019-06-01T10:30:27Z</time>
      </trkpt>
      <trkpt lat="42.344035" lon="1.830074">
        <ele>1125.254</ele>
        <time>2019-06-01T10:30:32Z</time>
      </trkpt>
      <trkpt lat="42.344035" lon="1.830054">
        <ele>1125.478</ele>
        <time>2019-06-01T10:30:33Z</time>
      </trkpt>
      <trkpt lat="42.344006" lon="1.829931">
        <ele>1126.435</ele>
        <time>2019-06-01T10:30:39Z</time>
      </trkpt>
      <trkpt lat="42.343961" lon="1.829768">
        <ele>1127.423</ele>
        <time>2019-06-01T10:30:46Z</time>
      </trkpt>
      <trkpt lat="42.343940" lon="1.829660">
        <ele>1128.684</ele>
        <time>2019-06-01T10:30:50Z</time>
      </trkpt>
      <trkpt lat="42.343908" lon="1.829555">
        <ele>1126.819</ele>
        <time>2019-06-01T10:30:54Z</time>
      </trkpt>
      <trkpt lat="42.343905" lon="1.829459">
        <ele>1128.809</ele>
        <time>2019-06-01T10:30:57Z</time>
      </trkpt>
      <trkpt lat="42.343908" lon="1.829330">
        <ele>1128.619</ele>
        <time>2019-06-01T10:31:01Z</time>
      </trkpt>
      <trkpt lat="42.343959" lon="1.829151">
        <ele>1129.208</ele>
        <time>2019-06-01T10:31:06Z</time>
      </trkpt>
      <trkpt lat="42.344069" lon="1.828821">
        <ele>1128.884</ele>
        <time>2019-06-01T10:31:15Z</time>
      </trkpt>
      <trkpt lat="42.344172" lon="1.828517">
        <ele>1128.438</ele>
        <time>2019-06-01T10:31:22Z</time>
      </trkpt>
      <trkpt lat="42.344300" lon="1.828213">
        <ele>1128.014</ele>
        <time>2019-06-01T10:31:29Z</time>
      </trkpt>
      <trkpt lat="42.344322" lon="1.828172">
        <ele>1127.842</ele>
        <time>2019-06-01T10:31:30Z</time>
      </trkpt>
      <trkpt lat="42.344455" lon="1.827904">
        <ele>1127.876</ele>
        <time>2019-06-01T10:31:36Z</time>
      </trkpt>
      <trkpt lat="42.344547" lon="1.827700">
        <ele>1127.483</ele>
        <time>2019-06-01T10:31:40Z</time>
      </trkpt>
      <trkpt lat="42.344614" lon="1.827533">
        <ele>1127.231</ele>
        <time>2019-06-01T10:31:43Z</time>
      </trkpt>
      <trkpt lat="42.344698" lon="1.827286">
        <ele>1126.672</ele>
        <time>2019-06-01T10:31:47Z</time>
      </trkpt>
      <trkpt lat="42.344746" lon="1.827157">
        <ele>1125.885</ele>
        <time>2019-06-01T10:31:49Z</time>
      </trkpt>
      <trkpt lat="42.344769" lon="1.827089">
        <ele>1125.689</ele>
        <time>2019-06-01T10:31:50Z</time>
      </trkpt>
      <trkpt lat="42.344835" lon="1.826958">
        <ele>1125.017</ele>
        <time>2019-06-01T10:31:52Z</time>
      </trkpt>
      <trkpt lat="42.344922" lon="1.826849">
        <ele>1124.808</ele>
        <time>2019-06-01T10:31:54Z</time>
      </trkpt>
      <trkpt lat="42.345010" lon="1.826760">
        <ele>1124.471</ele>
        <time>2019-06-01T10:31:56Z</time>
      </trkpt>
      <trkpt lat="42.345098" lon="1.826687">
        <ele>1124.485</ele>
        <time>2019-06-01T10:31:58Z</time>
      </trkpt>
      <trkpt lat="42.345140" lon="1.826653">
        <ele>1124.471</ele>
        <time>2019-06-01T10:31:59Z</time>
      </trkpt>
      <trkpt lat="42.345445" lon="1.826444">
        <ele>1124.459</ele>
        <time>2019-06-01T10:32:06Z</time>
      </trkpt>
      <trkpt lat="42.345608" lon="1.826412">
        <ele>1124.883</ele>
        <time>2019-06-01T10:32:10Z</time>
      </trkpt>
      <trkpt lat="42.345636" lon="1.826422">
        <ele>1125.810</ele>
        <time>2019-06-01T10:32:12Z</time>
      </trkpt>
      <trkpt lat="42.345633" lon="1.826418">
        <ele>1126.288</ele>
        <time>2019-06-01T10:32:13Z</time>
      </trkpt>
      <trkpt lat="42.345605" lon="1.826459">
        <ele>1126.219</ele>
        <time>2019-06-01T10:32:18Z</time>
      </trkpt>
      <trkpt lat="42.345608" lon="1.826478">
        <ele>1126.214</ele>
        <time>2019-06-01T10:32:19Z</time>
      </trkpt>
      <trkpt lat="42.345636" lon="1.826549">
        <ele>1127.054</ele>
        <time>2019-06-01T10:32:22Z</time>
      </trkpt>
      <trkpt lat="42.345662" lon="1.826600">
        <ele>1127.409</ele>
        <time>2019-06-01T10:32:24Z</time>
      </trkpt>
      <trkpt lat="42.345666" lon="1.826636">
        <ele>1128.008</ele>
        <time>2019-06-01T10:32:26Z</time>
      </trkpt>
      <trkpt lat="42.345627" lon="1.826769">
        <ele>1129.484</ele>
        <time>2019-06-01T10:34:59Z</time>
      </trkpt>
      <trkpt lat="42.345603" lon="1.826677">
        <ele>1128.228</ele>
        <time>2019-06-01T10:35:01Z</time>
      </trkpt>
      <trkpt lat="42.345583" lon="1.826577">
        <ele>1127.014</ele>
        <time>2019-06-01T10:35:03Z</time>
      </trkpt>
      <trkpt lat="42.345604" lon="1.826521">
        <ele>1126.492</ele>
        <time>2019-06-01T10:35:04Z</time>
      </trkpt>
      <trkpt lat="42.345642" lon="1.826483">
        <ele>1125.866</ele>
        <time>2019-06-01T10:35:05Z</time>
      </trkpt>
      <trkpt lat="42.345733" lon="1.826445">
        <ele>1126.233</ele>
        <time>2019-06-01T10:35:08Z</time>
      </trkpt>
      <trkpt lat="42.345790" lon="1.826446">
        <ele>1126.481</ele>
        <time>2019-06-01T10:35:10Z</time>
      </trkpt>
      <trkpt lat="42.345847" lon="1.826453">
        <ele>1127.062</ele>
        <time>2019-06-01T10:35:12Z</time>
      </trkpt>
      <trkpt lat="42.345902" lon="1.826478">
        <ele>1127.075</ele>
        <time>2019-06-01T10:35:14Z</time>
      </trkpt>
      <trkpt lat="42.346004" lon="1.826587">
        <ele>1128.028</ele>
        <time>2019-06-01T10:35:19Z</time>
      </trkpt>
      <trkpt lat="42.346085" lon="1.826691">
        <ele>1129.220</ele>
        <time>2019-06-01T10:35:25Z</time>
      </trkpt>
      <trkpt lat="42.346174" lon="1.826797">
        <ele>1130.008</ele>
        <time>2019-06-01T10:35:32Z</time>
      </trkpt>
      <trkpt lat="42.346188" lon="1.826805">
        <ele>1130.410</ele>
        <time>2019-06-01T10:35:33Z</time>
      </trkpt>
      <trkpt lat="42.346259" lon="1.826868">
        <ele>1131.054</ele>
        <time>2019-06-01T10:35:39Z</time>
      </trkpt>
      <trkpt lat="42.346276" lon="1.826893">
        <ele>1131.480</ele>
        <time>2019-06-01T10:35:41Z</time>
      </trkpt>
      <trkpt lat="42.346351" lon="1.826952">
        <ele>1132.268</ele>
        <time>2019-06-01T10:35:47Z</time>
      </trkpt>
      <trkpt lat="42.346365" lon="1.826962">
        <ele>1132.662</ele>
        <time>2019-06-01T10:35:48Z</time>
      </trkpt>
      <trkpt lat="42.346417" lon="1.827011">
        <ele>1133.289</ele>
        <time>2019-06-01T10:35:52Z</time>
      </trkpt>
      <trkpt lat="42.346438" lon="1.827034">
        <ele>1133.857</ele>
        <time>2019-06-01T10:35:54Z</time>
      </trkpt>
      <trkpt lat="42.346492" lon="1.827126">
        <ele>1135.048</ele>
        <time>2019-06-01T10:36:00Z</time>
      </trkpt>
      <trkpt lat="42.346495" lon="1.827148">
        <ele>1135.278</ele>
        <time>2019-06-01T10:36:01Z</time>
      </trkpt>
      <trkpt lat="42.346502" lon="1.827188">
        <ele>1135.633</ele>
        <time>2019-06-01T10:36:03Z</time>
      </trkpt>
      <trkpt lat="42.346485" lon="1.827254">
        <ele>1136.026</ele>
        <time>2019-06-01T10:36:07Z</time>
      </trkpt>
      <trkpt lat="42.346466" lon="1.827283">
        <ele>1136.408</ele>
        <time>2019-06-01T10:36:09Z</time>
      </trkpt>
      <trkpt lat="42.346456" lon="1.827293">
        <ele>1136.640</ele>
        <time>2019-06-01T10:36:10Z</time>
      </trkpt>
      <trkpt lat="42.346426" lon="1.827301">
        <ele>1136.874</ele>
        <time>2019-06-01T10:36:12Z</time>
      </trkpt>
      <trkpt lat="42.346408" lon="1.827302">
        <ele>1137.080</ele>
        <time>2019-06-01T10:36:13Z</time>
      </trkpt>
      <trkpt lat="42.346391" lon="1.827300">
        <ele>1137.098</ele>
        <time>2019-06-01T10:36:14Z</time>
      </trkpt>
      <trkpt lat="42.346273" lon="1.827275">
        <ele>1136.692</ele>
        <time>2019-06-01T10:36:21Z</time>
      </trkpt>
      <trkpt lat="42.346132" lon="1.827217">
        <ele>1137.629</ele>
        <time>2019-06-01T10:36:29Z</time>
      </trkpt>
      <trkpt lat="42.346068" lon="1.827189">
        <ele>1138.217</ele>
        <time>2019-06-01T10:36:33Z</time>
      </trkpt>
      <trkpt lat="42.345996" lon="1.827170">
        <ele>1138.068</ele>
        <time>2019-06-01T10:36:37Z</time>
      </trkpt>
      <trkpt lat="42.345851" lon="1.827192">
        <ele>1138.846</ele>
        <time>2019-06-01T10:36:45Z</time>
      </trkpt>
      <trkpt lat="42.345835" lon="1.827198">
        <ele>1139.288</ele>
        <time>2019-06-01T10:36:48Z</time>
      </trkpt>
      <trkpt lat="42.345778" lon="1.827210">
        <ele>1139.416</ele>
        <time>2019-06-01T10:36:51Z</time>
      </trkpt>
      <trkpt lat="42.345583" lon="1.827377">
        <ele>1142.208</ele>
        <time>2019-06-01T10:37:07Z</time>
      </trkpt>
      <trkpt lat="42.345542" lon="1.827420">
        <ele>1141.827</ele>
        <time>2019-06-01T10:37:10Z</time>
      </trkpt>
      <trkpt lat="42.345498" lon="1.827476">
        <ele>1143.271</ele>
        <time>2019-06-01T10:37:14Z</time>
      </trkpt>
      <trkpt lat="42.345467" lon="1.827537">
        <ele>1143.057</ele>
        <time>2019-06-01T10:37:17Z</time>
      </trkpt>
      <trkpt lat="42.345453" lon="1.827560">
        <ele>1143.265</ele>
        <time>2019-06-01T10:37:18Z</time>
      </trkpt>
      <trkpt lat="42.345380" lon="1.827645">
        <ele>1143.639</ele>
        <time>2019-06-01T10:37:23Z</time>
      </trkpt>
      <trkpt lat="42.345307" lon="1.827734">
        <ele>1144.216</ele>
        <time>2019-06-01T10:37:28Z</time>
      </trkpt>
      <trkpt lat="42.345293" lon="1.827754">
        <ele>1144.454</ele>
        <time>2019-06-01T10:37:29Z</time>
      </trkpt>
      <trkpt lat="42.345211" lon="1.827893">
        <ele>1145.265</ele>
        <time>2019-06-01T10:37:36Z</time>
      </trkpt>
      <trkpt lat="42.345186" lon="1.827931">
        <ele>1145.245</ele>
        <time>2019-06-01T10:37:38Z</time>
      </trkpt>
      <trkpt lat="42.345168" lon="1.827996">
        <ele>1145.847</ele>
        <time>2019-06-01T10:37:41Z</time>
      </trkpt>
      <trkpt lat="42.345151" lon="1.828015">
        <ele>1145.811</ele>
        <time>2019-06-01T10:37:42Z</time>
      </trkpt>
      <trkpt lat="42.345113" lon="1.828102">
        <ele>1146.208</ele>
        <time>2019-06-01T10:37:46Z</time>
      </trkpt>
      <trkpt lat="42.345107" lon="1.828124">
        <ele>1146.277</ele>
        <time>2019-06-01T10:37:47Z</time>
      </trkpt>
      <trkpt lat="42.345072" lon="1.828230">
        <ele>1147.471</ele>
        <time>2019-06-01T10:37:53Z</time>
      </trkpt>
      <trkpt lat="42.345032" lon="1.828322">
        <ele>1147.847</ele>
        <time>2019-06-01T10:37:58Z</time>
      </trkpt>
      <trkpt lat="42.345017" lon="1.828395">
        <ele>1148.455</ele>
        <time>2019-06-01T10:38:02Z</time>
      </trkpt>
      <trkpt lat="42.345011" lon="1.828411">
        <ele>1148.419</ele>
        <time>2019-06-01T10:38:03Z</time>
      </trkpt>
      <trkpt lat="42.344956" lon="1.828558">
        <ele>1149.446</ele>
        <time>2019-06-01T10:38:11Z</time>
      </trkpt>
      <trkpt lat="42.344952" lon="1.828578">
        <ele>1149.644</ele>
        <time>2019-06-01T10:38:12Z</time>
      </trkpt>
      <trkpt lat="42.344909" lon="1.828742">
        <ele>1150.855</ele>
        <time>2019-06-01T10:38:20Z</time>
      </trkpt>
      <trkpt lat="42.344906" lon="1.828761">
        <ele>1150.844</ele>
        <time>2019-06-01T10:38:21Z</time>
      </trkpt>
      <trkpt lat="42.344884" lon="1.828892">
        <ele>1152.005</ele>
        <time>2019-06-01T10:38:27Z</time>
      </trkpt>
      <trkpt lat="42.344877" lon="1.828913">
        <ele>1154.415</ele>
        <time>2019-06-01T10:38:28Z</time>
      </trkpt>
      <trkpt lat="42.344867" lon="1.828973">
        <ele>1152.408</ele>
        <time>2019-06-01T10:38:31Z</time>
      </trkpt>
      <trkpt lat="42.344846" lon="1.829064">
        <ele>1152.627</ele>
        <time>2019-06-01T10:38:36Z</time>
      </trkpt>
      <trkpt lat="42.344828" lon="1.829197">
        <ele>1153.621</ele>
        <time>2019-06-01T10:38:43Z</time>
      </trkpt>
      <trkpt lat="42.344828" lon="1.829218">
        <ele>1153.617</ele>
        <time>2019-06-01T10:38:44Z</time>
      </trkpt>
      <trkpt lat="42.344812" lon="1.829369">
        <ele>1154.425</ele>
        <time>2019-06-01T10:38:52Z</time>
      </trkpt>
      <trkpt lat="42.344813" lon="1.829429">
        <ele>1154.689</ele>
        <time>2019-06-01T10:38:55Z</time>
      </trkpt>
      <trkpt lat="42.344819" lon="1.829467">
        <ele>1155.056</ele>
        <time>2019-06-01T10:38:57Z</time>
      </trkpt>
      <trkpt lat="42.344819" lon="1.829521">
        <ele>1155.654</ele>
        <time>2019-06-01T10:39:00Z</time>
      </trkpt>
      <trkpt lat="42.344821" lon="1.829537">
        <ele>1155.835</ele>
        <time>2019-06-01T10:39:01Z</time>
      </trkpt>
      <trkpt lat="42.344853" lon="1.829674">
        <ele>1156.667</ele>
        <time>2019-06-01T10:39:08Z</time>
      </trkpt>
      <trkpt lat="42.344860" lon="1.829710">
        <ele>1156.881</ele>
        <time>2019-06-01T10:39:10Z</time>
      </trkpt>
      <trkpt lat="42.344863" lon="1.829728">
        <ele>1156.819</ele>
        <time>2019-06-01T10:39:11Z</time>
      </trkpt>
      <trkpt lat="42.344881" lon="1.829819">
        <ele>1157.408</ele>
        <time>2019-06-01T10:39:16Z</time>
      </trkpt>
      <trkpt lat="42.344899" lon="1.829916">
        <ele>1157.849</ele>
        <time>2019-06-01T10:39:21Z</time>
      </trkpt>
      <trkpt lat="42.344909" lon="1.829973">
        <ele>1158.493</ele>
        <time>2019-06-01T10:39:24Z</time>
      </trkpt>
      <trkpt lat="42.344917" lon="1.830061">
        <ele>1159.089</ele>
        <time>2019-06-01T10:39:28Z</time>
      </trkpt>
      <trkpt lat="42.344936" lon="1.830150">
        <ele>1159.487</ele>
        <time>2019-06-01T10:39:33Z</time>
      </trkpt>
      <trkpt lat="42.344946" lon="1.830223">
        <ele>1160.061</ele>
        <time>2019-06-01T10:39:37Z</time>
      </trkpt>
      <trkpt lat="42.344963" lon="1.830351">
        <ele>1160.878</ele>
        <time>2019-06-01T10:39:44Z</time>
      </trkpt>
      <trkpt lat="42.344969" lon="1.830404">
        <ele>1161.016</ele>
        <time>2019-06-01T10:39:47Z</time>
      </trkpt>
      <trkpt lat="42.344988" lon="1.830485">
        <ele>1162.097</ele>
        <time>2019-06-01T10:39:52Z</time>
      </trkpt>
      <trkpt lat="42.344990" lon="1.830514">
        <ele>1162.843</ele>
        <time>2019-06-01T10:39:54Z</time>
      </trkpt>
      <trkpt lat="42.345001" lon="1.830585">
        <ele>1163.064</ele>
        <time>2019-06-01T10:39:58Z</time>
      </trkpt>
      <trkpt lat="42.345006" lon="1.830679">
        <ele>1163.410</ele>
        <time>2019-06-01T10:40:03Z</time>
      </trkpt>
      <trkpt lat="42.345005" lon="1.830732">
        <ele>1163.808</ele>
        <time>2019-06-01T10:40:06Z</time>
      </trkpt>
      <trkpt lat="42.345014" lon="1.830847">
        <ele>1164.867</ele>
        <time>2019-06-01T10:40:13Z</time>
      </trkpt>
      <trkpt lat="42.345014" lon="1.830909">
        <ele>1165.461</ele>
        <time>2019-06-01T10:40:17Z</time>
      </trkpt>
      <trkpt lat="42.345020" lon="1.830942">
        <ele>1165.617</ele>
        <time>2019-06-01T10:40:19Z</time>
      </trkpt>
      <trkpt lat="42.345019" lon="1.831035">
        <ele>1166.015</ele>
        <time>2019-06-01T10:40:23Z</time>
      </trkpt>
      <trkpt lat="42.345014" lon="1.831055">
        <ele>1166.049</ele>
        <time>2019-06-01T10:40:24Z</time>
      </trkpt>
      <trkpt lat="42.345011" lon="1.831108">
        <ele>1166.656</ele>
        <time>2019-06-01T10:40:27Z</time>
      </trkpt>
      <trkpt lat="42.345015" lon="1.831159">
        <ele>1166.854</ele>
        <time>2019-06-01T10:40:30Z</time>
      </trkpt>
      <trkpt lat="42.345011" lon="1.831177">
        <ele>1167.065</ele>
        <time>2019-06-01T10:40:31Z</time>
      </trkpt>
      <trkpt lat="42.345004" lon="1.831282">
        <ele>1167.673</ele>
        <time>2019-06-01T10:40:37Z</time>
      </trkpt>
      <trkpt lat="42.345002" lon="1.831315">
        <ele>1168.085</ele>
        <time>2019-06-01T10:40:39Z</time>
      </trkpt>
      <trkpt lat="42.344999" lon="1.831419">
        <ele>1168.613</ele>
        <time>2019-06-01T10:40:45Z</time>
      </trkpt>
      <trkpt lat="42.344989" lon="1.831472">
        <ele>1169.008</ele>
        <time>2019-06-01T10:40:48Z</time>
      </trkpt>
      <trkpt lat="42.344988" lon="1.831570">
        <ele>1169.610</ele>
        <time>2019-06-01T10:40:53Z</time>
      </trkpt>
      <trkpt lat="42.344983" lon="1.831683">
        <ele>1170.014</ele>
        <time>2019-06-01T10:40:59Z</time>
      </trkpt>
      <trkpt lat="42.344982" lon="1.831702">
        <ele>1170.410</ele>
        <time>2019-06-01T10:41:00Z</time>
      </trkpt>
      <trkpt lat="42.344977" lon="1.831759">
        <ele>1170.628</ele>
        <time>2019-06-01T10:41:03Z</time>
      </trkpt>
      <trkpt lat="42.344959" lon="1.831910">
        <ele>1171.442</ele>
        <time>2019-06-01T10:41:11Z</time>
      </trkpt>
      <trkpt lat="42.344956" lon="1.831973">
        <ele>1171.639</ele>
        <time>2019-06-01T10:41:14Z</time>
      </trkpt>
      <trkpt lat="42.344927" lon="1.832144">
        <ele>1172.217</ele>
        <time>2019-06-01T10:41:22Z</time>
      </trkpt>
      <trkpt lat="42.344914" lon="1.832220">
        <ele>1172.698</ele>
        <time>2019-06-01T10:41:25Z</time>
      </trkpt>
      <trkpt lat="42.344909" lon="1.832375">
        <ele>1173.073</ele>
        <time>2019-06-01T10:41:31Z</time>
      </trkpt>
      <trkpt lat="42.344909" lon="1.832596">
        <ele>1173.285</ele>
        <time>2019-06-01T10:41:38Z</time>
      </trkpt>
      <trkpt lat="42.344916" lon="1.832721">
        <ele>1173.813</ele>
        <time>2019-06-01T10:41:42Z</time>
      </trkpt>
      <trkpt lat="42.344944" lon="1.832863">
        <ele>1173.408</ele>
        <time>2019-06-01T10:41:46Z</time>
      </trkpt>
      <trkpt lat="42.345006" lon="1.833052">
        <ele>1173.650</ele>
        <time>2019-06-01T10:41:52Z</time>
      </trkpt>
      <trkpt lat="42.345044" lon="1.833330">
        <ele>1173.814</ele>
        <time>2019-06-01T10:42:00Z</time>
      </trkpt>
      <trkpt lat="42.345069" lon="1.833376">
        <ele>1174.060</ele>
        <time>2019-06-01T10:42:02Z</time>
      </trkpt>
      <trkpt lat="42.345125" lon="1.833503">
        <ele>1174.498</ele>
        <time>2019-06-01T10:42:07Z</time>
      </trkpt>
      <trkpt lat="42.345149" lon="1.833581">
        <ele>1174.842</ele>
        <time>2019-06-01T10:42:11Z</time>
      </trkpt>
      <trkpt lat="42.345171" lon="1.833658">
        <ele>1175.479</ele>
        <time>2019-06-01T10:42:15Z</time>
      </trkpt>
      <trkpt lat="42.345185" lon="1.833720">
        <ele>1176.027</ele>
        <time>2019-06-01T10:42:18Z</time>
      </trkpt>
      <trkpt lat="42.345225" lon="1.833818">
        <ele>1176.868</ele>
        <time>2019-06-01T10:42:24Z</time>
      </trkpt>
      <trkpt lat="42.345241" lon="1.833855">
        <ele>1177.278</ele>
        <time>2019-06-01T10:42:26Z</time>
      </trkpt>
      <trkpt lat="42.345265" lon="1.833973">
        <ele>1178.233</ele>
        <time>2019-06-01T10:42:32Z</time>
      </trkpt>
      <trkpt lat="42.345287" lon="1.834046">
        <ele>1179.426</ele>
        <time>2019-06-01T10:42:36Z</time>
      </trkpt>
      <trkpt lat="42.345309" lon="1.834118">
        <ele>1180.208</ele>
        <time>2019-06-01T10:42:40Z</time>
      </trkpt>
      <trkpt lat="42.345308" lon="1.834141">
        <ele>1180.440</ele>
        <time>2019-06-01T10:42:41Z</time>
      </trkpt>
      <trkpt lat="42.345326" lon="1.834235">
        <ele>1181.274</ele>
        <time>2019-06-01T10:42:46Z</time>
      </trkpt>
      <trkpt lat="42.345337" lon="1.834252">
        <ele>1181.450</ele>
        <time>2019-06-01T10:42:47Z</time>
      </trkpt>
      <trkpt lat="42.345336" lon="1.834275">
        <ele>1181.628</ele>
        <time>2019-06-01T10:42:48Z</time>
      </trkpt>
      <trkpt lat="42.345338" lon="1.834322">
        <ele>1182.252</ele>
        <time>2019-06-01T10:42:51Z</time>
      </trkpt>
      <trkpt lat="42.345335" lon="1.834338">
        <ele>1182.439</ele>
        <time>2019-06-01T10:42:52Z</time>
      </trkpt>
      <trkpt lat="42.345329" lon="1.834369">
        <ele>1182.637</ele>
        <time>2019-06-01T10:42:54Z</time>
      </trkpt>
      <trkpt lat="42.345335" lon="1.834424">
        <ele>1183.258</ele>
        <time>2019-06-01T10:42:57Z</time>
      </trkpt>
      <trkpt lat="42.345332" lon="1.834462">
        <ele>1183.475</ele>
        <time>2019-06-01T10:42:59Z</time>
      </trkpt>
      <trkpt lat="42.345327" lon="1.834476">
        <ele>1183.828</ele>
        <time>2019-06-01T10:43:00Z</time>
      </trkpt>
      <trkpt lat="42.345300" lon="1.834551">
        <ele>1184.420</ele>
        <time>2019-06-01T10:43:05Z</time>
      </trkpt>
      <trkpt lat="42.345299" lon="1.834569">
        <ele>1184.608</ele>
        <time>2019-06-01T10:43:06Z</time>
      </trkpt>
      <trkpt lat="42.345289" lon="1.834663">
        <ele>1185.860</ele>
        <time>2019-06-01T10:43:12Z</time>
      </trkpt>
      <trkpt lat="42.345283" lon="1.834711">
        <ele>1186.074</ele>
        <time>2019-06-01T10:43:15Z</time>
      </trkpt>
      <trkpt lat="42.345273" lon="1.834793">
        <ele>1186.820</ele>
        <time>2019-06-01T10:43:20Z</time>
      </trkpt>
      <trkpt lat="42.345269" lon="1.834821">
        <ele>1187.248</ele>
        <time>2019-06-01T10:43:22Z</time>
      </trkpt>
      <trkpt lat="42.345267" lon="1.834851">
        <ele>1187.612</ele>
        <time>2019-06-01T10:43:24Z</time>
      </trkpt>
      <trkpt lat="42.345263" lon="1.834882">
        <ele>1187.859</ele>
        <time>2019-06-01T10:43:26Z</time>
      </trkpt>
      <trkpt lat="42.345251" lon="1.834989">
        <ele>1188.497</ele>
        <time>2019-06-01T10:43:33Z</time>
      </trkpt>
      <trkpt lat="42.345238" lon="1.835048">
        <ele>1189.078</ele>
        <time>2019-06-01T10:43:37Z</time>
      </trkpt>
      <trkpt lat="42.345232" lon="1.835118">
        <ele>1189.624</ele>
        <time>2019-06-01T10:43:41Z</time>
      </trkpt>
      <trkpt lat="42.345235" lon="1.835134">
        <ele>1189.604</ele>
        <time>2019-06-01T10:43:42Z</time>
      </trkpt>
      <trkpt lat="42.345232" lon="1.835198">
        <ele>1190.214</ele>
        <time>2019-06-01T10:43:46Z</time>
      </trkpt>
      <trkpt lat="42.345226" lon="1.835296">
        <ele>1191.208</ele>
        <time>2019-06-01T10:43:52Z</time>
      </trkpt>
      <trkpt lat="42.345216" lon="1.835323">
        <ele>1191.455</ele>
        <time>2019-06-01T10:43:54Z</time>
      </trkpt>
      <trkpt lat="42.345208" lon="1.835448">
        <ele>1192.429</ele>
        <time>2019-06-01T10:44:02Z</time>
      </trkpt>
      <trkpt lat="42.345211" lon="1.835463">
        <ele>1192.685</ele>
        <time>2019-06-01T10:44:03Z</time>
      </trkpt>
      <trkpt lat="42.345202" lon="1.835525">
        <ele>1193.043</ele>
        <time>2019-06-01T10:44:07Z</time>
      </trkpt>
      <trkpt lat="42.345203" lon="1.835577">
        <ele>1193.037</ele>
        <time>2019-06-01T10:44:10Z</time>
      </trkpt>
      <trkpt lat="42.345206" lon="1.835609">
        <ele>1193.674</ele>
        <time>2019-06-01T10:44:12Z</time>
      </trkpt>
      <trkpt lat="42.345203" lon="1.835649">
        <ele>1193.862</ele>
        <time>2019-06-01T10:44:14Z</time>
      </trkpt>
      <trkpt lat="42.345209" lon="1.835699">
        <ele>1194.223</ele>
        <time>2019-06-01T10:44:17Z</time>
      </trkpt>
      <trkpt lat="42.345203" lon="1.835780">
        <ele>1194.464</ele>
        <time>2019-06-01T10:44:21Z</time>
      </trkpt>
      <trkpt lat="42.345205" lon="1.835804">
        <ele>1194.606</ele>
        <time>2019-06-01T10:44:22Z</time>
      </trkpt>
      <trkpt lat="42.345210" lon="1.835826">
        <ele>1194.816</ele>
        <time>2019-06-01T10:44:23Z</time>
      </trkpt>
      <trkpt lat="42.345222" lon="1.835983">
        <ele>1195.808</ele>
        <time>2019-06-01T10:44:31Z</time>
      </trkpt>
      <trkpt lat="42.345235" lon="1.836208">
        <ele>1196.619</ele>
        <time>2019-06-01T10:44:42Z</time>
      </trkpt>
      <trkpt lat="42.345240" lon="1.836228">
        <ele>1197.823</ele>
        <time>2019-06-01T10:44:43Z</time>
      </trkpt>
      <trkpt lat="42.345252" lon="1.836293">
        <ele>1194.629</ele>
        <time>2019-06-01T10:44:46Z</time>
      </trkpt>
      <trkpt lat="42.345258" lon="1.836338">
        <ele>1195.637</ele>
        <time>2019-06-01T10:44:48Z</time>
      </trkpt>
      <trkpt lat="42.345259" lon="1.836359">
        <ele>1198.011</ele>
        <time>2019-06-01T10:44:49Z</time>
      </trkpt>
      <trkpt lat="42.345263" lon="1.836380">
        <ele>1197.478</ele>
        <time>2019-06-01T10:44:50Z</time>
      </trkpt>
      <trkpt lat="42.345300" lon="1.836571">
        <ele>1197.866</ele>
        <time>2019-06-01T10:44:59Z</time>
      </trkpt>
      <trkpt lat="42.345291" lon="1.836747">
        <ele>1198.487</ele>
        <time>2019-06-01T10:45:07Z</time>
      </trkpt>
      <trkpt lat="42.345263" lon="1.836948">
        <ele>1199.019</ele>
        <time>2019-06-01T10:45:16Z</time>
      </trkpt>
      <trkpt lat="42.345252" lon="1.836990">
        <ele>1199.209</ele>
        <time>2019-06-01T10:45:18Z</time>
      </trkpt>
      <trkpt lat="42.345231" lon="1.837107">
        <ele>1200.019</ele>
        <time>2019-06-01T10:45:24Z</time>
      </trkpt>
      <trkpt lat="42.345228" lon="1.837140">
        <ele>1200.408</ele>
        <time>2019-06-01T10:45:26Z</time>
      </trkpt>
      <trkpt lat="42.345223" lon="1.837179">
        <ele>1200.474</ele>
        <time>2019-06-01T10:45:29Z</time>
      </trkpt>
      <trkpt lat="42.345215" lon="1.837215">
        <ele>1200.638</ele>
        <time>2019-06-01T10:45:31Z</time>
      </trkpt>
      <trkpt lat="42.345196" lon="1.837375">
        <ele>1201.464</ele>
        <time>2019-06-01T10:45:40Z</time>
      </trkpt>
      <trkpt lat="42.345195" lon="1.837392">
        <ele>1201.442</ele>
        <time>2019-06-01T10:45:41Z</time>
      </trkpt>
      <trkpt lat="42.345170" lon="1.837519">
        <ele>1202.286</ele>
        <time>2019-06-01T10:45:48Z</time>
      </trkpt>
      <trkpt lat="42.345164" lon="1.837535">
        <ele>1202.443</ele>
        <time>2019-06-01T10:45:49Z</time>
      </trkpt>
      <trkpt lat="42.345158" lon="1.837638">
        <ele>1203.031</ele>
        <time>2019-06-01T10:45:55Z</time>
      </trkpt>
      <trkpt lat="42.345154" lon="1.837656">
        <ele>1203.212</ele>
        <time>2019-06-01T10:45:56Z</time>
      </trkpt>
      <trkpt lat="42.345153" lon="1.837672">
        <ele>1203.489</ele>
        <time>2019-06-01T10:45:57Z</time>
      </trkpt>
      <trkpt lat="42.345130" lon="1.837817">
        <ele>1204.206</ele>
        <time>2019-06-01T10:46:05Z</time>
      </trkpt>
      <trkpt lat="42.345124" lon="1.837869">
        <ele>1204.226</ele>
        <time>2019-06-01T10:46:08Z</time>
      </trkpt>
      <trkpt lat="42.345116" lon="1.837917">
        <ele>1204.408</ele>
        <time>2019-06-01T10:46:11Z</time>
      </trkpt>
      <trkpt lat="42.345114" lon="1.837951">
        <ele>1204.821</ele>
        <time>2019-06-01T10:46:13Z</time>
      </trkpt>
      <trkpt lat="42.345100" lon="1.838044">
        <ele>1205.455</ele>
        <time>2019-06-01T10:46:18Z</time>
      </trkpt>
      <trkpt lat="42.345104" lon="1.838064">
        <ele>1205.611</ele>
        <time>2019-06-01T10:46:19Z</time>
      </trkpt>
      <trkpt lat="42.345101" lon="1.838085">
        <ele>1205.689</ele>
        <time>2019-06-01T10:46:20Z</time>
      </trkpt>
      <trkpt lat="42.345091" lon="1.838201">
        <ele>1205.893</ele>
        <time>2019-06-01T10:46:26Z</time>
      </trkpt>
      <trkpt lat="42.345086" lon="1.838331">
        <ele>1206.650</ele>
        <time>2019-06-01T10:46:33Z</time>
      </trkpt>
      <trkpt lat="42.345081" lon="1.838351">
        <ele>1206.878</ele>
        <time>2019-06-01T10:46:34Z</time>
      </trkpt>
      <trkpt lat="42.345068" lon="1.838444">
        <ele>1207.649</ele>
        <time>2019-06-01T10:46:39Z</time>
      </trkpt>
      <trkpt lat="42.345057" lon="1.838477">
        <ele>1207.818</ele>
        <time>2019-06-01T10:46:41Z</time>
      </trkpt>
      <trkpt lat="42.345039" lon="1.838552">
        <ele>1208.498</ele>
        <time>2019-06-01T10:46:45Z</time>
      </trkpt>
      <trkpt lat="42.345011" lon="1.838626">
        <ele>1209.017</ele>
        <time>2019-06-01T10:46:49Z</time>
      </trkpt>
      <trkpt lat="42.345005" lon="1.838642">
        <ele>1209.008</ele>
        <time>2019-06-01T10:46:50Z</time>
      </trkpt>
      <trkpt lat="42.344989" lon="1.838721">
        <ele>1209.694</ele>
        <time>2019-06-01T10:46:54Z</time>
      </trkpt>
      <trkpt lat="42.344976" lon="1.838751">
        <ele>1209.818</ele>
        <time>2019-06-01T10:46:56Z</time>
      </trkpt>
      <trkpt lat="42.344972" lon="1.838768">
        <ele>1210.014</ele>
        <time>2019-06-01T10:46:57Z</time>
      </trkpt>
      <trkpt lat="42.344961" lon="1.838783">
        <ele>1210.082</ele>
        <time>2019-06-01T10:46:58Z</time>
      </trkpt>
      <trkpt lat="42.344954" lon="1.838844">
        <ele>1210.496</ele>
        <time>2019-06-01T10:47:02Z</time>
      </trkpt>
      <trkpt lat="42.344937" lon="1.838887">
        <ele>1211.053</ele>
        <time>2019-06-01T10:47:05Z</time>
      </trkpt>
      <trkpt lat="42.344934" lon="1.838903">
        <ele>1211.261</ele>
        <time>2019-06-01T10:47:06Z</time>
      </trkpt>
      <trkpt lat="42.344928" lon="1.838988">
        <ele>1211.852</ele>
        <time>2019-06-01T10:47:11Z</time>
      </trkpt>
      <trkpt lat="42.344904" lon="1.839084">
        <ele>1212.281</ele>
        <time>2019-06-01T10:47:17Z</time>
      </trkpt>
      <trkpt lat="42.344903" lon="1.839119">
        <ele>1212.661</ele>
        <time>2019-06-01T10:47:19Z</time>
      </trkpt>
      <trkpt lat="42.344893" lon="1.839210">
        <ele>1213.417</ele>
        <time>2019-06-01T10:47:25Z</time>
      </trkpt>
      <trkpt lat="42.344876" lon="1.839279">
        <ele>1213.808</ele>
        <time>2019-06-01T10:47:29Z</time>
      </trkpt>
      <trkpt lat="42.344884" lon="1.839361">
        <ele>1214.471</ele>
        <time>2019-06-01T10:47:34Z</time>
      </trkpt>
      <trkpt lat="42.344879" lon="1.839425">
        <ele>1214.825</ele>
        <time>2019-06-01T10:47:37Z</time>
      </trkpt>
      <trkpt lat="42.344875" lon="1.839494">
        <ele>1215.491</ele>
        <time>2019-06-01T10:47:41Z</time>
      </trkpt>
      <trkpt lat="42.344881" lon="1.839577">
        <ele>1216.019</ele>
        <time>2019-06-01T10:47:46Z</time>
      </trkpt>
      <trkpt lat="42.344891" lon="1.839693">
        <ele>1216.673</ele>
        <time>2019-06-01T10:47:52Z</time>
      </trkpt>
      <trkpt lat="42.344891" lon="1.839709">
        <ele>1216.870</ele>
        <time>2019-06-01T10:47:53Z</time>
      </trkpt>
      <trkpt lat="42.344887" lon="1.839831">
        <ele>1217.688</ele>
        <time>2019-06-01T10:48:00Z</time>
      </trkpt>
      <trkpt lat="42.344886" lon="1.839851">
        <ele>1217.689</ele>
        <time>2019-06-01T10:48:01Z</time>
      </trkpt>
      <trkpt lat="42.344919" lon="1.840066">
        <ele>1218.824</ele>
        <time>2019-06-01T10:48:12Z</time>
      </trkpt>
      <trkpt lat="42.344942" lon="1.840278">
        <ele>1219.804</ele>
        <time>2019-06-01T10:48:22Z</time>
      </trkpt>
      <trkpt lat="42.344962" lon="1.840487">
        <ele>1220.414</ele>
        <time>2019-06-01T10:48:30Z</time>
      </trkpt>
      <trkpt lat="42.344955" lon="1.840697">
        <ele>1220.808</ele>
        <time>2019-06-01T10:48:37Z</time>
      </trkpt>
      <trkpt lat="42.344940" lon="1.840760">
        <ele>1220.895</ele>
        <time>2019-06-01T10:48:40Z</time>
      </trkpt>
      <trkpt lat="42.344924" lon="1.840951">
        <ele>1220.819</ele>
        <time>2019-06-01T10:48:48Z</time>
      </trkpt>
      <trkpt lat="42.344972" lon="1.841191">
        <ele>1219.685</ele>
        <time>2019-06-01T10:48:53Z</time>
      </trkpt>
      <trkpt lat="42.345063" lon="1.841394">
        <ele>1218.483</ele>
        <time>2019-06-01T10:48:56Z</time>
      </trkpt>
      <trkpt lat="42.345091" lon="1.841487">
        <ele>1217.887</ele>
        <time>2019-06-01T10:48:57Z</time>
      </trkpt>
      <trkpt lat="42.345113" lon="1.841578">
        <ele>1217.044</ele>
        <time>2019-06-01T10:48:58Z</time>
      </trkpt>
      <trkpt lat="42.345142" lon="1.841771">
        <ele>1215.652</ele>
        <time>2019-06-01T10:49:00Z</time>
      </trkpt>
      <trkpt lat="42.345151" lon="1.841872">
        <ele>1215.023</ele>
        <time>2019-06-01T10:49:01Z</time>
      </trkpt>
      <trkpt lat="42.345160" lon="1.841973">
        <ele>1214.651</ele>
        <time>2019-06-01T10:49:02Z</time>
      </trkpt>
      <trkpt lat="42.345139" lon="1.842292">
        <ele>1214.001</ele>
        <time>2019-06-01T10:49:05Z</time>
      </trkpt>
      <trkpt lat="42.345118" lon="1.842396">
        <ele>1213.611</ele>
        <time>2019-06-01T10:49:06Z</time>
      </trkpt>
      <trkpt lat="42.345098" lon="1.842495">
        <ele>1213.408</ele>
        <time>2019-06-01T10:49:07Z</time>
      </trkpt>
      <trkpt lat="42.345032" lon="1.842912">
        <ele>1211.878</ele>
        <time>2019-06-01T10:49:11Z</time>
      </trkpt>
      <trkpt lat="42.345028" lon="1.843013">
        <ele>1211.882</ele>
        <time>2019-06-01T10:49:12Z</time>
      </trkpt>
      <trkpt lat="42.345005" lon="1.843288">
        <ele>1212.868</ele>
        <time>2019-06-01T10:49:15Z</time>
      </trkpt>
      <trkpt lat="42.344990" lon="1.843456">
        <ele>1213.216</ele>
        <time>2019-06-01T10:49:17Z</time>
      </trkpt>
      <trkpt lat="42.344975" lon="1.843615">
        <ele>1213.870</ele>
        <time>2019-06-01T10:49:19Z</time>
      </trkpt>
      <trkpt lat="42.344932" lon="1.843883">
        <ele>1214.257</ele>
        <time>2019-06-01T10:49:23Z</time>
      </trkpt>
      <trkpt lat="42.344923" lon="1.844004">
        <ele>1214.825</ele>
        <time>2019-06-01T10:49:25Z</time>
      </trkpt>
      <trkpt lat="42.344919" lon="1.844062">
        <ele>1215.056</ele>
        <time>2019-06-01T10:49:26Z</time>
      </trkpt>
      <trkpt lat="42.344922" lon="1.844129">
        <ele>1215.047</ele>
        <time>2019-06-01T10:49:27Z</time>
      </trkpt>
      <trkpt lat="42.344935" lon="1.844257">
        <ele>1215.429</ele>
        <time>2019-06-01T10:49:29Z</time>
      </trkpt>
      <trkpt lat="42.345003" lon="1.844579">
        <ele>1216.021</ele>
        <time>2019-06-01T10:49:34Z</time>
      </trkpt>
      <trkpt lat="42.345030" lon="1.844704">
        <ele>1216.008</ele>
        <time>2019-06-01T10:49:36Z</time>
      </trkpt>
      <trkpt lat="42.345075" lon="1.844887">
        <ele>1215.887</ele>
        <time>2019-06-01T10:49:39Z</time>
      </trkpt>
      <trkpt lat="42.345115" lon="1.844998">
        <ele>1215.861</ele>
        <time>2019-06-01T10:49:41Z</time>
      </trkpt>
      <trkpt lat="42.345171" lon="1.845096">
        <ele>1215.867</ele>
        <time>2019-06-01T10:49:43Z</time>
      </trkpt>
      <trkpt lat="42.345360" lon="1.845251">
        <ele>1216.265</ele>
        <time>2019-06-01T10:49:48Z</time>
      </trkpt>
      <trkpt lat="42.345592" lon="1.845441">
        <ele>1216.479</ele>
        <time>2019-06-01T10:49:54Z</time>
      </trkpt>
      <trkpt lat="42.345623" lon="1.845475">
        <ele>1216.696</ele>
        <time>2019-06-01T10:49:55Z</time>
      </trkpt>
      <trkpt lat="42.345744" lon="1.845619">
        <ele>1216.814</ele>
        <time>2019-06-01T10:49:59Z</time>
      </trkpt>
      <trkpt lat="42.345785" lon="1.845712">
        <ele>1216.655</ele>
        <time>2019-06-01T10:50:01Z</time>
      </trkpt>
      <trkpt lat="42.345798" lon="1.845761">
        <ele>1217.041</ele>
        <time>2019-06-01T10:50:02Z</time>
      </trkpt>
      <trkpt lat="42.345846" lon="1.846006">
        <ele>1216.881</ele>
        <time>2019-06-01T10:50:07Z</time>
      </trkpt>
      <trkpt lat="42.345851" lon="1.846395">
        <ele>1216.809</ele>
        <time>2019-06-01T10:50:14Z</time>
      </trkpt>
      <trkpt lat="42.345843" lon="1.846718">
        <ele>1216.008</ele>
        <time>2019-06-01T10:50:19Z</time>
      </trkpt>
      <trkpt lat="42.345847" lon="1.846798">
        <ele>1215.417</ele>
        <time>2019-06-01T10:50:20Z</time>
      </trkpt>
      <trkpt lat="42.345873" lon="1.846972">
        <ele>1214.821</ele>
        <time>2019-06-01T10:50:22Z</time>
      </trkpt>
      <trkpt lat="42.345921" lon="1.847150">
        <ele>1213.647</ele>
        <time>2019-06-01T10:50:24Z</time>
      </trkpt>
      <trkpt lat="42.345948" lon="1.847240">
        <ele>1213.235</ele>
        <time>2019-06-01T10:50:25Z</time>
      </trkpt>
      <trkpt lat="42.345977" lon="1.847328">
        <ele>1213.049</ele>
        <time>2019-06-01T10:50:26Z</time>
      </trkpt>
      <trkpt lat="42.346001" lon="1.847418">
        <ele>1212.646</ele>
        <time>2019-06-01T10:50:27Z</time>
      </trkpt>
      <trkpt lat="42.346078" lon="1.847698">
        <ele>1212.264</ele>
        <time>2019-06-01T10:50:30Z</time>
      </trkpt>
      <trkpt lat="42.346261" lon="1.848190">
        <ele>1211.875</ele>
        <time>2019-06-01T10:50:36Z</time>
      </trkpt>
      <trkpt lat="42.346407" lon="1.848523">
        <ele>1212.444</ele>
        <time>2019-06-01T10:50:41Z</time>
      </trkpt>
      <trkpt lat="42.346455" lon="1.848653">
        <ele>1212.605</ele>
        <time>2019-06-01T10:50:43Z</time>
      </trkpt>
      <trkpt lat="42.346512" lon="1.848906">
        <ele>1212.415</ele>
        <time>2019-06-01T10:50:47Z</time>
      </trkpt>
      <trkpt lat="42.346602" lon="1.849171">
        <ele>1211.808</ele>
        <time>2019-06-01T10:50:51Z</time>
      </trkpt>
      <trkpt lat="42.346634" lon="1.849237">
        <ele>1211.467</ele>
        <time>2019-06-01T10:50:52Z</time>
      </trkpt>
      <trkpt lat="42.346698" lon="1.849356">
        <ele>1211.481</ele>
        <time>2019-06-01T10:50:54Z</time>
      </trkpt>
      <trkpt lat="42.346788" lon="1.849522">
        <ele>1211.887</ele>
        <time>2019-06-01T10:50:57Z</time>
      </trkpt>
      <trkpt lat="42.346902" lon="1.849741">
        <ele>1212.625</ele>
        <time>2019-06-01T10:51:01Z</time>
      </trkpt>
      <trkpt lat="42.347001" lon="1.849890">
        <ele>1212.659</ele>
        <time>2019-06-01T10:51:04Z</time>
      </trkpt>
      <trkpt lat="42.347247" lon="1.850241">
        <ele>1212.626</ele>
        <time>2019-06-01T10:51:11Z</time>
      </trkpt>
      <trkpt lat="42.347567" lon="1.850698">
        <ele>1212.224</ele>
        <time>2019-06-01T10:51:20Z</time>
      </trkpt>
      <trkpt lat="42.347657" lon="1.850840">
        <ele>1213.225</ele>
        <time>2019-06-01T10:51:23Z</time>
      </trkpt>
      <trkpt lat="42.347690" lon="1.850881">
        <ele>1213.672</ele>
        <time>2019-06-01T10:51:24Z</time>
      </trkpt>
      <trkpt lat="42.347783" lon="1.851019">
        <ele>1212.613</ele>
        <time>2019-06-01T10:51:27Z</time>
      </trkpt>
      <trkpt lat="42.347879" lon="1.851161">
        <ele>1212.414</ele>
        <time>2019-06-01T10:51:30Z</time>
      </trkpt>
      <trkpt lat="42.348057" lon="1.851390">
        <ele>1212.408</ele>
        <time>2019-06-01T10:51:35Z</time>
      </trkpt>
      <trkpt lat="42.348254" lon="1.851673">
        <ele>1212.430</ele>
        <time>2019-06-01T10:51:41Z</time>
      </trkpt>
      <trkpt lat="42.348280" lon="1.851726">
        <ele>1212.644</ele>
        <time>2019-06-01T10:51:42Z</time>
      </trkpt>
      <trkpt lat="42.348395" lon="1.851951">
        <ele>1212.840</ele>
        <time>2019-06-01T10:51:46Z</time>
      </trkpt>
      <trkpt lat="42.348459" lon="1.852131">
        <ele>1213.088</ele>
        <time>2019-06-01T10:51:49Z</time>
      </trkpt>
      <trkpt lat="42.348491" lon="1.852253">
        <ele>1213.282</ele>
        <time>2019-06-01T10:51:51Z</time>
      </trkpt>
      <trkpt lat="42.348516" lon="1.852433">
        <ele>1212.499</ele>
        <time>2019-06-01T10:51:54Z</time>
      </trkpt>
      <trkpt lat="42.348520" lon="1.852492">
        <ele>1213.297</ele>
        <time>2019-06-01T10:51:55Z</time>
      </trkpt>
      <trkpt lat="42.348548" lon="1.852590">
        <ele>1213.218</ele>
        <time>2019-06-01T10:51:57Z</time>
      </trkpt>
      <trkpt lat="42.348567" lon="1.852633">
        <ele>1213.275</ele>
        <time>2019-06-01T10:51:58Z</time>
      </trkpt>
      <trkpt lat="42.348635" lon="1.852760">
        <ele>1213.428</ele>
        <time>2019-06-01T10:52:01Z</time>
      </trkpt>
      <trkpt lat="42.348661" lon="1.852800">
        <ele>1213.420</ele>
        <time>2019-06-01T10:52:02Z</time>
      </trkpt>
      <trkpt lat="42.348758" lon="1.852975">
        <ele>1213.208</ele>
        <time>2019-06-01T10:52:07Z</time>
      </trkpt>
      <trkpt lat="42.348741" lon="1.852972">
        <ele>1213.480</ele>
        <time>2019-06-01T10:52:09Z</time>
      </trkpt>
      <trkpt lat="42.348739" lon="1.852955">
        <ele>1214.084</ele>
        <time>2019-06-01T10:52:10Z</time>
      </trkpt>
      <trkpt lat="42.348718" lon="1.852913">
        <ele>1213.820</ele>
        <time>2019-06-01T10:52:13Z</time>
      </trkpt>
      <trkpt lat="42.348707" lon="1.852908">
        <ele>1214.078</ele>
        <time>2019-06-01T10:52:14Z</time>
      </trkpt>
      <trkpt lat="42.348693" lon="1.852903">
        <ele>1214.042</ele>
        <time>2019-06-01T10:52:15Z</time>
      </trkpt>
      <trkpt lat="42.348680" lon="1.852902">
        <ele>1214.059</ele>
        <time>2019-06-01T10:52:16Z</time>
      </trkpt>
      <trkpt lat="42.348768" lon="1.853013">
        <ele>1216.047</ele>
        <time>2019-06-01T11:15:10Z</time>
      </trkpt>
      <trkpt lat="42.348912" lon="1.853059">
        <ele>1215.628</ele>
        <time>2019-06-01T11:15:15Z</time>
      </trkpt>
      <trkpt lat="42.348944" lon="1.853064">
        <ele>1215.495</ele>
        <time>2019-06-01T11:15:16Z</time>
      </trkpt>
      <trkpt lat="42.349183" lon="1.853141">
        <ele>1215.049</ele>
        <time>2019-06-01T11:15:22Z</time>
      </trkpt>
      <trkpt lat="42.349229" lon="1.853147">
        <ele>1215.223</ele>
        <time>2019-06-01T11:15:23Z</time>
      </trkpt>
      <trkpt lat="42.349371" lon="1.853168">
        <ele>1214.808</ele>
        <time>2019-06-01T11:15:26Z</time>
      </trkpt>
      <trkpt lat="42.349457" lon="1.853217">
        <ele>1214.892</ele>
        <time>2019-06-01T11:15:28Z</time>
      </trkpt>
      <trkpt lat="42.349573" lon="1.853337">
        <ele>1214.266</ele>
        <time>2019-06-01T11:15:31Z</time>
      </trkpt>
      <trkpt lat="42.349649" lon="1.853433">
        <ele>1214.042</ele>
        <time>2019-06-01T11:15:33Z</time>
      </trkpt>
      <trkpt lat="42.349758" lon="1.853578">
        <ele>1213.630</ele>
        <time>2019-06-01T11:15:36Z</time>
      </trkpt>
      <trkpt lat="42.349902" lon="1.853763">
        <ele>1213.654</ele>
        <time>2019-06-01T11:15:40Z</time>
      </trkpt>
      <trkpt lat="42.349981" lon="1.853841">
        <ele>1213.691</ele>
        <time>2019-06-01T11:15:42Z</time>
      </trkpt>
      <trkpt lat="42.350121" lon="1.853912">
        <ele>1213.419</ele>
        <time>2019-06-01T11:15:45Z</time>
      </trkpt>
      <trkpt lat="42.350166" lon="1.853930">
        <ele>1213.230</ele>
        <time>2019-06-01T11:15:46Z</time>
      </trkpt>
      <trkpt lat="42.350252" lon="1.853980">
        <ele>1212.812</ele>
        <time>2019-06-01T11:15:48Z</time>
      </trkpt>
      <trkpt lat="42.350316" lon="1.854069">
        <ele>1212.832</ele>
        <time>2019-06-01T11:15:50Z</time>
      </trkpt>
      <trkpt lat="42.350353" lon="1.854320">
        <ele>1213.205</ele>
        <time>2019-06-01T11:15:54Z</time>
      </trkpt>
      <trkpt lat="42.350347" lon="1.854385">
        <ele>1213.208</ele>
        <time>2019-06-01T11:15:55Z</time>
      </trkpt>
      <trkpt lat="42.350333" lon="1.854749">
        <ele>1212.664</ele>
        <time>2019-06-01T11:16:00Z</time>
      </trkpt>
      <trkpt lat="42.350333" lon="1.854824">
        <ele>1212.458</ele>
        <time>2019-06-01T11:16:01Z</time>
      </trkpt>
      <trkpt lat="42.350321" lon="1.855377">
        <ele>1211.814</ele>
        <time>2019-06-01T11:16:08Z</time>
      </trkpt>
      <trkpt lat="42.350316" lon="1.855538">
        <ele>1211.622</ele>
        <time>2019-06-01T11:16:10Z</time>
      </trkpt>
      <trkpt lat="42.350317" lon="1.855863">
        <ele>1211.296</ele>
        <time>2019-06-01T11:16:14Z</time>
      </trkpt>
      <trkpt lat="42.350321" lon="1.856025">
        <ele>1211.073</ele>
        <time>2019-06-01T11:16:16Z</time>
      </trkpt>
      <trkpt lat="42.350308" lon="1.856182">
        <ele>1210.611</ele>
        <time>2019-06-01T11:16:18Z</time>
      </trkpt>
      <trkpt lat="42.350296" lon="1.856339">
        <ele>1210.492</ele>
        <time>2019-06-01T11:16:20Z</time>
      </trkpt>
      <trkpt lat="42.350294" lon="1.856418">
        <ele>1210.626</ele>
        <time>2019-06-01T11:16:21Z</time>
      </trkpt>
      <trkpt lat="42.350292" lon="1.856746">
        <ele>1210.247</ele>
        <time>2019-06-01T11:16:25Z</time>
      </trkpt>
      <trkpt lat="42.350297" lon="1.856843">
        <ele>1209.811</ele>
        <time>2019-06-01T11:16:26Z</time>
      </trkpt>
      <trkpt lat="42.350308" lon="1.856937">
        <ele>1209.208</ele>
        <time>2019-06-01T11:16:27Z</time>
      </trkpt>
      <trkpt lat="42.350340" lon="1.857134">
        <ele>1207.815</ele>
        <time>2019-06-01T11:16:29Z</time>
      </trkpt>
      <trkpt lat="42.350397" lon="1.857342">
        <ele>1206.839</ele>
        <time>2019-06-01T11:16:31Z</time>
      </trkpt>
      <trkpt lat="42.350432" lon="1.857452">
        <ele>1206.485</ele>
        <time>2019-06-01T11:16:32Z</time>
      </trkpt>
      <trkpt lat="42.350513" lon="1.857667">
        <ele>1205.233</ele>
        <time>2019-06-01T11:16:34Z</time>
      </trkpt>
      <trkpt lat="42.350617" lon="1.857871">
        <ele>1204.017</ele>
        <time>2019-06-01T11:16:36Z</time>
      </trkpt>
      <trkpt lat="42.350679" lon="1.857966">
        <ele>1203.614</ele>
        <time>2019-06-01T11:16:37Z</time>
      </trkpt>
      <trkpt lat="42.350749" lon="1.858057">
        <ele>1203.062</ele>
        <time>2019-06-01T11:16:38Z</time>
      </trkpt>
      <trkpt lat="42.350892" lon="1.858249">
        <ele>1201.463</ele>
        <time>2019-06-01T11:16:40Z</time>
      </trkpt>
      <trkpt lat="42.351033" lon="1.858447">
        <ele>1200.094</ele>
        <time>2019-06-01T11:16:42Z</time>
      </trkpt>
      <trkpt lat="42.351173" lon="1.858646">
        <ele>1199.057</ele>
        <time>2019-06-01T11:16:44Z</time>
      </trkpt>
      <trkpt lat="42.351388" lon="1.858931">
        <ele>1197.822</ele>
        <time>2019-06-01T11:16:47Z</time>
      </trkpt>
      <trkpt lat="42.351524" lon="1.859108">
        <ele>1197.208</ele>
        <time>2019-06-01T11:16:49Z</time>
      </trkpt>
      <trkpt lat="42.351775" lon="1.859405">
        <ele>1198.452</ele>
        <time>2019-06-01T11:16:53Z</time>
      </trkpt>
      <trkpt lat="42.352184" lon="1.859729">
        <ele>1197.446</ele>
        <time>2019-06-01T11:16:59Z</time>
      </trkpt>
      <trkpt lat="42.352402" lon="1.859874">
        <ele>1197.482</ele>
        <time>2019-06-01T11:17:02Z</time>
      </trkpt>
      <trkpt lat="42.352528" lon="1.860016">
        <ele>1197.250</ele>
        <time>2019-06-01T11:17:04Z</time>
      </trkpt>
      <trkpt lat="42.352631" lon="1.860188">
        <ele>1196.494</ele>
        <time>2019-06-01T11:17:06Z</time>
      </trkpt>
      <trkpt lat="42.352704" lon="1.860377">
        <ele>1196.061</ele>
        <time>2019-06-01T11:17:08Z</time>
      </trkpt>
      <trkpt lat="42.352739" lon="1.860472">
        <ele>1195.839</ele>
        <time>2019-06-01T11:17:09Z</time>
      </trkpt>
      <trkpt lat="42.352912" lon="1.860797">
        <ele>1196.860</ele>
        <time>2019-06-01T11:17:13Z</time>
      </trkpt>
      <trkpt lat="42.352950" lon="1.860877">
        <ele>1196.237</ele>
        <time>2019-06-01T11:17:14Z</time>
      </trkpt>
      <trkpt lat="42.353078" lon="1.861197">
        <ele>1196.049</ele>
        <time>2019-06-01T11:17:18Z</time>
      </trkpt>
      <trkpt lat="42.353178" lon="1.861495">
        <ele>1195.213</ele>
        <time>2019-06-01T11:17:22Z</time>
      </trkpt>
      <trkpt lat="42.353311" lon="1.861894">
        <ele>1194.408</ele>
        <time>2019-06-01T11:17:27Z</time>
      </trkpt>
      <trkpt lat="42.353341" lon="1.861975">
        <ele>1194.236</ele>
        <time>2019-06-01T11:17:28Z</time>
      </trkpt>
      <trkpt lat="42.353433" lon="1.862229">
        <ele>1193.030</ele>
        <time>2019-06-01T11:17:31Z</time>
      </trkpt>
      <trkpt lat="42.353549" lon="1.862484">
        <ele>1191.886</ele>
        <time>2019-06-01T11:17:34Z</time>
      </trkpt>
      <trkpt lat="42.353652" lon="1.862644">
        <ele>1190.634</ele>
        <time>2019-06-01T11:17:36Z</time>
      </trkpt>
      <trkpt lat="42.353779" lon="1.862782">
        <ele>1189.878</ele>
        <time>2019-06-01T11:17:38Z</time>
      </trkpt>
      <trkpt lat="42.353849" lon="1.862846">
        <ele>1189.225</ele>
        <time>2019-06-01T11:17:39Z</time>
      </trkpt>
      <trkpt lat="42.354162" lon="1.863063">
        <ele>1188.023</ele>
        <time>2019-06-01T11:17:43Z</time>
      </trkpt>
      <trkpt lat="42.354662" lon="1.863397">
        <ele>1186.834</ele>
        <time>2019-06-01T11:17:49Z</time>
      </trkpt>
      <trkpt lat="42.354743" lon="1.863467">
        <ele>1186.225</ele>
        <time>2019-06-01T11:17:50Z</time>
      </trkpt>
      <trkpt lat="42.354821" lon="1.863543">
        <ele>1185.226</ele>
        <time>2019-06-01T11:17:51Z</time>
      </trkpt>
      <trkpt lat="42.355051" lon="1.863792">
        <ele>1183.208</ele>
        <time>2019-06-01T11:17:54Z</time>
      </trkpt>
      <trkpt lat="42.355197" lon="1.863962">
        <ele>1182.808</ele>
        <time>2019-06-01T11:17:56Z</time>
      </trkpt>
      <trkpt lat="42.355624" lon="1.864455">
        <ele>1182.275</ele>
        <time>2019-06-01T11:18:02Z</time>
      </trkpt>
      <trkpt lat="42.355694" lon="1.864536">
        <ele>1182.029</ele>
        <time>2019-06-01T11:18:03Z</time>
      </trkpt>
      <trkpt lat="42.355901" lon="1.864782">
        <ele>1181.815</ele>
        <time>2019-06-01T11:18:06Z</time>
      </trkpt>
      <trkpt lat="42.356340" lon="1.865289">
        <ele>1182.643</ele>
        <time>2019-06-01T11:18:13Z</time>
      </trkpt>
      <trkpt lat="42.356503" lon="1.865519">
        <ele>1183.467</ele>
        <time>2019-06-01T11:18:17Z</time>
      </trkpt>
      <trkpt lat="42.356578" lon="1.865640">
        <ele>1184.614</ele>
        <time>2019-06-01T11:18:20Z</time>
      </trkpt>
      <trkpt lat="42.356642" lon="1.865766">
        <ele>1184.092</ele>
        <time>2019-06-01T11:18:23Z</time>
      </trkpt>
      <trkpt lat="42.356741" lon="1.866031">
        <ele>1183.633</ele>
        <time>2019-06-01T11:18:28Z</time>
      </trkpt>
      <trkpt lat="42.356800" lon="1.866205">
        <ele>1183.434</ele>
        <time>2019-06-01T11:18:31Z</time>
      </trkpt>
      <trkpt lat="42.356987" lon="1.866674">
        <ele>1183.055</ele>
        <time>2019-06-01T11:18:39Z</time>
      </trkpt>
      <trkpt lat="42.357161" lon="1.866910">
        <ele>1183.010</ele>
        <time>2019-06-01T11:18:44Z</time>
      </trkpt>
      <trkpt lat="42.357274" lon="1.867032">
        <ele>1183.208</ele>
        <time>2019-06-01T11:18:47Z</time>
      </trkpt>
      <trkpt lat="42.357354" lon="1.867105">
        <ele>1183.426</ele>
        <time>2019-06-01T11:18:49Z</time>
      </trkpt>
      <trkpt lat="42.357524" lon="1.867214">
        <ele>1183.810</ele>
        <time>2019-06-01T11:18:53Z</time>
      </trkpt>
      <trkpt lat="42.357841" lon="1.867386">
        <ele>1184.256</ele>
        <time>2019-06-01T11:19:01Z</time>
      </trkpt>
      <trkpt lat="42.357949" lon="1.867439">
        <ele>1184.884</ele>
        <time>2019-06-01T11:19:04Z</time>
      </trkpt>
      <trkpt lat="42.358148" lon="1.867540">
        <ele>1185.678</ele>
        <time>2019-06-01T11:19:10Z</time>
      </trkpt>
      <trkpt lat="42.358184" lon="1.867559">
        <ele>1185.845</ele>
        <time>2019-06-01T11:19:11Z</time>
      </trkpt>
      <trkpt lat="42.358428" lon="1.867685">
        <ele>1186.453</ele>
        <time>2019-06-01T11:19:19Z</time>
      </trkpt>
      <trkpt lat="42.358538" lon="1.867749">
        <ele>1187.044</ele>
        <time>2019-06-01T11:19:23Z</time>
      </trkpt>
      <trkpt lat="42.358662" lon="1.867816">
        <ele>1187.462</ele>
        <time>2019-06-01T11:19:28Z</time>
      </trkpt>
      <trkpt lat="42.358739" lon="1.867872">
        <ele>1188.083</ele>
        <time>2019-06-01T11:19:31Z</time>
      </trkpt>
      <trkpt lat="42.358763" lon="1.867896">
        <ele>1188.211</ele>
        <time>2019-06-01T11:19:32Z</time>
      </trkpt>
      <trkpt lat="42.358841" lon="1.867965">
        <ele>1188.008</ele>
        <time>2019-06-01T11:19:35Z</time>
      </trkpt>
      <trkpt lat="42.359032" lon="1.868216">
        <ele>1188.299</ele>
        <time>2019-06-01T11:19:43Z</time>
      </trkpt>
      <trkpt lat="42.359193" lon="1.868549">
        <ele>1187.693</ele>
        <time>2019-06-01T11:19:50Z</time>
      </trkpt>
      <trkpt lat="42.359234" lon="1.868681">
        <ele>1187.059</ele>
        <time>2019-06-01T11:19:52Z</time>
      </trkpt>
      <trkpt lat="42.359284" lon="1.868907">
        <ele>1186.067</ele>
        <time>2019-06-01T11:19:55Z</time>
      </trkpt>
      <trkpt lat="42.359299" lon="1.869074">
        <ele>1185.461</ele>
        <time>2019-06-01T11:19:57Z</time>
      </trkpt>
      <trkpt lat="42.359311" lon="1.869252">
        <ele>1185.038</ele>
        <time>2019-06-01T11:19:59Z</time>
      </trkpt>
      <trkpt lat="42.359317" lon="1.869345">
        <ele>1184.636</ele>
        <time>2019-06-01T11:20:00Z</time>
      </trkpt>
      <trkpt lat="42.359329" lon="1.869740">
        <ele>1183.637</ele>
        <time>2019-06-01T11:20:04Z</time>
      </trkpt>
      <trkpt lat="42.359362" lon="1.870035">
        <ele>1183.279</ele>
        <time>2019-06-01T11:20:07Z</time>
      </trkpt>
      <trkpt lat="42.359446" lon="1.870400">
        <ele>1182.605</ele>
        <time>2019-06-01T11:20:11Z</time>
      </trkpt>
      <trkpt lat="42.359476" lon="1.870481">
        <ele>1182.025</ele>
        <time>2019-06-01T11:20:12Z</time>
      </trkpt>
      <trkpt lat="42.359587" lon="1.870700">
        <ele>1182.808</ele>
        <time>2019-06-01T11:20:15Z</time>
      </trkpt>
      <trkpt lat="42.359670" lon="1.870819">
        <ele>1182.660</ele>
        <time>2019-06-01T11:20:17Z</time>
      </trkpt>
      <trkpt lat="42.359757" lon="1.870932">
        <ele>1182.694</ele>
        <time>2019-06-01T11:20:19Z</time>
      </trkpt>
      <trkpt lat="42.359949" lon="1.871127">
        <ele>1182.840</ele>
        <time>2019-06-01T11:20:23Z</time>
      </trkpt>
      <trkpt lat="42.360082" lon="1.871279">
        <ele>1182.668</ele>
        <time>2019-06-01T11:20:26Z</time>
      </trkpt>
      <trkpt lat="42.360160" lon="1.871387">
        <ele>1182.872</ele>
        <time>2019-06-01T11:20:28Z</time>
      </trkpt>
      <trkpt lat="42.360207" lon="1.871522">
        <ele>1183.079</ele>
        <time>2019-06-01T11:20:30Z</time>
      </trkpt>
      <trkpt lat="42.360233" lon="1.871784">
        <ele>1183.447</ele>
        <time>2019-06-01T11:20:34Z</time>
      </trkpt>
      <trkpt lat="42.360239" lon="1.871834">
        <ele>1183.868</ele>
        <time>2019-06-01T11:20:35Z</time>
      </trkpt>
      <trkpt lat="42.360244" lon="1.871943">
        <ele>1184.895</ele>
        <time>2019-06-01T11:20:38Z</time>
      </trkpt>
      <trkpt lat="42.360244" lon="1.872052">
        <ele>1186.249</ele>
        <time>2019-06-01T11:20:42Z</time>
      </trkpt>
      <trkpt lat="42.360248" lon="1.872135">
        <ele>1187.023</ele>
        <time>2019-06-01T11:20:45Z</time>
      </trkpt>
      <trkpt lat="42.360257" lon="1.872190">
        <ele>1187.408</ele>
        <time>2019-06-01T11:20:47Z</time>
      </trkpt>
      <trkpt lat="42.360284" lon="1.872256">
        <ele>1188.072</ele>
        <time>2019-06-01T11:20:50Z</time>
      </trkpt>
      <trkpt lat="42.360310" lon="1.872304">
        <ele>1188.246</ele>
        <time>2019-06-01T11:20:52Z</time>
      </trkpt>
      <trkpt lat="42.360345" lon="1.872337">
        <ele>1188.462</ele>
        <time>2019-06-01T11:20:54Z</time>
      </trkpt>
      <trkpt lat="42.360367" lon="1.872352">
        <ele>1188.640</ele>
        <time>2019-06-01T11:20:55Z</time>
      </trkpt>
      <trkpt lat="42.360387" lon="1.872368">
        <ele>1188.894</ele>
        <time>2019-06-01T11:20:56Z</time>
      </trkpt>
      <trkpt lat="42.360489" lon="1.872465">
        <ele>1189.681</ele>
        <time>2019-06-01T11:21:02Z</time>
      </trkpt>
      <trkpt lat="42.360524" lon="1.872509">
        <ele>1189.429</ele>
        <time>2019-06-01T11:21:04Z</time>
      </trkpt>
      <trkpt lat="42.360663" lon="1.872708">
        <ele>1190.270</ele>
        <time>2019-06-01T11:21:13Z</time>
      </trkpt>
      <trkpt lat="42.360723" lon="1.872806">
        <ele>1190.284</ele>
        <time>2019-06-01T11:21:17Z</time>
      </trkpt>
      <trkpt lat="42.360767" lon="1.872874">
        <ele>1190.607</ele>
        <time>2019-06-01T11:21:20Z</time>
      </trkpt>
      <trkpt lat="42.360795" lon="1.872915">
        <ele>1190.617</ele>
        <time>2019-06-01T11:21:22Z</time>
      </trkpt>
      <trkpt lat="42.360899" lon="1.873095">
        <ele>1191.608</ele>
        <time>2019-06-01T11:21:30Z</time>
      </trkpt>
      <trkpt lat="42.360964" lon="1.873237">
        <ele>1192.261</ele>
        <time>2019-06-01T11:21:36Z</time>
      </trkpt>
      <trkpt lat="42.361000" lon="1.873310">
        <ele>1192.615</ele>
        <time>2019-06-01T11:21:39Z</time>
      </trkpt>
      <trkpt lat="42.361055" lon="1.873430">
        <ele>1193.491</ele>
        <time>2019-06-01T11:21:45Z</time>
      </trkpt>
      <trkpt lat="42.361081" lon="1.873499">
        <ele>1193.629</ele>
        <time>2019-06-01T11:21:48Z</time>
      </trkpt>
      <trkpt lat="42.361122" lon="1.873605">
        <ele>1194.233</ele>
        <time>2019-06-01T11:21:53Z</time>
      </trkpt>
      <trkpt lat="42.361135" lon="1.873642">
        <ele>1194.860</ele>
        <time>2019-06-01T11:21:55Z</time>
      </trkpt>
      <trkpt lat="42.361181" lon="1.873791">
        <ele>1195.848</ele>
        <time>2019-06-01T11:22:02Z</time>
      </trkpt>
      <trkpt lat="42.361187" lon="1.873811">
        <ele>1196.049</ele>
        <time>2019-06-01T11:22:03Z</time>
      </trkpt>
      <trkpt lat="42.361213" lon="1.874019">
        <ele>1196.815</ele>
        <time>2019-06-01T11:22:12Z</time>
      </trkpt>
      <trkpt lat="42.361229" lon="1.874173">
        <ele>1197.665</ele>
        <time>2019-06-01T11:22:19Z</time>
      </trkpt>
      <trkpt lat="42.361235" lon="1.874260">
        <ele>1198.011</ele>
        <time>2019-06-01T11:22:23Z</time>
      </trkpt>
      <trkpt lat="42.361241" lon="1.874344">
        <ele>1198.208</ele>
        <time>2019-06-01T11:22:27Z</time>
      </trkpt>
      <trkpt lat="42.361245" lon="1.874365">
        <ele>1198.224</ele>
        <time>2019-06-01T11:22:28Z</time>
      </trkpt>
      <trkpt lat="42.361255" lon="1.874430">
        <ele>1198.678</ele>
        <time>2019-06-01T11:22:31Z</time>
      </trkpt>
      <trkpt lat="42.361258" lon="1.874471">
        <ele>1198.874</ele>
        <time>2019-06-01T11:22:33Z</time>
      </trkpt>
      <trkpt lat="42.361264" lon="1.874509">
        <ele>1199.022</ele>
        <time>2019-06-01T11:22:35Z</time>
      </trkpt>
      <trkpt lat="42.361271" lon="1.874529">
        <ele>1199.256</ele>
        <time>2019-06-01T11:22:36Z</time>
      </trkpt>
      <trkpt lat="42.361287" lon="1.874603">
        <ele>1199.873</ele>
        <time>2019-06-01T11:22:40Z</time>
      </trkpt>
      <trkpt lat="42.361293" lon="1.874639">
        <ele>1200.281</ele>
        <time>2019-06-01T11:22:42Z</time>
      </trkpt>
      <trkpt lat="42.361315" lon="1.874740">
        <ele>1200.862</ele>
        <time>2019-06-01T11:22:48Z</time>
      </trkpt>
      <trkpt lat="42.361327" lon="1.874808">
        <ele>1201.294</ele>
        <time>2019-06-01T11:22:52Z</time>
      </trkpt>
      <trkpt lat="42.361352" lon="1.874912">
        <ele>1202.057</ele>
        <time>2019-06-01T11:22:58Z</time>
      </trkpt>
      <trkpt lat="42.361355" lon="1.874947">
        <ele>1202.422</ele>
        <time>2019-06-01T11:23:00Z</time>
      </trkpt>
      <trkpt lat="42.361376" lon="1.875050">
        <ele>1202.808</ele>
        <time>2019-06-01T11:23:06Z</time>
      </trkpt>
      <trkpt lat="42.361391" lon="1.875098">
        <ele>1203.442</ele>
        <time>2019-06-01T11:23:09Z</time>
      </trkpt>
      <trkpt lat="42.361405" lon="1.875180">
        <ele>1204.026</ele>
        <time>2019-06-01T11:23:14Z</time>
      </trkpt>
      <trkpt lat="42.361428" lon="1.875250">
        <ele>1204.652</ele>
        <time>2019-06-01T11:23:19Z</time>
      </trkpt>
      <trkpt lat="42.361435" lon="1.875300">
        <ele>1205.070</ele>
        <time>2019-06-01T11:23:22Z</time>
      </trkpt>
      <trkpt lat="42.361458" lon="1.875355">
        <ele>1205.624</ele>
        <time>2019-06-01T11:23:26Z</time>
      </trkpt>
      <trkpt lat="42.361473" lon="1.875399">
        <ele>1206.271</ele>
        <time>2019-06-01T11:23:29Z</time>
      </trkpt>
      <trkpt lat="42.361494" lon="1.875440">
        <ele>1206.859</ele>
        <time>2019-06-01T11:23:32Z</time>
      </trkpt>
      <trkpt lat="42.361518" lon="1.875512">
        <ele>1207.650</ele>
        <time>2019-06-01T11:23:37Z</time>
      </trkpt>
      <trkpt lat="42.361532" lon="1.875540">
        <ele>1207.826</ele>
        <time>2019-06-01T11:23:39Z</time>
      </trkpt>
      <trkpt lat="42.361581" lon="1.875653">
        <ele>1208.647</ele>
        <time>2019-06-01T11:23:47Z</time>
      </trkpt>
      <trkpt lat="42.361591" lon="1.875665">
        <ele>1208.811</ele>
        <time>2019-06-01T11:23:48Z</time>
      </trkpt>
      <trkpt lat="42.361627" lon="1.875762">
        <ele>1209.608</ele>
        <time>2019-06-01T11:23:55Z</time>
      </trkpt>
      <trkpt lat="42.361636" lon="1.875786">
        <ele>1210.045</ele>
        <time>2019-06-01T11:23:57Z</time>
      </trkpt>
      <trkpt lat="42.361668" lon="1.875844">
        <ele>1210.879</ele>
        <time>2019-06-01T11:24:02Z</time>
      </trkpt>
      <trkpt lat="42.361672" lon="1.875859">
        <ele>1211.015</ele>
        <time>2019-06-01T11:24:03Z</time>
      </trkpt>
      <trkpt lat="42.361678" lon="1.875889">
        <ele>1211.013</ele>
        <time>2019-06-01T11:24:05Z</time>
      </trkpt>
      <trkpt lat="42.361706" lon="1.875969">
        <ele>1212.077</ele>
        <time>2019-06-01T11:24:11Z</time>
      </trkpt>
      <trkpt lat="42.361717" lon="1.875994">
        <ele>1212.244</ele>
        <time>2019-06-01T11:24:13Z</time>
      </trkpt>
      <trkpt lat="42.361748" lon="1.876102">
        <ele>1213.232</ele>
        <time>2019-06-01T11:24:21Z</time>
      </trkpt>
      <trkpt lat="42.361805" lon="1.876239">
        <ele>1214.253</ele>
        <time>2019-06-01T11:24:31Z</time>
      </trkpt>
      <trkpt lat="42.361813" lon="1.876252">
        <ele>1214.489</ele>
        <time>2019-06-01T11:24:32Z</time>
      </trkpt>
      <trkpt lat="42.361838" lon="1.876304">
        <ele>1214.806</ele>
        <time>2019-06-01T11:24:36Z</time>
      </trkpt>
      <trkpt lat="42.361850" lon="1.876340">
        <ele>1215.026</ele>
        <time>2019-06-01T11:24:39Z</time>
      </trkpt>
      <trkpt lat="42.361863" lon="1.876382">
        <ele>1215.608</ele>
        <time>2019-06-01T11:24:42Z</time>
      </trkpt>
      <trkpt lat="42.361867" lon="1.876395">
        <ele>1215.831</ele>
        <time>2019-06-01T11:24:43Z</time>
      </trkpt>
      <trkpt lat="42.361909" lon="1.876446">
        <ele>1216.625</ele>
        <time>2019-06-01T11:24:48Z</time>
      </trkpt>
      <trkpt lat="42.361927" lon="1.876462">
        <ele>1216.891</ele>
        <time>2019-06-01T11:24:50Z</time>
      </trkpt>
      <trkpt lat="42.361970" lon="1.876522">
        <ele>1217.499</ele>
        <time>2019-06-01T11:24:56Z</time>
      </trkpt>
      <trkpt lat="42.362007" lon="1.876553">
        <ele>1217.873</ele>
        <time>2019-06-01T11:25:00Z</time>
      </trkpt>
      <trkpt lat="42.362036" lon="1.876574">
        <ele>1218.010</ele>
        <time>2019-06-01T11:25:03Z</time>
      </trkpt>
      <trkpt lat="42.362075" lon="1.876615">
        <ele>1218.698</ele>
        <time>2019-06-01T11:25:08Z</time>
      </trkpt>
      <trkpt lat="42.362089" lon="1.876630">
        <ele>1218.819</ele>
        <time>2019-06-01T11:25:10Z</time>
      </trkpt>
      <trkpt lat="42.362097" lon="1.876637">
        <ele>1219.082</ele>
        <time>2019-06-01T11:25:11Z</time>
      </trkpt>
      <trkpt lat="42.362116" lon="1.876649">
        <ele>1219.243</ele>
        <time>2019-06-01T11:25:13Z</time>
      </trkpt>
      <trkpt lat="42.362174" lon="1.876684">
        <ele>1219.817</ele>
        <time>2019-06-01T11:25:19Z</time>
      </trkpt>
      <trkpt lat="42.362181" lon="1.876693">
        <ele>1220.008</ele>
        <time>2019-06-01T11:25:20Z</time>
      </trkpt>
      <trkpt lat="42.362236" lon="1.876738">
        <ele>1220.681</ele>
        <time>2019-06-01T11:25:26Z</time>
      </trkpt>
      <trkpt lat="42.362269" lon="1.876770">
        <ele>1221.275</ele>
        <time>2019-06-01T11:25:30Z</time>
      </trkpt>
      <trkpt lat="42.362299" lon="1.876807">
        <ele>1221.451</ele>
        <time>2019-06-01T11:25:34Z</time>
      </trkpt>
      <trkpt lat="42.362319" lon="1.876825">
        <ele>1221.619</ele>
        <time>2019-06-01T11:25:36Z</time>
      </trkpt>
      <trkpt lat="42.362357" lon="1.876872">
        <ele>1222.253</ele>
        <time>2019-06-01T11:25:41Z</time>
      </trkpt>
      <trkpt lat="42.362375" lon="1.876887">
        <ele>1222.460</ele>
        <time>2019-06-01T11:25:43Z</time>
      </trkpt>
      <trkpt lat="42.362435" lon="1.876953">
        <ele>1223.078</ele>
        <time>2019-06-01T11:25:50Z</time>
      </trkpt>
      <trkpt lat="42.362453" lon="1.876974">
        <ele>1223.289</ele>
        <time>2019-06-01T11:25:52Z</time>
      </trkpt>
      <trkpt lat="42.362457" lon="1.876987">
        <ele>1223.279</ele>
        <time>2019-06-01T11:25:53Z</time>
      </trkpt>
      <trkpt lat="42.362494" lon="1.877023">
        <ele>1223.605</ele>
        <time>2019-06-01T11:25:57Z</time>
      </trkpt>
      <trkpt lat="42.362529" lon="1.877041">
        <ele>1223.825</ele>
        <time>2019-06-01T11:26:00Z</time>
      </trkpt>
      <trkpt lat="42.362538" lon="1.877065">
        <ele>1224.008</ele>
        <time>2019-06-01T11:26:02Z</time>
      </trkpt>
      <trkpt lat="42.362556" lon="1.877086">
        <ele>1224.030</ele>
        <time>2019-06-01T11:26:04Z</time>
      </trkpt>
      <trkpt lat="42.362568" lon="1.877091">
        <ele>1224.284</ele>
        <time>2019-06-01T11:26:05Z</time>
      </trkpt>
      <trkpt lat="42.362599" lon="1.877117">
        <ele>1224.450</ele>
        <time>2019-06-01T11:26:08Z</time>
      </trkpt>
      <trkpt lat="42.362651" lon="1.877148">
        <ele>1225.018</ele>
        <time>2019-06-01T11:26:13Z</time>
      </trkpt>
      <trkpt lat="42.362680" lon="1.877170">
        <ele>1225.212</ele>
        <time>2019-06-01T11:26:16Z</time>
      </trkpt>
      <trkpt lat="42.362720" lon="1.877188">
        <ele>1225.619</ele>
        <time>2019-06-01T11:26:20Z</time>
      </trkpt>
      <trkpt lat="42.362763" lon="1.877224">
        <ele>1226.277</ele>
        <time>2019-06-01T11:26:25Z</time>
      </trkpt>
      <trkpt lat="42.362785" lon="1.877227">
        <ele>1226.298</ele>
        <time>2019-06-01T11:26:27Z</time>
      </trkpt>
      <trkpt lat="42.362815" lon="1.877246">
        <ele>1226.452</ele>
        <time>2019-06-01T11:26:30Z</time>
      </trkpt>
      <trkpt lat="42.362847" lon="1.877257">
        <ele>1226.653</ele>
        <time>2019-06-01T11:26:33Z</time>
      </trkpt>
      <trkpt lat="42.362879" lon="1.877268">
        <ele>1227.008</ele>
        <time>2019-06-01T11:26:36Z</time>
      </trkpt>
      <trkpt lat="42.362899" lon="1.877275">
        <ele>1227.408</ele>
        <time>2019-06-01T11:26:38Z</time>
      </trkpt>
      <trkpt lat="42.362905" lon="1.877285">
        <ele>1227.418</ele>
        <time>2019-06-01T11:26:39Z</time>
      </trkpt>
      <trkpt lat="42.362949" lon="1.877297">
        <ele>1227.612</ele>
        <time>2019-06-01T11:26:43Z</time>
      </trkpt>
      <trkpt lat="42.363002" lon="1.877318">
        <ele>1228.428</ele>
        <time>2019-06-01T11:26:48Z</time>
      </trkpt>
      <trkpt lat="42.363042" lon="1.877328">
        <ele>1228.656</ele>
        <time>2019-06-01T11:26:51Z</time>
      </trkpt>
      <trkpt lat="42.363133" lon="1.877350">
        <ele>1229.280</ele>
        <time>2019-06-01T11:26:58Z</time>
      </trkpt>
      <trkpt lat="42.363158" lon="1.877353">
        <ele>1229.487</ele>
        <time>2019-06-01T11:27:00Z</time>
      </trkpt>
      <trkpt lat="42.363193" lon="1.877368">
        <ele>1229.825</ele>
        <time>2019-06-01T11:27:04Z</time>
      </trkpt>
      <trkpt lat="42.363258" lon="1.877388">
        <ele>1230.646</ele>
        <time>2019-06-01T11:27:10Z</time>
      </trkpt>
      <trkpt lat="42.363290" lon="1.877398">
        <ele>1231.098</ele>
        <time>2019-06-01T11:27:13Z</time>
      </trkpt>
      <trkpt lat="42.363358" lon="1.877418">
        <ele>1231.615</ele>
        <time>2019-06-01T11:27:19Z</time>
      </trkpt>
      <trkpt lat="42.363368" lon="1.877429">
        <ele>1231.826</ele>
        <time>2019-06-01T11:27:20Z</time>
      </trkpt>
      <trkpt lat="42.363389" lon="1.877439">
        <ele>1232.208</ele>
        <time>2019-06-01T11:27:22Z</time>
      </trkpt>
      <trkpt lat="42.363421" lon="1.877484">
        <ele>1232.672</ele>
        <time>2019-06-01T11:27:26Z</time>
      </trkpt>
      <trkpt lat="42.363424" lon="1.877500">
        <ele>1232.856</ele>
        <time>2019-06-01T11:27:27Z</time>
      </trkpt>
      <trkpt lat="42.363451" lon="1.877586">
        <ele>1234.092</ele>
        <time>2019-06-01T11:27:33Z</time>
      </trkpt>
      <trkpt lat="42.363451" lon="1.877619">
        <ele>1234.280</ele>
        <time>2019-06-01T11:27:35Z</time>
      </trkpt>
      <trkpt lat="42.363452" lon="1.877723">
        <ele>1235.284</ele>
        <time>2019-06-01T11:27:42Z</time>
      </trkpt>
      <trkpt lat="42.363441" lon="1.877836">
        <ele>1236.421</ele>
        <time>2019-06-01T11:27:49Z</time>
      </trkpt>
      <trkpt lat="42.363439" lon="1.877849">
        <ele>1236.479</ele>
        <time>2019-06-01T11:27:50Z</time>
      </trkpt>
      <trkpt lat="42.363414" lon="1.877911">
        <ele>1237.460</ele>
        <time>2019-06-01T11:27:55Z</time>
      </trkpt>
      <trkpt lat="42.363402" lon="1.877947">
        <ele>1237.842</ele>
        <time>2019-06-01T11:27:58Z</time>
      </trkpt>
      <trkpt lat="42.363369" lon="1.877991">
        <ele>1238.622</ele>
        <time>2019-06-01T11:28:02Z</time>
      </trkpt>
      <trkpt lat="42.363347" lon="1.878004">
        <ele>1239.014</ele>
        <time>2019-06-01T11:28:04Z</time>
      </trkpt>
      <trkpt lat="42.363325" lon="1.878006">
        <ele>1239.208</ele>
        <time>2019-06-01T11:28:06Z</time>
      </trkpt>
      <trkpt lat="42.363302" lon="1.878007">
        <ele>1239.667</ele>
        <time>2019-06-01T11:28:08Z</time>
      </trkpt>
      <trkpt lat="42.363268" lon="1.878011">
        <ele>1240.021</ele>
        <time>2019-06-01T11:28:11Z</time>
      </trkpt>
      <trkpt lat="42.363254" lon="1.878003">
        <ele>1240.237</ele>
        <time>2019-06-01T11:28:12Z</time>
      </trkpt>
      <trkpt lat="42.363234" lon="1.877983">
        <ele>1240.645</ele>
        <time>2019-06-01T11:28:14Z</time>
      </trkpt>
      <trkpt lat="42.363223" lon="1.877959">
        <ele>1241.069</ele>
        <time>2019-06-01T11:28:16Z</time>
      </trkpt>
      <trkpt lat="42.363192" lon="1.877946">
        <ele>1241.476</ele>
        <time>2019-06-01T11:28:19Z</time>
      </trkpt>
      <trkpt lat="42.363181" lon="1.877951">
        <ele>1241.674</ele>
        <time>2019-06-01T11:28:20Z</time>
      </trkpt>
      <trkpt lat="42.363169" lon="1.877949">
        <ele>1241.825</ele>
        <time>2019-06-01T11:28:21Z</time>
      </trkpt>
      <trkpt lat="42.363119" lon="1.877903">
        <ele>1242.431</ele>
        <time>2019-06-01T11:28:26Z</time>
      </trkpt>
      <trkpt lat="42.363107" lon="1.877903">
        <ele>1242.661</ele>
        <time>2019-06-01T11:28:27Z</time>
      </trkpt>
      <trkpt lat="42.363084" lon="1.877893">
        <ele>1242.807</ele>
        <time>2019-06-01T11:28:29Z</time>
      </trkpt>
      <trkpt lat="42.363025" lon="1.877849">
        <ele>1243.608</ele>
        <time>2019-06-01T11:28:35Z</time>
      </trkpt>
      <trkpt lat="42.362984" lon="1.877845">
        <ele>1244.036</ele>
        <time>2019-06-01T11:28:39Z</time>
      </trkpt>
      <trkpt lat="42.362952" lon="1.877834">
        <ele>1244.230</ele>
        <time>2019-06-01T11:28:42Z</time>
      </trkpt>
      <trkpt lat="42.362864" lon="1.877808">
        <ele>1245.056</ele>
        <time>2019-06-01T11:28:50Z</time>
      </trkpt>
      <trkpt lat="42.362854" lon="1.877809">
        <ele>1245.024</ele>
        <time>2019-06-01T11:28:51Z</time>
      </trkpt>
      <trkpt lat="42.362754" lon="1.877781">
        <ele>1245.678</ele>
        <time>2019-06-01T11:29:00Z</time>
      </trkpt>
      <trkpt lat="42.362724" lon="1.877774">
        <ele>1246.015</ele>
        <time>2019-06-01T11:29:03Z</time>
      </trkpt>
      <trkpt lat="42.362646" lon="1.877754">
        <ele>1246.863</ele>
        <time>2019-06-01T11:29:10Z</time>
      </trkpt>
      <trkpt lat="42.362604" lon="1.877739">
        <ele>1247.254</ele>
        <time>2019-06-01T11:29:14Z</time>
      </trkpt>
      <trkpt lat="42.362544" lon="1.877730">
        <ele>1247.812</ele>
        <time>2019-06-01T11:29:19Z</time>
      </trkpt>
      <trkpt lat="42.362508" lon="1.877738">
        <ele>1248.232</ele>
        <time>2019-06-01T11:29:22Z</time>
      </trkpt>
      <trkpt lat="42.362438" lon="1.877738">
        <ele>1248.805</ele>
        <time>2019-06-01T11:29:28Z</time>
      </trkpt>
      <trkpt lat="42.362376" lon="1.877738">
        <ele>1249.408</ele>
        <time>2019-06-01T11:29:34Z</time>
      </trkpt>
      <trkpt lat="42.362308" lon="1.877738">
        <ele>1249.824</ele>
        <time>2019-06-01T11:29:40Z</time>
      </trkpt>
      <trkpt lat="42.362229" lon="1.877747">
        <ele>1250.458</ele>
        <time>2019-06-01T11:29:47Z</time>
      </trkpt>
      <trkpt lat="42.362193" lon="1.877746">
        <ele>1250.864</ele>
        <time>2019-06-01T11:29:50Z</time>
      </trkpt>
      <trkpt lat="42.362139" lon="1.877758">
        <ele>1251.612</ele>
        <time>2019-06-01T11:29:55Z</time>
      </trkpt>
      <trkpt lat="42.362102" lon="1.877752">
        <ele>1252.026</ele>
        <time>2019-06-01T11:29:58Z</time>
      </trkpt>
      <trkpt lat="42.361998" lon="1.877741">
        <ele>1252.673</ele>
        <time>2019-06-01T11:30:07Z</time>
      </trkpt>
      <trkpt lat="42.361911" lon="1.877721">
        <ele>1253.481</ele>
        <time>2019-06-01T11:30:15Z</time>
      </trkpt>
      <trkpt lat="42.361890" lon="1.877724">
        <ele>1253.812</ele>
        <time>2019-06-01T11:30:17Z</time>
      </trkpt>
      <trkpt lat="42.361846" lon="1.877736">
        <ele>1254.652</ele>
        <time>2019-06-01T11:30:21Z</time>
      </trkpt>
      <trkpt lat="42.361827" lon="1.877744">
        <ele>1255.053</ele>
        <time>2019-06-01T11:30:23Z</time>
      </trkpt>
      <trkpt lat="42.361820" lon="1.877759">
        <ele>1255.208</ele>
        <time>2019-06-01T11:30:24Z</time>
      </trkpt>
      <trkpt lat="42.361793" lon="1.877789">
        <ele>1255.608</ele>
        <time>2019-06-01T11:30:27Z</time>
      </trkpt>
      <trkpt lat="42.361783" lon="1.877811">
        <ele>1255.848</ele>
        <time>2019-06-01T11:30:28Z</time>
      </trkpt>
      <trkpt lat="42.361773" lon="1.877851">
        <ele>1256.072</ele>
        <time>2019-06-01T11:30:30Z</time>
      </trkpt>
      <trkpt lat="42.361777" lon="1.877887">
        <ele>1256.418</ele>
        <time>2019-06-01T11:30:32Z</time>
      </trkpt>
      <trkpt lat="42.361784" lon="1.877917">
        <ele>1256.636</ele>
        <time>2019-06-01T11:30:34Z</time>
      </trkpt>
      <trkpt lat="42.361792" lon="1.877960">
        <ele>1257.060</ele>
        <time>2019-06-01T11:30:37Z</time>
      </trkpt>
      <trkpt lat="42.361802" lon="1.877987">
        <ele>1257.057</ele>
        <time>2019-06-01T11:30:39Z</time>
      </trkpt>
      <trkpt lat="42.361847" lon="1.878040">
        <ele>1255.235</ele>
        <time>2019-06-01T11:30:44Z</time>
      </trkpt>
      <trkpt lat="42.361860" lon="1.878048">
        <ele>1257.296</ele>
        <time>2019-06-01T11:30:45Z</time>
      </trkpt>
      <trkpt lat="42.361868" lon="1.878059">
        <ele>1256.896</ele>
        <time>2019-06-01T11:30:46Z</time>
      </trkpt>
      <trkpt lat="42.361875" lon="1.878071">
        <ele>1258.831</ele>
        <time>2019-06-01T11:30:47Z</time>
      </trkpt>
      <trkpt lat="42.361929" lon="1.878150">
        <ele>1259.024</ele>
        <time>2019-06-01T11:30:54Z</time>
      </trkpt>
      <trkpt lat="42.361990" lon="1.878240">
        <ele>1259.808</ele>
        <time>2019-06-01T11:31:02Z</time>
      </trkpt>
      <trkpt lat="42.362007" lon="1.878259">
        <ele>1260.092</ele>
        <time>2019-06-01T11:31:04Z</time>
      </trkpt>
      <trkpt lat="42.362047" lon="1.878348">
        <ele>1260.876</ele>
        <time>2019-06-01T11:31:11Z</time>
      </trkpt>
      <trkpt lat="42.362054" lon="1.878360">
        <ele>1261.022</ele>
        <time>2019-06-01T11:31:12Z</time>
      </trkpt>
      <trkpt lat="42.362088" lon="1.878457">
        <ele>1262.080</ele>
        <time>2019-06-01T11:31:19Z</time>
      </trkpt>
      <trkpt lat="42.362090" lon="1.878472">
        <ele>1262.244</ele>
        <time>2019-06-01T11:31:20Z</time>
      </trkpt>
      <trkpt lat="42.362099" lon="1.878483">
        <ele>1262.421</ele>
        <time>2019-06-01T11:31:21Z</time>
      </trkpt>
      <trkpt lat="42.362139" lon="1.878554">
        <ele>1263.049</ele>
        <time>2019-06-01T11:31:27Z</time>
      </trkpt>
      <trkpt lat="42.362139" lon="1.878570">
        <ele>1263.070</ele>
        <time>2019-06-01T11:31:28Z</time>
      </trkpt>
      <trkpt lat="42.362167" lon="1.878657">
        <ele>1264.234</ele>
        <time>2019-06-01T11:31:35Z</time>
      </trkpt>
      <trkpt lat="42.362204" lon="1.878760">
        <ele>1265.455</ele>
        <time>2019-06-01T11:31:43Z</time>
      </trkpt>
      <trkpt lat="42.362208" lon="1.878771">
        <ele>1265.410</ele>
        <time>2019-06-01T11:31:44Z</time>
      </trkpt>
      <trkpt lat="42.362250" lon="1.878880">
        <ele>1266.408</ele>
        <time>2019-06-01T11:31:52Z</time>
      </trkpt>
      <trkpt lat="42.362255" lon="1.878892">
        <ele>1266.446</ele>
        <time>2019-06-01T11:31:53Z</time>
      </trkpt>
      <trkpt lat="42.362270" lon="1.878948">
        <ele>1267.040</ele>
        <time>2019-06-01T11:31:57Z</time>
      </trkpt>
      <trkpt lat="42.362280" lon="1.878994">
        <ele>1267.686</ele>
        <time>2019-06-01T11:32:00Z</time>
      </trkpt>
      <trkpt lat="42.362283" lon="1.879007">
        <ele>1267.644</ele>
        <time>2019-06-01T11:32:01Z</time>
      </trkpt>
      <trkpt lat="42.362294" lon="1.879143">
        <ele>1268.418</ele>
        <time>2019-06-01T11:32:10Z</time>
      </trkpt>
      <trkpt lat="42.362297" lon="1.879156">
        <ele>1268.615</ele>
        <time>2019-06-01T11:32:11Z</time>
      </trkpt>
      <trkpt lat="42.362309" lon="1.879262">
        <ele>1269.243</ele>
        <time>2019-06-01T11:32:18Z</time>
      </trkpt>
      <trkpt lat="42.362315" lon="1.879306">
        <ele>1269.834</ele>
        <time>2019-06-01T11:32:21Z</time>
      </trkpt>
      <trkpt lat="42.362310" lon="1.879377">
        <ele>1270.219</ele>
        <time>2019-06-01T11:32:26Z</time>
      </trkpt>
      <trkpt lat="42.362300" lon="1.879457">
        <ele>1270.809</ele>
        <time>2019-06-01T11:32:31Z</time>
      </trkpt>
      <trkpt lat="42.362302" lon="1.879520">
        <ele>1271.019</ele>
        <time>2019-06-01T11:32:35Z</time>
      </trkpt>
      <trkpt lat="42.362297" lon="1.879621">
        <ele>1271.808</ele>
        <time>2019-06-01T11:32:42Z</time>
      </trkpt>
      <trkpt lat="42.362291" lon="1.879723">
        <ele>1272.694</ele>
        <time>2019-06-01T11:32:49Z</time>
      </trkpt>
      <trkpt lat="42.362299" lon="1.879754">
        <ele>1272.858</ele>
        <time>2019-06-01T11:32:51Z</time>
      </trkpt>
      <trkpt lat="42.362294" lon="1.879844">
        <ele>1273.454</ele>
        <time>2019-06-01T11:32:57Z</time>
      </trkpt>
      <trkpt lat="42.362292" lon="1.879919">
        <ele>1273.872</ele>
        <time>2019-06-01T11:33:02Z</time>
      </trkpt>
      <trkpt lat="42.362290" lon="1.879986">
        <ele>1274.496</ele>
        <time>2019-06-01T11:33:06Z</time>
      </trkpt>
      <trkpt lat="42.362298" lon="1.880042">
        <ele>1275.063</ele>
        <time>2019-06-01T11:33:10Z</time>
      </trkpt>
      <trkpt lat="42.362300" lon="1.880123">
        <ele>1275.671</ele>
        <time>2019-06-01T11:33:15Z</time>
      </trkpt>
      <trkpt lat="42.362299" lon="1.880174">
        <ele>1276.232</ele>
        <time>2019-06-01T11:33:19Z</time>
      </trkpt>
      <trkpt lat="42.362295" lon="1.880218">
        <ele>1276.614</ele>
        <time>2019-06-01T11:33:22Z</time>
      </trkpt>
      <trkpt lat="42.362288" lon="1.880290">
        <ele>1277.254</ele>
        <time>2019-06-01T11:33:27Z</time>
      </trkpt>
      <trkpt lat="42.362282" lon="1.880316">
        <ele>1277.409</ele>
        <time>2019-06-01T11:33:29Z</time>
      </trkpt>
      <trkpt lat="42.362265" lon="1.880362">
        <ele>1278.408</ele>
        <time>2019-06-01T11:33:32Z</time>
      </trkpt>
      <trkpt lat="42.362255" lon="1.880367">
        <ele>1278.674</ele>
        <time>2019-06-01T11:33:33Z</time>
      </trkpt>
      <trkpt lat="42.362237" lon="1.880376">
        <ele>1279.028</ele>
        <time>2019-06-01T11:33:35Z</time>
      </trkpt>
      <trkpt lat="42.362197" lon="1.880335">
        <ele>1279.424</ele>
        <time>2019-06-01T11:33:39Z</time>
      </trkpt>
      <trkpt lat="42.362189" lon="1.880320">
        <ele>1279.642</ele>
        <time>2019-06-01T11:33:40Z</time>
      </trkpt>
      <trkpt lat="42.362184" lon="1.880302">
        <ele>1279.646</ele>
        <time>2019-06-01T11:33:41Z</time>
      </trkpt>
      <trkpt lat="42.362139" lon="1.880227">
        <ele>1280.443</ele>
        <time>2019-06-01T11:33:47Z</time>
      </trkpt>
      <trkpt lat="42.362133" lon="1.880217">
        <ele>1280.671</ele>
        <time>2019-06-01T11:33:48Z</time>
      </trkpt>
      <trkpt lat="42.362087" lon="1.880114">
        <ele>1281.482</ele>
        <time>2019-06-01T11:33:56Z</time>
      </trkpt>
      <trkpt lat="42.362071" lon="1.880078">
        <ele>1280.618</ele>
        <time>2019-06-01T11:33:59Z</time>
      </trkpt>
      <trkpt lat="42.362056" lon="1.880055">
        <ele>1282.098</ele>
        <time>2019-06-01T11:34:01Z</time>
      </trkpt>
      <trkpt lat="42.362048" lon="1.880026">
        <ele>1283.017</ele>
        <time>2019-06-01T11:34:03Z</time>
      </trkpt>
      <trkpt lat="42.361995" lon="1.879912">
        <ele>1282.408</ele>
        <time>2019-06-01T11:34:11Z</time>
      </trkpt>
      <trkpt lat="42.361960" lon="1.879800">
        <ele>1283.694</ele>
        <time>2019-06-01T11:34:19Z</time>
      </trkpt>
      <trkpt lat="42.361931" lon="1.879741">
        <ele>1284.038</ele>
        <time>2019-06-01T11:34:23Z</time>
      </trkpt>
      <trkpt lat="42.361909" lon="1.879688">
        <ele>1284.484</ele>
        <time>2019-06-01T11:34:27Z</time>
      </trkpt>
      <trkpt lat="42.361886" lon="1.879589">
        <ele>1285.072</ele>
        <time>2019-06-01T11:34:34Z</time>
      </trkpt>
      <trkpt lat="42.361877" lon="1.879579">
        <ele>1285.476</ele>
        <time>2019-06-01T11:34:35Z</time>
      </trkpt>
      <trkpt lat="42.361863" lon="1.879501">
        <ele>1286.293</ele>
        <time>2019-06-01T11:34:41Z</time>
      </trkpt>
      <trkpt lat="42.361853" lon="1.879476">
        <ele>1286.481</ele>
        <time>2019-06-01T11:34:43Z</time>
      </trkpt>
      <trkpt lat="42.361822" lon="1.879426">
        <ele>1287.022</ele>
        <time>2019-06-01T11:34:47Z</time>
      </trkpt>
      <trkpt lat="42.361782" lon="1.879396">
        <ele>1287.475</ele>
        <time>2019-06-01T11:34:50Z</time>
      </trkpt>
      <trkpt lat="42.361715" lon="1.879468">
        <ele>1288.428</ele>
        <time>2019-06-01T11:34:59Z</time>
      </trkpt>
      <trkpt lat="42.361706" lon="1.879522">
        <ele>1288.820</ele>
        <time>2019-06-01T11:35:02Z</time>
      </trkpt>
      <trkpt lat="42.361701" lon="1.879569">
        <ele>1289.008</ele>
        <time>2019-06-01T11:35:05Z</time>
      </trkpt>
      <trkpt lat="42.361694" lon="1.879611">
        <ele>1289.620</ele>
        <time>2019-06-01T11:35:08Z</time>
      </trkpt>
      <trkpt lat="42.361697" lon="1.879626">
        <ele>1289.894</ele>
        <time>2019-06-01T11:35:09Z</time>
      </trkpt>
      <trkpt lat="42.361728" lon="1.879744">
        <ele>1290.890</ele>
        <time>2019-06-01T11:35:17Z</time>
      </trkpt>
      <trkpt lat="42.361734" lon="1.879768">
        <ele>1291.058</ele>
        <time>2019-06-01T11:35:19Z</time>
      </trkpt>
      <trkpt lat="42.361760" lon="1.879902">
        <ele>1291.882</ele>
        <time>2019-06-01T11:35:27Z</time>
      </trkpt>
      <trkpt lat="42.361757" lon="1.879916">
        <ele>1291.899</ele>
        <time>2019-06-01T11:35:28Z</time>
      </trkpt>
      <trkpt lat="42.361759" lon="1.879934">
        <ele>1292.067</ele>
        <time>2019-06-01T11:35:29Z</time>
      </trkpt>
      <trkpt lat="42.361766" lon="1.879990">
        <ele>1292.628</ele>
        <time>2019-06-01T11:35:33Z</time>
      </trkpt>
      <trkpt lat="42.361769" lon="1.880005">
        <ele>1292.855</ele>
        <time>2019-06-01T11:35:34Z</time>
      </trkpt>
      <trkpt lat="42.361771" lon="1.880017">
        <ele>1292.807</ele>
        <time>2019-06-01T11:35:35Z</time>
      </trkpt>
      <trkpt lat="42.361777" lon="1.880050">
        <ele>1291.217</ele>
        <time>2019-06-01T11:35:37Z</time>
      </trkpt>
      <trkpt lat="42.361786" lon="1.880093">
        <ele>1293.608</ele>
        <time>2019-06-01T11:35:40Z</time>
      </trkpt>
      <trkpt lat="42.361783" lon="1.880122">
        <ele>1293.418</ele>
        <time>2019-06-01T11:35:42Z</time>
      </trkpt>
      <trkpt lat="42.361805" lon="1.880225">
        <ele>1293.812</ele>
        <time>2019-06-01T11:35:49Z</time>
      </trkpt>
      <trkpt lat="42.361807" lon="1.880238">
        <ele>1293.838</ele>
        <time>2019-06-01T11:35:50Z</time>
      </trkpt>
      <trkpt lat="42.361837" lon="1.880338">
        <ele>1294.856</ele>
        <time>2019-06-01T11:35:57Z</time>
      </trkpt>
      <trkpt lat="42.361849" lon="1.880368">
        <ele>1294.810</ele>
        <time>2019-06-01T11:35:59Z</time>
      </trkpt>
      <trkpt lat="42.361875" lon="1.880444">
        <ele>1295.647</ele>
        <time>2019-06-01T11:36:05Z</time>
      </trkpt>
      <trkpt lat="42.361881" lon="1.880474">
        <ele>1295.835</ele>
        <time>2019-06-01T11:36:07Z</time>
      </trkpt>
      <trkpt lat="42.361919" lon="1.880568">
        <ele>1296.866</ele>
        <time>2019-06-01T11:36:14Z</time>
      </trkpt>
      <trkpt lat="42.361940" lon="1.880617">
        <ele>1297.025</ele>
        <time>2019-06-01T11:36:18Z</time>
      </trkpt>
      <trkpt lat="42.361965" lon="1.880710">
        <ele>1298.026</ele>
        <time>2019-06-01T11:36:24Z</time>
      </trkpt>
      <trkpt lat="42.361976" lon="1.880750">
        <ele>1298.208</ele>
        <time>2019-06-01T11:36:27Z</time>
      </trkpt>
      <trkpt lat="42.361997" lon="1.880807">
        <ele>1298.808</ele>
        <time>2019-06-01T11:36:31Z</time>
      </trkpt>
      <trkpt lat="42.361999" lon="1.880837">
        <ele>1299.295</ele>
        <time>2019-06-01T11:36:33Z</time>
      </trkpt>
      <trkpt lat="42.362005" lon="1.880865">
        <ele>1299.219</ele>
        <time>2019-06-01T11:36:35Z</time>
      </trkpt>
      <trkpt lat="42.362018" lon="1.880919">
        <ele>1299.665</ele>
        <time>2019-06-01T11:36:39Z</time>
      </trkpt>
      <trkpt lat="42.362023" lon="1.880949">
        <ele>1300.083</ele>
        <time>2019-06-01T11:36:41Z</time>
      </trkpt>
      <trkpt lat="42.362027" lon="1.880966">
        <ele>1300.227</ele>
        <time>2019-06-01T11:36:42Z</time>
      </trkpt>
      <trkpt lat="42.362024" lon="1.881013">
        <ele>1300.854</ele>
        <time>2019-06-01T11:36:45Z</time>
      </trkpt>
      <trkpt lat="42.362027" lon="1.881096">
        <ele>1301.482</ele>
        <time>2019-06-01T11:36:51Z</time>
      </trkpt>
      <trkpt lat="42.362027" lon="1.881252">
        <ele>1302.683</ele>
        <time>2019-06-01T11:37:01Z</time>
      </trkpt>
      <trkpt lat="42.362033" lon="1.881330">
        <ele>1303.289</ele>
        <time>2019-06-01T11:37:06Z</time>
      </trkpt>
      <trkpt lat="42.362033" lon="1.881362">
        <ele>1303.606</ele>
        <time>2019-06-01T11:37:08Z</time>
      </trkpt>
      <trkpt lat="42.362037" lon="1.881377">
        <ele>1303.826</ele>
        <time>2019-06-01T11:37:09Z</time>
      </trkpt>
      <trkpt lat="42.362072" lon="1.881478">
        <ele>1304.408</ele>
        <time>2019-06-01T11:37:16Z</time>
      </trkpt>
      <trkpt lat="42.362108" lon="1.881542">
        <ele>1304.871</ele>
        <time>2019-06-01T11:37:21Z</time>
      </trkpt>
      <trkpt lat="42.362140" lon="1.881566">
        <ele>1304.885</ele>
        <time>2019-06-01T11:37:24Z</time>
      </trkpt>
      <trkpt lat="42.362220" lon="1.881613">
        <ele>1305.631</ele>
        <time>2019-06-01T11:37:31Z</time>
      </trkpt>
      <trkpt lat="42.362260" lon="1.881617">
        <ele>1305.829</ele>
        <time>2019-06-01T11:37:34Z</time>
      </trkpt>
      <trkpt lat="42.362314" lon="1.881624">
        <ele>1306.023</ele>
        <time>2019-06-01T11:37:38Z</time>
      </trkpt>
      <trkpt lat="42.362392" lon="1.881651">
        <ele>1306.480</ele>
        <time>2019-06-01T11:37:45Z</time>
      </trkpt>
      <trkpt lat="42.362406" lon="1.881655">
        <ele>1306.468</ele>
        <time>2019-06-01T11:37:46Z</time>
      </trkpt>
      <trkpt lat="42.362491" lon="1.881699">
        <ele>1306.639</ele>
        <time>2019-06-01T11:37:54Z</time>
      </trkpt>
      <trkpt lat="42.362497" lon="1.881707">
        <ele>1307.044</ele>
        <time>2019-06-01T11:37:55Z</time>
      </trkpt>
      <trkpt lat="42.362540" lon="1.881737">
        <ele>1307.405</ele>
        <time>2019-06-01T11:37:59Z</time>
      </trkpt>
      <trkpt lat="42.362551" lon="1.881744">
        <ele>1307.415</ele>
        <time>2019-06-01T11:38:00Z</time>
      </trkpt>
      <trkpt lat="42.362586" lon="1.881776">
        <ele>1308.008</ele>
        <time>2019-06-01T11:38:04Z</time>
      </trkpt>
      <trkpt lat="42.362645" lon="1.881804">
        <ele>1308.457</ele>
        <time>2019-06-01T11:38:09Z</time>
      </trkpt>
      <trkpt lat="42.362688" lon="1.881804">
        <ele>1308.841</ele>
        <time>2019-06-01T11:38:13Z</time>
      </trkpt>
      <trkpt lat="42.362720" lon="1.881808">
        <ele>1309.077</ele>
        <time>2019-06-01T11:38:16Z</time>
      </trkpt>
      <trkpt lat="42.362732" lon="1.881803">
        <ele>1309.065</ele>
        <time>2019-06-01T11:38:17Z</time>
      </trkpt>
      <trkpt lat="42.362781" lon="1.881796">
        <ele>1309.479</ele>
        <time>2019-06-01T11:38:21Z</time>
      </trkpt>
      <trkpt lat="42.362823" lon="1.881797">
        <ele>1309.856</ele>
        <time>2019-06-01T11:38:24Z</time>
      </trkpt>
      <trkpt lat="42.362845" lon="1.881792">
        <ele>1310.084</ele>
        <time>2019-06-01T11:38:26Z</time>
      </trkpt>
      <trkpt lat="42.362856" lon="1.881790">
        <ele>1310.275</ele>
        <time>2019-06-01T11:38:27Z</time>
      </trkpt>
      <trkpt lat="42.362911" lon="1.881792">
        <ele>1310.689</ele>
        <time>2019-06-01T11:38:32Z</time>
      </trkpt>
      <trkpt lat="42.362946" lon="1.881796">
        <ele>1311.206</ele>
        <time>2019-06-01T11:38:35Z</time>
      </trkpt>
      <trkpt lat="42.362991" lon="1.881806">
        <ele>1311.626</ele>
        <time>2019-06-01T11:38:39Z</time>
      </trkpt>
      <trkpt lat="42.363028" lon="1.881812">
        <ele>1312.008</ele>
        <time>2019-06-01T11:38:43Z</time>
      </trkpt>
      <trkpt lat="42.363060" lon="1.881827">
        <ele>1312.231</ele>
        <time>2019-06-01T11:38:45Z</time>
      </trkpt>
      <trkpt lat="42.363072" lon="1.881832">
        <ele>1312.275</ele>
        <time>2019-06-01T11:38:46Z</time>
      </trkpt>
      <trkpt lat="42.363084" lon="1.881837">
        <ele>1312.231</ele>
        <time>2019-06-01T11:38:47Z</time>
      </trkpt>
      <trkpt lat="42.363132" lon="1.881863">
        <ele>1313.089</ele>
        <time>2019-06-01T11:38:52Z</time>
      </trkpt>
      <trkpt lat="42.363158" lon="1.881879">
        <ele>1313.263</ele>
        <time>2019-06-01T11:38:55Z</time>
      </trkpt>
      <trkpt lat="42.363200" lon="1.881907">
        <ele>1313.680</ele>
        <time>2019-06-01T11:38:59Z</time>
      </trkpt>
      <trkpt lat="42.363245" lon="1.881974">
        <ele>1314.458</ele>
        <time>2019-06-01T11:39:05Z</time>
      </trkpt>
      <trkpt lat="42.363260" lon="1.881997">
        <ele>1314.449</ele>
        <time>2019-06-01T11:39:07Z</time>
      </trkpt>
      <trkpt lat="42.363299" lon="1.882060">
        <ele>1315.488</ele>
        <time>2019-06-01T11:39:13Z</time>
      </trkpt>
      <trkpt lat="42.363307" lon="1.882091">
        <ele>1315.424</ele>
        <time>2019-06-01T11:39:15Z</time>
      </trkpt>
      <trkpt lat="42.363340" lon="1.882141">
        <ele>1315.826</ele>
        <time>2019-06-01T11:39:19Z</time>
      </trkpt>
      <trkpt lat="42.363358" lon="1.882178">
        <ele>1316.208</ele>
        <time>2019-06-01T11:39:22Z</time>
      </trkpt>
      <trkpt lat="42.363383" lon="1.882228">
        <ele>1316.431</ele>
        <time>2019-06-01T11:39:26Z</time>
      </trkpt>
      <trkpt lat="42.363417" lon="1.882290">
        <ele>1316.845</ele>
        <time>2019-06-01T11:39:31Z</time>
      </trkpt>
      <trkpt lat="42.363428" lon="1.882335">
        <ele>1317.621</ele>
        <time>2019-06-01T11:39:34Z</time>
      </trkpt>
      <trkpt lat="42.363444" lon="1.882395">
        <ele>1317.699</ele>
        <time>2019-06-01T11:39:38Z</time>
      </trkpt>
      <trkpt lat="42.363478" lon="1.882503">
        <ele>1318.413</ele>
        <time>2019-06-01T11:39:46Z</time>
      </trkpt>
      <trkpt lat="42.363491" lon="1.882534">
        <ele>1318.840</ele>
        <time>2019-06-01T11:39:48Z</time>
      </trkpt>
      <trkpt lat="42.363527" lon="1.882634">
        <ele>1319.428</ele>
        <time>2019-06-01T11:39:55Z</time>
      </trkpt>
      <trkpt lat="42.363537" lon="1.882661">
        <ele>1319.889</ele>
        <time>2019-06-01T11:39:57Z</time>
      </trkpt>
      <trkpt lat="42.363574" lon="1.882742">
        <ele>1320.231</ele>
        <time>2019-06-01T11:40:03Z</time>
      </trkpt>
      <trkpt lat="42.363588" lon="1.882779">
        <ele>1320.861</ele>
        <time>2019-06-01T11:40:06Z</time>
      </trkpt>
      <trkpt lat="42.363614" lon="1.882826">
        <ele>1321.207</ele>
        <time>2019-06-01T11:40:10Z</time>
      </trkpt>
      <trkpt lat="42.363636" lon="1.882906">
        <ele>1322.008</ele>
        <time>2019-06-01T11:40:16Z</time>
      </trkpt>
      <trkpt lat="42.363645" lon="1.882932">
        <ele>1322.086</ele>
        <time>2019-06-01T11:40:18Z</time>
      </trkpt>
      <trkpt lat="42.363691" lon="1.883011">
        <ele>1322.430</ele>
        <time>2019-06-01T11:40:24Z</time>
      </trkpt>
      <trkpt lat="42.363692" lon="1.883025">
        <ele>1322.666</ele>
        <time>2019-06-01T11:40:25Z</time>
      </trkpt>
      <trkpt lat="42.363703" lon="1.883080">
        <ele>1323.014</ele>
        <time>2019-06-01T11:40:29Z</time>
      </trkpt>
      <trkpt lat="42.363709" lon="1.883108">
        <ele>1323.268</ele>
        <time>2019-06-01T11:40:31Z</time>
      </trkpt>
      <trkpt lat="42.363715" lon="1.883124">
        <ele>1323.285</ele>
        <time>2019-06-01T11:40:32Z</time>
      </trkpt>
      <trkpt lat="42.363724" lon="1.883192">
        <ele>1323.673</ele>
        <time>2019-06-01T11:40:36Z</time>
      </trkpt>
      <trkpt lat="42.363727" lon="1.883251">
        <ele>1324.044</ele>
        <time>2019-06-01T11:40:40Z</time>
      </trkpt>
      <trkpt lat="42.363722" lon="1.883308">
        <ele>1324.668</ele>
        <time>2019-06-01T11:40:44Z</time>
      </trkpt>
      <trkpt lat="42.363720" lon="1.883336">
        <ele>1324.842</ele>
        <time>2019-06-01T11:40:46Z</time>
      </trkpt>
      <trkpt lat="42.363714" lon="1.883390">
        <ele>1325.026</ele>
        <time>2019-06-01T11:40:50Z</time>
      </trkpt>
      <trkpt lat="42.363712" lon="1.883420">
        <ele>1325.208</ele>
        <time>2019-06-01T11:40:52Z</time>
      </trkpt>
      <trkpt lat="42.363703" lon="1.883478">
        <ele>1325.899</ele>
        <time>2019-06-01T11:40:56Z</time>
      </trkpt>
      <trkpt lat="42.363689" lon="1.883520">
        <ele>1326.273</ele>
        <time>2019-06-01T11:40:59Z</time>
      </trkpt>
      <trkpt lat="42.363687" lon="1.883533">
        <ele>1326.469</ele>
        <time>2019-06-01T11:41:00Z</time>
      </trkpt>
      <trkpt lat="42.363680" lon="1.883651">
        <ele>1327.257</ele>
        <time>2019-06-01T11:41:08Z</time>
      </trkpt>
      <trkpt lat="42.363674" lon="1.883753">
        <ele>1328.291</ele>
        <time>2019-06-01T11:41:15Z</time>
      </trkpt>
      <trkpt lat="42.363671" lon="1.883800">
        <ele>1328.238</ele>
        <time>2019-06-01T11:41:18Z</time>
      </trkpt>
      <trkpt lat="42.363662" lon="1.883891">
        <ele>1329.056</ele>
        <time>2019-06-01T11:41:24Z</time>
      </trkpt>
      <trkpt lat="42.363661" lon="1.883968">
        <ele>1329.257</ele>
        <time>2019-06-01T11:41:29Z</time>
      </trkpt>
      <trkpt lat="42.363662" lon="1.884011">
        <ele>1329.631</ele>
        <time>2019-06-01T11:41:32Z</time>
      </trkpt>
      <trkpt lat="42.363656" lon="1.884120">
        <ele>1330.461</ele>
        <time>2019-06-01T11:41:39Z</time>
      </trkpt>
      <trkpt lat="42.363658" lon="1.884137">
        <ele>1330.607</ele>
        <time>2019-06-01T11:41:40Z</time>
      </trkpt>
      <trkpt lat="42.363655" lon="1.884150">
        <ele>1330.608</ele>
        <time>2019-06-01T11:41:41Z</time>
      </trkpt>
      <trkpt lat="42.363643" lon="1.884205">
        <ele>1331.076</ele>
        <time>2019-06-01T11:41:45Z</time>
      </trkpt>
      <trkpt lat="42.363644" lon="1.884265">
        <ele>1331.430</ele>
        <time>2019-06-01T11:41:49Z</time>
      </trkpt>
      <trkpt lat="42.363639" lon="1.884319">
        <ele>1331.826</ele>
        <time>2019-06-01T11:41:53Z</time>
      </trkpt>
      <trkpt lat="42.363627" lon="1.884370">
        <ele>1332.424</ele>
        <time>2019-06-01T11:41:57Z</time>
      </trkpt>
      <trkpt lat="42.363618" lon="1.884422">
        <ele>1332.618</ele>
        <time>2019-06-01T11:42:00Z</time>
      </trkpt>
      <trkpt lat="42.363600" lon="1.884576">
        <ele>1333.435</ele>
        <time>2019-06-01T11:42:10Z</time>
      </trkpt>
      <trkpt lat="42.363597" lon="1.884593">
        <ele>1333.683</ele>
        <time>2019-06-01T11:42:11Z</time>
      </trkpt>
      <trkpt lat="42.363577" lon="1.884717">
        <ele>1334.254</ele>
        <time>2019-06-01T11:42:19Z</time>
      </trkpt>
      <trkpt lat="42.363571" lon="1.884763">
        <ele>1334.663</ele>
        <time>2019-06-01T11:42:22Z</time>
      </trkpt>
      <trkpt lat="42.363552" lon="1.884846">
        <ele>1335.244</ele>
        <time>2019-06-01T11:42:28Z</time>
      </trkpt>
      <trkpt lat="42.363531" lon="1.884916">
        <ele>1335.618</ele>
        <time>2019-06-01T11:42:33Z</time>
      </trkpt>
      <trkpt lat="42.363528" lon="1.884930">
        <ele>1335.808</ele>
        <time>2019-06-01T11:42:34Z</time>
      </trkpt>
      <trkpt lat="42.363522" lon="1.884971">
        <ele>1336.059</ele>
        <time>2019-06-01T11:42:37Z</time>
      </trkpt>
      <trkpt lat="42.363499" lon="1.885068">
        <ele>1336.853</ele>
        <time>2019-06-01T11:42:44Z</time>
      </trkpt>
      <trkpt lat="42.363490" lon="1.885091">
        <ele>1337.039</ele>
        <time>2019-06-01T11:42:46Z</time>
      </trkpt>
      <trkpt lat="42.363439" lon="1.885222">
        <ele>1337.617</ele>
        <time>2019-06-01T11:42:54Z</time>
      </trkpt>
      <trkpt lat="42.363429" lon="1.885251">
        <ele>1337.871</ele>
        <time>2019-06-01T11:42:56Z</time>
      </trkpt>
      <trkpt lat="42.363392" lon="1.885340">
        <ele>1338.438</ele>
        <time>2019-06-01T11:43:02Z</time>
      </trkpt>
      <trkpt lat="42.363346" lon="1.885418">
        <ele>1339.096</ele>
        <time>2019-06-01T11:43:08Z</time>
      </trkpt>
      <trkpt lat="42.363334" lon="1.885446">
        <ele>1339.257</ele>
        <time>2019-06-01T11:43:10Z</time>
      </trkpt>
      <trkpt lat="42.363274" lon="1.885546">
        <ele>1339.839</ele>
        <time>2019-06-01T11:43:18Z</time>
      </trkpt>
      <trkpt lat="42.363245" lon="1.885570">
        <ele>1340.201</ele>
        <time>2019-06-01T11:43:21Z</time>
      </trkpt>
      <trkpt lat="42.363209" lon="1.885612">
        <ele>1340.421</ele>
        <time>2019-06-01T11:43:25Z</time>
      </trkpt>
      <trkpt lat="42.363123" lon="1.885668">
        <ele>1341.208</ele>
        <time>2019-06-01T11:43:32Z</time>
      </trkpt>
      <trkpt lat="42.363099" lon="1.885683">
        <ele>1341.436</ele>
        <time>2019-06-01T11:43:34Z</time>
      </trkpt>
      <trkpt lat="42.362999" lon="1.885726">
        <ele>1341.810</ele>
        <time>2019-06-01T11:43:42Z</time>
      </trkpt>
      <trkpt lat="42.362916" lon="1.885756">
        <ele>1342.446</ele>
        <time>2019-06-01T11:43:49Z</time>
      </trkpt>
      <trkpt lat="42.362904" lon="1.885762">
        <ele>1342.454</ele>
        <time>2019-06-01T11:43:50Z</time>
      </trkpt>
      <trkpt lat="42.362810" lon="1.885794">
        <ele>1343.418</ele>
        <time>2019-06-01T11:43:58Z</time>
      </trkpt>
      <trkpt lat="42.362800" lon="1.885801">
        <ele>1343.495</ele>
        <time>2019-06-01T11:43:59Z</time>
      </trkpt>
      <trkpt lat="42.362778" lon="1.885817">
        <ele>1343.423</ele>
        <time>2019-06-01T11:44:01Z</time>
      </trkpt>
      <trkpt lat="42.362734" lon="1.885875">
        <ele>1343.874</ele>
        <time>2019-06-01T11:44:06Z</time>
      </trkpt>
      <trkpt lat="42.362720" lon="1.885960">
        <ele>1344.219</ele>
        <time>2019-06-01T11:44:11Z</time>
      </trkpt>
      <trkpt lat="42.362729" lon="1.886046">
        <ele>1344.409</ele>
        <time>2019-06-01T11:44:16Z</time>
      </trkpt>
      <trkpt lat="42.362741" lon="1.886091">
        <ele>1344.619</ele>
        <time>2019-06-01T11:44:19Z</time>
      </trkpt>
      <trkpt lat="42.362796" lon="1.886198">
        <ele>1345.608</ele>
        <time>2019-06-01T11:44:27Z</time>
      </trkpt>
      <trkpt lat="42.362825" lon="1.886227">
        <ele>1345.464</ele>
        <time>2019-06-01T11:44:30Z</time>
      </trkpt>
      <trkpt lat="42.362855" lon="1.886260">
        <ele>1345.878</ele>
        <time>2019-06-01T11:44:33Z</time>
      </trkpt>
      <trkpt lat="42.362864" lon="1.886272">
        <ele>1345.824</ele>
        <time>2019-06-01T11:44:34Z</time>
      </trkpt>
      <trkpt lat="42.362938" lon="1.886364">
        <ele>1346.622</ele>
        <time>2019-06-01T11:44:42Z</time>
      </trkpt>
      <trkpt lat="42.362950" lon="1.886375">
        <ele>1346.896</ele>
        <time>2019-06-01T11:44:43Z</time>
      </trkpt>
      <trkpt lat="42.362979" lon="1.886405">
        <ele>1347.263</ele>
        <time>2019-06-01T11:44:46Z</time>
      </trkpt>
      <trkpt lat="42.363017" lon="1.886456">
        <ele>1347.661</ele>
        <time>2019-06-01T11:44:50Z</time>
      </trkpt>
      <trkpt lat="42.363044" lon="1.886473">
        <ele>1347.642</ele>
        <time>2019-06-01T11:44:52Z</time>
      </trkpt>
      <trkpt lat="42.363098" lon="1.886524">
        <ele>1348.078</ele>
        <time>2019-06-01T11:44:56Z</time>
      </trkpt>
      <trkpt lat="42.363178" lon="1.886586">
        <ele>1348.633</ele>
        <time>2019-06-01T11:45:01Z</time>
      </trkpt>
      <trkpt lat="42.363209" lon="1.886605">
        <ele>1348.826</ele>
        <time>2019-06-01T11:45:03Z</time>
      </trkpt>
      <trkpt lat="42.363312" lon="1.886661">
        <ele>1349.608</ele>
        <time>2019-06-01T11:45:10Z</time>
      </trkpt>
      <trkpt lat="42.363426" lon="1.886689">
        <ele>1350.450</ele>
        <time>2019-06-01T11:45:17Z</time>
      </trkpt>
      <trkpt lat="42.363515" lon="1.886672">
        <ele>1350.894</ele>
        <time>2019-06-01T11:45:22Z</time>
      </trkpt>
      <trkpt lat="42.363669" lon="1.886664">
        <ele>1352.090</ele>
        <time>2019-06-01T11:45:31Z</time>
      </trkpt>
      <trkpt lat="42.363761" lon="1.886685">
        <ele>1353.298</ele>
        <time>2019-06-01T11:45:36Z</time>
      </trkpt>
      <trkpt lat="42.363778" lon="1.886692">
        <ele>1353.252</ele>
        <time>2019-06-01T11:45:37Z</time>
      </trkpt>
      <trkpt lat="42.363903" lon="1.886677">
        <ele>1353.429</ele>
        <time>2019-06-01T11:45:43Z</time>
      </trkpt>
      <trkpt lat="42.363949" lon="1.886639">
        <ele>1352.067</ele>
        <time>2019-06-01T11:45:45Z</time>
      </trkpt>
      <trkpt lat="42.364022" lon="1.886548">
        <ele>1351.698</ele>
        <time>2019-06-01T11:45:48Z</time>
      </trkpt>
      <trkpt lat="42.364054" lon="1.886512">
        <ele>1350.894</ele>
        <time>2019-06-01T11:45:49Z</time>
      </trkpt>
      <trkpt lat="42.364157" lon="1.886379">
        <ele>1349.857</ele>
        <time>2019-06-01T11:45:52Z</time>
      </trkpt>
      <trkpt lat="42.364193" lon="1.886333">
        <ele>1349.422</ele>
        <time>2019-06-01T11:45:53Z</time>
      </trkpt>
      <trkpt lat="42.364228" lon="1.886284">
        <ele>1349.008</ele>
        <time>2019-06-01T11:45:54Z</time>
      </trkpt>
      <trkpt lat="42.364260" lon="1.886231">
        <ele>1348.682</ele>
        <time>2019-06-01T11:45:55Z</time>
      </trkpt>
      <trkpt lat="42.364351" lon="1.886049">
        <ele>1347.476</ele>
        <time>2019-06-01T11:45:58Z</time>
      </trkpt>
      <trkpt lat="42.364377" lon="1.885979">
        <ele>1347.272</ele>
        <time>2019-06-01T11:45:59Z</time>
      </trkpt>
      <trkpt lat="42.364448" lon="1.885762">
        <ele>1346.290</ele>
        <time>2019-06-01T11:46:02Z</time>
      </trkpt>
      <trkpt lat="42.364498" lon="1.885617">
        <ele>1345.034</ele>
        <time>2019-06-01T11:46:04Z</time>
      </trkpt>
      <trkpt lat="42.364533" lon="1.885549">
        <ele>1344.871</ele>
        <time>2019-06-01T11:46:05Z</time>
      </trkpt>
      <trkpt lat="42.364634" lon="1.885452">
        <ele>1344.249</ele>
        <time>2019-06-01T11:46:07Z</time>
      </trkpt>
      <trkpt lat="42.364699" lon="1.885431">
        <ele>1343.620</ele>
        <time>2019-06-01T11:46:08Z</time>
      </trkpt>
      <trkpt lat="42.364839" lon="1.885418">
        <ele>1342.256</ele>
        <time>2019-06-01T11:46:10Z</time>
      </trkpt>
      <trkpt lat="42.364914" lon="1.885416">
        <ele>1341.659</ele>
        <time>2019-06-01T11:46:11Z</time>
      </trkpt>
      <trkpt lat="42.364990" lon="1.885415">
        <ele>1341.014</ele>
        <time>2019-06-01T11:46:12Z</time>
      </trkpt>
      <trkpt lat="42.365148" lon="1.885410">
        <ele>1339.608</ele>
        <time>2019-06-01T11:46:14Z</time>
      </trkpt>
      <trkpt lat="42.365314" lon="1.885392">
        <ele>1338.678</ele>
        <time>2019-06-01T11:46:16Z</time>
      </trkpt>
      <trkpt lat="42.365400" lon="1.885377">
        <ele>1338.042</ele>
        <time>2019-06-01T11:46:17Z</time>
      </trkpt>
      <trkpt lat="42.365489" lon="1.885367">
        <ele>1337.228</ele>
        <time>2019-06-01T11:46:18Z</time>
      </trkpt>
      <trkpt lat="42.365675" lon="1.885373">
        <ele>1335.286</ele>
        <time>2019-06-01T11:46:20Z</time>
      </trkpt>
      <trkpt lat="42.365762" lon="1.885389">
        <ele>1334.420</ele>
        <time>2019-06-01T11:46:21Z</time>
      </trkpt>
      <trkpt lat="42.365840" lon="1.885414">
        <ele>1333.857</ele>
        <time>2019-06-01T11:46:22Z</time>
      </trkpt>
      <trkpt lat="42.365999" lon="1.885493">
        <ele>1332.645</ele>
        <time>2019-06-01T11:46:24Z</time>
      </trkpt>
      <trkpt lat="42.366072" lon="1.885554">
        <ele>1332.236</ele>
        <time>2019-06-01T11:46:25Z</time>
      </trkpt>
      <trkpt lat="42.366231" lon="1.885825">
        <ele>1330.874</ele>
        <time>2019-06-01T11:46:28Z</time>
      </trkpt>
      <trkpt lat="42.366302" lon="1.886067">
        <ele>1329.056</ele>
        <time>2019-06-01T11:46:30Z</time>
      </trkpt>
      <trkpt lat="42.366378" lon="1.886326">
        <ele>1327.421</ele>
        <time>2019-06-01T11:46:32Z</time>
      </trkpt>
      <trkpt lat="42.366417" lon="1.886460">
        <ele>1326.208</ele>
        <time>2019-06-01T11:46:33Z</time>
      </trkpt>
      <trkpt lat="42.366502" lon="1.886734">
        <ele>1324.850</ele>
        <time>2019-06-01T11:46:35Z</time>
      </trkpt>
      <trkpt lat="42.366580" lon="1.887010">
        <ele>1323.484</ele>
        <time>2019-06-01T11:46:37Z</time>
      </trkpt>
      <trkpt lat="42.366617" lon="1.887151">
        <ele>1322.640</ele>
        <time>2019-06-01T11:46:38Z</time>
      </trkpt>
      <trkpt lat="42.366661" lon="1.887286">
        <ele>1321.638</ele>
        <time>2019-06-01T11:46:39Z</time>
      </trkpt>
      <trkpt lat="42.366784" lon="1.887528">
        <ele>1320.072</ele>
        <time>2019-06-01T11:46:41Z</time>
      </trkpt>
      <trkpt lat="42.366943" lon="1.887745">
        <ele>1318.699</ele>
        <time>2019-06-01T11:46:43Z</time>
      </trkpt>
      <trkpt lat="42.367118" lon="1.887941">
        <ele>1316.217</ele>
        <time>2019-06-01T11:46:45Z</time>
      </trkpt>
      <trkpt lat="42.367291" lon="1.888132">
        <ele>1314.458</ele>
        <time>2019-06-01T11:46:47Z</time>
      </trkpt>
      <trkpt lat="42.367366" lon="1.888248">
        <ele>1313.469</ele>
        <time>2019-06-01T11:46:48Z</time>
      </trkpt>
      <trkpt lat="42.367429" lon="1.888380">
        <ele>1312.404</ele>
        <time>2019-06-01T11:46:49Z</time>
      </trkpt>
      <trkpt lat="42.367481" lon="1.888525">
        <ele>1311.224</ele>
        <time>2019-06-01T11:46:50Z</time>
      </trkpt>
      <trkpt lat="42.367560" lon="1.888823">
        <ele>1309.208</ele>
        <time>2019-06-01T11:46:52Z</time>
      </trkpt>
      <trkpt lat="42.367609" lon="1.889099">
        <ele>1308.279</ele>
        <time>2019-06-01T11:46:54Z</time>
      </trkpt>
      <trkpt lat="42.367618" lon="1.889219">
        <ele>1307.863</ele>
        <time>2019-06-01T11:46:55Z</time>
      </trkpt>
      <trkpt lat="42.367575" lon="1.889408">
        <ele>1307.859</ele>
        <time>2019-06-01T11:46:57Z</time>
      </trkpt>
      <trkpt lat="42.367441" lon="1.889480">
        <ele>1307.257</ele>
        <time>2019-06-01T11:46:59Z</time>
      </trkpt>
      <trkpt lat="42.367358" lon="1.889461">
        <ele>1306.441</ele>
        <time>2019-06-01T11:47:00Z</time>
      </trkpt>
      <trkpt lat="42.367193" lon="1.889390">
        <ele>1304.648</ele>
        <time>2019-06-01T11:47:02Z</time>
      </trkpt>
      <trkpt lat="42.367013" lon="1.889321">
        <ele>1302.876</ele>
        <time>2019-06-01T11:47:04Z</time>
      </trkpt>
      <trkpt lat="42.366824" lon="1.889242">
        <ele>1301.037</ele>
        <time>2019-06-01T11:47:06Z</time>
      </trkpt>
      <trkpt lat="42.366725" lon="1.889207">
        <ele>1300.271</ele>
        <time>2019-06-01T11:47:07Z</time>
      </trkpt>
      <trkpt lat="42.366621" lon="1.889186">
        <ele>1299.441</ele>
        <time>2019-06-01T11:47:08Z</time>
      </trkpt>
      <trkpt lat="42.366513" lon="1.889187">
        <ele>1297.415</ele>
        <time>2019-06-01T11:47:09Z</time>
      </trkpt>
      <trkpt lat="42.366406" lon="1.889211">
        <ele>1296.408</ele>
        <time>2019-06-01T11:47:10Z</time>
      </trkpt>
      <trkpt lat="42.366300" lon="1.889260">
        <ele>1295.680</ele>
        <time>2019-06-01T11:47:11Z</time>
      </trkpt>
      <trkpt lat="42.366113" lon="1.889435">
        <ele>1294.094</ele>
        <time>2019-06-01T11:47:13Z</time>
      </trkpt>
      <trkpt lat="42.365962" lon="1.889667">
        <ele>1292.650</ele>
        <time>2019-06-01T11:47:15Z</time>
      </trkpt>
      <trkpt lat="42.365900" lon="1.889797">
        <ele>1292.068</ele>
        <time>2019-06-01T11:47:16Z</time>
      </trkpt>
      <trkpt lat="42.365849" lon="1.889936">
        <ele>1291.442</ele>
        <time>2019-06-01T11:47:17Z</time>
      </trkpt>
      <trkpt lat="42.365774" lon="1.890217">
        <ele>1289.699</ele>
        <time>2019-06-01T11:47:19Z</time>
      </trkpt>
      <trkpt lat="42.365748" lon="1.890349">
        <ele>1289.037</ele>
        <time>2019-06-01T11:47:20Z</time>
      </trkpt>
      <trkpt lat="42.365728" lon="1.890486">
        <ele>1288.428</ele>
        <time>2019-06-01T11:47:21Z</time>
      </trkpt>
      <trkpt lat="42.365699" lon="1.890754">
        <ele>1287.236</ele>
        <time>2019-06-01T11:47:23Z</time>
      </trkpt>
      <trkpt lat="42.365650" lon="1.891018">
        <ele>1286.217</ele>
        <time>2019-06-01T11:47:25Z</time>
      </trkpt>
      <trkpt lat="42.365579" lon="1.891253">
        <ele>1285.218</ele>
        <time>2019-06-01T11:47:27Z</time>
      </trkpt>
      <trkpt lat="42.365531" lon="1.891348">
        <ele>1285.008</ele>
        <time>2019-06-01T11:47:28Z</time>
      </trkpt>
      <trkpt lat="42.365389" lon="1.891473">
        <ele>1284.616</ele>
        <time>2019-06-01T11:47:30Z</time>
      </trkpt>
      <trkpt lat="42.365214" lon="1.891559">
        <ele>1284.240</ele>
        <time>2019-06-01T11:47:32Z</time>
      </trkpt>
      <trkpt lat="42.365123" lon="1.891608">
        <ele>1282.096</ele>
        <time>2019-06-01T11:47:33Z</time>
      </trkpt>
      <trkpt lat="42.365030" lon="1.891661">
        <ele>1280.814</ele>
        <time>2019-06-01T11:47:34Z</time>
      </trkpt>
      <trkpt lat="42.364937" lon="1.891722">
        <ele>1279.868</ele>
        <time>2019-06-01T11:47:35Z</time>
      </trkpt>
      <trkpt lat="42.364760" lon="1.891876">
        <ele>1278.075</ele>
        <time>2019-06-01T11:47:37Z</time>
      </trkpt>
      <trkpt lat="42.364678" lon="1.891969">
        <ele>1277.473</ele>
        <time>2019-06-01T11:47:38Z</time>
      </trkpt>
      <trkpt lat="42.364596" lon="1.892064">
        <ele>1276.684</ele>
        <time>2019-06-01T11:47:39Z</time>
      </trkpt>
      <trkpt lat="42.364445" lon="1.892238">
        <ele>1275.442</ele>
        <time>2019-06-01T11:47:41Z</time>
      </trkpt>
      <trkpt lat="42.364306" lon="1.892402">
        <ele>1273.822</ele>
        <time>2019-06-01T11:47:43Z</time>
      </trkpt>
      <trkpt lat="42.364247" lon="1.892498">
        <ele>1273.214</ele>
        <time>2019-06-01T11:47:44Z</time>
      </trkpt>
      <trkpt lat="42.364202" lon="1.892601">
        <ele>1272.408</ele>
        <time>2019-06-01T11:47:45Z</time>
      </trkpt>
      <trkpt lat="42.364175" lon="1.892710">
        <ele>1272.087</ele>
        <time>2019-06-01T11:47:46Z</time>
      </trkpt>
      <trkpt lat="42.364196" lon="1.892915">
        <ele>1272.051</ele>
        <time>2019-06-01T11:47:48Z</time>
      </trkpt>
      <trkpt lat="42.364313" lon="1.893036">
        <ele>1271.267</ele>
        <time>2019-06-01T11:47:50Z</time>
      </trkpt>
      <trkpt lat="42.364476" lon="1.893021">
        <ele>1270.435</ele>
        <time>2019-06-01T11:47:52Z</time>
      </trkpt>
      <trkpt lat="42.364553" lon="1.892959">
        <ele>1269.839</ele>
        <time>2019-06-01T11:47:53Z</time>
      </trkpt>
      <trkpt lat="42.364624" lon="1.892870">
        <ele>1269.476</ele>
        <time>2019-06-01T11:47:54Z</time>
      </trkpt>
      <trkpt lat="42.364754" lon="1.892661">
        <ele>1268.624</ele>
        <time>2019-06-01T11:47:56Z</time>
      </trkpt>
      <trkpt lat="42.364817" lon="1.892553">
        <ele>1266.865</ele>
        <time>2019-06-01T11:47:57Z</time>
      </trkpt>
      <trkpt lat="42.364875" lon="1.892454">
        <ele>1265.654</ele>
        <time>2019-06-01T11:47:58Z</time>
      </trkpt>
      <trkpt lat="42.364998" lon="1.892287">
        <ele>1263.856</ele>
        <time>2019-06-01T11:48:00Z</time>
      </trkpt>
      <trkpt lat="42.365073" lon="1.892221">
        <ele>1262.811</ele>
        <time>2019-06-01T11:48:01Z</time>
      </trkpt>
      <trkpt lat="42.365157" lon="1.892168">
        <ele>1261.808</ele>
        <time>2019-06-01T11:48:02Z</time>
      </trkpt>
      <trkpt lat="42.365251" lon="1.892139">
        <ele>1260.878</ele>
        <time>2019-06-01T11:48:03Z</time>
      </trkpt>
      <trkpt lat="42.365347" lon="1.892129">
        <ele>1260.452</ele>
        <time>2019-06-01T11:48:04Z</time>
      </trkpt>
      <trkpt lat="42.365536" lon="1.892148">
        <ele>1259.228</ele>
        <time>2019-06-01T11:48:06Z</time>
      </trkpt>
      <trkpt lat="42.365628" lon="1.892171">
        <ele>1258.476</ele>
        <time>2019-06-01T11:48:07Z</time>
      </trkpt>
      <trkpt lat="42.365718" lon="1.892196">
        <ele>1257.610</ele>
        <time>2019-06-01T11:48:08Z</time>
      </trkpt>
      <trkpt lat="42.365806" lon="1.892208">
        <ele>1256.817</ele>
        <time>2019-06-01T11:48:09Z</time>
      </trkpt>
      <trkpt lat="42.365894" lon="1.892203">
        <ele>1256.245</ele>
        <time>2019-06-01T11:48:10Z</time>
      </trkpt>
      <trkpt lat="42.365982" lon="1.892177">
        <ele>1256.066</ele>
        <time>2019-06-01T11:48:11Z</time>
      </trkpt>
      <trkpt lat="42.366162" lon="1.892076">
        <ele>1254.838</ele>
        <time>2019-06-01T11:48:13Z</time>
      </trkpt>
      <trkpt lat="42.366252" lon="1.892019">
        <ele>1253.670</ele>
        <time>2019-06-01T11:48:14Z</time>
      </trkpt>
      <trkpt lat="42.366336" lon="1.891972">
        <ele>1252.617</ele>
        <time>2019-06-01T11:48:15Z</time>
      </trkpt>
      <trkpt lat="42.366419" lon="1.891950">
        <ele>1251.808</ele>
        <time>2019-06-01T11:48:16Z</time>
      </trkpt>
      <trkpt lat="42.366504" lon="1.891964">
        <ele>1251.426</ele>
        <time>2019-06-01T11:48:17Z</time>
      </trkpt>
      <trkpt lat="42.366743" lon="1.892134">
        <ele>1249.810</ele>
        <time>2019-06-01T11:48:20Z</time>
      </trkpt>
      <trkpt lat="42.366817" lon="1.892202">
        <ele>1248.036</ele>
        <time>2019-06-01T11:48:21Z</time>
      </trkpt>
      <trkpt lat="42.366946" lon="1.892300">
        <ele>1247.694</ele>
        <time>2019-06-01T11:48:23Z</time>
      </trkpt>
      <trkpt lat="42.367008" lon="1.892306">
        <ele>1247.668</ele>
        <time>2019-06-01T11:48:24Z</time>
      </trkpt>
      <trkpt lat="42.367132" lon="1.892232">
        <ele>1247.055</ele>
        <time>2019-06-01T11:48:26Z</time>
      </trkpt>
      <trkpt lat="42.367191" lon="1.892165">
        <ele>1246.443</ele>
        <time>2019-06-01T11:48:27Z</time>
      </trkpt>
      <trkpt lat="42.367252" lon="1.892088">
        <ele>1245.624</ele>
        <time>2019-06-01T11:48:28Z</time>
      </trkpt>
      <trkpt lat="42.367392" lon="1.891929">
        <ele>1243.629</ele>
        <time>2019-06-01T11:48:30Z</time>
      </trkpt>
      <trkpt lat="42.367465" lon="1.891862">
        <ele>1242.600</ele>
        <time>2019-06-01T11:48:31Z</time>
      </trkpt>
      <trkpt lat="42.367535" lon="1.891804">
        <ele>1242.020</ele>
        <time>2019-06-01T11:48:32Z</time>
      </trkpt>
      <trkpt lat="42.367606" lon="1.891757">
        <ele>1241.808</ele>
        <time>2019-06-01T11:48:33Z</time>
      </trkpt>
      <trkpt lat="42.367684" lon="1.891733">
        <ele>1241.895</ele>
        <time>2019-06-01T11:48:34Z</time>
      </trkpt>
      <trkpt lat="42.367850" lon="1.891757">
        <ele>1241.029</ele>
        <time>2019-06-01T11:48:36Z</time>
      </trkpt>
      <trkpt lat="42.367940" lon="1.891783">
        <ele>1240.235</ele>
        <time>2019-06-01T11:48:37Z</time>
      </trkpt>
      <trkpt lat="42.368033" lon="1.891814">
        <ele>1239.433</ele>
        <time>2019-06-01T11:48:38Z</time>
      </trkpt>
      <trkpt lat="42.368221" lon="1.891882">
        <ele>1237.827</ele>
        <time>2019-06-01T11:48:40Z</time>
      </trkpt>
      <trkpt lat="42.368409" lon="1.891952">
        <ele>1236.424</ele>
        <time>2019-06-01T11:48:42Z</time>
      </trkpt>
      <trkpt lat="42.368501" lon="1.891991">
        <ele>1235.012</ele>
        <time>2019-06-01T11:48:43Z</time>
      </trkpt>
      <trkpt lat="42.368587" lon="1.892036">
        <ele>1233.463</ele>
        <time>2019-06-01T11:48:44Z</time>
      </trkpt>
      <trkpt lat="42.368671" lon="1.892087">
        <ele>1230.613</ele>
        <time>2019-06-01T11:48:45Z</time>
      </trkpt>
      <trkpt lat="42.368756" lon="1.892134">
        <ele>1229.843</ele>
        <time>2019-06-01T11:48:46Z</time>
      </trkpt>
      <trkpt lat="42.368840" lon="1.892168">
        <ele>1229.407</ele>
        <time>2019-06-01T11:48:47Z</time>
      </trkpt>
      <trkpt lat="42.369019" lon="1.892205">
        <ele>1228.008</ele>
        <time>2019-06-01T11:48:49Z</time>
      </trkpt>
      <trkpt lat="42.369107" lon="1.892216">
        <ele>1227.214</ele>
        <time>2019-06-01T11:48:50Z</time>
      </trkpt>
      <trkpt lat="42.369191" lon="1.892231">
        <ele>1226.448</ele>
        <time>2019-06-01T11:48:51Z</time>
      </trkpt>
      <trkpt lat="42.369270" lon="1.892258">
        <ele>1225.424</ele>
        <time>2019-06-01T11:48:52Z</time>
      </trkpt>
      <trkpt lat="42.369349" lon="1.892295">
        <ele>1224.082</ele>
        <time>2019-06-01T11:48:53Z</time>
      </trkpt>
      <trkpt lat="42.369428" lon="1.892338">
        <ele>1223.036</ele>
        <time>2019-06-01T11:48:54Z</time>
      </trkpt>
      <trkpt lat="42.369501" lon="1.892382">
        <ele>1222.623</ele>
        <time>2019-06-01T11:48:55Z</time>
      </trkpt>
      <trkpt lat="42.369630" lon="1.892441">
        <ele>1221.831</ele>
        <time>2019-06-01T11:48:57Z</time>
      </trkpt>
      <trkpt lat="42.369693" lon="1.892443">
        <ele>1221.692</ele>
        <time>2019-06-01T11:48:58Z</time>
      </trkpt>
      <trkpt lat="42.369887" lon="1.892319">
        <ele>1220.423</ele>
        <time>2019-06-01T11:49:01Z</time>
      </trkpt>
      <trkpt lat="42.370012" lon="1.892170">
        <ele>1219.483</ele>
        <time>2019-06-01T11:49:03Z</time>
      </trkpt>
      <trkpt lat="42.370139" lon="1.891991">
        <ele>1218.211</ele>
        <time>2019-06-01T11:49:05Z</time>
      </trkpt>
      <trkpt lat="42.370201" lon="1.891893">
        <ele>1217.008</ele>
        <time>2019-06-01T11:49:06Z</time>
      </trkpt>
      <trkpt lat="42.370261" lon="1.891787">
        <ele>1215.475</ele>
        <time>2019-06-01T11:49:07Z</time>
      </trkpt>
      <trkpt lat="42.370320" lon="1.891677">
        <ele>1213.429</ele>
        <time>2019-06-01T11:49:08Z</time>
      </trkpt>
      <trkpt lat="42.370380" lon="1.891566">
        <ele>1211.055</ele>
        <time>2019-06-01T11:49:09Z</time>
      </trkpt>
      <trkpt lat="42.370440" lon="1.891458">
        <ele>1210.693</ele>
        <time>2019-06-01T11:49:10Z</time>
      </trkpt>
      <trkpt lat="42.370663" lon="1.891061">
        <ele>1209.867</ele>
        <time>2019-06-01T11:49:14Z</time>
      </trkpt>
      <trkpt lat="42.370762" lon="1.890897">
        <ele>1209.084</ele>
        <time>2019-06-01T11:49:16Z</time>
      </trkpt>
      <trkpt lat="42.370807" lon="1.890832">
        <ele>1208.082</ele>
        <time>2019-06-01T11:49:17Z</time>
      </trkpt>
      <trkpt lat="42.370854" lon="1.890787">
        <ele>1207.413</ele>
        <time>2019-06-01T11:49:18Z</time>
      </trkpt>
      <trkpt lat="42.370909" lon="1.890770">
        <ele>1206.872</ele>
        <time>2019-06-01T11:49:19Z</time>
      </trkpt>
      <trkpt lat="42.371003" lon="1.890849">
        <ele>1206.213</ele>
        <time>2019-06-01T11:49:21Z</time>
      </trkpt>
      <trkpt lat="42.370997" lon="1.891005">
        <ele>1205.414</ele>
        <time>2019-06-01T11:49:23Z</time>
      </trkpt>
      <trkpt lat="42.370930" lon="1.891175">
        <ele>1204.408</ele>
        <time>2019-06-01T11:49:25Z</time>
      </trkpt>
      <trkpt lat="42.370830" lon="1.891348">
        <ele>1203.480</ele>
        <time>2019-06-01T11:49:27Z</time>
      </trkpt>
      <trkpt lat="42.370708" lon="1.891532">
        <ele>1201.214</ele>
        <time>2019-06-01T11:49:29Z</time>
      </trkpt>
      <trkpt lat="42.370648" lon="1.891638">
        <ele>1200.230</ele>
        <time>2019-06-01T11:49:30Z</time>
      </trkpt>
      <trkpt lat="42.370596" lon="1.891754">
        <ele>1199.468</ele>
        <time>2019-06-01T11:49:31Z</time>
      </trkpt>
      <trkpt lat="42.370549" lon="1.891879">
        <ele>1198.412</ele>
        <time>2019-06-01T11:49:32Z</time>
      </trkpt>
      <trkpt lat="42.370503" lon="1.892007">
        <ele>1196.249</ele>
        <time>2019-06-01T11:49:33Z</time>
      </trkpt>
      <trkpt lat="42.370455" lon="1.892138">
        <ele>1195.037</ele>
        <time>2019-06-01T11:49:34Z</time>
      </trkpt>
      <trkpt lat="42.370367" lon="1.892393">
        <ele>1193.618</ele>
        <time>2019-06-01T11:49:36Z</time>
      </trkpt>
      <trkpt lat="42.370334" lon="1.892525">
        <ele>1193.212</ele>
        <time>2019-06-01T11:49:37Z</time>
      </trkpt>
      <trkpt lat="42.370320" lon="1.892663">
        <ele>1192.432</ele>
        <time>2019-06-01T11:49:38Z</time>
      </trkpt>
      <trkpt lat="42.370322" lon="1.892801">
        <ele>1191.405</ele>
        <time>2019-06-01T11:49:39Z</time>
      </trkpt>
      <trkpt lat="42.370329" lon="1.892942">
        <ele>1190.008</ele>
        <time>2019-06-01T11:49:40Z</time>
      </trkpt>
      <trkpt lat="42.370331" lon="1.893086">
        <ele>1189.034</ele>
        <time>2019-06-01T11:49:41Z</time>
      </trkpt>
      <trkpt lat="42.370325" lon="1.893221">
        <ele>1188.228</ele>
        <time>2019-06-01T11:49:42Z</time>
      </trkpt>
      <trkpt lat="42.370305" lon="1.893352">
        <ele>1187.484</ele>
        <time>2019-06-01T11:49:43Z</time>
      </trkpt>
      <trkpt lat="42.370216" lon="1.893599">
        <ele>1186.092</ele>
        <time>2019-06-01T11:49:45Z</time>
      </trkpt>
      <trkpt lat="42.370158" lon="1.893711">
        <ele>1185.216</ele>
        <time>2019-06-01T11:49:46Z</time>
      </trkpt>
      <trkpt lat="42.370097" lon="1.893822">
        <ele>1184.883</ele>
        <time>2019-06-01T11:49:47Z</time>
      </trkpt>
      <trkpt lat="42.369975" lon="1.894058">
        <ele>1183.411</ele>
        <time>2019-06-01T11:49:49Z</time>
      </trkpt>
      <trkpt lat="42.369918" lon="1.894172">
        <ele>1182.452</ele>
        <time>2019-06-01T11:49:50Z</time>
      </trkpt>
      <trkpt lat="42.369868" lon="1.894275">
        <ele>1181.813</ele>
        <time>2019-06-01T11:49:51Z</time>
      </trkpt>
      <trkpt lat="42.369827" lon="1.894372">
        <ele>1181.243</ele>
        <time>2019-06-01T11:49:52Z</time>
      </trkpt>
      <trkpt lat="42.369795" lon="1.894471">
        <ele>1181.007</ele>
        <time>2019-06-01T11:49:53Z</time>
      </trkpt>
      <trkpt lat="42.369780" lon="1.894664">
        <ele>1180.208</ele>
        <time>2019-06-01T11:49:55Z</time>
      </trkpt>
      <trkpt lat="42.369812" lon="1.894736">
        <ele>1180.094</ele>
        <time>2019-06-01T11:49:56Z</time>
      </trkpt>
      <trkpt lat="42.369867" lon="1.894786">
        <ele>1179.298</ele>
        <time>2019-06-01T11:49:57Z</time>
      </trkpt>
      <trkpt lat="42.369934" lon="1.894817">
        <ele>1178.494</ele>
        <time>2019-06-01T11:49:58Z</time>
      </trkpt>
      <trkpt lat="42.370072" lon="1.894781">
        <ele>1177.252</ele>
        <time>2019-06-01T11:50:00Z</time>
      </trkpt>
      <trkpt lat="42.370236" lon="1.894553">
        <ele>1175.486</ele>
        <time>2019-06-01T11:50:03Z</time>
      </trkpt>
      <trkpt lat="42.370289" lon="1.894466">
        <ele>1174.223</ele>
        <time>2019-06-01T11:50:04Z</time>
      </trkpt>
      <trkpt lat="42.370345" lon="1.894375">
        <ele>1172.851</ele>
        <time>2019-06-01T11:50:05Z</time>
      </trkpt>
      <trkpt lat="42.370405" lon="1.894282">
        <ele>1171.642</ele>
        <time>2019-06-01T11:50:06Z</time>
      </trkpt>
      <trkpt lat="42.370533" lon="1.894092">
        <ele>1170.018</ele>
        <time>2019-06-01T11:50:08Z</time>
      </trkpt>
      <trkpt lat="42.370599" lon="1.893997">
        <ele>1169.098</ele>
        <time>2019-06-01T11:50:09Z</time>
      </trkpt>
      <trkpt lat="42.370664" lon="1.893908">
        <ele>1168.617</ele>
        <time>2019-06-01T11:50:10Z</time>
      </trkpt>
      <trkpt lat="42.370865" lon="1.893544">
        <ele>1167.408</ele>
        <time>2019-06-01T11:50:14Z</time>
      </trkpt>
      <trkpt lat="42.370888" lon="1.893306">
        <ele>1166.024</ele>
        <time>2019-06-01T11:50:16Z</time>
      </trkpt>
      <trkpt lat="42.370881" lon="1.893181">
        <ele>1165.628</ele>
        <time>2019-06-01T11:50:17Z</time>
      </trkpt>
      <trkpt lat="42.370873" lon="1.893055">
        <ele>1165.014</ele>
        <time>2019-06-01T11:50:18Z</time>
      </trkpt>
      <trkpt lat="42.370881" lon="1.892926">
        <ele>1164.492</ele>
        <time>2019-06-01T11:50:19Z</time>
      </trkpt>
      <trkpt lat="42.370945" lon="1.892682">
        <ele>1162.476</ele>
        <time>2019-06-01T11:50:21Z</time>
      </trkpt>
      <trkpt lat="42.371055" lon="1.892480">
        <ele>1160.633</ele>
        <time>2019-06-01T11:50:23Z</time>
      </trkpt>
      <trkpt lat="42.371124" lon="1.892405">
        <ele>1159.861</ele>
        <time>2019-06-01T11:50:24Z</time>
      </trkpt>
      <trkpt lat="42.371215" lon="1.892382">
        <ele>1158.852</ele>
        <time>2019-06-01T11:50:25Z</time>
      </trkpt>
      <trkpt lat="42.371312" lon="1.892375">
        <ele>1158.028</ele>
        <time>2019-06-01T11:50:26Z</time>
      </trkpt>
      <trkpt lat="42.371412" lon="1.892374">
        <ele>1157.489</ele>
        <time>2019-06-01T11:50:27Z</time>
      </trkpt>
      <trkpt lat="42.371513" lon="1.892373">
        <ele>1157.417</ele>
        <time>2019-06-01T11:50:28Z</time>
      </trkpt>
      <trkpt lat="42.371718" lon="1.892374">
        <ele>1155.808</ele>
        <time>2019-06-01T11:50:30Z</time>
      </trkpt>
      <trkpt lat="42.371814" lon="1.892368">
        <ele>1155.025</ele>
        <time>2019-06-01T11:50:31Z</time>
      </trkpt>
      <trkpt lat="42.371910" lon="1.892348">
        <ele>1154.849</ele>
        <time>2019-06-01T11:50:32Z</time>
      </trkpt>
      <trkpt lat="42.372100" lon="1.892263">
        <ele>1153.875</ele>
        <time>2019-06-01T11:50:34Z</time>
      </trkpt>
      <trkpt lat="42.372183" lon="1.892200">
        <ele>1152.883</ele>
        <time>2019-06-01T11:50:35Z</time>
      </trkpt>
      <trkpt lat="42.372263" lon="1.892134">
        <ele>1152.287</ele>
        <time>2019-06-01T11:50:36Z</time>
      </trkpt>
      <trkpt lat="42.372345" lon="1.892069">
        <ele>1151.674</ele>
        <time>2019-06-01T11:50:37Z</time>
      </trkpt>
      <trkpt lat="42.372431" lon="1.892007">
        <ele>1151.262</ele>
        <time>2019-06-01T11:50:38Z</time>
      </trkpt>
      <trkpt lat="42.372523" lon="1.891955">
        <ele>1150.413</ele>
        <time>2019-06-01T11:50:39Z</time>
      </trkpt>
      <trkpt lat="42.372708" lon="1.891861">
        <ele>1148.425</ele>
        <time>2019-06-01T11:50:41Z</time>
      </trkpt>
      <trkpt lat="42.372795" lon="1.891811">
        <ele>1147.626</ele>
        <time>2019-06-01T11:50:42Z</time>
      </trkpt>
      <trkpt lat="42.372877" lon="1.891758">
        <ele>1147.208</ele>
        <time>2019-06-01T11:50:43Z</time>
      </trkpt>
      <trkpt lat="42.373082" lon="1.891578">
        <ele>1145.808</ele>
        <time>2019-06-01T11:50:46Z</time>
      </trkpt>
      <trkpt lat="42.373160" lon="1.891416">
        <ele>1144.465</ele>
        <time>2019-06-01T11:50:48Z</time>
      </trkpt>
      <trkpt lat="42.373182" lon="1.891333">
        <ele>1144.219</ele>
        <time>2019-06-01T11:50:49Z</time>
      </trkpt>
      <trkpt lat="42.373161" lon="1.891107">
        <ele>1143.615</ele>
        <time>2019-06-01T11:50:52Z</time>
      </trkpt>
      <trkpt lat="42.373135" lon="1.891036">
        <ele>1143.213</ele>
        <time>2019-06-01T11:50:53Z</time>
      </trkpt>
      <trkpt lat="42.373107" lon="1.890967">
        <ele>1142.857</ele>
        <time>2019-06-01T11:50:54Z</time>
      </trkpt>
      <trkpt lat="42.372975" lon="1.890699">
        <ele>1142.094</ele>
        <time>2019-06-01T11:50:58Z</time>
      </trkpt>
      <trkpt lat="42.372941" lon="1.890633">
        <ele>1140.882</ele>
        <time>2019-06-01T11:50:59Z</time>
      </trkpt>
      <trkpt lat="42.372872" lon="1.890501">
        <ele>1139.893</ele>
        <time>2019-06-01T11:51:01Z</time>
      </trkpt>
      <trkpt lat="42.372792" lon="1.890366">
        <ele>1138.689</ele>
        <time>2019-06-01T11:51:03Z</time>
      </trkpt>
      <trkpt lat="42.372717" lon="1.890222">
        <ele>1137.806</ele>
        <time>2019-06-01T11:51:05Z</time>
      </trkpt>
      <trkpt lat="42.372692" lon="1.890143">
        <ele>1137.426</ele>
        <time>2019-06-01T11:51:06Z</time>
      </trkpt>
      <trkpt lat="42.372671" lon="1.889982">
        <ele>1136.208</ele>
        <time>2019-06-01T11:51:08Z</time>
      </trkpt>
      <trkpt lat="42.372710" lon="1.889734">
        <ele>1134.251</ele>
        <time>2019-06-01T11:51:11Z</time>
      </trkpt>
      <trkpt lat="42.372728" lon="1.889646">
        <ele>1133.655</ele>
        <time>2019-06-01T11:51:12Z</time>
      </trkpt>
      <trkpt lat="42.372742" lon="1.889560">
        <ele>1132.831</ele>
        <time>2019-06-01T11:51:13Z</time>
      </trkpt>
      <trkpt lat="42.372747" lon="1.889468">
        <ele>1132.289</ele>
        <time>2019-06-01T11:51:14Z</time>
      </trkpt>
      <trkpt lat="42.372743" lon="1.889373">
        <ele>1131.623</ele>
        <time>2019-06-01T11:51:15Z</time>
      </trkpt>
      <trkpt lat="42.372735" lon="1.889277">
        <ele>1131.020</ele>
        <time>2019-06-01T11:51:16Z</time>
      </trkpt>
      <trkpt lat="42.372725" lon="1.889181">
        <ele>1130.218</ele>
        <time>2019-06-01T11:51:17Z</time>
      </trkpt>
      <trkpt lat="42.372701" lon="1.888983">
        <ele>1128.699</ele>
        <time>2019-06-01T11:51:19Z</time>
      </trkpt>
      <trkpt lat="42.372666" lon="1.888695">
        <ele>1127.461</ele>
        <time>2019-06-01T11:51:22Z</time>
      </trkpt>
      <trkpt lat="42.372658" lon="1.888606">
        <ele>1127.021</ele>
        <time>2019-06-01T11:51:23Z</time>
      </trkpt>
      <trkpt lat="42.372654" lon="1.888441">
        <ele>1126.413</ele>
        <time>2019-06-01T11:51:25Z</time>
      </trkpt>
      <trkpt lat="42.372668" lon="1.888366">
        <ele>1126.008</ele>
        <time>2019-06-01T11:51:26Z</time>
      </trkpt>
      <trkpt lat="42.372694" lon="1.888302">
        <ele>1125.659</ele>
        <time>2019-06-01T11:51:27Z</time>
      </trkpt>
      <trkpt lat="42.372782" lon="1.888212">
        <ele>1124.663</ele>
        <time>2019-06-01T11:51:29Z</time>
      </trkpt>
      <trkpt lat="42.372836" lon="1.888181">
        <ele>1124.239</ele>
        <time>2019-06-01T11:51:30Z</time>
      </trkpt>
      <trkpt lat="42.372956" lon="1.888116">
        <ele>1123.267</ele>
        <time>2019-06-01T11:51:32Z</time>
      </trkpt>
      <trkpt lat="42.373023" lon="1.888073">
        <ele>1121.051</ele>
        <time>2019-06-01T11:51:33Z</time>
      </trkpt>
      <trkpt lat="42.373093" lon="1.888032">
        <ele>1120.018</ele>
        <time>2019-06-01T11:51:34Z</time>
      </trkpt>
      <trkpt lat="42.373161" lon="1.887994">
        <ele>1119.246</ele>
        <time>2019-06-01T11:51:35Z</time>
      </trkpt>
      <trkpt lat="42.373226" lon="1.887960">
        <ele>1118.647</ele>
        <time>2019-06-01T11:51:36Z</time>
      </trkpt>
      <trkpt lat="42.373353" lon="1.887887">
        <ele>1115.694</ele>
        <time>2019-06-01T11:51:38Z</time>
      </trkpt>
      <trkpt lat="42.373479" lon="1.887824">
        <ele>1114.457</ele>
        <time>2019-06-01T11:51:40Z</time>
      </trkpt>
      <trkpt lat="42.373713" lon="1.887697">
        <ele>1113.022</ele>
        <time>2019-06-01T11:51:44Z</time>
      </trkpt>
      <trkpt lat="42.373768" lon="1.887669">
        <ele>1112.408</ele>
        <time>2019-06-01T11:51:45Z</time>
      </trkpt>
      <trkpt lat="42.373927" lon="1.887583">
        <ele>1111.642</ele>
        <time>2019-06-01T11:51:48Z</time>
      </trkpt>
      <trkpt lat="42.374033" lon="1.887529">
        <ele>1110.296</ele>
        <time>2019-06-01T11:51:50Z</time>
      </trkpt>
      <trkpt lat="42.374162" lon="1.887460">
        <ele>1108.822</ele>
        <time>2019-06-01T11:51:53Z</time>
      </trkpt>
      <trkpt lat="42.374230" lon="1.887417">
        <ele>1108.260</ele>
        <time>2019-06-01T11:51:55Z</time>
      </trkpt>
      <trkpt lat="42.374286" lon="1.887406">
        <ele>1107.664</ele>
        <time>2019-06-01T11:51:57Z</time>
      </trkpt>
      <trkpt lat="42.374349" lon="1.887447">
        <ele>1107.071</ele>
        <time>2019-06-01T11:51:59Z</time>
      </trkpt>
      <trkpt lat="42.374376" lon="1.887490">
        <ele>1106.499</ele>
        <time>2019-06-01T11:52:00Z</time>
      </trkpt>
      <trkpt lat="42.374397" lon="1.887540">
        <ele>1106.290</ele>
        <time>2019-06-01T11:52:01Z</time>
      </trkpt>
      <trkpt lat="42.374440" lon="1.887652">
        <ele>1106.071</ele>
        <time>2019-06-01T11:52:03Z</time>
      </trkpt>
      <trkpt lat="42.374515" lon="1.887889">
        <ele>1105.241</ele>
        <time>2019-06-01T11:52:07Z</time>
      </trkpt>
      <trkpt lat="42.374569" lon="1.888081">
        <ele>1104.815</ele>
        <time>2019-06-01T11:52:10Z</time>
      </trkpt>
      <trkpt lat="42.374633" lon="1.888274">
        <ele>1104.408</ele>
        <time>2019-06-01T11:52:13Z</time>
      </trkpt>
      <trkpt lat="42.374690" lon="1.888474">
        <ele>1103.810</ele>
        <time>2019-06-01T11:52:16Z</time>
      </trkpt>
      <trkpt lat="42.374844" lon="1.888972">
        <ele>1103.624</ele>
        <time>2019-06-01T11:52:23Z</time>
      </trkpt>
      <trkpt lat="42.374932" lon="1.889277">
        <ele>1102.610</ele>
        <time>2019-06-01T11:52:27Z</time>
      </trkpt>
      <trkpt lat="42.374998" lon="1.889511">
        <ele>1102.468</ele>
        <time>2019-06-01T11:52:30Z</time>
      </trkpt>
      <trkpt lat="42.375063" lon="1.889759">
        <ele>1101.462</ele>
        <time>2019-06-01T11:52:33Z</time>
      </trkpt>
      <trkpt lat="42.375108" lon="1.889920">
        <ele>1101.419</ele>
        <time>2019-06-01T11:52:35Z</time>
      </trkpt>
      <trkpt lat="42.375133" lon="1.889997">
        <ele>1101.477</ele>
        <time>2019-06-01T11:52:36Z</time>
      </trkpt>
      <trkpt lat="42.375223" lon="1.890332">
        <ele>1100.458</ele>
        <time>2019-06-01T11:52:40Z</time>
      </trkpt>
      <trkpt lat="42.375242" lon="1.890422">
        <ele>1100.215</ele>
        <time>2019-06-01T11:52:41Z</time>
      </trkpt>
      <trkpt lat="42.375262" lon="1.890507">
        <ele>1100.065</ele>
        <time>2019-06-01T11:52:42Z</time>
      </trkpt>
      <trkpt lat="42.375302" lon="1.890667">
        <ele>1099.211</ele>
        <time>2019-06-01T11:52:44Z</time>
      </trkpt>
      <trkpt lat="42.375345" lon="1.890820">
        <ele>1098.208</ele>
        <time>2019-06-01T11:52:46Z</time>
      </trkpt>
      <trkpt lat="42.375373" lon="1.890891">
        <ele>1097.814</ele>
        <time>2019-06-01T11:52:47Z</time>
      </trkpt>
      <trkpt lat="42.375505" lon="1.891054">
        <ele>1097.038</ele>
        <time>2019-06-01T11:52:50Z</time>
      </trkpt>
      <trkpt lat="42.375666" lon="1.891181">
        <ele>1095.874</ele>
        <time>2019-06-01T11:52:53Z</time>
      </trkpt>
      <trkpt lat="42.375779" lon="1.891282">
        <ele>1094.852</ele>
        <time>2019-06-01T11:52:55Z</time>
      </trkpt>
      <trkpt lat="42.375839" lon="1.891335">
        <ele>1094.636</ele>
        <time>2019-06-01T11:52:56Z</time>
      </trkpt>
      <trkpt lat="42.376153" lon="1.891602">
        <ele>1093.263</ele>
        <time>2019-06-01T11:53:01Z</time>
      </trkpt>
      <trkpt lat="42.376287" lon="1.891726">
        <ele>1092.211</ele>
        <time>2019-06-01T11:53:03Z</time>
      </trkpt>
      <trkpt lat="42.376565" lon="1.891958">
        <ele>1091.022</ele>
        <time>2019-06-01T11:53:07Z</time>
      </trkpt>
      <trkpt lat="42.376639" lon="1.892021">
        <ele>1091.044</ele>
        <time>2019-06-01T11:53:08Z</time>
      </trkpt>
      <trkpt lat="42.376932" lon="1.892266">
        <ele>1089.605</ele>
        <time>2019-06-01T11:53:12Z</time>
      </trkpt>
      <trkpt lat="42.377153" lon="1.892455">
        <ele>1088.415</ele>
        <time>2019-06-01T11:53:15Z</time>
      </trkpt>
      <trkpt lat="42.377290" lon="1.892593">
        <ele>1088.208</ele>
        <time>2019-06-01T11:53:17Z</time>
      </trkpt>
      <trkpt lat="42.377458" lon="1.892840">
        <ele>1087.827</ele>
        <time>2019-06-01T11:53:20Z</time>
      </trkpt>
      <trkpt lat="42.377497" lon="1.892931">
        <ele>1087.881</ele>
        <time>2019-06-01T11:53:21Z</time>
      </trkpt>
      <trkpt lat="42.377576" lon="1.893300">
        <ele>1088.017</ele>
        <time>2019-06-01T11:53:25Z</time>
      </trkpt>
      <trkpt lat="42.377663" lon="1.893751">
        <ele>1088.095</ele>
        <time>2019-06-01T11:53:30Z</time>
      </trkpt>
      <trkpt lat="42.377714" lon="1.893902">
        <ele>1088.689</ele>
        <time>2019-06-01T11:53:32Z</time>
      </trkpt>
      <trkpt lat="42.377832" lon="1.894059">
        <ele>1089.676</ele>
        <time>2019-06-01T11:53:35Z</time>
      </trkpt>
      <trkpt lat="42.377874" lon="1.894100">
        <ele>1089.874</ele>
        <time>2019-06-01T11:53:36Z</time>
      </trkpt>
      <trkpt lat="42.378074" lon="1.894242">
        <ele>1090.825</ele>
        <time>2019-06-01T11:53:41Z</time>
      </trkpt>
      <trkpt lat="42.378112" lon="1.894262">
        <ele>1090.889</ele>
        <time>2019-06-01T11:53:42Z</time>
      </trkpt>
      <trkpt lat="42.378470" lon="1.894415">
        <ele>1091.606</ele>
        <time>2019-06-01T11:53:51Z</time>
      </trkpt>
      <trkpt lat="42.378584" lon="1.894453">
        <ele>1091.826</ele>
        <time>2019-06-01T11:53:54Z</time>
      </trkpt>
      <trkpt lat="42.378725" lon="1.894501">
        <ele>1093.008</ele>
        <time>2019-06-01T11:53:58Z</time>
      </trkpt>
      <trkpt lat="42.378788" lon="1.894525">
        <ele>1093.421</ele>
        <time>2019-06-01T11:54:00Z</time>
      </trkpt>
      <trkpt lat="42.378950" lon="1.894569">
        <ele>1094.265</ele>
        <time>2019-06-01T11:54:07Z</time>
      </trkpt>
      <trkpt lat="42.379071" lon="1.894590">
        <ele>1095.271</ele>
        <time>2019-06-01T11:54:13Z</time>
      </trkpt>
      <trkpt lat="42.379111" lon="1.894589">
        <ele>1095.459</ele>
        <time>2019-06-01T11:54:15Z</time>
      </trkpt>
      <trkpt lat="42.379227" lon="1.894599">
        <ele>1096.293</ele>
        <time>2019-06-01T11:54:21Z</time>
      </trkpt>
      <trkpt lat="42.379299" lon="1.894593">
        <ele>1096.620</ele>
        <time>2019-06-01T11:54:25Z</time>
      </trkpt>
      <trkpt lat="42.379414" lon="1.894571">
        <ele>1097.288</ele>
        <time>2019-06-01T11:54:32Z</time>
      </trkpt>
      <trkpt lat="42.379430" lon="1.894571">
        <ele>1097.289</ele>
        <time>2019-06-01T11:54:33Z</time>
      </trkpt>
      <trkpt lat="42.379538" lon="1.894527">
        <ele>1098.013</ele>
        <time>2019-06-01T11:54:40Z</time>
      </trkpt>
      <trkpt lat="42.379581" lon="1.894509">
        <ele>1098.443</ele>
        <time>2019-06-01T11:54:43Z</time>
      </trkpt>
      <trkpt lat="42.379664" lon="1.894447">
        <ele>1098.807</ele>
        <time>2019-06-01T11:54:49Z</time>
      </trkpt>
      <trkpt lat="42.379719" lon="1.894403">
        <ele>1099.408</ele>
        <time>2019-06-01T11:54:53Z</time>
      </trkpt>
      <trkpt lat="42.379776" lon="1.894341">
        <ele>1100.224</ele>
        <time>2019-06-01T11:54:58Z</time>
      </trkpt>
      <trkpt lat="42.379888" lon="1.894242">
        <ele>1101.468</ele>
        <time>2019-06-01T11:55:07Z</time>
      </trkpt>
      <trkpt lat="42.379902" lon="1.894229">
        <ele>1101.224</ele>
        <time>2019-06-01T11:55:08Z</time>
      </trkpt>
      <trkpt lat="42.380030" lon="1.894194">
        <ele>1102.272</ele>
        <time>2019-06-01T11:55:16Z</time>
      </trkpt>
      <trkpt lat="42.380060" lon="1.894203">
        <ele>1102.416</ele>
        <time>2019-06-01T11:55:18Z</time>
      </trkpt>
      <trkpt lat="42.380147" lon="1.894272">
        <ele>1103.043</ele>
        <time>2019-06-01T11:55:24Z</time>
      </trkpt>
      <trkpt lat="42.380194" lon="1.894410">
        <ele>1103.631</ele>
        <time>2019-06-01T11:55:31Z</time>
      </trkpt>
      <trkpt lat="42.380195" lon="1.894430">
        <ele>1103.852</ele>
        <time>2019-06-01T11:55:32Z</time>
      </trkpt>
      <trkpt lat="42.380167" lon="1.894571">
        <ele>1104.672</ele>
        <time>2019-06-01T11:55:39Z</time>
      </trkpt>
      <trkpt lat="42.380157" lon="1.894586">
        <ele>1104.613</ele>
        <time>2019-06-01T11:55:40Z</time>
      </trkpt>
      <trkpt lat="42.380104" lon="1.894658">
        <ele>1105.214</ele>
        <time>2019-06-01T11:55:45Z</time>
      </trkpt>
      <trkpt lat="42.380090" lon="1.894670">
        <ele>1105.208</ele>
        <time>2019-06-01T11:55:46Z</time>
      </trkpt>
      <trkpt lat="42.379978" lon="1.894730">
        <ele>1105.620</ele>
        <time>2019-06-01T11:55:53Z</time>
      </trkpt>
      <trkpt lat="42.379964" lon="1.894739">
        <ele>1105.814</ele>
        <time>2019-06-01T11:55:54Z</time>
      </trkpt>
      <trkpt lat="42.379879" lon="1.894797">
        <ele>1106.690</ele>
        <time>2019-06-01T11:56:00Z</time>
      </trkpt>
      <trkpt lat="42.379728" lon="1.894887">
        <ele>1106.848</ele>
        <time>2019-06-01T11:56:10Z</time>
      </trkpt>
      <trkpt lat="42.379596" lon="1.894962">
        <ele>1108.082</ele>
        <time>2019-06-01T11:56:19Z</time>
      </trkpt>
      <trkpt lat="42.379438" lon="1.895061">
        <ele>1108.459</ele>
        <time>2019-06-01T11:56:28Z</time>
      </trkpt>
      <trkpt lat="42.379324" lon="1.895119">
        <ele>1108.887</ele>
        <time>2019-06-01T11:56:34Z</time>
      </trkpt>
      <trkpt lat="42.379289" lon="1.895137">
        <ele>1109.058</ele>
        <time>2019-06-01T11:56:36Z</time>
      </trkpt>
      <trkpt lat="42.379125" lon="1.895228">
        <ele>1109.657</ele>
        <time>2019-06-01T11:56:45Z</time>
      </trkpt>
      <trkpt lat="42.378945" lon="1.895314">
        <ele>1109.800</ele>
        <time>2019-06-01T11:56:53Z</time>
      </trkpt>
      <trkpt lat="42.378852" lon="1.895342">
        <ele>1110.220</ele>
        <time>2019-06-01T11:56:57Z</time>
      </trkpt>
      <trkpt lat="42.378736" lon="1.895383">
        <ele>1110.208</ele>
        <time>2019-06-01T11:57:02Z</time>
      </trkpt>
      <trkpt lat="42.378500" lon="1.895429">
        <ele>1110.698</ele>
        <time>2019-06-01T11:57:11Z</time>
      </trkpt>
      <trkpt lat="42.378291" lon="1.895485">
        <ele>1111.022</ele>
        <time>2019-06-01T11:57:19Z</time>
      </trkpt>
      <trkpt lat="42.378083" lon="1.895532">
        <ele>1111.458</ele>
        <time>2019-06-01T11:57:27Z</time>
      </trkpt>
      <trkpt lat="42.378038" lon="1.895539">
        <ele>1111.456</ele>
        <time>2019-06-01T11:57:29Z</time>
      </trkpt>
      <trkpt lat="42.377916" lon="1.895570">
        <ele>1112.420</ele>
        <time>2019-06-01T11:57:35Z</time>
      </trkpt>
      <trkpt lat="42.377751" lon="1.895597">
        <ele>1113.427</ele>
        <time>2019-06-01T11:57:45Z</time>
      </trkpt>
      <trkpt lat="42.377735" lon="1.895598">
        <ele>1113.675</ele>
        <time>2019-06-01T11:57:46Z</time>
      </trkpt>
      <trkpt lat="42.377602" lon="1.895624">
        <ele>1114.246</ele>
        <time>2019-06-01T11:57:54Z</time>
      </trkpt>
      <trkpt lat="42.377548" lon="1.895634">
        <ele>1114.683</ele>
        <time>2019-06-01T11:57:57Z</time>
      </trkpt>
      <trkpt lat="42.377531" lon="1.895637">
        <ele>1114.825</ele>
        <time>2019-06-01T11:57:58Z</time>
      </trkpt>
      <trkpt lat="42.377455" lon="1.895652">
        <ele>1115.217</ele>
        <time>2019-06-01T11:58:03Z</time>
      </trkpt>
      <trkpt lat="42.377418" lon="1.895665">
        <ele>1115.608</ele>
        <time>2019-06-01T11:58:06Z</time>
      </trkpt>
      <trkpt lat="42.377354" lon="1.895695">
        <ele>1116.231</ele>
        <time>2019-06-01T11:58:11Z</time>
      </trkpt>
      <trkpt lat="42.377314" lon="1.895741">
        <ele>1116.675</ele>
        <time>2019-06-01T11:58:15Z</time>
      </trkpt>
      <trkpt lat="42.377296" lon="1.895773">
        <ele>1116.831</ele>
        <time>2019-06-01T11:58:17Z</time>
      </trkpt>
      <trkpt lat="42.377280" lon="1.895857">
        <ele>1117.899</ele>
        <time>2019-06-01T11:58:22Z</time>
      </trkpt>
      <trkpt lat="42.377286" lon="1.895918">
        <ele>1118.223</ele>
        <time>2019-06-01T11:58:25Z</time>
      </trkpt>
      <trkpt lat="42.377310" lon="1.895991">
        <ele>1118.850</ele>
        <time>2019-06-01T11:58:29Z</time>
      </trkpt>
      <trkpt lat="42.377342" lon="1.896033">
        <ele>1119.448</ele>
        <time>2019-06-01T11:58:32Z</time>
      </trkpt>
      <trkpt lat="42.377379" lon="1.896054">
        <ele>1119.819</ele>
        <time>2019-06-01T11:58:35Z</time>
      </trkpt>
      <trkpt lat="42.377437" lon="1.896069">
        <ele>1119.899</ele>
        <time>2019-06-01T11:58:39Z</time>
      </trkpt>
      <trkpt lat="42.377500" lon="1.896058">
        <ele>1120.807</ele>
        <time>2019-06-01T11:58:44Z</time>
      </trkpt>
      <trkpt lat="42.377514" lon="1.896060">
        <ele>1120.427</ele>
        <time>2019-06-01T11:58:45Z</time>
      </trkpt>
      <trkpt lat="42.377609" lon="1.896051">
        <ele>1121.008</ele>
        <time>2019-06-01T11:58:52Z</time>
      </trkpt>
      <trkpt lat="42.377655" lon="1.896053">
        <ele>1121.292</ele>
        <time>2019-06-01T11:58:56Z</time>
      </trkpt>
      <trkpt lat="42.377683" lon="1.896047">
        <ele>1121.446</ele>
        <time>2019-06-01T11:58:58Z</time>
      </trkpt>
      <trkpt lat="42.377737" lon="1.896058">
        <ele>1122.062</ele>
        <time>2019-06-01T11:59:02Z</time>
      </trkpt>
      <trkpt lat="42.377772" lon="1.896066">
        <ele>1122.090</ele>
        <time>2019-06-01T11:59:04Z</time>
      </trkpt>
      <trkpt lat="42.377921" lon="1.896079">
        <ele>1123.014</ele>
        <time>2019-06-01T11:59:13Z</time>
      </trkpt>
      <trkpt lat="42.378044" lon="1.896090">
        <ele>1124.071</ele>
        <time>2019-06-01T11:59:21Z</time>
      </trkpt>
      <trkpt lat="42.378058" lon="1.896090">
        <ele>1124.099</ele>
        <time>2019-06-01T11:59:22Z</time>
      </trkpt>
      <trkpt lat="42.378121" lon="1.896099">
        <ele>1124.280</ele>
        <time>2019-06-01T11:59:27Z</time>
      </trkpt>
      <trkpt lat="42.378162" lon="1.896099">
        <ele>1124.444</ele>
        <time>2019-06-01T11:59:30Z</time>
      </trkpt>
      <trkpt lat="42.378216" lon="1.896099">
        <ele>1125.005</ele>
        <time>2019-06-01T11:59:34Z</time>
      </trkpt>
      <trkpt lat="42.378254" lon="1.896112">
        <ele>1125.415</ele>
        <time>2019-06-01T11:59:37Z</time>
      </trkpt>
      <trkpt lat="42.378267" lon="1.896117">
        <ele>1125.408</ele>
        <time>2019-06-01T11:59:38Z</time>
      </trkpt>
      <trkpt lat="42.378293" lon="1.896118">
        <ele>1125.647</ele>
        <time>2019-06-01T11:59:40Z</time>
      </trkpt>
      <trkpt lat="42.378360" lon="1.896129">
        <ele>1126.041</ele>
        <time>2019-06-01T11:59:45Z</time>
      </trkpt>
      <trkpt lat="42.378372" lon="1.896130">
        <ele>1126.277</ele>
        <time>2019-06-01T11:59:46Z</time>
      </trkpt>
      <trkpt lat="42.378461" lon="1.896148">
        <ele>1126.675</ele>
        <time>2019-06-01T11:59:53Z</time>
      </trkpt>
      <trkpt lat="42.378552" lon="1.896175">
        <ele>1127.259</ele>
        <time>2019-06-01T12:00:00Z</time>
      </trkpt>
      <trkpt lat="42.378677" lon="1.896208">
        <ele>1128.226</ele>
        <time>2019-06-01T12:00:10Z</time>
      </trkpt>
      <trkpt lat="42.378689" lon="1.896213">
        <ele>1128.494</ele>
        <time>2019-06-01T12:00:11Z</time>
      </trkpt>
      <trkpt lat="42.378784" lon="1.896252">
        <ele>1129.075</ele>
        <time>2019-06-01T12:00:19Z</time>
      </trkpt>
      <trkpt lat="42.378842" lon="1.896269">
        <ele>1129.455</ele>
        <time>2019-06-01T12:00:24Z</time>
      </trkpt>
      <trkpt lat="42.378880" lon="1.896277">
        <ele>1130.407</ele>
        <time>2019-06-01T12:00:27Z</time>
      </trkpt>
      <trkpt lat="42.378980" lon="1.896329">
        <ele>1130.217</ele>
        <time>2019-06-01T12:00:35Z</time>
      </trkpt>
      <trkpt lat="42.379021" lon="1.896341">
        <ele>1130.608</ele>
        <time>2019-06-01T12:00:38Z</time>
      </trkpt>
      <trkpt lat="42.379111" lon="1.896373">
        <ele>1131.218</ele>
        <time>2019-06-01T12:00:46Z</time>
      </trkpt>
      <trkpt lat="42.379177" lon="1.896388">
        <ele>1131.652</ele>
        <time>2019-06-01T12:00:51Z</time>
      </trkpt>
      <trkpt lat="42.379203" lon="1.896400">
        <ele>1131.888</ele>
        <time>2019-06-01T12:00:53Z</time>
      </trkpt>
      <trkpt lat="42.379318" lon="1.896408">
        <ele>1132.486</ele>
        <time>2019-06-01T12:01:01Z</time>
      </trkpt>
      <trkpt lat="42.379335" lon="1.896410">
        <ele>1132.440</ele>
        <time>2019-06-01T12:01:02Z</time>
      </trkpt>
      <trkpt lat="42.379382" lon="1.896417">
        <ele>1132.687</ele>
        <time>2019-06-01T12:01:05Z</time>
      </trkpt>
      <trkpt lat="42.379440" lon="1.896410">
        <ele>1132.845</ele>
        <time>2019-06-01T12:01:09Z</time>
      </trkpt>
      <trkpt lat="42.379568" lon="1.896435">
        <ele>1133.676</ele>
        <time>2019-06-01T12:01:16Z</time>
      </trkpt>
      <trkpt lat="42.379694" lon="1.896439">
        <ele>1134.059</ele>
        <time>2019-06-01T12:01:22Z</time>
      </trkpt>
      <trkpt lat="42.379804" lon="1.896463">
        <ele>1134.803</ele>
        <time>2019-06-01T12:01:28Z</time>
      </trkpt>
      <trkpt lat="42.379858" lon="1.896482">
        <ele>1135.223</ele>
        <time>2019-06-01T12:01:31Z</time>
      </trkpt>
      <trkpt lat="42.379964" lon="1.896584">
        <ele>1135.408</ele>
        <time>2019-06-01T12:01:37Z</time>
      </trkpt>
      <trkpt lat="42.380031" lon="1.896764">
        <ele>1136.058</ele>
        <time>2019-06-01T12:01:43Z</time>
      </trkpt>
      <trkpt lat="42.380037" lon="1.896796">
        <ele>1136.232</ele>
        <time>2019-06-01T12:01:44Z</time>
      </trkpt>
      <trkpt lat="42.380107" lon="1.897025">
        <ele>1136.058</ele>
        <time>2019-06-01T12:01:51Z</time>
      </trkpt>
      <trkpt lat="42.380248" lon="1.897151">
        <ele>1136.836</ele>
        <time>2019-06-01T12:01:57Z</time>
      </trkpt>
      <trkpt lat="42.380347" lon="1.897243">
        <ele>1137.210</ele>
        <time>2019-06-01T12:02:01Z</time>
      </trkpt>
      <trkpt lat="42.380486" lon="1.897378">
        <ele>1136.677</ele>
        <time>2019-06-01T12:02:07Z</time>
      </trkpt>
      <trkpt lat="42.380720" lon="1.897527">
        <ele>1136.685</ele>
        <time>2019-06-01T12:02:15Z</time>
      </trkpt>
      <trkpt lat="42.380831" lon="1.897598">
        <ele>1136.036</ele>
        <time>2019-06-01T12:02:18Z</time>
      </trkpt>
      <trkpt lat="42.381001" lon="1.897688">
        <ele>1135.689</ele>
        <time>2019-06-01T12:02:22Z</time>
      </trkpt>
      <trkpt lat="42.381136" lon="1.897774">
        <ele>1134.806</ele>
        <time>2019-06-01T12:02:25Z</time>
      </trkpt>
      <trkpt lat="42.381282" lon="1.897864">
        <ele>1134.626</ele>
        <time>2019-06-01T12:02:28Z</time>
      </trkpt>
      <trkpt lat="42.381583" lon="1.898050">
        <ele>1134.208</ele>
        <time>2019-06-01T12:02:34Z</time>
      </trkpt>
      <trkpt lat="42.381633" lon="1.898078">
        <ele>1134.261</ele>
        <time>2019-06-01T12:02:35Z</time>
      </trkpt>
      <trkpt lat="42.381734" lon="1.898140">
        <ele>1133.835</ele>
        <time>2019-06-01T12:02:37Z</time>
      </trkpt>
      <trkpt lat="42.381974" lon="1.898285">
        <ele>1134.071</ele>
        <time>2019-06-01T12:02:42Z</time>
      </trkpt>
      <trkpt lat="42.382185" lon="1.898412">
        <ele>1135.079</ele>
        <time>2019-06-01T12:02:47Z</time>
      </trkpt>
      <trkpt lat="42.382263" lon="1.898456">
        <ele>1135.213</ele>
        <time>2019-06-01T12:02:49Z</time>
      </trkpt>
      <trkpt lat="42.382535" lon="1.898606">
        <ele>1136.220</ele>
        <time>2019-06-01T12:02:56Z</time>
      </trkpt>
      <trkpt lat="42.382618" lon="1.898647">
        <ele>1136.288</ele>
        <time>2019-06-01T12:02:58Z</time>
      </trkpt>
      <trkpt lat="42.382941" lon="1.898817">
        <ele>1136.479</ele>
        <time>2019-06-01T12:03:06Z</time>
      </trkpt>
      <trkpt lat="42.383327" lon="1.899022">
        <ele>1137.075</ele>
        <time>2019-06-01T12:03:15Z</time>
      </trkpt>
      <trkpt lat="42.383559" lon="1.899156">
        <ele>1136.028</ele>
        <time>2019-06-01T12:03:21Z</time>
      </trkpt>
      <trkpt lat="42.383762" lon="1.899260">
        <ele>1134.620</ele>
        <time>2019-06-01T12:03:25Z</time>
      </trkpt>
      <trkpt lat="42.383820" lon="1.899299">
        <ele>1134.008</ele>
        <time>2019-06-01T12:03:26Z</time>
      </trkpt>
      <trkpt lat="42.383882" lon="1.899343">
        <ele>1133.490</ele>
        <time>2019-06-01T12:03:27Z</time>
      </trkpt>
      <trkpt lat="42.383943" lon="1.899400">
        <ele>1133.094</ele>
        <time>2019-06-01T12:03:28Z</time>
      </trkpt>
      <trkpt lat="42.384062" lon="1.899538">
        <ele>1132.010</ele>
        <time>2019-06-01T12:03:30Z</time>
      </trkpt>
      <trkpt lat="42.384213" lon="1.899789">
        <ele>1130.858</ele>
        <time>2019-06-01T12:03:33Z</time>
      </trkpt>
      <trkpt lat="42.384240" lon="1.899880">
        <ele>1130.842</ele>
        <time>2019-06-01T12:03:34Z</time>
      </trkpt>
      <trkpt lat="42.384274" lon="1.900060">
        <ele>1131.659</ele>
        <time>2019-06-01T12:03:36Z</time>
      </trkpt>
      <trkpt lat="42.384283" lon="1.900148">
        <ele>1131.887</ele>
        <time>2019-06-01T12:03:37Z</time>
      </trkpt>
      <trkpt lat="42.384289" lon="1.900317">
        <ele>1132.238</ele>
        <time>2019-06-01T12:03:39Z</time>
      </trkpt>
      <trkpt lat="42.384267" lon="1.900676">
        <ele>1132.846</ele>
        <time>2019-06-01T12:03:44Z</time>
      </trkpt>
      <trkpt lat="42.384254" lon="1.900735">
        <ele>1133.088</ele>
        <time>2019-06-01T12:03:45Z</time>
      </trkpt>
      <trkpt lat="42.384197" lon="1.901016">
        <ele>1133.816</ele>
        <time>2019-06-01T12:03:50Z</time>
      </trkpt>
      <trkpt lat="42.384184" lon="1.901077">
        <ele>1134.208</ele>
        <time>2019-06-01T12:03:51Z</time>
      </trkpt>
      <trkpt lat="42.384160" lon="1.901200">
        <ele>1133.247</ele>
        <time>2019-06-01T12:03:53Z</time>
      </trkpt>
      <trkpt lat="42.384139" lon="1.901323">
        <ele>1132.041</ele>
        <time>2019-06-01T12:03:55Z</time>
      </trkpt>
      <trkpt lat="42.384126" lon="1.901385">
        <ele>1133.477</ele>
        <time>2019-06-01T12:03:56Z</time>
      </trkpt>
      <trkpt lat="42.384117" lon="1.901441">
        <ele>1133.015</ele>
        <time>2019-06-01T12:03:57Z</time>
      </trkpt>
      <trkpt lat="42.384043" lon="1.901760">
        <ele>1134.449</ele>
        <time>2019-06-01T12:04:02Z</time>
      </trkpt>
      <trkpt lat="42.384020" lon="1.901823">
        <ele>1134.456</ele>
        <time>2019-06-01T12:04:03Z</time>
      </trkpt>
      <trkpt lat="42.383925" lon="1.902002">
        <ele>1134.284</ele>
        <time>2019-06-01T12:04:06Z</time>
      </trkpt>
      <trkpt lat="42.383854" lon="1.902124">
        <ele>1134.295</ele>
        <time>2019-06-01T12:04:08Z</time>
      </trkpt>
      <trkpt lat="42.383781" lon="1.902275">
        <ele>1133.418</ele>
        <time>2019-06-01T12:04:10Z</time>
      </trkpt>
      <trkpt lat="42.383756" lon="1.902367">
        <ele>1132.698</ele>
        <time>2019-06-01T12:04:11Z</time>
      </trkpt>
      <trkpt lat="42.383740" lon="1.902469">
        <ele>1132.017</ele>
        <time>2019-06-01T12:04:12Z</time>
      </trkpt>
      <trkpt lat="42.383732" lon="1.902576">
        <ele>1131.408</ele>
        <time>2019-06-01T12:04:13Z</time>
      </trkpt>
      <trkpt lat="42.383728" lon="1.902794">
        <ele>1130.244</ele>
        <time>2019-06-01T12:04:15Z</time>
      </trkpt>
      <trkpt lat="42.383724" lon="1.902897">
        <ele>1129.848</ele>
        <time>2019-06-01T12:04:16Z</time>
      </trkpt>
      <trkpt lat="42.383702" lon="1.903339">
        <ele>1130.824</ele>
        <time>2019-06-01T12:04:21Z</time>
      </trkpt>
      <trkpt lat="42.383698" lon="1.903418">
        <ele>1131.212</ele>
        <time>2019-06-01T12:04:22Z</time>
      </trkpt>
      <trkpt lat="42.383696" lon="1.903489">
        <ele>1132.496</ele>
        <time>2019-06-01T12:04:23Z</time>
      </trkpt>
      <trkpt lat="42.383693" lon="1.903621">
        <ele>1133.483</ele>
        <time>2019-06-01T12:04:25Z</time>
      </trkpt>
      <trkpt lat="42.383698" lon="1.903684">
        <ele>1133.821</ele>
        <time>2019-06-01T12:04:26Z</time>
      </trkpt>
      <trkpt lat="42.383702" lon="1.903745">
        <ele>1134.072</ele>
        <time>2019-06-01T12:04:27Z</time>
      </trkpt>
      <trkpt lat="42.383707" lon="1.903869">
        <ele>1134.648</ele>
        <time>2019-06-01T12:04:29Z</time>
      </trkpt>
      <trkpt lat="42.383741" lon="1.904124">
        <ele>1134.261</ele>
        <time>2019-06-01T12:04:33Z</time>
      </trkpt>
      <trkpt lat="42.383830" lon="1.904468">
        <ele>1133.617</ele>
        <time>2019-06-01T12:04:38Z</time>
      </trkpt>
      <trkpt lat="42.383878" lon="1.904608">
        <ele>1133.408</ele>
        <time>2019-06-01T12:04:40Z</time>
      </trkpt>
      <trkpt lat="42.383984" lon="1.904820">
        <ele>1132.447</ele>
        <time>2019-06-01T12:04:43Z</time>
      </trkpt>
      <trkpt lat="42.384080" lon="1.904967">
        <ele>1131.611</ele>
        <time>2019-06-01T12:04:45Z</time>
      </trkpt>
      <trkpt lat="42.384135" lon="1.905042">
        <ele>1131.017</ele>
        <time>2019-06-01T12:04:46Z</time>
      </trkpt>
      <trkpt lat="42.384190" lon="1.905122">
        <ele>1130.015</ele>
        <time>2019-06-01T12:04:47Z</time>
      </trkpt>
      <trkpt lat="42.384300" lon="1.905292">
        <ele>1128.619</ele>
        <time>2019-06-01T12:04:49Z</time>
      </trkpt>
      <trkpt lat="42.384360" lon="1.905378">
        <ele>1127.636</ele>
        <time>2019-06-01T12:04:50Z</time>
      </trkpt>
      <trkpt lat="42.384417" lon="1.905467">
        <ele>1126.854</ele>
        <time>2019-06-01T12:04:51Z</time>
      </trkpt>
      <trkpt lat="42.384542" lon="1.905643">
        <ele>1125.485</ele>
        <time>2019-06-01T12:04:53Z</time>
      </trkpt>
      <trkpt lat="42.384721" lon="1.905898">
        <ele>1125.684</ele>
        <time>2019-06-01T12:04:56Z</time>
      </trkpt>
      <trkpt lat="42.384926" lon="1.906190">
        <ele>1126.407</ele>
        <time>2019-06-01T12:05:00Z</time>
      </trkpt>
      <trkpt lat="42.385010" lon="1.906318">
        <ele>1127.617</ele>
        <time>2019-06-01T12:05:02Z</time>
      </trkpt>
      <trkpt lat="42.385175" lon="1.906554">
        <ele>1128.608</ele>
        <time>2019-06-01T12:05:06Z</time>
      </trkpt>
      <trkpt lat="42.385297" lon="1.906721">
        <ele>1129.041</ele>
        <time>2019-06-01T12:05:09Z</time>
      </trkpt>
      <trkpt lat="42.385470" lon="1.906987">
        <ele>1129.825</ele>
        <time>2019-06-01T12:05:14Z</time>
      </trkpt>
      <trkpt lat="42.385539" lon="1.907080">
        <ele>1130.041</ele>
        <time>2019-06-01T12:05:16Z</time>
      </trkpt>
      <trkpt lat="42.385654" lon="1.907254">
        <ele>1131.069</ele>
        <time>2019-06-01T12:05:20Z</time>
      </trkpt>
      <trkpt lat="42.385718" lon="1.907358">
        <ele>1131.813</ele>
        <time>2019-06-01T12:05:23Z</time>
      </trkpt>
      <trkpt lat="42.385738" lon="1.907388">
        <ele>1132.230</ele>
        <time>2019-06-01T12:05:24Z</time>
      </trkpt>
      <trkpt lat="42.385832" lon="1.907510">
        <ele>1133.458</ele>
        <time>2019-06-01T12:05:29Z</time>
      </trkpt>
      <trkpt lat="42.385852" lon="1.907534">
        <ele>1133.459</ele>
        <time>2019-06-01T12:05:30Z</time>
      </trkpt>
      <trkpt lat="42.385952" lon="1.907665">
        <ele>1134.641</ele>
        <time>2019-06-01T12:05:35Z</time>
      </trkpt>
      <trkpt lat="42.385988" lon="1.907724">
        <ele>1135.281</ele>
        <time>2019-06-01T12:05:37Z</time>
      </trkpt>
      <trkpt lat="42.386045" lon="1.907798">
        <ele>1135.609</ele>
        <time>2019-06-01T12:05:40Z</time>
      </trkpt>
      <trkpt lat="42.386117" lon="1.907945">
        <ele>1136.608</ele>
        <time>2019-06-01T12:05:45Z</time>
      </trkpt>
      <trkpt lat="42.386166" lon="1.908020">
        <ele>1137.267</ele>
        <time>2019-06-01T12:05:49Z</time>
      </trkpt>
      <trkpt lat="42.386176" lon="1.908029">
        <ele>1137.251</ele>
        <time>2019-06-01T12:05:50Z</time>
      </trkpt>
      <trkpt lat="42.386198" lon="1.908062">
        <ele>1137.237</ele>
        <time>2019-06-01T12:05:52Z</time>
      </trkpt>
      <trkpt lat="42.386265" lon="1.908136">
        <ele>1137.035</ele>
        <time>2019-06-01T12:05:55Z</time>
      </trkpt>
      <trkpt lat="42.386469" lon="1.908250">
        <ele>1135.879</ele>
        <time>2019-06-01T12:06:00Z</time>
      </trkpt>
      <trkpt lat="42.386521" lon="1.908271">
        <ele>1135.466</ele>
        <time>2019-06-01T12:06:01Z</time>
      </trkpt>
      <trkpt lat="42.386681" lon="1.908350">
        <ele>1134.414</ele>
        <time>2019-06-01T12:06:04Z</time>
      </trkpt>
      <trkpt lat="42.386741" lon="1.908377">
        <ele>1133.815</ele>
        <time>2019-06-01T12:06:05Z</time>
      </trkpt>
      <trkpt lat="42.386867" lon="1.908435">
        <ele>1133.061</ele>
        <time>2019-06-01T12:06:07Z</time>
      </trkpt>
      <trkpt lat="42.387196" lon="1.908578">
        <ele>1132.221</ele>
        <time>2019-06-01T12:06:12Z</time>
      </trkpt>
      <trkpt lat="42.387326" lon="1.908633">
        <ele>1132.013</ele>
        <time>2019-06-01T12:06:14Z</time>
      </trkpt>
      <trkpt lat="42.387721" lon="1.908830">
        <ele>1130.808</ele>
        <time>2019-06-01T12:06:20Z</time>
      </trkpt>
      <trkpt lat="42.388055" lon="1.908977">
        <ele>1128.649</ele>
        <time>2019-06-01T12:06:25Z</time>
      </trkpt>
      <trkpt lat="42.388253" lon="1.909070">
        <ele>1130.613</ele>
        <time>2019-06-01T12:06:28Z</time>
      </trkpt>
      <trkpt lat="42.388389" lon="1.909137">
        <ele>1129.679</ele>
        <time>2019-06-01T12:06:30Z</time>
      </trkpt>
      <trkpt lat="42.388666" lon="1.909257">
        <ele>1128.817</ele>
        <time>2019-06-01T12:06:34Z</time>
      </trkpt>
      <trkpt lat="42.388734" lon="1.909290">
        <ele>1128.641</ele>
        <time>2019-06-01T12:06:35Z</time>
      </trkpt>
      <trkpt lat="42.389151" lon="1.909490">
        <ele>1126.448</ele>
        <time>2019-06-01T12:06:41Z</time>
      </trkpt>
      <trkpt lat="42.389222" lon="1.909519">
        <ele>1126.886</ele>
        <time>2019-06-01T12:06:42Z</time>
      </trkpt>
      <trkpt lat="42.389565" lon="1.909684">
        <ele>1125.087</ele>
        <time>2019-06-01T12:06:47Z</time>
      </trkpt>
      <trkpt lat="42.389636" lon="1.909716">
        <ele>1126.244</ele>
        <time>2019-06-01T12:06:48Z</time>
      </trkpt>
      <trkpt lat="42.389774" lon="1.909784">
        <ele>1126.605</ele>
        <time>2019-06-01T12:06:50Z</time>
      </trkpt>
      <trkpt lat="42.389910" lon="1.909851">
        <ele>1128.815</ele>
        <time>2019-06-01T12:06:52Z</time>
      </trkpt>
      <trkpt lat="42.390046" lon="1.909911">
        <ele>1127.408</ele>
        <time>2019-06-01T12:06:54Z</time>
      </trkpt>
      <trkpt lat="42.390113" lon="1.909947">
        <ele>1125.647</ele>
        <time>2019-06-01T12:06:55Z</time>
      </trkpt>
      <trkpt lat="42.390247" lon="1.910016">
        <ele>1125.061</ele>
        <time>2019-06-01T12:06:57Z</time>
      </trkpt>
      <trkpt lat="42.390384" lon="1.910080">
        <ele>1124.477</ele>
        <time>2019-06-01T12:06:59Z</time>
      </trkpt>
      <trkpt lat="42.390603" lon="1.910178">
        <ele>1123.265</ele>
        <time>2019-06-01T12:07:02Z</time>
      </trkpt>
      <trkpt lat="42.390759" lon="1.910249">
        <ele>1122.289</ele>
        <time>2019-06-01T12:07:04Z</time>
      </trkpt>
      <trkpt lat="42.391009" lon="1.910357">
        <ele>1121.086</ele>
        <time>2019-06-01T12:07:07Z</time>
      </trkpt>
      <trkpt lat="42.391276" lon="1.910498">
        <ele>1119.444</ele>
        <time>2019-06-01T12:07:10Z</time>
      </trkpt>
      <trkpt lat="42.391365" lon="1.910569">
        <ele>1118.015</ele>
        <time>2019-06-01T12:07:11Z</time>
      </trkpt>
      <trkpt lat="42.391452" lon="1.910649">
        <ele>1117.434</ele>
        <time>2019-06-01T12:07:12Z</time>
      </trkpt>
      <trkpt lat="42.391532" lon="1.910747">
        <ele>1116.855</ele>
        <time>2019-06-01T12:07:13Z</time>
      </trkpt>
      <trkpt lat="42.391605" lon="1.910859">
        <ele>1115.810</ele>
        <time>2019-06-01T12:07:14Z</time>
      </trkpt>
      <trkpt lat="42.391667" lon="1.910983">
        <ele>1115.208</ele>
        <time>2019-06-01T12:07:15Z</time>
      </trkpt>
      <trkpt lat="42.391726" lon="1.911110">
        <ele>1114.426</ele>
        <time>2019-06-01T12:07:16Z</time>
      </trkpt>
      <trkpt lat="42.391782" lon="1.911241">
        <ele>1113.650</ele>
        <time>2019-06-01T12:07:17Z</time>
      </trkpt>
      <trkpt lat="42.391840" lon="1.911372">
        <ele>1112.476</ele>
        <time>2019-06-01T12:07:18Z</time>
      </trkpt>
      <trkpt lat="42.391954" lon="1.911637">
        <ele>1111.034</ele>
        <time>2019-06-01T12:07:20Z</time>
      </trkpt>
      <trkpt lat="42.392078" lon="1.911903">
        <ele>1110.048</ele>
        <time>2019-06-01T12:07:22Z</time>
      </trkpt>
      <trkpt lat="42.392262" lon="1.912301">
        <ele>1108.695</ele>
        <time>2019-06-01T12:07:25Z</time>
      </trkpt>
      <trkpt lat="42.392587" lon="1.913042">
        <ele>1107.853</ele>
        <time>2019-06-01T12:07:31Z</time>
      </trkpt>
      <trkpt lat="42.392640" lon="1.913154">
        <ele>1107.694</ele>
        <time>2019-06-01T12:07:32Z</time>
      </trkpt>
      <trkpt lat="42.392814" lon="1.913453">
        <ele>1108.281</ele>
        <time>2019-06-01T12:07:35Z</time>
      </trkpt>
      <trkpt lat="42.392888" lon="1.913523">
        <ele>1108.261</ele>
        <time>2019-06-01T12:07:36Z</time>
      </trkpt>
      <trkpt lat="42.393152" lon="1.913594">
        <ele>1108.417</ele>
        <time>2019-06-01T12:07:39Z</time>
      </trkpt>
      <trkpt lat="42.393437" lon="1.913481">
        <ele>1107.208</ele>
        <time>2019-06-01T12:07:42Z</time>
      </trkpt>
      <trkpt lat="42.393622" lon="1.913404">
        <ele>1106.011</ele>
        <time>2019-06-01T12:07:44Z</time>
      </trkpt>
      <trkpt lat="42.393975" lon="1.913245">
        <ele>1106.085</ele>
        <time>2019-06-01T12:07:48Z</time>
      </trkpt>
      <trkpt lat="42.394244" lon="1.913144">
        <ele>1104.821</ele>
        <time>2019-06-01T12:07:51Z</time>
      </trkpt>
      <trkpt lat="42.394439" lon="1.913116">
        <ele>1104.029</ele>
        <time>2019-06-01T12:07:53Z</time>
      </trkpt>
      <trkpt lat="42.394542" lon="1.913133">
        <ele>1103.463</ele>
        <time>2019-06-01T12:07:54Z</time>
      </trkpt>
      <trkpt lat="42.394749" lon="1.913205">
        <ele>1102.250</ele>
        <time>2019-06-01T12:07:56Z</time>
      </trkpt>
      <trkpt lat="42.394854" lon="1.913252">
        <ele>1101.428</ele>
        <time>2019-06-01T12:07:57Z</time>
      </trkpt>
      <trkpt lat="42.394952" lon="1.913309">
        <ele>1100.449</ele>
        <time>2019-06-01T12:07:58Z</time>
      </trkpt>
      <trkpt lat="42.395210" lon="1.913505">
        <ele>1099.491</ele>
        <time>2019-06-01T12:08:01Z</time>
      </trkpt>
      <trkpt lat="42.395289" lon="1.913591">
        <ele>1098.881</ele>
        <time>2019-06-01T12:08:02Z</time>
      </trkpt>
      <trkpt lat="42.395358" lon="1.913688">
        <ele>1098.019</ele>
        <time>2019-06-01T12:08:03Z</time>
      </trkpt>
      <trkpt lat="42.395486" lon="1.913911">
        <ele>1096.808</ele>
        <time>2019-06-01T12:08:05Z</time>
      </trkpt>
      <trkpt lat="42.395621" lon="1.914140">
        <ele>1095.692</ele>
        <time>2019-06-01T12:08:07Z</time>
      </trkpt>
      <trkpt lat="42.395766" lon="1.914370">
        <ele>1094.276</ele>
        <time>2019-06-01T12:08:09Z</time>
      </trkpt>
      <trkpt lat="42.395917" lon="1.914596">
        <ele>1092.442</ele>
        <time>2019-06-01T12:08:11Z</time>
      </trkpt>
      <trkpt lat="42.395996" lon="1.914707">
        <ele>1092.040</ele>
        <time>2019-06-01T12:08:12Z</time>
      </trkpt>
      <trkpt lat="42.396169" lon="1.914921">
        <ele>1091.264</ele>
        <time>2019-06-01T12:08:14Z</time>
      </trkpt>
      <trkpt lat="42.396353" lon="1.915127">
        <ele>1089.021</ele>
        <time>2019-06-01T12:08:16Z</time>
      </trkpt>
      <trkpt lat="42.396449" lon="1.915222">
        <ele>1088.039</ele>
        <time>2019-06-01T12:08:17Z</time>
      </trkpt>
      <trkpt lat="42.396704" lon="1.915465">
        <ele>1087.660</ele>
        <time>2019-06-01T12:08:20Z</time>
      </trkpt>
      <trkpt lat="42.396933" lon="1.915634">
        <ele>1084.659</ele>
        <time>2019-06-01T12:08:23Z</time>
      </trkpt>
      <trkpt lat="42.397010" lon="1.915679">
        <ele>1084.403</ele>
        <time>2019-06-01T12:08:24Z</time>
      </trkpt>
      <trkpt lat="42.397083" lon="1.915725">
        <ele>1086.023</ele>
        <time>2019-06-01T12:08:25Z</time>
      </trkpt>
      <trkpt lat="42.397235" lon="1.915834">
        <ele>1084.608</ele>
        <time>2019-06-01T12:08:27Z</time>
      </trkpt>
      <trkpt lat="42.397381" lon="1.915945">
        <ele>1083.498</ele>
        <time>2019-06-01T12:08:29Z</time>
      </trkpt>
      <trkpt lat="42.397586" lon="1.916098">
        <ele>1082.292</ele>
        <time>2019-06-01T12:08:32Z</time>
      </trkpt>
      <trkpt lat="42.397843" lon="1.916289">
        <ele>1081.228</ele>
        <time>2019-06-01T12:08:36Z</time>
      </trkpt>
      <trkpt lat="42.398070" lon="1.916401">
        <ele>1079.486</ele>
        <time>2019-06-01T12:08:39Z</time>
      </trkpt>
      <trkpt lat="42.398151" lon="1.916426">
        <ele>1078.630</ele>
        <time>2019-06-01T12:08:40Z</time>
      </trkpt>
      <trkpt lat="42.398237" lon="1.916445">
        <ele>1077.497</ele>
        <time>2019-06-01T12:08:41Z</time>
      </trkpt>
      <trkpt lat="42.398413" lon="1.916483">
        <ele>1076.095</ele>
        <time>2019-06-01T12:08:43Z</time>
      </trkpt>
      <trkpt lat="42.398488" lon="1.916496">
        <ele>1075.816</ele>
        <time>2019-06-01T12:08:44Z</time>
      </trkpt>
      <trkpt lat="42.398553" lon="1.916493">
        <ele>1075.664</ele>
        <time>2019-06-01T12:08:45Z</time>
      </trkpt>
      <trkpt lat="42.398683" lon="1.916489">
        <ele>1074.806</ele>
        <time>2019-06-01T12:08:47Z</time>
      </trkpt>
      <trkpt lat="42.398744" lon="1.916482">
        <ele>1073.216</ele>
        <time>2019-06-01T12:08:48Z</time>
      </trkpt>
      <trkpt lat="42.399022" lon="1.916443">
        <ele>1071.408</ele>
        <time>2019-06-01T12:08:52Z</time>
      </trkpt>
      <trkpt lat="42.399177" lon="1.916401">
        <ele>1070.219</ele>
        <time>2019-06-01T12:08:54Z</time>
      </trkpt>
      <trkpt lat="42.399408" lon="1.916334">
        <ele>1068.863</ele>
        <time>2019-06-01T12:08:57Z</time>
      </trkpt>
      <trkpt lat="42.399559" lon="1.916327">
        <ele>1068.699</ele>
        <time>2019-06-01T12:08:59Z</time>
      </trkpt>
      <trkpt lat="42.399705" lon="1.916348">
        <ele>1067.447</ele>
        <time>2019-06-01T12:09:01Z</time>
      </trkpt>
      <trkpt lat="42.399828" lon="1.916390">
        <ele>1067.081</ele>
        <time>2019-06-01T12:09:03Z</time>
      </trkpt>
      <trkpt lat="42.399935" lon="1.916494">
        <ele>1066.218</ele>
        <time>2019-06-01T12:09:05Z</time>
      </trkpt>
      <trkpt lat="42.399990" lon="1.916556">
        <ele>1066.276</ele>
        <time>2019-06-01T12:09:06Z</time>
      </trkpt>
      <trkpt lat="42.400080" lon="1.916689">
        <ele>1065.247</ele>
        <time>2019-06-01T12:09:08Z</time>
      </trkpt>
      <trkpt lat="42.400111" lon="1.916771">
        <ele>1063.278</ele>
        <time>2019-06-01T12:09:09Z</time>
      </trkpt>
      <trkpt lat="42.400135" lon="1.916857">
        <ele>1063.633</ele>
        <time>2019-06-01T12:09:10Z</time>
      </trkpt>
      <trkpt lat="42.400184" lon="1.917028">
        <ele>1064.426</ele>
        <time>2019-06-01T12:09:12Z</time>
      </trkpt>
      <trkpt lat="42.400304" lon="1.917444">
        <ele>1063.008</ele>
        <time>2019-06-01T12:09:17Z</time>
      </trkpt>
      <trkpt lat="42.400350" lon="1.917602">
        <ele>1063.040</ele>
        <time>2019-06-01T12:09:19Z</time>
      </trkpt>
      <trkpt lat="42.400380" lon="1.917726">
        <ele>1063.274</ele>
        <time>2019-06-01T12:09:21Z</time>
      </trkpt>
      <trkpt lat="42.400467" lon="1.917802">
        <ele>1063.250</ele>
        <time>2019-06-01T12:09:24Z</time>
      </trkpt>
      <trkpt lat="42.400572" lon="1.917746">
        <ele>1063.438</ele>
        <time>2019-06-01T12:09:27Z</time>
      </trkpt>
      <trkpt lat="42.400647" lon="1.917642">
        <ele>1062.872</ele>
        <time>2019-06-01T12:09:30Z</time>
      </trkpt>
      <trkpt lat="42.400667" lon="1.917599">
        <ele>1062.659</ele>
        <time>2019-06-01T12:09:31Z</time>
      </trkpt>
      <trkpt lat="42.400772" lon="1.917395">
        <ele>1062.637</ele>
        <time>2019-06-01T12:09:36Z</time>
      </trkpt>
      <trkpt lat="42.400825" lon="1.917253">
        <ele>1062.038</ele>
        <time>2019-06-01T12:09:39Z</time>
      </trkpt>
      <trkpt lat="42.400851" lon="1.917238">
        <ele>1062.095</ele>
        <time>2019-06-01T12:09:40Z</time>
      </trkpt>
      <trkpt lat="42.400925" lon="1.917287">
        <ele>1062.249</ele>
        <time>2019-06-01T12:09:43Z</time>
      </trkpt>
      <trkpt lat="42.401058" lon="1.917298">
        <ele>1062.023</ele>
        <time>2019-06-01T12:09:47Z</time>
      </trkpt>
      <trkpt lat="42.401186" lon="1.917384">
        <ele>1062.008</ele>
        <time>2019-06-01T12:09:51Z</time>
      </trkpt>
      <trkpt lat="42.401233" lon="1.917549">
        <ele>1061.672</ele>
        <time>2019-06-01T12:09:55Z</time>
      </trkpt>
      <trkpt lat="42.401241" lon="1.917590">
        <ele>1061.636</ele>
        <time>2019-06-01T12:09:56Z</time>
      </trkpt>
      <trkpt lat="42.401329" lon="1.917853">
        <ele>1061.672</ele>
        <time>2019-06-01T12:10:01Z</time>
      </trkpt>
      <trkpt lat="42.401343" lon="1.917909">
        <ele>1061.630</ele>
        <time>2019-06-01T12:10:02Z</time>
      </trkpt>
      <trkpt lat="42.401383" lon="1.918114">
        <ele>1061.654</ele>
        <time>2019-06-01T12:10:06Z</time>
      </trkpt>
      <trkpt lat="42.401438" lon="1.918383">
        <ele>1061.631</ele>
        <time>2019-06-01T12:10:12Z</time>
      </trkpt>
      <trkpt lat="42.401470" lon="1.918569">
        <ele>1061.879</ele>
        <time>2019-06-01T12:10:16Z</time>
      </trkpt>
      <trkpt lat="42.401454" lon="1.918874">
        <ele>1062.410</ele>
        <time>2019-06-01T12:10:22Z</time>
      </trkpt>
      <trkpt lat="42.401325" lon="1.919127">
        <ele>1062.834</ele>
        <time>2019-06-01T12:10:28Z</time>
      </trkpt>
      <trkpt lat="42.401131" lon="1.919348">
        <ele>1062.455</ele>
        <time>2019-06-01T12:10:35Z</time>
      </trkpt>
      <trkpt lat="42.401022" lon="1.919496">
        <ele>1062.410</ele>
        <time>2019-06-01T12:10:39Z</time>
      </trkpt>
      <trkpt lat="42.400996" lon="1.919623">
        <ele>1061.608</ele>
        <time>2019-06-01T12:10:41Z</time>
      </trkpt>
      <trkpt lat="42.401049" lon="1.919810">
        <ele>1061.456</ele>
        <time>2019-06-01T12:10:44Z</time>
      </trkpt>
      <trkpt lat="42.401077" lon="1.920017">
        <ele>1061.880</ele>
        <time>2019-06-01T12:10:48Z</time>
      </trkpt>
      <trkpt lat="42.401073" lon="1.920272">
        <ele>1062.886</ele>
        <time>2019-06-01T12:10:54Z</time>
      </trkpt>
      <trkpt lat="42.401070" lon="1.920315">
        <ele>1063.024</ele>
        <time>2019-06-01T12:10:55Z</time>
      </trkpt>
      <trkpt lat="42.401058" lon="1.920588">
        <ele>1063.248</ele>
        <time>2019-06-01T12:11:01Z</time>
      </trkpt>
      <trkpt lat="42.401111" lon="1.920869">
        <ele>1063.655</ele>
        <time>2019-06-01T12:11:08Z</time>
      </trkpt>
      <trkpt lat="42.401264" lon="1.921199">
        <ele>1063.843</ele>
        <time>2019-06-01T12:11:16Z</time>
      </trkpt>
      <trkpt lat="42.401476" lon="1.921557">
        <ele>1064.054</ele>
        <time>2019-06-01T12:11:25Z</time>
      </trkpt>
      <trkpt lat="42.401709" lon="1.921904">
        <ele>1063.844</ele>
        <time>2019-06-01T12:11:34Z</time>
      </trkpt>
      <trkpt lat="42.401732" lon="1.921939">
        <ele>1064.405</ele>
        <time>2019-06-01T12:11:35Z</time>
      </trkpt>
      <trkpt lat="42.401848" lon="1.922095">
        <ele>1064.015</ele>
        <time>2019-06-01T12:11:40Z</time>
      </trkpt>
      <trkpt lat="42.402001" lon="1.922337">
        <ele>1064.008</ele>
        <time>2019-06-01T12:11:47Z</time>
      </trkpt>
      <trkpt lat="42.402185" lon="1.922672">
        <ele>1064.437</ele>
        <time>2019-06-01T12:11:55Z</time>
      </trkpt>
      <trkpt lat="42.402336" lon="1.922987">
        <ele>1064.831</ele>
        <time>2019-06-01T12:12:03Z</time>
      </trkpt>
      <trkpt lat="42.402481" lon="1.923311">
        <ele>1065.067</ele>
        <time>2019-06-01T12:12:11Z</time>
      </trkpt>
      <trkpt lat="42.402580" lon="1.923624">
        <ele>1065.275</ele>
        <time>2019-06-01T12:12:18Z</time>
      </trkpt>
      <trkpt lat="42.402644" lon="1.923859">
        <ele>1065.429</ele>
        <time>2019-06-01T12:12:24Z</time>
      </trkpt>
      <trkpt lat="42.402650" lon="1.923900">
        <ele>1065.426</ele>
        <time>2019-06-01T12:12:25Z</time>
      </trkpt>
      <trkpt lat="42.402703" lon="1.924101">
        <ele>1065.244</ele>
        <time>2019-06-01T12:12:30Z</time>
      </trkpt>
      <trkpt lat="42.402806" lon="1.924301">
        <ele>1065.415</ele>
        <time>2019-06-01T12:12:35Z</time>
      </trkpt>
      <trkpt lat="42.402827" lon="1.924380">
        <ele>1065.872</ele>
        <time>2019-06-01T12:12:37Z</time>
      </trkpt>
      <trkpt lat="42.402826" lon="1.924509">
        <ele>1065.613</ele>
        <time>2019-06-01T12:12:40Z</time>
      </trkpt>
      <trkpt lat="42.402824" lon="1.924860">
        <ele>1066.214</ele>
        <time>2019-06-01T12:12:48Z</time>
      </trkpt>
      <trkpt lat="42.402837" lon="1.925214">
        <ele>1066.408</ele>
        <time>2019-06-01T12:12:56Z</time>
      </trkpt>
      <trkpt lat="42.402878" lon="1.925487">
        <ele>1066.810</ele>
        <time>2019-06-01T12:13:03Z</time>
      </trkpt>
      <trkpt lat="42.402924" lon="1.925724">
        <ele>1067.694</ele>
        <time>2019-06-01T12:13:09Z</time>
      </trkpt>
      <trkpt lat="42.402991" lon="1.926055">
        <ele>1067.260</ele>
        <time>2019-06-01T12:13:16Z</time>
      </trkpt>
      <trkpt lat="42.403027" lon="1.926303">
        <ele>1067.688</ele>
        <time>2019-06-01T12:13:22Z</time>
      </trkpt>
      <trkpt lat="42.403060" lon="1.926601">
        <ele>1067.692</ele>
        <time>2019-06-01T12:13:29Z</time>
      </trkpt>
      <trkpt lat="42.403113" lon="1.926880">
        <ele>1067.889</ele>
        <time>2019-06-01T12:13:35Z</time>
      </trkpt>
      <trkpt lat="42.403174" lon="1.927142">
        <ele>1068.047</ele>
        <time>2019-06-01T12:13:41Z</time>
      </trkpt>
      <trkpt lat="42.403262" lon="1.927482">
        <ele>1067.868</ele>
        <time>2019-06-01T12:13:49Z</time>
      </trkpt>
      <trkpt lat="42.403333" lon="1.927705">
        <ele>1068.448</ele>
        <time>2019-06-01T12:13:54Z</time>
      </trkpt>
      <trkpt lat="42.403411" lon="1.927933">
        <ele>1068.661</ele>
        <time>2019-06-01T12:14:00Z</time>
      </trkpt>
      <trkpt lat="42.403431" lon="1.927980">
        <ele>1068.417</ele>
        <time>2019-06-01T12:14:01Z</time>
      </trkpt>
      <trkpt lat="42.403564" lon="1.928257">
        <ele>1069.408</ele>
        <time>2019-06-01T12:14:07Z</time>
      </trkpt>
      <trkpt lat="42.403736" lon="1.928591">
        <ele>1069.217</ele>
        <time>2019-06-01T12:14:15Z</time>
      </trkpt>
      <trkpt lat="42.403829" lon="1.928734">
        <ele>1069.851</ele>
        <time>2019-06-01T12:14:19Z</time>
      </trkpt>
      <trkpt lat="42.403909" lon="1.928857">
        <ele>1069.667</ele>
        <time>2019-06-01T12:14:23Z</time>
      </trkpt>
      <trkpt lat="42.404061" lon="1.929063">
        <ele>1069.435</ele>
        <time>2019-06-01T12:14:29Z</time>
      </trkpt>
      <trkpt lat="42.404236" lon="1.929273">
        <ele>1069.829</ele>
        <time>2019-06-01T12:14:36Z</time>
      </trkpt>
      <trkpt lat="42.404276" lon="1.929420">
        <ele>1070.476</ele>
        <time>2019-06-01T12:14:40Z</time>
      </trkpt>
      <trkpt lat="42.404379" lon="1.929532">
        <ele>1070.074</ele>
        <time>2019-06-01T12:14:44Z</time>
      </trkpt>
      <trkpt lat="42.404487" lon="1.929584">
        <ele>1070.885</ele>
        <time>2019-06-01T12:14:48Z</time>
      </trkpt>
      <trkpt lat="42.404516" lon="1.929592">
        <ele>1070.873</ele>
        <time>2019-06-01T12:14:49Z</time>
      </trkpt>
      <trkpt lat="42.404687" lon="1.929631">
        <ele>1070.685</ele>
        <time>2019-06-01T12:14:54Z</time>
      </trkpt>
      <trkpt lat="42.404830" lon="1.929718">
        <ele>1070.813</ele>
        <time>2019-06-01T12:14:59Z</time>
      </trkpt>
      <trkpt lat="42.404961" lon="1.929871">
        <ele>1070.808</ele>
        <time>2019-06-01T12:15:05Z</time>
      </trkpt>
      <trkpt lat="42.405109" lon="1.930137">
        <ele>1070.850</ele>
        <time>2019-06-01T12:15:12Z</time>
      </trkpt>
      <trkpt lat="42.405295" lon="1.930486">
        <ele>1070.894</ele>
        <time>2019-06-01T12:15:20Z</time>
      </trkpt>
      <trkpt lat="42.405476" lon="1.930831">
        <ele>1071.290</ele>
        <time>2019-06-01T12:15:28Z</time>
      </trkpt>
      <trkpt lat="42.405631" lon="1.931117">
        <ele>1071.018</ele>
        <time>2019-06-01T12:15:35Z</time>
      </trkpt>
      <trkpt lat="42.405841" lon="1.931482">
        <ele>1071.452</ele>
        <time>2019-06-01T12:15:44Z</time>
      </trkpt>
      <trkpt lat="42.406038" lon="1.931799">
        <ele>1071.689</ele>
        <time>2019-06-01T12:15:52Z</time>
      </trkpt>
      <trkpt lat="42.406078" lon="1.931886">
        <ele>1072.057</ele>
        <time>2019-06-01T12:15:54Z</time>
      </trkpt>
      <trkpt lat="42.406184" lon="1.932089">
        <ele>1072.228</ele>
        <time>2019-06-01T12:15:59Z</time>
      </trkpt>
      <trkpt lat="42.406321" lon="1.932318">
        <ele>1072.482</ele>
        <time>2019-06-01T12:16:05Z</time>
      </trkpt>
      <trkpt lat="42.406459" lon="1.932432">
        <ele>1073.043</ele>
        <time>2019-06-01T12:16:10Z</time>
      </trkpt>
      <trkpt lat="42.406659" lon="1.932563">
        <ele>1072.617</ele>
        <time>2019-06-01T12:16:16Z</time>
      </trkpt>
      <trkpt lat="42.406814" lon="1.932631">
        <ele>1072.208</ele>
        <time>2019-06-01T12:16:21Z</time>
      </trkpt>
      <trkpt lat="42.406983" lon="1.932706">
        <ele>1073.061</ele>
        <time>2019-06-01T12:16:26Z</time>
      </trkpt>
      <trkpt lat="42.407108" lon="1.932762">
        <ele>1073.235</ele>
        <time>2019-06-01T12:16:31Z</time>
      </trkpt>
      <trkpt lat="42.407330" lon="1.932804">
        <ele>1072.841</ele>
        <time>2019-06-01T12:16:38Z</time>
      </trkpt>
      <trkpt lat="42.407600" lon="1.932826">
        <ele>1073.439</ele>
        <time>2019-06-01T12:16:46Z</time>
      </trkpt>
      <trkpt lat="42.407832" lon="1.932801">
        <ele>1073.253</ele>
        <time>2019-06-01T12:16:52Z</time>
      </trkpt>
      <trkpt lat="42.408004" lon="1.932752">
        <ele>1073.030</ele>
        <time>2019-06-01T12:16:57Z</time>
      </trkpt>
      <trkpt lat="42.408172" lon="1.932740">
        <ele>1073.038</ele>
        <time>2019-06-01T12:17:02Z</time>
      </trkpt>
      <trkpt lat="42.408439" lon="1.932724">
        <ele>1073.479</ele>
        <time>2019-06-01T12:17:09Z</time>
      </trkpt>
      <trkpt lat="42.408723" lon="1.932653">
        <ele>1073.057</ele>
        <time>2019-06-01T12:17:17Z</time>
      </trkpt>
      <trkpt lat="42.408975" lon="1.932639">
        <ele>1073.200</ele>
        <time>2019-06-01T12:17:24Z</time>
      </trkpt>
      <trkpt lat="42.409081" lon="1.932649">
        <ele>1073.820</ele>
        <time>2019-06-01T12:17:28Z</time>
      </trkpt>
      <trkpt lat="42.409126" lon="1.932646">
        <ele>1074.008</ele>
        <time>2019-06-01T12:17:30Z</time>
      </trkpt>
      <trkpt lat="42.409236" lon="1.932611">
        <ele>1073.818</ele>
        <time>2019-06-01T12:17:34Z</time>
      </trkpt>
      <trkpt lat="42.409402" lon="1.932551">
        <ele>1074.012</ele>
        <time>2019-06-01T12:17:40Z</time>
      </trkpt>
      <trkpt lat="42.409563" lon="1.932482">
        <ele>1074.048</ele>
        <time>2019-06-01T12:17:46Z</time>
      </trkpt>
      <trkpt lat="42.409667" lon="1.932425">
        <ele>1074.416</ele>
        <time>2019-06-01T12:17:51Z</time>
      </trkpt>
      <trkpt lat="42.409813" lon="1.932304">
        <ele>1075.010</ele>
        <time>2019-06-01T12:17:56Z</time>
      </trkpt>
      <trkpt lat="42.409848" lon="1.932281">
        <ele>1075.217</ele>
        <time>2019-06-01T12:17:57Z</time>
      </trkpt>
      <trkpt lat="42.409949" lon="1.932214">
        <ele>1075.285</ele>
        <time>2019-06-01T12:18:00Z</time>
      </trkpt>
      <trkpt lat="42.409967" lon="1.932201">
        <ele>1075.256</ele>
        <time>2019-06-01T12:18:01Z</time>
      </trkpt>
      <trkpt lat="42.410092" lon="1.932095">
        <ele>1075.051</ele>
        <time>2019-06-01T12:18:06Z</time>
      </trkpt>
      <trkpt lat="42.410279" lon="1.931991">
        <ele>1075.601</ele>
        <time>2019-06-01T12:18:11Z</time>
      </trkpt>
      <trkpt lat="42.410526" lon="1.931867">
        <ele>1075.411</ele>
        <time>2019-06-01T12:18:18Z</time>
      </trkpt>
      <trkpt lat="42.410713" lon="1.931800">
        <ele>1076.008</ele>
        <time>2019-06-01T12:18:24Z</time>
      </trkpt>
      <trkpt lat="42.410827" lon="1.931761">
        <ele>1076.238</ele>
        <time>2019-06-01T12:18:29Z</time>
      </trkpt>
      <trkpt lat="42.411037" lon="1.931733">
        <ele>1076.652</ele>
        <time>2019-06-01T12:18:35Z</time>
      </trkpt>
      <trkpt lat="42.411252" lon="1.931756">
        <ele>1077.258</ele>
        <time>2019-06-01T12:18:42Z</time>
      </trkpt>
      <trkpt lat="42.411433" lon="1.931797">
        <ele>1077.236</ele>
        <time>2019-06-01T12:18:48Z</time>
      </trkpt>
      <trkpt lat="42.411463" lon="1.931817">
        <ele>1077.210</ele>
        <time>2019-06-01T12:18:49Z</time>
      </trkpt>
      <trkpt lat="42.411622" lon="1.931942">
        <ele>1077.237</ele>
        <time>2019-06-01T12:18:54Z</time>
      </trkpt>
      <trkpt lat="42.411900" lon="1.932202">
        <ele>1077.695</ele>
        <time>2019-06-01T12:19:03Z</time>
      </trkpt>
      <trkpt lat="42.412069" lon="1.932374">
        <ele>1078.436</ele>
        <time>2019-06-01T12:19:10Z</time>
      </trkpt>
      <trkpt lat="42.412089" lon="1.932400">
        <ele>1078.643</ele>
        <time>2019-06-01T12:19:11Z</time>
      </trkpt>
      <trkpt lat="42.412156" lon="1.932601">
        <ele>1078.864</ele>
        <time>2019-06-01T12:19:17Z</time>
      </trkpt>
      <trkpt lat="42.412215" lon="1.932914">
        <ele>1079.010</ele>
        <time>2019-06-01T12:19:25Z</time>
      </trkpt>
      <trkpt lat="42.412225" lon="1.932996">
        <ele>1079.608</ele>
        <time>2019-06-01T12:19:27Z</time>
      </trkpt>
      <trkpt lat="42.412261" lon="1.933185">
        <ele>1080.067</ele>
        <time>2019-06-01T12:19:32Z</time>
      </trkpt>
      <trkpt lat="42.412329" lon="1.933499">
        <ele>1080.231</ele>
        <time>2019-06-01T12:19:41Z</time>
      </trkpt>
      <trkpt lat="42.412367" lon="1.933725">
        <ele>1079.667</ele>
        <time>2019-06-01T12:19:47Z</time>
      </trkpt>
      <trkpt lat="42.412396" lon="1.933913">
        <ele>1080.625</ele>
        <time>2019-06-01T12:19:52Z</time>
      </trkpt>
      <trkpt lat="42.412405" lon="1.933950">
        <ele>1080.849</ele>
        <time>2019-06-01T12:19:53Z</time>
      </trkpt>
      <trkpt lat="42.412447" lon="1.934210">
        <ele>1081.246</ele>
        <time>2019-06-01T12:20:00Z</time>
      </trkpt>
      <trkpt lat="42.412501" lon="1.934551">
        <ele>1081.894</ele>
        <time>2019-06-01T12:20:09Z</time>
      </trkpt>
      <trkpt lat="42.412561" lon="1.934814">
        <ele>1082.415</ele>
        <time>2019-06-01T12:20:16Z</time>
      </trkpt>
      <trkpt lat="42.412621" lon="1.935104">
        <ele>1083.274</ele>
        <time>2019-06-01T12:20:24Z</time>
      </trkpt>
      <trkpt lat="42.412626" lon="1.935137">
        <ele>1083.456</ele>
        <time>2019-06-01T12:20:25Z</time>
      </trkpt>
      <trkpt lat="42.412651" lon="1.935402">
        <ele>1083.821</ele>
        <time>2019-06-01T12:20:33Z</time>
      </trkpt>
      <trkpt lat="42.412664" lon="1.935543">
        <ele>1085.208</ele>
        <time>2019-06-01T12:20:37Z</time>
      </trkpt>
      <trkpt lat="42.412683" lon="1.935720">
        <ele>1085.070</ele>
        <time>2019-06-01T12:20:42Z</time>
      </trkpt>
      <trkpt lat="42.412719" lon="1.936021">
        <ele>1085.064</ele>
        <time>2019-06-01T12:20:51Z</time>
      </trkpt>
      <trkpt lat="42.412753" lon="1.936224">
        <ele>1085.660</ele>
        <time>2019-06-01T12:20:57Z</time>
      </trkpt>
      <trkpt lat="42.412787" lon="1.936459">
        <ele>1085.448</ele>
        <time>2019-06-01T12:21:04Z</time>
      </trkpt>
      <trkpt lat="42.412826" lon="1.936691">
        <ele>1085.662</ele>
        <time>2019-06-01T12:21:11Z</time>
      </trkpt>
      <trkpt lat="42.412879" lon="1.936871">
        <ele>1086.259</ele>
        <time>2019-06-01T12:21:17Z</time>
      </trkpt>
      <trkpt lat="42.412887" lon="1.936899">
        <ele>1086.237</ele>
        <time>2019-06-01T12:21:18Z</time>
      </trkpt>
      <trkpt lat="42.412929" lon="1.937118">
        <ele>1086.878</ele>
        <time>2019-06-01T12:21:25Z</time>
      </trkpt>
      <trkpt lat="42.413029" lon="1.937384">
        <ele>1087.076</ele>
        <time>2019-06-01T12:21:33Z</time>
      </trkpt>
      <trkpt lat="42.413063" lon="1.937452">
        <ele>1087.290</ele>
        <time>2019-06-01T12:21:35Z</time>
      </trkpt>
      <trkpt lat="42.413108" lon="1.937613">
        <ele>1087.419</ele>
        <time>2019-06-01T12:21:39Z</time>
      </trkpt>
      <trkpt lat="42.413214" lon="1.937873">
        <ele>1088.008</ele>
        <time>2019-06-01T12:21:45Z</time>
      </trkpt>
      <trkpt lat="42.413336" lon="1.938087">
        <ele>1088.490</ele>
        <time>2019-06-01T12:21:51Z</time>
      </trkpt>
      <trkpt lat="42.413386" lon="1.938146">
        <ele>1088.674</ele>
        <time>2019-06-01T12:21:53Z</time>
      </trkpt>
      <trkpt lat="42.413498" lon="1.938361">
        <ele>1088.820</ele>
        <time>2019-06-01T12:21:59Z</time>
      </trkpt>
      <trkpt lat="42.413544" lon="1.938455">
        <ele>1088.698</ele>
        <time>2019-06-01T12:22:01Z</time>
      </trkpt>
      <trkpt lat="42.413574" lon="1.938571">
        <ele>1087.852</ele>
        <time>2019-06-01T12:22:03Z</time>
      </trkpt>
      <trkpt lat="42.413599" lon="1.938618">
        <ele>1087.269</ele>
        <time>2019-06-01T12:22:04Z</time>
      </trkpt>
      <trkpt lat="42.413687" lon="1.938719">
        <ele>1087.697</ele>
        <time>2019-06-01T12:22:07Z</time>
      </trkpt>
      <trkpt lat="42.413711" lon="1.938745">
        <ele>1087.658</ele>
        <time>2019-06-01T12:22:08Z</time>
      </trkpt>
      <trkpt lat="42.413827" lon="1.938804">
        <ele>1088.074</ele>
        <time>2019-06-01T12:22:12Z</time>
      </trkpt>
      <trkpt lat="42.413981" lon="1.938855">
        <ele>1087.856</ele>
        <time>2019-06-01T12:22:17Z</time>
      </trkpt>
      <trkpt lat="42.414023" lon="1.938869">
        <ele>1088.421</ele>
        <time>2019-06-01T12:22:19Z</time>
      </trkpt>
      <trkpt lat="42.414145" lon="1.938920">
        <ele>1089.808</ele>
        <time>2019-06-01T12:22:25Z</time>
      </trkpt>
      <trkpt lat="42.414245" lon="1.939000">
        <ele>1091.660</ele>
        <time>2019-06-01T12:22:31Z</time>
      </trkpt>
      <trkpt lat="42.414263" lon="1.939006">
        <ele>1090.094</ele>
        <time>2019-06-01T12:22:32Z</time>
      </trkpt>
      <trkpt lat="42.414364" lon="1.939069">
        <ele>1090.690</ele>
        <time>2019-06-01T12:22:38Z</time>
      </trkpt>
      <trkpt lat="42.414513" lon="1.939156">
        <ele>1090.478</ele>
        <time>2019-06-01T12:22:44Z</time>
      </trkpt>
      <trkpt lat="42.414666" lon="1.939232">
        <ele>1090.282</ele>
        <time>2019-06-01T12:22:50Z</time>
      </trkpt>
      <trkpt lat="42.414791" lon="1.939329">
        <ele>1089.859</ele>
        <time>2019-06-01T12:22:56Z</time>
      </trkpt>
      <trkpt lat="42.414991" lon="1.939460">
        <ele>1089.827</ele>
        <time>2019-06-01T12:23:03Z</time>
      </trkpt>
      <trkpt lat="42.415231" lon="1.939577">
        <ele>1089.668</ele>
        <time>2019-06-01T12:23:10Z</time>
      </trkpt>
      <trkpt lat="42.415449" lon="1.939651">
        <ele>1089.652</ele>
        <time>2019-06-01T12:23:16Z</time>
      </trkpt>
      <trkpt lat="42.415649" lon="1.939748">
        <ele>1089.853</ele>
        <time>2019-06-01T12:23:22Z</time>
      </trkpt>
      <trkpt lat="42.415916" lon="1.939793">
        <ele>1089.608</ele>
        <time>2019-06-01T12:23:28Z</time>
      </trkpt>
      <trkpt lat="42.416137" lon="1.939843">
        <ele>1089.408</ele>
        <time>2019-06-01T12:23:33Z</time>
      </trkpt>
      <trkpt lat="42.416369" lon="1.939907">
        <ele>1089.498</ele>
        <time>2019-06-01T12:23:38Z</time>
      </trkpt>
      <trkpt lat="42.416421" lon="1.939917">
        <ele>1089.622</ele>
        <time>2019-06-01T12:23:39Z</time>
      </trkpt>
      <trkpt lat="42.416671" lon="1.939981">
        <ele>1090.048</ele>
        <time>2019-06-01T12:23:44Z</time>
      </trkpt>
      <trkpt lat="42.416712" lon="1.939995">
        <ele>1090.016</ele>
        <time>2019-06-01T12:23:45Z</time>
      </trkpt>
      <trkpt lat="42.416921" lon="1.940050">
        <ele>1089.670</ele>
        <time>2019-06-01T12:23:50Z</time>
      </trkpt>
      <trkpt lat="42.417186" lon="1.940046">
        <ele>1089.677</ele>
        <time>2019-06-01T12:23:56Z</time>
      </trkpt>
      <trkpt lat="42.417380" lon="1.940071">
        <ele>1089.865</ele>
        <time>2019-06-01T12:23:59Z</time>
      </trkpt>
      <trkpt lat="42.417542" lon="1.940132">
        <ele>1089.436</ele>
        <time>2019-06-01T12:24:02Z</time>
      </trkpt>
      <trkpt lat="42.417587" lon="1.940155">
        <ele>1089.893</ele>
        <time>2019-06-01T12:24:03Z</time>
      </trkpt>
      <trkpt lat="42.417727" lon="1.940224">
        <ele>1089.865</ele>
        <time>2019-06-01T12:24:06Z</time>
      </trkpt>
      <trkpt lat="42.417863" lon="1.940302">
        <ele>1089.621</ele>
        <time>2019-06-01T12:24:09Z</time>
      </trkpt>
      <trkpt lat="42.418155" lon="1.940485">
        <ele>1089.608</ele>
        <time>2019-06-01T12:24:16Z</time>
      </trkpt>
      <trkpt lat="42.418365" lon="1.940638">
        <ele>1089.822</ele>
        <time>2019-06-01T12:24:22Z</time>
      </trkpt>
      <trkpt lat="42.418529" lon="1.940759">
        <ele>1089.876</ele>
        <time>2019-06-01T12:24:27Z</time>
      </trkpt>
      <trkpt lat="42.418705" lon="1.940857">
        <ele>1090.012</ele>
        <time>2019-06-01T12:24:33Z</time>
      </trkpt>
      <trkpt lat="42.418777" lon="1.940944">
        <ele>1090.220</ele>
        <time>2019-06-01T12:24:36Z</time>
      </trkpt>
      <trkpt lat="42.418791" lon="1.940978">
        <ele>1090.464</ele>
        <time>2019-06-01T12:24:37Z</time>
      </trkpt>
      <trkpt lat="42.418769" lon="1.941079">
        <ele>1091.261</ele>
        <time>2019-06-01T12:24:41Z</time>
      </trkpt>
      <trkpt lat="42.418755" lon="1.941125">
        <ele>1091.459</ele>
        <time>2019-06-01T12:24:43Z</time>
      </trkpt>
      <trkpt lat="42.418682" lon="1.941288">
        <ele>1092.050</ele>
        <time>2019-06-01T12:24:51Z</time>
      </trkpt>
      <trkpt lat="42.418647" lon="1.941373">
        <ele>1092.224</ele>
        <time>2019-06-01T12:24:55Z</time>
      </trkpt>
      <trkpt lat="42.418597" lon="1.941473">
        <ele>1092.604</ele>
        <time>2019-06-01T12:25:00Z</time>
      </trkpt>
      <trkpt lat="42.418536" lon="1.941609">
        <ele>1093.214</ele>
        <time>2019-06-01T12:25:07Z</time>
      </trkpt>
      <trkpt lat="42.418527" lon="1.941630">
        <ele>1093.408</ele>
        <time>2019-06-01T12:25:08Z</time>
      </trkpt>
      <trkpt lat="42.418462" lon="1.941783">
        <ele>1094.655</ele>
        <time>2019-06-01T12:25:16Z</time>
      </trkpt>
      <trkpt lat="42.418392" lon="1.941947">
        <ele>1095.689</ele>
        <time>2019-06-01T12:25:25Z</time>
      </trkpt>
      <trkpt lat="42.418344" lon="1.942106">
        <ele>1096.455</ele>
        <time>2019-06-01T12:25:33Z</time>
      </trkpt>
      <trkpt lat="42.418337" lon="1.942147">
        <ele>1096.683</ele>
        <time>2019-06-01T12:25:35Z</time>
      </trkpt>
      <trkpt lat="42.418319" lon="1.942303">
        <ele>1097.687</ele>
        <time>2019-06-01T12:25:42Z</time>
      </trkpt>
      <trkpt lat="42.418314" lon="1.942326">
        <ele>1097.624</ele>
        <time>2019-06-01T12:25:43Z</time>
      </trkpt>
      <trkpt lat="42.418312" lon="1.942456">
        <ele>1098.442</ele>
        <time>2019-06-01T12:25:49Z</time>
      </trkpt>
      <trkpt lat="42.418315" lon="1.942495">
        <ele>1098.623</ele>
        <time>2019-06-01T12:25:51Z</time>
      </trkpt>
      <trkpt lat="42.418322" lon="1.942585">
        <ele>1099.097</ele>
        <time>2019-06-01T12:25:56Z</time>
      </trkpt>
      <trkpt lat="42.418320" lon="1.942678">
        <ele>1100.023</ele>
        <time>2019-06-01T12:26:01Z</time>
      </trkpt>
      <trkpt lat="42.418318" lon="1.942768">
        <ele>1100.625</ele>
        <time>2019-06-01T12:26:06Z</time>
      </trkpt>
      <trkpt lat="42.418327" lon="1.942845">
        <ele>1101.008</ele>
        <time>2019-06-01T12:26:10Z</time>
      </trkpt>
      <trkpt lat="42.418332" lon="1.942936">
        <ele>1101.422</ele>
        <time>2019-06-01T12:26:15Z</time>
      </trkpt>
      <trkpt lat="42.418346" lon="1.943010">
        <ele>1102.296</ele>
        <time>2019-06-01T12:26:19Z</time>
      </trkpt>
      <trkpt lat="42.418354" lon="1.943103">
        <ele>1102.852</ele>
        <time>2019-06-01T12:26:24Z</time>
      </trkpt>
      <trkpt lat="42.418360" lon="1.943157">
        <ele>1103.420</ele>
        <time>2019-06-01T12:26:27Z</time>
      </trkpt>
      <trkpt lat="42.418372" lon="1.943287">
        <ele>1104.424</ele>
        <time>2019-06-01T12:26:34Z</time>
      </trkpt>
      <trkpt lat="42.418393" lon="1.943449">
        <ele>1105.451</ele>
        <time>2019-06-01T12:26:43Z</time>
      </trkpt>
      <trkpt lat="42.418394" lon="1.943468">
        <ele>1105.619</ele>
        <time>2019-06-01T12:26:44Z</time>
      </trkpt>
      <trkpt lat="42.418408" lon="1.943559">
        <ele>1106.430</ele>
        <time>2019-06-01T12:26:49Z</time>
      </trkpt>
      <trkpt lat="42.418412" lon="1.943632">
        <ele>1107.078</ele>
        <time>2019-06-01T12:26:53Z</time>
      </trkpt>
      <trkpt lat="42.418413" lon="1.943648">
        <ele>1107.233</ele>
        <time>2019-06-01T12:26:54Z</time>
      </trkpt>
      <trkpt lat="42.418413" lon="1.943679">
        <ele>1107.626</ele>
        <time>2019-06-01T12:26:56Z</time>
      </trkpt>
      <trkpt lat="42.418428" lon="1.943811">
        <ele>1108.608</ele>
        <time>2019-06-01T12:27:04Z</time>
      </trkpt>
      <trkpt lat="42.418429" lon="1.943828">
        <ele>1108.650</ele>
        <time>2019-06-01T12:27:05Z</time>
      </trkpt>
      <trkpt lat="42.418431" lon="1.943961">
        <ele>1110.054</ele>
        <time>2019-06-01T12:27:13Z</time>
      </trkpt>
      <trkpt lat="42.418431" lon="1.943978">
        <ele>1110.210</ele>
        <time>2019-06-01T12:27:14Z</time>
      </trkpt>
      <trkpt lat="42.418436" lon="1.944133">
        <ele>1111.038</ele>
        <time>2019-06-01T12:27:23Z</time>
      </trkpt>
      <trkpt lat="42.418436" lon="1.944151">
        <ele>1111.242</ele>
        <time>2019-06-01T12:27:24Z</time>
      </trkpt>
      <trkpt lat="42.418433" lon="1.944315">
        <ele>1112.259</ele>
        <time>2019-06-01T12:27:33Z</time>
      </trkpt>
      <trkpt lat="42.418435" lon="1.944463">
        <ele>1113.037</ele>
        <time>2019-06-01T12:27:40Z</time>
      </trkpt>
      <trkpt lat="42.418438" lon="1.944506">
        <ele>1113.288</ele>
        <time>2019-06-01T12:27:42Z</time>
      </trkpt>
      <trkpt lat="42.418444" lon="1.944594">
        <ele>1113.627</ele>
        <time>2019-06-01T12:27:46Z</time>
      </trkpt>
      <trkpt lat="42.418442" lon="1.944655">
        <ele>1113.868</ele>
        <time>2019-06-01T12:27:49Z</time>
      </trkpt>
      <trkpt lat="42.418450" lon="1.944802">
        <ele>1114.414</ele>
        <time>2019-06-01T12:27:56Z</time>
      </trkpt>
      <trkpt lat="42.418453" lon="1.944823">
        <ele>1114.408</ele>
        <time>2019-06-01T12:27:57Z</time>
      </trkpt>
      <trkpt lat="42.418460" lon="1.944990">
        <ele>1114.665</ele>
        <time>2019-06-01T12:28:05Z</time>
      </trkpt>
      <trkpt lat="42.418464" lon="1.945102">
        <ele>1115.459</ele>
        <time>2019-06-01T12:28:10Z</time>
      </trkpt>
      <trkpt lat="42.418470" lon="1.945146">
        <ele>1115.475</ele>
        <time>2019-06-01T12:28:12Z</time>
      </trkpt>
      <trkpt lat="42.418480" lon="1.945335">
        <ele>1116.043</ele>
        <time>2019-06-01T12:28:20Z</time>
      </trkpt>
      <trkpt lat="42.418487" lon="1.945498">
        <ele>1116.447</ele>
        <time>2019-06-01T12:28:27Z</time>
      </trkpt>
      <trkpt lat="42.418485" lon="1.945520">
        <ele>1116.634</ele>
        <time>2019-06-01T12:28:28Z</time>
      </trkpt>
      <trkpt lat="42.418502" lon="1.945674">
        <ele>1117.082</ele>
        <time>2019-06-01T12:28:35Z</time>
      </trkpt>
      <trkpt lat="42.418513" lon="1.945693">
        <ele>1117.093</ele>
        <time>2019-06-01T12:28:36Z</time>
      </trkpt>
      <trkpt lat="42.418526" lon="1.945708">
        <ele>1117.038</ele>
        <time>2019-06-01T12:28:37Z</time>
      </trkpt>
      <trkpt lat="42.418587" lon="1.945742">
        <ele>1117.470</ele>
        <time>2019-06-01T12:28:42Z</time>
      </trkpt>
      <trkpt lat="42.418648" lon="1.945750">
        <ele>1118.617</ele>
        <time>2019-06-01T12:28:46Z</time>
      </trkpt>
      <trkpt lat="42.418705" lon="1.945773">
        <ele>1118.208</ele>
        <time>2019-06-01T12:28:50Z</time>
      </trkpt>
      <trkpt lat="42.418821" lon="1.945790">
        <ele>1119.066</ele>
        <time>2019-06-01T12:28:57Z</time>
      </trkpt>
      <trkpt lat="42.418940" lon="1.945888">
        <ele>1119.030</ele>
        <time>2019-06-01T12:29:04Z</time>
      </trkpt>
      <trkpt lat="42.419103" lon="1.946097">
        <ele>1119.446</ele>
        <time>2019-06-01T12:29:13Z</time>
      </trkpt>
      <trkpt lat="42.419244" lon="1.946260">
        <ele>1119.454</ele>
        <time>2019-06-01T12:29:20Z</time>
      </trkpt>
      <trkpt lat="42.419284" lon="1.946304">
        <ele>1119.628</ele>
        <time>2019-06-01T12:29:22Z</time>
      </trkpt>
      <trkpt lat="42.419307" lon="1.946324">
        <ele>1119.875</ele>
        <time>2019-06-01T12:29:23Z</time>
      </trkpt>
      <trkpt lat="42.419415" lon="1.946445">
        <ele>1119.883</ele>
        <time>2019-06-01T12:29:28Z</time>
      </trkpt>
      <trkpt lat="42.419610" lon="1.946671">
        <ele>1121.084</ele>
        <time>2019-06-01T12:29:37Z</time>
      </trkpt>
      <trkpt lat="42.419749" lon="1.946747">
        <ele>1121.434</ele>
        <time>2019-06-01T12:29:43Z</time>
      </trkpt>
      <trkpt lat="42.419882" lon="1.946663">
        <ele>1121.055</ele>
        <time>2019-06-01T12:29:48Z</time>
      </trkpt>
      <trkpt lat="42.420079" lon="1.946507">
        <ele>1120.210</ele>
        <time>2019-06-01T12:29:54Z</time>
      </trkpt>
      <trkpt lat="42.420180" lon="1.946422">
        <ele>1119.608</ele>
        <time>2019-06-01T12:29:57Z</time>
      </trkpt>
      <trkpt lat="42.420272" lon="1.946333">
        <ele>1119.626</ele>
        <time>2019-06-01T12:30:01Z</time>
      </trkpt>
      <trkpt lat="42.420296" lon="1.946321">
        <ele>1119.630</ele>
        <time>2019-06-01T12:31:52Z</time>
      </trkpt>
      <trkpt lat="42.420414" lon="1.946316">
        <ele>1118.446</ele>
        <time>2019-06-01T12:31:56Z</time>
      </trkpt>
      <trkpt lat="42.420451" lon="1.946309">
        <ele>1118.234</ele>
        <time>2019-06-01T12:31:57Z</time>
      </trkpt>
      <trkpt lat="42.420553" lon="1.946294">
        <ele>1115.248</ele>
        <time>2019-06-01T12:32:00Z</time>
      </trkpt>
      <trkpt lat="42.420585" lon="1.946286">
        <ele>1116.245</ele>
        <time>2019-06-01T12:32:01Z</time>
      </trkpt>
      <trkpt lat="42.420618" lon="1.946281">
        <ele>1118.223</ele>
        <time>2019-06-01T12:32:02Z</time>
      </trkpt>
      <trkpt lat="42.420650" lon="1.946279">
        <ele>1117.444</ele>
        <time>2019-06-01T12:32:03Z</time>
      </trkpt>
      <trkpt lat="42.420771" lon="1.946267">
        <ele>1117.065</ele>
        <time>2019-06-01T12:32:06Z</time>
      </trkpt>
      <trkpt lat="42.420912" lon="1.946249">
        <ele>1116.268</ele>
        <time>2019-06-01T12:32:09Z</time>
      </trkpt>
      <trkpt lat="42.420962" lon="1.946248">
        <ele>1116.014</ele>
        <time>2019-06-01T12:32:10Z</time>
      </trkpt>
      <trkpt lat="42.421202" lon="1.946217">
        <ele>1115.608</ele>
        <time>2019-06-01T12:32:15Z</time>
      </trkpt>
      <trkpt lat="42.421328" lon="1.946194">
        <ele>1114.839</ele>
        <time>2019-06-01T12:32:18Z</time>
      </trkpt>
      <trkpt lat="42.421489" lon="1.946162">
        <ele>1114.433</ele>
        <time>2019-06-01T12:32:21Z</time>
      </trkpt>
      <trkpt lat="42.421550" lon="1.946148">
        <ele>1113.869</ele>
        <time>2019-06-01T12:32:22Z</time>
      </trkpt>
      <trkpt lat="42.421675" lon="1.946128">
        <ele>1113.287</ele>
        <time>2019-06-01T12:32:24Z</time>
      </trkpt>
      <trkpt lat="42.421734" lon="1.946131">
        <ele>1112.631</ele>
        <time>2019-06-01T12:32:25Z</time>
      </trkpt>
      <trkpt lat="42.421790" lon="1.946145">
        <ele>1112.448</ele>
        <time>2019-06-01T12:32:26Z</time>
      </trkpt>
      <trkpt lat="42.421945" lon="1.946236">
        <ele>1112.616</ele>
        <time>2019-06-01T12:32:29Z</time>
      </trkpt>
      <trkpt lat="42.421997" lon="1.946269">
        <ele>1112.697</ele>
        <time>2019-06-01T12:32:30Z</time>
      </trkpt>
      <trkpt lat="42.422103" lon="1.946350">
        <ele>1111.034</ele>
        <time>2019-06-01T12:32:32Z</time>
      </trkpt>
      <trkpt lat="42.422223" lon="1.946455">
        <ele>1109.655</ele>
        <time>2019-06-01T12:32:34Z</time>
      </trkpt>
      <trkpt lat="42.422291" lon="1.946509">
        <ele>1108.810</ele>
        <time>2019-06-01T12:32:35Z</time>
      </trkpt>
      <trkpt lat="42.422358" lon="1.946561">
        <ele>1108.408</ele>
        <time>2019-06-01T12:32:36Z</time>
      </trkpt>
      <trkpt lat="42.422557" lon="1.946731">
        <ele>1106.866</ele>
        <time>2019-06-01T12:32:39Z</time>
      </trkpt>
      <trkpt lat="42.422685" lon="1.946849">
        <ele>1105.650</ele>
        <time>2019-06-01T12:32:41Z</time>
      </trkpt>
      <trkpt lat="42.422916" lon="1.947076">
        <ele>1104.486</ele>
        <time>2019-06-01T12:32:45Z</time>
      </trkpt>
      <trkpt lat="42.423017" lon="1.947182">
        <ele>1103.494</ele>
        <time>2019-06-01T12:32:47Z</time>
      </trkpt>
      <trkpt lat="42.423134" lon="1.947250">
        <ele>1102.478</ele>
        <time>2019-06-01T12:32:49Z</time>
      </trkpt>
      <trkpt lat="42.423201" lon="1.947258">
        <ele>1102.455</ele>
        <time>2019-06-01T12:32:50Z</time>
      </trkpt>
      <trkpt lat="42.423335" lon="1.947244">
        <ele>1102.443</ele>
        <time>2019-06-01T12:32:52Z</time>
      </trkpt>
      <trkpt lat="42.423516" lon="1.947248">
        <ele>1101.874</ele>
        <time>2019-06-01T12:32:55Z</time>
      </trkpt>
      <trkpt lat="42.423654" lon="1.947283">
        <ele>1102.695</ele>
        <time>2019-06-01T12:32:58Z</time>
      </trkpt>
      <trkpt lat="42.423739" lon="1.947303">
        <ele>1103.049</ele>
        <time>2019-06-01T12:33:00Z</time>
      </trkpt>
      <trkpt lat="42.423823" lon="1.947323">
        <ele>1103.023</ele>
        <time>2019-06-01T12:33:02Z</time>
      </trkpt>
      <trkpt lat="42.424056" lon="1.947383">
        <ele>1102.408</ele>
        <time>2019-06-01T12:33:07Z</time>
      </trkpt>
      <trkpt lat="42.424457" lon="1.947497">
        <ele>1101.492</ele>
        <time>2019-06-01T12:33:14Z</time>
      </trkpt>
      <trkpt lat="42.424902" lon="1.947625">
        <ele>1100.466</ele>
        <time>2019-06-01T12:33:21Z</time>
      </trkpt>
      <trkpt lat="42.424964" lon="1.947647">
        <ele>1100.652</ele>
        <time>2019-06-01T12:33:22Z</time>
      </trkpt>
      <trkpt lat="42.425026" lon="1.947662">
        <ele>1100.410</ele>
        <time>2019-06-01T12:33:23Z</time>
      </trkpt>
      <trkpt lat="42.425150" lon="1.947660">
        <ele>1100.054</ele>
        <time>2019-06-01T12:33:25Z</time>
      </trkpt>
      <trkpt lat="42.425365" lon="1.947718">
        <ele>1099.891</ele>
        <time>2019-06-01T12:33:29Z</time>
      </trkpt>
      <trkpt lat="42.425415" lon="1.947732">
        <ele>1100.229</ele>
        <time>2019-06-01T12:33:30Z</time>
      </trkpt>
      <trkpt lat="42.425591" lon="1.947769">
        <ele>1100.220</ele>
        <time>2019-06-01T12:33:34Z</time>
      </trkpt>
      <trkpt lat="42.425672" lon="1.947792">
        <ele>1100.436</ele>
        <time>2019-06-01T12:33:36Z</time>
      </trkpt>
      <trkpt lat="42.425841" lon="1.947850">
        <ele>1100.817</ele>
        <time>2019-06-01T12:33:40Z</time>
      </trkpt>
      <trkpt lat="42.425967" lon="1.947899">
        <ele>1100.618</ele>
        <time>2019-06-01T12:33:43Z</time>
      </trkpt>
      <trkpt lat="42.426051" lon="1.947900">
        <ele>1101.008</ele>
        <time>2019-06-01T12:33:45Z</time>
      </trkpt>
      <trkpt lat="42.426135" lon="1.947914">
        <ele>1101.066</ele>
        <time>2019-06-01T12:33:47Z</time>
      </trkpt>
      <trkpt lat="42.426346" lon="1.947966">
        <ele>1100.860</ele>
        <time>2019-06-01T12:33:52Z</time>
      </trkpt>
      <trkpt lat="42.426609" lon="1.948038">
        <ele>1100.666</ele>
        <time>2019-06-01T12:33:58Z</time>
      </trkpt>
      <trkpt lat="42.426894" lon="1.948099">
        <ele>1100.864</ele>
        <time>2019-06-01T12:34:05Z</time>
      </trkpt>
      <trkpt lat="42.427292" lon="1.948195">
        <ele>1101.498</ele>
        <time>2019-06-01T12:34:15Z</time>
      </trkpt>
      <trkpt lat="42.427606" lon="1.948284">
        <ele>1102.085</ele>
        <time>2019-06-01T12:34:23Z</time>
      </trkpt>
      <trkpt lat="42.427775" lon="1.948337">
        <ele>1102.273</ele>
        <time>2019-06-01T12:34:28Z</time>
      </trkpt>
      <trkpt lat="42.427833" lon="1.948358">
        <ele>1102.424</ele>
        <time>2019-06-01T12:34:30Z</time>
      </trkpt>
      <trkpt lat="42.428035" lon="1.948415">
        <ele>1102.853</ele>
        <time>2019-06-01T12:34:37Z</time>
      </trkpt>
      <trkpt lat="42.428200" lon="1.948468">
        <ele>1103.204</ele>
        <time>2019-06-01T12:34:43Z</time>
      </trkpt>
      <trkpt lat="42.428413" lon="1.948544">
        <ele>1103.214</ele>
        <time>2019-06-01T12:34:51Z</time>
      </trkpt>
      <trkpt lat="42.428569" lon="1.948627">
        <ele>1102.808</ele>
        <time>2019-06-01T12:34:57Z</time>
      </trkpt>
      <trkpt lat="42.428677" lon="1.948664">
        <ele>1103.628</ele>
        <time>2019-06-01T12:35:01Z</time>
      </trkpt>
      <trkpt lat="42.428784" lon="1.948700">
        <ele>1103.632</ele>
        <time>2019-06-01T12:35:05Z</time>
      </trkpt>
      <trkpt lat="42.428984" lon="1.948810">
        <ele>1103.498</ele>
        <time>2019-06-01T12:35:12Z</time>
      </trkpt>
      <trkpt lat="42.429129" lon="1.948912">
        <ele>1103.686</ele>
        <time>2019-06-01T12:35:18Z</time>
      </trkpt>
      <trkpt lat="42.429272" lon="1.949013">
        <ele>1103.690</ele>
        <time>2019-06-01T12:35:24Z</time>
      </trkpt>
      <trkpt lat="42.429452" lon="1.949126">
        <ele>1104.017</ele>
        <time>2019-06-01T12:35:31Z</time>
      </trkpt>
      <trkpt lat="42.429675" lon="1.949294">
        <ele>1104.685</ele>
        <time>2019-06-01T12:35:40Z</time>
      </trkpt>
      <trkpt lat="42.429699" lon="1.949313">
        <ele>1104.646</ele>
        <time>2019-06-01T12:35:41Z</time>
      </trkpt>
      <trkpt lat="42.429943" lon="1.949519">
        <ele>1104.868</ele>
        <time>2019-06-01T12:35:51Z</time>
      </trkpt>
      <trkpt lat="42.430104" lon="1.949666">
        <ele>1105.442</ele>
        <time>2019-06-01T12:35:58Z</time>
      </trkpt>
      <trkpt lat="42.430291" lon="1.949817">
        <ele>1105.826</ele>
        <time>2019-06-01T12:36:06Z</time>
      </trkpt>
      <trkpt lat="42.430509" lon="1.949945">
        <ele>1106.008</ele>
        <time>2019-06-01T12:36:15Z</time>
      </trkpt>
      <trkpt lat="42.430652" lon="1.950060">
        <ele>1106.639</ele>
        <time>2019-06-01T12:36:22Z</time>
      </trkpt>
      <trkpt lat="42.430742" lon="1.950143">
        <ele>1106.863</ele>
        <time>2019-06-01T12:36:26Z</time>
      </trkpt>
      <trkpt lat="42.430837" lon="1.950223">
        <ele>1106.819</ele>
        <time>2019-06-01T12:36:30Z</time>
      </trkpt>
      <trkpt lat="42.431024" lon="1.950377">
        <ele>1106.827</ele>
        <time>2019-06-01T12:36:38Z</time>
      </trkpt>
      <trkpt lat="42.431155" lon="1.950505">
        <ele>1107.411</ele>
        <time>2019-06-01T12:36:45Z</time>
      </trkpt>
      <trkpt lat="42.431196" lon="1.950581">
        <ele>1107.818</ele>
        <time>2019-06-01T12:36:48Z</time>
      </trkpt>
      <trkpt lat="42.431205" lon="1.950611">
        <ele>1108.046</ele>
        <time>2019-06-01T12:36:49Z</time>
      </trkpt>
      <trkpt lat="42.431274" lon="1.950836">
        <ele>1108.697</ele>
        <time>2019-06-01T12:36:55Z</time>
      </trkpt>
      <trkpt lat="42.431416" lon="1.950952">
        <ele>1108.289</ele>
        <time>2019-06-01T12:37:00Z</time>
      </trkpt>
      <trkpt lat="42.431582" lon="1.950946">
        <ele>1107.406</ele>
        <time>2019-06-01T12:37:05Z</time>
      </trkpt>
      <trkpt lat="42.431759" lon="1.950935">
        <ele>1107.826</ele>
        <time>2019-06-01T12:37:11Z</time>
      </trkpt>
      <trkpt lat="42.431984" lon="1.950987">
        <ele>1108.208</ele>
        <time>2019-06-01T12:37:18Z</time>
      </trkpt>
      <trkpt lat="42.432284" lon="1.951074">
        <ele>1108.041</ele>
        <time>2019-06-01T12:37:27Z</time>
      </trkpt>
      <trkpt lat="42.432475" lon="1.951155">
        <ele>1109.025</ele>
        <time>2019-06-01T12:37:33Z</time>
      </trkpt>
      <trkpt lat="42.432515" lon="1.951171">
        <ele>1109.481</ele>
        <time>2019-06-01T12:37:34Z</time>
      </trkpt>
      <trkpt lat="42.432687" lon="1.951237">
        <ele>1109.229</ele>
        <time>2019-06-01T12:37:39Z</time>
      </trkpt>
      <trkpt lat="42.432887" lon="1.951344">
        <ele>1109.683</ele>
        <time>2019-06-01T12:37:45Z</time>
      </trkpt>
      <trkpt lat="42.433199" lon="1.951500">
        <ele>1109.430</ele>
        <time>2019-06-01T12:37:53Z</time>
      </trkpt>
      <trkpt lat="42.433512" lon="1.951662">
        <ele>1109.218</ele>
        <time>2019-06-01T12:38:02Z</time>
      </trkpt>
      <trkpt lat="42.433673" lon="1.951777">
        <ele>1109.489</ele>
        <time>2019-06-01T12:38:07Z</time>
      </trkpt>
      <trkpt lat="42.433702" lon="1.951900">
        <ele>1109.665</ele>
        <time>2019-06-01T12:38:10Z</time>
      </trkpt>
      <trkpt lat="42.433675" lon="1.952114">
        <ele>1110.268</ele>
        <time>2019-06-01T12:38:16Z</time>
      </trkpt>
      <trkpt lat="42.433650" lon="1.952330">
        <ele>1110.814</ele>
        <time>2019-06-01T12:38:23Z</time>
      </trkpt>
      <trkpt lat="42.433629" lon="1.952480">
        <ele>1111.208</ele>
        <time>2019-06-01T12:38:28Z</time>
      </trkpt>
      <trkpt lat="42.433617" lon="1.952585">
        <ele>1112.029</ele>
        <time>2019-06-01T12:38:32Z</time>
      </trkpt>
      <trkpt lat="42.433614" lon="1.952649">
        <ele>1112.243</ele>
        <time>2019-06-01T12:38:34Z</time>
      </trkpt>
      <trkpt lat="42.433591" lon="1.952793">
        <ele>1112.689</ele>
        <time>2019-06-01T12:38:39Z</time>
      </trkpt>
      <trkpt lat="42.433566" lon="1.952988">
        <ele>1113.257</ele>
        <time>2019-06-01T12:38:46Z</time>
      </trkpt>
      <trkpt lat="42.433564" lon="1.953018">
        <ele>1113.461</ele>
        <time>2019-06-01T12:38:47Z</time>
      </trkpt>
      <trkpt lat="42.433596" lon="1.953169">
        <ele>1114.018</ele>
        <time>2019-06-01T12:38:52Z</time>
      </trkpt>
      <trkpt lat="42.433611" lon="1.953201">
        <ele>1114.296</ele>
        <time>2019-06-01T12:38:53Z</time>
      </trkpt>
      <trkpt lat="42.433693" lon="1.953336">
        <ele>1113.057</ele>
        <time>2019-06-01T12:38:58Z</time>
      </trkpt>
      <trkpt lat="42.433729" lon="1.953392">
        <ele>1113.858</ele>
        <time>2019-06-01T12:39:00Z</time>
      </trkpt>
      <trkpt lat="42.433746" lon="1.953420">
        <ele>1114.652</ele>
        <time>2019-06-01T12:39:01Z</time>
      </trkpt>
      <trkpt lat="42.433801" lon="1.953496">
        <ele>1116.017</ele>
        <time>2019-06-01T12:39:04Z</time>
      </trkpt>
      <trkpt lat="42.433875" lon="1.953607">
        <ele>1115.408</ele>
        <time>2019-06-01T12:39:08Z</time>
      </trkpt>
      <trkpt lat="42.434010" lon="1.953814">
        <ele>1116.248</ele>
        <time>2019-06-01T12:39:15Z</time>
      </trkpt>
      <trkpt lat="42.434165" lon="1.954062">
        <ele>1116.832</ele>
        <time>2019-06-01T12:39:23Z</time>
      </trkpt>
      <trkpt lat="42.434226" lon="1.954150">
        <ele>1117.028</ele>
        <time>2019-06-01T12:39:26Z</time>
      </trkpt>
      <trkpt lat="42.434355" lon="1.954270">
        <ele>1117.686</ele>
        <time>2019-06-01T12:39:31Z</time>
      </trkpt>
      <trkpt lat="42.434650" lon="1.954456">
        <ele>1116.420</ele>
        <time>2019-06-01T12:39:40Z</time>
      </trkpt>
      <trkpt lat="42.434755" lon="1.954492">
        <ele>1118.267</ele>
        <time>2019-06-01T12:39:43Z</time>
      </trkpt>
      <trkpt lat="42.434957" lon="1.954560">
        <ele>1118.245</ele>
        <time>2019-06-01T12:39:49Z</time>
      </trkpt>
      <trkpt lat="42.435254" lon="1.954576">
        <ele>1118.636</ele>
        <time>2019-06-01T12:39:57Z</time>
      </trkpt>
      <trkpt lat="42.435500" lon="1.954571">
        <ele>1118.471</ele>
        <time>2019-06-01T12:40:04Z</time>
      </trkpt>
      <trkpt lat="42.435684" lon="1.954565">
        <ele>1118.641</ele>
        <time>2019-06-01T12:40:09Z</time>
      </trkpt>
      <trkpt lat="42.435907" lon="1.954564">
        <ele>1118.615</ele>
        <time>2019-06-01T12:40:15Z</time>
      </trkpt>
      <trkpt lat="42.436120" lon="1.954596">
        <ele>1117.008</ele>
        <time>2019-06-01T12:40:20Z</time>
      </trkpt>
      <trkpt lat="42.436209" lon="1.954615">
        <ele>1117.670</ele>
        <time>2019-06-01T12:40:22Z</time>
      </trkpt>
      <trkpt lat="42.436255" lon="1.954624">
        <ele>1118.834</ele>
        <time>2019-06-01T12:40:23Z</time>
      </trkpt>
      <trkpt lat="42.436393" lon="1.954661">
        <ele>1117.630</ele>
        <time>2019-06-01T12:40:26Z</time>
      </trkpt>
      <trkpt lat="42.436440" lon="1.954669">
        <ele>1117.448</ele>
        <time>2019-06-01T12:40:27Z</time>
      </trkpt>
      <trkpt lat="42.436576" lon="1.954684">
        <ele>1117.252</ele>
        <time>2019-06-01T12:40:30Z</time>
      </trkpt>
      <trkpt lat="42.436902" lon="1.954750">
        <ele>1117.269</ele>
        <time>2019-06-01T12:40:37Z</time>
      </trkpt>
      <trkpt lat="42.437222" lon="1.954829">
        <ele>1116.627</ele>
        <time>2019-06-01T12:40:43Z</time>
      </trkpt>
      <trkpt lat="42.437277" lon="1.954858">
        <ele>1116.448</ele>
        <time>2019-06-01T12:40:44Z</time>
      </trkpt>
      <trkpt lat="42.437377" lon="1.954929">
        <ele>1116.089</ele>
        <time>2019-06-01T12:40:46Z</time>
      </trkpt>
      <trkpt lat="42.437501" lon="1.955066">
        <ele>1116.406</ele>
        <time>2019-06-01T12:40:49Z</time>
      </trkpt>
      <trkpt lat="42.437673" lon="1.955290">
        <ele>1116.826</ele>
        <time>2019-06-01T12:40:54Z</time>
      </trkpt>
      <trkpt lat="42.437728" lon="1.955390">
        <ele>1116.408</ele>
        <time>2019-06-01T12:40:56Z</time>
      </trkpt>
      <trkpt lat="42.437756" lon="1.955435">
        <ele>1116.241</ele>
        <time>2019-06-01T12:40:57Z</time>
      </trkpt>
      <trkpt lat="42.437813" lon="1.955522">
        <ele>1116.855</ele>
        <time>2019-06-01T12:40:59Z</time>
      </trkpt>
      <trkpt lat="42.438089" lon="1.955863">
        <ele>1116.631</ele>
        <time>2019-06-01T12:41:07Z</time>
      </trkpt>
      <trkpt lat="42.438377" lon="1.956134">
        <ele>1117.059</ele>
        <time>2019-06-01T12:41:14Z</time>
      </trkpt>
      <trkpt lat="42.438675" lon="1.956415">
        <ele>1117.043</ele>
        <time>2019-06-01T12:41:22Z</time>
      </trkpt>
      <trkpt lat="42.438830" lon="1.956553">
        <ele>1116.890</ele>
        <time>2019-06-01T12:41:26Z</time>
      </trkpt>
      <trkpt lat="42.438873" lon="1.956584">
        <ele>1117.038</ele>
        <time>2019-06-01T12:41:27Z</time>
      </trkpt>
      <trkpt lat="42.439039" lon="1.956692">
        <ele>1117.029</ele>
        <time>2019-06-01T12:41:31Z</time>
      </trkpt>
      <trkpt lat="42.439128" lon="1.956724">
        <ele>1117.083</ele>
        <time>2019-06-01T12:41:33Z</time>
      </trkpt>
      <trkpt lat="42.439423" lon="1.956802">
        <ele>1117.225</ele>
        <time>2019-06-01T12:41:39Z</time>
      </trkpt>
      <trkpt lat="42.439733" lon="1.956941">
        <ele>1117.417</ele>
        <time>2019-06-01T12:41:46Z</time>
      </trkpt>
      <trkpt lat="42.439977" lon="1.957173">
        <ele>1117.608</ele>
        <time>2019-06-01T12:41:53Z</time>
      </trkpt>
      <trkpt lat="42.440068" lon="1.957311">
        <ele>1117.641</ele>
        <time>2019-06-01T12:41:56Z</time>
      </trkpt>
      <trkpt lat="42.440137" lon="1.957398">
        <ele>1117.415</ele>
        <time>2019-06-01T12:41:58Z</time>
      </trkpt>
      <trkpt lat="42.440226" lon="1.957518">
        <ele>1117.671</ele>
        <time>2019-06-01T12:42:01Z</time>
      </trkpt>
      <trkpt lat="42.440312" lon="1.957630">
        <ele>1118.239</ele>
        <time>2019-06-01T12:42:04Z</time>
      </trkpt>
      <trkpt lat="42.440553" lon="1.957954">
        <ele>1118.093</ele>
        <time>2019-06-01T12:42:12Z</time>
      </trkpt>
      <trkpt lat="42.440880" lon="1.958381">
        <ele>1118.460</ele>
        <time>2019-06-01T12:42:22Z</time>
      </trkpt>
      <trkpt lat="42.441046" lon="1.958596">
        <ele>1118.668</ele>
        <time>2019-06-01T12:42:27Z</time>
      </trkpt>
      <trkpt lat="42.441194" lon="1.958775">
        <ele>1118.849</ele>
        <time>2019-06-01T12:42:31Z</time>
      </trkpt>
      <trkpt lat="42.441541" lon="1.959167">
        <ele>1118.652</ele>
        <time>2019-06-01T12:42:39Z</time>
      </trkpt>
      <trkpt lat="42.441807" lon="1.959471">
        <ele>1119.053</ele>
        <time>2019-06-01T12:42:46Z</time>
      </trkpt>
      <trkpt lat="42.441903" lon="1.959575">
        <ele>1119.408</ele>
        <time>2019-06-01T12:42:49Z</time>
      </trkpt>
      <trkpt lat="42.441966" lon="1.959639">
        <ele>1119.808</ele>
        <time>2019-06-01T12:42:51Z</time>
      </trkpt>
      <trkpt lat="42.442053" lon="1.959734">
        <ele>1120.058</ele>
        <time>2019-06-01T12:42:54Z</time>
      </trkpt>
      <trkpt lat="42.442263" lon="1.959953">
        <ele>1120.622</ele>
        <time>2019-06-01T12:43:02Z</time>
      </trkpt>
      <trkpt lat="42.442286" lon="1.959980">
        <ele>1120.848</ele>
        <time>2019-06-01T12:43:03Z</time>
      </trkpt>
      <trkpt lat="42.442502" lon="1.960221">
        <ele>1121.636</ele>
        <time>2019-06-01T12:43:12Z</time>
      </trkpt>
      <trkpt lat="42.442550" lon="1.960273">
        <ele>1121.890</ele>
        <time>2019-06-01T12:43:14Z</time>
      </trkpt>
      <trkpt lat="42.442747" lon="1.960477">
        <ele>1122.677</ele>
        <time>2019-06-01T12:43:22Z</time>
      </trkpt>
      <trkpt lat="42.442814" lon="1.960550">
        <ele>1123.085</ele>
        <time>2019-06-01T12:43:25Z</time>
      </trkpt>
      <trkpt lat="42.442986" lon="1.960736">
        <ele>1123.676</ele>
        <time>2019-06-01T12:43:33Z</time>
      </trkpt>
      <trkpt lat="42.443046" lon="1.960801">
        <ele>1124.241</ele>
        <time>2019-06-01T12:43:36Z</time>
      </trkpt>
      <trkpt lat="42.443139" lon="1.960895">
        <ele>1125.281</ele>
        <time>2019-06-01T12:43:41Z</time>
      </trkpt>
      <trkpt lat="42.443280" lon="1.961104">
        <ele>1126.609</ele>
        <time>2019-06-01T12:43:50Z</time>
      </trkpt>
      <trkpt lat="42.443309" lon="1.961155">
        <ele>1126.808</ele>
        <time>2019-06-01T12:43:52Z</time>
      </trkpt>
      <trkpt lat="42.443396" lon="1.961329">
        <ele>1127.687</ele>
        <time>2019-06-01T12:43:58Z</time>
      </trkpt>
      <trkpt lat="42.443420" lon="1.961394">
        <ele>1127.481</ele>
        <time>2019-06-01T12:44:00Z</time>
      </trkpt>
      <trkpt lat="42.443572" lon="1.961745">
        <ele>1128.437</ele>
        <time>2019-06-01T12:44:10Z</time>
      </trkpt>
      <trkpt lat="42.443603" lon="1.961822">
        <ele>1128.695</ele>
        <time>2019-06-01T12:44:12Z</time>
      </trkpt>
      <trkpt lat="42.443729" lon="1.962117">
        <ele>1129.089</ele>
        <time>2019-06-01T12:44:20Z</time>
      </trkpt>
      <trkpt lat="42.443831" lon="1.962350">
        <ele>1129.696</ele>
        <time>2019-06-01T12:44:26Z</time>
      </trkpt>
      <trkpt lat="42.443981" lon="1.962700">
        <ele>1130.094</ele>
        <time>2019-06-01T12:44:35Z</time>
      </trkpt>
      <trkpt lat="42.444122" lon="1.963017">
        <ele>1130.445</ele>
        <time>2019-06-01T12:44:43Z</time>
      </trkpt>
      <trkpt lat="42.444275" lon="1.963279">
        <ele>1130.415</ele>
        <time>2019-06-01T12:44:51Z</time>
      </trkpt>
      <trkpt lat="42.444431" lon="1.963341">
        <ele>1130.265</ele>
        <time>2019-06-01T12:44:56Z</time>
      </trkpt>
      <trkpt lat="42.444579" lon="1.963331">
        <ele>1129.811</ele>
        <time>2019-06-01T12:45:00Z</time>
      </trkpt>
      <trkpt lat="42.444618" lon="1.963313">
        <ele>1129.408</ele>
        <time>2019-06-01T12:45:01Z</time>
      </trkpt>
      <trkpt lat="42.444793" lon="1.963263">
        <ele>1128.054</ele>
        <time>2019-06-01T12:45:05Z</time>
      </trkpt>
      <trkpt lat="42.444921" lon="1.963235">
        <ele>1129.428</ele>
        <time>2019-06-01T12:45:08Z</time>
      </trkpt>
      <trkpt lat="42.444965" lon="1.963229">
        <ele>1129.474</ele>
        <time>2019-06-01T12:45:09Z</time>
      </trkpt>
      <trkpt lat="42.445008" lon="1.963224">
        <ele>1128.252</ele>
        <time>2019-06-01T12:45:10Z</time>
      </trkpt>
      <trkpt lat="42.445189" lon="1.963231">
        <ele>1127.696</ele>
        <time>2019-06-01T12:45:14Z</time>
      </trkpt>
      <trkpt lat="42.445279" lon="1.963268">
        <ele>1127.683</ele>
        <time>2019-06-01T12:45:16Z</time>
      </trkpt>
      <trkpt lat="42.445417" lon="1.963363">
        <ele>1127.491</ele>
        <time>2019-06-01T12:45:19Z</time>
      </trkpt>
      <trkpt lat="42.445461" lon="1.963403">
        <ele>1127.292</ele>
        <time>2019-06-01T12:45:20Z</time>
      </trkpt>
      <trkpt lat="42.445509" lon="1.963445">
        <ele>1127.285</ele>
        <time>2019-06-01T12:45:21Z</time>
      </trkpt>
      <trkpt lat="42.445671" lon="1.963534">
        <ele>1126.689</ele>
        <time>2019-06-01T12:45:24Z</time>
      </trkpt>
      <trkpt lat="42.445798" lon="1.963529">
        <ele>1126.217</ele>
        <time>2019-06-01T12:45:26Z</time>
      </trkpt>
      <trkpt lat="42.445971" lon="1.963396">
        <ele>1125.608</ele>
        <time>2019-06-01T12:45:29Z</time>
      </trkpt>
      <trkpt lat="42.446054" lon="1.963257">
        <ele>1124.861</ele>
        <time>2019-06-01T12:45:31Z</time>
      </trkpt>
      <trkpt lat="42.446112" lon="1.963098">
        <ele>1124.225</ele>
        <time>2019-06-01T12:45:33Z</time>
      </trkpt>
      <trkpt lat="42.446255" lon="1.962660">
        <ele>1124.291</ele>
        <time>2019-06-01T12:45:39Z</time>
      </trkpt>
      <trkpt lat="42.446417" lon="1.962200">
        <ele>1124.489</ele>
        <time>2019-06-01T12:45:46Z</time>
      </trkpt>
      <trkpt lat="42.446531" lon="1.961971">
        <ele>1123.893</ele>
        <time>2019-06-01T12:45:50Z</time>
      </trkpt>
      <trkpt lat="42.446593" lon="1.961852">
        <ele>1123.870</ele>
        <time>2019-06-01T12:45:52Z</time>
      </trkpt>
      <trkpt lat="42.446911" lon="1.961291">
        <ele>1123.698</ele>
        <time>2019-06-01T12:46:01Z</time>
      </trkpt>
      <trkpt lat="42.447295" lon="1.960702">
        <ele>1123.089</ele>
        <time>2019-06-01T12:46:11Z</time>
      </trkpt>
      <trkpt lat="42.447331" lon="1.960648">
        <ele>1123.092</ele>
        <time>2019-06-01T12:46:12Z</time>
      </trkpt>
      <trkpt lat="42.447585" lon="1.960254">
        <ele>1123.473</ele>
        <time>2019-06-01T12:46:19Z</time>
      </trkpt>
      <trkpt lat="42.447903" lon="1.959769">
        <ele>1122.820</ele>
        <time>2019-06-01T12:46:28Z</time>
      </trkpt>
      <trkpt lat="42.448238" lon="1.959247">
        <ele>1123.208</ele>
        <time>2019-06-01T12:46:38Z</time>
      </trkpt>
      <trkpt lat="42.448559" lon="1.958756">
        <ele>1123.442</ele>
        <time>2019-06-01T12:46:48Z</time>
      </trkpt>
      <trkpt lat="42.448878" lon="1.958244">
        <ele>1123.666</ele>
        <time>2019-06-01T12:46:58Z</time>
      </trkpt>
      <trkpt lat="42.449168" lon="1.957787">
        <ele>1123.482</ele>
        <time>2019-06-01T12:47:07Z</time>
      </trkpt>
      <trkpt lat="42.449469" lon="1.957317">
        <ele>1123.490</ele>
        <time>2019-06-01T12:47:17Z</time>
      </trkpt>
      <trkpt lat="42.449499" lon="1.957276">
        <ele>1124.624</ele>
        <time>2019-06-01T12:47:18Z</time>
      </trkpt>
      <trkpt lat="42.449744" lon="1.956901">
        <ele>1124.021</ele>
        <time>2019-06-01T12:47:27Z</time>
      </trkpt>
      <trkpt lat="42.450015" lon="1.956491">
        <ele>1124.499</ele>
        <time>2019-06-01T12:47:37Z</time>
      </trkpt>
      <trkpt lat="42.450253" lon="1.956123">
        <ele>1125.040</ele>
        <time>2019-06-01T12:47:46Z</time>
      </trkpt>
      <trkpt lat="42.450409" lon="1.955901">
        <ele>1125.637</ele>
        <time>2019-06-01T12:47:52Z</time>
      </trkpt>
      <trkpt lat="42.450484" lon="1.955790">
        <ele>1125.849</ele>
        <time>2019-06-01T12:47:55Z</time>
      </trkpt>
      <trkpt lat="42.450654" lon="1.955571">
        <ele>1126.213</ele>
        <time>2019-06-01T12:48:02Z</time>
      </trkpt>
      <trkpt lat="42.450683" lon="1.955573">
        <ele>1126.408</ele>
        <time>2019-06-01T12:48:03Z</time>
      </trkpt>
      <trkpt lat="42.450710" lon="1.955587">
        <ele>1126.696</ele>
        <time>2019-06-01T12:48:04Z</time>
      </trkpt>
      <trkpt lat="42.450815" lon="1.955661">
        <ele>1127.030</ele>
        <time>2019-06-01T12:48:08Z</time>
      </trkpt>
      <trkpt lat="42.450931" lon="1.955662">
        <ele>1127.466</ele>
        <time>2019-06-01T12:48:12Z</time>
      </trkpt>
      <trkpt lat="42.450957" lon="1.955658">
        <ele>1127.694</ele>
        <time>2019-06-01T12:48:15Z</time>
      </trkpt>
      <trkpt lat="42.451012" lon="1.955679">
        <ele>1127.658</ele>
        <time>2019-06-01T12:50:17Z</time>
      </trkpt>
      <trkpt lat="42.451038" lon="1.955732">
        <ele>1127.855</ele>
        <time>2019-06-01T12:50:19Z</time>
      </trkpt>
      <trkpt lat="42.451156" lon="1.955970">
        <ele>1127.843</ele>
        <time>2019-06-01T12:50:26Z</time>
      </trkpt>
      <trkpt lat="42.451317" lon="1.956311">
        <ele>1127.414</ele>
        <time>2019-06-01T12:50:35Z</time>
      </trkpt>
      <trkpt lat="42.451440" lon="1.956567">
        <ele>1128.626</ele>
        <time>2019-06-01T12:50:42Z</time>
      </trkpt>
      <trkpt lat="42.451458" lon="1.956603">
        <ele>1128.847</ele>
        <time>2019-06-01T12:50:43Z</time>
      </trkpt>
      <trkpt lat="42.451642" lon="1.956988">
        <ele>1129.011</ele>
        <time>2019-06-01T12:50:53Z</time>
      </trkpt>
      <trkpt lat="42.451812" lon="1.957336">
        <ele>1129.408</ele>
        <time>2019-06-01T12:51:02Z</time>
      </trkpt>
      <trkpt lat="42.452021" lon="1.957775">
        <ele>1129.825</ele>
        <time>2019-06-01T12:51:13Z</time>
      </trkpt>
      <trkpt lat="42.452042" lon="1.957815">
        <ele>1129.869</ele>
        <time>2019-06-01T12:51:14Z</time>
      </trkpt>
      <trkpt lat="42.452241" lon="1.958233">
        <ele>1130.495</ele>
        <time>2019-06-01T12:51:24Z</time>
      </trkpt>
      <trkpt lat="42.452431" lon="1.958578">
        <ele>1130.833</ele>
        <time>2019-06-01T12:51:32Z</time>
      </trkpt>
      <trkpt lat="42.452484" lon="1.958664">
        <ele>1131.087</ele>
        <time>2019-06-01T12:51:34Z</time>
      </trkpt>
      <trkpt lat="42.452733" lon="1.959031">
        <ele>1131.434</ele>
        <time>2019-06-01T12:51:43Z</time>
      </trkpt>
      <trkpt lat="42.452851" lon="1.959198">
        <ele>1132.012</ele>
        <time>2019-06-01T12:51:47Z</time>
      </trkpt>
      <trkpt lat="42.453081" lon="1.959534">
        <ele>1132.223</ele>
        <time>2019-06-01T12:51:55Z</time>
      </trkpt>
      <trkpt lat="42.453319" lon="1.960017">
        <ele>1131.646</ele>
        <time>2019-06-01T12:52:05Z</time>
      </trkpt>
      <trkpt lat="42.453544" lon="1.960528">
        <ele>1132.288</ele>
        <time>2019-06-01T12:52:15Z</time>
      </trkpt>
      <trkpt lat="42.453813" lon="1.961132">
        <ele>1132.616</ele>
        <time>2019-06-01T12:52:27Z</time>
      </trkpt>
      <trkpt lat="42.453876" lon="1.961275">
        <ele>1133.208</ele>
        <time>2019-06-01T12:52:30Z</time>
      </trkpt>
      <trkpt lat="42.454019" lon="1.961598">
        <ele>1133.437</ele>
        <time>2019-06-01T12:52:37Z</time>
      </trkpt>
      <trkpt lat="42.454185" lon="1.961968">
        <ele>1134.291</ele>
        <time>2019-06-01T12:52:45Z</time>
      </trkpt>
      <trkpt lat="42.454256" lon="1.962103">
        <ele>1134.277</ele>
        <time>2019-06-01T12:52:48Z</time>
      </trkpt>
      <trkpt lat="42.454460" lon="1.962440">
        <ele>1135.485</ele>
        <time>2019-06-01T12:52:56Z</time>
      </trkpt>
      <trkpt lat="42.454510" lon="1.962518">
        <ele>1135.659</ele>
        <time>2019-06-01T12:52:58Z</time>
      </trkpt>
      <trkpt lat="42.454698" lon="1.962830">
        <ele>1136.476</ele>
        <time>2019-06-01T12:53:06Z</time>
      </trkpt>
      <trkpt lat="42.454745" lon="1.962901">
        <ele>1136.474</ele>
        <time>2019-06-01T12:53:08Z</time>
      </trkpt>
      <trkpt lat="42.454983" lon="1.963276">
        <ele>1137.255</ele>
        <time>2019-06-01T12:53:18Z</time>
      </trkpt>
      <trkpt lat="42.455082" lon="1.963432">
        <ele>1137.416</ele>
        <time>2019-06-01T12:53:22Z</time>
      </trkpt>
      <trkpt lat="42.455173" lon="1.963580">
        <ele>1137.876</ele>
        <time>2019-06-01T12:53:26Z</time>
      </trkpt>
      <trkpt lat="42.455354" lon="1.963922">
        <ele>1138.413</ele>
        <time>2019-06-01T12:53:35Z</time>
      </trkpt>
      <trkpt lat="42.455372" lon="1.963963">
        <ele>1138.408</ele>
        <time>2019-06-01T12:53:36Z</time>
      </trkpt>
      <trkpt lat="42.455493" lon="1.964232">
        <ele>1138.464</ele>
        <time>2019-06-01T12:53:42Z</time>
      </trkpt>
      <trkpt lat="42.455658" lon="1.964552">
        <ele>1138.858</ele>
        <time>2019-06-01T12:53:49Z</time>
      </trkpt>
      <trkpt lat="42.455780" lon="1.964832">
        <ele>1139.264</ele>
        <time>2019-06-01T12:53:55Z</time>
      </trkpt>
      <trkpt lat="42.455842" lon="1.964969">
        <ele>1139.252</ele>
        <time>2019-06-01T12:53:58Z</time>
      </trkpt>
      <trkpt lat="42.455968" lon="1.965252">
        <ele>1139.666</ele>
        <time>2019-06-01T12:54:04Z</time>
      </trkpt>
      <trkpt lat="42.456048" lon="1.965418">
        <ele>1140.253</ele>
        <time>2019-06-01T12:54:08Z</time>
      </trkpt>
      <trkpt lat="42.456208" lon="1.965694">
        <ele>1140.671</ele>
        <time>2019-06-01T12:54:15Z</time>
      </trkpt>
      <trkpt lat="42.456325" lon="1.965883">
        <ele>1141.092</ele>
        <time>2019-06-01T12:54:20Z</time>
      </trkpt>
      <trkpt lat="42.456546" lon="1.966235">
        <ele>1141.844</ele>
        <time>2019-06-01T12:54:29Z</time>
      </trkpt>
      <trkpt lat="42.456619" lon="1.966349">
        <ele>1142.005</ele>
        <time>2019-06-01T12:54:32Z</time>
      </trkpt>
      <trkpt lat="42.456899" lon="1.966796">
        <ele>1142.615</ele>
        <time>2019-06-01T12:54:44Z</time>
      </trkpt>
      <trkpt lat="42.456962" lon="1.966912">
        <ele>1143.008</ele>
        <time>2019-06-01T12:54:47Z</time>
      </trkpt>
      <trkpt lat="42.457108" lon="1.967161">
        <ele>1143.697</ele>
        <time>2019-06-01T12:54:54Z</time>
      </trkpt>
      <trkpt lat="42.457210" lon="1.967338">
        <ele>1144.061</ele>
        <time>2019-06-01T12:54:59Z</time>
      </trkpt>
      <trkpt lat="42.457235" lon="1.967377">
        <ele>1144.087</ele>
        <time>2019-06-01T12:55:00Z</time>
      </trkpt>
      <trkpt lat="42.457364" lon="1.967584">
        <ele>1144.425</ele>
        <time>2019-06-01T12:55:05Z</time>
      </trkpt>
      <trkpt lat="42.457578" lon="1.967952">
        <ele>1144.829</ele>
        <time>2019-06-01T12:55:14Z</time>
      </trkpt>
      <trkpt lat="42.457787" lon="1.968315">
        <ele>1144.896</ele>
        <time>2019-06-01T12:55:23Z</time>
      </trkpt>
      <trkpt lat="42.457841" lon="1.968405">
        <ele>1145.054</ele>
        <time>2019-06-01T12:55:25Z</time>
      </trkpt>
      <trkpt lat="42.457966" lon="1.968617">
        <ele>1145.065</ele>
        <time>2019-06-01T12:55:30Z</time>
      </trkpt>
      <trkpt lat="42.458140" lon="1.968927">
        <ele>1145.216</ele>
        <time>2019-06-01T12:55:37Z</time>
      </trkpt>
      <trkpt lat="42.458381" lon="1.969327">
        <ele>1146.076</ele>
        <time>2019-06-01T12:55:45Z</time>
      </trkpt>
      <trkpt lat="42.458504" lon="1.969560">
        <ele>1146.013</ele>
        <time>2019-06-01T12:55:49Z</time>
      </trkpt>
      <trkpt lat="42.458623" lon="1.969786">
        <ele>1146.608</ele>
        <time>2019-06-01T12:55:53Z</time>
      </trkpt>
      <trkpt lat="42.458736" lon="1.969998">
        <ele>1147.274</ele>
        <time>2019-06-01T12:55:57Z</time>
      </trkpt>
      <trkpt lat="42.458925" lon="1.970334">
        <ele>1147.858</ele>
        <time>2019-06-01T12:56:04Z</time>
      </trkpt>
      <trkpt lat="42.459098" lon="1.970633">
        <ele>1149.294</ele>
        <time>2019-06-01T12:56:11Z</time>
      </trkpt>
      <trkpt lat="42.459185" lon="1.970796">
        <ele>1148.042</ele>
        <time>2019-06-01T12:56:15Z</time>
      </trkpt>
      <trkpt lat="42.459281" lon="1.970959">
        <ele>1149.016</ele>
        <time>2019-06-01T12:56:19Z</time>
      </trkpt>
      <trkpt lat="42.459308" lon="1.971000">
        <ele>1149.293</ele>
        <time>2019-06-01T12:56:20Z</time>
      </trkpt>
      <trkpt lat="42.459503" lon="1.971277">
        <ele>1149.491</ele>
        <time>2019-06-01T12:56:27Z</time>
      </trkpt>
      <trkpt lat="42.459763" lon="1.971681">
        <ele>1150.022</ele>
        <time>2019-06-01T12:56:37Z</time>
      </trkpt>
      <trkpt lat="42.459919" lon="1.971932">
        <ele>1150.228</ele>
        <time>2019-06-01T12:56:43Z</time>
      </trkpt>
      <trkpt lat="42.460046" lon="1.972125">
        <ele>1151.089</ele>
        <time>2019-06-01T12:56:48Z</time>
      </trkpt>
      <trkpt lat="42.460171" lon="1.972323">
        <ele>1151.417</ele>
        <time>2019-06-01T12:56:53Z</time>
      </trkpt>
      <trkpt lat="42.460327" lon="1.972556">
        <ele>1151.808</ele>
        <time>2019-06-01T12:56:59Z</time>
      </trkpt>
      <trkpt lat="42.460540" lon="1.972876">
        <ele>1152.495</ele>
        <time>2019-06-01T12:57:07Z</time>
      </trkpt>
      <trkpt lat="42.460597" lon="1.972956">
        <ele>1152.689</ele>
        <time>2019-06-01T12:57:09Z</time>
      </trkpt>
      <trkpt lat="42.460929" lon="1.973442">
        <ele>1153.025</ele>
        <time>2019-06-01T12:57:21Z</time>
      </trkpt>
      <trkpt lat="42.461221" lon="1.973885">
        <ele>1152.683</ele>
        <time>2019-06-01T12:57:32Z</time>
      </trkpt>
      <trkpt lat="42.461274" lon="1.973966">
        <ele>1153.637</ele>
        <time>2019-06-01T12:57:34Z</time>
      </trkpt>
      <trkpt lat="42.461459" lon="1.974252">
        <ele>1153.664</ele>
        <time>2019-06-01T12:57:41Z</time>
      </trkpt>
      <trkpt lat="42.461713" lon="1.974677">
        <ele>1154.472</ele>
        <time>2019-06-01T12:57:51Z</time>
      </trkpt>
      <trkpt lat="42.461754" lon="1.974763">
        <ele>1154.683</ele>
        <time>2019-06-01T12:57:53Z</time>
      </trkpt>
      <trkpt lat="42.461867" lon="1.974965">
        <ele>1155.021</ele>
        <time>2019-06-01T12:57:58Z</time>
      </trkpt>
      <trkpt lat="42.461968" lon="1.975225">
        <ele>1155.241</ele>
        <time>2019-06-01T12:58:04Z</time>
      </trkpt>
      <trkpt lat="42.462029" lon="1.975277">
        <ele>1155.005</ele>
        <time>2019-06-01T12:58:06Z</time>
      </trkpt>
      <trkpt lat="42.462064" lon="1.975275">
        <ele>1154.608</ele>
        <time>2019-06-01T12:58:07Z</time>
      </trkpt>
      <trkpt lat="42.462186" lon="1.975187">
        <ele>1155.095</ele>
        <time>2019-06-01T12:58:11Z</time>
      </trkpt>
      <trkpt lat="42.462297" lon="1.975089">
        <ele>1155.619</ele>
        <time>2019-06-01T12:58:16Z</time>
      </trkpt>
      <trkpt lat="42.462313" lon="1.975070">
        <ele>1155.895</ele>
        <time>2019-06-01T12:58:17Z</time>
      </trkpt>
      <trkpt lat="42.462435" lon="1.974928">
        <ele>1156.613</ele>
        <time>2019-06-01T12:58:24Z</time>
      </trkpt>
      <trkpt lat="42.462489" lon="1.974866">
        <ele>1156.857</ele>
        <time>2019-06-01T12:58:27Z</time>
      </trkpt>
      <trkpt lat="42.462611" lon="1.974737">
        <ele>1157.874</ele>
        <time>2019-06-01T12:58:34Z</time>
      </trkpt>
      <trkpt lat="42.462652" lon="1.974702">
        <ele>1158.022</ele>
        <time>2019-06-01T12:58:36Z</time>
      </trkpt>
      <trkpt lat="42.462755" lon="1.974593">
        <ele>1158.433</ele>
        <time>2019-06-01T12:58:41Z</time>
      </trkpt>
      <trkpt lat="42.462880" lon="1.974452">
        <ele>1158.854</ele>
        <time>2019-06-01T12:58:47Z</time>
      </trkpt>
      <trkpt lat="42.462954" lon="1.974392">
        <ele>1159.256</ele>
        <time>2019-06-01T12:58:50Z</time>
      </trkpt>
      <trkpt lat="42.463072" lon="1.974314">
        <ele>1159.811</ele>
        <time>2019-06-01T12:58:55Z</time>
      </trkpt>
      <trkpt lat="42.463096" lon="1.974332">
        <ele>1160.008</ele>
        <time>2019-06-01T12:58:56Z</time>
      </trkpt>
      <trkpt lat="42.463123" lon="1.974395">
        <ele>1160.268</ele>
        <time>2019-06-01T12:58:58Z</time>
      </trkpt>
      <trkpt lat="42.463225" lon="1.974581">
        <ele>1160.622</ele>
        <time>2019-06-01T12:59:05Z</time>
      </trkpt>
      <trkpt lat="42.463352" lon="1.974852">
        <ele>1160.848</ele>
        <time>2019-06-01T12:59:14Z</time>
      </trkpt>
      <trkpt lat="42.463389" lon="1.974916">
        <ele>1161.246</ele>
        <time>2019-06-01T12:59:16Z</time>
      </trkpt>
      <trkpt lat="42.463531" lon="1.975160">
        <ele>1161.850</ele>
        <time>2019-06-01T12:59:23Z</time>
      </trkpt>
      <trkpt lat="42.463664" lon="1.975381">
        <ele>1162.027</ele>
        <time>2019-06-01T12:59:29Z</time>
      </trkpt>
      <trkpt lat="42.463692" lon="1.975444">
        <ele>1162.425</ele>
        <time>2019-06-01T12:59:31Z</time>
      </trkpt>
      <trkpt lat="42.463780" lon="1.975598">
        <ele>1162.036</ele>
        <time>2019-06-01T12:59:36Z</time>
      </trkpt>
      <trkpt lat="42.463913" lon="1.975808">
        <ele>1163.497</ele>
        <time>2019-06-01T12:59:43Z</time>
      </trkpt>
      <trkpt lat="42.463931" lon="1.975839">
        <ele>1163.423</ele>
        <time>2019-06-01T12:59:44Z</time>
      </trkpt>
      <trkpt lat="42.464093" lon="1.976149">
        <ele>1164.225</ele>
        <time>2019-06-01T12:59:54Z</time>
      </trkpt>
      <trkpt lat="42.464126" lon="1.976210">
        <ele>1164.408</ele>
        <time>2019-06-01T12:59:56Z</time>
      </trkpt>
      <trkpt lat="42.464173" lon="1.976378">
        <ele>1164.882</ele>
        <time>2019-06-01T13:00:01Z</time>
      </trkpt>
      <trkpt lat="42.464221" lon="1.976598">
        <ele>1165.486</ele>
        <time>2019-06-01T13:00:07Z</time>
      </trkpt>
      <trkpt lat="42.464236" lon="1.976642">
        <ele>1165.482</ele>
        <time>2019-06-01T13:00:08Z</time>
      </trkpt>
      <trkpt lat="42.464315" lon="1.976833">
        <ele>1165.690</ele>
        <time>2019-06-01T13:00:13Z</time>
      </trkpt>
      <trkpt lat="42.464415" lon="1.977117">
        <ele>1166.224</ele>
        <time>2019-06-01T13:00:20Z</time>
      </trkpt>
      <trkpt lat="42.464468" lon="1.977277">
        <ele>1166.471</ele>
        <time>2019-06-01T13:00:24Z</time>
      </trkpt>
      <trkpt lat="42.464522" lon="1.977443">
        <ele>1166.489</ele>
        <time>2019-06-01T13:00:28Z</time>
      </trkpt>
      <trkpt lat="42.464627" lon="1.977735">
        <ele>1167.090</ele>
        <time>2019-06-01T13:00:35Z</time>
      </trkpt>
      <trkpt lat="42.464730" lon="1.978027">
        <ele>1167.282</ele>
        <time>2019-06-01T13:00:42Z</time>
      </trkpt>
      <trkpt lat="42.464750" lon="1.978070">
        <ele>1167.443</ele>
        <time>2019-06-01T13:00:43Z</time>
      </trkpt>
      <trkpt lat="42.464839" lon="1.978336">
        <ele>1167.617</ele>
        <time>2019-06-01T13:00:49Z</time>
      </trkpt>
      <trkpt lat="42.464961" lon="1.978517">
        <ele>1168.208</ele>
        <time>2019-06-01T13:00:54Z</time>
      </trkpt>
      <trkpt lat="42.465068" lon="1.978655">
        <ele>1168.431</ele>
        <time>2019-06-01T13:00:58Z</time>
      </trkpt>
      <trkpt lat="42.465140" lon="1.978812">
        <ele>1168.895</ele>
        <time>2019-06-01T13:01:02Z</time>
      </trkpt>
      <trkpt lat="42.465206" lon="1.978963">
        <ele>1169.621</ele>
        <time>2019-06-01T13:01:06Z</time>
      </trkpt>
      <trkpt lat="42.465245" lon="1.979141">
        <ele>1170.099</ele>
        <time>2019-06-01T13:01:10Z</time>
      </trkpt>
      <trkpt lat="42.465276" lon="1.979449">
        <ele>1170.063</ele>
        <time>2019-06-01T13:01:16Z</time>
      </trkpt>
      <trkpt lat="42.465345" lon="1.979811">
        <ele>1170.880</ele>
        <time>2019-06-01T13:01:23Z</time>
      </trkpt>
      <trkpt lat="42.465412" lon="1.980150">
        <ele>1171.648</ele>
        <time>2019-06-01T13:01:31Z</time>
      </trkpt>
      <trkpt lat="42.465451" lon="1.980264">
        <ele>1171.849</ele>
        <time>2019-06-01T13:01:34Z</time>
      </trkpt>
      <trkpt lat="42.465453" lon="1.980360">
        <ele>1172.414</ele>
        <time>2019-06-01T13:01:37Z</time>
      </trkpt>
      <trkpt lat="42.465469" lon="1.980475">
        <ele>1170.254</ele>
        <time>2019-06-01T13:01:40Z</time>
      </trkpt>
      <trkpt lat="42.465479" lon="1.980514">
        <ele>1171.609</ele>
        <time>2019-06-01T13:01:41Z</time>
      </trkpt>
      <trkpt lat="42.465484" lon="1.980553">
        <ele>1173.808</ele>
        <time>2019-06-01T13:01:42Z</time>
      </trkpt>
      <trkpt lat="42.465483" lon="1.980681">
        <ele>1174.054</ele>
        <time>2019-06-01T13:01:46Z</time>
      </trkpt>
      <trkpt lat="42.465479" lon="1.980705">
        <ele>1174.018</ele>
        <time>2019-06-01T13:01:47Z</time>
      </trkpt>
      <trkpt lat="42.465555" lon="1.980840">
        <ele>1174.664</ele>
        <time>2019-06-01T13:01:51Z</time>
      </trkpt>
      <trkpt lat="42.465563" lon="1.980909">
        <ele>1175.092</ele>
        <time>2019-06-01T13:01:53Z</time>
      </trkpt>
      <trkpt lat="42.465552" lon="1.981034">
        <ele>1175.636</ele>
        <time>2019-06-01T13:01:56Z</time>
      </trkpt>
      <trkpt lat="42.465532" lon="1.981056">
        <ele>1175.813</ele>
        <time>2019-06-01T13:01:57Z</time>
      </trkpt>
      <trkpt lat="42.465508" lon="1.981069">
        <ele>1176.021</ele>
        <time>2019-06-01T13:01:58Z</time>
      </trkpt>
      <trkpt lat="42.465475" lon="1.981111">
        <ele>1176.422</ele>
        <time>2019-06-01T13:02:00Z</time>
      </trkpt>
      <trkpt lat="42.465407" lon="1.981153">
        <ele>1177.055</ele>
        <time>2019-06-01T13:02:03Z</time>
      </trkpt>
      <trkpt lat="42.465298" lon="1.981226">
        <ele>1177.007</ele>
        <time>2019-06-01T13:02:07Z</time>
      </trkpt>
      <trkpt lat="42.465286" lon="1.981256">
        <ele>1177.217</ele>
        <time>2019-06-01T13:02:08Z</time>
      </trkpt>
      <trkpt lat="42.465274" lon="1.981328">
        <ele>1177.808</ele>
        <time>2019-06-01T13:02:10Z</time>
      </trkpt>
      <trkpt lat="42.465277" lon="1.981356">
        <ele>1178.248</ele>
        <time>2019-06-01T13:02:11Z</time>
      </trkpt>
      <trkpt lat="42.465284" lon="1.981437">
        <ele>1179.472</ele>
        <time>2019-06-01T13:02:14Z</time>
      </trkpt>
      <trkpt lat="42.465275" lon="1.981461">
        <ele>1179.878</ele>
        <time>2019-06-01T13:02:15Z</time>
      </trkpt>
      <trkpt lat="42.465205" lon="1.981635">
        <ele>1180.616</ele>
        <time>2019-06-01T13:02:20Z</time>
      </trkpt>
      <trkpt lat="42.465068" lon="1.981913">
        <ele>1180.290</ele>
        <time>2019-06-01T13:02:28Z</time>
      </trkpt>
      <trkpt lat="42.465037" lon="1.981964">
        <ele>1179.457</ele>
        <time>2019-06-01T13:02:30Z</time>
      </trkpt>
      <trkpt lat="42.464969" lon="1.982018">
        <ele>1179.075</ele>
        <time>2019-06-01T13:02:33Z</time>
      </trkpt>
    </trkseg>
  </trk>
</gpx>
